<?xml version="1.0" encoding="UTF-8"?>
<TrainingCenterDatabase xmlns="http://www.garmin.com/xmlschemas/TrainingCenterDatabase/v2" xmlns:xsi="http://www.w3.org/2001/XMLSchema-instance" xsi:schemaLocation="http://www.garmin.com/xmlschemas/TrainingCenterDatabase/v2 http://www.garmin.com/xmlschemas/TrainingCenterDatabasev2.xsd">
  <Activities>
    <Activity Sport="Other">
      <Id>2018-08-26T05:36:27.000Z</Id>
      <Lap StartTime="2018-08-26T05:36:27.000Z">
        <TotalTimeSeconds>12988</TotalTimeSeconds>
        <DistanceMeters>95690</DistanceMeters>
        <Track>
          <Trackpoint>
            <Time>2018-08-26T05:36:27.000Z</Time>
            <Position>
              <LatitudeDegrees>42.82575116492807865142822265625</LatitudeDegrees>
              <LongitudeDegrees>-1.619841344654560089111328125</LongitudeDegrees>
            </Position>
            <AltitudeMeters>418.20001220703125</AltitudeMeters>
            <DistanceMeters>0</DistanceMeters>
          </Trackpoint>
          <Trackpoint>
            <Time>2018-08-26T05:36:28.000Z</Time>
            <Position>
              <LatitudeDegrees>42.82577010802924633026123046875</LatitudeDegrees>
              <LongitudeDegrees>-1.61986573599278926849365234375</LongitudeDegrees>
            </Position>
            <AltitudeMeters>418.20001220703125</AltitudeMeters>
            <DistanceMeters>2.9010396835903</DistanceMeters>
          </Trackpoint>
          <Trackpoint>
            <Time>2018-08-26T05:36:29.000Z</Time>
            <Position>
              <LatitudeDegrees>42.82578586600720882415771484375</LatitudeDegrees>
              <LongitudeDegrees>-1.61989725194871425628662109375</LongitudeDegrees>
            </Position>
            <AltitudeMeters>418.20001220703125</AltitudeMeters>
            <DistanceMeters>6.0152493908526</DistanceMeters>
          </Trackpoint>
          <Trackpoint>
            <Time>2018-08-26T05:36:30.000Z</Time>
            <Position>
              <LatitudeDegrees>42.82580061815679073333740234375</LatitudeDegrees>
              <LongitudeDegrees>-1.6199375689029693603515625</LongitudeDegrees>
            </Position>
            <AltitudeMeters>418.20001220703125</AltitudeMeters>
            <DistanceMeters>9.6943912187098</DistanceMeters>
          </Trackpoint>
          <Trackpoint>
            <Time>2018-08-26T05:36:31.000Z</Time>
            <Position>
              <LatitudeDegrees>42.825814448297023773193359375</LatitudeDegrees>
              <LongitudeDegrees>-1.6199846751987934112548828125</LongitudeDegrees>
            </Position>
            <AltitudeMeters>418.20001220703125</AltitudeMeters>
            <DistanceMeters>13.836509667464</DistanceMeters>
          </Trackpoint>
          <Trackpoint>
            <Time>2018-08-26T05:36:32.000Z</Time>
            <Position>
              <LatitudeDegrees>42.82582811079919338226318359375</LatitudeDegrees>
              <LongitudeDegrees>-1.62003555335104465484619140625</LongitudeDegrees>
            </Position>
            <AltitudeMeters>418.20001220703125</AltitudeMeters>
            <DistanceMeters>18.259081948118</DistanceMeters>
          </Trackpoint>
          <Trackpoint>
            <Time>2018-08-26T05:36:33.000Z</Time>
            <Position>
              <LatitudeDegrees>42.82583816908299922943115234375</LatitudeDegrees>
              <LongitudeDegrees>-1.62009221501648426055908203125</LongitudeDegrees>
            </Position>
            <AltitudeMeters>418.20001220703125</AltitudeMeters>
            <DistanceMeters>23.018013731768</DistanceMeters>
          </Trackpoint>
          <Trackpoint>
            <Time>2018-08-26T05:36:34.000Z</Time>
            <Position>
              <LatitudeDegrees>42.82584940083324909210205078125</LatitudeDegrees>
              <LongitudeDegrees>-1.620151810348033905029296875</LongitudeDegrees>
            </Position>
            <AltitudeMeters>418.20001220703125</AltitudeMeters>
            <DistanceMeters>28.040964416815</DistanceMeters>
          </Trackpoint>
          <Trackpoint>
            <Time>2018-08-26T05:36:35.000Z</Time>
            <Position>
              <LatitudeDegrees>42.8258635662496089935302734375</LatitudeDegrees>
              <LongitudeDegrees>-1.62021274678409099578857421875</LongitudeDegrees>
            </Position>
            <AltitudeMeters>418.20001220703125</AltitudeMeters>
            <DistanceMeters>33.257922381192</DistanceMeters>
          </Trackpoint>
          <Trackpoint>
            <Time>2018-08-26T05:36:36.000Z</Time>
            <Position>
              <LatitudeDegrees>42.82587454654276371002197265625</LatitudeDegrees>
              <LongitudeDegrees>-1.62027846090495586395263671875</LongitudeDegrees>
            </Position>
            <AltitudeMeters>418.20001220703125</AltitudeMeters>
            <DistanceMeters>38.759632682557</DistanceMeters>
          </Trackpoint>
          <Trackpoint>
            <Time>2018-08-26T05:36:37.000Z</Time>
            <Position>
              <LatitudeDegrees>42.82588929869234561920166015625</LatitudeDegrees>
              <LongitudeDegrees>-1.62034283392131328582763671875</LongitudeDegrees>
            </Position>
            <AltitudeMeters>418.20001220703125</AltitudeMeters>
            <DistanceMeters>44.264624648574</DistanceMeters>
          </Trackpoint>
          <Trackpoint>
            <Time>2018-08-26T05:36:38.000Z</Time>
            <Position>
              <LatitudeDegrees>42.825904302299022674560546875</LatitudeDegrees>
              <LongitudeDegrees>-1.6204082965850830078125</LongitudeDegrees>
            </Position>
            <AltitudeMeters>418</AltitudeMeters>
            <DistanceMeters>49.862335364618</DistanceMeters>
          </Trackpoint>
          <Trackpoint>
            <Time>2018-08-26T05:36:39.000Z</Time>
            <Position>
              <LatitudeDegrees>42.825918383896350860595703125</LatitudeDegrees>
              <LongitudeDegrees>-1.62047526799142360687255859375</LongitudeDegrees>
            </Position>
            <AltitudeMeters>418</AltitudeMeters>
            <DistanceMeters>55.54966635747</DistanceMeters>
          </Trackpoint>
          <Trackpoint>
            <Time>2018-08-26T05:36:40.000Z</Time>
            <Position>
              <LatitudeDegrees>42.825936488807201385498046875</LatitudeDegrees>
              <LongitudeDegrees>-1.62054182030260562896728515625</LongitudeDegrees>
            </Position>
            <AltitudeMeters>418</AltitudeMeters>
            <DistanceMeters>61.343958740378</DistanceMeters>
          </Trackpoint>
          <Trackpoint>
            <Time>2018-08-26T05:36:41.000Z</Time>
            <Position>
              <LatitudeDegrees>42.8259534202516078948974609375</LatitudeDegrees>
              <LongitudeDegrees>-1.62060786969959735870361328125</LongitudeDegrees>
            </Position>
            <AltitudeMeters>418</AltitudeMeters>
            <DistanceMeters>67.055056368292</DistanceMeters>
          </Trackpoint>
          <Trackpoint>
            <Time>2018-08-26T05:36:42.000Z</Time>
            <Position>
              <LatitudeDegrees>42.82597043551504611968994140625</LatitudeDegrees>
              <LongitudeDegrees>-1.62067576311528682708740234375</LongitudeDegrees>
            </Position>
            <AltitudeMeters>418</AltitudeMeters>
            <DistanceMeters>72.912125636329</DistanceMeters>
          </Trackpoint>
          <Trackpoint>
            <Time>2018-08-26T05:36:43.000Z</Time>
            <Position>
              <LatitudeDegrees>42.82598703168332576751708984375</LatitudeDegrees>
              <LongitudeDegrees>-1.62074298597872257232666015625</LongitudeDegrees>
            </Position>
            <AltitudeMeters>417.79998779296875</AltitudeMeters>
            <DistanceMeters>78.700960897719</DistanceMeters>
          </Trackpoint>
          <Trackpoint>
            <Time>2018-08-26T05:36:44.000Z</Time>
            <Position>
              <LatitudeDegrees>42.82600396312773227691650390625</LatitudeDegrees>
              <LongitudeDegrees>-1.6208111308515071868896484375</LongitudeDegrees>
            </Position>
            <AltitudeMeters>417.79998779296875</AltitudeMeters>
            <DistanceMeters>84.574196123377</DistanceMeters>
          </Trackpoint>
          <Trackpoint>
            <Time>2018-08-26T05:36:45.000Z</Time>
            <Position>
              <LatitudeDegrees>42.82601888291537761688232421875</LatitudeDegrees>
              <LongitudeDegrees>-1.620881371200084686279296875</LongitudeDegrees>
            </Position>
            <AltitudeMeters>417.79998779296875</AltitudeMeters>
            <DistanceMeters>90.544264106599</DistanceMeters>
          </Trackpoint>
          <Trackpoint>
            <Time>2018-08-26T05:36:46.000Z</Time>
            <Position>
              <LatitudeDegrees>42.826034389436244964599609375</LatitudeDegrees>
              <LongitudeDegrees>-1.62095303647220134735107421875</LongitudeDegrees>
            </Position>
            <AltitudeMeters>417.79998779296875</AltitudeMeters>
            <DistanceMeters>96.643765311541</DistanceMeters>
          </Trackpoint>
          <Trackpoint>
            <Time>2018-08-26T05:36:47.000Z</Time>
            <Position>
              <LatitudeDegrees>42.826051823794841766357421875</LatitudeDegrees>
              <LongitudeDegrees>-1.621023528277873992919921875</LongitudeDegrees>
            </Position>
            <AltitudeMeters>417.79998779296875</AltitudeMeters>
            <DistanceMeters>102.71655974221</DistanceMeters>
          </Trackpoint>
          <Trackpoint>
            <Time>2018-08-26T05:36:48.000Z</Time>
            <Position>
              <LatitudeDegrees>42.826069928705692291259765625</LatitudeDegrees>
              <LongitudeDegrees>-1.62109418772161006927490234375</LongitudeDegrees>
            </Position>
            <AltitudeMeters>417.399993896484375</AltitudeMeters>
            <DistanceMeters>108.82567636762</DistanceMeters>
          </Trackpoint>
          <Trackpoint>
            <Time>2018-08-26T05:36:49.000Z</Time>
            <Position>
              <LatitudeDegrees>42.826090715825557708740234375</LatitudeDegrees>
              <LongitudeDegrees>-1.62116191349923610687255859375</LongitudeDegrees>
            </Position>
            <AltitudeMeters>417.399993896484375</AltitudeMeters>
            <DistanceMeters>114.81838977788</DistanceMeters>
          </Trackpoint>
          <Trackpoint>
            <Time>2018-08-26T05:36:50.000Z</Time>
            <Position>
              <LatitudeDegrees>42.8261170350015163421630859375</LatitudeDegrees>
              <LongitudeDegrees>-1.62122704088687896728515625</LongitudeDegrees>
            </Position>
            <AltitudeMeters>417.399993896484375</AltitudeMeters>
            <DistanceMeters>120.88820953562</DistanceMeters>
          </Trackpoint>
          <Trackpoint>
            <Time>2018-08-26T05:36:51.000Z</Time>
            <Position>
              <LatitudeDegrees>42.82614947296679019927978515625</LatitudeDegrees>
              <LongitudeDegrees>-1.6212838701903820037841796875</LongitudeDegrees>
            </Position>
            <AltitudeMeters>417.399993896484375</AltitudeMeters>
            <DistanceMeters>126.76682353477</DistanceMeters>
          </Trackpoint>
          <Trackpoint>
            <Time>2018-08-26T05:36:52.000Z</Time>
            <Position>
              <LatitudeDegrees>42.82618886791169643402099609375</LatitudeDegrees>
              <LongitudeDegrees>-1.62132351659238338470458984375</LongitudeDegrees>
            </Position>
            <AltitudeMeters>417.399993896484375</AltitudeMeters>
            <DistanceMeters>132.21741538342</DistanceMeters>
          </Trackpoint>
          <Trackpoint>
            <Time>2018-08-26T05:36:53.000Z</Time>
            <Position>
              <LatitudeDegrees>42.8262370638549327850341796875</LatitudeDegrees>
              <LongitudeDegrees>-1.62134212441742420196533203125</LongitudeDegrees>
            </Position>
            <AltitudeMeters>417.20001220703125</AltitudeMeters>
            <DistanceMeters>137.79330573354</DistanceMeters>
          </Trackpoint>
          <Trackpoint>
            <Time>2018-08-26T05:36:54.000Z</Time>
            <Position>
              <LatitudeDegrees>42.826289869844913482666015625</LatitudeDegrees>
              <LongitudeDegrees>-1.6213458962738513946533203125</LongitudeDegrees>
            </Position>
            <AltitudeMeters>417.20001220703125</AltitudeMeters>
            <DistanceMeters>143.67882807561</DistanceMeters>
          </Trackpoint>
          <Trackpoint>
            <Time>2018-08-26T05:36:55.000Z</Time>
            <Position>
              <LatitudeDegrees>42.82634275965392589569091796875</LatitudeDegrees>
              <LongitudeDegrees>-1.62133893929421901702880859375</LongitudeDegrees>
            </Position>
            <AltitudeMeters>417.20001220703125</AltitudeMeters>
            <DistanceMeters>149.59266659787</DistanceMeters>
          </Trackpoint>
          <Trackpoint>
            <Time>2018-08-26T05:36:56.000Z</Time>
            <Position>
              <LatitudeDegrees>42.82639422453939914703369140625</LatitudeDegrees>
              <LongitudeDegrees>-1.62132502533495426177978515625</LongitudeDegrees>
            </Position>
            <AltitudeMeters>417</AltitudeMeters>
            <DistanceMeters>155.43275210485</DistanceMeters>
          </Trackpoint>
          <Trackpoint>
            <Time>2018-08-26T05:36:57.000Z</Time>
            <Position>
              <LatitudeDegrees>42.82644468359649181365966796875</LatitudeDegrees>
              <LongitudeDegrees>-1.62130641750991344451904296875</LongitudeDegrees>
            </Position>
            <AltitudeMeters>417</AltitudeMeters>
            <DistanceMeters>161.25115021674</DistanceMeters>
          </Trackpoint>
          <Trackpoint>
            <Time>2018-08-26T05:36:58.000Z</Time>
            <Position>
              <LatitudeDegrees>42.82649564556777477264404296875</LatitudeDegrees>
              <LongitudeDegrees>-1.6212838701903820037841796875</LongitudeDegrees>
            </Position>
            <AltitudeMeters>417</AltitudeMeters>
            <DistanceMeters>167.21440780268</DistanceMeters>
          </Trackpoint>
          <Trackpoint>
            <Time>2018-08-26T05:36:59.000Z</Time>
            <Position>
              <LatitudeDegrees>42.82654442824423313140869140625</LatitudeDegrees>
              <LongitudeDegrees>-1.6212577186524868011474609375</LongitudeDegrees>
            </Position>
            <AltitudeMeters>417</AltitudeMeters>
            <DistanceMeters>173.04830513785</DistanceMeters>
          </Trackpoint>
          <Trackpoint>
            <Time>2018-08-26T05:37:00.000Z</Time>
            <Position>
              <LatitudeDegrees>42.82659329473972320556640625</LatitudeDegrees>
              <LongitudeDegrees>-1.62122838199138641357421875</LongitudeDegrees>
            </Position>
            <AltitudeMeters>417</AltitudeMeters>
            <DistanceMeters>178.99108470403</DistanceMeters>
          </Trackpoint>
          <Trackpoint>
            <Time>2018-08-26T05:37:01.000Z</Time>
            <Position>
              <LatitudeDegrees>42.82664668746292591094970703125</LatitudeDegrees>
              <LongitudeDegrees>-1.62120147608220577239990234375</LongitudeDegrees>
            </Position>
            <AltitudeMeters>417</AltitudeMeters>
            <DistanceMeters>185.32730754338</DistanceMeters>
          </Trackpoint>
          <Trackpoint>
            <Time>2018-08-26T05:37:02.000Z</Time>
            <Position>
              <LatitudeDegrees>42.8266980685293674468994140625</LatitudeDegrees>
              <LongitudeDegrees>-1.62116979248821735382080078125</LongitudeDegrees>
            </Position>
            <AltitudeMeters>417</AltitudeMeters>
            <DistanceMeters>191.60338860153</DistanceMeters>
          </Trackpoint>
          <Trackpoint>
            <Time>2018-08-26T05:37:03.000Z</Time>
            <Position>
              <LatitudeDegrees>42.82674877904355525970458984375</LatitudeDegrees>
              <LongitudeDegrees>-1.62113810889422893524169921875</LongitudeDegrees>
            </Position>
            <AltitudeMeters>417</AltitudeMeters>
            <DistanceMeters>197.81147737851</DistanceMeters>
          </Trackpoint>
          <Trackpoint>
            <Time>2018-08-26T05:37:04.000Z</Time>
            <Position>
              <LatitudeDegrees>42.8267991542816162109375</LatitudeDegrees>
              <LongitudeDegrees>-1.6211061738431453704833984375</LongitudeDegrees>
            </Position>
            <AltitudeMeters>417</AltitudeMeters>
            <DistanceMeters>203.99478908533</DistanceMeters>
          </Trackpoint>
          <Trackpoint>
            <Time>2018-08-26T05:37:05.000Z</Time>
            <Position>
              <LatitudeDegrees>42.826850451529026031494140625</LatitudeDegrees>
              <LongitudeDegrees>-1.62107407115399837493896484375</LongitudeDegrees>
            </Position>
            <AltitudeMeters>417</AltitudeMeters>
            <DistanceMeters>210.27662273961</DistanceMeters>
          </Trackpoint>
          <Trackpoint>
            <Time>2018-08-26T05:37:06.000Z</Time>
            <Position>
              <LatitudeDegrees>42.82690267078578472137451171875</LatitudeDegrees>
              <LongitudeDegrees>-1.62104238756000995635986328125</LongitudeDegrees>
            </Position>
            <AltitudeMeters>417</AltitudeMeters>
            <DistanceMeters>216.63773683585</DistanceMeters>
          </Trackpoint>
          <Trackpoint>
            <Time>2018-08-26T05:37:07.000Z</Time>
            <Position>
              <LatitudeDegrees>42.82695614732801914215087890625</LatitudeDegrees>
              <LongitudeDegrees>-1.62101137451827526092529296875</LongitudeDegrees>
            </Position>
            <AltitudeMeters>417</AltitudeMeters>
            <DistanceMeters>223.10514080409</DistanceMeters>
          </Trackpoint>
          <Trackpoint>
            <Time>2018-08-26T05:37:08.000Z</Time>
            <Position>
              <LatitudeDegrees>42.82700610347092151641845703125</LatitudeDegrees>
              <LongitudeDegrees>-1.62097985856235027313232421875</LongitudeDegrees>
            </Position>
            <AltitudeMeters>417</AltitudeMeters>
            <DistanceMeters>229.23196932932</DistanceMeters>
          </Trackpoint>
          <Trackpoint>
            <Time>2018-08-26T05:37:09.000Z</Time>
            <Position>
              <LatitudeDegrees>42.82705706544220447540283203125</LatitudeDegrees>
              <LongitudeDegrees>-1.6209479235112667083740234375</LongitudeDegrees>
            </Position>
            <AltitudeMeters>417</AltitudeMeters>
            <DistanceMeters>235.47487009195</DistanceMeters>
          </Trackpoint>
          <Trackpoint>
            <Time>2018-08-26T05:37:10.000Z</Time>
            <Position>
              <LatitudeDegrees>42.82710920087993144989013671875</LatitudeDegrees>
              <LongitudeDegrees>-1.62091665901243686676025390625</LongitudeDegrees>
            </Position>
            <AltitudeMeters>417.20001220703125</AltitudeMeters>
            <DistanceMeters>241.81394259316</DistanceMeters>
          </Trackpoint>
          <Trackpoint>
            <Time>2018-08-26T05:37:11.000Z</Time>
            <Position>
              <LatitudeDegrees>42.827160246670246124267578125</LatitudeDegrees>
              <LongitudeDegrees>-1.62088899873197078704833984375</LongitudeDegrees>
            </Position>
            <AltitudeMeters>417.20001220703125</AltitudeMeters>
            <DistanceMeters>247.92823048939</DistanceMeters>
          </Trackpoint>
          <Trackpoint>
            <Time>2018-08-26T05:37:12.000Z</Time>
            <Position>
              <LatitudeDegrees>42.827211208641529083251953125</LatitudeDegrees>
              <LongitudeDegrees>-1.62085949443280696868896484375</LongitudeDegrees>
            </Position>
            <AltitudeMeters>417.20001220703125</AltitudeMeters>
            <DistanceMeters>254.09033008667</DistanceMeters>
          </Trackpoint>
          <Trackpoint>
            <Time>2018-08-26T05:37:13.000Z</Time>
            <Position>
              <LatitudeDegrees>42.82726359553635120391845703125</LatitudeDegrees>
              <LongitudeDegrees>-1.620829068124294281005859375</LongitudeDegrees>
            </Position>
            <AltitudeMeters>417.20001220703125</AltitudeMeters>
            <DistanceMeters>260.42797791712</DistanceMeters>
          </Trackpoint>
          <Trackpoint>
            <Time>2018-08-26T05:37:14.000Z</Time>
            <Position>
              <LatitudeDegrees>42.8273149766027927398681640625</LatitudeDegrees>
              <LongitudeDegrees>-1.6207950375974178314208984375</LongitudeDegrees>
            </Position>
            <AltitudeMeters>417.20001220703125</AltitudeMeters>
            <DistanceMeters>266.78554208613</DistanceMeters>
          </Trackpoint>
          <Trackpoint>
            <Time>2018-08-26T05:37:15.000Z</Time>
            <Position>
              <LatitudeDegrees>42.82736652530729770660400390625</LatitudeDegrees>
              <LongitudeDegrees>-1.62076159380376338958740234375</LongitudeDegrees>
            </Position>
            <AltitudeMeters>417.20001220703125</AltitudeMeters>
            <DistanceMeters>273.13884372421</DistanceMeters>
          </Trackpoint>
          <Trackpoint>
            <Time>2018-08-26T05:37:16.000Z</Time>
            <Position>
              <LatitudeDegrees>42.82741849310696125030517578125</LatitudeDegrees>
              <LongitudeDegrees>-1.62073192186653614044189453125</LongitudeDegrees>
            </Position>
            <AltitudeMeters>417</AltitudeMeters>
            <DistanceMeters>279.41060687263</DistanceMeters>
          </Trackpoint>
          <Trackpoint>
            <Time>2018-08-26T05:37:17.000Z</Time>
            <Position>
              <LatitudeDegrees>42.82747037708759307861328125</LatitudeDegrees>
              <LongitudeDegrees>-1.6207021661102771759033203125</LongitudeDegrees>
            </Position>
            <AltitudeMeters>417.20001220703125</AltitudeMeters>
            <DistanceMeters>285.67516689114</DistanceMeters>
          </Trackpoint>
          <Trackpoint>
            <Time>2018-08-26T05:37:18.000Z</Time>
            <Position>
              <LatitudeDegrees>42.82751974649727344512939453125</LatitudeDegrees>
              <LongitudeDegrees>-1.6206689737737178802490234375</LongitudeDegrees>
            </Position>
            <AltitudeMeters>417.20001220703125</AltitudeMeters>
            <DistanceMeters>291.80125844294</DistanceMeters>
          </Trackpoint>
          <Trackpoint>
            <Time>2018-08-26T05:37:19.000Z</Time>
            <Position>
              <LatitudeDegrees>42.82757121138274669647216796875</LatitudeDegrees>
              <LongitudeDegrees>-1.62063485942780971527099609375</LongitudeDegrees>
            </Position>
            <AltitudeMeters>417.20001220703125</AltitudeMeters>
            <DistanceMeters>298.17017541416</DistanceMeters>
          </Trackpoint>
          <Trackpoint>
            <Time>2018-08-26T05:37:20.000Z</Time>
            <Position>
              <LatitudeDegrees>42.82762435264885425567626953125</LatitudeDegrees>
              <LongitudeDegrees>-1.62060032598674297332763671875</LongitudeDegrees>
            </Position>
            <AltitudeMeters>417.20001220703125</AltitudeMeters>
            <DistanceMeters>304.72219673697</DistanceMeters>
          </Trackpoint>
          <Trackpoint>
            <Time>2018-08-26T05:37:21.000Z</Time>
            <Position>
              <LatitudeDegrees>42.82767715863883495330810546875</LatitudeDegrees>
              <LongitudeDegrees>-1.6205687262117862701416015625</LongitudeDegrees>
            </Position>
            <AltitudeMeters>417.20001220703125</AltitudeMeters>
            <DistanceMeters>311.14054611491</DistanceMeters>
          </Trackpoint>
          <Trackpoint>
            <Time>2018-08-26T05:37:22.000Z</Time>
            <Position>
              <LatitudeDegrees>42.82772845588624477386474609375</LatitudeDegrees>
              <LongitudeDegrees>-1.6205398924648761749267578125</LongitudeDegrees>
            </Position>
            <AltitudeMeters>417.20001220703125</AltitudeMeters>
            <DistanceMeters>317.31655153097</DistanceMeters>
          </Trackpoint>
          <Trackpoint>
            <Time>2018-08-26T05:37:23.000Z</Time>
            <Position>
              <LatitudeDegrees>42.82777874730527400970458984375</LatitudeDegrees>
              <LongitudeDegrees>-1.6205107234418392181396484375</LongitudeDegrees>
            </Position>
            <AltitudeMeters>417.20001220703125</AltitudeMeters>
            <DistanceMeters>323.39974586186</DistanceMeters>
          </Trackpoint>
          <Trackpoint>
            <Time>2018-08-26T05:37:24.000Z</Time>
            <Position>
              <LatitudeDegrees>42.8278296254575252532958984375</LatitudeDegrees>
              <LongitudeDegrees>-1.6204833984375</LongitudeDegrees>
            </Position>
            <AltitudeMeters>417.20001220703125</AltitudeMeters>
            <DistanceMeters>329.48590832873</DistanceMeters>
          </Trackpoint>
          <Trackpoint>
            <Time>2018-08-26T05:37:25.000Z</Time>
            <Position>
              <LatitudeDegrees>42.82787949778139591217041015625</LatitudeDegrees>
              <LongitudeDegrees>-1.62045515142381191253662109375</LongitudeDegrees>
            </Position>
            <AltitudeMeters>417.20001220703125</AltitudeMeters>
            <DistanceMeters>335.49742776467</DistanceMeters>
          </Trackpoint>
          <Trackpoint>
            <Time>2018-08-26T05:37:26.000Z</Time>
            <Position>
              <LatitudeDegrees>42.82793045975267887115478515625</LatitudeDegrees>
              <LongitudeDegrees>-1.62042506039142608642578125</LongitudeDegrees>
            </Position>
            <AltitudeMeters>417.20001220703125</AltitudeMeters>
            <DistanceMeters>341.67854849107</DistanceMeters>
          </Trackpoint>
          <Trackpoint>
            <Time>2018-08-26T05:37:27.000Z</Time>
            <Position>
              <LatitudeDegrees>42.8279833495616912841796875</LatitudeDegrees>
              <LongitudeDegrees>-1.62039421498775482177734375</LongitudeDegrees>
            </Position>
            <AltitudeMeters>417.399993896484375</AltitudeMeters>
            <DistanceMeters>348.08140309317</DistanceMeters>
          </Trackpoint>
          <Trackpoint>
            <Time>2018-08-26T05:37:28.000Z</Time>
            <Position>
              <LatitudeDegrees>42.82803389243781566619873046875</LatitudeDegrees>
              <LongitudeDegrees>-1.620363034307956695556640625</LongitudeDegrees>
            </Position>
            <AltitudeMeters>417.399993896484375</AltitudeMeters>
            <DistanceMeters>354.25594621362</DistanceMeters>
          </Trackpoint>
          <Trackpoint>
            <Time>2018-08-26T05:37:29.000Z</Time>
            <Position>
              <LatitudeDegrees>42.82808116637170314788818359375</LatitudeDegrees>
              <LongitudeDegrees>-1.620331518352031707763671875</LongitudeDegrees>
            </Position>
            <AltitudeMeters>417.399993896484375</AltitudeMeters>
            <DistanceMeters>360.11224456106</DistanceMeters>
          </Trackpoint>
          <Trackpoint>
            <Time>2018-08-26T05:37:30.000Z</Time>
            <Position>
              <LatitudeDegrees>42.82812827266752719879150390625</LatitudeDegrees>
              <LongitudeDegrees>-1.6203023493289947509765625</LongitudeDegrees>
            </Position>
            <AltitudeMeters>417.600006103515625</AltitudeMeters>
            <DistanceMeters>365.87058118739</DistanceMeters>
          </Trackpoint>
          <Trackpoint>
            <Time>2018-08-26T05:37:31.000Z</Time>
            <Position>
              <LatitudeDegrees>42.8281769715249538421630859375</LatitudeDegrees>
              <LongitudeDegrees>-1.62027628161013126373291015625</LongitudeDegrees>
            </Position>
            <AltitudeMeters>417.600006103515625</AltitudeMeters>
            <DistanceMeters>371.69363339796</DistanceMeters>
          </Trackpoint>
          <Trackpoint>
            <Time>2018-08-26T05:37:32.000Z</Time>
            <Position>
              <LatitudeDegrees>42.82822466455399990081787109375</LatitudeDegrees>
              <LongitudeDegrees>-1.62025080062448978424072265625</LongitudeDegrees>
            </Position>
            <AltitudeMeters>417.79998779296875</AltitudeMeters>
            <DistanceMeters>377.39444431588</DistanceMeters>
          </Trackpoint>
          <Trackpoint>
            <Time>2018-08-26T05:37:33.000Z</Time>
            <Position>
              <LatitudeDegrees>42.8282715193927288055419921875</LatitudeDegrees>
              <LongitudeDegrees>-1.6202247329056262969970703125</LongitudeDegrees>
            </Position>
            <AltitudeMeters>418</AltitudeMeters>
            <DistanceMeters>383.02592977454</DistanceMeters>
          </Trackpoint>
          <Trackpoint>
            <Time>2018-08-26T05:37:34.000Z</Time>
            <Position>
              <LatitudeDegrees>42.82831820659339427947998046875</LatitudeDegrees>
              <LongitudeDegrees>-1.6201992519199848175048828125</LongitudeDegrees>
            </Position>
            <AltitudeMeters>418</AltitudeMeters>
            <DistanceMeters>388.62202708496</DistanceMeters>
          </Trackpoint>
          <Trackpoint>
            <Time>2018-08-26T05:37:35.000Z</Time>
            <Position>
              <LatitudeDegrees>42.828364558517932891845703125</LatitudeDegrees>
              <LongitudeDegrees>-1.6201754473149776458740234375</LongitudeDegrees>
            </Position>
            <AltitudeMeters>418.20001220703125</AltitudeMeters>
            <DistanceMeters>394.1352146666</DistanceMeters>
          </Trackpoint>
          <Trackpoint>
            <Time>2018-08-26T05:37:36.000Z</Time>
            <Position>
              <LatitudeDegrees>42.82841074280440807342529296875</LatitudeDegrees>
              <LongitudeDegrees>-1.62015038542449474334716796875</LongitudeDegrees>
            </Position>
            <AltitudeMeters>418.399993896484375</AltitudeMeters>
            <DistanceMeters>399.66802219488</DistanceMeters>
          </Trackpoint>
          <Trackpoint>
            <Time>2018-08-26T05:37:37.000Z</Time>
            <Position>
              <LatitudeDegrees>42.82845751382410526275634765625</LatitudeDegrees>
              <LongitudeDegrees>-1.62012222222983837127685546875</LongitudeDegrees>
            </Position>
            <AltitudeMeters>418.600006103515625</AltitudeMeters>
            <DistanceMeters>405.35852780757</DistanceMeters>
          </Trackpoint>
          <Trackpoint>
            <Time>2018-08-26T05:37:38.000Z</Time>
            <Position>
              <LatitudeDegrees>42.82850311137735843658447265625</LatitudeDegrees>
              <LongitudeDegrees>-1.62009255029261112213134765625</LongitudeDegrees>
            </Position>
            <AltitudeMeters>419</AltitudeMeters>
            <DistanceMeters>410.98199006019</DistanceMeters>
          </Trackpoint>
          <Trackpoint>
            <Time>2018-08-26T05:37:39.000Z</Time>
            <Position>
              <LatitudeDegrees>42.8285454399883747100830078125</LatitudeDegrees>
              <LongitudeDegrees>-1.62005851976573467254638671875</LongitudeDegrees>
            </Position>
            <AltitudeMeters>419.20001220703125</AltitudeMeters>
            <DistanceMeters>416.45160094753</DistanceMeters>
          </Trackpoint>
          <Trackpoint>
            <Time>2018-08-26T05:37:40.000Z</Time>
            <Position>
              <LatitudeDegrees>42.8285856731235980987548828125</LatitudeDegrees>
              <LongitudeDegrees>-1.62001912482082843780517578125</LongitudeDegrees>
            </Position>
            <AltitudeMeters>419.20001220703125</AltitudeMeters>
            <DistanceMeters>421.96478852917</DistanceMeters>
          </Trackpoint>
          <Trackpoint>
            <Time>2018-08-26T05:37:41.000Z</Time>
            <Position>
              <LatitudeDegrees>42.8286238946020603179931640625</LatitudeDegrees>
              <LongitudeDegrees>-1.61997654475271701812744140625</LongitudeDegrees>
            </Position>
            <AltitudeMeters>419.600006103515625</AltitudeMeters>
            <DistanceMeters>427.45828609226</DistanceMeters>
          </Trackpoint>
          <Trackpoint>
            <Time>2018-08-26T05:37:42.000Z</Time>
            <Position>
              <LatitudeDegrees>42.828660942614078521728515625</LatitudeDegrees>
              <LongitudeDegrees>-1.6199322044849395751953125</LongitudeDegrees>
            </Position>
            <AltitudeMeters>420</AltitudeMeters>
            <DistanceMeters>432.94520461399</DistanceMeters>
          </Trackpoint>
          <Trackpoint>
            <Time>2018-08-26T05:37:43.000Z</Time>
            <Position>
              <LatitudeDegrees>42.8286993317306041717529296875</LatitudeDegrees>
              <LongitudeDegrees>-1.61988987587392330169677734375</LongitudeDegrees>
            </Position>
            <AltitudeMeters>420.20001220703125</AltitudeMeters>
            <DistanceMeters>438.44034570668</DistanceMeters>
          </Trackpoint>
          <Trackpoint>
            <Time>2018-08-26T05:37:44.000Z</Time>
            <Position>
              <LatitudeDegrees>42.8287412412464618682861328125</LatitudeDegrees>
              <LongitudeDegrees>-1.619854085147380828857421875</LongitudeDegrees>
            </Position>
            <AltitudeMeters>420.600006103515625</AltitudeMeters>
            <DistanceMeters>443.94369708498</DistanceMeters>
          </Trackpoint>
          <Trackpoint>
            <Time>2018-08-26T05:37:45.000Z</Time>
            <Position>
              <LatitudeDegrees>42.82878675498068332672119140625</LatitudeDegrees>
              <LongitudeDegrees>-1.6198257543146610260009765625</LongitudeDegrees>
            </Position>
            <AltitudeMeters>421.20001220703125</AltitudeMeters>
            <DistanceMeters>449.5122949793</DistanceMeters>
          </Trackpoint>
          <Trackpoint>
            <Time>2018-08-26T05:37:46.000Z</Time>
            <Position>
              <LatitudeDegrees>42.82883436419069766998291015625</LatitudeDegrees>
              <LongitudeDegrees>-1.619805134832859039306640625</LongitudeDegrees>
            </Position>
            <AltitudeMeters>421.399993896484375</AltitudeMeters>
            <DistanceMeters>455.07277892803</DistanceMeters>
          </Trackpoint>
          <Trackpoint>
            <Time>2018-08-26T05:37:47.000Z</Time>
            <Position>
              <LatitudeDegrees>42.828884236514568328857421875</LatitudeDegrees>
              <LongitudeDegrees>-1.61979197524487972259521484375</LongitudeDegrees>
            </Position>
            <AltitudeMeters>421.600006103515625</AltitudeMeters>
            <DistanceMeters>460.72666879356</DistanceMeters>
          </Trackpoint>
          <Trackpoint>
            <Time>2018-08-26T05:37:48.000Z</Time>
            <Position>
              <LatitudeDegrees>42.82893427647650241851806640625</LatitudeDegrees>
              <LongitudeDegrees>-1.6197821684181690216064453125</LongitudeDegrees>
            </Position>
            <AltitudeMeters>421.600006103515625</AltitudeMeters>
            <DistanceMeters>466.35334170146</DistanceMeters>
          </Trackpoint>
          <Trackpoint>
            <Time>2018-08-26T05:37:49.000Z</Time>
            <Position>
              <LatitudeDegrees>42.8289856575429439544677734375</LatitudeDegrees>
              <LongitudeDegrees>-1.61977085284888744354248046875</LongitudeDegrees>
            </Position>
            <AltitudeMeters>421.79998779296875</AltitudeMeters>
            <DistanceMeters>472.14763408437</DistanceMeters>
          </Trackpoint>
          <Trackpoint>
            <Time>2018-08-26T05:37:50.000Z</Time>
            <Position>
              <LatitudeDegrees>42.8290362842381000518798828125</LatitudeDegrees>
              <LongitudeDegrees>-1.61975593306124210357666015625</LongitudeDegrees>
            </Position>
            <AltitudeMeters>422.20001220703125</AltitudeMeters>
            <DistanceMeters>477.91302317707</DistanceMeters>
          </Trackpoint>
          <Trackpoint>
            <Time>2018-08-26T05:37:51.000Z</Time>
            <Position>
              <LatitudeDegrees>42.82908716239035129547119140625</LatitudeDegrees>
              <LongitudeDegrees>-1.6197399236261844635009765625</LongitudeDegrees>
            </Position>
            <AltitudeMeters>422.399993896484375</AltitudeMeters>
            <DistanceMeters>483.72443315231</DistanceMeters>
          </Trackpoint>
          <Trackpoint>
            <Time>2018-08-26T05:37:52.000Z</Time>
            <Position>
              <LatitudeDegrees>42.8291385434567928314208984375</LatitudeDegrees>
              <LongitudeDegrees>-1.61972089670598506927490234375</LongitudeDegrees>
            </Position>
            <AltitudeMeters>422.600006103515625</AltitudeMeters>
            <DistanceMeters>489.64971265746</DistanceMeters>
          </Trackpoint>
          <Trackpoint>
            <Time>2018-08-26T05:37:53.000Z</Time>
            <Position>
              <LatitudeDegrees>42.82918875105679035186767578125</LatitudeDegrees>
              <LongitudeDegrees>-1.61969457753002643585205078125</LongitudeDegrees>
            </Position>
            <AltitudeMeters>423</AltitudeMeters>
            <DistanceMeters>495.63564143499</DistanceMeters>
          </Trackpoint>
          <Trackpoint>
            <Time>2018-08-26T05:37:54.000Z</Time>
            <Position>
              <LatitudeDegrees>42.82923937775194644927978515625</LatitudeDegrees>
              <LongitudeDegrees>-1.61966557614505290985107421875</LongitudeDegrees>
            </Position>
            <AltitudeMeters>423.20001220703125</AltitudeMeters>
            <DistanceMeters>501.74845227167</DistanceMeters>
          </Trackpoint>
          <Trackpoint>
            <Time>2018-08-26T05:37:55.000Z</Time>
            <Position>
              <LatitudeDegrees>42.8292887471616268157958984375</LatitudeDegrees>
              <LongitudeDegrees>-1.61963556893169879913330078125</LongitudeDegrees>
            </Position>
            <AltitudeMeters>423.399993896484375</AltitudeMeters>
            <DistanceMeters>507.76447640621</DistanceMeters>
          </Trackpoint>
          <Trackpoint>
            <Time>2018-08-26T05:37:56.000Z</Time>
            <Position>
              <LatitudeDegrees>42.82933996059000492095947265625</LatitudeDegrees>
              <LongitudeDegrees>-1.6196076571941375732421875</LongitudeDegrees>
            </Position>
            <AltitudeMeters>423.600006103515625</AltitudeMeters>
            <DistanceMeters>513.90308447324</DistanceMeters>
          </Trackpoint>
          <Trackpoint>
            <Time>2018-08-26T05:37:57.000Z</Time>
            <Position>
              <LatitudeDegrees>42.8293913416564464569091796875</LatitudeDegrees>
              <LongitudeDegrees>-1.61958075128495693206787109375</LongitudeDegrees>
            </Position>
            <AltitudeMeters>423.600006103515625</AltitudeMeters>
            <DistanceMeters>520.02917602505</DistanceMeters>
          </Trackpoint>
          <Trackpoint>
            <Time>2018-08-26T05:37:58.000Z</Time>
            <Position>
              <LatitudeDegrees>42.8294416330754756927490234375</LatitudeDegrees>
              <LongitudeDegrees>-1.6195535100996494293212890625</LongitudeDegrees>
            </Position>
            <AltitudeMeters>423.79998779296875</AltitudeMeters>
            <DistanceMeters>526.05270050427</DistanceMeters>
          </Trackpoint>
          <Trackpoint>
            <Time>2018-08-26T05:37:59.000Z</Time>
            <Position>
              <LatitudeDegrees>42.829493097960948944091796875</LatitudeDegrees>
              <LongitudeDegrees>-1.61952509544789791107177734375</LongitudeDegrees>
            </Position>
            <AltitudeMeters>423.79998779296875</AltitudeMeters>
            <DistanceMeters>532.23309073126</DistanceMeters>
          </Trackpoint>
          <Trackpoint>
            <Time>2018-08-26T05:38:00.000Z</Time>
            <Position>
              <LatitudeDegrees>42.8295438922941684722900390625</LatitudeDegrees>
              <LongitudeDegrees>-1.6194951720535755157470703125</LongitudeDegrees>
            </Position>
            <AltitudeMeters>424</AltitudeMeters>
            <DistanceMeters>538.39079249314</DistanceMeters>
          </Trackpoint>
          <Trackpoint>
            <Time>2018-08-26T05:38:01.000Z</Time>
            <Position>
              <LatitudeDegrees>42.82959359697997570037841796875</LatitudeDegrees>
              <LongitudeDegrees>-1.61946482956409454345703125</LongitudeDegrees>
            </Position>
            <AltitudeMeters>424</AltitudeMeters>
            <DistanceMeters>544.45167947228</DistanceMeters>
          </Trackpoint>
          <Trackpoint>
            <Time>2018-08-26T05:38:02.000Z</Time>
            <Position>
              <LatitudeDegrees>42.82964430749416351318359375</LatitudeDegrees>
              <LongitudeDegrees>-1.61943339742720127105712890625</LongitudeDegrees>
            </Position>
            <AltitudeMeters>424.20001220703125</AltitudeMeters>
            <DistanceMeters>550.65103470856</DistanceMeters>
          </Trackpoint>
          <Trackpoint>
            <Time>2018-08-26T05:38:03.000Z</Time>
            <Position>
              <LatitudeDegrees>42.8296947665512561798095703125</LatitudeDegrees>
              <LongitudeDegrees>-1.61940305493772029876708984375</LongitudeDegrees>
            </Position>
            <AltitudeMeters>424.399993896484375</AltitudeMeters>
            <DistanceMeters>556.78890721653</DistanceMeters>
          </Trackpoint>
          <Trackpoint>
            <Time>2018-08-26T05:38:04.000Z</Time>
            <Position>
              <LatitudeDegrees>42.8297437168657779693603515625</LatitudeDegrees>
              <LongitudeDegrees>-1.61937371827661991119384765625</LongitudeDegrees>
            </Position>
            <AltitudeMeters>424.600006103515625</AltitudeMeters>
            <DistanceMeters>562.74003818578</DistanceMeters>
          </Trackpoint>
          <Trackpoint>
            <Time>2018-08-26T05:38:05.000Z</Time>
            <Position>
              <LatitudeDegrees>42.82979325391352176666259765625</LatitudeDegrees>
              <LongitudeDegrees>-1.61934438161551952362060546875</LongitudeDegrees>
            </Position>
            <AltitudeMeters>424.79998779296875</AltitudeMeters>
            <DistanceMeters>568.75080651041</DistanceMeters>
          </Trackpoint>
          <Trackpoint>
            <Time>2018-08-26T05:38:06.000Z</Time>
            <Position>
              <LatitudeDegrees>42.82984371297061443328857421875</LatitudeDegrees>
              <LongitudeDegrees>-1.61931462585926055908203125</LongitudeDegrees>
            </Position>
            <AltitudeMeters>425</AltitudeMeters>
            <DistanceMeters>574.86952344589</DistanceMeters>
          </Trackpoint>
          <Trackpoint>
            <Time>2018-08-26T05:38:07.000Z</Time>
            <Position>
              <LatitudeDegrees>42.82989249564707279205322265625</LatitudeDegrees>
              <LongitudeDegrees>-1.6192852891981601715087890625</LongitudeDegrees>
            </Position>
            <AltitudeMeters>425</AltitudeMeters>
            <DistanceMeters>580.80393985624</DistanceMeters>
          </Trackpoint>
          <Trackpoint>
            <Time>2018-08-26T05:38:08.000Z</Time>
            <Position>
              <LatitudeDegrees>42.82994044013321399688720703125</LatitudeDegrees>
              <LongitudeDegrees>-1.61925695836544036865234375</LongitudeDegrees>
            </Position>
            <AltitudeMeters>425.20001220703125</AltitudeMeters>
            <DistanceMeters>586.61923316635</DistanceMeters>
          </Trackpoint>
          <Trackpoint>
            <Time>2018-08-26T05:38:09.000Z</Time>
            <Position>
              <LatitudeDegrees>42.82998628914356231689453125</LatitudeDegrees>
              <LongitudeDegrees>-1.61922887898981571197509765625</LongitudeDegrees>
            </Position>
            <AltitudeMeters>425.20001220703125</AltitudeMeters>
            <DistanceMeters>592.21371660585</DistanceMeters>
          </Trackpoint>
          <Trackpoint>
            <Time>2018-08-26T05:38:10.000Z</Time>
            <Position>
              <LatitudeDegrees>42.830032892525196075439453125</LatitudeDegrees>
              <LongitudeDegrees>-1.61919870413839817047119140625</LongitudeDegrees>
            </Position>
            <AltitudeMeters>425.399993896484375</AltitudeMeters>
            <DistanceMeters>597.95635007607</DistanceMeters>
          </Trackpoint>
          <Trackpoint>
            <Time>2018-08-26T05:38:11.000Z</Time>
            <Position>
              <LatitudeDegrees>42.83008092083036899566650390625</LatitudeDegrees>
              <LongitudeDegrees>-1.61916710436344146728515625</LongitudeDegrees>
            </Position>
            <AltitudeMeters>425.600006103515625</AltitudeMeters>
            <DistanceMeters>603.89228793662</DistanceMeters>
          </Trackpoint>
          <Trackpoint>
            <Time>2018-08-26T05:38:12.000Z</Time>
            <Position>
              <LatitudeDegrees>42.8301296196877956390380859375</LatitudeDegrees>
              <LongitudeDegrees>-1.6191344149410724639892578125</LongitudeDegrees>
            </Position>
            <AltitudeMeters>425.600006103515625</AltitudeMeters>
            <DistanceMeters>609.93377525238</DistanceMeters>
          </Trackpoint>
          <Trackpoint>
            <Time>2018-08-26T05:38:13.000Z</Time>
            <Position>
              <LatitudeDegrees>42.83017748035490512847900390625</LatitudeDegrees>
              <LongitudeDegrees>-1.6191025637090206146240234375</LongitudeDegrees>
            </Position>
            <AltitudeMeters>425.79998779296875</AltitudeMeters>
            <DistanceMeters>615.86210195726</DistanceMeters>
          </Trackpoint>
          <Trackpoint>
            <Time>2018-08-26T05:38:14.000Z</Time>
            <Position>
              <LatitudeDegrees>42.830224670469760894775390625</LatitudeDegrees>
              <LongitudeDegrees>-1.6190703772008419036865234375</LongitudeDegrees>
            </Position>
            <AltitudeMeters>426</AltitudeMeters>
            <DistanceMeters>621.73533718292</DistanceMeters>
          </Trackpoint>
          <Trackpoint>
            <Time>2018-08-26T05:38:15.000Z</Time>
            <Position>
              <LatitudeDegrees>42.83027119003236293792724609375</LatitudeDegrees>
              <LongitudeDegrees>-1.61903701722621917724609375</LongitudeDegrees>
            </Position>
            <AltitudeMeters>426</AltitudeMeters>
            <DistanceMeters>627.58546450825</DistanceMeters>
          </Trackpoint>
          <Trackpoint>
            <Time>2018-08-26T05:38:16.000Z</Time>
            <Position>
              <LatitudeDegrees>42.83031645230948925018310546875</LatitudeDegrees>
              <LongitudeDegrees>-1.61900223232805728912353515625</LongitudeDegrees>
            </Position>
            <AltitudeMeters>426</AltitudeMeters>
            <DistanceMeters>633.36805675325</DistanceMeters>
          </Trackpoint>
          <Trackpoint>
            <Time>2018-08-26T05:38:17.000Z</Time>
            <Position>
              <LatitudeDegrees>42.83036221750080585479736328125</LatitudeDegrees>
              <LongitudeDegrees>-1.61896727979183197021484375</LongitudeDegrees>
            </Position>
            <AltitudeMeters>426.20001220703125</AltitudeMeters>
            <DistanceMeters>639.20582246451</DistanceMeters>
          </Trackpoint>
          <Trackpoint>
            <Time>2018-08-26T05:38:18.000Z</Time>
            <Position>
              <LatitudeDegrees>42.830406390130519866943359375</LatitudeDegrees>
              <LongitudeDegrees>-1.618932075798511505126953125</LongitudeDegrees>
            </Position>
            <AltitudeMeters>426.20001220703125</AltitudeMeters>
            <DistanceMeters>644.89950092696</DistanceMeters>
          </Trackpoint>
          <Trackpoint>
            <Time>2018-08-26T05:38:19.000Z</Time>
            <Position>
              <LatitudeDegrees>42.830449305474758148193359375</LatitudeDegrees>
              <LongitudeDegrees>-1.6188950277864933013916015625</LongitudeDegrees>
            </Position>
            <AltitudeMeters>426.399993896484375</AltitudeMeters>
            <DistanceMeters>650.5533907925</DistanceMeters>
          </Trackpoint>
          <Trackpoint>
            <Time>2018-08-26T05:38:20.000Z</Time>
            <Position>
              <LatitudeDegrees>42.830490209162235260009765625</LatitudeDegrees>
              <LongitudeDegrees>-1.618855297565460205078125</LongitudeDegrees>
            </Position>
            <AltitudeMeters>426.600006103515625</AltitudeMeters>
            <DistanceMeters>656.14222201375</DistanceMeters>
          </Trackpoint>
          <Trackpoint>
            <Time>2018-08-26T05:38:21.000Z</Time>
            <Position>
              <LatitudeDegrees>42.83053119666874408721923828125</LatitudeDegrees>
              <LongitudeDegrees>-1.6188145615160465240478515625</LongitudeDegrees>
            </Position>
            <AltitudeMeters>426.600006103515625</AltitudeMeters>
            <DistanceMeters>661.78812051152</DistanceMeters>
          </Trackpoint>
          <Trackpoint>
            <Time>2018-08-26T05:38:22.000Z</Time>
            <Position>
              <LatitudeDegrees>42.83056891523301601409912109375</LatitudeDegrees>
              <LongitudeDegrees>-1.61877307109534740447998046875</LongitudeDegrees>
            </Position>
            <AltitudeMeters>426.600006103515625</AltitudeMeters>
            <DistanceMeters>667.18208994992</DistanceMeters>
          </Trackpoint>
          <Trackpoint>
            <Time>2018-08-26T05:38:23.000Z</Time>
            <Position>
              <LatitudeDegrees>42.8306090645492076873779296875</LatitudeDegrees>
              <LongitudeDegrees>-1.61873283796012401580810546875</LongitudeDegrees>
            </Position>
            <AltitudeMeters>426.600006103515625</AltitudeMeters>
            <DistanceMeters>672.72875295073</DistanceMeters>
          </Trackpoint>
          <Trackpoint>
            <Time>2018-08-26T05:38:24.000Z</Time>
            <Position>
              <LatitudeDegrees>42.83065021969377994537353515625</LatitudeDegrees>
              <LongitudeDegrees>-1.6186898387968540191650390625</LongitudeDegrees>
            </Position>
            <AltitudeMeters>426.79998779296875</AltitudeMeters>
            <DistanceMeters>678.49883889887</DistanceMeters>
          </Trackpoint>
          <Trackpoint>
            <Time>2018-08-26T05:38:25.000Z</Time>
            <Position>
              <LatitudeDegrees>42.8306932188570499420166015625</LatitudeDegrees>
              <LongitudeDegrees>-1.6186432354152202606201171875</LongitudeDegrees>
            </Position>
            <AltitudeMeters>426.79998779296875</AltitudeMeters>
            <DistanceMeters>684.6131267951</DistanceMeters>
          </Trackpoint>
          <Trackpoint>
            <Time>2018-08-26T05:38:26.000Z</Time>
            <Position>
              <LatitudeDegrees>42.83073521219193935394287109375</LatitudeDegrees>
              <LongitudeDegrees>-1.6185937821865081787109375</LongitudeDegrees>
            </Position>
            <AltitudeMeters>426.79998779296875</AltitudeMeters>
            <DistanceMeters>690.78913221116</DistanceMeters>
          </Trackpoint>
          <Trackpoint>
            <Time>2018-08-26T05:38:27.000Z</Time>
            <Position>
              <LatitudeDegrees>42.83077628351747989654541015625</LatitudeDegrees>
              <LongitudeDegrees>-1.6185414791107177734375</LongitudeDegrees>
            </Position>
            <AltitudeMeters>426.79998779296875</AltitudeMeters>
            <DistanceMeters>697.04359391104</DistanceMeters>
          </Trackpoint>
          <Trackpoint>
            <Time>2018-08-26T05:38:28.000Z</Time>
            <Position>
              <LatitudeDegrees>42.8308166004717350006103515625</LatitudeDegrees>
              <LongitudeDegrees>-1.61848716437816619873046875</LongitudeDegrees>
            </Position>
            <AltitudeMeters>426.79998779296875</AltitudeMeters>
            <DistanceMeters>703.35196508659</DistanceMeters>
          </Trackpoint>
          <Trackpoint>
            <Time>2018-08-26T05:38:29.000Z</Time>
            <Position>
              <LatitudeDegrees>42.83085607923567295074462890625</LatitudeDegrees>
              <LongitudeDegrees>-1.618431843817234039306640625</LongitudeDegrees>
            </Position>
            <AltitudeMeters>426.79998779296875</AltitudeMeters>
            <DistanceMeters>709.65245840439</DistanceMeters>
          </Trackpoint>
          <Trackpoint>
            <Time>2018-08-26T05:38:30.000Z</Time>
            <Position>
              <LatitudeDegrees>42.83089463599026203155517578125</LatitudeDegrees>
              <LongitudeDegrees>-1.618374846875667572021484375</LongitudeDegrees>
            </Position>
            <AltitudeMeters>426.79998779296875</AltitudeMeters>
            <DistanceMeters>715.9829780717</DistanceMeters>
          </Trackpoint>
          <Trackpoint>
            <Time>2018-08-26T05:38:31.000Z</Time>
            <Position>
              <LatitudeDegrees>42.83093000762164592742919921875</LatitudeDegrees>
              <LongitudeDegrees>-1.61831575445830821990966796875</LongitudeDegrees>
            </Position>
            <AltitudeMeters>426.79998779296875</AltitudeMeters>
            <DistanceMeters>722.20994749915</DistanceMeters>
          </Trackpoint>
          <Trackpoint>
            <Time>2018-08-26T05:38:32.000Z</Time>
            <Position>
              <LatitudeDegrees>42.830960936844348907470703125</LatitudeDegrees>
              <LongitudeDegrees>-1.61825272254645824432373046875</LongitudeDegrees>
            </Position>
            <AltitudeMeters>426.79998779296875</AltitudeMeters>
            <DistanceMeters>728.40055687369</DistanceMeters>
          </Trackpoint>
          <Trackpoint>
            <Time>2018-08-26T05:38:33.000Z</Time>
            <Position>
              <LatitudeDegrees>42.830989770591259002685546875</LatitudeDegrees>
              <LongitudeDegrees>-1.61818767897784709930419921875</LongitudeDegrees>
            </Position>
            <AltitudeMeters>427</AltitudeMeters>
            <DistanceMeters>734.60428041719</DistanceMeters>
          </Trackpoint>
          <Trackpoint>
            <Time>2018-08-26T05:38:34.000Z</Time>
            <Position>
              <LatitudeDegrees>42.83101751469075679779052734375</LatitudeDegrees>
              <LongitudeDegrees>-1.618120372295379638671875</LongitudeDegrees>
            </Position>
            <AltitudeMeters>427</AltitudeMeters>
            <DistanceMeters>740.90620680524</DistanceMeters>
          </Trackpoint>
          <Trackpoint>
            <Time>2018-08-26T05:38:35.000Z</Time>
            <Position>
              <LatitudeDegrees>42.83104450441896915435791015625</LatitudeDegrees>
              <LongitudeDegrees>-1.6180518083274364471435546875</LongitudeDegrees>
            </Position>
            <AltitudeMeters>427</AltitudeMeters>
            <DistanceMeters>747.25737610508</DistanceMeters>
          </Trackpoint>
          <Trackpoint>
            <Time>2018-08-26T05:38:36.000Z</Time>
            <Position>
              <LatitudeDegrees>42.831073589622974395751953125</LatitudeDegrees>
              <LongitudeDegrees>-1.61798433400690555572509765625</LongitudeDegrees>
            </Position>
            <AltitudeMeters>427</AltitudeMeters>
            <DistanceMeters>753.64611193673</DistanceMeters>
          </Trackpoint>
          <Trackpoint>
            <Time>2018-08-26T05:38:37.000Z</Time>
            <Position>
              <LatitudeDegrees>42.83110569231212139129638671875</LatitudeDegrees>
              <LongitudeDegrees>-1.6179190389811992645263671875</LongitudeDegrees>
            </Position>
            <AltitudeMeters>427</AltitudeMeters>
            <DistanceMeters>760.06305424475</DistanceMeters>
          </Trackpoint>
          <Trackpoint>
            <Time>2018-08-26T05:38:38.000Z</Time>
            <Position>
              <LatitudeDegrees>42.83114232122898101806640625</LatitudeDegrees>
              <LongitudeDegrees>-1.6178576834499835968017578125</LongitudeDegrees>
            </Position>
            <AltitudeMeters>427</AltitudeMeters>
            <DistanceMeters>766.52067710601</DistanceMeters>
          </Trackpoint>
          <Trackpoint>
            <Time>2018-08-26T05:38:39.000Z</Time>
            <Position>
              <LatitudeDegrees>42.8311854042112827301025390625</LatitudeDegrees>
              <LongitudeDegrees>-1.6178026981651782989501953125</LongitudeDegrees>
            </Position>
            <AltitudeMeters>427</AltitudeMeters>
            <DistanceMeters>773.08921615584</DistanceMeters>
          </Trackpoint>
          <Trackpoint>
            <Time>2018-08-26T05:38:40.000Z</Time>
            <Position>
              <LatitudeDegrees>42.83123259432613849639892578125</LatitudeDegrees>
              <LongitudeDegrees>-1.6177544184029102325439453125</LongitudeDegrees>
            </Position>
            <AltitudeMeters>427.20001220703125</AltitudeMeters>
            <DistanceMeters>779.65638031523</DistanceMeters>
          </Trackpoint>
          <Trackpoint>
            <Time>2018-08-26T05:38:41.000Z</Time>
            <Position>
              <LatitudeDegrees>42.83128288574516773223876953125</LatitudeDegrees>
              <LongitudeDegrees>-1.6177101619541645050048828125</LongitudeDegrees>
            </Position>
            <AltitudeMeters>427.20001220703125</AltitudeMeters>
            <DistanceMeters>786.3184239748</DistanceMeters>
          </Trackpoint>
          <Trackpoint>
            <Time>2018-08-26T05:38:42.000Z</Time>
            <Position>
              <LatitudeDegrees>42.831333093345165252685546875</LatitudeDegrees>
              <LongitudeDegrees>-1.6176645644009113311767578125</LongitudeDegrees>
            </Position>
            <AltitudeMeters>427.20001220703125</AltitudeMeters>
            <DistanceMeters>793.03244971263</DistanceMeters>
          </Trackpoint>
          <Trackpoint>
            <Time>2018-08-26T05:38:43.000Z</Time>
            <Position>
              <LatitudeDegrees>42.831380702555179595947265625</LatitudeDegrees>
              <LongitudeDegrees>-1.6176147758960723876953125</LongitudeDegrees>
            </Position>
            <AltitudeMeters>427.399993896484375</AltitudeMeters>
            <DistanceMeters>799.71006287006</DistanceMeters>
          </Trackpoint>
          <Trackpoint>
            <Time>2018-08-26T05:38:44.000Z</Time>
            <Position>
              <LatitudeDegrees>42.83142755739390850067138671875</LatitudeDegrees>
              <LongitudeDegrees>-1.6175609640777111053466796875</LongitudeDegrees>
            </Position>
            <AltitudeMeters>427.399993896484375</AltitudeMeters>
            <DistanceMeters>806.52885041697</DistanceMeters>
          </Trackpoint>
          <Trackpoint>
            <Time>2018-08-26T05:38:45.000Z</Time>
            <Position>
              <LatitudeDegrees>42.83147281967103481292724609375</LatitudeDegrees>
              <LongitudeDegrees>-1.6175039671361446380615234375</LongitudeDegrees>
            </Position>
            <AltitudeMeters>427.399993896484375</AltitudeMeters>
            <DistanceMeters>813.38659334887</DistanceMeters>
          </Trackpoint>
          <Trackpoint>
            <Time>2018-08-26T05:38:46.000Z</Time>
            <Position>
              <LatitudeDegrees>42.83151640556752681732177734375</LatitudeDegrees>
              <LongitudeDegrees>-1.6174442879855632781982421875</LongitudeDegrees>
            </Position>
            <AltitudeMeters>427.399993896484375</AltitudeMeters>
            <DistanceMeters>820.2614329912</DistanceMeters>
          </Trackpoint>
          <Trackpoint>
            <Time>2018-08-26T05:38:47.000Z</Time>
            <Position>
              <LatitudeDegrees>42.83155999146401882171630859375</LatitudeDegrees>
              <LongitudeDegrees>-1.61738343536853790283203125</LongitudeDegrees>
            </Position>
            <AltitudeMeters>427.399993896484375</AltitudeMeters>
            <DistanceMeters>827.20423848018</DistanceMeters>
          </Trackpoint>
          <Trackpoint>
            <Time>2018-08-26T05:38:48.000Z</Time>
            <Position>
              <LatitudeDegrees>42.83160257153213024139404296875</LatitudeDegrees>
              <LongitudeDegrees>-1.61732082255184650421142578125</LongitudeDegrees>
            </Position>
            <AltitudeMeters>427.399993896484375</AltitudeMeters>
            <DistanceMeters>834.17430385064</DistanceMeters>
          </Trackpoint>
          <Trackpoint>
            <Time>2018-08-26T05:38:49.000Z</Time>
            <Position>
              <LatitudeDegrees>42.83164498396217823028564453125</LatitudeDegrees>
              <LongitudeDegrees>-1.6172565333545207977294921875</LongitudeDegrees>
            </Position>
            <AltitudeMeters>427.399993896484375</AltitudeMeters>
            <DistanceMeters>841.23255659061</DistanceMeters>
          </Trackpoint>
          <Trackpoint>
            <Time>2018-08-26T05:38:50.000Z</Time>
            <Position>
              <LatitudeDegrees>42.83168588764965534210205078125</LatitudeDegrees>
              <LongitudeDegrees>-1.6171901486814022064208984375</LongitudeDegrees>
            </Position>
            <AltitudeMeters>427.399993896484375</AltitudeMeters>
            <DistanceMeters>848.31061169855</DistanceMeters>
          </Trackpoint>
          <Trackpoint>
            <Time>2018-08-26T05:38:51.000Z</Time>
            <Position>
              <LatitudeDegrees>42.831726707518100738525390625</LatitudeDegrees>
              <LongitudeDegrees>-1.61712300963699817657470703125</LongitudeDegrees>
            </Position>
            <AltitudeMeters>427.399993896484375</AltitudeMeters>
            <DistanceMeters>855.42937486384</DistanceMeters>
          </Trackpoint>
          <Trackpoint>
            <Time>2018-08-26T05:38:52.000Z</Time>
            <Position>
              <LatitudeDegrees>42.831766605377197265625</LatitudeDegrees>
              <LongitudeDegrees>-1.61705486476421356201171875</LongitudeDegrees>
            </Position>
            <AltitudeMeters>427.399993896484375</AltitudeMeters>
            <DistanceMeters>862.54686942658</DistanceMeters>
          </Trackpoint>
          <Trackpoint>
            <Time>2018-08-26T05:38:53.000Z</Time>
            <Position>
              <LatitudeDegrees>42.83180541358888149261474609375</LatitudeDegrees>
              <LongitudeDegrees>-1.6169859655201435089111328125</LongitudeDegrees>
            </Position>
            <AltitudeMeters>427.399993896484375</AltitudeMeters>
            <DistanceMeters>869.6383076246</DistanceMeters>
          </Trackpoint>
          <Trackpoint>
            <Time>2018-08-26T05:38:54.000Z</Time>
            <Position>
              <LatitudeDegrees>42.8318438865244388580322265625</LatitudeDegrees>
              <LongitudeDegrees>-1.61691664718091487884521484375</LongitudeDegrees>
            </Position>
            <AltitudeMeters>427.399993896484375</AltitudeMeters>
            <DistanceMeters>876.73420124355</DistanceMeters>
          </Trackpoint>
          <Trackpoint>
            <Time>2018-08-26T05:38:55.000Z</Time>
            <Position>
              <LatitudeDegrees>42.83188252709805965423583984375</LatitudeDegrees>
              <LongitudeDegrees>-1.61684758029878139495849609375</LongitudeDegrees>
            </Position>
            <AltitudeMeters>427.399993896484375</AltitudeMeters>
            <DistanceMeters>883.82500272434</DistanceMeters>
          </Trackpoint>
          <Trackpoint>
            <Time>2018-08-26T05:38:56.000Z</Time>
            <Position>
              <LatitudeDegrees>42.8319203294813632965087890625</LatitudeDegrees>
              <LongitudeDegrees>-1.61677859723567962646484375</LongitudeDegrees>
            </Position>
            <AltitudeMeters>427.399993896484375</AltitudeMeters>
            <DistanceMeters>890.85312609751</DistanceMeters>
          </Trackpoint>
          <Trackpoint>
            <Time>2018-08-26T05:38:57.000Z</Time>
            <Position>
              <LatitudeDegrees>42.83195645548403263092041015625</LatitudeDegrees>
              <LongitudeDegrees>-1.61670844070613384246826171875</LongitudeDegrees>
            </Position>
            <AltitudeMeters>427.399993896484375</AltitudeMeters>
            <DistanceMeters>897.84969985919</DistanceMeters>
          </Trackpoint>
          <Trackpoint>
            <Time>2018-08-26T05:38:58.000Z</Time>
            <Position>
              <LatitudeDegrees>42.83199082128703594207763671875</LatitudeDegrees>
              <LongitudeDegrees>-1.61663635633885860443115234375</LongitudeDegrees>
            </Position>
            <AltitudeMeters>427.399993896484375</AltitudeMeters>
            <DistanceMeters>904.86753691382</DistanceMeters>
          </Trackpoint>
          <Trackpoint>
            <Time>2018-08-26T05:38:59.000Z</Time>
            <Position>
              <LatitudeDegrees>42.832025103271007537841796875</LatitudeDegrees>
              <LongitudeDegrees>-1.61656376905739307403564453125</LongitudeDegrees>
            </Position>
            <AltitudeMeters>427.399993896484375</AltitudeMeters>
            <DistanceMeters>911.91490666726</DistanceMeters>
          </Trackpoint>
          <Trackpoint>
            <Time>2018-08-26T05:39:00.000Z</Time>
            <Position>
              <LatitudeDegrees>42.8320603072643280029296875</LatitudeDegrees>
              <LongitudeDegrees>-1.616492606699466705322265625</LongitudeDegrees>
            </Position>
            <AltitudeMeters>427.399993896484375</AltitudeMeters>
            <DistanceMeters>918.92115356195</DistanceMeters>
          </Trackpoint>
          <Trackpoint>
            <Time>2018-08-26T05:39:01.000Z</Time>
            <Position>
              <LatitudeDegrees>42.83209576271474361419677734375</LatitudeDegrees>
              <LongitudeDegrees>-1.61642278544604778289794921875</LongitudeDegrees>
            </Position>
            <AltitudeMeters>427.399993896484375</AltitudeMeters>
            <DistanceMeters>925.85354613845</DistanceMeters>
          </Trackpoint>
          <Trackpoint>
            <Time>2018-08-26T05:39:02.000Z</Time>
            <Position>
              <LatitudeDegrees>42.83213431946933269500732421875</LatitudeDegrees>
              <LongitudeDegrees>-1.61635556258261203765869140625</LongitudeDegrees>
            </Position>
            <AltitudeMeters>427.399993896484375</AltitudeMeters>
            <DistanceMeters>932.81972377112</DistanceMeters>
          </Trackpoint>
          <Trackpoint>
            <Time>2018-08-26T05:39:03.000Z</Time>
            <Position>
              <LatitudeDegrees>42.8321781568229198455810546875</LatitudeDegrees>
              <LongitudeDegrees>-1.61629487760365009307861328125</LongitudeDegrees>
            </Position>
            <AltitudeMeters>427.399993896484375</AltitudeMeters>
            <DistanceMeters>939.77292657852</DistanceMeters>
          </Trackpoint>
          <Trackpoint>
            <Time>2018-08-26T05:39:04.000Z</Time>
            <Position>
              <LatitudeDegrees>42.832228280603885650634765625</LatitudeDegrees>
              <LongitudeDegrees>-1.616244502365589141845703125</LongitudeDegrees>
            </Position>
            <AltitudeMeters>427.399993896484375</AltitudeMeters>
            <DistanceMeters>946.7027134821</DistanceMeters>
          </Trackpoint>
          <Trackpoint>
            <Time>2018-08-26T05:39:05.000Z</Time>
            <Position>
              <LatitudeDegrees>42.83228351734578609466552734375</LatitudeDegrees>
              <LongitudeDegrees>-1.61620586179196834564208984375</LongitudeDegrees>
            </Position>
            <AltitudeMeters>427.399993896484375</AltitudeMeters>
            <DistanceMeters>953.61161962437</DistanceMeters>
          </Trackpoint>
          <Trackpoint>
            <Time>2018-08-26T05:39:06.000Z</Time>
            <Position>
              <LatitudeDegrees>42.8323417715728282928466796875</LatitudeDegrees>
              <LongitudeDegrees>-1.6161819733679294586181640625</LongitudeDegrees>
            </Position>
            <AltitudeMeters>427.399993896484375</AltitudeMeters>
            <DistanceMeters>960.38189790739</DistanceMeters>
          </Trackpoint>
          <Trackpoint>
            <Time>2018-08-26T05:39:07.000Z</Time>
            <Position>
              <LatitudeDegrees>42.83240119926631450653076171875</LatitudeDegrees>
              <LongitudeDegrees>-1.6161766089498996734619140625</LongitudeDegrees>
            </Position>
            <AltitudeMeters>427.399993896484375</AltitudeMeters>
            <DistanceMeters>967.01064982433</DistanceMeters>
          </Trackpoint>
          <Trackpoint>
            <Time>2018-08-26T05:39:08.000Z</Time>
            <Position>
              <LatitudeDegrees>42.8324599564075469970703125</LatitudeDegrees>
              <LongitudeDegrees>-1.6161893494427204132080078125</LongitudeDegrees>
            </Position>
            <AltitudeMeters>427.600006103515625</AltitudeMeters>
            <DistanceMeters>973.63258694362</DistanceMeters>
          </Trackpoint>
          <Trackpoint>
            <Time>2018-08-26T05:39:09.000Z</Time>
            <Position>
              <LatitudeDegrees>42.83251804299652576446533203125</LatitudeDegrees>
              <LongitudeDegrees>-1.6162155009806156158447265625</LongitudeDegrees>
            </Position>
            <AltitudeMeters>427.600006103515625</AltitudeMeters>
            <DistanceMeters>980.44010868875</DistanceMeters>
          </Trackpoint>
          <Trackpoint>
            <Time>2018-08-26T05:39:10.000Z</Time>
            <Position>
              <LatitudeDegrees>42.832575626671314239501953125</LatitudeDegrees>
              <LongitudeDegrees>-1.61624995060265064239501953125</LongitudeDegrees>
            </Position>
            <AltitudeMeters>427.600006103515625</AltitudeMeters>
            <DistanceMeters>987.43861814662</DistanceMeters>
          </Trackpoint>
          <Trackpoint>
            <Time>2018-08-26T05:39:11.000Z</Time>
            <Position>
              <LatitudeDegrees>42.83263304270803928375244140625</LatitudeDegrees>
              <LongitudeDegrees>-1.61628800444304943084716796875</LongitudeDegrees>
            </Position>
            <AltitudeMeters>427.600006103515625</AltitudeMeters>
            <DistanceMeters>994.54341422545</DistanceMeters>
          </Trackpoint>
          <Trackpoint>
            <Time>2018-08-26T05:39:12.000Z</Time>
            <Position>
              <LatitudeDegrees>42.83269188366830348968505859375</LatitudeDegrees>
              <LongitudeDegrees>-1.6163274832069873809814453125</LongitudeDegrees>
            </Position>
            <AltitudeMeters>427.79998779296875</AltitudeMeters>
            <DistanceMeters>1001.8419360582</DistanceMeters>
          </Trackpoint>
          <Trackpoint>
            <Time>2018-08-26T05:39:13.000Z</Time>
            <Position>
              <LatitudeDegrees>42.8327511437237262725830078125</LatitudeDegrees>
              <LongitudeDegrees>-1.61636863835155963897705078125</LongitudeDegrees>
            </Position>
            <AltitudeMeters>428</AltitudeMeters>
            <DistanceMeters>1009.2442670331</DistanceMeters>
          </Trackpoint>
          <Trackpoint>
            <Time>2018-08-26T05:39:14.000Z</Time>
            <Position>
              <LatitudeDegrees>42.83281073905527591705322265625</LatitudeDegrees>
              <LongitudeDegrees>-1.61641172133386135101318359375</LongitudeDegrees>
            </Position>
            <AltitudeMeters>428</AltitudeMeters>
            <DistanceMeters>1016.7519788791</DistanceMeters>
          </Trackpoint>
          <Trackpoint>
            <Time>2018-08-26T05:39:15.000Z</Time>
            <Position>
              <LatitudeDegrees>42.83287041820585727691650390625</LatitudeDegrees>
              <LongitudeDegrees>-1.61645673215389251708984375</LongitudeDegrees>
            </Position>
            <AltitudeMeters>428</AltitudeMeters>
            <DistanceMeters>1024.3422283949</DistanceMeters>
          </Trackpoint>
          <Trackpoint>
            <Time>2018-08-26T05:39:16.000Z</Time>
            <Position>
              <LatitudeDegrees>42.83292909152805805206298828125</LatitudeDegrees>
              <LongitudeDegrees>-1.61650157533586025238037109375</LongitudeDegrees>
            </Position>
            <AltitudeMeters>428</AltitudeMeters>
            <DistanceMeters>1031.8282590128</DistanceMeters>
          </Trackpoint>
          <Trackpoint>
            <Time>2018-08-26T05:39:17.000Z</Time>
            <Position>
              <LatitudeDegrees>42.83298843540251255035400390625</LatitudeDegrees>
              <LongitudeDegrees>-1.61654532887041568756103515625</LongitudeDegrees>
            </Position>
            <AltitudeMeters>428</AltitudeMeters>
            <DistanceMeters>1039.3365722215</DistanceMeters>
          </Trackpoint>
          <Trackpoint>
            <Time>2018-08-26T05:39:18.000Z</Time>
            <Position>
              <LatitudeDegrees>42.83304811455309391021728515625</LatitudeDegrees>
              <LongitudeDegrees>-1.616588495671749114990234375</LongitudeDegrees>
            </Position>
            <AltitudeMeters>428</AltitudeMeters>
            <DistanceMeters>1046.8563021828</DistanceMeters>
          </Trackpoint>
          <Trackpoint>
            <Time>2018-08-26T05:39:19.000Z</Time>
            <Position>
              <LatitudeDegrees>42.83310896717011928558349609375</LatitudeDegrees>
              <LongitudeDegrees>-1.61663115955889225006103515625</LongitudeDegrees>
            </Position>
            <AltitudeMeters>428</AltitudeMeters>
            <DistanceMeters>1054.4726800015</DistanceMeters>
          </Trackpoint>
          <Trackpoint>
            <Time>2018-08-26T05:39:20.000Z</Time>
            <Position>
              <LatitudeDegrees>42.83317007124423980712890625</LatitudeDegrees>
              <LongitudeDegrees>-1.61667424254119396209716796875</LongitudeDegrees>
            </Position>
            <AltitudeMeters>428</AltitudeMeters>
            <DistanceMeters>1062.1292625468</DistanceMeters>
          </Trackpoint>
          <Trackpoint>
            <Time>2018-08-26T05:39:21.000Z</Time>
            <Position>
              <LatitudeDegrees>42.833231426775455474853515625</LatitudeDegrees>
              <LongitudeDegrees>-1.6167177446186542510986328125</LongitudeDegrees>
            </Position>
            <AltitudeMeters>428</AltitudeMeters>
            <DistanceMeters>1069.8258398038</DistanceMeters>
          </Trackpoint>
          <Trackpoint>
            <Time>2018-08-26T05:39:22.000Z</Time>
            <Position>
              <LatitudeDegrees>42.8332942910492420196533203125</LatitudeDegrees>
              <LongitudeDegrees>-1.61676116287708282470703125</LongitudeDegrees>
            </Position>
            <AltitudeMeters>428</AltitudeMeters>
            <DistanceMeters>1077.6688545772</DistanceMeters>
          </Trackpoint>
          <Trackpoint>
            <Time>2018-08-26T05:39:23.000Z</Time>
            <Position>
              <LatitudeDegrees>42.8333569876849651336669921875</LatitudeDegrees>
              <LongitudeDegrees>-1.61680533550679683685302734375</LongitudeDegrees>
            </Position>
            <AltitudeMeters>428</AltitudeMeters>
            <DistanceMeters>1085.5233744394</DistanceMeters>
          </Trackpoint>
          <Trackpoint>
            <Time>2018-08-26T05:39:24.000Z</Time>
            <Position>
              <LatitudeDegrees>42.83341951668262481689453125</LatitudeDegrees>
              <LongitudeDegrees>-1.6168511845171451568603515625</LongitudeDegrees>
            </Position>
            <AltitudeMeters>428</AltitudeMeters>
            <DistanceMeters>1093.424890024</DistanceMeters>
          </Trackpoint>
          <Trackpoint>
            <Time>2018-08-26T05:39:25.000Z</Time>
            <Position>
              <LatitudeDegrees>42.8334817104041576385498046875</LatitudeDegrees>
              <LongitudeDegrees>-1.61689686588943004608154296875</LongitudeDegrees>
            </Position>
            <AltitudeMeters>428</AltitudeMeters>
            <DistanceMeters>1101.2874534314</DistanceMeters>
          </Trackpoint>
          <Trackpoint>
            <Time>2018-08-26T05:39:26.000Z</Time>
            <Position>
              <LatitudeDegrees>42.833543233573436737060546875</LatitudeDegrees>
              <LongitudeDegrees>-1.61694095470011234283447265625</LongitudeDegrees>
            </Position>
            <AltitudeMeters>428</AltitudeMeters>
            <DistanceMeters>1109.0226513291</DistanceMeters>
          </Trackpoint>
          <Trackpoint>
            <Time>2018-08-26T05:39:27.000Z</Time>
            <Position>
              <LatitudeDegrees>42.8336054272949695587158203125</LatitudeDegrees>
              <LongitudeDegrees>-1.61698588170111179351806640625</LongitudeDegrees>
            </Position>
            <AltitudeMeters>428</AltitudeMeters>
            <DistanceMeters>1116.8564498658</DistanceMeters>
          </Trackpoint>
          <Trackpoint>
            <Time>2018-08-26T05:39:28.000Z</Time>
            <Position>
              <LatitudeDegrees>42.83366787247359752655029296875</LatitudeDegrees>
              <LongitudeDegrees>-1.617031060159206390380859375</LongitudeDegrees>
            </Position>
            <AltitudeMeters>428</AltitudeMeters>
            <DistanceMeters>1124.7241797813</DistanceMeters>
          </Trackpoint>
          <Trackpoint>
            <Time>2018-08-26T05:39:29.000Z</Time>
            <Position>
              <LatitudeDegrees>42.83373056910932064056396484375</LatitudeDegrees>
              <LongitudeDegrees>-1.61707690916955471038818359375</LongitudeDegrees>
            </Position>
            <AltitudeMeters>428</AltitudeMeters>
            <DistanceMeters>1132.6428192369</DistanceMeters>
          </Trackpoint>
          <Trackpoint>
            <Time>2018-08-26T05:39:30.000Z</Time>
            <Position>
              <LatitudeDegrees>42.833791337907314300537109375</LatitudeDegrees>
              <LongitudeDegrees>-1.6171261109411716461181640625</LongitudeDegrees>
            </Position>
            <AltitudeMeters>427.79998779296875</AltitudeMeters>
            <DistanceMeters>1140.5082533455</DistanceMeters>
          </Trackpoint>
          <Trackpoint>
            <Time>2018-08-26T05:39:31.000Z</Time>
            <Position>
              <LatitudeDegrees>42.8338498435914516448974609375</LatitudeDegrees>
              <LongitudeDegrees>-1.61718067713081836700439453125</LongitudeDegrees>
            </Position>
            <AltitudeMeters>427.79998779296875</AltitudeMeters>
            <DistanceMeters>1148.3977601063</DistanceMeters>
          </Trackpoint>
          <Trackpoint>
            <Time>2018-08-26T05:39:32.000Z</Time>
            <Position>
              <LatitudeDegrees>42.83390608616173267364501953125</LatitudeDegrees>
              <LongitudeDegrees>-1.61723935045301914215087890625</LongitudeDegrees>
            </Position>
            <AltitudeMeters>427.600006103515625</AltitudeMeters>
            <DistanceMeters>1156.2798236644</DistanceMeters>
          </Trackpoint>
          <Trackpoint>
            <Time>2018-08-26T05:39:33.000Z</Time>
            <Position>
              <LatitudeDegrees>42.8339619934558868408203125</LatitudeDegrees>
              <LongitudeDegrees>-1.61729752086102962493896484375</LongitudeDegrees>
            </Position>
            <AltitudeMeters>427.79998779296875</AltitudeMeters>
            <DistanceMeters>1164.1067029017</DistanceMeters>
          </Trackpoint>
          <Trackpoint>
            <Time>2018-08-26T05:39:34.000Z</Time>
            <Position>
              <LatitudeDegrees>42.8340188227593898773193359375</LatitudeDegrees>
              <LongitudeDegrees>-1.61735300906002521514892578125</LongitudeDegrees>
            </Position>
            <AltitudeMeters>427.79998779296875</AltitudeMeters>
            <DistanceMeters>1171.8867159097</DistanceMeters>
          </Trackpoint>
          <Trackpoint>
            <Time>2018-08-26T05:39:35.000Z</Time>
            <Position>
              <LatitudeDegrees>42.83407674171030521392822265625</LatitudeDegrees>
              <LongitudeDegrees>-1.6174047254025936126708984375</LongitudeDegrees>
            </Position>
            <AltitudeMeters>427.399993896484375</AltitudeMeters>
            <DistanceMeters>1179.5920875827</DistanceMeters>
          </Trackpoint>
          <Trackpoint>
            <Time>2018-08-26T05:39:36.000Z</Time>
            <Position>
              <LatitudeDegrees>42.83413658849895000457763671875</LatitudeDegrees>
              <LongitudeDegrees>-1.61745023913681507110595703125</LongitudeDegrees>
            </Position>
            <AltitudeMeters>427.399993896484375</AltitudeMeters>
            <DistanceMeters>1187.2185364533</DistanceMeters>
          </Trackpoint>
          <Trackpoint>
            <Time>2018-08-26T05:39:37.000Z</Time>
            <Position>
              <LatitudeDegrees>42.8341981954872608184814453125</LatitudeDegrees>
              <LongitudeDegrees>-1.61748862825334072113037109375</LongitudeDegrees>
            </Position>
            <AltitudeMeters>427.399993896484375</AltitudeMeters>
            <DistanceMeters>1194.7568566283</DistanceMeters>
          </Trackpoint>
          <Trackpoint>
            <Time>2018-08-26T05:39:38.000Z</Time>
            <Position>
              <LatitudeDegrees>42.8342618979513645172119140625</LatitudeDegrees>
              <LongitudeDegrees>-1.6175207309424877166748046875</LongitudeDegrees>
            </Position>
            <AltitudeMeters>427.399993896484375</AltitudeMeters>
            <DistanceMeters>1202.316110807</DistanceMeters>
          </Trackpoint>
          <Trackpoint>
            <Time>2018-08-26T05:39:39.000Z</Time>
            <Position>
              <LatitudeDegrees>42.8343256004154682159423828125</LatitudeDegrees>
              <LongitudeDegrees>-1.6175488941371440887451171875</LongitudeDegrees>
            </Position>
            <AltitudeMeters>427.399993896484375</AltitudeMeters>
            <DistanceMeters>1209.7701070747</DistanceMeters>
          </Trackpoint>
          <Trackpoint>
            <Time>2018-08-26T05:39:40.000Z</Time>
            <Position>
              <LatitudeDegrees>42.83438821323215961456298828125</LatitudeDegrees>
              <LongitudeDegrees>-1.6175794042646884918212890625</LongitudeDegrees>
            </Position>
            <AltitudeMeters>427.399993896484375</AltitudeMeters>
            <DistanceMeters>1217.1712180527</DistanceMeters>
          </Trackpoint>
          <Trackpoint>
            <Time>2018-08-26T05:39:41.000Z</Time>
            <Position>
              <LatitudeDegrees>42.83444822765886783599853515625</LatitudeDegrees>
              <LongitudeDegrees>-1.61761485971510410308837890625</LongitudeDegrees>
            </Position>
            <AltitudeMeters>427.399993896484375</AltitudeMeters>
            <DistanceMeters>1224.4517776965</DistanceMeters>
          </Trackpoint>
          <Trackpoint>
            <Time>2018-08-26T05:39:42.000Z</Time>
            <Position>
              <LatitudeDegrees>42.83450555987656116485595703125</LatitudeDegrees>
              <LongitudeDegrees>-1.6176588647067546844482421875</LongitudeDegrees>
            </Position>
            <AltitudeMeters>427.399993896484375</AltitudeMeters>
            <DistanceMeters>1231.7743861063</DistanceMeters>
          </Trackpoint>
          <Trackpoint>
            <Time>2018-08-26T05:39:43.000Z</Time>
            <Position>
              <LatitudeDegrees>42.83455719240009784698486328125</LatitudeDegrees>
              <LongitudeDegrees>-1.6177141852676868438720703125</LongitudeDegrees>
            </Position>
            <AltitudeMeters>427.399993896484375</AltitudeMeters>
            <DistanceMeters>1239.0834169752</DistanceMeters>
          </Trackpoint>
          <Trackpoint>
            <Time>2018-08-26T05:39:44.000Z</Time>
            <Position>
              <LatitudeDegrees>42.8345988504588603973388671875</LatitudeDegrees>
              <LongitudeDegrees>-1.61778350360691547393798828125</LongitudeDegrees>
            </Position>
            <AltitudeMeters>427.399993896484375</AltitudeMeters>
            <DistanceMeters>1246.3986225777</DistanceMeters>
          </Trackpoint>
          <Trackpoint>
            <Time>2018-08-26T05:39:45.000Z</Time>
            <Position>
              <LatitudeDegrees>42.8346296958625316619873046875</LatitudeDegrees>
              <LongitudeDegrees>-1.61786363460123538970947265625</LongitudeDegrees>
            </Position>
            <AltitudeMeters>427.399993896484375</AltitudeMeters>
            <DistanceMeters>1253.7850778761</DistanceMeters>
          </Trackpoint>
          <Trackpoint>
            <Time>2018-08-26T05:39:46.000Z</Time>
            <Position>
              <LatitudeDegrees>42.83464930951595306396484375</LatitudeDegrees>
              <LongitudeDegrees>-1.61794938147068023681640625</LongitudeDegrees>
            </Position>
            <AltitudeMeters>427.600006103515625</AltitudeMeters>
            <DistanceMeters>1261.1163134469</DistanceMeters>
          </Trackpoint>
          <Trackpoint>
            <Time>2018-08-26T05:39:47.000Z</Time>
            <Position>
              <LatitudeDegrees>42.83465911634266376495361328125</LatitudeDegrees>
              <LongitudeDegrees>-1.61803948692977428436279296875</LongitudeDegrees>
            </Position>
            <AltitudeMeters>427.600006103515625</AltitudeMeters>
            <DistanceMeters>1268.5515086689</DistanceMeters>
          </Trackpoint>
          <Trackpoint>
            <Time>2018-08-26T05:39:48.000Z</Time>
            <Position>
              <LatitudeDegrees>42.83466297201812267303466796875</LatitudeDegrees>
              <LongitudeDegrees>-1.61813202314078807830810546875</LongitudeDegrees>
            </Position>
            <AltitudeMeters>427.600006103515625</AltitudeMeters>
            <DistanceMeters>1276.1161365134</DistanceMeters>
          </Trackpoint>
          <Trackpoint>
            <Time>2018-08-26T05:39:49.000Z</Time>
            <Position>
              <LatitudeDegrees>42.83466531895101070404052734375</LatitudeDegrees>
              <LongitudeDegrees>-1.61822590045630931854248046875</LongitudeDegrees>
            </Position>
            <AltitudeMeters>427.79998779296875</AltitudeMeters>
            <DistanceMeters>1283.7821483512</DistanceMeters>
          </Trackpoint>
          <Trackpoint>
            <Time>2018-08-26T05:39:50.000Z</Time>
            <Position>
              <LatitudeDegrees>42.83467068336904048919677734375</LatitudeDegrees>
              <LongitudeDegrees>-1.6183213703334331512451171875</LongitudeDegrees>
            </Position>
            <AltitudeMeters>427.79998779296875</AltitudeMeters>
            <DistanceMeters>1291.5974818096</DistanceMeters>
          </Trackpoint>
          <Trackpoint>
            <Time>2018-08-26T05:39:51.000Z</Time>
            <Position>
              <LatitudeDegrees>42.83468107692897319793701171875</LatitudeDegrees>
              <LongitudeDegrees>-1.61841751076281070709228515625</LongitudeDegrees>
            </Position>
            <AltitudeMeters>427.79998779296875</AltitudeMeters>
            <DistanceMeters>1299.5292245302</DistanceMeters>
          </Trackpoint>
          <Trackpoint>
            <Time>2018-08-26T05:39:52.000Z</Time>
            <Position>
              <LatitudeDegrees>42.83469616435468196868896484375</LatitudeDegrees>
              <LongitudeDegrees>-1.61851272918283939361572265625</LongitudeDegrees>
            </Position>
            <AltitudeMeters>427.79998779296875</AltitudeMeters>
            <DistanceMeters>1307.4797298668</DistanceMeters>
          </Trackpoint>
          <Trackpoint>
            <Time>2018-08-26T05:39:53.000Z</Time>
            <Position>
              <LatitudeDegrees>42.8347161971032619476318359375</LatitudeDegrees>
              <LongitudeDegrees>-1.6186063550412654876708984375</LongitudeDegrees>
            </Position>
            <AltitudeMeters>427.79998779296875</AltitudeMeters>
            <DistanceMeters>1315.4398835341</DistanceMeters>
          </Trackpoint>
          <Trackpoint>
            <Time>2018-08-26T05:39:54.000Z</Time>
            <Position>
              <LatitudeDegrees>42.834742851555347442626953125</LatitudeDegrees>
              <LongitudeDegrees>-1.6186968795955181121826171875</LongitudeDegrees>
            </Position>
            <AltitudeMeters>427.79998779296875</AltitudeMeters>
            <DistanceMeters>1323.4017386343</DistanceMeters>
          </Trackpoint>
          <Trackpoint>
            <Time>2018-08-26T05:39:55.000Z</Time>
            <Position>
              <LatitudeDegrees>42.83477671444416046142578125</LatitudeDegrees>
              <LongitudeDegrees>-1.61878279410302639007568359375</LongitudeDegrees>
            </Position>
            <AltitudeMeters>427.79998779296875</AltitudeMeters>
            <DistanceMeters>1331.3624594863</DistanceMeters>
          </Trackpoint>
          <Trackpoint>
            <Time>2018-08-26T05:39:56.000Z</Time>
            <Position>
              <LatitudeDegrees>42.83481535501778125762939453125</LatitudeDegrees>
              <LongitudeDegrees>-1.61886342801153659820556640625</LongitudeDegrees>
            </Position>
            <AltitudeMeters>427.79998779296875</AltitudeMeters>
            <DistanceMeters>1339.2250228937</DistanceMeters>
          </Trackpoint>
          <Trackpoint>
            <Time>2018-08-26T05:39:57.000Z</Time>
            <Position>
              <LatitudeDegrees>42.83485525287687778472900390625</LatitudeDegrees>
              <LongitudeDegrees>-1.6189423017203807830810546875</LongitudeDegrees>
            </Position>
            <AltitudeMeters>427.79998779296875</AltitudeMeters>
            <DistanceMeters>1347.0461313722</DistanceMeters>
          </Trackpoint>
          <Trackpoint>
            <Time>2018-08-26T05:39:58.000Z</Time>
            <Position>
              <LatitudeDegrees>42.83489347435534000396728515625</LatitudeDegrees>
              <LongitudeDegrees>-1.6190214268863201141357421875</LongitudeDegrees>
            </Position>
            <AltitudeMeters>428</AltitudeMeters>
            <DistanceMeters>1354.780161781</DistanceMeters>
          </Trackpoint>
          <Trackpoint>
            <Time>2018-08-26T05:39:59.000Z</Time>
            <Position>
              <LatitudeDegrees>42.8349307738244533538818359375</LatitudeDegrees>
              <LongitudeDegrees>-1.6191002167761325836181640625</LongitudeDegrees>
            </Position>
            <AltitudeMeters>428</AltitudeMeters>
            <DistanceMeters>1362.4343851883</DistanceMeters>
          </Trackpoint>
          <Trackpoint>
            <Time>2018-08-26T05:40:00.000Z</Time>
            <Position>
              <LatitudeDegrees>42.83496891148388385772705078125</LatitudeDegrees>
              <LongitudeDegrees>-1.61917791701853275299072265625</LongitudeDegrees>
            </Position>
            <AltitudeMeters>428</AltitudeMeters>
            <DistanceMeters>1370.0661604119</DistanceMeters>
          </Trackpoint>
          <Trackpoint>
            <Time>2018-08-26T05:40:01.000Z</Time>
            <Position>
              <LatitudeDegrees>42.8350078873336315155029296875</LatitudeDegrees>
              <LongitudeDegrees>-1.6192544437944889068603515625</LongitudeDegrees>
            </Position>
            <AltitudeMeters>428</AltitudeMeters>
            <DistanceMeters>1377.6706728582</DistanceMeters>
          </Trackpoint>
          <Trackpoint>
            <Time>2018-08-26T05:40:02.000Z</Time>
            <Position>
              <LatitudeDegrees>42.835046947002410888671875</LatitudeDegrees>
              <LongitudeDegrees>-1.61933147348463535308837890625</LongitudeDegrees>
            </Position>
            <AltitudeMeters>428</AltitudeMeters>
            <DistanceMeters>1385.3142711334</DistanceMeters>
          </Trackpoint>
          <Trackpoint>
            <Time>2018-08-26T05:40:03.000Z</Time>
            <Position>
              <LatitudeDegrees>42.83508525229990482330322265625</LatitudeDegrees>
              <LongitudeDegrees>-1.61940758116543292999267578125</LongitudeDegrees>
            </Position>
            <AltitudeMeters>428</AltitudeMeters>
            <DistanceMeters>1392.8483975278</DistanceMeters>
          </Trackpoint>
          <Trackpoint>
            <Time>2018-08-26T05:40:04.000Z</Time>
            <Position>
              <LatitudeDegrees>42.83512347377836704254150390625</LatitudeDegrees>
              <LongitudeDegrees>-1.61948486231267452239990234375</LongitudeDegrees>
            </Position>
            <AltitudeMeters>428</AltitudeMeters>
            <DistanceMeters>1400.4564715289</DistanceMeters>
          </Trackpoint>
          <Trackpoint>
            <Time>2018-08-26T05:40:05.000Z</Time>
            <Position>
              <LatitudeDegrees>42.83516135998070240020751953125</LatitudeDegrees>
              <LongitudeDegrees>-1.61956247873604297637939453125</LongitudeDegrees>
            </Position>
            <AltitudeMeters>428</AltitudeMeters>
            <DistanceMeters>1408.0663256822</DistanceMeters>
          </Trackpoint>
          <Trackpoint>
            <Time>2018-08-26T05:40:06.000Z</Time>
            <Position>
              <LatitudeDegrees>42.83519924618303775787353515625</LatitudeDegrees>
              <LongitudeDegrees>-1.61963992752134799957275390625</LongitudeDegrees>
            </Position>
            <AltitudeMeters>428</AltitudeMeters>
            <DistanceMeters>1415.6648984945</DistanceMeters>
          </Trackpoint>
          <Trackpoint>
            <Time>2018-08-26T05:40:07.000Z</Time>
            <Position>
              <LatitudeDegrees>42.8352368809282779693603515625</LatitudeDegrees>
              <LongitudeDegrees>-1.61971804685890674591064453125</LongitudeDegrees>
            </Position>
            <AltitudeMeters>428</AltitudeMeters>
            <DistanceMeters>1423.2943069091</DistanceMeters>
          </Trackpoint>
          <Trackpoint>
            <Time>2018-08-26T05:40:08.000Z</Time>
            <Position>
              <LatitudeDegrees>42.8352740965783596038818359375</LatitudeDegrees>
              <LongitudeDegrees>-1.61979583092033863067626953125</LongitudeDegrees>
            </Position>
            <AltitudeMeters>428</AltitudeMeters>
            <DistanceMeters>1430.8750328961</DistanceMeters>
          </Trackpoint>
          <Trackpoint>
            <Time>2018-08-26T05:40:09.000Z</Time>
            <Position>
              <LatitudeDegrees>42.8353109769523143768310546875</LatitudeDegrees>
              <LongitudeDegrees>-1.61987344734370708465576171875</LongitudeDegrees>
            </Position>
            <AltitudeMeters>428</AltitudeMeters>
            <DistanceMeters>1438.4235282668</DistanceMeters>
          </Trackpoint>
          <Trackpoint>
            <Time>2018-08-26T05:40:10.000Z</Time>
            <Position>
              <LatitudeDegrees>42.835347354412078857421875</LatitudeDegrees>
              <LongitudeDegrees>-1.61995190195739269256591796875</LongitudeDegrees>
            </Position>
            <AltitudeMeters>428</AltitudeMeters>
            <DistanceMeters>1445.9994879999</DistanceMeters>
          </Trackpoint>
          <Trackpoint>
            <Time>2018-08-26T05:40:11.000Z</Time>
            <Position>
              <LatitudeDegrees>42.83538314513862133026123046875</LatitudeDegrees>
              <LongitudeDegrees>-1.6200306080281734466552734375</LongitudeDegrees>
            </Position>
            <AltitudeMeters>428</AltitudeMeters>
            <DistanceMeters>1453.5581448687</DistanceMeters>
          </Trackpoint>
          <Trackpoint>
            <Time>2018-08-26T05:40:12.000Z</Time>
            <Position>
              <LatitudeDegrees>42.83541885204613208770751953125</LatitudeDegrees>
              <LongitudeDegrees>-1.6201087273657321929931640625</LongitudeDegrees>
            </Position>
            <AltitudeMeters>428</AltitudeMeters>
            <DistanceMeters>1461.070666268</DistanceMeters>
          </Trackpoint>
          <Trackpoint>
            <Time>2018-08-26T05:40:13.000Z</Time>
            <Position>
              <LatitudeDegrees>42.8354544751346111297607421875</LatitudeDegrees>
              <LongitudeDegrees>-1.620186679065227508544921875</LongitudeDegrees>
            </Position>
            <AltitudeMeters>428.399993896484375</AltitudeMeters>
            <DistanceMeters>1468.5669430579</DistanceMeters>
          </Trackpoint>
          <Trackpoint>
            <Time>2018-08-26T05:40:14.000Z</Time>
            <Position>
              <LatitudeDegrees>42.83548875711858272552490234375</LatitudeDegrees>
              <LongitudeDegrees>-1.6202639602124691009521484375</LongitudeDegrees>
            </Position>
            <AltitudeMeters>428.600006103515625</AltitudeMeters>
            <DistanceMeters>1475.9387135399</DistanceMeters>
          </Trackpoint>
          <Trackpoint>
            <Time>2018-08-26T05:40:15.000Z</Time>
            <Position>
              <LatitudeDegrees>42.83552262000739574432373046875</LatitudeDegrees>
              <LongitudeDegrees>-1.62033981643617153167724609375</LongitudeDegrees>
            </Position>
            <AltitudeMeters>428.600006103515625</AltitudeMeters>
            <DistanceMeters>1483.186953654</DistanceMeters>
          </Trackpoint>
          <Trackpoint>
            <Time>2018-08-26T05:40:16.000Z</Time>
            <Position>
              <LatitudeDegrees>42.83555665053427219390869140625</LatitudeDegrees>
              <LongitudeDegrees>-1.6204161755740642547607421875</LongitudeDegrees>
            </Position>
            <AltitudeMeters>428.600006103515625</AltitudeMeters>
            <DistanceMeters>1490.4799057486</DistanceMeters>
          </Trackpoint>
          <Trackpoint>
            <Time>2018-08-26T05:40:17.000Z</Time>
            <Position>
              <LatitudeDegrees>42.83559017814695835113525390625</LatitudeDegrees>
              <LongitudeDegrees>-1.6204929538071155548095703125</LongitudeDegrees>
            </Position>
            <AltitudeMeters>428.600006103515625</AltitudeMeters>
            <DistanceMeters>1497.7734769131</DistanceMeters>
          </Trackpoint>
          <Trackpoint>
            <Time>2018-08-26T05:40:18.000Z</Time>
            <Position>
              <LatitudeDegrees>42.8356234543025493621826171875</LatitudeDegrees>
              <LongitudeDegrees>-1.62057031877338886260986328125</LongitudeDegrees>
            </Position>
            <AltitudeMeters>428.79998779296875</AltitudeMeters>
            <DistanceMeters>1505.0936185523</DistanceMeters>
          </Trackpoint>
          <Trackpoint>
            <Time>2018-08-26T05:40:19.000Z</Time>
            <Position>
              <LatitudeDegrees>42.835656143724918365478515625</LatitudeDegrees>
              <LongitudeDegrees>-1.6206485219299793243408203125</LongitudeDegrees>
            </Position>
            <AltitudeMeters>428.79998779296875</AltitudeMeters>
            <DistanceMeters>1512.4408491178</DistanceMeters>
          </Trackpoint>
          <Trackpoint>
            <Time>2018-08-26T05:40:20.000Z</Time>
            <Position>
              <LatitudeDegrees>42.8356891684234142303466796875</LatitudeDegrees>
              <LongitudeDegrees>-1.6207263059914112091064453125</LongitudeDegrees>
            </Position>
            <AltitudeMeters>428.79998779296875</AltitudeMeters>
            <DistanceMeters>1519.7770099398</DistanceMeters>
          </Trackpoint>
          <Trackpoint>
            <Time>2018-08-26T05:40:21.000Z</Time>
            <Position>
              <LatitudeDegrees>42.83572277985513210296630859375</LatitudeDegrees>
              <LongitudeDegrees>-1.62080325186252593994140625</LongitudeDegrees>
            </Position>
            <AltitudeMeters>428.79998779296875</AltitudeMeters>
            <DistanceMeters>1527.0872761726</DistanceMeters>
          </Trackpoint>
          <Trackpoint>
            <Time>2018-08-26T05:40:22.000Z</Time>
            <Position>
              <LatitudeDegrees>42.83575647510588169097900390625</LatitudeDegrees>
              <LongitudeDegrees>-1.6208812035620212554931640625</LongitudeDegrees>
            </Position>
            <AltitudeMeters>429</AltitudeMeters>
            <DistanceMeters>1534.4731201866</DistanceMeters>
          </Trackpoint>
          <Trackpoint>
            <Time>2018-08-26T05:40:23.000Z</Time>
            <Position>
              <LatitudeDegrees>42.8357890807092189788818359375</LatitudeDegrees>
              <LongitudeDegrees>-1.62096150219440460205078125</LongitudeDegrees>
            </Position>
            <AltitudeMeters>429.20001220703125</AltitudeMeters>
            <DistanceMeters>1541.9645769941</DistanceMeters>
          </Trackpoint>
          <Trackpoint>
            <Time>2018-08-26T05:40:24.000Z</Time>
            <Position>
              <LatitudeDegrees>42.83582068048417568206787109375</LatitudeDegrees>
              <LongitudeDegrees>-1.62104238756000995635986328125</LongitudeDegrees>
            </Position>
            <AltitudeMeters>429.20001220703125</AltitudeMeters>
            <DistanceMeters>1549.4445738956</DistanceMeters>
          </Trackpoint>
          <Trackpoint>
            <Time>2018-08-26T05:40:25.000Z</Time>
            <Position>
              <LatitudeDegrees>42.83585152588784694671630859375</LatitudeDegrees>
              <LongitudeDegrees>-1.62112453021109104156494140625</LongitudeDegrees>
            </Position>
            <AltitudeMeters>429.399993896484375</AltitudeMeters>
            <DistanceMeters>1556.9775016381</DistanceMeters>
          </Trackpoint>
          <Trackpoint>
            <Time>2018-08-26T05:40:26.000Z</Time>
            <Position>
              <LatitudeDegrees>42.835882119834423065185546875</LatitudeDegrees>
              <LongitudeDegrees>-1.62120717577636241912841796875</LongitudeDegrees>
            </Position>
            <AltitudeMeters>429.399993896484375</AltitudeMeters>
            <DistanceMeters>1564.5343662943</DistanceMeters>
          </Trackpoint>
          <Trackpoint>
            <Time>2018-08-26T05:40:27.000Z</Time>
            <Position>
              <LatitudeDegrees>42.83591288141906261444091796875</LatitudeDegrees>
              <LongitudeDegrees>-1.62128998897969722747802734375</LongitudeDegrees>
            </Position>
            <AltitudeMeters>429.399993896484375</AltitudeMeters>
            <DistanceMeters>1572.1115178719</DistanceMeters>
          </Trackpoint>
          <Trackpoint>
            <Time>2018-08-26T05:40:28.000Z</Time>
            <Position>
              <LatitudeDegrees>42.83594439737498760223388671875</LatitudeDegrees>
              <LongitudeDegrees>-1.62137313745915889739990234375</LongitudeDegrees>
            </Position>
            <AltitudeMeters>429.600006103515625</AltitudeMeters>
            <DistanceMeters>1579.7503891224</DistanceMeters>
          </Trackpoint>
          <Trackpoint>
            <Time>2018-08-26T05:40:29.000Z</Time>
            <Position>
              <LatitudeDegrees>42.83597658388316631317138671875</LatitudeDegrees>
              <LongitudeDegrees>-1.62145611830055713653564453125</LongitudeDegrees>
            </Position>
            <AltitudeMeters>429.600006103515625</AltitudeMeters>
            <DistanceMeters>1587.4116877646</DistanceMeters>
          </Trackpoint>
          <Trackpoint>
            <Time>2018-08-26T05:40:30.000Z</Time>
            <Position>
              <LatitudeDegrees>42.836009524762630462646484375</LatitudeDegrees>
              <LongitudeDegrees>-1.6215390153229236602783203125</LongitudeDegrees>
            </Position>
            <AltitudeMeters>429.79998779296875</AltitudeMeters>
            <DistanceMeters>1595.1070916734</DistanceMeters>
          </Trackpoint>
          <Trackpoint>
            <Time>2018-08-26T05:40:31.000Z</Time>
            <Position>
              <LatitudeDegrees>42.83604112453758716583251953125</LatitudeDegrees>
              <LongitudeDegrees>-1.62162207998335361480712890625</LongitudeDegrees>
            </Position>
            <AltitudeMeters>430.20001220703125</AltitudeMeters>
            <DistanceMeters>1602.7447807106</DistanceMeters>
          </Trackpoint>
          <Trackpoint>
            <Time>2018-08-26T05:40:32.000Z</Time>
            <Position>
              <LatitudeDegrees>42.8360717184841632843017578125</LatitudeDegrees>
              <LongitudeDegrees>-1.62170606665313243865966796875</LongitudeDegrees>
            </Position>
            <AltitudeMeters>430.399993896484375</AltitudeMeters>
            <DistanceMeters>1610.3990041178</DistanceMeters>
          </Trackpoint>
          <Trackpoint>
            <Time>2018-08-26T05:40:33.000Z</Time>
            <Position>
              <LatitudeDegrees>42.83610130660235881805419921875</LatitudeDegrees>
              <LongitudeDegrees>-1.6217901371419429779052734375</LongitudeDegrees>
            </Position>
            <AltitudeMeters>430.399993896484375</AltitudeMeters>
            <DistanceMeters>1618.0106380071</DistanceMeters>
          </Trackpoint>
          <Trackpoint>
            <Time>2018-08-26T05:40:34.000Z</Time>
            <Position>
              <LatitudeDegrees>42.83612997271120548248291015625</LatitudeDegrees>
              <LongitudeDegrees>-1.621874459087848663330078125</LongitudeDegrees>
            </Position>
            <AltitudeMeters>430.600006103515625</AltitudeMeters>
            <DistanceMeters>1625.5961272531</DistanceMeters>
          </Trackpoint>
          <Trackpoint>
            <Time>2018-08-26T05:40:35.000Z</Time>
            <Position>
              <LatitudeDegrees>42.83615780062973499298095703125</LatitudeDegrees>
              <LongitudeDegrees>-1.62195928394794464111328125</LongitudeDegrees>
            </Position>
            <AltitudeMeters>430.600006103515625</AltitudeMeters>
            <DistanceMeters>1633.1804259648</DistanceMeters>
          </Trackpoint>
          <Trackpoint>
            <Time>2018-08-26T05:40:36.000Z</Time>
            <Position>
              <LatitudeDegrees>42.83618411980569362640380859375</LatitudeDegrees>
              <LongitudeDegrees>-1.62204385735094547271728515625</LongitudeDegrees>
            </Position>
            <AltitudeMeters>430.79998779296875</AltitudeMeters>
            <DistanceMeters>1640.679111584</DistanceMeters>
          </Trackpoint>
          <Trackpoint>
            <Time>2018-08-26T05:40:37.000Z</Time>
            <Position>
              <LatitudeDegrees>42.83620976842939853668212890625</LatitudeDegrees>
              <LongitudeDegrees>-1.62212935276329517364501953125</LongitudeDegrees>
            </Position>
            <AltitudeMeters>430.79998779296875</AltitudeMeters>
            <DistanceMeters>1648.2180306802</DistanceMeters>
          </Trackpoint>
          <Trackpoint>
            <Time>2018-08-26T05:40:38.000Z</Time>
            <Position>
              <LatitudeDegrees>42.8362346626818180084228515625</LatitudeDegrees>
              <LongitudeDegrees>-1.62221551872789859771728515625</LongitudeDegrees>
            </Position>
            <AltitudeMeters>430.79998779296875</AltitudeMeters>
            <DistanceMeters>1655.776687549</DistanceMeters>
          </Trackpoint>
          <Trackpoint>
            <Time>2018-08-26T05:40:39.000Z</Time>
            <Position>
              <LatitudeDegrees>42.83625938929617404937744140625</LatitudeDegrees>
              <LongitudeDegrees>-1.62230218760669231414794921875</LongitudeDegrees>
            </Position>
            <AltitudeMeters>431</AltitudeMeters>
            <DistanceMeters>1663.3669370648</DistanceMeters>
          </Trackpoint>
          <Trackpoint>
            <Time>2018-08-26T05:40:40.000Z</Time>
            <Position>
              <LatitudeDegrees>42.836283110082149505615234375</LatitudeDegrees>
              <LongitudeDegrees>-1.6223892755806446075439453125</LongitudeDegrees>
            </Position>
            <AltitudeMeters>431</AltitudeMeters>
            <DistanceMeters>1670.9500450553</DistanceMeters>
          </Trackpoint>
          <Trackpoint>
            <Time>2018-08-26T05:40:41.000Z</Time>
            <Position>
              <LatitudeDegrees>42.83630616031587123870849609375</LatitudeDegrees>
              <LongitudeDegrees>-1.62247736938297748565673828125</LongitudeDegrees>
            </Position>
            <AltitudeMeters>431</AltitudeMeters>
            <DistanceMeters>1678.5841863541</DistanceMeters>
          </Trackpoint>
          <Trackpoint>
            <Time>2018-08-26T05:40:42.000Z</Time>
            <Position>
              <LatitudeDegrees>42.8363285399973392486572265625</LatitudeDegrees>
              <LongitudeDegrees>-1.62256604991853237152099609375</LongitudeDegrees>
            </Position>
            <AltitudeMeters>431</AltitudeMeters>
            <DistanceMeters>1686.2384097613</DistanceMeters>
          </Trackpoint>
          <Trackpoint>
            <Time>2018-08-26T05:40:43.000Z</Time>
            <Position>
              <LatitudeDegrees>42.83635008148849010467529296875</LatitudeDegrees>
              <LongitudeDegrees>-1.6226554848253726959228515625</LongitudeDegrees>
            </Position>
            <AltitudeMeters>431</AltitudeMeters>
            <DistanceMeters>1693.9214826957</DistanceMeters>
          </Trackpoint>
          <Trackpoint>
            <Time>2018-08-26T05:40:44.000Z</Time>
            <Position>
              <LatitudeDegrees>42.83637137152254581451416015625</LatitudeDegrees>
              <LongitudeDegrees>-1.62274525500833988189697265625</LongitudeDegrees>
            </Position>
            <AltitudeMeters>431.20001220703125</AltitudeMeters>
            <DistanceMeters>1701.6215789243</DistanceMeters>
          </Trackpoint>
          <Trackpoint>
            <Time>2018-08-26T05:40:45.000Z</Time>
            <Position>
              <LatitudeDegrees>42.8363915719091892242431640625</LatitudeDegrees>
              <LongitudeDegrees>-1.62283527664840221405029296875</LongitudeDegrees>
            </Position>
            <AltitudeMeters>431.20001220703125</AltitudeMeters>
            <DistanceMeters>1709.3052394967</DistanceMeters>
          </Trackpoint>
          <Trackpoint>
            <Time>2018-08-26T05:40:46.000Z</Time>
            <Position>
              <LatitudeDegrees>42.83641093410551548004150390625</LatitudeDegrees>
              <LongitudeDegrees>-1.622925885021686553955078125</LongitudeDegrees>
            </Position>
            <AltitudeMeters>431</AltitudeMeters>
            <DistanceMeters>1717.0076808133</DistanceMeters>
          </Trackpoint>
          <Trackpoint>
            <Time>2018-08-26T05:40:47.000Z</Time>
            <Position>
              <LatitudeDegrees>42.8364281170070171356201171875</LatitudeDegrees>
              <LongitudeDegrees>-1.62301741540431976318359375</LongitudeDegrees>
            </Position>
            <AltitudeMeters>431.20001220703125</AltitudeMeters>
            <DistanceMeters>1724.7189098583</DistanceMeters>
          </Trackpoint>
          <Trackpoint>
            <Time>2018-08-26T05:40:48.000Z</Time>
            <Position>
              <LatitudeDegrees>42.836444377899169921875</LatitudeDegrees>
              <LongitudeDegrees>-1.623108945786952972412109375</LongitudeDegrees>
            </Position>
            <AltitudeMeters>431.20001220703125</AltitudeMeters>
            <DistanceMeters>1732.4049205333</DistanceMeters>
          </Trackpoint>
          <Trackpoint>
            <Time>2018-08-26T05:40:49.000Z</Time>
            <Position>
              <LatitudeDegrees>42.83646021969616413116455078125</LatitudeDegrees>
              <LongitudeDegrees>-1.6232006438076496124267578125</LongitudeDegrees>
            </Position>
            <AltitudeMeters>431.20001220703125</AltitudeMeters>
            <DistanceMeters>1740.0944550156</DistanceMeters>
          </Trackpoint>
          <Trackpoint>
            <Time>2018-08-26T05:40:50.000Z</Time>
            <Position>
              <LatitudeDegrees>42.836474888026714324951171875</LatitudeDegrees>
              <LongitudeDegrees>-1.6232931800186634063720703125</LongitudeDegrees>
            </Position>
            <AltitudeMeters>431.399993896484375</AltitudeMeters>
            <DistanceMeters>1747.8214767865</DistanceMeters>
          </Trackpoint>
          <Trackpoint>
            <Time>2018-08-26T05:40:51.000Z</Time>
            <Position>
              <LatitudeDegrees>42.836488299071788787841796875</LatitudeDegrees>
              <LongitudeDegrees>-1.62338621914386749267578125</LongitudeDegrees>
            </Position>
            <AltitudeMeters>431.399993896484375</AltitudeMeters>
            <DistanceMeters>1755.5595926359</DistanceMeters>
          </Trackpoint>
          <Trackpoint>
            <Time>2018-08-26T05:40:52.000Z</Time>
            <Position>
              <LatitudeDegrees>42.836500704288482666015625</LatitudeDegrees>
              <LongitudeDegrees>-1.62347934208810329437255859375</LongitudeDegrees>
            </Position>
            <AltitudeMeters>431.399993896484375</AltitudeMeters>
            <DistanceMeters>1763.284276781</DistanceMeters>
          </Trackpoint>
          <Trackpoint>
            <Time>2018-08-26T05:40:53.000Z</Time>
            <Position>
              <LatitudeDegrees>42.83651151694357395172119140625</LatitudeDegrees>
              <LongitudeDegrees>-1.6235738061368465423583984375</LongitudeDegrees>
            </Position>
            <AltitudeMeters>431.600006103515625</AltitudeMeters>
            <DistanceMeters>1771.0874687857</DistanceMeters>
          </Trackpoint>
          <Trackpoint>
            <Time>2018-08-26T05:40:54.000Z</Time>
            <Position>
              <LatitudeDegrees>42.83652023412287235260009765625</LatitudeDegrees>
              <LongitudeDegrees>-1.62366810254752635955810546875</LongitudeDegrees>
            </Position>
            <AltitudeMeters>431.79998779296875</AltitudeMeters>
            <DistanceMeters>1778.8442335331</DistanceMeters>
          </Trackpoint>
          <Trackpoint>
            <Time>2018-08-26T05:40:55.000Z</Time>
            <Position>
              <LatitudeDegrees>42.8365273587405681610107421875</LatitudeDegrees>
              <LongitudeDegrees>-1.62376248277723789215087890625</LongitudeDegrees>
            </Position>
            <AltitudeMeters>431.79998779296875</AltitudeMeters>
            <DistanceMeters>1786.5875989247</DistanceMeters>
          </Trackpoint>
          <Trackpoint>
            <Time>2018-08-26T05:40:56.000Z</Time>
            <Position>
              <LatitudeDegrees>42.83653247170150279998779296875</LatitudeDegrees>
              <LongitudeDegrees>-1.623857282102108001708984375</LongitudeDegrees>
            </Position>
            <AltitudeMeters>431.79998779296875</AltitudeMeters>
            <DistanceMeters>1794.346109708</DistanceMeters>
          </Trackpoint>
          <Trackpoint>
            <Time>2018-08-26T05:40:57.000Z</Time>
            <Position>
              <LatitudeDegrees>42.83653615973889827728271484375</LatitudeDegrees>
              <LongitudeDegrees>-1.62395241670310497283935546875</LongitudeDegrees>
            </Position>
            <AltitudeMeters>432</AltitudeMeters>
            <DistanceMeters>1802.1214786248</DistanceMeters>
          </Trackpoint>
          <Trackpoint>
            <Time>2018-08-26T05:40:58.000Z</Time>
            <Position>
              <LatitudeDegrees>42.8365374170243740081787109375</LatitudeDegrees>
              <LongitudeDegrees>-1.624046377837657928466796875</LongitudeDegrees>
            </Position>
            <AltitudeMeters>432</AltitudeMeters>
            <DistanceMeters>1809.7922007622</DistanceMeters>
          </Trackpoint>
          <Trackpoint>
            <Time>2018-08-26T05:40:59.000Z</Time>
            <Position>
              <LatitudeDegrees>42.8365369141101837158203125</LatitudeDegrees>
              <LongitudeDegrees>-1.62414235062897205352783203125</LongitudeDegrees>
            </Position>
            <AltitudeMeters>432.20001220703125</AltitudeMeters>
            <DistanceMeters>1817.6259992989</DistanceMeters>
          </Trackpoint>
          <Trackpoint>
            <Time>2018-08-26T05:41:00.000Z</Time>
            <Position>
              <LatitudeDegrees>42.836534567177295684814453125</LatitudeDegrees>
              <LongitudeDegrees>-1.62423874251544475555419921875</LongitudeDegrees>
            </Position>
            <AltitudeMeters>432.399993896484375</AltitudeMeters>
            <DistanceMeters>1825.4977452652</DistanceMeters>
          </Trackpoint>
          <Trackpoint>
            <Time>2018-08-26T05:41:01.000Z</Time>
            <Position>
              <LatitudeDegrees>42.83653029240667819976806640625</LatitudeDegrees>
              <LongitudeDegrees>-1.6243345476686954498291015625</LongitudeDegrees>
            </Position>
            <AltitudeMeters>432.399993896484375</AltitudeMeters>
            <DistanceMeters>1833.3315438019</DistanceMeters>
          </Trackpoint>
          <Trackpoint>
            <Time>2018-08-26T05:41:02.000Z</Time>
            <Position>
              <LatitudeDegrees>42.83652341924607753753662109375</LatitudeDegrees>
              <LongitudeDegrees>-1.62443219684064388275146484375</LongitudeDegrees>
            </Position>
            <AltitudeMeters>432.600006103515625</AltitudeMeters>
            <DistanceMeters>1841.3380731796</DistanceMeters>
          </Trackpoint>
          <Trackpoint>
            <Time>2018-08-26T05:41:03.000Z</Time>
            <Position>
              <LatitudeDegrees>42.83651185221970081329345703125</LatitudeDegrees>
              <LongitudeDegrees>-1.6245283372700214385986328125</LongitudeDegrees>
            </Position>
            <AltitudeMeters>432.600006103515625</AltitudeMeters>
            <DistanceMeters>1849.2897142215</DistanceMeters>
          </Trackpoint>
          <Trackpoint>
            <Time>2018-08-26T05:41:04.000Z</Time>
            <Position>
              <LatitudeDegrees>42.8364968486130237579345703125</LatitudeDegrees>
              <LongitudeDegrees>-1.62462414242327213287353515625</LongitudeDegrees>
            </Position>
            <AltitudeMeters>432.600006103515625</AltitudeMeters>
            <DistanceMeters>1857.2855219495</DistanceMeters>
          </Trackpoint>
          <Trackpoint>
            <Time>2018-08-26T05:41:05.000Z</Time>
            <Position>
              <LatitudeDegrees>42.8364810906350612640380859375</LatitudeDegrees>
              <LongitudeDegrees>-1.62471986375749111175537109375</LongitudeDegrees>
            </Position>
            <AltitudeMeters>432.600006103515625</AltitudeMeters>
            <DistanceMeters>1865.2926152269</DistanceMeters>
          </Trackpoint>
          <Trackpoint>
            <Time>2018-08-26T05:41:06.000Z</Time>
            <Position>
              <LatitudeDegrees>42.836466841399669647216796875</LatitudeDegrees>
              <LongitudeDegrees>-1.6248160041868686676025390625</LongitudeDegrees>
            </Position>
            <AltitudeMeters>432.600006103515625</AltitudeMeters>
            <DistanceMeters>1873.2974526672</DistanceMeters>
          </Trackpoint>
          <Trackpoint>
            <Time>2018-08-26T05:41:07.000Z</Time>
            <Position>
              <LatitudeDegrees>42.83646021969616413116455078125</LatitudeDegrees>
              <LongitudeDegrees>-1.62491398863494396209716796875</LongitudeDegrees>
            </Position>
            <AltitudeMeters>432.600006103515625</AltitudeMeters>
            <DistanceMeters>1881.3287561753</DistanceMeters>
          </Trackpoint>
          <Trackpoint>
            <Time>2018-08-26T05:41:08.000Z</Time>
            <Position>
              <LatitudeDegrees>42.83646357245743274688720703125</LatitudeDegrees>
              <LongitudeDegrees>-1.625011973083019256591796875</LongitudeDegrees>
            </Position>
            <AltitudeMeters>432.600006103515625</AltitudeMeters>
            <DistanceMeters>1889.3347216136</DistanceMeters>
          </Trackpoint>
          <Trackpoint>
            <Time>2018-08-26T05:41:09.000Z</Time>
            <Position>
              <LatitudeDegrees>42.83647664822638034820556640625</LatitudeDegrees>
              <LongitudeDegrees>-1.62510777823626995086669921875</LongitudeDegrees>
            </Position>
            <AltitudeMeters>432.600006103515625</AltitudeMeters>
            <DistanceMeters>1897.2880659096</DistanceMeters>
          </Trackpoint>
          <Trackpoint>
            <Time>2018-08-26T05:41:10.000Z</Time>
            <Position>
              <LatitudeDegrees>42.8364966809749603271484375</LatitudeDegrees>
              <LongitudeDegrees>-1.62520073354244232177734375</LongitudeDegrees>
            </Position>
            <AltitudeMeters>432.399993896484375</AltitudeMeters>
            <DistanceMeters>1905.1952935715</DistanceMeters>
          </Trackpoint>
          <Trackpoint>
            <Time>2018-08-26T05:41:11.000Z</Time>
            <Position>
              <LatitudeDegrees>42.83651889301836490631103515625</LatitudeDegrees>
              <LongitudeDegrees>-1.6252924315631389617919921875</LongitudeDegrees>
            </Position>
            <AltitudeMeters>432.399993896484375</AltitudeMeters>
            <DistanceMeters>1913.0773571297</DistanceMeters>
          </Trackpoint>
          <Trackpoint>
            <Time>2018-08-26T05:41:12.000Z</Time>
            <Position>
              <LatitudeDegrees>42.8365369141101837158203125</LatitudeDegrees>
              <LongitudeDegrees>-1.62538505159318447113037109375</LongitudeDegrees>
            </Position>
            <AltitudeMeters>432.399993896484375</AltitudeMeters>
            <DistanceMeters>1920.8984656081</DistanceMeters>
          </Trackpoint>
          <Trackpoint>
            <Time>2018-08-26T05:41:13.000Z</Time>
            <Position>
              <LatitudeDegrees>42.8365449607372283935546875</LatitudeDegrees>
              <LongitudeDegrees>-1.62547976709902286529541015625</LongitudeDegrees>
            </Position>
            <AltitudeMeters>432.399993896484375</AltitudeMeters>
            <DistanceMeters>1928.6802194357</DistanceMeters>
          </Trackpoint>
          <Trackpoint>
            <Time>2018-08-26T05:41:14.000Z</Time>
            <Position>
              <LatitudeDegrees>42.8365394286811351776123046875</LatitudeDegrees>
              <LongitudeDegrees>-1.62557356059551239013671875</LongitudeDegrees>
            </Position>
            <AltitudeMeters>432.399993896484375</AltitudeMeters>
            <DistanceMeters>1936.3603535056</DistanceMeters>
          </Trackpoint>
          <Trackpoint>
            <Time>2018-08-26T05:41:15.000Z</Time>
            <Position>
              <LatitudeDegrees>42.836520485579967498779296875</LatitudeDegrees>
              <LongitudeDegrees>-1.6256649233400821685791015625</LongitudeDegrees>
            </Position>
            <AltitudeMeters>432.399993896484375</AltitudeMeters>
            <DistanceMeters>1944.1095475509</DistanceMeters>
          </Trackpoint>
          <Trackpoint>
            <Time>2018-08-26T05:41:16.000Z</Time>
            <Position>
              <LatitudeDegrees>42.83649441786110401153564453125</LatitudeDegrees>
              <LongitudeDegrees>-1.62575234659016132354736328125</LongitudeDegrees>
            </Position>
            <AltitudeMeters>432.399993896484375</AltitudeMeters>
            <DistanceMeters>1951.8119888676</DistanceMeters>
          </Trackpoint>
          <Trackpoint>
            <Time>2018-08-26T05:41:17.000Z</Time>
            <Position>
              <LatitudeDegrees>42.83646658994257450103759765625</LatitudeDegrees>
              <LongitudeDegrees>-1.62584085948765277862548828125</LongitudeDegrees>
            </Position>
            <AltitudeMeters>432.399993896484375</AltitudeMeters>
            <DistanceMeters>1959.6722549591</DistanceMeters>
          </Trackpoint>
          <Trackpoint>
            <Time>2018-08-26T05:41:18.000Z</Time>
            <Position>
              <LatitudeDegrees>42.83644731156527996063232421875</LatitudeDegrees>
              <LongitudeDegrees>-1.6259338147938251495361328125</LongitudeDegrees>
            </Position>
            <AltitudeMeters>432.399993896484375</AltitudeMeters>
            <DistanceMeters>1967.5566094819</DistanceMeters>
          </Trackpoint>
          <Trackpoint>
            <Time>2018-08-26T05:41:19.000Z</Time>
            <Position>
              <LatitudeDegrees>42.83644010312855243682861328125</LatitudeDegrees>
              <LongitudeDegrees>-1.6260302066802978515625</LongitudeDegrees>
            </Position>
            <AltitudeMeters>432.399993896484375</AltitudeMeters>
            <DistanceMeters>1975.4649790642</DistanceMeters>
          </Trackpoint>
          <Trackpoint>
            <Time>2018-08-26T05:41:20.000Z</Time>
            <Position>
              <LatitudeDegrees>42.83644429408013820648193359375</LatitudeDegrees>
              <LongitudeDegrees>-1.62612701766192913055419921875</LongitudeDegrees>
            </Position>
            <AltitudeMeters>432.399993896484375</AltitudeMeters>
            <DistanceMeters>1983.3801967092</DistanceMeters>
          </Trackpoint>
          <Trackpoint>
            <Time>2018-08-26T05:41:21.000Z</Time>
            <Position>
              <LatitudeDegrees>42.83645468764007091522216796875</LatitudeDegrees>
              <LongitudeDegrees>-1.62622374482452869415283203125</LongitudeDegrees>
            </Position>
            <AltitudeMeters>432.399993896484375</AltitudeMeters>
            <DistanceMeters>1991.3590461833</DistanceMeters>
          </Trackpoint>
          <Trackpoint>
            <Time>2018-08-26T05:41:22.000Z</Time>
            <Position>
              <LatitudeDegrees>42.83646809868514537811279296875</LatitudeDegrees>
              <LongitudeDegrees>-1.6263193823397159576416015625</LongitudeDegrees>
            </Position>
            <AltitudeMeters>432.399993896484375</AltitudeMeters>
            <DistanceMeters>1999.30614343</DistanceMeters>
          </Trackpoint>
          <Trackpoint>
            <Time>2018-08-26T05:41:23.000Z</Time>
            <Position>
              <LatitudeDegrees>42.83648452721536159515380859375</LatitudeDegrees>
              <LongitudeDegrees>-1.62641418166458606719970703125</LongitudeDegrees>
            </Position>
            <AltitudeMeters>432.399993896484375</AltitudeMeters>
            <DistanceMeters>2007.2572166396</DistanceMeters>
          </Trackpoint>
          <Trackpoint>
            <Time>2018-08-26T05:41:24.000Z</Time>
            <Position>
              <LatitudeDegrees>42.8365018777549266815185546875</LatitudeDegrees>
              <LongitudeDegrees>-1.62650822661817073822021484375</LongitudeDegrees>
            </Position>
            <AltitudeMeters>432.399993896484375</AltitudeMeters>
            <DistanceMeters>2015.1712933524</DistanceMeters>
          </Trackpoint>
          <Trackpoint>
            <Time>2018-08-26T05:41:25.000Z</Time>
            <Position>
              <LatitudeDegrees>42.83651880919933319091796875</LatitudeDegrees>
              <LongitudeDegrees>-1.6266016848385334014892578125</LongitudeDegrees>
            </Position>
            <AltitudeMeters>432.399993896484375</AltitudeMeters>
            <DistanceMeters>2023.0281122106</DistanceMeters>
          </Trackpoint>
          <Trackpoint>
            <Time>2018-08-26T05:41:26.000Z</Time>
            <Position>
              <LatitudeDegrees>42.83653398044407367706298828125</LatitudeDegrees>
              <LongitudeDegrees>-1.626694388687610626220703125</LongitudeDegrees>
            </Position>
            <AltitudeMeters>432.600006103515625</AltitudeMeters>
            <DistanceMeters>2030.7808013447</DistanceMeters>
          </Trackpoint>
          <Trackpoint>
            <Time>2018-08-26T05:41:27.000Z</Time>
            <Position>
              <LatitudeDegrees>42.8365474753081798553466796875</LatitudeDegrees>
              <LongitudeDegrees>-1.6267874278128147125244140625</LongitudeDegrees>
            </Position>
            <AltitudeMeters>432.600006103515625</AltitudeMeters>
            <DistanceMeters>2038.5212507636</DistanceMeters>
          </Trackpoint>
          <Trackpoint>
            <Time>2018-08-26T05:41:28.000Z</Time>
            <Position>
              <LatitudeDegrees>42.83656063489615917205810546875</LatitudeDegrees>
              <LongitudeDegrees>-1.626880131661891937255859375</LongitudeDegrees>
            </Position>
            <AltitudeMeters>432.600006103515625</AltitudeMeters>
            <DistanceMeters>2046.2277942671</DistanceMeters>
          </Trackpoint>
          <Trackpoint>
            <Time>2018-08-26T05:41:29.000Z</Time>
            <Position>
              <LatitudeDegrees>42.83657371066510677337646484375</LatitudeDegrees>
              <LongitudeDegrees>-1.62697308696806430816650390625</LongitudeDegrees>
            </Position>
            <AltitudeMeters>432.600006103515625</AltitudeMeters>
            <DistanceMeters>2053.9524784122</DistanceMeters>
          </Trackpoint>
          <Trackpoint>
            <Time>2018-08-26T05:41:30.000Z</Time>
            <Position>
              <LatitudeDegrees>42.83658695407211780548095703125</LatitudeDegrees>
              <LongitudeDegrees>-1.6270663775503635406494140625</LongitudeDegrees>
            </Position>
            <AltitudeMeters>432.600006103515625</AltitudeMeters>
            <DistanceMeters>2061.7074967305</DistanceMeters>
          </Trackpoint>
          <Trackpoint>
            <Time>2018-08-26T05:41:31.000Z</Time>
            <Position>
              <LatitudeDegrees>42.8366012871265411376953125</LatitudeDegrees>
              <LongitudeDegrees>-1.6271599195897579193115234375</LongitudeDegrees>
            </Position>
            <AltitudeMeters>432.79998779296875</AltitudeMeters>
            <DistanceMeters>2069.5066373836</DistanceMeters>
          </Trackpoint>
          <Trackpoint>
            <Time>2018-08-26T05:41:32.000Z</Time>
            <Position>
              <LatitudeDegrees>42.8366162069141864776611328125</LatitudeDegrees>
              <LongitudeDegrees>-1.6272537969052791595458984375</LongitudeDegrees>
            </Position>
            <AltitudeMeters>432.79998779296875</AltitudeMeters>
            <DistanceMeters>2077.3461973379</DistanceMeters>
          </Trackpoint>
          <Trackpoint>
            <Time>2018-08-26T05:41:33.000Z</Time>
            <Position>
              <LatitudeDegrees>42.83663053996860980987548828125</LatitudeDegrees>
              <LongitudeDegrees>-1.62734792567789554595947265625</LongitudeDegrees>
            </Position>
            <AltitudeMeters>432.79998779296875</AltitudeMeters>
            <DistanceMeters>2085.1926654093</DistanceMeters>
          </Trackpoint>
          <Trackpoint>
            <Time>2018-08-26T05:41:34.000Z</Time>
            <Position>
              <LatitudeDegrees>42.83664286136627197265625</LatitudeDegrees>
              <LongitudeDegrees>-1.62744297645986080169677734375</LongitudeDegrees>
            </Position>
            <AltitudeMeters>432.79998779296875</AltitudeMeters>
            <DistanceMeters>2093.0712912714</DistanceMeters>
          </Trackpoint>
          <Trackpoint>
            <Time>2018-08-26T05:41:35.000Z</Time>
            <Position>
              <LatitudeDegrees>42.83665400929749011993408203125</LatitudeDegrees>
              <LongitudeDegrees>-1.62753827869892120361328125</LongitudeDegrees>
            </Position>
            <AltitudeMeters>433.20001220703125</AltitudeMeters>
            <DistanceMeters>2100.9476245027</DistanceMeters>
          </Trackpoint>
          <Trackpoint>
            <Time>2018-08-26T05:41:36.000Z</Time>
            <Position>
              <LatitudeDegrees>42.8366644866764545440673828125</LatitudeDegrees>
              <LongitudeDegrees>-1.62763408385217189788818359375</LongitudeDegrees>
            </Position>
            <AltitudeMeters>433.20001220703125</AltitudeMeters>
            <DistanceMeters>2108.852567829</DistanceMeters>
          </Trackpoint>
          <Trackpoint>
            <Time>2018-08-26T05:41:37.000Z</Time>
            <Position>
              <LatitudeDegrees>42.83667647279798984527587890625</LatitudeDegrees>
              <LongitudeDegrees>-1.62772913463413715362548828125</LongitudeDegrees>
            </Position>
            <AltitudeMeters>433.600006103515625</AltitudeMeters>
            <DistanceMeters>2116.7243137953</DistanceMeters>
          </Trackpoint>
          <Trackpoint>
            <Time>2018-08-26T05:41:38.000Z</Time>
            <Position>
              <LatitudeDegrees>42.83668921329081058502197265625</LatitudeDegrees>
              <LongitudeDegrees>-1.62782393395900726318359375</LongitudeDegrees>
            </Position>
            <AltitudeMeters>433.79998779296875</AltitudeMeters>
            <DistanceMeters>2124.5908958912</DistanceMeters>
          </Trackpoint>
          <Trackpoint>
            <Time>2018-08-26T05:41:39.000Z</Time>
            <Position>
              <LatitudeDegrees>42.83670111559331417083740234375</LatitudeDegrees>
              <LongitudeDegrees>-1.62791839800775051116943359375</LongitudeDegrees>
            </Position>
            <AltitudeMeters>434.20001220703125</AltitudeMeters>
            <DistanceMeters>2132.4143131839</DistanceMeters>
          </Trackpoint>
          <Trackpoint>
            <Time>2018-08-26T05:41:40.000Z</Time>
            <Position>
              <LatitudeDegrees>42.83671217970550060272216796875</LatitudeDegrees>
              <LongitudeDegrees>-1.62801311351358890533447265625</LongitudeDegrees>
            </Position>
            <AltitudeMeters>434.600006103515625</AltitudeMeters>
            <DistanceMeters>2140.2423460626</DistanceMeters>
          </Trackpoint>
          <Trackpoint>
            <Time>2018-08-26T05:41:41.000Z</Time>
            <Position>
              <LatitudeDegrees>42.83672173507511615753173828125</LatitudeDegrees>
              <LongitudeDegrees>-1.62810799665749073028564453125</LongitudeDegrees>
            </Position>
            <AltitudeMeters>434.79998779296875</AltitudeMeters>
            <DistanceMeters>2148.0588348664</DistanceMeters>
          </Trackpoint>
          <Trackpoint>
            <Time>2018-08-26T05:41:42.000Z</Time>
            <Position>
              <LatitudeDegrees>42.836731038987636566162109375</LatitudeDegrees>
              <LongitudeDegrees>-1.62820287980139255523681640625</LongitudeDegrees>
            </Position>
            <AltitudeMeters>435</AltitudeMeters>
            <DistanceMeters>2155.8718571216</DistanceMeters>
          </Trackpoint>
          <Trackpoint>
            <Time>2018-08-26T05:41:43.000Z</Time>
            <Position>
              <LatitudeDegrees>42.83673983998596668243408203125</LatitudeDegrees>
              <LongitudeDegrees>-1.62829776294529438018798828125</LongitudeDegrees>
            </Position>
            <AltitudeMeters>435</AltitudeMeters>
            <DistanceMeters>2163.6779416615</DistanceMeters>
          </Trackpoint>
          <Trackpoint>
            <Time>2018-08-26T05:41:44.000Z</Time>
            <Position>
              <LatitudeDegrees>42.83674922771751880645751953125</LatitudeDegrees>
              <LongitudeDegrees>-1.62839247845113277435302734375</LongitudeDegrees>
            </Position>
            <AltitudeMeters>435.20001220703125</AltitudeMeters>
            <DistanceMeters>2171.4788188657</DistanceMeters>
          </Trackpoint>
          <Trackpoint>
            <Time>2018-08-26T05:41:45.000Z</Time>
            <Position>
              <LatitudeDegrees>42.836758196353912353515625</LatitudeDegrees>
              <LongitudeDegrees>-1.62848778069019317626953125</LongitudeDegrees>
            </Position>
            <AltitudeMeters>435.20001220703125</AltitudeMeters>
            <DistanceMeters>2179.3206822019</DistanceMeters>
          </Trackpoint>
          <Trackpoint>
            <Time>2018-08-26T05:41:46.000Z</Time>
            <Position>
              <LatitudeDegrees>42.8367657400667667388916015625</LatitudeDegrees>
              <LongitudeDegrees>-1.6285841725766658782958984375</LongitudeDegrees>
            </Position>
            <AltitudeMeters>435.20001220703125</AltitudeMeters>
            <DistanceMeters>2187.2324765565</DistanceMeters>
          </Trackpoint>
          <Trackpoint>
            <Time>2018-08-26T05:41:47.000Z</Time>
            <Position>
              <LatitudeDegrees>42.836772613227367401123046875</LatitudeDegrees>
              <LongitudeDegrees>-1.62868081592023372650146484375</LongitudeDegrees>
            </Position>
            <AltitudeMeters>435.399993896484375</AltitudeMeters>
            <DistanceMeters>2195.157955201</DistanceMeters>
          </Trackpoint>
          <Trackpoint>
            <Time>2018-08-26T05:41:48.000Z</Time>
            <Position>
              <LatitudeDegrees>42.83677898347377777099609375</LatitudeDegrees>
              <LongitudeDegrees>-1.62877737544476985931396484375</LongitudeDegrees>
            </Position>
            <AltitudeMeters>435.399993896484375</AltitudeMeters>
            <DistanceMeters>2203.070890817</DistanceMeters>
          </Trackpoint>
          <Trackpoint>
            <Time>2018-08-26T05:41:49.000Z</Time>
            <Position>
              <LatitudeDegrees>42.83678493462502956390380859375</LatitudeDegrees>
              <LongitudeDegrees>-1.62887510843575000762939453125</LongitudeDegrees>
            </Position>
            <AltitudeMeters>435.600006103515625</AltitudeMeters>
            <DistanceMeters>2211.0751641987</DistanceMeters>
          </Trackpoint>
          <Trackpoint>
            <Time>2018-08-26T05:41:50.000Z</Time>
            <Position>
              <LatitudeDegrees>42.83678845502436161041259765625</LatitudeDegrees>
              <LongitudeDegrees>-1.62897334434092044830322265625</LongitudeDegrees>
            </Position>
            <AltitudeMeters>435.79998779296875</AltitudeMeters>
            <DistanceMeters>2219.1025314822</DistanceMeters>
          </Trackpoint>
          <Trackpoint>
            <Time>2018-08-26T05:41:51.000Z</Time>
            <Position>
              <LatitudeDegrees>42.836791388690471649169921875</LatitudeDegrees>
              <LongitudeDegrees>-1.62907107733190059661865234375</LongitudeDegrees>
            </Position>
            <AltitudeMeters>435.79998779296875</AltitudeMeters>
            <DistanceMeters>2227.0859066796</DistanceMeters>
          </Trackpoint>
          <Trackpoint>
            <Time>2018-08-26T05:41:52.000Z</Time>
            <Position>
              <LatitudeDegrees>42.836794070899486541748046875</LatitudeDegrees>
              <LongitudeDegrees>-1.6291692294180393218994140625</LongitudeDegrees>
            </Position>
            <AltitudeMeters>435.79998779296875</AltitudeMeters>
            <DistanceMeters>2235.1020169567</DistanceMeters>
          </Trackpoint>
          <Trackpoint>
            <Time>2018-08-26T05:41:53.000Z</Time>
            <Position>
              <LatitudeDegrees>42.83679566346108913421630859375</LatitudeDegrees>
              <LongitudeDegrees>-1.6292674653232097625732421875</LongitudeDegrees>
            </Position>
            <AltitudeMeters>435.79998779296875</AltitudeMeters>
            <DistanceMeters>2243.1215059949</DistanceMeters>
          </Trackpoint>
          <Trackpoint>
            <Time>2018-08-26T05:41:54.000Z</Time>
            <Position>
              <LatitudeDegrees>42.836796082556247711181640625</LatitudeDegrees>
              <LongitudeDegrees>-1.6293657012283802032470703125</LongitudeDegrees>
            </Position>
            <AltitudeMeters>435.79998779296875</AltitudeMeters>
            <DistanceMeters>2251.1387426839</DistanceMeters>
          </Trackpoint>
          <Trackpoint>
            <Time>2018-08-26T05:41:55.000Z</Time>
            <Position>
              <LatitudeDegrees>42.83679583109915256500244140625</LatitudeDegrees>
              <LongitudeDegrees>-1.629463769495487213134765625</LongitudeDegrees>
            </Position>
            <AltitudeMeters>436</AltitudeMeters>
            <DistanceMeters>2259.1424519673</DistanceMeters>
          </Trackpoint>
          <Trackpoint>
            <Time>2018-08-26T05:41:56.000Z</Time>
            <Position>
              <LatitudeDegrees>42.83679583109915256500244140625</LatitudeDegrees>
              <LongitudeDegrees>-1.62956242449581623077392578125</LongitudeDegrees>
            </Position>
            <AltitudeMeters>436</AltitudeMeters>
            <DistanceMeters>2267.1945292687</DistanceMeters>
          </Trackpoint>
          <Trackpoint>
            <Time>2018-08-26T05:41:57.000Z</Time>
            <Position>
              <LatitudeDegrees>42.83679507672786712646484375</LatitudeDegrees>
              <LongitudeDegrees>-1.62966066040098667144775390625</LongitudeDegrees>
            </Position>
            <AltitudeMeters>436</AltitudeMeters>
            <DistanceMeters>2275.2128922114</DistanceMeters>
          </Trackpoint>
          <Trackpoint>
            <Time>2018-08-26T05:41:58.000Z</Time>
            <Position>
              <LatitudeDegrees>42.836793400347232818603515625</LatitudeDegrees>
              <LongitudeDegrees>-1.62975847721099853515625</LongitudeDegrees>
            </Position>
            <AltitudeMeters>436</AltitudeMeters>
            <DistanceMeters>2283.1985293086</DistanceMeters>
          </Trackpoint>
          <Trackpoint>
            <Time>2018-08-26T05:41:59.000Z</Time>
            <Position>
              <LatitudeDegrees>42.836790718138217926025390625</LatitudeDegrees>
              <LongitudeDegrees>-1.62985562346875667572021484375</LongitudeDegrees>
            </Position>
            <AltitudeMeters>436</AltitudeMeters>
            <DistanceMeters>2291.1331177016</DistanceMeters>
          </Trackpoint>
          <Trackpoint>
            <Time>2018-08-26T05:42:00.000Z</Time>
            <Position>
              <LatitudeDegrees>42.83678677864372730255126953125</LatitudeDegrees>
              <LongitudeDegrees>-1.6299524344503879547119140625</LongitudeDegrees>
            </Position>
            <AltitudeMeters>436</AltitudeMeters>
            <DistanceMeters>2299.0471944144</DistanceMeters>
          </Trackpoint>
          <Trackpoint>
            <Time>2018-08-26T05:42:01.000Z</Time>
            <Position>
              <LatitudeDegrees>42.83678242005407810211181640625</LatitudeDegrees>
              <LongitudeDegrees>-1.630049832165241241455078125</LongitudeDegrees>
            </Position>
            <AltitudeMeters>436.20001220703125</AltitudeMeters>
            <DistanceMeters>2307.0118844284</DistanceMeters>
          </Trackpoint>
          <Trackpoint>
            <Time>2018-08-26T05:42:02.000Z</Time>
            <Position>
              <LatitudeDegrees>42.836777977645397186279296875</LatitudeDegrees>
              <LongitudeDegrees>-1.630147062242031097412109375</LongitudeDegrees>
            </Position>
            <AltitudeMeters>436.20001220703125</AltitudeMeters>
            <DistanceMeters>2314.962957638</DistanceMeters>
          </Trackpoint>
          <Trackpoint>
            <Time>2018-08-26T05:42:03.000Z</Time>
            <Position>
              <LatitudeDegrees>42.836774289608001708984375</LatitudeDegrees>
              <LongitudeDegrees>-1.630244292318820953369140625</LongitudeDegrees>
            </Position>
            <AltitudeMeters>436.20001220703125</AltitudeMeters>
            <DistanceMeters>2322.9094867276</DistanceMeters>
          </Trackpoint>
          <Trackpoint>
            <Time>2018-08-26T05:42:04.000Z</Time>
            <Position>
              <LatitudeDegrees>42.83677018247544765472412109375</LatitudeDegrees>
              <LongitudeDegrees>-1.63034160621464252471923828125</LongitudeDegrees>
            </Position>
            <AltitudeMeters>436.20001220703125</AltitudeMeters>
            <DistanceMeters>2330.8651014616</DistanceMeters>
          </Trackpoint>
          <Trackpoint>
            <Time>2018-08-26T05:42:05.000Z</Time>
            <Position>
              <LatitudeDegrees>42.83676548860967159271240234375</LatitudeDegrees>
              <LongitudeDegrees>-1.63043917156755924224853515625</LongitudeDegrees>
            </Position>
            <AltitudeMeters>436.20001220703125</AltitudeMeters>
            <DistanceMeters>2338.8450826071</DistanceMeters>
          </Trackpoint>
          <Trackpoint>
            <Time>2018-08-26T05:42:06.000Z</Time>
            <Position>
              <LatitudeDegrees>42.83676129765808582305908203125</LatitudeDegrees>
              <LongitudeDegrees>-1.630536653101444244384765625</LongitudeDegrees>
            </Position>
            <AltitudeMeters>436.20001220703125</AltitudeMeters>
            <DistanceMeters>2346.8148729247</DistanceMeters>
          </Trackpoint>
          <Trackpoint>
            <Time>2018-08-26T05:42:07.000Z</Time>
            <Position>
              <LatitudeDegrees>42.8367566876113414764404296875</LatitudeDegrees>
              <LongitudeDegrees>-1.6306343860924243927001953125</LongitudeDegrees>
            </Position>
            <AltitudeMeters>436.20001220703125</AltitudeMeters>
            <DistanceMeters>2354.8084216309</DistanceMeters>
          </Trackpoint>
          <Trackpoint>
            <Time>2018-08-26T05:42:08.000Z</Time>
            <Position>
              <LatitudeDegrees>42.8367519937455654144287109375</LatitudeDegrees>
              <LongitudeDegrees>-1.630732454359531402587890625</LongitudeDegrees>
            </Position>
            <AltitudeMeters>436.20001220703125</AltitudeMeters>
            <DistanceMeters>2362.8290366065</DistanceMeters>
          </Trackpoint>
          <Trackpoint>
            <Time>2018-08-26T05:42:09.000Z</Time>
            <Position>
              <LatitudeDegrees>42.83674679696559906005859375</LatitudeDegrees>
              <LongitudeDegrees>-1.6308311931788921356201171875</LongitudeDegrees>
            </Position>
            <AltitudeMeters>436</AltitudeMeters>
            <DistanceMeters>2370.9079840959</DistanceMeters>
          </Trackpoint>
          <Trackpoint>
            <Time>2018-08-26T05:42:10.000Z</Time>
            <Position>
              <LatitudeDegrees>42.83674134872853755950927734375</LatitudeDegrees>
              <LongitudeDegrees>-1.63092984817922115325927734375</LongitudeDegrees>
            </Position>
            <AltitudeMeters>436</AltitudeMeters>
            <DistanceMeters>2378.9830185851</DistanceMeters>
          </Trackpoint>
          <Trackpoint>
            <Time>2018-08-26T05:42:11.000Z</Time>
            <Position>
              <LatitudeDegrees>42.8367355652153491973876953125</LatitudeDegrees>
              <LongitudeDegrees>-1.6310285031795501708984375</LongitudeDegrees>
            </Position>
            <AltitudeMeters>436</AltitudeMeters>
            <DistanceMeters>2387.0608482679</DistanceMeters>
          </Trackpoint>
          <Trackpoint>
            <Time>2018-08-26T05:42:12.000Z</Time>
            <Position>
              <LatitudeDegrees>42.8367302007973194122314453125</LatitudeDegrees>
              <LongitudeDegrees>-1.631127409636974334716796875</LongitudeDegrees>
            </Position>
            <AltitudeMeters>435.600006103515625</AltitudeMeters>
            <DistanceMeters>2395.1543131949</DistanceMeters>
          </Trackpoint>
          <Trackpoint>
            <Time>2018-08-26T05:42:13.000Z</Time>
            <Position>
              <LatitudeDegrees>42.83672508783638477325439453125</LatitudeDegrees>
              <LongitudeDegrees>-1.6312264837324619293212890625</LongitudeDegrees>
            </Position>
            <AltitudeMeters>435.399993896484375</AltitudeMeters>
            <DistanceMeters>2403.2605987982</DistanceMeters>
          </Trackpoint>
          <Trackpoint>
            <Time>2018-08-26T05:42:14.000Z</Time>
            <Position>
              <LatitudeDegrees>42.83671863377094268798828125</LatitudeDegrees>
              <LongitudeDegrees>-1.6313260607421398162841796875</LongitudeDegrees>
            </Position>
            <AltitudeMeters>435.20001220703125</AltitudeMeters>
            <DistanceMeters>2411.4196259182</DistanceMeters>
          </Trackpoint>
          <Trackpoint>
            <Time>2018-08-26T05:42:15.000Z</Time>
            <Position>
              <LatitudeDegrees>42.83671301789581775665283203125</LatitudeDegrees>
              <LongitudeDegrees>-1.63142622448503971099853515625</LongitudeDegrees>
            </Position>
            <AltitudeMeters>435</AltitudeMeters>
            <DistanceMeters>2419.618399549</DistanceMeters>
          </Trackpoint>
          <Trackpoint>
            <Time>2018-08-26T05:42:16.000Z</Time>
            <Position>
              <LatitudeDegrees>42.83670815639197826385498046875</LatitudeDegrees>
              <LongitudeDegrees>-1.63152680732309818267822265625</LongitudeDegrees>
            </Position>
            <AltitudeMeters>435</AltitudeMeters>
            <DistanceMeters>2427.8457595766</DistanceMeters>
          </Trackpoint>
          <Trackpoint>
            <Time>2018-08-26T05:42:17.000Z</Time>
            <Position>
              <LatitudeDegrees>42.8367033787071704864501953125</LatitudeDegrees>
              <LongitudeDegrees>-1.63162806071341037750244140625</LongitudeDegrees>
            </Position>
            <AltitudeMeters>434.79998779296875</AltitudeMeters>
            <DistanceMeters>2436.1267257349</DistanceMeters>
          </Trackpoint>
          <Trackpoint>
            <Time>2018-08-26T05:42:18.000Z</Time>
            <Position>
              <LatitudeDegrees>42.83669927157461643218994140625</LatitudeDegrees>
              <LongitudeDegrees>-1.631729565560817718505859375</LongitudeDegrees>
            </Position>
            <AltitudeMeters>434.600006103515625</AltitudeMeters>
            <DistanceMeters>2444.4240326961</DistanceMeters>
          </Trackpoint>
          <Trackpoint>
            <Time>2018-08-26T05:42:19.000Z</Time>
            <Position>
              <LatitudeDegrees>42.8366943262517452239990234375</LatitudeDegrees>
              <LongitudeDegrees>-1.631831489503383636474609375</LongitudeDegrees>
            </Position>
            <AltitudeMeters>434.399993896484375</AltitudeMeters>
            <DistanceMeters>2452.7615100404</DistanceMeters>
          </Trackpoint>
          <Trackpoint>
            <Time>2018-08-26T05:42:20.000Z</Time>
            <Position>
              <LatitudeDegrees>42.836689464747905731201171875</LatitudeDegrees>
              <LongitudeDegrees>-1.63193400017917156219482421875</LongitudeDegrees>
            </Position>
            <AltitudeMeters>434.20001220703125</AltitudeMeters>
            <DistanceMeters>2461.1454300686</DistanceMeters>
          </Trackpoint>
          <Trackpoint>
            <Time>2018-08-26T05:42:21.000Z</Time>
            <Position>
              <LatitudeDegrees>42.8366852737963199615478515625</LatitudeDegrees>
              <LongitudeDegrees>-1.63203676231205463409423828125</LongitudeDegrees>
            </Position>
            <AltitudeMeters>434</AltitudeMeters>
            <DistanceMeters>2469.5454906239</DistanceMeters>
          </Trackpoint>
          <Trackpoint>
            <Time>2018-08-26T05:42:22.000Z</Time>
            <Position>
              <LatitudeDegrees>42.83667999319732189178466796875</LatitudeDegrees>
              <LongitudeDegrees>-1.63213960826396942138671875</LongitudeDegrees>
            </Position>
            <AltitudeMeters>434</AltitudeMeters>
            <DistanceMeters>2477.9600511827</DistanceMeters>
          </Trackpoint>
          <Trackpoint>
            <Time>2018-08-26T05:42:23.000Z</Time>
            <Position>
              <LatitudeDegrees>42.8366745449602603912353515625</LatitudeDegrees>
              <LongitudeDegrees>-1.6322427056729793548583984375</LongitudeDegrees>
            </Position>
            <AltitudeMeters>433.79998779296875</AltitudeMeters>
            <DistanceMeters>2486.3965826104</DistanceMeters>
          </Trackpoint>
          <Trackpoint>
            <Time>2018-08-26T05:42:24.000Z</Time>
            <Position>
              <LatitudeDegrees>42.83666859380900859832763671875</LatitudeDegrees>
              <LongitudeDegrees>-1.6323456354439258575439453125</LongitudeDegrees>
            </Position>
            <AltitudeMeters>433.79998779296875</AltitudeMeters>
            <DistanceMeters>2494.8234753447</DistanceMeters>
          </Trackpoint>
          <Trackpoint>
            <Time>2018-08-26T05:42:25.000Z</Time>
            <Position>
              <LatitudeDegrees>42.83666322939097881317138671875</LatitudeDegrees>
              <LongitudeDegrees>-1.63244864903390407562255859375</LongitudeDegrees>
            </Position>
            <AltitudeMeters>433.600006103515625</AltitudeMeters>
            <DistanceMeters>2503.2519752934</DistanceMeters>
          </Trackpoint>
          <Trackpoint>
            <Time>2018-08-26T05:42:26.000Z</Time>
            <Position>
              <LatitudeDegrees>42.8366574458777904510498046875</LatitudeDegrees>
              <LongitudeDegrees>-1.63255141116678714752197265625</LongitudeDegrees>
            </Position>
            <AltitudeMeters>433.399993896484375</AltitudeMeters>
            <DistanceMeters>2511.6643892805</DistanceMeters>
          </Trackpoint>
          <Trackpoint>
            <Time>2018-08-26T05:42:27.000Z</Time>
            <Position>
              <LatitudeDegrees>42.83665115945041179656982421875</LatitudeDegrees>
              <LongitudeDegrees>-1.63265417329967021942138671875</LongitudeDegrees>
            </Position>
            <AltitudeMeters>433.20001220703125</AltitudeMeters>
            <DistanceMeters>2520.0810958634</DistanceMeters>
          </Trackpoint>
          <Trackpoint>
            <Time>2018-08-26T05:42:28.000Z</Time>
            <Position>
              <LatitudeDegrees>42.83664395101368427276611328125</LatitudeDegrees>
              <LongitudeDegrees>-1.6327571868896484375</LongitudeDegrees>
            </Position>
            <AltitudeMeters>433</AltitudeMeters>
            <DistanceMeters>2528.5267204011</DistanceMeters>
          </Trackpoint>
          <Trackpoint>
            <Time>2018-08-26T05:42:29.000Z</Time>
            <Position>
              <LatitudeDegrees>42.8366373293101787567138671875</LatitudeDegrees>
              <LongitudeDegrees>-1.6328604519367218017578125</LongitudeDegrees>
            </Position>
            <AltitudeMeters>433</AltitudeMeters>
            <DistanceMeters>2536.9867668486</DistanceMeters>
          </Trackpoint>
          <Trackpoint>
            <Time>2018-08-26T05:42:30.000Z</Time>
            <Position>
              <LatitudeDegrees>42.83663146197795867919921875</LatitudeDegrees>
              <LongitudeDegrees>-1.63296363316476345062255859375</LongitudeDegrees>
            </Position>
            <AltitudeMeters>432.79998779296875</AltitudeMeters>
            <DistanceMeters>2545.4339950366</DistanceMeters>
          </Trackpoint>
          <Trackpoint>
            <Time>2018-08-26T05:42:31.000Z</Time>
            <Position>
              <LatitudeDegrees>42.836626432836055755615234375</LatitudeDegrees>
              <LongitudeDegrees>-1.63306706584990024566650390625</LongitudeDegrees>
            </Position>
            <AltitudeMeters>432.600006103515625</AltitudeMeters>
            <DistanceMeters>2553.8951087959</DistanceMeters>
          </Trackpoint>
          <Trackpoint>
            <Time>2018-08-26T05:42:32.000Z</Time>
            <Position>
              <LatitudeDegrees>42.8366212360560894012451171875</LatitudeDegrees>
              <LongitudeDegrees>-1.63317083381116390228271484375</LongitudeDegrees>
            </Position>
            <AltitudeMeters>432.399993896484375</AltitudeMeters>
            <DistanceMeters>2562.3839255581</DistanceMeters>
          </Trackpoint>
          <Trackpoint>
            <Time>2018-08-26T05:42:33.000Z</Time>
            <Position>
              <LatitudeDegrees>42.836616039276123046875</LatitudeDegrees>
              <LongitudeDegrees>-1.63327460177242755889892578125</LongitudeDegrees>
            </Position>
            <AltitudeMeters>432.20001220703125</AltitudeMeters>
            <DistanceMeters>2570.8727423204</DistanceMeters>
          </Trackpoint>
          <Trackpoint>
            <Time>2018-08-26T05:42:34.000Z</Time>
            <Position>
              <LatitudeDegrees>42.83661067485809326171875</LatitudeDegrees>
              <LongitudeDegrees>-1.63337887264788150787353515625</LongitudeDegrees>
            </Position>
            <AltitudeMeters>431.600006103515625</AltitudeMeters>
            <DistanceMeters>2579.4045326492</DistanceMeters>
          </Trackpoint>
          <Trackpoint>
            <Time>2018-08-26T05:42:35.000Z</Time>
            <Position>
              <LatitudeDegrees>42.836604975163936614990234375</LatitudeDegrees>
              <LongitudeDegrees>-1.6334832273423671722412109375</LongitudeDegrees>
            </Position>
            <AltitudeMeters>431.399993896484375</AltitudeMeters>
            <DistanceMeters>2587.946371893</DistanceMeters>
          </Trackpoint>
          <Trackpoint>
            <Time>2018-08-26T05:42:36.000Z</Time>
            <Position>
              <LatitudeDegrees>42.83660019747912883758544921875</LatitudeDegrees>
              <LongitudeDegrees>-1.6335874982178211212158203125</LongitudeDegrees>
            </Position>
            <AltitudeMeters>431.399993896484375</AltitudeMeters>
            <DistanceMeters>2596.4733980761</DistanceMeters>
          </Trackpoint>
          <Trackpoint>
            <Time>2018-08-26T05:42:37.000Z</Time>
            <Position>
              <LatitudeDegrees>42.836594916880130767822265625</LatitudeDegrees>
              <LongitudeDegrees>-1.6336917690932750701904296875</LongitudeDegrees>
            </Position>
            <AltitudeMeters>431.20001220703125</AltitudeMeters>
            <DistanceMeters>2605.0046591867</DistanceMeters>
          </Trackpoint>
          <Trackpoint>
            <Time>2018-08-26T05:42:38.000Z</Time>
            <Position>
              <LatitudeDegrees>42.8365893848240375518798828125</LatitudeDegrees>
              <LongitudeDegrees>-1.6337963752448558807373046875</LongitudeDegrees>
            </Position>
            <AltitudeMeters>431.20001220703125</AltitudeMeters>
            <DistanceMeters>2613.5644512558</DistanceMeters>
          </Trackpoint>
          <Trackpoint>
            <Time>2018-08-26T05:42:39.000Z</Time>
            <Position>
              <LatitudeDegrees>42.8365838527679443359375</LatitudeDegrees>
              <LongitudeDegrees>-1.63390056230127811431884765625</LongitudeDegrees>
            </Position>
            <AltitudeMeters>431</AltitudeMeters>
            <DistanceMeters>2622.0904183783</DistanceMeters>
          </Trackpoint>
          <Trackpoint>
            <Time>2018-08-26T05:42:40.000Z</Time>
            <Position>
              <LatitudeDegrees>42.83657840453088283538818359375</LatitudeDegrees>
              <LongitudeDegrees>-1.63400500081479549407958984375</LongitudeDegrees>
            </Position>
            <AltitudeMeters>430.79998779296875</AltitudeMeters>
            <DistanceMeters>2630.6354285086</DistanceMeters>
          </Trackpoint>
          <Trackpoint>
            <Time>2018-08-26T05:42:41.000Z</Time>
            <Position>
              <LatitudeDegrees>42.83657253719866275787353515625</LatitudeDegrees>
              <LongitudeDegrees>-1.63410960696637630462646484375</LongitudeDegrees>
            </Position>
            <AltitudeMeters>430.600006103515625</AltitudeMeters>
            <DistanceMeters>2639.1978575242</DistanceMeters>
          </Trackpoint>
          <Trackpoint>
            <Time>2018-08-26T05:42:42.000Z</Time>
            <Position>
              <LatitudeDegrees>42.83656683750450611114501953125</LatitudeDegrees>
              <LongitudeDegrees>-1.634214632213115692138671875</LongitudeDegrees>
            </Position>
            <AltitudeMeters>430.600006103515625</AltitudeMeters>
            <DistanceMeters>2647.7923921429</DistanceMeters>
          </Trackpoint>
          <Trackpoint>
            <Time>2018-08-26T05:42:43.000Z</Time>
            <Position>
              <LatitudeDegrees>42.83656080253422260284423828125</LatitudeDegrees>
              <LongitudeDegrees>-1.63432016037404537200927734375</LongitudeDegrees>
            </Position>
            <AltitudeMeters>430.399993896484375</AltitudeMeters>
            <DistanceMeters>2656.4309424688</DistanceMeters>
          </Trackpoint>
          <Trackpoint>
            <Time>2018-08-26T05:42:44.000Z</Time>
            <Position>
              <LatitudeDegrees>42.83655476756393909454345703125</LatitudeDegrees>
              <LongitudeDegrees>-1.6344250179827213287353515625</LongitudeDegrees>
            </Position>
            <AltitudeMeters>430.20001220703125</AltitudeMeters>
            <DistanceMeters>2665.0160157903</DistanceMeters>
          </Trackpoint>
          <Trackpoint>
            <Time>2018-08-26T05:42:45.000Z</Time>
            <Position>
              <LatitudeDegrees>42.8365498222410678863525390625</LatitudeDegrees>
              <LongitudeDegrees>-1.63453021086752414703369140625</LongitudeDegrees>
            </Position>
            <AltitudeMeters>430</AltitudeMeters>
            <DistanceMeters>2673.6194765249</DistanceMeters>
          </Trackpoint>
          <Trackpoint>
            <Time>2018-08-26T05:42:46.000Z</Time>
            <Position>
              <LatitudeDegrees>42.83654454164206981658935546875</LatitudeDegrees>
              <LongitudeDegrees>-1.6346338950097560882568359375</LongitudeDegrees>
            </Position>
            <AltitudeMeters>430</AltitudeMeters>
            <DistanceMeters>2682.1019083168</DistanceMeters>
          </Trackpoint>
          <Trackpoint>
            <Time>2018-08-26T05:42:47.000Z</Time>
            <Position>
              <LatitudeDegrees>42.836539931595325469970703125</LatitudeDegrees>
              <LongitudeDegrees>-1.63473791442811489105224609375</LongitudeDegrees>
            </Position>
            <AltitudeMeters>430</AltitudeMeters>
            <DistanceMeters>2690.6071974002</DistanceMeters>
          </Trackpoint>
          <Trackpoint>
            <Time>2018-08-26T05:42:48.000Z</Time>
            <Position>
              <LatitudeDegrees>42.836538590490818023681640625</LatitudeDegrees>
              <LongitudeDegrees>-1.63484402932226657867431640625</LongitudeDegrees>
            </Position>
            <AltitudeMeters>430</AltitudeMeters>
            <DistanceMeters>2699.2697567939</DistanceMeters>
          </Trackpoint>
          <Trackpoint>
            <Time>2018-08-26T05:42:49.000Z</Time>
            <Position>
              <LatitudeDegrees>42.83654202707111835479736328125</LatitudeDegrees>
              <LongitudeDegrees>-1.634949557483196258544921875</LongitudeDegrees>
            </Position>
            <AltitudeMeters>429.79998779296875</AltitudeMeters>
            <DistanceMeters>2707.8915657275</DistanceMeters>
          </Trackpoint>
          <Trackpoint>
            <Time>2018-08-26T05:42:50.000Z</Time>
            <Position>
              <LatitudeDegrees>42.83655325882136821746826171875</LatitudeDegrees>
              <LongitudeDegrees>-1.6350550018250942230224609375</LongitudeDegrees>
            </Position>
            <AltitudeMeters>429.79998779296875</AltitudeMeters>
            <DistanceMeters>2716.5874187703</DistanceMeters>
          </Trackpoint>
          <Trackpoint>
            <Time>2018-08-26T05:42:51.000Z</Time>
            <Position>
              <LatitudeDegrees>42.836576811969280242919921875</LatitudeDegrees>
              <LongitudeDegrees>-1.63515709340572357177734375</LongitudeDegrees>
            </Position>
            <AltitudeMeters>429.600006103515625</AltitudeMeters>
            <DistanceMeters>2725.3226432065</DistanceMeters>
          </Trackpoint>
          <Trackpoint>
            <Time>2018-08-26T05:42:52.000Z</Time>
            <Position>
              <LatitudeDegrees>42.83661360852420330047607421875</LatitudeDegrees>
              <LongitudeDegrees>-1.63525122217833995819091796875</LongitudeDegrees>
            </Position>
            <AltitudeMeters>429.600006103515625</AltitudeMeters>
            <DistanceMeters>2734.0288744044</DistanceMeters>
          </Trackpoint>
          <Trackpoint>
            <Time>2018-08-26T05:42:53.000Z</Time>
            <Position>
              <LatitudeDegrees>42.83665769733488559722900390625</LatitudeDegrees>
              <LongitudeDegrees>-1.63533839397132396697998046875</LongitudeDegrees>
            </Position>
            <AltitudeMeters>429.600006103515625</AltitudeMeters>
            <DistanceMeters>2742.6716050113</DistanceMeters>
          </Trackpoint>
          <Trackpoint>
            <Time>2018-08-26T05:42:54.000Z</Time>
            <Position>
              <LatitudeDegrees>42.83670027740299701690673828125</LatitudeDegrees>
              <LongitudeDegrees>-1.6354261524975299835205078125</LongitudeDegrees>
            </Position>
            <AltitudeMeters>429.399993896484375</AltitudeMeters>
            <DistanceMeters>2751.2598332567</DistanceMeters>
          </Trackpoint>
          <Trackpoint>
            <Time>2018-08-26T05:42:55.000Z</Time>
            <Position>
              <LatitudeDegrees>42.83673279918730258941650390625</LatitudeDegrees>
              <LongitudeDegrees>-1.63551977835595607757568359375</LongitudeDegrees>
            </Position>
            <AltitudeMeters>429.399993896484375</AltitudeMeters>
            <DistanceMeters>2759.7156091101</DistanceMeters>
          </Trackpoint>
          <Trackpoint>
            <Time>2018-08-26T05:42:56.000Z</Time>
            <Position>
              <LatitudeDegrees>42.83674947917461395263671875</LatitudeDegrees>
              <LongitudeDegrees>-1.635619439184665679931640625</LongitudeDegrees>
            </Position>
            <AltitudeMeters>429.399993896484375</AltitudeMeters>
            <DistanceMeters>2768.0595823473</DistanceMeters>
          </Trackpoint>
          <Trackpoint>
            <Time>2018-08-26T05:42:57.000Z</Time>
            <Position>
              <LatitudeDegrees>42.83674788661301136016845703125</LatitudeDegrees>
              <LongitudeDegrees>-1.635722033679485321044921875</LongitudeDegrees>
            </Position>
            <AltitudeMeters>429.20001220703125</AltitudeMeters>
            <DistanceMeters>2776.4354204482</DistanceMeters>
          </Trackpoint>
          <Trackpoint>
            <Time>2018-08-26T05:42:58.000Z</Time>
            <Position>
              <LatitudeDegrees>42.836727686226367950439453125</LatitudeDegrees>
              <LongitudeDegrees>-1.63582135923206806182861328125</LongitudeDegrees>
            </Position>
            <AltitudeMeters>429</AltitudeMeters>
            <DistanceMeters>2784.8483711296</DistanceMeters>
          </Trackpoint>
          <Trackpoint>
            <Time>2018-08-26T05:42:59.000Z</Time>
            <Position>
              <LatitudeDegrees>42.83669139258563518524169921875</LatitudeDegrees>
              <LongitudeDegrees>-1.63591272197663784027099609375</LongitudeDegrees>
            </Position>
            <AltitudeMeters>428.79998779296875</AltitudeMeters>
            <DistanceMeters>2793.3286735299</DistanceMeters>
          </Trackpoint>
          <Trackpoint>
            <Time>2018-08-26T05:43:00.000Z</Time>
            <Position>
              <LatitudeDegrees>42.83664328046143054962158203125</LatitudeDegrees>
              <LongitudeDegrees>-1.63599603809416294097900390625</LongitudeDegrees>
            </Position>
            <AltitudeMeters>428.79998779296875</AltitudeMeters>
            <DistanceMeters>2801.9839328662</DistanceMeters>
          </Trackpoint>
          <Trackpoint>
            <Time>2018-08-26T05:43:01.000Z</Time>
            <Position>
              <LatitudeDegrees>42.83659181557595729827880859375</LatitudeDegrees>
              <LongitudeDegrees>-1.6360779292881488800048828125</LongitudeDegrees>
            </Position>
            <AltitudeMeters>428.600006103515625</AltitudeMeters>
            <DistanceMeters>2810.786094867</DistanceMeters>
          </Trackpoint>
          <Trackpoint>
            <Time>2018-08-26T05:43:02.000Z</Time>
            <Position>
              <LatitudeDegrees>42.83654722385108470916748046875</LatitudeDegrees>
              <LongitudeDegrees>-1.636167280375957489013671875</LongitudeDegrees>
            </Position>
            <AltitudeMeters>428.600006103515625</AltitudeMeters>
            <DistanceMeters>2819.6077273007</DistanceMeters>
          </Trackpoint>
          <Trackpoint>
            <Time>2018-08-26T05:43:03.000Z</Time>
            <Position>
              <LatitudeDegrees>42.83651637844741344451904296875</LatitudeDegrees>
              <LongitudeDegrees>-1.63626828230917453765869140625</LongitudeDegrees>
            </Position>
            <AltitudeMeters>428.600006103515625</AltitudeMeters>
            <DistanceMeters>2828.5372051689</DistanceMeters>
          </Trackpoint>
          <Trackpoint>
            <Time>2018-08-26T05:43:04.000Z</Time>
            <Position>
              <LatitudeDegrees>42.83649994991719722747802734375</LatitudeDegrees>
              <LongitudeDegrees>-1.63637724705040454864501953125</LongitudeDegrees>
            </Position>
            <AltitudeMeters>428.600006103515625</AltitudeMeters>
            <DistanceMeters>2837.6171059357</DistanceMeters>
          </Trackpoint>
          <Trackpoint>
            <Time>2018-08-26T05:43:05.000Z</Time>
            <Position>
              <LatitudeDegrees>42.83649441786110401153564453125</LatitudeDegrees>
              <LongitudeDegrees>-1.63649015128612518310546875</LongitudeDegrees>
            </Position>
            <AltitudeMeters>428.399993896484375</AltitudeMeters>
            <DistanceMeters>2846.8528030988</DistanceMeters>
          </Trackpoint>
          <Trackpoint>
            <Time>2018-08-26T05:43:06.000Z</Time>
            <Position>
              <LatitudeDegrees>42.83649508841335773468017578125</LatitudeDegrees>
              <LongitudeDegrees>-1.63660372607409954071044921875</LongitudeDegrees>
            </Position>
            <AltitudeMeters>428.399993896484375</AltitudeMeters>
            <DistanceMeters>2856.1226578679</DistanceMeters>
          </Trackpoint>
          <Trackpoint>
            <Time>2018-08-26T05:43:07.000Z</Time>
            <Position>
              <LatitudeDegrees>42.8364980220794677734375</LatitudeDegrees>
              <LongitudeDegrees>-1.636716462671756744384765625</LongitudeDegrees>
            </Position>
            <AltitudeMeters>428.399993896484375</AltitudeMeters>
            <DistanceMeters>2865.3299570189</DistanceMeters>
          </Trackpoint>
          <Trackpoint>
            <Time>2018-08-26T05:43:08.000Z</Time>
            <Position>
              <LatitudeDegrees>42.83650179393589496612548828125</LatitudeDegrees>
              <LongitudeDegrees>-1.63682869635522365570068359375</LongitudeDegrees>
            </Position>
            <AltitudeMeters>428.399993896484375</AltitudeMeters>
            <DistanceMeters>2874.499419477</DistanceMeters>
          </Trackpoint>
          <Trackpoint>
            <Time>2018-08-26T05:43:09.000Z</Time>
            <Position>
              <LatitudeDegrees>42.8365055657923221588134765625</LatitudeDegrees>
              <LongitudeDegrees>-1.63694076240062713623046875</LongitudeDegrees>
            </Position>
            <AltitudeMeters>428.20001220703125</AltitudeMeters>
            <DistanceMeters>2883.655577498</DistanceMeters>
          </Trackpoint>
          <Trackpoint>
            <Time>2018-08-26T05:43:10.000Z</Time>
            <Position>
              <LatitudeDegrees>42.83650933764874935150146484375</LatitudeDegrees>
              <LongitudeDegrees>-1.6370522417128086090087890625</LongitudeDegrees>
            </Position>
            <AltitudeMeters>428.20001220703125</AltitudeMeters>
            <DistanceMeters>2892.7642734731</DistanceMeters>
          </Trackpoint>
          <Trackpoint>
            <Time>2018-08-26T05:43:11.000Z</Time>
            <Position>
              <LatitudeDegrees>42.83651302568614482879638671875</LatitudeDegrees>
              <LongitudeDegrees>-1.63716330192983150482177734375</LongitudeDegrees>
            </Position>
            <AltitudeMeters>428</AltitudeMeters>
            <DistanceMeters>2901.8377076047</DistanceMeters>
          </Trackpoint>
          <Trackpoint>
            <Time>2018-08-26T05:43:12.000Z</Time>
            <Position>
              <LatitudeDegrees>42.8365173004567623138427734375</LatitudeDegrees>
              <LongitudeDegrees>-1.6372735239565372467041015625</LongitudeDegrees>
            </Position>
            <AltitudeMeters>427.79998779296875</AltitudeMeters>
            <DistanceMeters>2910.8462200791</DistanceMeters>
          </Trackpoint>
          <Trackpoint>
            <Time>2018-08-26T05:43:13.000Z</Time>
            <Position>
              <LatitudeDegrees>42.83652241341769695281982421875</LatitudeDegrees>
              <LongitudeDegrees>-1.6373828239738941192626953125</LongitudeDegrees>
            </Position>
            <AltitudeMeters>427.600006103515625</AltitudeMeters>
            <DistanceMeters>2919.7858048865</DistanceMeters>
          </Trackpoint>
          <Trackpoint>
            <Time>2018-08-26T05:43:14.000Z</Time>
            <Position>
              <LatitudeDegrees>42.83652761019766330718994140625</LatitudeDegrees>
              <LongitudeDegrees>-1.63749195635318756103515625</LongitudeDegrees>
            </Position>
            <AltitudeMeters>427.399993896484375</AltitudeMeters>
            <DistanceMeters>2928.7122484415</DistanceMeters>
          </Trackpoint>
          <Trackpoint>
            <Time>2018-08-26T05:43:15.000Z</Time>
            <Position>
              <LatitudeDegrees>42.83653330989181995391845703125</LatitudeDegrees>
              <LongitudeDegrees>-1.63760033436119556427001953125</LongitudeDegrees>
            </Position>
            <AltitudeMeters>427.20001220703125</AltitudeMeters>
            <DistanceMeters>2937.5808427962</DistanceMeters>
          </Trackpoint>
          <Trackpoint>
            <Time>2018-08-26T05:43:16.000Z</Time>
            <Position>
              <LatitudeDegrees>42.83653951250016689300537109375</LatitudeDegrees>
              <LongitudeDegrees>-1.63770795799791812896728515625</LongitudeDegrees>
            </Position>
            <AltitudeMeters>427.20001220703125</AltitudeMeters>
            <DistanceMeters>2946.3922329967</DistanceMeters>
          </Trackpoint>
          <Trackpoint>
            <Time>2018-08-26T05:43:17.000Z</Time>
            <Position>
              <LatitudeDegrees>42.83654621802270412445068359375</LatitudeDegrees>
              <LongitudeDegrees>-1.63781474344432353973388671875</LongitudeDegrees>
            </Position>
            <AltitudeMeters>427.20001220703125</AltitudeMeters>
            <DistanceMeters>2955.1398536895</DistanceMeters>
          </Trackpoint>
          <Trackpoint>
            <Time>2018-08-26T05:43:18.000Z</Time>
            <Position>
              <LatitudeDegrees>42.83655275590717792510986328125</LatitudeDegrees>
              <LongitudeDegrees>-1.637920774519443511962890625</LongitudeDegrees>
            </Position>
            <AltitudeMeters>427.20001220703125</AltitudeMeters>
            <DistanceMeters>2963.8242764372</DistanceMeters>
          </Trackpoint>
          <Trackpoint>
            <Time>2018-08-26T05:43:19.000Z</Time>
            <Position>
              <LatitudeDegrees>42.83655979670584201812744140625</LatitudeDegrees>
              <LongitudeDegrees>-1.63802647031843662261962890625</LongitudeDegrees>
            </Position>
            <AltitudeMeters>427.20001220703125</AltitudeMeters>
            <DistanceMeters>2972.4868358309</DistanceMeters>
          </Trackpoint>
          <Trackpoint>
            <Time>2018-08-26T05:43:20.000Z</Time>
            <Position>
              <LatitudeDegrees>42.83656717278063297271728515625</LatitudeDegrees>
              <LongitudeDegrees>-1.6381311602890491485595703125</LongitudeDegrees>
            </Position>
            <AltitudeMeters>427.20001220703125</AltitudeMeters>
            <DistanceMeters>2981.0708572534</DistanceMeters>
          </Trackpoint>
          <Trackpoint>
            <Time>2018-08-26T05:43:21.000Z</Time>
            <Position>
              <LatitudeDegrees>42.8365749679505825042724609375</LatitudeDegrees>
              <LongitudeDegrees>-1.63823492825031280517578125</LongitudeDegrees>
            </Position>
            <AltitudeMeters>427.20001220703125</AltitudeMeters>
            <DistanceMeters>2989.5841053726</DistanceMeters>
          </Trackpoint>
          <Trackpoint>
            <Time>2018-08-26T05:43:22.000Z</Time>
            <Position>
              <LatitudeDegrees>42.8365833498537540435791015625</LatitudeDegrees>
              <LongitudeDegrees>-1.638337858021259307861328125</LongitudeDegrees>
            </Position>
            <AltitudeMeters>427.20001220703125</AltitudeMeters>
            <DistanceMeters>2998.0361426861</DistanceMeters>
          </Trackpoint>
          <Trackpoint>
            <Time>2018-08-26T05:43:23.000Z</Time>
            <Position>
              <LatitudeDegrees>42.83659198321402072906494140625</LatitudeDegrees>
              <LongitudeDegrees>-1.63843969814479351043701171875</LongitudeDegrees>
            </Position>
            <AltitudeMeters>427.20001220703125</AltitudeMeters>
            <DistanceMeters>3006.4038910538</DistanceMeters>
          </Trackpoint>
          <Trackpoint>
            <Time>2018-08-26T05:43:24.000Z</Time>
            <Position>
              <LatitudeDegrees>42.83660002984106540679931640625</LatitudeDegrees>
              <LongitudeDegrees>-1.63854070007801055908203125</LongitudeDegrees>
            </Position>
            <AltitudeMeters>427.20001220703125</AltitudeMeters>
            <DistanceMeters>3014.6957546589</DistanceMeters>
          </Trackpoint>
          <Trackpoint>
            <Time>2018-08-26T05:43:25.000Z</Time>
            <Position>
              <LatitudeDegrees>42.83660924993455410003662109375</LatitudeDegrees>
              <LongitudeDegrees>-1.63864254020154476165771484375</LongitudeDegrees>
            </Position>
            <AltitudeMeters>427</AltitudeMeters>
            <DistanceMeters>3023.0705145802</DistanceMeters>
          </Trackpoint>
          <Trackpoint>
            <Time>2018-08-26T05:43:26.000Z</Time>
            <Position>
              <LatitudeDegrees>42.83661880530416965484619140625</LatitudeDegrees>
              <LongitudeDegrees>-1.638743542134761810302734375</LongitudeDegrees>
            </Position>
            <AltitudeMeters>427.20001220703125</AltitudeMeters>
            <DistanceMeters>3031.3819575835</DistanceMeters>
          </Trackpoint>
          <Trackpoint>
            <Time>2018-08-26T05:43:27.000Z</Time>
            <Position>
              <LatitudeDegrees>42.83662903122603893280029296875</LatitudeDegrees>
              <LongitudeDegrees>-1.6388452984392642974853515625</LongitudeDegrees>
            </Position>
            <AltitudeMeters>427.399993896484375</AltitudeMeters>
            <DistanceMeters>3039.7642618496</DistanceMeters>
          </Trackpoint>
          <Trackpoint>
            <Time>2018-08-26T05:43:28.000Z</Time>
            <Position>
              <LatitudeDegrees>42.83663950860500335693359375</LatitudeDegrees>
              <LongitudeDegrees>-1.63894713856279850006103515625</LongitudeDegrees>
            </Position>
            <AltitudeMeters>427.20001220703125</AltitudeMeters>
            <DistanceMeters>3048.1578699186</DistanceMeters>
          </Trackpoint>
          <Trackpoint>
            <Time>2018-08-26T05:43:29.000Z</Time>
            <Position>
              <LatitudeDegrees>42.836649902164936065673828125</LatitudeDegrees>
              <LongitudeDegrees>-1.63904839195311069488525390625</LongitudeDegrees>
            </Position>
            <AltitudeMeters>427.399993896484375</AltitudeMeters>
            <DistanceMeters>3056.502925313</DistanceMeters>
          </Trackpoint>
          <Trackpoint>
            <Time>2018-08-26T05:43:30.000Z</Time>
            <Position>
              <LatitudeDegrees>42.83666096627712249755859375</LatitudeDegrees>
              <LongitudeDegrees>-1.63914956152439117431640625</LongitudeDegrees>
            </Position>
            <AltitudeMeters>427.399993896484375</AltitudeMeters>
            <DistanceMeters>3064.8517671531</DistanceMeters>
          </Trackpoint>
          <Trackpoint>
            <Time>2018-08-26T05:43:31.000Z</Time>
            <Position>
              <LatitudeDegrees>42.836672365665435791015625</LatitudeDegrees>
              <LongitudeDegrees>-1.63925156928598880767822265625</LongitudeDegrees>
            </Position>
            <AltitudeMeters>427.600006103515625</AltitudeMeters>
            <DistanceMeters>3073.2733002909</DistanceMeters>
          </Trackpoint>
          <Trackpoint>
            <Time>2018-08-26T05:43:32.000Z</Time>
            <Position>
              <LatitudeDegrees>42.8366839326918125152587890625</LatitudeDegrees>
              <LongitudeDegrees>-1.6393532417714595794677734375</LongitudeDegrees>
            </Position>
            <AltitudeMeters>427.79998779296875</AltitudeMeters>
            <DistanceMeters>3081.6701352228</DistanceMeters>
          </Trackpoint>
          <Trackpoint>
            <Time>2018-08-26T05:43:33.000Z</Time>
            <Position>
              <LatitudeDegrees>42.83669583499431610107421875</LatitudeDegrees>
              <LongitudeDegrees>-1.6394548304378986358642578125</LongitudeDegrees>
            </Position>
            <AltitudeMeters>428</AltitudeMeters>
            <DistanceMeters>3090.0664324304</DistanceMeters>
          </Trackpoint>
          <Trackpoint>
            <Time>2018-08-26T05:43:34.000Z</Time>
            <Position>
              <LatitudeDegrees>42.83670748583972454071044921875</LatitudeDegrees>
              <LongitudeDegrees>-1.63955591619014739990234375</LongitudeDegrees>
            </Position>
            <AltitudeMeters>428</AltitudeMeters>
            <DistanceMeters>3098.4179778235</DistanceMeters>
          </Trackpoint>
          <Trackpoint>
            <Time>2018-08-26T05:43:35.000Z</Time>
            <Position>
              <LatitudeDegrees>42.83671938814222812652587890625</LatitudeDegrees>
              <LongitudeDegrees>-1.63965658284723758697509765625</LongitudeDegrees>
            </Position>
            <AltitudeMeters>428.20001220703125</AltitudeMeters>
            <DistanceMeters>3106.7402783664</DistanceMeters>
          </Trackpoint>
          <Trackpoint>
            <Time>2018-08-26T05:43:36.000Z</Time>
            <Position>
              <LatitudeDegrees>42.83673112280666828155517578125</LatitudeDegrees>
              <LongitudeDegrees>-1.639757417142391204833984375</LongitudeDegrees>
            </Position>
            <AltitudeMeters>428.20001220703125</AltitudeMeters>
            <DistanceMeters>3115.0734223021</DistanceMeters>
          </Trackpoint>
          <Trackpoint>
            <Time>2018-08-26T05:43:37.000Z</Time>
            <Position>
              <LatitudeDegrees>42.836742438375949859619140625</LatitudeDegrees>
              <LongitudeDegrees>-1.63985766470432281494140625</LongitudeDegrees>
            </Position>
            <AltitudeMeters>428.20001220703125</AltitudeMeters>
            <DistanceMeters>3123.3516618573</DistanceMeters>
          </Trackpoint>
          <Trackpoint>
            <Time>2018-08-26T05:43:38.000Z</Time>
            <Position>
              <LatitudeDegrees>42.836753837764263153076171875</LatitudeDegrees>
              <LongitudeDegrees>-1.63995782844722270965576171875</LongitudeDegrees>
            </Position>
            <AltitudeMeters>428.20001220703125</AltitudeMeters>
            <DistanceMeters>3131.6244455103</DistanceMeters>
          </Trackpoint>
          <Trackpoint>
            <Time>2018-08-26T05:43:39.000Z</Time>
            <Position>
              <LatitudeDegrees>42.83676615916192531585693359375</LatitudeDegrees>
              <LongitudeDegrees>-1.64005824364721775054931640625</LongitudeDegrees>
            </Position>
            <AltitudeMeters>428.399993896484375</AltitudeMeters>
            <DistanceMeters>3139.934258659</DistanceMeters>
          </Trackpoint>
          <Trackpoint>
            <Time>2018-08-26T05:43:40.000Z</Time>
            <Position>
              <LatitudeDegrees>42.83677839674055576324462890625</LatitudeDegrees>
              <LongitudeDegrees>-1.6401575691998004913330078125</LongitudeDegrees>
            </Position>
            <AltitudeMeters>428.399993896484375</AltitudeMeters>
            <DistanceMeters>3148.1544814072</DistanceMeters>
          </Trackpoint>
          <Trackpoint>
            <Time>2018-08-26T05:43:41.000Z</Time>
            <Position>
              <LatitudeDegrees>42.8367895446717739105224609375</LatitudeDegrees>
              <LongitudeDegrees>-1.64025689475238323211669921875</LongitudeDegrees>
            </Position>
            <AltitudeMeters>428.399993896484375</AltitudeMeters>
            <DistanceMeters>3156.3554575293</DistanceMeters>
          </Trackpoint>
          <Trackpoint>
            <Time>2018-08-26T05:43:42.000Z</Time>
            <Position>
              <LatitudeDegrees>42.8367997705936431884765625</LatitudeDegrees>
              <LongitudeDegrees>-1.64035630412399768829345703125</LongitudeDegrees>
            </Position>
            <AltitudeMeters>428.399993896484375</AltitudeMeters>
            <DistanceMeters>3164.548171256</DistanceMeters>
          </Trackpoint>
          <Trackpoint>
            <Time>2018-08-26T05:43:43.000Z</Time>
            <Position>
              <LatitudeDegrees>42.83681008033454418182373046875</LatitudeDegrees>
              <LongitudeDegrees>-1.640455462038516998291015625</LongitudeDegrees>
            </Position>
            <AltitudeMeters>428.399993896484375</AltitudeMeters>
            <DistanceMeters>3172.7215735789</DistanceMeters>
          </Trackpoint>
          <Trackpoint>
            <Time>2018-08-26T05:43:44.000Z</Time>
            <Position>
              <LatitudeDegrees>42.8368203900754451751708984375</LatitudeDegrees>
              <LongitudeDegrees>-1.64055394940078258514404296875</LongitudeDegrees>
            </Position>
            <AltitudeMeters>428.600006103515625</AltitudeMeters>
            <DistanceMeters>3180.8406596137</DistanceMeters>
          </Trackpoint>
          <Trackpoint>
            <Time>2018-08-26T05:43:45.000Z</Time>
            <Position>
              <LatitudeDegrees>42.83682994544506072998046875</LatitudeDegrees>
              <LongitudeDegrees>-1.64065268822014331817626953125</LongitudeDegrees>
            </Position>
            <AltitudeMeters>428.600006103515625</AltitudeMeters>
            <DistanceMeters>3188.9691938814</DistanceMeters>
          </Trackpoint>
          <Trackpoint>
            <Time>2018-08-26T05:43:46.000Z</Time>
            <Position>
              <LatitudeDegrees>42.836838327348232269287109375</LatitudeDegrees>
              <LongitudeDegrees>-1.64075159467756748199462890625</LongitudeDegrees>
            </Position>
            <AltitudeMeters>428.79998779296875</AltitudeMeters>
            <DistanceMeters>3197.0949503974</DistanceMeters>
          </Trackpoint>
          <Trackpoint>
            <Time>2018-08-26T05:43:47.000Z</Time>
            <Position>
              <LatitudeDegrees>42.836846373975276947021484375</LatitudeDegrees>
              <LongitudeDegrees>-1.64085016585886478424072265625</LongitudeDegrees>
            </Position>
            <AltitudeMeters>428.79998779296875</AltitudeMeters>
            <DistanceMeters>3205.189530972</DistanceMeters>
          </Trackpoint>
          <Trackpoint>
            <Time>2018-08-26T05:43:48.000Z</Time>
            <Position>
              <LatitudeDegrees>42.83685366623103618621826171875</LatitudeDegrees>
              <LongitudeDegrees>-1.64094840176403522491455078125</LongitudeDegrees>
            </Position>
            <AltitudeMeters>428.79998779296875</AltitudeMeters>
            <DistanceMeters>3213.2483342196</DistanceMeters>
          </Trackpoint>
          <Trackpoint>
            <Time>2018-08-26T05:43:49.000Z</Time>
            <Position>
              <LatitudeDegrees>42.83685970120131969451904296875</LatitudeDegrees>
              <LongitudeDegrees>-1.6410465538501739501953125</LongitudeDegrees>
            </Position>
            <AltitudeMeters>428.79998779296875</AltitudeMeters>
            <DistanceMeters>3221.2869427456</DistanceMeters>
          </Trackpoint>
          <Trackpoint>
            <Time>2018-08-26T05:43:50.000Z</Time>
            <Position>
              <LatitudeDegrees>42.83686389215290546417236328125</LatitudeDegrees>
              <LongitudeDegrees>-1.64114403538405895233154296875</LongitudeDegrees>
            </Position>
            <AltitudeMeters>428.79998779296875</AltitudeMeters>
            <DistanceMeters>3229.2567330632</DistanceMeters>
          </Trackpoint>
          <Trackpoint>
            <Time>2018-08-26T05:43:51.000Z</Time>
            <Position>
              <LatitudeDegrees>42.83686791546642780303955078125</LatitudeDegrees>
              <LongitudeDegrees>-1.6412421874701976776123046875</LongitudeDegrees>
            </Position>
            <AltitudeMeters>428.79998779296875</AltitudeMeters>
            <DistanceMeters>3237.2795994395</DistanceMeters>
          </Trackpoint>
          <Trackpoint>
            <Time>2018-08-26T05:43:52.000Z</Time>
            <Position>
              <LatitudeDegrees>42.83687227405607700347900390625</LatitudeDegrees>
              <LongitudeDegrees>-1.64134050719439983367919921875</LongitudeDegrees>
            </Position>
            <AltitudeMeters>428.79998779296875</AltitudeMeters>
            <DistanceMeters>3245.3193312252</DistanceMeters>
          </Trackpoint>
          <Trackpoint>
            <Time>2018-08-26T05:43:53.000Z</Time>
            <Position>
              <LatitudeDegrees>42.83687596209347248077392578125</LatitudeDegrees>
              <LongitudeDegrees>-1.64143924601376056671142578125</LongitudeDegrees>
            </Position>
            <AltitudeMeters>428.79998779296875</AltitudeMeters>
            <DistanceMeters>3253.3882128801</DistanceMeters>
          </Trackpoint>
          <Trackpoint>
            <Time>2018-08-26T05:43:54.000Z</Time>
            <Position>
              <LatitudeDegrees>42.83687914721667766571044921875</LatitudeDegrees>
              <LongitudeDegrees>-1.64153832010924816131591796875</LongitudeDegrees>
            </Position>
            <AltitudeMeters>428.79998779296875</AltitudeMeters>
            <DistanceMeters>3261.4816778071</DistanceMeters>
          </Trackpoint>
          <Trackpoint>
            <Time>2018-08-26T05:43:55.000Z</Time>
            <Position>
              <LatitudeDegrees>42.836881242692470550537109375</LatitudeDegrees>
              <LongitudeDegrees>-1.64163865149021148681640625</LongitudeDegrees>
            </Position>
            <AltitudeMeters>429</AltitudeMeters>
            <DistanceMeters>3269.6738404112</DistanceMeters>
          </Trackpoint>
          <Trackpoint>
            <Time>2018-08-26T05:43:56.000Z</Time>
            <Position>
              <LatitudeDegrees>42.83688099123537540435791015625</LatitudeDegrees>
              <LongitudeDegrees>-1.64173881523311138153076171875</LongitudeDegrees>
            </Position>
            <AltitudeMeters>429</AltitudeMeters>
            <DistanceMeters>3277.8488997848</DistanceMeters>
          </Trackpoint>
          <Trackpoint>
            <Time>2018-08-26T05:43:57.000Z</Time>
            <Position>
              <LatitudeDegrees>42.83687897957861423492431640625</LatitudeDegrees>
              <LongitudeDegrees>-1.64183973334729671478271484375</LongitudeDegrees>
            </Position>
            <AltitudeMeters>429.20001220703125</AltitudeMeters>
            <DistanceMeters>3286.0883242007</DistanceMeters>
          </Trackpoint>
          <Trackpoint>
            <Time>2018-08-26T05:43:58.000Z</Time>
            <Position>
              <LatitudeDegrees>42.83687663264572620391845703125</LatitudeDegrees>
              <LongitudeDegrees>-1.641941070556640625</LongitudeDegrees>
            </Position>
            <AltitudeMeters>429.20001220703125</AltitudeMeters>
            <DistanceMeters>3294.362745002</DistanceMeters>
          </Trackpoint>
          <Trackpoint>
            <Time>2018-08-26T05:43:59.000Z</Time>
            <Position>
              <LatitudeDegrees>42.8368730284273624420166015625</LatitudeDegrees>
              <LongitudeDegrees>-1.64204232394695281982421875</LongitudeDegrees>
            </Position>
            <AltitudeMeters>429.20001220703125</AltitudeMeters>
            <DistanceMeters>3302.6366201233</DistanceMeters>
          </Trackpoint>
          <Trackpoint>
            <Time>2018-08-26T05:44:00.000Z</Time>
            <Position>
              <LatitudeDegrees>42.83686791546642780303955078125</LatitudeDegrees>
              <LongitudeDegrees>-1.642143242061138153076171875</LongitudeDegrees>
            </Position>
            <AltitudeMeters>429.600006103515625</AltitudeMeters>
            <DistanceMeters>3310.8924675661</DistanceMeters>
          </Trackpoint>
          <Trackpoint>
            <Time>2018-08-26T05:44:01.000Z</Time>
            <Position>
              <LatitudeDegrees>42.8368622995913028717041015625</LatitudeDegrees>
              <LongitudeDegrees>-1.64224407635629177093505859375</LongitudeDegrees>
            </Position>
            <AltitudeMeters>429.79998779296875</AltitudeMeters>
            <DistanceMeters>3319.1461271601</DistanceMeters>
          </Trackpoint>
          <Trackpoint>
            <Time>2018-08-26T05:44:02.000Z</Time>
            <Position>
              <LatitudeDegrees>42.83685483969748020172119140625</LatitudeDegrees>
              <LongitudeDegrees>-1.6423445753753185272216796875</LongitudeDegrees>
            </Position>
            <AltitudeMeters>429.79998779296875</AltitudeMeters>
            <DistanceMeters>3327.3910295531</DistanceMeters>
          </Trackpoint>
          <Trackpoint>
            <Time>2018-08-26T05:44:03.000Z</Time>
            <Position>
              <LatitudeDegrees>42.8368458710610866546630859375</LatitudeDegrees>
              <LongitudeDegrees>-1.64244490675628185272216796875</LongitudeDegrees>
            </Position>
            <AltitudeMeters>430</AltitudeMeters>
            <DistanceMeters>3335.6408590154</DistanceMeters>
          </Trackpoint>
          <Trackpoint>
            <Time>2018-08-26T05:44:04.000Z</Time>
            <Position>
              <LatitudeDegrees>42.83683472312986850738525390625</LatitudeDegrees>
              <LongitudeDegrees>-1.64254481904208660125732421875</LongitudeDegrees>
            </Position>
            <AltitudeMeters>430.20001220703125</AltitudeMeters>
            <DistanceMeters>3343.890141171</DistanceMeters>
          </Trackpoint>
          <Trackpoint>
            <Time>2018-08-26T05:44:05.000Z</Time>
            <Position>
              <LatitudeDegrees>42.836822234094142913818359375</LatitudeDegrees>
              <LongitudeDegrees>-1.64264439605176448822021484375</LongitudeDegrees>
            </Position>
            <AltitudeMeters>430.20001220703125</AltitudeMeters>
            <DistanceMeters>3352.1361387227</DistanceMeters>
          </Trackpoint>
          <Trackpoint>
            <Time>2018-08-26T05:44:06.000Z</Time>
            <Position>
              <LatitudeDegrees>42.83680890686810016632080078125</LatitudeDegrees>
              <LongitudeDegrees>-1.642743386328220367431640625</LongitudeDegrees>
            </Position>
            <AltitudeMeters>430.399993896484375</AltitudeMeters>
            <DistanceMeters>3360.3514166451</DistanceMeters>
          </Trackpoint>
          <Trackpoint>
            <Time>2018-08-26T05:44:07.000Z</Time>
            <Position>
              <LatitudeDegrees>42.83679499290883541107177734375</LatitudeDegrees>
              <LongitudeDegrees>-1.6428427956998348236083984375</LongitudeDegrees>
            </Position>
            <AltitudeMeters>430.399993896484375</AltitudeMeters>
            <DistanceMeters>3368.6116380471</DistanceMeters>
          </Trackpoint>
          <Trackpoint>
            <Time>2018-08-26T05:44:08.000Z</Time>
            <Position>
              <LatitudeDegrees>42.83678040839731693267822265625</LatitudeDegrees>
              <LongitudeDegrees>-1.64294262416660785675048828125</LongitudeDegrees>
            </Position>
            <AltitudeMeters>430.399993896484375</AltitudeMeters>
            <DistanceMeters>3376.9198210216</DistanceMeters>
          </Trackpoint>
          <Trackpoint>
            <Time>2018-08-26T05:44:09.000Z</Time>
            <Position>
              <LatitudeDegrees>42.83676481805741786956787109375</LatitudeDegrees>
              <LongitudeDegrees>-1.6430422849953174591064453125</LongitudeDegrees>
            </Position>
            <AltitudeMeters>430.399993896484375</AltitudeMeters>
            <DistanceMeters>3385.2372374256</DistanceMeters>
          </Trackpoint>
          <Trackpoint>
            <Time>2018-08-26T05:44:10.000Z</Time>
            <Position>
              <LatitudeDegrees>42.83674788661301136016845703125</LatitudeDegrees>
              <LongitudeDegrees>-1.64314144290983676910400390625</LongitudeDegrees>
            </Position>
            <AltitudeMeters>430.600006103515625</AltitudeMeters>
            <DistanceMeters>3393.5465072184</DistanceMeters>
          </Trackpoint>
          <Trackpoint>
            <Time>2018-08-26T05:44:11.000Z</Time>
            <Position>
              <LatitudeDegrees>42.83673112280666828155517578125</LatitudeDegrees>
              <LongitudeDegrees>-1.6432404331862926483154296875</LongitudeDegrees>
            </Position>
            <AltitudeMeters>430.600006103515625</AltitudeMeters>
            <DistanceMeters>3401.8383708234</DistanceMeters>
          </Trackpoint>
          <Trackpoint>
            <Time>2018-08-26T05:44:12.000Z</Time>
            <Position>
              <LatitudeDegrees>42.83671268261969089508056640625</LatitudeDegrees>
              <LongitudeDegrees>-1.64333925582468509674072265625</LongitudeDegrees>
            </Position>
            <AltitudeMeters>430.600006103515625</AltitudeMeters>
            <DistanceMeters>3410.1606713663</DistanceMeters>
          </Trackpoint>
          <Trackpoint>
            <Time>2018-08-26T05:44:13.000Z</Time>
            <Position>
              <LatitudeDegrees>42.83669088967144489288330078125</LatitudeDegrees>
              <LongitudeDegrees>-1.64343698881566524505615234375</LongitudeDegrees>
            </Position>
            <AltitudeMeters>430.600006103515625</AltitudeMeters>
            <DistanceMeters>3418.4970655696</DistanceMeters>
          </Trackpoint>
          <Trackpoint>
            <Time>2018-08-26T05:44:14.000Z</Time>
            <Position>
              <LatitudeDegrees>42.8366685099899768829345703125</LatitudeDegrees>
              <LongitudeDegrees>-1.64353388361632823944091796875</LongitudeDegrees>
            </Position>
            <AltitudeMeters>430.600006103515625</AltitudeMeters>
            <DistanceMeters>3426.7878400745</DistanceMeters>
          </Trackpoint>
          <Trackpoint>
            <Time>2018-08-26T05:44:15.000Z</Time>
            <Position>
              <LatitudeDegrees>42.83664579503238201141357421875</LatitudeDegrees>
              <LongitudeDegrees>-1.6436306945979595184326171875</LongitudeDegrees>
            </Position>
            <AltitudeMeters>430.600006103515625</AltitudeMeters>
            <DistanceMeters>3435.0840586502</DistanceMeters>
          </Trackpoint>
          <Trackpoint>
            <Time>2018-08-26T05:44:16.000Z</Time>
            <Position>
              <LatitudeDegrees>42.83662232570350170135498046875</LatitudeDegrees>
              <LongitudeDegrees>-1.64372649975121021270751953125</LongitudeDegrees>
            </Position>
            <AltitudeMeters>430.600006103515625</AltitudeMeters>
            <DistanceMeters>3443.327865739</DistanceMeters>
          </Trackpoint>
          <Trackpoint>
            <Time>2018-08-26T05:44:17.000Z</Time>
            <Position>
              <LatitudeDegrees>42.83659734763205051422119140625</LatitudeDegrees>
              <LongitudeDegrees>-1.64382188580930233001708984375</LongitudeDegrees>
            </Position>
            <AltitudeMeters>430.600006103515625</AltitudeMeters>
            <DistanceMeters>3451.5946437406</DistanceMeters>
          </Trackpoint>
          <Trackpoint>
            <Time>2018-08-26T05:44:18.000Z</Time>
            <Position>
              <LatitudeDegrees>42.8365709446370601654052734375</LatitudeDegrees>
              <LongitudeDegrees>-1.64391693659126758575439453125</LongitudeDegrees>
            </Position>
            <AltitudeMeters>430.600006103515625</AltitudeMeters>
            <DistanceMeters>3459.8908623163</DistanceMeters>
          </Trackpoint>
          <Trackpoint>
            <Time>2018-08-26T05:44:19.000Z</Time>
            <Position>
              <LatitudeDegrees>42.8365434519946575164794921875</LatitudeDegrees>
              <LongitudeDegrees>-1.6440119035542011260986328125</LongitudeDegrees>
            </Position>
            <AltitudeMeters>430.600006103515625</AltitudeMeters>
            <DistanceMeters>3468.224006252</DistanceMeters>
          </Trackpoint>
          <Trackpoint>
            <Time>2018-08-26T05:44:20.000Z</Time>
            <Position>
              <LatitudeDegrees>42.83651453442871570587158203125</LatitudeDegrees>
              <LongitudeDegrees>-1.64410628378391265869140625</LongitudeDegrees>
            </Position>
            <AltitudeMeters>430.600006103515625</AltitudeMeters>
            <DistanceMeters>3476.5728480921</DistanceMeters>
          </Trackpoint>
          <Trackpoint>
            <Time>2018-08-26T05:44:21.000Z</Time>
            <Position>
              <LatitudeDegrees>42.83648503012955188751220703125</LatitudeDegrees>
              <LongitudeDegrees>-1.6442003287374973297119140625</LongitudeDegrees>
            </Position>
            <AltitudeMeters>430.600006103515625</AltitudeMeters>
            <DistanceMeters>3484.9211491166</DistanceMeters>
          </Trackpoint>
          <Trackpoint>
            <Time>2018-08-26T05:44:22.000Z</Time>
            <Position>
              <LatitudeDegrees>42.836454771459102630615234375</LatitudeDegrees>
              <LongitudeDegrees>-1.64429378695785999298095703125</LongitudeDegrees>
            </Position>
            <AltitudeMeters>430.600006103515625</AltitudeMeters>
            <DistanceMeters>3493.259709461</DistanceMeters>
          </Trackpoint>
          <Trackpoint>
            <Time>2018-08-26T05:44:23.000Z</Time>
            <Position>
              <LatitudeDegrees>42.83642501570284366607666015625</LatitudeDegrees>
              <LongitudeDegrees>-1.64438682608306407928466796875</LongitudeDegrees>
            </Position>
            <AltitudeMeters>430.600006103515625</AltitudeMeters>
            <DistanceMeters>3501.5439463585</DistanceMeters>
          </Trackpoint>
          <Trackpoint>
            <Time>2018-08-26T05:44:24.000Z</Time>
            <Position>
              <LatitudeDegrees>42.836396433413028717041015625</LatitudeDegrees>
              <LongitudeDegrees>-1.6444797813892364501953125</LongitudeDegrees>
            </Position>
            <AltitudeMeters>430.600006103515625</AltitudeMeters>
            <DistanceMeters>3509.7707575845</DistanceMeters>
          </Trackpoint>
          <Trackpoint>
            <Time>2018-08-26T05:44:25.000Z</Time>
            <Position>
              <LatitudeDegrees>42.8363691084086894989013671875</LatitudeDegrees>
              <LongitudeDegrees>-1.64457357488572597503662109375</LongitudeDegrees>
            </Position>
            <AltitudeMeters>430.399993896484375</AltitudeMeters>
            <DistanceMeters>3518.0079897895</DistanceMeters>
          </Trackpoint>
          <Trackpoint>
            <Time>2018-08-26T05:44:26.000Z</Time>
            <Position>
              <LatitudeDegrees>42.836345471441745758056640625</LatitudeDegrees>
              <LongitudeDegrees>-1.64466896094381809234619140625</LongitudeDegrees>
            </Position>
            <AltitudeMeters>430.399993896484375</AltitudeMeters>
            <DistanceMeters>3526.2260152047</DistanceMeters>
          </Trackpoint>
          <Trackpoint>
            <Time>2018-08-26T05:44:27.000Z</Time>
            <Position>
              <LatitudeDegrees>42.83632694743573665618896484375</LatitudeDegrees>
              <LongitudeDegrees>-1.644766442477703094482421875</LongitudeDegrees>
            </Position>
            <AltitudeMeters>430.399993896484375</AltitudeMeters>
            <DistanceMeters>3534.4451393598</DistanceMeters>
          </Trackpoint>
          <Trackpoint>
            <Time>2018-08-26T05:44:28.000Z</Time>
            <Position>
              <LatitudeDegrees>42.83631470985710620880126953125</LatitudeDegrees>
              <LongitudeDegrees>-1.64486492983996868133544921875</LongitudeDegrees>
            </Position>
            <AltitudeMeters>430.399993896484375</AltitudeMeters>
            <DistanceMeters>3542.5986308071</DistanceMeters>
          </Trackpoint>
          <Trackpoint>
            <Time>2018-08-26T05:44:29.000Z</Time>
            <Position>
              <LatitudeDegrees>42.8363084234297275543212890625</LatitudeDegrees>
              <LongitudeDegrees>-1.6449640877544879913330078125</LongitudeDegrees>
            </Position>
            <AltitudeMeters>430.399993896484375</AltitudeMeters>
            <DistanceMeters>3550.7216086216</DistanceMeters>
          </Trackpoint>
          <Trackpoint>
            <Time>2018-08-26T05:44:30.000Z</Time>
            <Position>
              <LatitudeDegrees>42.8363100998103618621826171875</LatitudeDegrees>
              <LongitudeDegrees>-1.64506240747869014739990234375</LongitudeDegrees>
            </Position>
            <AltitudeMeters>430.399993896484375</AltitudeMeters>
            <DistanceMeters>3558.7484134298</DistanceMeters>
          </Trackpoint>
          <Trackpoint>
            <Time>2018-08-26T05:44:31.000Z</Time>
            <Position>
              <LatitudeDegrees>42.83631856553256511688232421875</LatitudeDegrees>
              <LongitudeDegrees>-1.64515930227935314178466796875</LongitudeDegrees>
            </Position>
            <AltitudeMeters>430.20001220703125</AltitudeMeters>
            <DistanceMeters>3566.7125365417</DistanceMeters>
          </Trackpoint>
          <Trackpoint>
            <Time>2018-08-26T05:44:32.000Z</Time>
            <Position>
              <LatitudeDegrees>42.8363298811018466949462890625</LatitudeDegrees>
              <LongitudeDegrees>-1.6452547721564769744873046875</LongitudeDegrees>
            </Position>
            <AltitudeMeters>430.20001220703125</AltitudeMeters>
            <DistanceMeters>3574.6060482737</DistanceMeters>
          </Trackpoint>
          <Trackpoint>
            <Time>2018-08-26T05:44:33.000Z</Time>
            <Position>
              <LatitudeDegrees>42.836337424814701080322265625</LatitudeDegrees>
              <LongitudeDegrees>-1.64534973911941051483154296875</LongitudeDegrees>
            </Position>
            <AltitudeMeters>430.20001220703125</AltitudeMeters>
            <DistanceMeters>3582.4022938153</DistanceMeters>
          </Trackpoint>
          <Trackpoint>
            <Time>2018-08-26T05:44:34.000Z</Time>
            <Position>
              <LatitudeDegrees>42.83633432351052761077880859375</LatitudeDegrees>
              <LongitudeDegrees>-1.6454445384442806243896484375</LongitudeDegrees>
            </Position>
            <AltitudeMeters>430</AltitudeMeters>
            <DistanceMeters>3590.1479911947</DistanceMeters>
          </Trackpoint>
          <Trackpoint>
            <Time>2018-08-26T05:44:35.000Z</Time>
            <Position>
              <LatitudeDegrees>42.83631772734224796295166015625</LatitudeDegrees>
              <LongitudeDegrees>-1.64553699083626270294189453125</LongitudeDegrees>
            </Position>
            <AltitudeMeters>430</AltitudeMeters>
            <DistanceMeters>3597.9163887692</DistanceMeters>
          </Trackpoint>
          <Trackpoint>
            <Time>2018-08-26T05:44:36.000Z</Time>
            <Position>
              <LatitudeDegrees>42.8362873010337352752685546875</LatitudeDegrees>
              <LongitudeDegrees>-1.64562231861054897308349609375</LongitudeDegrees>
            </Position>
            <AltitudeMeters>430.399993896484375</AltitudeMeters>
            <DistanceMeters>3605.6603372236</DistanceMeters>
          </Trackpoint>
          <Trackpoint>
            <Time>2018-08-26T05:44:37.000Z</Time>
            <Position>
              <LatitudeDegrees>42.83624446950852870941162109375</LatitudeDegrees>
              <LongitudeDegrees>-1.64569792337715625762939453125</LongitudeDegrees>
            </Position>
            <AltitudeMeters>430.399993896484375</AltitudeMeters>
            <DistanceMeters>3613.458319961</DistanceMeters>
          </Trackpoint>
          <Trackpoint>
            <Time>2018-08-26T05:44:38.000Z</Time>
            <Position>
              <LatitudeDegrees>42.8361920826137065887451171875</LatitudeDegrees>
              <LongitudeDegrees>-1.6457647271454334259033203125</LongitudeDegrees>
            </Position>
            <AltitudeMeters>430.399993896484375</AltitudeMeters>
            <DistanceMeters>3621.4405639681</DistanceMeters>
          </Trackpoint>
          <Trackpoint>
            <Time>2018-08-26T05:44:39.000Z</Time>
            <Position>
              <LatitudeDegrees>42.83613248728215694427490234375</LatitudeDegrees>
              <LongitudeDegrees>-1.64582365192472934722900390625</LongitudeDegrees>
            </Position>
            <AltitudeMeters>430.399993896484375</AltitudeMeters>
            <DistanceMeters>3629.6338287804</DistanceMeters>
          </Trackpoint>
          <Trackpoint>
            <Time>2018-08-26T05:44:40.000Z</Time>
            <Position>
              <LatitudeDegrees>42.83607129938900470733642578125</LatitudeDegrees>
              <LongitudeDegrees>-1.64588056504726409912109375</LongitudeDegrees>
            </Position>
            <AltitudeMeters>430.20001220703125</AltitudeMeters>
            <DistanceMeters>3637.8781835395</DistanceMeters>
          </Trackpoint>
          <Trackpoint>
            <Time>2018-08-26T05:44:41.000Z</Time>
            <Position>
              <LatitudeDegrees>42.83601145260035991668701171875</LatitudeDegrees>
              <LongitudeDegrees>-1.6459430940449237823486328125</LongitudeDegrees>
            </Position>
            <AltitudeMeters>430.20001220703125</AltitudeMeters>
            <DistanceMeters>3646.2696396771</DistanceMeters>
          </Trackpoint>
          <Trackpoint>
            <Time>2018-08-26T05:44:42.000Z</Time>
            <Position>
              <LatitudeDegrees>42.83595562912523746490478515625</LatitudeDegrees>
              <LongitudeDegrees>-1.646014340221881866455078125</LongitudeDegrees>
            </Position>
            <AltitudeMeters>430.20001220703125</AltitudeMeters>
            <DistanceMeters>3654.7797050752</DistanceMeters>
          </Trackpoint>
          <Trackpoint>
            <Time>2018-08-26T05:44:43.000Z</Time>
            <Position>
              <LatitudeDegrees>42.83590684644877910614013671875</LatitudeDegrees>
              <LongitudeDegrees>-1.6460949741303920745849609375</LongitudeDegrees>
            </Position>
            <AltitudeMeters>430.20001220703125</AltitudeMeters>
            <DistanceMeters>3663.3120245894</DistanceMeters>
          </Trackpoint>
          <Trackpoint>
            <Time>2018-08-26T05:44:44.000Z</Time>
            <Position>
              <LatitudeDegrees>42.835866026580333709716796875</LatitudeDegrees>
              <LongitudeDegrees>-1.64618541486561298370361328125</LongitudeDegrees>
            </Position>
            <AltitudeMeters>430.20001220703125</AltitudeMeters>
            <DistanceMeters>3671.9797945456</DistanceMeters>
          </Trackpoint>
          <Trackpoint>
            <Time>2018-08-26T05:44:45.000Z</Time>
            <Position>
              <LatitudeDegrees>42.8358333371579647064208984375</LatitudeDegrees>
              <LongitudeDegrees>-1.64628348313271999359130859375</LongitudeDegrees>
            </Position>
            <AltitudeMeters>430.20001220703125</AltitudeMeters>
            <DistanceMeters>3680.7722051614</DistanceMeters>
          </Trackpoint>
          <Trackpoint>
            <Time>2018-08-26T05:44:46.000Z</Time>
            <Position>
              <LatitudeDegrees>42.835807017982006072998046875</LatitudeDegrees>
              <LongitudeDegrees>-1.64638440124690532684326171875</LongitudeDegrees>
            </Position>
            <AltitudeMeters>430.20001220703125</AltitudeMeters>
            <DistanceMeters>3689.5146628834</DistanceMeters>
          </Trackpoint>
          <Trackpoint>
            <Time>2018-08-26T05:44:47.000Z</Time>
            <Position>
              <LatitudeDegrees>42.83578480593860149383544921875</LatitudeDegrees>
              <LongitudeDegrees>-1.64648548699915409088134765625</LongitudeDegrees>
            </Position>
            <AltitudeMeters>430.20001220703125</AltitudeMeters>
            <DistanceMeters>3698.1280889186</DistanceMeters>
          </Trackpoint>
          <Trackpoint>
            <Time>2018-08-26T05:44:48.000Z</Time>
            <Position>
              <LatitudeDegrees>42.83576569519937038421630859375</LatitudeDegrees>
              <LongitudeDegrees>-1.64658657275140285491943359375</LongitudeDegrees>
            </Position>
            <AltitudeMeters>430.20001220703125</AltitudeMeters>
            <DistanceMeters>3706.647698913</DistanceMeters>
          </Trackpoint>
          <Trackpoint>
            <Time>2018-08-26T05:44:49.000Z</Time>
            <Position>
              <LatitudeDegrees>42.83574759028851985931396484375</LatitudeDegrees>
              <LongitudeDegrees>-1.646688245236873626708984375</LongitudeDegrees>
            </Position>
            <AltitudeMeters>430.20001220703125</AltitudeMeters>
            <DistanceMeters>3715.1874235784</DistanceMeters>
          </Trackpoint>
          <Trackpoint>
            <Time>2018-08-26T05:44:50.000Z</Time>
            <Position>
              <LatitudeDegrees>42.83573032356798648834228515625</LatitudeDegrees>
              <LongitudeDegrees>-1.6467910073697566986083984375</LongitudeDegrees>
            </Position>
            <AltitudeMeters>430</AltitudeMeters>
            <DistanceMeters>3723.7914090902</DistanceMeters>
          </Trackpoint>
          <Trackpoint>
            <Time>2018-08-26T05:44:51.000Z</Time>
            <Position>
              <LatitudeDegrees>42.83571473322808742523193359375</LatitudeDegrees>
              <LongitudeDegrees>-1.6468939371407032012939453125</LongitudeDegrees>
            </Position>
            <AltitudeMeters>429.79998779296875</AltitudeMeters>
            <DistanceMeters>3732.3691164101</DistanceMeters>
          </Trackpoint>
          <Trackpoint>
            <Time>2018-08-26T05:44:52.000Z</Time>
            <Position>
              <LatitudeDegrees>42.835700400173664093017578125</LatitudeDegrees>
              <LongitudeDegrees>-1.646996699273586273193359375</LongitudeDegrees>
            </Position>
            <AltitudeMeters>429.600006103515625</AltitudeMeters>
            <DistanceMeters>3740.9072547981</DistanceMeters>
          </Trackpoint>
          <Trackpoint>
            <Time>2018-08-26T05:44:53.000Z</Time>
            <Position>
              <LatitudeDegrees>42.8356874920427799224853515625</LatitudeDegrees>
              <LongitudeDegrees>-1.6470994614064693450927734375</LongitudeDegrees>
            </Position>
            <AltitudeMeters>429.399993896484375</AltitudeMeters>
            <DistanceMeters>3749.416789627</DistanceMeters>
          </Trackpoint>
          <Trackpoint>
            <Time>2018-08-26T05:44:54.000Z</Time>
            <Position>
              <LatitudeDegrees>42.83567667938768863677978515625</LatitudeDegrees>
              <LongitudeDegrees>-1.6472022235393524169921875</LongitudeDegrees>
            </Position>
            <AltitudeMeters>429.20001220703125</AltitudeMeters>
            <DistanceMeters>3757.8896349418</DistanceMeters>
          </Trackpoint>
          <Trackpoint>
            <Time>2018-08-26T05:44:55.000Z</Time>
            <Position>
              <LatitudeDegrees>42.83566653728485107421875</LatitudeDegrees>
              <LongitudeDegrees>-1.64730481803417205810546875</LongitudeDegrees>
            </Position>
            <AltitudeMeters>429.20001220703125</AltitudeMeters>
            <DistanceMeters>3766.3395352041</DistanceMeters>
          </Trackpoint>
          <Trackpoint>
            <Time>2018-08-26T05:44:56.000Z</Time>
            <Position>
              <LatitudeDegrees>42.83565756864845752716064453125</LatitudeDegrees>
              <LongitudeDegrees>-1.64740732870995998382568359375</LongitudeDegrees>
            </Position>
            <AltitudeMeters>429.20001220703125</AltitudeMeters>
            <DistanceMeters>3774.7653562918</DistanceMeters>
          </Trackpoint>
          <Trackpoint>
            <Time>2018-08-26T05:44:57.000Z</Time>
            <Position>
              <LatitudeDegrees>42.83564968965947628021240234375</LatitudeDegrees>
              <LongitudeDegrees>-1.64750975556671619415283203125</LongitudeDegrees>
            </Position>
            <AltitudeMeters>429</AltitudeMeters>
            <DistanceMeters>3783.1713272752</DistanceMeters>
          </Trackpoint>
          <Trackpoint>
            <Time>2018-08-26T05:44:58.000Z</Time>
            <Position>
              <LatitudeDegrees>42.83564331941306591033935546875</LatitudeDegrees>
              <LongitudeDegrees>-1.6476126015186309814453125</LongitudeDegrees>
            </Position>
            <AltitudeMeters>428.79998779296875</AltitudeMeters>
            <DistanceMeters>3791.5955406375</DistanceMeters>
          </Trackpoint>
          <Trackpoint>
            <Time>2018-08-26T05:44:59.000Z</Time>
            <Position>
              <LatitudeDegrees>42.83563778735697269439697265625</LatitudeDegrees>
              <LongitudeDegrees>-1.647714860737323760986328125</LongitudeDegrees>
            </Position>
            <AltitudeMeters>428.79998779296875</AltitudeMeters>
            <DistanceMeters>3799.9643680882</DistanceMeters>
          </Trackpoint>
          <Trackpoint>
            <Time>2018-08-26T05:45:00.000Z</Time>
            <Position>
              <LatitudeDegrees>42.8356338478624820709228515625</LatitudeDegrees>
              <LongitudeDegrees>-1.64781686849892139434814453125</LongitudeDegrees>
            </Position>
            <AltitudeMeters>428.79998779296875</AltitudeMeters>
            <DistanceMeters>3808.3013038795</DistanceMeters>
          </Trackpoint>
          <Trackpoint>
            <Time>2018-08-26T05:45:01.000Z</Time>
            <Position>
              <LatitudeDegrees>42.8356311656534671783447265625</LatitudeDegrees>
              <LongitudeDegrees>-1.64791912771761417388916015625</LongitudeDegrees>
            </Position>
            <AltitudeMeters>428.600006103515625</AltitudeMeters>
            <DistanceMeters>3816.6528492726</DistanceMeters>
          </Trackpoint>
          <Trackpoint>
            <Time>2018-08-26T05:45:02.000Z</Time>
            <Position>
              <LatitudeDegrees>42.83563024364411830902099609375</LatitudeDegrees>
              <LongitudeDegrees>-1.64802096784114837646484375</LongitudeDegrees>
            </Position>
            <AltitudeMeters>428.399993896484375</AltitudeMeters>
            <DistanceMeters>3824.965378668</DistanceMeters>
          </Trackpoint>
          <Trackpoint>
            <Time>2018-08-26T05:45:03.000Z</Time>
            <Position>
              <LatitudeDegrees>42.8356315009295940399169921875</LatitudeDegrees>
              <LongitudeDegrees>-1.64812289178371429443359375</LongitudeDegrees>
            </Position>
            <AltitudeMeters>428.20001220703125</AltitudeMeters>
            <DistanceMeters>3833.2860514831</DistanceMeters>
          </Trackpoint>
          <Trackpoint>
            <Time>2018-08-26T05:45:04.000Z</Time>
            <Position>
              <LatitudeDegrees>42.8356341831386089324951171875</LatitudeDegrees>
              <LongitudeDegrees>-1.64822506718337535858154296875</LongitudeDegrees>
            </Position>
            <AltitudeMeters>428.20001220703125</AltitudeMeters>
            <DistanceMeters>3841.6311068775</DistanceMeters>
          </Trackpoint>
          <Trackpoint>
            <Time>2018-08-26T05:45:05.000Z</Time>
            <Position>
              <LatitudeDegrees>42.83563745208084583282470703125</LatitudeDegrees>
              <LongitudeDegrees>-1.6483275778591632843017578125</LongitudeDegrees>
            </Position>
            <AltitudeMeters>428.20001220703125</AltitudeMeters>
            <DistanceMeters>3850.005327657</DistanceMeters>
          </Trackpoint>
          <Trackpoint>
            <Time>2018-08-26T05:45:06.000Z</Time>
            <Position>
              <LatitudeDegrees>42.83564172685146331787109375</LatitudeDegrees>
              <LongitudeDegrees>-1.6484305076301097869873046875</LongitudeDegrees>
            </Position>
            <AltitudeMeters>428</AltitudeMeters>
            <DistanceMeters>3858.4198882158</DistanceMeters>
          </Trackpoint>
          <Trackpoint>
            <Time>2018-08-26T05:45:07.000Z</Time>
            <Position>
              <LatitudeDegrees>42.835647426545619964599609375</LatitudeDegrees>
              <LongitudeDegrees>-1.64853234775364398956298828125</LongitudeDegrees>
            </Position>
            <AltitudeMeters>428</AltitudeMeters>
            <DistanceMeters>3866.7562824191</DistanceMeters>
          </Trackpoint>
          <Trackpoint>
            <Time>2018-08-26T05:45:08.000Z</Time>
            <Position>
              <LatitudeDegrees>42.835654802620410919189453125</LatitudeDegrees>
              <LongitudeDegrees>-1.6486336849629878997802734375</LongitudeDegrees>
            </Position>
            <AltitudeMeters>428</AltitudeMeters>
            <DistanceMeters>3875.0677254223</DistanceMeters>
          </Trackpoint>
          <Trackpoint>
            <Time>2018-08-26T05:45:09.000Z</Time>
            <Position>
              <LatitudeDegrees>42.835663519799709320068359375</LatitudeDegrees>
              <LongitudeDegrees>-1.64873418398201465606689453125</LongitudeDegrees>
            </Position>
            <AltitudeMeters>428</AltitudeMeters>
            <DistanceMeters>3883.3268535517</DistanceMeters>
          </Trackpoint>
          <Trackpoint>
            <Time>2018-08-26T05:45:10.000Z</Time>
            <Position>
              <LatitudeDegrees>42.8356727398931980133056640625</LatitudeDegrees>
              <LongitudeDegrees>-1.64883392862975597381591796875</LongitudeDegrees>
            </Position>
            <AltitudeMeters>428</AltitudeMeters>
            <DistanceMeters>3891.5322328827</DistanceMeters>
          </Trackpoint>
          <Trackpoint>
            <Time>2018-08-26T05:45:11.000Z</Time>
            <Position>
              <LatitudeDegrees>42.83568288199603557586669921875</LatitudeDegrees>
              <LongitudeDegrees>-1.64893317036330699920654296875</LongitudeDegrees>
            </Position>
            <AltitudeMeters>428</AltitudeMeters>
            <DistanceMeters>3899.7100532613</DistanceMeters>
          </Trackpoint>
          <Trackpoint>
            <Time>2018-08-26T05:45:12.000Z</Time>
            <Position>
              <LatitudeDegrees>42.83569461666047573089599609375</LatitudeDegrees>
              <LongitudeDegrees>-1.64903157390654087066650390625</LongitudeDegrees>
            </Position>
            <AltitudeMeters>428</AltitudeMeters>
            <DistanceMeters>3907.8469150942</DistanceMeters>
          </Trackpoint>
          <Trackpoint>
            <Time>2018-08-26T05:45:13.000Z</Time>
            <Position>
              <LatitudeDegrees>42.8357076086103916168212890625</LatitudeDegrees>
              <LongitudeDegrees>-1.64912830106914043426513671875</LongitudeDegrees>
            </Position>
            <AltitudeMeters>428</AltitudeMeters>
            <DistanceMeters>3915.8731573875</DistanceMeters>
          </Trackpoint>
          <Trackpoint>
            <Time>2018-08-26T05:45:14.000Z</Time>
            <Position>
              <LatitudeDegrees>42.83572177402675151824951171875</LatitudeDegrees>
              <LongitudeDegrees>-1.64922351948916912078857421875</LongitudeDegrees>
            </Position>
            <AltitudeMeters>428</AltitudeMeters>
            <DistanceMeters>3923.8026228347</DistanceMeters>
          </Trackpoint>
          <Trackpoint>
            <Time>2018-08-26T05:45:15.000Z</Time>
            <Position>
              <LatitudeDegrees>42.83573635853826999664306640625</LatitudeDegrees>
              <LongitudeDegrees>-1.6493186540901660919189453125</LongitudeDegrees>
            </Position>
            <AltitudeMeters>428.20001220703125</AltitudeMeters>
            <DistanceMeters>3931.7349347715</DistanceMeters>
          </Trackpoint>
          <Trackpoint>
            <Time>2018-08-26T05:45:16.000Z</Time>
            <Position>
              <LatitudeDegrees>42.8357508592307567596435546875</LatitudeDegrees>
              <LongitudeDegrees>-1.649413369596004486083984375</LongitudeDegrees>
            </Position>
            <AltitudeMeters>428.20001220703125</AltitudeMeters>
            <DistanceMeters>3939.6318777193</DistanceMeters>
          </Trackpoint>
          <Trackpoint>
            <Time>2018-08-26T05:45:17.000Z</Time>
            <Position>
              <LatitudeDegrees>42.83576636575162410736083984375</LatitudeDegrees>
              <LongitudeDegrees>-1.64950766600668430328369140625</LongitudeDegrees>
            </Position>
            <AltitudeMeters>428.399993896484375</AltitudeMeters>
            <DistanceMeters>3947.5196674414</DistanceMeters>
          </Trackpoint>
          <Trackpoint>
            <Time>2018-08-26T05:45:18.000Z</Time>
            <Position>
              <LatitudeDegrees>42.83578254282474517822265625</LatitudeDegrees>
              <LongitudeDegrees>-1.64960171096026897430419921875</LongitudeDegrees>
            </Position>
            <AltitudeMeters>428.600006103515625</AltitudeMeters>
            <DistanceMeters>3955.402876565</DistanceMeters>
          </Trackpoint>
          <Trackpoint>
            <Time>2018-08-26T05:45:19.000Z</Time>
            <Position>
              <LatitudeDegrees>42.83580056391656398773193359375</LatitudeDegrees>
              <LongitudeDegrees>-1.64969525299966335296630859375</LongitudeDegrees>
            </Position>
            <AltitudeMeters>428.600006103515625</AltitudeMeters>
            <DistanceMeters>3963.296388297</DistanceMeters>
          </Trackpoint>
          <Trackpoint>
            <Time>2018-08-26T05:45:20.000Z</Time>
            <Position>
              <LatitudeDegrees>42.83581866882741451263427734375</LatitudeDegrees>
              <LongitudeDegrees>-1.6497887112200260162353515625</LongitudeDegrees>
            </Position>
            <AltitudeMeters>428.79998779296875</AltitudeMeters>
            <DistanceMeters>3971.1858950578</DistanceMeters>
          </Trackpoint>
          <Trackpoint>
            <Time>2018-08-26T05:45:21.000Z</Time>
            <Position>
              <LatitudeDegrees>42.83583828248083591461181640625</LatitudeDegrees>
              <LongitudeDegrees>-1.649882085621356964111328125</LongitudeDegrees>
            </Position>
            <AltitudeMeters>429</AltitudeMeters>
            <DistanceMeters>3979.1136521208</DistanceMeters>
          </Trackpoint>
          <Trackpoint>
            <Time>2018-08-26T05:45:22.000Z</Time>
            <Position>
              <LatitudeDegrees>42.83585923723876476287841796875</LatitudeDegrees>
              <LongitudeDegrees>-1.6499747894704341888427734375</LongitudeDegrees>
            </Position>
            <AltitudeMeters>429</AltitudeMeters>
            <DistanceMeters>3987.0311511371</DistanceMeters>
          </Trackpoint>
          <Trackpoint>
            <Time>2018-08-26T05:45:23.000Z</Time>
            <Position>
              <LatitudeDegrees>42.835882119834423065185546875</LatitudeDegrees>
              <LongitudeDegrees>-1.6500663198530673980712890625</LongitudeDegrees>
            </Position>
            <AltitudeMeters>429.20001220703125</AltitudeMeters>
            <DistanceMeters>3994.923518799</DistanceMeters>
          </Trackpoint>
          <Trackpoint>
            <Time>2018-08-26T05:45:24.000Z</Time>
            <Position>
              <LatitudeDegrees>42.83590684644877910614013671875</LatitudeDegrees>
              <LongitudeDegrees>-1.6501575149595737457275390625</LongitudeDegrees>
            </Position>
            <AltitudeMeters>429.600006103515625</AltitudeMeters>
            <DistanceMeters>4002.8592451754</DistanceMeters>
          </Trackpoint>
          <Trackpoint>
            <Time>2018-08-26T05:45:25.000Z</Time>
            <Position>
              <LatitudeDegrees>42.8359307348728179931640625</LatitudeDegrees>
              <LongitudeDegrees>-1.65024946443736553192138671875</LongitudeDegrees>
            </Position>
            <AltitudeMeters>430</AltitudeMeters>
            <DistanceMeters>4010.8211002756</DistanceMeters>
          </Trackpoint>
          <Trackpoint>
            <Time>2018-08-26T05:45:26.000Z</Time>
            <Position>
              <LatitudeDegrees>42.835953868925571441650390625</LatitudeDegrees>
              <LongitudeDegrees>-1.65034233592450618743896484375</LongitudeDegrees>
            </Position>
            <AltitudeMeters>430.20001220703125</AltitudeMeters>
            <DistanceMeters>4018.8265017348</DistanceMeters>
          </Trackpoint>
          <Trackpoint>
            <Time>2018-08-26T05:45:27.000Z</Time>
            <Position>
              <LatitudeDegrees>42.8359758295118808746337890625</LatitudeDegrees>
              <LongitudeDegrees>-1.65043495595455169677734375</LongitudeDegrees>
            </Position>
            <AltitudeMeters>430.399993896484375</AltitudeMeters>
            <DistanceMeters>4026.7724626267</DistanceMeters>
          </Trackpoint>
          <Trackpoint>
            <Time>2018-08-26T05:45:28.000Z</Time>
            <Position>
              <LatitudeDegrees>42.8359977900981903076171875</LatitudeDegrees>
              <LongitudeDegrees>-1.65052724070847034454345703125</LongitudeDegrees>
            </Position>
            <AltitudeMeters>430.399993896484375</AltitudeMeters>
            <DistanceMeters>4034.6916722402</DistanceMeters>
          </Trackpoint>
          <Trackpoint>
            <Time>2018-08-26T05:45:29.000Z</Time>
            <Position>
              <LatitudeDegrees>42.83602084033191204071044921875</LatitudeDegrees>
              <LongitudeDegrees>-1.65061868727207183837890625</LongitudeDegrees>
            </Position>
            <AltitudeMeters>430.600006103515625</AltitudeMeters>
            <DistanceMeters>4042.5840399021</DistanceMeters>
          </Trackpoint>
          <Trackpoint>
            <Time>2018-08-26T05:45:30.000Z</Time>
            <Position>
              <LatitudeDegrees>42.83604481257498264312744140625</LatitudeDegrees>
              <LongitudeDegrees>-1.65070963092148303985595703125</LongitudeDegrees>
            </Position>
            <AltitudeMeters>430.79998779296875</AltitudeMeters>
            <DistanceMeters>4050.4718296241</DistanceMeters>
          </Trackpoint>
          <Trackpoint>
            <Time>2018-08-26T05:45:31.000Z</Time>
            <Position>
              <LatitudeDegrees>42.83606912009418010711669921875</LatitudeDegrees>
              <LongitudeDegrees>-1.65079998783767223358154296875</LongitudeDegrees>
            </Position>
            <AltitudeMeters>431.20001220703125</AltitudeMeters>
            <DistanceMeters>4058.3269242984</DistanceMeters>
          </Trackpoint>
          <Trackpoint>
            <Time>2018-08-26T05:45:32.000Z</Time>
            <Position>
              <LatitudeDegrees>42.83609342761337757110595703125</LatitudeDegrees>
              <LongitudeDegrees>-1.65089034475386142730712890625</LongitudeDegrees>
            </Position>
            <AltitudeMeters>431.399993896484375</AltitudeMeters>
            <DistanceMeters>4066.1825937427</DistanceMeters>
          </Trackpoint>
          <Trackpoint>
            <Time>2018-08-26T05:45:33.000Z</Time>
            <Position>
              <LatitudeDegrees>42.836116813123226165771484375</LatitudeDegrees>
              <LongitudeDegrees>-1.65098086930811405181884765625</LongitudeDegrees>
            </Position>
            <AltitudeMeters>431.399993896484375</AltitudeMeters>
            <DistanceMeters>4074.0158159045</DistanceMeters>
          </Trackpoint>
          <Trackpoint>
            <Time>2018-08-26T05:45:34.000Z</Time>
            <Position>
              <LatitudeDegrees>42.83613936044275760650634765625</LatitudeDegrees>
              <LongitudeDegrees>-1.65107055567204952239990234375</LongitudeDegrees>
            </Position>
            <AltitudeMeters>431.600006103515625</AltitudeMeters>
            <DistanceMeters>4081.7545152123</DistanceMeters>
          </Trackpoint>
          <Trackpoint>
            <Time>2018-08-26T05:45:35.000Z</Time>
            <Position>
              <LatitudeDegrees>42.83616048283874988555908203125</LatitudeDegrees>
              <LongitudeDegrees>-1.65116108022630214691162109375</LongitudeDegrees>
            </Position>
            <AltitudeMeters>431.600006103515625</AltitudeMeters>
            <DistanceMeters>4089.508369026</DistanceMeters>
          </Trackpoint>
          <Trackpoint>
            <Time>2018-08-26T05:45:36.000Z</Time>
            <Position>
              <LatitudeDegrees>42.83618152141571044921875</LatitudeDegrees>
              <LongitudeDegrees>-1.6512515209615230560302734375</LongitudeDegrees>
            </Position>
            <AltitudeMeters>431.79998779296875</AltitudeMeters>
            <DistanceMeters>4097.2523174804</DistanceMeters>
          </Trackpoint>
          <Trackpoint>
            <Time>2018-08-26T05:45:37.000Z</Time>
            <Position>
              <LatitudeDegrees>42.8362028114497661590576171875</LatitudeDegrees>
              <LongitudeDegrees>-1.651340536773204803466796875</LongitudeDegrees>
            </Position>
            <AltitudeMeters>431.79998779296875</AltitudeMeters>
            <DistanceMeters>4104.8935526087</DistanceMeters>
          </Trackpoint>
          <Trackpoint>
            <Time>2018-08-26T05:45:38.000Z</Time>
            <Position>
              <LatitudeDegrees>42.83622351475059986114501953125</LatitudeDegrees>
              <LongitudeDegrees>-1.65142796002328395843505859375</LongitudeDegrees>
            </Position>
            <AltitudeMeters>432</AltitudeMeters>
            <DistanceMeters>4112.39103391</DistanceMeters>
          </Trackpoint>
          <Trackpoint>
            <Time>2018-08-26T05:45:39.000Z</Time>
            <Position>
              <LatitudeDegrees>42.836242876946926116943359375</LatitudeDegrees>
              <LongitudeDegrees>-1.65151563473045825958251953125</LongitudeDegrees>
            </Position>
            <AltitudeMeters>432.20001220703125</AltitudeMeters>
            <DistanceMeters>4119.8637839212</DistanceMeters>
          </Trackpoint>
          <Trackpoint>
            <Time>2018-08-26T05:45:40.000Z</Time>
            <Position>
              <LatitudeDegrees>42.836262993514537811279296875</LatitudeDegrees>
              <LongitudeDegrees>-1.6516025550663471221923828125</LongitudeDegrees>
            </Position>
            <AltitudeMeters>432.399993896484375</AltitudeMeters>
            <DistanceMeters>4127.3032286938</DistanceMeters>
          </Trackpoint>
          <Trackpoint>
            <Time>2018-08-26T05:45:41.000Z</Time>
            <Position>
              <LatitudeDegrees>42.83628202043473720550537109375</LatitudeDegrees>
              <LongitudeDegrees>-1.65168888866901397705078125</LongitudeDegrees>
            </Position>
            <AltitudeMeters>432.600006103515625</AltitudeMeters>
            <DistanceMeters>4134.6602850485</DistanceMeters>
          </Trackpoint>
          <Trackpoint>
            <Time>2018-08-26T05:45:42.000Z</Time>
            <Position>
              <LatitudeDegrees>42.83629911951720714569091796875</LatitudeDegrees>
              <LongitudeDegrees>-1.651776731014251708984375</LongitudeDegrees>
            </Position>
            <AltitudeMeters>432.79998779296875</AltitudeMeters>
            <DistanceMeters>4142.0784577244</DistanceMeters>
          </Trackpoint>
          <Trackpoint>
            <Time>2018-08-26T05:45:43.000Z</Time>
            <Position>
              <LatitudeDegrees>42.836317308247089385986328125</LatitudeDegrees>
              <LongitudeDegrees>-1.6518640704452991485595703125</LongitudeDegrees>
            </Position>
            <AltitudeMeters>433</AltitudeMeters>
            <DistanceMeters>4149.4881044622</DistanceMeters>
          </Trackpoint>
          <Trackpoint>
            <Time>2018-08-26T05:45:44.000Z</Time>
            <Position>
              <LatitudeDegrees>42.83633549697697162628173828125</LatitudeDegrees>
              <LongitudeDegrees>-1.65195048786699771881103515625</LongitudeDegrees>
            </Position>
            <AltitudeMeters>433.20001220703125</AltitudeMeters>
            <DistanceMeters>4156.8261114011</DistanceMeters>
          </Trackpoint>
          <Trackpoint>
            <Time>2018-08-26T05:45:45.000Z</Time>
            <Position>
              <LatitudeDegrees>42.8363533504307270050048828125</LatitudeDegrees>
              <LongitudeDegrees>-1.65203757584095001220703125</LongitudeDegrees>
            </Position>
            <AltitudeMeters>433.399993896484375</AltitudeMeters>
            <DistanceMeters>4164.2064515768</DistanceMeters>
          </Trackpoint>
          <Trackpoint>
            <Time>2018-08-26T05:45:46.000Z</Time>
            <Position>
              <LatitudeDegrees>42.836372293531894683837890625</LatitudeDegrees>
              <LongitudeDegrees>-1.652125418186187744140625</LongitudeDegrees>
            </Position>
            <AltitudeMeters>433.600006103515625</AltitudeMeters>
            <DistanceMeters>4171.679201588</DistanceMeters>
          </Trackpoint>
          <Trackpoint>
            <Time>2018-08-26T05:45:47.000Z</Time>
            <Position>
              <LatitudeDegrees>42.83639014698565006256103515625</LatitudeDegrees>
              <LongitudeDegrees>-1.65221367962658405303955078125</LongitudeDegrees>
            </Position>
            <AltitudeMeters>433.79998779296875</AltitudeMeters>
            <DistanceMeters>4179.1519515992</DistanceMeters>
          </Trackpoint>
          <Trackpoint>
            <Time>2018-08-26T05:45:48.000Z</Time>
            <Position>
              <LatitudeDegrees>42.83640674315392971038818359375</LatitudeDegrees>
              <LongitudeDegrees>-1.652302443981170654296875</LongitudeDegrees>
            </Position>
            <AltitudeMeters>434</AltitudeMeters>
            <DistanceMeters>4186.6283259336</DistanceMeters>
          </Trackpoint>
          <Trackpoint>
            <Time>2018-08-26T05:45:49.000Z</Time>
            <Position>
              <LatitudeDegrees>42.836423926055431365966796875</LatitudeDegrees>
              <LongitudeDegrees>-1.652390956878662109375</LongitudeDegrees>
            </Position>
            <AltitudeMeters>434.20001220703125</AltitudeMeters>
            <DistanceMeters>4194.1010759447</DistanceMeters>
          </Trackpoint>
          <Trackpoint>
            <Time>2018-08-26T05:45:50.000Z</Time>
            <Position>
              <LatitudeDegrees>42.83643968403339385986328125</LatitudeDegrees>
              <LongitudeDegrees>-1.65247804485261440277099609375</LongitudeDegrees>
            </Position>
            <AltitudeMeters>434.399993896484375</AltitudeMeters>
            <DistanceMeters>4201.4224510732</DistanceMeters>
          </Trackpoint>
          <Trackpoint>
            <Time>2018-08-26T05:45:51.000Z</Time>
            <Position>
              <LatitudeDegrees>42.836455442011356353759765625</LatitudeDegrees>
              <LongitudeDegrees>-1.6525674797594547271728515625</LongitudeDegrees>
            </Position>
            <AltitudeMeters>434.600006103515625</AltitudeMeters>
            <DistanceMeters>4208.9289600494</DistanceMeters>
          </Trackpoint>
          <Trackpoint>
            <Time>2018-08-26T05:45:52.000Z</Time>
            <Position>
              <LatitudeDegrees>42.83647279255092144012451171875</LatitudeDegrees>
              <LongitudeDegrees>-1.6526551544666290283203125</LongitudeDegrees>
            </Position>
            <AltitudeMeters>434.79998779296875</AltitudeMeters>
            <DistanceMeters>4216.3398253789</DistanceMeters>
          </Trackpoint>
          <Trackpoint>
            <Time>2018-08-26T05:45:53.000Z</Time>
            <Position>
              <LatitudeDegrees>42.8364901430904865264892578125</LatitudeDegrees>
              <LongitudeDegrees>-1.6527431644499301910400390625</LongitudeDegrees>
            </Position>
            <AltitudeMeters>435</AltitudeMeters>
            <DistanceMeters>4223.778056242</DistanceMeters>
          </Trackpoint>
          <Trackpoint>
            <Time>2018-08-26T05:45:54.000Z</Time>
            <Position>
              <LatitudeDegrees>42.8365100920200347900390625</LatitudeDegrees>
              <LongitudeDegrees>-1.65283025242388248443603515625</LongitudeDegrees>
            </Position>
            <AltitudeMeters>435.20001220703125</AltitudeMeters>
            <DistanceMeters>4231.2247803165</DistanceMeters>
          </Trackpoint>
          <Trackpoint>
            <Time>2018-08-26T05:45:55.000Z</Time>
            <Position>
              <LatitudeDegrees>42.836534567177295684814453125</LatitudeDegrees>
              <LongitudeDegrees>-1.6529144905507564544677734375</LongitudeDegrees>
            </Position>
            <AltitudeMeters>435.399993896484375</AltitudeMeters>
            <DistanceMeters>4238.6203988181</DistanceMeters>
          </Trackpoint>
          <Trackpoint>
            <Time>2018-08-26T05:45:56.000Z</Time>
            <Position>
              <LatitudeDegrees>42.83656365238130092620849609375</LatitudeDegrees>
              <LongitudeDegrees>-1.65299504064023494720458984375</LongitudeDegrees>
            </Position>
            <AltitudeMeters>435.600006103515625</AltitudeMeters>
            <DistanceMeters>4245.947938278</DistanceMeters>
          </Trackpoint>
          <Trackpoint>
            <Time>2018-08-26T05:45:57.000Z</Time>
            <Position>
              <LatitudeDegrees>42.83659885637462139129638671875</LatitudeDegrees>
              <LongitudeDegrees>-1.653069891035556793212890625</LongitudeDegrees>
            </Position>
            <AltitudeMeters>435.79998779296875</AltitudeMeters>
            <DistanceMeters>4253.2055161038</DistanceMeters>
          </Trackpoint>
          <Trackpoint>
            <Time>2018-08-26T05:45:58.000Z</Time>
            <Position>
              <LatitudeDegrees>42.83663925714790821075439453125</LatitudeDegrees>
              <LongitudeDegrees>-1.65313887409865856170654296875</LongitudeDegrees>
            </Position>
            <AltitudeMeters>436</AltitudeMeters>
            <DistanceMeters>4260.411273493</DistanceMeters>
          </Trackpoint>
          <Trackpoint>
            <Time>2018-08-26T05:45:59.000Z</Time>
            <Position>
              <LatitudeDegrees>42.83668242394924163818359375</LatitudeDegrees>
              <LongitudeDegrees>-1.6532031632959842681884765625</LongitudeDegrees>
            </Position>
            <AltitudeMeters>436.20001220703125</AltitudeMeters>
            <DistanceMeters>4267.5262301721</DistanceMeters>
          </Trackpoint>
          <Trackpoint>
            <Time>2018-08-26T05:46:00.000Z</Time>
            <Position>
              <LatitudeDegrees>42.8367271833121776580810546875</LatitudeDegrees>
              <LongitudeDegrees>-1.65326426737010478973388671875</LongitudeDegrees>
            </Position>
            <AltitudeMeters>436.20001220703125</AltitudeMeters>
            <DistanceMeters>4274.5755216734</DistanceMeters>
          </Trackpoint>
          <Trackpoint>
            <Time>2018-08-26T05:46:01.000Z</Time>
            <Position>
              <LatitudeDegrees>42.83677035011351108551025390625</LatitudeDegrees>
              <LongitudeDegrees>-1.6533275507390499114990234375</LongitudeDegrees>
            </Position>
            <AltitudeMeters>436.20001220703125</AltitudeMeters>
            <DistanceMeters>4281.6292952172</DistanceMeters>
          </Trackpoint>
          <Trackpoint>
            <Time>2018-08-26T05:46:02.000Z</Time>
            <Position>
              <LatitudeDegrees>42.836806811392307281494140625</LatitudeDegrees>
              <LongitudeDegrees>-1.65339871309697628021240234375</LongitudeDegrees>
            </Position>
            <AltitudeMeters>436.20001220703125</AltitudeMeters>
            <DistanceMeters>4288.7137263782</DistanceMeters>
          </Trackpoint>
          <Trackpoint>
            <Time>2018-08-26T05:46:03.000Z</Time>
            <Position>
              <LatitudeDegrees>42.83683287911117076873779296875</LatitudeDegrees>
              <LongitudeDegrees>-1.6534777544438838958740234375</LongitudeDegrees>
            </Position>
            <AltitudeMeters>436.399993896484375</AltitudeMeters>
            <DistanceMeters>4295.7866765052</DistanceMeters>
          </Trackpoint>
          <Trackpoint>
            <Time>2018-08-26T05:46:04.000Z</Time>
            <Position>
              <LatitudeDegrees>42.8368462063372135162353515625</LatitudeDegrees>
              <LongitudeDegrees>-1.6535619087517261505126953125</LongitudeDegrees>
            </Position>
            <AltitudeMeters>436.600006103515625</AltitudeMeters>
            <DistanceMeters>4302.8135149121</DistanceMeters>
          </Trackpoint>
          <Trackpoint>
            <Time>2018-08-26T05:46:05.000Z</Time>
            <Position>
              <LatitudeDegrees>42.8368475474417209625244140625</LatitudeDegrees>
              <LongitudeDegrees>-1.65364765562117099761962890625</LongitudeDegrees>
            </Position>
            <AltitudeMeters>436.79998779296875</AltitudeMeters>
            <DistanceMeters>4309.8139595309</DistanceMeters>
          </Trackpoint>
          <Trackpoint>
            <Time>2018-08-26T05:46:06.000Z</Time>
            <Position>
              <LatitudeDegrees>42.83683857880532741546630859375</LatitudeDegrees>
              <LongitudeDegrees>-1.65373281575739383697509765625</LongitudeDegrees>
            </Position>
            <AltitudeMeters>437</AltitudeMeters>
            <DistanceMeters>4316.8362987039</DistanceMeters>
          </Trackpoint>
          <Trackpoint>
            <Time>2018-08-26T05:46:07.000Z</Time>
            <Position>
              <LatitudeDegrees>42.83682265318930149078369140625</LatitudeDegrees>
              <LongitudeDegrees>-1.65381629951298236846923828125</LongitudeDegrees>
            </Position>
            <AltitudeMeters>437.20001220703125</AltitudeMeters>
            <DistanceMeters>4323.8766175603</DistanceMeters>
          </Trackpoint>
          <Trackpoint>
            <Time>2018-08-26T05:46:08.000Z</Time>
            <Position>
              <LatitudeDegrees>42.8368016146123409271240234375</LatitudeDegrees>
              <LongitudeDegrees>-1.65389928035438060760498046875</LongitudeDegrees>
            </Position>
            <AltitudeMeters>437.600006103515625</AltitudeMeters>
            <DistanceMeters>4331.0421611308</DistanceMeters>
          </Trackpoint>
          <Trackpoint>
            <Time>2018-08-26T05:46:09.000Z</Time>
            <Position>
              <LatitudeDegrees>42.836779654026031494140625</LatitudeDegrees>
              <LongitudeDegrees>-1.65398494340479373931884765625</LongitudeDegrees>
            </Position>
            <AltitudeMeters>438</AltitudeMeters>
            <DistanceMeters>4338.4487605123</DistanceMeters>
          </Trackpoint>
          <Trackpoint>
            <Time>2018-08-26T05:46:10.000Z</Time>
            <Position>
              <LatitudeDegrees>42.836759872734546661376953125</LatitudeDegrees>
              <LongitudeDegrees>-1.654077060520648956298828125</LongitudeDegrees>
            </Position>
            <AltitudeMeters>438</AltitudeMeters>
            <DistanceMeters>4346.2831353814</DistanceMeters>
          </Trackpoint>
          <Trackpoint>
            <Time>2018-08-26T05:46:11.000Z</Time>
            <Position>
              <LatitudeDegrees>42.83674453385174274444580078125</LatitudeDegrees>
              <LongitudeDegrees>-1.654176302254199981689453125</LongitudeDegrees>
            </Position>
            <AltitudeMeters>438.20001220703125</AltitudeMeters>
            <DistanceMeters>4354.5608295081</DistanceMeters>
          </Trackpoint>
          <Trackpoint>
            <Time>2018-08-26T05:46:12.000Z</Time>
            <Position>
              <LatitudeDegrees>42.83673464320600032806396484375</LatitudeDegrees>
              <LongitudeDegrees>-1.65428065694868564605712890625</LongitudeDegrees>
            </Position>
            <AltitudeMeters>438.20001220703125</AltitudeMeters>
            <DistanceMeters>4363.1490577535</DistanceMeters>
          </Trackpoint>
          <Trackpoint>
            <Time>2018-08-26T05:46:13.000Z</Time>
            <Position>
              <LatitudeDegrees>42.836730368435382843017578125</LatitudeDegrees>
              <LongitudeDegrees>-1.6543886996805667877197265625</LongitudeDegrees>
            </Position>
            <AltitudeMeters>438.20001220703125</AltitudeMeters>
            <DistanceMeters>4371.9798980402</DistanceMeters>
          </Trackpoint>
          <Trackpoint>
            <Time>2018-08-26T05:46:14.000Z</Time>
            <Position>
              <LatitudeDegrees>42.83673045225441455841064453125</LatitudeDegrees>
              <LongitudeDegrees>-1.6545000113546848297119140625</LongitudeDegrees>
            </Position>
            <AltitudeMeters>438.20001220703125</AltitudeMeters>
            <DistanceMeters>4381.0647700095</DistanceMeters>
          </Trackpoint>
          <Trackpoint>
            <Time>2018-08-26T05:46:15.000Z</Time>
            <Position>
              <LatitudeDegrees>42.836735062301158905029296875</LatitudeDegrees>
              <LongitudeDegrees>-1.65461408905684947967529296875</LongitudeDegrees>
            </Position>
            <AltitudeMeters>438.20001220703125</AltitudeMeters>
            <DistanceMeters>4390.3895008946</DistanceMeters>
          </Trackpoint>
          <Trackpoint>
            <Time>2018-08-26T05:46:16.000Z</Time>
            <Position>
              <LatitudeDegrees>42.83674302510917186737060546875</LatitudeDegrees>
              <LongitudeDegrees>-1.65472707711160182952880859375</LongitudeDegrees>
            </Position>
            <AltitudeMeters>438.20001220703125</AltitudeMeters>
            <DistanceMeters>4399.65399638</DistanceMeters>
          </Trackpoint>
          <Trackpoint>
            <Time>2018-08-26T05:46:17.000Z</Time>
            <Position>
              <LatitudeDegrees>42.836752831935882568359375</LatitudeDegrees>
              <LongitudeDegrees>-1.65483922697603702545166015625</LongitudeDegrees>
            </Position>
            <AltitudeMeters>438.20001220703125</AltitudeMeters>
            <DistanceMeters>4408.8720774893</DistanceMeters>
          </Trackpoint>
          <Trackpoint>
            <Time>2018-08-26T05:46:18.000Z</Time>
            <Position>
              <LatitudeDegrees>42.83676364459097385406494140625</LatitudeDegrees>
              <LongitudeDegrees>-1.654950119554996490478515625</LongitudeDegrees>
            </Position>
            <AltitudeMeters>438.20001220703125</AltitudeMeters>
            <DistanceMeters>4418.0025575276</DistanceMeters>
          </Trackpoint>
          <Trackpoint>
            <Time>2018-08-26T05:46:19.000Z</Time>
            <Position>
              <LatitudeDegrees>42.83677487634122371673583984375</LatitudeDegrees>
              <LongitudeDegrees>-1.65506017394363880157470703125</LongitudeDegrees>
            </Position>
            <AltitudeMeters>438</AltitudeMeters>
            <DistanceMeters>4427.0720098996</DistanceMeters>
          </Trackpoint>
          <Trackpoint>
            <Time>2018-08-26T05:46:20.000Z</Time>
            <Position>
              <LatitudeDegrees>42.836786694824695587158203125</LatitudeDegrees>
              <LongitudeDegrees>-1.6551695577800273895263671875</LongitudeDegrees>
            </Position>
            <AltitudeMeters>437.399993896484375</AltitudeMeters>
            <DistanceMeters>4436.0965464223</DistanceMeters>
          </Trackpoint>
          <Trackpoint>
            <Time>2018-08-26T05:46:21.000Z</Time>
            <Position>
              <LatitudeDegrees>42.836799435317516326904296875</LatitudeDegrees>
              <LongitudeDegrees>-1.65527894161641597747802734375</LongitudeDegrees>
            </Position>
            <AltitudeMeters>437</AltitudeMeters>
            <DistanceMeters>4445.1360796924</DistanceMeters>
          </Trackpoint>
          <Trackpoint>
            <Time>2018-08-26T05:46:22.000Z</Time>
            <Position>
              <LatitudeDegrees>42.83681242726743221282958984375</LatitudeDegrees>
              <LongitudeDegrees>-1.65538723580539226531982421875</LongitudeDegrees>
            </Position>
            <AltitudeMeters>436.399993896484375</AltitudeMeters>
            <DistanceMeters>4454.0918118777</DistanceMeters>
          </Trackpoint>
          <Trackpoint>
            <Time>2018-08-26T05:46:23.000Z</Time>
            <Position>
              <LatitudeDegrees>42.83682458102703094482421875</LatitudeDegrees>
              <LongitudeDegrees>-1.655495278537273406982421875</LongitudeDegrees>
            </Position>
            <AltitudeMeters>435.399993896484375</AltitudeMeters>
            <DistanceMeters>4463.0131959506</DistanceMeters>
          </Trackpoint>
          <Trackpoint>
            <Time>2018-08-26T05:46:24.000Z</Time>
            <Position>
              <LatitudeDegrees>42.8368368186056613922119140625</LatitudeDegrees>
              <LongitudeDegrees>-1.65560348890721797943115234375</LongitudeDegrees>
            </Position>
            <AltitudeMeters>435</AltitudeMeters>
            <DistanceMeters>4471.9497498765</DistanceMeters>
          </Trackpoint>
          <Trackpoint>
            <Time>2018-08-26T05:46:25.000Z</Time>
            <Position>
              <LatitudeDegrees>42.83684947527945041656494140625</LatitudeDegrees>
              <LongitudeDegrees>-1.6557113640010356903076171875</LongitudeDegrees>
            </Position>
            <AltitudeMeters>434.600006103515625</AltitudeMeters>
            <DistanceMeters>4480.8665779611</DistanceMeters>
          </Trackpoint>
          <Trackpoint>
            <Time>2018-08-26T05:46:26.000Z</Time>
            <Position>
              <LatitudeDegrees>42.8368619643151760101318359375</LatitudeDegrees>
              <LongitudeDegrees>-1.65581940673291683197021484375</LongitudeDegrees>
            </Position>
            <AltitudeMeters>434.20001220703125</AltitudeMeters>
            <DistanceMeters>4489.7940330684</DistanceMeters>
          </Trackpoint>
          <Trackpoint>
            <Time>2018-08-26T05:46:27.000Z</Time>
            <Position>
              <LatitudeDegrees>42.8368743695318698883056640625</LatitudeDegrees>
              <LongitudeDegrees>-1.6559279523789882659912109375</LongitudeDegrees>
            </Position>
            <AltitudeMeters>434</AltitudeMeters>
            <DistanceMeters>4498.7608497085</DistanceMeters>
          </Trackpoint>
          <Trackpoint>
            <Time>2018-08-26T05:46:28.000Z</Time>
            <Position>
              <LatitudeDegrees>42.83688618801534175872802734375</LatitudeDegrees>
              <LongitudeDegrees>-1.65603716857731342315673828125</LongitudeDegrees>
            </Position>
            <AltitudeMeters>433.79998779296875</AltitudeMeters>
            <DistanceMeters>4507.7708656481</DistanceMeters>
          </Trackpoint>
          <Trackpoint>
            <Time>2018-08-26T05:46:29.000Z</Time>
            <Position>
              <LatitudeDegrees>42.836898006498813629150390625</LatitudeDegrees>
              <LongitudeDegrees>-1.65614630095660686492919921875</LongitudeDegrees>
            </Position>
            <AltitudeMeters>433.79998779296875</AltitudeMeters>
            <DistanceMeters>4516.7748662208</DistanceMeters>
          </Trackpoint>
          <Trackpoint>
            <Time>2018-08-26T05:46:30.000Z</Time>
            <Position>
              <LatitudeDegrees>42.83690948970615863800048828125</LatitudeDegrees>
              <LongitudeDegrees>-1.65625560097396373748779296875</LongitudeDegrees>
            </Position>
            <AltitudeMeters>433.79998779296875</AltitudeMeters>
            <DistanceMeters>4525.7868863904</DistanceMeters>
          </Trackpoint>
          <Trackpoint>
            <Time>2018-08-26T05:46:31.000Z</Time>
            <Position>
              <LatitudeDegrees>42.83692122437059879302978515625</LatitudeDegrees>
              <LongitudeDegrees>-1.6563646495342254638671875</LongitudeDegrees>
            </Position>
            <AltitudeMeters>433.600006103515625</AltitudeMeters>
            <DistanceMeters>4534.7818563702</DistanceMeters>
          </Trackpoint>
          <Trackpoint>
            <Time>2018-08-26T05:46:32.000Z</Time>
            <Position>
              <LatitudeDegrees>42.83693295903503894805908203125</LatitudeDegrees>
              <LongitudeDegrees>-1.65647394955158233642578125</LongitudeDegrees>
            </Position>
            <AltitudeMeters>433.600006103515625</AltitudeMeters>
            <DistanceMeters>4543.7978836632</DistanceMeters>
          </Trackpoint>
          <Trackpoint>
            <Time>2018-08-26T05:46:33.000Z</Time>
            <Position>
              <LatitudeDegrees>42.8369454480707645416259765625</LatitudeDegrees>
              <LongitudeDegrees>-1.6565827466547489166259765625</LongitudeDegrees>
            </Position>
            <AltitudeMeters>433.399993896484375</AltitudeMeters>
            <DistanceMeters>4552.7858235756</DistanceMeters>
          </Trackpoint>
          <Trackpoint>
            <Time>2018-08-26T05:46:34.000Z</Time>
            <Position>
              <LatitudeDegrees>42.83695793710649013519287109375</LatitudeDegrees>
              <LongitudeDegrees>-1.65669129230082035064697265625</LongitudeDegrees>
            </Position>
            <AltitudeMeters>433.399993896484375</AltitudeMeters>
            <DistanceMeters>4561.753647214</DistanceMeters>
          </Trackpoint>
          <Trackpoint>
            <Time>2018-08-26T05:46:35.000Z</Time>
            <Position>
              <LatitudeDegrees>42.83697076141834259033203125</LatitudeDegrees>
              <LongitudeDegrees>-1.6568000055849552154541015625</LongitudeDegrees>
            </Position>
            <AltitudeMeters>433.399993896484375</AltitudeMeters>
            <DistanceMeters>4570.740582382</DistanceMeters>
          </Trackpoint>
          <Trackpoint>
            <Time>2018-08-26T05:46:36.000Z</Time>
            <Position>
              <LatitudeDegrees>42.836984507739543914794921875</LatitudeDegrees>
              <LongitudeDegrees>-1.65690888650715351104736328125</LongitudeDegrees>
            </Position>
            <AltitudeMeters>433.399993896484375</AltitudeMeters>
            <DistanceMeters>4579.7576111777</DistanceMeters>
          </Trackpoint>
          <Trackpoint>
            <Time>2018-08-26T05:46:37.000Z</Time>
            <Position>
              <LatitudeDegrees>42.836998589336872100830078125</LatitudeDegrees>
              <LongitudeDegrees>-1.65701734833419322967529296875</LongitudeDegrees>
            </Position>
            <AltitudeMeters>433.399993896484375</AltitudeMeters>
            <DistanceMeters>4588.7475602417</DistanceMeters>
          </Trackpoint>
          <Trackpoint>
            <Time>2018-08-26T05:46:38.000Z</Time>
            <Position>
              <LatitudeDegrees>42.83701241947710514068603515625</LatitudeDegrees>
              <LongitudeDegrees>-1.65712530724704265594482421875</LongitudeDegrees>
            </Position>
            <AltitudeMeters>433.399993896484375</AltitudeMeters>
            <DistanceMeters>4597.692698998</DistanceMeters>
          </Trackpoint>
          <Trackpoint>
            <Time>2018-08-26T05:46:39.000Z</Time>
            <Position>
              <LatitudeDegrees>42.83702549524605274200439453125</LatitudeDegrees>
              <LongitudeDegrees>-1.6572318412363529205322265625</LongitudeDegrees>
            </Position>
            <AltitudeMeters>433.20001220703125</AltitudeMeters>
            <DistanceMeters>4606.5092118024</DistanceMeters>
          </Trackpoint>
          <Trackpoint>
            <Time>2018-08-26T05:46:40.000Z</Time>
            <Position>
              <LatitudeDegrees>42.83703890629112720489501953125</LatitudeDegrees>
              <LongitudeDegrees>-1.65733770467340946197509765625</LongitudeDegrees>
            </Position>
            <AltitudeMeters>433.20001220703125</AltitudeMeters>
            <DistanceMeters>4615.2774539776</DistanceMeters>
          </Trackpoint>
          <Trackpoint>
            <Time>2018-08-26T05:46:41.000Z</Time>
            <Position>
              <LatitudeDegrees>42.83705122768878936767578125</LatitudeDegrees>
              <LongitudeDegrees>-1.65744348429143428802490234375</LongitudeDegrees>
            </Position>
            <AltitudeMeters>433.20001220703125</AltitudeMeters>
            <DistanceMeters>4624.0188787396</DistanceMeters>
          </Trackpoint>
          <Trackpoint>
            <Time>2018-08-26T05:46:42.000Z</Time>
            <Position>
              <LatitudeDegrees>42.83706304617226123809814453125</LatitudeDegrees>
              <LongitudeDegrees>-1.657548509538173675537109375</LongitudeDegrees>
            </Position>
            <AltitudeMeters>433.20001220703125</AltitudeMeters>
            <DistanceMeters>4632.6908148916</DistanceMeters>
          </Trackpoint>
          <Trackpoint>
            <Time>2018-08-26T05:46:43.000Z</Time>
            <Position>
              <LatitudeDegrees>42.837075032293796539306640625</LatitudeDegrees>
              <LongitudeDegrees>-1.6576529480516910552978515625</LongitudeDegrees>
            </Position>
            <AltitudeMeters>433.20001220703125</AltitudeMeters>
            <DistanceMeters>4641.318905654</DistanceMeters>
          </Trackpoint>
          <Trackpoint>
            <Time>2018-08-26T05:46:44.000Z</Time>
            <Position>
              <LatitudeDegrees>42.83708651550114154815673828125</LatitudeDegrees>
              <LongitudeDegrees>-1.6577567160129547119140625</LongitudeDegrees>
            </Position>
            <AltitudeMeters>433.20001220703125</AltitudeMeters>
            <DistanceMeters>4649.8839708044</DistanceMeters>
          </Trackpoint>
          <Trackpoint>
            <Time>2018-08-26T05:46:45.000Z</Time>
            <Position>
              <LatitudeDegrees>42.837096489965915679931640625</LatitudeDegrees>
              <LongitudeDegrees>-1.65786056779325008392333984375</LongitudeDegrees>
            </Position>
            <AltitudeMeters>433.20001220703125</AltitudeMeters>
            <DistanceMeters>4658.4321506449</DistanceMeters>
          </Trackpoint>
          <Trackpoint>
            <Time>2018-08-26T05:46:46.000Z</Time>
            <Position>
              <LatitudeDegrees>42.8371063806116580963134765625</LatitudeDegrees>
              <LongitudeDegrees>-1.6579637490212917327880859375</LongitudeDegrees>
            </Position>
            <AltitudeMeters>433.20001220703125</AltitudeMeters>
            <DistanceMeters>4666.9246897562</DistanceMeters>
          </Trackpoint>
          <Trackpoint>
            <Time>2018-08-26T05:46:47.000Z</Time>
            <Position>
              <LatitudeDegrees>42.8371157683432102203369140625</LatitudeDegrees>
              <LongitudeDegrees>-1.65806625969707965850830078125</LongitudeDegrees>
            </Position>
            <AltitudeMeters>433.20001220703125</AltitudeMeters>
            <DistanceMeters>4675.3558677147</DistanceMeters>
          </Trackpoint>
          <Trackpoint>
            <Time>2018-08-26T05:46:48.000Z</Time>
            <Position>
              <LatitudeDegrees>42.837123982608318328857421875</LatitudeDegrees>
              <LongitudeDegrees>-1.6581679321825504302978515625</LongitudeDegrees>
            </Position>
            <AltitudeMeters>433.20001220703125</AltitudeMeters>
            <DistanceMeters>4683.7041687391</DistanceMeters>
          </Trackpoint>
          <Trackpoint>
            <Time>2018-08-26T05:46:49.000Z</Time>
            <Position>
              <LatitudeDegrees>42.8371318615972995758056640625</LatitudeDegrees>
              <LongitudeDegrees>-1.65826876647770404815673828125</LongitudeDegrees>
            </Position>
            <AltitudeMeters>433.20001220703125</AltitudeMeters>
            <DistanceMeters>4691.9807719012</DistanceMeters>
          </Trackpoint>
          <Trackpoint>
            <Time>2018-08-26T05:46:50.000Z</Time>
            <Position>
              <LatitudeDegrees>42.837138734757900238037109375</LatitudeDegrees>
              <LongitudeDegrees>-1.6583670862019062042236328125</LongitudeDegrees>
            </Position>
            <AltitudeMeters>433.20001220703125</AltitudeMeters>
            <DistanceMeters>4700.0418158839</DistanceMeters>
          </Trackpoint>
          <Trackpoint>
            <Time>2018-08-26T05:46:51.000Z</Time>
            <Position>
              <LatitudeDegrees>42.83714401535689830780029296875</LatitudeDegrees>
              <LongitudeDegrees>-1.65846507064998149871826171875</LongitudeDegrees>
            </Position>
            <AltitudeMeters>433.399993896484375</AltitudeMeters>
            <DistanceMeters>4708.0601788266</DistanceMeters>
          </Trackpoint>
          <Trackpoint>
            <Time>2018-08-26T05:46:52.000Z</Time>
            <Position>
              <LatitudeDegrees>42.83714644610881805419921875</LatitudeDegrees>
              <LongitudeDegrees>-1.6585632227361202239990234375</LongitudeDegrees>
            </Position>
            <AltitudeMeters>433.399993896484375</AltitudeMeters>
            <DistanceMeters>4716.0745991891</DistanceMeters>
          </Trackpoint>
          <Trackpoint>
            <Time>2018-08-26T05:46:53.000Z</Time>
            <Position>
              <LatitudeDegrees>42.837147451937198638916015625</LatitudeDegrees>
              <LongitudeDegrees>-1.65866129100322723388671875</LongitudeDegrees>
            </Position>
            <AltitudeMeters>433.600006103515625</AltitudeMeters>
            <DistanceMeters>4724.0794366294</DistanceMeters>
          </Trackpoint>
          <Trackpoint>
            <Time>2018-08-26T05:46:54.000Z</Time>
            <Position>
              <LatitudeDegrees>42.8371469490230083465576171875</LatitudeDegrees>
              <LongitudeDegrees>-1.65875810198485851287841796875</LongitudeDegrees>
            </Position>
            <AltitudeMeters>433.600006103515625</AltitudeMeters>
            <DistanceMeters>4731.980952214</DistanceMeters>
          </Trackpoint>
          <Trackpoint>
            <Time>2018-08-26T05:46:55.000Z</Time>
            <Position>
              <LatitudeDegrees>42.83714535646140575408935546875</LatitudeDegrees>
              <LongitudeDegrees>-1.65885449387133121490478515625</LongitudeDegrees>
            </Position>
            <AltitudeMeters>433.79998779296875</AltitudeMeters>
            <DistanceMeters>4739.8498297817</DistanceMeters>
          </Trackpoint>
          <Trackpoint>
            <Time>2018-08-26T05:46:56.000Z</Time>
            <Position>
              <LatitudeDegrees>42.83714334480464458465576171875</LatitudeDegrees>
              <LongitudeDegrees>-1.65895071811974048614501953125</LongitudeDegrees>
            </Position>
            <AltitudeMeters>434</AltitudeMeters>
            <DistanceMeters>4747.705499226</DistanceMeters>
          </Trackpoint>
          <Trackpoint>
            <Time>2018-08-26T05:46:57.000Z</Time>
            <Position>
              <LatitudeDegrees>42.8371405787765979766845703125</LatitudeDegrees>
              <LongitudeDegrees>-1.6590463556349277496337890625</LongitudeDegrees>
            </Position>
            <AltitudeMeters>434.20001220703125</AltitudeMeters>
            <DistanceMeters>4755.5167876301</DistanceMeters>
          </Trackpoint>
          <Trackpoint>
            <Time>2018-08-26T05:46:58.000Z</Time>
            <Position>
              <LatitudeDegrees>42.8371365554630756378173828125</LatitudeDegrees>
              <LongitudeDegrees>-1.65914182551205158233642578125</LongitudeDegrees>
            </Position>
            <AltitudeMeters>434.399993896484375</AltitudeMeters>
            <DistanceMeters>4763.3217152846</DistanceMeters>
          </Trackpoint>
          <Trackpoint>
            <Time>2018-08-26T05:46:59.000Z</Time>
            <Position>
              <LatitudeDegrees>42.83713043667376041412353515625</LatitudeDegrees>
              <LongitudeDegrees>-1.65923737920820713043212890625</LongitudeDegrees>
            </Position>
            <AltitudeMeters>434.600006103515625</AltitudeMeters>
            <DistanceMeters>4771.1497481632</DistanceMeters>
          </Trackpoint>
          <Trackpoint>
            <Time>2018-08-26T05:47:00.000Z</Time>
            <Position>
              <LatitudeDegrees>42.8371228091418743133544921875</LatitudeDegrees>
              <LongitudeDegrees>-1.65933477692306041717529296875</LongitudeDegrees>
            </Position>
            <AltitudeMeters>434.79998779296875</AltitudeMeters>
            <DistanceMeters>4779.14442646</DistanceMeters>
          </Trackpoint>
          <Trackpoint>
            <Time>2018-08-26T05:47:01.000Z</Time>
            <Position>
              <LatitudeDegrees>42.83711300231516361236572265625</LatitudeDegrees>
              <LongitudeDegrees>-1.659432090818881988525390625</LongitudeDegrees>
            </Position>
            <AltitudeMeters>435</AltitudeMeters>
            <DistanceMeters>4787.1616631491</DistanceMeters>
          </Trackpoint>
          <Trackpoint>
            <Time>2018-08-26T05:47:02.000Z</Time>
            <Position>
              <LatitudeDegrees>42.83710093237459659576416015625</LatitudeDegrees>
              <LongitudeDegrees>-1.659528315067291259765625</LongitudeDegrees>
            </Position>
            <AltitudeMeters>435.20001220703125</AltitudeMeters>
            <DistanceMeters>4795.1291870681</DistanceMeters>
          </Trackpoint>
          <Trackpoint>
            <Time>2018-08-26T05:47:03.000Z</Time>
            <Position>
              <LatitudeDegrees>42.8370876051485538482666015625</LatitudeDegrees>
              <LongitudeDegrees>-1.659624539315700531005859375</LongitudeDegrees>
            </Position>
            <AltitudeMeters>435.399993896484375</AltitudeMeters>
            <DistanceMeters>4803.1216060239</DistanceMeters>
          </Trackpoint>
          <Trackpoint>
            <Time>2018-08-26T05:47:04.000Z</Time>
            <Position>
              <LatitudeDegrees>42.83707360737025737762451171875</LatitudeDegrees>
              <LongitudeDegrees>-1.65972051210701465606689453125</LongitudeDegrees>
            </Position>
            <AltitudeMeters>435.600006103515625</AltitudeMeters>
            <DistanceMeters>4811.1083738307</DistanceMeters>
          </Trackpoint>
          <Trackpoint>
            <Time>2018-08-26T05:47:05.000Z</Time>
            <Position>
              <LatitudeDegrees>42.83705793321132659912109375</LatitudeDegrees>
              <LongitudeDegrees>-1.659815646708011627197265625</LongitudeDegrees>
            </Position>
            <AltitudeMeters>435.79998779296875</AltitudeMeters>
            <DistanceMeters>4819.0668257014</DistanceMeters>
          </Trackpoint>
          <Trackpoint>
            <Time>2018-08-26T05:47:06.000Z</Time>
            <Position>
              <LatitudeDegrees>42.83704058267176151275634765625</LatitudeDegrees>
              <LongitudeDegrees>-1.65991061367094516754150390625</LongitudeDegrees>
            </Position>
            <AltitudeMeters>435.79998779296875</AltitudeMeters>
            <DistanceMeters>4827.0547240579</DistanceMeters>
          </Trackpoint>
          <Trackpoint>
            <Time>2018-08-26T05:47:07.000Z</Time>
            <Position>
              <LatitudeDegrees>42.837022058665752410888671875</LatitudeDegrees>
              <LongitudeDegrees>-1.66000549681484699249267578125</LongitudeDegrees>
            </Position>
            <AltitudeMeters>436</AltitudeMeters>
            <DistanceMeters>4835.0685810362</DistanceMeters>
          </Trackpoint>
          <Trackpoint>
            <Time>2018-08-26T05:47:08.000Z</Time>
            <Position>
              <LatitudeDegrees>42.8370024450123310089111328125</LatitudeDegrees>
              <LongitudeDegrees>-1.66010021232068538665771484375</LongitudeDegrees>
            </Position>
            <AltitudeMeters>436.20001220703125</AltitudeMeters>
            <DistanceMeters>4843.1015709073</DistanceMeters>
          </Trackpoint>
          <Trackpoint>
            <Time>2018-08-26T05:47:09.000Z</Time>
            <Position>
              <LatitudeDegrees>42.8369816578924655914306640625</LatitudeDegrees>
              <LongitudeDegrees>-1.66019442491233348846435546875</LongitudeDegrees>
            </Position>
            <AltitudeMeters>436.399993896484375</AltitudeMeters>
            <DistanceMeters>4851.1311876982</DistanceMeters>
          </Trackpoint>
          <Trackpoint>
            <Time>2018-08-26T05:47:10.000Z</Time>
            <Position>
              <LatitudeDegrees>42.83695894293487071990966796875</LatitudeDegrees>
              <LongitudeDegrees>-1.660288386046886444091796875</LongitudeDegrees>
            </Position>
            <AltitudeMeters>436.600006103515625</AltitudeMeters>
            <DistanceMeters>4859.2056630326</DistanceMeters>
          </Trackpoint>
          <Trackpoint>
            <Time>2018-08-26T05:47:11.000Z</Time>
            <Position>
              <LatitudeDegrees>42.836934886872768402099609375</LatitudeDegrees>
              <LongitudeDegrees>-1.6603807546198368072509765625</LongitudeDegrees>
            </Position>
            <AltitudeMeters>436.600006103515625</AltitudeMeters>
            <DistanceMeters>4867.2059868907</DistanceMeters>
          </Trackpoint>
          <Trackpoint>
            <Time>2018-08-26T05:47:12.000Z</Time>
            <Position>
              <LatitudeDegrees>42.83690965734422206878662109375</LatitudeDegrees>
              <LongitudeDegrees>-1.6604719497263431549072265625</LongitudeDegrees>
            </Position>
            <AltitudeMeters>436.600006103515625</AltitudeMeters>
            <DistanceMeters>4875.161034076</DistanceMeters>
          </Trackpoint>
          <Trackpoint>
            <Time>2018-08-26T05:47:13.000Z</Time>
            <Position>
              <LatitudeDegrees>42.83688300289213657379150390625</LatitudeDegrees>
              <LongitudeDegrees>-1.66056239046156406402587890625</LongitudeDegrees>
            </Position>
            <AltitudeMeters>436.600006103515625</AltitudeMeters>
            <DistanceMeters>4883.1160812612</DistanceMeters>
          </Trackpoint>
          <Trackpoint>
            <Time>2018-08-26T05:47:14.000Z</Time>
            <Position>
              <LatitudeDegrees>42.836855091154575347900390625</LatitudeDegrees>
              <LongitudeDegrees>-1.66065283119678497314453125</LongitudeDegrees>
            </Position>
            <AltitudeMeters>436.600006103515625</AltitudeMeters>
            <DistanceMeters>4891.1254297402</DistanceMeters>
          </Trackpoint>
          <Trackpoint>
            <Time>2018-08-26T05:47:15.000Z</Time>
            <Position>
              <LatitudeDegrees>42.83682583831250667572021484375</LatitudeDegrees>
              <LongitudeDegrees>-1.66074335575103759765625</LongitudeDegrees>
            </Position>
            <AltitudeMeters>436.600006103515625</AltitudeMeters>
            <DistanceMeters>4899.1999050745</DistanceMeters>
          </Trackpoint>
          <Trackpoint>
            <Time>2018-08-26T05:47:16.000Z</Time>
            <Position>
              <LatitudeDegrees>42.83679516054689884185791015625</LatitudeDegrees>
              <LongitudeDegrees>-1.66083396412432193756103515625</LongitudeDegrees>
            </Position>
            <AltitudeMeters>436.600006103515625</AltitudeMeters>
            <DistanceMeters>4907.3456402599</DistanceMeters>
          </Trackpoint>
          <Trackpoint>
            <Time>2018-08-26T05:47:17.000Z</Time>
            <Position>
              <LatitudeDegrees>42.8367627225816249847412109375</LatitudeDegrees>
              <LongitudeDegrees>-1.66092482395470142364501953125</LongitudeDegrees>
            </Position>
            <AltitudeMeters>436.600006103515625</AltitudeMeters>
            <DistanceMeters>4915.5938276928</DistanceMeters>
          </Trackpoint>
          <Trackpoint>
            <Time>2018-08-26T05:47:18.000Z</Time>
            <Position>
              <LatitudeDegrees>42.83672944642603397369384765625</LatitudeDegrees>
              <LongitudeDegrees>-1.6610164381563663482666015625</LongitudeDegrees>
            </Position>
            <AltitudeMeters>436.600006103515625</AltitudeMeters>
            <DistanceMeters>4923.93780093</DistanceMeters>
          </Trackpoint>
          <Trackpoint>
            <Time>2018-08-26T05:47:19.000Z</Time>
            <Position>
              <LatitudeDegrees>42.83669390715658664703369140625</LatitudeDegrees>
              <LongitudeDegrees>-1.66110905818641185760498046875</LongitudeDegrees>
            </Position>
            <AltitudeMeters>436.600006103515625</AltitudeMeters>
            <DistanceMeters>4932.4690620407</DistanceMeters>
          </Trackpoint>
          <Trackpoint>
            <Time>2018-08-26T05:47:20.000Z</Time>
            <Position>
              <LatitudeDegrees>42.8366557694971561431884765625</LatitudeDegrees>
              <LongitudeDegrees>-1.6612011753022670745849609375</LongitudeDegrees>
            </Position>
            <AltitudeMeters>436.600006103515625</AltitudeMeters>
            <DistanceMeters>4941.1034300616</DistanceMeters>
          </Trackpoint>
          <Trackpoint>
            <Time>2018-08-26T05:47:21.000Z</Time>
            <Position>
              <LatitudeDegrees>42.836614362895488739013671875</LatitudeDegrees>
              <LongitudeDegrees>-1.6612918674945831298828125</LongitudeDegrees>
            </Position>
            <AltitudeMeters>436.600006103515625</AltitudeMeters>
            <DistanceMeters>4949.8231343948</DistanceMeters>
          </Trackpoint>
          <Trackpoint>
            <Time>2018-08-26T05:47:22.000Z</Time>
            <Position>
              <LatitudeDegrees>42.8365712799131870269775390625</LatitudeDegrees>
              <LongitudeDegrees>-1.661382727324962615966796875</LongitudeDegrees>
            </Position>
            <AltitudeMeters>436.79998779296875</AltitudeMeters>
            <DistanceMeters>4958.6539746816</DistanceMeters>
          </Trackpoint>
          <Trackpoint>
            <Time>2018-08-26T05:47:23.000Z</Time>
            <Position>
              <LatitudeDegrees>42.8365273587405681610107421875</LatitudeDegrees>
              <LongitudeDegrees>-1.6614744253456592559814453125</LongitudeDegrees>
            </Position>
            <AltitudeMeters>436.600006103515625</AltitudeMeters>
            <DistanceMeters>4967.5930544134</DistanceMeters>
          </Trackpoint>
          <Trackpoint>
            <Time>2018-08-26T05:47:24.000Z</Time>
            <Position>
              <LatitudeDegrees>42.83648083917796611785888671875</LatitudeDegrees>
              <LongitudeDegrees>-1.66156612336635589599609375</LongitudeDegrees>
            </Position>
            <AltitudeMeters>436.399993896484375</AltitudeMeters>
            <DistanceMeters>4976.6933198528</DistanceMeters>
          </Trackpoint>
          <Trackpoint>
            <Time>2018-08-26T05:47:25.000Z</Time>
            <Position>
              <LatitudeDegrees>42.83643155358731746673583984375</LatitudeDegrees>
              <LongitudeDegrees>-1.66165731847286224365234375</LongitudeDegrees>
            </Position>
            <AltitudeMeters>436.20001220703125</AltitudeMeters>
            <DistanceMeters>4985.9397658604</DistanceMeters>
          </Trackpoint>
          <Trackpoint>
            <Time>2018-08-26T05:47:26.000Z</Time>
            <Position>
              <LatitudeDegrees>42.8363811783492565155029296875</LatitudeDegrees>
              <LongitudeDegrees>-1.66174809448421001434326171875</LongitudeDegrees>
            </Position>
            <AltitudeMeters>436</AltitudeMeters>
            <DistanceMeters>4995.2310268515</DistanceMeters>
          </Trackpoint>
          <Trackpoint>
            <Time>2018-08-26T05:47:27.000Z</Time>
            <Position>
              <LatitudeDegrees>42.83632929436862468719482421875</LatitudeDegrees>
              <LongitudeDegrees>-1.66183828376233577728271484375</LongitudeDegrees>
            </Position>
            <AltitudeMeters>435.79998779296875</AltitudeMeters>
            <DistanceMeters>5004.586212627</DistanceMeters>
          </Trackpoint>
          <Trackpoint>
            <Time>2018-08-26T05:47:28.000Z</Time>
            <Position>
              <LatitudeDegrees>42.83627481199800968170166015625</LatitudeDegrees>
              <LongitudeDegrees>-1.661928556859493255615234375</LongitudeDegrees>
            </Position>
            <AltitudeMeters>435.79998779296875</AltitudeMeters>
            <DistanceMeters>5014.1287118207</DistanceMeters>
          </Trackpoint>
          <Trackpoint>
            <Time>2018-08-26T05:47:29.000Z</Time>
            <Position>
              <LatitudeDegrees>42.8362177312374114990234375</LatitudeDegrees>
              <LongitudeDegrees>-1.6620187461376190185546875</LongitudeDegrees>
            </Position>
            <AltitudeMeters>435.600006103515625</AltitudeMeters>
            <DistanceMeters>5023.8525963554</DistanceMeters>
          </Trackpoint>
          <Trackpoint>
            <Time>2018-08-26T05:47:30.000Z</Time>
            <Position>
              <LatitudeDegrees>42.83615863882005214691162109375</LatitudeDegrees>
              <LongitudeDegrees>-1.66210927069187164306640625</LongitudeDegrees>
            </Position>
            <AltitudeMeters>435.399993896484375</AltitudeMeters>
            <DistanceMeters>5033.744507614</DistanceMeters>
          </Trackpoint>
          <Trackpoint>
            <Time>2018-08-26T05:47:31.000Z</Time>
            <Position>
              <LatitudeDegrees>42.8360982052981853485107421875</LatitudeDegrees>
              <LongitudeDegrees>-1.662200130522251129150390625</LongitudeDegrees>
            </Position>
            <AltitudeMeters>435.399993896484375</AltitudeMeters>
            <DistanceMeters>5043.7566441794</DistanceMeters>
          </Trackpoint>
          <Trackpoint>
            <Time>2018-08-26T05:47:32.000Z</Time>
            <Position>
              <LatitudeDegrees>42.8360358439385890960693359375</LatitudeDegrees>
              <LongitudeDegrees>-1.66229140944778919219970703125</LongitudeDegrees>
            </Position>
            <AltitudeMeters>435.20001220703125</AltitudeMeters>
            <DistanceMeters>5053.9391457251</DistanceMeters>
          </Trackpoint>
          <Trackpoint>
            <Time>2018-08-26T05:47:33.000Z</Time>
            <Position>
              <LatitudeDegrees>42.8359724767506122589111328125</LatitudeDegrees>
              <LongitudeDegrees>-1.66238411329686641693115234375</LongitudeDegrees>
            </Position>
            <AltitudeMeters>434.79998779296875</AltitudeMeters>
            <DistanceMeters>5064.2826628111</DistanceMeters>
          </Trackpoint>
          <Trackpoint>
            <Time>2018-08-26T05:47:34.000Z</Time>
            <Position>
              <LatitudeDegrees>42.83590835519134998321533203125</LatitudeDegrees>
              <LongitudeDegrees>-1.66247782297432422637939453125</LongitudeDegrees>
            </Position>
            <AltitudeMeters>434.399993896484375</AltitudeMeters>
            <DistanceMeters>5074.7433734155</DistanceMeters>
          </Trackpoint>
          <Trackpoint>
            <Time>2018-08-26T05:47:35.000Z</Time>
            <Position>
              <LatitudeDegrees>42.83584280870854854583740234375</LatitudeDegrees>
              <LongitudeDegrees>-1.66257136501371860504150390625</LongitudeDegrees>
            </Position>
            <AltitudeMeters>434</AltitudeMeters>
            <DistanceMeters>5085.3028896889</DistanceMeters>
          </Trackpoint>
          <Trackpoint>
            <Time>2018-08-26T05:47:36.000Z</Time>
            <Position>
              <LatitudeDegrees>42.83577575348317623138427734375</LatitudeDegrees>
              <LongitudeDegrees>-1.66266524232923984527587890625</LongitudeDegrees>
            </Position>
            <AltitudeMeters>433.79998779296875</AltitudeMeters>
            <DistanceMeters>5095.9983564105</DistanceMeters>
          </Trackpoint>
          <Trackpoint>
            <Time>2018-08-26T05:47:37.000Z</Time>
            <Position>
              <LatitudeDegrees>42.83570903353393077850341796875</LatitudeDegrees>
              <LongitudeDegrees>-1.66275962255895137786865234375</LongitudeDegrees>
            </Position>
            <AltitudeMeters>433.399993896484375</AltitudeMeters>
            <DistanceMeters>5106.6980437497</DistanceMeters>
          </Trackpoint>
          <Trackpoint>
            <Time>2018-08-26T05:47:38.000Z</Time>
            <Position>
              <LatitudeDegrees>42.83564248122274875640869140625</LatitudeDegrees>
              <LongitudeDegrees>-1.66285467334091663360595703125</LongitudeDegrees>
            </Position>
            <AltitudeMeters>433</AltitudeMeters>
            <DistanceMeters>5117.4247037167</DistanceMeters>
          </Trackpoint>
          <Trackpoint>
            <Time>2018-08-26T05:47:39.000Z</Time>
            <Position>
              <LatitudeDegrees>42.83557609654963016510009765625</LatitudeDegrees>
              <LongitudeDegrees>-1.6629493050277233123779296875</LongitudeDegrees>
            </Position>
            <AltitudeMeters>432.399993896484375</AltitudeMeters>
            <DistanceMeters>5128.1129915634</DistanceMeters>
          </Trackpoint>
          <Trackpoint>
            <Time>2018-08-26T05:47:40.000Z</Time>
            <Position>
              <LatitudeDegrees>42.83550954423844814300537109375</LatitudeDegrees>
              <LongitudeDegrees>-1.6630445234477519989013671875</LongitudeDegrees>
            </Position>
            <AltitudeMeters>432</AltitudeMeters>
            <DistanceMeters>5138.8489077204</DistanceMeters>
          </Trackpoint>
          <Trackpoint>
            <Time>2018-08-26T05:47:41.000Z</Time>
            <Position>
              <LatitudeDegrees>42.8354424051940441131591796875</LatitudeDegrees>
              <LongitudeDegrees>-1.6631397418677806854248046875</LongitudeDegrees>
            </Position>
            <AltitudeMeters>431.600006103515625</AltitudeMeters>
            <DistanceMeters>5149.6301480937</DistanceMeters>
          </Trackpoint>
          <Trackpoint>
            <Time>2018-08-26T05:47:42.000Z</Time>
            <Position>
              <LatitudeDegrees>42.83537509851157665252685546875</LatitudeDegrees>
              <LongitudeDegrees>-1.66323445737361907958984375</LongitudeDegrees>
            </Position>
            <AltitudeMeters>431</AltitudeMeters>
            <DistanceMeters>5160.3946239717</DistanceMeters>
          </Trackpoint>
          <Trackpoint>
            <Time>2018-08-26T05:47:43.000Z</Time>
            <Position>
              <LatitudeDegrees>42.83530754037201404571533203125</LatitudeDegrees>
              <LongitudeDegrees>-1.663329340517520904541015625</LongitudeDegrees>
            </Position>
            <AltitudeMeters>430.600006103515625</AltitudeMeters>
            <DistanceMeters>5171.1892571954</DistanceMeters>
          </Trackpoint>
          <Trackpoint>
            <Time>2018-08-26T05:47:44.000Z</Time>
            <Position>
              <LatitudeDegrees>42.8352402336895465850830078125</LatitudeDegrees>
              <LongitudeDegrees>-1.663423888385295867919921875</LongitudeDegrees>
            </Position>
            <AltitudeMeters>430.20001220703125</AltitudeMeters>
            <DistanceMeters>5181.9445014626</DistanceMeters>
          </Trackpoint>
          <Trackpoint>
            <Time>2018-08-26T05:47:45.000Z</Time>
            <Position>
              <LatitudeDegrees>42.83517225645482540130615234375</LatitudeDegrees>
              <LongitudeDegrees>-1.66351717896759510040283203125</LongitudeDegrees>
            </Position>
            <AltitudeMeters>429.600006103515625</AltitudeMeters>
            <DistanceMeters>5192.6787352696</DistanceMeters>
          </Trackpoint>
          <Trackpoint>
            <Time>2018-08-26T05:47:46.000Z</Time>
            <Position>
              <LatitudeDegrees>42.8351037763059139251708984375</LatitudeDegrees>
              <LongitudeDegrees>-1.6636091284453868865966796875</LongitudeDegrees>
            </Position>
            <AltitudeMeters>429.20001220703125</AltitudeMeters>
            <DistanceMeters>5203.375046248</DistanceMeters>
          </Trackpoint>
          <Trackpoint>
            <Time>2018-08-26T05:47:47.000Z</Time>
            <Position>
              <LatitudeDegrees>42.835036553442478179931640625</LatitudeDegrees>
              <LongitudeDegrees>-1.66370174847543239593505859375</LongitudeDegrees>
            </Position>
            <AltitudeMeters>428.79998779296875</AltitudeMeters>
            <DistanceMeters>5214.0112484691</DistanceMeters>
          </Trackpoint>
          <Trackpoint>
            <Time>2018-08-26T05:47:48.000Z</Time>
            <Position>
              <LatitudeDegrees>42.8349705040454864501953125</LatitudeDegrees>
              <LongitudeDegrees>-1.6637942008674144744873046875</LongitudeDegrees>
            </Position>
            <AltitudeMeters>427.79998779296875</AltitudeMeters>
            <DistanceMeters>5224.5467930516</DistanceMeters>
          </Trackpoint>
          <Trackpoint>
            <Time>2018-08-26T05:47:49.000Z</Time>
            <Position>
              <LatitudeDegrees>42.83490478992462158203125</LatitudeDegrees>
              <LongitudeDegrees>-1.66388564743101596832275390625</LongitudeDegrees>
            </Position>
            <AltitudeMeters>427.399993896484375</AltitudeMeters>
            <DistanceMeters>5234.9971396733</DistanceMeters>
          </Trackpoint>
          <Trackpoint>
            <Time>2018-08-26T05:47:50.000Z</Time>
            <Position>
              <LatitudeDegrees>42.83483999781310558319091796875</LatitudeDegrees>
              <LongitudeDegrees>-1.6639755852520465850830078125</LongitudeDegrees>
            </Position>
            <AltitudeMeters>427.20001220703125</AltitudeMeters>
            <DistanceMeters>5245.2877036257</DistanceMeters>
          </Trackpoint>
          <Trackpoint>
            <Time>2018-08-26T05:47:51.000Z</Time>
            <Position>
              <LatitudeDegrees>42.83477562479674816131591796875</LatitudeDegrees>
              <LongitudeDegrees>-1.6640647687017917633056640625</LongitudeDegrees>
            </Position>
            <AltitudeMeters>426.79998779296875</AltitudeMeters>
            <DistanceMeters>5255.5011968127</DistanceMeters>
          </Trackpoint>
          <Trackpoint>
            <Time>2018-08-26T05:47:52.000Z</Time>
            <Position>
              <LatitudeDegrees>42.8347130119800567626953125</LatitudeDegrees>
              <LongitudeDegrees>-1.66415319778025150299072265625</LongitudeDegrees>
            </Position>
            <AltitudeMeters>426.399993896484375</AltitudeMeters>
            <DistanceMeters>5265.5336058974</DistanceMeters>
          </Trackpoint>
          <Trackpoint>
            <Time>2018-08-26T05:47:53.000Z</Time>
            <Position>
              <LatitudeDegrees>42.83465123735368251800537109375</LatitudeDegrees>
              <LongitudeDegrees>-1.66424095630645751953125</LongitudeDegrees>
            </Position>
            <AltitudeMeters>426</AltitudeMeters>
            <DistanceMeters>5275.4628744815</DistanceMeters>
          </Trackpoint>
          <Trackpoint>
            <Time>2018-08-26T05:47:54.000Z</Time>
            <Position>
              <LatitudeDegrees>42.83459239639341831207275390625</LatitudeDegrees>
              <LongitudeDegrees>-1.66432670317590236663818359375</LongitudeDegrees>
            </Position>
            <AltitudeMeters>425.600006103515625</AltitudeMeters>
            <DistanceMeters>5285.0478626266</DistanceMeters>
          </Trackpoint>
          <Trackpoint>
            <Time>2018-08-26T05:47:55.000Z</Time>
            <Position>
              <LatitudeDegrees>42.8345405124127864837646484375</LatitudeDegrees>
              <LongitudeDegrees>-1.66440867818892002105712890625</LongitudeDegrees>
            </Position>
            <AltitudeMeters>425.20001220703125</AltitudeMeters>
            <DistanceMeters>5293.8858579445</DistanceMeters>
          </Trackpoint>
          <Trackpoint>
            <Time>2018-08-26T05:47:56.000Z</Time>
            <Position>
              <LatitudeDegrees>42.83449784852564334869384765625</LatitudeDegrees>
              <LongitudeDegrees>-1.66448679752647876739501953125</LongitudeDegrees>
            </Position>
            <AltitudeMeters>424.79998779296875</AltitudeMeters>
            <DistanceMeters>5301.8352274135</DistanceMeters>
          </Trackpoint>
          <Trackpoint>
            <Time>2018-08-26T05:47:57.000Z</Time>
            <Position>
              <LatitudeDegrees>42.83446616493165493011474609375</LatitudeDegrees>
              <LongitudeDegrees>-1.66456374339759349822998046875</LongitudeDegrees>
            </Position>
            <AltitudeMeters>424.600006103515625</AltitudeMeters>
            <DistanceMeters>5309.0384780164</DistanceMeters>
          </Trackpoint>
          <Trackpoint>
            <Time>2018-08-26T05:47:58.000Z</Time>
            <Position>
              <LatitudeDegrees>42.8344452939927577972412109375</LatitudeDegrees>
              <LongitudeDegrees>-1.66464303620159626007080078125</LongitudeDegrees>
            </Position>
            <AltitudeMeters>424.600006103515625</AltitudeMeters>
            <DistanceMeters>5315.9139743755</DistanceMeters>
          </Trackpoint>
          <Trackpoint>
            <Time>2018-08-26T05:47:59.000Z</Time>
            <Position>
              <LatitudeDegrees>42.83443096093833446502685546875</LatitudeDegrees>
              <LongitudeDegrees>-1.6647250950336456298828125</LongitudeDegrees>
            </Position>
            <AltitudeMeters>424.600006103515625</AltitudeMeters>
            <DistanceMeters>5322.7993139699</DistanceMeters>
          </Trackpoint>
          <Trackpoint>
            <Time>2018-08-26T05:48:00.000Z</Time>
            <Position>
              <LatitudeDegrees>42.83441788516938686370849609375</LatitudeDegrees>
              <LongitudeDegrees>-1.66480958461761474609375</LongitudeDegrees>
            </Position>
            <AltitudeMeters>424.399993896484375</AltitudeMeters>
            <DistanceMeters>5329.8466837234</DistanceMeters>
          </Trackpoint>
          <Trackpoint>
            <Time>2018-08-26T05:48:01.000Z</Time>
            <Position>
              <LatitudeDegrees>42.8343986906111240386962890625</LatitudeDegrees>
              <LongitudeDegrees>-1.66489474475383758544921875</LongitudeDegrees>
            </Position>
            <AltitudeMeters>424.399993896484375</AltitudeMeters>
            <DistanceMeters>5337.1185560858</DistanceMeters>
          </Trackpoint>
          <Trackpoint>
            <Time>2018-08-26T05:48:02.000Z</Time>
            <Position>
              <LatitudeDegrees>42.83436901867389678955078125</LatitudeDegrees>
              <LongitudeDegrees>-1.664975546300411224365234375</LongitudeDegrees>
            </Position>
            <AltitudeMeters>424.399993896484375</AltitudeMeters>
            <DistanceMeters>5344.494000513</DistanceMeters>
          </Trackpoint>
          <Trackpoint>
            <Time>2018-08-26T05:48:03.000Z</Time>
            <Position>
              <LatitudeDegrees>42.83432685770094394683837890625</LatitudeDegrees>
              <LongitudeDegrees>-1.66504628956317901611328125</LongitudeDegrees>
            </Position>
            <AltitudeMeters>424.399993896484375</AltitudeMeters>
            <DistanceMeters>5351.9352657787</DistanceMeters>
          </Trackpoint>
          <Trackpoint>
            <Time>2018-08-26T05:48:04.000Z</Time>
            <Position>
              <LatitudeDegrees>42.8342719562351703643798828125</LatitudeDegrees>
              <LongitudeDegrees>-1.6651034541428089141845703125</LongitudeDegrees>
            </Position>
            <AltitudeMeters>424.399993896484375</AltitudeMeters>
            <DistanceMeters>5359.623625838</DistanceMeters>
          </Trackpoint>
          <Trackpoint>
            <Time>2018-08-26T05:48:05.000Z</Time>
            <Position>
              <LatitudeDegrees>42.83420833759009838104248046875</LatitudeDegrees>
              <LongitudeDegrees>-1.665147878229618072509765625</LongitudeDegrees>
            </Position>
            <AltitudeMeters>424.399993896484375</AltitudeMeters>
            <DistanceMeters>5367.579240572</DistanceMeters>
          </Trackpoint>
          <Trackpoint>
            <Time>2018-08-26T05:48:06.000Z</Time>
            <Position>
              <LatitudeDegrees>42.8341408632695674896240234375</LatitudeDegrees>
              <LongitudeDegrees>-1.66518584825098514556884765625</LongitudeDegrees>
            </Position>
            <AltitudeMeters>424.399993896484375</AltitudeMeters>
            <DistanceMeters>5375.7038857215</DistanceMeters>
          </Trackpoint>
          <Trackpoint>
            <Time>2018-08-26T05:48:07.000Z</Time>
            <Position>
              <LatitudeDegrees>42.8340721316635608673095703125</LatitudeDegrees>
              <LongitudeDegrees>-1.66522440500557422637939453125</LongitudeDegrees>
            </Position>
            <AltitudeMeters>424.399993896484375</AltitudeMeters>
            <DistanceMeters>5383.9761235863</DistanceMeters>
          </Trackpoint>
          <Trackpoint>
            <Time>2018-08-26T05:48:08.000Z</Time>
            <Position>
              <LatitudeDegrees>42.83400381915271282196044921875</LatitudeDegrees>
              <LongitudeDegrees>-1.66526983492076396942138671875</LongitudeDegrees>
            </Position>
            <AltitudeMeters>424.399993896484375</AltitudeMeters>
            <DistanceMeters>5392.4351025875</DistanceMeters>
          </Trackpoint>
          <Trackpoint>
            <Time>2018-08-26T05:48:09.000Z</Time>
            <Position>
              <LatitudeDegrees>42.8339378535747528076171875</LatitudeDegrees>
              <LongitudeDegrees>-1.6653237305581569671630859375</LongitudeDegrees>
            </Position>
            <AltitudeMeters>424.399993896484375</AltitudeMeters>
            <DistanceMeters>5400.9938396505</DistanceMeters>
          </Trackpoint>
          <Trackpoint>
            <Time>2018-08-26T05:48:10.000Z</Time>
            <Position>
              <LatitudeDegrees>42.83387591131031513214111328125</LatitudeDegrees>
              <LongitudeDegrees>-1.66538718156516551971435546875</LongitudeDegrees>
            </Position>
            <AltitudeMeters>424.399993896484375</AltitudeMeters>
            <DistanceMeters>5409.6166958733</DistanceMeters>
          </Trackpoint>
          <Trackpoint>
            <Time>2018-08-26T05:48:11.000Z</Time>
            <Position>
              <LatitudeDegrees>42.83381807617843151092529296875</LatitudeDegrees>
              <LongitudeDegrees>-1.66545859538018703460693359375</LongitudeDegrees>
            </Position>
            <AltitudeMeters>424.399993896484375</AltitudeMeters>
            <DistanceMeters>5418.3005987046</DistanceMeters>
          </Trackpoint>
          <Trackpoint>
            <Time>2018-08-26T05:48:12.000Z</Time>
            <Position>
              <LatitudeDegrees>42.83376283943653106689453125</LatitudeDegrees>
              <LongitudeDegrees>-1.66553386487066745758056640625</LongitudeDegrees>
            </Position>
            <AltitudeMeters>424.399993896484375</AltitudeMeters>
            <DistanceMeters>5426.9922970156</DistanceMeters>
          </Trackpoint>
          <Trackpoint>
            <Time>2018-08-26T05:48:13.000Z</Time>
            <Position>
              <LatitudeDegrees>42.83370793797075748443603515625</LatitudeDegrees>
              <LongitudeDegrees>-1.6656102240085601806640625</LongitudeDegrees>
            </Position>
            <AltitudeMeters>424.399993896484375</AltitudeMeters>
            <DistanceMeters>5435.7207994621</DistanceMeters>
          </Trackpoint>
          <Trackpoint>
            <Time>2018-08-26T05:48:14.000Z</Time>
            <Position>
              <LatitudeDegrees>42.8336530365049839019775390625</LatitudeDegrees>
              <LongitudeDegrees>-1.66568658314645290374755859375</LongitudeDegrees>
            </Position>
            <AltitudeMeters>424.399993896484375</AltitudeMeters>
            <DistanceMeters>5444.4493019085</DistanceMeters>
          </Trackpoint>
          <Trackpoint>
            <Time>2018-08-26T05:48:15.000Z</Time>
            <Position>
              <LatitudeDegrees>42.83359779976308345794677734375</LatitudeDegrees>
              <LongitudeDegrees>-1.6657629422843456268310546875</LongitudeDegrees>
            </Position>
            <AltitudeMeters>424.399993896484375</AltitudeMeters>
            <DistanceMeters>5453.2036299113</DistanceMeters>
          </Trackpoint>
          <Trackpoint>
            <Time>2018-08-26T05:48:16.000Z</Time>
            <Position>
              <LatitudeDegrees>42.83354289829730987548828125</LatitudeDegrees>
              <LongitudeDegrees>-1.6658397205173969268798828125</LongitudeDegrees>
            </Position>
            <AltitudeMeters>424.399993896484375</AltitudeMeters>
            <DistanceMeters>5461.9564105295</DistanceMeters>
          </Trackpoint>
          <Trackpoint>
            <Time>2018-08-26T05:48:17.000Z</Time>
            <Position>
              <LatitudeDegrees>42.833488248288631439208984375</LatitudeDegrees>
              <LongitudeDegrees>-1.665917672216892242431640625</LongitudeDegrees>
            </Position>
            <AltitudeMeters>423.79998779296875</AltitudeMeters>
            <DistanceMeters>5470.7585725304</DistanceMeters>
          </Trackpoint>
          <Trackpoint>
            <Time>2018-08-26T05:48:18.000Z</Time>
            <Position>
              <LatitudeDegrees>42.8334334306418895721435546875</LatitudeDegrees>
              <LongitudeDegrees>-1.6659956239163875579833984375</LongitudeDegrees>
            </Position>
            <AltitudeMeters>423.600006103515625</AltitudeMeters>
            <DistanceMeters>5479.5730366504</DistanceMeters>
          </Trackpoint>
          <Trackpoint>
            <Time>2018-08-26T05:48:19.000Z</Time>
            <Position>
              <LatitudeDegrees>42.833378612995147705078125</LatitudeDegrees>
              <LongitudeDegrees>-1.6660737432539463043212890625</LongitudeDegrees>
            </Position>
            <AltitudeMeters>423.399993896484375</AltitudeMeters>
            <DistanceMeters>5488.3977394359</DistanceMeters>
          </Trackpoint>
          <Trackpoint>
            <Time>2018-08-26T05:48:20.000Z</Time>
            <Position>
              <LatitudeDegrees>42.83332371152937412261962890625</LatitudeDegrees>
              <LongitudeDegrees>-1.666152365505695343017578125</LongitudeDegrees>
            </Position>
            <AltitudeMeters>423.399993896484375</AltitudeMeters>
            <DistanceMeters>5497.259203466</DistanceMeters>
          </Trackpoint>
          <Trackpoint>
            <Time>2018-08-26T05:48:21.000Z</Time>
            <Position>
              <LatitudeDegrees>42.833268642425537109375</LatitudeDegrees>
              <LongitudeDegrees>-1.66622973047196865081787109375</LongitudeDegrees>
            </Position>
            <AltitudeMeters>423.20001220703125</AltitudeMeters>
            <DistanceMeters>5506.0593134417</DistanceMeters>
          </Trackpoint>
          <Trackpoint>
            <Time>2018-08-26T05:48:22.000Z</Time>
            <Position>
              <LatitudeDegrees>42.833213321864604949951171875</LatitudeDegrees>
              <LongitudeDegrees>-1.66630768217146396636962890625</LongitudeDegrees>
            </Position>
            <AltitudeMeters>423.20001220703125</AltitudeMeters>
            <DistanceMeters>5514.9126214976</DistanceMeters>
          </Trackpoint>
          <Trackpoint>
            <Time>2018-08-26T05:48:23.000Z</Time>
            <Position>
              <LatitudeDegrees>42.83315842039883136749267578125</LatitudeDegrees>
              <LongitudeDegrees>-1.66638680733740329742431640625</LongitudeDegrees>
            </Position>
            <AltitudeMeters>423</AltitudeMeters>
            <DistanceMeters>5523.8035882162</DistanceMeters>
          </Trackpoint>
          <Trackpoint>
            <Time>2018-08-26T05:48:24.000Z</Time>
            <Position>
              <LatitudeDegrees>42.8331036865711212158203125</LatitudeDegrees>
              <LongitudeDegrees>-1.666464172303676605224609375</LongitudeDegrees>
            </Position>
            <AltitudeMeters>423</AltitudeMeters>
            <DistanceMeters>5532.5780073856</DistanceMeters>
          </Trackpoint>
          <Trackpoint>
            <Time>2018-08-26T05:48:25.000Z</Time>
            <Position>
              <LatitudeDegrees>42.83304878510534763336181640625</LatitudeDegrees>
              <LongitudeDegrees>-1.6665414534509181976318359375</LongitudeDegrees>
            </Position>
            <AltitudeMeters>423</AltitudeMeters>
            <DistanceMeters>5541.3601416881</DistanceMeters>
          </Trackpoint>
          <Trackpoint>
            <Time>2018-08-26T05:48:26.000Z</Time>
            <Position>
              <LatitudeDegrees>42.83299396745860576629638671875</LatitudeDegrees>
              <LongitudeDegrees>-1.66661831550300121307373046875</LongitudeDegrees>
            </Position>
            <AltitudeMeters>423</AltitudeMeters>
            <DistanceMeters>5550.1118905647</DistanceMeters>
          </Trackpoint>
          <Trackpoint>
            <Time>2018-08-26T05:48:27.000Z</Time>
            <Position>
              <LatitudeDegrees>42.83293931744992733001708984375</LatitudeDegrees>
              <LongitudeDegrees>-1.66669609956443309783935546875</LongitudeDegrees>
            </Position>
            <AltitudeMeters>422.79998779296875</AltitudeMeters>
            <DistanceMeters>5558.9048146809</DistanceMeters>
          </Trackpoint>
          <Trackpoint>
            <Time>2018-08-26T05:48:28.000Z</Time>
            <Position>
              <LatitudeDegrees>42.832885086536407470703125</LatitudeDegrees>
              <LongitudeDegrees>-1.666773967444896697998046875</LongitudeDegrees>
            </Position>
            <AltitudeMeters>422.79998779296875</AltitudeMeters>
            <DistanceMeters>5567.6699667266</DistanceMeters>
          </Trackpoint>
          <Trackpoint>
            <Time>2018-08-26T05:48:29.000Z</Time>
            <Position>
              <LatitudeDegrees>42.83283068798482418060302734375</LatitudeDegrees>
              <LongitudeDegrees>-1.66685150004923343658447265625</LongitudeDegrees>
            </Position>
            <AltitudeMeters>422.79998779296875</AltitudeMeters>
            <DistanceMeters>5576.4279042301</DistanceMeters>
          </Trackpoint>
          <Trackpoint>
            <Time>2018-08-26T05:48:30.000Z</Time>
            <Position>
              <LatitudeDegrees>42.83277654089033603668212890625</LatitudeDegrees>
              <LongitudeDegrees>-1.6669280268251895904541015625</LongitudeDegrees>
            </Position>
            <AltitudeMeters>422.79998779296875</AltitudeMeters>
            <DistanceMeters>5585.108166775</DistanceMeters>
          </Trackpoint>
          <Trackpoint>
            <Time>2018-08-26T05:48:31.000Z</Time>
            <Position>
              <LatitudeDegrees>42.8327239863574504852294921875</LatitudeDegrees>
              <LongitudeDegrees>-1.66700522415339946746826171875</LongitudeDegrees>
            </Position>
            <AltitudeMeters>422.79998779296875</AltitudeMeters>
            <DistanceMeters>5593.7058528457</DistanceMeters>
          </Trackpoint>
          <Trackpoint>
            <Time>2018-08-26T05:48:32.000Z</Time>
            <Position>
              <LatitudeDegrees>42.8326757065951824188232421875</LatitudeDegrees>
              <LongitudeDegrees>-1.66708703152835369110107421875</LongitudeDegrees>
            </Position>
            <AltitudeMeters>422.600006103515625</AltitudeMeters>
            <DistanceMeters>5602.2767146385</DistanceMeters>
          </Trackpoint>
          <Trackpoint>
            <Time>2018-08-26T05:48:33.000Z</Time>
            <Position>
              <LatitudeDegrees>42.83263471908867359161376953125</LatitudeDegrees>
              <LongitudeDegrees>-1.667176298797130584716796875</LongitudeDegrees>
            </Position>
            <AltitudeMeters>422.600006103515625</AltitudeMeters>
            <DistanceMeters>5610.8733503536</DistanceMeters>
          </Trackpoint>
          <Trackpoint>
            <Time>2018-08-26T05:48:34.000Z</Time>
            <Position>
              <LatitudeDegrees>42.83259968273341655731201171875</LatitudeDegrees>
              <LongitudeDegrees>-1.6672706790268421173095703125</LongitudeDegrees>
            </Position>
            <AltitudeMeters>422.600006103515625</AltitudeMeters>
            <DistanceMeters>5619.5077183745</DistanceMeters>
          </Trackpoint>
          <Trackpoint>
            <Time>2018-08-26T05:48:35.000Z</Time>
            <Position>
              <LatitudeDegrees>42.8325677476823329925537109375</LatitudeDegrees>
              <LongitudeDegrees>-1.66736648418009281158447265625</LongitudeDegrees>
            </Position>
            <AltitudeMeters>422.600006103515625</AltitudeMeters>
            <DistanceMeters>5628.0980492587</DistanceMeters>
          </Trackpoint>
          <Trackpoint>
            <Time>2018-08-26T05:48:36.000Z</Time>
            <Position>
              <LatitudeDegrees>42.8325355611741542816162109375</LatitudeDegrees>
              <LongitudeDegrees>-1.66746161878108978271484375</LongitudeDegrees>
            </Position>
            <AltitudeMeters>422.399993896484375</AltitudeMeters>
            <DistanceMeters>5636.6493976345</DistanceMeters>
          </Trackpoint>
          <Trackpoint>
            <Time>2018-08-26T05:48:37.000Z</Time>
            <Position>
              <LatitudeDegrees>42.8324986808001995086669921875</LatitudeDegrees>
              <LongitudeDegrees>-1.66755273006856441497802734375</LongitudeDegrees>
            </Position>
            <AltitudeMeters>422.399993896484375</AltitudeMeters>
            <DistanceMeters>5645.1435315389</DistanceMeters>
          </Trackpoint>
          <Trackpoint>
            <Time>2018-08-26T05:48:38.000Z</Time>
            <Position>
              <LatitudeDegrees>42.83245115540921688079833984375</LatitudeDegrees>
              <LongitudeDegrees>-1.6676327772438526153564453125</LongitudeDegrees>
            </Position>
            <AltitudeMeters>422.399993896484375</AltitudeMeters>
            <DistanceMeters>5653.5505766992</DistanceMeters>
          </Trackpoint>
          <Trackpoint>
            <Time>2018-08-26T05:48:39.000Z</Time>
            <Position>
              <LatitudeDegrees>42.83239147625863552093505859375</LatitudeDegrees>
              <LongitudeDegrees>-1.6676964797079563140869140625</LongitudeDegrees>
            </Position>
            <AltitudeMeters>422.399993896484375</AltitudeMeters>
            <DistanceMeters>5661.9860377049</DistanceMeters>
          </Trackpoint>
          <Trackpoint>
            <Time>2018-08-26T05:48:40.000Z</Time>
            <Position>
              <LatitudeDegrees>42.83232375048100948333740234375</LatitudeDegrees>
              <LongitudeDegrees>-1.66774400509893894195556640625</LongitudeDegrees>
            </Position>
            <AltitudeMeters>422.399993896484375</AltitudeMeters>
            <DistanceMeters>5670.4642101786</DistanceMeters>
          </Trackpoint>
          <Trackpoint>
            <Time>2018-08-26T05:48:41.000Z</Time>
            <Position>
              <LatitudeDegrees>42.83225283958017826080322265625</LatitudeDegrees>
              <LongitudeDegrees>-1.66778507642447948455810546875</LongitudeDegrees>
            </Position>
            <AltitudeMeters>422.399993896484375</AltitudeMeters>
            <DistanceMeters>5679.0387587035</DistanceMeters>
          </Trackpoint>
          <Trackpoint>
            <Time>2018-08-26T05:48:42.000Z</Time>
            <Position>
              <LatitudeDegrees>42.8321815095841884613037109375</LatitudeDegrees>
              <LongitudeDegrees>-1.66782933287322521209716796875</LongitudeDegrees>
            </Position>
            <AltitudeMeters>422.399993896484375</AltitudeMeters>
            <DistanceMeters>5687.7605339795</DistanceMeters>
          </Trackpoint>
          <Trackpoint>
            <Time>2018-08-26T05:48:43.000Z</Time>
            <Position>
              <LatitudeDegrees>42.8321134485304355621337890625</LatitudeDegrees>
              <LongitudeDegrees>-1.6678793728351593017578125</LongitudeDegrees>
            </Position>
            <AltitudeMeters>422.20001220703125</AltitudeMeters>
            <DistanceMeters>5696.3666182803</DistanceMeters>
          </Trackpoint>
          <Trackpoint>
            <Time>2018-08-26T05:48:44.000Z</Time>
            <Position>
              <LatitudeDegrees>42.83204949460923671722412109375</LatitudeDegrees>
              <LongitudeDegrees>-1.66793678887188434600830078125</LongitudeDegrees>
            </Position>
            <AltitudeMeters>422.20001220703125</AltitudeMeters>
            <DistanceMeters>5704.8894074315</DistanceMeters>
          </Trackpoint>
          <Trackpoint>
            <Time>2018-08-26T05:48:45.000Z</Time>
            <Position>
              <LatitudeDegrees>42.83198989927768707275390625</LatitudeDegrees>
              <LongitudeDegrees>-1.6680009104311466217041015625</LongitudeDegrees>
            </Position>
            <AltitudeMeters>422.20001220703125</AltitudeMeters>
            <DistanceMeters>5713.3387733465</DistanceMeters>
          </Trackpoint>
          <Trackpoint>
            <Time>2018-08-26T05:48:46.000Z</Time>
            <Position>
              <LatitudeDegrees>42.83193357288837432861328125</LatitudeDegrees>
              <LongitudeDegrees>-1.66806737892329692840576171875</LongitudeDegrees>
            </Position>
            <AltitudeMeters>422.20001220703125</AltitudeMeters>
            <DistanceMeters>5721.6300924194</DistanceMeters>
          </Trackpoint>
          <Trackpoint>
            <Time>2018-08-26T05:48:47.000Z</Time>
            <Position>
              <LatitudeDegrees>42.83187950961291790008544921875</LatitudeDegrees>
              <LongitudeDegrees>-1.6681350208818912506103515625</LongitudeDegrees>
            </Position>
            <AltitudeMeters>422.20001220703125</AltitudeMeters>
            <DistanceMeters>5729.7968631774</DistanceMeters>
          </Trackpoint>
          <Trackpoint>
            <Time>2018-08-26T05:48:48.000Z</Time>
            <Position>
              <LatitudeDegrees>42.83182703889906406402587890625</LatitudeDegrees>
              <LongitudeDegrees>-1.66820316575467586517333984375</LongitudeDegrees>
            </Position>
            <AltitudeMeters>422.20001220703125</AltitudeMeters>
            <DistanceMeters>5737.8612670952</DistanceMeters>
          </Trackpoint>
          <Trackpoint>
            <Time>2018-08-26T05:48:49.000Z</Time>
            <Position>
              <LatitudeDegrees>42.83177540637552738189697265625</LatitudeDegrees>
              <LongitudeDegrees>-1.66827055625617504119873046875</LongitudeDegrees>
            </Position>
            <AltitudeMeters>422.20001220703125</AltitudeMeters>
            <DistanceMeters>5745.8163142805</DistanceMeters>
          </Trackpoint>
          <Trackpoint>
            <Time>2018-08-26T05:48:50.000Z</Time>
            <Position>
              <LatitudeDegrees>42.83172511495649814605712890625</LatitudeDegrees>
              <LongitudeDegrees>-1.66833660565316677093505859375</LongitudeDegrees>
            </Position>
            <AltitudeMeters>422.20001220703125</AltitudeMeters>
            <DistanceMeters>5753.5887792312</DistanceMeters>
          </Trackpoint>
          <Trackpoint>
            <Time>2018-08-26T05:48:51.000Z</Time>
            <Position>
              <LatitudeDegrees>42.83167532645165920257568359375</LatitudeDegrees>
              <LongitudeDegrees>-1.66840265505015850067138671875</LongitudeDegrees>
            </Position>
            <AltitudeMeters>422.20001220703125</AltitudeMeters>
            <DistanceMeters>5761.3204741333</DistanceMeters>
          </Trackpoint>
          <Trackpoint>
            <Time>2018-08-26T05:48:52.000Z</Time>
            <Position>
              <LatitudeDegrees>42.83162486739456653594970703125</LatitudeDegrees>
              <LongitudeDegrees>-1.6684672795236110687255859375</LongitudeDegrees>
            </Position>
            <AltitudeMeters>422.20001220703125</AltitudeMeters>
            <DistanceMeters>5769.0252598242</DistanceMeters>
          </Trackpoint>
          <Trackpoint>
            <Time>2018-08-26T05:48:53.000Z</Time>
            <Position>
              <LatitudeDegrees>42.8315743245184421539306640625</LatitudeDegrees>
              <LongitudeDegrees>-1.66853089816868305206298828125</LongitudeDegrees>
            </Position>
            <AltitudeMeters>422.399993896484375</AltitudeMeters>
            <DistanceMeters>5776.6806628914</DistanceMeters>
          </Trackpoint>
          <Trackpoint>
            <Time>2018-08-26T05:48:54.000Z</Time>
            <Position>
              <LatitudeDegrees>42.83152394928038120269775390625</LatitudeDegrees>
              <LongitudeDegrees>-1.66859443299472332000732421875</LongitudeDegrees>
            </Position>
            <AltitudeMeters>422.399993896484375</AltitudeMeters>
            <DistanceMeters>5784.3183519285</DistanceMeters>
          </Trackpoint>
          <Trackpoint>
            <Time>2018-08-26T05:48:55.000Z</Time>
            <Position>
              <LatitudeDegrees>42.8314740769565105438232421875</LatitudeDegrees>
              <LongitudeDegrees>-1.66865813545882701873779296875</LongitudeDegrees>
            </Position>
            <AltitudeMeters>422.399993896484375</AltitudeMeters>
            <DistanceMeters>5791.9240517451</DistanceMeters>
          </Trackpoint>
          <Trackpoint>
            <Time>2018-08-26T05:48:56.000Z</Time>
            <Position>
              <LatitudeDegrees>42.83142504282295703887939453125</LatitudeDegrees>
              <LongitudeDegrees>-1.66872284375131130218505859375</LongitudeDegrees>
            </Position>
            <AltitudeMeters>422.600006103515625</AltitudeMeters>
            <DistanceMeters>5799.5184640494</DistanceMeters>
          </Trackpoint>
          <Trackpoint>
            <Time>2018-08-26T05:48:57.000Z</Time>
            <Position>
              <LatitudeDegrees>42.83137626014649868011474609375</LatitudeDegrees>
              <LongitudeDegrees>-1.6687854565680027008056640625</LongitudeDegrees>
            </Position>
            <AltitudeMeters>422.600006103515625</AltitudeMeters>
            <DistanceMeters>5806.9742772571</DistanceMeters>
          </Trackpoint>
          <Trackpoint>
            <Time>2018-08-26T05:48:58.000Z</Time>
            <Position>
              <LatitudeDegrees>42.83132881857454776763916015625</LatitudeDegrees>
              <LongitudeDegrees>-1.66884773410856723785400390625</LongitudeDegrees>
            </Position>
            <AltitudeMeters>422.79998779296875</AltitudeMeters>
            <DistanceMeters>5814.304280998</DistanceMeters>
          </Trackpoint>
          <Trackpoint>
            <Time>2018-08-26T05:48:59.000Z</Time>
            <Position>
              <LatitudeDegrees>42.83128313720226287841796875</LatitudeDegrees>
              <LongitudeDegrees>-1.66891160421073436737060546875</LongitudeDegrees>
            </Position>
            <AltitudeMeters>423</AltitudeMeters>
            <DistanceMeters>5821.5860808359</DistanceMeters>
          </Trackpoint>
          <Trackpoint>
            <Time>2018-08-26T05:49:00.000Z</Time>
            <Position>
              <LatitudeDegrees>42.8312368690967559814453125</LatitudeDegrees>
              <LongitudeDegrees>-1.66897329501807689666748046875</LongitudeDegrees>
            </Position>
            <AltitudeMeters>423.399993896484375</AltitudeMeters>
            <DistanceMeters>5828.7880777183</DistanceMeters>
          </Trackpoint>
          <Trackpoint>
            <Time>2018-08-26T05:49:01.000Z</Time>
            <Position>
              <LatitudeDegrees>42.8311914391815662384033203125</LatitudeDegrees>
              <LongitudeDegrees>-1.66903381235897541046142578125</LongitudeDegrees>
            </Position>
            <AltitudeMeters>423.600006103515625</AltitudeMeters>
            <DistanceMeters>5835.8565579626</DistanceMeters>
          </Trackpoint>
          <Trackpoint>
            <Time>2018-08-26T05:49:02.000Z</Time>
            <Position>
              <LatitudeDegrees>42.8311485238373279571533203125</LatitudeDegrees>
              <LongitudeDegrees>-1.6690955869853496551513671875</LongitudeDegrees>
            </Position>
            <AltitudeMeters>423.79998779296875</AltitudeMeters>
            <DistanceMeters>5842.8013141345</DistanceMeters>
          </Trackpoint>
          <Trackpoint>
            <Time>2018-08-26T05:49:03.000Z</Time>
            <Position>
              <LatitudeDegrees>42.83110736869275569915771484375</LatitudeDegrees>
              <LongitudeDegrees>-1.6691569425165653228759765625</LongitudeDegrees>
            </Position>
            <AltitudeMeters>424</AltitudeMeters>
            <DistanceMeters>5849.5875789292</DistanceMeters>
          </Trackpoint>
          <Trackpoint>
            <Time>2018-08-26T05:49:04.000Z</Time>
            <Position>
              <LatitudeDegrees>42.83106797374784946441650390625</LatitudeDegrees>
              <LongitudeDegrees>-1.669220142066478729248046875</LongitudeDegrees>
            </Position>
            <AltitudeMeters>424.20001220703125</AltitudeMeters>
            <DistanceMeters>5856.3578572123</DistanceMeters>
          </Trackpoint>
          <Trackpoint>
            <Time>2018-08-26T05:49:05.000Z</Time>
            <Position>
              <LatitudeDegrees>42.831034362316131591796875</LatitudeDegrees>
              <LongitudeDegrees>-1.669284515082836151123046875</LongitudeDegrees>
            </Position>
            <AltitudeMeters>424.399993896484375</AltitudeMeters>
            <DistanceMeters>5862.8084844883</DistanceMeters>
          </Trackpoint>
          <Trackpoint>
            <Time>2018-08-26T05:49:06.000Z</Time>
            <Position>
              <LatitudeDegrees>42.831005863845348358154296875</LatitudeDegrees>
              <LongitudeDegrees>-1.6693524084985256195068359375</LongitudeDegrees>
            </Position>
            <AltitudeMeters>424.600006103515625</AltitudeMeters>
            <DistanceMeters>5869.1936857493</DistanceMeters>
          </Trackpoint>
          <Trackpoint>
            <Time>2018-08-26T05:49:07.000Z</Time>
            <Position>
              <LatitudeDegrees>42.830980382859706878662109375</LatitudeDegrees>
              <LongitudeDegrees>-1.66942097246646881103515625</LongitudeDegrees>
            </Position>
            <AltitudeMeters>424.600006103515625</AltitudeMeters>
            <DistanceMeters>5875.4668885312</DistanceMeters>
          </Trackpoint>
          <Trackpoint>
            <Time>2018-08-26T05:49:08.000Z</Time>
            <Position>
              <LatitudeDegrees>42.8309590928256511688232421875</LatitudeDegrees>
              <LongitudeDegrees>-1.6694895364344120025634765625</LongitudeDegrees>
            </Position>
            <AltitudeMeters>424.79998779296875</AltitudeMeters>
            <DistanceMeters>5881.5441422412</DistanceMeters>
          </Trackpoint>
          <Trackpoint>
            <Time>2018-08-26T05:49:09.000Z</Time>
            <Position>
              <LatitudeDegrees>42.830944173038005828857421875</LatitudeDegrees>
              <LongitudeDegrees>-1.6695569269359111785888671875</LongitudeDegrees>
            </Position>
            <AltitudeMeters>425</AltitudeMeters>
            <DistanceMeters>5887.289919776</DistanceMeters>
          </Trackpoint>
          <Trackpoint>
            <Time>2018-08-26T05:49:10.000Z</Time>
            <Position>
              <LatitudeDegrees>42.83093604259192943572998046875</LatitudeDegrees>
              <LongitudeDegrees>-1.66962456889450550079345703125</LongitudeDegrees>
            </Position>
            <AltitudeMeters>425.20001220703125</AltitudeMeters>
            <DistanceMeters>5892.8852102091</DistanceMeters>
          </Trackpoint>
          <Trackpoint>
            <Time>2018-08-26T05:49:11.000Z</Time>
            <Position>
              <LatitudeDegrees>42.83093503676354885101318359375</LatitudeDegrees>
              <LongitudeDegrees>-1.6696930490434169769287109375</LongitudeDegrees>
            </Position>
            <AltitudeMeters>425.399993896484375</AltitudeMeters>
            <DistanceMeters>5898.475656933</DistanceMeters>
          </Trackpoint>
          <Trackpoint>
            <Time>2018-08-26T05:49:12.000Z</Time>
            <Position>
              <LatitudeDegrees>42.83093956299126148223876953125</LatitudeDegrees>
              <LongitudeDegrees>-1.6697627864778041839599609375</LongitudeDegrees>
            </Position>
            <AltitudeMeters>425.79998779296875</AltitudeMeters>
            <DistanceMeters>5904.189915977</DistanceMeters>
          </Trackpoint>
          <Trackpoint>
            <Time>2018-08-26T05:49:13.000Z</Time>
            <Position>
              <LatitudeDegrees>42.8309510461986064910888671875</LatitudeDegrees>
              <LongitudeDegrees>-1.6698328591883182525634765625</LongitudeDegrees>
            </Position>
            <AltitudeMeters>426.79998779296875</AltitudeMeters>
            <DistanceMeters>5910.0500679133</DistanceMeters>
          </Trackpoint>
          <Trackpoint>
            <Time>2018-08-26T05:49:14.000Z</Time>
            <Position>
              <LatitudeDegrees>42.83097292296588420867919921875</LatitudeDegrees>
              <LongitudeDegrees>-1.669904105365276336669921875</LongitudeDegrees>
            </Position>
            <AltitudeMeters>427.399993896484375</AltitudeMeters>
            <DistanceMeters>5916.3541432959</DistanceMeters>
          </Trackpoint>
          <Trackpoint>
            <Time>2018-08-26T05:49:15.000Z</Time>
            <Position>
              <LatitudeDegrees>42.83100393600761890411376953125</LatitudeDegrees>
              <LongitudeDegrees>-1.6699740104377269744873046875</LongitudeDegrees>
            </Position>
            <AltitudeMeters>427.79998779296875</AltitudeMeters>
            <DistanceMeters>5923.0229607688</DistanceMeters>
          </Trackpoint>
          <Trackpoint>
            <Time>2018-08-26T05:49:16.000Z</Time>
            <Position>
              <LatitudeDegrees>42.83104198984801769256591796875</LatitudeDegrees>
              <LongitudeDegrees>-1.67003880254924297332763671875</LongitudeDegrees>
            </Position>
            <AltitudeMeters>428.20001220703125</AltitudeMeters>
            <DistanceMeters>5929.79857208</DistanceMeters>
          </Trackpoint>
          <Trackpoint>
            <Time>2018-08-26T05:49:17.000Z</Time>
            <Position>
              <LatitudeDegrees>42.8310861624777317047119140625</LatitudeDegrees>
              <LongitudeDegrees>-1.67009982280433177947998046875</LongitudeDegrees>
            </Position>
            <AltitudeMeters>428.79998779296875</AltitudeMeters>
            <DistanceMeters>5936.7970815379</DistanceMeters>
          </Trackpoint>
          <Trackpoint>
            <Time>2018-08-26T05:49:18.000Z</Time>
            <Position>
              <LatitudeDegrees>42.83113201148808002471923828125</LatitudeDegrees>
              <LongitudeDegrees>-1.67016117833554744720458984375</LongitudeDegrees>
            </Position>
            <AltitudeMeters>428.79998779296875</AltitudeMeters>
            <DistanceMeters>5943.9468551531</DistanceMeters>
          </Trackpoint>
          <Trackpoint>
            <Time>2018-08-26T05:49:19.000Z</Time>
            <Position>
              <LatitudeDegrees>42.83117643557488918304443359375</LatitudeDegrees>
              <LongitudeDegrees>-1.6702263057231903076171875</LongitudeDegrees>
            </Position>
            <AltitudeMeters>429.20001220703125</AltitudeMeters>
            <DistanceMeters>5951.2075428809</DistanceMeters>
          </Trackpoint>
          <Trackpoint>
            <Time>2018-08-26T05:49:20.000Z</Time>
            <Position>
              <LatitudeDegrees>42.8312189318239688873291015625</LatitudeDegrees>
              <LongitudeDegrees>-1.670294366776943206787109375</LongitudeDegrees>
            </Position>
            <AltitudeMeters>429.20001220703125</AltitudeMeters>
            <DistanceMeters>5958.5042086066</DistanceMeters>
          </Trackpoint>
          <Trackpoint>
            <Time>2018-08-26T05:49:21.000Z</Time>
            <Position>
              <LatitudeDegrees>42.83125891350209712982177734375</LatitudeDegrees>
              <LongitudeDegrees>-1.6703646071255207061767578125</LongitudeDegrees>
            </Position>
            <AltitudeMeters>429.399993896484375</AltitudeMeters>
            <DistanceMeters>5965.7624085194</DistanceMeters>
          </Trackpoint>
          <Trackpoint>
            <Time>2018-08-26T05:49:22.000Z</Time>
            <Position>
              <LatitudeDegrees>42.83129386603832244873046875</LatitudeDegrees>
              <LongitudeDegrees>-1.6704380325973033905029296875</LongitudeDegrees>
            </Position>
            <AltitudeMeters>429.399993896484375</AltitudeMeters>
            <DistanceMeters>5972.9083921669</DistanceMeters>
          </Trackpoint>
          <Trackpoint>
            <Time>2018-08-26T05:49:23.000Z</Time>
            <Position>
              <LatitudeDegrees>42.83132412470877170562744140625</LatitudeDegrees>
              <LongitudeDegrees>-1.6705138050019741058349609375</LongitudeDegrees>
            </Position>
            <AltitudeMeters>429.399993896484375</AltitudeMeters>
            <DistanceMeters>5979.9506346954</DistanceMeters>
          </Trackpoint>
          <Trackpoint>
            <Time>2018-08-26T05:49:24.000Z</Time>
            <Position>
              <LatitudeDegrees>42.83134977333247661590576171875</LatitudeDegrees>
              <LongitudeDegrees>-1.67059334926307201385498046875</LongitudeDegrees>
            </Position>
            <AltitudeMeters>429.399993896484375</AltitudeMeters>
            <DistanceMeters>5987.0427095535</DistanceMeters>
          </Trackpoint>
          <Trackpoint>
            <Time>2018-08-26T05:49:25.000Z</Time>
            <Position>
              <LatitudeDegrees>42.8313718177378177642822265625</LatitudeDegrees>
              <LongitudeDegrees>-1.67067431844770908355712890625</LongitudeDegrees>
            </Position>
            <AltitudeMeters>429.600006103515625</AltitudeMeters>
            <DistanceMeters>5994.0913605305</DistanceMeters>
          </Trackpoint>
          <Trackpoint>
            <Time>2018-08-26T05:49:26.000Z</Time>
            <Position>
              <LatitudeDegrees>42.8313902579247951507568359375</LatitudeDegrees>
              <LongitudeDegrees>-1.670756042003631591796875</LongitudeDegrees>
            </Position>
            <AltitudeMeters>429.79998779296875</AltitudeMeters>
            <DistanceMeters>6001.0691948783</DistanceMeters>
          </Trackpoint>
          <Trackpoint>
            <Time>2018-08-26T05:49:27.000Z</Time>
            <Position>
              <LatitudeDegrees>42.83140475861728191375732421875</LatitudeDegrees>
              <LongitudeDegrees>-1.67083810083568096160888671875</LongitudeDegrees>
            </Position>
            <AltitudeMeters>429.600006103515625</AltitudeMeters>
            <DistanceMeters>6007.958467829</DistanceMeters>
          </Trackpoint>
          <Trackpoint>
            <Time>2018-08-26T05:49:28.000Z</Time>
            <Position>
              <LatitudeDegrees>42.8314174152910709381103515625</LatitudeDegrees>
              <LongitudeDegrees>-1.67092091403901576995849609375</LongitudeDegrees>
            </Position>
            <AltitudeMeters>429.79998779296875</AltitudeMeters>
            <DistanceMeters>6014.8634517989</DistanceMeters>
          </Trackpoint>
          <Trackpoint>
            <Time>2018-08-26T05:49:29.000Z</Time>
            <Position>
              <LatitudeDegrees>42.83142688684165477752685546875</LatitudeDegrees>
              <LongitudeDegrees>-1.67100473307073116302490234375</LongitudeDegrees>
            </Position>
            <AltitudeMeters>430</AltitudeMeters>
            <DistanceMeters>6021.7854157985</DistanceMeters>
          </Trackpoint>
          <Trackpoint>
            <Time>2018-08-26T05:49:30.000Z</Time>
            <Position>
              <LatitudeDegrees>42.83143040724098682403564453125</LatitudeDegrees>
              <LongitudeDegrees>-1.67108972556889057159423828125</LongitudeDegrees>
            </Position>
            <AltitudeMeters>430</AltitudeMeters>
            <DistanceMeters>6028.7334218915</DistanceMeters>
          </Trackpoint>
          <Trackpoint>
            <Time>2018-08-26T05:49:31.000Z</Time>
            <Position>
              <LatitudeDegrees>42.83142755739390850067138671875</LatitudeDegrees>
              <LongitudeDegrees>-1.671175472438335418701171875</LongitudeDegrees>
            </Position>
            <AltitudeMeters>430</AltitudeMeters>
            <DistanceMeters>6035.7396687862</DistanceMeters>
          </Trackpoint>
          <Trackpoint>
            <Time>2018-08-26T05:49:32.000Z</Time>
            <Position>
              <LatitudeDegrees>42.831421606242656707763671875</LatitudeDegrees>
              <LongitudeDegrees>-1.6712597943842411041259765625</LongitudeDegrees>
            </Position>
            <AltitudeMeters>430.20001220703125</AltitudeMeters>
            <DistanceMeters>6042.6551069392</DistanceMeters>
          </Trackpoint>
          <Trackpoint>
            <Time>2018-08-26T05:49:33.000Z</Time>
            <Position>
              <LatitudeDegrees>42.83141163177788257598876953125</LatitudeDegrees>
              <LongitudeDegrees>-1.67134487070143222808837890625</LongitudeDegrees>
            </Position>
            <AltitudeMeters>430.20001220703125</AltitudeMeters>
            <DistanceMeters>6049.6877258456</DistanceMeters>
          </Trackpoint>
          <Trackpoint>
            <Time>2018-08-26T05:49:34.000Z</Time>
            <Position>
              <LatitudeDegrees>42.8313979692757129669189453125</LatitudeDegrees>
              <LongitudeDegrees>-1.67142969556152820587158203125</LongitudeDegrees>
            </Position>
            <AltitudeMeters>430.20001220703125</AltitudeMeters>
            <DistanceMeters>6056.7772537204</DistanceMeters>
          </Trackpoint>
          <Trackpoint>
            <Time>2018-08-26T05:49:35.000Z</Time>
            <Position>
              <LatitudeDegrees>42.83138095401227474212646484375</LatitudeDegrees>
              <LongitudeDegrees>-1.67151468805968761444091796875</LongitudeDegrees>
            </Position>
            <AltitudeMeters>430.399993896484375</AltitudeMeters>
            <DistanceMeters>6063.9685851545</DistanceMeters>
          </Trackpoint>
          <Trackpoint>
            <Time>2018-08-26T05:49:36.000Z</Time>
            <Position>
              <LatitudeDegrees>42.8313600830733776092529296875</LatitudeDegrees>
              <LongitudeDegrees>-1.67159951291978359222412109375</LongitudeDegrees>
            </Position>
            <AltitudeMeters>430.600006103515625</AltitudeMeters>
            <DistanceMeters>6071.2720542996</DistanceMeters>
          </Trackpoint>
          <Trackpoint>
            <Time>2018-08-26T05:49:37.000Z</Time>
            <Position>
              <LatitudeDegrees>42.83133485354483127593994140625</LatitudeDegrees>
              <LongitudeDegrees>-1.6716825775802135467529296875</LongitudeDegrees>
            </Position>
            <AltitudeMeters>430.79998779296875</AltitudeMeters>
            <DistanceMeters>6078.6119068911</DistanceMeters>
          </Trackpoint>
          <Trackpoint>
            <Time>2018-08-26T05:49:38.000Z</Time>
            <Position>
              <LatitudeDegrees>42.83130417577922344207763671875</LatitudeDegrees>
              <LongitudeDegrees>-1.67176245711743831634521484375</LongitudeDegrees>
            </Position>
            <AltitudeMeters>431</AltitudeMeters>
            <DistanceMeters>6085.9726445351</DistanceMeters>
          </Trackpoint>
          <Trackpoint>
            <Time>2018-08-26T05:49:39.000Z</Time>
            <Position>
              <LatitudeDegrees>42.83126863650977611541748046875</LatitudeDegrees>
              <LongitudeDegrees>-1.67183890007436275482177734375</LongitudeDegrees>
            </Position>
            <AltitudeMeters>431</AltitudeMeters>
            <DistanceMeters>6093.3609333833</DistanceMeters>
          </Trackpoint>
          <Trackpoint>
            <Time>2018-08-26T05:49:40.000Z</Time>
            <Position>
              <LatitudeDegrees>42.8312293253839015960693359375</LatitudeDegrees>
              <LongitudeDegrees>-1.67191165499389171600341796875</LongitudeDegrees>
            </Position>
            <AltitudeMeters>431.399993896484375</AltitudeMeters>
            <DistanceMeters>6100.7376020522</DistanceMeters>
          </Trackpoint>
          <Trackpoint>
            <Time>2018-08-26T05:49:41.000Z</Time>
            <Position>
              <LatitudeDegrees>42.83118632622063159942626953125</LatitudeDegrees>
              <LongitudeDegrees>-1.6719789616763591766357421875</LongitudeDegrees>
            </Position>
            <AltitudeMeters>431.600006103515625</AltitudeMeters>
            <DistanceMeters>6108.0243605558</DistanceMeters>
          </Trackpoint>
          <Trackpoint>
            <Time>2018-08-26T05:49:42.000Z</Time>
            <Position>
              <LatitudeDegrees>42.8311394713819026947021484375</LatitudeDegrees>
              <LongitudeDegrees>-1.672040484845638275146484375</LongitudeDegrees>
            </Position>
            <AltitudeMeters>431.600006103515625</AltitudeMeters>
            <DistanceMeters>6115.2638746059</DistanceMeters>
          </Trackpoint>
          <Trackpoint>
            <Time>2018-08-26T05:49:43.000Z</Time>
            <Position>
              <LatitudeDegrees>42.83109060488641262054443359375</LatitudeDegrees>
              <LongitudeDegrees>-1.67209957726299762725830078125</LongitudeDegrees>
            </Position>
            <AltitudeMeters>431.600006103515625</AltitudeMeters>
            <DistanceMeters>6122.5326418517</DistanceMeters>
          </Trackpoint>
          <Trackpoint>
            <Time>2018-08-26T05:49:44.000Z</Time>
            <Position>
              <LatitudeDegrees>42.83104316331446170806884765625</LatitudeDegrees>
              <LongitudeDegrees>-1.6721603460609912872314453125</LongitudeDegrees>
            </Position>
            <AltitudeMeters>431.600006103515625</AltitudeMeters>
            <DistanceMeters>6129.777143511</DistanceMeters>
          </Trackpoint>
          <Trackpoint>
            <Time>2018-08-26T05:49:45.000Z</Time>
            <Position>
              <LatitudeDegrees>42.83100284636020660400390625</LatitudeDegrees>
              <LongitudeDegrees>-1.67222815565764904022216796875</LongitudeDegrees>
            </Position>
            <AltitudeMeters>431.79998779296875</AltitudeMeters>
            <DistanceMeters>6136.902246301</DistanceMeters>
          </Trackpoint>
          <Trackpoint>
            <Time>2018-08-26T05:49:46.000Z</Time>
            <Position>
              <LatitudeDegrees>42.83097736537456512451171875</LatitudeDegrees>
              <LongitudeDegrees>-1.67230459861457347869873046875</LongitudeDegrees>
            </Position>
            <AltitudeMeters>431.79998779296875</AltitudeMeters>
            <DistanceMeters>6143.7560377817</DistanceMeters>
          </Trackpoint>
          <Trackpoint>
            <Time>2018-08-26T05:49:47.000Z</Time>
            <Position>
              <LatitudeDegrees>42.83097158186137676239013671875</LatitudeDegrees>
              <LongitudeDegrees>-1.67238707654178142547607421875</LongitudeDegrees>
            </Position>
            <AltitudeMeters>431.79998779296875</AltitudeMeters>
            <DistanceMeters>6150.5183086364</DistanceMeters>
          </Trackpoint>
          <Trackpoint>
            <Time>2018-08-26T05:49:48.000Z</Time>
            <Position>
              <LatitudeDegrees>42.830987088382244110107421875</LatitudeDegrees>
              <LongitudeDegrees>-1.67246486060321331024169921875</LongitudeDegrees>
            </Position>
            <AltitudeMeters>431.79998779296875</AltitudeMeters>
            <DistanceMeters>6157.0978364669</DistanceMeters>
          </Trackpoint>
          <Trackpoint>
            <Time>2018-08-26T05:49:49.000Z</Time>
            <Position>
              <LatitudeDegrees>42.831015251576900482177734375</LatitudeDegrees>
              <LongitudeDegrees>-1.67253459803760051727294921875</LongitudeDegrees>
            </Position>
            <AltitudeMeters>431.79998779296875</AltitudeMeters>
            <DistanceMeters>6163.5958852088</DistanceMeters>
          </Trackpoint>
          <Trackpoint>
            <Time>2018-08-26T05:49:50.000Z</Time>
            <Position>
              <LatitudeDegrees>42.83105070702731609344482421875</LatitudeDegrees>
              <LongitudeDegrees>-1.67259746231138706207275390625</LongitudeDegrees>
            </Position>
            <AltitudeMeters>431.79998779296875</AltitudeMeters>
            <DistanceMeters>6170.0688717452</DistanceMeters>
          </Trackpoint>
          <Trackpoint>
            <Time>2018-08-26T05:49:51.000Z</Time>
            <Position>
              <LatitudeDegrees>42.83109270036220550537109375</LatitudeDegrees>
              <LongitudeDegrees>-1.6726532019674777984619140625</LongitudeDegrees>
            </Position>
            <AltitudeMeters>431.79998779296875</AltitudeMeters>
            <DistanceMeters>6176.5911941941</DistanceMeters>
          </Trackpoint>
          <Trackpoint>
            <Time>2018-08-26T05:49:52.000Z</Time>
            <Position>
              <LatitudeDegrees>42.83113989047706127166748046875</LatitudeDegrees>
              <LongitudeDegrees>-1.6727024875581264495849609375</LongitudeDegrees>
            </Position>
            <AltitudeMeters>431.79998779296875</AltitudeMeters>
            <DistanceMeters>6183.2069919936</DistanceMeters>
          </Trackpoint>
          <Trackpoint>
            <Time>2018-08-26T05:49:53.000Z</Time>
            <Position>
              <LatitudeDegrees>42.83119060099124908447265625</LatitudeDegrees>
              <LongitudeDegrees>-1.67274825274944305419921875</LongitudeDegrees>
            </Position>
            <AltitudeMeters>431.79998779296875</AltitudeMeters>
            <DistanceMeters>6189.975936363</DistanceMeters>
          </Trackpoint>
          <Trackpoint>
            <Time>2018-08-26T05:49:54.000Z</Time>
            <Position>
              <LatitudeDegrees>42.83124432899057865142822265625</LatitudeDegrees>
              <LongitudeDegrees>-1.67279242537915706634521484375</LongitudeDegrees>
            </Position>
            <AltitudeMeters>431.79998779296875</AltitudeMeters>
            <DistanceMeters>6196.9589452272</DistanceMeters>
          </Trackpoint>
          <Trackpoint>
            <Time>2018-08-26T05:49:55.000Z</Time>
            <Position>
              <LatitudeDegrees>42.831300236284732818603515625</LatitudeDegrees>
              <LongitudeDegrees>-1.67283617891371250152587890625</LongitudeDegrees>
            </Position>
            <AltitudeMeters>431.79998779296875</AltitudeMeters>
            <DistanceMeters>6204.1333048314</DistanceMeters>
          </Trackpoint>
          <Trackpoint>
            <Time>2018-08-26T05:49:56.000Z</Time>
            <Position>
              <LatitudeDegrees>42.83135890960693359375</LatitudeDegrees>
              <LongitudeDegrees>-1.6728791780769824981689453125</LongitudeDegrees>
            </Position>
            <AltitudeMeters>431.79998779296875</AltitudeMeters>
            <DistanceMeters>6211.5478247344</DistanceMeters>
          </Trackpoint>
          <Trackpoint>
            <Time>2018-08-26T05:49:57.000Z</Time>
            <Position>
              <LatitudeDegrees>42.83142051659524440765380859375</LatitudeDegrees>
              <LongitudeDegrees>-1.67292184196412563323974609375</LongitudeDegrees>
            </Position>
            <AltitudeMeters>431.79998779296875</AltitudeMeters>
            <DistanceMeters>6219.2385334603</DistanceMeters>
          </Trackpoint>
          <Trackpoint>
            <Time>2018-08-26T05:49:58.000Z</Time>
            <Position>
              <LatitudeDegrees>42.83148455433547496795654296875</LatitudeDegrees>
              <LongitudeDegrees>-1.67296417057514190673828125</LongitudeDegrees>
            </Position>
            <AltitudeMeters>431.79998779296875</AltitudeMeters>
            <DistanceMeters>6227.1594533017</DistanceMeters>
          </Trackpoint>
          <Trackpoint>
            <Time>2018-08-26T05:49:59.000Z</Time>
            <Position>
              <LatitudeDegrees>42.8315495140850543975830078125</LatitudeDegrees>
              <LongitudeDegrees>-1.67300985194742679595947265625</LongitudeDegrees>
            </Position>
            <AltitudeMeters>431.600006103515625</AltitudeMeters>
            <DistanceMeters>6235.295205285</DistanceMeters>
          </Trackpoint>
          <Trackpoint>
            <Time>2018-08-26T05:50:00.000Z</Time>
            <Position>
              <LatitudeDegrees>42.8316150605678558349609375</LatitudeDegrees>
              <LongitudeDegrees>-1.67305846698582172393798828125</LongitudeDegrees>
            </Position>
            <AltitudeMeters>431.600006103515625</AltitudeMeters>
            <DistanceMeters>6243.6006705914</DistanceMeters>
          </Trackpoint>
          <Trackpoint>
            <Time>2018-08-26T05:50:01.000Z</Time>
            <Position>
              <LatitudeDegrees>42.8316816128790378570556640625</LatitudeDegrees>
              <LongitudeDegrees>-1.6731085069477558135986328125</LongitudeDegrees>
            </Position>
            <AltitudeMeters>431.600006103515625</AltitudeMeters>
            <DistanceMeters>6252.0596495925</DistanceMeters>
          </Trackpoint>
          <Trackpoint>
            <Time>2018-08-26T05:50:02.000Z</Time>
            <Position>
              <LatitudeDegrees>42.83174925483763217926025390625</LatitudeDegrees>
              <LongitudeDegrees>-1.673158295452594757080078125</LongitudeDegrees>
            </Position>
            <AltitudeMeters>431.600006103515625</AltitudeMeters>
            <DistanceMeters>6260.6152208566</DistanceMeters>
          </Trackpoint>
          <Trackpoint>
            <Time>2018-08-26T05:50:03.000Z</Time>
            <Position>
              <LatitudeDegrees>42.83181765116751194000244140625</LatitudeDegrees>
              <LongitudeDegrees>-1.67321185581386089324951171875</LongitudeDegrees>
            </Position>
            <AltitudeMeters>431.600006103515625</AltitudeMeters>
            <DistanceMeters>6269.3937556075</DistanceMeters>
          </Trackpoint>
          <Trackpoint>
            <Time>2018-08-26T05:50:04.000Z</Time>
            <Position>
              <LatitudeDegrees>42.8318874724209308624267578125</LatitudeDegrees>
              <LongitudeDegrees>-1.673267595469951629638671875</LongitudeDegrees>
            </Position>
            <AltitudeMeters>431.399993896484375</AltitudeMeters>
            <DistanceMeters>6278.3982576143</DistanceMeters>
          </Trackpoint>
          <Trackpoint>
            <Time>2018-08-26T05:50:05.000Z</Time>
            <Position>
              <LatitudeDegrees>42.83195813186466693878173828125</LatitudeDegrees>
              <LongitudeDegrees>-1.6733247600495815277099609375</LongitudeDegrees>
            </Position>
            <AltitudeMeters>431</AltitudeMeters>
            <DistanceMeters>6287.5425732186</DistanceMeters>
          </Trackpoint>
          <Trackpoint>
            <Time>2018-08-26T05:50:06.000Z</Time>
            <Position>
              <LatitudeDegrees>42.83202921040356159210205078125</LatitudeDegrees>
              <LongitudeDegrees>-1.673384606838226318359375</LongitudeDegrees>
            </Position>
            <AltitudeMeters>430.399993896484375</AltitudeMeters>
            <DistanceMeters>6296.8406349453</DistanceMeters>
          </Trackpoint>
          <Trackpoint>
            <Time>2018-08-26T05:50:07.000Z</Time>
            <Position>
              <LatitudeDegrees>42.8321013785898685455322265625</LatitudeDegrees>
              <LongitudeDegrees>-1.67344504036009311676025390625</LongitudeDegrees>
            </Position>
            <AltitudeMeters>429.79998779296875</AltitudeMeters>
            <DistanceMeters>6306.2669784681</DistanceMeters>
          </Trackpoint>
          <Trackpoint>
            <Time>2018-08-26T05:50:08.000Z</Time>
            <Position>
              <LatitudeDegrees>42.83217388205230236053466796875</LatitudeDegrees>
              <LongitudeDegrees>-1.67350656352937221527099609375</LongitudeDegrees>
            </Position>
            <AltitudeMeters>429.399993896484375</AltitudeMeters>
            <DistanceMeters>6315.772025276</DistanceMeters>
          </Trackpoint>
          <Trackpoint>
            <Time>2018-08-26T05:50:09.000Z</Time>
            <Position>
              <LatitudeDegrees>42.83224479295313358306884765625</LatitudeDegrees>
              <LongitudeDegrees>-1.67357445694506168365478515625</LongitudeDegrees>
            </Position>
            <AltitudeMeters>429</AltitudeMeters>
            <DistanceMeters>6325.4157153009</DistanceMeters>
          </Trackpoint>
          <Trackpoint>
            <Time>2018-08-26T05:50:10.000Z</Time>
            <Position>
              <LatitudeDegrees>42.83231587149202823638916015625</LatitudeDegrees>
              <LongitudeDegrees>-1.67364452965557575225830078125</LongitudeDegrees>
            </Position>
            <AltitudeMeters>428.399993896484375</AltitudeMeters>
            <DistanceMeters>6335.1780627025</DistanceMeters>
          </Trackpoint>
          <Trackpoint>
            <Time>2018-08-26T05:50:11.000Z</Time>
            <Position>
              <LatitudeDegrees>42.83238879404962062835693359375</LatitudeDegrees>
              <LongitudeDegrees>-1.67371376417577266693115234375</LongitudeDegrees>
            </Position>
            <AltitudeMeters>427.79998779296875</AltitudeMeters>
            <DistanceMeters>6345.068148043</DistanceMeters>
          </Trackpoint>
          <Trackpoint>
            <Time>2018-08-26T05:50:12.000Z</Time>
            <Position>
              <LatitudeDegrees>42.83246205188333988189697265625</LatitudeDegrees>
              <LongitudeDegrees>-1.6737842559814453125</LongitudeDegrees>
            </Position>
            <AltitudeMeters>427.399993896484375</AltitudeMeters>
            <DistanceMeters>6355.047310484</DistanceMeters>
          </Trackpoint>
          <Trackpoint>
            <Time>2018-08-26T05:50:13.000Z</Time>
            <Position>
              <LatitudeDegrees>42.83253572881221771240234375</LatitudeDegrees>
              <LongitudeDegrees>-1.673856340348720550537109375</LongitudeDegrees>
            </Position>
            <AltitudeMeters>427</AltitudeMeters>
            <DistanceMeters>6365.1398454622</DistanceMeters>
          </Trackpoint>
          <Trackpoint>
            <Time>2018-08-26T05:50:14.000Z</Time>
            <Position>
              <LatitudeDegrees>42.832609154284000396728515625</LatitudeDegrees>
              <LongitudeDegrees>-1.67393085546791553497314453125</LongitudeDegrees>
            </Position>
            <AltitudeMeters>426.600006103515625</AltitudeMeters>
            <DistanceMeters>6375.3267801579</DistanceMeters>
          </Trackpoint>
          <Trackpoint>
            <Time>2018-08-26T05:50:15.000Z</Time>
            <Position>
              <LatitudeDegrees>42.83268165774643421173095703125</LatitudeDegrees>
              <LongitudeDegrees>-1.6740083880722522735595703125</LongitudeDegrees>
            </Position>
            <AltitudeMeters>426.20001220703125</AltitudeMeters>
            <DistanceMeters>6385.5821836284</DistanceMeters>
          </Trackpoint>
          <Trackpoint>
            <Time>2018-08-26T05:50:16.000Z</Time>
            <Position>
              <LatitudeDegrees>42.83275424502789974212646484375</LatitudeDegrees>
              <LongitudeDegrees>-1.6740875132381916046142578125</LongitudeDegrees>
            </Position>
            <AltitudeMeters>425.600006103515625</AltitudeMeters>
            <DistanceMeters>6395.9257007144</DistanceMeters>
          </Trackpoint>
          <Trackpoint>
            <Time>2018-08-26T05:50:17.000Z</Time>
            <Position>
              <LatitudeDegrees>42.83282599411904811859130859375</LatitudeDegrees>
              <LongitudeDegrees>-1.6741693206131458282470703125</LongitudeDegrees>
            </Position>
            <AltitudeMeters>425</AltitudeMeters>
            <DistanceMeters>6406.3353557196</DistanceMeters>
          </Trackpoint>
          <Trackpoint>
            <Time>2018-08-26T05:50:18.000Z</Time>
            <Position>
              <LatitudeDegrees>42.83289573155343532562255859375</LatitudeDegrees>
              <LongitudeDegrees>-1.674253977835178375244140625</LongitudeDegrees>
            </Position>
            <AltitudeMeters>424.600006103515625</AltitudeMeters>
            <DistanceMeters>6416.7272123484</DistanceMeters>
          </Trackpoint>
          <Trackpoint>
            <Time>2018-08-26T05:50:19.000Z</Time>
            <Position>
              <LatitudeDegrees>42.83296312205493450164794921875</LatitudeDegrees>
              <LongitudeDegrees>-1.67434215545654296875</LongitudeDegrees>
            </Position>
            <AltitudeMeters>424</AltitudeMeters>
            <DistanceMeters>6427.1221098817</DistanceMeters>
          </Trackpoint>
          <Trackpoint>
            <Time>2018-08-26T05:50:20.000Z</Time>
            <Position>
              <LatitudeDegrees>42.8330287523567676544189453125</LatitudeDegrees>
              <LongitudeDegrees>-1.67443259619176387786865234375</LongitudeDegrees>
            </Position>
            <AltitudeMeters>423.399993896484375</AltitudeMeters>
            <DistanceMeters>6437.5065777493</DistanceMeters>
          </Trackpoint>
          <Trackpoint>
            <Time>2018-08-26T05:50:21.000Z</Time>
            <Position>
              <LatitudeDegrees>42.83309304155409336090087890625</LatitudeDegrees>
              <LongitudeDegrees>-1.67452379129827022552490234375</LongitudeDegrees>
            </Position>
            <AltitudeMeters>422.600006103515625</AltitudeMeters>
            <DistanceMeters>6447.8317451813</DistanceMeters>
          </Trackpoint>
          <Trackpoint>
            <Time>2018-08-26T05:50:22.000Z</Time>
            <Position>
              <LatitudeDegrees>42.833158336579799652099609375</LatitudeDegrees>
              <LongitudeDegrees>-1.67461096309125423431396484375</LongitudeDegrees>
            </Position>
            <AltitudeMeters>422.20001220703125</AltitudeMeters>
            <DistanceMeters>6458.0018236268</DistanceMeters>
          </Trackpoint>
          <Trackpoint>
            <Time>2018-08-26T05:50:23.000Z</Time>
            <Position>
              <LatitudeDegrees>42.83322664909064769744873046875</LatitudeDegrees>
              <LongitudeDegrees>-1.6746900044381618499755859375</LongitudeDegrees>
            </Position>
            <AltitudeMeters>421.600006103515625</AltitudeMeters>
            <DistanceMeters>6467.973291509</DistanceMeters>
          </Trackpoint>
          <Trackpoint>
            <Time>2018-08-26T05:50:24.000Z</Time>
            <Position>
              <LatitudeDegrees>42.83329538069665431976318359375</LatitudeDegrees>
              <LongitudeDegrees>-1.674762926995754241943359375</LongitudeDegrees>
            </Position>
            <AltitudeMeters>421</AltitudeMeters>
            <DistanceMeters>6477.6660163747</DistanceMeters>
          </Trackpoint>
          <Trackpoint>
            <Time>2018-08-26T05:50:25.000Z</Time>
            <Position>
              <LatitudeDegrees>42.83335648477077484130859375</LatitudeDegrees>
              <LongitudeDegrees>-1.67484171688556671142578125</LongitudeDegrees>
            </Position>
            <AltitudeMeters>420.399993896484375</AltitudeMeters>
            <DistanceMeters>6487.0260271471</DistanceMeters>
          </Trackpoint>
          <Trackpoint>
            <Time>2018-08-26T05:50:26.000Z</Time>
            <Position>
              <LatitudeDegrees>42.83340199850499629974365234375</LatitudeDegrees>
              <LongitudeDegrees>-1.67493400163948535919189453125</LongitudeDegrees>
            </Position>
            <AltitudeMeters>419.79998779296875</AltitudeMeters>
            <DistanceMeters>6496.1034412916</DistanceMeters>
          </Trackpoint>
          <Trackpoint>
            <Time>2018-08-26T05:50:27.000Z</Time>
            <Position>
              <LatitudeDegrees>42.83342261798679828643798828125</LatitudeDegrees>
              <LongitudeDegrees>-1.675037182867527008056640625</LongitudeDegrees>
            </Position>
            <AltitudeMeters>419.20001220703125</AltitudeMeters>
            <DistanceMeters>6504.8319437381</DistanceMeters>
          </Trackpoint>
          <Trackpoint>
            <Time>2018-08-26T05:50:28.000Z</Time>
            <Position>
              <LatitudeDegrees>42.8334166668355464935302734375</LatitudeDegrees>
              <LongitudeDegrees>-1.67514371685683727264404296875</LongitudeDegrees>
            </Position>
            <AltitudeMeters>418.600006103515625</AltitudeMeters>
            <DistanceMeters>6513.5526836041</DistanceMeters>
          </Trackpoint>
          <Trackpoint>
            <Time>2018-08-26T05:50:29.000Z</Time>
            <Position>
              <LatitudeDegrees>42.83339814282953739166259765625</LatitudeDegrees>
              <LongitudeDegrees>-1.67524673044681549072265625</LongitudeDegrees>
            </Position>
            <AltitudeMeters>418.399993896484375</AltitudeMeters>
            <DistanceMeters>6522.2100292992</DistanceMeters>
          </Trackpoint>
          <Trackpoint>
            <Time>2018-08-26T05:50:30.000Z</Time>
            <Position>
              <LatitudeDegrees>42.83337936736643314361572265625</LatitudeDegrees>
              <LongitudeDegrees>-1.675349660217761993408203125</LongitudeDegrees>
            </Position>
            <AltitudeMeters>418.20001220703125</AltitudeMeters>
            <DistanceMeters>6530.8668534518</DistanceMeters>
          </Trackpoint>
          <Trackpoint>
            <Time>2018-08-26T05:50:31.000Z</Time>
            <Position>
              <LatitudeDegrees>42.83336595632135868072509765625</LatitudeDegrees>
              <LongitudeDegrees>-1.67545233853161334991455078125</LongitudeDegrees>
            </Position>
            <AltitudeMeters>418.20001220703125</AltitudeMeters>
            <DistanceMeters>6539.3790407962</DistanceMeters>
          </Trackpoint>
          <Trackpoint>
            <Time>2018-08-26T05:50:32.000Z</Time>
            <Position>
              <LatitudeDegrees>42.8333558142185211181640625</LatitudeDegrees>
              <LongitudeDegrees>-1.675556190311908721923828125</LongitudeDegrees>
            </Position>
            <AltitudeMeters>418</AltitudeMeters>
            <DistanceMeters>6547.9303891719</DistanceMeters>
          </Trackpoint>
          <Trackpoint>
            <Time>2018-08-26T05:50:33.000Z</Time>
            <Position>
              <LatitudeDegrees>42.833347432315349578857421875</LatitudeDegrees>
              <LongitudeDegrees>-1.67566004209220409393310546875</LongitudeDegrees>
            </Position>
            <AltitudeMeters>418</AltitudeMeters>
            <DistanceMeters>6556.4584742841</DistanceMeters>
          </Trackpoint>
          <Trackpoint>
            <Time>2018-08-26T05:50:34.000Z</Time>
            <Position>
              <LatitudeDegrees>42.83334039151668548583984375</LatitudeDegrees>
              <LongitudeDegrees>-1.67576364241540431976318359375</LongitudeDegrees>
            </Position>
            <AltitudeMeters>418</AltitudeMeters>
            <DistanceMeters>6564.9504817311</DistanceMeters>
          </Trackpoint>
          <Trackpoint>
            <Time>2018-08-26T05:50:35.000Z</Time>
            <Position>
              <LatitudeDegrees>42.833334021270275115966796875</LatitudeDegrees>
              <LongitudeDegrees>-1.67586673982441425323486328125</LongitudeDegrees>
            </Position>
            <AltitudeMeters>417.79998779296875</AltitudeMeters>
            <DistanceMeters>6573.395571651</DistanceMeters>
          </Trackpoint>
          <Trackpoint>
            <Time>2018-08-26T05:50:36.000Z</Time>
            <Position>
              <LatitudeDegrees>42.83332823775708675384521484375</LatitudeDegrees>
              <LongitudeDegrees>-1.67596816085278987884521484375</LongitudeDegrees>
            </Position>
            <AltitudeMeters>417.79998779296875</AltitudeMeters>
            <DistanceMeters>6581.6988621824</DistanceMeters>
          </Trackpoint>
          <Trackpoint>
            <Time>2018-08-26T05:50:37.000Z</Time>
            <Position>
              <LatitudeDegrees>42.8333209455013275146484375</LatitudeDegrees>
              <LongitudeDegrees>-1.67606941424310207366943359375</LongitudeDegrees>
            </Position>
            <AltitudeMeters>417.79998779296875</AltitudeMeters>
            <DistanceMeters>6590.0037838485</DistanceMeters>
          </Trackpoint>
          <Trackpoint>
            <Time>2018-08-26T05:50:38.000Z</Time>
            <Position>
              <LatitudeDegrees>42.83331147395074367523193359375</LatitudeDegrees>
              <LongitudeDegrees>-1.67616932652890682220458984375</LongitudeDegrees>
            </Position>
            <AltitudeMeters>417.79998779296875</AltitudeMeters>
            <DistanceMeters>6598.2267524373</DistanceMeters>
          </Trackpoint>
          <Trackpoint>
            <Time>2018-08-26T05:50:39.000Z</Time>
            <Position>
              <LatitudeDegrees>42.833301834762096405029296875</LatitudeDegrees>
              <LongitudeDegrees>-1.67626890353858470916748046875</LongitudeDegrees>
            </Position>
            <AltitudeMeters>417.79998779296875</AltitudeMeters>
            <DistanceMeters>6606.4244246005</DistanceMeters>
          </Trackpoint>
          <Trackpoint>
            <Time>2018-08-26T05:50:40.000Z</Time>
            <Position>
              <LatitudeDegrees>42.83329303376376628875732421875</LatitudeDegrees>
              <LongitudeDegrees>-1.6763694025576114654541015625</LongitudeDegrees>
            </Position>
            <AltitudeMeters>417.79998779296875</AltitudeMeters>
            <DistanceMeters>6614.6846460025</DistanceMeters>
          </Trackpoint>
          <Trackpoint>
            <Time>2018-08-26T05:50:41.000Z</Time>
            <Position>
              <LatitudeDegrees>42.833284400403499603271484375</LatitudeDegrees>
              <LongitudeDegrees>-1.67647023685276508331298828125</LongitudeDegrees>
            </Position>
            <AltitudeMeters>417.79998779296875</AltitudeMeters>
            <DistanceMeters>6622.9705177855</DistanceMeters>
          </Trackpoint>
          <Trackpoint>
            <Time>2018-08-26T05:50:42.000Z</Time>
            <Position>
              <LatitudeDegrees>42.83327710814774036407470703125</LatitudeDegrees>
              <LongitudeDegrees>-1.6765709035098552703857421875</LongitudeDegrees>
            </Position>
            <AltitudeMeters>417.79998779296875</AltitudeMeters>
            <DistanceMeters>6631.2269120999</DistanceMeters>
          </Trackpoint>
          <Trackpoint>
            <Time>2018-08-26T05:50:43.000Z</Time>
            <Position>
              <LatitudeDegrees>42.83326989971101284027099609375</LatitudeDegrees>
              <LongitudeDegrees>-1.67667140252888202667236328125</LongitudeDegrees>
            </Position>
            <AltitudeMeters>417.79998779296875</AltitudeMeters>
            <DistanceMeters>6639.4685281436</DistanceMeters>
          </Trackpoint>
          <Trackpoint>
            <Time>2018-08-26T05:50:44.000Z</Time>
            <Position>
              <LatitudeDegrees>42.833262272179126739501953125</LatitudeDegrees>
              <LongitudeDegrees>-1.67677148245275020599365234375</LongitudeDegrees>
            </Position>
            <AltitudeMeters>417.79998779296875</AltitudeMeters>
            <DistanceMeters>6647.68160741</DistanceMeters>
          </Trackpoint>
          <Trackpoint>
            <Time>2018-08-26T05:50:45.000Z</Time>
            <Position>
              <LatitudeDegrees>42.83325397409498691558837890625</LatitudeDegrees>
              <LongitudeDegrees>-1.67687105946242809295654296875</LongitudeDegrees>
            </Position>
            <AltitudeMeters>417.79998779296875</AltitudeMeters>
            <DistanceMeters>6655.8616359215</DistanceMeters>
          </Trackpoint>
          <Trackpoint>
            <Time>2018-08-26T05:50:46.000Z</Time>
            <Position>
              <LatitudeDegrees>42.83324559219181537628173828125</LatitudeDegrees>
              <LongitudeDegrees>-1.67697013355791568756103515625</LongitudeDegrees>
            </Position>
            <AltitudeMeters>417.79998779296875</AltitudeMeters>
            <DistanceMeters>6664.0018263951</DistanceMeters>
          </Trackpoint>
          <Trackpoint>
            <Time>2018-08-26T05:50:47.000Z</Time>
            <Position>
              <LatitudeDegrees>42.8332372941076755523681640625</LatitudeDegrees>
              <LongitudeDegrees>-1.6770691238343715667724609375</LongitudeDegrees>
            </Position>
            <AltitudeMeters>417.600006103515625</AltitudeMeters>
            <DistanceMeters>6672.134247921</DistanceMeters>
          </Trackpoint>
          <Trackpoint>
            <Time>2018-08-26T05:50:48.000Z</Time>
            <Position>
              <LatitudeDegrees>42.83322866074740886688232421875</LatitudeDegrees>
              <LongitudeDegrees>-1.6771676950156688690185546875</LongitudeDegrees>
            </Position>
            <AltitudeMeters>417.600006103515625</AltitudeMeters>
            <DistanceMeters>6680.2377481463</DistanceMeters>
          </Trackpoint>
          <Trackpoint>
            <Time>2018-08-26T05:50:49.000Z</Time>
            <Position>
              <LatitudeDegrees>42.8332208655774593353271484375</LatitudeDegrees>
              <LongitudeDegrees>-1.67726651765406131744384765625</LongitudeDegrees>
            </Position>
            <AltitudeMeters>417.600006103515625</AltitudeMeters>
            <DistanceMeters>6688.3507147554</DistanceMeters>
          </Trackpoint>
          <Trackpoint>
            <Time>2018-08-26T05:50:50.000Z</Time>
            <Position>
              <LatitudeDegrees>42.8332124836742877960205078125</LatitudeDegrees>
              <LongitudeDegrees>-1.6773658432066440582275390625</LongitudeDegrees>
            </Position>
            <AltitudeMeters>417.600006103515625</AltitudeMeters>
            <DistanceMeters>6696.5119550931</DistanceMeters>
          </Trackpoint>
          <Trackpoint>
            <Time>2018-08-26T05:50:51.000Z</Time>
            <Position>
              <LatitudeDegrees>42.8332042694091796875</LatitudeDegrees>
              <LongitudeDegrees>-1.67746349237859249114990234375</LongitudeDegrees>
            </Position>
            <AltitudeMeters>417.600006103515625</AltitudeMeters>
            <DistanceMeters>6704.5348214694</DistanceMeters>
          </Trackpoint>
          <Trackpoint>
            <Time>2018-08-26T05:50:52.000Z</Time>
            <Position>
              <LatitudeDegrees>42.83319680951535701751708984375</LatitudeDegrees>
              <LongitudeDegrees>-1.67756156064569950103759765625</LongitudeDegrees>
            </Position>
            <AltitudeMeters>417.600006103515625</AltitudeMeters>
            <DistanceMeters>6712.5818506218</DistanceMeters>
          </Trackpoint>
          <Trackpoint>
            <Time>2018-08-26T05:50:53.000Z</Time>
            <Position>
              <LatitudeDegrees>42.83318926580250263214111328125</LatitudeDegrees>
              <LongitudeDegrees>-1.67765962891280651092529296875</LongitudeDegrees>
            </Position>
            <AltitudeMeters>417.600006103515625</AltitudeMeters>
            <DistanceMeters>6720.6294408361</DistanceMeters>
          </Trackpoint>
          <Trackpoint>
            <Time>2018-08-26T05:50:54.000Z</Time>
            <Position>
              <LatitudeDegrees>42.833180464804172515869140625</LatitudeDegrees>
              <LongitudeDegrees>-1.67775786481797695159912109375</LongitudeDegrees>
            </Position>
            <AltitudeMeters>417.600006103515625</AltitudeMeters>
            <DistanceMeters>6728.7072705188</DistanceMeters>
          </Trackpoint>
          <Trackpoint>
            <Time>2018-08-26T05:50:55.000Z</Time>
            <Position>
              <LatitudeDegrees>42.83317250199615955352783203125</LatitudeDegrees>
              <LongitudeDegrees>-1.67785643599927425384521484375</LongitudeDegrees>
            </Position>
            <AltitudeMeters>417.600006103515625</AltitudeMeters>
            <DistanceMeters>6736.8018510934</DistanceMeters>
          </Trackpoint>
          <Trackpoint>
            <Time>2018-08-26T05:50:56.000Z</Time>
            <Position>
              <LatitudeDegrees>42.8331655450165271759033203125</LatitudeDegrees>
              <LongitudeDegrees>-1.67795500718057155609130859375</LongitudeDegrees>
            </Position>
            <AltitudeMeters>417.600006103515625</AltitudeMeters>
            <DistanceMeters>6744.8847096887</DistanceMeters>
          </Trackpoint>
          <Trackpoint>
            <Time>2018-08-26T05:50:57.000Z</Time>
            <Position>
              <LatitudeDegrees>42.83315934240818023681640625</LatitudeDegrees>
              <LongitudeDegrees>-1.67805357836186885833740234375</LongitudeDegrees>
            </Position>
            <AltitudeMeters>417.600006103515625</AltitudeMeters>
            <DistanceMeters>6752.960303294</DistanceMeters>
          </Trackpoint>
          <Trackpoint>
            <Time>2018-08-26T05:50:58.000Z</Time>
            <Position>
              <LatitudeDegrees>42.8331528045237064361572265625</LatitudeDegrees>
              <LongitudeDegrees>-1.67815147899091243743896484375</LongitudeDegrees>
            </Position>
            <AltitudeMeters>417.600006103515625</AltitudeMeters>
            <DistanceMeters>6760.9842951338</DistanceMeters>
          </Trackpoint>
          <Trackpoint>
            <Time>2018-08-26T05:50:59.000Z</Time>
            <Position>
              <LatitudeDegrees>42.833146266639232635498046875</LatitudeDegrees>
              <LongitudeDegrees>-1.67824971489608287811279296875</LongitudeDegrees>
            </Position>
            <AltitudeMeters>417.399993896484375</AltitudeMeters>
            <DistanceMeters>6769.0358116861</DistanceMeters>
          </Trackpoint>
          <Trackpoint>
            <Time>2018-08-26T05:51:00.000Z</Time>
            <Position>
              <LatitudeDegrees>42.83313998021185398101806640625</LatitudeDegrees>
              <LongitudeDegrees>-1.67834761552512645721435546875</LongitudeDegrees>
            </Position>
            <AltitudeMeters>417.399993896484375</AltitudeMeters>
            <DistanceMeters>6777.057552441</DistanceMeters>
          </Trackpoint>
          <Trackpoint>
            <Time>2018-08-26T05:51:01.000Z</Time>
            <Position>
              <LatitudeDegrees>42.8331331908702850341796875</LatitudeDegrees>
              <LongitudeDegrees>-1.678446270525455474853515625</LongitudeDegrees>
            </Position>
            <AltitudeMeters>417.399993896484375</AltitudeMeters>
            <DistanceMeters>6785.145436822</DistanceMeters>
          </Trackpoint>
          <Trackpoint>
            <Time>2018-08-26T05:51:02.000Z</Time>
            <Position>
              <LatitudeDegrees>42.8331251442432403564453125</LatitudeDegrees>
              <LongitudeDegrees>-1.67854542843997478485107421875</LongitudeDegrees>
            </Position>
            <AltitudeMeters>417.20001220703125</AltitudeMeters>
            <DistanceMeters>6793.2884001234</DistanceMeters>
          </Trackpoint>
          <Trackpoint>
            <Time>2018-08-26T05:51:03.000Z</Time>
            <Position>
              <LatitudeDegrees>42.8331159241497516632080078125</LatitudeDegrees>
              <LongitudeDegrees>-1.67864416725933551788330078125</LongitudeDegrees>
            </Position>
            <AltitudeMeters>417.20001220703125</AltitudeMeters>
            <DistanceMeters>6801.4124895326</DistanceMeters>
          </Trackpoint>
          <Trackpoint>
            <Time>2018-08-26T05:51:04.000Z</Time>
            <Position>
              <LatitudeDegrees>42.83310796134173870086669921875</LatitudeDegrees>
              <LongitudeDegrees>-1.67874357663094997406005859375</LongitudeDegrees>
            </Position>
            <AltitudeMeters>417.20001220703125</AltitudeMeters>
            <DistanceMeters>6809.5748362542</DistanceMeters>
          </Trackpoint>
          <Trackpoint>
            <Time>2018-08-26T05:51:05.000Z</Time>
            <Position>
              <LatitudeDegrees>42.83310092054307460784912109375</LatitudeDegrees>
              <LongitudeDegrees>-1.67884415946900844573974609375</LongitudeDegrees>
            </Position>
            <AltitudeMeters>417.20001220703125</AltitudeMeters>
            <DistanceMeters>6817.8219288192</DistanceMeters>
          </Trackpoint>
          <Trackpoint>
            <Time>2018-08-26T05:51:06.000Z</Time>
            <Position>
              <LatitudeDegrees>42.83309387974441051483154296875</LatitudeDegrees>
              <LongitudeDegrees>-1.67894541285932064056396484375</LongitudeDegrees>
            </Position>
            <AltitudeMeters>417.20001220703125</AltitudeMeters>
            <DistanceMeters>6826.123044006</DistanceMeters>
          </Trackpoint>
          <Trackpoint>
            <Time>2018-08-26T05:51:07.000Z</Time>
            <Position>
              <LatitudeDegrees>42.83308600075542926788330078125</LatitudeDegrees>
              <LongitudeDegrees>-1.6790465824306011199951171875</LongitudeDegrees>
            </Position>
            <AltitudeMeters>417</AltitudeMeters>
            <DistanceMeters>6834.4274219961</DistanceMeters>
          </Trackpoint>
          <Trackpoint>
            <Time>2018-08-26T05:51:08.000Z</Time>
            <Position>
              <LatitudeDegrees>42.83307745121419429779052734375</LatitudeDegrees>
              <LongitudeDegrees>-1.67914808727800846099853515625</LongitudeDegrees>
            </Position>
            <AltitudeMeters>417</AltitudeMeters>
            <DistanceMeters>6842.7681479192</DistanceMeters>
          </Trackpoint>
          <Trackpoint>
            <Time>2018-08-26T05:51:09.000Z</Time>
            <Position>
              <LatitudeDegrees>42.8330686502158641815185546875</LatitudeDegrees>
              <LongitudeDegrees>-1.67924950830638408660888671875</LongitudeDegrees>
            </Position>
            <AltitudeMeters>417</AltitudeMeters>
            <DistanceMeters>6851.1040004992</DistanceMeters>
          </Trackpoint>
          <Trackpoint>
            <Time>2018-08-26T05:51:10.000Z</Time>
            <Position>
              <LatitudeDegrees>42.833060435950756072998046875</LatitudeDegrees>
              <LongitudeDegrees>-1.67934975586831569671630859375</LongitudeDegrees>
            </Position>
            <AltitudeMeters>417</AltitudeMeters>
            <DistanceMeters>6859.3368465313</DistanceMeters>
          </Trackpoint>
          <Trackpoint>
            <Time>2018-08-26T05:51:11.000Z</Time>
            <Position>
              <LatitudeDegrees>42.83305205404758453369140625</LatitudeDegrees>
              <LongitudeDegrees>-1.67945067398250102996826171875</LongitudeDegrees>
            </Position>
            <AltitudeMeters>417</AltitudeMeters>
            <DistanceMeters>6867.626531793</DistanceMeters>
          </Trackpoint>
          <Trackpoint>
            <Time>2018-08-26T05:51:12.000Z</Time>
            <Position>
              <LatitudeDegrees>42.833043672144412994384765625</LatitudeDegrees>
              <LongitudeDegrees>-1.67955108918249607086181640625</LongitudeDegrees>
            </Position>
            <AltitudeMeters>416.79998779296875</AltitudeMeters>
            <DistanceMeters>6875.8758139486</DistanceMeters>
          </Trackpoint>
          <Trackpoint>
            <Time>2018-08-26T05:51:13.000Z</Time>
            <Position>
              <LatitudeDegrees>42.83303537406027317047119140625</LatitudeDegrees>
              <LongitudeDegrees>-1.67965251021087169647216796875</LongitudeDegrees>
            </Position>
            <AltitudeMeters>416.79998779296875</AltitudeMeters>
            <DistanceMeters>6884.2057063486</DistanceMeters>
          </Trackpoint>
          <Trackpoint>
            <Time>2018-08-26T05:51:14.000Z</Time>
            <Position>
              <LatitudeDegrees>42.83302724361419677734375</LatitudeDegrees>
              <LongitudeDegrees>-1.6797543503344058990478515625</LongitudeDegrees>
            </Position>
            <AltitudeMeters>416.79998779296875</AltitudeMeters>
            <DistanceMeters>6892.5669772944</DistanceMeters>
          </Trackpoint>
          <Trackpoint>
            <Time>2018-08-26T05:51:15.000Z</Time>
            <Position>
              <LatitudeDegrees>42.83301676623523235321044921875</LatitudeDegrees>
              <LongitudeDegrees>-1.67985585518181324005126953125</LongitudeDegrees>
            </Position>
            <AltitudeMeters>416.79998779296875</AltitudeMeters>
            <DistanceMeters>6900.9347256622</DistanceMeters>
          </Trackpoint>
          <Trackpoint>
            <Time>2018-08-26T05:51:16.000Z</Time>
            <Position>
              <LatitudeDegrees>42.83300419338047504425048828125</LatitudeDegrees>
              <LongitudeDegrees>-1.6799571923911571502685546875</LongitudeDegrees>
            </Position>
            <AltitudeMeters>416.600006103515625</AltitudeMeters>
            <DistanceMeters>6909.3240293165</DistanceMeters>
          </Trackpoint>
          <Trackpoint>
            <Time>2018-08-26T05:51:17.000Z</Time>
            <Position>
              <LatitudeDegrees>42.83299162052571773529052734375</LatitudeDegrees>
              <LongitudeDegrees>-1.68005802668631076812744140625</LongitudeDegrees>
            </Position>
            <AltitudeMeters>416.600006103515625</AltitudeMeters>
            <DistanceMeters>6917.6728711566</DistanceMeters>
          </Trackpoint>
          <Trackpoint>
            <Time>2018-08-26T05:51:18.000Z</Time>
            <Position>
              <LatitudeDegrees>42.83297888003289699554443359375</LatitudeDegrees>
              <LongitudeDegrees>-1.68015894480049610137939453125</LongitudeDegrees>
            </Position>
            <AltitudeMeters>416.399993896484375</AltitudeMeters>
            <DistanceMeters>6926.0309015089</DistanceMeters>
          </Trackpoint>
          <Trackpoint>
            <Time>2018-08-26T05:51:19.000Z</Time>
            <Position>
              <LatitudeDegrees>42.832965217530727386474609375</LatitudeDegrees>
              <LongitudeDegrees>-1.680258773267269134521484375</LongitudeDegrees>
            </Position>
            <AltitudeMeters>416.20001220703125</AltitudeMeters>
            <DistanceMeters>6934.3205867706</DistanceMeters>
          </Trackpoint>
          <Trackpoint>
            <Time>2018-08-26T05:51:20.000Z</Time>
            <Position>
              <LatitudeDegrees>42.832954823970794677734375</LatitudeDegrees>
              <LongitudeDegrees>-1.680358350276947021484375</LongitudeDegrees>
            </Position>
            <AltitudeMeters>416.20001220703125</AltitudeMeters>
            <DistanceMeters>6942.530366949</DistanceMeters>
          </Trackpoint>
          <Trackpoint>
            <Time>2018-08-26T05:51:21.000Z</Time>
            <Position>
              <LatitudeDegrees>42.83295658417046070098876953125</LatitudeDegrees>
              <LongitudeDegrees>-1.68045817874372005462646484375</LongitudeDegrees>
            </Position>
            <AltitudeMeters>416</AltitudeMeters>
            <DistanceMeters>6950.6816430745</DistanceMeters>
          </Trackpoint>
          <Trackpoint>
            <Time>2018-08-26T05:51:22.000Z</Time>
            <Position>
              <LatitudeDegrees>42.8329730965197086334228515625</LatitudeDegrees>
              <LongitudeDegrees>-1.68055482208728790283203125</LongitudeDegrees>
            </Position>
            <AltitudeMeters>416</AltitudeMeters>
            <DistanceMeters>6958.7812421612</DistanceMeters>
          </Trackpoint>
          <Trackpoint>
            <Time>2018-08-26T05:51:23.000Z</Time>
            <Position>
              <LatitudeDegrees>42.83299430273473262786865234375</LatitudeDegrees>
              <LongitudeDegrees>-1.680649705231189727783203125</LongitudeDegrees>
            </Position>
            <AltitudeMeters>416</AltitudeMeters>
            <DistanceMeters>6966.8774959188</DistanceMeters>
          </Trackpoint>
          <Trackpoint>
            <Time>2018-08-26T05:51:24.000Z</Time>
            <Position>
              <LatitudeDegrees>42.8330079652369022369384765625</LatitudeDegrees>
              <LongitudeDegrees>-1.6807472705841064453125</LongitudeDegrees>
            </Position>
            <AltitudeMeters>415.79998779296875</AltitudeMeters>
            <DistanceMeters>6974.9848954054</DistanceMeters>
          </Trackpoint>
          <Trackpoint>
            <Time>2018-08-26T05:51:25.000Z</Time>
            <Position>
              <LatitudeDegrees>42.83300586976110935211181640625</LatitudeDegrees>
              <LongitudeDegrees>-1.68084542267024517059326171875</LongitudeDegrees>
            </Position>
            <AltitudeMeters>415.79998779296875</AltitudeMeters>
            <DistanceMeters>6982.9998791123</DistanceMeters>
          </Trackpoint>
          <Trackpoint>
            <Time>2018-08-26T05:51:26.000Z</Time>
            <Position>
              <LatitudeDegrees>42.83298407681286334991455078125</LatitudeDegrees>
              <LongitudeDegrees>-1.68093963526189327239990234375</LongitudeDegrees>
            </Position>
            <AltitudeMeters>415.600006103515625</AltitudeMeters>
            <DistanceMeters>6991.0642830301</DistanceMeters>
          </Trackpoint>
          <Trackpoint>
            <Time>2018-08-26T05:51:27.000Z</Time>
            <Position>
              <LatitudeDegrees>42.83294417895376682281494140625</LatitudeDegrees>
              <LongitudeDegrees>-1.68102278374135494232177734375</LongitudeDegrees>
            </Position>
            <AltitudeMeters>415.600006103515625</AltitudeMeters>
            <DistanceMeters>6999.1744665557</DistanceMeters>
          </Trackpoint>
          <Trackpoint>
            <Time>2018-08-26T05:51:28.000Z</Time>
            <Position>
              <LatitudeDegrees>42.8328931331634521484375</LatitudeDegrees>
              <LongitudeDegrees>-1.6810884140431880950927734375</LongitudeDegrees>
            </Position>
            <AltitudeMeters>415.600006103515625</AltitudeMeters>
            <DistanceMeters>7006.9834425593</DistanceMeters>
          </Trackpoint>
          <Trackpoint>
            <Time>2018-08-26T05:51:29.000Z</Time>
            <Position>
              <LatitudeDegrees>42.83283890224993228912353515625</LatitudeDegrees>
              <LongitudeDegrees>-1.681146584451198577880859375</LongitudeDegrees>
            </Position>
            <AltitudeMeters>415.600006103515625</AltitudeMeters>
            <DistanceMeters>7014.6629887214</DistanceMeters>
          </Trackpoint>
          <Trackpoint>
            <Time>2018-08-26T05:51:30.000Z</Time>
            <Position>
              <LatitudeDegrees>42.8327880240976810455322265625</LatitudeDegrees>
              <LongitudeDegrees>-1.681211292743682861328125</LongitudeDegrees>
            </Position>
            <AltitudeMeters>415.600006103515625</AltitudeMeters>
            <DistanceMeters>7022.406354113</DistanceMeters>
          </Trackpoint>
          <Trackpoint>
            <Time>2018-08-26T05:51:31.000Z</Time>
            <Position>
              <LatitudeDegrees>42.8327469527721405029296875</LatitudeDegrees>
              <LongitudeDegrees>-1.68128396384418010711669921875</LongitudeDegrees>
            </Position>
            <AltitudeMeters>415.600006103515625</AltitudeMeters>
            <DistanceMeters>7029.8947968561</DistanceMeters>
          </Trackpoint>
          <Trackpoint>
            <Time>2018-08-26T05:51:32.000Z</Time>
            <Position>
              <LatitudeDegrees>42.8327156044542789459228515625</LatitudeDegrees>
              <LongitudeDegrees>-1.6813707165420055389404296875</LongitudeDegrees>
            </Position>
            <AltitudeMeters>415.600006103515625</AltitudeMeters>
            <DistanceMeters>7037.788880561</DistanceMeters>
          </Trackpoint>
          <Trackpoint>
            <Time>2018-08-26T05:51:33.000Z</Time>
            <Position>
              <LatitudeDegrees>42.83268836326897144317626953125</LatitudeDegrees>
              <LongitudeDegrees>-1.68146182782948017120361328125</LongitudeDegrees>
            </Position>
            <AltitudeMeters>415.600006103515625</AltitudeMeters>
            <DistanceMeters>7045.8196218694</DistanceMeters>
          </Trackpoint>
          <Trackpoint>
            <Time>2018-08-26T05:51:34.000Z</Time>
            <Position>
              <LatitudeDegrees>42.83266103826463222503662109375</LatitudeDegrees>
              <LongitudeDegrees>-1.681553609669208526611328125</LongitudeDegrees>
            </Position>
            <AltitudeMeters>415.399993896484375</AltitudeMeters>
            <DistanceMeters>7053.904714533</DistanceMeters>
          </Trackpoint>
          <Trackpoint>
            <Time>2018-08-26T05:51:35.000Z</Time>
            <Position>
              <LatitudeDegrees>42.832632958889007568359375</LatitudeDegrees>
              <LongitudeDegrees>-1.68164589442312717437744140625</LongitudeDegrees>
            </Position>
            <AltitudeMeters>415.399993896484375</AltitudeMeters>
            <DistanceMeters>7062.0604207002</DistanceMeters>
          </Trackpoint>
          <Trackpoint>
            <Time>2018-08-26T05:51:36.000Z</Time>
            <Position>
              <LatitudeDegrees>42.8326042927801609039306640625</LatitudeDegrees>
              <LongitudeDegrees>-1.6817383468151092529296875</LongitudeDegrees>
            </Position>
            <AltitudeMeters>415.399993896484375</AltitudeMeters>
            <DistanceMeters>7070.2531344269</DistanceMeters>
          </Trackpoint>
          <Trackpoint>
            <Time>2018-08-26T05:51:37.000Z</Time>
            <Position>
              <LatitudeDegrees>42.8325747884809970855712890625</LatitudeDegrees>
              <LongitudeDegrees>-1.6818303801119327545166015625</LongitudeDegrees>
            </Position>
            <AltitudeMeters>415.399993896484375</AltitudeMeters>
            <DistanceMeters>7078.4513573424</DistanceMeters>
          </Trackpoint>
          <Trackpoint>
            <Time>2018-08-26T05:51:38.000Z</Time>
            <Position>
              <LatitudeDegrees>42.83254452981054782867431640625</LatitudeDegrees>
              <LongitudeDegrees>-1.68192232958972454071044921875</LongitudeDegrees>
            </Position>
            <AltitudeMeters>415.20001220703125</AltitudeMeters>
            <DistanceMeters>7086.6776197301</DistanceMeters>
          </Trackpoint>
          <Trackpoint>
            <Time>2018-08-26T05:51:39.000Z</Time>
            <Position>
              <LatitudeDegrees>42.83251301385462284088134765625</LatitudeDegrees>
              <LongitudeDegrees>-1.68201352469623088836669921875</LongitudeDegrees>
            </Position>
            <AltitudeMeters>415.20001220703125</AltitudeMeters>
            <DistanceMeters>7094.9060772512</DistanceMeters>
          </Trackpoint>
          <Trackpoint>
            <Time>2018-08-26T05:51:40.000Z</Time>
            <Position>
              <LatitudeDegrees>42.83248074352741241455078125</LatitudeDegrees>
              <LongitudeDegrees>-1.68210446834564208984375</LongitudeDegrees>
            </Position>
            <AltitudeMeters>415.20001220703125</AltitudeMeters>
            <DistanceMeters>7103.1526223278</DistanceMeters>
          </Trackpoint>
          <Trackpoint>
            <Time>2018-08-26T05:51:41.000Z</Time>
            <Position>
              <LatitudeDegrees>42.8324477188289165496826171875</LatitudeDegrees>
              <LongitudeDegrees>-1.6821951605379581451416015625</LongitudeDegrees>
            </Position>
            <AltitudeMeters>415.20001220703125</AltitudeMeters>
            <DistanceMeters>7111.4172153741</DistanceMeters>
          </Trackpoint>
          <Trackpoint>
            <Time>2018-08-26T05:51:42.000Z</Time>
            <Position>
              <LatitudeDegrees>42.83241368830204010009765625</LatitudeDegrees>
              <LongitudeDegrees>-1.6822853498160839080810546875</LongitudeDegrees>
            </Position>
            <AltitudeMeters>415.20001220703125</AltitudeMeters>
            <DistanceMeters>7119.6960003218</DistanceMeters>
          </Trackpoint>
          <Trackpoint>
            <Time>2018-08-26T05:51:43.000Z</Time>
            <Position>
              <LatitudeDegrees>42.83237881958484649658203125</LatitudeDegrees>
              <LongitudeDegrees>-1.68237478472292423248291015625</LongitudeDegrees>
            </Position>
            <AltitudeMeters>415.20001220703125</AltitudeMeters>
            <DistanceMeters>7127.9627783234</DistanceMeters>
          </Trackpoint>
          <Trackpoint>
            <Time>2018-08-26T05:51:44.000Z</Time>
            <Position>
              <LatitudeDegrees>42.83234319649636745452880859375</LatitudeDegrees>
              <LongitudeDegrees>-1.68246430344879627227783203125</LongitudeDegrees>
            </Position>
            <AltitudeMeters>415.20001220703125</AltitudeMeters>
            <DistanceMeters>7136.2763939689</DistanceMeters>
          </Trackpoint>
          <Trackpoint>
            <Time>2018-08-26T05:51:45.000Z</Time>
            <Position>
              <LatitudeDegrees>42.83230665139853954315185546875</LatitudeDegrees>
              <LongitudeDegrees>-1.68255315162241458892822265625</LongitudeDegrees>
            </Position>
            <AltitudeMeters>415.20001220703125</AltitudeMeters>
            <DistanceMeters>7144.5910957228</DistanceMeters>
          </Trackpoint>
          <Trackpoint>
            <Time>2018-08-26T05:51:46.000Z</Time>
            <Position>
              <LatitudeDegrees>42.83227027393877506256103515625</LatitudeDegrees>
              <LongitudeDegrees>-1.6826417483389377593994140625</LongitudeDegrees>
            </Position>
            <AltitudeMeters>415.20001220703125</AltitudeMeters>
            <DistanceMeters>7152.8791468513</DistanceMeters>
          </Trackpoint>
          <Trackpoint>
            <Time>2018-08-26T05:51:47.000Z</Time>
            <Position>
              <LatitudeDegrees>42.83223322592675685882568359375</LatitudeDegrees>
              <LongitudeDegrees>-1.6827307641506195068359375</LongitudeDegrees>
            </Position>
            <AltitudeMeters>415</AltitudeMeters>
            <DistanceMeters>7161.2339353532</DistanceMeters>
          </Trackpoint>
          <Trackpoint>
            <Time>2018-08-26T05:51:48.000Z</Time>
            <Position>
              <LatitudeDegrees>42.83219500444829463958740234375</LatitudeDegrees>
              <LongitudeDegrees>-1.68281885795295238494873046875</LongitudeDegrees>
            </Position>
            <AltitudeMeters>415</AltitudeMeters>
            <DistanceMeters>7169.5887238551</DistanceMeters>
          </Trackpoint>
          <Trackpoint>
            <Time>2018-08-26T05:51:49.000Z</Time>
            <Position>
              <LatitudeDegrees>42.832155190408229827880859375</LatitudeDegrees>
              <LongitudeDegrees>-1.6829052753746509552001953125</LongitudeDegrees>
            </Position>
            <AltitudeMeters>415</AltitudeMeters>
            <DistanceMeters>7177.9186162551</DistanceMeters>
          </Trackpoint>
          <Trackpoint>
            <Time>2018-08-26T05:51:50.000Z</Time>
            <Position>
              <LatitudeDegrees>42.83211403526365756988525390625</LatitudeDegrees>
              <LongitudeDegrees>-1.68298884294927120208740234375</LongitudeDegrees>
            </Position>
            <AltitudeMeters>415</AltitudeMeters>
            <DistanceMeters>7186.1349932849</DistanceMeters>
          </Trackpoint>
          <Trackpoint>
            <Time>2018-08-26T05:51:51.000Z</Time>
            <Position>
              <LatitudeDegrees>42.83207229338586330413818359375</LatitudeDegrees>
              <LongitudeDegrees>-1.68307165615260601043701171875</LongitudeDegrees>
            </Position>
            <AltitudeMeters>415</AltitudeMeters>
            <DistanceMeters>7194.3370704308</DistanceMeters>
          </Trackpoint>
          <Trackpoint>
            <Time>2018-08-26T05:51:52.000Z</Time>
            <Position>
              <LatitudeDegrees>42.83203088678419589996337890625</LatitudeDegrees>
              <LongitudeDegrees>-1.683154217898845672607421875</LongitudeDegrees>
            </Position>
            <AltitudeMeters>414.79998779296875</AltitudeMeters>
            <DistanceMeters>7202.5016294703</DistanceMeters>
          </Trackpoint>
          <Trackpoint>
            <Time>2018-08-26T05:51:53.000Z</Time>
            <Position>
              <LatitudeDegrees>42.8319890610873699188232421875</LatitudeDegrees>
              <LongitudeDegrees>-1.6832355223596096038818359375</LongitudeDegrees>
            </Position>
            <AltitudeMeters>414.79998779296875</AltitudeMeters>
            <DistanceMeters>7210.6073580745</DistanceMeters>
          </Trackpoint>
          <Trackpoint>
            <Time>2018-08-26T05:51:54.000Z</Time>
            <Position>
              <LatitudeDegrees>42.83194690011441707611083984375</LatitudeDegrees>
              <LongitudeDegrees>-1.68331640772521495819091796875</LongitudeDegrees>
            </Position>
            <AltitudeMeters>414.600006103515625</AltitudeMeters>
            <DistanceMeters>7218.7075145818</DistanceMeters>
          </Trackpoint>
          <Trackpoint>
            <Time>2018-08-26T05:51:55.000Z</Time>
            <Position>
              <LatitudeDegrees>42.83190432004630565643310546875</LatitudeDegrees>
              <LongitudeDegrees>-1.6833967901766300201416015625</LongitudeDegrees>
            </Position>
            <AltitudeMeters>414.600006103515625</AltitudeMeters>
            <DistanceMeters>7226.8009795088</DistanceMeters>
          </Trackpoint>
          <Trackpoint>
            <Time>2018-08-26T05:51:56.000Z</Time>
            <Position>
              <LatitudeDegrees>42.8318609856069087982177734375</LatitudeDegrees>
              <LongitudeDegrees>-1.6834765858948230743408203125</LongitudeDegrees>
            </Position>
            <AltitudeMeters>414.399993896484375</AltitudeMeters>
            <DistanceMeters>7234.9055940001</DistanceMeters>
          </Trackpoint>
          <Trackpoint>
            <Time>2018-08-26T05:51:57.000Z</Time>
            <Position>
              <LatitudeDegrees>42.83181689679622650146484375</LatitudeDegrees>
              <LongitudeDegrees>-1.6835563816130161285400390625</LongitudeDegrees>
            </Position>
            <AltitudeMeters>414.399993896484375</AltitudeMeters>
            <DistanceMeters>7243.0607465437</DistanceMeters>
          </Trackpoint>
          <Trackpoint>
            <Time>2018-08-26T05:51:58.000Z</Time>
            <Position>
              <LatitudeDegrees>42.83177255652844905853271484375</LatitudeDegrees>
              <LongitudeDegrees>-1.68363575823605060577392578125</LongitudeDegrees>
            </Position>
            <AltitudeMeters>414.399993896484375</AltitudeMeters>
            <DistanceMeters>7251.2053730887</DistanceMeters>
          </Trackpoint>
          <Trackpoint>
            <Time>2018-08-26T05:51:59.000Z</Time>
            <Position>
              <LatitudeDegrees>42.83172679133713245391845703125</LatitudeDegrees>
              <LongitudeDegrees>-1.683713458478450775146484375</LongitudeDegrees>
            </Position>
            <AltitudeMeters>414.399993896484375</AltitudeMeters>
            <DistanceMeters>7259.3394600138</DistanceMeters>
          </Trackpoint>
          <Trackpoint>
            <Time>2018-08-26T05:52:00.000Z</Time>
            <Position>
              <LatitudeDegrees>42.8316802717745304107666015625</LatitudeDegrees>
              <LongitudeDegrees>-1.68378948234021663665771484375</LongitudeDegrees>
            </Position>
            <AltitudeMeters>414.399993896484375</AltitudeMeters>
            <DistanceMeters>7267.4212013435</DistanceMeters>
          </Trackpoint>
          <Trackpoint>
            <Time>2018-08-26T05:52:01.000Z</Time>
            <Position>
              <LatitudeDegrees>42.8316323272883892059326171875</LatitudeDegrees>
              <LongitudeDegrees>-1.6838631592690944671630859375</LongitudeDegrees>
            </Position>
            <AltitudeMeters>414.20001220703125</AltitudeMeters>
            <DistanceMeters>7275.4609331291</DistanceMeters>
          </Trackpoint>
          <Trackpoint>
            <Time>2018-08-26T05:52:02.000Z</Time>
            <Position>
              <LatitudeDegrees>42.831585220992565155029296875</LatitudeDegrees>
              <LongitudeDegrees>-1.68393566273152828216552734375</LongitudeDegrees>
            </Position>
            <AltitudeMeters>414.20001220703125</AltitudeMeters>
            <DistanceMeters>7283.3681607911</DistanceMeters>
          </Trackpoint>
          <Trackpoint>
            <Time>2018-08-26T05:52:03.000Z</Time>
            <Position>
              <LatitudeDegrees>42.83153886906802654266357421875</LatitudeDegrees>
              <LongitudeDegrees>-1.684009842574596405029296875</LongitudeDegrees>
            </Position>
            <AltitudeMeters>414.20001220703125</AltitudeMeters>
            <DistanceMeters>7291.3232079763</DistanceMeters>
          </Trackpoint>
          <Trackpoint>
            <Time>2018-08-26T05:52:04.000Z</Time>
            <Position>
              <LatitudeDegrees>42.83149695955216884613037109375</LatitudeDegrees>
              <LongitudeDegrees>-1.68408703990280628204345703125</LongitudeDegrees>
            </Position>
            <AltitudeMeters>414.20001220703125</AltitudeMeters>
            <DistanceMeters>7299.1627679307</DistanceMeters>
          </Trackpoint>
          <Trackpoint>
            <Time>2018-08-26T05:52:05.000Z</Time>
            <Position>
              <LatitudeDegrees>42.83146427012979984283447265625</LatitudeDegrees>
              <LongitudeDegrees>-1.68417312204837799072265625</LongitudeDegrees>
            </Position>
            <AltitudeMeters>414.20001220703125</AltitudeMeters>
            <DistanceMeters>7307.0751329365</DistanceMeters>
          </Trackpoint>
          <Trackpoint>
            <Time>2018-08-26T05:52:06.000Z</Time>
            <Position>
              <LatitudeDegrees>42.8314433991909027099609375</LatitudeDegrees>
              <LongitudeDegrees>-1.684265322983264923095703125</LongitudeDegrees>
            </Position>
            <AltitudeMeters>414.20001220703125</AltitudeMeters>
            <DistanceMeters>7314.9508929058</DistanceMeters>
          </Trackpoint>
          <Trackpoint>
            <Time>2018-08-26T05:52:07.000Z</Time>
            <Position>
              <LatitudeDegrees>42.8314284794032573699951171875</LatitudeDegrees>
              <LongitudeDegrees>-1.684358529746532440185546875</LongitudeDegrees>
            </Position>
            <AltitudeMeters>414</AltitudeMeters>
            <DistanceMeters>7322.7378668573</DistanceMeters>
          </Trackpoint>
          <Trackpoint>
            <Time>2018-08-26T05:52:08.000Z</Time>
            <Position>
              <LatitudeDegrees>42.83140878193080425262451171875</LatitudeDegrees>
              <LongitudeDegrees>-1.68444813229143619537353515625</LongitudeDegrees>
            </Position>
            <AltitudeMeters>414</AltitudeMeters>
            <DistanceMeters>7330.3725995602</DistanceMeters>
          </Trackpoint>
          <Trackpoint>
            <Time>2018-08-26T05:52:09.000Z</Time>
            <Position>
              <LatitudeDegrees>42.8313768468797206878662109375</LatitudeDegrees>
              <LongitudeDegrees>-1.6845280118286609649658203125</LongitudeDegrees>
            </Position>
            <AltitudeMeters>414</AltitudeMeters>
            <DistanceMeters>7337.7980723914</DistanceMeters>
          </Trackpoint>
          <Trackpoint>
            <Time>2018-08-26T05:52:10.000Z</Time>
            <Position>
              <LatitudeDegrees>42.8313305787742137908935546875</LatitudeDegrees>
              <LongitudeDegrees>-1.68459179811179637908935546875</LongitudeDegrees>
            </Position>
            <AltitudeMeters>414</AltitudeMeters>
            <DistanceMeters>7345.1206808013</DistanceMeters>
          </Trackpoint>
          <Trackpoint>
            <Time>2018-08-26T05:52:11.000Z</Time>
            <Position>
              <LatitudeDegrees>42.83127517439424991607666015625</LatitudeDegrees>
              <LongitudeDegrees>-1.68464343063533306121826171875</LongitudeDegrees>
            </Position>
            <AltitudeMeters>414</AltitudeMeters>
            <DistanceMeters>7352.5898047306</DistanceMeters>
          </Trackpoint>
          <Trackpoint>
            <Time>2018-08-26T05:52:12.000Z</Time>
            <Position>
              <LatitudeDegrees>42.8312139026820659637451171875</LatitudeDegrees>
              <LongitudeDegrees>-1.6846775449812412261962890625</LongitudeDegrees>
            </Position>
            <AltitudeMeters>414</AltitudeMeters>
            <DistanceMeters>7359.9566737689</DistanceMeters>
          </Trackpoint>
          <Trackpoint>
            <Time>2018-08-26T05:52:13.000Z</Time>
            <Position>
              <LatitudeDegrees>42.83114709891378879547119140625</LatitudeDegrees>
              <LongitudeDegrees>-1.684698164463043212890625</LongitudeDegrees>
            </Position>
            <AltitudeMeters>414</AltitudeMeters>
            <DistanceMeters>7367.5801619465</DistanceMeters>
          </Trackpoint>
          <Trackpoint>
            <Time>2018-08-26T05:52:14.000Z</Time>
            <Position>
              <LatitudeDegrees>42.83107752911746501922607421875</LatitudeDegrees>
              <LongitudeDegrees>-1.68471685610711574554443359375</LongitudeDegrees>
            </Position>
            <AltitudeMeters>414</AltitudeMeters>
            <DistanceMeters>7375.4725296084</DistanceMeters>
          </Trackpoint>
          <Trackpoint>
            <Time>2018-08-26T05:52:15.000Z</Time>
            <Position>
              <LatitudeDegrees>42.8310100547969341278076171875</LatitudeDegrees>
              <LongitudeDegrees>-1.68473579920828342437744140625</LongitudeDegrees>
            </Position>
            <AltitudeMeters>414</AltitudeMeters>
            <DistanceMeters>7383.1403081476</DistanceMeters>
          </Trackpoint>
          <Trackpoint>
            <Time>2018-08-26T05:52:16.000Z</Time>
            <Position>
              <LatitudeDegrees>42.83094408921897411346435546875</LatitudeDegrees>
              <LongitudeDegrees>-1.68475943617522716522216796875</LongitudeDegrees>
            </Position>
            <AltitudeMeters>414</AltitudeMeters>
            <DistanceMeters>7390.7317472645</DistanceMeters>
          </Trackpoint>
          <Trackpoint>
            <Time>2018-08-26T05:52:17.000Z</Time>
            <Position>
              <LatitudeDegrees>42.83088256604969501495361328125</LatitudeDegrees>
              <LongitudeDegrees>-1.68479095213115215301513671875</LongitudeDegrees>
            </Position>
            <AltitudeMeters>414</AltitudeMeters>
            <DistanceMeters>7398.046952867</DistanceMeters>
          </Trackpoint>
          <Trackpoint>
            <Time>2018-08-26T05:52:18.000Z</Time>
            <Position>
              <LatitudeDegrees>42.8308283351361751556396484375</LatitudeDegrees>
              <LongitudeDegrees>-1.684832274913787841796875</LongitudeDegrees>
            </Position>
            <AltitudeMeters>414</AltitudeMeters>
            <DistanceMeters>7404.9617380965</DistanceMeters>
          </Trackpoint>
          <Trackpoint>
            <Time>2018-08-26T05:52:19.000Z</Time>
            <Position>
              <LatitudeDegrees>42.83077888190746307373046875</LatitudeDegrees>
              <LongitudeDegrees>-1.68488365598022937774658203125</LongitudeDegrees>
            </Position>
            <AltitudeMeters>414</AltitudeMeters>
            <DistanceMeters>7411.8823974191</DistanceMeters>
          </Trackpoint>
          <Trackpoint>
            <Time>2018-08-26T05:52:20.000Z</Time>
            <Position>
              <LatitudeDegrees>42.8307290934026241302490234375</LatitudeDegrees>
              <LongitudeDegrees>-1.684938557446002960205078125</LongitudeDegrees>
            </Position>
            <AltitudeMeters>414</AltitudeMeters>
            <DistanceMeters>7419.0087674572</DistanceMeters>
          </Trackpoint>
          <Trackpoint>
            <Time>2018-08-26T05:52:21.000Z</Time>
            <Position>
              <LatitudeDegrees>42.8306761197745800018310546875</LatitudeDegrees>
              <LongitudeDegrees>-1.68499446474015712738037109375</LongitudeDegrees>
            </Position>
            <AltitudeMeters>414</AltitudeMeters>
            <DistanceMeters>7426.4639750675</DistanceMeters>
          </Trackpoint>
          <Trackpoint>
            <Time>2018-08-26T05:52:22.000Z</Time>
            <Position>
              <LatitudeDegrees>42.83062188886106014251708984375</LatitudeDegrees>
              <LongitudeDegrees>-1.68505079112946987152099609375</LongitudeDegrees>
            </Position>
            <AltitudeMeters>414</AltitudeMeters>
            <DistanceMeters>7434.0512497647</DistanceMeters>
          </Trackpoint>
          <Trackpoint>
            <Time>2018-08-26T05:52:23.000Z</Time>
            <Position>
              <LatitudeDegrees>42.8305664844810962677001953125</LatitudeDegrees>
              <LongitudeDegrees>-1.6851066984236240386962890625</LongitudeDegrees>
            </Position>
            <AltitudeMeters>414</AltitudeMeters>
            <DistanceMeters>7441.721971902</DistanceMeters>
          </Trackpoint>
          <Trackpoint>
            <Time>2018-08-26T05:52:24.000Z</Time>
            <Position>
              <LatitudeDegrees>42.83051141537725925445556640625</LatitudeDegrees>
              <LongitudeDegrees>-1.68515992350876331329345703125</LongitudeDegrees>
            </Position>
            <AltitudeMeters>414</AltitudeMeters>
            <DistanceMeters>7449.2344933013</DistanceMeters>
          </Trackpoint>
          <Trackpoint>
            <Time>2018-08-26T05:52:25.000Z</Time>
            <Position>
              <LatitudeDegrees>42.83045643009245395660400390625</LatitudeDegrees>
              <LongitudeDegrees>-1.6852118074893951416015625</LongitudeDegrees>
            </Position>
            <AltitudeMeters>414</AltitudeMeters>
            <DistanceMeters>7456.6763652991</DistanceMeters>
          </Trackpoint>
          <Trackpoint>
            <Time>2018-08-26T05:52:26.000Z</Time>
            <Position>
              <LatitudeDegrees>42.83039976842701435089111328125</LatitudeDegrees>
              <LongitudeDegrees>-1.685266457498073577880859375</LongitudeDegrees>
            </Position>
            <AltitudeMeters>414</AltitudeMeters>
            <DistanceMeters>7464.4004649272</DistanceMeters>
          </Trackpoint>
          <Trackpoint>
            <Time>2018-08-26T05:52:27.000Z</Time>
            <Position>
              <LatitudeDegrees>42.83034344203770160675048828125</LatitudeDegrees>
              <LongitudeDegrees>-1.68532110750675201416015625</LongitudeDegrees>
            </Position>
            <AltitudeMeters>413.79998779296875</AltitudeMeters>
            <DistanceMeters>7472.0946953089</DistanceMeters>
          </Trackpoint>
          <Trackpoint>
            <Time>2018-08-26T05:52:28.000Z</Time>
            <Position>
              <LatitudeDegrees>42.83028963021934032440185546875</LatitudeDegrees>
              <LongitudeDegrees>-1.68537600897252559661865234375</LongitudeDegrees>
            </Position>
            <AltitudeMeters>413.79998779296875</AltitudeMeters>
            <DistanceMeters>7479.575295801</DistanceMeters>
          </Trackpoint>
          <Trackpoint>
            <Time>2018-08-26T05:52:29.000Z</Time>
            <Position>
              <LatitudeDegrees>42.83023246563971042633056640625</LatitudeDegrees>
              <LongitudeDegrees>-1.685429401695728302001953125</LongitudeDegrees>
            </Position>
            <AltitudeMeters>413.79998779296875</AltitudeMeters>
            <DistanceMeters>7487.2871103385</DistanceMeters>
          </Trackpoint>
          <Trackpoint>
            <Time>2018-08-26T05:52:30.000Z</Time>
            <Position>
              <LatitudeDegrees>42.8301742114126682281494140625</LatitudeDegrees>
              <LongitudeDegrees>-1.68547977693378925323486328125</LongitudeDegrees>
            </Position>
            <AltitudeMeters>413.79998779296875</AltitudeMeters>
            <DistanceMeters>7494.9648925069</DistanceMeters>
          </Trackpoint>
          <Trackpoint>
            <Time>2018-08-26T05:52:31.000Z</Time>
            <Position>
              <LatitudeDegrees>42.83011310733854770660400390625</LatitudeDegrees>
              <LongitudeDegrees>-1.68552755378186702728271484375</LongitudeDegrees>
            </Position>
            <AltitudeMeters>413.79998779296875</AltitudeMeters>
            <DistanceMeters>7502.8044524613</DistanceMeters>
          </Trackpoint>
          <Trackpoint>
            <Time>2018-08-26T05:52:32.000Z</Time>
            <Position>
              <LatitudeDegrees>42.83004974015057086944580078125</LatitudeDegrees>
              <LongitudeDegrees>-1.68558287434279918670654296875</LongitudeDegrees>
            </Position>
            <AltitudeMeters>413.600006103515625</AltitudeMeters>
            <DistanceMeters>7511.1792123826</DistanceMeters>
          </Trackpoint>
          <Trackpoint>
            <Time>2018-08-26T05:52:33.000Z</Time>
            <Position>
              <LatitudeDegrees>42.82998704351484775543212890625</LatitudeDegrees>
              <LongitudeDegrees>-1.68563702143728733062744140625</LongitudeDegrees>
            </Position>
            <AltitudeMeters>413.600006103515625</AltitudeMeters>
            <DistanceMeters>7519.4388871664</DistanceMeters>
          </Trackpoint>
          <Trackpoint>
            <Time>2018-08-26T05:52:34.000Z</Time>
            <Position>
              <LatitudeDegrees>42.8299237601459026336669921875</LatitudeDegrees>
              <LongitudeDegrees>-1.68569125235080718994140625</LongitudeDegrees>
            </Position>
            <AltitudeMeters>413.399993896484375</AltitudeMeters>
            <DistanceMeters>7527.7579319353</DistanceMeters>
          </Trackpoint>
          <Trackpoint>
            <Time>2018-08-26T05:52:35.000Z</Time>
            <Position>
              <LatitudeDegrees>42.829856537282466888427734375</LatitudeDegrees>
              <LongitudeDegrees>-1.6857453994452953338623046875</LongitudeDegrees>
            </Position>
            <AltitudeMeters>413.399993896484375</AltitudeMeters>
            <DistanceMeters>7536.4475521355</DistanceMeters>
          </Trackpoint>
          <Trackpoint>
            <Time>2018-08-26T05:52:36.000Z</Time>
            <Position>
              <LatitudeDegrees>42.8297913260757923126220703125</LatitudeDegrees>
              <LongitudeDegrees>-1.68579627759754657745361328125</LongitudeDegrees>
            </Position>
            <AltitudeMeters>413.399993896484375</AltitudeMeters>
            <DistanceMeters>7544.8099030001</DistanceMeters>
          </Trackpoint>
          <Trackpoint>
            <Time>2018-08-26T05:52:37.000Z</Time>
            <Position>
              <LatitudeDegrees>42.82972452230751514434814453125</LatitudeDegrees>
              <LongitudeDegrees>-1.6858476586639881134033203125</LongitudeDegrees>
            </Position>
            <AltitudeMeters>413.399993896484375</AltitudeMeters>
            <DistanceMeters>7553.3464548158</DistanceMeters>
          </Trackpoint>
          <Trackpoint>
            <Time>2018-08-26T05:52:38.000Z</Time>
            <Position>
              <LatitudeDegrees>42.82965813763439655303955078125</LatitudeDegrees>
              <LongitudeDegrees>-1.685900129377841949462890625</LongitudeDegrees>
            </Position>
            <AltitudeMeters>413</AltitudeMeters>
            <DistanceMeters>7561.8867081749</DistanceMeters>
          </Trackpoint>
          <Trackpoint>
            <Time>2018-08-26T05:52:39.000Z</Time>
            <Position>
              <LatitudeDegrees>42.82959192059934139251708984375</LatitudeDegrees>
              <LongitudeDegrees>-1.685949079692363739013671875</LongitudeDegrees>
            </Position>
            <AltitudeMeters>413</AltitudeMeters>
            <DistanceMeters>7570.2700896504</DistanceMeters>
          </Trackpoint>
          <Trackpoint>
            <Time>2018-08-26T05:52:40.000Z</Time>
            <Position>
              <LatitudeDegrees>42.82952603884041309356689453125</LatitudeDegrees>
              <LongitudeDegrees>-1.6859976947307586669921875</LongitudeDegrees>
            </Position>
            <AltitudeMeters>413.20001220703125</AltitudeMeters>
            <DistanceMeters>7578.6075669946</DistanceMeters>
          </Trackpoint>
          <Trackpoint>
            <Time>2018-08-26T05:52:41.000Z</Time>
            <Position>
              <LatitudeDegrees>42.82945948652923107147216796875</LatitudeDegrees>
              <LongitudeDegrees>-1.6860471479594707489013671875</LongitudeDegrees>
            </Position>
            <AltitudeMeters>413</AltitudeMeters>
            <DistanceMeters>7587.0430280003</DistanceMeters>
          </Trackpoint>
          <Trackpoint>
            <Time>2018-08-26T05:52:42.000Z</Time>
            <Position>
              <LatitudeDegrees>42.829394526779651641845703125</LatitudeDegrees>
              <LongitudeDegrees>-1.68609400279819965362548828125</LongitudeDegrees>
            </Position>
            <AltitudeMeters>412.79998779296875</AltitudeMeters>
            <DistanceMeters>7595.2219525199</DistanceMeters>
          </Trackpoint>
          <Trackpoint>
            <Time>2018-08-26T05:52:43.000Z</Time>
            <Position>
              <LatitudeDegrees>42.829331494867801666259765625</LatitudeDegrees>
              <LongitudeDegrees>-1.6861438751220703125</LongitudeDegrees>
            </Position>
            <AltitudeMeters>413</AltitudeMeters>
            <DistanceMeters>7603.3332493934</DistanceMeters>
          </Trackpoint>
          <Trackpoint>
            <Time>2018-08-26T05:52:44.000Z</Time>
            <Position>
              <LatitudeDegrees>42.8292689658701419830322265625</LatitudeDegrees>
              <LongitudeDegrees>-1.68619282543659210205078125</LongitudeDegrees>
            </Position>
            <AltitudeMeters>412.79998779296875</AltitudeMeters>
            <DistanceMeters>7611.3583665389</DistanceMeters>
          </Trackpoint>
          <Trackpoint>
            <Time>2018-08-26T05:52:45.000Z</Time>
            <Position>
              <LatitudeDegrees>42.8292037546634674072265625</LatitudeDegrees>
              <LongitudeDegrees>-1.6862436197698116302490234375</LongitudeDegrees>
            </Position>
            <AltitudeMeters>412.600006103515625</AltitudeMeters>
            <DistanceMeters>7619.7174772286</DistanceMeters>
          </Trackpoint>
          <Trackpoint>
            <Time>2018-08-26T05:52:46.000Z</Time>
            <Position>
              <LatitudeDegrees>42.829140387475490570068359375</LatitudeDegrees>
              <LongitudeDegrees>-1.6862932406365871429443359375</LongitudeDegrees>
            </Position>
            <AltitudeMeters>412.600006103515625</AltitudeMeters>
            <DistanceMeters>7627.8510090585</DistanceMeters>
          </Trackpoint>
          <Trackpoint>
            <Time>2018-08-26T05:52:47.000Z</Time>
            <Position>
              <LatitudeDegrees>42.82907542772591114044189453125</LatitudeDegrees>
              <LongitudeDegrees>-1.68633875437080860137939453125</LongitudeDegrees>
            </Position>
            <AltitudeMeters>412.399993896484375</AltitudeMeters>
            <DistanceMeters>7635.9800987626</DistanceMeters>
          </Trackpoint>
          <Trackpoint>
            <Time>2018-08-26T05:52:48.000Z</Time>
            <Position>
              <LatitudeDegrees>42.82900988124310970306396484375</LatitudeDegrees>
              <LongitudeDegrees>-1.68638594448566436767578125</LongitudeDegrees>
            </Position>
            <AltitudeMeters>412.399993896484375</AltitudeMeters>
            <DistanceMeters>7644.2304754955</DistanceMeters>
          </Trackpoint>
          <Trackpoint>
            <Time>2018-08-26T05:52:49.000Z</Time>
            <Position>
              <LatitudeDegrees>42.82894349656999111175537109375</LatitudeDegrees>
              <LongitudeDegrees>-1.68643422424793243408203125</LongitudeDegrees>
            </Position>
            <AltitudeMeters>412.399993896484375</AltitudeMeters>
            <DistanceMeters>7652.604696275</DistanceMeters>
          </Trackpoint>
          <Trackpoint>
            <Time>2018-08-26T05:52:50.000Z</Time>
            <Position>
              <LatitudeDegrees>42.828874848783016204833984375</LatitudeDegrees>
              <LongitudeDegrees>-1.68648510240018367767333984375</LongitudeDegrees>
            </Position>
            <AltitudeMeters>412.399993896484375</AltitudeMeters>
            <DistanceMeters>7661.3010685197</DistanceMeters>
          </Trackpoint>
          <Trackpoint>
            <Time>2018-08-26T05:52:51.000Z</Time>
            <Position>
              <LatitudeDegrees>42.8288076259195804595947265625</LatitudeDegrees>
              <LongitudeDegrees>-1.68653346598148345947265625</LongitudeDegrees>
            </Position>
            <AltitudeMeters>412.20001220703125</AltitudeMeters>
            <DistanceMeters>7669.7611149672</DistanceMeters>
          </Trackpoint>
          <Trackpoint>
            <Time>2018-08-26T05:52:52.000Z</Time>
            <Position>
              <LatitudeDegrees>42.82874182797968387603759765625</LatitudeDegrees>
              <LongitudeDegrees>-1.68657931499183177947998046875</LongitudeDegrees>
            </Position>
            <AltitudeMeters>412.20001220703125</AltitudeMeters>
            <DistanceMeters>7677.9851816356</DistanceMeters>
          </Trackpoint>
          <Trackpoint>
            <Time>2018-08-26T05:52:53.000Z</Time>
            <Position>
              <LatitudeDegrees>42.8286785446107387542724609375</LatitudeDegrees>
              <LongitudeDegrees>-1.68662440963089466094970703125</LongitudeDegrees>
            </Position>
            <AltitudeMeters>412.20001220703125</AltitudeMeters>
            <DistanceMeters>7685.9334150746</DistanceMeters>
          </Trackpoint>
          <Trackpoint>
            <Time>2018-08-26T05:52:54.000Z</Time>
            <Position>
              <LatitudeDegrees>42.8286138363182544708251953125</LatitudeDegrees>
              <LongitudeDegrees>-1.68667034246027469635009765625</LongitudeDegrees>
            </Position>
            <AltitudeMeters>412.20001220703125</AltitudeMeters>
            <DistanceMeters>7694.0525011095</DistanceMeters>
          </Trackpoint>
          <Trackpoint>
            <Time>2018-08-26T05:52:55.000Z</Time>
            <Position>
              <LatitudeDegrees>42.82854728400707244873046875</LatitudeDegrees>
              <LongitudeDegrees>-1.68671493418514728546142578125</LongitudeDegrees>
            </Position>
            <AltitudeMeters>412.20001220703125</AltitudeMeters>
            <DistanceMeters>7702.3050665615</DistanceMeters>
          </Trackpoint>
          <Trackpoint>
            <Time>2018-08-26T05:52:56.000Z</Time>
            <Position>
              <LatitudeDegrees>42.8284793905913829803466796875</LatitudeDegrees>
              <LongitudeDegrees>-1.686756424605846405029296875</LongitudeDegrees>
            </Position>
            <AltitudeMeters>412.20001220703125</AltitudeMeters>
            <DistanceMeters>7710.5860327198</DistanceMeters>
          </Trackpoint>
          <Trackpoint>
            <Time>2018-08-26T05:52:57.000Z</Time>
            <Position>
              <LatitudeDegrees>42.82841275446116924285888671875</LatitudeDegrees>
              <LongitudeDegrees>-1.68679841794073581695556640625</LongitudeDegrees>
            </Position>
            <AltitudeMeters>412.20001220703125</AltitudeMeters>
            <DistanceMeters>7718.7572251192</DistanceMeters>
          </Trackpoint>
          <Trackpoint>
            <Time>2018-08-26T05:52:58.000Z</Time>
            <Position>
              <LatitudeDegrees>42.8283489681780338287353515625</LatitudeDegrees>
              <LongitudeDegrees>-1.68684083037078380584716796875</LongitudeDegrees>
            </Position>
            <AltitudeMeters>412.20001220703125</AltitudeMeters>
            <DistanceMeters>7726.655883116</DistanceMeters>
          </Trackpoint>
          <Trackpoint>
            <Time>2018-08-26T05:52:59.000Z</Time>
            <Position>
              <LatitudeDegrees>42.828282080590724945068359375</LatitudeDegrees>
              <LongitudeDegrees>-1.68688341043889522552490234375</LongitudeDegrees>
            </Position>
            <AltitudeMeters>412.20001220703125</AltitudeMeters>
            <DistanceMeters>7734.8722601458</DistanceMeters>
          </Trackpoint>
          <Trackpoint>
            <Time>2018-08-26T05:53:00.000Z</Time>
            <Position>
              <LatitudeDegrees>42.82821695320308208465576171875</LatitudeDegrees>
              <LongitudeDegrees>-1.68692800216376781463623046875</LongitudeDegrees>
            </Position>
            <AltitudeMeters>412.20001220703125</AltitudeMeters>
            <DistanceMeters>7742.9835570193</DistanceMeters>
          </Trackpoint>
          <Trackpoint>
            <Time>2018-08-26T05:53:01.000Z</Time>
            <Position>
              <LatitudeDegrees>42.828149981796741485595703125</LatitudeDegrees>
              <LongitudeDegrees>-1.68697192333638668060302734375</LongitudeDegrees>
            </Position>
            <AltitudeMeters>412.20001220703125</AltitudeMeters>
            <DistanceMeters>7751.2547031998</DistanceMeters>
          </Trackpoint>
          <Trackpoint>
            <Time>2018-08-26T05:53:02.000Z</Time>
            <Position>
              <LatitudeDegrees>42.82808301039040088653564453125</LatitudeDegrees>
              <LongitudeDegrees>-1.6870150901377201080322265625</LongitudeDegrees>
            </Position>
            <AltitudeMeters>412</AltitudeMeters>
            <DistanceMeters>7759.4996055928</DistanceMeters>
          </Trackpoint>
          <Trackpoint>
            <Time>2018-08-26T05:53:03.000Z</Time>
            <Position>
              <LatitudeDegrees>42.828015200793743133544921875</LatitudeDegrees>
              <LongitudeDegrees>-1.687058508396148681640625</LongitudeDegrees>
            </Position>
            <AltitudeMeters>412</AltitudeMeters>
            <DistanceMeters>7767.8381659373</DistanceMeters>
          </Trackpoint>
          <Trackpoint>
            <Time>2018-08-26T05:53:04.000Z</Time>
            <Position>
              <LatitudeDegrees>42.8279486484825611114501953125</LatitudeDegrees>
              <LongitudeDegrees>-1.68709748424589633941650390625</LongitudeDegrees>
            </Position>
            <AltitudeMeters>412</AltitudeMeters>
            <DistanceMeters>7775.8997700064</DistanceMeters>
          </Trackpoint>
          <Trackpoint>
            <Time>2018-08-26T05:53:05.000Z</Time>
            <Position>
              <LatitudeDegrees>42.8278856165707111358642578125</LatitudeDegrees>
              <LongitudeDegrees>-1.68713805265724658966064453125</LongitudeDegrees>
            </Position>
            <AltitudeMeters>412</AltitudeMeters>
            <DistanceMeters>7783.6576988214</DistanceMeters>
          </Trackpoint>
          <Trackpoint>
            <Time>2018-08-26T05:53:06.000Z</Time>
            <Position>
              <LatitudeDegrees>42.8278202377259731292724609375</LatitudeDegrees>
              <LongitudeDegrees>-1.68717920780181884765625</LongitudeDegrees>
            </Position>
            <AltitudeMeters>411.79998779296875</AltitudeMeters>
            <DistanceMeters>7791.6726825283</DistanceMeters>
          </Trackpoint>
          <Trackpoint>
            <Time>2018-08-26T05:53:07.000Z</Time>
            <Position>
              <LatitudeDegrees>42.82775309868156909942626953125</LatitudeDegrees>
              <LongitudeDegrees>-1.687217764556407928466796875</LongitudeDegrees>
            </Position>
            <AltitudeMeters>411.79998779296875</AltitudeMeters>
            <DistanceMeters>7799.7811957452</DistanceMeters>
          </Trackpoint>
          <Trackpoint>
            <Time>2018-08-26T05:53:08.000Z</Time>
            <Position>
              <LatitudeDegrees>42.82768805511295795440673828125</LatitudeDegrees>
              <LongitudeDegrees>-1.687257997691631317138671875</LongitudeDegrees>
            </Position>
            <AltitudeMeters>411.79998779296875</AltitudeMeters>
            <DistanceMeters>7807.7311331683</DistanceMeters>
          </Trackpoint>
          <Trackpoint>
            <Time>2018-08-26T05:53:09.000Z</Time>
            <Position>
              <LatitudeDegrees>42.827622592449188232421875</LatitudeDegrees>
              <LongitudeDegrees>-1.687298230826854705810546875</LongitudeDegrees>
            </Position>
            <AltitudeMeters>411.79998779296875</AltitudeMeters>
            <DistanceMeters>7815.7235521241</DistanceMeters>
          </Trackpoint>
          <Trackpoint>
            <Time>2018-08-26T05:53:10.000Z</Time>
            <Position>
              <LatitudeDegrees>42.82755293883383274078369140625</LatitudeDegrees>
              <LongitudeDegrees>-1.68734072707593441009521484375</LongitudeDegrees>
            </Position>
            <AltitudeMeters>411.79998779296875</AltitudeMeters>
            <DistanceMeters>7824.2171544641</DistanceMeters>
          </Trackpoint>
          <Trackpoint>
            <Time>2018-08-26T05:53:11.000Z</Time>
            <Position>
              <LatitudeDegrees>42.8274792619049549102783203125</LatitudeDegrees>
              <LongitudeDegrees>-1.68737970292568206787109375</LongitudeDegrees>
            </Position>
            <AltitudeMeters>411.600006103515625</AltitudeMeters>
            <DistanceMeters>7833.0131589532</DistanceMeters>
          </Trackpoint>
          <Trackpoint>
            <Time>2018-08-26T05:53:12.000Z</Time>
            <Position>
              <LatitudeDegrees>42.8274075128138065338134765625</LatitudeDegrees>
              <LongitudeDegrees>-1.68741985224187374114990234375</LongitudeDegrees>
            </Position>
            <AltitudeMeters>411.600006103515625</AltitudeMeters>
            <DistanceMeters>7841.6449120045</DistanceMeters>
          </Trackpoint>
          <Trackpoint>
            <Time>2018-08-26T05:53:13.000Z</Time>
            <Position>
              <LatitudeDegrees>42.82733685337007045745849609375</LatitudeDegrees>
              <LongitudeDegrees>-1.687457822263240814208984375</LongitudeDegrees>
            </Position>
            <AltitudeMeters>411.600006103515625</AltitudeMeters>
            <DistanceMeters>7850.098017641</DistanceMeters>
          </Trackpoint>
          <Trackpoint>
            <Time>2018-08-26T05:53:14.000Z</Time>
            <Position>
              <LatitudeDegrees>42.8272663615643978118896484375</LatitudeDegrees>
              <LongitudeDegrees>-1.68749428354203701019287109375</LongitudeDegrees>
            </Position>
            <AltitudeMeters>411.600006103515625</AltitudeMeters>
            <DistanceMeters>7858.4894737786</DistanceMeters>
          </Trackpoint>
          <Trackpoint>
            <Time>2018-08-26T05:53:15.000Z</Time>
            <Position>
              <LatitudeDegrees>42.82719687558710575103759765625</LatitudeDegrees>
              <LongitudeDegrees>-1.68753325939178466796875</LongitudeDegrees>
            </Position>
            <AltitudeMeters>411.399993896484375</AltitudeMeters>
            <DistanceMeters>7866.8529044225</DistanceMeters>
          </Trackpoint>
          <Trackpoint>
            <Time>2018-08-26T05:53:16.000Z</Time>
            <Position>
              <LatitudeDegrees>42.82712579704821109771728515625</LatitudeDegrees>
              <LongitudeDegrees>-1.68756871484220027923583984375</LongitudeDegrees>
            </Position>
            <AltitudeMeters>411.399993896484375</AltitudeMeters>
            <DistanceMeters>7875.2765818081</DistanceMeters>
          </Trackpoint>
          <Trackpoint>
            <Time>2018-08-26T05:53:17.000Z</Time>
            <Position>
              <LatitudeDegrees>42.82705471850931644439697265625</LatitudeDegrees>
              <LongitudeDegrees>-1.6876038350164890289306640625</LongitudeDegrees>
            </Position>
            <AltitudeMeters>411.399993896484375</AltitudeMeters>
            <DistanceMeters>7883.6906057753</DistanceMeters>
          </Trackpoint>
          <Trackpoint>
            <Time>2018-08-26T05:53:18.000Z</Time>
            <Position>
              <LatitudeDegrees>42.82698296941816806793212890625</LatitudeDegrees>
              <LongitudeDegrees>-1.6876383684575557708740234375</LongitudeDegrees>
            </Position>
            <AltitudeMeters>411.399993896484375</AltitudeMeters>
            <DistanceMeters>7892.1591869503</DistanceMeters>
          </Trackpoint>
          <Trackpoint>
            <Time>2018-08-26T05:53:19.000Z</Time>
            <Position>
              <LatitudeDegrees>42.82691113650798797607421875</LatitudeDegrees>
              <LongitudeDegrees>-1.6876705549657344818115234375</LongitudeDegrees>
            </Position>
            <AltitudeMeters>411.399993896484375</AltitudeMeters>
            <DistanceMeters>7900.5742840664</DistanceMeters>
          </Trackpoint>
          <Trackpoint>
            <Time>2018-08-26T05:53:20.000Z</Time>
            <Position>
              <LatitudeDegrees>42.82684014178812503814697265625</LatitudeDegrees>
              <LongitudeDegrees>-1.68770282529294490814208984375</LongitudeDegrees>
            </Position>
            <AltitudeMeters>411.399993896484375</AltitudeMeters>
            <DistanceMeters>7908.9041764664</DistanceMeters>
          </Trackpoint>
          <Trackpoint>
            <Time>2018-08-26T05:53:21.000Z</Time>
            <Position>
              <LatitudeDegrees>42.8267701528966426849365234375</LatitudeDegrees>
              <LongitudeDegrees>-1.687734425067901611328125</LongitudeDegrees>
            </Position>
            <AltitudeMeters>411.399993896484375</AltitudeMeters>
            <DistanceMeters>7917.1106562306</DistanceMeters>
          </Trackpoint>
          <Trackpoint>
            <Time>2018-08-26T05:53:22.000Z</Time>
            <Position>
              <LatitudeDegrees>42.82669982872903347015380859375</LatitudeDegrees>
              <LongitudeDegrees>-1.687764935195446014404296875</LongitudeDegrees>
            </Position>
            <AltitudeMeters>411.399993896484375</AltitudeMeters>
            <DistanceMeters>7925.3248348985</DistanceMeters>
          </Trackpoint>
          <Trackpoint>
            <Time>2018-08-26T05:53:23.000Z</Time>
            <Position>
              <LatitudeDegrees>42.82663042657077312469482421875</LatitudeDegrees>
              <LongitudeDegrees>-1.68779536150395870208740234375</LongitudeDegrees>
            </Position>
            <AltitudeMeters>411.399993896484375</AltitudeMeters>
            <DistanceMeters>7933.4394708996</DistanceMeters>
          </Trackpoint>
          <Trackpoint>
            <Time>2018-08-26T05:53:24.000Z</Time>
            <Position>
              <LatitudeDegrees>42.82655985094606876373291015625</LatitudeDegrees>
              <LongitudeDegrees>-1.687825955450534820556640625</LongitudeDegrees>
            </Position>
            <AltitudeMeters>411.399993896484375</AltitudeMeters>
            <DistanceMeters>7941.6821825386</DistanceMeters>
          </Trackpoint>
          <Trackpoint>
            <Time>2018-08-26T05:53:25.000Z</Time>
            <Position>
              <LatitudeDegrees>42.8264922089874744415283203125</LatitudeDegrees>
              <LongitudeDegrees>-1.6878589801490306854248046875</LongitudeDegrees>
            </Position>
            <AltitudeMeters>411.399993896484375</AltitudeMeters>
            <DistanceMeters>7949.6791195382</DistanceMeters>
          </Trackpoint>
          <Trackpoint>
            <Time>2018-08-26T05:53:26.000Z</Time>
            <Position>
              <LatitudeDegrees>42.82642574049532413482666015625</LatitudeDegrees>
              <LongitudeDegrees>-1.68789108283817768096923828125</LongitudeDegrees>
            </Position>
            <AltitudeMeters>411.399993896484375</AltitudeMeters>
            <DistanceMeters>7957.5278889641</DistanceMeters>
          </Trackpoint>
          <Trackpoint>
            <Time>2018-08-26T05:53:27.000Z</Time>
            <Position>
              <LatitudeDegrees>42.8263577632606029510498046875</LatitudeDegrees>
              <LongitudeDegrees>-1.68791974894702434539794921875</LongitudeDegrees>
            </Position>
            <AltitudeMeters>411.399993896484375</AltitudeMeters>
            <DistanceMeters>7965.4476686946</DistanceMeters>
          </Trackpoint>
          <Trackpoint>
            <Time>2018-08-26T05:53:28.000Z</Time>
            <Position>
              <LatitudeDegrees>42.82628626562654972076416015625</LatitudeDegrees>
              <LongitudeDegrees>-1.68794833123683929443359375</LongitudeDegrees>
            </Position>
            <AltitudeMeters>411.399993896484375</AltitudeMeters>
            <DistanceMeters>7973.7406212567</DistanceMeters>
          </Trackpoint>
          <Trackpoint>
            <Time>2018-08-26T05:53:29.000Z</Time>
            <Position>
              <LatitudeDegrees>42.82621636055409908294677734375</LatitudeDegrees>
              <LongitudeDegrees>-1.6879823617637157440185546875</LongitudeDegrees>
            </Position>
            <AltitudeMeters>411.399993896484375</AltitudeMeters>
            <DistanceMeters>7982.0019357867</DistanceMeters>
          </Trackpoint>
          <Trackpoint>
            <Time>2018-08-26T05:53:30.000Z</Time>
            <Position>
              <LatitudeDegrees>42.82615148462355136871337890625</LatitudeDegrees>
              <LongitudeDegrees>-1.68802452273666858673095703125</LongitudeDegrees>
            </Position>
            <AltitudeMeters>411.399993896484375</AltitudeMeters>
            <DistanceMeters>7990.0011308513</DistanceMeters>
          </Trackpoint>
          <Trackpoint>
            <Time>2018-08-26T05:53:31.000Z</Time>
            <Position>
              <LatitudeDegrees>42.82608878798782825469970703125</LatitudeDegrees>
              <LongitudeDegrees>-1.68807766400277614593505859375</LongitudeDegrees>
            </Position>
            <AltitudeMeters>411.399993896484375</AltitudeMeters>
            <DistanceMeters>7998.2175078811</DistanceMeters>
          </Trackpoint>
          <Trackpoint>
            <Time>2018-08-26T05:53:32.000Z</Time>
            <Position>
              <LatitudeDegrees>42.8260335512459278106689453125</LatitudeDegrees>
              <LongitudeDegrees>-1.688140444457530975341796875</LongitudeDegrees>
            </Position>
            <AltitudeMeters>411.399993896484375</AltitudeMeters>
            <DistanceMeters>8006.2206530264</DistanceMeters>
          </Trackpoint>
          <Trackpoint>
            <Time>2018-08-26T05:53:33.000Z</Time>
            <Position>
              <LatitudeDegrees>42.8259772248566150665283203125</LatitudeDegrees>
              <LongitudeDegrees>-1.6881996206939220428466796875</LongitudeDegrees>
            </Position>
            <AltitudeMeters>411.20001220703125</AltitudeMeters>
            <DistanceMeters>8014.1347297391</DistanceMeters>
          </Trackpoint>
          <Trackpoint>
            <Time>2018-08-26T05:53:34.000Z</Time>
            <Position>
              <LatitudeDegrees>42.82591360621154308319091796875</LatitudeDegrees>
              <LongitudeDegrees>-1.688242368400096893310546875</LongitudeDegrees>
            </Position>
            <AltitudeMeters>411.20001220703125</AltitudeMeters>
            <DistanceMeters>8022.028813444</DistanceMeters>
          </Trackpoint>
          <Trackpoint>
            <Time>2018-08-26T05:53:35.000Z</Time>
            <Position>
              <LatitudeDegrees>42.82584705390036106109619140625</LatitudeDegrees>
              <LongitudeDegrees>-1.68826223351061344146728515625</LongitudeDegrees>
            </Position>
            <AltitudeMeters>411.399993896484375</AltitudeMeters>
            <DistanceMeters>8029.6113260038</DistanceMeters>
          </Trackpoint>
          <Trackpoint>
            <Time>2018-08-26T05:53:36.000Z</Time>
            <Position>
              <LatitudeDegrees>42.82577882520854473114013671875</LatitudeDegrees>
              <LongitudeDegrees>-1.688260473310947418212890625</LongitudeDegrees>
            </Position>
            <AltitudeMeters>411.399993896484375</AltitudeMeters>
            <DistanceMeters>8037.2063328059</DistanceMeters>
          </Trackpoint>
          <Trackpoint>
            <Time>2018-08-26T05:53:37.000Z</Time>
            <Position>
              <LatitudeDegrees>42.8257130272686481475830078125</LatitudeDegrees>
              <LongitudeDegrees>-1.68823876418173313140869140625</LongitudeDegrees>
            </Position>
            <AltitudeMeters>411.399993896484375</AltitudeMeters>
            <DistanceMeters>8044.7416576615</DistanceMeters>
          </Trackpoint>
          <Trackpoint>
            <Time>2018-08-26T05:53:38.000Z</Time>
            <Position>
              <LatitudeDegrees>42.82564907334744930267333984375</LatitudeDegrees>
              <LongitudeDegrees>-1.68820473365485668182373046875</LongitudeDegrees>
            </Position>
            <AltitudeMeters>411.20001220703125</AltitudeMeters>
            <DistanceMeters>8052.3828927898</DistanceMeters>
          </Trackpoint>
          <Trackpoint>
            <Time>2018-08-26T05:53:39.000Z</Time>
            <Position>
              <LatitudeDegrees>42.825584113597869873046875</LatitudeDegrees>
              <LongitudeDegrees>-1.68816969729959964752197265625</LongitudeDegrees>
            </Position>
            <AltitudeMeters>411.20001220703125</AltitudeMeters>
            <DistanceMeters>8060.1576810002</DistanceMeters>
          </Trackpoint>
          <Trackpoint>
            <Time>2018-08-26T05:53:40.000Z</Time>
            <Position>
              <LatitudeDegrees>42.8255165554583072662353515625</LatitudeDegrees>
              <LongitudeDegrees>-1.6881426237523555755615234375</LongitudeDegrees>
            </Position>
            <AltitudeMeters>411</AltitudeMeters>
            <DistanceMeters>8067.9949368957</DistanceMeters>
          </Trackpoint>
          <Trackpoint>
            <Time>2018-08-26T05:53:41.000Z</Time>
            <Position>
              <LatitudeDegrees>42.8254464827477931976318359375</LatitudeDegrees>
              <LongitudeDegrees>-1.6881282068789005279541015625</LongitudeDegrees>
            </Position>
            <AltitudeMeters>411</AltitudeMeters>
            <DistanceMeters>8075.8827266177</DistanceMeters>
          </Trackpoint>
          <Trackpoint>
            <Time>2018-08-26T05:53:42.000Z</Time>
            <Position>
              <LatitudeDegrees>42.82537699677050113677978515625</LatitudeDegrees>
              <LongitudeDegrees>-1.68812762014567852020263671875</LongitudeDegrees>
            </Position>
            <AltitudeMeters>411</AltitudeMeters>
            <DistanceMeters>8083.6167570265</DistanceMeters>
          </Trackpoint>
          <Trackpoint>
            <Time>2018-08-26T05:53:43.000Z</Time>
            <Position>
              <LatitudeDegrees>42.8253070078790187835693359375</LatitudeDegrees>
              <LongitudeDegrees>-1.6881329007446765899658203125</LongitudeDegrees>
            </Position>
            <AltitudeMeters>411</AltitudeMeters>
            <DistanceMeters>8091.4187917168</DistanceMeters>
          </Trackpoint>
          <Trackpoint>
            <Time>2018-08-26T05:53:44.000Z</Time>
            <Position>
              <LatitudeDegrees>42.82523651607334613800048828125</LatitudeDegrees>
              <LongitudeDegrees>-1.6881389357149600982666015625</LongitudeDegrees>
            </Position>
            <AltitudeMeters>411</AltitudeMeters>
            <DistanceMeters>8099.2802065502</DistanceMeters>
          </Trackpoint>
          <Trackpoint>
            <Time>2018-08-26T05:53:45.000Z</Time>
            <Position>
              <LatitudeDegrees>42.82516577281057834625244140625</LatitudeDegrees>
              <LongitudeDegrees>-1.6881453059613704681396484375</LongitudeDegrees>
            </Position>
            <AltitudeMeters>411</AltitudeMeters>
            <DistanceMeters>8107.1714299761</DistanceMeters>
          </Trackpoint>
          <Trackpoint>
            <Time>2018-08-26T05:53:46.000Z</Time>
            <Position>
              <LatitudeDegrees>42.825093604624271392822265625</LatitudeDegrees>
              <LongitudeDegrees>-1.68815259821712970733642578125</LongitudeDegrees>
            </Position>
            <AltitudeMeters>411</AltitudeMeters>
            <DistanceMeters>8115.2257498837</DistanceMeters>
          </Trackpoint>
          <Trackpoint>
            <Time>2018-08-26T05:53:47.000Z</Time>
            <Position>
              <LatitudeDegrees>42.82502143643796443939208984375</LatitudeDegrees>
              <LongitudeDegrees>-1.6881603933870792388916015625</LongitudeDegrees>
            </Position>
            <AltitudeMeters>411</AltitudeMeters>
            <DistanceMeters>8123.2834325302</DistanceMeters>
          </Trackpoint>
          <Trackpoint>
            <Time>2018-08-26T05:53:48.000Z</Time>
            <Position>
              <LatitudeDegrees>42.82494918443262577056884765625</LatitudeDegrees>
              <LongitudeDegrees>-1.688169278204441070556640625</LongitudeDegrees>
            </Position>
            <AltitudeMeters>411</AltitudeMeters>
            <DistanceMeters>8131.3579078646</DistanceMeters>
          </Trackpoint>
          <Trackpoint>
            <Time>2018-08-26T05:53:49.000Z</Time>
            <Position>
              <LatitudeDegrees>42.824877686798572540283203125</LatitudeDegrees>
              <LongitudeDegrees>-1.68817925266921520233154296875</LongitudeDegrees>
            </Position>
            <AltitudeMeters>411</AltitudeMeters>
            <DistanceMeters>8139.3571029292</DistanceMeters>
          </Trackpoint>
          <Trackpoint>
            <Time>2018-08-26T05:53:50.000Z</Time>
            <Position>
              <LatitudeDegrees>42.82480518333613872528076171875</LatitudeDegrees>
              <LongitudeDegrees>-1.68818796984851360321044921875</LongitudeDegrees>
            </Position>
            <AltitudeMeters>411</AltitudeMeters>
            <DistanceMeters>8147.4583741625</DistanceMeters>
          </Trackpoint>
          <Trackpoint>
            <Time>2018-08-26T05:53:51.000Z</Time>
            <Position>
              <LatitudeDegrees>42.8247340209782123565673828125</LatitudeDegrees>
              <LongitudeDegrees>-1.68819853104650974273681640625</LongitudeDegrees>
            </Position>
            <AltitudeMeters>411</AltitudeMeters>
            <DistanceMeters>8155.4247646405</DistanceMeters>
          </Trackpoint>
          <Trackpoint>
            <Time>2018-08-26T05:53:52.000Z</Time>
            <Position>
              <LatitudeDegrees>42.82466285862028598785400390625</LatitudeDegrees>
              <LongitudeDegrees>-1.688208170235157012939453125</LongitudeDegrees>
            </Position>
            <AltitudeMeters>411</AltitudeMeters>
            <DistanceMeters>8163.3843510827</DistanceMeters>
          </Trackpoint>
          <Trackpoint>
            <Time>2018-08-26T05:53:53.000Z</Time>
            <Position>
              <LatitudeDegrees>42.82459127716720104217529296875</LatitudeDegrees>
              <LongitudeDegrees>-1.688217222690582275390625</LongitudeDegrees>
            </Position>
            <AltitudeMeters>411</AltitudeMeters>
            <DistanceMeters>8171.385803575</DistanceMeters>
          </Trackpoint>
          <Trackpoint>
            <Time>2018-08-26T05:53:54.000Z</Time>
            <Position>
              <LatitudeDegrees>42.82451919279992580413818359375</LatitudeDegrees>
              <LongitudeDegrees>-1.68822593986988067626953125</LongitudeDegrees>
            </Position>
            <AltitudeMeters>411</AltitudeMeters>
            <DistanceMeters>8179.4406840366</DistanceMeters>
          </Trackpoint>
          <Trackpoint>
            <Time>2018-08-26T05:53:55.000Z</Time>
            <Position>
              <LatitudeDegrees>42.82444710843265056610107421875</LatitudeDegrees>
              <LongitudeDegrees>-1.688234992325305938720703125</LongitudeDegrees>
            </Position>
            <AltitudeMeters>411</AltitudeMeters>
            <DistanceMeters>8187.4972459261</DistanceMeters>
          </Trackpoint>
          <Trackpoint>
            <Time>2018-08-26T05:53:56.000Z</Time>
            <Position>
              <LatitudeDegrees>42.82437552697956562042236328125</LatitudeDegrees>
              <LongitudeDegrees>-1.68824329040944576263427734375</LongitudeDegrees>
            </Position>
            <AltitudeMeters>411</AltitudeMeters>
            <DistanceMeters>8195.4941829257</DistanceMeters>
          </Trackpoint>
          <Trackpoint>
            <Time>2018-08-26T05:53:57.000Z</Time>
            <Position>
              <LatitudeDegrees>42.8243045322597026824951171875</LatitudeDegrees>
              <LongitudeDegrees>-1.6882532648742198944091796875</LongitudeDegrees>
            </Position>
            <AltitudeMeters>411</AltitudeMeters>
            <DistanceMeters>8203.4378706204</DistanceMeters>
          </Trackpoint>
          <Trackpoint>
            <Time>2018-08-26T05:53:58.000Z</Time>
            <Position>
              <LatitudeDegrees>42.82423420809209346771240234375</LatitudeDegrees>
              <LongitudeDegrees>-1.6882629878818988800048828125</LongitudeDegrees>
            </Position>
            <AltitudeMeters>411</AltitudeMeters>
            <DistanceMeters>8211.305026647</DistanceMeters>
          </Trackpoint>
          <Trackpoint>
            <Time>2018-08-26T05:53:59.000Z</Time>
            <Position>
              <LatitudeDegrees>42.82416363246738910675048828125</LatitudeDegrees>
              <LongitudeDegrees>-1.68827245943248271942138671875</LongitudeDegrees>
            </Position>
            <AltitudeMeters>411</AltitudeMeters>
            <DistanceMeters>8219.1979663646</DistanceMeters>
          </Trackpoint>
          <Trackpoint>
            <Time>2018-08-26T05:54:00.000Z</Time>
            <Position>
              <LatitudeDegrees>42.82409171573817729949951171875</LatitudeDegrees>
              <LongitudeDegrees>-1.688281260430812835693359375</LongitudeDegrees>
            </Position>
            <AltitudeMeters>411</AltitudeMeters>
            <DistanceMeters>8227.2343279</DistanceMeters>
          </Trackpoint>
          <Trackpoint>
            <Time>2018-08-26T05:54:01.000Z</Time>
            <Position>
              <LatitudeDegrees>42.8240198828279972076416015625</LatitudeDegrees>
              <LongitudeDegrees>-1.6882904805243015289306640625</LongitudeDegrees>
            </Position>
            <AltitudeMeters>411.20001220703125</AltitudeMeters>
            <DistanceMeters>8235.2650692084</DistanceMeters>
          </Trackpoint>
          <Trackpoint>
            <Time>2018-08-26T05:54:02.000Z</Time>
            <Position>
              <LatitudeDegrees>42.8239484690129756927490234375</LatitudeDegrees>
              <LongitudeDegrees>-1.68829928152263164520263671875</LongitudeDegrees>
            </Position>
            <AltitudeMeters>411.399993896484375</AltitudeMeters>
            <DistanceMeters>8243.2461818649</DistanceMeters>
          </Trackpoint>
          <Trackpoint>
            <Time>2018-08-26T05:54:03.000Z</Time>
            <Position>
              <LatitudeDegrees>42.82387755811214447021484375</LatitudeDegrees>
              <LongitudeDegrees>-1.68830816633999347686767578125</LongitudeDegrees>
            </Position>
            <AltitudeMeters>411.399993896484375</AltitudeMeters>
            <DistanceMeters>8251.1716605094</DistanceMeters>
          </Trackpoint>
          <Trackpoint>
            <Time>2018-08-26T05:54:04.000Z</Time>
            <Position>
              <LatitudeDegrees>42.82380656339228153228759765625</LatitudeDegrees>
              <LongitudeDegrees>-1.68831638060510158538818359375</LongitudeDegrees>
            </Position>
            <AltitudeMeters>411.399993896484375</AltitudeMeters>
            <DistanceMeters>8259.1016953363</DistanceMeters>
          </Trackpoint>
          <Trackpoint>
            <Time>2018-08-26T05:54:05.000Z</Time>
            <Position>
              <LatitudeDegrees>42.82373615540564060211181640625</LatitudeDegrees>
              <LongitudeDegrees>-1.6883243434131145477294921875</LongitudeDegrees>
            </Position>
            <AltitudeMeters>411.600006103515625</AltitudeMeters>
            <DistanceMeters>8266.9654071499</DistanceMeters>
          </Trackpoint>
          <Trackpoint>
            <Time>2018-08-26T05:54:06.000Z</Time>
            <Position>
              <LatitudeDegrees>42.82366700470447540283203125</LatitudeDegrees>
              <LongitudeDegrees>-1.68833297677338123321533203125</LongitudeDegrees>
            </Position>
            <AltitudeMeters>411.600006103515625</AltitudeMeters>
            <DistanceMeters>8274.6947658396</DistanceMeters>
          </Trackpoint>
          <Trackpoint>
            <Time>2018-08-26T05:54:07.000Z</Time>
            <Position>
              <LatitudeDegrees>42.8235997818410396575927734375</LatitudeDegrees>
              <LongitudeDegrees>-1.68834135867655277252197265625</LongitudeDegrees>
            </Position>
            <AltitudeMeters>411.600006103515625</AltitudeMeters>
            <DistanceMeters>8282.2084891462</DistanceMeters>
          </Trackpoint>
          <Trackpoint>
            <Time>2018-08-26T05:54:08.000Z</Time>
            <Position>
              <LatitudeDegrees>42.823534905910491943359375</LatitudeDegrees>
              <LongitudeDegrees>-1.6883488185703754425048828125</LongitudeDegrees>
            </Position>
            <AltitudeMeters>411.79998779296875</AltitudeMeters>
            <DistanceMeters>8289.4548602739</DistanceMeters>
          </Trackpoint>
          <Trackpoint>
            <Time>2018-08-26T05:54:09.000Z</Time>
            <Position>
              <LatitudeDegrees>42.82347195781767368316650390625</LatitudeDegrees>
              <LongitudeDegrees>-1.6883561946451663970947265625</LongitudeDegrees>
            </Position>
            <AltitudeMeters>411.79998779296875</AltitudeMeters>
            <DistanceMeters>8296.4868371373</DistanceMeters>
          </Trackpoint>
          <Trackpoint>
            <Time>2018-08-26T05:54:10.000Z</Time>
            <Position>
              <LatitudeDegrees>42.8234120272099971771240234375</LatitudeDegrees>
              <LongitudeDegrees>-1.68836633674800395965576171875</LongitudeDegrees>
            </Position>
            <AltitudeMeters>412</AltitudeMeters>
            <DistanceMeters>8303.2082560685</DistanceMeters>
          </Trackpoint>
          <Trackpoint>
            <Time>2018-08-26T05:54:11.000Z</Time>
            <Position>
              <LatitudeDegrees>42.823354192078113555908203125</LatitudeDegrees>
              <LongitudeDegrees>-1.68837958015501499176025390625</LongitudeDegrees>
            </Position>
            <AltitudeMeters>412</AltitudeMeters>
            <DistanceMeters>8309.7361141199</DistanceMeters>
          </Trackpoint>
          <Trackpoint>
            <Time>2018-08-26T05:54:12.000Z</Time>
            <Position>
              <LatitudeDegrees>42.82329794950783252716064453125</LatitudeDegrees>
              <LongitudeDegrees>-1.68839248828589916229248046875</LongitudeDegrees>
            </Position>
            <AltitudeMeters>412</AltitudeMeters>
            <DistanceMeters>8316.084439188</DistanceMeters>
          </Trackpoint>
          <Trackpoint>
            <Time>2018-08-26T05:54:13.000Z</Time>
            <Position>
              <LatitudeDegrees>42.8232403658330440521240234375</LatitudeDegrees>
              <LongitudeDegrees>-1.68840103782713413238525390625</LongitudeDegrees>
            </Position>
            <AltitudeMeters>412.20001220703125</AltitudeMeters>
            <DistanceMeters>8322.5322661047</DistanceMeters>
          </Trackpoint>
          <Trackpoint>
            <Time>2018-08-26T05:54:14.000Z</Time>
            <Position>
              <LatitudeDegrees>42.82318328507244586944580078125</LatitudeDegrees>
              <LongitudeDegrees>-1.68841009028255939483642578125</LongitudeDegrees>
            </Position>
            <AltitudeMeters>412.20001220703125</AltitudeMeters>
            <DistanceMeters>8328.9280652175</DistanceMeters>
          </Trackpoint>
          <Trackpoint>
            <Time>2018-08-26T05:54:15.000Z</Time>
            <Position>
              <LatitudeDegrees>42.82312746159732341766357421875</LatitudeDegrees>
              <LongitudeDegrees>-1.68841838836669921875</LongitudeDegrees>
            </Position>
            <AltitudeMeters>412.399993896484375</AltitudeMeters>
            <DistanceMeters>8335.1789164213</DistanceMeters>
          </Trackpoint>
          <Trackpoint>
            <Time>2018-08-26T05:54:16.000Z</Time>
            <Position>
              <LatitudeDegrees>42.823073901236057281494140625</LatitudeDegrees>
              <LongitudeDegrees>-1.68842802755534648895263671875</LongitudeDegrees>
            </Position>
            <AltitudeMeters>412.600006103515625</AltitudeMeters>
            <DistanceMeters>8341.1919377985</DistanceMeters>
          </Trackpoint>
          <Trackpoint>
            <Time>2018-08-26T05:54:17.000Z</Time>
            <Position>
              <LatitudeDegrees>42.8230204246938228607177734375</LatitudeDegrees>
              <LongitudeDegrees>-1.68843708001077175140380859375</LongitudeDegrees>
            </Position>
            <AltitudeMeters>412.79998779296875</AltitudeMeters>
            <DistanceMeters>8347.1899228395</DistanceMeters>
          </Trackpoint>
          <Trackpoint>
            <Time>2018-08-26T05:54:18.000Z</Time>
            <Position>
              <LatitudeDegrees>42.8229681216180324554443359375</LatitudeDegrees>
              <LongitudeDegrees>-1.68844512663781642913818359375</LongitudeDegrees>
            </Position>
            <AltitudeMeters>413</AltitudeMeters>
            <DistanceMeters>8353.0477629267</DistanceMeters>
          </Trackpoint>
          <Trackpoint>
            <Time>2018-08-26T05:54:19.000Z</Time>
            <Position>
              <LatitudeDegrees>42.82291774637997150421142578125</LatitudeDegrees>
              <LongitudeDegrees>-1.68845317326486110687255859375</LongitudeDegrees>
            </Position>
            <AltitudeMeters>413.399993896484375</AltitudeMeters>
            <DistanceMeters>8358.6920617932</DistanceMeters>
          </Trackpoint>
          <Trackpoint>
            <Time>2018-08-26T05:54:20.000Z</Time>
            <Position>
              <LatitudeDegrees>42.8228675387799739837646484375</LatitudeDegrees>
              <LongitudeDegrees>-1.68845803476870059967041015625</LongitudeDegrees>
            </Position>
            <AltitudeMeters>413.600006103515625</AltitudeMeters>
            <DistanceMeters>8364.2929979262</DistanceMeters>
          </Trackpoint>
          <Trackpoint>
            <Time>2018-08-26T05:54:21.000Z</Time>
            <Position>
              <LatitudeDegrees>42.82281867228448390960693359375</LatitudeDegrees>
              <LongitudeDegrees>-1.68846507556736469268798828125</LongitudeDegrees>
            </Position>
            <AltitudeMeters>413.79998779296875</AltitudeMeters>
            <DistanceMeters>8369.7634342283</DistanceMeters>
          </Trackpoint>
          <Trackpoint>
            <Time>2018-08-26T05:54:22.000Z</Time>
            <Position>
              <LatitudeDegrees>42.82276988960802555084228515625</LatitudeDegrees>
              <LongitudeDegrees>-1.68847379274666309356689453125</LongitudeDegrees>
            </Position>
            <AltitudeMeters>414</AltitudeMeters>
            <DistanceMeters>8375.2396449502</DistanceMeters>
          </Trackpoint>
          <Trackpoint>
            <Time>2018-08-26T05:54:23.000Z</Time>
            <Position>
              <LatitudeDegrees>42.822721190750598907470703125</LatitudeDegrees>
              <LongitudeDegrees>-1.68848234228789806365966796875</LongitudeDegrees>
            </Position>
            <AltitudeMeters>414.399993896484375</AltitudeMeters>
            <DistanceMeters>8380.7043007308</DistanceMeters>
          </Trackpoint>
          <Trackpoint>
            <Time>2018-08-26T05:54:24.000Z</Time>
            <Position>
              <LatitudeDegrees>42.8226740844547748565673828125</LatitudeDegrees>
              <LongitudeDegrees>-1.68849416077136993408203125</LongitudeDegrees>
            </Position>
            <AltitudeMeters>414.79998779296875</AltitudeMeters>
            <DistanceMeters>8386.0351215465</DistanceMeters>
          </Trackpoint>
          <Trackpoint>
            <Time>2018-08-26T05:54:25.000Z</Time>
            <Position>
              <LatitudeDegrees>42.822627313435077667236328125</LatitudeDegrees>
              <LongitudeDegrees>-1.68850312940776348114013671875</LongitudeDegrees>
            </Position>
            <AltitudeMeters>415.20001220703125</AltitudeMeters>
            <DistanceMeters>8391.291739653</DistanceMeters>
          </Trackpoint>
          <Trackpoint>
            <Time>2018-08-26T05:54:26.000Z</Time>
            <Position>
              <LatitudeDegrees>42.8225813806056976318359375</LatitudeDegrees>
              <LongitudeDegrees>-1.6885104216635227203369140625</LongitudeDegrees>
            </Position>
            <AltitudeMeters>415.600006103515625</AltitudeMeters>
            <DistanceMeters>8396.4372410022</DistanceMeters>
          </Trackpoint>
          <Trackpoint>
            <Time>2018-08-26T05:54:27.000Z</Time>
            <Position>
              <LatitudeDegrees>42.822535447776317596435546875</LatitudeDegrees>
              <LongitudeDegrees>-1.68851721100509166717529296875</LongitudeDegrees>
            </Position>
            <AltitudeMeters>416</AltitudeMeters>
            <DistanceMeters>8401.5792312616</DistanceMeters>
          </Trackpoint>
          <Trackpoint>
            <Time>2018-08-26T05:54:28.000Z</Time>
            <Position>
              <LatitudeDegrees>42.8224906884133815765380859375</LatitudeDegrees>
              <LongitudeDegrees>-1.68852391652762889862060546875</LongitudeDegrees>
            </Position>
            <AltitudeMeters>416.399993896484375</AltitudeMeters>
            <DistanceMeters>8406.59138376</DistanceMeters>
          </Trackpoint>
          <Trackpoint>
            <Time>2018-08-26T05:54:29.000Z</Time>
            <Position>
              <LatitudeDegrees>42.822445929050445556640625</LatitudeDegrees>
              <LongitudeDegrees>-1.68852978385984897613525390625</LongitudeDegrees>
            </Position>
            <AltitudeMeters>416.79998779296875</AltitudeMeters>
            <DistanceMeters>8411.5963245244</DistanceMeters>
          </Trackpoint>
          <Trackpoint>
            <Time>2018-08-26T05:54:30.000Z</Time>
            <Position>
              <LatitudeDegrees>42.82240024767816066741943359375</LatitudeDegrees>
              <LongitudeDegrees>-1.688536070287227630615234375</LongitudeDegrees>
            </Position>
            <AltitudeMeters>417.600006103515625</AltitudeMeters>
            <DistanceMeters>8416.7066064223</DistanceMeters>
          </Trackpoint>
          <Trackpoint>
            <Time>2018-08-26T05:54:31.000Z</Time>
            <Position>
              <LatitudeDegrees>42.822355739772319793701171875</LatitudeDegrees>
              <LongitudeDegrees>-1.68854202143847942352294921875</LongitudeDegrees>
            </Position>
            <AltitudeMeters>418</AltitudeMeters>
            <DistanceMeters>8421.6835030141</DistanceMeters>
          </Trackpoint>
          <Trackpoint>
            <Time>2018-08-26T05:54:32.000Z</Time>
            <Position>
              <LatitudeDegrees>42.82231114804744720458984375</LatitudeDegrees>
              <LongitudeDegrees>-1.68854914605617523193359375</LongitudeDegrees>
            </Position>
            <AltitudeMeters>418.399993896484375</AltitudeMeters>
            <DistanceMeters>8426.6803181365</DistanceMeters>
          </Trackpoint>
          <Trackpoint>
            <Time>2018-08-26T05:54:33.000Z</Time>
            <Position>
              <LatitudeDegrees>42.82226680777966976165771484375</LatitudeDegrees>
              <LongitudeDegrees>-1.68855912052094936370849609375</LongitudeDegrees>
            </Position>
            <AltitudeMeters>418.79998779296875</AltitudeMeters>
            <DistanceMeters>8431.6807462855</DistanceMeters>
          </Trackpoint>
          <Trackpoint>
            <Time>2018-08-26T05:54:34.000Z</Time>
            <Position>
              <LatitudeDegrees>42.8222214616835117340087890625</LatitudeDegrees>
              <LongitudeDegrees>-1.68857328593730926513671875</LongitudeDegrees>
            </Position>
            <AltitudeMeters>419.20001220703125</AltitudeMeters>
            <DistanceMeters>8436.8586123481</DistanceMeters>
          </Trackpoint>
          <Trackpoint>
            <Time>2018-08-26T05:54:35.000Z</Time>
            <Position>
              <LatitudeDegrees>42.82217980362474918365478515625</LatitudeDegrees>
              <LongitudeDegrees>-1.6885955817997455596923828125</LongitudeDegrees>
            </Position>
            <AltitudeMeters>419.600006103515625</AltitudeMeters>
            <DistanceMeters>8441.8400428724</DistanceMeters>
          </Trackpoint>
          <Trackpoint>
            <Time>2018-08-26T05:54:36.000Z</Time>
            <Position>
              <LatitudeDegrees>42.82214459963142871856689453125</LatitudeDegrees>
              <LongitudeDegrees>-1.688625253736972808837890625</LongitudeDegrees>
            </Position>
            <AltitudeMeters>420</AltitudeMeters>
            <DistanceMeters>8446.446633764</DistanceMeters>
          </Trackpoint>
          <Trackpoint>
            <Time>2018-08-26T05:54:37.000Z</Time>
            <Position>
              <LatitudeDegrees>42.822112999856472015380859375</LatitudeDegrees>
              <LongitudeDegrees>-1.6886576078832149505615234375</LongitudeDegrees>
            </Position>
            <AltitudeMeters>420.399993896484375</AltitudeMeters>
            <DistanceMeters>8450.8456625</DistanceMeters>
          </Trackpoint>
          <Trackpoint>
            <Time>2018-08-26T05:54:38.000Z</Time>
            <Position>
              <LatitudeDegrees>42.8220839984714984893798828125</LatitudeDegrees>
              <LongitudeDegrees>-1.6886921413242816925048828125</LongitudeDegrees>
            </Position>
            <AltitudeMeters>420.600006103515625</AltitudeMeters>
            <DistanceMeters>8455.1313567829</DistanceMeters>
          </Trackpoint>
          <Trackpoint>
            <Time>2018-08-26T05:54:39.000Z</Time>
            <Position>
              <LatitudeDegrees>42.822058685123920440673828125</LatitudeDegrees>
              <LongitudeDegrees>-1.68873296119272708892822265625</LongitudeDegrees>
            </Position>
            <AltitudeMeters>421</AltitudeMeters>
            <DistanceMeters>8459.49638385</DistanceMeters>
          </Trackpoint>
          <Trackpoint>
            <Time>2018-08-26T05:54:40.000Z</Time>
            <Position>
              <LatitudeDegrees>42.82203613780438899993896484375</LatitudeDegrees>
              <LongitudeDegrees>-1.6887809894979000091552734375</LongitudeDegrees>
            </Position>
            <AltitudeMeters>421.20001220703125</AltitudeMeters>
            <DistanceMeters>8464.1517230928</DistanceMeters>
          </Trackpoint>
          <Trackpoint>
            <Time>2018-08-26T05:54:41.000Z</Time>
            <Position>
              <LatitudeDegrees>42.822016440331935882568359375</LatitudeDegrees>
              <LongitudeDegrees>-1.68883471749722957611083984375</LongitudeDegrees>
            </Position>
            <AltitudeMeters>421.399993896484375</AltitudeMeters>
            <DistanceMeters>8469.0545858784</DistanceMeters>
          </Trackpoint>
          <Trackpoint>
            <Time>2018-08-26T05:54:42.000Z</Time>
            <Position>
              <LatitudeDegrees>42.8219991736114025115966796875</LatitudeDegrees>
              <LongitudeDegrees>-1.6888926364481449127197265625</LongitudeDegrees>
            </Position>
            <AltitudeMeters>421.600006103515625</AltitudeMeters>
            <DistanceMeters>8474.1595639016</DistanceMeters>
          </Trackpoint>
          <Trackpoint>
            <Time>2018-08-26T05:54:43.000Z</Time>
            <Position>
              <LatitudeDegrees>42.821984924376010894775390625</LatitudeDegrees>
              <LongitudeDegrees>-1.68895223177969455718994140625</LongitudeDegrees>
            </Position>
            <AltitudeMeters>421.79998779296875</AltitudeMeters>
            <DistanceMeters>8479.2769090812</DistanceMeters>
          </Trackpoint>
          <Trackpoint>
            <Time>2018-08-26T05:54:44.000Z</Time>
            <Position>
              <LatitudeDegrees>42.82197210006415843963623046875</LatitudeDegrees>
              <LongitudeDegrees>-1.6890163533389568328857421875</LongitudeDegrees>
            </Position>
            <AltitudeMeters>422</AltitudeMeters>
            <DistanceMeters>8484.7025932968</DistanceMeters>
          </Trackpoint>
          <Trackpoint>
            <Time>2018-08-26T05:54:45.000Z</Time>
            <Position>
              <LatitudeDegrees>42.82196070067584514617919921875</LatitudeDegrees>
              <LongitudeDegrees>-1.68908550404012203216552734375</LongitudeDegrees>
            </Position>
            <AltitudeMeters>422</AltitudeMeters>
            <DistanceMeters>8490.4890882163</DistanceMeters>
          </Trackpoint>
          <Trackpoint>
            <Time>2018-08-26T05:54:46.000Z</Time>
            <Position>
              <LatitudeDegrees>42.82195416279137134552001953125</LatitudeDegrees>
              <LongitudeDegrees>-1.68915264308452606201171875</LongitudeDegrees>
            </Position>
            <AltitudeMeters>422.20001220703125</AltitudeMeters>
            <DistanceMeters>8496.0186305879</DistanceMeters>
          </Trackpoint>
          <Trackpoint>
            <Time>2018-08-26T05:54:47.000Z</Time>
            <Position>
              <LatitudeDegrees>42.8219522349536418914794921875</LatitudeDegrees>
              <LongitudeDegrees>-1.68922397308051586151123046875</LongitudeDegrees>
            </Position>
            <AltitudeMeters>422.399993896484375</AltitudeMeters>
            <DistanceMeters>8501.8463331804</DistanceMeters>
          </Trackpoint>
          <Trackpoint>
            <Time>2018-08-26T05:54:48.000Z</Time>
            <Position>
              <LatitudeDegrees>42.8219525702297687530517578125</LatitudeDegrees>
              <LongitudeDegrees>-1.68929622508585453033447265625</LongitudeDegrees>
            </Position>
            <AltitudeMeters>422.399993896484375</AltitudeMeters>
            <DistanceMeters>8507.7456479385</DistanceMeters>
          </Trackpoint>
          <Trackpoint>
            <Time>2018-08-26T05:54:49.000Z</Time>
            <Position>
              <LatitudeDegrees>42.82195416279137134552001953125</LatitudeDegrees>
              <LongitudeDegrees>-1.6893690638244152069091796875</LongitudeDegrees>
            </Position>
            <AltitudeMeters>422.399993896484375</AltitudeMeters>
            <DistanceMeters>8513.6945024151</DistanceMeters>
          </Trackpoint>
          <Trackpoint>
            <Time>2018-08-26T05:54:50.000Z</Time>
            <Position>
              <LatitudeDegrees>42.8219552524387836456298828125</LatitudeDegrees>
              <LongitudeDegrees>-1.68944324366748332977294921875</LongitudeDegrees>
            </Position>
            <AltitudeMeters>422.399993896484375</AltitudeMeters>
            <DistanceMeters>8519.7516635151</DistanceMeters>
          </Trackpoint>
          <Trackpoint>
            <Time>2018-08-26T05:54:51.000Z</Time>
            <Position>
              <LatitudeDegrees>42.8219564259052276611328125</LatitudeDegrees>
              <LongitudeDegrees>-1.68951742351055145263671875</LongitudeDegrees>
            </Position>
            <AltitudeMeters>422.600006103515625</AltitudeMeters>
            <DistanceMeters>8525.8095699743</DistanceMeters>
          </Trackpoint>
          <Trackpoint>
            <Time>2018-08-26T05:54:52.000Z</Time>
            <Position>
              <LatitudeDegrees>42.8219591081142425537109375</LatitudeDegrees>
              <LongitudeDegrees>-1.68959294445812702178955078125</LongitudeDegrees>
            </Position>
            <AltitudeMeters>422.600006103515625</AltitudeMeters>
            <DistanceMeters>8531.9819190018</DistanceMeters>
          </Trackpoint>
          <Trackpoint>
            <Time>2018-08-26T05:54:53.000Z</Time>
            <Position>
              <LatitudeDegrees>42.82196137122809886932373046875</LatitudeDegrees>
              <LongitudeDegrees>-1.6896681301295757293701171875</LongitudeDegrees>
            </Position>
            <AltitudeMeters>422.600006103515625</AltitudeMeters>
            <DistanceMeters>8538.1249385735</DistanceMeters>
          </Trackpoint>
          <Trackpoint>
            <Time>2018-08-26T05:54:54.000Z</Time>
            <Position>
              <LatitudeDegrees>42.8219636343419551849365234375</LatitudeDegrees>
              <LongitudeDegrees>-1.6897428967058658599853515625</LongitudeDegrees>
            </Position>
            <AltitudeMeters>422.600006103515625</AltitudeMeters>
            <DistanceMeters>8544.2347942199</DistanceMeters>
          </Trackpoint>
          <Trackpoint>
            <Time>2018-08-26T05:54:55.000Z</Time>
            <Position>
              <LatitudeDegrees>42.82196572981774806976318359375</LatitudeDegrees>
              <LongitudeDegrees>-1.68981850147247314453125</LongitudeDegrees>
            </Position>
            <AltitudeMeters>422.600006103515625</AltitudeMeters>
            <DistanceMeters>8550.4122615854</DistanceMeters>
          </Trackpoint>
          <Trackpoint>
            <Time>2018-08-26T05:54:56.000Z</Time>
            <Position>
              <LatitudeDegrees>42.821967490017414093017578125</LatitudeDegrees>
              <LongitudeDegrees>-1.6898951120674610137939453125</LongitudeDegrees>
            </Position>
            <AltitudeMeters>422.600006103515625</AltitudeMeters>
            <DistanceMeters>8556.6696101822</DistanceMeters>
          </Trackpoint>
          <Trackpoint>
            <Time>2018-08-26T05:54:57.000Z</Time>
            <Position>
              <LatitudeDegrees>42.82197092659771442413330078125</LatitudeDegrees>
              <LongitudeDegrees>-1.689976751804351806640625</LongitudeDegrees>
            </Position>
            <AltitudeMeters>422.600006103515625</AltitudeMeters>
            <DistanceMeters>8563.3451945948</DistanceMeters>
          </Trackpoint>
          <Trackpoint>
            <Time>2018-08-26T05:54:58.000Z</Time>
            <Position>
              <LatitudeDegrees>42.82197587192058563232421875</LatitudeDegrees>
              <LongitudeDegrees>-1.6900567151606082916259765625</LongitudeDegrees>
            </Position>
            <AltitudeMeters>422.600006103515625</AltitudeMeters>
            <DistanceMeters>8569.8972159177</DistanceMeters>
          </Trackpoint>
          <Trackpoint>
            <Time>2018-08-26T05:54:59.000Z</Time>
            <Position>
              <LatitudeDegrees>42.8219817392528057098388671875</LatitudeDegrees>
              <LongitudeDegrees>-1.6901363432407379150390625</LongitudeDegrees>
            </Position>
            <AltitudeMeters>422.399993896484375</AltitudeMeters>
            <DistanceMeters>8576.4312959162</DistanceMeters>
          </Trackpoint>
          <Trackpoint>
            <Time>2018-08-26T05:55:00.000Z</Time>
            <Position>
              <LatitudeDegrees>42.82198903150856494903564453125</LatitudeDegrees>
              <LongitudeDegrees>-1.69021613895893096923828125</LongitudeDegrees>
            </Position>
            <AltitudeMeters>422.399993896484375</AltitudeMeters>
            <DistanceMeters>8582.9957094308</DistanceMeters>
          </Trackpoint>
          <Trackpoint>
            <Time>2018-08-26T05:55:01.000Z</Time>
            <Position>
              <LatitudeDegrees>42.8219964914023876190185546875</LatitudeDegrees>
              <LongitudeDegrees>-1.69029652141034603118896484375</LongitudeDegrees>
            </Position>
            <AltitudeMeters>422.399993896484375</AltitudeMeters>
            <DistanceMeters>8589.6108247319</DistanceMeters>
          </Trackpoint>
          <Trackpoint>
            <Time>2018-08-26T05:55:02.000Z</Time>
            <Position>
              <LatitudeDegrees>42.82200277782976627349853515625</LatitudeDegrees>
              <LongitudeDegrees>-1.6903769038617610931396484375</LongitudeDegrees>
            </Position>
            <AltitudeMeters>422.399993896484375</AltitudeMeters>
            <DistanceMeters>8596.21022309</DistanceMeters>
          </Trackpoint>
          <Trackpoint>
            <Time>2018-08-26T05:55:03.000Z</Time>
            <Position>
              <LatitudeDegrees>42.82200881280004978179931640625</LatitudeDegrees>
              <LongitudeDegrees>-1.690457873046398162841796875</LongitudeDegrees>
            </Position>
            <AltitudeMeters>422.399993896484375</AltitudeMeters>
            <DistanceMeters>8602.8546225162</DistanceMeters>
          </Trackpoint>
          <Trackpoint>
            <Time>2018-08-26T05:55:04.000Z</Time>
            <Position>
              <LatitudeDegrees>42.82201484777033329010009765625</LatitudeDegrees>
              <LongitudeDegrees>-1.69053993187844753265380859375</LongitudeDegrees>
            </Position>
            <AltitudeMeters>422.399993896484375</AltitudeMeters>
            <DistanceMeters>8609.5874513235</DistanceMeters>
          </Trackpoint>
          <Trackpoint>
            <Time>2018-08-26T05:55:05.000Z</Time>
            <Position>
              <LatitudeDegrees>42.82202172093093395233154296875</LatitudeDegrees>
              <LongitudeDegrees>-1.69062224216759204864501953125</LongitudeDegrees>
            </Position>
            <AltitudeMeters>422.399993896484375</AltitudeMeters>
            <DistanceMeters>8616.3497221782</DistanceMeters>
          </Trackpoint>
          <Trackpoint>
            <Time>2018-08-26T05:55:06.000Z</Time>
            <Position>
              <LatitudeDegrees>42.822029851377010345458984375</LatitudeDegrees>
              <LongitudeDegrees>-1.69070388190448284149169921875</LongitudeDegrees>
            </Position>
            <AltitudeMeters>422.399993896484375</AltitudeMeters>
            <DistanceMeters>8623.0758416378</DistanceMeters>
          </Trackpoint>
          <Trackpoint>
            <Time>2018-08-26T05:55:07.000Z</Time>
            <Position>
              <LatitudeDegrees>42.8220380656421184539794921875</LatitudeDegrees>
              <LongitudeDegrees>-1.690785102546215057373046875</LongitudeDegrees>
            </Position>
            <AltitudeMeters>422.399993896484375</AltitudeMeters>
            <DistanceMeters>8629.769662618</DistanceMeters>
          </Trackpoint>
          <Trackpoint>
            <Time>2018-08-26T05:55:08.000Z</Time>
            <Position>
              <LatitudeDegrees>42.82204653136432170867919921875</LatitudeDegrees>
              <LongitudeDegrees>-1.6908667422831058502197265625</LongitudeDegrees>
            </Position>
            <AltitudeMeters>422.399993896484375</AltitudeMeters>
            <DistanceMeters>8636.5004793232</DistanceMeters>
          </Trackpoint>
          <Trackpoint>
            <Time>2018-08-26T05:55:09.000Z</Time>
            <Position>
              <LatitudeDegrees>42.8220558352768421173095703125</LatitudeDegrees>
              <LongitudeDegrees>-1.6909482143819332122802734375</LongitudeDegrees>
            </Position>
            <AltitudeMeters>422.399993896484375</AltitudeMeters>
            <DistanceMeters>8643.2319667959</DistanceMeters>
          </Trackpoint>
          <Trackpoint>
            <Time>2018-08-26T05:55:10.000Z</Time>
            <Position>
              <LatitudeDegrees>42.8220672346651554107666015625</LatitudeDegrees>
              <LongitudeDegrees>-1.69102993793785572052001953125</LongitudeDegrees>
            </Position>
            <AltitudeMeters>422.399993896484375</AltitudeMeters>
            <DistanceMeters>8650.0222223377</DistanceMeters>
          </Trackpoint>
          <Trackpoint>
            <Time>2018-08-26T05:55:11.000Z</Time>
            <Position>
              <LatitudeDegrees>42.8220786340534687042236328125</LatitudeDegrees>
              <LongitudeDegrees>-1.691110990941524505615234375</LongitudeDegrees>
            </Position>
            <AltitudeMeters>422.399993896484375</AltitudeMeters>
            <DistanceMeters>8656.7604138132</DistanceMeters>
          </Trackpoint>
          <Trackpoint>
            <Time>2018-08-26T05:55:12.000Z</Time>
            <Position>
              <LatitudeDegrees>42.8220905363559722900390625</LatitudeDegrees>
              <LongitudeDegrees>-1.69119170866906642913818359375</LongitudeDegrees>
            </Position>
            <AltitudeMeters>422.399993896484375</AltitudeMeters>
            <DistanceMeters>8663.481160972</DistanceMeters>
          </Trackpoint>
          <Trackpoint>
            <Time>2018-08-26T05:55:13.000Z</Time>
            <Position>
              <LatitudeDegrees>42.8221007622778415679931640625</LatitudeDegrees>
              <LongitudeDegrees>-1.69127452187240123748779296875</LongitudeDegrees>
            </Position>
            <AltitudeMeters>422.399993896484375</AltitudeMeters>
            <DistanceMeters>8670.3362698562</DistanceMeters>
          </Trackpoint>
          <Trackpoint>
            <Time>2018-08-26T05:55:14.000Z</Time>
            <Position>
              <LatitudeDegrees>42.82211157493293285369873046875</LatitudeDegrees>
              <LongitudeDegrees>-1.69135582633316516876220703125</LongitudeDegrees>
            </Position>
            <AltitudeMeters>422.399993896484375</AltitudeMeters>
            <DistanceMeters>8677.0824973411</DistanceMeters>
          </Trackpoint>
          <Trackpoint>
            <Time>2018-08-26T05:55:15.000Z</Time>
            <Position>
              <LatitudeDegrees>42.8221227228641510009765625</LatitudeDegrees>
              <LongitudeDegrees>-1.6914347000420093536376953125</LongitudeDegrees>
            </Position>
            <AltitudeMeters>422.600006103515625</AltitudeMeters>
            <DistanceMeters>8683.6407176868</DistanceMeters>
          </Trackpoint>
          <Trackpoint>
            <Time>2018-08-26T05:55:16.000Z</Time>
            <Position>
              <LatitudeDegrees>42.822133786976337432861328125</LatitudeDegrees>
              <LongitudeDegrees>-1.6915128193795680999755859375</LongitudeDegrees>
            </Position>
            <AltitudeMeters>422.600006103515625</AltitudeMeters>
            <DistanceMeters>8690.1359865146</DistanceMeters>
          </Trackpoint>
          <Trackpoint>
            <Time>2018-08-26T05:55:17.000Z</Time>
            <Position>
              <LatitudeDegrees>42.8221441805362701416015625</LatitudeDegrees>
              <LongitudeDegrees>-1.69159119017422199249267578125</LongitudeDegrees>
            </Position>
            <AltitudeMeters>422.600006103515625</AltitudeMeters>
            <DistanceMeters>8696.6382028991</DistanceMeters>
          </Trackpoint>
          <Trackpoint>
            <Time>2018-08-26T05:55:18.000Z</Time>
            <Position>
              <LatitudeDegrees>42.8221537359058856964111328125</LatitudeDegrees>
              <LongitudeDegrees>-1.6916690580546855926513671875</LongitudeDegrees>
            </Position>
            <AltitudeMeters>422.600006103515625</AltitudeMeters>
            <DistanceMeters>8703.0832282398</DistanceMeters>
          </Trackpoint>
          <Trackpoint>
            <Time>2018-08-26T05:55:19.000Z</Time>
            <Position>
              <LatitudeDegrees>42.82216362655162811279296875</LatitudeDegrees>
              <LongitudeDegrees>-1.69174692593514919281005859375</LongitudeDegrees>
            </Position>
            <AltitudeMeters>422.600006103515625</AltitudeMeters>
            <DistanceMeters>8709.5338555158</DistanceMeters>
          </Trackpoint>
          <Trackpoint>
            <Time>2018-08-26T05:55:20.000Z</Time>
            <Position>
              <LatitudeDegrees>42.822174020111560821533203125</LatitudeDegrees>
              <LongitudeDegrees>-1.6918239556252956390380859375</LongitudeDegrees>
            </Position>
            <AltitudeMeters>422.79998779296875</AltitudeMeters>
            <DistanceMeters>8715.9275364636</DistanceMeters>
          </Trackpoint>
          <Trackpoint>
            <Time>2018-08-26T05:55:21.000Z</Time>
            <Position>
              <LatitudeDegrees>42.82218508422374725341796875</LatitudeDegrees>
              <LongitudeDegrees>-1.69190014712512493133544921875</LongitudeDegrees>
            </Position>
            <AltitudeMeters>422.79998779296875</AltitudeMeters>
            <DistanceMeters>8722.2673211801</DistanceMeters>
          </Trackpoint>
          <Trackpoint>
            <Time>2018-08-26T05:55:22.000Z</Time>
            <Position>
              <LatitudeDegrees>42.8221956454217433929443359375</LatitudeDegrees>
              <LongitudeDegrees>-1.69197709299623966217041015625</LongitudeDegrees>
            </Position>
            <AltitudeMeters>422.79998779296875</AltitudeMeters>
            <DistanceMeters>8728.6574702926</DistanceMeters>
          </Trackpoint>
          <Trackpoint>
            <Time>2018-08-26T05:55:23.000Z</Time>
            <Position>
              <LatitudeDegrees>42.82220511697232723236083984375</LatitudeDegrees>
              <LongitudeDegrees>-1.6920536197721958160400390625</LongitudeDegrees>
            </Position>
            <AltitudeMeters>422.79998779296875</AltitudeMeters>
            <DistanceMeters>8734.9929805162</DistanceMeters>
          </Trackpoint>
          <Trackpoint>
            <Time>2018-08-26T05:55:24.000Z</Time>
            <Position>
              <LatitudeDegrees>42.82221383415162563323974609375</LatitudeDegrees>
              <LongitudeDegrees>-1.692129559814929962158203125</LongitudeDegrees>
            </Position>
            <AltitudeMeters>423</AltitudeMeters>
            <DistanceMeters>8741.2676226012</DistanceMeters>
          </Trackpoint>
          <Trackpoint>
            <Time>2018-08-26T05:55:25.000Z</Time>
            <Position>
              <LatitudeDegrees>42.82222372479736804962158203125</LatitudeDegrees>
              <LongitudeDegrees>-1.69220524840056896209716796875</LongitudeDegrees>
            </Position>
            <AltitudeMeters>423</AltitudeMeters>
            <DistanceMeters>8747.5437036594</DistanceMeters>
          </Trackpoint>
          <Trackpoint>
            <Time>2018-08-26T05:55:26.000Z</Time>
            <Position>
              <LatitudeDegrees>42.82223395071923732757568359375</LatitudeDegrees>
              <LongitudeDegrees>-1.69228018261492252349853515625</LongitudeDegrees>
            </Position>
            <AltitudeMeters>423.20001220703125</AltitudeMeters>
            <DistanceMeters>8753.765595471</DistanceMeters>
          </Trackpoint>
          <Trackpoint>
            <Time>2018-08-26T05:55:27.000Z</Time>
            <Position>
              <LatitudeDegrees>42.822243086993694305419921875</LatitudeDegrees>
              <LongitudeDegrees>-1.692354194819927215576171875</LongitudeDegrees>
            </Position>
            <AltitudeMeters>423.399993896484375</AltitudeMeters>
            <DistanceMeters>8759.893160881</DistanceMeters>
          </Trackpoint>
          <Trackpoint>
            <Time>2018-08-26T05:55:28.000Z</Time>
            <Position>
              <LatitudeDegrees>42.8222513012588024139404296875</LatitudeDegrees>
              <LongitudeDegrees>-1.69242787174880504608154296875</LongitudeDegrees>
            </Position>
            <AltitudeMeters>423.600006103515625</AltitudeMeters>
            <DistanceMeters>8765.9763552119</DistanceMeters>
          </Trackpoint>
          <Trackpoint>
            <Time>2018-08-26T05:55:29.000Z</Time>
            <Position>
              <LatitudeDegrees>42.82225976698100566864013671875</LatitudeDegrees>
              <LongitudeDegrees>-1.69250062666833400726318359375</LongitudeDegrees>
            </Position>
            <AltitudeMeters>423.79998779296875</AltitudeMeters>
            <DistanceMeters>8771.9901274189</DistanceMeters>
          </Trackpoint>
          <Trackpoint>
            <Time>2018-08-26T05:55:30.000Z</Time>
            <Position>
              <LatitudeDegrees>42.82226865179836750030517578125</LatitudeDegrees>
              <LongitudeDegrees>-1.6925732977688312530517578125</LongitudeDegrees>
            </Position>
            <AltitudeMeters>424</AltitudeMeters>
            <DistanceMeters>8778.0061515535</DistanceMeters>
          </Trackpoint>
          <Trackpoint>
            <Time>2018-08-26T05:55:31.000Z</Time>
            <Position>
              <LatitudeDegrees>42.82227762043476104736328125</LatitudeDegrees>
              <LongitudeDegrees>-1.69264328666031360626220703125</LongitudeDegrees>
            </Position>
            <AltitudeMeters>424.20001220703125</AltitudeMeters>
            <DistanceMeters>8783.8066743601</DistanceMeters>
          </Trackpoint>
          <Trackpoint>
            <Time>2018-08-26T05:55:32.000Z</Time>
            <Position>
              <LatitudeDegrees>42.8222861699759960174560546875</LatitudeDegrees>
              <LongitudeDegrees>-1.692716293036937713623046875</LongitudeDegrees>
            </Position>
            <AltitudeMeters>424.399993896484375</AltitudeMeters>
            <DistanceMeters>8789.8421800038</DistanceMeters>
          </Trackpoint>
          <Trackpoint>
            <Time>2018-08-26T05:55:33.000Z</Time>
            <Position>
              <LatitudeDegrees>42.8222942166030406951904296875</LatitudeDegrees>
              <LongitudeDegrees>-1.69278862886130809783935546875</LongitudeDegrees>
            </Position>
            <AltitudeMeters>424.600006103515625</AltitudeMeters>
            <DistanceMeters>8795.8152723377</DistanceMeters>
          </Trackpoint>
          <Trackpoint>
            <Time>2018-08-26T05:55:34.000Z</Time>
            <Position>
              <LatitudeDegrees>42.82230335287749767303466796875</LatitudeDegrees>
              <LongitudeDegrees>-1.69285937212407588958740234375</LongitudeDegrees>
            </Position>
            <AltitudeMeters>424.79998779296875</AltitudeMeters>
            <DistanceMeters>8801.6792753304</DistanceMeters>
          </Trackpoint>
          <Trackpoint>
            <Time>2018-08-26T05:55:35.000Z</Time>
            <Position>
              <LatitudeDegrees>42.822313494980335235595703125</LatitudeDegrees>
              <LongitudeDegrees>-1.69293061830103397369384765625</LongitudeDegrees>
            </Position>
            <AltitudeMeters>425</AltitudeMeters>
            <DistanceMeters>8807.6037927908</DistanceMeters>
          </Trackpoint>
          <Trackpoint>
            <Time>2018-08-26T05:55:36.000Z</Time>
            <Position>
              <LatitudeDegrees>42.82232279889285564422607421875</LatitudeDegrees>
              <LongitudeDegrees>-1.69300052337348461151123046875</LongitudeDegrees>
            </Position>
            <AltitudeMeters>425.399993896484375</AltitudeMeters>
            <DistanceMeters>8813.4043155974</DistanceMeters>
          </Trackpoint>
          <Trackpoint>
            <Time>2018-08-26T05:55:37.000Z</Time>
            <Position>
              <LatitudeDegrees>42.8223310969769954681396484375</LatitudeDegrees>
              <LongitudeDegrees>-1.6930706799030303955078125</LongitudeDegrees>
            </Position>
            <AltitudeMeters>425.600006103515625</AltitudeMeters>
            <DistanceMeters>8819.204838404</DistanceMeters>
          </Trackpoint>
          <Trackpoint>
            <Time>2018-08-26T05:55:38.000Z</Time>
            <Position>
              <LatitudeDegrees>42.8223381377756595611572265625</LatitudeDegrees>
              <LongitudeDegrees>-1.693140752613544464111328125</LongitudeDegrees>
            </Position>
            <AltitudeMeters>426</AltitudeMeters>
            <DistanceMeters>8824.9788354798</DistanceMeters>
          </Trackpoint>
          <Trackpoint>
            <Time>2018-08-26T05:55:39.000Z</Time>
            <Position>
              <LatitudeDegrees>42.822345010936260223388671875</LatitudeDegrees>
              <LongitudeDegrees>-1.69321082532405853271484375</LongitudeDegrees>
            </Position>
            <AltitudeMeters>426.20001220703125</AltitudeMeters>
            <DistanceMeters>8830.750486197</DistanceMeters>
          </Trackpoint>
          <Trackpoint>
            <Time>2018-08-26T05:55:40.000Z</Time>
            <Position>
              <LatitudeDegrees>42.82235364429652690887451171875</LatitudeDegrees>
              <LongitudeDegrees>-1.6932807303965091705322265625</LongitudeDegrees>
            </Position>
            <AltitudeMeters>426.20001220703125</AltitudeMeters>
            <DistanceMeters>8836.5377613357</DistanceMeters>
          </Trackpoint>
          <Trackpoint>
            <Time>2018-08-26T05:55:41.000Z</Time>
            <Position>
              <LatitudeDegrees>42.82236269675195217132568359375</LatitudeDegrees>
              <LongitudeDegrees>-1.69335055164992809295654296875</LongitudeDegrees>
            </Position>
            <AltitudeMeters>426.399993896484375</AltitudeMeters>
            <DistanceMeters>8842.3258165883</DistanceMeters>
          </Trackpoint>
          <Trackpoint>
            <Time>2018-08-26T05:55:42.000Z</Time>
            <Position>
              <LatitudeDegrees>42.82237158156931400299072265625</LatitudeDegrees>
              <LongitudeDegrees>-1.69342028908431529998779296875</LongitudeDegrees>
            </Position>
            <AltitudeMeters>426.600006103515625</AltitudeMeters>
            <DistanceMeters>8848.104503523</DistanceMeters>
          </Trackpoint>
          <Trackpoint>
            <Time>2018-08-26T05:55:43.000Z</Time>
            <Position>
              <LatitudeDegrees>42.8223800472915172576904296875</LatitudeDegrees>
              <LongitudeDegrees>-1.69348801486194133758544921875</LongitudeDegrees>
            </Position>
            <AltitudeMeters>426.79998779296875</AltitudeMeters>
            <DistanceMeters>8853.713495084</DistanceMeters>
          </Trackpoint>
          <Trackpoint>
            <Time>2018-08-26T05:55:44.000Z</Time>
            <Position>
              <LatitudeDegrees>42.82238700427114963531494140625</LatitudeDegrees>
              <LongitudeDegrees>-1.69355641119182109832763671875</LongitudeDegrees>
            </Position>
            <AltitudeMeters>427</AltitudeMeters>
            <DistanceMeters>8859.3513908867</DistanceMeters>
          </Trackpoint>
          <Trackpoint>
            <Time>2018-08-26T05:55:45.000Z</Time>
            <Position>
              <LatitudeDegrees>42.8223937936127185821533203125</LatitudeDegrees>
              <LongitudeDegrees>-1.69362396933138370513916015625</LongitudeDegrees>
            </Position>
            <AltitudeMeters>427.20001220703125</AltitudeMeters>
            <DistanceMeters>8864.9175558393</DistanceMeters>
          </Trackpoint>
          <Trackpoint>
            <Time>2018-08-26T05:55:46.000Z</Time>
            <Position>
              <LatitudeDegrees>42.8224008344113826751708984375</LatitudeDegrees>
              <LongitudeDegrees>-1.6936914436519145965576171875</LongitudeDegrees>
            </Position>
            <AltitudeMeters>427.20001220703125</AltitudeMeters>
            <DistanceMeters>8870.4804752144</DistanceMeters>
          </Trackpoint>
          <Trackpoint>
            <Time>2018-08-26T05:55:47.000Z</Time>
            <Position>
              <LatitudeDegrees>42.8224085457623004913330078125</LatitudeDegrees>
              <LongitudeDegrees>-1.6937591694295406341552734375</LongitudeDegrees>
            </Position>
            <AltitudeMeters>427.600006103515625</AltitudeMeters>
            <DistanceMeters>8876.0749586538</DistanceMeters>
          </Trackpoint>
          <Trackpoint>
            <Time>2018-08-26T05:55:48.000Z</Time>
            <Position>
              <LatitudeDegrees>42.822417430579662322998046875</LatitudeDegrees>
              <LongitudeDegrees>-1.69382572174072265625</LongitudeDegrees>
            </Position>
            <AltitudeMeters>427.79998779296875</AltitudeMeters>
            <DistanceMeters>8881.5971473641</DistanceMeters>
          </Trackpoint>
          <Trackpoint>
            <Time>2018-08-26T05:55:49.000Z</Time>
            <Position>
              <LatitudeDegrees>42.82242706976830959320068359375</LatitudeDegrees>
              <LongitudeDegrees>-1.6938929446041584014892578125</LongitudeDegrees>
            </Position>
            <AltitudeMeters>428</AltitudeMeters>
            <DistanceMeters>8887.1884016642</DistanceMeters>
          </Trackpoint>
          <Trackpoint>
            <Time>2018-08-26T05:55:50.000Z</Time>
            <Position>
              <LatitudeDegrees>42.8224365413188934326171875</LatitudeDegrees>
              <LongitudeDegrees>-1.693958826363086700439453125</LongitudeDegrees>
            </Position>
            <AltitudeMeters>428.20001220703125</AltitudeMeters>
            <DistanceMeters>8892.6687332466</DistanceMeters>
          </Trackpoint>
          <Trackpoint>
            <Time>2018-08-26T05:55:51.000Z</Time>
            <Position>
              <LatitudeDegrees>42.8224454261362552642822265625</LatitudeDegrees>
              <LongitudeDegrees>-1.6940240375697612762451171875</LongitudeDegrees>
            </Position>
            <AltitudeMeters>428.399993896484375</AltitudeMeters>
            <DistanceMeters>8898.0835885737</DistanceMeters>
          </Trackpoint>
          <Trackpoint>
            <Time>2018-08-26T05:55:52.000Z</Time>
            <Position>
              <LatitudeDegrees>42.8224526345729827880859375</LatitudeDegrees>
              <LongitudeDegrees>-1.69408799149096012115478515625</LongitudeDegrees>
            </Position>
            <AltitudeMeters>428.600006103515625</AltitudeMeters>
            <DistanceMeters>8903.3650567536</DistanceMeters>
          </Trackpoint>
          <Trackpoint>
            <Time>2018-08-26T05:55:53.000Z</Time>
            <Position>
              <LatitudeDegrees>42.82246093265712261199951171875</LatitudeDegrees>
              <LongitudeDegrees>-1.694149933755397796630859375</LongitudeDegrees>
            </Position>
            <AltitudeMeters>428.79998779296875</AltitudeMeters>
            <DistanceMeters>8908.5052905688</DistanceMeters>
          </Trackpoint>
          <Trackpoint>
            <Time>2018-08-26T05:55:54.000Z</Time>
            <Position>
              <LatitudeDegrees>42.82246981747448444366455078125</LatitudeDegrees>
              <LongitudeDegrees>-1.69421263039112091064453125</LongitudeDegrees>
            </Position>
            <AltitudeMeters>429</AltitudeMeters>
            <DistanceMeters>8913.717919466</DistanceMeters>
          </Trackpoint>
          <Trackpoint>
            <Time>2018-08-26T05:55:55.000Z</Time>
            <Position>
              <LatitudeDegrees>42.82248021103441715240478515625</LatitudeDegrees>
              <LongitudeDegrees>-1.69427432119846343994140625</LongitudeDegrees>
            </Position>
            <AltitudeMeters>429.20001220703125</AltitudeMeters>
            <DistanceMeters>8918.8861847573</DistanceMeters>
          </Trackpoint>
          <Trackpoint>
            <Time>2018-08-26T05:55:56.000Z</Time>
            <Position>
              <LatitudeDegrees>42.82249085605144500732421875</LatitudeDegrees>
              <LongitudeDegrees>-1.6943355090916156768798828125</LongitudeDegrees>
            </Position>
            <AltitudeMeters>429.600006103515625</AltitudeMeters>
            <DistanceMeters>8924.0193867856</DistanceMeters>
          </Trackpoint>
          <Trackpoint>
            <Time>2018-08-26T05:55:57.000Z</Time>
            <Position>
              <LatitudeDegrees>42.82250200398266315460205078125</LatitudeDegrees>
              <LongitudeDegrees>-1.69439594261348247528076171875</LongitudeDegrees>
            </Position>
            <AltitudeMeters>429.79998779296875</AltitudeMeters>
            <DistanceMeters>8929.1066452898</DistanceMeters>
          </Trackpoint>
          <Trackpoint>
            <Time>2018-08-26T05:55:58.000Z</Time>
            <Position>
              <LatitudeDegrees>42.8225138224661350250244140625</LatitudeDegrees>
              <LongitudeDegrees>-1.6944552026689052581787109375</LongitudeDegrees>
            </Position>
            <AltitudeMeters>430.20001220703125</AltitudeMeters>
            <DistanceMeters>8934.1205991009</DistanceMeters>
          </Trackpoint>
          <Trackpoint>
            <Time>2018-08-26T05:55:59.000Z</Time>
            <Position>
              <LatitudeDegrees>42.822528742253780364990234375</LatitudeDegrees>
              <LongitudeDegrees>-1.69451312161982059478759765625</LongitudeDegrees>
            </Position>
            <AltitudeMeters>430.20001220703125</AltitudeMeters>
            <DistanceMeters>8939.1327515993</DistanceMeters>
          </Trackpoint>
          <Trackpoint>
            <Time>2018-08-26T05:56:00.000Z</Time>
            <Position>
              <LatitudeDegrees>42.82254927791655063629150390625</LatitudeDegrees>
              <LongitudeDegrees>-1.69456810690462589263916015625</LongitudeDegrees>
            </Position>
            <AltitudeMeters>430.399993896484375</AltitudeMeters>
            <DistanceMeters>8944.1700638596</DistanceMeters>
          </Trackpoint>
          <Trackpoint>
            <Time>2018-08-26T05:56:01.000Z</Time>
            <Position>
              <LatitudeDegrees>42.8225714899599552154541015625</LatitudeDegrees>
              <LongitudeDegrees>-1.69462242163717746734619140625</LongitudeDegrees>
            </Position>
            <AltitudeMeters>430.600006103515625</AltitudeMeters>
            <DistanceMeters>8949.246660965</DistanceMeters>
          </Trackpoint>
          <Trackpoint>
            <Time>2018-08-26T05:56:02.000Z</Time>
            <Position>
              <LatitudeDegrees>42.82259009778499603271484375</LatitudeDegrees>
              <LongitudeDegrees>-1.69467874802649021148681640625</LongitudeDegrees>
            </Position>
            <AltitudeMeters>430.79998779296875</AltitudeMeters>
            <DistanceMeters>8954.289348271</DistanceMeters>
          </Trackpoint>
          <Trackpoint>
            <Time>2018-08-26T05:56:03.000Z</Time>
            <Position>
              <LatitudeDegrees>42.82260124571621417999267578125</LatitudeDegrees>
              <LongitudeDegrees>-1.6947388462722301483154296875</LongitudeDegrees>
            </Position>
            <AltitudeMeters>431.20001220703125</AltitudeMeters>
            <DistanceMeters>8959.3508032863</DistanceMeters>
          </Trackpoint>
          <Trackpoint>
            <Time>2018-08-26T05:56:04.000Z</Time>
            <Position>
              <LatitudeDegrees>42.8226028382778167724609375</LatitudeDegrees>
              <LongitudeDegrees>-1.69480129145085811614990234375</LongitudeDegrees>
            </Position>
            <AltitudeMeters>431.600006103515625</AltitudeMeters>
            <DistanceMeters>8964.4522423295</DistanceMeters>
          </Trackpoint>
          <Trackpoint>
            <Time>2018-08-26T05:56:05.000Z</Time>
            <Position>
              <LatitudeDegrees>42.82259604893624782562255859375</LatitudeDegrees>
              <LongitudeDegrees>-1.69486298225820064544677734375</LongitudeDegrees>
            </Position>
            <AltitudeMeters>432</AltitudeMeters>
            <DistanceMeters>8969.5448231631</DistanceMeters>
          </Trackpoint>
          <Trackpoint>
            <Time>2018-08-26T05:56:06.000Z</Time>
            <Position>
              <LatitudeDegrees>42.822585739195346832275390625</LatitudeDegrees>
              <LongitudeDegrees>-1.69492400251328945159912109375</LongitudeDegrees>
            </Position>
            <AltitudeMeters>432.20001220703125</AltitudeMeters>
            <DistanceMeters>8974.6568717964</DistanceMeters>
          </Trackpoint>
          <Trackpoint>
            <Time>2018-08-26T05:56:07.000Z</Time>
            <Position>
              <LatitudeDegrees>42.8225765191018581390380859375</LatitudeDegrees>
              <LongitudeDegrees>-1.69498468749225139617919921875</LongitudeDegrees>
            </Position>
            <AltitudeMeters>432.399993896484375</AltitudeMeters>
            <DistanceMeters>8979.7174346895</DistanceMeters>
          </Trackpoint>
          <Trackpoint>
            <Time>2018-08-26T05:56:08.000Z</Time>
            <Position>
              <LatitudeDegrees>42.82257056795060634613037109375</LatitudeDegrees>
              <LongitudeDegrees>-1.69504520483314990997314453125</LongitudeDegrees>
            </Position>
            <AltitudeMeters>432.79998779296875</AltitudeMeters>
            <DistanceMeters>8984.7024893906</DistanceMeters>
          </Trackpoint>
          <Trackpoint>
            <Time>2018-08-26T05:56:09.000Z</Time>
            <Position>
              <LatitudeDegrees>42.8225694783031940460205078125</LatitudeDegrees>
              <LongitudeDegrees>-1.69510588981211185455322265625</LongitudeDegrees>
            </Position>
            <AltitudeMeters>433</AltitudeMeters>
            <DistanceMeters>8989.6584764697</DistanceMeters>
          </Trackpoint>
          <Trackpoint>
            <Time>2018-08-26T05:56:10.000Z</Time>
            <Position>
              <LatitudeDegrees>42.82257358543574810028076171875</LatitudeDegrees>
              <LongitudeDegrees>-1.69516657479107379913330078125</LongitudeDegrees>
            </Position>
            <AltitudeMeters>433.20001220703125</AltitudeMeters>
            <DistanceMeters>8994.6344657793</DistanceMeters>
          </Trackpoint>
          <Trackpoint>
            <Time>2018-08-26T05:56:11.000Z</Time>
            <Position>
              <LatitudeDegrees>42.822581715881824493408203125</LatitudeDegrees>
              <LongitudeDegrees>-1.695226840674877166748046875</LongitudeDegrees>
            </Position>
            <AltitudeMeters>433.600006103515625</AltitudeMeters>
            <DistanceMeters>8999.637601986</DistanceMeters>
          </Trackpoint>
          <Trackpoint>
            <Time>2018-08-26T05:56:12.000Z</Time>
            <Position>
              <LatitudeDegrees>42.82259068451821804046630859375</LatitudeDegrees>
              <LongitudeDegrees>-1.69528626836836338043212890625</LongitudeDegrees>
            </Position>
            <AltitudeMeters>433.79998779296875</AltitudeMeters>
            <DistanceMeters>9004.5899436161</DistanceMeters>
          </Trackpoint>
          <Trackpoint>
            <Time>2018-08-26T05:56:13.000Z</Time>
            <Position>
              <LatitudeDegrees>42.82259923405945301055908203125</LatitudeDegrees>
              <LongitudeDegrees>-1.69534510932862758636474609375</LongitudeDegrees>
            </Position>
            <AltitudeMeters>434</AltitudeMeters>
            <DistanceMeters>9009.4872778946</DistanceMeters>
          </Trackpoint>
          <Trackpoint>
            <Time>2018-08-26T05:56:14.000Z</Time>
            <Position>
              <LatitudeDegrees>42.822606526315212249755859375</LatitudeDegrees>
              <LongitudeDegrees>-1.69540428556501865386962890625</LongitudeDegrees>
            </Position>
            <AltitudeMeters>434.399993896484375</AltitudeMeters>
            <DistanceMeters>9014.386455702</DistanceMeters>
          </Trackpoint>
          <Trackpoint>
            <Time>2018-08-26T05:56:15.000Z</Time>
            <Position>
              <LatitudeDegrees>42.822613231837749481201171875</LatitudeDegrees>
              <LongitudeDegrees>-1.69546379707753658294677734375</LongitudeDegrees>
            </Position>
            <AltitudeMeters>434.79998779296875</AltitudeMeters>
            <DistanceMeters>9019.3021941576</DistanceMeters>
          </Trackpoint>
          <Trackpoint>
            <Time>2018-08-26T05:56:16.000Z</Time>
            <Position>
              <LatitudeDegrees>42.82262018881738185882568359375</LatitudeDegrees>
              <LongitudeDegrees>-1.69552347622811794281005859375</LongitudeDegrees>
            </Position>
            <AltitudeMeters>435</AltitudeMeters>
            <DistanceMeters>9024.2362681429</DistanceMeters>
          </Trackpoint>
          <Trackpoint>
            <Time>2018-08-26T05:56:17.000Z</Time>
            <Position>
              <LatitudeDegrees>42.82262806780636310577392578125</LatitudeDegrees>
              <LongitudeDegrees>-1.69558189809322357177734375</LongitudeDegrees>
            </Position>
            <AltitudeMeters>435.399993896484375</AltitudeMeters>
            <DistanceMeters>9029.0854246737</DistanceMeters>
          </Trackpoint>
          <Trackpoint>
            <Time>2018-08-26T05:56:18.000Z</Time>
            <Position>
              <LatitudeDegrees>42.82263494096696376800537109375</LatitudeDegrees>
              <LongitudeDegrees>-1.69564099051058292388916015625</LongitudeDegrees>
            </Position>
            <AltitudeMeters>435.600006103515625</AltitudeMeters>
            <DistanceMeters>9033.9698347676</DistanceMeters>
          </Trackpoint>
          <Trackpoint>
            <Time>2018-08-26T05:56:19.000Z</Time>
            <Position>
              <LatitudeDegrees>42.82264064066112041473388671875</LatitudeDegrees>
              <LongitudeDegrees>-1.69570016674697399139404296875</LongitudeDegrees>
            </Position>
            <AltitudeMeters>435.79998779296875</AltitudeMeters>
            <DistanceMeters>9038.8412863884</DistanceMeters>
          </Trackpoint>
          <Trackpoint>
            <Time>2018-08-26T05:56:20.000Z</Time>
            <Position>
              <LatitudeDegrees>42.82264642417430877685546875</LatitudeDegrees>
              <LongitudeDegrees>-1.6957577504217624664306640625</LongitudeDegrees>
            </Position>
            <AltitudeMeters>436</AltitudeMeters>
            <DistanceMeters>9043.5850138783</DistanceMeters>
          </Trackpoint>
          <Trackpoint>
            <Time>2018-08-26T05:56:21.000Z</Time>
            <Position>
              <LatitudeDegrees>42.822650112211704254150390625</LatitudeDegrees>
              <LongitudeDegrees>-1.69581935741007328033447265625</LongitudeDegrees>
            </Position>
            <AltitudeMeters>436.20001220703125</AltitudeMeters>
            <DistanceMeters>9048.6312813675</DistanceMeters>
          </Trackpoint>
          <Trackpoint>
            <Time>2018-08-26T05:56:22.000Z</Time>
            <Position>
              <LatitudeDegrees>42.8226559795439243316650390625</LatitudeDegrees>
              <LongitudeDegrees>-1.69587518088519573211669921875</LongitudeDegrees>
            </Position>
            <AltitudeMeters>436.399993896484375</AltitudeMeters>
            <DistanceMeters>9053.234930943</DistanceMeters>
          </Trackpoint>
          <Trackpoint>
            <Time>2018-08-26T05:56:23.000Z</Time>
            <Position>
              <LatitudeDegrees>42.82266209833323955535888671875</LatitudeDegrees>
              <LongitudeDegrees>-1.69592790305614471435546875</LongitudeDegrees>
            </Position>
            <AltitudeMeters>436.600006103515625</AltitudeMeters>
            <DistanceMeters>9057.5916752188</DistanceMeters>
          </Trackpoint>
          <Trackpoint>
            <Time>2018-08-26T05:56:24.000Z</Time>
            <Position>
              <LatitudeDegrees>42.8226672112941741943359375</LatitudeDegrees>
              <LongitudeDegrees>-1.69597911648452281951904296875</LongitudeDegrees>
            </Position>
            <AltitudeMeters>436.79998779296875</AltitudeMeters>
            <DistanceMeters>9061.8115461585</DistanceMeters>
          </Trackpoint>
          <Trackpoint>
            <Time>2018-08-26T05:56:25.000Z</Time>
            <Position>
              <LatitudeDegrees>42.82267265953123569488525390625</LatitudeDegrees>
              <LongitudeDegrees>-1.6960303299129009246826171875</LongitudeDegrees>
            </Position>
            <AltitudeMeters>437.600006103515625</AltitudeMeters>
            <DistanceMeters>9066.0356947181</DistanceMeters>
          </Trackpoint>
          <Trackpoint>
            <Time>2018-08-26T05:56:26.000Z</Time>
            <Position>
              <LatitudeDegrees>42.822678945958614349365234375</LatitudeDegrees>
              <LongitudeDegrees>-1.696083135902881622314453125</LongitudeDegrees>
            </Position>
            <AltitudeMeters>437.79998779296875</AltitudeMeters>
            <DistanceMeters>9070.4027900284</DistanceMeters>
          </Trackpoint>
          <Trackpoint>
            <Time>2018-08-26T05:56:27.000Z</Time>
            <Position>
              <LatitudeDegrees>42.82268531620502471923828125</LatitudeDegrees>
              <LongitudeDegrees>-1.6961366124451160430908203125</LongitudeDegrees>
            </Position>
            <AltitudeMeters>438.20001220703125</AltitudeMeters>
            <DistanceMeters>9074.8253623091</DistanceMeters>
          </Trackpoint>
          <Trackpoint>
            <Time>2018-08-26T05:56:28.000Z</Time>
            <Position>
              <LatitudeDegrees>42.8226918540894985198974609375</LatitudeDegrees>
              <LongitudeDegrees>-1.69619017280638217926025390625</LongitudeDegrees>
            </Position>
            <AltitudeMeters>438.600006103515625</AltitudeMeters>
            <DistanceMeters>9079.2581319108</DistanceMeters>
          </Trackpoint>
          <Trackpoint>
            <Time>2018-08-26T05:56:29.000Z</Time>
            <Position>
              <LatitudeDegrees>42.8226999007165431976318359375</LatitudeDegrees>
              <LongitudeDegrees>-1.69624431990087032318115234375</LongitudeDegrees>
            </Position>
            <AltitudeMeters>439</AltitudeMeters>
            <DistanceMeters>9083.7686487579</DistanceMeters>
          </Trackpoint>
          <Trackpoint>
            <Time>2018-08-26T05:56:30.000Z</Time>
            <Position>
              <LatitudeDegrees>42.82270803116261959075927734375</LatitudeDegrees>
              <LongitudeDegrees>-1.6962985508143901824951171875</LongitudeDegrees>
            </Position>
            <AltitudeMeters>439.20001220703125</AltitudeMeters>
            <DistanceMeters>9088.2881656476</DistanceMeters>
          </Trackpoint>
          <Trackpoint>
            <Time>2018-08-26T05:56:31.000Z</Time>
            <Position>
              <LatitudeDegrees>42.82271490432322025299072265625</LatitudeDegrees>
              <LongitudeDegrees>-1.69635294936597347259521484375</LongitudeDegrees>
            </Position>
            <AltitudeMeters>439.399993896484375</AltitudeMeters>
            <DistanceMeters>9092.7936747028</DistanceMeters>
          </Trackpoint>
          <Trackpoint>
            <Time>2018-08-26T05:56:32.000Z</Time>
            <Position>
              <LatitudeDegrees>42.822720520198345184326171875</LatitudeDegrees>
              <LongitudeDegrees>-1.6964081861078739166259765625</LongitudeDegrees>
            </Position>
            <AltitudeMeters>439.79998779296875</AltitudeMeters>
            <DistanceMeters>9097.3460395211</DistanceMeters>
          </Trackpoint>
          <Trackpoint>
            <Time>2018-08-26T05:56:33.000Z</Time>
            <Position>
              <LatitudeDegrees>42.8227300755679607391357421875</LatitudeDegrees>
              <LongitudeDegrees>-1.69646007008850574493408203125</LongitudeDegrees>
            </Position>
            <AltitudeMeters>440</AltitudeMeters>
            <DistanceMeters>9101.7131348314</DistanceMeters>
          </Trackpoint>
          <Trackpoint>
            <Time>2018-08-26T05:56:34.000Z</Time>
            <Position>
              <LatitudeDegrees>42.8227414749562740325927734375</LatitudeDegrees>
              <LongitudeDegrees>-1.6965119540691375732421875</LongitudeDegrees>
            </Position>
            <AltitudeMeters>440.399993896484375</AltitudeMeters>
            <DistanceMeters>9106.1336648251</DistanceMeters>
          </Trackpoint>
          <Trackpoint>
            <Time>2018-08-26T05:56:35.000Z</Time>
            <Position>
              <LatitudeDegrees>42.82275211997330188751220703125</LatitudeDegrees>
              <LongitudeDegrees>-1.6965647600591182708740234375</LongitudeDegrees>
            </Position>
            <AltitudeMeters>440.600006103515625</AltitudeMeters>
            <DistanceMeters>9110.6039622615</DistanceMeters>
          </Trackpoint>
          <Trackpoint>
            <Time>2018-08-26T05:56:36.000Z</Time>
            <Position>
              <LatitudeDegrees>42.8227610886096954345703125</LatitudeDegrees>
              <LongitudeDegrees>-1.69661932624876499176025390625</LongitudeDegrees>
            </Position>
            <AltitudeMeters>440.79998779296875</AltitudeMeters>
            <DistanceMeters>9115.1692022807</DistanceMeters>
          </Trackpoint>
          <Trackpoint>
            <Time>2018-08-26T05:56:37.000Z</Time>
            <Position>
              <LatitudeDegrees>42.822769470512866973876953125</LatitudeDegrees>
              <LongitudeDegrees>-1.69667414389550685882568359375</LongitudeDegrees>
            </Position>
            <AltitudeMeters>441</AltitudeMeters>
            <DistanceMeters>9119.7403724691</DistanceMeters>
          </Trackpoint>
          <Trackpoint>
            <Time>2018-08-26T05:56:38.000Z</Time>
            <Position>
              <LatitudeDegrees>42.822776846587657928466796875</LatitudeDegrees>
              <LongitudeDegrees>-1.6967283748090267181396484375</LongitudeDegrees>
            </Position>
            <AltitudeMeters>441.20001220703125</AltitudeMeters>
            <DistanceMeters>9124.2438768482</DistanceMeters>
          </Trackpoint>
          <Trackpoint>
            <Time>2018-08-26T05:56:39.000Z</Time>
            <Position>
              <LatitudeDegrees>42.82278397120535373687744140625</LatitudeDegrees>
              <LongitudeDegrees>-1.69678243808448314666748046875</LongitudeDegrees>
            </Position>
            <AltitudeMeters>441.20001220703125</AltitudeMeters>
            <DistanceMeters>9128.7272851683</DistanceMeters>
          </Trackpoint>
          <Trackpoint>
            <Time>2018-08-26T05:56:40.000Z</Time>
            <Position>
              <LatitudeDegrees>42.82279050908982753753662109375</LatitudeDegrees>
              <LongitudeDegrees>-1.6968359984457492828369140625</LongitudeDegrees>
            </Position>
            <AltitudeMeters>441.399993896484375</AltitudeMeters>
            <DistanceMeters>9133.16005477</DistanceMeters>
          </Trackpoint>
          <Trackpoint>
            <Time>2018-08-26T05:56:41.000Z</Time>
            <Position>
              <LatitudeDegrees>42.82279704697430133819580078125</LatitudeDegrees>
              <LongitudeDegrees>-1.696890480816364288330078125</LongitudeDegrees>
            </Position>
            <AltitudeMeters>441.79998779296875</AltitudeMeters>
            <DistanceMeters>9137.6675676096</DistanceMeters>
          </Trackpoint>
          <Trackpoint>
            <Time>2018-08-26T05:56:42.000Z</Time>
            <Position>
              <LatitudeDegrees>42.8228045068681240081787109375</LatitudeDegrees>
              <LongitudeDegrees>-1.696946136653423309326171875</LongitudeDegrees>
            </Position>
            <AltitudeMeters>442</AltitudeMeters>
            <DistanceMeters>9142.2859050335</DistanceMeters>
          </Trackpoint>
          <Trackpoint>
            <Time>2018-08-26T05:56:43.000Z</Time>
            <Position>
              <LatitudeDegrees>42.82281213440001010894775390625</LatitudeDegrees>
              <LongitudeDegrees>-1.69700120575726032257080078125</LongitudeDegrees>
            </Position>
            <AltitudeMeters>442.20001220703125</AltitudeMeters>
            <DistanceMeters>9146.8600374234</DistanceMeters>
          </Trackpoint>
          <Trackpoint>
            <Time>2018-08-26T05:56:44.000Z</Time>
            <Position>
              <LatitudeDegrees>42.82281917519867420196533203125</LatitudeDegrees>
              <LongitudeDegrees>-1.69705711305141448974609375</LongitudeDegrees>
            </Position>
            <AltitudeMeters>442.600006103515625</AltitudeMeters>
            <DistanceMeters>9151.4900915784</DistanceMeters>
          </Trackpoint>
          <Trackpoint>
            <Time>2018-08-26T05:56:45.000Z</Time>
            <Position>
              <LatitudeDegrees>42.82282613217830657958984375</LatitudeDegrees>
              <LongitudeDegrees>-1.69711335562169551849365234375</LongitudeDegrees>
            </Position>
            <AltitudeMeters>442.79998779296875</AltitudeMeters>
            <DistanceMeters>9156.1473701419</DistanceMeters>
          </Trackpoint>
          <Trackpoint>
            <Time>2018-08-26T05:56:46.000Z</Time>
            <Position>
              <LatitudeDegrees>42.82283375971019268035888671875</LatitudeDegrees>
              <LongitudeDegrees>-1.69716867618262767791748046875</LongitudeDegrees>
            </Position>
            <AltitudeMeters>443</AltitudeMeters>
            <DistanceMeters>9160.7421844718</DistanceMeters>
          </Trackpoint>
          <Trackpoint>
            <Time>2018-08-26T05:56:47.000Z</Time>
            <Position>
              <LatitudeDegrees>42.8228415548801422119140625</LatitudeDegrees>
              <LongitudeDegrees>-1.69722483493387699127197265625</LongitudeDegrees>
            </Position>
            <AltitudeMeters>443.20001220703125</AltitudeMeters>
            <DistanceMeters>9165.4081800039</DistanceMeters>
          </Trackpoint>
          <Trackpoint>
            <Time>2018-08-26T05:56:48.000Z</Time>
            <Position>
              <LatitudeDegrees>42.8228497691452503204345703125</LatitudeDegrees>
              <LongitudeDegrees>-1.6972802393138408660888671875</LongitudeDegrees>
            </Position>
            <AltitudeMeters>443.399993896484375</AltitudeMeters>
            <DistanceMeters>9170.0226052395</DistanceMeters>
          </Trackpoint>
          <Trackpoint>
            <Time>2018-08-26T05:56:49.000Z</Time>
            <Position>
              <LatitudeDegrees>42.82285555265843868255615234375</LatitudeDegrees>
              <LongitudeDegrees>-1.69733874499797821044921875</LongitudeDegrees>
            </Position>
            <AltitudeMeters>443.600006103515625</AltitudeMeters>
            <DistanceMeters>9174.8418745424</DistanceMeters>
          </Trackpoint>
          <Trackpoint>
            <Time>2018-08-26T05:56:50.000Z</Time>
            <Position>
              <LatitudeDegrees>42.82286100089550018310546875</LatitudeDegrees>
              <LongitudeDegrees>-1.69739775359630584716796875</LongitudeDegrees>
            </Position>
            <AltitudeMeters>443.600006103515625</AltitudeMeters>
            <DistanceMeters>9179.6984741421</DistanceMeters>
          </Trackpoint>
          <Trackpoint>
            <Time>2018-08-26T05:56:51.000Z</Time>
            <Position>
              <LatitudeDegrees>42.82286728732287883758544921875</LatitudeDegrees>
              <LongitudeDegrees>-1.6974569298326969146728515625</LongitudeDegrees>
            </Position>
            <AltitudeMeters>443.79998779296875</AltitudeMeters>
            <DistanceMeters>9184.5791853259</DistanceMeters>
          </Trackpoint>
          <Trackpoint>
            <Time>2018-08-26T05:56:52.000Z</Time>
            <Position>
              <LatitudeDegrees>42.82287332229316234588623046875</LatitudeDegrees>
              <LongitudeDegrees>-1.69751384295523166656494140625</LongitudeDegrees>
            </Position>
            <AltitudeMeters>443.79998779296875</AltitudeMeters>
            <DistanceMeters>9189.2750821173</DistanceMeters>
          </Trackpoint>
          <Trackpoint>
            <Time>2018-08-26T05:56:53.000Z</Time>
            <Position>
              <LatitudeDegrees>42.82288069836795330047607421875</LatitudeDegrees>
              <LongitudeDegrees>-1.6975687444210052490234375</LongitudeDegrees>
            </Position>
            <AltitudeMeters>444.20001220703125</AltitudeMeters>
            <DistanceMeters>9193.831412411</DistanceMeters>
          </Trackpoint>
          <Trackpoint>
            <Time>2018-08-26T05:56:54.000Z</Time>
            <Position>
              <LatitudeDegrees>42.82288807444274425506591796875</LatitudeDegrees>
              <LongitudeDegrees>-1.6976269148290157318115234375</LongitudeDegrees>
            </Position>
            <AltitudeMeters>444.399993896484375</AltitudeMeters>
            <DistanceMeters>9198.6506817139</DistanceMeters>
          </Trackpoint>
          <Trackpoint>
            <Time>2018-08-26T05:56:55.000Z</Time>
            <Position>
              <LatitudeDegrees>42.82289452850818634033203125</LatitudeDegrees>
              <LongitudeDegrees>-1.6976867616176605224609375</LongitudeDegrees>
            </Position>
            <AltitudeMeters>444.399993896484375</AltitudeMeters>
            <DistanceMeters>9203.5893289451</DistanceMeters>
          </Trackpoint>
          <Trackpoint>
            <Time>2018-08-26T05:56:56.000Z</Time>
            <Position>
              <LatitudeDegrees>42.82290047965943813323974609375</LatitudeDegrees>
              <LongitudeDegrees>-1.697746776044368743896484375</LongitudeDegrees>
            </Position>
            <AltitudeMeters>444.600006103515625</AltitudeMeters>
            <DistanceMeters>9208.5325451914</DistanceMeters>
          </Trackpoint>
          <Trackpoint>
            <Time>2018-08-26T05:56:57.000Z</Time>
            <Position>
              <LatitudeDegrees>42.8229054249823093414306640625</LatitudeDegrees>
              <LongitudeDegrees>-1.69780670665204524993896484375</LongitudeDegrees>
            </Position>
            <AltitudeMeters>444.79998779296875</AltitudeMeters>
            <DistanceMeters>9213.4556260536</DistanceMeters>
          </Trackpoint>
          <Trackpoint>
            <Time>2018-08-26T05:56:58.000Z</Time>
            <Position>
              <LatitudeDegrees>42.822909615933895111083984375</LatitudeDegrees>
              <LongitudeDegrees>-1.69786621816456317901611328125</LongitudeDegrees>
            </Position>
            <AltitudeMeters>444.79998779296875</AltitudeMeters>
            <DistanceMeters>9218.3363372373</DistanceMeters>
          </Trackpoint>
          <Trackpoint>
            <Time>2018-08-26T05:56:59.000Z</Time>
            <Position>
              <LatitudeDegrees>42.82291355542838573455810546875</LatitudeDegrees>
              <LongitudeDegrees>-1.6979263164103031158447265625</LongitudeDegrees>
            </Position>
            <AltitudeMeters>444.79998779296875</AltitudeMeters>
            <DistanceMeters>9223.2630851994</DistanceMeters>
          </Trackpoint>
          <Trackpoint>
            <Time>2018-08-26T05:57:00.000Z</Time>
            <Position>
              <LatitudeDegrees>42.822916992008686065673828125</LatitudeDegrees>
              <LongitudeDegrees>-1.6979873366653919219970703125</LongitudeDegrees>
            </Position>
            <AltitudeMeters>445</AltitudeMeters>
            <DistanceMeters>9228.2599003218</DistanceMeters>
          </Trackpoint>
          <Trackpoint>
            <Time>2018-08-26T05:57:01.000Z</Time>
            <Position>
              <LatitudeDegrees>42.8229208476841449737548828125</LatitudeDegrees>
              <LongitudeDegrees>-1.69804961420595645904541015625</LongitudeDegrees>
            </Position>
            <AltitudeMeters>445.20001220703125</AltitudeMeters>
            <DistanceMeters>9233.3631091617</DistanceMeters>
          </Trackpoint>
          <Trackpoint>
            <Time>2018-08-26T05:57:02.000Z</Time>
            <Position>
              <LatitudeDegrees>42.82292562536895275115966796875</LatitudeDegrees>
              <LongitudeDegrees>-1.69811256229877471923828125</LongitudeDegrees>
            </Position>
            <AltitudeMeters>445.20001220703125</AltitudeMeters>
            <DistanceMeters>9238.5296269415</DistanceMeters>
          </Trackpoint>
          <Trackpoint>
            <Time>2018-08-26T05:57:03.000Z</Time>
            <Position>
              <LatitudeDegrees>42.82293031923472881317138671875</LatitudeDegrees>
              <LongitudeDegrees>-1.69817618094384670257568359375</LongitudeDegrees>
            </Position>
            <AltitudeMeters>445.399993896484375</AltitudeMeters>
            <DistanceMeters>9243.7500455749</DistanceMeters>
          </Trackpoint>
          <Trackpoint>
            <Time>2018-08-26T05:57:04.000Z</Time>
            <Position>
              <LatitudeDegrees>42.82293400727212429046630859375</LatitudeDegrees>
              <LongitudeDegrees>-1.69823954813182353973388671875</LongitudeDegrees>
            </Position>
            <AltitudeMeters>445.399993896484375</AltitudeMeters>
            <DistanceMeters>9248.9401051152</DistanceMeters>
          </Trackpoint>
          <Trackpoint>
            <Time>2018-08-26T05:57:05.000Z</Time>
            <Position>
              <LatitudeDegrees>42.82293752767145633697509765625</LatitudeDegrees>
              <LongitudeDegrees>-1.69830442406237125396728515625</LongitudeDegrees>
            </Position>
            <AltitudeMeters>445.399993896484375</AltitudeMeters>
            <DistanceMeters>9254.2514099277</DistanceMeters>
          </Trackpoint>
          <Trackpoint>
            <Time>2018-08-26T05:57:06.000Z</Time>
            <Position>
              <LatitudeDegrees>42.82294121570885181427001953125</LatitudeDegrees>
              <LongitudeDegrees>-1.698370389640331268310546875</LongitudeDegrees>
            </Position>
            <AltitudeMeters>445.399993896484375</AltitudeMeters>
            <DistanceMeters>9259.6537434112</DistanceMeters>
          </Trackpoint>
          <Trackpoint>
            <Time>2018-08-26T05:57:07.000Z</Time>
            <Position>
              <LatitudeDegrees>42.82294423319399356842041015625</LatitudeDegrees>
              <LongitudeDegrees>-1.698436774313449859619140625</LongitudeDegrees>
            </Position>
            <AltitudeMeters>445.600006103515625</AltitudeMeters>
            <DistanceMeters>9265.0844182924</DistanceMeters>
          </Trackpoint>
          <Trackpoint>
            <Time>2018-08-26T05:57:08.000Z</Time>
            <Position>
              <LatitudeDegrees>42.82294683158397674560546875</LatitudeDegrees>
              <LongitudeDegrees>-1.6985034942626953125</LongitudeDegrees>
            </Position>
            <AltitudeMeters>445.600006103515625</AltitudeMeters>
            <DistanceMeters>9270.5383225643</DistanceMeters>
          </Trackpoint>
          <Trackpoint>
            <Time>2018-08-26T05:57:09.000Z</Time>
            <Position>
              <LatitudeDegrees>42.82294959761202335357666015625</LatitudeDegrees>
              <LongitudeDegrees>-1.698570214211940765380859375</LongitudeDegrees>
            </Position>
            <AltitudeMeters>445.600006103515625</AltitudeMeters>
            <DistanceMeters>9275.9930546276</DistanceMeters>
          </Trackpoint>
          <Trackpoint>
            <Time>2018-08-26T05:57:10.000Z</Time>
            <Position>
              <LatitudeDegrees>42.82295219600200653076171875</LatitudeDegrees>
              <LongitudeDegrees>-1.69863802380859851837158203125</LongitudeDegrees>
            </Position>
            <AltitudeMeters>445.600006103515625</AltitudeMeters>
            <DistanceMeters>9281.5356460849</DistanceMeters>
          </Trackpoint>
          <Trackpoint>
            <Time>2018-08-26T05:57:11.000Z</Time>
            <Position>
              <LatitudeDegrees>42.82295512966811656951904296875</LatitudeDegrees>
              <LongitudeDegrees>-1.69870642013847827911376953125</LongitudeDegrees>
            </Position>
            <AltitudeMeters>445.600006103515625</AltitudeMeters>
            <DistanceMeters>9287.1301295244</DistanceMeters>
          </Trackpoint>
          <Trackpoint>
            <Time>2018-08-26T05:57:12.000Z</Time>
            <Position>
              <LatitudeDegrees>42.8229580633342266082763671875</LatitudeDegrees>
              <LongitudeDegrees>-1.69877506792545318603515625</LongitudeDegrees>
            </Position>
            <AltitudeMeters>445.600006103515625</AltitudeMeters>
            <DistanceMeters>9292.7439487938</DistanceMeters>
          </Trackpoint>
          <Trackpoint>
            <Time>2018-08-26T05:57:13.000Z</Time>
            <Position>
              <LatitudeDegrees>42.8229607455432415008544921875</LatitudeDegrees>
              <LongitudeDegrees>-1.69884488917887210845947265625</LongitudeDegrees>
            </Position>
            <AltitudeMeters>445.600006103515625</AltitudeMeters>
            <DistanceMeters>9298.4518832547</DistanceMeters>
          </Trackpoint>
          <Trackpoint>
            <Time>2018-08-26T05:57:14.000Z</Time>
            <Position>
              <LatitudeDegrees>42.8229620866477489471435546875</LatitudeDegrees>
              <LongitudeDegrees>-1.698915548622608184814453125</LongitudeDegrees>
            </Position>
            <AltitudeMeters>445.600006103515625</AltitudeMeters>
            <DistanceMeters>9304.2211866591</DistanceMeters>
          </Trackpoint>
          <Trackpoint>
            <Time>2018-08-26T05:57:15.000Z</Time>
            <Position>
              <LatitudeDegrees>42.82296317629516124725341796875</LatitudeDegrees>
              <LongitudeDegrees>-1.69898788444697856903076171875</LongitudeDegrees>
            </Position>
            <AltitudeMeters>445.600006103515625</AltitudeMeters>
            <DistanceMeters>9310.12662104</DistanceMeters>
          </Trackpoint>
          <Trackpoint>
            <Time>2018-08-26T05:57:16.000Z</Time>
            <Position>
              <LatitudeDegrees>42.8229654394090175628662109375</LatitudeDegrees>
              <LongitudeDegrees>-1.699061058461666107177734375</LongitudeDegrees>
            </Position>
            <AltitudeMeters>445.600006103515625</AltitudeMeters>
            <DistanceMeters>9316.1065125706</DistanceMeters>
          </Trackpoint>
          <Trackpoint>
            <Time>2018-08-26T05:57:17.000Z</Time>
            <Position>
              <LatitudeDegrees>42.82296820543706417083740234375</LatitudeDegrees>
              <LongitudeDegrees>-1.69913490302860736846923828125</LongitudeDegrees>
            </Position>
            <AltitudeMeters>445.600006103515625</AltitudeMeters>
            <DistanceMeters>9322.1420182143</DistanceMeters>
          </Trackpoint>
          <Trackpoint>
            <Time>2018-08-26T05:57:18.000Z</Time>
            <Position>
              <LatitudeDegrees>42.8229694627225399017333984375</LatitudeDegrees>
              <LongitudeDegrees>-1.69920933432877063751220703125</LongitudeDegrees>
            </Position>
            <AltitudeMeters>445.600006103515625</AltitudeMeters>
            <DistanceMeters>9328.2200148194</DistanceMeters>
          </Trackpoint>
          <Trackpoint>
            <Time>2018-08-26T05:57:19.000Z</Time>
            <Position>
              <LatitudeDegrees>42.8229691274464130401611328125</LatitudeDegrees>
              <LongitudeDegrees>-1.69928460381925106048583984375</LongitudeDegrees>
            </Position>
            <AltitudeMeters>445.600006103515625</AltitudeMeters>
            <DistanceMeters>9334.3645041889</DistanceMeters>
          </Trackpoint>
          <Trackpoint>
            <Time>2018-08-26T05:57:20.000Z</Time>
            <Position>
              <LatitudeDegrees>42.8229674510657787322998046875</LatitudeDegrees>
              <LongitudeDegrees>-1.6993618011474609375</LongitudeDegrees>
            </Position>
            <AltitudeMeters>445.600006103515625</AltitudeMeters>
            <DistanceMeters>9340.6692957403</DistanceMeters>
          </Trackpoint>
          <Trackpoint>
            <Time>2018-08-26T05:57:21.000Z</Time>
            <Position>
              <LatitudeDegrees>42.82296502031385898590087890625</LatitudeDegrees>
              <LongitudeDegrees>-1.699439920485019683837890625</LongitudeDegrees>
            </Position>
            <AltitudeMeters>445.600006103515625</AltitudeMeters>
            <DistanceMeters>9347.0523753196</DistanceMeters>
          </Trackpoint>
          <Trackpoint>
            <Time>2018-08-26T05:57:22.000Z</Time>
            <Position>
              <LatitudeDegrees>42.82296116463840007781982421875</LatitudeDegrees>
              <LongitudeDegrees>-1.6995187103748321533203125</LongitudeDegrees>
            </Position>
            <AltitudeMeters>445.600006103515625</AltitudeMeters>
            <DistanceMeters>9353.4988016005</DistanceMeters>
          </Trackpoint>
          <Trackpoint>
            <Time>2018-08-26T05:57:23.000Z</Time>
            <Position>
              <LatitudeDegrees>42.82295647077262401580810546875</LatitudeDegrees>
              <LongitudeDegrees>-1.69959842227399349212646484375</LongitudeDegrees>
            </Position>
            <AltitudeMeters>445.600006103515625</AltitudeMeters>
            <DistanceMeters>9360.0273512721</DistanceMeters>
          </Trackpoint>
          <Trackpoint>
            <Time>2018-08-26T05:57:24.000Z</Time>
            <Position>
              <LatitudeDegrees>42.8229530341923236846923828125</LatitudeDegrees>
              <LongitudeDegrees>-1.6996801458299160003662109375</LongitudeDegrees>
            </Position>
            <AltitudeMeters>445.600006103515625</AltitudeMeters>
            <DistanceMeters>9366.709695772</DistanceMeters>
          </Trackpoint>
          <Trackpoint>
            <Time>2018-08-26T05:57:25.000Z</Time>
            <Position>
              <LatitudeDegrees>42.822950519621372222900390625</LatitudeDegrees>
              <LongitudeDegrees>-1.6997632943093776702880859375</LongitudeDegrees>
            </Position>
            <AltitudeMeters>445.399993896484375</AltitudeMeters>
            <DistanceMeters>9373.5039397168</DistanceMeters>
          </Trackpoint>
          <Trackpoint>
            <Time>2018-08-26T05:57:26.000Z</Time>
            <Position>
              <LatitudeDegrees>42.82294683158397674560546875</LatitudeDegrees>
              <LongitudeDegrees>-1.6998481191694736480712890625</LongitudeDegrees>
            </Position>
            <AltitudeMeters>445.20001220703125</AltitudeMeters>
            <DistanceMeters>9380.4408898659</DistanceMeters>
          </Trackpoint>
          <Trackpoint>
            <Time>2018-08-26T05:57:27.000Z</Time>
            <Position>
              <LatitudeDegrees>42.8229402936995029449462890625</LatitudeDegrees>
              <LongitudeDegrees>-1.699934788048267364501953125</LongitudeDegrees>
            </Position>
            <AltitudeMeters>445</AltitudeMeters>
            <DistanceMeters>9387.5533077556</DistanceMeters>
          </Trackpoint>
          <Trackpoint>
            <Time>2018-08-26T05:57:28.000Z</Time>
            <Position>
              <LatitudeDegrees>42.82293266616761684417724609375</LatitudeDegrees>
              <LongitudeDegrees>-1.70002388767898082733154296875</LongitudeDegrees>
            </Position>
            <AltitudeMeters>444.79998779296875</AltitudeMeters>
            <DistanceMeters>9394.8765327283</DistanceMeters>
          </Trackpoint>
          <Trackpoint>
            <Time>2018-08-26T05:57:29.000Z</Time>
            <Position>
              <LatitudeDegrees>42.8229248709976673126220703125</LatitudeDegrees>
              <LongitudeDegrees>-1.700115501880645751953125</LongitudeDegrees>
            </Position>
            <AltitudeMeters>444.79998779296875</AltitudeMeters>
            <DistanceMeters>9402.4058633702</DistanceMeters>
          </Trackpoint>
          <Trackpoint>
            <Time>2018-08-26T05:57:30.000Z</Time>
            <Position>
              <LatitudeDegrees>42.82291539944708347320556640625</LatitudeDegrees>
              <LongitudeDegrees>-1.70020929537713527679443359375</LongitudeDegrees>
            </Position>
            <AltitudeMeters>444.399993896484375</AltitudeMeters>
            <DistanceMeters>9410.1352220599</DistanceMeters>
          </Trackpoint>
          <Trackpoint>
            <Time>2018-08-26T05:57:31.000Z</Time>
            <Position>
              <LatitudeDegrees>42.82290467061102390289306640625</LatitudeDegrees>
              <LongitudeDegrees>-1.70030518434941768646240234375</LongitudeDegrees>
            </Position>
            <AltitudeMeters>444.399993896484375</AltitudeMeters>
            <DistanceMeters>9418.0538615154</DistanceMeters>
          </Trackpoint>
          <Trackpoint>
            <Time>2018-08-26T05:57:32.000Z</Time>
            <Position>
              <LatitudeDegrees>42.82289327122271060943603515625</LatitudeDegrees>
              <LongitudeDegrees>-1.70040342025458812713623046875</LongitudeDegrees>
            </Position>
            <AltitudeMeters>444.399993896484375</AltitudeMeters>
            <DistanceMeters>9426.1729475503</DistanceMeters>
          </Trackpoint>
          <Trackpoint>
            <Time>2018-08-26T05:57:33.000Z</Time>
            <Position>
              <LatitudeDegrees>42.82288120128214359283447265625</LatitudeDegrees>
              <LongitudeDegrees>-1.7005039192736148834228515625</LongitudeDegrees>
            </Position>
            <AltitudeMeters>444.20001220703125</AltitudeMeters>
            <DistanceMeters>9434.4865631958</DistanceMeters>
          </Trackpoint>
          <Trackpoint>
            <Time>2018-08-26T05:57:34.000Z</Time>
            <Position>
              <LatitudeDegrees>42.82286879606544971466064453125</LatitudeDegrees>
              <LongitudeDegrees>-1.700606681406497955322265625</LongitudeDegrees>
            </Position>
            <AltitudeMeters>444</AltitudeMeters>
            <DistanceMeters>9442.9881355126</DistanceMeters>
          </Trackpoint>
          <Trackpoint>
            <Time>2018-08-26T05:57:35.000Z</Time>
            <Position>
              <LatitudeDegrees>42.8228558041155338287353515625</LatitudeDegrees>
              <LongitudeDegrees>-1.70071103610098361968994140625</LongitudeDegrees>
            </Position>
            <AltitudeMeters>443.79998779296875</AltitudeMeters>
            <DistanceMeters>9451.6287762318</DistanceMeters>
          </Trackpoint>
          <Trackpoint>
            <Time>2018-08-26T05:57:36.000Z</Time>
            <Position>
              <LatitudeDegrees>42.8228423930704593658447265625</LatitudeDegrees>
              <LongitudeDegrees>-1.70081698335707187652587890625</LongitudeDegrees>
            </Position>
            <AltitudeMeters>443.399993896484375</AltitudeMeters>
            <DistanceMeters>9460.4057678658</DistanceMeters>
          </Trackpoint>
          <Trackpoint>
            <Time>2018-08-26T05:57:37.000Z</Time>
            <Position>
              <LatitudeDegrees>42.82282839529216289520263671875</LatitudeDegrees>
              <LongitudeDegrees>-1.70092460699379444122314453125</LongitudeDegrees>
            </Position>
            <AltitudeMeters>443.20001220703125</AltitudeMeters>
            <DistanceMeters>9469.3291760758</DistanceMeters>
          </Trackpoint>
          <Trackpoint>
            <Time>2018-08-26T05:57:38.000Z</Time>
            <Position>
              <LatitudeDegrees>42.82281431369483470916748046875</LatitudeDegrees>
              <LongitudeDegrees>-1.70103373937308788299560546875</LongitudeDegrees>
            </Position>
            <AltitudeMeters>442.600006103515625</AltitudeMeters>
            <DistanceMeters>9478.3756993203</DistanceMeters>
          </Trackpoint>
          <Trackpoint>
            <Time>2018-08-26T05:57:39.000Z</Time>
            <Position>
              <LatitudeDegrees>42.822799980640411376953125</LatitudeDegrees>
              <LongitudeDegrees>-1.7011439613997936248779296875</LongitudeDegrees>
            </Position>
            <AltitudeMeters>442</AltitudeMeters>
            <DistanceMeters>9487.5140879612</DistanceMeters>
          </Trackpoint>
          <Trackpoint>
            <Time>2018-08-26T05:57:40.000Z</Time>
            <Position>
              <LatitudeDegrees>42.8227857314050197601318359375</LatitudeDegrees>
              <LongitudeDegrees>-1.70125552453100681304931640625</LongitudeDegrees>
            </Position>
            <AltitudeMeters>441.79998779296875</AltitudeMeters>
            <DistanceMeters>9496.7585805631</DistanceMeters>
          </Trackpoint>
          <Trackpoint>
            <Time>2018-08-26T05:57:41.000Z</Time>
            <Position>
              <LatitudeDegrees>42.8227716498076915740966796875</LatitudeDegrees>
              <LongitudeDegrees>-1.7013667523860931396484375</LongitudeDegrees>
            </Position>
            <AltitudeMeters>441.399993896484375</AltitudeMeters>
            <DistanceMeters>9505.97274242</DistanceMeters>
          </Trackpoint>
          <Trackpoint>
            <Time>2018-08-26T05:57:42.000Z</Time>
            <Position>
              <LatitudeDegrees>42.82275781966745853424072265625</LatitudeDegrees>
              <LongitudeDegrees>-1.70147630386054515838623046875</LongitudeDegrees>
            </Position>
            <AltitudeMeters>441</AltitudeMeters>
            <DistanceMeters>9515.047669261</DistanceMeters>
          </Trackpoint>
          <Trackpoint>
            <Time>2018-08-26T05:57:43.000Z</Time>
            <Position>
              <LatitudeDegrees>42.82274524681270122528076171875</LatitudeDegrees>
              <LongitudeDegrees>-1.701579652726650238037109375</LongitudeDegrees>
            </Position>
            <AltitudeMeters>440.399993896484375</AltitudeMeters>
            <DistanceMeters>9523.6000735543</DistanceMeters>
          </Trackpoint>
          <Trackpoint>
            <Time>2018-08-26T05:57:44.000Z</Time>
            <Position>
              <LatitudeDegrees>42.82273971475660800933837890625</LatitudeDegrees>
              <LongitudeDegrees>-1.7016747035086154937744140625</LongitudeDegrees>
            </Position>
            <AltitudeMeters>439.600006103515625</AltitudeMeters>
            <DistanceMeters>9531.3847278829</DistanceMeters>
          </Trackpoint>
          <Trackpoint>
            <Time>2018-08-26T05:57:45.000Z</Time>
            <Position>
              <LatitudeDegrees>42.82274859957396984100341796875</LatitudeDegrees>
              <LongitudeDegrees>-1.7017581872642040252685546875</LongitudeDegrees>
            </Position>
            <AltitudeMeters>439</AltitudeMeters>
            <DistanceMeters>9538.2713788457</DistanceMeters>
          </Trackpoint>
          <Trackpoint>
            <Time>2018-08-26T05:57:46.000Z</Time>
            <Position>
              <LatitudeDegrees>42.82276905141770839691162109375</LatitudeDegrees>
              <LongitudeDegrees>-1.7018282599747180938720703125</LongitudeDegrees>
            </Position>
            <AltitudeMeters>438.600006103515625</AltitudeMeters>
            <DistanceMeters>9544.4283473296</DistanceMeters>
          </Trackpoint>
          <Trackpoint>
            <Time>2018-08-26T05:57:47.000Z</Time>
            <Position>
              <LatitudeDegrees>42.822789587080478668212890625</LatitudeDegrees>
              <LongitudeDegrees>-1.70189087279140949249267578125</LongitudeDegrees>
            </Position>
            <AltitudeMeters>438</AltitudeMeters>
            <DistanceMeters>9550.0276709864</DistanceMeters>
          </Trackpoint>
          <Trackpoint>
            <Time>2018-08-26T05:57:48.000Z</Time>
            <Position>
              <LatitudeDegrees>42.8228068538010120391845703125</LatitudeDegrees>
              <LongitudeDegrees>-1.70194887556135654449462890625</LongitudeDegrees>
            </Position>
            <AltitudeMeters>437.79998779296875</AltitudeMeters>
            <DistanceMeters>9555.1379528843</DistanceMeters>
          </Trackpoint>
          <Trackpoint>
            <Time>2018-08-26T05:57:49.000Z</Time>
            <Position>
              <LatitudeDegrees>42.82281867228448390960693359375</LatitudeDegrees>
              <LongitudeDegrees>-1.70200101099908351898193359375</LongitudeDegrees>
            </Position>
            <AltitudeMeters>437.600006103515625</AltitudeMeters>
            <DistanceMeters>9559.5920608699</DistanceMeters>
          </Trackpoint>
          <Trackpoint>
            <Time>2018-08-26T05:57:50.000Z</Time>
            <Position>
              <LatitudeDegrees>42.822825126349925994873046875</LatitudeDegrees>
              <LongitudeDegrees>-1.7020461894571781158447265625</LongitudeDegrees>
            </Position>
            <AltitudeMeters>437.600006103515625</AltitudeMeters>
            <DistanceMeters>9563.3489225231</DistanceMeters>
          </Trackpoint>
          <Trackpoint>
            <Time>2018-08-26T05:57:51.000Z</Time>
            <Position>
              <LatitudeDegrees>42.82282571308314800262451171875</LatitudeDegrees>
              <LongitudeDegrees>-1.702084578573703765869140625</LongitudeDegrees>
            </Position>
            <AltitudeMeters>437.600006103515625</AltitudeMeters>
            <DistanceMeters>9566.4848040974</DistanceMeters>
          </Trackpoint>
          <Trackpoint>
            <Time>2018-08-26T05:57:52.000Z</Time>
            <Position>
              <LatitudeDegrees>42.8228219412267208099365234375</LatitudeDegrees>
              <LongitudeDegrees>-1.70211601071059703826904296875</LongitudeDegrees>
            </Position>
            <AltitudeMeters>437.20001220703125</AltitudeMeters>
            <DistanceMeters>9569.0837456473</DistanceMeters>
          </Trackpoint>
          <Trackpoint>
            <Time>2018-08-26T05:57:53.000Z</Time>
            <Position>
              <LatitudeDegrees>42.82281699590384960174560546875</LatitudeDegrees>
              <LongitudeDegrees>-1.70213495381176471710205078125</LongitudeDegrees>
            </Position>
            <AltitudeMeters>437.20001220703125</AltitudeMeters>
            <DistanceMeters>9570.7241610765</DistanceMeters>
          </Trackpoint>
          <Trackpoint>
            <Time>2018-08-26T05:57:54.000Z</Time>
            <Position>
              <LatitudeDegrees>42.82280710525810718536376953125</LatitudeDegrees>
              <LongitudeDegrees>-1.7021445930004119873046875</LongitudeDegrees>
            </Position>
            <AltitudeMeters>437.20001220703125</AltitudeMeters>
            <DistanceMeters>9572.0747444474</DistanceMeters>
          </Trackpoint>
          <Trackpoint>
            <Time>2018-08-26T05:57:55.000Z</Time>
            <Position>
              <LatitudeDegrees>42.82279671169817447662353515625</LatitudeDegrees>
              <LongitudeDegrees>-1.7021481133997440338134765625</LongitudeDegrees>
            </Position>
            <AltitudeMeters>437.20001220703125</AltitudeMeters>
            <DistanceMeters>9573.2654257656</DistanceMeters>
          </Trackpoint>
          <Trackpoint>
            <Time>2018-08-26T05:57:56.000Z</Time>
            <Position>
              <LatitudeDegrees>42.82279067672789096832275390625</LatitudeDegrees>
              <LongitudeDegrees>-1.70214928686618804931640625</LongitudeDegrees>
            </Position>
            <AltitudeMeters>437.20001220703125</AltitudeMeters>
            <DistanceMeters>9573.9373661069</DistanceMeters>
          </Trackpoint>
          <Trackpoint>
            <Time>2018-08-26T06:06:38.000Z</Time>
            <Position>
              <LatitudeDegrees>42.822769470512866973876953125</LatitudeDegrees>
              <LongitudeDegrees>-1.7021132446825504302978515625</LongitudeDegrees>
            </Position>
            <AltitudeMeters>437.600006103515625</AltitudeMeters>
            <DistanceMeters>9577.7098189529</DistanceMeters>
          </Trackpoint>
          <Trackpoint>
            <Time>2018-08-26T06:06:39.000Z</Time>
            <Position>
              <LatitudeDegrees>42.8227595798671245574951171875</LatitudeDegrees>
              <LongitudeDegrees>-1.7021139152348041534423828125</LongitudeDegrees>
            </Position>
            <AltitudeMeters>437.600006103515625</AltitudeMeters>
            <DistanceMeters>9578.8180113534</DistanceMeters>
          </Trackpoint>
          <Trackpoint>
            <Time>2018-08-26T06:06:40.000Z</Time>
            <Position>
              <LatitudeDegrees>42.8227515332400798797607421875</LatitudeDegrees>
              <LongitudeDegrees>-1.70211232267320156097412109375</LongitudeDegrees>
            </Position>
            <AltitudeMeters>437.600006103515625</AltitudeMeters>
            <DistanceMeters>9579.7195139213</DistanceMeters>
          </Trackpoint>
          <Trackpoint>
            <Time>2018-08-26T06:06:41.000Z</Time>
            <Position>
              <LatitudeDegrees>42.8227421455085277557373046875</LatitudeDegrees>
              <LongitudeDegrees>-1.7021150887012481689453125</LongitudeDegrees>
            </Position>
            <AltitudeMeters>437.600006103515625</AltitudeMeters>
            <DistanceMeters>9580.7861861446</DistanceMeters>
          </Trackpoint>
          <Trackpoint>
            <Time>2018-08-26T06:06:42.000Z</Time>
            <Position>
              <LatitudeDegrees>42.82273367978632450103759765625</LatitudeDegrees>
              <LongitudeDegrees>-1.70212791301310062408447265625</LongitudeDegrees>
            </Position>
            <AltitudeMeters>437.600006103515625</AltitudeMeters>
            <DistanceMeters>9582.1956600953</DistanceMeters>
          </Trackpoint>
          <Trackpoint>
            <Time>2018-08-26T06:06:43.000Z</Time>
            <Position>
              <LatitudeDegrees>42.82272948883473873138427734375</LatitudeDegrees>
              <LongitudeDegrees>-1.7021454311907291412353515625</LongitudeDegrees>
            </Position>
            <AltitudeMeters>437.600006103515625</AltitudeMeters>
            <DistanceMeters>9583.6981643751</DistanceMeters>
          </Trackpoint>
          <Trackpoint>
            <Time>2018-08-26T06:06:44.000Z</Time>
            <Position>
              <LatitudeDegrees>42.82272798009216785430908203125</LatitudeDegrees>
              <LongitudeDegrees>-1.702164374291896820068359375</LongitudeDegrees>
            </Position>
            <AltitudeMeters>437.600006103515625</AltitudeMeters>
            <DistanceMeters>9585.2567183727</DistanceMeters>
          </Trackpoint>
          <Trackpoint>
            <Time>2018-08-26T06:06:45.000Z</Time>
            <Position>
              <LatitudeDegrees>42.822725884616374969482421875</LatitudeDegrees>
              <LongitudeDegrees>-1.70218507759273052215576171875</LongitudeDegrees>
            </Position>
            <AltitudeMeters>437.600006103515625</AltitudeMeters>
            <DistanceMeters>9586.9619117972</DistanceMeters>
          </Trackpoint>
          <Trackpoint>
            <Time>2018-08-26T06:06:46.000Z</Time>
            <Position>
              <LatitudeDegrees>42.82272462733089923858642578125</LatitudeDegrees>
              <LongitudeDegrees>-1.70220972038805484771728515625</LongitudeDegrees>
            </Position>
            <AltitudeMeters>437.600006103515625</AltitudeMeters>
            <DistanceMeters>9588.977732821</DistanceMeters>
          </Trackpoint>
          <Trackpoint>
            <Time>2018-08-26T06:06:47.000Z</Time>
            <Position>
              <LatitudeDegrees>42.82271976582705974578857421875</LatitudeDegrees>
              <LongitudeDegrees>-1.70224073342978954315185546875</LongitudeDegrees>
            </Position>
            <AltitudeMeters>437.600006103515625</AltitudeMeters>
            <DistanceMeters>9591.5679735043</DistanceMeters>
          </Trackpoint>
          <Trackpoint>
            <Time>2018-08-26T06:06:48.000Z</Time>
            <Position>
              <LatitudeDegrees>42.822711467742919921875</LatitudeDegrees>
              <LongitudeDegrees>-1.70227878727018833160400390625</LongitudeDegrees>
            </Position>
            <AltitudeMeters>437.600006103515625</AltitudeMeters>
            <DistanceMeters>9594.8100421311</DistanceMeters>
          </Trackpoint>
          <Trackpoint>
            <Time>2018-08-26T06:06:49.000Z</Time>
            <Position>
              <LatitudeDegrees>42.82270275056362152099609375</LatitudeDegrees>
              <LongitudeDegrees>-1.70232295989990234375</LongitudeDegrees>
            </Position>
            <AltitudeMeters>437.600006103515625</AltitudeMeters>
            <DistanceMeters>9598.5439995532</DistanceMeters>
          </Trackpoint>
          <Trackpoint>
            <Time>2018-08-26T06:06:50.000Z</Time>
            <Position>
              <LatitudeDegrees>42.82269462011754512786865234375</LatitudeDegrees>
              <LongitudeDegrees>-1.7023752629756927490234375</LongitudeDegrees>
            </Position>
            <AltitudeMeters>437.600006103515625</AltitudeMeters>
            <DistanceMeters>9602.9090266203</DistanceMeters>
          </Trackpoint>
          <Trackpoint>
            <Time>2018-08-26T06:06:51.000Z</Time>
            <Position>
              <LatitudeDegrees>42.82268741168081760406494140625</LatitudeDegrees>
              <LongitudeDegrees>-1.70243334956467151641845703125</LongitudeDegrees>
            </Position>
            <AltitudeMeters>437.399993896484375</AltitudeMeters>
            <DistanceMeters>9607.7189180795</DistanceMeters>
          </Trackpoint>
          <Trackpoint>
            <Time>2018-08-26T06:06:52.000Z</Time>
            <Position>
              <LatitudeDegrees>42.82267970032989978790283203125</LatitudeDegrees>
              <LongitudeDegrees>-1.7024917714297771453857421875</LongitudeDegrees>
            </Position>
            <AltitudeMeters>437.399993896484375</AltitudeMeters>
            <DistanceMeters>9612.5662120573</DistanceMeters>
          </Trackpoint>
          <Trackpoint>
            <Time>2018-08-26T06:06:53.000Z</Time>
            <Position>
              <LatitudeDegrees>42.822670899331569671630859375</LatitudeDegrees>
              <LongitudeDegrees>-1.70255119912326335906982421875</LongitudeDegrees>
            </Position>
            <AltitudeMeters>437.399993896484375</AltitudeMeters>
            <DistanceMeters>9617.5149055531</DistanceMeters>
          </Trackpoint>
          <Trackpoint>
            <Time>2018-08-26T06:06:54.000Z</Time>
            <Position>
              <LatitudeDegrees>42.82266377471387386322021484375</LatitudeDegrees>
              <LongitudeDegrees>-1.70261188410222530364990234375</LongitudeDegrees>
            </Position>
            <AltitudeMeters>437.399993896484375</AltitudeMeters>
            <DistanceMeters>9622.5324600497</DistanceMeters>
          </Trackpoint>
          <Trackpoint>
            <Time>2018-08-26T06:06:55.000Z</Time>
            <Position>
              <LatitudeDegrees>42.82265723682940006256103515625</LatitudeDegrees>
              <LongitudeDegrees>-1.702673994004726409912109375</LongitudeDegrees>
            </Position>
            <AltitudeMeters>437.399993896484375</AltitudeMeters>
            <DistanceMeters>9627.6550962993</DistanceMeters>
          </Trackpoint>
          <Trackpoint>
            <Time>2018-08-26T06:06:56.000Z</Time>
            <Position>
              <LatitudeDegrees>42.82265086658298969268798828125</LatitudeDegrees>
              <LongitudeDegrees>-1.7027388699352741241455078125</LongitudeDegrees>
            </Position>
            <AltitudeMeters>437.20001220703125</AltitudeMeters>
            <DistanceMeters>9632.9977615181</DistanceMeters>
          </Trackpoint>
          <Trackpoint>
            <Time>2018-08-26T06:06:57.000Z</Time>
            <Position>
              <LatitudeDegrees>42.8226445801556110382080078125</LatitudeDegrees>
              <LongitudeDegrees>-1.702805422246456146240234375</LongitudeDegrees>
            </Position>
            <AltitudeMeters>437</AltitudeMeters>
            <DistanceMeters>9638.4756209561</DistanceMeters>
          </Trackpoint>
          <Trackpoint>
            <Time>2018-08-26T06:06:58.000Z</Time>
            <Position>
              <LatitudeDegrees>42.8226365335285663604736328125</LatitudeDegrees>
              <LongitudeDegrees>-1.7028739862143993377685546875</LongitudeDegrees>
            </Position>
            <AltitudeMeters>436.79998779296875</AltitudeMeters>
            <DistanceMeters>9644.1438668918</DistanceMeters>
          </Trackpoint>
          <Trackpoint>
            <Time>2018-08-26T06:06:59.000Z</Time>
            <Position>
              <LatitudeDegrees>42.8226278163492679595947265625</LatitudeDegrees>
              <LongitudeDegrees>-1.70294397510588169097900390625</LongitudeDegrees>
            </Position>
            <AltitudeMeters>436.600006103515625</AltitudeMeters>
            <DistanceMeters>9649.9397175086</DistanceMeters>
          </Trackpoint>
          <Trackpoint>
            <Time>2018-08-26T06:07:00.000Z</Time>
            <Position>
              <LatitudeDegrees>42.82261918298900127410888671875</LatitudeDegrees>
              <LongitudeDegrees>-1.7030158080160617828369140625</LongitudeDegrees>
            </Position>
            <AltitudeMeters>436.600006103515625</AltitudeMeters>
            <DistanceMeters>9655.8817372742</DistanceMeters>
          </Trackpoint>
          <Trackpoint>
            <Time>2018-08-26T06:07:01.000Z</Time>
            <Position>
              <LatitudeDegrees>42.82261046580970287322998046875</LatitudeDegrees>
              <LongitudeDegrees>-1.70309132896363735198974609375</LongitudeDegrees>
            </Position>
            <AltitudeMeters>436.399993896484375</AltitudeMeters>
            <DistanceMeters>9662.123191414</DistanceMeters>
          </Trackpoint>
          <Trackpoint>
            <Time>2018-08-26T06:07:02.000Z</Time>
            <Position>
              <LatitudeDegrees>42.8226023353636264801025390625</LatitudeDegrees>
              <LongitudeDegrees>-1.70317095704376697540283203125</LongitudeDegrees>
            </Position>
            <AltitudeMeters>436.399993896484375</AltitudeMeters>
            <DistanceMeters>9668.6862291739</DistanceMeters>
          </Trackpoint>
          <Trackpoint>
            <Time>2018-08-26T06:07:03.000Z</Time>
            <Position>
              <LatitudeDegrees>42.822593115270137786865234375</LatitudeDegrees>
              <LongitudeDegrees>-1.70325427316129207611083984375</LongitudeDegrees>
            </Position>
            <AltitudeMeters>436.399993896484375</AltitudeMeters>
            <DistanceMeters>9675.5650081765</DistanceMeters>
          </Trackpoint>
          <Trackpoint>
            <Time>2018-08-26T06:07:04.000Z</Time>
            <Position>
              <LatitudeDegrees>42.822583056986331939697265625</LatitudeDegrees>
              <LongitudeDegrees>-1.70334043912589550018310546875</LongitudeDegrees>
            </Position>
            <AltitudeMeters>436.20001220703125</AltitudeMeters>
            <DistanceMeters>9682.6875757937</DistanceMeters>
          </Trackpoint>
          <Trackpoint>
            <Time>2018-08-26T06:07:05.000Z</Time>
            <Position>
              <LatitudeDegrees>42.82257400453090667724609375</LatitudeDegrees>
              <LongitudeDegrees>-1.70342777855694293975830078125</LongitudeDegrees>
            </Position>
            <AltitudeMeters>436.20001220703125</AltitudeMeters>
            <DistanceMeters>9689.8883187374</DistanceMeters>
          </Trackpoint>
          <Trackpoint>
            <Time>2018-08-26T06:07:06.000Z</Time>
            <Position>
              <LatitudeDegrees>42.82256386242806911468505859375</LatitudeDegrees>
              <LongitudeDegrees>-1.7035163752734661102294921875</LongitudeDegrees>
            </Position>
            <AltitudeMeters>436.20001220703125</AltitudeMeters>
            <DistanceMeters>9697.2090771473</DistanceMeters>
          </Trackpoint>
          <Trackpoint>
            <Time>2018-08-26T06:07:07.000Z</Time>
            <Position>
              <LatitudeDegrees>42.82255246303975582122802734375</LatitudeDegrees>
              <LongitudeDegrees>-1.703606061637401580810546875</LongitudeDegrees>
            </Position>
            <AltitudeMeters>436</AltitudeMeters>
            <DistanceMeters>9704.6394127641</DistanceMeters>
          </Trackpoint>
          <Trackpoint>
            <Time>2018-08-26T06:07:08.000Z</Time>
            <Position>
              <LatitudeDegrees>42.82254139892756938934326171875</LatitudeDegrees>
              <LongitudeDegrees>-1.70369826257228851318359375</LongitudeDegrees>
            </Position>
            <AltitudeMeters>436</AltitudeMeters>
            <DistanceMeters>9712.2664536353</DistanceMeters>
          </Trackpoint>
          <Trackpoint>
            <Time>2018-08-26T06:07:09.000Z</Time>
            <Position>
              <LatitudeDegrees>42.8225309215486049652099609375</LatitudeDegrees>
              <LongitudeDegrees>-1.7037926428020000457763671875</LongitudeDegrees>
            </Position>
            <AltitudeMeters>436</AltitudeMeters>
            <DistanceMeters>9720.0598029899</DistanceMeters>
          </Trackpoint>
          <Trackpoint>
            <Time>2018-08-26T06:07:10.000Z</Time>
            <Position>
              <LatitudeDegrees>42.82252036035060882568359375</LatitudeDegrees>
              <LongitudeDegrees>-1.7038880288600921630859375</LongitudeDegrees>
            </Position>
            <AltitudeMeters>435.79998779296875</AltitudeMeters>
            <DistanceMeters>9727.9349896554</DistanceMeters>
          </Trackpoint>
          <Trackpoint>
            <Time>2018-08-26T06:07:11.000Z</Time>
            <Position>
              <LatitudeDegrees>42.82250963151454925537109375</LatitudeDegrees>
              <LongitudeDegrees>-1.70398450456559658050537109375</LongitudeDegrees>
            </Position>
            <AltitudeMeters>435.399993896484375</AltitudeMeters>
            <DistanceMeters>9735.9002465311</DistanceMeters>
          </Trackpoint>
          <Trackpoint>
            <Time>2018-08-26T06:07:12.000Z</Time>
            <Position>
              <LatitudeDegrees>42.8224977292120456695556640625</LatitudeDegrees>
              <LongitudeDegrees>-1.704083494842052459716796875</LongitudeDegrees>
            </Position>
            <AltitudeMeters>435</AltitudeMeters>
            <DistanceMeters>9744.0891016203</DistanceMeters>
          </Trackpoint>
          <Trackpoint>
            <Time>2018-08-26T06:07:13.000Z</Time>
            <Position>
              <LatitudeDegrees>42.82248406670987606048583984375</LatitudeDegrees>
              <LongitudeDegrees>-1.704183407127857208251953125</LongitudeDegrees>
            </Position>
            <AltitudeMeters>434.79998779296875</AltitudeMeters>
            <DistanceMeters>9752.3864085816</DistanceMeters>
          </Trackpoint>
          <Trackpoint>
            <Time>2018-08-26T06:07:14.000Z</Time>
            <Position>
              <LatitudeDegrees>42.82246948219835758209228515625</LatitudeDegrees>
              <LongitudeDegrees>-1.70428491197526454925537109375</LongitudeDegrees>
            </Position>
            <AltitudeMeters>434.79998779296875</AltitudeMeters>
            <DistanceMeters>9760.8304291643</DistanceMeters>
          </Trackpoint>
          <Trackpoint>
            <Time>2018-08-26T06:07:15.000Z</Time>
            <Position>
              <LatitudeDegrees>42.82245464622974395751953125</LatitudeDegrees>
              <LongitudeDegrees>-1.704388596117496490478515625</LongitudeDegrees>
            </Position>
            <AltitudeMeters>434.600006103515625</AltitudeMeters>
            <DistanceMeters>9769.4543325492</DistanceMeters>
          </Trackpoint>
          <Trackpoint>
            <Time>2018-08-26T06:07:16.000Z</Time>
            <Position>
              <LatitudeDegrees>42.82243930734694004058837890625</LatitudeDegrees>
              <LongitudeDegrees>-1.7044940404593944549560546875</LongitudeDegrees>
            </Position>
            <AltitudeMeters>434.600006103515625</AltitudeMeters>
            <DistanceMeters>9778.229780795</DistanceMeters>
          </Trackpoint>
          <Trackpoint>
            <Time>2018-08-26T06:07:17.000Z</Time>
            <Position>
              <LatitudeDegrees>42.82242254354059696197509765625</LatitudeDegrees>
              <LongitudeDegrees>-1.70460074208676815032958984375</LongitudeDegrees>
            </Position>
            <AltitudeMeters>434.20001220703125</AltitudeMeters>
            <DistanceMeters>9787.1379967662</DistanceMeters>
          </Trackpoint>
          <Trackpoint>
            <Time>2018-08-26T06:07:18.000Z</Time>
            <Position>
              <LatitudeDegrees>42.82240309752523899078369140625</LatitudeDegrees>
              <LongitudeDegrees>-1.70470853336155414581298828125</LongitudeDegrees>
            </Position>
            <AltitudeMeters>434</AltitudeMeters>
            <DistanceMeters>9796.1999786234</DistanceMeters>
          </Trackpoint>
          <Trackpoint>
            <Time>2018-08-26T06:07:19.000Z</Time>
            <Position>
              <LatitudeDegrees>42.82238063402473926544189453125</LatitudeDegrees>
              <LongitudeDegrees>-1.70481808483600616455078125</LongitudeDegrees>
            </Position>
            <AltitudeMeters>433.79998779296875</AltitudeMeters>
            <DistanceMeters>9805.4858926852</DistanceMeters>
          </Trackpoint>
          <Trackpoint>
            <Time>2018-08-26T06:07:20.000Z</Time>
            <Position>
              <LatitudeDegrees>42.82235699705779552459716796875</LatitudeDegrees>
              <LongitudeDegrees>-1.7049298994243144989013671875</LongitudeDegrees>
            </Position>
            <AltitudeMeters>433.600006103515625</AltitudeMeters>
            <DistanceMeters>9814.985237605</DistanceMeters>
          </Trackpoint>
          <Trackpoint>
            <Time>2018-08-26T06:07:21.000Z</Time>
            <Position>
              <LatitudeDegrees>42.82233134843409061431884765625</LatitudeDegrees>
              <LongitudeDegrees>-1.705041714012622833251953125</LongitudeDegrees>
            </Position>
            <AltitudeMeters>432.79998779296875</AltitudeMeters>
            <DistanceMeters>9824.5485327601</DistanceMeters>
          </Trackpoint>
          <Trackpoint>
            <Time>2018-08-26T06:07:22.000Z</Time>
            <Position>
              <LatitudeDegrees>42.82230502925813198089599609375</LatitudeDegrees>
              <LongitudeDegrees>-1.705154366791248321533203125</LongitudeDegrees>
            </Position>
            <AltitudeMeters>432.600006103515625</AltitudeMeters>
            <DistanceMeters>9834.200178661</DistanceMeters>
          </Trackpoint>
          <Trackpoint>
            <Time>2018-08-26T06:07:23.000Z</Time>
            <Position>
              <LatitudeDegrees>42.82227753661572933197021484375</LatitudeDegrees>
              <LongitudeDegrees>-1.70526802539825439453125</LongitudeDegrees>
            </Position>
            <AltitudeMeters>432.399993896484375</AltitudeMeters>
            <DistanceMeters>9843.9708474286</DistanceMeters>
          </Trackpoint>
          <Trackpoint>
            <Time>2018-08-26T06:07:24.000Z</Time>
            <Position>
              <LatitudeDegrees>42.8222461044788360595703125</LatitudeDegrees>
              <LongitudeDegrees>-1.7053808458149433135986328125</LongitudeDegrees>
            </Position>
            <AltitudeMeters>432.20001220703125</AltitudeMeters>
            <DistanceMeters>9853.8234268762</DistanceMeters>
          </Trackpoint>
          <Trackpoint>
            <Time>2018-08-26T06:07:25.000Z</Time>
            <Position>
              <LatitudeDegrees>42.8222114033997058868408203125</LatitudeDegrees>
              <LongitudeDegrees>-1.70549240894615650177001953125</LongitudeDegrees>
            </Position>
            <AltitudeMeters>432</AltitudeMeters>
            <DistanceMeters>9863.7162509674</DistanceMeters>
          </Trackpoint>
          <Trackpoint>
            <Time>2018-08-26T06:07:26.000Z</Time>
            <Position>
              <LatitudeDegrees>42.8221745230257511138916015625</LatitudeDegrees>
              <LongitudeDegrees>-1.70560355298221111297607421875</LongitudeDegrees>
            </Position>
            <AltitudeMeters>431.79998779296875</AltitudeMeters>
            <DistanceMeters>9873.6750324985</DistanceMeters>
          </Trackpoint>
          <Trackpoint>
            <Time>2018-08-26T06:07:27.000Z</Time>
            <Position>
              <LatitudeDegrees>42.822135798633098602294921875</LatitudeDegrees>
              <LongitudeDegrees>-1.70571553520858287811279296875</LongitudeDegrees>
            </Position>
            <AltitudeMeters>431.399993896484375</AltitudeMeters>
            <DistanceMeters>9883.7818729907</DistanceMeters>
          </Trackpoint>
          <Trackpoint>
            <Time>2018-08-26T06:07:28.000Z</Time>
            <Position>
              <LatitudeDegrees>42.8220959007740020751953125</LatitudeDegrees>
              <LongitudeDegrees>-1.7058254219591617584228515625</LongitudeDegrees>
            </Position>
            <AltitudeMeters>431.20001220703125</AltitudeMeters>
            <DistanceMeters>9893.7917545196</DistanceMeters>
          </Trackpoint>
          <Trackpoint>
            <Time>2018-08-26T06:07:29.000Z</Time>
            <Position>
              <LatitudeDegrees>42.82205407507717609405517578125</LatitudeDegrees>
              <LongitudeDegrees>-1.70593329705297946929931640625</LongitudeDegrees>
            </Position>
            <AltitudeMeters>430.79998779296875</AltitudeMeters>
            <DistanceMeters>9903.7528026555</DistanceMeters>
          </Trackpoint>
          <Trackpoint>
            <Time>2018-08-26T06:07:30.000Z</Time>
            <Position>
              <LatitudeDegrees>42.8220092318952083587646484375</LatitudeDegrees>
              <LongitudeDegrees>-1.70603941194713115692138671875</LongitudeDegrees>
            </Position>
            <AltitudeMeters>430.399993896484375</AltitudeMeters>
            <DistanceMeters>9913.7509497956</DistanceMeters>
          </Trackpoint>
          <Trackpoint>
            <Time>2018-08-26T06:07:31.000Z</Time>
            <Position>
              <LatitudeDegrees>42.8219612874090671539306640625</LatitudeDegrees>
              <LongitudeDegrees>-1.70614502392709255218505859375</LongitudeDegrees>
            </Position>
            <AltitudeMeters>429.600006103515625</AltitudeMeters>
            <DistanceMeters>9923.8903492016</DistanceMeters>
          </Trackpoint>
          <Trackpoint>
            <Time>2018-08-26T06:07:32.000Z</Time>
            <Position>
              <LatitudeDegrees>42.8219130076467990875244140625</LatitudeDegrees>
              <LongitudeDegrees>-1.706252060830593109130859375</LongitudeDegrees>
            </Position>
            <AltitudeMeters>429</AltitudeMeters>
            <DistanceMeters>9934.1483938886</DistanceMeters>
          </Trackpoint>
          <Trackpoint>
            <Time>2018-08-26T06:07:33.000Z</Time>
            <Position>
              <LatitudeDegrees>42.82186430878937244415283203125</LatitudeDegrees>
              <LongitudeDegrees>-1.7063575051724910736083984375</LongitudeDegrees>
            </Position>
            <AltitudeMeters>428.20001220703125</AltitudeMeters>
            <DistanceMeters>9944.3211357043</DistanceMeters>
          </Trackpoint>
          <Trackpoint>
            <Time>2018-08-26T06:07:34.000Z</Time>
            <Position>
              <LatitudeDegrees>42.82181586138904094696044921875</LatitudeDegrees>
              <LongitudeDegrees>-1.70646219514310359954833984375</LongitudeDegrees>
            </Position>
            <AltitudeMeters>427.79998779296875</AltitudeMeters>
            <DistanceMeters>9954.4266359148</DistanceMeters>
          </Trackpoint>
          <Trackpoint>
            <Time>2018-08-26T06:07:35.000Z</Time>
            <Position>
              <LatitudeDegrees>42.82176758162677288055419921875</LatitudeDegrees>
              <LongitudeDegrees>-1.7065687291324138641357421875</LongitudeDegrees>
            </Position>
            <AltitudeMeters>427.20001220703125</AltitudeMeters>
            <DistanceMeters>9964.6498499281</DistanceMeters>
          </Trackpoint>
          <Trackpoint>
            <Time>2018-08-26T06:07:36.000Z</Time>
            <Position>
              <LatitudeDegrees>42.8217198885977268218994140625</LatitudeDegrees>
              <LongitudeDegrees>-1.706677861511707305908203125</LongitudeDegrees>
            </Position>
            <AltitudeMeters>426.79998779296875</AltitudeMeters>
            <DistanceMeters>9975.0203952584</DistanceMeters>
          </Trackpoint>
          <Trackpoint>
            <Time>2018-08-26T06:07:37.000Z</Time>
            <Position>
              <LatitudeDegrees>42.82167085446417331695556640625</LatitudeDegrees>
              <LongitudeDegrees>-1.706787161529064178466796875</LongitudeDegrees>
            </Position>
            <AltitudeMeters>425.79998779296875</AltitudeMeters>
            <DistanceMeters>9985.4798109265</DistanceMeters>
          </Trackpoint>
          <Trackpoint>
            <Time>2018-08-26T06:07:38.000Z</Time>
            <Position>
              <LatitudeDegrees>42.82162182033061981201171875</LatitudeDegrees>
              <LongitudeDegrees>-1.70689570717513561248779296875</LongitudeDegrees>
            </Position>
            <AltitudeMeters>425.20001220703125</AltitudeMeters>
            <DistanceMeters>9995.8877308446</DistanceMeters>
          </Trackpoint>
          <Trackpoint>
            <Time>2018-08-26T06:07:39.000Z</Time>
            <Position>
              <LatitudeDegrees>42.82157127745449542999267578125</LatitudeDegrees>
              <LongitudeDegrees>-1.70700609683990478515625</LongitudeDegrees>
            </Position>
            <AltitudeMeters>423.79998779296875</AltitudeMeters>
            <DistanceMeters>10006.511190516</DistanceMeters>
          </Trackpoint>
          <Trackpoint>
            <Time>2018-08-26T06:07:40.000Z</Time>
            <Position>
              <LatitudeDegrees>42.82152081839740276336669921875</LatitudeDegrees>
              <LongitudeDegrees>-1.707116402685642242431640625</LongitudeDegrees>
            </Position>
            <AltitudeMeters>423.20001220703125</AltitudeMeters>
            <DistanceMeters>10017.123594269</DistanceMeters>
          </Trackpoint>
          <Trackpoint>
            <Time>2018-08-26T06:07:41.000Z</Time>
            <Position>
              <LatitudeDegrees>42.82147002406418323516845703125</LatitudeDegrees>
              <LongitudeDegrees>-1.70722679235041141510009765625</LongitudeDegrees>
            </Position>
            <AltitudeMeters>422.600006103515625</AltitudeMeters>
            <DistanceMeters>10027.762343169</DistanceMeters>
          </Trackpoint>
          <Trackpoint>
            <Time>2018-08-26T06:07:42.000Z</Time>
            <Position>
              <LatitudeDegrees>42.82141788862645626068115234375</LatitudeDegrees>
              <LongitudeDegrees>-1.70733726583421230316162109375</LongitudeDegrees>
            </Position>
            <AltitudeMeters>422</AltitudeMeters>
            <DistanceMeters>10038.486898342</DistanceMeters>
          </Trackpoint>
          <Trackpoint>
            <Time>2018-08-26T06:07:43.000Z</Time>
            <Position>
              <LatitudeDegrees>42.82136541791260242462158203125</LatitudeDegrees>
              <LongitudeDegrees>-1.7074484936892986297607421875</LongitudeDegrees>
            </Position>
            <AltitudeMeters>421.600006103515625</AltitudeMeters>
            <DistanceMeters>10049.283204504</DistanceMeters>
          </Trackpoint>
          <Trackpoint>
            <Time>2018-08-26T06:07:44.000Z</Time>
            <Position>
              <LatitudeDegrees>42.8213138692080974578857421875</LatitudeDegrees>
              <LongitudeDegrees>-1.70756123028695583343505859375</LongitudeDegrees>
            </Position>
            <AltitudeMeters>421.20001220703125</AltitudeMeters>
            <DistanceMeters>10060.128329938</DistanceMeters>
          </Trackpoint>
          <Trackpoint>
            <Time>2018-08-26T06:07:45.000Z</Time>
            <Position>
              <LatitudeDegrees>42.82126240432262420654296875</LatitudeDegrees>
              <LongitudeDegrees>-1.70767505653202533721923828125</LongitudeDegrees>
            </Position>
            <AltitudeMeters>420.600006103515625</AltitudeMeters>
            <DistanceMeters>10071.044413886</DistanceMeters>
          </Trackpoint>
          <Trackpoint>
            <Time>2018-08-26T06:07:46.000Z</Time>
            <Position>
              <LatitudeDegrees>42.8212092630565166473388671875</LatitudeDegrees>
              <LongitudeDegrees>-1.70778997242450714111328125</LongitudeDegrees>
            </Position>
            <AltitudeMeters>420.20001220703125</AltitudeMeters>
            <DistanceMeters>10082.134890487</DistanceMeters>
          </Trackpoint>
          <Trackpoint>
            <Time>2018-08-26T06:07:47.000Z</Time>
            <Position>
              <LatitudeDegrees>42.8211572952568531036376953125</LatitudeDegrees>
              <LongitudeDegrees>-1.70790656469762325286865234375</LongitudeDegrees>
            </Position>
            <AltitudeMeters>419.600006103515625</AltitudeMeters>
            <DistanceMeters>10093.272897049</DistanceMeters>
          </Trackpoint>
          <Trackpoint>
            <Time>2018-08-26T06:07:48.000Z</Time>
            <Position>
              <LatitudeDegrees>42.821112535893917083740234375</LatitudeDegrees>
              <LongitudeDegrees>-1.7080281861126422882080078125</LongitudeDegrees>
            </Position>
            <AltitudeMeters>419</AltitudeMeters>
            <DistanceMeters>10104.381678471</DistanceMeters>
          </Trackpoint>
          <Trackpoint>
            <Time>2018-08-26T06:07:49.000Z</Time>
            <Position>
              <LatitudeDegrees>42.82108546234667301177978515625</LatitudeDegrees>
              <LongitudeDegrees>-1.708159111440181732177734375</LongitudeDegrees>
            </Position>
            <AltitudeMeters>418.600006103515625</AltitudeMeters>
            <DistanceMeters>10115.486394763</DistanceMeters>
          </Trackpoint>
          <Trackpoint>
            <Time>2018-08-26T06:07:50.000Z</Time>
            <Position>
              <LatitudeDegrees>42.8210825286805629730224609375</LatitudeDegrees>
              <LongitudeDegrees>-1.70829464681446552276611328125</LongitudeDegrees>
            </Position>
            <AltitudeMeters>418.20001220703125</AltitudeMeters>
            <DistanceMeters>10126.556089309</DistanceMeters>
          </Trackpoint>
          <Trackpoint>
            <Time>2018-08-26T06:07:51.000Z</Time>
            <Position>
              <LatitudeDegrees>42.821095772087574005126953125</LatitudeDegrees>
              <LongitudeDegrees>-1.70842842198908329010009765625</LongitudeDegrees>
            </Position>
            <AltitudeMeters>418</AltitudeMeters>
            <DistanceMeters>10137.575910906</DistanceMeters>
          </Trackpoint>
          <Trackpoint>
            <Time>2018-08-26T06:07:52.000Z</Time>
            <Position>
              <LatitudeDegrees>42.82110281288623809814453125</LatitudeDegrees>
              <LongitudeDegrees>-1.70856135897338390350341796875</LongitudeDegrees>
            </Position>
            <AltitudeMeters>417.79998779296875</AltitudeMeters>
            <DistanceMeters>10148.45636596</DistanceMeters>
          </Trackpoint>
          <Trackpoint>
            <Time>2018-08-26T06:07:53.000Z</Time>
            <Position>
              <LatitudeDegrees>42.82108596526086330413818359375</LatitudeDegrees>
              <LongitudeDegrees>-1.7086918652057647705078125</LongitudeDegrees>
            </Position>
            <AltitudeMeters>417.600006103515625</AltitudeMeters>
            <DistanceMeters>10159.274396775</DistanceMeters>
          </Trackpoint>
          <Trackpoint>
            <Time>2018-08-26T06:07:54.000Z</Time>
            <Position>
              <LatitudeDegrees>42.82104137353599071502685546875</LatitudeDegrees>
              <LongitudeDegrees>-1.70880787074565887451171875</LongitudeDegrees>
            </Position>
            <AltitudeMeters>417.399993896484375</AltitudeMeters>
            <DistanceMeters>10169.966063516</DistanceMeters>
          </Trackpoint>
          <Trackpoint>
            <Time>2018-08-26T06:07:55.000Z</Time>
            <Position>
              <LatitudeDegrees>42.8209718875586986541748046875</LatitudeDegrees>
              <LongitudeDegrees>-1.708896048367023468017578125</LongitudeDegrees>
            </Position>
            <AltitudeMeters>417</AltitudeMeters>
            <DistanceMeters>10180.531564214</DistanceMeters>
          </Trackpoint>
          <Trackpoint>
            <Time>2018-08-26T06:07:56.000Z</Time>
            <Position>
              <LatitudeDegrees>42.82088714651763439178466796875</LatitudeDegrees>
              <LongitudeDegrees>-1.70895128510892391204833984375</LongitudeDegrees>
            </Position>
            <AltitudeMeters>416.600006103515625</AltitudeMeters>
            <DistanceMeters>10190.98623041</DistanceMeters>
          </Trackpoint>
          <Trackpoint>
            <Time>2018-08-26T06:07:57.000Z</Time>
            <Position>
              <LatitudeDegrees>42.82079863362014293670654296875</LatitudeDegrees>
              <LongitudeDegrees>-1.708989255130290985107421875</LongitudeDegrees>
            </Position>
            <AltitudeMeters>416</AltitudeMeters>
            <DistanceMeters>10201.314021217</DistanceMeters>
          </Trackpoint>
          <Trackpoint>
            <Time>2018-08-26T06:07:58.000Z</Time>
            <Position>
              <LatitudeDegrees>42.82071196474134922027587890625</LatitudeDegrees>
              <LongitudeDegrees>-1.7090326733887195587158203125</LongitudeDegrees>
            </Position>
            <AltitudeMeters>415.399993896484375</AltitudeMeters>
            <DistanceMeters>10211.590974759</DistanceMeters>
          </Trackpoint>
          <Trackpoint>
            <Time>2018-08-26T06:07:59.000Z</Time>
            <Position>
              <LatitudeDegrees>42.82063434831798076629638671875</LatitudeDegrees>
              <LongitudeDegrees>-1.7090993933379650115966796875</LongitudeDegrees>
            </Position>
            <AltitudeMeters>415</AltitudeMeters>
            <DistanceMeters>10221.80402587</DistanceMeters>
          </Trackpoint>
          <Trackpoint>
            <Time>2018-08-26T06:08:00.000Z</Time>
            <Position>
              <LatitudeDegrees>42.82057098113000392913818359375</LatitudeDegrees>
              <LongitudeDegrees>-1.709188409149646759033203125</LongitudeDegrees>
            </Position>
            <AltitudeMeters>414.600006103515625</AltitudeMeters>
            <DistanceMeters>10231.930949301</DistanceMeters>
          </Trackpoint>
          <Trackpoint>
            <Time>2018-08-26T06:08:01.000Z</Time>
            <Position>
              <LatitudeDegrees>42.8205182589590549468994140625</LatitudeDegrees>
              <LongitudeDegrees>-1.7092915065586566925048828125</LongitudeDegrees>
            </Position>
            <AltitudeMeters>414.399993896484375</AltitudeMeters>
            <DistanceMeters>10242.191194482</DistanceMeters>
          </Trackpoint>
          <Trackpoint>
            <Time>2018-08-26T06:08:02.000Z</Time>
            <Position>
              <LatitudeDegrees>42.82046989537775516510009765625</LatitudeDegrees>
              <LongitudeDegrees>-1.709398962557315826416015625</LongitudeDegrees>
            </Position>
            <AltitudeMeters>414.20001220703125</AltitudeMeters>
            <DistanceMeters>10252.483951977</DistanceMeters>
          </Trackpoint>
          <Trackpoint>
            <Time>2018-08-26T06:08:03.000Z</Time>
            <Position>
              <LatitudeDegrees>42.82042094506323337554931640625</LatitudeDegrees>
              <LongitudeDegrees>-1.70950583182275295257568359375</LongitudeDegrees>
            </Position>
            <AltitudeMeters>414</AltitudeMeters>
            <DistanceMeters>10262.770127442</DistanceMeters>
          </Trackpoint>
          <Trackpoint>
            <Time>2018-08-26T06:08:04.000Z</Time>
            <Position>
              <LatitudeDegrees>42.82037216238677501678466796875</LatitudeDegrees>
              <LongitudeDegrees>-1.7096123658120632171630859375</LongitudeDegrees>
            </Position>
            <AltitudeMeters>414</AltitudeMeters>
            <DistanceMeters>10273.023329379</DistanceMeters>
          </Trackpoint>
          <Trackpoint>
            <Time>2018-08-26T06:08:05.000Z</Time>
            <Position>
              <LatitudeDegrees>42.8203234635293483734130859375</LatitudeDegrees>
              <LongitudeDegrees>-1.709718815982341766357421875</LongitudeDegrees>
            </Position>
            <AltitudeMeters>413.79998779296875</AltitudeMeters>
            <DistanceMeters>10283.265957368</DistanceMeters>
          </Trackpoint>
          <Trackpoint>
            <Time>2018-08-26T06:08:06.000Z</Time>
            <Position>
              <LatitudeDegrees>42.820275016129016876220703125</LatitudeDegrees>
              <LongitudeDegrees>-1.70982518233358860015869140625</LongitudeDegrees>
            </Position>
            <AltitudeMeters>413.79998779296875</AltitudeMeters>
            <DistanceMeters>10293.487404646</DistanceMeters>
          </Trackpoint>
          <Trackpoint>
            <Time>2018-08-26T06:08:07.000Z</Time>
            <Position>
              <LatitudeDegrees>42.82022598199546337127685546875</LatitudeDegrees>
              <LongitudeDegrees>-1.70993213541805744171142578125</LongitudeDegrees>
            </Position>
            <AltitudeMeters>413.79998779296875</AltitudeMeters>
            <DistanceMeters>10303.784547823</DistanceMeters>
          </Trackpoint>
          <Trackpoint>
            <Time>2018-08-26T06:08:08.000Z</Time>
            <Position>
              <LatitudeDegrees>42.82017602585256099700927734375</LatitudeDegrees>
              <LongitudeDegrees>-1.71003908850252628326416015625</LongitudeDegrees>
            </Position>
            <AltitudeMeters>413.600006103515625</AltitudeMeters>
            <DistanceMeters>10314.135919089</DistanceMeters>
          </Trackpoint>
          <Trackpoint>
            <Time>2018-08-26T06:08:09.000Z</Time>
            <Position>
              <LatitudeDegrees>42.8201269917190074920654296875</LatitudeDegrees>
              <LongitudeDegrees>-1.71014587394893169403076171875</LongitudeDegrees>
            </Position>
            <AltitudeMeters>412.79998779296875</AltitudeMeters>
            <DistanceMeters>10324.421216631</DistanceMeters>
          </Trackpoint>
          <Trackpoint>
            <Time>2018-08-26T06:08:10.000Z</Time>
            <Position>
              <LatitudeDegrees>42.8200790472328662872314453125</LatitudeDegrees>
              <LongitudeDegrees>-1.71025249175727367401123046875</LongitudeDegrees>
            </Position>
            <AltitudeMeters>412.79998779296875</AltitudeMeters>
            <DistanceMeters>10334.630730449</DistanceMeters>
          </Trackpoint>
          <Trackpoint>
            <Time>2018-08-26T06:08:11.000Z</Time>
            <Position>
              <LatitudeDegrees>42.82003118656575679779052734375</LatitudeDegrees>
              <LongitudeDegrees>-1.71035944484174251556396484375</LongitudeDegrees>
            </Position>
            <AltitudeMeters>412.600006103515625</AltitudeMeters>
            <DistanceMeters>10344.859242837</DistanceMeters>
          </Trackpoint>
          <Trackpoint>
            <Time>2018-08-26T06:08:12.000Z</Time>
            <Position>
              <LatitudeDegrees>42.819983661174774169921875</LatitudeDegrees>
              <LongitudeDegrees>-1.7104666493833065032958984375</LongitudeDegrees>
            </Position>
            <AltitudeMeters>412.399993896484375</AltitudeMeters>
            <DistanceMeters>10355.085989406</DistanceMeters>
          </Trackpoint>
          <Trackpoint>
            <Time>2018-08-26T06:08:13.000Z</Time>
            <Position>
              <LatitudeDegrees>42.819936387240886688232421875</LatitudeDegrees>
              <LongitudeDegrees>-1.7105739377439022064208984375</LongitudeDegrees>
            </Position>
            <AltitudeMeters>412.399993896484375</AltitudeMeters>
            <DistanceMeters>10365.303902296</DistanceMeters>
          </Trackpoint>
          <Trackpoint>
            <Time>2018-08-26T06:08:14.000Z</Time>
            <Position>
              <LatitudeDegrees>42.8198896162211894989013671875</LatitudeDegrees>
              <LongitudeDegrees>-1.71068097464740276336669921875</LongitudeDegrees>
            </Position>
            <AltitudeMeters>412.399993896484375</AltitudeMeters>
            <DistanceMeters>10375.475312514</DistanceMeters>
          </Trackpoint>
          <Trackpoint>
            <Time>2018-08-26T06:08:15.000Z</Time>
            <Position>
              <LatitudeDegrees>42.81984259374439716339111328125</LatitudeDegrees>
              <LongitudeDegrees>-1.71078675426542758941650390625</LongitudeDegrees>
            </Position>
            <AltitudeMeters>412.20001220703125</AltitudeMeters>
            <DistanceMeters>10385.573661552</DistanceMeters>
          </Trackpoint>
          <Trackpoint>
            <Time>2018-08-26T06:08:16.000Z</Time>
            <Position>
              <LatitudeDegrees>42.81979498453438282012939453125</LatitudeDegrees>
              <LongitudeDegrees>-1.71089169569313526153564453125</LongitudeDegrees>
            </Position>
            <AltitudeMeters>412.20001220703125</AltitudeMeters>
            <DistanceMeters>10395.647389713</DistanceMeters>
          </Trackpoint>
          <Trackpoint>
            <Time>2018-08-26T06:08:17.000Z</Time>
            <Position>
              <LatitudeDegrees>42.81974787823855876922607421875</LatitudeDegrees>
              <LongitudeDegrees>-1.7109957151114940643310546875</LongitudeDegrees>
            </Position>
            <AltitudeMeters>412</AltitudeMeters>
            <DistanceMeters>10405.627457007</DistanceMeters>
          </Trackpoint>
          <Trackpoint>
            <Time>2018-08-26T06:08:18.000Z</Time>
            <Position>
              <LatitudeDegrees>42.8197006881237030029296875</LatitudeDegrees>
              <LongitudeDegrees>-1.7110993154346942901611328125</LongitudeDegrees>
            </Position>
            <AltitudeMeters>411.79998779296875</AltitudeMeters>
            <DistanceMeters>10415.583064424</DistanceMeters>
          </Trackpoint>
          <Trackpoint>
            <Time>2018-08-26T06:08:19.000Z</Time>
            <Position>
              <LatitudeDegrees>42.81965316273272037506103515625</LatitudeDegrees>
              <LongitudeDegrees>-1.71120249666273593902587890625</LongitudeDegrees>
            </Position>
            <AltitudeMeters>411.79998779296875</AltitudeMeters>
            <DistanceMeters>10425.529597364</DistanceMeters>
          </Trackpoint>
          <Trackpoint>
            <Time>2018-08-26T06:08:20.000Z</Time>
            <Position>
              <LatitudeDegrees>42.8196066431701183319091796875</LatitudeDegrees>
              <LongitudeDegrees>-1.7113045044243335723876953125</LongitudeDegrees>
            </Position>
            <AltitudeMeters>411.600006103515625</AltitudeMeters>
            <DistanceMeters>10435.335322935</DistanceMeters>
          </Trackpoint>
          <Trackpoint>
            <Time>2018-08-26T06:08:21.000Z</Time>
            <Position>
              <LatitudeDegrees>42.81956054270267486572265625</LatitudeDegrees>
              <LongitudeDegrees>-1.711406596004962921142578125</LongitudeDegrees>
            </Position>
            <AltitudeMeters>411.600006103515625</AltitudeMeters>
            <DistanceMeters>10445.123074515</DistanceMeters>
          </Trackpoint>
          <Trackpoint>
            <Time>2018-08-26T06:08:22.000Z</Time>
            <Position>
              <LatitudeDegrees>42.81951502896845340728759765625</LatitudeDegrees>
              <LongitudeDegrees>-1.7115090228617191314697265625</LongitudeDegrees>
            </Position>
            <AltitudeMeters>411.20001220703125</AltitudeMeters>
            <DistanceMeters>10454.90021056</DistanceMeters>
          </Trackpoint>
          <Trackpoint>
            <Time>2018-08-26T06:08:23.000Z</Time>
            <Position>
              <LatitudeDegrees>42.8194691799581050872802734375</LatitudeDegrees>
              <LongitudeDegrees>-1.71161220408976078033447265625</LongitudeDegrees>
            </Position>
            <AltitudeMeters>411</AltitudeMeters>
            <DistanceMeters>10464.749123249</DistanceMeters>
          </Trackpoint>
          <Trackpoint>
            <Time>2018-08-26T06:08:24.000Z</Time>
            <Position>
              <LatitudeDegrees>42.81942433677613735198974609375</LatitudeDegrees>
              <LongitudeDegrees>-1.711715720593929290771484375</LongitudeDegrees>
            </Position>
            <AltitudeMeters>411</AltitudeMeters>
            <DistanceMeters>10474.564053483</DistanceMeters>
          </Trackpoint>
          <Trackpoint>
            <Time>2018-08-26T06:08:25.000Z</Time>
            <Position>
              <LatitudeDegrees>42.8193810023367404937744140625</LatitudeDegrees>
              <LongitudeDegrees>-1.71181974001228809356689453125</LongitudeDegrees>
            </Position>
            <AltitudeMeters>410.79998779296875</AltitudeMeters>
            <DistanceMeters>10484.330100145</DistanceMeters>
          </Trackpoint>
          <Trackpoint>
            <Time>2018-08-26T06:08:26.000Z</Time>
            <Position>
              <LatitudeDegrees>42.8193387575447559356689453125</LatitudeDegrees>
              <LongitudeDegrees>-1.7119247652590274810791015625</LongitudeDegrees>
            </Position>
            <AltitudeMeters>410.600006103515625</AltitudeMeters>
            <DistanceMeters>10494.109083197</DistanceMeters>
          </Trackpoint>
          <Trackpoint>
            <Time>2018-08-26T06:08:27.000Z</Time>
            <Position>
              <LatitudeDegrees>42.81929693184792995452880859375</LatitudeDegrees>
              <LongitudeDegrees>-1.71203146688640117645263671875</LongitudeDegrees>
            </Position>
            <AltitudeMeters>410.399993896484375</AltitudeMeters>
            <DistanceMeters>10503.98637766</DistanceMeters>
          </Trackpoint>
          <Trackpoint>
            <Time>2018-08-26T06:08:28.000Z</Time>
            <Position>
              <LatitudeDegrees>42.819255776703357696533203125</LatitudeDegrees>
              <LongitudeDegrees>-1.71213917434215545654296875</LongitudeDegrees>
            </Position>
            <AltitudeMeters>410</AltitudeMeters>
            <DistanceMeters>10513.901084523</DistanceMeters>
          </Trackpoint>
          <Trackpoint>
            <Time>2018-08-26T06:08:29.000Z</Time>
            <Position>
              <LatitudeDegrees>42.81921663321554660797119140625</LatitudeDegrees>
              <LongitudeDegrees>-1.71224805526435375213623046875</LongitudeDegrees>
            </Position>
            <AltitudeMeters>409.79998779296875</AltitudeMeters>
            <DistanceMeters>10523.800296086</DistanceMeters>
          </Trackpoint>
          <Trackpoint>
            <Time>2018-08-26T06:08:30.000Z</Time>
            <Position>
              <LatitudeDegrees>42.81917908228933811187744140625</LatitudeDegrees>
              <LongitudeDegrees>-1.7123582772910594940185546875</LongitudeDegrees>
            </Position>
            <AltitudeMeters>409.600006103515625</AltitudeMeters>
            <DistanceMeters>10533.72228648</DistanceMeters>
          </Trackpoint>
          <Trackpoint>
            <Time>2018-08-26T06:08:31.000Z</Time>
            <Position>
              <LatitudeDegrees>42.81914287246763706207275390625</LatitudeDegrees>
              <LongitudeDegrees>-1.71247034333646297454833984375</LongitudeDegrees>
            </Position>
            <AltitudeMeters>409.600006103515625</AltitudeMeters>
            <DistanceMeters>10543.72043362</DistanceMeters>
          </Trackpoint>
          <Trackpoint>
            <Time>2018-08-26T06:08:32.000Z</Time>
            <Position>
              <LatitudeDegrees>42.81910724937915802001953125</LatitudeDegrees>
              <LongitudeDegrees>-1.71258316375315189361572265625</LongitudeDegrees>
            </Position>
            <AltitudeMeters>409.399993896484375</AltitudeMeters>
            <DistanceMeters>10553.748341243</DistanceMeters>
          </Trackpoint>
          <Trackpoint>
            <Time>2018-08-26T06:08:33.000Z</Time>
            <Position>
              <LatitudeDegrees>42.8190728835761547088623046875</LatitudeDegrees>
              <LongitudeDegrees>-1.7126964032649993896484375</LongitudeDegrees>
            </Position>
            <AltitudeMeters>409.20001220703125</AltitudeMeters>
            <DistanceMeters>10563.753711174</DistanceMeters>
          </Trackpoint>
          <Trackpoint>
            <Time>2018-08-26T06:08:34.000Z</Time>
            <Position>
              <LatitudeDegrees>42.819039523601531982421875</LatitudeDegrees>
              <LongitudeDegrees>-1.71281148679554462432861328125</LongitudeDegrees>
            </Position>
            <AltitudeMeters>409.20001220703125</AltitudeMeters>
            <DistanceMeters>10573.856083369</DistanceMeters>
          </Trackpoint>
          <Trackpoint>
            <Time>2018-08-26T06:08:35.000Z</Time>
            <Position>
              <LatitudeDegrees>42.81900809146463871002197265625</LatitudeDegrees>
              <LongitudeDegrees>-1.71292883343994617462158203125</LongitudeDegrees>
            </Position>
            <AltitudeMeters>409</AltitudeMeters>
            <DistanceMeters>10584.055420633</DistanceMeters>
          </Trackpoint>
          <Trackpoint>
            <Time>2018-08-26T06:08:36.000Z</Time>
            <Position>
              <LatitudeDegrees>42.8189783357083797454833984375</LatitudeDegrees>
              <LongitudeDegrees>-1.71304835937917232513427734375</LongitudeDegrees>
            </Position>
            <AltitudeMeters>408.600006103515625</AltitudeMeters>
            <DistanceMeters>10594.360453335</DistanceMeters>
          </Trackpoint>
          <Trackpoint>
            <Time>2018-08-26T06:08:37.000Z</Time>
            <Position>
              <LatitudeDegrees>42.81894891522824764251708984375</LatitudeDegrees>
              <LongitudeDegrees>-1.7131693102419376373291015625</LongitudeDegrees>
            </Position>
            <AltitudeMeters>408.20001220703125</AltitudeMeters>
            <DistanceMeters>10604.764034269</DistanceMeters>
          </Trackpoint>
          <Trackpoint>
            <Time>2018-08-26T06:08:38.000Z</Time>
            <Position>
              <LatitudeDegrees>42.8189206682145595550537109375</LatitudeDegrees>
              <LongitudeDegrees>-1.71329193748533725738525390625</LongitudeDegrees>
            </Position>
            <AltitudeMeters>407.79998779296875</AltitudeMeters>
            <DistanceMeters>10615.257496622</DistanceMeters>
          </Trackpoint>
          <Trackpoint>
            <Time>2018-08-26T06:08:39.000Z</Time>
            <Position>
              <LatitudeDegrees>42.81889460049569606781005859375</LatitudeDegrees>
              <LongitudeDegrees>-1.7134167440235614776611328125</LongitudeDegrees>
            </Position>
            <AltitudeMeters>407.600006103515625</AltitudeMeters>
            <DistanceMeters>10625.851590266</DistanceMeters>
          </Trackpoint>
          <Trackpoint>
            <Time>2018-08-26T06:08:40.000Z</Time>
            <Position>
              <LatitudeDegrees>42.81886987388134002685546875</LatitudeDegrees>
              <LongitudeDegrees>-1.7135424725711345672607421875</LongitudeDegrees>
            </Position>
            <AltitudeMeters>407.20001220703125</AltitudeMeters>
            <DistanceMeters>10636.478874306</DistanceMeters>
          </Trackpoint>
          <Trackpoint>
            <Time>2018-08-26T06:08:41.000Z</Time>
            <Position>
              <LatitudeDegrees>42.8188469074666500091552734375</LatitudeDegrees>
              <LongitudeDegrees>-1.71366929076611995697021484375</LongitudeDegrees>
            </Position>
            <AltitudeMeters>407</AltitudeMeters>
            <DistanceMeters>10647.143479916</DistanceMeters>
          </Trackpoint>
          <Trackpoint>
            <Time>2018-08-26T06:08:42.000Z</Time>
            <Position>
              <LatitudeDegrees>42.81882586888968944549560546875</LatitudeDegrees>
              <LongitudeDegrees>-1.7137956060469150543212890625</LongitudeDegrees>
            </Position>
            <AltitudeMeters>406.79998779296875</AltitudeMeters>
            <DistanceMeters>10657.718377868</DistanceMeters>
          </Trackpoint>
          <Trackpoint>
            <Time>2018-08-26T06:08:43.000Z</Time>
            <Position>
              <LatitudeDegrees>42.81880608759820461273193359375</LatitudeDegrees>
              <LongitudeDegrees>-1.71392041258513927459716796875</LongitudeDegrees>
            </Position>
            <AltitudeMeters>406.600006103515625</AltitudeMeters>
            <DistanceMeters>10668.142769453</DistanceMeters>
          </Trackpoint>
          <Trackpoint>
            <Time>2018-08-26T06:08:44.000Z</Time>
            <Position>
              <LatitudeDegrees>42.81878630630671977996826171875</LatitudeDegrees>
              <LongitudeDegrees>-1.71404463239014148712158203125</LongitudeDegrees>
            </Position>
            <AltitudeMeters>406.20001220703125</AltitudeMeters>
            <DistanceMeters>10678.520278387</DistanceMeters>
          </Trackpoint>
          <Trackpoint>
            <Time>2018-08-26T06:08:45.000Z</Time>
            <Position>
              <LatitudeDegrees>42.81876794993877410888671875</LatitudeDegrees>
              <LongitudeDegrees>-1.714168600738048553466796875</LongitudeDegrees>
            </Position>
            <AltitudeMeters>405.79998779296875</AltitudeMeters>
            <DistanceMeters>10688.845445819</DistanceMeters>
          </Trackpoint>
          <Trackpoint>
            <Time>2018-08-26T06:08:46.000Z</Time>
            <Position>
              <LatitudeDegrees>42.81875210814177989959716796875</LatitudeDegrees>
              <LongitudeDegrees>-1.71429474838078022003173828125</LongitudeDegrees>
            </Position>
            <AltitudeMeters>405.79998779296875</AltitudeMeters>
            <DistanceMeters>10699.294064111</DistanceMeters>
          </Trackpoint>
          <Trackpoint>
            <Time>2018-08-26T06:08:47.000Z</Time>
            <Position>
              <LatitudeDegrees>42.81873710453510284423828125</LatitudeDegrees>
              <LongitudeDegrees>-1.71442299149930477142333984375</LongitudeDegrees>
            </Position>
            <AltitudeMeters>405.600006103515625</AltitudeMeters>
            <DistanceMeters>10709.896252166</DistanceMeters>
          </Trackpoint>
          <Trackpoint>
            <Time>2018-08-26T06:08:48.000Z</Time>
            <Position>
              <LatitudeDegrees>42.81872243620455265045166015625</LatitudeDegrees>
              <LongitudeDegrees>-1.71455307863652706146240234375</LongitudeDegrees>
            </Position>
            <AltitudeMeters>404.79998779296875</AltitudeMeters>
            <DistanceMeters>10720.64141654</DistanceMeters>
          </Trackpoint>
          <Trackpoint>
            <Time>2018-08-26T06:08:49.000Z</Time>
            <Position>
              <LatitudeDegrees>42.818709947168827056884765625</LatitudeDegrees>
              <LongitudeDegrees>-1.71468500979244709014892578125</LongitudeDegrees>
            </Position>
            <AltitudeMeters>404</AltitudeMeters>
            <DistanceMeters>10731.501934875</DistanceMeters>
          </Trackpoint>
          <Trackpoint>
            <Time>2018-08-26T06:08:50.000Z</Time>
            <Position>
              <LatitudeDegrees>42.8186980448663234710693359375</LatitudeDegrees>
              <LongitudeDegrees>-1.71481794677674770355224609375</LongitudeDegrees>
            </Position>
            <AltitudeMeters>403.20001220703125</AltitudeMeters>
            <DistanceMeters>10742.435376784</DistanceMeters>
          </Trackpoint>
          <Trackpoint>
            <Time>2018-08-26T06:08:51.000Z</Time>
            <Position>
              <LatitudeDegrees>42.81868689693510532379150390625</LatitudeDegrees>
              <LongitudeDegrees>-1.7149521410465240478515625</LongitudeDegrees>
            </Position>
            <AltitudeMeters>402.79998779296875</AltitudeMeters>
            <DistanceMeters>10753.461342463</DistanceMeters>
          </Trackpoint>
          <Trackpoint>
            <Time>2018-08-26T06:08:52.000Z</Time>
            <Position>
              <LatitudeDegrees>42.81867633573710918426513671875</LatitudeDegrees>
              <LongitudeDegrees>-1.715087592601776123046875</LongitudeDegrees>
            </Position>
            <AltitudeMeters>402.600006103515625</AltitudeMeters>
            <DistanceMeters>10764.582310361</DistanceMeters>
          </Trackpoint>
          <Trackpoint>
            <Time>2018-08-26T06:08:53.000Z</Time>
            <Position>
              <LatitudeDegrees>42.8186604939401149749755859375</LatitudeDegrees>
              <LongitudeDegrees>-1.71522078104317188262939453125</LongitudeDegrees>
            </Position>
            <AltitudeMeters>402.20001220703125</AltitudeMeters>
            <DistanceMeters>10775.598443862</DistanceMeters>
          </Trackpoint>
          <Trackpoint>
            <Time>2018-08-26T06:08:54.000Z</Time>
            <Position>
              <LatitudeDegrees>42.8186427243053913116455078125</LatitudeDegrees>
              <LongitudeDegrees>-1.7153502814471721649169921875</LongitudeDegrees>
            </Position>
            <AltitudeMeters>402</AltitudeMeters>
            <DistanceMeters>10786.354947452</DistanceMeters>
          </Trackpoint>
          <Trackpoint>
            <Time>2018-08-26T06:08:55.000Z</Time>
            <Position>
              <LatitudeDegrees>42.8186319954693317413330078125</LatitudeDegrees>
              <LongitudeDegrees>-1.7154790274798870086669921875</LongitudeDegrees>
            </Position>
            <AltitudeMeters>401.79998779296875</AltitudeMeters>
            <DistanceMeters>10796.933687328</DistanceMeters>
          </Trackpoint>
          <Trackpoint>
            <Time>2018-08-26T06:08:56.000Z</Time>
            <Position>
              <LatitudeDegrees>42.8186239488422870635986328125</LatitudeDegrees>
              <LongitudeDegrees>-1.71561020426452159881591796875</LongitudeDegrees>
            </Position>
            <AltitudeMeters>401.79998779296875</AltitudeMeters>
            <DistanceMeters>10807.680532341</DistanceMeters>
          </Trackpoint>
          <Trackpoint>
            <Time>2018-08-26T06:08:57.000Z</Time>
            <Position>
              <LatitudeDegrees>42.8186162374913692474365234375</LatitudeDegrees>
              <LongitudeDegrees>-1.71573559753596782684326171875</LongitudeDegrees>
            </Position>
            <AltitudeMeters>401.79998779296875</AltitudeMeters>
            <DistanceMeters>10817.953970591</DistanceMeters>
          </Trackpoint>
          <Trackpoint>
            <Time>2018-08-26T06:08:58.000Z</Time>
            <Position>
              <LatitudeDegrees>42.81860659830272197723388671875</LatitudeDegrees>
              <LongitudeDegrees>-1.71586518175899982452392578125</LongitudeDegrees>
            </Position>
            <AltitudeMeters>401.600006103515625</AltitudeMeters>
            <DistanceMeters>10828.587625524</DistanceMeters>
          </Trackpoint>
          <Trackpoint>
            <Time>2018-08-26T06:08:59.000Z</Time>
            <Position>
              <LatitudeDegrees>42.81859519891440868377685546875</LatitudeDegrees>
              <LongitudeDegrees>-1.7159919999539852142333984375</LongitudeDegrees>
            </Position>
            <AltitudeMeters>401.600006103515625</AltitudeMeters>
            <DistanceMeters>10839.018511923</DistanceMeters>
          </Trackpoint>
          <Trackpoint>
            <Time>2018-08-26T06:09:00.000Z</Time>
            <Position>
              <LatitudeDegrees>42.8185848891735076904296875</LatitudeDegrees>
              <LongitudeDegrees>-1.71611898578703403472900390625</LongitudeDegrees>
            </Position>
            <AltitudeMeters>401.399993896484375</AltitudeMeters>
            <DistanceMeters>10849.448099683</DistanceMeters>
          </Trackpoint>
          <Trackpoint>
            <Time>2018-08-26T06:09:01.000Z</Time>
            <Position>
              <LatitudeDegrees>42.81857491470873355865478515625</LatitudeDegrees>
              <LongitudeDegrees>-1.716242618858814239501953125</LongitudeDegrees>
            </Position>
            <AltitudeMeters>401</AltitudeMeters>
            <DistanceMeters>10859.602183238</DistanceMeters>
          </Trackpoint>
          <Trackpoint>
            <Time>2018-08-26T06:09:02.000Z</Time>
            <Position>
              <LatitudeDegrees>42.81856519170105457305908203125</LatitudeDegrees>
              <LongitudeDegrees>-1.71636633574962615966796875</LongitudeDegrees>
            </Position>
            <AltitudeMeters>400.79998779296875</AltitudeMeters>
            <DistanceMeters>10869.760267876</DistanceMeters>
          </Trackpoint>
          <Trackpoint>
            <Time>2018-08-26T06:09:03.000Z</Time>
            <Position>
              <LatitudeDegrees>42.8185542114078998565673828125</LatitudeDegrees>
              <LongitudeDegrees>-1.7164912261068820953369140625</LongitudeDegrees>
            </Position>
            <AltitudeMeters>400.600006103515625</AltitudeMeters>
            <DistanceMeters>10880.02931032</DistanceMeters>
          </Trackpoint>
          <Trackpoint>
            <Time>2018-08-26T06:09:04.000Z</Time>
            <Position>
              <LatitudeDegrees>42.81854264438152313232421875</LatitudeDegrees>
              <LongitudeDegrees>-1.71661536209285259246826171875</LongitudeDegrees>
            </Position>
            <AltitudeMeters>400.399993896484375</AltitudeMeters>
            <DistanceMeters>10890.245013598</DistanceMeters>
          </Trackpoint>
          <Trackpoint>
            <Time>2018-08-26T06:09:05.000Z</Time>
            <Position>
              <LatitudeDegrees>42.8185320831835269927978515625</LatitudeDegrees>
              <LongitudeDegrees>-1.71673438511788845062255859375</LongitudeDegrees>
            </Position>
            <AltitudeMeters>400.20001220703125</AltitudeMeters>
            <DistanceMeters>10900.032765178</DistanceMeters>
          </Trackpoint>
          <Trackpoint>
            <Time>2018-08-26T06:09:06.000Z</Time>
            <Position>
              <LatitudeDegrees>42.818522192537784576416015625</LatitudeDegrees>
              <LongitudeDegrees>-1.716852486133575439453125</LongitudeDegrees>
            </Position>
            <AltitudeMeters>399.600006103515625</AltitudeMeters>
            <DistanceMeters>10909.736663217</DistanceMeters>
          </Trackpoint>
          <Trackpoint>
            <Time>2018-08-26T06:09:07.000Z</Time>
            <Position>
              <LatitudeDegrees>42.81851154752075672149658203125</LatitudeDegrees>
              <LongitudeDegrees>-1.71697125770151615142822265625</LongitudeDegrees>
            </Position>
            <AltitudeMeters>399</AltitudeMeters>
            <DistanceMeters>10919.505483405</DistanceMeters>
          </Trackpoint>
          <Trackpoint>
            <Time>2018-08-26T06:09:08.000Z</Time>
            <Position>
              <LatitudeDegrees>42.81850098632276058197021484375</LatitudeDegrees>
              <LongitudeDegrees>-1.71709028072655200958251953125</LongitudeDegrees>
            </Position>
            <AltitudeMeters>398.399993896484375</AltitudeMeters>
            <DistanceMeters>10929.293696269</DistanceMeters>
          </Trackpoint>
          <Trackpoint>
            <Time>2018-08-26T06:09:09.000Z</Time>
            <Position>
              <LatitudeDegrees>42.81848967075347900390625</LatitudeDegrees>
              <LongitudeDegrees>-1.71720930375158786773681640625</LongitudeDegrees>
            </Position>
            <AltitudeMeters>398.20001220703125</AltitudeMeters>
            <DistanceMeters>10939.092051884</DistanceMeters>
          </Trackpoint>
          <Trackpoint>
            <Time>2018-08-26T06:09:10.000Z</Time>
            <Position>
              <LatitudeDegrees>42.81847902573645114898681640625</LatitudeDegrees>
              <LongitudeDegrees>-1.71732748858630657196044921875</LongitudeDegrees>
            </Position>
            <AltitudeMeters>398</AltitudeMeters>
            <DistanceMeters>10948.813614519</DistanceMeters>
          </Trackpoint>
          <Trackpoint>
            <Time>2018-08-26T06:09:11.000Z</Time>
            <Position>
              <LatitudeDegrees>42.8184677101671695709228515625</LatitudeDegrees>
              <LongitudeDegrees>-1.7174447514116764068603515625</LongitudeDegrees>
            </Position>
            <AltitudeMeters>397.79998779296875</AltitudeMeters>
            <DistanceMeters>10958.469937285</DistanceMeters>
          </Trackpoint>
          <Trackpoint>
            <Time>2018-08-26T06:09:12.000Z</Time>
            <Position>
              <LatitudeDegrees>42.81845681369304656982421875</LatitudeDegrees>
              <LongitudeDegrees>-1.71756134368479251861572265625</LongitudeDegrees>
            </Position>
            <AltitudeMeters>397.79998779296875</AltitudeMeters>
            <DistanceMeters>10968.065753534</DistanceMeters>
          </Trackpoint>
          <Trackpoint>
            <Time>2018-08-26T06:09:13.000Z</Time>
            <Position>
              <LatitudeDegrees>42.81844600103795528411865234375</LatitudeDegrees>
              <LongitudeDegrees>-1.7176770977675914764404296875</LongitudeDegrees>
            </Position>
            <AltitudeMeters>397.79998779296875</AltitudeMeters>
            <DistanceMeters>10977.592152028</DistanceMeters>
          </Trackpoint>
          <Trackpoint>
            <Time>2018-08-26T06:09:14.000Z</Time>
            <Position>
              <LatitudeDegrees>42.81843611039221286773681640625</LatitudeDegrees>
              <LongitudeDegrees>-1.71779192984104156494140625</LongitudeDegrees>
            </Position>
            <AltitudeMeters>397.600006103515625</AltitudeMeters>
            <DistanceMeters>10987.031897488</DistanceMeters>
          </Trackpoint>
          <Trackpoint>
            <Time>2018-08-26T06:09:15.000Z</Time>
            <Position>
              <LatitudeDegrees>42.81842655502259731292724609375</LatitudeDegrees>
              <LongitudeDegrees>-1.71790651045739650726318359375</LongitudeDegrees>
            </Position>
            <AltitudeMeters>397.600006103515625</AltitudeMeters>
            <DistanceMeters>10996.446738452</DistanceMeters>
          </Trackpoint>
          <Trackpoint>
            <Time>2018-08-26T06:09:16.000Z</Time>
            <Position>
              <LatitudeDegrees>42.81841699965298175811767578125</LatitudeDegrees>
              <LongitudeDegrees>-1.71802033670246601104736328125</LongitudeDegrees>
            </Position>
            <AltitudeMeters>397.399993896484375</AltitudeMeters>
            <DistanceMeters>11005.800958929</DistanceMeters>
          </Trackpoint>
          <Trackpoint>
            <Time>2018-08-26T06:09:17.000Z</Time>
            <Position>
              <LatitudeDegrees>42.8184076957404613494873046875</LatitudeDegrees>
              <LongitudeDegrees>-1.71813282184302806854248046875</LongitudeDegrees>
            </Position>
            <AltitudeMeters>397.399993896484375</AltitudeMeters>
            <DistanceMeters>11015.042520648</DistanceMeters>
          </Trackpoint>
          <Trackpoint>
            <Time>2018-08-26T06:09:18.000Z</Time>
            <Position>
              <LatitudeDegrees>42.8183983080089092254638671875</LatitudeDegrees>
              <LongitudeDegrees>-1.71824463643133640289306640625</LongitudeDegrees>
            </Position>
            <AltitudeMeters>397.399993896484375</AltitudeMeters>
            <DistanceMeters>11024.230675233</DistanceMeters>
          </Trackpoint>
          <Trackpoint>
            <Time>2018-08-26T06:09:19.000Z</Time>
            <Position>
              <LatitudeDegrees>42.8183892555534839630126953125</LatitudeDegrees>
              <LongitudeDegrees>-1.71835628338158130645751953125</LongitudeDegrees>
            </Position>
            <AltitudeMeters>397.399993896484375</AltitudeMeters>
            <DistanceMeters>11033.400630077</DistanceMeters>
          </Trackpoint>
          <Trackpoint>
            <Time>2018-08-26T06:09:20.000Z</Time>
            <Position>
              <LatitudeDegrees>42.81837995164096355438232421875</LatitudeDegrees>
              <LongitudeDegrees>-1.71846759505569934844970703125</LongitudeDegrees>
            </Position>
            <AltitudeMeters>397.20001220703125</AltitudeMeters>
            <DistanceMeters>11042.546920483</DistanceMeters>
          </Trackpoint>
          <Trackpoint>
            <Time>2018-08-26T06:09:21.000Z</Time>
            <Position>
              <LatitudeDegrees>42.8183698095381259918212890625</LatitudeDegrees>
              <LongitudeDegrees>-1.718578822910785675048828125</LongitudeDegrees>
            </Position>
            <AltitudeMeters>397.20001220703125</AltitudeMeters>
            <DistanceMeters>11051.698146026</DistanceMeters>
          </Trackpoint>
          <Trackpoint>
            <Time>2018-08-26T06:09:22.000Z</Time>
            <Position>
              <LatitudeDegrees>42.8183594159781932830810546875</LatitudeDegrees>
              <LongitudeDegrees>-1.718688793480396270751953125</LongitudeDegrees>
            </Position>
            <AltitudeMeters>397.20001220703125</AltitudeMeters>
            <DistanceMeters>11060.750656381</DistanceMeters>
          </Trackpoint>
          <Trackpoint>
            <Time>2018-08-26T06:09:23.000Z</Time>
            <Position>
              <LatitudeDegrees>42.81834960915148258209228515625</LatitudeDegrees>
              <LongitudeDegrees>-1.71879733912646770477294921875</LongitudeDegrees>
            </Position>
            <AltitudeMeters>397.20001220703125</AltitudeMeters>
            <DistanceMeters>11069.679628602</DistanceMeters>
          </Trackpoint>
          <Trackpoint>
            <Time>2018-08-26T06:09:24.000Z</Time>
            <Position>
              <LatitudeDegrees>42.818340472877025604248046875</LatitudeDegrees>
              <LongitudeDegrees>-1.7189052142202854156494140625</LongitudeDegrees>
            </Position>
            <AltitudeMeters>397.20001220703125</AltitudeMeters>
            <DistanceMeters>11078.54567707</DistanceMeters>
          </Trackpoint>
          <Trackpoint>
            <Time>2018-08-26T06:09:25.000Z</Time>
            <Position>
              <LatitudeDegrees>42.8183305822312831878662109375</LatitudeDegrees>
              <LongitudeDegrees>-1.7190130054950714111328125</LongitudeDegrees>
            </Position>
            <AltitudeMeters>397.20001220703125</AltitudeMeters>
            <DistanceMeters>11087.414271425</DistanceMeters>
          </Trackpoint>
          <Trackpoint>
            <Time>2018-08-26T06:09:26.000Z</Time>
            <Position>
              <LatitudeDegrees>42.8183218650519847869873046875</LatitudeDegrees>
              <LongitudeDegrees>-1.7191201262176036834716796875</LongitudeDegrees>
            </Position>
            <AltitudeMeters>397.20001220703125</AltitudeMeters>
            <DistanceMeters>11096.213355209</DistanceMeters>
          </Trackpoint>
          <Trackpoint>
            <Time>2018-08-26T06:09:27.000Z</Time>
            <Position>
              <LatitudeDegrees>42.81831289641559123992919921875</LatitudeDegrees>
              <LongitudeDegrees>-1.719226576387882232666015625</LongitudeDegrees>
            </Position>
            <AltitudeMeters>397.20001220703125</AltitudeMeters>
            <DistanceMeters>11104.960975901</DistanceMeters>
          </Trackpoint>
          <Trackpoint>
            <Time>2018-08-26T06:09:28.000Z</Time>
            <Position>
              <LatitudeDegrees>42.81830367632210254669189453125</LatitudeDegrees>
              <LongitudeDegrees>-1.719333194196224212646484375</LongitudeDegrees>
            </Position>
            <AltitudeMeters>397.20001220703125</AltitudeMeters>
            <DistanceMeters>11113.726127947</DistanceMeters>
          </Trackpoint>
          <Trackpoint>
            <Time>2018-08-26T06:09:29.000Z</Time>
            <Position>
              <LatitudeDegrees>42.81829529441893100738525390625</LatitudeDegrees>
              <LongitudeDegrees>-1.71943939290940761566162109375</LongitudeDegrees>
            </Position>
            <AltitudeMeters>397.20001220703125</AltitudeMeters>
            <DistanceMeters>11122.446350062</DistanceMeters>
          </Trackpoint>
          <Trackpoint>
            <Time>2018-08-26T06:09:30.000Z</Time>
            <Position>
              <LatitudeDegrees>42.8182869963347911834716796875</LatitudeDegrees>
              <LongitudeDegrees>-1.71954475343227386474609375</LongitudeDegrees>
            </Position>
            <AltitudeMeters>397</AltitudeMeters>
            <DistanceMeters>11131.097435171</DistanceMeters>
          </Trackpoint>
          <Trackpoint>
            <Time>2018-08-26T06:09:31.000Z</Time>
            <Position>
              <LatitudeDegrees>42.8182779438793659210205078125</LatitudeDegrees>
              <LongitudeDegrees>-1.7196512036025524139404296875</LongitudeDegrees>
            </Position>
            <AltitudeMeters>397</AltitudeMeters>
            <DistanceMeters>11139.846604161</DistanceMeters>
          </Trackpoint>
          <Trackpoint>
            <Time>2018-08-26T06:09:32.000Z</Time>
            <Position>
              <LatitudeDegrees>42.81826981343328952789306640625</LatitudeDegrees>
              <LongitudeDegrees>-1.71975857578217983245849609375</LongitudeDegrees>
            </Position>
            <AltitudeMeters>397</AltitudeMeters>
            <DistanceMeters>11148.659531456</DistanceMeters>
          </Trackpoint>
          <Trackpoint>
            <Time>2018-08-26T06:09:33.000Z</Time>
            <Position>
              <LatitudeDegrees>42.81826226972043514251708984375</LatitudeDegrees>
              <LongitudeDegrees>-1.7198667861521244049072265625</LongitudeDegrees>
            </Position>
            <AltitudeMeters>396.79998779296875</AltitudeMeters>
            <DistanceMeters>11157.534232957</DistanceMeters>
          </Trackpoint>
          <Trackpoint>
            <Time>2018-08-26T06:09:34.000Z</Time>
            <Position>
              <LatitudeDegrees>42.81825623475015163421630859375</LatitudeDegrees>
              <LongitudeDegrees>-1.71997415833175182342529296875</LongitudeDegrees>
            </Position>
            <AltitudeMeters>396.79998779296875</AltitudeMeters>
            <DistanceMeters>11166.326130043</DistanceMeters>
          </Trackpoint>
          <Trackpoint>
            <Time>2018-08-26T06:09:35.000Z</Time>
            <Position>
              <LatitudeDegrees>42.81825187616050243377685546875</LatitudeDegrees>
              <LongitudeDegrees>-1.72008027322590351104736328125</LongitudeDegrees>
            </Position>
            <AltitudeMeters>396.600006103515625</AltitudeMeters>
            <DistanceMeters>11175.003271127</DistanceMeters>
          </Trackpoint>
          <Trackpoint>
            <Time>2018-08-26T06:09:36.000Z</Time>
            <Position>
              <LatitudeDegrees>42.8182491101324558258056640625</LatitudeDegrees>
              <LongitudeDegrees>-1.7201856337487697601318359375</LongitudeDegrees>
            </Position>
            <AltitudeMeters>396.600006103515625</AltitudeMeters>
            <DistanceMeters>11183.61040463</DistanceMeters>
          </Trackpoint>
          <Trackpoint>
            <Time>2018-08-26T06:09:37.000Z</Time>
            <Position>
              <LatitudeDegrees>42.81824751757085323333740234375</LatitudeDegrees>
              <LongitudeDegrees>-1.7202897369861602783203125</LongitudeDegrees>
            </Position>
            <AltitudeMeters>396.399993896484375</AltitudeMeters>
            <DistanceMeters>11192.111976947</DistanceMeters>
          </Trackpoint>
          <Trackpoint>
            <Time>2018-08-26T06:09:38.000Z</Time>
            <Position>
              <LatitudeDegrees>42.81824751757085323333740234375</LatitudeDegrees>
              <LongitudeDegrees>-1.72039208002388477325439453125</LongitudeDegrees>
            </Position>
            <AltitudeMeters>396.20001220703125</AltitudeMeters>
            <DistanceMeters>11200.467846205</DistanceMeters>
          </Trackpoint>
          <Trackpoint>
            <Time>2018-08-26T06:09:39.000Z</Time>
            <Position>
              <LatitudeDegrees>42.81824852339923381805419921875</LatitudeDegrees>
              <LongitudeDegrees>-1.720493920147418975830078125</LongitudeDegrees>
            </Position>
            <AltitudeMeters>396</AltitudeMeters>
            <DistanceMeters>11208.78309096</DistanceMeters>
          </Trackpoint>
          <Trackpoint>
            <Time>2018-08-26T06:09:40.000Z</Time>
            <Position>
              <LatitudeDegrees>42.81824919395148754119873046875</LatitudeDegrees>
              <LongitudeDegrees>-1.7205976881086826324462890625</LongitudeDegrees>
            </Position>
            <AltitudeMeters>396</AltitudeMeters>
            <DistanceMeters>11217.255936275</DistanceMeters>
          </Trackpoint>
          <Trackpoint>
            <Time>2018-08-26T06:09:41.000Z</Time>
            <Position>
              <LatitudeDegrees>42.81825036741793155670166015625</LatitudeDegrees>
              <LongitudeDegrees>-1.72070137225091457366943359375</LongitudeDegrees>
            </Position>
            <AltitudeMeters>395.79998779296875</AltitudeMeters>
            <DistanceMeters>11225.721851272</DistanceMeters>
          </Trackpoint>
          <Trackpoint>
            <Time>2018-08-26T06:09:42.000Z</Time>
            <Position>
              <LatitudeDegrees>42.818251289427280426025390625</LatitudeDegrees>
              <LongitudeDegrees>-1.7208048887550830841064453125</LongitudeDegrees>
            </Position>
            <AltitudeMeters>395.600006103515625</AltitudeMeters>
            <DistanceMeters>11234.173888585</DistanceMeters>
          </Trackpoint>
          <Trackpoint>
            <Time>2018-08-26T06:09:43.000Z</Time>
            <Position>
              <LatitudeDegrees>42.81825455836951732635498046875</LatitudeDegrees>
              <LongitudeDegrees>-1.7209084890782833099365234375</LongitudeDegrees>
            </Position>
            <AltitudeMeters>395.399993896484375</AltitudeMeters>
            <DistanceMeters>11242.639270246</DistanceMeters>
          </Trackpoint>
          <Trackpoint>
            <Time>2018-08-26T06:09:44.000Z</Time>
            <Position>
              <LatitudeDegrees>42.81826076097786426544189453125</LatitudeDegrees>
              <LongitudeDegrees>-1.72101200558245182037353515625</LongitudeDegrees>
            </Position>
            <AltitudeMeters>395.20001220703125</AltitudeMeters>
            <DistanceMeters>11251.119040215</DistanceMeters>
          </Trackpoint>
          <Trackpoint>
            <Time>2018-08-26T06:09:45.000Z</Time>
            <Position>
              <LatitudeDegrees>42.81826847232878208160400390625</LatitudeDegrees>
              <LongitudeDegrees>-1.7211158573627471923828125</LongitudeDegrees>
            </Position>
            <AltitudeMeters>394.600006103515625</AltitudeMeters>
            <DistanceMeters>11259.640769779</DistanceMeters>
          </Trackpoint>
          <Trackpoint>
            <Time>2018-08-26T06:09:46.000Z</Time>
            <Position>
              <LatitudeDegrees>42.81827752478420734405517578125</LatitudeDegrees>
              <LongitudeDegrees>-1.7212189547717571258544921875</LongitudeDegrees>
            </Position>
            <AltitudeMeters>394.20001220703125</AltitudeMeters>
            <DistanceMeters>11268.117877089</DistanceMeters>
          </Trackpoint>
          <Trackpoint>
            <Time>2018-08-26T06:09:47.000Z</Time>
            <Position>
              <LatitudeDegrees>42.81828691251575946807861328125</LatitudeDegrees>
              <LongitudeDegrees>-1.7213215492665767669677734375</LongitudeDegrees>
            </Position>
            <AltitudeMeters>394</AltitudeMeters>
            <DistanceMeters>11276.558688847</DistanceMeters>
          </Trackpoint>
          <Trackpoint>
            <Time>2018-08-26T06:09:48.000Z</Time>
            <Position>
              <LatitudeDegrees>42.818296886980533599853515625</LatitudeDegrees>
              <LongitudeDegrees>-1.72142498195171356201171875</LongitudeDegrees>
            </Position>
            <AltitudeMeters>393.79998779296875</AltitudeMeters>
            <DistanceMeters>11285.075648638</DistanceMeters>
          </Trackpoint>
          <Trackpoint>
            <Time>2018-08-26T06:09:49.000Z</Time>
            <Position>
              <LatitudeDegrees>42.81830853782594203948974609375</LatitudeDegrees>
              <LongitudeDegrees>-1.72152824699878692626953125</LongitudeDegrees>
            </Position>
            <AltitudeMeters>393.79998779296875</AltitudeMeters>
            <DistanceMeters>11293.605851213</DistanceMeters>
          </Trackpoint>
          <Trackpoint>
            <Time>2018-08-26T06:09:50.000Z</Time>
            <Position>
              <LatitudeDegrees>42.81832178123295307159423828125</LatitudeDegrees>
              <LongitudeDegrees>-1.72163059003651142120361328125</LongitudeDegrees>
            </Position>
            <AltitudeMeters>393.600006103515625</AltitudeMeters>
            <DistanceMeters>11302.090411863</DistanceMeters>
          </Trackpoint>
          <Trackpoint>
            <Time>2018-08-26T06:09:51.000Z</Time>
            <Position>
              <LatitudeDegrees>42.81833519227802753448486328125</LatitudeDegrees>
              <LongitudeDegrees>-1.72173234634101390838623046875</LongitudeDegrees>
            </Position>
            <AltitudeMeters>393.600006103515625</AltitudeMeters>
            <DistanceMeters>11310.531223621</DistanceMeters>
          </Trackpoint>
          <Trackpoint>
            <Time>2018-08-26T06:09:52.000Z</Time>
            <Position>
              <LatitudeDegrees>42.8183496929705142974853515625</LatitudeDegrees>
              <LongitudeDegrees>-1.721833012998104095458984375</LongitudeDegrees>
            </Position>
            <AltitudeMeters>393.600006103515625</AltitudeMeters>
            <DistanceMeters>11318.90652265</DistanceMeters>
          </Trackpoint>
          <Trackpoint>
            <Time>2018-08-26T06:09:53.000Z</Time>
            <Position>
              <LatitudeDegrees>42.81836503185331821441650390625</LatitudeDegrees>
              <LongitudeDegrees>-1.72193351201713085174560546875</LongitudeDegrees>
            </Position>
            <AltitudeMeters>393.600006103515625</AltitudeMeters>
            <DistanceMeters>11327.286672082</DistanceMeters>
          </Trackpoint>
          <Trackpoint>
            <Time>2018-08-26T06:09:54.000Z</Time>
            <Position>
              <LatitudeDegrees>42.8183810412883758544921875</LatitudeDegrees>
              <LongitudeDegrees>-1.7220333404839038848876953125</LongitudeDegrees>
            </Position>
            <AltitudeMeters>393.600006103515625</AltitudeMeters>
            <DistanceMeters>11335.629563021</DistanceMeters>
          </Trackpoint>
          <Trackpoint>
            <Time>2018-08-26T06:09:55.000Z</Time>
            <Position>
              <LatitudeDegrees>42.81839688308537006378173828125</LatitudeDegrees>
              <LongitudeDegrees>-1.72213166020810604095458984375</LongitudeDegrees>
            </Position>
            <AltitudeMeters>393.399993896484375</AltitudeMeters>
            <DistanceMeters>11343.848137825</DistanceMeters>
          </Trackpoint>
          <Trackpoint>
            <Time>2018-08-26T06:09:56.000Z</Time>
            <Position>
              <LatitudeDegrees>42.81841247342526912689208984375</LatitudeDegrees>
              <LongitudeDegrees>-1.72222889028489589691162109375</LongitudeDegrees>
            </Position>
            <AltitudeMeters>393.399993896484375</AltitudeMeters>
            <DistanceMeters>11351.973338677</DistanceMeters>
          </Trackpoint>
          <Trackpoint>
            <Time>2018-08-26T06:09:57.000Z</Time>
            <Position>
              <LatitudeDegrees>42.818427979946136474609375</LatitudeDegrees>
              <LongitudeDegrees>-1.72232528217136859893798828125</LongitudeDegrees>
            </Position>
            <AltitudeMeters>393.20001220703125</AltitudeMeters>
            <DistanceMeters>11360.029900566</DistanceMeters>
          </Trackpoint>
          <Trackpoint>
            <Time>2018-08-26T06:09:58.000Z</Time>
            <Position>
              <LatitudeDegrees>42.81844298355281352996826171875</LatitudeDegrees>
              <LongitudeDegrees>-1.7224219255149364471435546875</LongitudeDegrees>
            </Position>
            <AltitudeMeters>393.20001220703125</AltitudeMeters>
            <DistanceMeters>11368.094864337</DistanceMeters>
          </Trackpoint>
          <Trackpoint>
            <Time>2018-08-26T06:09:59.000Z</Time>
            <Position>
              <LatitudeDegrees>42.81845756806433200836181640625</LatitudeDegrees>
              <LongitudeDegrees>-1.72251798212528228759765625</LongitudeDegrees>
            </Position>
            <AltitudeMeters>393.20001220703125</AltitudeMeters>
            <DistanceMeters>11376.103085295</DistanceMeters>
          </Trackpoint>
          <Trackpoint>
            <Time>2018-08-26T06:10:00.000Z</Time>
            <Position>
              <LatitudeDegrees>42.8184727393090724945068359375</LatitudeDegrees>
              <LongitudeDegrees>-1.722613535821437835693359375</LongitudeDegrees>
            </Position>
            <AltitudeMeters>393.399993896484375</AltitudeMeters>
            <DistanceMeters>11384.084197951</DistanceMeters>
          </Trackpoint>
          <Trackpoint>
            <Time>2018-08-26T06:10:01.000Z</Time>
            <Position>
              <LatitudeDegrees>42.818488664925098419189453125</LatitudeDegrees>
              <LongitudeDegrees>-1.72270799987018108367919921875</LongitudeDegrees>
            </Position>
            <AltitudeMeters>393.399993896484375</AltitudeMeters>
            <DistanceMeters>11391.997704136</DistanceMeters>
          </Trackpoint>
          <Trackpoint>
            <Time>2018-08-26T06:10:02.000Z</Time>
            <Position>
              <LatitudeDegrees>42.81850467436015605926513671875</LatitudeDegrees>
              <LongitudeDegrees>-1.72280120663344860076904296875</LongitudeDegrees>
            </Position>
            <AltitudeMeters>393.399993896484375</AltitudeMeters>
            <DistanceMeters>11399.813037595</DistanceMeters>
          </Trackpoint>
          <Trackpoint>
            <Time>2018-08-26T06:10:03.000Z</Time>
            <Position>
              <LatitudeDegrees>42.8185205161571502685546875</LatitudeDegrees>
              <LongitudeDegrees>-1.722892820835113525390625</LongitudeDegrees>
            </Position>
            <AltitudeMeters>393.399993896484375</AltitudeMeters>
            <DistanceMeters>11407.497873308</DistanceMeters>
          </Trackpoint>
          <Trackpoint>
            <Time>2018-08-26T06:10:04.000Z</Time>
            <Position>
              <LatitudeDegrees>42.8185354359447956085205078125</LatitudeDegrees>
              <LongitudeDegrees>-1.72298309393227100372314453125</LongitudeDegrees>
            </Position>
            <AltitudeMeters>393.600006103515625</AltitudeMeters>
            <DistanceMeters>11415.052945326</DistanceMeters>
          </Trackpoint>
          <Trackpoint>
            <Time>2018-08-26T06:10:05.000Z</Time>
            <Position>
              <LatitudeDegrees>42.81854876317083835601806640625</LatitudeDegrees>
              <LongitudeDegrees>-1.7230720259249210357666015625</LongitudeDegrees>
            </Position>
            <AltitudeMeters>393.600006103515625</AltitudeMeters>
            <DistanceMeters>11422.463810656</DistanceMeters>
          </Trackpoint>
          <Trackpoint>
            <Time>2018-08-26T06:10:06.000Z</Time>
            <Position>
              <LatitudeDegrees>42.81856133602559566497802734375</LatitudeDegrees>
              <LongitudeDegrees>-1.72315961681306362152099609375</LongitudeDegrees>
            </Position>
            <AltitudeMeters>393.600006103515625</AltitudeMeters>
            <DistanceMeters>11429.75056916</DistanceMeters>
          </Trackpoint>
          <Trackpoint>
            <Time>2018-08-26T06:10:07.000Z</Time>
            <Position>
              <LatitudeDegrees>42.818577177822589874267578125</LatitudeDegrees>
              <LongitudeDegrees>-1.723244190216064453125</LongitudeDegrees>
            </Position>
            <AltitudeMeters>393.79998779296875</AltitudeMeters>
            <DistanceMeters>11436.876939198</DistanceMeters>
          </Trackpoint>
          <Trackpoint>
            <Time>2018-08-26T06:10:08.000Z</Time>
            <Position>
              <LatitudeDegrees>42.81860441900789737701416015625</LatitudeDegrees>
              <LongitudeDegrees>-1.72332054935395717620849609375</LongitudeDegrees>
            </Position>
            <AltitudeMeters>393.79998779296875</AltitudeMeters>
            <DistanceMeters>11443.809331774</DistanceMeters>
          </Trackpoint>
          <Trackpoint>
            <Time>2018-08-26T06:10:09.000Z</Time>
            <Position>
              <LatitudeDegrees>42.8186474181711673736572265625</LatitudeDegrees>
              <LongitudeDegrees>-1.7233791388571262359619140625</LongitudeDegrees>
            </Position>
            <AltitudeMeters>393.79998779296875</AltitudeMeters>
            <DistanceMeters>11450.575607528</DistanceMeters>
          </Trackpoint>
          <Trackpoint>
            <Time>2018-08-26T06:10:10.000Z</Time>
            <Position>
              <LatitudeDegrees>42.81869980506598949432373046875</LatitudeDegrees>
              <LongitudeDegrees>-1.7234145104885101318359375</LongitudeDegrees>
            </Position>
            <AltitudeMeters>393.79998779296875</AltitudeMeters>
            <DistanceMeters>11457.081988885</DistanceMeters>
          </Trackpoint>
          <Trackpoint>
            <Time>2018-08-26T06:10:11.000Z</Time>
            <Position>
              <LatitudeDegrees>42.81876149587333202362060546875</LatitudeDegrees>
              <LongitudeDegrees>-1.72342264093458652496337890625</LongitudeDegrees>
            </Position>
            <AltitudeMeters>393.79998779296875</AltitudeMeters>
            <DistanceMeters>11463.980430945</DistanceMeters>
          </Trackpoint>
          <Trackpoint>
            <Time>2018-08-26T06:10:12.000Z</Time>
            <Position>
              <LatitudeDegrees>42.81882293522357940673828125</LatitudeDegrees>
              <LongitudeDegrees>-1.72340621240437030792236328125</LongitudeDegrees>
            </Position>
            <AltitudeMeters>394</AltitudeMeters>
            <DistanceMeters>11470.949200644</DistanceMeters>
          </Trackpoint>
          <Trackpoint>
            <Time>2018-08-26T06:10:13.000Z</Time>
            <Position>
              <LatitudeDegrees>42.81888169236481189727783203125</LatitudeDegrees>
              <LongitudeDegrees>-1.7233757860958576202392578125</LongitudeDegrees>
            </Position>
            <AltitudeMeters>394</AltitudeMeters>
            <DistanceMeters>11477.945129055</DistanceMeters>
          </Trackpoint>
          <Trackpoint>
            <Time>2018-08-26T06:10:14.000Z</Time>
            <Position>
              <LatitudeDegrees>42.81893692910671234130859375</LatitudeDegrees>
              <LongitudeDegrees>-1.723342426121234893798828125</LongitudeDegrees>
            </Position>
            <AltitudeMeters>394</AltitudeMeters>
            <DistanceMeters>11484.669905842</DistanceMeters>
          </Trackpoint>
          <Trackpoint>
            <Time>2018-08-26T06:10:15.000Z</Time>
            <Position>
              <LatitudeDegrees>42.8189899027347564697265625</LatitudeDegrees>
              <LongitudeDegrees>-1.72330847941339015960693359375</LongitudeDegrees>
            </Position>
            <AltitudeMeters>394.20001220703125</AltitudeMeters>
            <DistanceMeters>11491.184609157</DistanceMeters>
          </Trackpoint>
          <Trackpoint>
            <Time>2018-08-26T06:10:16.000Z</Time>
            <Position>
              <LatitudeDegrees>42.8190427087247371673583984375</LatitudeDegrees>
              <LongitudeDegrees>-1.72327109612524509429931640625</LongitudeDegrees>
            </Position>
            <AltitudeMeters>394.20001220703125</AltitudeMeters>
            <DistanceMeters>11497.806546276</DistanceMeters>
          </Trackpoint>
          <Trackpoint>
            <Time>2018-08-26T06:10:17.000Z</Time>
            <Position>
              <LatitudeDegrees>42.81909509561955928802490234375</LatitudeDegrees>
              <LongitudeDegrees>-1.7232321202754974365234375</LongitudeDegrees>
            </Position>
            <AltitudeMeters>394.20001220703125</AltitudeMeters>
            <DistanceMeters>11504.448227045</DistanceMeters>
          </Trackpoint>
          <Trackpoint>
            <Time>2018-08-26T06:10:18.000Z</Time>
            <Position>
              <LatitudeDegrees>42.8191481530666351318359375</LatitudeDegrees>
              <LongitudeDegrees>-1.72319515608251094818115234375</LongitudeDegrees>
            </Position>
            <AltitudeMeters>394.399993896484375</AltitudeMeters>
            <DistanceMeters>11511.07970292</DistanceMeters>
          </Trackpoint>
          <Trackpoint>
            <Time>2018-08-26T06:10:19.000Z</Time>
            <Position>
              <LatitudeDegrees>42.819200120866298675537109375</LatitudeDegrees>
              <LongitudeDegrees>-1.723158694803714752197265625</LongitudeDegrees>
            </Position>
            <AltitudeMeters>394.399993896484375</AltitudeMeters>
            <DistanceMeters>11517.584696249</DistanceMeters>
          </Trackpoint>
          <Trackpoint>
            <Time>2018-08-26T06:10:20.000Z</Time>
            <Position>
              <LatitudeDegrees>42.81925074756145477294921875</LatitudeDegrees>
              <LongitudeDegrees>-1.7231248319149017333984375</LongitudeDegrees>
            </Position>
            <AltitudeMeters>394.399993896484375</AltitudeMeters>
            <DistanceMeters>11523.860777307</DistanceMeters>
          </Trackpoint>
          <Trackpoint>
            <Time>2018-08-26T06:10:21.000Z</Time>
            <Position>
              <LatitudeDegrees>42.81930028460919857025146484375</LatitudeDegrees>
              <LongitudeDegrees>-1.72309331595897674560546875</LongitudeDegrees>
            </Position>
            <AltitudeMeters>394.600006103515625</AltitudeMeters>
            <DistanceMeters>11529.944713808</DistanceMeters>
          </Trackpoint>
          <Trackpoint>
            <Time>2018-08-26T06:10:22.000Z</Time>
            <Position>
              <LatitudeDegrees>42.81935107894241809844970703125</LatitudeDegrees>
              <LongitudeDegrees>-1.7230618000030517578125</LongitudeDegrees>
            </Position>
            <AltitudeMeters>394.79998779296875</AltitudeMeters>
            <DistanceMeters>11536.155711036</DistanceMeters>
          </Trackpoint>
          <Trackpoint>
            <Time>2018-08-26T06:10:23.000Z</Time>
            <Position>
              <LatitudeDegrees>42.8194021247327327728271484375</LatitudeDegrees>
              <LongitudeDegrees>-1.72303296625614166259765625</LongitudeDegrees>
            </Position>
            <AltitudeMeters>395</AltitudeMeters>
            <DistanceMeters>11542.306076084</DistanceMeters>
          </Trackpoint>
          <Trackpoint>
            <Time>2018-08-26T06:10:24.000Z</Time>
            <Position>
              <LatitudeDegrees>42.8194547630846500396728515625</LatitudeDegrees>
              <LongitudeDegrees>-1.723008491098880767822265625</LongitudeDegrees>
            </Position>
            <AltitudeMeters>395.20001220703125</AltitudeMeters>
            <DistanceMeters>11548.496685459</DistanceMeters>
          </Trackpoint>
          <Trackpoint>
            <Time>2018-08-26T06:10:25.000Z</Time>
            <Position>
              <LatitudeDegrees>42.8195067308843135833740234375</LatitudeDegrees>
              <LongitudeDegrees>-1.722988374531269073486328125</LongitudeDegrees>
            </Position>
            <AltitudeMeters>395.399993896484375</AltitudeMeters>
            <DistanceMeters>11554.509706836</DistanceMeters>
          </Trackpoint>
          <Trackpoint>
            <Time>2018-08-26T06:10:26.000Z</Time>
            <Position>
              <LatitudeDegrees>42.81956045888364315032958984375</LatitudeDegrees>
              <LongitudeDegrees>-1.72297303564846515655517578125</LongitudeDegrees>
            </Position>
            <AltitudeMeters>395.79998779296875</AltitudeMeters>
            <DistanceMeters>11560.619562482</DistanceMeters>
          </Trackpoint>
          <Trackpoint>
            <Time>2018-08-26T06:10:27.000Z</Time>
            <Position>
              <LatitudeDegrees>42.81961326487362384796142578125</LatitudeDegrees>
              <LongitudeDegrees>-1.7229633964598178863525390625</LongitudeDegrees>
            </Position>
            <AltitudeMeters>396</AltitudeMeters>
            <DistanceMeters>11566.547889187</DistanceMeters>
          </Trackpoint>
          <Trackpoint>
            <Time>2018-08-26T06:10:28.000Z</Time>
            <Position>
              <LatitudeDegrees>42.81966472975909709930419921875</LatitudeDegrees>
              <LongitudeDegrees>-1.72296079806983470916748046875</LongitudeDegrees>
            </Position>
            <AltitudeMeters>396.20001220703125</AltitudeMeters>
            <DistanceMeters>11572.27950485</DistanceMeters>
          </Trackpoint>
          <Trackpoint>
            <Time>2018-08-26T06:10:29.000Z</Time>
            <Position>
              <LatitudeDegrees>42.81971485354006290435791015625</LatitudeDegrees>
              <LongitudeDegrees>-1.72296398319303989410400390625</LongitudeDegrees>
            </Position>
            <AltitudeMeters>396.399993896484375</AltitudeMeters>
            <DistanceMeters>11577.86429527</DistanceMeters>
          </Trackpoint>
          <Trackpoint>
            <Time>2018-08-26T06:10:30.000Z</Time>
            <Position>
              <LatitudeDegrees>42.81976195983588695526123046875</LatitudeDegrees>
              <LongitudeDegrees>-1.72297152690589427947998046875</LongitudeDegrees>
            </Position>
            <AltitudeMeters>396.600006103515625</AltitudeMeters>
            <DistanceMeters>11583.144053406</DistanceMeters>
          </Trackpoint>
          <Trackpoint>
            <Time>2018-08-26T06:10:31.000Z</Time>
            <Position>
              <LatitudeDegrees>42.81980671919882297515869140625</LatitudeDegrees>
              <LongitudeDegrees>-1.72298141755163669586181640625</LongitudeDegrees>
            </Position>
            <AltitudeMeters>396.600006103515625</AltitudeMeters>
            <DistanceMeters>11588.191215545</DistanceMeters>
          </Trackpoint>
          <Trackpoint>
            <Time>2018-08-26T06:10:32.000Z</Time>
            <Position>
              <LatitudeDegrees>42.81985080800950527191162109375</LatitudeDegrees>
              <LongitudeDegrees>-1.72299432568252086639404296875</LongitudeDegrees>
            </Position>
            <AltitudeMeters>396.79998779296875</AltitudeMeters>
            <DistanceMeters>11593.210569415</DistanceMeters>
          </Trackpoint>
          <Trackpoint>
            <Time>2018-08-26T06:10:33.000Z</Time>
            <Position>
              <LatitudeDegrees>42.81989506445825099945068359375</LatitudeDegrees>
              <LongitudeDegrees>-1.72300874255597591400146484375</LongitudeDegrees>
            </Position>
            <AltitudeMeters>397.20001220703125</AltitudeMeters>
            <DistanceMeters>11598.274699854</DistanceMeters>
          </Trackpoint>
          <Trackpoint>
            <Time>2018-08-26T06:10:34.000Z</Time>
            <Position>
              <LatitudeDegrees>42.81994007527828216552734375</LatitudeDegrees>
              <LongitudeDegrees>-1.72302315942943096160888671875</LongitudeDegrees>
            </Position>
            <AltitudeMeters>397.600006103515625</AltitudeMeters>
            <DistanceMeters>11603.420201203</DistanceMeters>
          </Trackpoint>
          <Trackpoint>
            <Time>2018-08-26T06:10:35.000Z</Time>
            <Position>
              <LatitudeDegrees>42.8199851699173450469970703125</LatitudeDegrees>
              <LongitudeDegrees>-1.72303690575063228607177734375</LongitudeDegrees>
            </Position>
            <AltitudeMeters>397.79998779296875</AltitudeMeters>
            <DistanceMeters>11608.562191463</DistanceMeters>
          </Trackpoint>
          <Trackpoint>
            <Time>2018-08-26T06:10:36.000Z</Time>
            <Position>
              <LatitudeDegrees>42.820030935108661651611328125</LatitudeDegrees>
              <LongitudeDegrees>-1.7230498977005481719970703125</LongitudeDegrees>
            </Position>
            <AltitudeMeters>398.20001220703125</AltitudeMeters>
            <DistanceMeters>11613.765283733</DistanceMeters>
          </Trackpoint>
          <Trackpoint>
            <Time>2018-08-26T06:10:37.000Z</Time>
            <Position>
              <LatitudeDegrees>42.82007661648094654083251953125</LatitudeDegrees>
              <LongitudeDegrees>-1.723063476383686065673828125</LongitudeDegrees>
            </Position>
            <AltitudeMeters>398.600006103515625</AltitudeMeters>
            <DistanceMeters>11618.969243692</DistanceMeters>
          </Trackpoint>
          <Trackpoint>
            <Time>2018-08-26T06:10:38.000Z</Time>
            <Position>
              <LatitudeDegrees>42.8201229684054851531982421875</LatitudeDegrees>
              <LongitudeDegrees>-1.72307697124779224395751953125</LongitudeDegrees>
            </Position>
            <AltitudeMeters>399</AltitudeMeters>
            <DistanceMeters>11624.244724296</DistanceMeters>
          </Trackpoint>
          <Trackpoint>
            <Time>2018-08-26T06:10:39.000Z</Time>
            <Position>
              <LatitudeDegrees>42.820169739425182342529296875</LatitudeDegrees>
              <LongitudeDegrees>-1.72309071756899356842041015625</LongitudeDegrees>
            </Position>
            <AltitudeMeters>399.399993896484375</AltitudeMeters>
            <DistanceMeters>11629.569613031</DistanceMeters>
          </Trackpoint>
          <Trackpoint>
            <Time>2018-08-26T06:10:40.000Z</Time>
            <Position>
              <LatitudeDegrees>42.82021726481616497039794921875</LatitudeDegrees>
              <LongitudeDegrees>-1.723105050623416900634765625</LongitudeDegrees>
            </Position>
            <AltitudeMeters>399.600006103515625</AltitudeMeters>
            <DistanceMeters>11634.986969253</DistanceMeters>
          </Trackpoint>
          <Trackpoint>
            <Time>2018-08-26T06:10:41.000Z</Time>
            <Position>
              <LatitudeDegrees>42.82026537694036960601806640625</LatitudeDegrees>
              <LongitudeDegrees>-1.72311888076364994049072265625</LongitudeDegrees>
            </Position>
            <AltitudeMeters>399.79998779296875</AltitudeMeters>
            <DistanceMeters>11640.459056011</DistanceMeters>
          </Trackpoint>
          <Trackpoint>
            <Time>2018-08-26T06:10:42.000Z</Time>
            <Position>
              <LatitudeDegrees>42.82031281851232051849365234375</LatitudeDegrees>
              <LongitudeDegrees>-1.72313229180872440338134765625</LongitudeDegrees>
            </Position>
            <AltitudeMeters>400.20001220703125</AltitudeMeters>
            <DistanceMeters>11645.851351084</DistanceMeters>
          </Trackpoint>
          <Trackpoint>
            <Time>2018-08-26T06:10:43.000Z</Time>
            <Position>
              <LatitudeDegrees>42.82035984098911285400390625</LatitudeDegrees>
              <LongitudeDegrees>-1.72314603812992572784423828125</LongitudeDegrees>
            </Position>
            <AltitudeMeters>400.20001220703125</AltitudeMeters>
            <DistanceMeters>11651.20330423</DistanceMeters>
          </Trackpoint>
          <Trackpoint>
            <Time>2018-08-26T06:10:44.000Z</Time>
            <Position>
              <LatitudeDegrees>42.82040703110396862030029296875</LatitudeDegrees>
              <LongitudeDegrees>-1.723159365355968475341796875</LongitudeDegrees>
            </Position>
            <AltitudeMeters>400.399993896484375</AltitudeMeters>
            <DistanceMeters>11656.567055115</DistanceMeters>
          </Trackpoint>
          <Trackpoint>
            <Time>2018-08-26T06:10:45.000Z</Time>
            <Position>
              <LatitudeDegrees>42.8204538859426975250244140625</LatitudeDegrees>
              <LongitudeDegrees>-1.72317302785813808441162109375</LongitudeDegrees>
            </Position>
            <AltitudeMeters>400.600006103515625</AltitudeMeters>
            <DistanceMeters>11661.900416231</DistanceMeters>
          </Trackpoint>
          <Trackpoint>
            <Time>2018-08-26T06:10:46.000Z</Time>
            <Position>
              <LatitudeDegrees>42.82050090841948986053466796875</LatitudeDegrees>
              <LongitudeDegrees>-1.7231865227222442626953125</LongitudeDegrees>
            </Position>
            <AltitudeMeters>400.79998779296875</AltitudeMeters>
            <DistanceMeters>11667.248993815</DistanceMeters>
          </Trackpoint>
          <Trackpoint>
            <Time>2018-08-26T06:10:47.000Z</Time>
            <Position>
              <LatitudeDegrees>42.8205482661724090576171875</LatitudeDegrees>
              <LongitudeDegrees>-1.7232004366815090179443359375</LongitudeDegrees>
            </Position>
            <AltitudeMeters>401</AltitudeMeters>
            <DistanceMeters>11672.641288888</DistanceMeters>
          </Trackpoint>
          <Trackpoint>
            <Time>2018-08-26T06:10:48.000Z</Time>
            <Position>
              <LatitudeDegrees>42.8205963782966136932373046875</LatitudeDegrees>
              <LongitudeDegrees>-1.72321426682174205780029296875</LongitudeDegrees>
            </Position>
            <AltitudeMeters>401.20001220703125</AltitudeMeters>
            <DistanceMeters>11678.113375646</DistanceMeters>
          </Trackpoint>
          <Trackpoint>
            <Time>2018-08-26T06:10:49.000Z</Time>
            <Position>
              <LatitudeDegrees>42.82064457423985004425048828125</LatitudeDegrees>
              <LongitudeDegrees>-1.7232282646000385284423828125</LongitudeDegrees>
            </Position>
            <AltitudeMeters>401.399993896484375</AltitudeMeters>
            <DistanceMeters>11683.598648174</DistanceMeters>
          </Trackpoint>
          <Trackpoint>
            <Time>2018-08-26T06:10:50.000Z</Time>
            <Position>
              <LatitudeDegrees>42.8206929378211498260498046875</LatitudeDegrees>
              <LongitudeDegrees>-1.72324259765446186065673828125</LongitudeDegrees>
            </Position>
            <AltitudeMeters>401.600006103515625</AltitudeMeters>
            <DistanceMeters>11689.107739472</DistanceMeters>
          </Trackpoint>
          <Trackpoint>
            <Time>2018-08-26T06:10:51.000Z</Time>
            <Position>
              <LatitudeDegrees>42.820741720497608184814453125</LatitudeDegrees>
              <LongitudeDegrees>-1.72325768508017063140869140625</LongitudeDegrees>
            </Position>
            <AltitudeMeters>401.600006103515625</AltitudeMeters>
            <DistanceMeters>11694.674715524</DistanceMeters>
          </Trackpoint>
          <Trackpoint>
            <Time>2018-08-26T06:10:52.000Z</Time>
            <Position>
              <LatitudeDegrees>42.8207905031740665435791015625</LatitudeDegrees>
              <LongitudeDegrees>-1.72327243722975254058837890625</LongitudeDegrees>
            </Position>
            <AltitudeMeters>401.79998779296875</AltitudeMeters>
            <DistanceMeters>11700.236823208</DistanceMeters>
          </Trackpoint>
          <Trackpoint>
            <Time>2018-08-26T06:10:53.000Z</Time>
            <Position>
              <LatitudeDegrees>42.820836603641510009765625</LatitudeDegrees>
              <LongitudeDegrees>-1.72328718937933444976806640625</LongitudeDegrees>
            </Position>
            <AltitudeMeters>402</AltitudeMeters>
            <DistanceMeters>11705.508022808</DistanceMeters>
          </Trackpoint>
          <Trackpoint>
            <Time>2018-08-26T06:10:54.000Z</Time>
            <Position>
              <LatitudeDegrees>42.8208830393850803375244140625</LatitudeDegrees>
              <LongitudeDegrees>-1.72330118715763092041015625</LongitudeDegrees>
            </Position>
            <AltitudeMeters>402.20001220703125</AltitudeMeters>
            <DistanceMeters>11710.801445822</DistanceMeters>
          </Trackpoint>
          <Trackpoint>
            <Time>2018-08-26T06:10:55.000Z</Time>
            <Position>
              <LatitudeDegrees>42.82092838548123836517333984375</LatitudeDegrees>
              <LongitudeDegrees>-1.72331568785011768341064453125</LongitudeDegrees>
            </Position>
            <AltitudeMeters>402.399993896484375</AltitudeMeters>
            <DistanceMeters>11715.985412208</DistanceMeters>
          </Trackpoint>
          <Trackpoint>
            <Time>2018-08-26T06:10:56.000Z</Time>
            <Position>
              <LatitudeDegrees>42.820973731577396392822265625</LatitudeDegrees>
              <LongitudeDegrees>-1.72333069145679473876953125</LongitudeDegrees>
            </Position>
            <AltitudeMeters>402.600006103515625</AltitudeMeters>
            <DistanceMeters>11721.178950341</DistanceMeters>
          </Trackpoint>
          <Trackpoint>
            <Time>2018-08-26T06:10:57.000Z</Time>
            <Position>
              <LatitudeDegrees>42.82102041877806186676025390625</LatitudeDegrees>
              <LongitudeDegrees>-1.72334586270153522491455078125</LongitudeDegrees>
            </Position>
            <AltitudeMeters>402.79998779296875</AltitudeMeters>
            <DistanceMeters>11726.520770402</DistanceMeters>
          </Trackpoint>
          <Trackpoint>
            <Time>2018-08-26T06:10:58.000Z</Time>
            <Position>
              <LatitudeDegrees>42.821067608892917633056640625</LatitudeDegrees>
              <LongitudeDegrees>-1.72336162067949771881103515625</LongitudeDegrees>
            </Position>
            <AltitudeMeters>403</AltitudeMeters>
            <DistanceMeters>11731.928116103</DistanceMeters>
          </Trackpoint>
          <Trackpoint>
            <Time>2018-08-26T06:10:59.000Z</Time>
            <Position>
              <LatitudeDegrees>42.821115553379058837890625</LatitudeDegrees>
              <LongitudeDegrees>-1.7233777977526187896728515625</LongitudeDegrees>
            </Position>
            <AltitudeMeters>403.20001220703125</AltitudeMeters>
            <DistanceMeters>11737.424900234</DistanceMeters>
          </Trackpoint>
          <Trackpoint>
            <Time>2018-08-26T06:11:00.000Z</Time>
            <Position>
              <LatitudeDegrees>42.82116374932229518890380859375</LatitudeDegrees>
              <LongitudeDegrees>-1.723394058644771575927734375</LongitudeDegrees>
            </Position>
            <AltitudeMeters>403.399993896484375</AltitudeMeters>
            <DistanceMeters>11742.951175519</DistanceMeters>
          </Trackpoint>
          <Trackpoint>
            <Time>2018-08-26T06:11:01.000Z</Time>
            <Position>
              <LatitudeDegrees>42.821212112903594970703125</LatitudeDegrees>
              <LongitudeDegrees>-1.7234119959175586700439453125</LongitudeDegrees>
            </Position>
            <AltitudeMeters>403.600006103515625</AltitudeMeters>
            <DistanceMeters>11748.52949457</DistanceMeters>
          </Trackpoint>
          <Trackpoint>
            <Time>2018-08-26T06:11:02.000Z</Time>
            <Position>
              <LatitudeDegrees>42.82126047648489475250244140625</LatitudeDegrees>
              <LongitudeDegrees>-1.72343135811388492584228515625</LongitudeDegrees>
            </Position>
            <AltitudeMeters>404</AltitudeMeters>
            <DistanceMeters>11754.140095828</DistanceMeters>
          </Trackpoint>
          <Trackpoint>
            <Time>2018-08-26T06:11:03.000Z</Time>
            <Position>
              <LatitudeDegrees>42.82130842097103595733642578125</LatitudeDegrees>
              <LongitudeDegrees>-1.72345147468149662017822265625</LongitudeDegrees>
            </Position>
            <AltitudeMeters>404.20001220703125</AltitudeMeters>
            <DistanceMeters>11759.724077737</DistanceMeters>
          </Trackpoint>
          <Trackpoint>
            <Time>2018-08-26T06:11:04.000Z</Time>
            <Position>
              <LatitudeDegrees>42.821355275809764862060546875</LatitudeDegrees>
              <LongitudeDegrees>-1.7234730161726474761962890625</LongitudeDegrees>
            </Position>
            <AltitudeMeters>404.399993896484375</AltitudeMeters>
            <DistanceMeters>11765.228249471</DistanceMeters>
          </Trackpoint>
          <Trackpoint>
            <Time>2018-08-26T06:11:05.000Z</Time>
            <Position>
              <LatitudeDegrees>42.8214020468294620513916015625</LatitudeDegrees>
              <LongitudeDegrees>-1.7234968207776546478271484375</LongitudeDegrees>
            </Position>
            <AltitudeMeters>404.600006103515625</AltitudeMeters>
            <DistanceMeters>11770.784672003</DistanceMeters>
          </Trackpoint>
          <Trackpoint>
            <Time>2018-08-26T06:11:06.000Z</Time>
            <Position>
              <LatitudeDegrees>42.8214479796588420867919921875</LatitudeDegrees>
              <LongitudeDegrees>-1.72352355904877185821533203125</LongitudeDegrees>
            </Position>
            <AltitudeMeters>404.79998779296875</AltitudeMeters>
            <DistanceMeters>11776.344343906</DistanceMeters>
          </Trackpoint>
          <Trackpoint>
            <Time>2018-08-26T06:11:07.000Z</Time>
            <Position>
              <LatitudeDegrees>42.82149366103112697601318359375</LatitudeDegrees>
              <LongitudeDegrees>-1.7235534824430942535400390625</LongitudeDegrees>
            </Position>
            <AltitudeMeters>405</AltitudeMeters>
            <DistanceMeters>11781.985442149</DistanceMeters>
          </Trackpoint>
          <Trackpoint>
            <Time>2018-08-26T06:11:08.000Z</Time>
            <Position>
              <LatitudeDegrees>42.821539677679538726806640625</LatitudeDegrees>
              <LongitudeDegrees>-1.7235853336751461029052734375</LongitudeDegrees>
            </Position>
            <AltitudeMeters>405.20001220703125</AltitudeMeters>
            <DistanceMeters>11787.729647867</DistanceMeters>
          </Trackpoint>
          <Trackpoint>
            <Time>2018-08-26T06:11:09.000Z</Time>
            <Position>
              <LatitudeDegrees>42.82158670015633106231689453125</LatitudeDegrees>
              <LongitudeDegrees>-1.72361743636429309844970703125</LongitudeDegrees>
            </Position>
            <AltitudeMeters>405.399993896484375</AltitudeMeters>
            <DistanceMeters>11793.582861517</DistanceMeters>
          </Trackpoint>
          <Trackpoint>
            <Time>2018-08-26T06:11:10.000Z</Time>
            <Position>
              <LatitudeDegrees>42.82163330353796482086181640625</LatitudeDegrees>
              <LongitudeDegrees>-1.7236490361392498016357421875</LongitudeDegrees>
            </Position>
            <AltitudeMeters>405.399993896484375</AltitudeMeters>
            <DistanceMeters>11799.375595247</DistanceMeters>
          </Trackpoint>
          <Trackpoint>
            <Time>2018-08-26T06:11:11.000Z</Time>
            <Position>
              <LatitudeDegrees>42.82167923636734485626220703125</LatitudeDegrees>
              <LongitudeDegrees>-1.72368046827614307403564453125</LongitudeDegrees>
            </Position>
            <AltitudeMeters>405.600006103515625</AltitudeMeters>
            <DistanceMeters>11805.096171881</DistanceMeters>
          </Trackpoint>
          <Trackpoint>
            <Time>2018-08-26T06:11:12.000Z</Time>
            <Position>
              <LatitudeDegrees>42.82172550447285175323486328125</LatitudeDegrees>
              <LongitudeDegrees>-1.7237117327749729156494140625</LongitudeDegrees>
            </Position>
            <AltitudeMeters>405.600006103515625</AltitudeMeters>
            <DistanceMeters>11810.842735163</DistanceMeters>
          </Trackpoint>
          <Trackpoint>
            <Time>2018-08-26T06:11:13.000Z</Time>
            <Position>
              <LatitudeDegrees>42.82177361659705638885498046875</LatitudeDegrees>
              <LongitudeDegrees>-1.7237429134547710418701171875</LongitudeDegrees>
            </Position>
            <AltitudeMeters>405.600006103515625</AltitudeMeters>
            <DistanceMeters>11816.772584881</DistanceMeters>
          </Trackpoint>
          <Trackpoint>
            <Time>2018-08-26T06:11:14.000Z</Time>
            <Position>
              <LatitudeDegrees>42.82182005234062671661376953125</LatitudeDegrees>
              <LongitudeDegrees>-1.72377484850585460662841796875</LongitudeDegrees>
            </Position>
            <AltitudeMeters>405.79998779296875</AltitudeMeters>
            <DistanceMeters>11822.562200046</DistanceMeters>
          </Trackpoint>
          <Trackpoint>
            <Time>2018-08-26T06:11:15.000Z</Time>
            <Position>
              <LatitudeDegrees>42.8218679130077362060546875</LatitudeDegrees>
              <LongitudeDegrees>-1.72380812466144561767578125</LongitudeDegrees>
            </Position>
            <AltitudeMeters>405.79998779296875</AltitudeMeters>
            <DistanceMeters>11828.541336492</DistanceMeters>
          </Trackpoint>
          <Trackpoint>
            <Time>2018-08-26T06:11:16.000Z</Time>
            <Position>
              <LatitudeDegrees>42.82191686332225799560546875</LatitudeDegrees>
              <LongitudeDegrees>-1.72384173609316349029541015625</LongitudeDegrees>
            </Position>
            <AltitudeMeters>405.79998779296875</AltitudeMeters>
            <DistanceMeters>11834.641577883</DistanceMeters>
          </Trackpoint>
          <Trackpoint>
            <Time>2018-08-26T06:11:17.000Z</Time>
            <Position>
              <LatitudeDegrees>42.821966148912906646728515625</LatitudeDegrees>
              <LongitudeDegrees>-1.72387517988681793212890625</LongitudeDegrees>
            </Position>
            <AltitudeMeters>405.79998779296875</AltitudeMeters>
            <DistanceMeters>11840.769143293</DistanceMeters>
          </Trackpoint>
          <Trackpoint>
            <Time>2018-08-26T06:11:18.000Z</Time>
            <Position>
              <LatitudeDegrees>42.82201551832258701324462890625</LatitudeDegrees>
              <LongitudeDegrees>-1.72390929423272609710693359375</LongitudeDegrees>
            </Position>
            <AltitudeMeters>405.79998779296875</AltitudeMeters>
            <DistanceMeters>11846.929777294</DistanceMeters>
          </Trackpoint>
          <Trackpoint>
            <Time>2018-08-26T06:11:19.000Z</Time>
            <Position>
              <LatitudeDegrees>42.82206463627517223358154296875</LatitudeDegrees>
              <LongitudeDegrees>-1.723943240940570831298828125</LongitudeDegrees>
            </Position>
            <AltitudeMeters>405.79998779296875</AltitudeMeters>
            <DistanceMeters>11853.058816208</DistanceMeters>
          </Trackpoint>
          <Trackpoint>
            <Time>2018-08-26T06:11:20.000Z</Time>
            <Position>
              <LatitudeDegrees>42.822113670408725738525390625</LatitudeDegrees>
              <LongitudeDegrees>-1.72397634945809841156005859375</LongitudeDegrees>
            </Position>
            <AltitudeMeters>405.79998779296875</AltitudeMeters>
            <DistanceMeters>11859.14868681</DistanceMeters>
          </Trackpoint>
          <Trackpoint>
            <Time>2018-08-26T06:11:21.000Z</Time>
            <Position>
              <LatitudeDegrees>42.82216287218034267425537109375</LatitudeDegrees>
              <LongitudeDegrees>-1.724008955061435699462890625</LongitudeDegrees>
            </Position>
            <AltitudeMeters>406</AltitudeMeters>
            <DistanceMeters>11865.237074429</DistanceMeters>
          </Trackpoint>
          <Trackpoint>
            <Time>2018-08-26T06:11:22.000Z</Time>
            <Position>
              <LatitudeDegrees>42.82221148721873760223388671875</LatitudeDegrees>
              <LongitudeDegrees>-1.72404055483639240264892578125</LongitudeDegrees>
            </Position>
            <AltitudeMeters>406</AltitudeMeters>
            <DistanceMeters>11871.230541214</DistanceMeters>
          </Trackpoint>
          <Trackpoint>
            <Time>2018-08-26T06:11:23.000Z</Time>
            <Position>
              <LatitudeDegrees>42.8222590126097202301025390625</LatitudeDegrees>
              <LongitudeDegrees>-1.724071986973285675048828125</LongitudeDegrees>
            </Position>
            <AltitudeMeters>406</AltitudeMeters>
            <DistanceMeters>11877.109923207</DistanceMeters>
          </Trackpoint>
          <Trackpoint>
            <Time>2018-08-26T06:11:24.000Z</Time>
            <Position>
              <LatitudeDegrees>42.822306118905544281005859375</LatitudeDegrees>
              <LongitudeDegrees>-1.7241033352911472320556640625</LongitudeDegrees>
            </Position>
            <AltitudeMeters>406.20001220703125</AltitudeMeters>
            <DistanceMeters>11882.944594423</DistanceMeters>
          </Trackpoint>
          <Trackpoint>
            <Time>2018-08-26T06:11:25.000Z</Time>
            <Position>
              <LatitudeDegrees>42.82235330902040004730224609375</LatitudeDegrees>
              <LongitudeDegrees>-1.7241346836090087890625</LongitudeDegrees>
            </Position>
            <AltitudeMeters>406.20001220703125</AltitudeMeters>
            <DistanceMeters>11888.786998805</DistanceMeters>
          </Trackpoint>
          <Trackpoint>
            <Time>2018-08-26T06:11:26.000Z</Time>
            <Position>
              <LatitudeDegrees>42.8224001638591289520263671875</LatitudeDegrees>
              <LongitudeDegrees>-1.72416594810783863067626953125</LongitudeDegrees>
            </Position>
            <AltitudeMeters>406.20001220703125</AltitudeMeters>
            <DistanceMeters>11894.592190041</DistanceMeters>
          </Trackpoint>
          <Trackpoint>
            <Time>2018-08-26T06:11:27.000Z</Time>
            <Position>
              <LatitudeDegrees>42.82244668342173099517822265625</LatitudeDegrees>
              <LongitudeDegrees>-1.72419796697795391082763671875</LongitudeDegrees>
            </Position>
            <AltitudeMeters>406.20001220703125</AltitudeMeters>
            <DistanceMeters>11900.392712847</DistanceMeters>
          </Trackpoint>
          <Trackpoint>
            <Time>2018-08-26T06:11:28.000Z</Time>
            <Position>
              <LatitudeDegrees>42.8224940411746501922607421875</LatitudeDegrees>
              <LongitudeDegrees>-1.72423057258129119873046875</LongitudeDegrees>
            </Position>
            <AltitudeMeters>406.399993896484375</AltitudeMeters>
            <DistanceMeters>11906.298147228</DistanceMeters>
          </Trackpoint>
          <Trackpoint>
            <Time>2018-08-26T06:11:29.000Z</Time>
            <Position>
              <LatitudeDegrees>42.82254123128950595855712890625</LatitudeDegrees>
              <LongitudeDegrees>-1.72426301054656505584716796875</LongitudeDegrees>
            </Position>
            <AltitudeMeters>406.399993896484375</AltitudeMeters>
            <DistanceMeters>11912.180600197</DistanceMeters>
          </Trackpoint>
          <Trackpoint>
            <Time>2018-08-26T06:11:30.000Z</Time>
            <Position>
              <LatitudeDegrees>42.82258884049952030181884765625</LatitudeDegrees>
              <LongitudeDegrees>-1.72429502941668033599853515625</LongitudeDegrees>
            </Position>
            <AltitudeMeters>406.399993896484375</AltitudeMeters>
            <DistanceMeters>11918.087563493</DistanceMeters>
          </Trackpoint>
          <Trackpoint>
            <Time>2018-08-26T06:11:31.000Z</Time>
            <Position>
              <LatitudeDegrees>42.8226368688046932220458984375</LatitudeDegrees>
              <LongitudeDegrees>-1.7243272997438907623291015625</LongitudeDegrees>
            </Position>
            <AltitudeMeters>406.600006103515625</AltitudeMeters>
            <DistanceMeters>11924.04627649</DistanceMeters>
          </Trackpoint>
          <Trackpoint>
            <Time>2018-08-26T06:11:32.000Z</Time>
            <Position>
              <LatitudeDegrees>42.822685651481151580810546875</LatitudeDegrees>
              <LongitudeDegrees>-1.72435973770916461944580078125</LongitudeDegrees>
            </Position>
            <AltitudeMeters>406.600006103515625</AltitudeMeters>
            <DistanceMeters>11930.087763806</DistanceMeters>
          </Trackpoint>
          <Trackpoint>
            <Time>2018-08-26T06:11:33.000Z</Time>
            <Position>
              <LatitudeDegrees>42.8227342665195465087890625</LatitudeDegrees>
              <LongitudeDegrees>-1.72439158894121646881103515625</LongitudeDegrees>
            </Position>
            <AltitudeMeters>406.79998779296875</AltitudeMeters>
            <DistanceMeters>11936.091015848</DistanceMeters>
          </Trackpoint>
          <Trackpoint>
            <Time>2018-08-26T06:11:34.000Z</Time>
            <Position>
              <LatitudeDegrees>42.8227825462818145751953125</LatitudeDegrees>
              <LongitudeDegrees>-1.7244230210781097412109375</LongitudeDegrees>
            </Position>
            <AltitudeMeters>406.79998779296875</AltitudeMeters>
            <DistanceMeters>11942.045939038</DistanceMeters>
          </Trackpoint>
          <Trackpoint>
            <Time>2018-08-26T06:11:35.000Z</Time>
            <Position>
              <LatitudeDegrees>42.82282990403473377227783203125</LatitudeDegrees>
              <LongitudeDegrees>-1.7244547046720981597900390625</LongitudeDegrees>
            </Position>
            <AltitudeMeters>406.79998779296875</AltitudeMeters>
            <DistanceMeters>11947.917636566</DistanceMeters>
          </Trackpoint>
          <Trackpoint>
            <Time>2018-08-26T06:11:36.000Z</Time>
            <Position>
              <LatitudeDegrees>42.822877429425716400146484375</LatitudeDegrees>
              <LongitudeDegrees>-1.72448630444705486297607421875</LongitudeDegrees>
            </Position>
            <AltitudeMeters>406.79998779296875</AltitudeMeters>
            <DistanceMeters>11953.803158908</DistanceMeters>
          </Trackpoint>
          <Trackpoint>
            <Time>2018-08-26T06:11:37.000Z</Time>
            <Position>
              <LatitudeDegrees>42.8229248709976673126220703125</LatitudeDegrees>
              <LongitudeDegrees>-1.72451756894588470458984375</LongitudeDegrees>
            </Position>
            <AltitudeMeters>407</AltitudeMeters>
            <DistanceMeters>11959.667161901</DistanceMeters>
          </Trackpoint>
          <Trackpoint>
            <Time>2018-08-26T06:11:38.000Z</Time>
            <Position>
              <LatitudeDegrees>42.822971977293491363525390625</LatitudeDegrees>
              <LongitudeDegrees>-1.72454883344471454620361328125</LongitudeDegrees>
            </Position>
            <AltitudeMeters>407</AltitudeMeters>
            <DistanceMeters>11965.498736979</DistanceMeters>
          </Trackpoint>
          <Trackpoint>
            <Time>2018-08-26T06:11:39.000Z</Time>
            <Position>
              <LatitudeDegrees>42.82302218489348888397216796875</LatitudeDegrees>
              <LongitudeDegrees>-1.7245797626674175262451171875</LongitudeDegrees>
            </Position>
            <AltitudeMeters>407.20001220703125</AltitudeMeters>
            <DistanceMeters>11971.630721838</DistanceMeters>
          </Trackpoint>
          <Trackpoint>
            <Time>2018-08-26T06:11:40.000Z</Time>
            <Position>
              <LatitudeDegrees>42.823071219027042388916015625</LatitudeDegrees>
              <LongitudeDegrees>-1.72461119480431079864501953125</LongitudeDegrees>
            </Position>
            <AltitudeMeters>407.20001220703125</AltitudeMeters>
            <DistanceMeters>11977.661737334</DistanceMeters>
          </Trackpoint>
          <Trackpoint>
            <Time>2018-08-26T06:11:41.000Z</Time>
            <Position>
              <LatitudeDegrees>42.82311874441802501678466796875</LatitudeDegrees>
              <LongitudeDegrees>-1.72464363276958465576171875</LongitudeDegrees>
            </Position>
            <AltitudeMeters>407.399993896484375</AltitudeMeters>
            <DistanceMeters>11983.577865823</DistanceMeters>
          </Trackpoint>
          <Trackpoint>
            <Time>2018-08-26T06:11:42.000Z</Time>
            <Position>
              <LatitudeDegrees>42.82316635362803936004638671875</LatitudeDegrees>
              <LongitudeDegrees>-1.72467581927776336669921875</LongitudeDegrees>
            </Position>
            <AltitudeMeters>407.399993896484375</AltitudeMeters>
            <DistanceMeters>11989.491704345</DistanceMeters>
          </Trackpoint>
          <Trackpoint>
            <Time>2018-08-26T06:11:43.000Z</Time>
            <Position>
              <LatitudeDegrees>42.8232135437428951263427734375</LatitudeDegrees>
              <LongitudeDegrees>-1.72470708377659320831298828125</LongitudeDegrees>
            </Position>
            <AltitudeMeters>407.79998779296875</AltitudeMeters>
            <DistanceMeters>11995.33101669</DistanceMeters>
          </Trackpoint>
          <Trackpoint>
            <Time>2018-08-26T06:11:44.000Z</Time>
            <Position>
              <LatitudeDegrees>42.823260314762592315673828125</LatitudeDegrees>
              <LongitudeDegrees>-1.7247368395328521728515625</LongitudeDegrees>
            </Position>
            <AltitudeMeters>408.20001220703125</AltitudeMeters>
            <DistanceMeters>12001.075222407</DistanceMeters>
          </Trackpoint>
          <Trackpoint>
            <Time>2018-08-26T06:11:45.000Z</Time>
            <Position>
              <LatitudeDegrees>42.8233057446777820587158203125</LatitudeDegrees>
              <LongitudeDegrees>-1.72476659528911113739013671875</LongitudeDegrees>
            </Position>
            <AltitudeMeters>408.600006103515625</AltitudeMeters>
            <DistanceMeters>12006.685823666</DistanceMeters>
          </Trackpoint>
          <Trackpoint>
            <Time>2018-08-26T06:11:46.000Z</Time>
            <Position>
              <LatitudeDegrees>42.82335058785974979400634765625</LatitudeDegrees>
              <LongitudeDegrees>-1.72479660250246524810791015625</LongitudeDegrees>
            </Position>
            <AltitudeMeters>408.600006103515625</AltitudeMeters>
            <DistanceMeters>12012.245495569</DistanceMeters>
          </Trackpoint>
          <Trackpoint>
            <Time>2018-08-26T06:11:47.000Z</Time>
            <Position>
              <LatitudeDegrees>42.8233962692320346832275390625</LatitudeDegrees>
              <LongitudeDegrees>-1.72482778318226337432861328125</LongitudeDegrees>
            </Position>
            <AltitudeMeters>408.79998779296875</AltitudeMeters>
            <DistanceMeters>12017.932826562</DistanceMeters>
          </Trackpoint>
          <Trackpoint>
            <Time>2018-08-26T06:11:48.000Z</Time>
            <Position>
              <LatitudeDegrees>42.8234423696994781494140625</LatitudeDegrees>
              <LongitudeDegrees>-1.7248600535094738006591796875</LongitudeDegrees>
            </Position>
            <AltitudeMeters>408.79998779296875</AltitudeMeters>
            <DistanceMeters>12023.701347316</DistanceMeters>
          </Trackpoint>
          <Trackpoint>
            <Time>2018-08-26T06:11:49.000Z</Time>
            <Position>
              <LatitudeDegrees>42.8234898112714290618896484375</LatitudeDegrees>
              <LongitudeDegrees>-1.72489282675087451934814453125</LongitudeDegrees>
            </Position>
            <AltitudeMeters>408.79998779296875</AltitudeMeters>
            <DistanceMeters>12029.620527716</DistanceMeters>
          </Trackpoint>
          <Trackpoint>
            <Time>2018-08-26T06:11:50.000Z</Time>
            <Position>
              <LatitudeDegrees>42.82353884540498256683349609375</LatitudeDegrees>
              <LongitudeDegrees>-1.72492618672549724578857421875</LongitudeDegrees>
            </Position>
            <AltitudeMeters>408.79998779296875</AltitudeMeters>
            <DistanceMeters>12035.719288645</DistanceMeters>
          </Trackpoint>
          <Trackpoint>
            <Time>2018-08-26T06:11:51.000Z</Time>
            <Position>
              <LatitudeDegrees>42.8235880471765995025634765625</LatitudeDegrees>
              <LongitudeDegrees>-1.72495954670011997222900390625</LongitudeDegrees>
            </Position>
            <AltitudeMeters>409</AltitudeMeters>
            <DistanceMeters>12041.835053244</DistanceMeters>
          </Trackpoint>
          <Trackpoint>
            <Time>2018-08-26T06:11:52.000Z</Time>
            <Position>
              <LatitudeDegrees>42.82363708131015300750732421875</LatitudeDegrees>
              <LongitudeDegrees>-1.7249921523034572601318359375</LongitudeDegrees>
            </Position>
            <AltitudeMeters>409</AltitudeMeters>
            <DistanceMeters>12047.90636052</DistanceMeters>
          </Trackpoint>
          <Trackpoint>
            <Time>2018-08-26T06:11:53.000Z</Time>
            <Position>
              <LatitudeDegrees>42.82368586398661136627197265625</LatitudeDegrees>
              <LongitudeDegrees>-1.7250238358974456787109375</LongitudeDegrees>
            </Position>
            <AltitudeMeters>409</AltitudeMeters>
            <DistanceMeters>12053.920883464</DistanceMeters>
          </Trackpoint>
          <Trackpoint>
            <Time>2018-08-26T06:11:54.000Z</Time>
            <Position>
              <LatitudeDegrees>42.82373548485338687896728515625</LatitudeDegrees>
              <LongitudeDegrees>-1.72505459748208522796630859375</LongitudeDegrees>
            </Position>
            <AltitudeMeters>409</AltitudeMeters>
            <DistanceMeters>12059.98772709</DistanceMeters>
          </Trackpoint>
          <Trackpoint>
            <Time>2018-08-26T06:11:55.000Z</Time>
            <Position>
              <LatitudeDegrees>42.82378426752984523773193359375</LatitudeDegrees>
              <LongitudeDegrees>-1.72508561052381992340087890625</LongitudeDegrees>
            </Position>
            <AltitudeMeters>409.20001220703125</AltitudeMeters>
            <DistanceMeters>12065.978933468</DistanceMeters>
          </Trackpoint>
          <Trackpoint>
            <Time>2018-08-26T06:11:56.000Z</Time>
            <Position>
              <LatitudeDegrees>42.82383330166339874267578125</LatitudeDegrees>
              <LongitudeDegrees>-1.72511762939393520355224609375</LongitudeDegrees>
            </Position>
            <AltitudeMeters>409.20001220703125</AltitudeMeters>
            <DistanceMeters>12072.029382204</DistanceMeters>
          </Trackpoint>
          <Trackpoint>
            <Time>2018-08-26T06:11:57.000Z</Time>
            <Position>
              <LatitudeDegrees>42.82388300634920597076416015625</LatitudeDegrees>
              <LongitudeDegrees>-1.7251490615308284759521484375</LongitudeDegrees>
            </Position>
            <AltitudeMeters>409.399993896484375</AltitudeMeters>
            <DistanceMeters>12078.127402767</DistanceMeters>
          </Trackpoint>
          <Trackpoint>
            <Time>2018-08-26T06:11:58.000Z</Time>
            <Position>
              <LatitudeDegrees>42.82393413595855236053466796875</LatitudeDegrees>
              <LongitudeDegrees>-1.72518049366772174835205078125</LongitudeDegrees>
            </Position>
            <AltitudeMeters>409.600006103515625</AltitudeMeters>
            <DistanceMeters>12084.368856907</DistanceMeters>
          </Trackpoint>
          <Trackpoint>
            <Time>2018-08-26T06:11:59.000Z</Time>
            <Position>
              <LatitudeDegrees>42.8239850141108036041259765625</LatitudeDegrees>
              <LongitudeDegrees>-1.7252117581665515899658203125</LongitudeDegrees>
            </Position>
            <AltitudeMeters>410</AltitudeMeters>
            <DistanceMeters>12090.579854135</DistanceMeters>
          </Trackpoint>
          <Trackpoint>
            <Time>2018-08-26T06:12:00.000Z</Time>
            <Position>
              <LatitudeDegrees>42.82403605990111827850341796875</LatitudeDegrees>
              <LongitudeDegrees>-1.72524319030344486236572265625</LongitudeDegrees>
            </Position>
            <AltitudeMeters>410.399993896484375</AltitudeMeters>
            <DistanceMeters>12096.814070126</DistanceMeters>
          </Trackpoint>
          <Trackpoint>
            <Time>2018-08-26T06:12:01.000Z</Time>
            <Position>
              <LatitudeDegrees>42.8240879438817501068115234375</LatitudeDegrees>
              <LongitudeDegrees>-1.72527554444968700408935546875</LongitudeDegrees>
            </Position>
            <AltitudeMeters>410.600006103515625</AltitudeMeters>
            <DistanceMeters>12103.164528487</DistanceMeters>
          </Trackpoint>
          <Trackpoint>
            <Time>2018-08-26T06:12:02.000Z</Time>
            <Position>
              <LatitudeDegrees>42.82414041459560394287109375</LatitudeDegrees>
              <LongitudeDegrees>-1.7253086529672145843505859375</LongitudeDegrees>
            </Position>
            <AltitudeMeters>410.600006103515625</AltitudeMeters>
            <DistanceMeters>12109.601141783</DistanceMeters>
          </Trackpoint>
          <Trackpoint>
            <Time>2018-08-26T06:12:03.000Z</Time>
            <Position>
              <LatitudeDegrees>42.82419313676655292510986328125</LatitudeDegrees>
              <LongitudeDegrees>-1.7253411747515201568603515625</LongitudeDegrees>
            </Position>
            <AltitudeMeters>410.600006103515625</AltitudeMeters>
            <DistanceMeters>12116.041962475</DistanceMeters>
          </Trackpoint>
          <Trackpoint>
            <Time>2018-08-26T06:12:04.000Z</Time>
            <Position>
              <LatitudeDegrees>42.8242461942136287689208984375</LatitudeDegrees>
              <LongitudeDegrees>-1.725372187793254852294921875</LongitudeDegrees>
            </Position>
            <AltitudeMeters>410.79998779296875</AltitudeMeters>
            <DistanceMeters>12122.467342581</DistanceMeters>
          </Trackpoint>
          <Trackpoint>
            <Time>2018-08-26T06:12:05.000Z</Time>
            <Position>
              <LatitudeDegrees>42.82429908402264118194580078125</LatitudeDegrees>
              <LongitudeDegrees>-1.72540194354951381683349609375</LongitudeDegrees>
            </Position>
            <AltitudeMeters>410.79998779296875</AltitudeMeters>
            <DistanceMeters>12128.836259552</DistanceMeters>
          </Trackpoint>
          <Trackpoint>
            <Time>2018-08-26T06:12:06.000Z</Time>
            <Position>
              <LatitudeDegrees>42.824351303279399871826171875</LatitudeDegrees>
              <LongitudeDegrees>-1.72543010674417018890380859375</LongitudeDegrees>
            </Position>
            <AltitudeMeters>411</AltitudeMeters>
            <DistanceMeters>12135.087110756</DistanceMeters>
          </Trackpoint>
          <Trackpoint>
            <Time>2018-08-26T06:12:07.000Z</Time>
            <Position>
              <LatitudeDegrees>42.82440369017422199249267578125</LatitudeDegrees>
              <LongitudeDegrees>-1.72545474953949451446533203125</LongitudeDegrees>
            </Position>
            <AltitudeMeters>411</AltitudeMeters>
            <DistanceMeters>12141.255801227</DistanceMeters>
          </Trackpoint>
          <Trackpoint>
            <Time>2018-08-26T06:12:08.000Z</Time>
            <Position>
              <LatitudeDegrees>42.824456579983234405517578125</LatitudeDegrees>
              <LongitudeDegrees>-1.72547352500259876251220703125</LongitudeDegrees>
            </Position>
            <AltitudeMeters>411.20001220703125</AltitudeMeters>
            <DistanceMeters>12147.337510947</DistanceMeters>
          </Trackpoint>
          <Trackpoint>
            <Time>2018-08-26T06:12:09.000Z</Time>
            <Position>
              <LatitudeDegrees>42.82450946979224681854248046875</LatitudeDegrees>
              <LongitudeDegrees>-1.72548542730510234832763671875</LongitudeDegrees>
            </Position>
            <AltitudeMeters>411.20001220703125</AltitudeMeters>
            <DistanceMeters>12153.303039529</DistanceMeters>
          </Trackpoint>
          <Trackpoint>
            <Time>2018-08-26T06:12:10.000Z</Time>
            <Position>
              <LatitudeDegrees>42.8245630301535129547119140625</LatitudeDegrees>
              <LongitudeDegrees>-1.72548986971378326416015625</LongitudeDegrees>
            </Position>
            <AltitudeMeters>411.399993896484375</AltitudeMeters>
            <DistanceMeters>12159.275375919</DistanceMeters>
          </Trackpoint>
          <Trackpoint>
            <Time>2018-08-26T06:12:11.000Z</Time>
            <Position>
              <LatitudeDegrees>42.82461709342896938323974609375</LatitudeDegrees>
              <LongitudeDegrees>-1.7254883609712123870849609375</LongitudeDegrees>
            </Position>
            <AltitudeMeters>411.399993896484375</AltitudeMeters>
            <DistanceMeters>12165.294401313</DistanceMeters>
          </Trackpoint>
          <Trackpoint>
            <Time>2018-08-26T06:12:12.000Z</Time>
            <Position>
              <LatitudeDegrees>42.82467308454215526580810546875</LatitudeDegrees>
              <LongitudeDegrees>-1.725482158362865447998046875</LongitudeDegrees>
            </Position>
            <AltitudeMeters>411.399993896484375</AltitudeMeters>
            <DistanceMeters>12171.547419065</DistanceMeters>
          </Trackpoint>
          <Trackpoint>
            <Time>2018-08-26T06:12:13.000Z</Time>
            <Position>
              <LatitudeDegrees>42.82473041675984859466552734375</LatitudeDegrees>
              <LongitudeDegrees>-1.725474111735820770263671875</LongitudeDegrees>
            </Position>
            <AltitudeMeters>411.399993896484375</AltitudeMeters>
            <DistanceMeters>12177.962953994</DistanceMeters>
          </Trackpoint>
          <Trackpoint>
            <Time>2018-08-26T06:12:14.000Z</Time>
            <Position>
              <LatitudeDegrees>42.8247896768152713775634765625</LatitudeDegrees>
              <LongitudeDegrees>-1.7254652269184589385986328125</LongitudeDegrees>
            </Position>
            <AltitudeMeters>411.600006103515625</AltitudeMeters>
            <DistanceMeters>12184.59851371</DistanceMeters>
          </Trackpoint>
          <Trackpoint>
            <Time>2018-08-26T06:12:15.000Z</Time>
            <Position>
              <LatitudeDegrees>42.82485061325132846832275390625</LatitudeDegrees>
              <LongitudeDegrees>-1.725457347929477691650390625</LongitudeDegrees>
            </Position>
            <AltitudeMeters>411.79998779296875</AltitudeMeters>
            <DistanceMeters>12191.410676571</DistanceMeters>
          </Trackpoint>
          <Trackpoint>
            <Time>2018-08-26T06:12:16.000Z</Time>
            <Position>
              <LatitudeDegrees>42.824913561344146728515625</LatitudeDegrees>
              <LongitudeDegrees>-1.7254508100450038909912109375</LongitudeDegrees>
            </Position>
            <AltitudeMeters>412</AltitudeMeters>
            <DistanceMeters>12198.436872407</DistanceMeters>
          </Trackpoint>
          <Trackpoint>
            <Time>2018-08-26T06:12:17.000Z</Time>
            <Position>
              <LatitudeDegrees>42.8249765932559967041015625</LatitudeDegrees>
              <LongitudeDegrees>-1.72544670291244983673095703125</LongitudeDegrees>
            </Position>
            <AltitudeMeters>412</AltitudeMeters>
            <DistanceMeters>12205.459854504</DistanceMeters>
          </Trackpoint>
          <Trackpoint>
            <Time>2018-08-26T06:12:18.000Z</Time>
            <Position>
              <LatitudeDegrees>42.82504037953913211822509765625</LatitudeDegrees>
              <LongitudeDegrees>-1.7254441045224666595458984375</LongitudeDegrees>
            </Position>
            <AltitudeMeters>412</AltitudeMeters>
            <DistanceMeters>12212.562743852</DistanceMeters>
          </Trackpoint>
          <Trackpoint>
            <Time>2018-08-26T06:12:19.000Z</Time>
            <Position>
              <LatitudeDegrees>42.82510458491742610931396484375</LatitudeDegrees>
              <LongitudeDegrees>-1.7254414223134517669677734375</LongitudeDegrees>
            </Position>
            <AltitudeMeters>412</AltitudeMeters>
            <DistanceMeters>12219.711885945</DistanceMeters>
          </Trackpoint>
          <Trackpoint>
            <Time>2018-08-26T06:12:20.000Z</Time>
            <Position>
              <LatitudeDegrees>42.8251683712005615234375</LatitudeDegrees>
              <LongitudeDegrees>-1.72543982975184917449951171875</LongitudeDegrees>
            </Position>
            <AltitudeMeters>412</AltitudeMeters>
            <DistanceMeters>12226.812868051</DistanceMeters>
          </Trackpoint>
          <Trackpoint>
            <Time>2018-08-26T06:12:21.000Z</Time>
            <Position>
              <LatitudeDegrees>42.82523249275982379913330078125</LatitudeDegrees>
              <LongitudeDegrees>-1.72543815337121486663818359375</LongitudeDegrees>
            </Position>
            <AltitudeMeters>412</AltitudeMeters>
            <DistanceMeters>12233.950633198</DistanceMeters>
          </Trackpoint>
          <Trackpoint>
            <Time>2018-08-26T06:12:22.000Z</Time>
            <Position>
              <LatitudeDegrees>42.82529736869037151336669921875</LatitudeDegrees>
              <LongitudeDegrees>-1.72543748281896114349365234375</LongitudeDegrees>
            </Position>
            <AltitudeMeters>412</AltitudeMeters>
            <DistanceMeters>12241.17266349</DistanceMeters>
          </Trackpoint>
          <Trackpoint>
            <Time>2018-08-26T06:12:23.000Z</Time>
            <Position>
              <LatitudeDegrees>42.82536358572542667388916015625</LatitudeDegrees>
              <LongitudeDegrees>-1.72543915919959545135498046875</LongitudeDegrees>
            </Position>
            <AltitudeMeters>412</AltitudeMeters>
            <DistanceMeters>12248.54382147</DistanceMeters>
          </Trackpoint>
          <Trackpoint>
            <Time>2018-08-26T06:12:24.000Z</Time>
            <Position>
              <LatitudeDegrees>42.82543055713176727294921875</LatitudeDegrees>
              <LongitudeDegrees>-1.72544234432280063629150390625</LongitudeDegrees>
            </Position>
            <AltitudeMeters>412</AltitudeMeters>
            <DistanceMeters>12256.002661928</DistanceMeters>
          </Trackpoint>
          <Trackpoint>
            <Time>2018-08-26T06:12:25.000Z</Time>
            <Position>
              <LatitudeDegrees>42.82549886964261531829833984375</LatitudeDegrees>
              <LongitudeDegrees>-1.725451312959194183349609375</LongitudeDegrees>
            </Position>
            <AltitudeMeters>412</AltitudeMeters>
            <DistanceMeters>12263.640350965</DistanceMeters>
          </Trackpoint>
          <Trackpoint>
            <Time>2018-08-26T06:12:26.000Z</Time>
            <Position>
              <LatitudeDegrees>42.82556743361055850982666015625</LatitudeDegrees>
              <LongitudeDegrees>-1.72546765767037868499755859375</LongitudeDegrees>
            </Position>
            <AltitudeMeters>412</AltitudeMeters>
            <DistanceMeters>12271.387214075</DistanceMeters>
          </Trackpoint>
          <Trackpoint>
            <Time>2018-08-26T06:12:27.000Z</Time>
            <Position>
              <LatitudeDegrees>42.8256365843117237091064453125</LatitudeDegrees>
              <LongitudeDegrees>-1.72548727132380008697509765625</LongitudeDegrees>
            </Position>
            <AltitudeMeters>411.79998779296875</AltitudeMeters>
            <DistanceMeters>12279.248628908</DistanceMeters>
          </Trackpoint>
          <Trackpoint>
            <Time>2018-08-26T06:12:28.000Z</Time>
            <Position>
              <LatitudeDegrees>42.82570607028901576995849609375</LatitudeDegrees>
              <LongitudeDegrees>-1.725510321557521820068359375</LongitudeDegrees>
            </Position>
            <AltitudeMeters>411.79998779296875</AltitudeMeters>
            <DistanceMeters>12287.20821535</DistanceMeters>
          </Trackpoint>
          <Trackpoint>
            <Time>2018-08-26T06:12:29.000Z</Time>
            <Position>
              <LatitudeDegrees>42.825776897370815277099609375</LatitudeDegrees>
              <LongitudeDegrees>-1.72553722746670246124267578125</LongitudeDegrees>
            </Position>
            <AltitudeMeters>411.399993896484375</AltitudeMeters>
            <DistanceMeters>12295.392106661</DistanceMeters>
          </Trackpoint>
          <Trackpoint>
            <Time>2018-08-26T06:12:30.000Z</Time>
            <Position>
              <LatitudeDegrees>42.82584822736680507659912109375</LatitudeDegrees>
              <LongitudeDegrees>-1.725565306842327117919921875</LongitudeDegrees>
            </Position>
            <AltitudeMeters>411.399993896484375</AltitudeMeters>
            <DistanceMeters>12303.655607013</DistanceMeters>
          </Trackpoint>
          <Trackpoint>
            <Time>2018-08-26T06:12:31.000Z</Time>
            <Position>
              <LatitudeDegrees>42.82592006027698516845703125</LatitudeDegrees>
              <LongitudeDegrees>-1.72559321857988834381103515625</LongitudeDegrees>
            </Position>
            <AltitudeMeters>411</AltitudeMeters>
            <DistanceMeters>12311.969222659</DistanceMeters>
          </Trackpoint>
          <Trackpoint>
            <Time>2018-08-26T06:12:32.000Z</Time>
            <Position>
              <LatitudeDegrees>42.82599306665360927581787109375</LatitudeDegrees>
              <LongitudeDegrees>-1.725622303783893585205078125</LongitudeDegrees>
            </Position>
            <AltitudeMeters>410.399993896484375</AltitudeMeters>
            <DistanceMeters>12320.435670959</DistanceMeters>
          </Trackpoint>
          <Trackpoint>
            <Time>2018-08-26T06:12:33.000Z</Time>
            <Position>
              <LatitudeDegrees>42.82606649212539196014404296875</LatitudeDegrees>
              <LongitudeDegrees>-1.72565222717821598052978515625</LongitudeDegrees>
            </Position>
            <AltitudeMeters>410</AltitudeMeters>
            <DistanceMeters>12328.965873534</DistanceMeters>
          </Trackpoint>
          <Trackpoint>
            <Time>2018-08-26T06:12:34.000Z</Time>
            <Position>
              <LatitudeDegrees>42.82613907940685749053955078125</LatitudeDegrees>
              <LongitudeDegrees>-1.72568374313414096832275390625</LongitudeDegrees>
            </Position>
            <AltitudeMeters>409.79998779296875</AltitudeMeters>
            <DistanceMeters>12337.444046008</DistanceMeters>
          </Trackpoint>
          <Trackpoint>
            <Time>2018-08-26T06:12:35.000Z</Time>
            <Position>
              <LatitudeDegrees>42.82621099613606929779052734375</LatitudeDegrees>
              <LongitudeDegrees>-1.7257166840136051177978515625</LongitudeDegrees>
            </Position>
            <AltitudeMeters>409.600006103515625</AltitudeMeters>
            <DistanceMeters>12345.888066591</DistanceMeters>
          </Trackpoint>
          <Trackpoint>
            <Time>2018-08-26T06:12:36.000Z</Time>
            <Position>
              <LatitudeDegrees>42.8262829966843128204345703125</LatitudeDegrees>
              <LongitudeDegrees>-1.7257485352456569671630859375</LongitudeDegrees>
            </Position>
            <AltitudeMeters>409.399993896484375</AltitudeMeters>
            <DistanceMeters>12354.312815896</DistanceMeters>
          </Trackpoint>
          <Trackpoint>
            <Time>2018-08-26T06:12:37.000Z</Time>
            <Position>
              <LatitudeDegrees>42.82635499723255634307861328125</LatitudeDegrees>
              <LongitudeDegrees>-1.72577963210642337799072265625</LongitudeDegrees>
            </Position>
            <AltitudeMeters>409</AltitudeMeters>
            <DistanceMeters>12362.719323985</DistanceMeters>
          </Trackpoint>
          <Trackpoint>
            <Time>2018-08-26T06:12:38.000Z</Time>
            <Position>
              <LatitudeDegrees>42.82642674632370471954345703125</LatitudeDegrees>
              <LongitudeDegrees>-1.72581232152879238128662109375</LongitudeDegrees>
            </Position>
            <AltitudeMeters>408.79998779296875</AltitudeMeters>
            <DistanceMeters>12371.139784794</DistanceMeters>
          </Trackpoint>
          <Trackpoint>
            <Time>2018-08-26T06:12:39.000Z</Time>
            <Position>
              <LatitudeDegrees>42.8264982439577579498291015625</LatitudeDegrees>
              <LongitudeDegrees>-1.7258450947701930999755859375</LongitudeDegrees>
            </Position>
            <AltitudeMeters>408.79998779296875</AltitudeMeters>
            <DistanceMeters>12379.535544243</DistanceMeters>
          </Trackpoint>
          <Trackpoint>
            <Time>2018-08-26T06:12:40.000Z</Time>
            <Position>
              <LatitudeDegrees>42.82657007686793804168701171875</LatitudeDegrees>
              <LongitudeDegrees>-1.72587837092578411102294921875</LongitudeDegrees>
            </Position>
            <AltitudeMeters>408.600006103515625</AltitudeMeters>
            <DistanceMeters>12387.979564825</DistanceMeters>
          </Trackpoint>
          <Trackpoint>
            <Time>2018-08-26T06:12:41.000Z</Time>
            <Position>
              <LatitudeDegrees>42.82664266414940357208251953125</LatitudeDegrees>
              <LongitudeDegrees>-1.72591256909072399139404296875</LongitudeDegrees>
            </Position>
            <AltitudeMeters>408.20001220703125</AltitudeMeters>
            <DistanceMeters>12396.527216462</DistanceMeters>
          </Trackpoint>
          <Trackpoint>
            <Time>2018-08-26T06:12:42.000Z</Time>
            <Position>
              <LatitudeDegrees>42.82671608962118625640869140625</LatitudeDegrees>
              <LongitudeDegrees>-1.72594727016985416412353515625</LongitudeDegrees>
            </Position>
            <AltitudeMeters>408</AltitudeMeters>
            <DistanceMeters>12405.1772577</DistanceMeters>
          </Trackpoint>
          <Trackpoint>
            <Time>2018-08-26T06:12:43.000Z</Time>
            <Position>
              <LatitudeDegrees>42.8267909400165081024169921875</LatitudeDegrees>
              <LongitudeDegrees>-1.72598012723028659820556640625</LongitudeDegrees>
            </Position>
            <AltitudeMeters>407.79998779296875</AltitudeMeters>
            <DistanceMeters>12413.930038318</DistanceMeters>
          </Trackpoint>
          <Trackpoint>
            <Time>2018-08-26T06:12:44.000Z</Time>
            <Position>
              <LatitudeDegrees>42.8268635272979736328125</LatitudeDegrees>
              <LongitudeDegrees>-1.72601222991943359375</LongitudeDegrees>
            </Position>
            <AltitudeMeters>407.600006103515625</AltitudeMeters>
            <DistanceMeters>12422.423640658</DistanceMeters>
          </Trackpoint>
          <Trackpoint>
            <Time>2018-08-26T06:12:45.000Z</Time>
            <Position>
              <LatitudeDegrees>42.8269341029226779937744140625</LatitudeDegrees>
              <LongitudeDegrees>-1.72604508697986602783203125</LongitudeDegrees>
            </Position>
            <AltitudeMeters>407.600006103515625</AltitudeMeters>
            <DistanceMeters>12430.72421192</DistanceMeters>
          </Trackpoint>
          <Trackpoint>
            <Time>2018-08-26T06:12:46.000Z</Time>
            <Position>
              <LatitudeDegrees>42.82700375653803348541259765625</LatitudeDegrees>
              <LongitudeDegrees>-1.72607819549739360809326171875</LongitudeDegrees>
            </Position>
            <AltitudeMeters>407.600006103515625</AltitudeMeters>
            <DistanceMeters>12438.934542038</DistanceMeters>
          </Trackpoint>
          <Trackpoint>
            <Time>2018-08-26T06:12:47.000Z</Time>
            <Position>
              <LatitudeDegrees>42.82707341015338897705078125</LatitudeDegrees>
              <LongitudeDegrees>-1.726109124720096588134765625</LongitudeDegrees>
            </Position>
            <AltitudeMeters>407.600006103515625</AltitudeMeters>
            <DistanceMeters>12447.088033486</DistanceMeters>
          </Trackpoint>
          <Trackpoint>
            <Time>2018-08-26T06:12:48.000Z</Time>
            <Position>
              <LatitudeDegrees>42.8271424770355224609375</LatitudeDegrees>
              <LongitudeDegrees>-1.7261371202766895294189453125</LongitudeDegrees>
            </Position>
            <AltitudeMeters>407.600006103515625</AltitudeMeters>
            <DistanceMeters>12455.107522524</DistanceMeters>
          </Trackpoint>
          <Trackpoint>
            <Time>2018-08-26T06:12:49.000Z</Time>
            <Position>
              <LatitudeDegrees>42.82721330411732196807861328125</LatitudeDegrees>
              <LongitudeDegrees>-1.72616352327167987823486328125</LongitudeDegrees>
            </Position>
            <AltitudeMeters>407.600006103515625</AltitudeMeters>
            <DistanceMeters>12463.27981996</DistanceMeters>
          </Trackpoint>
          <Trackpoint>
            <Time>2018-08-26T06:12:50.000Z</Time>
            <Position>
              <LatitudeDegrees>42.82728354446589946746826171875</LatitudeDegrees>
              <LongitudeDegrees>-1.72619068063795566558837890625</LongitudeDegrees>
            </Position>
            <AltitudeMeters>407.600006103515625</AltitudeMeters>
            <DistanceMeters>12471.405576476</DistanceMeters>
          </Trackpoint>
          <Trackpoint>
            <Time>2018-08-26T06:12:51.000Z</Time>
            <Position>
              <LatitudeDegrees>42.82735562883317470550537109375</LatitudeDegrees>
              <LongitudeDegrees>-1.7262182570993900299072265625</LongitudeDegrees>
            </Position>
            <AltitudeMeters>407.600006103515625</AltitudeMeters>
            <DistanceMeters>12479.738720411</DistanceMeters>
          </Trackpoint>
          <Trackpoint>
            <Time>2018-08-26T06:12:52.000Z</Time>
            <Position>
              <LatitudeDegrees>42.82742737792432308197021484375</LatitudeDegrees>
              <LongitudeDegrees>-1.726245246827602386474609375</LongitudeDegrees>
            </Position>
            <AltitudeMeters>407.79998779296875</AltitudeMeters>
            <DistanceMeters>12488.022957309</DistanceMeters>
          </Trackpoint>
          <Trackpoint>
            <Time>2018-08-26T06:12:53.000Z</Time>
            <Position>
              <LatitudeDegrees>42.8274983726441860198974609375</LatitudeDegrees>
              <LongitudeDegrees>-1.72627097927033901214599609375</LongitudeDegrees>
            </Position>
            <AltitudeMeters>407.79998779296875</AltitudeMeters>
            <DistanceMeters>12496.198568958</DistanceMeters>
          </Trackpoint>
          <Trackpoint>
            <Time>2018-08-26T06:12:54.000Z</Time>
            <Position>
              <LatitudeDegrees>42.8275681100785732269287109375</LatitudeDegrees>
              <LongitudeDegrees>-1.72629587352275848388671875</LongitudeDegrees>
            </Position>
            <AltitudeMeters>408</AltitudeMeters>
            <DistanceMeters>12504.221998086</DistanceMeters>
          </Trackpoint>
          <Trackpoint>
            <Time>2018-08-26T06:12:55.000Z</Time>
            <Position>
              <LatitudeDegrees>42.827636338770389556884765625</LatitudeDegrees>
              <LongitudeDegrees>-1.7263188399374485015869140625</LongitudeDegrees>
            </Position>
            <AltitudeMeters>408.20001220703125</AltitudeMeters>
            <DistanceMeters>12512.043683832</DistanceMeters>
          </Trackpoint>
          <Trackpoint>
            <Time>2018-08-26T06:12:56.000Z</Time>
            <Position>
              <LatitudeDegrees>42.82770381309092044830322265625</LatitudeDegrees>
              <LongitudeDegrees>-1.72633945941925048828125</LongitudeDegrees>
            </Position>
            <AltitudeMeters>408.399993896484375</AltitudeMeters>
            <DistanceMeters>12519.740261089</DistanceMeters>
          </Trackpoint>
          <Trackpoint>
            <Time>2018-08-26T06:12:57.000Z</Time>
            <Position>
              <LatitudeDegrees>42.82776944339275360107421875</LatitudeDegrees>
              <LongitudeDegrees>-1.72635815106332302093505859375</LongitudeDegrees>
            </Position>
            <AltitudeMeters>408.399993896484375</AltitudeMeters>
            <DistanceMeters>12527.203337633</DistanceMeters>
          </Trackpoint>
          <Trackpoint>
            <Time>2018-08-26T06:12:58.000Z</Time>
            <Position>
              <LatitudeDegrees>42.82783373259007930755615234375</LatitudeDegrees>
              <LongitudeDegrees>-1.72637608833611011505126953125</LongitudeDegrees>
            </Position>
            <AltitudeMeters>408.600006103515625</AltitudeMeters>
            <DistanceMeters>12534.507424957</DistanceMeters>
          </Trackpoint>
          <Trackpoint>
            <Time>2018-08-26T06:12:59.000Z</Time>
            <Position>
              <LatitudeDegrees>42.82789810560643672943115234375</LatitudeDegrees>
              <LongitudeDegrees>-1.7263919301331043243408203125</LongitudeDegrees>
            </Position>
            <AltitudeMeters>408.600006103515625</AltitudeMeters>
            <DistanceMeters>12541.7879846</DistanceMeters>
          </Trackpoint>
          <Trackpoint>
            <Time>2018-08-26T06:13:00.000Z</Time>
            <Position>
              <LatitudeDegrees>42.82796281389892101287841796875</LatitudeDegrees>
              <LongitudeDegrees>-1.72640374861657619476318359375</LongitudeDegrees>
            </Position>
            <AltitudeMeters>408.600006103515625</AltitudeMeters>
            <DistanceMeters>12549.054888139</DistanceMeters>
          </Trackpoint>
          <Trackpoint>
            <Time>2018-08-26T06:13:01.000Z</Time>
            <Position>
              <LatitudeDegrees>42.8280287794768810272216796875</LatitudeDegrees>
              <LongitudeDegrees>-1.72641095705330371856689453125</LongitudeDegrees>
            </Position>
            <AltitudeMeters>408.600006103515625</AltitudeMeters>
            <DistanceMeters>12556.420531307</DistanceMeters>
          </Trackpoint>
          <Trackpoint>
            <Time>2018-08-26T06:13:02.000Z</Time>
            <Position>
              <LatitudeDegrees>42.8280954994261264801025390625</LatitudeDegrees>
              <LongitudeDegrees>-1.72641565091907978057861328125</LongitudeDegrees>
            </Position>
            <AltitudeMeters>408.79998779296875</AltitudeMeters>
            <DistanceMeters>12563.855726529</DistanceMeters>
          </Trackpoint>
          <Trackpoint>
            <Time>2018-08-26T06:13:03.000Z</Time>
            <Position>
              <LatitudeDegrees>42.82816330902278423309326171875</LatitudeDegrees>
              <LongitudeDegrees>-1.72641883604228496551513671875</LongitudeDegrees>
            </Position>
            <AltitudeMeters>408.79998779296875</AltitudeMeters>
            <DistanceMeters>12571.407809872</DistanceMeters>
          </Trackpoint>
          <Trackpoint>
            <Time>2018-08-26T06:13:04.000Z</Time>
            <Position>
              <LatitudeDegrees>42.82823220826685428619384765625</LatitudeDegrees>
              <LongitudeDegrees>-1.72642135061323642730712890625</LongitudeDegrees>
            </Position>
            <AltitudeMeters>408.79998779296875</AltitudeMeters>
            <DistanceMeters>12579.079120594</DistanceMeters>
          </Trackpoint>
          <Trackpoint>
            <Time>2018-08-26T06:13:05.000Z</Time>
            <Position>
              <LatitudeDegrees>42.82830211333930492401123046875</LatitudeDegrees>
              <LongitudeDegrees>-1.72642487101256847381591796875</LongitudeDegrees>
            </Position>
            <AltitudeMeters>408.79998779296875</AltitudeMeters>
            <DistanceMeters>12586.864354893</DistanceMeters>
          </Trackpoint>
          <Trackpoint>
            <Time>2018-08-26T06:13:06.000Z</Time>
            <Position>
              <LatitudeDegrees>42.82837294042110443115234375</LatitudeDegrees>
              <LongitudeDegrees>-1.72643090598285198211669921875</LongitudeDegrees>
            </Position>
            <AltitudeMeters>408.79998779296875</AltitudeMeters>
            <DistanceMeters>12594.762441248</DistanceMeters>
          </Trackpoint>
          <Trackpoint>
            <Time>2018-08-26T06:13:07.000Z</Time>
            <Position>
              <LatitudeDegrees>42.82844376750290393829345703125</LatitudeDegrees>
              <LongitudeDegrees>-1.72643937170505523681640625</LongitudeDegrees>
            </Position>
            <AltitudeMeters>408.79998779296875</AltitudeMeters>
            <DistanceMeters>12602.675376864</DistanceMeters>
          </Trackpoint>
          <Trackpoint>
            <Time>2018-08-26T06:13:08.000Z</Time>
            <Position>
              <LatitudeDegrees>42.82851400785148143768310546875</LatitudeDegrees>
              <LongitudeDegrees>-1.72645035199820995330810546875</LongitudeDegrees>
            </Position>
            <AltitudeMeters>409</AltitudeMeters>
            <DistanceMeters>12610.544254432</DistanceMeters>
          </Trackpoint>
          <Trackpoint>
            <Time>2018-08-26T06:13:09.000Z</Time>
            <Position>
              <LatitudeDegrees>42.82858240418136119842529296875</LatitudeDegrees>
              <LongitudeDegrees>-1.726461164653301239013671875</LongitudeDegrees>
            </Position>
            <AltitudeMeters>409</AltitudeMeters>
            <DistanceMeters>12618.207910034</DistanceMeters>
          </Trackpoint>
          <Trackpoint>
            <Time>2018-08-26T06:13:10.000Z</Time>
            <Position>
              <LatitudeDegrees>42.828650213778018951416015625</LatitudeDegrees>
              <LongitudeDegrees>-1.72647231258451938629150390625</LongitudeDegrees>
            </Position>
            <AltitudeMeters>409</AltitudeMeters>
            <DistanceMeters>12625.810047184</DistanceMeters>
          </Trackpoint>
          <Trackpoint>
            <Time>2018-08-26T06:13:11.000Z</Time>
            <Position>
              <LatitudeDegrees>42.82871634699404239654541015625</LatitudeDegrees>
              <LongitudeDegrees>-1.72648488543927669525146484375</LongitudeDegrees>
            </Position>
            <AltitudeMeters>409</AltitudeMeters>
            <DistanceMeters>12633.242205525</DistanceMeters>
          </Trackpoint>
          <Trackpoint>
            <Time>2018-08-26T06:13:12.000Z</Time>
            <Position>
              <LatitudeDegrees>42.828782312572002410888671875</LatitudeDegrees>
              <LongitudeDegrees>-1.7264990508556365966796875</LongitudeDegrees>
            </Position>
            <AltitudeMeters>409</AltitudeMeters>
            <DistanceMeters>12640.674971341</DistanceMeters>
          </Trackpoint>
          <Trackpoint>
            <Time>2018-08-26T06:13:13.000Z</Time>
            <Position>
              <LatitudeDegrees>42.82884777523577213287353515625</LatitudeDegrees>
              <LongitudeDegrees>-1.72651304863393306732177734375</LongitudeDegrees>
            </Position>
            <AltitudeMeters>409</AltitudeMeters>
            <DistanceMeters>12648.050415769</DistanceMeters>
          </Trackpoint>
          <Trackpoint>
            <Time>2018-08-26T06:13:14.000Z</Time>
            <Position>
              <LatitudeDegrees>42.828913070261478424072265625</LatitudeDegrees>
              <LongitudeDegrees>-1.72652629204094409942626953125</LongitudeDegrees>
            </Position>
            <AltitudeMeters>409</AltitudeMeters>
            <DistanceMeters>12655.397646334</DistanceMeters>
          </Trackpoint>
          <Trackpoint>
            <Time>2018-08-26T06:13:15.000Z</Time>
            <Position>
              <LatitudeDegrees>42.8289782814681529998779296875</LatitudeDegrees>
              <LongitudeDegrees>-1.72653886489570140838623046875</LongitudeDegrees>
            </Position>
            <AltitudeMeters>409.20001220703125</AltitudeMeters>
            <DistanceMeters>12662.727650075</DistanceMeters>
          </Trackpoint>
          <Trackpoint>
            <Time>2018-08-26T06:13:16.000Z</Time>
            <Position>
              <LatitudeDegrees>42.829043827950954437255859375</LatitudeDegrees>
              <LongitudeDegrees>-1.72655068337917327880859375</LongitudeDegrees>
            </Position>
            <AltitudeMeters>409.20001220703125</AltitudeMeters>
            <DistanceMeters>12670.085933731</DistanceMeters>
          </Trackpoint>
          <Trackpoint>
            <Time>2018-08-26T06:13:17.000Z</Time>
            <Position>
              <LatitudeDegrees>42.82910895533859729766845703125</LatitudeDegrees>
              <LongitudeDegrees>-1.72656032256782054901123046875</LongitudeDegrees>
            </Position>
            <AltitudeMeters>409.20001220703125</AltitudeMeters>
            <DistanceMeters>12677.37640902</DistanceMeters>
          </Trackpoint>
          <Trackpoint>
            <Time>2018-08-26T06:13:18.000Z</Time>
            <Position>
              <LatitudeDegrees>42.8291740827262401580810546875</LatitudeDegrees>
              <LongitudeDegrees>-1.72656434588134288787841796875</LongitudeDegrees>
            </Position>
            <AltitudeMeters>409.20001220703125</AltitudeMeters>
            <DistanceMeters>12684.633364706</DistanceMeters>
          </Trackpoint>
          <Trackpoint>
            <Time>2018-08-26T06:13:19.000Z</Time>
            <Position>
              <LatitudeDegrees>42.82923719845712184906005859375</LatitudeDegrees>
              <LongitudeDegrees>-1.72655847854912281036376953125</LongitudeDegrees>
            </Position>
            <AltitudeMeters>409.20001220703125</AltitudeMeters>
            <DistanceMeters>12691.674324845</DistanceMeters>
          </Trackpoint>
          <Trackpoint>
            <Time>2018-08-26T06:13:20.000Z</Time>
            <Position>
              <LatitudeDegrees>42.829301990568637847900390625</LatitudeDegrees>
              <LongitudeDegrees>-1.7265438102185726165771484375</LongitudeDegrees>
            </Position>
            <AltitudeMeters>409.20001220703125</AltitudeMeters>
            <DistanceMeters>12698.984591077</DistanceMeters>
          </Trackpoint>
          <Trackpoint>
            <Time>2018-08-26T06:13:21.000Z</Time>
            <Position>
              <LatitudeDegrees>42.829366363584995269775390625</LatitudeDegrees>
              <LongitudeDegrees>-1.7265230230987071990966796875</LongitudeDegrees>
            </Position>
            <AltitudeMeters>409.20001220703125</AltitudeMeters>
            <DistanceMeters>12706.347168676</DistanceMeters>
          </Trackpoint>
          <Trackpoint>
            <Time>2018-08-26T06:13:22.000Z</Time>
            <Position>
              <LatitudeDegrees>42.829430401325225830078125</LatitudeDegrees>
              <LongitudeDegrees>-1.7264990508556365966796875</LongitudeDegrees>
            </Position>
            <AltitudeMeters>409.20001220703125</AltitudeMeters>
            <DistanceMeters>12713.73851243</DistanceMeters>
          </Trackpoint>
          <Trackpoint>
            <Time>2018-08-26T06:13:23.000Z</Time>
            <Position>
              <LatitudeDegrees>42.8294956125319004058837890625</LatitudeDegrees>
              <LongitudeDegrees>-1.72647231258451938629150390625</LongitudeDegrees>
            </Position>
            <AltitudeMeters>409.20001220703125</AltitudeMeters>
            <DistanceMeters>12721.318047134</DistanceMeters>
          </Trackpoint>
          <Trackpoint>
            <Time>2018-08-26T06:13:24.000Z</Time>
            <Position>
              <LatitudeDegrees>42.829561494290828704833984375</LatitudeDegrees>
              <LongitudeDegrees>-1.7264427244663238525390625</LongitudeDegrees>
            </Position>
            <AltitudeMeters>409.20001220703125</AltitudeMeters>
            <DistanceMeters>12729.038053904</DistanceMeters>
          </Trackpoint>
          <Trackpoint>
            <Time>2018-08-26T06:13:25.000Z</Time>
            <Position>
              <LatitudeDegrees>42.82962821424007415771484375</LatitudeDegrees>
              <LongitudeDegrees>-1.72641011886298656463623046875</LongitudeDegrees>
            </Position>
            <AltitudeMeters>409.20001220703125</AltitudeMeters>
            <DistanceMeters>12736.92698836</DistanceMeters>
          </Trackpoint>
          <Trackpoint>
            <Time>2018-08-26T06:13:26.000Z</Time>
            <Position>
              <LatitudeDegrees>42.82969518564641475677490234375</LatitudeDegrees>
              <LongitudeDegrees>-1.7263756692409515380859375</LongitudeDegrees>
            </Position>
            <AltitudeMeters>409.20001220703125</AltitudeMeters>
            <DistanceMeters>12744.893945579</DistanceMeters>
          </Trackpoint>
          <Trackpoint>
            <Time>2018-08-26T06:13:27.000Z</Time>
            <Position>
              <LatitudeDegrees>42.82976307906210422515869140625</LatitudeDegrees>
              <LongitudeDegrees>-1.72634121961891651153564453125</LongitudeDegrees>
            </Position>
            <AltitudeMeters>409.20001220703125</AltitudeMeters>
            <DistanceMeters>12752.957229674</DistanceMeters>
          </Trackpoint>
          <Trackpoint>
            <Time>2018-08-26T06:13:28.000Z</Time>
            <Position>
              <LatitudeDegrees>42.82983080483973026275634765625</LatitudeDegrees>
              <LongitudeDegrees>-1.726306267082691192626953125</LongitudeDegrees>
            </Position>
            <AltitudeMeters>409.20001220703125</AltitudeMeters>
            <DistanceMeters>12761.017153367</DistanceMeters>
          </Trackpoint>
          <Trackpoint>
            <Time>2018-08-26T06:13:29.000Z</Time>
            <Position>
              <LatitudeDegrees>42.82989903353154659271240234375</LatitudeDegrees>
              <LongitudeDegrees>-1.72627047635614871978759765625</LongitudeDegrees>
            </Position>
            <AltitudeMeters>409.20001220703125</AltitudeMeters>
            <DistanceMeters>12769.1540152</DistanceMeters>
          </Trackpoint>
          <Trackpoint>
            <Time>2018-08-26T06:13:30.000Z</Time>
            <Position>
              <LatitudeDegrees>42.82996675930917263031005859375</LatitudeDegrees>
              <LongitudeDegrees>-1.72623527236282825469970703125</LongitudeDegrees>
            </Position>
            <AltitudeMeters>409.20001220703125</AltitudeMeters>
            <DistanceMeters>12777.221217995</DistanceMeters>
          </Trackpoint>
          <Trackpoint>
            <Time>2018-08-26T06:13:31.000Z</Time>
            <Position>
              <LatitudeDegrees>42.83003465272486209869384765625</LatitudeDegrees>
              <LongitudeDegrees>-1.72619956545531749725341796875</LongitudeDegrees>
            </Position>
            <AltitudeMeters>409.20001220703125</AltitudeMeters>
            <DistanceMeters>12785.320817081</DistanceMeters>
          </Trackpoint>
          <Trackpoint>
            <Time>2018-08-26T06:13:32.000Z</Time>
            <Position>
              <LatitudeDegrees>42.83010254614055156707763671875</LatitudeDegrees>
              <LongitudeDegrees>-1.72616444528102874755859375</LongitudeDegrees>
            </Position>
            <AltitudeMeters>409.20001220703125</AltitudeMeters>
            <DistanceMeters>12793.403117063</DistanceMeters>
          </Trackpoint>
          <Trackpoint>
            <Time>2018-08-26T06:13:33.000Z</Time>
            <Position>
              <LatitudeDegrees>42.83016943372786045074462890625</LatitudeDegrees>
              <LongitudeDegrees>-1.7261302471160888671875</LongitudeDegrees>
            </Position>
            <AltitudeMeters>409</AltitudeMeters>
            <DistanceMeters>12801.3536224</DistanceMeters>
          </Trackpoint>
          <Trackpoint>
            <Time>2018-08-26T06:13:34.000Z</Time>
            <Position>
              <LatitudeDegrees>42.83023548312485218048095703125</LatitudeDegrees>
              <LongitudeDegrees>-1.72609445638954639434814453125</LongitudeDegrees>
            </Position>
            <AltitudeMeters>409</AltitudeMeters>
            <DistanceMeters>12809.263704554</DistanceMeters>
          </Trackpoint>
          <Trackpoint>
            <Time>2018-08-26T06:13:35.000Z</Time>
            <Position>
              <LatitudeDegrees>42.830300442874431610107421875</LatitudeDegrees>
              <LongitudeDegrees>-1.7260606773197650909423828125</LongitudeDegrees>
            </Position>
            <AltitudeMeters>408.79998779296875</AltitudeMeters>
            <DistanceMeters>12817.001236901</DistanceMeters>
          </Trackpoint>
          <Trackpoint>
            <Time>2018-08-26T06:13:36.000Z</Time>
            <Position>
              <LatitudeDegrees>42.8303636424243450164794921875</LatitudeDegrees>
              <LongitudeDegrees>-1.72602706588804721832275390625</LongitudeDegrees>
            </Position>
            <AltitudeMeters>408.600006103515625</AltitudeMeters>
            <DistanceMeters>12824.551526471</DistanceMeters>
          </Trackpoint>
          <Trackpoint>
            <Time>2018-08-26T06:13:37.000Z</Time>
            <Position>
              <LatitudeDegrees>42.8304270096123218536376953125</LatitudeDegrees>
              <LongitudeDegrees>-1.72599521465599536895751953125</LongitudeDegrees>
            </Position>
            <AltitudeMeters>408.600006103515625</AltitudeMeters>
            <DistanceMeters>12832.068253705</DistanceMeters>
          </Trackpoint>
          <Trackpoint>
            <Time>2018-08-26T06:13:38.000Z</Time>
            <Position>
              <LatitudeDegrees>42.83048828132450580596923828125</LatitudeDegrees>
              <LongitudeDegrees>-1.7259614355862140655517578125</LongitudeDegrees>
            </Position>
            <AltitudeMeters>408.399993896484375</AltitudeMeters>
            <DistanceMeters>12839.424696332</DistanceMeters>
          </Trackpoint>
          <Trackpoint>
            <Time>2018-08-26T06:13:39.000Z</Time>
            <Position>
              <LatitudeDegrees>42.83054846338927745819091796875</LatitudeDegrees>
              <LongitudeDegrees>-1.725924722850322723388671875</LongitudeDegrees>
            </Position>
            <AltitudeMeters>408.20001220703125</AltitudeMeters>
            <DistanceMeters>12846.76208795</DistanceMeters>
          </Trackpoint>
          <Trackpoint>
            <Time>2018-08-26T06:13:40.000Z</Time>
            <Position>
              <LatitudeDegrees>42.83060780726373195648193359375</LatitudeDegrees>
              <LongitudeDegrees>-1.72588608227670192718505859375</LongitudeDegrees>
            </Position>
            <AltitudeMeters>408.20001220703125</AltitudeMeters>
            <DistanceMeters>12854.080995892</DistanceMeters>
          </Trackpoint>
          <Trackpoint>
            <Time>2018-08-26T06:13:41.000Z</Time>
            <Position>
              <LatitudeDegrees>42.8306680731475353240966796875</LatitudeDegrees>
              <LongitudeDegrees>-1.72584651969373226165771484375</LongitudeDegrees>
            </Position>
            <AltitudeMeters>408.20001220703125</AltitudeMeters>
            <DistanceMeters>12861.525294324</DistanceMeters>
          </Trackpoint>
          <Trackpoint>
            <Time>2018-08-26T06:13:42.000Z</Time>
            <Position>
              <LatitudeDegrees>42.83073001541197299957275390625</LatitudeDegrees>
              <LongitudeDegrees>-1.72580494545400142669677734375</LongitudeDegrees>
            </Position>
            <AltitudeMeters>408.20001220703125</AltitudeMeters>
            <DistanceMeters>12869.208954896</DistanceMeters>
          </Trackpoint>
          <Trackpoint>
            <Time>2018-08-26T06:13:43.000Z</Time>
            <Position>
              <LatitudeDegrees>42.83079170621931552886962890625</LatitudeDegrees>
              <LongitudeDegrees>-1.72576320357620716094970703125</LongitudeDegrees>
            </Position>
            <AltitudeMeters>408.20001220703125</AltitudeMeters>
            <DistanceMeters>12876.873788707</DistanceMeters>
          </Trackpoint>
          <Trackpoint>
            <Time>2018-08-26T06:13:44.000Z</Time>
            <Position>
              <LatitudeDegrees>42.8308531455695629119873046875</LatitudeDegrees>
              <LongitudeDegrees>-1.72572162933647632598876953125</LongitudeDegrees>
            </Position>
            <AltitudeMeters>408.20001220703125</AltitudeMeters>
            <DistanceMeters>12884.507930005</DistanceMeters>
          </Trackpoint>
          <Trackpoint>
            <Time>2018-08-26T06:13:45.000Z</Time>
            <Position>
              <LatitudeDegrees>42.83091408200562000274658203125</LatitudeDegrees>
              <LongitudeDegrees>-1.7256794683635234832763671875</LongitudeDegrees>
            </Position>
            <AltitudeMeters>408.20001220703125</AltitudeMeters>
            <DistanceMeters>12892.113629822</DistanceMeters>
          </Trackpoint>
          <Trackpoint>
            <Time>2018-08-26T06:13:46.000Z</Time>
            <Position>
              <LatitudeDegrees>42.83097426407039165496826171875</LatitudeDegrees>
              <LongitudeDegrees>-1.7256365530192852020263671875</LongitudeDegrees>
            </Position>
            <AltitudeMeters>408.20001220703125</AltitudeMeters>
            <DistanceMeters>12899.672884001</DistanceMeters>
          </Trackpoint>
          <Trackpoint>
            <Time>2018-08-26T06:13:47.000Z</Time>
            <Position>
              <LatitudeDegrees>42.83103377558290958404541015625</LatitudeDegrees>
              <LongitudeDegrees>-1.7255933023989200592041015625</LongitudeDegrees>
            </Position>
            <AltitudeMeters>408.20001220703125</AltitudeMeters>
            <DistanceMeters>12907.17879147</DistanceMeters>
          </Trackpoint>
          <Trackpoint>
            <Time>2018-08-26T06:13:48.000Z</Time>
            <Position>
              <LatitudeDegrees>42.8310932032763957977294921875</LatitudeDegrees>
              <LongitudeDegrees>-1.72555114142596721649169921875</LongitudeDegrees>
            </Position>
            <AltitudeMeters>408.399993896484375</AltitudeMeters>
            <DistanceMeters>12914.635815725</DistanceMeters>
          </Trackpoint>
          <Trackpoint>
            <Time>2018-08-26T06:13:49.000Z</Time>
            <Position>
              <LatitudeDegrees>42.8311528824269771575927734375</LatitudeDegrees>
              <LongitudeDegrees>-1.7255104891955852508544921875</LongitudeDegrees>
            </Position>
            <AltitudeMeters>408.399993896484375</AltitudeMeters>
            <DistanceMeters>12922.060072362</DistanceMeters>
          </Trackpoint>
          <Trackpoint>
            <Time>2018-08-26T06:13:50.000Z</Time>
            <Position>
              <LatitudeDegrees>42.8312122263014316558837890625</LatitudeDegrees>
              <LongitudeDegrees>-1.72547033987939357757568359375</LongitudeDegrees>
            </Position>
            <AltitudeMeters>408.600006103515625</AltitudeMeters>
            <DistanceMeters>12929.433067696</DistanceMeters>
          </Trackpoint>
          <Trackpoint>
            <Time>2018-08-26T06:13:51.000Z</Time>
            <Position>
              <LatitudeDegrees>42.83127064816653728485107421875</LatitudeDegrees>
              <LongitudeDegrees>-1.7254300229251384735107421875</LongitudeDegrees>
            </Position>
            <AltitudeMeters>408.600006103515625</AltitudeMeters>
            <DistanceMeters>12936.721065339</DistanceMeters>
          </Trackpoint>
          <Trackpoint>
            <Time>2018-08-26T06:13:52.000Z</Time>
            <Position>
              <LatitudeDegrees>42.83132865093648433685302734375</LatitudeDegrees>
              <LongitudeDegrees>-1.725389957427978515625</LongitudeDegrees>
            </Position>
            <AltitudeMeters>408.600006103515625</AltitudeMeters>
            <DistanceMeters>12943.958084295</DistanceMeters>
          </Trackpoint>
          <Trackpoint>
            <Time>2018-08-26T06:13:53.000Z</Time>
            <Position>
              <LatitudeDegrees>42.8313858993351459503173828125</LatitudeDegrees>
              <LongitudeDegrees>-1.72535039484500885009765625</LongitudeDegrees>
            </Position>
            <AltitudeMeters>408.79998779296875</AltitudeMeters>
            <DistanceMeters>12951.102172205</DistanceMeters>
          </Trackpoint>
          <Trackpoint>
            <Time>2018-08-26T06:13:54.000Z</Time>
            <Position>
              <LatitudeDegrees>42.8314428962767124176025390625</LatitudeDegrees>
              <LongitudeDegrees>-1.7253109999001026153564453125</LongitudeDegrees>
            </Position>
            <AltitudeMeters>408.79998779296875</AltitudeMeters>
            <DistanceMeters>12958.214590095</DistanceMeters>
          </Trackpoint>
          <Trackpoint>
            <Time>2018-08-26T06:13:55.000Z</Time>
            <Position>
              <LatitudeDegrees>42.8314995579421520233154296875</LatitudeDegrees>
              <LongitudeDegrees>-1.7252719402313232421875</LongitudeDegrees>
            </Position>
            <AltitudeMeters>409</AltitudeMeters>
            <DistanceMeters>12965.282431553</DistanceMeters>
          </Trackpoint>
          <Trackpoint>
            <Time>2018-08-26T06:13:56.000Z</Time>
            <Position>
              <LatitudeDegrees>42.83155538141727447509765625</LatitudeDegrees>
              <LongitudeDegrees>-1.72523413784801959991455078125</LongitudeDegrees>
            </Position>
            <AltitudeMeters>409</AltitudeMeters>
            <DistanceMeters>12972.219381702</DistanceMeters>
          </Trackpoint>
          <Trackpoint>
            <Time>2018-08-26T06:13:57.000Z</Time>
            <Position>
              <LatitudeDegrees>42.8316101990640163421630859375</LatitudeDegrees>
              <LongitudeDegrees>-1.72519843094050884246826171875</LongitudeDegrees>
            </Position>
            <AltitudeMeters>409.20001220703125</AltitudeMeters>
            <DistanceMeters>12978.980317064</DistanceMeters>
          </Trackpoint>
          <Trackpoint>
            <Time>2018-08-26T06:13:58.000Z</Time>
            <Position>
              <LatitudeDegrees>42.8316655196249485015869140625</LatitudeDegrees>
              <LongitudeDegrees>-1.7251658253371715545654296875</LongitudeDegrees>
            </Position>
            <AltitudeMeters>409.20001220703125</AltitudeMeters>
            <DistanceMeters>12985.687614645</DistanceMeters>
          </Trackpoint>
          <Trackpoint>
            <Time>2018-08-26T06:13:59.000Z</Time>
            <Position>
              <LatitudeDegrees>42.8317218460142612457275390625</LatitudeDegrees>
              <LongitudeDegrees>-1.7251393385231494903564453125</LongitudeDegrees>
            </Position>
            <AltitudeMeters>409.20001220703125</AltitudeMeters>
            <DistanceMeters>12992.31909052</DistanceMeters>
          </Trackpoint>
          <Trackpoint>
            <Time>2018-08-26T06:14:00.000Z</Time>
            <Position>
              <LatitudeDegrees>42.8317795135080814361572265625</LatitudeDegrees>
              <LongitudeDegrees>-1.7251198925077915191650390625</LongitudeDegrees>
            </Position>
            <AltitudeMeters>409.399993896484375</AltitudeMeters>
            <DistanceMeters>12998.931475123</DistanceMeters>
          </Trackpoint>
          <Trackpoint>
            <Time>2018-08-26T06:14:01.000Z</Time>
            <Position>
              <LatitudeDegrees>42.83183726482093334197998046875</LatitudeDegrees>
              <LongitudeDegrees>-1.72510690055787563323974609375</LongitudeDegrees>
            </Position>
            <AltitudeMeters>409.399993896484375</AltitudeMeters>
            <DistanceMeters>13005.446871455</DistanceMeters>
          </Trackpoint>
          <Trackpoint>
            <Time>2018-08-26T06:14:02.000Z</Time>
            <Position>
              <LatitudeDegrees>42.83189509995281696319580078125</LatitudeDegrees>
              <LongitudeDegrees>-1.72510170377790927886962890625</LongitudeDegrees>
            </Position>
            <AltitudeMeters>409.399993896484375</AltitudeMeters>
            <DistanceMeters>13011.897498731</DistanceMeters>
          </Trackpoint>
          <Trackpoint>
            <Time>2018-08-26T06:14:03.000Z</Time>
            <Position>
              <LatitudeDegrees>42.83195209689438343048095703125</LatitudeDegrees>
              <LongitudeDegrees>-1.7251068167388439178466796875</LongitudeDegrees>
            </Position>
            <AltitudeMeters>409.399993896484375</AltitudeMeters>
            <DistanceMeters>13018.253642374</DistanceMeters>
          </Trackpoint>
          <Trackpoint>
            <Time>2018-08-26T06:14:04.000Z</Time>
            <Position>
              <LatitudeDegrees>42.83200909383594989776611328125</LatitudeDegrees>
              <LongitudeDegrees>-1.72512215562164783477783203125</LongitudeDegrees>
            </Position>
            <AltitudeMeters>409.399993896484375</AltitudeMeters>
            <DistanceMeters>13024.719649947</DistanceMeters>
          </Trackpoint>
          <Trackpoint>
            <Time>2018-08-26T06:14:05.000Z</Time>
            <Position>
              <LatitudeDegrees>42.83206558786332607269287109375</LatitudeDegrees>
              <LongitudeDegrees>-1.72514545731246471405029296875</LongitudeDegrees>
            </Position>
            <AltitudeMeters>409.600006103515625</AltitudeMeters>
            <DistanceMeters>13031.2895636</DistanceMeters>
          </Trackpoint>
          <Trackpoint>
            <Time>2018-08-26T06:14:06.000Z</Time>
            <Position>
              <LatitudeDegrees>42.8321201540529727935791015625</LatitudeDegrees>
              <LongitudeDegrees>-1.7251762188971042633056640625</LongitudeDegrees>
            </Position>
            <AltitudeMeters>409.79998779296875</AltitudeMeters>
            <DistanceMeters>13037.861538618</DistanceMeters>
          </Trackpoint>
          <Trackpoint>
            <Time>2018-08-26T06:14:07.000Z</Time>
            <Position>
              <LatitudeDegrees>42.8321717865765094757080078125</LatitudeDegrees>
              <LongitudeDegrees>-1.7252134345471858978271484375</LongitudeDegrees>
            </Position>
            <AltitudeMeters>410</AltitudeMeters>
            <DistanceMeters>13044.361671515</DistanceMeters>
          </Trackpoint>
          <Trackpoint>
            <Time>2018-08-26T06:14:08.000Z</Time>
            <Position>
              <LatitudeDegrees>42.83222300000488758087158203125</LatitudeDegrees>
              <LongitudeDegrees>-1.72525584697723388671875</LongitudeDegrees>
            </Position>
            <AltitudeMeters>410</AltitudeMeters>
            <DistanceMeters>13051.030488988</DistanceMeters>
          </Trackpoint>
          <Trackpoint>
            <Time>2018-08-26T06:14:09.000Z</Time>
            <Position>
              <LatitudeDegrees>42.8322737105190753936767578125</LatitudeDegrees>
              <LongitudeDegrees>-1.72530085779726505279541015625</LongitudeDegrees>
            </Position>
            <AltitudeMeters>410.20001220703125</AltitudeMeters>
            <DistanceMeters>13057.765329296</DistanceMeters>
          </Trackpoint>
          <Trackpoint>
            <Time>2018-08-26T06:14:10.000Z</Time>
            <Position>
              <LatitudeDegrees>42.83232249319553375244140625</LatitudeDegrees>
              <LongitudeDegrees>-1.7253462038934230804443359375</LongitudeDegrees>
            </Position>
            <AltitudeMeters>410.20001220703125</AltitudeMeters>
            <DistanceMeters>13064.336617264</DistanceMeters>
          </Trackpoint>
          <Trackpoint>
            <Time>2018-08-26T06:14:11.000Z</Time>
            <Position>
              <LatitudeDegrees>42.83237085677683353424072265625</LatitudeDegrees>
              <LongitudeDegrees>-1.725391633808612823486328125</LongitudeDegrees>
            </Position>
            <AltitudeMeters>410.20001220703125</AltitudeMeters>
            <DistanceMeters>13070.873460671</DistanceMeters>
          </Trackpoint>
          <Trackpoint>
            <Time>2018-08-26T06:14:12.000Z</Time>
            <Position>
              <LatitudeDegrees>42.8324192203581333160400390625</LatitudeDegrees>
              <LongitudeDegrees>-1.72543664462864398956298828125</LongitudeDegrees>
            </Position>
            <AltitudeMeters>410.399993896484375</AltitudeMeters>
            <DistanceMeters>13077.390935611</DistanceMeters>
          </Trackpoint>
          <Trackpoint>
            <Time>2018-08-26T06:14:13.000Z</Time>
            <Position>
              <LatitudeDegrees>42.83246657811105251312255859375</LatitudeDegrees>
              <LongitudeDegrees>-1.72548207454383373260498046875</LongitudeDegrees>
            </Position>
            <AltitudeMeters>410.399993896484375</AltitudeMeters>
            <DistanceMeters>13083.835260367</DistanceMeters>
          </Trackpoint>
          <Trackpoint>
            <Time>2018-08-26T06:14:14.000Z</Time>
            <Position>
              <LatitudeDegrees>42.83251418732106685638427734375</LatitudeDegrees>
              <LongitudeDegrees>-1.7255272530019283294677734375</LongitudeDegrees>
            </Position>
            <AltitudeMeters>410.399993896484375</AltitudeMeters>
            <DistanceMeters>13090.291484718</DistanceMeters>
          </Trackpoint>
          <Trackpoint>
            <Time>2018-08-26T06:14:15.000Z</Time>
            <Position>
              <LatitudeDegrees>42.83256229944527149200439453125</LatitudeDegrees>
              <LongitudeDegrees>-1.72557159326970577239990234375</LongitudeDegrees>
            </Position>
            <AltitudeMeters>410.600006103515625</AltitudeMeters>
            <DistanceMeters>13096.754698596</DistanceMeters>
          </Trackpoint>
          <Trackpoint>
            <Time>2018-08-26T06:14:16.000Z</Time>
            <Position>
              <LatitudeDegrees>42.8326101601123809814453125</LatitudeDegrees>
              <LongitudeDegrees>-1.7256164364516735076904296875</LongitudeDegrees>
            </Position>
            <AltitudeMeters>410.600006103515625</AltitudeMeters>
            <DistanceMeters>13103.217912474</DistanceMeters>
          </Trackpoint>
          <Trackpoint>
            <Time>2018-08-26T06:14:17.000Z</Time>
            <Position>
              <LatitudeDegrees>42.83265911042690277099609375</LatitudeDegrees>
              <LongitudeDegrees>-1.7256622016429901123046875</LongitudeDegrees>
            </Position>
            <AltitudeMeters>410.600006103515625</AltitudeMeters>
            <DistanceMeters>13109.823465393</DistanceMeters>
          </Trackpoint>
          <Trackpoint>
            <Time>2018-08-26T06:14:18.000Z</Time>
            <Position>
              <LatitudeDegrees>42.832707054913043975830078125</LatitudeDegrees>
              <LongitudeDegrees>-1.7257072962820529937744140625</LongitudeDegrees>
            </Position>
            <AltitudeMeters>410.600006103515625</AltitudeMeters>
            <DistanceMeters>13116.305513349</DistanceMeters>
          </Trackpoint>
          <Trackpoint>
            <Time>2018-08-26T06:14:19.000Z</Time>
            <Position>
              <LatitudeDegrees>42.8327555023133754730224609375</LatitudeDegrees>
              <LongitudeDegrees>-1.72575272619724273681640625</LongitudeDegrees>
            </Position>
            <AltitudeMeters>410.79998779296875</AltitudeMeters>
            <DistanceMeters>13122.849260173</DistanceMeters>
          </Trackpoint>
          <Trackpoint>
            <Time>2018-08-26T06:14:20.000Z</Time>
            <Position>
              <LatitudeDegrees>42.8328044526278972625732421875</LatitudeDegrees>
              <LongitudeDegrees>-1.72579857520759105682373046875</LongitudeDegrees>
            </Position>
            <AltitudeMeters>410.79998779296875</AltitudeMeters>
            <DistanceMeters>13129.45891295</DistanceMeters>
          </Trackpoint>
          <Trackpoint>
            <Time>2018-08-26T06:14:21.000Z</Time>
            <Position>
              <LatitudeDegrees>42.83285281620919704437255859375</LatitudeDegrees>
              <LongitudeDegrees>-1.7258437536656856536865234375</LongitudeDegrees>
            </Position>
            <AltitudeMeters>410.79998779296875</AltitudeMeters>
            <DistanceMeters>13135.984003787</DistanceMeters>
          </Trackpoint>
          <Trackpoint>
            <Time>2018-08-26T06:14:22.000Z</Time>
            <Position>
              <LatitudeDegrees>42.83290076069533824920654296875</LatitudeDegrees>
              <LongitudeDegrees>-1.72588884830474853515625</LongitudeDegrees>
            </Position>
            <AltitudeMeters>410.79998779296875</AltitudeMeters>
            <DistanceMeters>13142.46674825</DistanceMeters>
          </Trackpoint>
          <Trackpoint>
            <Time>2018-08-26T06:14:23.000Z</Time>
            <Position>
              <LatitudeDegrees>42.832949124276638031005859375</LatitudeDegrees>
              <LongitudeDegrees>-1.7259346134960651397705078125</LongitudeDegrees>
            </Position>
            <AltitudeMeters>410.79998779296875</AltitudeMeters>
            <DistanceMeters>13149.019458643</DistanceMeters>
          </Trackpoint>
          <Trackpoint>
            <Time>2018-08-26T06:14:24.000Z</Time>
            <Position>
              <LatitudeDegrees>42.832997404038906097412109375</LatitudeDegrees>
              <LongitudeDegrees>-1.725980378687381744384765625</LongitudeDegrees>
            </Position>
            <AltitudeMeters>411</AltitudeMeters>
            <DistanceMeters>13155.564585276</DistanceMeters>
          </Trackpoint>
          <Trackpoint>
            <Time>2018-08-26T06:14:25.000Z</Time>
            <Position>
              <LatitudeDegrees>42.83304576762020587921142578125</LatitudeDegrees>
              <LongitudeDegrees>-1.72602639533579349517822265625</LongitudeDegrees>
            </Position>
            <AltitudeMeters>411</AltitudeMeters>
            <DistanceMeters>13162.12831095</DistanceMeters>
          </Trackpoint>
          <Trackpoint>
            <Time>2018-08-26T06:14:26.000Z</Time>
            <Position>
              <LatitudeDegrees>42.83309496939182281494140625</LatitudeDegrees>
              <LongitudeDegrees>-1.7260714061558246612548828125</LongitudeDegrees>
            </Position>
            <AltitudeMeters>411</AltitudeMeters>
            <DistanceMeters>13168.722918455</DistanceMeters>
          </Trackpoint>
          <Trackpoint>
            <Time>2018-08-26T06:14:27.000Z</Time>
            <Position>
              <LatitudeDegrees>42.8331439197063446044921875</LatitudeDegrees>
              <LongitudeDegrees>-1.726116500794887542724609375</LongitudeDegrees>
            </Position>
            <AltitudeMeters>411.20001220703125</AltitudeMeters>
            <DistanceMeters>13175.296954191</DistanceMeters>
          </Trackpoint>
          <Trackpoint>
            <Time>2018-08-26T06:14:28.000Z</Time>
            <Position>
              <LatitudeDegrees>42.83319328911602497100830078125</LatitudeDegrees>
              <LongitudeDegrees>-1.7261619307100772857666015625</LongitudeDegrees>
            </Position>
            <AltitudeMeters>411.20001220703125</AltitudeMeters>
            <DistanceMeters>13181.925706108</DistanceMeters>
          </Trackpoint>
          <Trackpoint>
            <Time>2018-08-26T06:14:29.000Z</Time>
            <Position>
              <LatitudeDegrees>42.83324223943054676055908203125</LatitudeDegrees>
              <LongitudeDegrees>-1.72620777972042560577392578125</LongitudeDegrees>
            </Position>
            <AltitudeMeters>411.20001220703125</AltitudeMeters>
            <DistanceMeters>13188.536041948</DistanceMeters>
          </Trackpoint>
          <Trackpoint>
            <Time>2018-08-26T06:14:30.000Z</Time>
            <Position>
              <LatitudeDegrees>42.83329018391668796539306640625</LatitudeDegrees>
              <LongitudeDegrees>-1.72625287435948848724365234375</LongitudeDegrees>
            </Position>
            <AltitudeMeters>411.20001220703125</AltitudeMeters>
            <DistanceMeters>13195.018786411</DistanceMeters>
          </Trackpoint>
          <Trackpoint>
            <Time>2018-08-26T06:14:31.000Z</Time>
            <Position>
              <LatitudeDegrees>42.8333395533263683319091796875</LatitudeDegrees>
              <LongitudeDegrees>-1.72629863955080509185791015625</LongitudeDegrees>
            </Position>
            <AltitudeMeters>411.399993896484375</AltitudeMeters>
            <DistanceMeters>13201.662506277</DistanceMeters>
          </Trackpoint>
          <Trackpoint>
            <Time>2018-08-26T06:14:32.000Z</Time>
            <Position>
              <LatitudeDegrees>42.8333881683647632598876953125</LatitudeDegrees>
              <LongitudeDegrees>-1.72634423710405826568603515625</LongitudeDegrees>
            </Position>
            <AltitudeMeters>411.399993896484375</AltitudeMeters>
            <DistanceMeters>13208.229670436</DistanceMeters>
          </Trackpoint>
          <Trackpoint>
            <Time>2018-08-26T06:14:33.000Z</Time>
            <Position>
              <LatitudeDegrees>42.8334371186792850494384765625</LatitudeDegrees>
              <LongitudeDegrees>-1.72638916410505771636962890625</LongitudeDegrees>
            </Position>
            <AltitudeMeters>411.399993896484375</AltitudeMeters>
            <DistanceMeters>13214.796834596</DistanceMeters>
          </Trackpoint>
          <Trackpoint>
            <Time>2018-08-26T06:14:34.000Z</Time>
            <Position>
              <LatitudeDegrees>42.83348665572702884674072265625</LatitudeDegrees>
              <LongitudeDegrees>-1.72643308527767658233642578125</LongitudeDegrees>
            </Position>
            <AltitudeMeters>411.600006103515625</AltitudeMeters>
            <DistanceMeters>13221.373616952</DistanceMeters>
          </Trackpoint>
          <Trackpoint>
            <Time>2018-08-26T06:14:35.000Z</Time>
            <Position>
              <LatitudeDegrees>42.83353828825056552886962890625</LatitudeDegrees>
              <LongitudeDegrees>-1.72647784464061260223388671875</LongitudeDegrees>
            </Position>
            <AltitudeMeters>411.600006103515625</AltitudeMeters>
            <DistanceMeters>13228.183791151</DistanceMeters>
          </Trackpoint>
          <Trackpoint>
            <Time>2018-08-26T06:14:36.000Z</Time>
            <Position>
              <LatitudeDegrees>42.83358849585056304931640625</LatitudeDegrees>
              <LongitudeDegrees>-1.72652344219386577606201171875</LongitudeDegrees>
            </Position>
            <AltitudeMeters>411.600006103515625</AltitudeMeters>
            <DistanceMeters>13234.898489334</DistanceMeters>
          </Trackpoint>
          <Trackpoint>
            <Time>2018-08-26T06:14:37.000Z</Time>
            <Position>
              <LatitudeDegrees>42.83363836817443370819091796875</LatitudeDegrees>
              <LongitudeDegrees>-1.72656811773777008056640625</LongitudeDegrees>
            </Position>
            <AltitudeMeters>411.79998779296875</AltitudeMeters>
            <DistanceMeters>13241.540170102</DistanceMeters>
          </Trackpoint>
          <Trackpoint>
            <Time>2018-08-26T06:14:38.000Z</Time>
            <Position>
              <LatitudeDegrees>42.83368748612701892852783203125</LatitudeDegrees>
              <LongitudeDegrees>-1.72661178745329380035400390625</LongitudeDegrees>
            </Position>
            <AltitudeMeters>411.79998779296875</AltitudeMeters>
            <DistanceMeters>13248.06733646</DistanceMeters>
          </Trackpoint>
          <Trackpoint>
            <Time>2018-08-26T06:14:39.000Z</Time>
            <Position>
              <LatitudeDegrees>42.83373492769896984100341796875</LatitudeDegrees>
              <LongitudeDegrees>-1.72665537334978580474853515625</LongitudeDegrees>
            </Position>
            <AltitudeMeters>411.79998779296875</AltitudeMeters>
            <DistanceMeters>13254.433417128</DistanceMeters>
          </Trackpoint>
          <Trackpoint>
            <Time>2018-08-26T06:14:40.000Z</Time>
            <Position>
              <LatitudeDegrees>42.83378253690898418426513671875</LatitudeDegrees>
              <LongitudeDegrees>-1.7266990430653095245361328125</LongitudeDegrees>
            </Position>
            <AltitudeMeters>412</AltitudeMeters>
            <DistanceMeters>13260.820032452</DistanceMeters>
          </Trackpoint>
          <Trackpoint>
            <Time>2018-08-26T06:14:41.000Z</Time>
            <Position>
              <LatitudeDegrees>42.83382947556674480438232421875</LatitudeDegrees>
              <LongitudeDegrees>-1.72674271278083324432373046875</LongitudeDegrees>
            </Position>
            <AltitudeMeters>412</AltitudeMeters>
            <DistanceMeters>13267.144843805</DistanceMeters>
          </Trackpoint>
          <Trackpoint>
            <Time>2018-08-26T06:14:42.000Z</Time>
            <Position>
              <LatitudeDegrees>42.83387641422450542449951171875</LatitudeDegrees>
              <LongitudeDegrees>-1.72678613103926181793212890625</LongitudeDegrees>
            </Position>
            <AltitudeMeters>412.20001220703125</AltitudeMeters>
            <DistanceMeters>13273.458223045</DistanceMeters>
          </Trackpoint>
          <Trackpoint>
            <Time>2018-08-26T06:14:43.000Z</Time>
            <Position>
              <LatitudeDegrees>42.8339249454438686370849609375</LatitudeDegrees>
              <LongitudeDegrees>-1.72683021984994411468505859375</LongitudeDegrees>
            </Position>
            <AltitudeMeters>412.20001220703125</AltitudeMeters>
            <DistanceMeters>13279.949319769</DistanceMeters>
          </Trackpoint>
          <Trackpoint>
            <Time>2018-08-26T06:14:44.000Z</Time>
            <Position>
              <LatitudeDegrees>42.833974398672580718994140625</LatitudeDegrees>
              <LongitudeDegrees>-1.72687497921288013458251953125</LongitudeDegrees>
            </Position>
            <AltitudeMeters>412.399993896484375</AltitudeMeters>
            <DistanceMeters>13286.556239591</DistanceMeters>
          </Trackpoint>
          <Trackpoint>
            <Time>2018-08-26T06:14:45.000Z</Time>
            <Position>
              <LatitudeDegrees>42.83402393572032451629638671875</LatitudeDegrees>
              <LongitudeDegrees>-1.72692141495645046234130859375</LongitudeDegrees>
            </Position>
            <AltitudeMeters>412.600006103515625</AltitudeMeters>
            <DistanceMeters>13293.247361994</DistanceMeters>
          </Trackpoint>
          <Trackpoint>
            <Time>2018-08-26T06:14:46.000Z</Time>
            <Position>
              <LatitudeDegrees>42.83407372422516345977783203125</LatitudeDegrees>
              <LongitudeDegrees>-1.72696835361421108245849609375</LongitudeDegrees>
            </Position>
            <AltitudeMeters>412.79998779296875</AltitudeMeters>
            <DistanceMeters>13299.985553469</DistanceMeters>
          </Trackpoint>
          <Trackpoint>
            <Time>2018-08-26T06:14:47.000Z</Time>
            <Position>
              <LatitudeDegrees>42.83412250690162181854248046875</LatitudeDegrees>
              <LongitudeDegrees>-1.72701462171971797943115234375</LongitudeDegrees>
            </Position>
            <AltitudeMeters>413</AltitudeMeters>
            <DistanceMeters>13306.599303562</DistanceMeters>
          </Trackpoint>
          <Trackpoint>
            <Time>2018-08-26T06:14:48.000Z</Time>
            <Position>
              <LatitudeDegrees>42.8341720439493656158447265625</LatitudeDegrees>
              <LongitudeDegrees>-1.72706105746328830718994140625</LongitudeDegrees>
            </Position>
            <AltitudeMeters>413.20001220703125</AltitudeMeters>
            <DistanceMeters>13313.289751151</DistanceMeters>
          </Trackpoint>
          <Trackpoint>
            <Time>2018-08-26T06:14:49.000Z</Time>
            <Position>
              <LatitudeDegrees>42.8342203237116336822509765625</LatitudeDegrees>
              <LongitudeDegrees>-1.7271090857684612274169921875</LongitudeDegrees>
            </Position>
            <AltitudeMeters>413.20001220703125</AltitudeMeters>
            <DistanceMeters>13319.941621157</DistanceMeters>
          </Trackpoint>
          <Trackpoint>
            <Time>2018-08-26T06:14:50.000Z</Time>
            <Position>
              <LatitudeDegrees>42.83426709473133087158203125</LatitudeDegrees>
              <LongitudeDegrees>-1.72715879045426845550537109375</LongitudeDegrees>
            </Position>
            <AltitudeMeters>413.20001220703125</AltitudeMeters>
            <DistanceMeters>13326.54033532</DistanceMeters>
          </Trackpoint>
          <Trackpoint>
            <Time>2018-08-26T06:14:51.000Z</Time>
            <Position>
              <LatitudeDegrees>42.83431311137974262237548828125</LatitudeDegrees>
              <LongitudeDegrees>-1.7272100038826465606689453125</LongitudeDegrees>
            </Position>
            <AltitudeMeters>413.399993896484375</AltitudeMeters>
            <DistanceMeters>13333.151354152</DistanceMeters>
          </Trackpoint>
          <Trackpoint>
            <Time>2018-08-26T06:14:52.000Z</Time>
            <Position>
              <LatitudeDegrees>42.83435787074267864227294921875</LatitudeDegrees>
              <LongitudeDegrees>-1.72726306132972240447998046875</LongitudeDegrees>
            </Position>
            <AltitudeMeters>413.399993896484375</AltitudeMeters>
            <DistanceMeters>13339.752804668</DistanceMeters>
          </Trackpoint>
          <Trackpoint>
            <Time>2018-08-26T06:14:53.000Z</Time>
            <Position>
              <LatitudeDegrees>42.83440095372498035430908203125</LatitudeDegrees>
              <LongitudeDegrees>-1.72731888480484485626220703125</LongitudeDegrees>
            </Position>
            <AltitudeMeters>413.399993896484375</AltitudeMeters>
            <DistanceMeters>13346.367919969</DistanceMeters>
          </Trackpoint>
          <Trackpoint>
            <Time>2018-08-26T06:14:54.000Z</Time>
            <Position>
              <LatitudeDegrees>42.83444277942180633544921875</LatitudeDegrees>
              <LongitudeDegrees>-1.727378480136394500732421875</LongitudeDegrees>
            </Position>
            <AltitudeMeters>413.399993896484375</AltitudeMeters>
            <DistanceMeters>13353.100748776</DistanceMeters>
          </Trackpoint>
          <Trackpoint>
            <Time>2018-08-26T06:14:55.000Z</Time>
            <Position>
              <LatitudeDegrees>42.8344850242137908935546875</LatitudeDegrees>
              <LongitudeDegrees>-1.72743991948664188385009765625</LongitudeDegrees>
            </Position>
            <AltitudeMeters>413.399993896484375</AltitudeMeters>
            <DistanceMeters>13359.974274797</DistanceMeters>
          </Trackpoint>
          <Trackpoint>
            <Time>2018-08-26T06:14:56.000Z</Time>
            <Position>
              <LatitudeDegrees>42.834526263177394866943359375</LatitudeDegrees>
              <LongitudeDegrees>-1.7275035381317138671875</LongitudeDegrees>
            </Position>
            <AltitudeMeters>413.399993896484375</AltitudeMeters>
            <DistanceMeters>13366.9040617</DistanceMeters>
          </Trackpoint>
          <Trackpoint>
            <Time>2018-08-26T06:14:57.000Z</Time>
            <Position>
              <LatitudeDegrees>42.83456624485552310943603515625</LatitudeDegrees>
              <LongitudeDegrees>-1.72756983898580074310302734375</LongitudeDegrees>
            </Position>
            <AltitudeMeters>413.399993896484375</AltitudeMeters>
            <DistanceMeters>13373.910308595</DistanceMeters>
          </Trackpoint>
          <Trackpoint>
            <Time>2018-08-26T06:14:58.000Z</Time>
            <Position>
              <LatitudeDegrees>42.83460480161011219024658203125</LatitudeDegrees>
              <LongitudeDegrees>-1.72763605602085590362548828125</LongitudeDegrees>
            </Position>
            <AltitudeMeters>413.399993896484375</AltitudeMeters>
            <DistanceMeters>13380.811368163</DistanceMeters>
          </Trackpoint>
          <Trackpoint>
            <Time>2018-08-26T06:14:59.000Z</Time>
            <Position>
              <LatitudeDegrees>42.83464017324149608612060546875</LatitudeDegrees>
              <LongitudeDegrees>-1.72770160250365734100341796875</LongitudeDegrees>
            </Position>
            <AltitudeMeters>413.399993896484375</AltitudeMeters>
            <DistanceMeters>13387.4544084</DistanceMeters>
          </Trackpoint>
          <Trackpoint>
            <Time>2018-08-26T06:15:00.000Z</Time>
            <Position>
              <LatitudeDegrees>42.8346729464828968048095703125</LatitudeDegrees>
              <LongitudeDegrees>-1.727768070995807647705078125</LongitudeDegrees>
            </Position>
            <AltitudeMeters>413.399993896484375</AltitudeMeters>
            <DistanceMeters>13393.991251807</DistanceMeters>
          </Trackpoint>
          <Trackpoint>
            <Time>2018-08-26T06:15:01.000Z</Time>
            <Position>
              <LatitudeDegrees>42.834703959524631500244140625</LatitudeDegrees>
              <LongitudeDegrees>-1.72783571295440196990966796875</LongitudeDegrees>
            </Position>
            <AltitudeMeters>413.600006103515625</AltitudeMeters>
            <DistanceMeters>13400.501795473</DistanceMeters>
          </Trackpoint>
          <Trackpoint>
            <Time>2018-08-26T06:15:02.000Z</Time>
            <Position>
              <LatitudeDegrees>42.8347282670438289642333984375</LatitudeDegrees>
              <LongitudeDegrees>-1.72790746204555034637451171875</LongitudeDegrees>
            </Position>
            <AltitudeMeters>413.600006103515625</AltitudeMeters>
            <DistanceMeters>13406.952422749</DistanceMeters>
          </Trackpoint>
          <Trackpoint>
            <Time>2018-08-26T06:15:03.000Z</Time>
            <Position>
              <LatitudeDegrees>42.83474192954599857330322265625</LatitudeDegrees>
              <LongitudeDegrees>-1.7279854975640773773193359375</LongitudeDegrees>
            </Position>
            <AltitudeMeters>413.600006103515625</AltitudeMeters>
            <DistanceMeters>13413.50030813</DistanceMeters>
          </Trackpoint>
          <Trackpoint>
            <Time>2018-08-26T06:15:04.000Z</Time>
            <Position>
              <LatitudeDegrees>42.83474327065050601959228515625</LatitudeDegrees>
              <LongitudeDegrees>-1.72806747257709503173828125</LongitudeDegrees>
            </Position>
            <AltitudeMeters>413.600006103515625</AltitudeMeters>
            <DistanceMeters>13420.193454568</DistanceMeters>
          </Trackpoint>
          <Trackpoint>
            <Time>2018-08-26T06:15:05.000Z</Time>
            <Position>
              <LatitudeDegrees>42.83473220653831958770751953125</LatitudeDegrees>
              <LongitudeDegrees>-1.72814869321882724761962890625</LongitudeDegrees>
            </Position>
            <AltitudeMeters>413.79998779296875</AltitudeMeters>
            <DistanceMeters>13426.937004447</DistanceMeters>
          </Trackpoint>
          <Trackpoint>
            <Time>2018-08-26T06:15:06.000Z</Time>
            <Position>
              <LatitudeDegrees>42.8347094915807247161865234375</LatitudeDegrees>
              <LongitudeDegrees>-1.72822513617575168609619140625</LongitudeDegrees>
            </Position>
            <AltitudeMeters>413.79998779296875</AltitudeMeters>
            <DistanceMeters>13433.66916262</DistanceMeters>
          </Trackpoint>
          <Trackpoint>
            <Time>2018-08-26T06:15:07.000Z</Time>
            <Position>
              <LatitudeDegrees>42.834674455225467681884765625</LatitudeDegrees>
              <LongitudeDegrees>-1.7282932810485363006591796875</LongitudeDegrees>
            </Position>
            <AltitudeMeters>414</AltitudeMeters>
            <DistanceMeters>13440.462077357</DistanceMeters>
          </Trackpoint>
          <Trackpoint>
            <Time>2018-08-26T06:15:08.000Z</Time>
            <Position>
              <LatitudeDegrees>42.8346286900341510772705078125</LatitudeDegrees>
              <LongitudeDegrees>-1.7283512838184833526611328125</LongitudeDegrees>
            </Position>
            <AltitudeMeters>414</AltitudeMeters>
            <DistanceMeters>13447.416578737</DistanceMeters>
          </Trackpoint>
          <Trackpoint>
            <Time>2018-08-26T06:15:09.000Z</Time>
            <Position>
              <LatitudeDegrees>42.83457831479609012603759765625</LatitudeDegrees>
              <LongitudeDegrees>-1.72840274870395660400390625</LongitudeDegrees>
            </Position>
            <AltitudeMeters>414</AltitudeMeters>
            <DistanceMeters>13454.422825631</DistanceMeters>
          </Trackpoint>
          <Trackpoint>
            <Time>2018-08-26T06:15:10.000Z</Time>
            <Position>
              <LatitudeDegrees>42.83452718518674373626708984375</LatitudeDegrees>
              <LongitudeDegrees>-1.72845236957073211669921875</LongitudeDegrees>
            </Position>
            <AltitudeMeters>414</AltitudeMeters>
            <DistanceMeters>13461.408420316</DistanceMeters>
          </Trackpoint>
          <Trackpoint>
            <Time>2018-08-26T06:15:11.000Z</Time>
            <Position>
              <LatitudeDegrees>42.834477983415126800537109375</LatitudeDegrees>
              <LongitudeDegrees>-1.72850291244685649871826171875</LongitudeDegrees>
            </Position>
            <AltitudeMeters>414.20001220703125</AltitudeMeters>
            <DistanceMeters>13468.264846351</DistanceMeters>
          </Trackpoint>
          <Trackpoint>
            <Time>2018-08-26T06:15:12.000Z</Time>
            <Position>
              <LatitudeDegrees>42.83443783409893512725830078125</LatitudeDegrees>
              <LongitudeDegrees>-1.7285615019500255584716796875</LongitudeDegrees>
            </Position>
            <AltitudeMeters>414.20001220703125</AltitudeMeters>
            <DistanceMeters>13474.809972985</DistanceMeters>
          </Trackpoint>
          <Trackpoint>
            <Time>2018-08-26T06:15:13.000Z</Time>
            <Position>
              <LatitudeDegrees>42.83441771753132343292236328125</LatitudeDegrees>
              <LongitudeDegrees>-1.72863065265119075775146484375</LongitudeDegrees>
            </Position>
            <AltitudeMeters>414.20001220703125</AltitudeMeters>
            <DistanceMeters>13480.882767415</DistanceMeters>
          </Trackpoint>
          <Trackpoint>
            <Time>2018-08-26T06:15:14.000Z</Time>
            <Position>
              <LatitudeDegrees>42.834419310092926025390625</LatitudeDegrees>
              <LongitudeDegrees>-1.7287046648561954498291015625</LongitudeDegrees>
            </Position>
            <AltitudeMeters>414.399993896484375</AltitudeMeters>
            <DistanceMeters>13486.925749224</DistanceMeters>
          </Trackpoint>
          <Trackpoint>
            <Time>2018-08-26T06:15:15.000Z</Time>
            <Position>
              <LatitudeDegrees>42.83443867228925228118896484375</LatitudeDegrees>
              <LongitudeDegrees>-1.72877549193799495697021484375</LongitudeDegrees>
            </Position>
            <AltitudeMeters>414.600006103515625</AltitudeMeters>
            <DistanceMeters>13493.095903378</DistanceMeters>
          </Trackpoint>
          <Trackpoint>
            <Time>2018-08-26T06:15:16.000Z</Time>
            <Position>
              <LatitudeDegrees>42.8344667516648769378662109375</LatitudeDegrees>
              <LongitudeDegrees>-1.72884464263916015625</LongitudeDegrees>
            </Position>
            <AltitudeMeters>414.600006103515625</AltitudeMeters>
            <DistanceMeters>13499.547930378</DistanceMeters>
          </Trackpoint>
          <Trackpoint>
            <Time>2018-08-26T06:15:17.000Z</Time>
            <Position>
              <LatitudeDegrees>42.83449709415435791015625</LatitudeDegrees>
              <LongitudeDegrees>-1.72891127876937389373779296875</LongitudeDegrees>
            </Position>
            <AltitudeMeters>414.79998779296875</AltitudeMeters>
            <DistanceMeters>13505.950079781</DistanceMeters>
          </Trackpoint>
          <Trackpoint>
            <Time>2018-08-26T06:15:18.000Z</Time>
            <Position>
              <LatitudeDegrees>42.834528274834156036376953125</LatitudeDegrees>
              <LongitudeDegrees>-1.72897716052830219268798828125</LongitudeDegrees>
            </Position>
            <AltitudeMeters>415</AltitudeMeters>
            <DistanceMeters>13512.350113121</DistanceMeters>
          </Trackpoint>
          <Trackpoint>
            <Time>2018-08-26T06:15:19.000Z</Time>
            <Position>
              <LatitudeDegrees>42.83456004224717617034912109375</LatitudeDegrees>
              <LongitudeDegrees>-1.72904220409691333770751953125</LongitudeDegrees>
            </Position>
            <AltitudeMeters>415.399993896484375</AltitudeMeters>
            <DistanceMeters>13518.727531431</DistanceMeters>
          </Trackpoint>
          <Trackpoint>
            <Time>2018-08-26T06:15:20.000Z</Time>
            <Position>
              <LatitudeDegrees>42.83459222875535488128662109375</LatitudeDegrees>
              <LongitudeDegrees>-1.72910490073263645172119140625</LongitudeDegrees>
            </Position>
            <AltitudeMeters>415.600006103515625</AltitudeMeters>
            <DistanceMeters>13524.974770052</DistanceMeters>
          </Trackpoint>
          <Trackpoint>
            <Time>2018-08-26T06:15:21.000Z</Time>
            <Position>
              <LatitudeDegrees>42.83462374471127986907958984375</LatitudeDegrees>
              <LongitudeDegrees>-1.729166507720947265625</LongitudeDegrees>
            </Position>
            <AltitudeMeters>415.79998779296875</AltitudeMeters>
            <DistanceMeters>13531.105282116</DistanceMeters>
          </Trackpoint>
          <Trackpoint>
            <Time>2018-08-26T06:15:22.000Z</Time>
            <Position>
              <LatitudeDegrees>42.83465827815234661102294921875</LatitudeDegrees>
              <LongitudeDegrees>-1.72922409139573574066162109375</LongitudeDegrees>
            </Position>
            <AltitudeMeters>415.79998779296875</AltitudeMeters>
            <DistanceMeters>13537.176589392</DistanceMeters>
          </Trackpoint>
          <Trackpoint>
            <Time>2018-08-26T06:15:23.000Z</Time>
            <Position>
              <LatitudeDegrees>42.8346960805356502532958984375</LatitudeDegrees>
              <LongitudeDegrees>-1.729277484118938446044921875</LongitudeDegrees>
            </Position>
            <AltitudeMeters>415.79998779296875</AltitudeMeters>
            <DistanceMeters>13543.234495851</DistanceMeters>
          </Trackpoint>
          <Trackpoint>
            <Time>2018-08-26T06:15:24.000Z</Time>
            <Position>
              <LatitudeDegrees>42.83473254181444644927978515625</LatitudeDegrees>
              <LongitudeDegrees>-1.72933272086083889007568359375</LongitudeDegrees>
            </Position>
            <AltitudeMeters>416</AltitudeMeters>
            <DistanceMeters>13549.299850864</DistanceMeters>
          </Trackpoint>
          <Trackpoint>
            <Time>2018-08-26T06:15:25.000Z</Time>
            <Position>
              <LatitudeDegrees>42.8347628004848957061767578125</LatitudeDegrees>
              <LongitudeDegrees>-1.72939273528754711151123046875</LongitudeDegrees>
            </Position>
            <AltitudeMeters>416</AltitudeMeters>
            <DistanceMeters>13555.243390134</DistanceMeters>
          </Trackpoint>
          <Trackpoint>
            <Time>2018-08-26T06:15:26.000Z</Time>
            <Position>
              <LatitudeDegrees>42.83478886820375919342041015625</LatitudeDegrees>
              <LongitudeDegrees>-1.72945685684680938720703125</LongitudeDegrees>
            </Position>
            <AltitudeMeters>416.20001220703125</AltitudeMeters>
            <DistanceMeters>13561.227055657</DistanceMeters>
          </Trackpoint>
          <Trackpoint>
            <Time>2018-08-26T06:15:27.000Z</Time>
            <Position>
              <LatitudeDegrees>42.834815941751003265380859375</LatitudeDegrees>
              <LongitudeDegrees>-1.72952181659638881683349609375</LongitudeDegrees>
            </Position>
            <AltitudeMeters>416.399993896484375</AltitudeMeters>
            <DistanceMeters>13567.325076221</DistanceMeters>
          </Trackpoint>
          <Trackpoint>
            <Time>2018-08-26T06:15:28.000Z</Time>
            <Position>
              <LatitudeDegrees>42.8348456136882305145263671875</LatitudeDegrees>
              <LongitudeDegrees>-1.7295850999653339385986328125</LongitudeDegrees>
            </Position>
            <AltitudeMeters>416.600006103515625</AltitudeMeters>
            <DistanceMeters>13573.455588285</DistanceMeters>
          </Trackpoint>
          <Trackpoint>
            <Time>2018-08-26T06:15:29.000Z</Time>
            <Position>
              <LatitudeDegrees>42.8348751179873943328857421875</LatitudeDegrees>
              <LongitudeDegrees>-1.72964653931558132171630859375</LongitudeDegrees>
            </Position>
            <AltitudeMeters>416.79998779296875</AltitudeMeters>
            <DistanceMeters>13579.449808348</DistanceMeters>
          </Trackpoint>
          <Trackpoint>
            <Time>2018-08-26T06:15:30.000Z</Time>
            <Position>
              <LatitudeDegrees>42.83490235917270183563232421875</LatitudeDegrees>
              <LongitudeDegrees>-1.72970655374228954315185546875</LongitudeDegrees>
            </Position>
            <AltitudeMeters>417</AltitudeMeters>
            <DistanceMeters>13585.21128047</DistanceMeters>
          </Trackpoint>
          <Trackpoint>
            <Time>2018-08-26T06:15:31.000Z</Time>
            <Position>
              <LatitudeDegrees>42.8349294327199459075927734375</LatitudeDegrees>
              <LongitudeDegrees>-1.72976874746382236480712890625</LongitudeDegrees>
            </Position>
            <AltitudeMeters>417.20001220703125</AltitudeMeters>
            <DistanceMeters>13591.114420736</DistanceMeters>
          </Trackpoint>
          <Trackpoint>
            <Time>2018-08-26T06:15:32.000Z</Time>
            <Position>
              <LatitudeDegrees>42.83495767973363399505615234375</LatitudeDegrees>
              <LongitudeDegrees>-1.72983236610889434814453125</LongitudeDegrees>
            </Position>
            <AltitudeMeters>417.20001220703125</AltitudeMeters>
            <DistanceMeters>13597.184984298</DistanceMeters>
          </Trackpoint>
          <Trackpoint>
            <Time>2018-08-26T06:15:33.000Z</Time>
            <Position>
              <LatitudeDegrees>42.83498668111860752105712890625</LatitudeDegrees>
              <LongitudeDegrees>-1.72989430837333202362060546875</LongitudeDegrees>
            </Position>
            <AltitudeMeters>417.399993896484375</AltitudeMeters>
            <DistanceMeters>13603.183722051</DistanceMeters>
          </Trackpoint>
          <Trackpoint>
            <Time>2018-08-26T06:15:34.000Z</Time>
            <Position>
              <LatitudeDegrees>42.83501735888421535491943359375</LatitudeDegrees>
              <LongitudeDegrees>-1.72995507717132568359375</LongitudeDegrees>
            </Position>
            <AltitudeMeters>417.600006103515625</AltitudeMeters>
            <DistanceMeters>13609.205747209</DistanceMeters>
          </Trackpoint>
          <Trackpoint>
            <Time>2018-08-26T06:15:35.000Z</Time>
            <Position>
              <LatitudeDegrees>42.83504602499306201934814453125</LatitudeDegrees>
              <LongitudeDegrees>-1.7300159297883510589599609375</LongitudeDegrees>
            </Position>
            <AltitudeMeters>418</AltitudeMeters>
            <DistanceMeters>13615.109652279</DistanceMeters>
          </Trackpoint>
          <Trackpoint>
            <Time>2018-08-26T06:15:36.000Z</Time>
            <Position>
              <LatitudeDegrees>42.83507251180708408355712890625</LatitudeDegrees>
              <LongitudeDegrees>-1.7300752736628055572509765625</LongitudeDegrees>
            </Position>
            <AltitudeMeters>418.20001220703125</AltitudeMeters>
            <DistanceMeters>13620.780287359</DistanceMeters>
          </Trackpoint>
          <Trackpoint>
            <Time>2018-08-26T06:15:37.000Z</Time>
            <Position>
              <LatitudeDegrees>42.83509899862110614776611328125</LatitudeDegrees>
              <LongitudeDegrees>-1.73013411462306976318359375</LongitudeDegrees>
            </Position>
            <AltitudeMeters>418.600006103515625</AltitudeMeters>
            <DistanceMeters>13626.415780137</DistanceMeters>
          </Trackpoint>
          <Trackpoint>
            <Time>2018-08-26T06:15:38.000Z</Time>
            <Position>
              <LatitudeDegrees>42.8351207077503204345703125</LatitudeDegrees>
              <LongitudeDegrees>-1.73019303940236568450927734375</LongitudeDegrees>
            </Position>
            <AltitudeMeters>418.600006103515625</AltitudeMeters>
            <DistanceMeters>13631.797179134</DistanceMeters>
          </Trackpoint>
          <Trackpoint>
            <Time>2018-08-26T06:15:39.000Z</Time>
            <Position>
              <LatitudeDegrees>42.835137806832790374755859375</LatitudeDegrees>
              <LongitudeDegrees>-1.7302496172487735748291015625</LongitudeDegrees>
            </Position>
            <AltitudeMeters>418.79998779296875</AltitudeMeters>
            <DistanceMeters>13636.791282771</DistanceMeters>
          </Trackpoint>
          <Trackpoint>
            <Time>2018-08-26T06:15:40.000Z</Time>
            <Position>
              <LatitudeDegrees>42.83515750430524349212646484375</LatitudeDegrees>
              <LongitudeDegrees>-1.73030384816229343414306640625</LongitudeDegrees>
            </Position>
            <AltitudeMeters>419</AltitudeMeters>
            <DistanceMeters>13641.730844143</DistanceMeters>
          </Trackpoint>
          <Trackpoint>
            <Time>2018-08-26T06:15:41.000Z</Time>
            <Position>
              <LatitudeDegrees>42.83518197946250438690185546875</LatitudeDegrees>
              <LongitudeDegrees>-1.73035648651421070098876953125</LongitudeDegrees>
            </Position>
            <AltitudeMeters>419</AltitudeMeters>
            <DistanceMeters>13646.818102647</DistanceMeters>
          </Trackpoint>
          <Trackpoint>
            <Time>2018-08-26T06:15:42.000Z</Time>
            <Position>
              <LatitudeDegrees>42.835208885371685028076171875</LatitudeDegrees>
              <LongitudeDegrees>-1.730410717427730560302734375</LongitudeDegrees>
            </Position>
            <AltitudeMeters>419.20001220703125</AltitudeMeters>
            <DistanceMeters>13652.162457781</DistanceMeters>
          </Trackpoint>
          <Trackpoint>
            <Time>2018-08-26T06:15:43.000Z</Time>
            <Position>
              <LatitudeDegrees>42.8352352045476436614990234375</LatitudeDegrees>
              <LongitudeDegrees>-1.73046729527413845062255859375</LongitudeDegrees>
            </Position>
            <AltitudeMeters>419.600006103515625</AltitudeMeters>
            <DistanceMeters>13657.631243129</DistanceMeters>
          </Trackpoint>
          <Trackpoint>
            <Time>2018-08-26T06:15:44.000Z</Time>
            <Position>
              <LatitudeDegrees>42.835261858999729156494140625</LatitudeDegrees>
              <LongitudeDegrees>-1.73052462749183177947998046875</LongitudeDegrees>
            </Position>
            <AltitudeMeters>419.79998779296875</AltitudeMeters>
            <DistanceMeters>13663.171390224</DistanceMeters>
          </Trackpoint>
          <Trackpoint>
            <Time>2018-08-26T06:15:45.000Z</Time>
            <Position>
              <LatitudeDegrees>42.8352911956608295440673828125</LatitudeDegrees>
              <LongitudeDegrees>-1.73057843931019306182861328125</LongitudeDegrees>
            </Position>
            <AltitudeMeters>419.79998779296875</AltitudeMeters>
            <DistanceMeters>13668.643476982</DistanceMeters>
          </Trackpoint>
          <Trackpoint>
            <Time>2018-08-26T06:15:46.000Z</Time>
            <Position>
              <LatitudeDegrees>42.83532279543578624725341796875</LatitudeDegrees>
              <LongitudeDegrees>-1.7306284792721271514892578125</LongitudeDegrees>
            </Position>
            <AltitudeMeters>420</AltitudeMeters>
            <DistanceMeters>13674.03325953</DistanceMeters>
          </Trackpoint>
          <Trackpoint>
            <Time>2018-08-26T06:15:47.000Z</Time>
            <Position>
              <LatitudeDegrees>42.83535632304847240447998046875</LatitudeDegrees>
              <LongitudeDegrees>-1.73067550174891948699951171875</LongitudeDegrees>
            </Position>
            <AltitudeMeters>420.399993896484375</AltitudeMeters>
            <DistanceMeters>13679.386899659</DistanceMeters>
          </Trackpoint>
          <Trackpoint>
            <Time>2018-08-26T06:15:48.000Z</Time>
            <Position>
              <LatitudeDegrees>42.8353916108608245849609375</LatitudeDegrees>
              <LongitudeDegrees>-1.73072176985442638397216796875</LongitudeDegrees>
            </Position>
            <AltitudeMeters>420.600006103515625</AltitudeMeters>
            <DistanceMeters>13684.835834541</DistanceMeters>
          </Trackpoint>
          <Trackpoint>
            <Time>2018-08-26T06:15:49.000Z</Time>
            <Position>
              <LatitudeDegrees>42.8354266472160816192626953125</LatitudeDegrees>
              <LongitudeDegrees>-1.730768121778964996337890625</LongitudeDegrees>
            </Position>
            <AltitudeMeters>420.79998779296875</AltitudeMeters>
            <DistanceMeters>13690.269833987</DistanceMeters>
          </Trackpoint>
          <Trackpoint>
            <Time>2018-08-26T06:15:50.000Z</Time>
            <Position>
              <LatitudeDegrees>42.83546076156198978424072265625</LatitudeDegrees>
              <LongitudeDegrees>-1.7308132164180278778076171875</LongitudeDegrees>
            </Position>
            <AltitudeMeters>421</AltitudeMeters>
            <DistanceMeters>13695.557282962</DistanceMeters>
          </Trackpoint>
          <Trackpoint>
            <Time>2018-08-26T06:15:51.000Z</Time>
            <Position>
              <LatitudeDegrees>42.83549881540238857269287109375</LatitudeDegrees>
              <LongitudeDegrees>-1.7308487556874752044677734375</LongitudeDegrees>
            </Position>
            <AltitudeMeters>421.600006103515625</AltitudeMeters>
            <DistanceMeters>13700.690484991</DistanceMeters>
          </Trackpoint>
          <Trackpoint>
            <Time>2018-08-26T06:15:52.000Z</Time>
            <Position>
              <LatitudeDegrees>42.83554290421307086944580078125</LatitudeDegrees>
              <LongitudeDegrees>-1.73086501657962799072265625</LongitudeDegrees>
            </Position>
            <AltitudeMeters>422</AltitudeMeters>
            <DistanceMeters>13705.77419218</DistanceMeters>
          </Trackpoint>
          <Trackpoint>
            <Time>2018-08-26T06:15:53.000Z</Time>
            <Position>
              <LatitudeDegrees>42.83558833412826061248779296875</LatitudeDegrees>
              <LongitudeDegrees>-1.73088253475725650787353515625</LongitudeDegrees>
            </Position>
            <AltitudeMeters>422.399993896484375</AltitudeMeters>
            <DistanceMeters>13711.029951291</DistanceMeters>
          </Trackpoint>
          <Trackpoint>
            <Time>2018-08-26T06:15:54.000Z</Time>
            <Position>
              <LatitudeDegrees>42.83563041128218173980712890625</LatitudeDegrees>
              <LongitudeDegrees>-1.73091597855091094970703125</LongitudeDegrees>
            </Position>
            <AltitudeMeters>422.600006103515625</AltitudeMeters>
            <DistanceMeters>13716.450640247</DistanceMeters>
          </Trackpoint>
          <Trackpoint>
            <Time>2018-08-26T06:15:55.000Z</Time>
            <Position>
              <LatitudeDegrees>42.835671901702880859375</LatitudeDegrees>
              <LongitudeDegrees>-1.7309595644474029541015625</LongitudeDegrees>
            </Position>
            <AltitudeMeters>422.79998779296875</AltitudeMeters>
            <DistanceMeters>13722.279892142</DistanceMeters>
          </Trackpoint>
          <Trackpoint>
            <Time>2018-08-26T06:15:56.000Z</Time>
            <Position>
              <LatitudeDegrees>42.8357109613716602325439453125</LatitudeDegrees>
              <LongitudeDegrees>-1.73100373707711696624755859375</LongitudeDegrees>
            </Position>
            <AltitudeMeters>423</AltitudeMeters>
            <DistanceMeters>13727.927389818</DistanceMeters>
          </Trackpoint>
          <Trackpoint>
            <Time>2018-08-26T06:15:57.000Z</Time>
            <Position>
              <LatitudeDegrees>42.835747338831424713134765625</LatitudeDegrees>
              <LongitudeDegrees>-1.73104765824973583221435546875</LongitudeDegrees>
            </Position>
            <AltitudeMeters>423.399993896484375</AltitudeMeters>
            <DistanceMeters>13733.334735518</DistanceMeters>
          </Trackpoint>
          <Trackpoint>
            <Time>2018-08-26T06:15:58.000Z</Time>
            <Position>
              <LatitudeDegrees>42.83578061498701572418212890625</LatitudeDegrees>
              <LongitudeDegrees>-1.73109794966876506805419921875</LongitudeDegrees>
            </Position>
            <AltitudeMeters>423.399993896484375</AltitudeMeters>
            <DistanceMeters>13738.86427789</DistanceMeters>
          </Trackpoint>
          <Trackpoint>
            <Time>2018-08-26T06:15:59.000Z</Time>
            <Position>
              <LatitudeDegrees>42.835813052952289581298828125</LatitudeDegrees>
              <LongitudeDegrees>-1.731155030429363250732421875</LongitudeDegrees>
            </Position>
            <AltitudeMeters>423.600006103515625</AltitudeMeters>
            <DistanceMeters>13744.758998762</DistanceMeters>
          </Trackpoint>
          <Trackpoint>
            <Time>2018-08-26T06:16:00.000Z</Time>
            <Position>
              <LatitudeDegrees>42.8358470834791660308837890625</LatitudeDegrees>
              <LongitudeDegrees>-1.7312105186283588409423828125</LongitudeDegrees>
            </Position>
            <AltitudeMeters>423.79998779296875</AltitudeMeters>
            <DistanceMeters>13750.661374124</DistanceMeters>
          </Trackpoint>
          <Trackpoint>
            <Time>2018-08-26T06:16:01.000Z</Time>
            <Position>
              <LatitudeDegrees>42.8358853049576282501220703125</LatitudeDegrees>
              <LongitudeDegrees>-1.73126139678061008453369140625</LongitudeDegrees>
            </Position>
            <AltitudeMeters>423.79998779296875</AltitudeMeters>
            <DistanceMeters>13756.604913394</DistanceMeters>
          </Trackpoint>
          <Trackpoint>
            <Time>2018-08-26T06:16:02.000Z</Time>
            <Position>
              <LatitudeDegrees>42.83592679537832736968994140625</LatitudeDegrees>
              <LongitudeDegrees>-1.73130950890481472015380859375</LongitudeDegrees>
            </Position>
            <AltitudeMeters>423.79998779296875</AltitudeMeters>
            <DistanceMeters>13762.666545274</DistanceMeters>
          </Trackpoint>
          <Trackpoint>
            <Time>2018-08-26T06:16:03.000Z</Time>
            <Position>
              <LatitudeDegrees>42.83596836961805820465087890625</LatitudeDegrees>
              <LongitudeDegrees>-1.73135594464838504791259765625</LongitudeDegrees>
            </Position>
            <AltitudeMeters>424</AltitudeMeters>
            <DistanceMeters>13768.647946688</DistanceMeters>
          </Trackpoint>
          <Trackpoint>
            <Time>2018-08-26T06:16:04.000Z</Time>
            <Position>
              <LatitudeDegrees>42.836008183658123016357421875</LatitudeDegrees>
              <LongitudeDegrees>-1.73140187747776508331298828125</LongitudeDegrees>
            </Position>
            <AltitudeMeters>424</AltitudeMeters>
            <DistanceMeters>13774.452360113</DistanceMeters>
          </Trackpoint>
          <Trackpoint>
            <Time>2018-08-26T06:16:05.000Z</Time>
            <Position>
              <LatitudeDegrees>42.83604632131755352020263671875</LatitudeDegrees>
              <LongitudeDegrees>-1.7314458824694156646728515625</LongitudeDegrees>
            </Position>
            <AltitudeMeters>424</AltitudeMeters>
            <DistanceMeters>13780.012844062</DistanceMeters>
          </Trackpoint>
          <Trackpoint>
            <Time>2018-08-26T06:16:06.000Z</Time>
            <Position>
              <LatitudeDegrees>42.836082279682159423828125</LatitudeDegrees>
              <LongitudeDegrees>-1.73149005509912967681884765625</LongitudeDegrees>
            </Position>
            <AltitudeMeters>424.20001220703125</AltitudeMeters>
            <DistanceMeters>13785.400112914</DistanceMeters>
          </Trackpoint>
          <Trackpoint>
            <Time>2018-08-26T06:16:07.000Z</Time>
            <Position>
              <LatitudeDegrees>42.836110107600688934326171875</LatitudeDegrees>
              <LongitudeDegrees>-1.73154227435588836669921875</LongitudeDegrees>
            </Position>
            <AltitudeMeters>424.399993896484375</AltitudeMeters>
            <DistanceMeters>13790.668742242</DistanceMeters>
          </Trackpoint>
          <Trackpoint>
            <Time>2018-08-26T06:16:08.000Z</Time>
            <Position>
              <LatitudeDegrees>42.83612594939768314361572265625</LatitudeDegrees>
              <LongitudeDegrees>-1.73160404898226261138916015625</LongitudeDegrees>
            </Position>
            <AltitudeMeters>424.600006103515625</AltitudeMeters>
            <DistanceMeters>13796.009717011</DistanceMeters>
          </Trackpoint>
          <Trackpoint>
            <Time>2018-08-26T06:16:09.000Z</Time>
            <Position>
              <LatitudeDegrees>42.83612452447414398193359375</LatitudeDegrees>
              <LongitudeDegrees>-1.7316711880266666412353515625</LongitudeDegrees>
            </Position>
            <AltitudeMeters>424.79998779296875</AltitudeMeters>
            <DistanceMeters>13801.49169607</DistanceMeters>
          </Trackpoint>
          <Trackpoint>
            <Time>2018-08-26T06:16:10.000Z</Time>
            <Position>
              <LatitudeDegrees>42.83610449172556400299072265625</LatitudeDegrees>
              <LongitudeDegrees>-1.73173765651881694793701171875</LongitudeDegrees>
            </Position>
            <AltitudeMeters>425</AltitudeMeters>
            <DistanceMeters>13807.357238778</DistanceMeters>
          </Trackpoint>
          <Trackpoint>
            <Time>2018-08-26T06:16:11.000Z</Time>
            <Position>
              <LatitudeDegrees>42.836071550846099853515625</LatitudeDegrees>
              <LongitudeDegrees>-1.73180387355387210845947265625</LongitudeDegrees>
            </Position>
            <AltitudeMeters>425.20001220703125</AltitudeMeters>
            <DistanceMeters>13813.88717147</DistanceMeters>
          </Trackpoint>
          <Trackpoint>
            <Time>2018-08-26T06:16:12.000Z</Time>
            <Position>
              <LatitudeDegrees>42.83603332936763763427734375</LatitudeDegrees>
              <LongitudeDegrees>-1.7318693362176418304443359375</LongitudeDegrees>
            </Position>
            <AltitudeMeters>425.399993896484375</AltitudeMeters>
            <DistanceMeters>13820.716545148</DistanceMeters>
          </Trackpoint>
          <Trackpoint>
            <Time>2018-08-26T06:16:13.000Z</Time>
            <Position>
              <LatitudeDegrees>42.8359939344227313995361328125</LatitudeDegrees>
              <LongitudeDegrees>-1.7319380678236484527587890625</LongitudeDegrees>
            </Position>
            <AltitudeMeters>425.399993896484375</AltitudeMeters>
            <DistanceMeters>13827.83657669</DistanceMeters>
          </Trackpoint>
          <Trackpoint>
            <Time>2018-08-26T06:16:14.000Z</Time>
            <Position>
              <LatitudeDegrees>42.83595378510653972625732421875</LatitudeDegrees>
              <LongitudeDegrees>-1.7320084758102893829345703125</LongitudeDegrees>
            </Position>
            <AltitudeMeters>425.600006103515625</AltitudeMeters>
            <DistanceMeters>13835.115895928</DistanceMeters>
          </Trackpoint>
          <Trackpoint>
            <Time>2018-08-26T06:16:15.000Z</Time>
            <Position>
              <LatitudeDegrees>42.83591262996196746826171875</LatitudeDegrees>
              <LongitudeDegrees>-1.73207930289208889007568359375</LongitudeDegrees>
            </Position>
            <AltitudeMeters>425.79998779296875</AltitudeMeters>
            <DistanceMeters>13842.491340355</DistanceMeters>
          </Trackpoint>
          <Trackpoint>
            <Time>2018-08-26T06:16:16.000Z</Time>
            <Position>
              <LatitudeDegrees>42.83586996607482433319091796875</LatitudeDegrees>
              <LongitudeDegrees>-1.732152141630649566650390625</LongitudeDegrees>
            </Position>
            <AltitudeMeters>425.79998779296875</AltitudeMeters>
            <DistanceMeters>13850.100007787</DistanceMeters>
          </Trackpoint>
          <Trackpoint>
            <Time>2018-08-26T06:16:17.000Z</Time>
            <Position>
              <LatitudeDegrees>42.83582805655896663665771484375</LatitudeDegrees>
              <LongitudeDegrees>-1.73222489655017852783203125</LongitudeDegrees>
            </Position>
            <AltitudeMeters>425.79998779296875</AltitudeMeters>
            <DistanceMeters>13857.650895328</DistanceMeters>
          </Trackpoint>
          <Trackpoint>
            <Time>2018-08-26T06:16:18.000Z</Time>
            <Position>
              <LatitudeDegrees>42.83578497357666492462158203125</LatitudeDegrees>
              <LongitudeDegrees>-1.732297651469707489013671875</LongitudeDegrees>
            </Position>
            <AltitudeMeters>425.79998779296875</AltitudeMeters>
            <DistanceMeters>13865.28326214</DistanceMeters>
          </Trackpoint>
          <Trackpoint>
            <Time>2018-08-26T06:16:19.000Z</Time>
            <Position>
              <LatitudeDegrees>42.8357414714992046356201171875</LatitudeDegrees>
              <LongitudeDegrees>-1.73237099312245845794677734375</LongitudeDegrees>
            </Position>
            <AltitudeMeters>425.79998779296875</AltitudeMeters>
            <DistanceMeters>13872.981599083</DistanceMeters>
          </Trackpoint>
          <Trackpoint>
            <Time>2018-08-26T06:16:20.000Z</Time>
            <Position>
              <LatitudeDegrees>42.83569679595530033111572265625</LatitudeDegrees>
              <LongitudeDegrees>-1.73244358040392398834228515625</LongitudeDegrees>
            </Position>
            <AltitudeMeters>425.79998779296875</AltitudeMeters>
            <DistanceMeters>13880.715629492</DistanceMeters>
          </Trackpoint>
          <Trackpoint>
            <Time>2018-08-26T06:16:21.000Z</Time>
            <Position>
              <LatitudeDegrees>42.83565220423042774200439453125</LatitudeDegrees>
              <LongitudeDegrees>-1.73251616768538951873779296875</LongitudeDegrees>
            </Position>
            <AltitudeMeters>425.79998779296875</AltitudeMeters>
            <DistanceMeters>13888.444404019</DistanceMeters>
          </Trackpoint>
          <Trackpoint>
            <Time>2018-08-26T06:16:22.000Z</Time>
            <Position>
              <LatitudeDegrees>42.83560811541974544525146484375</LatitudeDegrees>
              <LongitudeDegrees>-1.73258992843329906463623046875</LongitudeDegrees>
            </Position>
            <AltitudeMeters>425.79998779296875</AltitudeMeters>
            <DistanceMeters>13896.211639094</DistanceMeters>
          </Trackpoint>
          <Trackpoint>
            <Time>2018-08-26T06:16:23.000Z</Time>
            <Position>
              <LatitudeDegrees>42.83556536771357059478759765625</LatitudeDegrees>
              <LongitudeDegrees>-1.73266469500958919525146484375</LongitudeDegrees>
            </Position>
            <AltitudeMeters>425.79998779296875</AltitudeMeters>
            <DistanceMeters>13903.949754944</DistanceMeters>
          </Trackpoint>
          <Trackpoint>
            <Time>2018-08-26T06:16:24.000Z</Time>
            <Position>
              <LatitudeDegrees>42.8355222009122371673583984375</LatitudeDegrees>
              <LongitudeDegrees>-1.7327407188713550567626953125</LongitudeDegrees>
            </Position>
            <AltitudeMeters>425.79998779296875</AltitudeMeters>
            <DistanceMeters>13911.797373777</DistanceMeters>
          </Trackpoint>
          <Trackpoint>
            <Time>2018-08-26T06:16:25.000Z</Time>
            <Position>
              <LatitudeDegrees>42.8354774415493011474609375</LatitudeDegrees>
              <LongitudeDegrees>-1.73281640745699405670166015625</LongitudeDegrees>
            </Position>
            <AltitudeMeters>425.600006103515625</AltitudeMeters>
            <DistanceMeters>13919.733100153</DistanceMeters>
          </Trackpoint>
          <Trackpoint>
            <Time>2018-08-26T06:16:26.000Z</Time>
            <Position>
              <LatitudeDegrees>42.83543075434863567352294921875</LatitudeDegrees>
              <LongitudeDegrees>-1.73289234749972820281982421875</LongitudeDegrees>
            </Position>
            <AltitudeMeters>425.399993896484375</AltitudeMeters>
            <DistanceMeters>13927.821542762</DistanceMeters>
          </Trackpoint>
          <Trackpoint>
            <Time>2018-08-26T06:16:27.000Z</Time>
            <Position>
              <LatitudeDegrees>42.8353840671479701995849609375</LatitudeDegrees>
              <LongitudeDegrees>-1.732970215380191802978515625</LongitudeDegrees>
            </Position>
            <AltitudeMeters>425.20001220703125</AltitudeMeters>
            <DistanceMeters>13936.03022295</DistanceMeters>
          </Trackpoint>
          <Trackpoint>
            <Time>2018-08-26T06:16:28.000Z</Time>
            <Position>
              <LatitudeDegrees>42.83533771522343158721923828125</LatitudeDegrees>
              <LongitudeDegrees>-1.73305076546967029571533203125</LongitudeDegrees>
            </Position>
            <AltitudeMeters>425.20001220703125</AltitudeMeters>
            <DistanceMeters>13944.387172825</DistanceMeters>
          </Trackpoint>
          <Trackpoint>
            <Time>2018-08-26T06:16:29.000Z</Time>
            <Position>
              <LatitudeDegrees>42.8352918662130832672119140625</LatitudeDegrees>
              <LongitudeDegrees>-1.73313139937818050384521484375</LongitudeDegrees>
            </Position>
            <AltitudeMeters>425</AltitudeMeters>
            <DistanceMeters>13952.715438981</DistanceMeters>
          </Trackpoint>
          <Trackpoint>
            <Time>2018-08-26T06:16:30.000Z</Time>
            <Position>
              <LatitudeDegrees>42.83524501137435436248779296875</LatitudeDegrees>
              <LongitudeDegrees>-1.7332124523818492889404296875</LongitudeDegrees>
            </Position>
            <AltitudeMeters>425</AltitudeMeters>
            <DistanceMeters>13961.139116367</DistanceMeters>
          </Trackpoint>
          <Trackpoint>
            <Time>2018-08-26T06:16:31.000Z</Time>
            <Position>
              <LatitudeDegrees>42.8351969830691814422607421875</LatitudeDegrees>
              <LongitudeDegrees>-1.733294762670993804931640625</LongitudeDegrees>
            </Position>
            <AltitudeMeters>424.79998779296875</AltitudeMeters>
            <DistanceMeters>13969.724189688</DistanceMeters>
          </Trackpoint>
          <Trackpoint>
            <Time>2018-08-26T06:16:32.000Z</Time>
            <Position>
              <LatitudeDegrees>42.83514711074531078338623046875</LatitudeDegrees>
              <LongitudeDegrees>-1.733377911150455474853515625</LongitudeDegrees>
            </Position>
            <AltitudeMeters>424.79998779296875</AltitudeMeters>
            <DistanceMeters>13978.491401941</DistanceMeters>
          </Trackpoint>
          <Trackpoint>
            <Time>2018-08-26T06:16:33.000Z</Time>
            <Position>
              <LatitudeDegrees>42.83509665168821811676025390625</LatitudeDegrees>
              <LongitudeDegrees>-1.73346265219151973724365234375</LongitudeDegrees>
            </Position>
            <AltitudeMeters>424.79998779296875</AltitudeMeters>
            <DistanceMeters>13987.400631534</DistanceMeters>
          </Trackpoint>
          <Trackpoint>
            <Time>2018-08-26T06:16:34.000Z</Time>
            <Position>
              <LatitudeDegrees>42.8350456058979034423828125</LatitudeDegrees>
              <LongitudeDegrees>-1.733548901975154876708984375</LongitudeDegrees>
            </Position>
            <AltitudeMeters>424.79998779296875</AltitudeMeters>
            <DistanceMeters>13996.447154779</DistanceMeters>
          </Trackpoint>
          <Trackpoint>
            <Time>2018-08-26T06:16:35.000Z</Time>
            <Position>
              <LatitudeDegrees>42.83499338664114475250244140625</LatitudeDegrees>
              <LongitudeDegrees>-1.73363565467298030853271484375</LongitudeDegrees>
            </Position>
            <AltitudeMeters>424.79998779296875</AltitudeMeters>
            <DistanceMeters>14005.608242622</DistanceMeters>
          </Trackpoint>
          <Trackpoint>
            <Time>2018-08-26T06:16:36.000Z</Time>
            <Position>
              <LatitudeDegrees>42.834940664470195770263671875</LatitudeDegrees>
              <LongitudeDegrees>-1.733722575008869171142578125</LongitudeDegrees>
            </Position>
            <AltitudeMeters>424.600006103515625</AltitudeMeters>
            <DistanceMeters>14014.815051384</DistanceMeters>
          </Trackpoint>
          <Trackpoint>
            <Time>2018-08-26T06:16:37.000Z</Time>
            <Position>
              <LatitudeDegrees>42.83488794229924678802490234375</LatitudeDegrees>
              <LongitudeDegrees>-1.73381133936345577239990234375</LongitudeDegrees>
            </Position>
            <AltitudeMeters>424.399993896484375</AltitudeMeters>
            <DistanceMeters>14024.138329555</DistanceMeters>
          </Trackpoint>
          <Trackpoint>
            <Time>2018-08-26T06:16:38.000Z</Time>
            <Position>
              <LatitudeDegrees>42.834835052490234375</LatitudeDegrees>
              <LongitudeDegrees>-1.73390119336545467376708984375</LongitudeDegrees>
            </Position>
            <AltitudeMeters>424.20001220703125</AltitudeMeters>
            <DistanceMeters>14033.542614147</DistanceMeters>
          </Trackpoint>
          <Trackpoint>
            <Time>2018-08-26T06:16:39.000Z</Time>
            <Position>
              <LatitudeDegrees>42.83478300087153911590576171875</LatitudeDegrees>
              <LongitudeDegrees>-1.7339906282722949981689453125</LongitudeDegrees>
            </Position>
            <AltitudeMeters>424</AltitudeMeters>
            <DistanceMeters>14042.862017306</DistanceMeters>
          </Trackpoint>
          <Trackpoint>
            <Time>2018-08-26T06:16:40.000Z</Time>
            <Position>
              <LatitudeDegrees>42.834732122719287872314453125</LatitudeDegrees>
              <LongitudeDegrees>-1.73407905735075473785400390625</LongitudeDegrees>
            </Position>
            <AltitudeMeters>423.600006103515625</AltitudeMeters>
            <DistanceMeters>14052.035910288</DistanceMeters>
          </Trackpoint>
          <Trackpoint>
            <Time>2018-08-26T06:16:41.000Z</Time>
            <Position>
              <LatitudeDegrees>42.834682166576385498046875</LatitudeDegrees>
              <LongitudeDegrees>-1.73416614532470703125</LongitudeDegrees>
            </Position>
            <AltitudeMeters>423.20001220703125</AltitudeMeters>
            <DistanceMeters>14061.060446811</DistanceMeters>
          </Trackpoint>
          <Trackpoint>
            <Time>2018-08-26T06:16:42.000Z</Time>
            <Position>
              <LatitudeDegrees>42.83463346771895885467529296875</LatitudeDegrees>
              <LongitudeDegrees>-1.734250970184803009033203125</LongitudeDegrees>
            </Position>
            <AltitudeMeters>422.79998779296875</AltitudeMeters>
            <DistanceMeters>14069.853370927</DistanceMeters>
          </Trackpoint>
          <Trackpoint>
            <Time>2018-08-26T06:16:43.000Z</Time>
            <Position>
              <LatitudeDegrees>42.8345844335854053497314453125</LatitudeDegrees>
              <LongitudeDegrees>-1.7343342863023281097412109375</LongitudeDegrees>
            </Position>
            <AltitudeMeters>422.600006103515625</AltitudeMeters>
            <DistanceMeters>14078.57307526</DistanceMeters>
          </Trackpoint>
          <Trackpoint>
            <Time>2018-08-26T06:16:44.000Z</Time>
            <Position>
              <LatitudeDegrees>42.83453464508056640625</LatitudeDegrees>
              <LongitudeDegrees>-1.7344144172966480255126953125</LongitudeDegrees>
            </Position>
            <AltitudeMeters>422.399993896484375</AltitudeMeters>
            <DistanceMeters>14087.145517275</DistanceMeters>
          </Trackpoint>
          <Trackpoint>
            <Time>2018-08-26T06:16:45.000Z</Time>
            <Position>
              <LatitudeDegrees>42.83448594622313976287841796875</LatitudeDegrees>
              <LongitudeDegrees>-1.7344932071864604949951171875</LongitudeDegrees>
            </Position>
            <AltitudeMeters>422.399993896484375</AltitudeMeters>
            <DistanceMeters>14095.556320974</DistanceMeters>
          </Trackpoint>
          <Trackpoint>
            <Time>2018-08-26T06:16:46.000Z</Time>
            <Position>
              <LatitudeDegrees>42.834437750279903411865234375</LatitudeDegrees>
              <LongitudeDegrees>-1.73457191325724124908447265625</LongitudeDegrees>
            </Position>
            <AltitudeMeters>422.399993896484375</AltitudeMeters>
            <DistanceMeters>14103.925148425</DistanceMeters>
          </Trackpoint>
          <Trackpoint>
            <Time>2018-08-26T06:16:47.000Z</Time>
            <Position>
              <LatitudeDegrees>42.83438913524150848388671875</LatitudeDegrees>
              <LongitudeDegrees>-1.734650619328022003173828125</LongitudeDegrees>
            </Position>
            <AltitudeMeters>422.20001220703125</AltitudeMeters>
            <DistanceMeters>14112.32413391</DistanceMeters>
          </Trackpoint>
          <Trackpoint>
            <Time>2018-08-26T06:16:48.000Z</Time>
            <Position>
              <LatitudeDegrees>42.8343400172889232635498046875</LatitudeDegrees>
              <LongitudeDegrees>-1.7347305826842784881591796875</LongitudeDegrees>
            </Position>
            <AltitudeMeters>422.20001220703125</AltitudeMeters>
            <DistanceMeters>14120.837912367</DistanceMeters>
          </Trackpoint>
          <Trackpoint>
            <Time>2018-08-26T06:16:49.000Z</Time>
            <Position>
              <LatitudeDegrees>42.83428980968892574310302734375</LatitudeDegrees>
              <LongitudeDegrees>-1.7348123900592327117919921875</LongitudeDegrees>
            </Position>
            <AltitudeMeters>422</AltitudeMeters>
            <DistanceMeters>14129.5451807</DistanceMeters>
          </Trackpoint>
          <Trackpoint>
            <Time>2018-08-26T06:16:50.000Z</Time>
            <Position>
              <LatitudeDegrees>42.83423951826989650726318359375</LatitudeDegrees>
              <LongitudeDegrees>-1.73489696346223354339599609375</LongitudeDegrees>
            </Position>
            <AltitudeMeters>422</AltitudeMeters>
            <DistanceMeters>14138.433099958</DistanceMeters>
          </Trackpoint>
          <Trackpoint>
            <Time>2018-08-26T06:16:51.000Z</Time>
            <Position>
              <LatitudeDegrees>42.83418838866055011749267578125</LatitudeDegrees>
              <LongitudeDegrees>-1.734984554350376129150390625</LongitudeDegrees>
            </Position>
            <AltitudeMeters>421.79998779296875</AltitudeMeters>
            <DistanceMeters>14147.570500398</DistanceMeters>
          </Trackpoint>
          <Trackpoint>
            <Time>2018-08-26T06:16:52.000Z</Time>
            <Position>
              <LatitudeDegrees>42.83413725905120372772216796875</LatitudeDegrees>
              <LongitudeDegrees>-1.73507566563785076141357421875</LongitudeDegrees>
            </Position>
            <AltitudeMeters>421.79998779296875</AltitudeMeters>
            <DistanceMeters>14156.934369378</DistanceMeters>
          </Trackpoint>
          <Trackpoint>
            <Time>2018-08-26T06:16:53.000Z</Time>
            <Position>
              <LatitudeDegrees>42.8340855427086353302001953125</LatitudeDegrees>
              <LongitudeDegrees>-1.7351708002388477325439453125</LongitudeDegrees>
            </Position>
            <AltitudeMeters>421.600006103515625</AltitudeMeters>
            <DistanceMeters>14166.600039085</DistanceMeters>
          </Trackpoint>
          <Trackpoint>
            <Time>2018-08-26T06:16:54.000Z</Time>
            <Position>
              <LatitudeDegrees>42.83403147943317890167236328125</LatitudeDegrees>
              <LongitudeDegrees>-1.73526761122047901153564453125</LongitudeDegrees>
            </Position>
            <AltitudeMeters>421.600006103515625</AltitudeMeters>
            <DistanceMeters>14176.532035615</DistanceMeters>
          </Trackpoint>
          <Trackpoint>
            <Time>2018-08-26T06:16:55.000Z</Time>
            <Position>
              <LatitudeDegrees>42.8339752368628978729248046875</LatitudeDegrees>
              <LongitudeDegrees>-1.7353666014969348907470703125</LongitudeDegrees>
            </Position>
            <AltitudeMeters>421.399993896484375</AltitudeMeters>
            <DistanceMeters>14186.752599411</DistanceMeters>
          </Trackpoint>
          <Trackpoint>
            <Time>2018-08-26T06:16:56.000Z</Time>
            <Position>
              <LatitudeDegrees>42.8339168988168239593505859375</LatitudeDegrees>
              <LongitudeDegrees>-1.735467016696929931640625</LongitudeDegrees>
            </Position>
            <AltitudeMeters>421.399993896484375</AltitudeMeters>
            <DistanceMeters>14197.209424725</DistanceMeters>
          </Trackpoint>
          <Trackpoint>
            <Time>2018-08-26T06:16:57.000Z</Time>
            <Position>
              <LatitudeDegrees>42.83385680057108402252197265625</LatitudeDegrees>
              <LongitudeDegrees>-1.735567934811115264892578125</LongitudeDegrees>
            </Position>
            <AltitudeMeters>421.399993896484375</AltitudeMeters>
            <DistanceMeters>14207.820552054</DistanceMeters>
          </Trackpoint>
          <Trackpoint>
            <Time>2018-08-26T06:16:58.000Z</Time>
            <Position>
              <LatitudeDegrees>42.83379636704921722412109375</LatitudeDegrees>
              <LongitudeDegrees>-1.73566994257271289825439453125</LongitudeDegrees>
            </Position>
            <AltitudeMeters>421.399993896484375</AltitudeMeters>
            <DistanceMeters>14218.524036526</DistanceMeters>
          </Trackpoint>
          <Trackpoint>
            <Time>2018-08-26T06:16:59.000Z</Time>
            <Position>
              <LatitudeDegrees>42.8337358497083187103271484375</LatitudeDegrees>
              <LongitudeDegrees>-1.735772788524627685546875</LongitudeDegrees>
            </Position>
            <AltitudeMeters>421.399993896484375</AltitudeMeters>
            <DistanceMeters>14229.286834518</DistanceMeters>
          </Trackpoint>
          <Trackpoint>
            <Time>2018-08-26T06:17:00.000Z</Time>
            <Position>
              <LatitudeDegrees>42.833675332367420196533203125</LatitudeDegrees>
              <LongitudeDegrees>-1.7358765564858913421630859375</LongitudeDegrees>
            </Position>
            <AltitudeMeters>421.20001220703125</AltitudeMeters>
            <DistanceMeters>14240.108203717</DistanceMeters>
          </Trackpoint>
          <Trackpoint>
            <Time>2018-08-26T06:17:01.000Z</Time>
            <Position>
              <LatitudeDegrees>42.83361489884555339813232421875</LatitudeDegrees>
              <LongitudeDegrees>-1.73598133027553558349609375</LongitudeDegrees>
            </Position>
            <AltitudeMeters>421</AltitudeMeters>
            <DistanceMeters>14250.98865877</DistanceMeters>
          </Trackpoint>
          <Trackpoint>
            <Time>2018-08-26T06:17:02.000Z</Time>
            <Position>
              <LatitudeDegrees>42.83355404622852802276611328125</LatitudeDegrees>
              <LongitudeDegrees>-1.73608593642711639404296875</LongitudeDegrees>
            </Position>
            <AltitudeMeters>420.399993896484375</AltitudeMeters>
            <DistanceMeters>14261.887357112</DistanceMeters>
          </Trackpoint>
          <Trackpoint>
            <Time>2018-08-26T06:17:03.000Z</Time>
            <Position>
              <LatitudeDegrees>42.8334931097924709320068359375</LatitudeDegrees>
              <LongitudeDegrees>-1.73619096167385578155517578125</LongitudeDegrees>
            </Position>
            <AltitudeMeters>420</AltitudeMeters>
            <DistanceMeters>14272.818321</DistanceMeters>
          </Trackpoint>
          <Trackpoint>
            <Time>2018-08-26T06:17:04.000Z</Time>
            <Position>
              <LatitudeDegrees>42.83343200571835041046142578125</LatitudeDegrees>
              <LongitudeDegrees>-1.73629707656800746917724609375</LongitudeDegrees>
            </Position>
            <AltitudeMeters>419.399993896484375</AltitudeMeters>
            <DistanceMeters>14283.830765172</DistanceMeters>
          </Trackpoint>
          <Trackpoint>
            <Time>2018-08-26T06:17:05.000Z</Time>
            <Position>
              <LatitudeDegrees>42.83337014727294445037841796875</LatitudeDegrees>
              <LongitudeDegrees>-1.73640310764312744140625</LongitudeDegrees>
            </Position>
            <AltitudeMeters>418.79998779296875</AltitudeMeters>
            <DistanceMeters>14294.889849915</DistanceMeters>
          </Trackpoint>
          <Trackpoint>
            <Time>2018-08-26T06:17:06.000Z</Time>
            <Position>
              <LatitudeDegrees>42.833307869732379913330078125</LatitudeDegrees>
              <LongitudeDegrees>-1.73650972545146942138671875</LongitudeDegrees>
            </Position>
            <AltitudeMeters>418.20001220703125</AltitudeMeters>
            <DistanceMeters>14306.015688665</DistanceMeters>
          </Trackpoint>
          <Trackpoint>
            <Time>2018-08-26T06:17:07.000Z</Time>
            <Position>
              <LatitudeDegrees>42.833244837820529937744140625</LatitudeDegrees>
              <LongitudeDegrees>-1.7366181872785091400146484375</LongitudeDegrees>
            </Position>
            <AltitudeMeters>417.79998779296875</AltitudeMeters>
            <DistanceMeters>14317.311483464</DistanceMeters>
          </Trackpoint>
          <Trackpoint>
            <Time>2018-08-26T06:17:08.000Z</Time>
            <Position>
              <LatitudeDegrees>42.8331814706325531005859375</LatitudeDegrees>
              <LongitudeDegrees>-1.73672690056264400482177734375</LongitudeDegrees>
            </Position>
            <AltitudeMeters>417.399993896484375</AltitudeMeters>
            <DistanceMeters>14328.646382125</DistanceMeters>
          </Trackpoint>
          <Trackpoint>
            <Time>2018-08-26T06:17:09.000Z</Time>
            <Position>
              <LatitudeDegrees>42.8331192769110202789306640625</LatitudeDegrees>
              <LongitudeDegrees>-1.73683670349419116973876953125</LongitudeDegrees>
            </Position>
            <AltitudeMeters>417.20001220703125</AltitudeMeters>
            <DistanceMeters>14339.970919451</DistanceMeters>
          </Trackpoint>
          <Trackpoint>
            <Time>2018-08-26T06:17:10.000Z</Time>
            <Position>
              <LatitudeDegrees>42.83305783756077289581298828125</LatitudeDegrees>
              <LongitudeDegrees>-1.73694550059735774993896484375</LongitudeDegrees>
            </Position>
            <AltitudeMeters>416.79998779296875</AltitudeMeters>
            <DistanceMeters>14351.178836002</DistanceMeters>
          </Trackpoint>
          <Trackpoint>
            <Time>2018-08-26T06:17:11.000Z</Time>
            <Position>
              <LatitudeDegrees>42.83299530856311321258544921875</LatitudeDegrees>
              <LongitudeDegrees>-1.737049520015716552734375</LongitudeDegrees>
            </Position>
            <AltitudeMeters>416.399993896484375</AltitudeMeters>
            <DistanceMeters>14362.156786641</DistanceMeters>
          </Trackpoint>
          <Trackpoint>
            <Time>2018-08-26T06:17:12.000Z</Time>
            <Position>
              <LatitudeDegrees>42.83293479122221469879150390625</LatitudeDegrees>
              <LongitudeDegrees>-1.73715077340602874755859375</LongitudeDegrees>
            </Position>
            <AltitudeMeters>416</AltitudeMeters>
            <DistanceMeters>14372.818428272</DistanceMeters>
          </Trackpoint>
          <Trackpoint>
            <Time>2018-08-26T06:17:13.000Z</Time>
            <Position>
              <LatitudeDegrees>42.83287703990936279296875</LatitudeDegrees>
              <LongitudeDegrees>-1.73724959604442119598388671875</LongitudeDegrees>
            </Position>
            <AltitudeMeters>415.600006103515625</AltitudeMeters>
            <DistanceMeters>14383.132220034</DistanceMeters>
          </Trackpoint>
          <Trackpoint>
            <Time>2018-08-26T06:17:14.000Z</Time>
            <Position>
              <LatitudeDegrees>42.832820713520050048828125</LatitudeDegrees>
              <LongitudeDegrees>-1.73734716139733791351318359375</LongitudeDegrees>
            </Position>
            <AltitudeMeters>415.399993896484375</AltitudeMeters>
            <DistanceMeters>14393.26761098</DistanceMeters>
          </Trackpoint>
          <Trackpoint>
            <Time>2018-08-26T06:17:15.000Z</Time>
            <Position>
              <LatitudeDegrees>42.8327672369778156280517578125</LatitudeDegrees>
              <LongitudeDegrees>-1.7374396137893199920654296875</LongitudeDegrees>
            </Position>
            <AltitudeMeters>415.399993896484375</AltitudeMeters>
            <DistanceMeters>14402.878941898</DistanceMeters>
          </Trackpoint>
          <Trackpoint>
            <Time>2018-08-26T06:17:16.000Z</Time>
            <Position>
              <LatitudeDegrees>42.83271485008299350738525390625</LatitudeDegrees>
              <LongitudeDegrees>-1.73752737231552600860595703125</LongitudeDegrees>
            </Position>
            <AltitudeMeters>415.20001220703125</AltitudeMeters>
            <DistanceMeters>14412.115616746</DistanceMeters>
          </Trackpoint>
          <Trackpoint>
            <Time>2018-08-26T06:17:17.000Z</Time>
            <Position>
              <LatitudeDegrees>42.83266304992139339447021484375</LatitudeDegrees>
              <LongitudeDegrees>-1.73761320300400257110595703125</LongitudeDegrees>
            </Position>
            <AltitudeMeters>415.20001220703125</AltitudeMeters>
            <DistanceMeters>14421.188553253</DistanceMeters>
          </Trackpoint>
          <Trackpoint>
            <Time>2018-08-26T06:17:18.000Z</Time>
            <Position>
              <LatitudeDegrees>42.8326113335788249969482421875</LatitudeDegrees>
              <LongitudeDegrees>-1.73769853077828884124755859375</LongitudeDegrees>
            </Position>
            <AltitudeMeters>415.20001220703125</AltitudeMeters>
            <DistanceMeters>14430.223590113</DistanceMeters>
          </Trackpoint>
          <Trackpoint>
            <Time>2018-08-26T06:17:19.000Z</Time>
            <Position>
              <LatitudeDegrees>42.83256028778851032257080078125</LatitudeDegrees>
              <LongitudeDegrees>-1.73778352327644824981689453125</LongitudeDegrees>
            </Position>
            <AltitudeMeters>415.20001220703125</AltitudeMeters>
            <DistanceMeters>14439.190406753</DistanceMeters>
          </Trackpoint>
          <Trackpoint>
            <Time>2018-08-26T06:17:20.000Z</Time>
            <Position>
              <LatitudeDegrees>42.83250899054110050201416015625</LatitudeDegrees>
              <LongitudeDegrees>-1.7378677614033222198486328125</LongitudeDegrees>
            </Position>
            <AltitudeMeters>415.20001220703125</AltitudeMeters>
            <DistanceMeters>14448.127971087</DistanceMeters>
          </Trackpoint>
          <Trackpoint>
            <Time>2018-08-26T06:17:21.000Z</Time>
            <Position>
              <LatitudeDegrees>42.83245769329369068145751953125</LatitudeDegrees>
              <LongitudeDegrees>-1.73795183189213275909423828125</LongitudeDegrees>
            </Position>
            <AltitudeMeters>415.20001220703125</AltitudeMeters>
            <DistanceMeters>14457.054414642</DistanceMeters>
          </Trackpoint>
          <Trackpoint>
            <Time>2018-08-26T06:17:22.000Z</Time>
            <Position>
              <LatitudeDegrees>42.83240673132240772247314453125</LatitudeDegrees>
              <LongitudeDegrees>-1.73803565092384815216064453125</LongitudeDegrees>
            </Position>
            <AltitudeMeters>415.399993896484375</AltitudeMeters>
            <DistanceMeters>14465.941317847</DistanceMeters>
          </Trackpoint>
          <Trackpoint>
            <Time>2018-08-26T06:17:23.000Z</Time>
            <Position>
              <LatitudeDegrees>42.8323551826179027557373046875</LatitudeDegrees>
              <LongitudeDegrees>-1.73812039196491241455078125</LongitudeDegrees>
            </Position>
            <AltitudeMeters>415.600006103515625</AltitudeMeters>
            <DistanceMeters>14474.927750601</DistanceMeters>
          </Trackpoint>
          <Trackpoint>
            <Time>2018-08-26T06:17:24.000Z</Time>
            <Position>
              <LatitudeDegrees>42.83230396918952465057373046875</LatitudeDegrees>
              <LongitudeDegrees>-1.73820463009178638458251953125</LongitudeDegrees>
            </Position>
            <AltitudeMeters>415.79998779296875</AltitudeMeters>
            <DistanceMeters>14483.858745239</DistanceMeters>
          </Trackpoint>
          <Trackpoint>
            <Time>2018-08-26T06:17:25.000Z</Time>
            <Position>
              <LatitudeDegrees>42.832253091037273406982421875</LatitudeDegrees>
              <LongitudeDegrees>-1.73828937113285064697265625</LongitudeDegrees>
            </Position>
            <AltitudeMeters>416.20001220703125</AltitudeMeters>
            <DistanceMeters>14492.797319867</DistanceMeters>
          </Trackpoint>
          <Trackpoint>
            <Time>2018-08-26T06:17:26.000Z</Time>
            <Position>
              <LatitudeDegrees>42.8322029672563076019287109375</LatitudeDegrees>
              <LongitudeDegrees>-1.73837386071681976318359375</LongitudeDegrees>
            </Position>
            <AltitudeMeters>416.399993896484375</AltitudeMeters>
            <DistanceMeters>14501.667441403</DistanceMeters>
          </Trackpoint>
          <Trackpoint>
            <Time>2018-08-26T06:17:27.000Z</Time>
            <Position>
              <LatitudeDegrees>42.83215343020856380462646484375</LatitudeDegrees>
              <LongitudeDegrees>-1.73845709301531314849853515625</LongitudeDegrees>
            </Position>
            <AltitudeMeters>416.600006103515625</AltitudeMeters>
            <DistanceMeters>14510.417126431</DistanceMeters>
          </Trackpoint>
          <Trackpoint>
            <Time>2018-08-26T06:17:28.000Z</Time>
            <Position>
              <LatitudeDegrees>42.832103557884693145751953125</LatitudeDegrees>
              <LongitudeDegrees>-1.7385393194854259490966796875</LongitudeDegrees>
            </Position>
            <AltitudeMeters>416.600006103515625</AltitudeMeters>
            <DistanceMeters>14519.127505428</DistanceMeters>
          </Trackpoint>
          <Trackpoint>
            <Time>2018-08-26T06:17:29.000Z</Time>
            <Position>
              <LatitudeDegrees>42.832053601741790771484375</LatitudeDegrees>
              <LongitudeDegrees>-1.738621294498443603515625</LongitudeDegrees>
            </Position>
            <AltitudeMeters>416.79998779296875</AltitudeMeters>
            <DistanceMeters>14527.827511219</DistanceMeters>
          </Trackpoint>
          <Trackpoint>
            <Time>2018-08-26T06:17:30.000Z</Time>
            <Position>
              <LatitudeDegrees>42.83200322650372982025146484375</LatitudeDegrees>
              <LongitudeDegrees>-1.73870368860661983489990234375</LongitudeDegrees>
            </Position>
            <AltitudeMeters>416.79998779296875</AltitudeMeters>
            <DistanceMeters>14536.583901976</DistanceMeters>
          </Trackpoint>
          <Trackpoint>
            <Time>2018-08-26T06:17:31.000Z</Time>
            <Position>
              <LatitudeDegrees>42.83195310272276401519775390625</LatitudeDegrees>
              <LongitudeDegrees>-1.73878633417189121246337890625</LongitudeDegrees>
            </Position>
            <AltitudeMeters>417</AltitudeMeters>
            <DistanceMeters>14545.337714214</DistanceMeters>
          </Trackpoint>
          <Trackpoint>
            <Time>2018-08-26T06:17:32.000Z</Time>
            <Position>
              <LatitudeDegrees>42.831903062760829925537109375</LatitudeDegrees>
              <LongitudeDegrees>-1.73886948265135288238525390625</LongitudeDegrees>
            </Position>
            <AltitudeMeters>417</AltitudeMeters>
            <DistanceMeters>14554.117277559</DistanceMeters>
          </Trackpoint>
          <Trackpoint>
            <Time>2018-08-26T06:17:33.000Z</Time>
            <Position>
              <LatitudeDegrees>42.83185302279889583587646484375</LatitudeDegrees>
              <LongitudeDegrees>-1.73895229585468769073486328125</LongitudeDegrees>
            </Position>
            <AltitudeMeters>417</AltitudeMeters>
            <DistanceMeters>14562.875215062</DistanceMeters>
          </Trackpoint>
          <Trackpoint>
            <Time>2018-08-26T06:17:34.000Z</Time>
            <Position>
              <LatitudeDegrees>42.83180256374180316925048828125</LatitudeDegrees>
              <LongitudeDegrees>-1.73903494141995906829833984375</LongitudeDegrees>
            </Position>
            <AltitudeMeters>417</AltitudeMeters>
            <DistanceMeters>14571.652721099</DistanceMeters>
          </Trackpoint>
          <Trackpoint>
            <Time>2018-08-26T06:17:35.000Z</Time>
            <Position>
              <LatitudeDegrees>42.8317513503134250640869140625</LatitudeDegrees>
              <LongitudeDegrees>-1.739117838442325592041015625</LongitudeDegrees>
            </Position>
            <AltitudeMeters>417.20001220703125</AltitudeMeters>
            <DistanceMeters>14580.49990724</DistanceMeters>
          </Trackpoint>
          <Trackpoint>
            <Time>2018-08-26T06:17:36.000Z</Time>
            <Position>
              <LatitudeDegrees>42.83169980160892009735107421875</LatitudeDegrees>
              <LongitudeDegrees>-1.739200651645660400390625</LongitudeDegrees>
            </Position>
            <AltitudeMeters>417.20001220703125</AltitudeMeters>
            <DistanceMeters>14589.366464944</DistanceMeters>
          </Trackpoint>
          <Trackpoint>
            <Time>2018-08-26T06:17:37.000Z</Time>
            <Position>
              <LatitudeDegrees>42.83164867199957370758056640625</LatitudeDegrees>
              <LongitudeDegrees>-1.7392846383154392242431640625</LongitudeDegrees>
            </Position>
            <AltitudeMeters>417.20001220703125</AltitudeMeters>
            <DistanceMeters>14598.275694537</DistanceMeters>
          </Trackpoint>
          <Trackpoint>
            <Time>2018-08-26T06:17:38.000Z</Time>
            <Position>
              <LatitudeDegrees>42.83159620128571987152099609375</LatitudeDegrees>
              <LongitudeDegrees>-1.73937088809907436370849609375</LongitudeDegrees>
            </Position>
            <AltitudeMeters>417.20001220703125</AltitudeMeters>
            <DistanceMeters>14607.422972183</DistanceMeters>
          </Trackpoint>
          <Trackpoint>
            <Time>2018-08-26T06:17:39.000Z</Time>
            <Position>
              <LatitudeDegrees>42.8315428085625171661376953125</LatitudeDegrees>
              <LongitudeDegrees>-1.73946040682494640350341796875</LongitudeDegrees>
            </Position>
            <AltitudeMeters>417.20001220703125</AltitudeMeters>
            <DistanceMeters>14616.841648894</DistanceMeters>
          </Trackpoint>
          <Trackpoint>
            <Time>2018-08-26T06:17:40.000Z</Time>
            <Position>
              <LatitudeDegrees>42.83148698508739471435546875</LatitudeDegrees>
              <LongitudeDegrees>-1.73955311067402362823486328125</LongitudeDegrees>
            </Position>
            <AltitudeMeters>417.20001220703125</AltitudeMeters>
            <DistanceMeters>14626.632629004</DistanceMeters>
          </Trackpoint>
          <Trackpoint>
            <Time>2018-08-26T06:17:41.000Z</Time>
            <Position>
              <LatitudeDegrees>42.83142931759357452392578125</LatitudeDegrees>
              <LongitudeDegrees>-1.739648915827274322509765625</LongitudeDegrees>
            </Position>
            <AltitudeMeters>417.20001220703125</AltitudeMeters>
            <DistanceMeters>14636.74973909</DistanceMeters>
          </Trackpoint>
          <Trackpoint>
            <Time>2018-08-26T06:17:42.000Z</Time>
            <Position>
              <LatitudeDegrees>42.8313701413571834564208984375</LatitudeDegrees>
              <LongitudeDegrees>-1.73974706791341304779052734375</LongitudeDegrees>
            </Position>
            <AltitudeMeters>417.20001220703125</AltitudeMeters>
            <DistanceMeters>14647.121155127</DistanceMeters>
          </Trackpoint>
          <Trackpoint>
            <Time>2018-08-26T06:17:43.000Z</Time>
            <Position>
              <LatitudeDegrees>42.8313091211020946502685546875</LatitudeDegrees>
              <LongitudeDegrees>-1.73984781838953495025634765625</LongitudeDegrees>
            </Position>
            <AltitudeMeters>417.20001220703125</AltitudeMeters>
            <DistanceMeters>14657.787030761</DistanceMeters>
          </Trackpoint>
          <Trackpoint>
            <Time>2018-08-26T06:17:44.000Z</Time>
            <Position>
              <LatitudeDegrees>42.83124692738056182861328125</LatitudeDegrees>
              <LongitudeDegrees>-1.739949993789196014404296875</LongitudeDegrees>
            </Position>
            <AltitudeMeters>417</AltitudeMeters>
            <DistanceMeters>14668.625909602</DistanceMeters>
          </Trackpoint>
          <Trackpoint>
            <Time>2018-08-26T06:17:45.000Z</Time>
            <Position>
              <LatitudeDegrees>42.831183560192584991455078125</LatitudeDegrees>
              <LongitudeDegrees>-1.7400530911982059478759765625</LongitudeDegrees>
            </Position>
            <AltitudeMeters>417.20001220703125</AltitudeMeters>
            <DistanceMeters>14679.605505247</DistanceMeters>
          </Trackpoint>
          <Trackpoint>
            <Time>2018-08-26T06:17:46.000Z</Time>
            <Position>
              <LatitudeDegrees>42.83112010918557643890380859375</LatitudeDegrees>
              <LongitudeDegrees>-1.7401563562452793121337890625</LongitudeDegrees>
            </Position>
            <AltitudeMeters>416.600006103515625</AltitudeMeters>
            <DistanceMeters>14690.602358603</DistanceMeters>
          </Trackpoint>
          <Trackpoint>
            <Time>2018-08-26T06:17:47.000Z</Time>
            <Position>
              <LatitudeDegrees>42.83105791546404361724853515625</LatitudeDegrees>
              <LongitudeDegrees>-1.74025945365428924560546875</LongitudeDegrees>
            </Position>
            <AltitudeMeters>416.399993896484375</AltitudeMeters>
            <DistanceMeters>14701.498571023</DistanceMeters>
          </Trackpoint>
          <Trackpoint>
            <Time>2018-08-26T06:17:48.000Z</Time>
            <Position>
              <LatitudeDegrees>42.8309966437518596649169921875</LatitudeDegrees>
              <LongitudeDegrees>-1.74036137759685516357421875</LongitudeDegrees>
            </Position>
            <AltitudeMeters>416</AltitudeMeters>
            <DistanceMeters>14712.256333787</DistanceMeters>
          </Trackpoint>
          <Trackpoint>
            <Time>2018-08-26T06:17:49.000Z</Time>
            <Position>
              <LatitudeDegrees>42.83093587495386600494384765625</LatitudeDegrees>
              <LongitudeDegrees>-1.74046061933040618896484375</LongitudeDegrees>
            </Position>
            <AltitudeMeters>415.399993896484375</AltitudeMeters>
            <DistanceMeters>14722.809006563</DistanceMeters>
          </Trackpoint>
          <Trackpoint>
            <Time>2018-08-26T06:17:50.000Z</Time>
            <Position>
              <LatitudeDegrees>42.83087602816522121429443359375</LatitudeDegrees>
              <LongitudeDegrees>-1.74055776558816432952880859375</LongitudeDegrees>
            </Position>
            <AltitudeMeters>414.600006103515625</AltitudeMeters>
            <DistanceMeters>14733.164738688</DistanceMeters>
          </Trackpoint>
          <Trackpoint>
            <Time>2018-08-26T06:17:51.000Z</Time>
            <Position>
              <LatitudeDegrees>42.830814085900783538818359375</LatitudeDegrees>
              <LongitudeDegrees>-1.7406512238085269927978515625</LongitudeDegrees>
            </Position>
            <AltitudeMeters>414</AltitudeMeters>
            <DistanceMeters>14743.446962913</DistanceMeters>
          </Trackpoint>
          <Trackpoint>
            <Time>2018-08-26T06:17:52.000Z</Time>
            <Position>
              <LatitudeDegrees>42.8307485394179821014404296875</LatitudeDegrees>
              <LongitudeDegrees>-1.74073847942054271697998046875</LongitudeDegrees>
            </Position>
            <AltitudeMeters>413.20001220703125</AltitudeMeters>
            <DistanceMeters>14753.642758126</DistanceMeters>
          </Trackpoint>
          <Trackpoint>
            <Time>2018-08-26T06:17:53.000Z</Time>
            <Position>
              <LatitudeDegrees>42.83068005926907062530517578125</LatitudeDegrees>
              <LongitudeDegrees>-1.7408191971480846405029296875</LongitudeDegrees>
            </Position>
            <AltitudeMeters>412.600006103515625</AltitudeMeters>
            <DistanceMeters>14763.717382646</DistanceMeters>
          </Trackpoint>
          <Trackpoint>
            <Time>2018-08-26T06:17:54.000Z</Time>
            <Position>
              <LatitudeDegrees>42.8306100703775882720947265625</LatitudeDegrees>
              <LongitudeDegrees>-1.7408926226198673248291015625</LongitudeDegrees>
            </Position>
            <AltitudeMeters>412.600006103515625</AltitudeMeters>
            <DistanceMeters>14773.54564433</DistanceMeters>
          </Trackpoint>
          <Trackpoint>
            <Time>2018-08-26T06:17:55.000Z</Time>
            <Position>
              <LatitudeDegrees>42.8305399976670742034912109375</LatitudeDegrees>
              <LongitudeDegrees>-1.74095976166427135467529296875</LongitudeDegrees>
            </Position>
            <AltitudeMeters>412.600006103515625</AltitudeMeters>
            <DistanceMeters>14783.077728529</DistanceMeters>
          </Trackpoint>
          <Trackpoint>
            <Time>2018-08-26T06:17:56.000Z</Time>
            <Position>
              <LatitudeDegrees>42.83047101460397243499755859375</LatitudeDegrees>
              <LongitudeDegrees>-1.7410220392048358917236328125</LongitudeDegrees>
            </Position>
            <AltitudeMeters>412.399993896484375</AltitudeMeters>
            <DistanceMeters>14792.28600838</DistanceMeters>
          </Trackpoint>
          <Trackpoint>
            <Time>2018-08-26T06:17:57.000Z</Time>
            <Position>
              <LatitudeDegrees>42.830404378473758697509765625</LatitudeDegrees>
              <LongitudeDegrees>-1.74107928760349750518798828125</LongitudeDegrees>
            </Position>
            <AltitudeMeters>412.399993896484375</AltitudeMeters>
            <DistanceMeters>14801.05219059</DistanceMeters>
          </Trackpoint>
          <Trackpoint>
            <Time>2018-08-26T06:17:58.000Z</Time>
            <Position>
              <LatitudeDegrees>42.83034075982868671417236328125</LatitudeDegrees>
              <LongitudeDegrees>-1.74113226123154163360595703125</LongitudeDegrees>
            </Position>
            <AltitudeMeters>412.399993896484375</AltitudeMeters>
            <DistanceMeters>14809.348953376</DistanceMeters>
          </Trackpoint>
          <Trackpoint>
            <Time>2018-08-26T06:17:59.000Z</Time>
            <Position>
              <LatitudeDegrees>42.830280326306819915771484375</LatitudeDegrees>
              <LongitudeDegrees>-1.7411799542605876922607421875</LongitudeDegrees>
            </Position>
            <AltitudeMeters>412.399993896484375</AltitudeMeters>
            <DistanceMeters>14817.121418327</DistanceMeters>
          </Trackpoint>
          <Trackpoint>
            <Time>2018-08-26T06:18:00.000Z</Time>
            <Position>
              <LatitudeDegrees>42.830223999917507171630859375</LatitudeDegrees>
              <LongitudeDegrees>-1.74122496508061885833740234375</LongitudeDegrees>
            </Position>
            <AltitudeMeters>412.399993896484375</AltitudeMeters>
            <DistanceMeters>14824.388321866</DistanceMeters>
          </Trackpoint>
          <Trackpoint>
            <Time>2018-08-26T06:18:01.000Z</Time>
            <Position>
              <LatitudeDegrees>42.83017136156558990478515625</LatitudeDegrees>
              <LongitudeDegrees>-1.74126855097711086273193359375</LongitudeDegrees>
            </Position>
            <AltitudeMeters>412.399993896484375</AltitudeMeters>
            <DistanceMeters>14831.242113346</DistanceMeters>
          </Trackpoint>
          <Trackpoint>
            <Time>2018-08-26T06:18:02.000Z</Time>
            <Position>
              <LatitudeDegrees>42.83012048341333866119384765625</LatitudeDegrees>
              <LongitudeDegrees>-1.7413090355694293975830078125</LongitudeDegrees>
            </Position>
            <AltitudeMeters>412.399993896484375</AltitudeMeters>
            <DistanceMeters>14837.798956638</DistanceMeters>
          </Trackpoint>
          <Trackpoint>
            <Time>2018-08-26T06:18:03.000Z</Time>
            <Position>
              <LatitudeDegrees>42.8300699405372142791748046875</LatitudeDegrees>
              <LongitudeDegrees>-1.741346754133701324462890625</LongitudeDegrees>
            </Position>
            <AltitudeMeters>412.79998779296875</AltitudeMeters>
            <DistanceMeters>14844.211675884</DistanceMeters>
          </Trackpoint>
          <Trackpoint>
            <Time>2018-08-26T06:18:04.000Z</Time>
            <Position>
              <LatitudeDegrees>42.83002040348947048187255859375</LatitudeDegrees>
              <LongitudeDegrees>-1.7413831315934658050537109375</LongitudeDegrees>
            </Position>
            <AltitudeMeters>413.20001220703125</AltitudeMeters>
            <DistanceMeters>14850.47335233</DistanceMeters>
          </Trackpoint>
          <Trackpoint>
            <Time>2018-08-26T06:18:05.000Z</Time>
            <Position>
              <LatitudeDegrees>42.82997195608913898468017578125</LatitudeDegrees>
              <LongitudeDegrees>-1.741417832672595977783203125</LongitudeDegrees>
            </Position>
            <AltitudeMeters>413.600006103515625</AltitudeMeters>
            <DistanceMeters>14856.565446731</DistanceMeters>
          </Trackpoint>
          <Trackpoint>
            <Time>2018-08-26T06:18:06.000Z</Time>
            <Position>
              <LatitudeDegrees>42.8299261070787906646728515625</LatitudeDegrees>
              <LongitudeDegrees>-1.7414538748562335968017578125</LongitudeDegrees>
            </Position>
            <AltitudeMeters>414.20001220703125</AltitudeMeters>
            <DistanceMeters>14862.455570133</DistanceMeters>
          </Trackpoint>
          <Trackpoint>
            <Time>2018-08-26T06:18:07.000Z</Time>
            <Position>
              <LatitudeDegrees>42.82988847233355045318603515625</LatitudeDegrees>
              <LongitudeDegrees>-1.74149804748594760894775390625</LongitudeDegrees>
            </Position>
            <AltitudeMeters>414.79998779296875</AltitudeMeters>
            <DistanceMeters>14867.983479203</DistanceMeters>
          </Trackpoint>
          <Trackpoint>
            <Time>2018-08-26T06:18:08.000Z</Time>
            <Position>
              <LatitudeDegrees>42.829867266118526458740234375</LatitudeDegrees>
              <LongitudeDegrees>-1.7415542900562286376953125</LongitudeDegrees>
            </Position>
            <AltitudeMeters>415.600006103515625</AltitudeMeters>
            <DistanceMeters>14873.144750898</DistanceMeters>
          </Trackpoint>
          <Trackpoint>
            <Time>2018-08-26T06:18:09.000Z</Time>
            <Position>
              <LatitudeDegrees>42.8298711217939853668212890625</LatitudeDegrees>
              <LongitudeDegrees>-1.7416132986545562744140625</LongitudeDegrees>
            </Position>
            <AltitudeMeters>416</AltitudeMeters>
            <DistanceMeters>14877.978986912</DistanceMeters>
          </Trackpoint>
          <Trackpoint>
            <Time>2018-08-26T06:18:10.000Z</Time>
            <Position>
              <LatitudeDegrees>42.82989869825541973114013671875</LatitudeDegrees>
              <LongitudeDegrees>-1.7416567169129848480224609375</LongitudeDegrees>
            </Position>
            <AltitudeMeters>416.600006103515625</AltitudeMeters>
            <DistanceMeters>14882.666222343</DistanceMeters>
          </Trackpoint>
          <Trackpoint>
            <Time>2018-08-26T06:18:11.000Z</Time>
            <Position>
              <LatitudeDegrees>42.82994211651384830474853515625</LatitudeDegrees>
              <LongitudeDegrees>-1.74167607910931110382080078125</LongitudeDegrees>
            </Position>
            <AltitudeMeters>417.20001220703125</AltitudeMeters>
            <DistanceMeters>14887.749929532</DistanceMeters>
          </Trackpoint>
          <Trackpoint>
            <Time>2018-08-26T06:18:12.000Z</Time>
            <Position>
              <LatitudeDegrees>42.82999475486576557159423828125</LatitudeDegrees>
              <LongitudeDegrees>-1.74167540855705738067626953125</LongitudeDegrees>
            </Position>
            <AltitudeMeters>417.600006103515625</AltitudeMeters>
            <DistanceMeters>14893.610081468</DistanceMeters>
          </Trackpoint>
          <Trackpoint>
            <Time>2018-08-26T06:18:13.000Z</Time>
            <Position>
              <LatitudeDegrees>42.83005258999764919281005859375</LatitudeDegrees>
              <LongitudeDegrees>-1.741671971976757049560546875</LongitudeDegrees>
            </Position>
            <AltitudeMeters>417.79998779296875</AltitudeMeters>
            <DistanceMeters>14900.053705564</DistanceMeters>
          </Trackpoint>
          <Trackpoint>
            <Time>2018-08-26T06:18:14.000Z</Time>
            <Position>
              <LatitudeDegrees>42.8301131911575794219970703125</LatitudeDegrees>
              <LongitudeDegrees>-1.741671971976757049560546875</LongitudeDegrees>
            </Position>
            <AltitudeMeters>418.20001220703125</AltitudeMeters>
            <DistanceMeters>14906.798594379</DistanceMeters>
          </Trackpoint>
          <Trackpoint>
            <Time>2018-08-26T06:18:15.000Z</Time>
            <Position>
              <LatitudeDegrees>42.8301732055842876434326171875</LatitudeDegrees>
              <LongitudeDegrees>-1.7416724748909473419189453125</LongitudeDegrees>
            </Position>
            <AltitudeMeters>418.600006103515625</AltitudeMeters>
            <DistanceMeters>14913.478235665</DistanceMeters>
          </Trackpoint>
          <Trackpoint>
            <Time>2018-08-26T06:18:16.000Z</Time>
            <Position>
              <LatitudeDegrees>42.83023213036358356475830078125</LatitudeDegrees>
              <LongitudeDegrees>-1.74167691729962825775146484375</LongitudeDegrees>
            </Position>
            <AltitudeMeters>418.600006103515625</AltitudeMeters>
            <DistanceMeters>14920.046774715</DistanceMeters>
          </Trackpoint>
          <Trackpoint>
            <Time>2018-08-26T06:18:17.000Z</Time>
            <Position>
              <LatitudeDegrees>42.830289714038372039794921875</LatitudeDegrees>
              <LongitudeDegrees>-1.7416842095553874969482421875</LongitudeDegrees>
            </Position>
            <AltitudeMeters>418.79998779296875</AltitudeMeters>
            <DistanceMeters>14926.483388011</DistanceMeters>
          </Trackpoint>
          <Trackpoint>
            <Time>2018-08-26T06:18:18.000Z</Time>
            <Position>
              <LatitudeDegrees>42.830348052084445953369140625</LatitudeDegrees>
              <LongitudeDegrees>-1.74169351346790790557861328125</LongitudeDegrees>
            </Position>
            <AltitudeMeters>418.79998779296875</AltitudeMeters>
            <DistanceMeters>14933.020231419</DistanceMeters>
          </Trackpoint>
          <Trackpoint>
            <Time>2018-08-26T06:18:19.000Z</Time>
            <Position>
              <LatitudeDegrees>42.83040714450180530548095703125</LatitudeDegrees>
              <LongitudeDegrees>-1.74170440994203090667724609375</LongitudeDegrees>
            </Position>
            <AltitudeMeters>418.79998779296875</AltitudeMeters>
            <DistanceMeters>14939.657151856</DistanceMeters>
          </Trackpoint>
          <Trackpoint>
            <Time>2018-08-26T06:18:20.000Z</Time>
            <Position>
              <LatitudeDegrees>42.8304685838520526885986328125</LatitudeDegrees>
              <LongitudeDegrees>-1.7417180724442005157470703125</LongitudeDegrees>
            </Position>
            <AltitudeMeters>418.79998779296875</AltitudeMeters>
            <DistanceMeters>14946.586287188</DistanceMeters>
          </Trackpoint>
          <Trackpoint>
            <Time>2018-08-26T06:18:21.000Z</Time>
            <Position>
              <LatitudeDegrees>42.8305314481258392333984375</LatitudeDegrees>
              <LongitudeDegrees>-1.74173466861248016357421875</LongitudeDegrees>
            </Position>
            <AltitudeMeters>419</AltitudeMeters>
            <DistanceMeters>14953.713290766</DistanceMeters>
          </Trackpoint>
          <Trackpoint>
            <Time>2018-08-26T06:18:22.000Z</Time>
            <Position>
              <LatitudeDegrees>42.83059456385672092437744140625</LatitudeDegrees>
              <LongitudeDegrees>-1.741753779351711273193359375</LongitudeDegrees>
            </Position>
            <AltitudeMeters>419.20001220703125</AltitudeMeters>
            <DistanceMeters>14960.90901577</DistanceMeters>
          </Trackpoint>
          <Trackpoint>
            <Time>2018-08-26T06:18:23.000Z</Time>
            <Position>
              <LatitudeDegrees>42.8306575119495391845703125</LatitudeDegrees>
              <LongitudeDegrees>-1.7417750693857669830322265625</LongitudeDegrees>
            </Position>
            <AltitudeMeters>419.20001220703125</AltitudeMeters>
            <DistanceMeters>14968.127919506</DistanceMeters>
          </Trackpoint>
          <Trackpoint>
            <Time>2018-08-26T06:18:24.000Z</Time>
            <Position>
              <LatitudeDegrees>42.83072012476623058319091796875</LatitudeDegrees>
              <LongitudeDegrees>-1.74179744906723499298095703125</LongitudeDegrees>
            </Position>
            <AltitudeMeters>419.399993896484375</AltitudeMeters>
            <DistanceMeters>14975.331170109</DistanceMeters>
          </Trackpoint>
          <Trackpoint>
            <Time>2018-08-26T06:18:25.000Z</Time>
            <Position>
              <LatitudeDegrees>42.830782569944858551025390625</LatitudeDegrees>
              <LongitudeDegrees>-1.74182116985321044921875</LongitudeDegrees>
            </Position>
            <AltitudeMeters>419.600006103515625</AltitudeMeters>
            <DistanceMeters>14982.545694392</DistanceMeters>
          </Trackpoint>
          <Trackpoint>
            <Time>2018-08-26T06:18:26.000Z</Time>
            <Position>
              <LatitudeDegrees>42.8308447636663913726806640625</LatitudeDegrees>
              <LongitudeDegrees>-1.741844974458217620849609375</LongitudeDegrees>
            </Position>
            <AltitudeMeters>419.79998779296875</AltitudeMeters>
            <DistanceMeters>14989.735142045</DistanceMeters>
          </Trackpoint>
          <Trackpoint>
            <Time>2018-08-26T06:18:27.000Z</Time>
            <Position>
              <LatitudeDegrees>42.83090737648308277130126953125</LatitudeDegrees>
              <LongitudeDegrees>-1.74186743795871734619140625</LongitudeDegrees>
            </Position>
            <AltitudeMeters>419.79998779296875</AltitudeMeters>
            <DistanceMeters>14996.940899435</DistanceMeters>
          </Trackpoint>
          <Trackpoint>
            <Time>2018-08-26T06:18:28.000Z</Time>
            <Position>
              <LatitudeDegrees>42.8309686481952667236328125</LatitudeDegrees>
              <LongitudeDegrees>-1.741891242563724517822265625</LongitudeDegrees>
            </Position>
            <AltitudeMeters>419.79998779296875</AltitudeMeters>
            <DistanceMeters>15004.031700915</DistanceMeters>
          </Trackpoint>
          <Trackpoint>
            <Time>2018-08-26T06:18:29.000Z</Time>
            <Position>
              <LatitudeDegrees>42.83103008754551410675048828125</LatitudeDegrees>
              <LongitudeDegrees>-1.74191295169293880462646484375</LongitudeDegrees>
            </Position>
            <AltitudeMeters>419.79998779296875</AltitudeMeters>
            <DistanceMeters>15011.096986655</DistanceMeters>
          </Trackpoint>
          <Trackpoint>
            <Time>2018-08-26T06:18:30.000Z</Time>
            <Position>
              <LatitudeDegrees>42.8310911916196346282958984375</LatitudeDegrees>
              <LongitudeDegrees>-1.7419329844415187835693359375</LongitudeDegrees>
            </Position>
            <AltitudeMeters>419.79998779296875</AltitudeMeters>
            <DistanceMeters>15018.091624185</DistanceMeters>
          </Trackpoint>
          <Trackpoint>
            <Time>2018-08-26T06:18:31.000Z</Time>
            <Position>
              <LatitudeDegrees>42.83115128986537456512451171875</LatitudeDegrees>
              <LongitudeDegrees>-1.7419541068375110626220703125</LongitudeDegrees>
            </Position>
            <AltitudeMeters>420</AltitudeMeters>
            <DistanceMeters>15024.999223184</DistanceMeters>
          </Trackpoint>
          <Trackpoint>
            <Time>2018-08-26T06:18:32.000Z</Time>
            <Position>
              <LatitudeDegrees>42.83121013082563877105712890625</LatitudeDegrees>
              <LongitudeDegrees>-1.741979755461215972900390625</LongitudeDegrees>
            </Position>
            <AltitudeMeters>420</AltitudeMeters>
            <DistanceMeters>15031.874062826</DistanceMeters>
          </Trackpoint>
          <Trackpoint>
            <Time>2018-08-26T06:18:33.000Z</Time>
            <Position>
              <LatitudeDegrees>42.83126763068139553070068359375</LatitudeDegrees>
              <LongitudeDegrees>-1.742009259760379791259765625</LongitudeDegrees>
            </Position>
            <AltitudeMeters>420</AltitudeMeters>
            <DistanceMeters>15038.712025668</DistanceMeters>
          </Trackpoint>
          <Trackpoint>
            <Time>2018-08-26T06:18:34.000Z</Time>
            <Position>
              <LatitudeDegrees>42.83132429234683513641357421875</LatitudeDegrees>
              <LongitudeDegrees>-1.7420402728021144866943359375</LongitudeDegrees>
            </Position>
            <AltitudeMeters>420</AltitudeMeters>
            <DistanceMeters>15045.506269613</DistanceMeters>
          </Trackpoint>
          <Trackpoint>
            <Time>2018-08-26T06:18:35.000Z</Time>
            <Position>
              <LatitudeDegrees>42.83138112165033817291259765625</LatitudeDegrees>
              <LongitudeDegrees>-1.742070950567722320556640625</LongitudeDegrees>
            </Position>
            <AltitudeMeters>420.20001220703125</AltitudeMeters>
            <DistanceMeters>15052.308483348</DistanceMeters>
          </Trackpoint>
          <Trackpoint>
            <Time>2018-08-26T06:18:36.000Z</Time>
            <Position>
              <LatitudeDegrees>42.831438370048999786376953125</LatitudeDegrees>
              <LongitudeDegrees>-1.74210238270461559295654296875</LongitudeDegrees>
            </Position>
            <AltitudeMeters>420.20001220703125</AltitudeMeters>
            <DistanceMeters>15059.178066996</DistanceMeters>
          </Trackpoint>
          <Trackpoint>
            <Time>2018-08-26T06:18:37.000Z</Time>
            <Position>
              <LatitudeDegrees>42.83149662427604198455810546875</LatitudeDegrees>
              <LongitudeDegrees>-1.74213389866054058074951171875</LongitudeDegrees>
            </Position>
            <AltitudeMeters>420.399993896484375</AltitudeMeters>
            <DistanceMeters>15066.153959911</DistanceMeters>
          </Trackpoint>
          <Trackpoint>
            <Time>2018-08-26T06:18:38.000Z</Time>
            <Position>
              <LatitudeDegrees>42.83155563287436962127685546875</LatitudeDegrees>
              <LongitudeDegrees>-1.74216457642614841461181640625</LongitudeDegrees>
            </Position>
            <AltitudeMeters>420.399993896484375</AltitudeMeters>
            <DistanceMeters>15073.182083284</DistanceMeters>
          </Trackpoint>
          <Trackpoint>
            <Time>2018-08-26T06:18:39.000Z</Time>
            <Position>
              <LatitudeDegrees>42.83161363564431667327880859375</LatitudeDegrees>
              <LongitudeDegrees>-1.7421951703727245330810546875</LongitudeDegrees>
            </Position>
            <AltitudeMeters>420.399993896484375</AltitudeMeters>
            <DistanceMeters>15080.104047283</DistanceMeters>
          </Trackpoint>
          <Trackpoint>
            <Time>2018-08-26T06:18:40.000Z</Time>
            <Position>
              <LatitudeDegrees>42.83167163841426372528076171875</LatitudeDegrees>
              <LongitudeDegrees>-1.74222559668123722076416015625</LongitudeDegrees>
            </Position>
            <AltitudeMeters>420.600006103515625</AltitudeMeters>
            <DistanceMeters>15087.020791098</DistanceMeters>
          </Trackpoint>
          <Trackpoint>
            <Time>2018-08-26T06:18:41.000Z</Time>
            <Position>
              <LatitudeDegrees>42.83172947354614734649658203125</LatitudeDegrees>
              <LongitudeDegrees>-1.74225493334233760833740234375</LongitudeDegrees>
            </Position>
            <AltitudeMeters>420.600006103515625</AltitudeMeters>
            <DistanceMeters>15093.889060119</DistanceMeters>
          </Trackpoint>
          <Trackpoint>
            <Time>2018-08-26T06:18:42.000Z</Time>
            <Position>
              <LatitudeDegrees>42.8317872248589992523193359375</LatitudeDegrees>
              <LongitudeDegrees>-1.74228443764150142669677734375</LongitudeDegrees>
            </Position>
            <AltitudeMeters>420.600006103515625</AltitudeMeters>
            <DistanceMeters>15100.752725962</DistanceMeters>
          </Trackpoint>
          <Trackpoint>
            <Time>2018-08-26T06:18:43.000Z</Time>
            <Position>
              <LatitudeDegrees>42.83184447325766086578369140625</LatitudeDegrees>
              <LongitudeDegrees>-1.7423141933977603912353515625</LongitudeDegrees>
            </Position>
            <AltitudeMeters>420.600006103515625</AltitudeMeters>
            <DistanceMeters>15107.571513509</DistanceMeters>
          </Trackpoint>
          <Trackpoint>
            <Time>2018-08-26T06:18:44.000Z</Time>
            <Position>
              <LatitudeDegrees>42.83190180547535419464111328125</LatitudeDegrees>
              <LongitudeDegrees>-1.74234378151595592498779296875</LongitudeDegrees>
            </Position>
            <AltitudeMeters>420.79998779296875</AltitudeMeters>
            <DistanceMeters>15114.39427278</DistanceMeters>
          </Trackpoint>
          <Trackpoint>
            <Time>2018-08-26T06:18:45.000Z</Time>
            <Position>
              <LatitudeDegrees>42.83195947296917438507080078125</LatitudeDegrees>
              <LongitudeDegrees>-1.7423725314438343048095703125</LongitudeDegrees>
            </Position>
            <AltitudeMeters>420.79998779296875</AltitudeMeters>
            <DistanceMeters>15121.228272734</DistanceMeters>
          </Trackpoint>
          <Trackpoint>
            <Time>2018-08-26T06:18:46.000Z</Time>
            <Position>
              <LatitudeDegrees>42.83201864920556545257568359375</LatitudeDegrees>
              <LongitudeDegrees>-1.742400191724300384521484375</LongitudeDegrees>
            </Position>
            <AltitudeMeters>421</AltitudeMeters>
            <DistanceMeters>15128.191857335</DistanceMeters>
          </Trackpoint>
          <Trackpoint>
            <Time>2018-08-26T06:18:47.000Z</Time>
            <Position>
              <LatitudeDegrees>42.8320789150893688201904296875</LatitudeDegrees>
              <LongitudeDegrees>-1.74242692999541759490966796875</LongitudeDegrees>
            </Position>
            <AltitudeMeters>421</AltitudeMeters>
            <DistanceMeters>15135.246270939</DistanceMeters>
          </Trackpoint>
          <Trackpoint>
            <Time>2018-08-26T06:18:48.000Z</Time>
            <Position>
              <LatitudeDegrees>42.83213800750672817230224609375</LatitudeDegrees>
              <LongitudeDegrees>-1.74245190806686878204345703125</LongitudeDegrees>
            </Position>
            <AltitudeMeters>421</AltitudeMeters>
            <DistanceMeters>15142.131610533</DistanceMeters>
          </Trackpoint>
          <Trackpoint>
            <Time>2018-08-26T06:18:49.000Z</Time>
            <Position>
              <LatitudeDegrees>42.8321959264576435089111328125</LatitudeDegrees>
              <LongitudeDegrees>-1.7424754612147808074951171875</LongitudeDegrees>
            </Position>
            <AltitudeMeters>421</AltitudeMeters>
            <DistanceMeters>15148.858401228</DistanceMeters>
          </Trackpoint>
          <Trackpoint>
            <Time>2018-08-26T06:18:50.000Z</Time>
            <Position>
              <LatitudeDegrees>42.83225401304662227630615234375</LatitudeDegrees>
              <LongitudeDegrees>-1.74249499104917049407958984375</LongitudeDegrees>
            </Position>
            <AltitudeMeters>421.20001220703125</AltitudeMeters>
            <DistanceMeters>15155.517733433</DistanceMeters>
          </Trackpoint>
          <Trackpoint>
            <Time>2018-08-26T06:18:51.000Z</Time>
            <Position>
              <LatitudeDegrees>42.83231268636882305145263671875</LatitudeDegrees>
              <LongitudeDegrees>-1.7425110004842281341552734375</LongitudeDegrees>
            </Position>
            <AltitudeMeters>421.20001220703125</AltitudeMeters>
            <DistanceMeters>15162.177743606</DistanceMeters>
          </Trackpoint>
          <Trackpoint>
            <Time>2018-08-26T06:18:52.000Z</Time>
            <Position>
              <LatitudeDegrees>42.83237152732908725738525390625</LatitudeDegrees>
              <LongitudeDegrees>-1.74252449534833431243896484375</LongitudeDegrees>
            </Position>
            <AltitudeMeters>421.20001220703125</AltitudeMeters>
            <DistanceMeters>15168.818744536</DistanceMeters>
          </Trackpoint>
          <Trackpoint>
            <Time>2018-08-26T06:18:53.000Z</Time>
            <Position>
              <LatitudeDegrees>42.83243103884160518646240234375</LatitudeDegrees>
              <LongitudeDegrees>-1.7425359785556793212890625</LongitudeDegrees>
            </Position>
            <AltitudeMeters>421.20001220703125</AltitudeMeters>
            <DistanceMeters>15175.508517241</DistanceMeters>
          </Trackpoint>
          <Trackpoint>
            <Time>2018-08-26T06:18:54.000Z</Time>
            <Position>
              <LatitudeDegrees>42.8324916400015354156494140625</LatitudeDegrees>
              <LongitudeDegrees>-1.74254628829658031463623046875</LongitudeDegrees>
            </Position>
            <AltitudeMeters>421.20001220703125</AltitudeMeters>
            <DistanceMeters>15182.306747249</DistanceMeters>
          </Trackpoint>
          <Trackpoint>
            <Time>2018-08-26T06:18:55.000Z</Time>
            <Position>
              <LatitudeDegrees>42.83255173824727535247802734375</LatitudeDegrees>
              <LongitudeDegrees>-1.7425545863807201385498046875</LongitudeDegrees>
            </Position>
            <AltitudeMeters>421.20001220703125</AltitudeMeters>
            <DistanceMeters>15189.030181095</DistanceMeters>
          </Trackpoint>
          <Trackpoint>
            <Time>2018-08-26T06:18:56.000Z</Time>
            <Position>
              <LatitudeDegrees>42.832611836493015289306640625</LatitudeDegrees>
              <LongitudeDegrees>-1.7425639741122722625732421875</LongitudeDegrees>
            </Position>
            <AltitudeMeters>421.399993896484375</AltitudeMeters>
            <DistanceMeters>15195.763009902</DistanceMeters>
          </Trackpoint>
          <Trackpoint>
            <Time>2018-08-26T06:18:57.000Z</Time>
            <Position>
              <LatitudeDegrees>42.83267118036746978759765625</LatitudeDegrees>
              <LongitudeDegrees>-1.742575876414775848388671875</LongitudeDegrees>
            </Position>
            <AltitudeMeters>421.399993896484375</AltitudeMeters>
            <DistanceMeters>15202.439270632</DistanceMeters>
          </Trackpoint>
          <Trackpoint>
            <Time>2018-08-26T06:18:58.000Z</Time>
            <Position>
              <LatitudeDegrees>42.832731194794178009033203125</LatitudeDegrees>
              <LongitudeDegrees>-1.74258819781243801116943359375</LongitudeDegrees>
            </Position>
            <AltitudeMeters>421.600006103515625</AltitudeMeters>
            <DistanceMeters>15209.194861379</DistanceMeters>
          </Trackpoint>
          <Trackpoint>
            <Time>2018-08-26T06:18:59.000Z</Time>
            <Position>
              <LatitudeDegrees>42.83279187977313995361328125</LatitudeDegrees>
              <LongitudeDegrees>-1.742601357400417327880859375</LongitudeDegrees>
            </Position>
            <AltitudeMeters>421.600006103515625</AltitudeMeters>
            <DistanceMeters>15216.034144674</DistanceMeters>
          </Trackpoint>
          <Trackpoint>
            <Time>2018-08-26T06:19:00.000Z</Time>
            <Position>
              <LatitudeDegrees>42.83285264857113361358642578125</LatitudeDegrees>
              <LongitudeDegrees>-1.74261569045484066009521484375</LongitudeDegrees>
            </Position>
            <AltitudeMeters>422</AltitudeMeters>
            <DistanceMeters>15222.898468303</DistanceMeters>
          </Trackpoint>
          <Trackpoint>
            <Time>2018-08-26T06:19:01.000Z</Time>
            <Position>
              <LatitudeDegrees>42.8329144231975078582763671875</LatitudeDegrees>
              <LongitudeDegrees>-1.74263052642345428466796875</LongitudeDegrees>
            </Position>
            <AltitudeMeters>422</AltitudeMeters>
            <DistanceMeters>15229.880183897</DistanceMeters>
          </Trackpoint>
          <Trackpoint>
            <Time>2018-08-26T06:19:02.000Z</Time>
            <Position>
              <LatitudeDegrees>42.8329757787287235260009765625</LatitudeDegrees>
              <LongitudeDegrees>-1.74264569766819477081298828125</LongitudeDegrees>
            </Position>
            <AltitudeMeters>422.20001220703125</AltitudeMeters>
            <DistanceMeters>15236.820387623</DistanceMeters>
          </Trackpoint>
          <Trackpoint>
            <Time>2018-08-26T06:19:03.000Z</Time>
            <Position>
              <LatitudeDegrees>42.833036966621875762939453125</LatitudeDegrees>
              <LongitudeDegrees>-1.74266028217971324920654296875</LongitudeDegrees>
            </Position>
            <AltitudeMeters>422.20001220703125</AltitudeMeters>
            <DistanceMeters>15243.733866821</DistanceMeters>
          </Trackpoint>
          <Trackpoint>
            <Time>2018-08-26T06:19:04.000Z</Time>
            <Position>
              <LatitudeDegrees>42.83309857361018657684326171875</LatitudeDegrees>
              <LongitudeDegrees>-1.74267402850091457366943359375</LongitudeDegrees>
            </Position>
            <AltitudeMeters>422.399993896484375</AltitudeMeters>
            <DistanceMeters>15250.681872914</DistanceMeters>
          </Trackpoint>
          <Trackpoint>
            <Time>2018-08-26T06:19:05.000Z</Time>
            <Position>
              <LatitudeDegrees>42.83315992914140224456787109375</LatitudeDegrees>
              <LongitudeDegrees>-1.7426886968314647674560546875</LongitudeDegrees>
            </Position>
            <AltitudeMeters>422.399993896484375</AltitudeMeters>
            <DistanceMeters>15257.614916755</DistanceMeters>
          </Trackpoint>
          <Trackpoint>
            <Time>2018-08-26T06:19:06.000Z</Time>
            <Position>
              <LatitudeDegrees>42.8332217037677764892578125</LatitudeDegrees>
              <LongitudeDegrees>-1.74270370043814182281494140625</LongitudeDegrees>
            </Position>
            <AltitudeMeters>422.600006103515625</AltitudeMeters>
            <DistanceMeters>15264.598572165</DistanceMeters>
          </Trackpoint>
          <Trackpoint>
            <Time>2018-08-26T06:19:07.000Z</Time>
            <Position>
              <LatitudeDegrees>42.83328347839415073394775390625</LatitudeDegrees>
              <LongitudeDegrees>-1.74271794967353343963623046875</LongitudeDegrees>
            </Position>
            <AltitudeMeters>422.600006103515625</AltitudeMeters>
            <DistanceMeters>15271.571875661</DistanceMeters>
          </Trackpoint>
          <Trackpoint>
            <Time>2018-08-26T06:19:08.000Z</Time>
            <Position>
              <LatitudeDegrees>42.83334533683955669403076171875</LatitudeDegrees>
              <LongitudeDegrees>-1.7427316121757030487060546875</LongitudeDegrees>
            </Position>
            <AltitudeMeters>422.600006103515625</AltitudeMeters>
            <DistanceMeters>15278.546473986</DistanceMeters>
          </Trackpoint>
          <Trackpoint>
            <Time>2018-08-26T06:19:09.000Z</Time>
            <Position>
              <LatitudeDegrees>42.83340635709464550018310546875</LatitudeDegrees>
              <LongitudeDegrees>-1.742745526134967803955078125</LongitudeDegrees>
            </Position>
            <AltitudeMeters>422.600006103515625</AltitudeMeters>
            <DistanceMeters>15285.432469296</DistanceMeters>
          </Trackpoint>
          <Trackpoint>
            <Time>2018-08-26T06:19:10.000Z</Time>
            <Position>
              <LatitudeDegrees>42.83346737734973430633544921875</LatitudeDegrees>
              <LongitudeDegrees>-1.74275985918939113616943359375</LongitudeDegrees>
            </Position>
            <AltitudeMeters>422.600006103515625</AltitudeMeters>
            <DistanceMeters>15292.325018329</DistanceMeters>
          </Trackpoint>
          <Trackpoint>
            <Time>2018-08-26T06:19:11.000Z</Time>
            <Position>
              <LatitudeDegrees>42.83352822996675968170166015625</LatitudeDegrees>
              <LongitudeDegrees>-1.74277544952929019927978515625</LongitudeDegrees>
            </Position>
            <AltitudeMeters>422.600006103515625</AltitudeMeters>
            <DistanceMeters>15299.21691227</DistanceMeters>
          </Trackpoint>
          <Trackpoint>
            <Time>2018-08-26T06:19:12.000Z</Time>
            <Position>
              <LatitudeDegrees>42.8335891664028167724609375</LatitudeDegrees>
              <LongitudeDegrees>-1.74279137514531612396240234375</LongitudeDegrees>
            </Position>
            <AltitudeMeters>422.79998779296875</AltitudeMeters>
            <DistanceMeters>15306.123203878</DistanceMeters>
          </Trackpoint>
          <Trackpoint>
            <Time>2018-08-26T06:19:13.000Z</Time>
            <Position>
              <LatitudeDegrees>42.83364943228662014007568359375</LatitudeDegrees>
              <LongitudeDegrees>-1.7428060434758663177490234375</LongitudeDegrees>
            </Position>
            <AltitudeMeters>422.79998779296875</AltitudeMeters>
            <DistanceMeters>15312.937354822</DistanceMeters>
          </Trackpoint>
          <Trackpoint>
            <Time>2018-08-26T06:19:14.000Z</Time>
            <Position>
              <LatitudeDegrees>42.83370894379913806915283203125</LatitudeDegrees>
              <LongitudeDegrees>-1.7428207956254482269287109375</LongitudeDegrees>
            </Position>
            <AltitudeMeters>422.79998779296875</AltitudeMeters>
            <DistanceMeters>15319.670183629</DistanceMeters>
          </Trackpoint>
          <Trackpoint>
            <Time>2018-08-26T06:19:15.000Z</Time>
            <Position>
              <LatitudeDegrees>42.8337680362164974212646484375</LatitudeDegrees>
              <LongitudeDegrees>-1.74283579923212528228759765625</LongitudeDegrees>
            </Position>
            <AltitudeMeters>423</AltitudeMeters>
            <DistanceMeters>15326.359956335</DistanceMeters>
          </Trackpoint>
          <Trackpoint>
            <Time>2018-08-26T06:19:16.000Z</Time>
            <Position>
              <LatitudeDegrees>42.8338267095386981964111328125</LatitudeDegrees>
              <LongitudeDegrees>-1.74285038374364376068115234375</LongitudeDegrees>
            </Position>
            <AltitudeMeters>423</AltitudeMeters>
            <DistanceMeters>15332.997557029</DistanceMeters>
          </Trackpoint>
          <Trackpoint>
            <Time>2018-08-26T06:19:17.000Z</Time>
            <Position>
              <LatitudeDegrees>42.833885215222835540771484375</LatitudeDegrees>
              <LongitudeDegrees>-1.74286496825516223907470703125</LongitudeDegrees>
            </Position>
            <AltitudeMeters>423</AltitudeMeters>
            <DistanceMeters>15339.61744834</DistanceMeters>
          </Trackpoint>
          <Trackpoint>
            <Time>2018-08-26T06:19:18.000Z</Time>
            <Position>
              <LatitudeDegrees>42.8339443914592266082763671875</LatitudeDegrees>
              <LongitudeDegrees>-1.7428801394999027252197265625</LongitudeDegrees>
            </Position>
            <AltitudeMeters>423</AltitudeMeters>
            <DistanceMeters>15346.319358533</DistanceMeters>
          </Trackpoint>
          <Trackpoint>
            <Time>2018-08-26T06:19:19.000Z</Time>
            <Position>
              <LatitudeDegrees>42.8340037353336811065673828125</LatitudeDegrees>
              <LongitudeDegrees>-1.7428953945636749267578125</LongitudeDegrees>
            </Position>
            <AltitudeMeters>423.20001220703125</AltitudeMeters>
            <DistanceMeters>15353.04144917</DistanceMeters>
          </Trackpoint>
          <Trackpoint>
            <Time>2018-08-26T06:19:20.000Z</Time>
            <Position>
              <LatitudeDegrees>42.83406299538910388946533203125</LatitudeDegrees>
              <LongitudeDegrees>-1.742910481989383697509765625</LongitudeDegrees>
            </Position>
            <AltitudeMeters>423.20001220703125</AltitudeMeters>
            <DistanceMeters>15359.751438823</DistanceMeters>
          </Trackpoint>
          <Trackpoint>
            <Time>2018-08-26T06:19:21.000Z</Time>
            <Position>
              <LatitudeDegrees>42.83412267453968524932861328125</LatitudeDegrees>
              <LongitudeDegrees>-1.742925904691219329833984375</LongitudeDegrees>
            </Position>
            <AltitudeMeters>423.20001220703125</AltitudeMeters>
            <DistanceMeters>15366.511038427</DistanceMeters>
          </Trackpoint>
          <Trackpoint>
            <Time>2018-08-26T06:19:22.000Z</Time>
            <Position>
              <LatitudeDegrees>42.8341821022331714630126953125</LatitudeDegrees>
              <LongitudeDegrees>-1.7429414950311183929443359375</LongitudeDegrees>
            </Position>
            <AltitudeMeters>423.20001220703125</AltitudeMeters>
            <DistanceMeters>15373.246549102</DistanceMeters>
          </Trackpoint>
          <Trackpoint>
            <Time>2018-08-26T06:19:23.000Z</Time>
            <Position>
              <LatitudeDegrees>42.83424161374568939208984375</LatitudeDegrees>
              <LongitudeDegrees>-1.742956750094890594482421875</LongitudeDegrees>
            </Position>
            <AltitudeMeters>423.399993896484375</AltitudeMeters>
            <DistanceMeters>15379.986080578</DistanceMeters>
          </Trackpoint>
          <Trackpoint>
            <Time>2018-08-26T06:19:24.000Z</Time>
            <Position>
              <LatitudeDegrees>42.834301292896270751953125</LatitudeDegrees>
              <LongitudeDegrees>-1.742971502244472503662109375</LongitudeDegrees>
            </Position>
            <AltitudeMeters>423.399993896484375</AltitudeMeters>
            <DistanceMeters>15386.736991318</DistanceMeters>
          </Trackpoint>
          <Trackpoint>
            <Time>2018-08-26T06:19:25.000Z</Time>
            <Position>
              <LatitudeDegrees>42.834360636770725250244140625</LatitudeDegrees>
              <LongitudeDegrees>-1.74298684112727642059326171875</LongitudeDegrees>
            </Position>
            <AltitudeMeters>423.399993896484375</AltitudeMeters>
            <DistanceMeters>15393.459753592</DistanceMeters>
          </Trackpoint>
          <Trackpoint>
            <Time>2018-08-26T06:19:26.000Z</Time>
            <Position>
              <LatitudeDegrees>42.8344198130071163177490234375</LatitudeDegrees>
              <LongitudeDegrees>-1.7430025152862071990966796875</LongitudeDegrees>
            </Position>
            <AltitudeMeters>423.399993896484375</AltitudeMeters>
            <DistanceMeters>15400.169070329</DistanceMeters>
          </Trackpoint>
          <Trackpoint>
            <Time>2018-08-26T06:19:27.000Z</Time>
            <Position>
              <LatitudeDegrees>42.83447890542447566986083984375</LatitudeDegrees>
              <LongitudeDegrees>-1.74301785416901111602783203125</LongitudeDegrees>
            </Position>
            <AltitudeMeters>423.399993896484375</AltitudeMeters>
            <DistanceMeters>15406.86424019</DistanceMeters>
          </Trackpoint>
          <Trackpoint>
            <Time>2018-08-26T06:19:28.000Z</Time>
            <Position>
              <LatitudeDegrees>42.83453757874667644500732421875</LatitudeDegrees>
              <LongitudeDegrees>-1.74303285777568817138671875</LongitudeDegrees>
            </Position>
            <AltitudeMeters>423.600006103515625</AltitudeMeters>
            <DistanceMeters>15413.508639616</DistanceMeters>
          </Trackpoint>
          <Trackpoint>
            <Time>2018-08-26T06:19:29.000Z</Time>
            <Position>
              <LatitudeDegrees>42.83459641970694065093994140625</LatitudeDegrees>
              <LongitudeDegrees>-1.74304760992527008056640625</LongitudeDegrees>
            </Position>
            <AltitudeMeters>423.600006103515625</AltitudeMeters>
            <DistanceMeters>15420.167971821</DistanceMeters>
          </Trackpoint>
          <Trackpoint>
            <Time>2018-08-26T06:19:30.000Z</Time>
            <Position>
              <LatitudeDegrees>42.8346551768481731414794921875</LatitudeDegrees>
              <LongitudeDegrees>-1.74306194297969341278076171875</LongitudeDegrees>
            </Position>
            <AltitudeMeters>423.600006103515625</AltitudeMeters>
            <DistanceMeters>15426.811691687</DistanceMeters>
          </Trackpoint>
          <Trackpoint>
            <Time>2018-08-26T06:19:31.000Z</Time>
            <Position>
              <LatitudeDegrees>42.83471368253231048583984375</LatitudeDegrees>
              <LongitudeDegrees>-1.743076778948307037353515625</LongitudeDegrees>
            </Position>
            <AltitudeMeters>423.600006103515625</AltitudeMeters>
            <DistanceMeters>15433.434992327</DistanceMeters>
          </Trackpoint>
          <Trackpoint>
            <Time>2018-08-26T06:19:32.000Z</Time>
            <Position>
              <LatitudeDegrees>42.83477269113063812255859375</LatitudeDegrees>
              <LongitudeDegrees>-1.74309253692626953125</LongitudeDegrees>
            </Position>
            <AltitudeMeters>423.600006103515625</AltitudeMeters>
            <DistanceMeters>15440.127464154</DistanceMeters>
          </Trackpoint>
          <Trackpoint>
            <Time>2018-08-26T06:19:33.000Z</Time>
            <Position>
              <LatitudeDegrees>42.83483169972896575927734375</LatitudeDegrees>
              <LongitudeDegrees>-1.74310888163745403289794921875</LongitudeDegrees>
            </Position>
            <AltitudeMeters>423.79998779296875</AltitudeMeters>
            <DistanceMeters>15446.829374347</DistanceMeters>
          </Trackpoint>
          <Trackpoint>
            <Time>2018-08-26T06:19:34.000Z</Time>
            <Position>
              <LatitudeDegrees>42.8348905406892299652099609375</LatitudeDegrees>
              <LongitudeDegrees>-1.74312413670122623443603515625</LongitudeDegrees>
            </Position>
            <AltitudeMeters>423.79998779296875</AltitudeMeters>
            <DistanceMeters>15453.496160399</DistanceMeters>
          </Trackpoint>
          <Trackpoint>
            <Time>2018-08-26T06:19:35.000Z</Time>
            <Position>
              <LatitudeDegrees>42.83494879491627216339111328125</LatitudeDegrees>
              <LongitudeDegrees>-1.74313855357468128204345703125</LongitudeDegrees>
            </Position>
            <AltitudeMeters>423.79998779296875</AltitudeMeters>
            <DistanceMeters>15460.085288379</DistanceMeters>
          </Trackpoint>
          <Trackpoint>
            <Time>2018-08-26T06:19:36.000Z</Time>
            <Position>
              <LatitudeDegrees>42.8350065462291240692138671875</LatitudeDegrees>
              <LongitudeDegrees>-1.74315364100039005279541015625</LongitudeDegrees>
            </Position>
            <AltitudeMeters>423.79998779296875</AltitudeMeters>
            <DistanceMeters>15466.630415013</DistanceMeters>
          </Trackpoint>
          <Trackpoint>
            <Time>2018-08-26T06:19:37.000Z</Time>
            <Position>
              <LatitudeDegrees>42.83506371080875396728515625</LatitudeDegrees>
              <LongitudeDegrees>-1.74316822551190853118896484375</LongitudeDegrees>
            </Position>
            <AltitudeMeters>424</AltitudeMeters>
            <DistanceMeters>15473.103401549</DistanceMeters>
          </Trackpoint>
          <Trackpoint>
            <Time>2018-08-26T06:19:38.000Z</Time>
            <Position>
              <LatitudeDegrees>42.83512095920741558074951171875</LatitudeDegrees>
              <LongitudeDegrees>-1.7431823909282684326171875</LongitudeDegrees>
            </Position>
            <AltitudeMeters>424</AltitudeMeters>
            <DistanceMeters>15479.579177565</DistanceMeters>
          </Trackpoint>
          <Trackpoint>
            <Time>2018-08-26T06:19:39.000Z</Time>
            <Position>
              <LatitudeDegrees>42.8351782076060771942138671875</LatitudeDegrees>
              <LongitudeDegrees>-1.74319722689688205718994140625</LongitudeDegrees>
            </Position>
            <AltitudeMeters>424</AltitudeMeters>
            <DistanceMeters>15486.06470731</DistanceMeters>
          </Trackpoint>
          <Trackpoint>
            <Time>2018-08-26T06:19:40.000Z</Time>
            <Position>
              <LatitudeDegrees>42.83523562364280223846435546875</LatitudeDegrees>
              <LongitudeDegrees>-1.74321197904646396636962890625</LongitudeDegrees>
            </Position>
            <AltitudeMeters>424.20001220703125</AltitudeMeters>
            <DistanceMeters>15492.568312315</DistanceMeters>
          </Trackpoint>
          <Trackpoint>
            <Time>2018-08-26T06:19:41.000Z</Time>
            <Position>
              <LatitudeDegrees>42.83529312349855899810791015625</LatitudeDegrees>
              <LongitudeDegrees>-1.743226312100887298583984375</LongitudeDegrees>
            </Position>
            <AltitudeMeters>424.20001220703125</AltitudeMeters>
            <DistanceMeters>15499.074693673</DistanceMeters>
          </Trackpoint>
          <Trackpoint>
            <Time>2018-08-26T06:19:42.000Z</Time>
            <Position>
              <LatitudeDegrees>42.83535062335431575775146484375</LatitudeDegrees>
              <LongitudeDegrees>-1.74324064515531063079833984375</LongitudeDegrees>
            </Position>
            <AltitudeMeters>424.20001220703125</AltitudeMeters>
            <DistanceMeters>15505.580381053</DistanceMeters>
          </Trackpoint>
          <Trackpoint>
            <Time>2018-08-26T06:19:43.000Z</Time>
            <Position>
              <LatitudeDegrees>42.8354085423052310943603515625</LatitudeDegrees>
              <LongitudeDegrees>-1.7432549782097339630126953125</LongitudeDegrees>
            </Position>
            <AltitudeMeters>424.20001220703125</AltitudeMeters>
            <DistanceMeters>15512.132402376</DistanceMeters>
          </Trackpoint>
          <Trackpoint>
            <Time>2018-08-26T06:19:44.000Z</Time>
            <Position>
              <LatitudeDegrees>42.83546612598001956939697265625</LatitudeDegrees>
              <LongitudeDegrees>-1.7432690598070621490478515625</LongitudeDegrees>
            </Position>
            <AltitudeMeters>424.399993896484375</AltitudeMeters>
            <DistanceMeters>15518.642946042</DistanceMeters>
          </Trackpoint>
          <Trackpoint>
            <Time>2018-08-26T06:19:45.000Z</Time>
            <Position>
              <LatitudeDegrees>42.83552396111190319061279296875</LatitudeDegrees>
              <LongitudeDegrees>-1.74328356049954891204833984375</LongitudeDegrees>
            </Position>
            <AltitudeMeters>424.399993896484375</AltitudeMeters>
            <DistanceMeters>15525.188072676</DistanceMeters>
          </Trackpoint>
          <Trackpoint>
            <Time>2018-08-26T06:19:46.000Z</Time>
            <Position>
              <LatitudeDegrees>42.835581712424755096435546875</LatitudeDegrees>
              <LongitudeDegrees>-1.74329831264913082122802734375</LongitudeDegrees>
            </Position>
            <AltitudeMeters>424.399993896484375</AltitudeMeters>
            <DistanceMeters>15531.728368702</DistanceMeters>
          </Trackpoint>
          <Trackpoint>
            <Time>2018-08-26T06:19:47.000Z</Time>
            <Position>
              <LatitudeDegrees>42.83563979901373386383056640625</LatitudeDegrees>
              <LongitudeDegrees>-1.74331256188452243804931640625</LongitudeDegrees>
            </Position>
            <AltitudeMeters>424.399993896484375</AltitudeMeters>
            <DistanceMeters>15538.298282355</DistanceMeters>
          </Trackpoint>
          <Trackpoint>
            <Time>2018-08-26T06:19:48.000Z</Time>
            <Position>
              <LatitudeDegrees>42.83569805324077606201171875</LatitudeDegrees>
              <LongitudeDegrees>-1.74332479946315288543701171875</LongitudeDegrees>
            </Position>
            <AltitudeMeters>424.600006103515625</AltitudeMeters>
            <DistanceMeters>15544.85856774</DistanceMeters>
          </Trackpoint>
          <Trackpoint>
            <Time>2018-08-26T06:19:49.000Z</Time>
            <Position>
              <LatitudeDegrees>42.835755050182342529296875</LatitudeDegrees>
              <LongitudeDegrees>-1.74333334900438785552978515625</LongitudeDegrees>
            </Position>
            <AltitudeMeters>424.600006103515625</AltitudeMeters>
            <DistanceMeters>15551.240939935</DistanceMeters>
          </Trackpoint>
          <Trackpoint>
            <Time>2018-08-26T06:19:50.000Z</Time>
            <Position>
              <LatitudeDegrees>42.83581129275262355804443359375</LatitudeDegrees>
              <LongitudeDegrees>-1.7433394677937030792236328125</LongitudeDegrees>
            </Position>
            <AltitudeMeters>424.79998779296875</AltitudeMeters>
            <DistanceMeters>15557.51989795</DistanceMeters>
          </Trackpoint>
          <Trackpoint>
            <Time>2018-08-26T06:19:51.000Z</Time>
            <Position>
              <LatitudeDegrees>42.83586703240871429443359375</LatitudeDegrees>
              <LongitudeDegrees>-1.74334424547851085662841796875</LongitudeDegrees>
            </Position>
            <AltitudeMeters>425</AltitudeMeters>
            <DistanceMeters>15563.735255303</DistanceMeters>
          </Trackpoint>
          <Trackpoint>
            <Time>2018-08-26T06:19:52.000Z</Time>
            <Position>
              <LatitudeDegrees>42.8359225206077098846435546875</LatitudeDegrees>
              <LongitudeDegrees>-1.74334893934428691864013671875</LongitudeDegrees>
            </Position>
            <AltitudeMeters>425</AltitudeMeters>
            <DistanceMeters>15569.922946644</DistanceMeters>
          </Trackpoint>
          <Trackpoint>
            <Time>2018-08-26T06:19:53.000Z</Time>
            <Position>
              <LatitudeDegrees>42.83597859553992748260498046875</LatitudeDegrees>
              <LongitudeDegrees>-1.74335329793393611907958984375</LongitudeDegrees>
            </Position>
            <AltitudeMeters>425.20001220703125</AltitudeMeters>
            <DistanceMeters>15576.174520113</DistanceMeters>
          </Trackpoint>
          <Trackpoint>
            <Time>2018-08-26T06:19:54.000Z</Time>
            <Position>
              <LatitudeDegrees>42.83603525720536708831787109375</LatitudeDegrees>
              <LongitudeDegrees>-1.743357069790363311767578125</LongitudeDegrees>
            </Position>
            <AltitudeMeters>425.20001220703125</AltitudeMeters>
            <DistanceMeters>15582.489329499</DistanceMeters>
          </Trackpoint>
          <Trackpoint>
            <Time>2018-08-26T06:19:55.000Z</Time>
            <Position>
              <LatitudeDegrees>42.83609208650887012481689453125</LatitudeDegrees>
              <LongitudeDegrees>-1.74336033873260021209716796875</LongitudeDegrees>
            </Position>
            <AltitudeMeters>425.399993896484375</AltitudeMeters>
            <DistanceMeters>15588.819849166</DistanceMeters>
          </Trackpoint>
          <Trackpoint>
            <Time>2018-08-26T06:19:56.000Z</Time>
            <Position>
              <LatitudeDegrees>42.83614891581237316131591796875</LatitudeDegrees>
              <LongitudeDegrees>-1.74336352385580539703369140625</LongitudeDegrees>
            </Position>
            <AltitudeMeters>425.399993896484375</AltitudeMeters>
            <DistanceMeters>15595.150368834</DistanceMeters>
          </Trackpoint>
          <Trackpoint>
            <Time>2018-08-26T06:19:57.000Z</Time>
            <Position>
              <LatitudeDegrees>42.83620591275393962860107421875</LatitudeDegrees>
              <LongitudeDegrees>-1.7433672957122325897216796875</LongitudeDegrees>
            </Position>
            <AltitudeMeters>425.600006103515625</AltitudeMeters>
            <DistanceMeters>15601.502248992</DistanceMeters>
          </Trackpoint>
          <Trackpoint>
            <Time>2018-08-26T06:19:58.000Z</Time>
            <Position>
              <LatitudeDegrees>42.8362624906003475189208984375</LatitudeDegrees>
              <LongitudeDegrees>-1.74337089993059635162353515625</LongitudeDegrees>
            </Position>
            <AltitudeMeters>425.79998779296875</AltitudeMeters>
            <DistanceMeters>15607.807040544</DistanceMeters>
          </Trackpoint>
          <Trackpoint>
            <Time>2018-08-26T06:19:59.000Z</Time>
            <Position>
              <LatitudeDegrees>42.83631873317062854766845703125</LatitudeDegrees>
              <LongitudeDegrees>-1.74337307922542095184326171875</LongitudeDegrees>
            </Position>
            <AltitudeMeters>425.79998779296875</AltitudeMeters>
            <DistanceMeters>15614.070158942</DistanceMeters>
          </Trackpoint>
          <Trackpoint>
            <Time>2018-08-26T06:20:00.000Z</Time>
            <Position>
              <LatitudeDegrees>42.8363751433789730072021484375</LatitudeDegrees>
              <LongitudeDegrees>-1.74337525852024555206298828125</LongitudeDegrees>
            </Position>
            <AltitudeMeters>426</AltitudeMeters>
            <DistanceMeters>15620.350554942</DistanceMeters>
          </Trackpoint>
          <Trackpoint>
            <Time>2018-08-26T06:20:01.000Z</Time>
            <Position>
              <LatitudeDegrees>42.836431302130222320556640625</LatitudeDegrees>
              <LongitudeDegrees>-1.743377186357975006103515625</LongitudeDegrees>
            </Position>
            <AltitudeMeters>426.20001220703125</AltitudeMeters>
            <DistanceMeters>15626.602850594</DistanceMeters>
          </Trackpoint>
          <Trackpoint>
            <Time>2018-08-26T06:20:02.000Z</Time>
            <Position>
              <LatitudeDegrees>42.83648687414824962615966796875</LatitudeDegrees>
              <LongitudeDegrees>-1.74337961710989475250244140625</LongitudeDegrees>
            </Position>
            <AltitudeMeters>426.20001220703125</AltitudeMeters>
            <DistanceMeters>15632.790541934</DistanceMeters>
          </Trackpoint>
          <Trackpoint>
            <Time>2018-08-26T06:20:03.000Z</Time>
            <Position>
              <LatitudeDegrees>42.83654202707111835479736328125</LatitudeDegrees>
              <LongitudeDegrees>-1.74338229931890964508056640625</LongitudeDegrees>
            </Position>
            <AltitudeMeters>426.399993896484375</AltitudeMeters>
            <DistanceMeters>15638.932091357</DistanceMeters>
          </Trackpoint>
          <Trackpoint>
            <Time>2018-08-26T06:20:04.000Z</Time>
            <Position>
              <LatitudeDegrees>42.836596257984638214111328125</LatitudeDegrees>
              <LongitudeDegrees>-1.743385232985019683837890625</LongitudeDegrees>
            </Position>
            <AltitudeMeters>426.600006103515625</AltitudeMeters>
            <DistanceMeters>15644.97208381</DistanceMeters>
          </Trackpoint>
          <Trackpoint>
            <Time>2018-08-26T06:20:05.000Z</Time>
            <Position>
              <LatitudeDegrees>42.8366507403552532196044921875</LatitudeDegrees>
              <LongitudeDegrees>-1.74338766373693943023681640625</LongitudeDegrees>
            </Position>
            <AltitudeMeters>426.79998779296875</AltitudeMeters>
            <DistanceMeters>15651.038927436</DistanceMeters>
          </Trackpoint>
          <Trackpoint>
            <Time>2018-08-26T06:20:06.000Z</Time>
            <Position>
              <LatitudeDegrees>42.83670564182102680206298828125</LatitudeDegrees>
              <LongitudeDegrees>-1.74339034594595432281494140625</LongitudeDegrees>
            </Position>
            <AltitudeMeters>426.79998779296875</AltitudeMeters>
            <DistanceMeters>15657.153215332</DistanceMeters>
          </Trackpoint>
          <Trackpoint>
            <Time>2018-08-26T06:20:07.000Z</Time>
            <Position>
              <LatitudeDegrees>42.83676087856292724609375</LatitudeDegrees>
              <LongitudeDegrees>-1.743393279612064361572265625</LongitudeDegrees>
            </Position>
            <AltitudeMeters>427</AltitudeMeters>
            <DistanceMeters>15663.305782313</DistanceMeters>
          </Trackpoint>
          <Trackpoint>
            <Time>2018-08-26T06:20:08.000Z</Time>
            <Position>
              <LatitudeDegrees>42.83681695349514484405517578125</LatitudeDegrees>
              <LongitudeDegrees>-1.74339688383042812347412109375</LongitudeDegrees>
            </Position>
            <AltitudeMeters>427.20001220703125</AltitudeMeters>
            <DistanceMeters>15669.554466218</DistanceMeters>
          </Trackpoint>
          <Trackpoint>
            <Time>2018-08-26T06:20:09.000Z</Time>
            <Position>
              <LatitudeDegrees>42.83687286078929901123046875</LatitudeDegrees>
              <LongitudeDegrees>-1.74340090714395046234130859375</LongitudeDegrees>
            </Position>
            <AltitudeMeters>427.20001220703125</AltitudeMeters>
            <DistanceMeters>15675.785784594</DistanceMeters>
          </Trackpoint>
          <Trackpoint>
            <Time>2018-08-26T06:20:10.000Z</Time>
            <Position>
              <LatitudeDegrees>42.83692893572151660919189453125</LatitudeDegrees>
              <LongitudeDegrees>-1.7434050142765045166015625</LongitudeDegrees>
            </Position>
            <AltitudeMeters>427.399993896484375</AltitudeMeters>
            <DistanceMeters>15682.035913449</DistanceMeters>
          </Trackpoint>
          <Trackpoint>
            <Time>2018-08-26T06:20:11.000Z</Time>
            <Position>
              <LatitudeDegrees>42.836984507739543914794921875</LatitudeDegrees>
              <LongitudeDegrees>-1.74340878613293170928955078125</LongitudeDegrees>
            </Position>
            <AltitudeMeters>427.600006103515625</AltitudeMeters>
            <DistanceMeters>15688.229439483</DistanceMeters>
          </Trackpoint>
          <Trackpoint>
            <Time>2018-08-26T06:20:12.000Z</Time>
            <Position>
              <LatitudeDegrees>42.8370399959385395050048828125</LatitudeDegrees>
              <LongitudeDegrees>-1.74341079778969287872314453125</LongitudeDegrees>
            </Position>
            <AltitudeMeters>427.600006103515625</AltitudeMeters>
            <DistanceMeters>15694.407637693</DistanceMeters>
          </Trackpoint>
          <Trackpoint>
            <Time>2018-08-26T06:20:13.000Z</Time>
            <Position>
              <LatitudeDegrees>42.83709548413753509521484375</LatitudeDegrees>
              <LongitudeDegrees>-1.74341264180839061737060546875</LongitudeDegrees>
            </Position>
            <AltitudeMeters>427.79998779296875</AltitudeMeters>
            <DistanceMeters>15700.586566662</DistanceMeters>
          </Trackpoint>
          <Trackpoint>
            <Time>2018-08-26T06:20:14.000Z</Time>
            <Position>
              <LatitudeDegrees>42.83715105615556240081787109375</LatitudeDegrees>
              <LongitudeDegrees>-1.7434155754745006561279296875</LongitudeDegrees>
            </Position>
            <AltitudeMeters>428</AltitudeMeters>
            <DistanceMeters>15706.777176037</DistanceMeters>
          </Trackpoint>
          <Trackpoint>
            <Time>2018-08-26T06:20:15.000Z</Time>
            <Position>
              <LatitudeDegrees>42.83720679581165313720703125</LatitudeDegrees>
              <LongitudeDegrees>-1.7434184253215789794921875</LongitudeDegrees>
            </Position>
            <AltitudeMeters>428.20001220703125</AltitudeMeters>
            <DistanceMeters>15712.985264814</DistanceMeters>
          </Trackpoint>
          <Trackpoint>
            <Time>2018-08-26T06:20:16.000Z</Time>
            <Position>
              <LatitudeDegrees>42.83726270310580730438232421875</LatitudeDegrees>
              <LongitudeDegrees>-1.74342119134962558746337890625</LongitudeDegrees>
            </Position>
            <AltitudeMeters>428.20001220703125</AltitudeMeters>
            <DistanceMeters>15719.210783917</DistanceMeters>
          </Trackpoint>
          <Trackpoint>
            <Time>2018-08-26T06:20:17.000Z</Time>
            <Position>
              <LatitudeDegrees>42.83731810748577117919921875</LatitudeDegrees>
              <LongitudeDegrees>-1.743424125015735626220703125</LongitudeDegrees>
            </Position>
            <AltitudeMeters>428.399993896484375</AltitudeMeters>
            <DistanceMeters>15725.380938071</DistanceMeters>
          </Trackpoint>
          <Trackpoint>
            <Time>2018-08-26T06:20:18.000Z</Time>
            <Position>
              <LatitudeDegrees>42.8373719193041324615478515625</LatitudeDegrees>
              <LongitudeDegrees>-1.74342655576765537261962890625</LongitudeDegrees>
            </Position>
            <AltitudeMeters>428.399993896484375</AltitudeMeters>
            <DistanceMeters>15731.372898012</DistanceMeters>
          </Trackpoint>
          <Trackpoint>
            <Time>2018-08-26T06:20:19.000Z</Time>
            <Position>
              <LatitudeDegrees>42.83742497675120830535888671875</LatitudeDegrees>
              <LongitudeDegrees>-1.74342940561473369598388671875</LongitudeDegrees>
            </Position>
            <AltitudeMeters>428.600006103515625</AltitudeMeters>
            <DistanceMeters>15737.283681866</DistanceMeters>
          </Trackpoint>
          <Trackpoint>
            <Time>2018-08-26T06:20:20.000Z</Time>
            <Position>
              <LatitudeDegrees>42.8374783694744110107421875</LatitudeDegrees>
              <LongitudeDegrees>-1.74343225546181201934814453125</LongitudeDegrees>
            </Position>
            <AltitudeMeters>428.600006103515625</AltitudeMeters>
            <DistanceMeters>15743.231777318</DistanceMeters>
          </Trackpoint>
          <Trackpoint>
            <Time>2018-08-26T06:20:21.000Z</Time>
            <Position>
              <LatitudeDegrees>42.83753260038793087005615234375</LatitudeDegrees>
              <LongitudeDegrees>-1.74343443475663661956787109375</LongitudeDegrees>
            </Position>
            <AltitudeMeters>428.600006103515625</AltitudeMeters>
            <DistanceMeters>15749.271022201</DistanceMeters>
          </Trackpoint>
          <Trackpoint>
            <Time>2018-08-26T06:20:22.000Z</Time>
            <Position>
              <LatitudeDegrees>42.83758758567273616790771484375</LatitudeDegrees>
              <LongitudeDegrees>-1.74343661405146121978759765625</LongitudeDegrees>
            </Position>
            <AltitudeMeters>428.600006103515625</AltitudeMeters>
            <DistanceMeters>15755.394164972</DistanceMeters>
          </Trackpoint>
          <Trackpoint>
            <Time>2018-08-26T06:20:23.000Z</Time>
            <Position>
              <LatitudeDegrees>42.8376424871385097503662109375</LatitudeDegrees>
              <LongitudeDegrees>-1.74343921244144439697265625</LongitudeDegrees>
            </Position>
            <AltitudeMeters>428.79998779296875</AltitudeMeters>
            <DistanceMeters>15761.508452868</DistanceMeters>
          </Trackpoint>
          <Trackpoint>
            <Time>2018-08-26T06:20:24.000Z</Time>
            <Position>
              <LatitudeDegrees>42.8376974724233150482177734375</LatitudeDegrees>
              <LongitudeDegrees>-1.74344164319336414337158203125</LongitudeDegrees>
            </Position>
            <AltitudeMeters>428.79998779296875</AltitudeMeters>
            <DistanceMeters>15767.631595639</DistanceMeters>
          </Trackpoint>
          <Trackpoint>
            <Time>2018-08-26T06:20:25.000Z</Time>
            <Position>
              <LatitudeDegrees>42.8377521224319934844970703125</LatitudeDegrees>
              <LongitudeDegrees>-1.74344399012625217437744140625</LongitudeDegrees>
            </Position>
            <AltitudeMeters>428.79998779296875</AltitudeMeters>
            <DistanceMeters>15773.717758106</DistanceMeters>
          </Trackpoint>
          <Trackpoint>
            <Time>2018-08-26T06:20:26.000Z</Time>
            <Position>
              <LatitudeDegrees>42.83780635334551334381103515625</LatitudeDegrees>
              <LongitudeDegrees>-1.7434457503259181976318359375</LongitudeDegrees>
            </Position>
            <AltitudeMeters>429</AltitudeMeters>
            <DistanceMeters>15779.754759724</DistanceMeters>
          </Trackpoint>
          <Trackpoint>
            <Time>2018-08-26T06:20:27.000Z</Time>
            <Position>
              <LatitudeDegrees>42.8378604166209697723388671875</LatitudeDegrees>
              <LongitudeDegrees>-1.7434479296207427978515625</LongitudeDegrees>
            </Position>
            <AltitudeMeters>429.399993896484375</AltitudeMeters>
            <DistanceMeters>15785.773785117</DistanceMeters>
          </Trackpoint>
          <Trackpoint>
            <Time>2018-08-26T06:20:28.000Z</Time>
            <Position>
              <LatitudeDegrees>42.83791414462029933929443359375</LatitudeDegrees>
              <LongitudeDegrees>-1.7434504441916942596435546875</LongitudeDegrees>
            </Position>
            <AltitudeMeters>429.600006103515625</AltitudeMeters>
            <DistanceMeters>15791.756696033</DistanceMeters>
          </Trackpoint>
          <Trackpoint>
            <Time>2018-08-26T06:20:29.000Z</Time>
            <Position>
              <LatitudeDegrees>42.83796778880059719085693359375</LatitudeDegrees>
              <LongitudeDegrees>-1.743452958762645721435546875</LongitudeDegrees>
            </Position>
            <AltitudeMeters>429.79998779296875</AltitudeMeters>
            <DistanceMeters>15797.731299968</DistanceMeters>
          </Trackpoint>
          <Trackpoint>
            <Time>2018-08-26T06:20:30.000Z</Time>
            <Position>
              <LatitudeDegrees>42.838021852076053619384765625</LatitudeDegrees>
              <LongitudeDegrees>-1.74345572479069232940673828125</LongitudeDegrees>
            </Position>
            <AltitudeMeters>429.79998779296875</AltitudeMeters>
            <DistanceMeters>15803.751825431</DistanceMeters>
          </Trackpoint>
          <Trackpoint>
            <Time>2018-08-26T06:20:31.000Z</Time>
            <Position>
              <LatitudeDegrees>42.83807742409408092498779296875</LatitudeDegrees>
              <LongitudeDegrees>-1.74345958046615123748779296875</LongitudeDegrees>
            </Position>
            <AltitudeMeters>430</AltitudeMeters>
            <DistanceMeters>15809.945351465</DistanceMeters>
          </Trackpoint>
          <Trackpoint>
            <Time>2018-08-26T06:20:32.000Z</Time>
            <Position>
              <LatitudeDegrees>42.8381323255598545074462890625</LatitudeDegrees>
              <LongitudeDegrees>-1.743463017046451568603515625</LongitudeDegrees>
            </Position>
            <AltitudeMeters>430</AltitudeMeters>
            <DistanceMeters>15816.06259241</DistanceMeters>
          </Trackpoint>
          <Trackpoint>
            <Time>2018-08-26T06:20:33.000Z</Time>
            <Position>
              <LatitudeDegrees>42.83818789757788181304931640625</LatitudeDegrees>
              <LongitudeDegrees>-1.74346603453159332275390625</LongitudeDegrees>
            </Position>
            <AltitudeMeters>430.20001220703125</AltitudeMeters>
            <DistanceMeters>15822.252472405</DistanceMeters>
          </Trackpoint>
          <Trackpoint>
            <Time>2018-08-26T06:20:34.000Z</Time>
            <Position>
              <LatitudeDegrees>42.83824439160525798797607421875</LatitudeDegrees>
              <LongitudeDegrees>-1.74346913583576679229736328125</LongitudeDegrees>
            </Position>
            <AltitudeMeters>430.20001220703125</AltitudeMeters>
            <DistanceMeters>15828.545795477</DistanceMeters>
          </Trackpoint>
          <Trackpoint>
            <Time>2018-08-26T06:20:35.000Z</Time>
            <Position>
              <LatitudeDegrees>42.838301472365856170654296875</LatitudeDegrees>
              <LongitudeDegrees>-1.74347215332090854644775390625</LongitudeDegrees>
            </Position>
            <AltitudeMeters>430.20001220703125</AltitudeMeters>
            <DistanceMeters>15834.902649422</DistanceMeters>
          </Trackpoint>
          <Trackpoint>
            <Time>2018-08-26T06:20:36.000Z</Time>
            <Position>
              <LatitudeDegrees>42.83835888840258121490478515625</LatitudeDegrees>
              <LongitudeDegrees>-1.7434752546250820159912109375</LongitudeDegrees>
            </Position>
            <AltitudeMeters>430.399993896484375</AltitudeMeters>
            <DistanceMeters>15841.298448535</DistanceMeters>
          </Trackpoint>
          <Trackpoint>
            <Time>2018-08-26T06:20:37.000Z</Time>
            <Position>
              <LatitudeDegrees>42.8384163044393062591552734375</LatitudeDegrees>
              <LongitudeDegrees>-1.74347818829119205474853515625</LongitudeDegrees>
            </Position>
            <AltitudeMeters>430.399993896484375</AltitudeMeters>
            <DistanceMeters>15847.692835616</DistanceMeters>
          </Trackpoint>
          <Trackpoint>
            <Time>2018-08-26T06:20:38.000Z</Time>
            <Position>
              <LatitudeDegrees>42.83847372047603130340576171875</LatitudeDegrees>
              <LongitudeDegrees>-1.74348078668117523193359375</LongitudeDegrees>
            </Position>
            <AltitudeMeters>430.600006103515625</AltitudeMeters>
            <DistanceMeters>15854.087222697</DistanceMeters>
          </Trackpoint>
          <Trackpoint>
            <Time>2018-08-26T06:20:39.000Z</Time>
            <Position>
              <LatitudeDegrees>42.8385313041508197784423828125</LatitudeDegrees>
              <LongitudeDegrees>-1.74348346889019012451171875</LongitudeDegrees>
            </Position>
            <AltitudeMeters>430.600006103515625</AltitudeMeters>
            <DistanceMeters>15860.499941943</DistanceMeters>
          </Trackpoint>
          <Trackpoint>
            <Time>2018-08-26T06:20:40.000Z</Time>
            <Position>
              <LatitudeDegrees>42.83858955837786197662353515625</LatitudeDegrees>
              <LongitudeDegrees>-1.7434863187372684478759765625</LongitudeDegrees>
            </Position>
            <AltitudeMeters>430.79998779296875</AltitudeMeters>
            <DistanceMeters>15866.986863881</DistanceMeters>
          </Trackpoint>
          <Trackpoint>
            <Time>2018-08-26T06:20:41.000Z</Time>
            <Position>
              <LatitudeDegrees>42.838647477328777313232421875</LatitudeDegrees>
              <LongitudeDegrees>-1.74348891712725162506103515625</LongitudeDegrees>
            </Position>
            <AltitudeMeters>430.79998779296875</AltitudeMeters>
            <DistanceMeters>15873.437491156</DistanceMeters>
          </Trackpoint>
          <Trackpoint>
            <Time>2018-08-26T06:20:42.000Z</Time>
            <Position>
              <LatitudeDegrees>42.8387053124606609344482421875</LatitudeDegrees>
              <LongitudeDegrees>-1.74349159933626651763916015625</LongitudeDegrees>
            </Position>
            <AltitudeMeters>431</AltitudeMeters>
            <DistanceMeters>15879.878311848</DistanceMeters>
          </Trackpoint>
          <Trackpoint>
            <Time>2018-08-26T06:20:43.000Z</Time>
            <Position>
              <LatitudeDegrees>42.8387633152306079864501953125</LatitudeDegrees>
              <LongitudeDegrees>-1.7434936948120594024658203125</LongitudeDegrees>
            </Position>
            <AltitudeMeters>431</AltitudeMeters>
            <DistanceMeters>15886.33593471</DistanceMeters>
          </Trackpoint>
          <Trackpoint>
            <Time>2018-08-26T06:20:44.000Z</Time>
            <Position>
              <LatitudeDegrees>42.8388216532766819000244140625</LatitudeDegrees>
              <LongitudeDegrees>-1.7434962093830108642578125</LongitudeDegrees>
            </Position>
            <AltitudeMeters>431.20001220703125</AltitudeMeters>
            <DistanceMeters>15892.832593643</DistanceMeters>
          </Trackpoint>
          <Trackpoint>
            <Time>2018-08-26T06:20:45.000Z</Time>
            <Position>
              <LatitudeDegrees>42.83888024277985095977783203125</LatitudeDegrees>
              <LongitudeDegrees>-1.74349880777299404144287109375</LongitudeDegrees>
            </Position>
            <AltitudeMeters>431.399993896484375</AltitudeMeters>
            <DistanceMeters>15899.356992493</DistanceMeters>
          </Trackpoint>
          <Trackpoint>
            <Time>2018-08-26T06:20:46.000Z</Time>
            <Position>
              <LatitudeDegrees>42.838939167559146881103515625</LatitudeDegrees>
              <LongitudeDegrees>-1.74350199289619922637939453125</LongitudeDegrees>
            </Position>
            <AltitudeMeters>431.399993896484375</AltitudeMeters>
            <DistanceMeters>15905.921406008</DistanceMeters>
          </Trackpoint>
          <Trackpoint>
            <Time>2018-08-26T06:20:47.000Z</Time>
            <Position>
              <LatitudeDegrees>42.8389980085194110870361328125</LatitudeDegrees>
              <LongitudeDegrees>-1.74350450746715068817138671875</LongitudeDegrees>
            </Position>
            <AltitudeMeters>431.399993896484375</AltitudeMeters>
            <DistanceMeters>15912.474805398</DistanceMeters>
          </Trackpoint>
          <Trackpoint>
            <Time>2018-08-26T06:20:48.000Z</Time>
            <Position>
              <LatitudeDegrees>42.83905659802258014678955078125</LatitudeDegrees>
              <LongitudeDegrees>-1.7435071058571338653564453125</LongitudeDegrees>
            </Position>
            <AltitudeMeters>431.399993896484375</AltitudeMeters>
            <DistanceMeters>15918.999896235</DistanceMeters>
          </Trackpoint>
          <Trackpoint>
            <Time>2018-08-26T06:20:49.000Z</Time>
            <Position>
              <LatitudeDegrees>42.83911460079252719879150390625</LatitudeDegrees>
              <LongitudeDegrees>-1.74351020716130733489990234375</LongitudeDegrees>
            </Position>
            <AltitudeMeters>431.399993896484375</AltitudeMeters>
            <DistanceMeters>15925.46031521</DistanceMeters>
          </Trackpoint>
          <Trackpoint>
            <Time>2018-08-26T06:20:50.000Z</Time>
            <Position>
              <LatitudeDegrees>42.8391726873815059661865234375</LatitudeDegrees>
              <LongitudeDegrees>-1.7435131408274173736572265625</LongitudeDegrees>
            </Position>
            <AltitudeMeters>431.600006103515625</AltitudeMeters>
            <DistanceMeters>15931.929115272</DistanceMeters>
          </Trackpoint>
          <Trackpoint>
            <Time>2018-08-26T06:20:51.000Z</Time>
            <Position>
              <LatitudeDegrees>42.83923077397048473358154296875</LatitudeDegrees>
              <LongitudeDegrees>-1.74351590685546398162841796875</LongitudeDegrees>
            </Position>
            <AltitudeMeters>431.600006103515625</AltitudeMeters>
            <DistanceMeters>15938.397915333</DistanceMeters>
          </Trackpoint>
          <Trackpoint>
            <Time>2018-08-26T06:20:52.000Z</Time>
            <Position>
              <LatitudeDegrees>42.839288525283336639404296875</LatitudeDegrees>
              <LongitudeDegrees>-1.7435191757977008819580078125</LongitudeDegrees>
            </Position>
            <AltitudeMeters>431.600006103515625</AltitudeMeters>
            <DistanceMeters>15944.831020365</DistanceMeters>
          </Trackpoint>
          <Trackpoint>
            <Time>2018-08-26T06:20:53.000Z</Time>
            <Position>
              <LatitudeDegrees>42.8393466956913471221923828125</LatitudeDegrees>
              <LongitudeDegrees>-1.74352311529219150543212890625</LongitudeDegrees>
            </Position>
            <AltitudeMeters>431.79998779296875</AltitudeMeters>
            <DistanceMeters>15951.312371737</DistanceMeters>
          </Trackpoint>
          <Trackpoint>
            <Time>2018-08-26T06:20:54.000Z</Time>
            <Position>
              <LatitudeDegrees>42.8394043631851673126220703125</LatitudeDegrees>
              <LongitudeDegrees>-1.7435262165963649749755859375</LongitudeDegrees>
            </Position>
            <AltitudeMeters>431.600006103515625</AltitudeMeters>
            <DistanceMeters>15957.735643433</DistanceMeters>
          </Trackpoint>
          <Trackpoint>
            <Time>2018-08-26T06:20:55.000Z</Time>
            <Position>
              <LatitudeDegrees>42.83946211449801921844482421875</LatitudeDegrees>
              <LongitudeDegrees>-1.7435295693576335906982421875</LongitudeDegrees>
            </Position>
            <AltitudeMeters>431.600006103515625</AltitudeMeters>
            <DistanceMeters>15964.168046581</DistanceMeters>
          </Trackpoint>
          <Trackpoint>
            <Time>2018-08-26T06:20:56.000Z</Time>
            <Position>
              <LatitudeDegrees>42.83952020108699798583984375</LatitudeDegrees>
              <LongitudeDegrees>-1.74353334121406078338623046875</LongitudeDegrees>
            </Position>
            <AltitudeMeters>431.79998779296875</AltitudeMeters>
            <DistanceMeters>15970.641033118</DistanceMeters>
          </Trackpoint>
          <Trackpoint>
            <Time>2018-08-26T06:20:57.000Z</Time>
            <Position>
              <LatitudeDegrees>42.83957862295210361480712890625</LatitudeDegrees>
              <LongitudeDegrees>-1.74353753216564655303955078125</LongitudeDegrees>
            </Position>
            <AltitudeMeters>431.79998779296875</AltitudeMeters>
            <DistanceMeters>15977.152963629</DistanceMeters>
          </Trackpoint>
          <Trackpoint>
            <Time>2018-08-26T06:20:58.000Z</Time>
            <Position>
              <LatitudeDegrees>42.8396377153694629669189453125</LatitudeDegrees>
              <LongitudeDegrees>-1.74354155547916889190673828125</LongitudeDegrees>
            </Position>
            <AltitudeMeters>432</AltitudeMeters>
            <DistanceMeters>15983.737978973</DistanceMeters>
          </Trackpoint>
          <Trackpoint>
            <Time>2018-08-26T06:20:59.000Z</Time>
            <Position>
              <LatitudeDegrees>42.83969722688198089599609375</LatitudeDegrees>
              <LongitudeDegrees>-1.74354524351656436920166015625</LongitudeDegrees>
            </Position>
            <AltitudeMeters>432.20001220703125</AltitudeMeters>
            <DistanceMeters>15990.368093009</DistanceMeters>
          </Trackpoint>
          <Trackpoint>
            <Time>2018-08-26T06:21:00.000Z</Time>
            <Position>
              <LatitudeDegrees>42.8397570736706256866455078125</LatitudeDegrees>
              <LongitudeDegrees>-1.74354759044945240020751953125</LongitudeDegrees>
            </Position>
            <AltitudeMeters>432</AltitudeMeters>
            <DistanceMeters>15997.031491982</DistanceMeters>
          </Trackpoint>
          <Trackpoint>
            <Time>2018-08-26T06:21:01.000Z</Time>
            <Position>
              <LatitudeDegrees>42.83981750719249248504638671875</LatitudeDegrees>
              <LongitudeDegrees>-1.74354993738234043121337890625</LongitudeDegrees>
            </Position>
            <AltitudeMeters>432.20001220703125</AltitudeMeters>
            <DistanceMeters>16003.760295984</DistanceMeters>
          </Trackpoint>
          <Trackpoint>
            <Time>2018-08-26T06:21:02.000Z</Time>
            <Position>
              <LatitudeDegrees>42.83987752161920070648193359375</LatitudeDegrees>
              <LongitudeDegrees>-1.74355329014360904693603515625</LongitudeDegrees>
            </Position>
            <AltitudeMeters>432.20001220703125</AltitudeMeters>
            <DistanceMeters>16010.444667176</DistanceMeters>
          </Trackpoint>
          <Trackpoint>
            <Time>2018-08-26T06:21:03.000Z</Time>
            <Position>
              <LatitudeDegrees>42.83993770368397235870361328125</LatitudeDegrees>
              <LongitudeDegrees>-1.74355664290487766265869140625</LongitudeDegrees>
            </Position>
            <AltitudeMeters>432.20001220703125</AltitudeMeters>
            <DistanceMeters>16017.148598147</DistanceMeters>
          </Trackpoint>
          <Trackpoint>
            <Time>2018-08-26T06:21:04.000Z</Time>
            <Position>
              <LatitudeDegrees>42.839997969567775726318359375</LatitudeDegrees>
              <LongitudeDegrees>-1.74355991184711456298828125</LongitudeDegrees>
            </Position>
            <AltitudeMeters>432.399993896484375</AltitudeMeters>
            <DistanceMeters>16023.861278793</DistanceMeters>
          </Trackpoint>
          <Trackpoint>
            <Time>2018-08-26T06:21:05.000Z</Time>
            <Position>
              <LatitudeDegrees>42.84005857072770595550537109375</LatitudeDegrees>
              <LongitudeDegrees>-1.7435620911419391632080078125</LongitudeDegrees>
            </Position>
            <AltitudeMeters>432.399993896484375</AltitudeMeters>
            <DistanceMeters>16030.608844683</DistanceMeters>
          </Trackpoint>
          <Trackpoint>
            <Time>2018-08-26T06:21:06.000Z</Time>
            <Position>
              <LatitudeDegrees>42.84011908806860446929931640625</LatitudeDegrees>
              <LongitudeDegrees>-1.74356519244611263275146484375</LongitudeDegrees>
            </Position>
            <AltitudeMeters>432.20001220703125</AltitudeMeters>
            <DistanceMeters>16037.349715892</DistanceMeters>
          </Trackpoint>
          <Trackpoint>
            <Time>2018-08-26T06:21:07.000Z</Time>
            <Position>
              <LatitudeDegrees>42.8401795215904712677001953125</LatitudeDegrees>
              <LongitudeDegrees>-1.74356820993125438690185546875</LongitudeDegrees>
            </Position>
            <AltitudeMeters>432.399993896484375</AltitudeMeters>
            <DistanceMeters>16044.079190862</DistanceMeters>
          </Trackpoint>
          <Trackpoint>
            <Time>2018-08-26T06:21:08.000Z</Time>
            <Position>
              <LatitudeDegrees>42.840239703655242919921875</LatitudeDegrees>
              <LongitudeDegrees>-1.7435714788734912872314453125</LongitudeDegrees>
            </Position>
            <AltitudeMeters>432.600006103515625</AltitudeMeters>
            <DistanceMeters>16050.782448308</DistanceMeters>
          </Trackpoint>
          <Trackpoint>
            <Time>2018-08-26T06:21:09.000Z</Time>
            <Position>
              <LatitudeDegrees>42.8402988798916339874267578125</LatitudeDegrees>
              <LongitudeDegrees>-1.7435744963586330413818359375</LongitudeDegrees>
            </Position>
            <AltitudeMeters>432.79998779296875</AltitudeMeters>
            <DistanceMeters>16057.372946597</DistanceMeters>
          </Trackpoint>
          <Trackpoint>
            <Time>2018-08-26T06:21:10.000Z</Time>
            <Position>
              <LatitudeDegrees>42.84035839140415191650390625</LatitudeDegrees>
              <LongitudeDegrees>-1.74357642419636249542236328125</LongitudeDegrees>
            </Position>
            <AltitudeMeters>432.79998779296875</AltitudeMeters>
            <DistanceMeters>16063.998973436</DistanceMeters>
          </Trackpoint>
          <Trackpoint>
            <Time>2018-08-26T06:21:11.000Z</Time>
            <Position>
              <LatitudeDegrees>42.84041815437376499176025390625</LatitudeDegrees>
              <LongitudeDegrees>-1.74357877112925052642822265625</LongitudeDegrees>
            </Position>
            <AltitudeMeters>433</AltitudeMeters>
            <DistanceMeters>16070.653557937</DistanceMeters>
          </Trackpoint>
          <Trackpoint>
            <Time>2018-08-26T06:21:12.000Z</Time>
            <Position>
              <LatitudeDegrees>42.84047850407660007476806640625</LatitudeDegrees>
              <LongitudeDegrees>-1.74358195625245571136474609375</LongitudeDegrees>
            </Position>
            <AltitudeMeters>433</AltitudeMeters>
            <DistanceMeters>16077.375648573</DistanceMeters>
          </Trackpoint>
          <Trackpoint>
            <Time>2018-08-26T06:21:13.000Z</Time>
            <Position>
              <LatitudeDegrees>42.84053902141749858856201171875</LatitudeDegrees>
              <LongitudeDegrees>-1.7435848899185657501220703125</LongitudeDegrees>
            </Position>
            <AltitudeMeters>433</AltitudeMeters>
            <DistanceMeters>16084.115180049</DistanceMeters>
          </Trackpoint>
          <Trackpoint>
            <Time>2018-08-26T06:21:14.000Z</Time>
            <Position>
              <LatitudeDegrees>42.84059953875839710235595703125</LatitudeDegrees>
              <LongitudeDegrees>-1.74358782358467578887939453125</LongitudeDegrees>
            </Position>
            <AltitudeMeters>433</AltitudeMeters>
            <DistanceMeters>16090.854041558</DistanceMeters>
          </Trackpoint>
          <Trackpoint>
            <Time>2018-08-26T06:21:15.000Z</Time>
            <Position>
              <LatitudeDegrees>42.840659804642200469970703125</LatitudeDegrees>
              <LongitudeDegrees>-1.743590421974658966064453125</LongitudeDegrees>
            </Position>
            <AltitudeMeters>433.20001220703125</AltitudeMeters>
            <DistanceMeters>16097.565376842</DistanceMeters>
          </Trackpoint>
          <Trackpoint>
            <Time>2018-08-26T06:21:16.000Z</Time>
            <Position>
              <LatitudeDegrees>42.84072023816406726837158203125</LatitudeDegrees>
              <LongitudeDegrees>-1.7435932718217372894287109375</LongitudeDegrees>
            </Position>
            <AltitudeMeters>433.20001220703125</AltitudeMeters>
            <DistanceMeters>16104.295522713</DistanceMeters>
          </Trackpoint>
          <Trackpoint>
            <Time>2018-08-26T06:21:17.000Z</Time>
            <Position>
              <LatitudeDegrees>42.84078042022883892059326171875</LatitudeDegrees>
              <LongitudeDegrees>-1.74359612166881561279296875</LongitudeDegrees>
            </Position>
            <AltitudeMeters>433.20001220703125</AltitudeMeters>
            <DistanceMeters>16110.998780159</DistanceMeters>
          </Trackpoint>
          <Trackpoint>
            <Time>2018-08-26T06:21:18.000Z</Time>
            <Position>
              <LatitudeDegrees>42.8408406861126422882080078125</LatitudeDegrees>
              <LongitudeDegrees>-1.7435986362397670745849609375</LongitudeDegrees>
            </Position>
            <AltitudeMeters>433.399993896484375</AltitudeMeters>
            <DistanceMeters>16117.710115444</DistanceMeters>
          </Trackpoint>
          <Trackpoint>
            <Time>2018-08-26T06:21:19.000Z</Time>
            <Position>
              <LatitudeDegrees>42.84090078435838222503662109375</LatitudeDegrees>
              <LongitudeDegrees>-1.74360006116330623626708984375</LongitudeDegrees>
            </Position>
            <AltitudeMeters>433.399993896484375</AltitudeMeters>
            <DistanceMeters>16124.401237847</DistanceMeters>
          </Trackpoint>
          <Trackpoint>
            <Time>2018-08-26T06:21:20.000Z</Time>
            <Position>
              <LatitudeDegrees>42.84096046350896358489990234375</LatitudeDegrees>
              <LongitudeDegrees>-1.7436033301055431365966796875</LongitudeDegrees>
            </Position>
            <AltitudeMeters>433.600006103515625</AltitudeMeters>
            <DistanceMeters>16131.049034031</DistanceMeters>
          </Trackpoint>
          <Trackpoint>
            <Time>2018-08-26T06:21:21.000Z</Time>
            <Position>
              <LatitudeDegrees>42.84101955592632293701171875</LatitudeDegrees>
              <LongitudeDegrees>-1.74360810779035091400146484375</LongitudeDegrees>
            </Position>
            <AltitudeMeters>433.600006103515625</AltitudeMeters>
            <DistanceMeters>16137.638162012</DistanceMeters>
          </Trackpoint>
          <Trackpoint>
            <Time>2018-08-26T06:21:22.000Z</Time>
            <Position>
              <LatitudeDegrees>42.841078899800777435302734375</LatitudeDegrees>
              <LongitudeDegrees>-1.74361565150320529937744140625</LongitudeDegrees>
            </Position>
            <AltitudeMeters>433.600006103515625</AltitudeMeters>
            <DistanceMeters>16144.272360727</DistanceMeters>
          </Trackpoint>
          <Trackpoint>
            <Time>2018-08-26T06:21:23.000Z</Time>
            <Position>
              <LatitudeDegrees>42.84113782458007335662841796875</LatitudeDegrees>
              <LongitudeDegrees>-1.7436314933001995086669921875</LongitudeDegrees>
            </Position>
            <AltitudeMeters>433.79998779296875</AltitudeMeters>
            <DistanceMeters>16150.95673192</DistanceMeters>
          </Trackpoint>
          <Trackpoint>
            <Time>2018-08-26T06:21:24.000Z</Time>
            <Position>
              <LatitudeDegrees>42.84119465388357639312744140625</LatitudeDegrees>
              <LongitudeDegrees>-1.743654794991016387939453125</LongitudeDegrees>
            </Position>
            <AltitudeMeters>433.79998779296875</AltitudeMeters>
            <DistanceMeters>16157.56228484</DistanceMeters>
          </Trackpoint>
          <Trackpoint>
            <Time>2018-08-26T06:21:25.000Z</Time>
            <Position>
              <LatitudeDegrees>42.841249890625476837158203125</LatitudeDegrees>
              <LongitudeDegrees>-1.743685305118560791015625</LongitudeDegrees>
            </Position>
            <AltitudeMeters>433.79998779296875</AltitudeMeters>
            <DistanceMeters>16164.195802949</DistanceMeters>
          </Trackpoint>
          <Trackpoint>
            <Time>2018-08-26T06:21:26.000Z</Time>
            <Position>
              <LatitudeDegrees>42.84130252897739410400390625</LatitudeDegrees>
              <LongitudeDegrees>-1.74372361041605472564697265625</LongitudeDegrees>
            </Position>
            <AltitudeMeters>434</AltitudeMeters>
            <DistanceMeters>16170.836123971</DistanceMeters>
          </Trackpoint>
          <Trackpoint>
            <Time>2018-08-26T06:21:27.000Z</Time>
            <Position>
              <LatitudeDegrees>42.84135005436837673187255859375</LatitudeDegrees>
              <LongitudeDegrees>-1.743770800530910491943359375</LongitudeDegrees>
            </Position>
            <AltitudeMeters>434</AltitudeMeters>
            <DistanceMeters>16177.379180781</DistanceMeters>
          </Trackpoint>
          <Trackpoint>
            <Time>2018-08-26T06:21:28.000Z</Time>
            <Position>
              <LatitudeDegrees>42.841393388807773590087890625</LatitudeDegrees>
              <LongitudeDegrees>-1.7438252829015254974365234375</LongitudeDegrees>
            </Position>
            <AltitudeMeters>434</AltitudeMeters>
            <DistanceMeters>16183.939466166</DistanceMeters>
          </Trackpoint>
          <Trackpoint>
            <Time>2018-08-26T06:21:29.000Z</Time>
            <Position>
              <LatitudeDegrees>42.84143261611461639404296875</LatitudeDegrees>
              <LongitudeDegrees>-1.7438849620521068572998046875</LongitudeDegrees>
            </Position>
            <AltitudeMeters>434.20001220703125</AltitudeMeters>
            <DistanceMeters>16190.480452498</DistanceMeters>
          </Trackpoint>
          <Trackpoint>
            <Time>2018-08-26T06:21:30.000Z</Time>
            <Position>
              <LatitudeDegrees>42.84146924503147602081298828125</LatitudeDegrees>
              <LongitudeDegrees>-1.7439483292400836944580078125</LongitudeDegrees>
            </Position>
            <AltitudeMeters>434.20001220703125</AltitudeMeters>
            <DistanceMeters>16197.065467842</DistanceMeters>
          </Trackpoint>
          <Trackpoint>
            <Time>2018-08-26T06:21:31.000Z</Time>
            <Position>
              <LatitudeDegrees>42.841504700481891632080078125</LatitudeDegrees>
              <LongitudeDegrees>-1.74401345662772655487060546875</LongitudeDegrees>
            </Position>
            <AltitudeMeters>434.20001220703125</AltitudeMeters>
            <DistanceMeters>16203.684677078</DistanceMeters>
          </Trackpoint>
          <Trackpoint>
            <Time>2018-08-26T06:21:32.000Z</Time>
            <Position>
              <LatitudeDegrees>42.84154015593230724334716796875</LatitudeDegrees>
              <LongitudeDegrees>-1.74407891929149627685546875</LongitudeDegrees>
            </Position>
            <AltitudeMeters>434.20001220703125</AltitudeMeters>
            <DistanceMeters>16210.325678008</DistanceMeters>
          </Trackpoint>
          <Trackpoint>
            <Time>2018-08-26T06:21:33.000Z</Time>
            <Position>
              <LatitudeDegrees>42.8415759466588497161865234375</LatitudeDegrees>
              <LongitudeDegrees>-1.7441437952220439910888671875</LongitudeDegrees>
            </Position>
            <AltitudeMeters>434.20001220703125</AltitudeMeters>
            <DistanceMeters>16216.951704847</DistanceMeters>
          </Trackpoint>
          <Trackpoint>
            <Time>2018-08-26T06:21:34.000Z</Time>
            <Position>
              <LatitudeDegrees>42.8416118212044239044189453125</LatitudeDegrees>
              <LongitudeDegrees>-1.74420825205743312835693359375</LongitudeDegrees>
            </Position>
            <AltitudeMeters>434.399993896484375</AltitudeMeters>
            <DistanceMeters>16223.555890582</DistanceMeters>
          </Trackpoint>
          <Trackpoint>
            <Time>2018-08-26T06:21:35.000Z</Time>
            <Position>
              <LatitudeDegrees>42.8416473604738712310791015625</LatitudeDegrees>
              <LongitudeDegrees>-1.74427296034991741180419921875</LongitudeDegrees>
            </Position>
            <AltitudeMeters>434.20001220703125</AltitudeMeters>
            <DistanceMeters>16230.153236144</DistanceMeters>
          </Trackpoint>
          <Trackpoint>
            <Time>2018-08-26T06:21:36.000Z</Time>
            <Position>
              <LatitudeDegrees>42.84168231301009654998779296875</LatitudeDegrees>
              <LongitudeDegrees>-1.74433775246143341064453125</LongitudeDegrees>
            </Position>
            <AltitudeMeters>434.20001220703125</AltitudeMeters>
            <DistanceMeters>16236.717649658</DistanceMeters>
          </Trackpoint>
          <Trackpoint>
            <Time>2018-08-26T06:21:37.000Z</Time>
            <Position>
              <LatitudeDegrees>42.84171667881309986114501953125</LatitudeDegrees>
              <LongitudeDegrees>-1.7444019578397274017333984375</LongitudeDegrees>
            </Position>
            <AltitudeMeters>434.20001220703125</AltitudeMeters>
            <DistanceMeters>16243.205267581</DistanceMeters>
          </Trackpoint>
          <Trackpoint>
            <Time>2018-08-26T06:21:38.000Z</Time>
            <Position>
              <LatitudeDegrees>42.8417512960731983184814453125</LatitudeDegrees>
              <LongitudeDegrees>-1.74446607939898967742919921875</LongitudeDegrees>
            </Position>
            <AltitudeMeters>434.20001220703125</AltitudeMeters>
            <DistanceMeters>16249.704011115</DistanceMeters>
          </Trackpoint>
          <Trackpoint>
            <Time>2018-08-26T06:21:39.000Z</Time>
            <Position>
              <LatitudeDegrees>42.8417859971523284912109375</LatitudeDegrees>
              <LongitudeDegrees>-1.744530536234378814697265625</LongitudeDegrees>
            </Position>
            <AltitudeMeters>434.399993896484375</AltitudeMeters>
            <DistanceMeters>16256.229793866</DistanceMeters>
          </Trackpoint>
          <Trackpoint>
            <Time>2018-08-26T06:21:40.000Z</Time>
            <Position>
              <LatitudeDegrees>42.84182044677436351776123046875</LatitudeDegrees>
              <LongitudeDegrees>-1.74459482543170452117919921875</LongitudeDegrees>
            </Position>
            <AltitudeMeters>434.399993896484375</AltitudeMeters>
            <DistanceMeters>16262.727842608</DistanceMeters>
          </Trackpoint>
          <Trackpoint>
            <Time>2018-08-26T06:21:41.000Z</Time>
            <Position>
              <LatitudeDegrees>42.84185548312962055206298828125</LatitudeDegrees>
              <LongitudeDegrees>-1.74465919844806194305419921875</LongitudeDegrees>
            </Position>
            <AltitudeMeters>434.600006103515625</AltitudeMeters>
            <DistanceMeters>16269.271589432</DistanceMeters>
          </Trackpoint>
          <Trackpoint>
            <Time>2018-08-26T06:21:42.000Z</Time>
            <Position>
              <LatitudeDegrees>42.84189102239906787872314453125</LatitudeDegrees>
              <LongitudeDegrees>-1.74472323618829250335693359375</LongitudeDegrees>
            </Position>
            <AltitudeMeters>434.79998779296875</AltitudeMeters>
            <DistanceMeters>16275.8263666</DistanceMeters>
          </Trackpoint>
          <Trackpoint>
            <Time>2018-08-26T06:21:43.000Z</Time>
            <Position>
              <LatitudeDegrees>42.8419268131256103515625</LatitudeDegrees>
              <LongitudeDegrees>-1.744788028299808502197265625</LongitudeDegrees>
            </Position>
            <AltitudeMeters>434.600006103515625</AltitudeMeters>
            <DistanceMeters>16282.446257912</DistanceMeters>
          </Trackpoint>
          <Trackpoint>
            <Time>2018-08-26T06:21:44.000Z</Time>
            <Position>
              <LatitudeDegrees>42.84196293912827968597412109375</LatitudeDegrees>
              <LongitudeDegrees>-1.74485298804938793182373046875</LongitudeDegrees>
            </Position>
            <AltitudeMeters>435</AltitudeMeters>
            <DistanceMeters>16289.099485304</DistanceMeters>
          </Trackpoint>
          <Trackpoint>
            <Time>2018-08-26T06:21:45.000Z</Time>
            <Position>
              <LatitudeDegrees>42.841998897492885589599609375</LatitudeDegrees>
              <LongitudeDegrees>-1.744917444884777069091796875</LongitudeDegrees>
            </Position>
            <AltitudeMeters>435</AltitudeMeters>
            <DistanceMeters>16295.708454948</DistanceMeters>
          </Trackpoint>
          <Trackpoint>
            <Time>2018-08-26T06:21:46.000Z</Time>
            <Position>
              <LatitudeDegrees>42.842034436762332916259765625</LatitudeDegrees>
              <LongitudeDegrees>-1.7449813149869441986083984375</LongitudeDegrees>
            </Position>
            <AltitudeMeters>435</AltitudeMeters>
            <DistanceMeters>16302.252201772</DistanceMeters>
          </Trackpoint>
          <Trackpoint>
            <Time>2018-08-26T06:21:47.000Z</Time>
            <Position>
              <LatitudeDegrees>42.8420688025653362274169921875</LatitudeDegrees>
              <LongitudeDegrees>-1.74504543654620647430419921875</LongitudeDegrees>
            </Position>
            <AltitudeMeters>435</AltitudeMeters>
            <DistanceMeters>16308.734946235</DistanceMeters>
          </Trackpoint>
          <Trackpoint>
            <Time>2018-08-26T06:21:48.000Z</Time>
            <Position>
              <LatitudeDegrees>42.84210308454930782318115234375</LatitudeDegrees>
              <LongitudeDegrees>-1.74510997720062732696533203125</LongitudeDegrees>
            </Position>
            <AltitudeMeters>435.20001220703125</AltitudeMeters>
            <DistanceMeters>16315.239939564</DistanceMeters>
          </Trackpoint>
          <Trackpoint>
            <Time>2018-08-26T06:21:49.000Z</Time>
            <Position>
              <LatitudeDegrees>42.84213812090456485748291015625</LatitudeDegrees>
              <LongitudeDegrees>-1.74517367966473102569580078125</LongitudeDegrees>
            </Position>
            <AltitudeMeters>435.20001220703125</AltitudeMeters>
            <DistanceMeters>16321.739377817</DistanceMeters>
          </Trackpoint>
          <Trackpoint>
            <Time>2018-08-26T06:21:50.000Z</Time>
            <Position>
              <LatitudeDegrees>42.84217366017401218414306640625</LatitudeDegrees>
              <LongitudeDegrees>-1.74523805268108844757080078125</LongitudeDegrees>
            </Position>
            <AltitudeMeters>435.399993896484375</AltitudeMeters>
            <DistanceMeters>16328.316160174</DistanceMeters>
          </Trackpoint>
          <Trackpoint>
            <Time>2018-08-26T06:21:51.000Z</Time>
            <Position>
              <LatitudeDegrees>42.842209450900554656982421875</LatitudeDegrees>
              <LongitudeDegrees>-1.74530259333550930023193359375</LongitudeDegrees>
            </Position>
            <AltitudeMeters>435.399993896484375</AltitudeMeters>
            <DistanceMeters>16334.920345909</DistanceMeters>
          </Trackpoint>
          <Trackpoint>
            <Time>2018-08-26T06:21:52.000Z</Time>
            <Position>
              <LatitudeDegrees>42.84224557690322399139404296875</LatitudeDegrees>
              <LongitudeDegrees>-1.74536730162799358367919921875</LongitudeDegrees>
            </Position>
            <AltitudeMeters>435.399993896484375</AltitudeMeters>
            <DistanceMeters>16341.557266347</DistanceMeters>
          </Trackpoint>
          <Trackpoint>
            <Time>2018-08-26T06:21:53.000Z</Time>
            <Position>
              <LatitudeDegrees>42.84228153526782989501953125</LatitudeDegrees>
              <LongitudeDegrees>-1.74543251283466815948486328125</LongitudeDegrees>
            </Position>
            <AltitudeMeters>435.399993896484375</AltitudeMeters>
            <DistanceMeters>16348.215920515</DistanceMeters>
          </Trackpoint>
          <Trackpoint>
            <Time>2018-08-26T06:21:54.000Z</Time>
            <Position>
              <LatitudeDegrees>42.842318080365657806396484375</LatitudeDegrees>
              <LongitudeDegrees>-1.745498813688755035400390625</LongitudeDegrees>
            </Position>
            <AltitudeMeters>435.600006103515625</AltitudeMeters>
            <DistanceMeters>16354.984864885</DistanceMeters>
          </Trackpoint>
          <Trackpoint>
            <Time>2018-08-26T06:21:55.000Z</Time>
            <Position>
              <LatitudeDegrees>42.84235487692058086395263671875</LatitudeDegrees>
              <LongitudeDegrees>-1.7455653659999370574951171875</LongitudeDegrees>
            </Position>
            <AltitudeMeters>435.600006103515625</AltitudeMeters>
            <DistanceMeters>16361.78707862</DistanceMeters>
          </Trackpoint>
          <Trackpoint>
            <Time>2018-08-26T06:21:56.000Z</Time>
            <Position>
              <LatitudeDegrees>42.8423916734755039215087890625</LatitudeDegrees>
              <LongitudeDegrees>-1.74563191831111907958984375</LongitudeDegrees>
            </Position>
            <AltitudeMeters>435.600006103515625</AltitudeMeters>
            <DistanceMeters>16368.589292355</DistanceMeters>
          </Trackpoint>
          <Trackpoint>
            <Time>2018-08-26T06:21:57.000Z</Time>
            <Position>
              <LatitudeDegrees>42.8424282185733318328857421875</LatitudeDegrees>
              <LongitudeDegrees>-1.74569805152714252471923828125</LongitudeDegrees>
            </Position>
            <AltitudeMeters>435.600006103515625</AltitudeMeters>
            <DistanceMeters>16375.348223981</DistanceMeters>
          </Trackpoint>
          <Trackpoint>
            <Time>2018-08-26T06:21:58.000Z</Time>
            <Position>
              <LatitudeDegrees>42.8424650989472866058349609375</LatitudeDegrees>
              <LongitudeDegrees>-1.7457645200192928314208984375</LongitudeDegrees>
            </Position>
            <AltitudeMeters>435.600006103515625</AltitudeMeters>
            <DistanceMeters>16382.151765107</DistanceMeters>
          </Trackpoint>
          <Trackpoint>
            <Time>2018-08-26T06:21:59.000Z</Time>
            <Position>
              <LatitudeDegrees>42.8425023145973682403564453125</LatitudeDegrees>
              <LongitudeDegrees>-1.74583165906369686126708984375</LongitudeDegrees>
            </Position>
            <AltitudeMeters>435.600006103515625</AltitudeMeters>
            <DistanceMeters>16389.021348755</DistanceMeters>
          </Trackpoint>
          <Trackpoint>
            <Time>2018-08-26T06:22:00.000Z</Time>
            <Position>
              <LatitudeDegrees>42.84253994934260845184326171875</LatitudeDegrees>
              <LongitudeDegrees>-1.74589804373681545257568359375</LongitudeDegrees>
            </Position>
            <AltitudeMeters>435.600006103515625</AltitudeMeters>
            <DistanceMeters>16395.869208784</DistanceMeters>
          </Trackpoint>
          <Trackpoint>
            <Time>2018-08-26T06:22:01.000Z</Time>
            <Position>
              <LatitudeDegrees>42.8425774164497852325439453125</LatitudeDegrees>
              <LongitudeDegrees>-1.7459636740386486053466796875</LongitudeDegrees>
            </Position>
            <AltitudeMeters>435.600006103515625</AltitudeMeters>
            <DistanceMeters>16402.656804089</DistanceMeters>
          </Trackpoint>
          <Trackpoint>
            <Time>2018-08-26T06:22:02.000Z</Time>
            <Position>
              <LatitudeDegrees>42.8426142968237400054931640625</LatitudeDegrees>
              <LongitudeDegrees>-1.7460297234356403350830078125</LongitudeDegrees>
            </Position>
            <AltitudeMeters>435.600006103515625</AltitudeMeters>
            <DistanceMeters>16409.4324154</DistanceMeters>
          </Trackpoint>
          <Trackpoint>
            <Time>2018-08-26T06:22:03.000Z</Time>
            <Position>
              <LatitudeDegrees>42.84265126101672649383544921875</LatitudeDegrees>
              <LongitudeDegrees>-1.74609594047069549560546875</LongitudeDegrees>
            </Position>
            <AltitudeMeters>435.600006103515625</AltitudeMeters>
            <DistanceMeters>16416.224665436</DistanceMeters>
          </Trackpoint>
          <Trackpoint>
            <Time>2018-08-26T06:22:04.000Z</Time>
            <Position>
              <LatitudeDegrees>42.84268830902874469757080078125</LatitudeDegrees>
              <LongitudeDegrees>-1.7461618222296237945556640625</LongitudeDegrees>
            </Position>
            <AltitudeMeters>435.600006103515625</AltitudeMeters>
            <DistanceMeters>16423.000276747</DistanceMeters>
          </Trackpoint>
          <Trackpoint>
            <Time>2018-08-26T06:22:05.000Z</Time>
            <Position>
              <LatitudeDegrees>42.8427249379456043243408203125</LatitudeDegrees>
              <LongitudeDegrees>-1.74622829072177410125732421875</LongitudeDegrees>
            </Position>
            <AltitudeMeters>435.600006103515625</AltitudeMeters>
            <DistanceMeters>16429.785210771</DistanceMeters>
          </Trackpoint>
          <Trackpoint>
            <Time>2018-08-26T06:22:06.000Z</Time>
            <Position>
              <LatitudeDegrees>42.84276190213859081268310546875</LatitudeDegrees>
              <LongitudeDegrees>-1.746294759213924407958984375</LongitudeDegrees>
            </Position>
            <AltitudeMeters>435.600006103515625</AltitudeMeters>
            <DistanceMeters>16436.592732516</DistanceMeters>
          </Trackpoint>
          <Trackpoint>
            <Time>2018-08-26T06:22:07.000Z</Time>
            <Position>
              <LatitudeDegrees>42.84279920160770416259765625</LatitudeDegrees>
              <LongitudeDegrees>-1.746361814439296722412109375</LongitudeDegrees>
            </Position>
            <AltitudeMeters>435.600006103515625</AltitudeMeters>
            <DistanceMeters>16443.462316164</DistanceMeters>
          </Trackpoint>
          <Trackpoint>
            <Time>2018-08-26T06:22:08.000Z</Time>
            <Position>
              <LatitudeDegrees>42.8428365848958492279052734375</LatitudeDegrees>
              <LongitudeDegrees>-1.74642853438854217529296875</LongitudeDegrees>
            </Position>
            <AltitudeMeters>435.600006103515625</AltitudeMeters>
            <DistanceMeters>16450.314789988</DistanceMeters>
          </Trackpoint>
          <Trackpoint>
            <Time>2018-08-26T06:22:09.000Z</Time>
            <Position>
              <LatitudeDegrees>42.842873632907867431640625</LatitudeDegrees>
              <LongitudeDegrees>-1.7464954219758510589599609375</LongitudeDegrees>
            </Position>
            <AltitudeMeters>435.600006103515625</AltitudeMeters>
            <DistanceMeters>16457.156053483</DistanceMeters>
          </Trackpoint>
          <Trackpoint>
            <Time>2018-08-26T06:22:10.000Z</Time>
            <Position>
              <LatitudeDegrees>42.842910178005695343017578125</LatitudeDegrees>
              <LongitudeDegrees>-1.74656155519187450408935546875</LongitudeDegrees>
            </Position>
            <AltitudeMeters>435.600006103515625</AltitudeMeters>
            <DistanceMeters>16463.914317066</DistanceMeters>
          </Trackpoint>
          <Trackpoint>
            <Time>2018-08-26T06:22:11.000Z</Time>
            <Position>
              <LatitudeDegrees>42.8429472260177135467529296875</LatitudeDegrees>
              <LongitudeDegrees>-1.74662701785564422607421875</LongitudeDegrees>
            </Position>
            <AltitudeMeters>435.600006103515625</AltitudeMeters>
            <DistanceMeters>16470.663221094</DistanceMeters>
          </Trackpoint>
          <Trackpoint>
            <Time>2018-08-26T06:22:12.000Z</Time>
            <Position>
              <LatitudeDegrees>42.8429844416677951812744140625</LatitudeDegrees>
              <LongitudeDegrees>-1.74669231288135051727294921875</LongitudeDegrees>
            </Position>
            <AltitudeMeters>435.600006103515625</AltitudeMeters>
            <DistanceMeters>16477.412125123</DistanceMeters>
          </Trackpoint>
          <Trackpoint>
            <Time>2018-08-26T06:22:13.000Z</Time>
            <Position>
              <LatitudeDegrees>42.84302123822271823883056640625</LatitudeDegrees>
              <LongitudeDegrees>-1.74675802700221538543701171875</LongitudeDegrees>
            </Position>
            <AltitudeMeters>435.79998779296875</AltitudeMeters>
            <DistanceMeters>16484.159691012</DistanceMeters>
          </Trackpoint>
          <Trackpoint>
            <Time>2018-08-26T06:22:14.000Z</Time>
            <Position>
              <LatitudeDegrees>42.84305811859667301177978515625</LatitudeDegrees>
              <LongitudeDegrees>-1.74682340584695339202880859375</LongitudeDegrees>
            </Position>
            <AltitudeMeters>435.79998779296875</AltitudeMeters>
            <DistanceMeters>16490.891849185</DistanceMeters>
          </Trackpoint>
          <Trackpoint>
            <Time>2018-08-26T06:22:15.000Z</Time>
            <Position>
              <LatitudeDegrees>42.84309533424675464630126953125</LatitudeDegrees>
              <LongitudeDegrees>-1.74688861705362796783447265625</LongitudeDegrees>
            </Position>
            <AltitudeMeters>435.79998779296875</AltitudeMeters>
            <DistanceMeters>16497.635399064</DistanceMeters>
          </Trackpoint>
          <Trackpoint>
            <Time>2018-08-26T06:22:16.000Z</Time>
            <Position>
              <LatitudeDegrees>42.8431326337158679962158203125</LatitudeDegrees>
              <LongitudeDegrees>-1.7469544149935245513916015625</LongitudeDegrees>
            </Position>
            <AltitudeMeters>436</AltitudeMeters>
            <DistanceMeters>16504.422329147</DistanceMeters>
          </Trackpoint>
          <Trackpoint>
            <Time>2018-08-26T06:22:17.000Z</Time>
            <Position>
              <LatitudeDegrees>42.84316959790885448455810546875</LatitudeDegrees>
              <LongitudeDegrees>-1.74702121876180171966552734375</LongitudeDegrees>
            </Position>
            <AltitudeMeters>436</AltitudeMeters>
            <DistanceMeters>16511.251041672</DistanceMeters>
          </Trackpoint>
          <Trackpoint>
            <Time>2018-08-26T06:22:18.000Z</Time>
            <Position>
              <LatitudeDegrees>42.843206226825714111328125</LatitudeDegrees>
              <LongitudeDegrees>-1.74708844162523746490478515625</LongitudeDegrees>
            </Position>
            <AltitudeMeters>436</AltitudeMeters>
            <DistanceMeters>16518.085702267</DistanceMeters>
          </Trackpoint>
          <Trackpoint>
            <Time>2018-08-26T06:22:19.000Z</Time>
            <Position>
              <LatitudeDegrees>42.84324252046644687652587890625</LatitudeDegrees>
              <LongitudeDegrees>-1.7471559159457683563232421875</LongitudeDegrees>
            </Position>
            <AltitudeMeters>436</AltitudeMeters>
            <DistanceMeters>16524.915075945</DistanceMeters>
          </Trackpoint>
          <Trackpoint>
            <Time>2018-08-26T06:22:20.000Z</Time>
            <Position>
              <LatitudeDegrees>42.84327931702136993408203125</LatitudeDegrees>
              <LongitudeDegrees>-1.74722204916179180145263671875</LongitudeDegrees>
            </Position>
            <AltitudeMeters>436.20001220703125</AltitudeMeters>
            <DistanceMeters>16531.690020857</DistanceMeters>
          </Trackpoint>
          <Trackpoint>
            <Time>2018-08-26T06:22:21.000Z</Time>
            <Position>
              <LatitudeDegrees>42.84331678412854671478271484375</LatitudeDegrees>
              <LongitudeDegrees>-1.7472875118255615234375</LongitudeDegrees>
            </Position>
            <AltitudeMeters>436.20001220703125</AltitudeMeters>
            <DistanceMeters>16538.46696477</DistanceMeters>
          </Trackpoint>
          <Trackpoint>
            <Time>2018-08-26T06:22:22.000Z</Time>
            <Position>
              <LatitudeDegrees>42.84335500560700893402099609375</LatitudeDegrees>
              <LongitudeDegrees>-1.74735247157514095306396484375</LongitudeDegrees>
            </Position>
            <AltitudeMeters>436.20001220703125</AltitudeMeters>
            <DistanceMeters>16545.26386635</DistanceMeters>
          </Trackpoint>
          <Trackpoint>
            <Time>2018-08-26T06:22:23.000Z</Time>
            <Position>
              <LatitudeDegrees>42.84339331090450286865234375</LatitudeDegrees>
              <LongitudeDegrees>-1.74741751514375209808349609375</LongitudeDegrees>
            </Position>
            <AltitudeMeters>436.20001220703125</AltitudeMeters>
            <DistanceMeters>16552.072051305</DistanceMeters>
          </Trackpoint>
          <Trackpoint>
            <Time>2018-08-26T06:22:24.000Z</Time>
            <Position>
              <LatitudeDegrees>42.84343086183071136474609375</LatitudeDegrees>
              <LongitudeDegrees>-1.74748440273106098175048828125</LongitudeDegrees>
            </Position>
            <AltitudeMeters>436.20001220703125</AltitudeMeters>
            <DistanceMeters>16558.946890947</DistanceMeters>
          </Trackpoint>
          <Trackpoint>
            <Time>2018-08-26T06:22:25.000Z</Time>
            <Position>
              <LatitudeDegrees>42.84346799366176128387451171875</LatitudeDegrees>
              <LongitudeDegrees>-1.7475518770515918731689453125</LongitudeDegrees>
            </Position>
            <AltitudeMeters>436.399993896484375</AltitudeMeters>
            <DistanceMeters>16565.832230542</DistanceMeters>
          </Trackpoint>
          <Trackpoint>
            <Time>2018-08-26T06:22:26.000Z</Time>
            <Position>
              <LatitudeDegrees>42.84350537694990634918212890625</LatitudeDegrees>
              <LongitudeDegrees>-1.7476185970008373260498046875</LongitudeDegrees>
            </Position>
            <AltitudeMeters>436.399993896484375</AltitudeMeters>
            <DistanceMeters>16572.684704366</DistanceMeters>
          </Trackpoint>
          <Trackpoint>
            <Time>2018-08-26T06:22:27.000Z</Time>
            <Position>
              <LatitudeDegrees>42.8435430116951465606689453125</LatitudeDegrees>
              <LongitudeDegrees>-1.74768405966460704803466796875</LongitudeDegrees>
            </Position>
            <AltitudeMeters>436.399993896484375</AltitudeMeters>
            <DistanceMeters>16579.473629919</DistanceMeters>
          </Trackpoint>
          <Trackpoint>
            <Time>2018-08-26T06:22:28.000Z</Time>
            <Position>
              <LatitudeDegrees>42.84358014352619647979736328125</LatitudeDegrees>
              <LongitudeDegrees>-1.747748516499996185302734375</LongitudeDegrees>
            </Position>
            <AltitudeMeters>436.399993896484375</AltitudeMeters>
            <DistanceMeters>16586.163402625</DistanceMeters>
          </Trackpoint>
          <Trackpoint>
            <Time>2018-08-26T06:22:29.000Z</Time>
            <Position>
              <LatitudeDegrees>42.843616269528865814208984375</LatitudeDegrees>
              <LongitudeDegrees>-1.74781314097344875335693359375</LongitudeDegrees>
            </Position>
            <AltitudeMeters>436.399993896484375</AltitudeMeters>
            <DistanceMeters>16592.7948785</DistanceMeters>
          </Trackpoint>
          <Trackpoint>
            <Time>2018-08-26T06:22:30.000Z</Time>
            <Position>
              <LatitudeDegrees>42.84365222789347171783447265625</LatitudeDegrees>
              <LongitudeDegrees>-1.74787751398980617523193359375</LongitudeDegrees>
            </Position>
            <AltitudeMeters>436.399993896484375</AltitudeMeters>
            <DistanceMeters>16599.399064235</DistanceMeters>
          </Trackpoint>
          <Trackpoint>
            <Time>2018-08-26T06:22:31.000Z</Time>
            <Position>
              <LatitudeDegrees>42.84368793480098247528076171875</LatitudeDegrees>
              <LongitudeDegrees>-1.74794289283454418182373046875</LongitudeDegrees>
            </Position>
            <AltitudeMeters>436.399993896484375</AltitudeMeters>
            <DistanceMeters>16606.052291627</DistanceMeters>
          </Trackpoint>
          <Trackpoint>
            <Time>2018-08-26T06:22:32.000Z</Time>
            <Position>
              <LatitudeDegrees>42.8437237255275249481201171875</LatitudeDegrees>
              <LongitudeDegrees>-1.74800927750766277313232421875</LongitudeDegrees>
            </Position>
            <AltitudeMeters>436.600006103515625</AltitudeMeters>
            <DistanceMeters>16612.776396977</DistanceMeters>
          </Trackpoint>
          <Trackpoint>
            <Time>2018-08-26T06:22:33.000Z</Time>
            <Position>
              <LatitudeDegrees>42.84376068972051143646240234375</LatitudeDegrees>
              <LongitudeDegrees>-1.74807700328528881072998046875</LongitudeDegrees>
            </Position>
            <AltitudeMeters>436.600006103515625</AltitudeMeters>
            <DistanceMeters>16619.665669928</DistanceMeters>
          </Trackpoint>
          <Trackpoint>
            <Time>2018-08-26T06:22:34.000Z</Time>
            <Position>
              <LatitudeDegrees>42.84379857592284679412841796875</LatitudeDegrees>
              <LongitudeDegrees>-1.7481453157961368560791015625</LongitudeDegrees>
            </Position>
            <AltitudeMeters>436.399993896484375</AltitudeMeters>
            <DistanceMeters>16626.65514155</DistanceMeters>
          </Trackpoint>
          <Trackpoint>
            <Time>2018-08-26T06:22:35.000Z</Time>
            <Position>
              <LatitudeDegrees>42.8438383899629116058349609375</LatitudeDegrees>
              <LongitudeDegrees>-1.74821396358311176300048828125</LongitudeDegrees>
            </Position>
            <AltitudeMeters>436.399993896484375</AltitudeMeters>
            <DistanceMeters>16633.79922946</DistanceMeters>
          </Trackpoint>
          <Trackpoint>
            <Time>2018-08-26T06:22:36.000Z</Time>
            <Position>
              <LatitudeDegrees>42.8438796289265155792236328125</LatitudeDegrees>
              <LongitudeDegrees>-1.748284287750720977783203125</LongitudeDegrees>
            </Position>
            <AltitudeMeters>436.399993896484375</AltitudeMeters>
            <DistanceMeters>16641.148917704</DistanceMeters>
          </Trackpoint>
          <Trackpoint>
            <Time>2018-08-26T06:22:37.000Z</Time>
            <Position>
              <LatitudeDegrees>42.8439215384423732757568359375</LatitudeDegrees>
              <LongitudeDegrees>-1.74835679121315479278564453125</LongitudeDegrees>
            </Position>
            <AltitudeMeters>436.399993896484375</AltitudeMeters>
            <DistanceMeters>16648.683643353</DistanceMeters>
          </Trackpoint>
          <Trackpoint>
            <Time>2018-08-26T06:22:38.000Z</Time>
            <Position>
              <LatitudeDegrees>42.8439641185104846954345703125</LatitudeDegrees>
              <LongitudeDegrees>-1.74843289889395236968994140625</LongitudeDegrees>
            </Position>
            <AltitudeMeters>436.399993896484375</AltitudeMeters>
            <DistanceMeters>16656.496087701</DistanceMeters>
          </Trackpoint>
          <Trackpoint>
            <Time>2018-08-26T06:22:39.000Z</Time>
            <Position>
              <LatitudeDegrees>42.84400745294988155364990234375</LatitudeDegrees>
              <LongitudeDegrees>-1.74851269461214542388916015625</LongitudeDegrees>
            </Position>
            <AltitudeMeters>436.399993896484375</AltitudeMeters>
            <DistanceMeters>16664.599587926</DistanceMeters>
          </Trackpoint>
          <Trackpoint>
            <Time>2018-08-26T06:22:40.000Z</Time>
            <Position>
              <LatitudeDegrees>42.844052799046039581298828125</LatitudeDegrees>
              <LongitudeDegrees>-1.74859617836773395538330078125</LongitudeDegrees>
            </Position>
            <AltitudeMeters>436.399993896484375</AltitudeMeters>
            <DistanceMeters>16673.078292931</DistanceMeters>
          </Trackpoint>
          <Trackpoint>
            <Time>2018-08-26T06:22:41.000Z</Time>
            <Position>
              <LatitudeDegrees>42.8441015817224979400634765625</LatitudeDegrees>
              <LongitudeDegrees>-1.7486836016178131103515625</LongitudeDegrees>
            </Position>
            <AltitudeMeters>436.20001220703125</AltitudeMeters>
            <DistanceMeters>16682.043598862</DistanceMeters>
          </Trackpoint>
          <Trackpoint>
            <Time>2018-08-26T06:22:42.000Z</Time>
            <Position>
              <LatitudeDegrees>42.84415304660797119140625</LatitudeDegrees>
              <LongitudeDegrees>-1.7487752996385097503662109375</LongitudeDegrees>
            </Position>
            <AltitudeMeters>435.79998779296875</AltitudeMeters>
            <DistanceMeters>16691.467068061</DistanceMeters>
          </Trackpoint>
          <Trackpoint>
            <Time>2018-08-26T06:22:43.000Z</Time>
            <Position>
              <LatitudeDegrees>42.84420627169311046600341796875</LatitudeDegrees>
              <LongitudeDegrees>-1.74887043423950672149658203125</LongitudeDegrees>
            </Position>
            <AltitudeMeters>435.20001220703125</AltitudeMeters>
            <DistanceMeters>16701.233114723</DistanceMeters>
          </Trackpoint>
          <Trackpoint>
            <Time>2018-08-26T06:22:44.000Z</Time>
            <Position>
              <LatitudeDegrees>42.84426041878759860992431640625</LatitudeDegrees>
              <LongitudeDegrees>-1.748968921601772308349609375</LongitudeDegrees>
            </Position>
            <AltitudeMeters>435</AltitudeMeters>
            <DistanceMeters>16711.279465524</DistanceMeters>
          </Trackpoint>
          <Trackpoint>
            <Time>2018-08-26T06:22:45.000Z</Time>
            <Position>
              <LatitudeDegrees>42.84431590698659420013427734375</LatitudeDegrees>
              <LongitudeDegrees>-1.7490684986114501953125</LongitudeDegrees>
            </Position>
            <AltitudeMeters>434.79998779296875</AltitudeMeters>
            <DistanceMeters>16721.485883204</DistanceMeters>
          </Trackpoint>
          <Trackpoint>
            <Time>2018-08-26T06:22:46.000Z</Time>
            <Position>
              <LatitudeDegrees>42.8443724848330020904541015625</LatitudeDegrees>
              <LongitudeDegrees>-1.74916866235435009002685546875</LongitudeDegrees>
            </Position>
            <AltitudeMeters>434.600006103515625</AltitudeMeters>
            <DistanceMeters>16731.804051708</DistanceMeters>
          </Trackpoint>
          <Trackpoint>
            <Time>2018-08-26T06:22:47.000Z</Time>
            <Position>
              <LatitudeDegrees>42.8444294817745685577392578125</LatitudeDegrees>
              <LongitudeDegrees>-1.74926857464015483856201171875</LongitudeDegrees>
            </Position>
            <AltitudeMeters>434.399993896484375</AltitudeMeters>
            <DistanceMeters>16742.134902277</DistanceMeters>
          </Trackpoint>
          <Trackpoint>
            <Time>2018-08-26T06:22:48.000Z</Time>
            <Position>
              <LatitudeDegrees>42.8444858081638813018798828125</LatitudeDegrees>
              <LongitudeDegrees>-1.7493684031069278717041015625</LongitudeDegrees>
            </Position>
            <AltitudeMeters>434.20001220703125</AltitudeMeters>
            <DistanceMeters>16752.414930712</DistanceMeters>
          </Trackpoint>
          <Trackpoint>
            <Time>2018-08-26T06:22:49.000Z</Time>
            <Position>
              <LatitudeDegrees>42.84454121254384517669677734375</LatitudeDegrees>
              <LongitudeDegrees>-1.74946823157370090484619140625</LongitudeDegrees>
            </Position>
            <AltitudeMeters>434.20001220703125</AltitudeMeters>
            <DistanceMeters>16762.632843603</DistanceMeters>
          </Trackpoint>
          <Trackpoint>
            <Time>2018-08-26T06:22:50.000Z</Time>
            <Position>
              <LatitudeDegrees>42.84459628164768218994140625</LatitudeDegrees>
              <LongitudeDegrees>-1.74956764094531536102294921875</LongitudeDegrees>
            </Position>
            <AltitudeMeters>433</AltitudeMeters>
            <DistanceMeters>16772.800702041</DistanceMeters>
          </Trackpoint>
          <Trackpoint>
            <Time>2018-08-26T06:22:51.000Z</Time>
            <Position>
              <LatitudeDegrees>42.8446507640182971954345703125</LatitudeDegrees>
              <LongitudeDegrees>-1.74966738559305667877197265625</LongitudeDegrees>
            </Position>
            <AltitudeMeters>431.600006103515625</AltitudeMeters>
            <DistanceMeters>16782.951227752</DistanceMeters>
          </Trackpoint>
          <Trackpoint>
            <Time>2018-08-26T06:22:52.000Z</Time>
            <Position>
              <LatitudeDegrees>42.8447050787508487701416015625</LatitudeDegrees>
              <LongitudeDegrees>-1.74976654350757598876953125</LongitudeDegrees>
            </Position>
            <AltitudeMeters>430.20001220703125</AltitudeMeters>
            <DistanceMeters>16793.051812075</DistanceMeters>
          </Trackpoint>
          <Trackpoint>
            <Time>2018-08-26T06:22:53.000Z</Time>
            <Position>
              <LatitudeDegrees>42.844759561121463775634765625</LatitudeDegrees>
              <LongitudeDegrees>-1.7498639412224292755126953125</LongitudeDegrees>
            </Position>
            <AltitudeMeters>429.399993896484375</AltitudeMeters>
            <DistanceMeters>16803.049056</DistanceMeters>
          </Trackpoint>
          <Trackpoint>
            <Time>2018-08-26T06:22:54.000Z</Time>
            <Position>
              <LatitudeDegrees>42.844813875854015350341796875</LatitudeDegrees>
              <LongitudeDegrees>-1.7499594949185848236083984375</LongitudeDegrees>
            </Position>
            <AltitudeMeters>429</AltitudeMeters>
            <DistanceMeters>16812.915831265</DistanceMeters>
          </Trackpoint>
          <Trackpoint>
            <Time>2018-08-26T06:22:55.000Z</Time>
            <Position>
              <LatitudeDegrees>42.8448676876723766326904296875</LatitudeDegrees>
              <LongitudeDegrees>-1.750053875148296356201171875</LongitudeDegrees>
            </Position>
            <AltitudeMeters>428.600006103515625</AltitudeMeters>
            <DistanceMeters>16822.672627147</DistanceMeters>
          </Trackpoint>
          <Trackpoint>
            <Time>2018-08-26T06:22:56.000Z</Time>
            <Position>
              <LatitudeDegrees>42.8449209965765476226806640625</LatitudeDegrees>
              <LongitudeDegrees>-1.7501475848257541656494140625</LongitudeDegrees>
            </Position>
            <AltitudeMeters>428.399993896484375</AltitudeMeters>
            <DistanceMeters>16832.351833886</DistanceMeters>
          </Trackpoint>
          <Trackpoint>
            <Time>2018-08-26T06:22:57.000Z</Time>
            <Position>
              <LatitudeDegrees>42.84497556276619434356689453125</LatitudeDegrees>
              <LongitudeDegrees>-1.750238277018070220947265625</LongitudeDegrees>
            </Position>
            <AltitudeMeters>428.20001220703125</AltitudeMeters>
            <DistanceMeters>16841.925510082</DistanceMeters>
          </Trackpoint>
          <Trackpoint>
            <Time>2018-08-26T06:22:58.000Z</Time>
            <Position>
              <LatitudeDegrees>42.84503423608839511871337890625</LatitudeDegrees>
              <LongitudeDegrees>-1.75032368861138820648193359375</LongitudeDegrees>
            </Position>
            <AltitudeMeters>428.20001220703125</AltitudeMeters>
            <DistanceMeters>16851.476522188</DistanceMeters>
          </Trackpoint>
          <Trackpoint>
            <Time>2018-08-26T06:22:59.000Z</Time>
            <Position>
              <LatitudeDegrees>42.8451033867895603179931640625</LatitudeDegrees>
              <LongitudeDegrees>-1.7503943480551242828369140625</LongitudeDegrees>
            </Position>
            <AltitudeMeters>428</AltitudeMeters>
            <DistanceMeters>16861.093488598</DistanceMeters>
          </Trackpoint>
          <Trackpoint>
            <Time>2018-08-26T06:23:00.000Z</Time>
            <Position>
              <LatitudeDegrees>42.8451848588883876800537109375</LatitudeDegrees>
              <LongitudeDegrees>-1.7504429630935192108154296875</LongitudeDegrees>
            </Position>
            <AltitudeMeters>428</AltitudeMeters>
            <DistanceMeters>16870.991331764</DistanceMeters>
          </Trackpoint>
          <Trackpoint>
            <Time>2018-08-26T06:23:01.000Z</Time>
            <Position>
              <LatitudeDegrees>42.8452743776142597198486328125</LatitudeDegrees>
              <LongitudeDegrees>-1.7504774965345859527587890625</LongitudeDegrees>
            </Position>
            <AltitudeMeters>428</AltitudeMeters>
            <DistanceMeters>16881.345755824</DistanceMeters>
          </Trackpoint>
          <Trackpoint>
            <Time>2018-08-26T06:23:02.000Z</Time>
            <Position>
              <LatitudeDegrees>42.84536884166300296783447265625</LatitudeDegrees>
              <LongitudeDegrees>-1.750508509576320648193359375</LongitudeDegrees>
            </Position>
            <AltitudeMeters>428</AltitudeMeters>
            <DistanceMeters>16892.159612211</DistanceMeters>
          </Trackpoint>
          <Trackpoint>
            <Time>2018-08-26T06:23:03.000Z</Time>
            <Position>
              <LatitudeDegrees>42.8454648144543170928955078125</LatitudeDegrees>
              <LongitudeDegrees>-1.750540696084499359130859375</LongitudeDegrees>
            </Position>
            <AltitudeMeters>427.79998779296875</AltitudeMeters>
            <DistanceMeters>16903.15974968</DistanceMeters>
          </Trackpoint>
          <Trackpoint>
            <Time>2018-08-26T06:23:04.000Z</Time>
            <Position>
              <LatitudeDegrees>42.84556380473077297210693359375</LatitudeDegrees>
              <LongitudeDegrees>-1.7505745589733123779296875</LongitudeDegrees>
            </Position>
            <AltitudeMeters>427.79998779296875</AltitudeMeters>
            <DistanceMeters>16914.519317999</DistanceMeters>
          </Trackpoint>
          <Trackpoint>
            <Time>2018-08-26T06:23:05.000Z</Time>
            <Position>
              <LatitudeDegrees>42.84566522575914859771728515625</LatitudeDegrees>
              <LongitudeDegrees>-1.7506094276905059814453125</LongitudeDegrees>
            </Position>
            <AltitudeMeters>427.79998779296875</AltitudeMeters>
            <DistanceMeters>16926.161157087</DistanceMeters>
          </Trackpoint>
          <Trackpoint>
            <Time>2018-08-26T06:23:06.000Z</Time>
            <Position>
              <LatitudeDegrees>42.84576815553009510040283203125</LatitudeDegrees>
              <LongitudeDegrees>-1.75064521841704845428466796875</LongitudeDegrees>
            </Position>
            <AltitudeMeters>427.79998779296875</AltitudeMeters>
            <DistanceMeters>16937.983488633</DistanceMeters>
          </Trackpoint>
          <Trackpoint>
            <Time>2018-08-26T06:23:07.000Z</Time>
            <Position>
              <LatitudeDegrees>42.8458718396723270416259765625</LatitudeDegrees>
              <LongitudeDegrees>-1.7506789974868297576904296875</LongitudeDegrees>
            </Position>
            <AltitudeMeters>427.600006103515625</AltitudeMeters>
            <DistanceMeters>16949.848516731</DistanceMeters>
          </Trackpoint>
          <Trackpoint>
            <Time>2018-08-26T06:23:08.000Z</Time>
            <Position>
              <LatitudeDegrees>42.84597669728100299835205078125</LatitudeDegrees>
              <LongitudeDegrees>-1.75071361474692821502685546875</LongitudeDegrees>
            </Position>
            <AltitudeMeters>427.600006103515625</AltitudeMeters>
            <DistanceMeters>16961.85652492</DistanceMeters>
          </Trackpoint>
          <Trackpoint>
            <Time>2018-08-26T06:23:09.000Z</Time>
            <Position>
              <LatitudeDegrees>42.84608247689902782440185546875</LatitudeDegrees>
              <LongitudeDegrees>-1.75074932165443897247314453125</LongitudeDegrees>
            </Position>
            <AltitudeMeters>427.399993896484375</AltitudeMeters>
            <DistanceMeters>16973.985001546</DistanceMeters>
          </Trackpoint>
          <Trackpoint>
            <Time>2018-08-26T06:23:10.000Z</Time>
            <Position>
              <LatitudeDegrees>42.84618875943124294281005859375</LatitudeDegrees>
              <LongitudeDegrees>-1.75078620202839374542236328125</LongitudeDegrees>
            </Position>
            <AltitudeMeters>427.20001220703125</AltitudeMeters>
            <DistanceMeters>16986.191404019</DistanceMeters>
          </Trackpoint>
          <Trackpoint>
            <Time>2018-08-26T06:23:11.000Z</Time>
            <Position>
              <LatitudeDegrees>42.84629537723958492279052734375</LatitudeDegrees>
              <LongitudeDegrees>-1.75082358531653881072998046875</LongitudeDegrees>
            </Position>
            <AltitudeMeters>427</AltitudeMeters>
            <DistanceMeters>16998.443587122</DistanceMeters>
          </Trackpoint>
          <Trackpoint>
            <Time>2018-08-26T06:23:12.000Z</Time>
            <Position>
              <LatitudeDegrees>42.84640031866729259490966796875</LatitudeDegrees>
              <LongitudeDegrees>-1.7508607171475887298583984375</LongitudeDegrees>
            </Position>
            <AltitudeMeters>427</AltitudeMeters>
            <DistanceMeters>17010.510483271</DistanceMeters>
          </Trackpoint>
          <Trackpoint>
            <Time>2018-08-26T06:23:13.000Z</Time>
            <Position>
              <LatitudeDegrees>42.84650266170501708984375</LatitudeDegrees>
              <LongitudeDegrees>-1.7508972622454166412353515625</LongitudeDegrees>
            </Position>
            <AltitudeMeters>426.600006103515625</AltitudeMeters>
            <DistanceMeters>17022.285363046</DistanceMeters>
          </Trackpoint>
          <Trackpoint>
            <Time>2018-08-26T06:23:14.000Z</Time>
            <Position>
              <LatitudeDegrees>42.84660416655242443084716796875</LatitudeDegrees>
              <LongitudeDegrees>-1.7509311251342296600341796875</LongitudeDegrees>
            </Position>
            <AltitudeMeters>425.79998779296875</AltitudeMeters>
            <DistanceMeters>17033.916337864</DistanceMeters>
          </Trackpoint>
          <Trackpoint>
            <Time>2018-08-26T06:23:15.000Z</Time>
            <Position>
              <LatitudeDegrees>42.8467023186385631561279296875</LatitudeDegrees>
              <LongitudeDegrees>-1.75096456892788410186767578125</LongitudeDegrees>
            </Position>
            <AltitudeMeters>425.20001220703125</AltitudeMeters>
            <DistanceMeters>17045.176903277</DistanceMeters>
          </Trackpoint>
          <Trackpoint>
            <Time>2018-08-26T06:23:16.000Z</Time>
            <Position>
              <LatitudeDegrees>42.84679644741117954254150390625</LatitudeDegrees>
              <LongitudeDegrees>-1.75099767744541168212890625</LongitudeDegrees>
            </Position>
            <AltitudeMeters>424.399993896484375</AltitudeMeters>
            <DistanceMeters>17055.996603412</DistanceMeters>
          </Trackpoint>
          <Trackpoint>
            <Time>2018-08-26T06:23:17.000Z</Time>
            <Position>
              <LatitudeDegrees>42.846888564527034759521484375</LatitudeDegrees>
              <LongitudeDegrees>-1.75102961249649524688720703125</LongitudeDegrees>
            </Position>
            <AltitudeMeters>424</AltitudeMeters>
            <DistanceMeters>17066.575343288</DistanceMeters>
          </Trackpoint>
          <Trackpoint>
            <Time>2018-08-26T06:23:18.000Z</Time>
            <Position>
              <LatitudeDegrees>42.8469787538051605224609375</LatitudeDegrees>
              <LongitudeDegrees>-1.7510600388050079345703125</LongitudeDegrees>
            </Position>
            <AltitudeMeters>423.600006103515625</AltitudeMeters>
            <DistanceMeters>17076.916240989</DistanceMeters>
          </Trackpoint>
          <Trackpoint>
            <Time>2018-08-26T06:23:19.000Z</Time>
            <Position>
              <LatitudeDegrees>42.8470654226839542388916015625</LatitudeDegrees>
              <LongitudeDegrees>-1.75108845345675945281982421875</LongitudeDegrees>
            </Position>
            <AltitudeMeters>423.20001220703125</AltitudeMeters>
            <DistanceMeters>17086.838231384</DistanceMeters>
          </Trackpoint>
          <Trackpoint>
            <Time>2018-08-26T06:23:20.000Z</Time>
            <Position>
              <LatitudeDegrees>42.8471492417156696319580078125</LatitudeDegrees>
              <LongitudeDegrees>-1.7511165328323841094970703125</LongitudeDegrees>
            </Position>
            <AltitudeMeters>423</AltitudeMeters>
            <DistanceMeters>17096.445333513</DistanceMeters>
          </Trackpoint>
          <Trackpoint>
            <Time>2018-08-26T06:23:21.000Z</Time>
            <Position>
              <LatitudeDegrees>42.8472313843667507171630859375</LatitudeDegrees>
              <LongitudeDegrees>-1.7511450313031673431396484375</LongitudeDegrees>
            </Position>
            <AltitudeMeters>422.79998779296875</AltitudeMeters>
            <DistanceMeters>17105.879337617</DistanceMeters>
          </Trackpoint>
          <Trackpoint>
            <Time>2018-08-26T06:23:22.000Z</Time>
            <Position>
              <LatitudeDegrees>42.84731277264654636383056640625</LatitudeDegrees>
              <LongitudeDegrees>-1.751174032688140869140625</LongitudeDegrees>
            </Position>
            <AltitudeMeters>422.79998779296875</AltitudeMeters>
            <DistanceMeters>17115.241759956</DistanceMeters>
          </Trackpoint>
          <Trackpoint>
            <Time>2018-08-26T06:23:23.000Z</Time>
            <Position>
              <LatitudeDegrees>42.84739458002150058746337890625</LatitudeDegrees>
              <LongitudeDegrees>-1.75120328553020954132080078125</LongitudeDegrees>
            </Position>
            <AltitudeMeters>422.79998779296875</AltitudeMeters>
            <DistanceMeters>17124.65468246</DistanceMeters>
          </Trackpoint>
          <Trackpoint>
            <Time>2018-08-26T06:23:24.000Z</Time>
            <Position>
              <LatitudeDegrees>42.8474749624729156494140625</LatitudeDegrees>
              <LongitudeDegrees>-1.751231364905834197998046875</LongitudeDegrees>
            </Position>
            <AltitudeMeters>422.600006103515625</AltitudeMeters>
            <DistanceMeters>17133.890379623</DistanceMeters>
          </Trackpoint>
          <Trackpoint>
            <Time>2018-08-26T06:23:25.000Z</Time>
            <Position>
              <LatitudeDegrees>42.8475535847246646881103515625</LatitudeDegrees>
              <LongitudeDegrees>-1.75125776790082454681396484375</LongitudeDegrees>
            </Position>
            <AltitudeMeters>422.600006103515625</AltitudeMeters>
            <DistanceMeters>17142.901898777</DistanceMeters>
          </Trackpoint>
          <Trackpoint>
            <Time>2018-08-26T06:23:26.000Z</Time>
            <Position>
              <LatitudeDegrees>42.84763011150062084197998046875</LatitudeDegrees>
              <LongitudeDegrees>-1.75128375180065631866455078125</LongitudeDegrees>
            </Position>
            <AltitudeMeters>422.600006103515625</AltitudeMeters>
            <DistanceMeters>17151.679404813</DistanceMeters>
          </Trackpoint>
          <Trackpoint>
            <Time>2018-08-26T06:23:27.000Z</Time>
            <Position>
              <LatitudeDegrees>42.84770487807691097259521484375</LatitudeDegrees>
              <LongitudeDegrees>-1.75130872987210750579833984375</LongitudeDegrees>
            </Position>
            <AltitudeMeters>422.399993896484375</AltitudeMeters>
            <DistanceMeters>17160.247105287</DistanceMeters>
          </Trackpoint>
          <Trackpoint>
            <Time>2018-08-26T06:23:28.000Z</Time>
            <Position>
              <LatitudeDegrees>42.8477785550057888031005859375</LatitudeDegrees>
              <LongitudeDegrees>-1.7513344623148441314697265625</LongitudeDegrees>
            </Position>
            <AltitudeMeters>422.399993896484375</AltitudeMeters>
            <DistanceMeters>17168.711420174</DistanceMeters>
          </Trackpoint>
          <Trackpoint>
            <Time>2018-08-26T06:23:29.000Z</Time>
            <Position>
              <LatitudeDegrees>42.84785055555403232574462890625</LatitudeDegrees>
              <LongitudeDegrees>-1.75136111676692962646484375</LongitudeDegrees>
            </Position>
            <AltitudeMeters>422.399993896484375</AltitudeMeters>
            <DistanceMeters>17177.015254453</DistanceMeters>
          </Trackpoint>
          <Trackpoint>
            <Time>2018-08-26T06:23:30.000Z</Time>
            <Position>
              <LatitudeDegrees>42.8479220531880855560302734375</LatitudeDegrees>
              <LongitudeDegrees>-1.75138768739998340606689453125</LongitudeDegrees>
            </Position>
            <AltitudeMeters>422.399993896484375</AltitudeMeters>
            <DistanceMeters>17185.263989265</DistanceMeters>
          </Trackpoint>
          <Trackpoint>
            <Time>2018-08-26T06:23:31.000Z</Time>
            <Position>
              <LatitudeDegrees>42.84799271263182163238525390625</LatitudeDegrees>
              <LongitudeDegrees>-1.751412414014339447021484375</LongitudeDegrees>
            </Position>
            <AltitudeMeters>422.20001220703125</AltitudeMeters>
            <DistanceMeters>17193.3830753</DistanceMeters>
          </Trackpoint>
          <Trackpoint>
            <Time>2018-08-26T06:23:32.000Z</Time>
            <Position>
              <LatitudeDegrees>42.84806345589458942413330078125</LatitudeDegrees>
              <LongitudeDegrees>-1.7514353804290294647216796875</LongitudeDegrees>
            </Position>
            <AltitudeMeters>422</AltitudeMeters>
            <DistanceMeters>17201.476540227</DistanceMeters>
          </Trackpoint>
          <Trackpoint>
            <Time>2018-08-26T06:23:33.000Z</Time>
            <Position>
              <LatitudeDegrees>42.84813386388123035430908203125</LatitudeDegrees>
              <LongitudeDegrees>-1.75145876593887805938720703125</LongitudeDegrees>
            </Position>
            <AltitudeMeters>422.20001220703125</AltitudeMeters>
            <DistanceMeters>17209.542063812</DistanceMeters>
          </Trackpoint>
          <Trackpoint>
            <Time>2018-08-26T06:23:34.000Z</Time>
            <Position>
              <LatitudeDegrees>42.8482040204107761383056640625</LatitudeDegrees>
              <LongitudeDegrees>-1.7514833249151706695556640625</LongitudeDegrees>
            </Position>
            <AltitudeMeters>422.399993896484375</AltitudeMeters>
            <DistanceMeters>17217.604227929</DistanceMeters>
          </Trackpoint>
          <Trackpoint>
            <Time>2018-08-26T06:23:35.000Z</Time>
            <Position>
              <LatitudeDegrees>42.84827434457838535308837890625</LatitudeDegrees>
              <LongitudeDegrees>-1.751508302986621856689453125</LongitudeDegrees>
            </Position>
            <AltitudeMeters>422.399993896484375</AltitudeMeters>
            <DistanceMeters>17225.69211231</DistanceMeters>
          </Trackpoint>
          <Trackpoint>
            <Time>2018-08-26T06:23:36.000Z</Time>
            <Position>
              <LatitudeDegrees>42.84834391437470912933349609375</LatitudeDegrees>
              <LongitudeDegrees>-1.751533113420009613037109375</LongitudeDegrees>
            </Position>
            <AltitudeMeters>422.600006103515625</AltitudeMeters>
            <DistanceMeters>17233.695257455</DistanceMeters>
          </Trackpoint>
          <Trackpoint>
            <Time>2018-08-26T06:23:37.000Z</Time>
            <Position>
              <LatitudeDegrees>42.84841231070458889007568359375</LatitudeDegrees>
              <LongitudeDegrees>-1.75155649892985820770263671875</LongitudeDegrees>
            </Position>
            <AltitudeMeters>422.79998779296875</AltitudeMeters>
            <DistanceMeters>17241.542876288</DistanceMeters>
          </Trackpoint>
          <Trackpoint>
            <Time>2018-08-26T06:23:38.000Z</Time>
            <Position>
              <LatitudeDegrees>42.848480455577373504638671875</LatitudeDegrees>
              <LongitudeDegrees>-1.7515803873538970947265625</LongitudeDegrees>
            </Position>
            <AltitudeMeters>423</AltitudeMeters>
            <DistanceMeters>17249.374369071</DistanceMeters>
          </Trackpoint>
          <Trackpoint>
            <Time>2018-08-26T06:23:39.000Z</Time>
            <Position>
              <LatitudeDegrees>42.84854792989790439605712890625</LatitudeDegrees>
              <LongitudeDegrees>-1.75160377286374568939208984375</LongitudeDegrees>
            </Position>
            <AltitudeMeters>423</AltitudeMeters>
            <DistanceMeters>17257.122980448</DistanceMeters>
          </Trackpoint>
          <Trackpoint>
            <Time>2018-08-26T06:23:40.000Z</Time>
            <Position>
              <LatitudeDegrees>42.8486150689423084259033203125</LatitudeDegrees>
              <LongitudeDegrees>-1.75162791274487972259521484375</LongitudeDegrees>
            </Position>
            <AltitudeMeters>423.20001220703125</AltitudeMeters>
            <DistanceMeters>17264.850002219</DistanceMeters>
          </Trackpoint>
          <Trackpoint>
            <Time>2018-08-26T06:23:41.000Z</Time>
            <Position>
              <LatitudeDegrees>42.84868153743445873260498046875</LatitudeDegrees>
              <LongitudeDegrees>-1.751652471721172332763671875</LongitudeDegrees>
            </Position>
            <AltitudeMeters>423.399993896484375</AltitudeMeters>
            <DistanceMeters>17272.51483603</DistanceMeters>
          </Trackpoint>
          <Trackpoint>
            <Time>2018-08-26T06:23:42.000Z</Time>
            <Position>
              <LatitudeDegrees>42.84874691627919673919677734375</LatitudeDegrees>
              <LongitudeDegrees>-1.75167669542133808135986328125</LongitudeDegrees>
            </Position>
            <AltitudeMeters>423.20001220703125</AltitudeMeters>
            <DistanceMeters>17280.054952825</DistanceMeters>
          </Trackpoint>
          <Trackpoint>
            <Time>2018-08-26T06:23:43.000Z</Time>
            <Position>
              <LatitudeDegrees>42.848811037838459014892578125</LatitudeDegrees>
              <LongitudeDegrees>-1.75169966183602809906005859375</LongitudeDegrees>
            </Position>
            <AltitudeMeters>423.399993896484375</AltitudeMeters>
            <DistanceMeters>17287.434069368</DistanceMeters>
          </Trackpoint>
          <Trackpoint>
            <Time>2018-08-26T06:23:44.000Z</Time>
            <Position>
              <LatitudeDegrees>42.84887532703578472137451171875</LatitudeDegrees>
              <LongitudeDegrees>-1.75172262825071811676025390625</LongitudeDegrees>
            </Position>
            <AltitudeMeters>423.600006103515625</AltitudeMeters>
            <DistanceMeters>17294.830908773</DistanceMeters>
          </Trackpoint>
          <Trackpoint>
            <Time>2018-08-26T06:23:45.000Z</Time>
            <Position>
              <LatitudeDegrees>42.8489386104047298431396484375</LatitudeDegrees>
              <LongitudeDegrees>-1.75174534320831298828125</LongitudeDegrees>
            </Position>
            <AltitudeMeters>423.600006103515625</AltitudeMeters>
            <DistanceMeters>17302.114568506</DistanceMeters>
          </Trackpoint>
          <Trackpoint>
            <Time>2018-08-26T06:23:46.000Z</Time>
            <Position>
              <LatitudeDegrees>42.8490016423165798187255859375</LatitudeDegrees>
              <LongitudeDegrees>-1.75176721997559070587158203125</LongitudeDegrees>
            </Position>
            <AltitudeMeters>423.79998779296875</AltitudeMeters>
            <DistanceMeters>17309.354082556</DistanceMeters>
          </Trackpoint>
          <Trackpoint>
            <Time>2018-08-26T06:23:47.000Z</Time>
            <Position>
              <LatitudeDegrees>42.8490646742284297943115234375</LatitudeDegrees>
              <LongitudeDegrees>-1.75178951583802700042724609375</LongitudeDegrees>
            </Position>
            <AltitudeMeters>424</AltitudeMeters>
            <DistanceMeters>17316.601699728</DistanceMeters>
          </Trackpoint>
          <Trackpoint>
            <Time>2018-08-26T06:23:48.000Z</Time>
            <Position>
              <LatitudeDegrees>42.84912628121674060821533203125</LatitudeDegrees>
              <LongitudeDegrees>-1.75181172788143157958984375</LongitudeDegrees>
            </Position>
            <AltitudeMeters>424</AltitudeMeters>
            <DistanceMeters>17323.693774586</DistanceMeters>
          </Trackpoint>
          <Trackpoint>
            <Time>2018-08-26T06:23:49.000Z</Time>
            <Position>
              <LatitudeDegrees>42.84918730147182941436767578125</LatitudeDegrees>
              <LongitudeDegrees>-1.75183310173451900482177734375</LongitudeDegrees>
            </Position>
            <AltitudeMeters>424.20001220703125</AltitudeMeters>
            <DistanceMeters>17330.705818955</DistanceMeters>
          </Trackpoint>
          <Trackpoint>
            <Time>2018-08-26T06:23:50.000Z</Time>
            <Position>
              <LatitudeDegrees>42.84924857318401336669921875</LatitudeDegrees>
              <LongitudeDegrees>-1.75185238011181354522705078125</LongitudeDegrees>
            </Position>
            <AltitudeMeters>424.399993896484375</AltitudeMeters>
            <DistanceMeters>17337.704328413</DistanceMeters>
          </Trackpoint>
          <Trackpoint>
            <Time>2018-08-26T06:23:51.000Z</Time>
            <Position>
              <LatitudeDegrees>42.8493090905249118804931640625</LatitudeDegrees>
              <LongitudeDegrees>-1.75187031738460063934326171875</LongitudeDegrees>
            </Position>
            <AltitudeMeters>424.600006103515625</AltitudeMeters>
            <DistanceMeters>17344.597532476</DistanceMeters>
          </Trackpoint>
          <Trackpoint>
            <Time>2018-08-26T06:23:52.000Z</Time>
            <Position>
              <LatitudeDegrees>42.84936868585646152496337890625</LatitudeDegrees>
              <LongitudeDegrees>-1.75188951194286346435546875</LongitudeDegrees>
            </Position>
            <AltitudeMeters>424.600006103515625</AltitudeMeters>
            <DistanceMeters>17351.413008485</DistanceMeters>
          </Trackpoint>
          <Trackpoint>
            <Time>2018-08-26T06:23:53.000Z</Time>
            <Position>
              <LatitudeDegrees>42.84942652098834514617919921875</LatitudeDegrees>
              <LongitudeDegrees>-1.75191096961498260498046875</LongitudeDegrees>
            </Position>
            <AltitudeMeters>424.600006103515625</AltitudeMeters>
            <DistanceMeters>17358.085210285</DistanceMeters>
          </Trackpoint>
          <Trackpoint>
            <Time>2018-08-26T06:23:54.000Z</Time>
            <Position>
              <LatitudeDegrees>42.84948402084410190582275390625</LatitudeDegrees>
              <LongitudeDegrees>-1.7519315890967845916748046875</LongitudeDegrees>
            </Position>
            <AltitudeMeters>424.79998779296875</AltitudeMeters>
            <DistanceMeters>17364.70237287</DistanceMeters>
          </Trackpoint>
          <Trackpoint>
            <Time>2018-08-26T06:23:55.000Z</Time>
            <Position>
              <LatitudeDegrees>42.84954118542373180389404296875</LatitudeDegrees>
              <LongitudeDegrees>-1.75195178948342800140380859375</LongitudeDegrees>
            </Position>
            <AltitudeMeters>424.600006103515625</AltitudeMeters>
            <DistanceMeters>17371.275034866</DistanceMeters>
          </Trackpoint>
          <Trackpoint>
            <Time>2018-08-26T06:23:56.000Z</Time>
            <Position>
              <LatitudeDegrees>42.84959918819367885589599609375</LatitudeDegrees>
              <LongitudeDegrees>-1.75197274424135684967041015625</LongitudeDegrees>
            </Position>
            <AltitudeMeters>424.600006103515625</AltitudeMeters>
            <DistanceMeters>17377.954000178</DistanceMeters>
          </Trackpoint>
          <Trackpoint>
            <Time>2018-08-26T06:23:57.000Z</Time>
            <Position>
              <LatitudeDegrees>42.84965769387781620025634765625</LatitudeDegrees>
              <LongitudeDegrees>-1.75199185498058795928955078125</LongitudeDegrees>
            </Position>
            <AltitudeMeters>424.600006103515625</AltitudeMeters>
            <DistanceMeters>17384.649170039</DistanceMeters>
          </Trackpoint>
          <Trackpoint>
            <Time>2018-08-26T06:23:58.000Z</Time>
            <Position>
              <LatitudeDegrees>42.84971603192389011383056640625</LatitudeDegrees>
              <LongitudeDegrees>-1.75201146863400936126708984375</LongitudeDegrees>
            </Position>
            <AltitudeMeters>424.600006103515625</AltitudeMeters>
            <DistanceMeters>17391.336917688</DistanceMeters>
          </Trackpoint>
          <Trackpoint>
            <Time>2018-08-26T06:23:59.000Z</Time>
            <Position>
              <LatitudeDegrees>42.849774621427059173583984375</LatitudeDegrees>
              <LongitudeDegrees>-1.7520318366587162017822265625</LongitudeDegrees>
            </Position>
            <AltitudeMeters>424.600006103515625</AltitudeMeters>
            <DistanceMeters>17398.067063559</DistanceMeters>
          </Trackpoint>
          <Trackpoint>
            <Time>2018-08-26T06:24:00.000Z</Time>
            <Position>
              <LatitudeDegrees>42.8498337976634502410888671875</LatitudeDegrees>
              <LongitudeDegrees>-1.75205337814986705780029296875</LongitudeDegrees>
            </Position>
            <AltitudeMeters>424.600006103515625</AltitudeMeters>
            <DistanceMeters>17404.883864376</DistanceMeters>
          </Trackpoint>
          <Trackpoint>
            <Time>2018-08-26T06:24:01.000Z</Time>
            <Position>
              <LatitudeDegrees>42.84989272244274616241455078125</LatitudeDegrees>
              <LongitudeDegrees>-1.75207634456455707550048828125</LongitudeDegrees>
            </Position>
            <AltitudeMeters>424.79998779296875</AltitudeMeters>
            <DistanceMeters>17411.704638074</DistanceMeters>
          </Trackpoint>
          <Trackpoint>
            <Time>2018-08-26T06:24:02.000Z</Time>
            <Position>
              <LatitudeDegrees>42.8499521501362323760986328125</LatitudeDegrees>
              <LongitudeDegrees>-1.7520978860557079315185546875</LongitudeDegrees>
            </Position>
            <AltitudeMeters>424.79998779296875</AltitudeMeters>
            <DistanceMeters>17418.549200631</DistanceMeters>
          </Trackpoint>
          <Trackpoint>
            <Time>2018-08-26T06:24:03.000Z</Time>
            <Position>
              <LatitudeDegrees>42.85001191310584545135498046875</LatitudeDegrees>
              <LongitudeDegrees>-1.75211942754685878753662109375</LongitudeDegrees>
            </Position>
            <AltitudeMeters>424.79998779296875</AltitudeMeters>
            <DistanceMeters>17425.429292252</DistanceMeters>
          </Trackpoint>
          <Trackpoint>
            <Time>2018-08-26T06:24:04.000Z</Time>
            <Position>
              <LatitudeDegrees>42.8500713407993316650390625</LatitudeDegrees>
              <LongitudeDegrees>-1.75214071758091449737548828125</LongitudeDegrees>
            </Position>
            <AltitudeMeters>424.79998779296875</AltitudeMeters>
            <DistanceMeters>17432.267915352</DistanceMeters>
          </Trackpoint>
          <Trackpoint>
            <Time>2018-08-26T06:24:05.000Z</Time>
            <Position>
              <LatitudeDegrees>42.85013177432119846343994140625</LatitudeDegrees>
              <LongitudeDegrees>-1.75216016359627246856689453125</LongitudeDegrees>
            </Position>
            <AltitudeMeters>424.79998779296875</AltitudeMeters>
            <DistanceMeters>17439.17943504</DistanceMeters>
          </Trackpoint>
          <Trackpoint>
            <Time>2018-08-26T06:24:06.000Z</Time>
            <Position>
              <LatitudeDegrees>42.85019245930016040802001953125</LatitudeDegrees>
              <LongitudeDegrees>-1.7521776817739009857177734375</LongitudeDegrees>
            </Position>
            <AltitudeMeters>424.79998779296875</AltitudeMeters>
            <DistanceMeters>17446.082457088</DistanceMeters>
          </Trackpoint>
          <Trackpoint>
            <Time>2018-08-26T06:24:07.000Z</Time>
            <Position>
              <LatitudeDegrees>42.85025264136493206024169921875</LatitudeDegrees>
              <LongitudeDegrees>-1.75219167955219745635986328125</LongitudeDegrees>
            </Position>
            <AltitudeMeters>424.79998779296875</AltitudeMeters>
            <DistanceMeters>17452.877365539</DistanceMeters>
          </Trackpoint>
          <Trackpoint>
            <Time>2018-08-26T06:24:08.000Z</Time>
            <Position>
              <LatitudeDegrees>42.85031232051551342010498046875</LatitudeDegrees>
              <LongitudeDegrees>-1.75220198929309844970703125</LongitudeDegrees>
            </Position>
            <AltitudeMeters>424.79998779296875</AltitudeMeters>
            <DistanceMeters>17459.5725354</DistanceMeters>
          </Trackpoint>
          <Trackpoint>
            <Time>2018-08-26T06:24:09.000Z</Time>
            <Position>
              <LatitudeDegrees>42.85037216730415821075439453125</LatitudeDegrees>
              <LongitudeDegrees>-1.75220928154885768890380859375</LongitudeDegrees>
            </Position>
            <AltitudeMeters>424.79998779296875</AltitudeMeters>
            <DistanceMeters>17466.259607894</DistanceMeters>
          </Trackpoint>
          <Trackpoint>
            <Time>2018-08-26T06:24:10.000Z</Time>
            <Position>
              <LatitudeDegrees>42.85043134354054927825927734375</LatitudeDegrees>
              <LongitudeDegrees>-1.75221514888107776641845703125</LongitudeDegrees>
            </Position>
            <AltitudeMeters>424.79998779296875</AltitudeMeters>
            <DistanceMeters>17472.863109931</DistanceMeters>
          </Trackpoint>
          <Trackpoint>
            <Time>2018-08-26T06:24:11.000Z</Time>
            <Position>
              <LatitudeDegrees>42.8504897654056549072265625</LatitudeDegrees>
              <LongitudeDegrees>-1.7522192560136318206787109375</LongitudeDegrees>
            </Position>
            <AltitudeMeters>424.79998779296875</AltitudeMeters>
            <DistanceMeters>17479.373653597</DistanceMeters>
          </Trackpoint>
          <Trackpoint>
            <Time>2018-08-26T06:24:12.000Z</Time>
            <Position>
              <LatitudeDegrees>42.85054801963269710540771484375</LatitudeDegrees>
              <LongitudeDegrees>-1.75222168676555156707763671875</LongitudeDegrees>
            </Position>
            <AltitudeMeters>425.20001220703125</AltitudeMeters>
            <DistanceMeters>17485.860575535</DistanceMeters>
          </Trackpoint>
          <Trackpoint>
            <Time>2018-08-26T06:24:13.000Z</Time>
            <Position>
              <LatitudeDegrees>42.8506056033074855804443359375</LatitudeDegrees>
              <LongitudeDegrees>-1.752221770584583282470703125</LongitudeDegrees>
            </Position>
            <AltitudeMeters>425.600006103515625</AltitudeMeters>
            <DistanceMeters>17492.269068936</DistanceMeters>
          </Trackpoint>
          <Trackpoint>
            <Time>2018-08-26T06:24:14.000Z</Time>
            <Position>
              <LatitudeDegrees>42.85066301934421062469482421875</LatitudeDegrees>
              <LongitudeDegrees>-1.7522209323942661285400390625</LongitudeDegrees>
            </Position>
            <AltitudeMeters>426</AltitudeMeters>
            <DistanceMeters>17498.660631017</DistanceMeters>
          </Trackpoint>
          <Trackpoint>
            <Time>2018-08-26T06:24:15.000Z</Time>
            <Position>
              <LatitudeDegrees>42.85071984864771366119384765625</LatitudeDegrees>
              <LongitudeDegrees>-1.75222210586071014404296875</LongitudeDegrees>
            </Position>
            <AltitudeMeters>426.20001220703125</AltitudeMeters>
            <DistanceMeters>17504.986869931</DistanceMeters>
          </Trackpoint>
          <Trackpoint>
            <Time>2018-08-26T06:24:16.000Z</Time>
            <Position>
              <LatitudeDegrees>42.8507762588560581207275390625</LatitudeDegrees>
              <LongitudeDegrees>-1.7522252909839153289794921875</LongitudeDegrees>
            </Position>
            <AltitudeMeters>426.399993896484375</AltitudeMeters>
            <DistanceMeters>17511.271577909</DistanceMeters>
          </Trackpoint>
          <Trackpoint>
            <Time>2018-08-26T06:24:17.000Z</Time>
            <Position>
              <LatitudeDegrees>42.8508322499692440032958984375</LatitudeDegrees>
              <LongitudeDegrees>-1.75222939811646938323974609375</LongitudeDegrees>
            </Position>
            <AltitudeMeters>426.600006103515625</AltitudeMeters>
            <DistanceMeters>17517.512308611</DistanceMeters>
          </Trackpoint>
          <Trackpoint>
            <Time>2018-08-26T06:24:18.000Z</Time>
            <Position>
              <LatitudeDegrees>42.8508885763585567474365234375</LatitudeDegrees>
              <LongitudeDegrees>-1.7522321641445159912109375</LongitudeDegrees>
            </Position>
            <AltitudeMeters>426.600006103515625</AltitudeMeters>
            <DistanceMeters>17523.78407176</DistanceMeters>
          </Trackpoint>
          <Trackpoint>
            <Time>2018-08-26T06:24:19.000Z</Time>
            <Position>
              <LatitudeDegrees>42.8509449027478694915771484375</LatitudeDegrees>
              <LongitudeDegrees>-1.7522346787154674530029296875</LongitudeDegrees>
            </Position>
            <AltitudeMeters>426.600006103515625</AltitudeMeters>
            <DistanceMeters>17530.057274542</DistanceMeters>
          </Trackpoint>
          <Trackpoint>
            <Time>2018-08-26T06:24:20.000Z</Time>
            <Position>
              <LatitudeDegrees>42.85100081004202365875244140625</LatitudeDegrees>
              <LongitudeDegrees>-1.75223778001964092254638671875</LongitudeDegrees>
            </Position>
            <AltitudeMeters>427</AltitudeMeters>
            <DistanceMeters>17536.284969005</DistanceMeters>
          </Trackpoint>
          <Trackpoint>
            <Time>2018-08-26T06:24:21.000Z</Time>
            <Position>
              <LatitudeDegrees>42.85105546005070209503173828125</LatitudeDegrees>
              <LongitudeDegrees>-1.75224096514284610748291015625</LongitudeDegrees>
            </Position>
            <AltitudeMeters>427.20001220703125</AltitudeMeters>
            <DistanceMeters>17542.373356624</DistanceMeters>
          </Trackpoint>
          <Trackpoint>
            <Time>2018-08-26T06:24:22.000Z</Time>
            <Position>
              <LatitudeDegrees>42.85111011005938053131103515625</LatitudeDegrees>
              <LongitudeDegrees>-1.7522440664470195770263671875</LongitudeDegrees>
            </Position>
            <AltitudeMeters>427.600006103515625</AltitudeMeters>
            <DistanceMeters>17548.461002616</DistanceMeters>
          </Trackpoint>
          <Trackpoint>
            <Time>2018-08-26T06:24:23.000Z</Time>
            <Position>
              <LatitudeDegrees>42.851164005696773529052734375</LatitudeDegrees>
              <LongitudeDegrees>-1.752246581017971038818359375</LongitudeDegrees>
            </Position>
            <AltitudeMeters>427.600006103515625</AltitudeMeters>
            <DistanceMeters>17554.463502513</DistanceMeters>
          </Trackpoint>
          <Trackpoint>
            <Time>2018-08-26T06:24:24.000Z</Time>
            <Position>
              <LatitudeDegrees>42.85121924243867397308349609375</LatitudeDegrees>
              <LongitudeDegrees>-1.75224934704601764678955078125</LongitudeDegrees>
            </Position>
            <AltitudeMeters>427.79998779296875</AltitudeMeters>
            <DistanceMeters>17560.614601626</DistanceMeters>
          </Trackpoint>
          <Trackpoint>
            <Time>2018-08-26T06:24:25.000Z</Time>
            <Position>
              <LatitudeDegrees>42.85127305425703525543212890625</LatitudeDegrees>
              <LongitudeDegrees>-1.75225119106471538543701171875</LongitudeDegrees>
            </Position>
            <AltitudeMeters>428</AltitudeMeters>
            <DistanceMeters>17566.605808004</DistanceMeters>
          </Trackpoint>
          <Trackpoint>
            <Time>2018-08-26T06:24:26.000Z</Time>
            <Position>
              <LatitudeDegrees>42.8513264469802379608154296875</LatitudeDegrees>
              <LongitudeDegrees>-1.75225353799760341644287109375</LongitudeDegrees>
            </Position>
            <AltitudeMeters>428</AltitudeMeters>
            <DistanceMeters>17572.552385117</DistanceMeters>
          </Trackpoint>
          <Trackpoint>
            <Time>2018-08-26T06:24:27.000Z</Time>
            <Position>
              <LatitudeDegrees>42.851378582417964935302734375</LatitudeDegrees>
              <LongitudeDegrees>-1.7522563040256500244140625</LongitudeDegrees>
            </Position>
            <AltitudeMeters>428.399993896484375</AltitudeMeters>
            <DistanceMeters>17578.359131662</DistanceMeters>
          </Trackpoint>
          <Trackpoint>
            <Time>2018-08-26T06:24:28.000Z</Time>
            <Position>
              <LatitudeDegrees>42.85143029876053333282470703125</LatitudeDegrees>
              <LongitudeDegrees>-1.752260662615299224853515625</LongitudeDegrees>
            </Position>
            <AltitudeMeters>428.600006103515625</AltitudeMeters>
            <DistanceMeters>17584.126869661</DistanceMeters>
          </Trackpoint>
          <Trackpoint>
            <Time>2018-08-26T06:24:29.000Z</Time>
            <Position>
              <LatitudeDegrees>42.85148109309375286102294921875</LatitudeDegrees>
              <LongitudeDegrees>-1.75226476974785327911376953125</LongitudeDegrees>
            </Position>
            <AltitudeMeters>428.79998779296875</AltitudeMeters>
            <DistanceMeters>17589.790334283</DistanceMeters>
          </Trackpoint>
          <Trackpoint>
            <Time>2018-08-26T06:24:30.000Z</Time>
            <Position>
              <LatitudeDegrees>42.85153155215084552764892578125</LatitudeDegrees>
              <LongitudeDegrees>-1.75226678140461444854736328125</LongitudeDegrees>
            </Position>
            <AltitudeMeters>429</AltitudeMeters>
            <DistanceMeters>17595.408977113</DistanceMeters>
          </Trackpoint>
          <Trackpoint>
            <Time>2018-08-26T06:24:31.000Z</Time>
            <Position>
              <LatitudeDegrees>42.8515815921127796173095703125</LatitudeDegrees>
              <LongitudeDegrees>-1.75226946361362934112548828125</LongitudeDegrees>
            </Position>
            <AltitudeMeters>429</AltitudeMeters>
            <DistanceMeters>17600.982437704</DistanceMeters>
          </Trackpoint>
          <Trackpoint>
            <Time>2018-08-26T06:24:32.000Z</Time>
            <Position>
              <LatitudeDegrees>42.8516295365989208221435546875</LatitudeDegrees>
              <LongitudeDegrees>-1.75227231346070766448974609375</LongitudeDegrees>
            </Position>
            <AltitudeMeters>429</AltitudeMeters>
            <DistanceMeters>17606.324257765</DistanceMeters>
          </Trackpoint>
          <Trackpoint>
            <Time>2018-08-26T06:24:33.000Z</Time>
            <Position>
              <LatitudeDegrees>42.85167597234249114990234375</LatitudeDegrees>
              <LongitudeDegrees>-1.7522749118506908416748046875</LongitudeDegrees>
            </Position>
            <AltitudeMeters>429.20001220703125</AltitudeMeters>
            <DistanceMeters>17611.496016308</DistanceMeters>
          </Trackpoint>
          <Trackpoint>
            <Time>2018-08-26T06:24:34.000Z</Time>
            <Position>
              <LatitudeDegrees>42.85172098316252231597900390625</LatitudeDegrees>
              <LongitudeDegrees>-1.75227667205035686492919921875</LongitudeDegrees>
            </Position>
            <AltitudeMeters>429.600006103515625</AltitudeMeters>
            <DistanceMeters>17616.507267907</DistanceMeters>
          </Trackpoint>
          <Trackpoint>
            <Time>2018-08-26T06:24:35.000Z</Time>
            <Position>
              <LatitudeDegrees>42.85176540724933147430419921875</LatitudeDegrees>
              <LongitudeDegrees>-1.752279102802276611328125</LongitudeDegrees>
            </Position>
            <AltitudeMeters>429.600006103515625</AltitudeMeters>
            <DistanceMeters>17621.455961403</DistanceMeters>
          </Trackpoint>
          <Trackpoint>
            <Time>2018-08-26T06:24:36.000Z</Time>
            <Position>
              <LatitudeDegrees>42.85180714912712574005126953125</LatitudeDegrees>
              <LongitudeDegrees>-1.75228304229676723480224609375</LongitudeDegrees>
            </Position>
            <AltitudeMeters>429.79998779296875</AltitudeMeters>
            <DistanceMeters>17626.112270407</DistanceMeters>
          </Trackpoint>
          <Trackpoint>
            <Time>2018-08-26T06:24:37.000Z</Time>
            <Position>
              <LatitudeDegrees>42.85184822045266628265380859375</LatitudeDegrees>
              <LongitudeDegrees>-1.75229050219058990478515625</LongitudeDegrees>
            </Position>
            <AltitudeMeters>430</AltitudeMeters>
            <DistanceMeters>17630.723759324</DistanceMeters>
          </Trackpoint>
          <Trackpoint>
            <Time>2018-08-26T06:24:38.000Z</Time>
            <Position>
              <LatitudeDegrees>42.851889543235301971435546875</LatitudeDegrees>
              <LongitudeDegrees>-1.752298884093761444091796875</LongitudeDegrees>
            </Position>
            <AltitudeMeters>430.20001220703125</AltitudeMeters>
            <DistanceMeters>17635.373275751</DistanceMeters>
          </Trackpoint>
          <Trackpoint>
            <Time>2018-08-26T06:24:39.000Z</Time>
            <Position>
              <LatitudeDegrees>42.8519299440085887908935546875</LatitudeDegrees>
              <LongitudeDegrees>-1.7523077689111232757568359375</LongitudeDegrees>
            </Position>
            <AltitudeMeters>430.399993896484375</AltitudeMeters>
            <DistanceMeters>17639.927623739</DistanceMeters>
          </Trackpoint>
          <Trackpoint>
            <Time>2018-08-26T06:24:40.000Z</Time>
            <Position>
              <LatitudeDegrees>42.85196967422962188720703125</LatitudeDegrees>
              <LongitudeDegrees>-1.7523164860904216766357421875</LongitudeDegrees>
            </Position>
            <AltitudeMeters>430.600006103515625</AltitudeMeters>
            <DistanceMeters>17644.405993953</DistanceMeters>
          </Trackpoint>
          <Trackpoint>
            <Time>2018-08-26T06:24:41.000Z</Time>
            <Position>
              <LatitudeDegrees>42.85200848244130611419677734375</LatitudeDegrees>
              <LongitudeDegrees>-1.75232612527906894683837890625</LongitudeDegrees>
            </Position>
            <AltitudeMeters>430.79998779296875</AltitudeMeters>
            <DistanceMeters>17648.794746972</DistanceMeters>
          </Trackpoint>
          <Trackpoint>
            <Time>2018-08-26T06:24:42.000Z</Time>
            <Position>
              <LatitudeDegrees>42.85204485990107059478759765625</LatitudeDegrees>
              <LongitudeDegrees>-1.75233568064868450164794921875</LongitudeDegrees>
            </Position>
            <AltitudeMeters>430.79998779296875</AltitudeMeters>
            <DistanceMeters>17652.918293254</DistanceMeters>
          </Trackpoint>
          <Trackpoint>
            <Time>2018-08-26T06:24:43.000Z</Time>
            <Position>
              <LatitudeDegrees>42.85208492539823055267333984375</LatitudeDegrees>
              <LongitudeDegrees>-1.75234657712280750274658203125</LongitudeDegrees>
            </Position>
            <AltitudeMeters>431.20001220703125</AltitudeMeters>
            <DistanceMeters>17657.465696366</DistanceMeters>
          </Trackpoint>
          <Trackpoint>
            <Time>2018-08-26T06:24:44.000Z</Time>
            <Position>
              <LatitudeDegrees>42.85212197341024875640869140625</LatitudeDegrees>
              <LongitudeDegrees>-1.7523577250540256500244140625</LongitudeDegrees>
            </Position>
            <AltitudeMeters>431.600006103515625</AltitudeMeters>
            <DistanceMeters>17661.687706657</DistanceMeters>
          </Trackpoint>
          <Trackpoint>
            <Time>2018-08-26T06:24:45.000Z</Time>
            <Position>
              <LatitudeDegrees>42.85216120071709156036376953125</LatitudeDegrees>
              <LongitudeDegrees>-1.7523701302707195281982421875</LongitudeDegrees>
            </Position>
            <AltitudeMeters>432</AltitudeMeters>
            <DistanceMeters>17666.169100415</DistanceMeters>
          </Trackpoint>
          <Trackpoint>
            <Time>2018-08-26T06:24:46.000Z</Time>
            <Position>
              <LatitudeDegrees>42.85219900310039520263671875</LatitudeDegrees>
              <LongitudeDegrees>-1.7523828707635402679443359375</LongitudeDegrees>
            </Position>
            <AltitudeMeters>432.20001220703125</AltitudeMeters>
            <DistanceMeters>17670.502985393</DistanceMeters>
          </Trackpoint>
          <Trackpoint>
            <Time>2018-08-26T06:24:47.000Z</Time>
            <Position>
              <LatitudeDegrees>42.8522385656833648681640625</LatitudeDegrees>
              <LongitudeDegrees>-1.75239619798958301544189453125</LongitudeDegrees>
            </Position>
            <AltitudeMeters>432.399993896484375</AltitudeMeters>
            <DistanceMeters>17675.037462657</DistanceMeters>
          </Trackpoint>
          <Trackpoint>
            <Time>2018-08-26T06:24:48.000Z</Time>
            <Position>
              <LatitudeDegrees>42.85227703861892223358154296875</LatitudeDegrees>
              <LongitudeDegrees>-1.7524091899394989013671875</LongitudeDegrees>
            </Position>
            <AltitudeMeters>432.79998779296875</AltitudeMeters>
            <DistanceMeters>17679.44981405</DistanceMeters>
          </Trackpoint>
          <Trackpoint>
            <Time>2018-08-26T06:24:49.000Z</Time>
            <Position>
              <LatitudeDegrees>42.852315008640289306640625</LatitudeDegrees>
              <LongitudeDegrees>-1.75242251716554164886474609375</LongitudeDegrees>
            </Position>
            <AltitudeMeters>433</AltitudeMeters>
            <DistanceMeters>17683.812771893</DistanceMeters>
          </Trackpoint>
          <Trackpoint>
            <Time>2018-08-26T06:24:50.000Z</Time>
            <Position>
              <LatitudeDegrees>42.85235314629971981048583984375</LatitudeDegrees>
              <LongitudeDegrees>-1.752435676753520965576171875</LongitudeDegrees>
            </Position>
            <AltitudeMeters>433.20001220703125</AltitudeMeters>
            <DistanceMeters>17688.192256152</DistanceMeters>
          </Trackpoint>
          <Trackpoint>
            <Time>2018-08-26T06:24:51.000Z</Time>
            <Position>
              <LatitudeDegrees>42.8523932956159114837646484375</LatitudeDegrees>
              <LongitudeDegrees>-1.752450428903102874755859375</LongitudeDegrees>
            </Position>
            <AltitudeMeters>433.399993896484375</AltitudeMeters>
            <DistanceMeters>17692.820359578</DistanceMeters>
          </Trackpoint>
          <Trackpoint>
            <Time>2018-08-26T06:24:52.000Z</Time>
            <Position>
              <LatitudeDegrees>42.8524311818182468414306640625</LatitudeDegrees>
              <LongitudeDegrees>-1.75246526487171649932861328125</LongitudeDegrees>
            </Position>
            <AltitudeMeters>433.79998779296875</AltitudeMeters>
            <DistanceMeters>17697.207054564</DistanceMeters>
          </Trackpoint>
          <Trackpoint>
            <Time>2018-08-26T06:24:53.000Z</Time>
            <Position>
              <LatitudeDegrees>42.85246999002993106842041015625</LatitudeDegrees>
              <LongitudeDegrees>-1.75247850827872753143310546875</LongitudeDegrees>
            </Position>
            <AltitudeMeters>434</AltitudeMeters>
            <DistanceMeters>17701.660148755</DistanceMeters>
          </Trackpoint>
          <Trackpoint>
            <Time>2018-08-26T06:24:54.000Z</Time>
            <Position>
              <LatitudeDegrees>42.8525103069841861724853515625</LatitudeDegrees>
              <LongitudeDegrees>-1.7524911649525165557861328125</LongitudeDegrees>
            </Position>
            <AltitudeMeters>434</AltitudeMeters>
            <DistanceMeters>17706.264778978</DistanceMeters>
          </Trackpoint>
          <Trackpoint>
            <Time>2018-08-26T06:24:55.000Z</Time>
            <Position>
              <LatitudeDegrees>42.852547354996204376220703125</LatitudeDegrees>
              <LongitudeDegrees>-1.7525025643408298492431640625</LongitudeDegrees>
            </Position>
            <AltitudeMeters>434.20001220703125</AltitudeMeters>
            <DistanceMeters>17710.491064724</DistanceMeters>
          </Trackpoint>
          <Trackpoint>
            <Time>2018-08-26T06:24:56.000Z</Time>
            <Position>
              <LatitudeDegrees>42.85258465446531772613525390625</LatitudeDegrees>
              <LongitudeDegrees>-1.7525139637291431427001953125</LongitudeDegrees>
            </Position>
            <AltitudeMeters>434.600006103515625</AltitudeMeters>
            <DistanceMeters>17714.745036185</DistanceMeters>
          </Trackpoint>
          <Trackpoint>
            <Time>2018-08-26T06:24:57.000Z</Time>
            <Position>
              <LatitudeDegrees>42.852621786296367645263671875</LatitudeDegrees>
              <LongitudeDegrees>-1.75252427347004413604736328125</LongitudeDegrees>
            </Position>
            <AltitudeMeters>435</AltitudeMeters>
            <DistanceMeters>17718.962766688</DistanceMeters>
          </Trackpoint>
          <Trackpoint>
            <Time>2018-08-26T06:24:58.000Z</Time>
            <Position>
              <LatitudeDegrees>42.8526588343083858489990234375</LatitudeDegrees>
              <LongitudeDegrees>-1.75253315828740596771240234375</LongitudeDegrees>
            </Position>
            <AltitudeMeters>435.20001220703125</AltitudeMeters>
            <DistanceMeters>17723.148259287</DistanceMeters>
          </Trackpoint>
          <Trackpoint>
            <Time>2018-08-26T06:24:59.000Z</Time>
            <Position>
              <LatitudeDegrees>42.85269613377749919891357421875</LatitudeDegrees>
              <LongitudeDegrees>-1.75253902561962604522705078125</LongitudeDegrees>
            </Position>
            <AltitudeMeters>435.600006103515625</AltitudeMeters>
            <DistanceMeters>17727.327274464</DistanceMeters>
          </Trackpoint>
          <Trackpoint>
            <Time>2018-08-26T06:25:00.000Z</Time>
            <Position>
              <LatitudeDegrees>42.8527336008846759796142578125</LatitudeDegrees>
              <LongitudeDegrees>-1.75253869034349918365478515625</LongitudeDegrees>
            </Position>
            <AltitudeMeters>435.79998779296875</AltitudeMeters>
            <DistanceMeters>17731.497637425</DistanceMeters>
          </Trackpoint>
          <Trackpoint>
            <Time>2018-08-26T06:25:01.000Z</Time>
            <Position>
              <LatitudeDegrees>42.85277031362056732177734375</LatitudeDegrees>
              <LongitudeDegrees>-1.75252854824066162109375</LongitudeDegrees>
            </Position>
            <AltitudeMeters>436</AltitudeMeters>
            <DistanceMeters>17735.666917597</DistanceMeters>
          </Trackpoint>
          <Trackpoint>
            <Time>2018-08-26T06:25:02.000Z</Time>
            <Position>
              <LatitudeDegrees>42.85280593670904636383056640625</LatitudeDegrees>
              <LongitudeDegrees>-1.75250750966370105743408203125</LongitudeDegrees>
            </Position>
            <AltitudeMeters>436.399993896484375</AltitudeMeters>
            <DistanceMeters>17739.98619276</DistanceMeters>
          </Trackpoint>
          <Trackpoint>
            <Time>2018-08-26T06:25:03.000Z</Time>
            <Position>
              <LatitudeDegrees>42.8528382070362567901611328125</LatitudeDegrees>
              <LongitudeDegrees>-1.75247632898390293121337890625</LongitudeDegrees>
            </Position>
            <AltitudeMeters>436.79998779296875</AltitudeMeters>
            <DistanceMeters>17744.388299534</DistanceMeters>
          </Trackpoint>
          <Trackpoint>
            <Time>2018-08-26T06:25:04.000Z</Time>
            <Position>
              <LatitudeDegrees>42.8528687171638011932373046875</LatitudeDegrees>
              <LongitudeDegrees>-1.75243911333382129669189453125</LongitudeDegrees>
            </Position>
            <AltitudeMeters>437.20001220703125</AltitudeMeters>
            <DistanceMeters>17748.943638783</DistanceMeters>
          </Trackpoint>
          <Trackpoint>
            <Time>2018-08-26T06:25:05.000Z</Time>
            <Position>
              <LatitudeDegrees>42.8528982214629650115966796875</LatitudeDegrees>
              <LongitudeDegrees>-1.75240105949342250823974609375</LongitudeDegrees>
            </Position>
            <AltitudeMeters>437.399993896484375</AltitudeMeters>
            <DistanceMeters>17753.464154571</DistanceMeters>
          </Trackpoint>
          <Trackpoint>
            <Time>2018-08-26T06:25:06.000Z</Time>
            <Position>
              <LatitudeDegrees>42.8529273904860019683837890625</LatitudeDegrees>
              <LongitudeDegrees>-1.75236267037689685821533203125</LongitudeDegrees>
            </Position>
            <AltitudeMeters>437.600006103515625</AltitudeMeters>
            <DistanceMeters>17757.976672979</DistanceMeters>
          </Trackpoint>
          <Trackpoint>
            <Time>2018-08-26T06:25:07.000Z</Time>
            <Position>
              <LatitudeDegrees>42.85295563749969005584716796875</LatitudeDegrees>
              <LongitudeDegrees>-1.75232377834618091583251953125</LongitudeDegrees>
            </Position>
            <AltitudeMeters>438</AltitudeMeters>
            <DistanceMeters>17762.443939362</DistanceMeters>
          </Trackpoint>
          <Trackpoint>
            <Time>2018-08-26T06:25:08.000Z</Time>
            <Position>
              <LatitudeDegrees>42.8529820404946804046630859375</LatitudeDegrees>
              <LongitudeDegrees>-1.7522832937538623809814453125</LongitudeDegrees>
            </Position>
            <AltitudeMeters>438.20001220703125</AltitudeMeters>
            <DistanceMeters>17766.865490617</DistanceMeters>
          </Trackpoint>
          <Trackpoint>
            <Time>2018-08-26T06:25:09.000Z</Time>
            <Position>
              <LatitudeDegrees>42.8530075214803218841552734375</LatitudeDegrees>
              <LongitudeDegrees>-1.7522423900663852691650390625</LongitudeDegrees>
            </Position>
            <AltitudeMeters>438.600006103515625</AltitudeMeters>
            <DistanceMeters>17771.244974875</DistanceMeters>
          </Trackpoint>
          <Trackpoint>
            <Time>2018-08-26T06:25:10.000Z</Time>
            <Position>
              <LatitudeDegrees>42.85303375683724880218505859375</LatitudeDegrees>
              <LongitudeDegrees>-1.75220224075019359588623046875</LongitudeDegrees>
            </Position>
            <AltitudeMeters>438.79998779296875</AltitudeMeters>
            <DistanceMeters>17775.632698998</DistanceMeters>
          </Trackpoint>
          <Trackpoint>
            <Time>2018-08-26T06:25:11.000Z</Time>
            <Position>
              <LatitudeDegrees>42.8530620038509368896484375</LatitudeDegrees>
              <LongitudeDegrees>-1.75216334871947765350341796875</LongitudeDegrees>
            </Position>
            <AltitudeMeters>439.20001220703125</AltitudeMeters>
            <DistanceMeters>17780.099965382</DistanceMeters>
          </Trackpoint>
          <Trackpoint>
            <Time>2018-08-26T06:25:12.000Z</Time>
            <Position>
              <LatitudeDegrees>42.85309125669300556182861328125</LatitudeDegrees>
              <LongitudeDegrees>-1.752127222716808319091796875</LongitudeDegrees>
            </Position>
            <AltitudeMeters>439.600006103515625</AltitudeMeters>
            <DistanceMeters>17784.49180364</DistanceMeters>
          </Trackpoint>
          <Trackpoint>
            <Time>2018-08-26T06:25:13.000Z</Time>
            <Position>
              <LatitudeDegrees>42.85312235355377197265625</LatitudeDegrees>
              <LongitudeDegrees>-1.75209361128509044647216796875</LongitudeDegrees>
            </Position>
            <AltitudeMeters>439.79998779296875</AltitudeMeters>
            <DistanceMeters>17788.907223783</DistanceMeters>
          </Trackpoint>
          <Trackpoint>
            <Time>2018-08-26T06:25:14.000Z</Time>
            <Position>
              <LatitudeDegrees>42.85315454006195068359375</LatitudeDegrees>
              <LongitudeDegrees>-1.75206519663333892822265625</LongitudeDegrees>
            </Position>
            <AltitudeMeters>440.20001220703125</AltitudeMeters>
            <DistanceMeters>17793.173912676</DistanceMeters>
          </Trackpoint>
          <Trackpoint>
            <Time>2018-08-26T06:25:15.000Z</Time>
            <Position>
              <LatitudeDegrees>42.85318831913173198699951171875</LatitudeDegrees>
              <LongitudeDegrees>-1.75203996710479259490966796875</LongitudeDegrees>
            </Position>
            <AltitudeMeters>440.399993896484375</AltitudeMeters>
            <DistanceMeters>17797.459606959</DistanceMeters>
          </Trackpoint>
          <Trackpoint>
            <Time>2018-08-26T06:25:16.000Z</Time>
            <Position>
              <LatitudeDegrees>42.85322251729667186737060546875</LatitudeDegrees>
              <LongitudeDegrees>-1.75201750360429286956787109375</LongitudeDegrees>
            </Position>
            <AltitudeMeters>440.600006103515625</AltitudeMeters>
            <DistanceMeters>17801.683755519</DistanceMeters>
          </Trackpoint>
          <Trackpoint>
            <Time>2018-08-26T06:25:17.000Z</Time>
            <Position>
              <LatitudeDegrees>42.85325621254742145538330078125</LatitudeDegrees>
              <LongitudeDegrees>-1.7519988119602203369140625</LongitudeDegrees>
            </Position>
            <AltitudeMeters>440.79998779296875</AltitudeMeters>
            <DistanceMeters>17805.731045806</DistanceMeters>
          </Trackpoint>
          <Trackpoint>
            <Time>2018-08-26T06:25:18.000Z</Time>
            <Position>
              <LatitudeDegrees>42.85328890196979045867919921875</LatitudeDegrees>
              <LongitudeDegrees>-1.75198213197290897369384765625</LongitudeDegrees>
            </Position>
            <AltitudeMeters>441</AltitudeMeters>
            <DistanceMeters>17809.615535185</DistanceMeters>
          </Trackpoint>
          <Trackpoint>
            <Time>2018-08-26T06:25:19.000Z</Time>
            <Position>
              <LatitudeDegrees>42.8533220104873180389404296875</LatitudeDegrees>
              <LongitudeDegrees>-1.75196788273751735687255859375</LongitudeDegrees>
            </Position>
            <AltitudeMeters>441.399993896484375</AltitudeMeters>
            <DistanceMeters>17813.48021453</DistanceMeters>
          </Trackpoint>
          <Trackpoint>
            <Time>2018-08-26T06:25:20.000Z</Time>
            <Position>
              <LatitudeDegrees>42.85335838794708251953125</LatitudeDegrees>
              <LongitudeDegrees>-1.751956902444362640380859375</LongitudeDegrees>
            </Position>
            <AltitudeMeters>441.600006103515625</AltitudeMeters>
            <DistanceMeters>17817.626690811</DistanceMeters>
          </Trackpoint>
          <Trackpoint>
            <Time>2018-08-26T06:25:21.000Z</Time>
            <Position>
              <LatitudeDegrees>42.85339434631168842315673828125</LatitudeDegrees>
              <LongitudeDegrees>-1.75194608978927135467529296875</LongitudeDegrees>
            </Position>
            <AltitudeMeters>442</AltitudeMeters>
            <DistanceMeters>17821.724976085</DistanceMeters>
          </Trackpoint>
          <Trackpoint>
            <Time>2018-08-26T06:25:22.000Z</Time>
            <Position>
              <LatitudeDegrees>42.8534296341240406036376953125</LatitudeDegrees>
              <LongitudeDegrees>-1.751935780048370361328125</LongitudeDegrees>
            </Position>
            <AltitudeMeters>442.20001220703125</AltitudeMeters>
            <DistanceMeters>17825.740908919</DistanceMeters>
          </Trackpoint>
          <Trackpoint>
            <Time>2018-08-26T06:25:23.000Z</Time>
            <Position>
              <LatitudeDegrees>42.85346567630767822265625</LatitudeDegrees>
              <LongitudeDegrees>-1.75192832015454769134521484375</LongitudeDegrees>
            </Position>
            <AltitudeMeters>442.600006103515625</AltitudeMeters>
            <DistanceMeters>17829.799339581</DistanceMeters>
          </Trackpoint>
          <Trackpoint>
            <Time>2018-08-26T06:25:24.000Z</Time>
            <Position>
              <LatitudeDegrees>42.85350146703422069549560546875</LatitudeDegrees>
              <LongitudeDegrees>-1.75192169845104217529296875</LongitudeDegrees>
            </Position>
            <AltitudeMeters>442.79998779296875</AltitudeMeters>
            <DistanceMeters>17833.819767025</DistanceMeters>
          </Trackpoint>
          <Trackpoint>
            <Time>2018-08-26T06:25:25.000Z</Time>
            <Position>
              <LatitudeDegrees>42.85353583283722400665283203125</LatitudeDegrees>
              <LongitudeDegrees>-1.7519156634807586669921875</LongitudeDegrees>
            </Position>
            <AltitudeMeters>443.20001220703125</AltitudeMeters>
            <DistanceMeters>17837.67625972</DistanceMeters>
          </Trackpoint>
          <Trackpoint>
            <Time>2018-08-26T06:25:26.000Z</Time>
            <Position>
              <LatitudeDegrees>42.85356961190700531005859375</LatitudeDegrees>
              <LongitudeDegrees>-1.7519087903201580047607421875</LongitudeDegrees>
            </Position>
            <AltitudeMeters>443.600006103515625</AltitudeMeters>
            <DistanceMeters>17841.477328294</DistanceMeters>
          </Trackpoint>
          <Trackpoint>
            <Time>2018-08-26T06:25:27.000Z</Time>
            <Position>
              <LatitudeDegrees>42.85360439680516719818115234375</LatitudeDegrees>
              <LongitudeDegrees>-1.75189948640763759613037109375</LongitudeDegrees>
            </Position>
            <AltitudeMeters>444</AltitudeMeters>
            <DistanceMeters>17845.422940007</DistanceMeters>
          </Trackpoint>
          <Trackpoint>
            <Time>2018-08-26T06:25:28.000Z</Time>
            <Position>
              <LatitudeDegrees>42.853639684617519378662109375</LatitudeDegrees>
              <LongitudeDegrees>-1.75188976339995861053466796875</LongitudeDegrees>
            </Position>
            <AltitudeMeters>444.20001220703125</AltitudeMeters>
            <DistanceMeters>17849.429868497</DistanceMeters>
          </Trackpoint>
          <Trackpoint>
            <Time>2018-08-26T06:25:29.000Z</Time>
            <Position>
              <LatitudeDegrees>42.8536760620772838592529296875</LatitudeDegrees>
              <LongitudeDegrees>-1.75188255496323108673095703125</LongitudeDegrees>
            </Position>
            <AltitudeMeters>444.600006103515625</AltitudeMeters>
            <DistanceMeters>17853.521538294</DistanceMeters>
          </Trackpoint>
          <Trackpoint>
            <Time>2018-08-26T06:25:30.000Z</Time>
            <Position>
              <LatitudeDegrees>42.853710763156414031982421875</LatitudeDegrees>
              <LongitudeDegrees>-1.75187568180263042449951171875</LongitudeDegrees>
            </Position>
            <AltitudeMeters>444.79998779296875</AltitudeMeters>
            <DistanceMeters>17857.424580563</DistanceMeters>
          </Trackpoint>
          <Trackpoint>
            <Time>2018-08-26T06:25:31.000Z</Time>
            <Position>
              <LatitudeDegrees>42.85374571569263935089111328125</LatitudeDegrees>
              <LongitudeDegrees>-1.7518678866326808929443359375</LongitudeDegrees>
            </Position>
            <AltitudeMeters>445</AltitudeMeters>
            <DistanceMeters>17861.365612343</DistanceMeters>
          </Trackpoint>
          <Trackpoint>
            <Time>2018-08-26T06:25:32.000Z</Time>
            <Position>
              <LatitudeDegrees>42.85378058440983295440673828125</LatitudeDegrees>
              <LongitudeDegrees>-1.7518601752817630767822265625</LongitudeDegrees>
            </Position>
            <AltitudeMeters>445.600006103515625</AltitudeMeters>
            <DistanceMeters>17865.297468249</DistanceMeters>
          </Trackpoint>
          <Trackpoint>
            <Time>2018-08-26T06:25:33.000Z</Time>
            <Position>
              <LatitudeDegrees>42.8538152016699314117431640625</LatitudeDegrees>
              <LongitudeDegrees>-1.7518527992069721221923828125</LongitudeDegrees>
            </Position>
            <AltitudeMeters>446.399993896484375</AltitudeMeters>
            <DistanceMeters>17869.197038576</DistanceMeters>
          </Trackpoint>
          <Trackpoint>
            <Time>2018-08-26T06:25:34.000Z</Time>
            <Position>
              <LatitudeDegrees>42.85384856164455413818359375</LatitudeDegrees>
              <LongitudeDegrees>-1.75184617750346660614013671875</LongitudeDegrees>
            </Position>
            <AltitudeMeters>447</AltitudeMeters>
            <DistanceMeters>17872.949089905</DistanceMeters>
          </Trackpoint>
          <Trackpoint>
            <Time>2018-08-26T06:25:35.000Z</Time>
            <Position>
              <LatitudeDegrees>42.85388250835239887237548828125</LatitudeDegrees>
              <LongitudeDegrees>-1.751840226352214813232421875</LongitudeDegrees>
            </Position>
            <AltitudeMeters>447.399993896484375</AltitudeMeters>
            <DistanceMeters>17876.759649302</DistanceMeters>
          </Trackpoint>
          <Trackpoint>
            <Time>2018-08-26T06:25:36.000Z</Time>
            <Position>
              <LatitudeDegrees>42.85391586832702159881591796875</LatitudeDegrees>
              <LongitudeDegrees>-1.751833856105804443359375</LongitudeDegrees>
            </Position>
            <AltitudeMeters>447.79998779296875</AltitudeMeters>
            <DistanceMeters>17880.510497087</DistanceMeters>
          </Trackpoint>
          <Trackpoint>
            <Time>2018-08-26T06:25:37.000Z</Time>
            <Position>
              <LatitudeDegrees>42.853949479758739471435546875</LatitudeDegrees>
              <LongitudeDegrees>-1.75182648003101348876953125</LongitudeDegrees>
            </Position>
            <AltitudeMeters>448</AltitudeMeters>
            <DistanceMeters>17884.299668704</DistanceMeters>
          </Trackpoint>
          <Trackpoint>
            <Time>2018-08-26T06:25:38.000Z</Time>
            <Position>
              <LatitudeDegrees>42.85398325882852077484130859375</LatitudeDegrees>
              <LongitudeDegrees>-1.751818768680095672607421875</LongitudeDegrees>
            </Position>
            <AltitudeMeters>448.399993896484375</AltitudeMeters>
            <DistanceMeters>17888.112597116</DistanceMeters>
          </Trackpoint>
          <Trackpoint>
            <Time>2018-08-26T06:25:39.000Z</Time>
            <Position>
              <LatitudeDegrees>42.85401712171733379364013671875</LatitudeDegrees>
              <LongitudeDegrees>-1.7518105544149875640869140625</LongitudeDegrees>
            </Position>
            <AltitudeMeters>448.79998779296875</AltitudeMeters>
            <DistanceMeters>17891.942067594</DistanceMeters>
          </Trackpoint>
          <Trackpoint>
            <Time>2018-08-26T06:25:40.000Z</Time>
            <Position>
              <LatitudeDegrees>42.85405165515840053558349609375</LatitudeDegrees>
              <LongitudeDegrees>-1.75180234014987945556640625</LongitudeDegrees>
            </Position>
            <AltitudeMeters>449.20001220703125</AltitudeMeters>
            <DistanceMeters>17895.843952893</DistanceMeters>
          </Trackpoint>
          <Trackpoint>
            <Time>2018-08-26T06:25:41.000Z</Time>
            <Position>
              <LatitudeDegrees>42.85408669151365756988525390625</LatitudeDegrees>
              <LongitudeDegrees>-1.751793958246707916259765625</LongitudeDegrees>
            </Position>
            <AltitudeMeters>449.600006103515625</AltitudeMeters>
            <DistanceMeters>17899.803272621</DistanceMeters>
          </Trackpoint>
          <Trackpoint>
            <Time>2018-08-26T06:25:42.000Z</Time>
            <Position>
              <LatitudeDegrees>42.8541216440498828887939453125</LatitudeDegrees>
              <LongitudeDegrees>-1.7517850734293460845947265625</LongitudeDegrees>
            </Position>
            <AltitudeMeters>450</AltitudeMeters>
            <DistanceMeters>17903.760310977</DistanceMeters>
          </Trackpoint>
          <Trackpoint>
            <Time>2018-08-26T06:25:43.000Z</Time>
            <Position>
              <LatitudeDegrees>42.854156009852886199951171875</LatitudeDegrees>
              <LongitudeDegrees>-1.75177593715488910675048828125</LongitudeDegrees>
            </Position>
            <AltitudeMeters>450.600006103515625</AltitudeMeters>
            <DistanceMeters>17907.657564956</DistanceMeters>
          </Trackpoint>
          <Trackpoint>
            <Time>2018-08-26T06:25:44.000Z</Time>
            <Position>
              <LatitudeDegrees>42.854190208017826080322265625</LatitudeDegrees>
              <LongitudeDegrees>-1.75176772288978099822998046875</LongitudeDegrees>
            </Position>
            <AltitudeMeters>451</AltitudeMeters>
            <DistanceMeters>17911.523412408</DistanceMeters>
          </Trackpoint>
          <Trackpoint>
            <Time>2018-08-26T06:25:45.000Z</Time>
            <Position>
              <LatitudeDegrees>42.85422407090663909912109375</LatitudeDegrees>
              <LongitudeDegrees>-1.7517600953578948974609375</LongitudeDegrees>
            </Position>
            <AltitudeMeters>451.399993896484375</AltitudeMeters>
            <DistanceMeters>17915.343439048</DistanceMeters>
          </Trackpoint>
          <Trackpoint>
            <Time>2018-08-26T06:25:46.000Z</Time>
            <Position>
              <LatitudeDegrees>42.854258604347705841064453125</LatitudeDegrees>
              <LongitudeDegrees>-1.7517520487308502197265625</LongitudeDegrees>
            </Position>
            <AltitudeMeters>451.79998779296875</AltitudeMeters>
            <DistanceMeters>17919.243009374</DistanceMeters>
          </Trackpoint>
          <Trackpoint>
            <Time>2018-08-26T06:25:47.000Z</Time>
            <Position>
              <LatitudeDegrees>42.85429338924586772918701171875</LatitudeDegrees>
              <LongitudeDegrees>-1.75174308009445667266845703125</LongitudeDegrees>
            </Position>
            <AltitudeMeters>452</AltitudeMeters>
            <DistanceMeters>17923.184041154</DistanceMeters>
          </Trackpoint>
          <Trackpoint>
            <Time>2018-08-26T06:25:48.000Z</Time>
            <Position>
              <LatitudeDegrees>42.85432867705821990966796875</LatitudeDegrees>
              <LongitudeDegrees>-1.75173386000096797943115234375</LongitudeDegrees>
            </Position>
            <AltitudeMeters>452.20001220703125</AltitudeMeters>
            <DistanceMeters>17927.183074209</DistanceMeters>
          </Trackpoint>
          <Trackpoint>
            <Time>2018-08-26T06:25:49.000Z</Time>
            <Position>
              <LatitudeDegrees>42.85436362959444522857666015625</LatitudeDegrees>
              <LongitudeDegrees>-1.75172698684036731719970703125</LongitudeDegrees>
            </Position>
            <AltitudeMeters>452.600006103515625</AltitudeMeters>
            <DistanceMeters>17931.1126328</DistanceMeters>
          </Trackpoint>
          <Trackpoint>
            <Time>2018-08-26T06:25:50.000Z</Time>
            <Position>
              <LatitudeDegrees>42.8543989174067974090576171875</LatitudeDegrees>
              <LongitudeDegrees>-1.7517210356891155242919921875</LongitudeDegrees>
            </Position>
            <AltitudeMeters>453</AltitudeMeters>
            <DistanceMeters>17935.069671157</DistanceMeters>
          </Trackpoint>
          <Trackpoint>
            <Time>2018-08-26T06:25:51.000Z</Time>
            <Position>
              <LatitudeDegrees>42.85443521104753017425537109375</LatitudeDegrees>
              <LongitudeDegrees>-1.75171692855656147003173828125</LongitudeDegrees>
            </Position>
            <AltitudeMeters>453.399993896484375</AltitudeMeters>
            <DistanceMeters>17939.122535459</DistanceMeters>
          </Trackpoint>
          <Trackpoint>
            <Time>2018-08-26T06:25:52.000Z</Time>
            <Position>
              <LatitudeDegrees>42.854471504688262939453125</LatitudeDegrees>
              <LongitudeDegrees>-1.75171541981399059295654296875</LongitudeDegrees>
            </Position>
            <AltitudeMeters>453.79998779296875</AltitudeMeters>
            <DistanceMeters>17943.164244044</DistanceMeters>
          </Trackpoint>
          <Trackpoint>
            <Time>2018-08-26T06:25:53.000Z</Time>
            <Position>
              <LatitudeDegrees>42.85451048053801059722900390625</LatitudeDegrees>
              <LongitudeDegrees>-1.75171642564237117767333984375</LongitudeDegrees>
            </Position>
            <AltitudeMeters>454.20001220703125</AltitudeMeters>
            <DistanceMeters>17947.503334892</DistanceMeters>
          </Trackpoint>
          <Trackpoint>
            <Time>2018-08-26T06:25:54.000Z</Time>
            <Position>
              <LatitudeDegrees>42.85454870201647281646728515625</LatitudeDegrees>
              <LongitudeDegrees>-1.7517213709652423858642578125</LongitudeDegrees>
            </Position>
            <AltitudeMeters>454.399993896484375</AltitudeMeters>
            <DistanceMeters>17951.776368307</DistanceMeters>
          </Trackpoint>
          <Trackpoint>
            <Time>2018-08-26T06:25:55.000Z</Time>
            <Position>
              <LatitudeDegrees>42.85458843223750591278076171875</LatitudeDegrees>
              <LongitudeDegrees>-1.75173117779195308685302734375</LongitudeDegrees>
            </Position>
            <AltitudeMeters>454.79998779296875</AltitudeMeters>
            <DistanceMeters>17956.269835891</DistanceMeters>
          </Trackpoint>
          <Trackpoint>
            <Time>2018-08-26T06:25:56.000Z</Time>
            <Position>
              <LatitudeDegrees>42.85462765954434871673583984375</LatitudeDegrees>
              <LongitudeDegrees>-1.75174609757959842681884765625</LongitudeDegrees>
            </Position>
            <AltitudeMeters>455.20001220703125</AltitudeMeters>
            <DistanceMeters>17960.801325032</DistanceMeters>
          </Trackpoint>
          <Trackpoint>
            <Time>2018-08-26T06:25:57.000Z</Time>
            <Position>
              <LatitudeDegrees>42.854666970670223236083984375</LatitudeDegrees>
              <LongitudeDegrees>-1.75176587887108325958251953125</LongitudeDegrees>
            </Position>
            <AltitudeMeters>455.600006103515625</AltitudeMeters>
            <DistanceMeters>17965.465384868</DistanceMeters>
          </Trackpoint>
          <Trackpoint>
            <Time>2018-08-26T06:25:58.000Z</Time>
            <Position>
              <LatitudeDegrees>42.85470477305352687835693359375</LatitudeDegrees>
              <LongitudeDegrees>-1.7517904378473758697509765625</LongitudeDegrees>
            </Position>
            <AltitudeMeters>456</AltitudeMeters>
            <DistanceMeters>17970.1255709</DistanceMeters>
          </Trackpoint>
          <Trackpoint>
            <Time>2018-08-26T06:25:59.000Z</Time>
            <Position>
              <LatitudeDegrees>42.8547425754368305206298828125</LatitudeDegrees>
              <LongitudeDegrees>-1.75181650556623935699462890625</LongitudeDegrees>
            </Position>
            <AltitudeMeters>456.20001220703125</AltitudeMeters>
            <DistanceMeters>17974.840658195</DistanceMeters>
          </Trackpoint>
          <Trackpoint>
            <Time>2018-08-26T06:26:00.000Z</Time>
            <Position>
              <LatitudeDegrees>42.8547807969152927398681640625</LatitudeDegrees>
              <LongitudeDegrees>-1.75184450112283229827880859375</LongitudeDegrees>
            </Position>
            <AltitudeMeters>456.399993896484375</AltitudeMeters>
            <DistanceMeters>17979.669287129</DistanceMeters>
          </Trackpoint>
          <Trackpoint>
            <Time>2018-08-26T06:26:01.000Z</Time>
            <Position>
              <LatitudeDegrees>42.85481893457472324371337890625</LatitudeDegrees>
              <LongitudeDegrees>-1.75187417306005954742431640625</LongitudeDegrees>
            </Position>
            <AltitudeMeters>456.600006103515625</AltitudeMeters>
            <DistanceMeters>17984.555545628</DistanceMeters>
          </Trackpoint>
          <Trackpoint>
            <Time>2018-08-26T06:26:02.000Z</Time>
            <Position>
              <LatitudeDegrees>42.85485698841512203216552734375</LatitudeDegrees>
              <LongitudeDegrees>-1.75190485082566738128662109375</LongitudeDegrees>
            </Position>
            <AltitudeMeters>457</AltitudeMeters>
            <DistanceMeters>17989.474956656</DistanceMeters>
          </Trackpoint>
          <Trackpoint>
            <Time>2018-08-26T06:26:03.000Z</Time>
            <Position>
              <LatitudeDegrees>42.8548931144177913665771484375</LatitudeDegrees>
              <LongitudeDegrees>-1.751932762563228607177734375</LongitudeDegrees>
            </Position>
            <AltitudeMeters>457.399993896484375</AltitudeMeters>
            <DistanceMeters>17994.095248932</DistanceMeters>
          </Trackpoint>
          <Trackpoint>
            <Time>2018-08-26T06:26:04.000Z</Time>
            <Position>
              <LatitudeDegrees>42.85492806695401668548583984375</LatitudeDegrees>
              <LongitudeDegrees>-1.75195346586406230926513671875</LongitudeDegrees>
            </Position>
            <AltitudeMeters>457.600006103515625</AltitudeMeters>
            <DistanceMeters>17998.336464828</DistanceMeters>
          </Trackpoint>
          <Trackpoint>
            <Time>2018-08-26T06:26:05.000Z</Time>
            <Position>
              <LatitudeDegrees>42.85496293567121028900146484375</LatitudeDegrees>
              <LongitudeDegrees>-1.751965619623661041259765625</LongitudeDegrees>
            </Position>
            <AltitudeMeters>457.79998779296875</AltitudeMeters>
            <DistanceMeters>18002.342266351</DistanceMeters>
          </Trackpoint>
          <Trackpoint>
            <Time>2018-08-26T06:26:06.000Z</Time>
            <Position>
              <LatitudeDegrees>42.85500350408256053924560546875</LatitudeDegrees>
              <LongitudeDegrees>-1.75196838565170764923095703125</LongitudeDegrees>
            </Position>
            <AltitudeMeters>458</AltitudeMeters>
            <DistanceMeters>18006.861783241</DistanceMeters>
          </Trackpoint>
          <Trackpoint>
            <Time>2018-08-26T06:26:07.000Z</Time>
            <Position>
              <LatitudeDegrees>42.85504348576068878173828125</LatitudeDegrees>
              <LongitudeDegrees>-1.75196754746139049530029296875</LongitudeDegrees>
            </Position>
            <AltitudeMeters>458</AltitudeMeters>
            <DistanceMeters>18011.312849149</DistanceMeters>
          </Trackpoint>
          <Trackpoint>
            <Time>2018-08-26T06:26:08.000Z</Time>
            <Position>
              <LatitudeDegrees>42.85508581437170505523681640625</LatitudeDegrees>
              <LongitudeDegrees>-1.75196587108075618743896484375</LongitudeDegrees>
            </Position>
            <AltitudeMeters>458.20001220703125</AltitudeMeters>
            <DistanceMeters>18016.02602091</DistanceMeters>
          </Trackpoint>
          <Trackpoint>
            <Time>2018-08-26T06:26:09.000Z</Time>
            <Position>
              <LatitudeDegrees>42.85513208247721195220947265625</LatitudeDegrees>
              <LongitudeDegrees>-1.75196520052850246429443359375</LongitudeDegrees>
            </Position>
            <AltitudeMeters>458.399993896484375</AltitudeMeters>
            <DistanceMeters>18021.176784406</DistanceMeters>
          </Trackpoint>
          <Trackpoint>
            <Time>2018-08-26T06:26:10.000Z</Time>
            <Position>
              <LatitudeDegrees>42.85518187098205089569091796875</LatitudeDegrees>
              <LongitudeDegrees>-1.75196620635688304901123046875</LongitudeDegrees>
            </Position>
            <AltitudeMeters>458.399993896484375</AltitudeMeters>
            <DistanceMeters>18026.719375863</DistanceMeters>
          </Trackpoint>
          <Trackpoint>
            <Time>2018-08-26T06:26:11.000Z</Time>
            <Position>
              <LatitudeDegrees>42.85523601807653903961181640625</LatitudeDegrees>
              <LongitudeDegrees>-1.75197190605103969573974609375</LongitudeDegrees>
            </Position>
            <AltitudeMeters>458.600006103515625</AltitudeMeters>
            <DistanceMeters>18032.763851795</DistanceMeters>
          </Trackpoint>
          <Trackpoint>
            <Time>2018-08-26T06:26:12.000Z</Time>
            <Position>
              <LatitudeDegrees>42.85528882406651973724365234375</LatitudeDegrees>
              <LongitudeDegrees>-1.75198028795421123504638671875</LongitudeDegrees>
            </Position>
            <AltitudeMeters>458.79998779296875</AltitudeMeters>
            <DistanceMeters>18038.681506436</DistanceMeters>
          </Trackpoint>
          <Trackpoint>
            <Time>2018-08-26T06:26:13.000Z</Time>
            <Position>
              <LatitudeDegrees>42.85533986985683441162109375</LatitudeDegrees>
              <LongitudeDegrees>-1.75198934040963649749755859375</LongitudeDegrees>
            </Position>
            <AltitudeMeters>459</AltitudeMeters>
            <DistanceMeters>18044.410758384</DistanceMeters>
          </Trackpoint>
          <Trackpoint>
            <Time>2018-08-26T06:26:14.000Z</Time>
            <Position>
              <LatitudeDegrees>42.8553909994661808013916015625</LatitudeDegrees>
              <LongitudeDegrees>-1.75199839286506175994873046875</LongitudeDegrees>
            </Position>
            <AltitudeMeters>459</AltitudeMeters>
            <DistanceMeters>18050.148672527</DistanceMeters>
          </Trackpoint>
          <Trackpoint>
            <Time>2018-08-26T06:26:15.000Z</Time>
            <Position>
              <LatitudeDegrees>42.8554443083703517913818359375</LatitudeDegrees>
              <LongitudeDegrees>-1.75201113335788249969482421875</LongitudeDegrees>
            </Position>
            <AltitudeMeters>459</AltitudeMeters>
            <DistanceMeters>18056.172946527</DistanceMeters>
          </Trackpoint>
          <Trackpoint>
            <Time>2018-08-26T06:26:16.000Z</Time>
            <Position>
              <LatitudeDegrees>42.85549954511225223541259765625</LatitudeDegrees>
              <LongitudeDegrees>-1.75202764570713043212890625</LongitudeDegrees>
            </Position>
            <AltitudeMeters>459</AltitudeMeters>
            <DistanceMeters>18062.466269598</DistanceMeters>
          </Trackpoint>
          <Trackpoint>
            <Time>2018-08-26T06:26:17.000Z</Time>
            <Position>
              <LatitudeDegrees>42.855555117130279541015625</LatitudeDegrees>
              <LongitudeDegrees>-1.7520509473979473114013671875</LongitudeDegrees>
            </Position>
            <AltitudeMeters>459.20001220703125</AltitudeMeters>
            <DistanceMeters>18068.936465453</DistanceMeters>
          </Trackpoint>
          <Trackpoint>
            <Time>2018-08-26T06:26:18.000Z</Time>
            <Position>
              <LatitudeDegrees>42.8556085936725139617919921875</LatitudeDegrees>
              <LongitudeDegrees>-1.75207768566906452178955078125</LongitudeDegrees>
            </Position>
            <AltitudeMeters>459.20001220703125</AltitudeMeters>
            <DistanceMeters>18075.275537954</DistanceMeters>
          </Trackpoint>
          <Trackpoint>
            <Time>2018-08-26T06:26:19.000Z</Time>
            <Position>
              <LatitudeDegrees>42.85565712489187717437744140625</LatitudeDegrees>
              <LongitudeDegrees>-1.752111800014972686767578125</LongitudeDegrees>
            </Position>
            <AltitudeMeters>459.20001220703125</AltitudeMeters>
            <DistanceMeters>18081.352048678</DistanceMeters>
          </Trackpoint>
          <Trackpoint>
            <Time>2018-08-26T06:26:20.000Z</Time>
            <Position>
              <LatitudeDegrees>42.855701632797718048095703125</LatitudeDegrees>
              <LongitudeDegrees>-1.7521516978740692138671875</LongitudeDegrees>
            </Position>
            <AltitudeMeters>459.20001220703125</AltitudeMeters>
            <DistanceMeters>18087.280375383</DistanceMeters>
          </Trackpoint>
          <Trackpoint>
            <Time>2018-08-26T06:26:21.000Z</Time>
            <Position>
              <LatitudeDegrees>42.85574412904679775238037109375</LatitudeDegrees>
              <LongitudeDegrees>-1.752194277942180633544921875</LongitudeDegrees>
            </Position>
            <AltitudeMeters>459.399993896484375</AltitudeMeters>
            <DistanceMeters>18093.148996308</DistanceMeters>
          </Trackpoint>
          <Trackpoint>
            <Time>2018-08-26T06:26:22.000Z</Time>
            <Position>
              <LatitudeDegrees>42.85578687675297260284423828125</LatitudeDegrees>
              <LongitudeDegrees>-1.75223493017256259918212890625</LongitudeDegrees>
            </Position>
            <AltitudeMeters>459.399993896484375</AltitudeMeters>
            <DistanceMeters>18098.947962136</DistanceMeters>
          </Trackpoint>
          <Trackpoint>
            <Time>2018-08-26T06:26:23.000Z</Time>
            <Position>
              <LatitudeDegrees>42.8558335639536380767822265625</LatitudeDegrees>
              <LongitudeDegrees>-1.752269379794597625732421875</LongitudeDegrees>
            </Position>
            <AltitudeMeters>459.399993896484375</AltitudeMeters>
            <DistanceMeters>18104.855689741</DistanceMeters>
          </Trackpoint>
          <Trackpoint>
            <Time>2018-08-26T06:26:24.000Z</Time>
            <Position>
              <LatitudeDegrees>42.85588025115430355072021484375</LatitudeDegrees>
              <LongitudeDegrees>-1.7522884905338287353515625</LongitudeDegrees>
            </Position>
            <AltitudeMeters>459.600006103515625</AltitudeMeters>
            <DistanceMeters>18110.280541733</DistanceMeters>
          </Trackpoint>
          <Trackpoint>
            <Time>2018-08-26T06:26:25.000Z</Time>
            <Position>
              <LatitudeDegrees>42.85593356005847454071044921875</LatitudeDegrees>
              <LongitudeDegrees>-1.7522956989705562591552734375</LongitudeDegrees>
            </Position>
            <AltitudeMeters>459.600006103515625</AltitudeMeters>
            <DistanceMeters>18116.24228484</DistanceMeters>
          </Trackpoint>
          <Trackpoint>
            <Time>2018-08-26T06:26:26.000Z</Time>
            <Position>
              <LatitudeDegrees>42.85598988644778728485107421875</LatitudeDegrees>
              <LongitudeDegrees>-1.75229712389409542083740234375</LongitudeDegrees>
            </Position>
            <AltitudeMeters>459.79998779296875</AltitudeMeters>
            <DistanceMeters>18122.513328048</DistanceMeters>
          </Trackpoint>
          <Trackpoint>
            <Time>2018-08-26T06:26:27.000Z</Time>
            <Position>
              <LatitudeDegrees>42.8560473024845123291015625</LatitudeDegrees>
              <LongitudeDegrees>-1.752295196056365966796875</LongitudeDegrees>
            </Position>
            <AltitudeMeters>459.79998779296875</AltitudeMeters>
            <DistanceMeters>18128.906302785</DistanceMeters>
          </Trackpoint>
          <Trackpoint>
            <Time>2018-08-26T06:26:28.000Z</Time>
            <Position>
              <LatitudeDegrees>42.8561074845492839813232421875</LatitudeDegrees>
              <LongitudeDegrees>-1.752297878265380859375</LongitudeDegrees>
            </Position>
            <AltitudeMeters>460</AltitudeMeters>
            <DistanceMeters>18135.608212978</DistanceMeters>
          </Trackpoint>
          <Trackpoint>
            <Time>2018-08-26T06:26:29.000Z</Time>
            <Position>
              <LatitudeDegrees>42.85616674460470676422119140625</LatitudeDegrees>
              <LongitudeDegrees>-1.752303577959537506103515625</LongitudeDegrees>
            </Position>
            <AltitudeMeters>460.20001220703125</AltitudeMeters>
            <DistanceMeters>18142.21991473</DistanceMeters>
          </Trackpoint>
          <Trackpoint>
            <Time>2018-08-26T06:26:30.000Z</Time>
            <Position>
              <LatitudeDegrees>42.856227345764636993408203125</LatitudeDegrees>
              <LongitudeDegrees>-1.75231464207172393798828125</LongitudeDegrees>
            </Position>
            <AltitudeMeters>460.20001220703125</AltitudeMeters>
            <DistanceMeters>18149.025446457</DistanceMeters>
          </Trackpoint>
          <Trackpoint>
            <Time>2018-08-26T06:26:31.000Z</Time>
            <Position>
              <LatitudeDegrees>42.8562902100384235382080078125</LatitudeDegrees>
              <LongitudeDegrees>-1.75232696346938610076904296875</LongitudeDegrees>
            </Position>
            <AltitudeMeters>460.20001220703125</AltitudeMeters>
            <DistanceMeters>18156.094565429</DistanceMeters>
          </Trackpoint>
          <Trackpoint>
            <Time>2018-08-26T06:26:32.000Z</Time>
            <Position>
              <LatitudeDegrees>42.85635751672089099884033203125</LatitudeDegrees>
              <LongitudeDegrees>-1.75234054215252399444580078125</LongitudeDegrees>
            </Position>
            <AltitudeMeters>460.20001220703125</AltitudeMeters>
            <DistanceMeters>18163.66754473</DistanceMeters>
          </Trackpoint>
          <Trackpoint>
            <Time>2018-08-26T06:26:33.000Z</Time>
            <Position>
              <LatitudeDegrees>42.8564321994781494140625</LatitudeDegrees>
              <LongitudeDegrees>-1.752357892692089080810546875</LongitudeDegrees>
            </Position>
            <AltitudeMeters>460.20001220703125</AltitudeMeters>
            <DistanceMeters>18172.099258188</DistanceMeters>
          </Trackpoint>
          <Trackpoint>
            <Time>2018-08-26T06:26:34.000Z</Time>
            <Position>
              <LatitudeDegrees>42.85651291720569133758544921875</LatitudeDegrees>
              <LongitudeDegrees>-1.7523770034313201904296875</LongitudeDegrees>
            </Position>
            <AltitudeMeters>460.20001220703125</AltitudeMeters>
            <DistanceMeters>18181.217367303</DistanceMeters>
          </Trackpoint>
          <Trackpoint>
            <Time>2018-08-26T06:26:35.000Z</Time>
            <Position>
              <LatitudeDegrees>42.85659841261804103851318359375</LatitudeDegrees>
              <LongitudeDegrees>-1.75239904783666133880615234375</LongitudeDegrees>
            </Position>
            <AltitudeMeters>460.20001220703125</AltitudeMeters>
            <DistanceMeters>18190.901703828</DistanceMeters>
          </Trackpoint>
          <Trackpoint>
            <Time>2018-08-26T06:26:36.000Z</Time>
            <Position>
              <LatitudeDegrees>42.85668902099132537841796875</LatitudeDegrees>
              <LongitudeDegrees>-1.75242620520293712615966796875</LongitudeDegrees>
            </Position>
            <AltitudeMeters>460.20001220703125</AltitudeMeters>
            <DistanceMeters>18201.22687126</DistanceMeters>
          </Trackpoint>
          <Trackpoint>
            <Time>2018-08-26T06:26:37.000Z</Time>
            <Position>
              <LatitudeDegrees>42.85678063519299030303955078125</LatitudeDegrees>
              <LongitudeDegrees>-1.75245939753949642181396484375</LongitudeDegrees>
            </Position>
            <AltitudeMeters>460.20001220703125</AltitudeMeters>
            <DistanceMeters>18211.77697658</DistanceMeters>
          </Trackpoint>
          <Trackpoint>
            <Time>2018-08-26T06:26:38.000Z</Time>
            <Position>
              <LatitudeDegrees>42.8568749316036701202392578125</LatitudeDegrees>
              <LongitudeDegrees>-1.7525015585124492645263671875</LongitudeDegrees>
            </Position>
            <AltitudeMeters>460.20001220703125</AltitudeMeters>
            <DistanceMeters>18222.821354</DistanceMeters>
          </Trackpoint>
          <Trackpoint>
            <Time>2018-08-26T06:26:39.000Z</Time>
            <Position>
              <LatitudeDegrees>42.85697358660399913787841796875</LatitudeDegrees>
              <LongitudeDegrees>-1.752549670636653900146484375</LongitudeDegrees>
            </Position>
            <AltitudeMeters>460.20001220703125</AltitudeMeters>
            <DistanceMeters>18234.482568395</DistanceMeters>
          </Trackpoint>
          <Trackpoint>
            <Time>2018-08-26T06:26:40.000Z</Time>
            <Position>
              <LatitudeDegrees>42.857073247432708740234375</LatitudeDegrees>
              <LongitudeDegrees>-1.7526028119027614593505859375</LongitudeDegrees>
            </Position>
            <AltitudeMeters>460</AltitudeMeters>
            <DistanceMeters>18246.392035667</DistanceMeters>
          </Trackpoint>
          <Trackpoint>
            <Time>2018-08-26T06:26:41.000Z</Time>
            <Position>
              <LatitudeDegrees>42.8571733273565769195556640625</LatitudeDegrees>
              <LongitudeDegrees>-1.752661652863025665283203125</LongitudeDegrees>
            </Position>
            <AltitudeMeters>459.600006103515625</AltitudeMeters>
            <DistanceMeters>18258.521256806</DistanceMeters>
          </Trackpoint>
          <Trackpoint>
            <Time>2018-08-26T06:26:42.000Z</Time>
            <Position>
              <LatitudeDegrees>42.85727499984204769134521484375</LatitudeDegrees>
              <LongitudeDegrees>-1.75272367894649505615234375</LongitudeDegrees>
            </Position>
            <AltitudeMeters>458.79998779296875</AltitudeMeters>
            <DistanceMeters>18270.917782163</DistanceMeters>
          </Trackpoint>
          <Trackpoint>
            <Time>2018-08-26T06:26:43.000Z</Time>
            <Position>
              <LatitudeDegrees>42.8573785163462162017822265625</LatitudeDegrees>
              <LongitudeDegrees>-1.75278461538255214691162109375</LongitudeDegrees>
            </Position>
            <AltitudeMeters>458.399993896484375</AltitudeMeters>
            <DistanceMeters>18283.465627112</DistanceMeters>
          </Trackpoint>
          <Trackpoint>
            <Time>2018-08-26T06:26:44.000Z</Time>
            <Position>
              <LatitudeDegrees>42.8574851341545581817626953125</LatitudeDegrees>
              <LongitudeDegrees>-1.75284161232411861419677734375</LongitudeDegrees>
            </Position>
            <AltitudeMeters>457.79998779296875</AltitudeMeters>
            <DistanceMeters>18296.210902517</DistanceMeters>
          </Trackpoint>
          <Trackpoint>
            <Time>2018-08-26T06:26:45.000Z</Time>
            <Position>
              <LatitudeDegrees>42.857598960399627685546875</LatitudeDegrees>
              <LongitudeDegrees>-1.7528879642486572265625</LongitudeDegrees>
            </Position>
            <AltitudeMeters>457.20001220703125</AltitudeMeters>
            <DistanceMeters>18309.432257206</DistanceMeters>
          </Trackpoint>
          <Trackpoint>
            <Time>2018-08-26T06:26:46.000Z</Time>
            <Position>
              <LatitudeDegrees>42.857719995081424713134765625</LatitudeDegrees>
              <LongitudeDegrees>-1.7529183067381381988525390625</LongitudeDegrees>
            </Position>
            <AltitudeMeters>456.79998779296875</AltitudeMeters>
            <DistanceMeters>18323.129295871</DistanceMeters>
          </Trackpoint>
          <Trackpoint>
            <Time>2018-08-26T06:26:47.000Z</Time>
            <Position>
              <LatitudeDegrees>42.85784698091447353363037109375</LatitudeDegrees>
              <LongitudeDegrees>-1.7529343999922275543212890625</LongitudeDegrees>
            </Position>
            <AltitudeMeters>456</AltitudeMeters>
            <DistanceMeters>18337.32394612</DistanceMeters>
          </Trackpoint>
          <Trackpoint>
            <Time>2018-08-26T06:26:48.000Z</Time>
            <Position>
              <LatitudeDegrees>42.85797807388007640838623046875</LatitudeDegrees>
              <LongitudeDegrees>-1.75294362008571624755859375</LongitudeDegrees>
            </Position>
            <AltitudeMeters>455.20001220703125</AltitudeMeters>
            <DistanceMeters>18351.934593167</DistanceMeters>
          </Trackpoint>
          <Trackpoint>
            <Time>2018-08-26T06:26:49.000Z</Time>
            <Position>
              <LatitudeDegrees>42.85811101086437702178955078125</LatitudeDegrees>
              <LongitudeDegrees>-1.75295376218855381011962890625</LongitudeDegrees>
            </Position>
            <AltitudeMeters>454</AltitudeMeters>
            <DistanceMeters>18366.753886643</DistanceMeters>
          </Trackpoint>
          <Trackpoint>
            <Time>2018-08-26T06:26:50.000Z</Time>
            <Position>
              <LatitudeDegrees>42.85824604332447052001953125</LatitudeDegrees>
              <LongitudeDegrees>-1.75297337584197521209716796875</LongitudeDegrees>
            </Position>
            <AltitudeMeters>453</AltitudeMeters>
            <DistanceMeters>18381.868213419</DistanceMeters>
          </Trackpoint>
          <Trackpoint>
            <Time>2018-08-26T06:26:51.000Z</Time>
            <Position>
              <LatitudeDegrees>42.85837889648973941802978515625</LatitudeDegrees>
              <LongitudeDegrees>-1.75301025621592998504638671875</LongitudeDegrees>
            </Position>
            <AltitudeMeters>451.600006103515625</AltitudeMeters>
            <DistanceMeters>18396.958024803</DistanceMeters>
          </Trackpoint>
          <Trackpoint>
            <Time>2018-08-26T06:26:52.000Z</Time>
            <Position>
              <LatitudeDegrees>42.85850596614181995391845703125</LatitudeDegrees>
              <LongitudeDegrees>-1.753070689737796783447265625</LongitudeDegrees>
            </Position>
            <AltitudeMeters>450.20001220703125</AltitudeMeters>
            <DistanceMeters>18411.935814663</DistanceMeters>
          </Trackpoint>
          <Trackpoint>
            <Time>2018-08-26T06:26:53.000Z</Time>
            <Position>
              <LatitudeDegrees>42.858625911176204681396484375</LatitudeDegrees>
              <LongitudeDegrees>-1.7531546764075756072998046875</LongitudeDegrees>
            </Position>
            <AltitudeMeters>449</AltitudeMeters>
            <DistanceMeters>18426.941613082</DistanceMeters>
          </Trackpoint>
          <Trackpoint>
            <Time>2018-08-26T06:26:54.000Z</Time>
            <Position>
              <LatitudeDegrees>42.85873864777386188507080078125</LatitudeDegrees>
              <LongitudeDegrees>-1.75325349904596805572509765625</LongitudeDegrees>
            </Position>
            <AltitudeMeters>448</AltitudeMeters>
            <DistanceMeters>18441.856267055</DistanceMeters>
          </Trackpoint>
          <Trackpoint>
            <Time>2018-08-26T06:26:55.000Z</Time>
            <Position>
              <LatitudeDegrees>42.85884694196283817291259765625</LatitudeDegrees>
              <LongitudeDegrees>-1.75335525535047054290771484375</LongitudeDegrees>
            </Position>
            <AltitudeMeters>447.20001220703125</AltitudeMeters>
            <DistanceMeters>18456.492232121</DistanceMeters>
          </Trackpoint>
          <Trackpoint>
            <Time>2018-08-26T06:26:56.000Z</Time>
            <Position>
              <LatitudeDegrees>42.8589546494185924530029296875</LatitudeDegrees>
              <LongitudeDegrees>-1.75345122814178466796875</LongitudeDegrees>
            </Position>
            <AltitudeMeters>446.399993896484375</AltitudeMeters>
            <DistanceMeters>18470.81102696</DistanceMeters>
          </Trackpoint>
          <Trackpoint>
            <Time>2018-08-26T06:26:57.000Z</Time>
            <Position>
              <LatitudeDegrees>42.85906554199755191802978515625</LatitudeDegrees>
              <LongitudeDegrees>-1.75353504717350006103515625</LongitudeDegrees>
            </Position>
            <AltitudeMeters>444.79998779296875</AltitudeMeters>
            <DistanceMeters>18484.921774127</DistanceMeters>
          </Trackpoint>
          <Trackpoint>
            <Time>2018-08-26T06:26:58.000Z</Time>
            <Position>
              <LatitudeDegrees>42.85918003879487514495849609375</LatitudeDegrees>
              <LongitudeDegrees>-1.75360185094177722930908203125</LongitudeDegrees>
            </Position>
            <AltitudeMeters>443.399993896484375</AltitudeMeters>
            <DistanceMeters>18498.78232521</DistanceMeters>
          </Trackpoint>
          <Trackpoint>
            <Time>2018-08-26T06:26:59.000Z</Time>
            <Position>
              <LatitudeDegrees>42.85929889418184757232666015625</LatitudeDegrees>
              <LongitudeDegrees>-1.75365314818918704986572265625</LongitudeDegrees>
            </Position>
            <AltitudeMeters>442.399993896484375</AltitudeMeters>
            <DistanceMeters>18512.657527183</DistanceMeters>
          </Trackpoint>
          <Trackpoint>
            <Time>2018-08-26T06:27:00.000Z</Time>
            <Position>
              <LatitudeDegrees>42.85941976122558116912841796875</LatitudeDegrees>
              <LongitudeDegrees>-1.75369941629469394683837890625</LongitudeDegrees>
            </Position>
            <AltitudeMeters>441.79998779296875</AltitudeMeters>
            <DistanceMeters>18526.629686023</DistanceMeters>
          </Trackpoint>
          <Trackpoint>
            <Time>2018-08-26T06:27:01.000Z</Time>
            <Position>
              <LatitudeDegrees>42.8595407120883464813232421875</LatitudeDegrees>
              <LongitudeDegrees>-1.7537457682192325592041015625</LongitudeDegrees>
            </Position>
            <AltitudeMeters>440.79998779296875</AltitudeMeters>
            <DistanceMeters>18540.612504593</DistanceMeters>
          </Trackpoint>
          <Trackpoint>
            <Time>2018-08-26T06:27:02.000Z</Time>
            <Position>
              <LatitudeDegrees>42.85966183058917522430419921875</LatitudeDegrees>
              <LongitudeDegrees>-1.75379253923892974853515625</LongitudeDegrees>
            </Position>
            <AltitudeMeters>440</AltitudeMeters>
            <DistanceMeters>18554.623064958</DistanceMeters>
          </Trackpoint>
          <Trackpoint>
            <Time>2018-08-26T06:27:03.000Z</Time>
            <Position>
              <LatitudeDegrees>42.85978387109935283660888671875</LatitudeDegrees>
              <LongitudeDegrees>-1.7538372986018657684326171875</LongitudeDegrees>
            </Position>
            <AltitudeMeters>439.20001220703125</AltitudeMeters>
            <DistanceMeters>18568.68894477</DistanceMeters>
          </Trackpoint>
          <Trackpoint>
            <Time>2018-08-26T06:27:04.000Z</Time>
            <Position>
              <LatitudeDegrees>42.859906665980815887451171875</LatitudeDegrees>
              <LongitudeDegrees>-1.753882728517055511474609375</LongitudeDegrees>
            </Position>
            <AltitudeMeters>438.20001220703125</AltitudeMeters>
            <DistanceMeters>18582.849838371</DistanceMeters>
          </Trackpoint>
          <Trackpoint>
            <Time>2018-08-26T06:27:05.000Z</Time>
            <Position>
              <LatitudeDegrees>42.86002962850034236907958984375</LatitudeDegrees>
              <LongitudeDegrees>-1.753927655518054962158203125</LongitudeDegrees>
            </Position>
            <AltitudeMeters>437.600006103515625</AltitudeMeters>
            <DistanceMeters>18597.018063361</DistanceMeters>
          </Trackpoint>
          <Trackpoint>
            <Time>2018-08-26T06:27:06.000Z</Time>
            <Position>
              <LatitudeDegrees>42.86015166901051998138427734375</LatitudeDegrees>
              <LongitudeDegrees>-1.7539734207093715667724609375</LongitudeDegrees>
            </Position>
            <AltitudeMeters>437.20001220703125</AltitudeMeters>
            <DistanceMeters>18611.105433236</DistanceMeters>
          </Trackpoint>
          <Trackpoint>
            <Time>2018-08-26T06:27:07.000Z</Time>
            <Position>
              <LatitudeDegrees>42.86027203314006328582763671875</LatitudeDegrees>
              <LongitudeDegrees>-1.7540200240910053253173828125</LongitudeDegrees>
            </Position>
            <AltitudeMeters>436.79998779296875</AltitudeMeters>
            <DistanceMeters>18625.031629838</DistanceMeters>
          </Trackpoint>
          <Trackpoint>
            <Time>2018-08-26T06:27:08.000Z</Time>
            <Position>
              <LatitudeDegrees>42.860388793051242828369140625</LatitudeDegrees>
              <LongitudeDegrees>-1.7540726624429225921630859375</LongitudeDegrees>
            </Position>
            <AltitudeMeters>436.600006103515625</AltitudeMeters>
            <DistanceMeters>18638.718116083</DistanceMeters>
          </Trackpoint>
          <Trackpoint>
            <Time>2018-08-26T06:27:09.000Z</Time>
            <Position>
              <LatitudeDegrees>42.86049867980182170867919921875</LatitudeDegrees>
              <LongitudeDegrees>-1.7541392147541046142578125</LongitudeDegrees>
            </Position>
            <AltitudeMeters>436.399993896484375</AltitudeMeters>
            <DistanceMeters>18652.099686092</DistanceMeters>
          </Trackpoint>
          <Trackpoint>
            <Time>2018-08-26T06:27:10.000Z</Time>
            <Position>
              <LatitudeDegrees>42.86060261540114879608154296875</LatitudeDegrees>
              <LongitudeDegrees>-1.7542188428342342376708984375</LongitudeDegrees>
            </Position>
            <AltitudeMeters>436</AltitudeMeters>
            <DistanceMeters>18665.367062627</DistanceMeters>
          </Trackpoint>
          <Trackpoint>
            <Time>2018-08-26T06:27:11.000Z</Time>
            <Position>
              <LatitudeDegrees>42.86070370115339756011962890625</LatitudeDegrees>
              <LongitudeDegrees>-1.7543036676943302154541015625</LongitudeDegrees>
            </Position>
            <AltitudeMeters>435.600006103515625</AltitudeMeters>
            <DistanceMeters>18678.576117742</DistanceMeters>
          </Trackpoint>
          <Trackpoint>
            <Time>2018-08-26T06:27:12.000Z</Time>
            <Position>
              <LatitudeDegrees>42.86080327816307544708251953125</LatitudeDegrees>
              <LongitudeDegrees>-1.754386983811855316162109375</LongitudeDegrees>
            </Position>
            <AltitudeMeters>435.20001220703125</AltitudeMeters>
            <DistanceMeters>18691.577772677</DistanceMeters>
          </Trackpoint>
          <Trackpoint>
            <Time>2018-08-26T06:27:13.000Z</Time>
            <Position>
              <LatitudeDegrees>42.860901094973087310791015625</LatitudeDegrees>
              <LongitudeDegrees>-1.75446988083422183990478515625</LongitudeDegrees>
            </Position>
            <AltitudeMeters>434.79998779296875</AltitudeMeters>
            <DistanceMeters>18704.394759478</DistanceMeters>
          </Trackpoint>
          <Trackpoint>
            <Time>2018-08-26T06:27:14.000Z</Time>
            <Position>
              <LatitudeDegrees>42.860996983945369720458984375</LatitudeDegrees>
              <LongitudeDegrees>-1.754550598561763763427734375</LongitudeDegrees>
            </Position>
            <AltitudeMeters>434.20001220703125</AltitudeMeters>
            <DistanceMeters>18716.935045809</DistanceMeters>
          </Trackpoint>
          <Trackpoint>
            <Time>2018-08-26T06:27:15.000Z</Time>
            <Position>
              <LatitudeDegrees>42.861090861260890960693359375</LatitudeDegrees>
              <LongitudeDegrees>-1.754628382623195648193359375</LongitudeDegrees>
            </Position>
            <AltitudeMeters>433.79998779296875</AltitudeMeters>
            <DistanceMeters>18729.159928842</DistanceMeters>
          </Trackpoint>
          <Trackpoint>
            <Time>2018-08-26T06:27:16.000Z</Time>
            <Position>
              <LatitudeDegrees>42.861182391643524169921875</LatitudeDegrees>
              <LongitudeDegrees>-1.75470390357077121734619140625</LongitudeDegrees>
            </Position>
            <AltitudeMeters>432.79998779296875</AltitudeMeters>
            <DistanceMeters>18741.065983604</DistanceMeters>
          </Trackpoint>
          <Trackpoint>
            <Time>2018-08-26T06:27:17.000Z</Time>
            <Position>
              <LatitudeDegrees>42.86127383820712566375732421875</LatitudeDegrees>
              <LongitudeDegrees>-1.75477665849030017852783203125</LongitudeDegrees>
            </Position>
            <AltitudeMeters>432.20001220703125</AltitudeMeters>
            <DistanceMeters>18752.848913008</DistanceMeters>
          </Trackpoint>
          <Trackpoint>
            <Time>2018-08-26T06:27:18.000Z</Time>
            <Position>
              <LatitudeDegrees>42.8613642789423465728759765625</LatitudeDegrees>
              <LongitudeDegrees>-1.75484798848628997802734375</LongitudeDegrees>
            </Position>
            <AltitudeMeters>431.79998779296875</AltitudeMeters>
            <DistanceMeters>18764.475616942</DistanceMeters>
          </Trackpoint>
          <Trackpoint>
            <Time>2018-08-26T06:27:19.000Z</Time>
            <Position>
              <LatitudeDegrees>42.86145438440144062042236328125</LatitudeDegrees>
              <LongitudeDegrees>-1.7549188993871212005615234375</LongitudeDegrees>
            </Position>
            <AltitudeMeters>431.600006103515625</AltitudeMeters>
            <DistanceMeters>18776.053287464</DistanceMeters>
          </Trackpoint>
          <Trackpoint>
            <Time>2018-08-26T06:27:20.000Z</Time>
            <Position>
              <LatitudeDegrees>42.861544825136661529541015625</LatitudeDegrees>
              <LongitudeDegrees>-1.75498821772634983062744140625</LongitudeDegrees>
            </Position>
            <AltitudeMeters>431.600006103515625</AltitudeMeters>
            <DistanceMeters>18787.599326549</DistanceMeters>
          </Trackpoint>
          <Trackpoint>
            <Time>2018-08-26T06:27:21.000Z</Time>
            <Position>
              <LatitudeDegrees>42.86163409240543842315673828125</LatitudeDegrees>
              <LongitudeDegrees>-1.7550556920468807220458984375</LongitudeDegrees>
            </Position>
            <AltitudeMeters>431.399993896484375</AltitudeMeters>
            <DistanceMeters>18798.957702408</DistanceMeters>
          </Trackpoint>
          <Trackpoint>
            <Time>2018-08-26T06:27:22.000Z</Time>
            <Position>
              <LatitudeDegrees>42.8617223538458347320556640625</LatitudeDegrees>
              <LongitudeDegrees>-1.7551224119961261749267578125</LongitudeDegrees>
            </Position>
            <AltitudeMeters>431.399993896484375</AltitudeMeters>
            <DistanceMeters>18810.188959588</DistanceMeters>
          </Trackpoint>
          <Trackpoint>
            <Time>2018-08-26T06:27:23.000Z</Time>
            <Position>
              <LatitudeDegrees>42.8618078492581844329833984375</LatitudeDegrees>
              <LongitudeDegrees>-1.7551874555647373199462890625</LongitudeDegrees>
            </Position>
            <AltitudeMeters>431.399993896484375</AltitudeMeters>
            <DistanceMeters>18821.084343241</DistanceMeters>
          </Trackpoint>
          <Trackpoint>
            <Time>2018-08-26T06:27:24.000Z</Time>
            <Position>
              <LatitudeDegrees>42.8618909977376461029052734375</LatitudeDegrees>
              <LongitudeDegrees>-1.7552518285810947418212890625</LongitudeDegrees>
            </Position>
            <AltitudeMeters>431.399993896484375</AltitudeMeters>
            <DistanceMeters>18831.724789587</DistanceMeters>
          </Trackpoint>
          <Trackpoint>
            <Time>2018-08-26T06:27:25.000Z</Time>
            <Position>
              <LatitudeDegrees>42.861972637474536895751953125</LatitudeDegrees>
              <LongitudeDegrees>-1.755314357578754425048828125</LongitudeDegrees>
            </Position>
            <AltitudeMeters>431.399993896484375</AltitudeMeters>
            <DistanceMeters>18842.145715617</DistanceMeters>
          </Trackpoint>
          <Trackpoint>
            <Time>2018-08-26T06:27:26.000Z</Time>
            <Position>
              <LatitudeDegrees>42.86205402575433254241943359375</LatitudeDegrees>
              <LongitudeDegrees>-1.75537764094769954681396484375</LongitudeDegrees>
            </Position>
            <AltitudeMeters>431.399993896484375</AltitudeMeters>
            <DistanceMeters>18852.572705613</DistanceMeters>
          </Trackpoint>
          <Trackpoint>
            <Time>2018-08-26T06:27:27.000Z</Time>
            <Position>
              <LatitudeDegrees>42.86213465966284275054931640625</LatitudeDegrees>
              <LongitudeDegrees>-1.75543933175504207611083984375</LongitudeDegrees>
            </Position>
            <AltitudeMeters>431.399993896484375</AltitudeMeters>
            <DistanceMeters>18862.862392018</DistanceMeters>
          </Trackpoint>
          <Trackpoint>
            <Time>2018-08-26T06:27:28.000Z</Time>
            <Position>
              <LatitudeDegrees>42.8622135333716869354248046875</LatitudeDegrees>
              <LongitudeDegrees>-1.755500100553035736083984375</LongitudeDegrees>
            </Position>
            <AltitudeMeters>431.399993896484375</AltitudeMeters>
            <DistanceMeters>18872.94418454</DistanceMeters>
          </Trackpoint>
          <Trackpoint>
            <Time>2018-08-26T06:27:29.000Z</Time>
            <Position>
              <LatitudeDegrees>42.86229022778570652008056640625</LatitudeDegrees>
              <LongitudeDegrees>-1.75556011497974395751953125</LongitudeDegrees>
            </Position>
            <AltitudeMeters>431.399993896484375</AltitudeMeters>
            <DistanceMeters>18882.784842027</DistanceMeters>
          </Trackpoint>
          <Trackpoint>
            <Time>2018-08-26T06:27:30.000Z</Time>
            <Position>
              <LatitudeDegrees>42.86236549727618694305419921875</LatitudeDegrees>
              <LongitudeDegrees>-1.7556172795593738555908203125</LongitudeDegrees>
            </Position>
            <AltitudeMeters>431.20001220703125</AltitudeMeters>
            <DistanceMeters>18892.373126977</DistanceMeters>
          </Trackpoint>
          <Trackpoint>
            <Time>2018-08-26T06:27:31.000Z</Time>
            <Position>
              <LatitudeDegrees>42.8624391742050647735595703125</LatitudeDegrees>
              <LongitudeDegrees>-1.7556719295680522918701171875</LongitudeDegrees>
            </Position>
            <AltitudeMeters>431.20001220703125</AltitudeMeters>
            <DistanceMeters>18901.707053135</DistanceMeters>
          </Trackpoint>
          <Trackpoint>
            <Time>2018-08-26T06:27:32.000Z</Time>
            <Position>
              <LatitudeDegrees>42.86251075565814971923828125</LatitudeDegrees>
              <LongitudeDegrees>-1.75572582520544528961181640625</LongitudeDegrees>
            </Position>
            <AltitudeMeters>431.20001220703125</AltitudeMeters>
            <DistanceMeters>18910.806822417</DistanceMeters>
          </Trackpoint>
          <Trackpoint>
            <Time>2018-08-26T06:27:33.000Z</Time>
            <Position>
              <LatitudeDegrees>42.8625820018351078033447265625</LatitudeDegrees>
              <LongitudeDegrees>-1.755779050290584564208984375</LongitudeDegrees>
            </Position>
            <AltitudeMeters>431.399993896484375</AltitudeMeters>
            <DistanceMeters>18919.847853994</DistanceMeters>
          </Trackpoint>
          <Trackpoint>
            <Time>2018-08-26T06:27:34.000Z</Time>
            <Position>
              <LatitudeDegrees>42.86265266127884387969970703125</LatitudeDegrees>
              <LongitudeDegrees>-1.75583227537572383880615234375</LongitudeDegrees>
            </Position>
            <AltitudeMeters>431.399993896484375</AltitudeMeters>
            <DistanceMeters>18928.831774255</DistanceMeters>
          </Trackpoint>
          <Trackpoint>
            <Time>2018-08-26T06:27:35.000Z</Time>
            <Position>
              <LatitudeDegrees>42.8627224825322628021240234375</LatitudeDegrees>
              <LongitudeDegrees>-1.75588759593665599822998046875</LongitudeDegrees>
            </Position>
            <AltitudeMeters>431.399993896484375</AltitudeMeters>
            <DistanceMeters>18937.818709423</DistanceMeters>
          </Trackpoint>
          <Trackpoint>
            <Time>2018-08-26T06:27:36.000Z</Time>
            <Position>
              <LatitudeDegrees>42.862791381776332855224609375</LatitudeDegrees>
              <LongitudeDegrees>-1.75594367086887359619140625</LongitudeDegrees>
            </Position>
            <AltitudeMeters>431.399993896484375</AltitudeMeters>
            <DistanceMeters>18946.748187291</DistanceMeters>
          </Trackpoint>
          <Trackpoint>
            <Time>2018-08-26T06:27:37.000Z</Time>
            <Position>
              <LatitudeDegrees>42.8628596104681491851806640625</LatitudeDegrees>
              <LongitudeDegrees>-1.75600158981978893280029296875</LongitudeDegrees>
            </Position>
            <AltitudeMeters>431.399993896484375</AltitudeMeters>
            <DistanceMeters>18955.691811676</DistanceMeters>
          </Trackpoint>
          <Trackpoint>
            <Time>2018-08-26T06:27:38.000Z</Time>
            <Position>
              <LatitudeDegrees>42.862925827503204345703125</LatitudeDegrees>
              <LongitudeDegrees>-1.7560636997222900390625</LongitudeDegrees>
            </Position>
            <AltitudeMeters>431.399993896484375</AltitudeMeters>
            <DistanceMeters>18964.635436062</DistanceMeters>
          </Trackpoint>
          <Trackpoint>
            <Time>2018-08-26T06:27:39.000Z</Time>
            <Position>
              <LatitudeDegrees>42.86298927851021289825439453125</LatitudeDegrees>
              <LongitudeDegrees>-1.7561280727386474609375</LongitudeDegrees>
            </Position>
            <AltitudeMeters>431.399993896484375</AltitudeMeters>
            <DistanceMeters>18973.435546037</DistanceMeters>
          </Trackpoint>
          <Trackpoint>
            <Time>2018-08-26T06:27:40.000Z</Time>
            <Position>
              <LatitudeDegrees>42.8630503825843334197998046875</LatitudeDegrees>
              <LongitudeDegrees>-1.75619454123079776763916015625</LongitudeDegrees>
            </Position>
            <AltitudeMeters>431.600006103515625</AltitudeMeters>
            <DistanceMeters>18982.133475702</DistanceMeters>
          </Trackpoint>
          <Trackpoint>
            <Time>2018-08-26T06:27:41.000Z</Time>
            <Position>
              <LatitudeDegrees>42.8631097264587879180908203125</LatitudeDegrees>
              <LongitudeDegrees>-1.75626377575099468231201171875</LongitudeDegrees>
            </Position>
            <AltitudeMeters>431.600006103515625</AltitudeMeters>
            <DistanceMeters>18990.823615476</DistanceMeters>
          </Trackpoint>
          <Trackpoint>
            <Time>2018-08-26T06:27:42.000Z</Time>
            <Position>
              <LatitudeDegrees>42.86316789686679840087890625</LatitudeDegrees>
              <LongitudeDegrees>-1.75633334554731845855712890625</LongitudeDegrees>
            </Position>
            <AltitudeMeters>431.600006103515625</AltitudeMeters>
            <DistanceMeters>18999.432847001</DistanceMeters>
          </Trackpoint>
          <Trackpoint>
            <Time>2018-08-26T06:27:43.000Z</Time>
            <Position>
              <LatitudeDegrees>42.86322598345577716827392578125</LatitudeDegrees>
              <LongitudeDegrees>-1.75640165805816650390625</LongitudeDegrees>
            </Position>
            <AltitudeMeters>431.79998779296875</AltitudeMeters>
            <DistanceMeters>19007.968340938</DistanceMeters>
          </Trackpoint>
          <Trackpoint>
            <Time>2018-08-26T06:27:44.000Z</Time>
            <Position>
              <LatitudeDegrees>42.8632833994925022125244140625</LatitudeDegrees>
              <LongitudeDegrees>-1.7564702220261096954345703125</LongitudeDegrees>
            </Position>
            <AltitudeMeters>432</AltitudeMeters>
            <DistanceMeters>19016.461411681</DistanceMeters>
          </Trackpoint>
          <Trackpoint>
            <Time>2018-08-26T06:27:45.000Z</Time>
            <Position>
              <LatitudeDegrees>42.863339893519878387451171875</LatitudeDegrees>
              <LongitudeDegrees>-1.756538450717926025390625</LongitudeDegrees>
            </Position>
            <AltitudeMeters>432</AltitudeMeters>
            <DistanceMeters>19024.859321958</DistanceMeters>
          </Trackpoint>
          <Trackpoint>
            <Time>2018-08-26T06:27:46.000Z</Time>
            <Position>
              <LatitudeDegrees>42.86339663900434970855712890625</LatitudeDegrees>
              <LongitudeDegrees>-1.75660575740039348602294921875</LongitudeDegrees>
            </Position>
            <AltitudeMeters>432.20001220703125</AltitudeMeters>
            <DistanceMeters>19033.228149409</DistanceMeters>
          </Trackpoint>
          <Trackpoint>
            <Time>2018-08-26T06:27:47.000Z</Time>
            <Position>
              <LatitudeDegrees>42.8634527139365673065185546875</LatitudeDegrees>
              <LongitudeDegrees>-1.7566717229783535003662109375</LongitudeDegrees>
            </Position>
            <AltitudeMeters>432.20001220703125</AltitudeMeters>
            <DistanceMeters>19041.468669711</DistanceMeters>
          </Trackpoint>
          <Trackpoint>
            <Time>2018-08-26T06:27:48.000Z</Time>
            <Position>
              <LatitudeDegrees>42.86350828595459461212158203125</LatitudeDegrees>
              <LongitudeDegrees>-1.756737940013408660888671875</LongitudeDegrees>
            </Position>
            <AltitudeMeters>432.20001220703125</AltitudeMeters>
            <DistanceMeters>19049.680649429</DistanceMeters>
          </Trackpoint>
          <Trackpoint>
            <Time>2018-08-26T06:27:49.000Z</Time>
            <Position>
              <LatitudeDegrees>42.86356125958263874053955078125</LatitudeDegrees>
              <LongitudeDegrees>-1.75680725835263729095458984375</LongitudeDegrees>
            </Position>
            <AltitudeMeters>432.399993896484375</AltitudeMeters>
            <DistanceMeters>19057.850736642</DistanceMeters>
          </Trackpoint>
          <Trackpoint>
            <Time>2018-08-26T06:27:50.000Z</Time>
            <Position>
              <LatitudeDegrees>42.8636096231639385223388671875</LatitudeDegrees>
              <LongitudeDegrees>-1.756881438195705413818359375</LongitudeDegrees>
            </Position>
            <AltitudeMeters>432.399993896484375</AltitudeMeters>
            <DistanceMeters>19065.950335729</DistanceMeters>
          </Trackpoint>
          <Trackpoint>
            <Time>2018-08-26T06:27:51.000Z</Time>
            <Position>
              <LatitudeDegrees>42.86365413106977939605712890625</LatitudeDegrees>
              <LongitudeDegrees>-1.75695964135229587554931640625</LongitudeDegrees>
            </Position>
            <AltitudeMeters>432.399993896484375</AltitudeMeters>
            <DistanceMeters>19074.028165412</DistanceMeters>
          </Trackpoint>
          <Trackpoint>
            <Time>2018-08-26T06:27:52.000Z</Time>
            <Position>
              <LatitudeDegrees>42.86369570530951023101806640625</LatitudeDegrees>
              <LongitudeDegrees>-1.75704077817499637603759765625</LongitudeDegrees>
            </Position>
            <AltitudeMeters>432.600006103515625</AltitudeMeters>
            <DistanceMeters>19082.104318095</DistanceMeters>
          </Trackpoint>
          <Trackpoint>
            <Time>2018-08-26T06:27:53.000Z</Time>
            <Position>
              <LatitudeDegrees>42.86373493261635303497314453125</LatitudeDegrees>
              <LongitudeDegrees>-1.75712442956864833831787109375</LongitudeDegrees>
            </Position>
            <AltitudeMeters>432.600006103515625</AltitudeMeters>
            <DistanceMeters>19090.205589328</DistanceMeters>
          </Trackpoint>
          <Trackpoint>
            <Time>2018-08-26T06:27:54.000Z</Time>
            <Position>
              <LatitudeDegrees>42.863773405551910400390625</LatitudeDegrees>
              <LongitudeDegrees>-1.7572091706097126007080078125</LongitudeDegrees>
            </Position>
            <AltitudeMeters>432.600006103515625</AltitudeMeters>
            <DistanceMeters>19098.336900398</DistanceMeters>
          </Trackpoint>
          <Trackpoint>
            <Time>2018-08-26T06:27:55.000Z</Time>
            <Position>
              <LatitudeDegrees>42.86381254903972148895263671875</LatitudeDegrees>
              <LongitudeDegrees>-1.75729407928884029388427734375</LongitudeDegrees>
            </Position>
            <AltitudeMeters>432.600006103515625</AltitudeMeters>
            <DistanceMeters>19106.520239992</DistanceMeters>
          </Trackpoint>
          <Trackpoint>
            <Time>2018-08-26T06:27:56.000Z</Time>
            <Position>
              <LatitudeDegrees>42.86385211162269115447998046875</LatitudeDegrees>
              <LongitudeDegrees>-1.75737873651087284088134765625</LongitudeDegrees>
            </Position>
            <AltitudeMeters>432.79998779296875</AltitudeMeters>
            <DistanceMeters>19114.71130024</DistanceMeters>
          </Trackpoint>
          <Trackpoint>
            <Time>2018-08-26T06:27:57.000Z</Time>
            <Position>
              <LatitudeDegrees>42.86389117129147052764892578125</LatitudeDegrees>
              <LongitudeDegrees>-1.7574633099138736724853515625</LongitudeDegrees>
            </Position>
            <AltitudeMeters>432.79998779296875</AltitudeMeters>
            <DistanceMeters>19122.866452783</DistanceMeters>
          </Trackpoint>
          <Trackpoint>
            <Time>2018-08-26T06:27:58.000Z</Time>
            <Position>
              <LatitudeDegrees>42.86392972804605960845947265625</LatitudeDegrees>
              <LongitudeDegrees>-1.75754788331687450408935546875</LongitudeDegrees>
            </Position>
            <AltitudeMeters>432.79998779296875</AltitudeMeters>
            <DistanceMeters>19130.992209299</DistanceMeters>
          </Trackpoint>
          <Trackpoint>
            <Time>2018-08-26T06:27:59.000Z</Time>
            <Position>
              <LatitudeDegrees>42.86396761424839496612548828125</LatitudeDegrees>
              <LongitudeDegrees>-1.75763153471052646636962890625</LongitudeDegrees>
            </Position>
            <AltitudeMeters>433</AltitudeMeters>
            <DistanceMeters>19139.013950054</DistanceMeters>
          </Trackpoint>
          <Trackpoint>
            <Time>2018-08-26T06:28:00.000Z</Time>
            <Position>
              <LatitudeDegrees>42.86400650627911090850830078125</LatitudeDegrees>
              <LongitudeDegrees>-1.757713593542575836181640625</LongitudeDegrees>
            </Position>
            <AltitudeMeters>433</AltitudeMeters>
            <DistanceMeters>19146.986006126</DistanceMeters>
          </Trackpoint>
          <Trackpoint>
            <Time>2018-08-26T06:28:01.000Z</Time>
            <Position>
              <LatitudeDegrees>42.8640461526811122894287109375</LatitudeDegrees>
              <LongitudeDegrees>-1.7577942274510860443115234375</LongitudeDegrees>
            </Position>
            <AltitudeMeters>433.20001220703125</AltitudeMeters>
            <DistanceMeters>19154.907495961</DistanceMeters>
          </Trackpoint>
          <Trackpoint>
            <Time>2018-08-26T06:28:02.000Z</Time>
            <Position>
              <LatitudeDegrees>42.86408630199730396270751953125</LatitudeDegrees>
              <LongitudeDegrees>-1.7578736878931522369384765625</LongitudeDegrees>
            </Position>
            <AltitudeMeters>433.399993896484375</AltitudeMeters>
            <DistanceMeters>19162.781535894</DistanceMeters>
          </Trackpoint>
          <Trackpoint>
            <Time>2018-08-26T06:28:03.000Z</Time>
            <Position>
              <LatitudeDegrees>42.8641272895038127899169921875</LatitudeDegrees>
              <LongitudeDegrees>-1.7579514719545841217041015625</LongitudeDegrees>
            </Position>
            <AltitudeMeters>433.399993896484375</AltitudeMeters>
            <DistanceMeters>19170.596869353</DistanceMeters>
          </Trackpoint>
          <Trackpoint>
            <Time>2018-08-26T06:28:04.000Z</Time>
            <Position>
              <LatitudeDegrees>42.86416861228644847869873046875</LatitudeDegrees>
              <LongitudeDegrees>-1.75802917219698429107666015625</LongitudeDegrees>
            </Position>
            <AltitudeMeters>433.399993896484375</AltitudeMeters>
            <DistanceMeters>19178.428362135</DistanceMeters>
          </Trackpoint>
          <Trackpoint>
            <Time>2018-08-26T06:28:05.000Z</Time>
            <Position>
              <LatitudeDegrees>42.8642101027071475982666015625</LatitudeDegrees>
              <LongitudeDegrees>-1.75810796208679676055908203125</LongitudeDegrees>
            </Position>
            <AltitudeMeters>433.399993896484375</AltitudeMeters>
            <DistanceMeters>19186.342438848</DistanceMeters>
          </Trackpoint>
          <Trackpoint>
            <Time>2018-08-26T06:28:06.000Z</Time>
            <Position>
              <LatitudeDegrees>42.8642516769468784332275390625</LatitudeDegrees>
              <LongitudeDegrees>-1.75818599760532379150390625</LongitudeDegrees>
            </Position>
            <AltitudeMeters>433.600006103515625</AltitudeMeters>
            <DistanceMeters>19194.21303758</DistanceMeters>
          </Trackpoint>
          <Trackpoint>
            <Time>2018-08-26T06:28:07.000Z</Time>
            <Position>
              <LatitudeDegrees>42.864293418824672698974609375</LatitudeDegrees>
              <LongitudeDegrees>-1.75826336257159709930419921875</LongitudeDegrees>
            </Position>
            <AltitudeMeters>433.600006103515625</AltitudeMeters>
            <DistanceMeters>19202.050293476</DistanceMeters>
          </Trackpoint>
          <Trackpoint>
            <Time>2018-08-26T06:28:08.000Z</Time>
            <Position>
              <LatitudeDegrees>42.86433356814086437225341796875</LatitudeDegrees>
              <LongitudeDegrees>-1.7583395540714263916015625</LongitudeDegrees>
            </Position>
            <AltitudeMeters>433.600006103515625</AltitudeMeters>
            <DistanceMeters>19209.705696543</DistanceMeters>
          </Trackpoint>
          <Trackpoint>
            <Time>2018-08-26T06:28:09.000Z</Time>
            <Position>
              <LatitudeDegrees>42.8643727116286754608154296875</LatitudeDegrees>
              <LongitudeDegrees>-1.75841205753386020660400390625</LongitudeDegrees>
            </Position>
            <AltitudeMeters>433.600006103515625</AltitudeMeters>
            <DistanceMeters>19217.051697961</DistanceMeters>
          </Trackpoint>
          <Trackpoint>
            <Time>2018-08-26T06:28:10.000Z</Time>
            <Position>
              <LatitudeDegrees>42.86440984345972537994384765625</LatitudeDegrees>
              <LongitudeDegrees>-1.758480705320835113525390625</LongitudeDegrees>
            </Position>
            <AltitudeMeters>433.79998779296875</AltitudeMeters>
            <DistanceMeters>19224.012039915</DistanceMeters>
          </Trackpoint>
          <Trackpoint>
            <Time>2018-08-26T06:28:11.000Z</Time>
            <Position>
              <LatitudeDegrees>42.8644447959959506988525390625</LatitudeDegrees>
              <LongitudeDegrees>-1.7585465870797634124755859375</LongitudeDegrees>
            </Position>
            <AltitudeMeters>433.79998779296875</AltitudeMeters>
            <DistanceMeters>19230.647599631</DistanceMeters>
          </Trackpoint>
          <Trackpoint>
            <Time>2018-08-26T06:28:12.000Z</Time>
            <Position>
              <LatitudeDegrees>42.86447756923735141754150390625</LatitudeDegrees>
              <LongitudeDegrees>-1.75860978662967681884765625</LongitudeDegrees>
            </Position>
            <AltitudeMeters>433.79998779296875</AltitudeMeters>
            <DistanceMeters>19236.963838839</DistanceMeters>
          </Trackpoint>
          <Trackpoint>
            <Time>2018-08-26T06:28:13.000Z</Time>
            <Position>
              <LatitudeDegrees>42.86450925283133983612060546875</LatitudeDegrees>
              <LongitudeDegrees>-1.758669130504131317138671875</LongitudeDegrees>
            </Position>
            <AltitudeMeters>434</AltitudeMeters>
            <DistanceMeters>19242.952783957</DistanceMeters>
          </Trackpoint>
          <Trackpoint>
            <Time>2018-08-26T06:28:14.000Z</Time>
            <Position>
              <LatitudeDegrees>42.86454093642532825469970703125</LatitudeDegrees>
              <LongitudeDegrees>-1.75872671417891979217529296875</LongitudeDegrees>
            </Position>
            <AltitudeMeters>434</AltitudeMeters>
            <DistanceMeters>19248.826787881</DistanceMeters>
          </Trackpoint>
          <Trackpoint>
            <Time>2018-08-26T06:28:15.000Z</Time>
            <Position>
              <LatitudeDegrees>42.8645732067525386810302734375</LatitudeDegrees>
              <LongitudeDegrees>-1.75878253765404224395751953125</LongitudeDegrees>
            </Position>
            <AltitudeMeters>434</AltitudeMeters>
            <DistanceMeters>19254.627310687</DistanceMeters>
          </Trackpoint>
          <Trackpoint>
            <Time>2018-08-26T06:28:16.000Z</Time>
            <Position>
              <LatitudeDegrees>42.86460564471781253814697265625</LatitudeDegrees>
              <LongitudeDegrees>-1.7588359303772449493408203125</LongitudeDegrees>
            </Position>
            <AltitudeMeters>434.20001220703125</AltitudeMeters>
            <DistanceMeters>19260.285192004</DistanceMeters>
          </Trackpoint>
          <Trackpoint>
            <Time>2018-08-26T06:28:17.000Z</Time>
            <Position>
              <LatitudeDegrees>42.86463950760662555694580078125</LatitudeDegrees>
              <LongitudeDegrees>-1.75888714380562305450439453125</LongitudeDegrees>
            </Position>
            <AltitudeMeters>434.20001220703125</AltitudeMeters>
            <DistanceMeters>19265.911864912</DistanceMeters>
          </Trackpoint>
          <Trackpoint>
            <Time>2018-08-26T06:28:18.000Z</Time>
            <Position>
              <LatitudeDegrees>42.8646754659712314605712890625</LatitudeDegrees>
              <LongitudeDegrees>-1.75893433392047882080078125</LongitudeDegrees>
            </Position>
            <AltitudeMeters>434.399993896484375</AltitudeMeters>
            <DistanceMeters>19271.46584917</DistanceMeters>
          </Trackpoint>
          <Trackpoint>
            <Time>2018-08-26T06:28:19.000Z</Time>
            <Position>
              <LatitudeDegrees>42.8647135198116302490234375</LatitudeDegrees>
              <LongitudeDegrees>-1.75897800363600254058837890625</LongitudeDegrees>
            </Position>
            <AltitudeMeters>434.79998779296875</AltitudeMeters>
            <DistanceMeters>19277.001104301</DistanceMeters>
          </Trackpoint>
          <Trackpoint>
            <Time>2018-08-26T06:28:20.000Z</Time>
            <Position>
              <LatitudeDegrees>42.86475283093750476837158203125</LatitudeDegrees>
              <LongitudeDegrees>-1.759018488228321075439453125</LongitudeDegrees>
            </Position>
            <AltitudeMeters>435</AltitudeMeters>
            <DistanceMeters>19282.483906913</DistanceMeters>
          </Trackpoint>
          <Trackpoint>
            <Time>2018-08-26T06:28:21.000Z</Time>
            <Position>
              <LatitudeDegrees>42.86479272879660129547119140625</LatitudeDegrees>
              <LongitudeDegrees>-1.75905846990644931793212890625</LongitudeDegrees>
            </Position>
            <AltitudeMeters>435.20001220703125</AltitudeMeters>
            <DistanceMeters>19287.993817712</DistanceMeters>
          </Trackpoint>
          <Trackpoint>
            <Time>2018-08-26T06:28:22.000Z</Time>
            <Position>
              <LatitudeDegrees>42.86483095027506351470947265625</LatitudeDegrees>
              <LongitudeDegrees>-1.7590994574129581451416015625</LongitudeDegrees>
            </Position>
            <AltitudeMeters>435.20001220703125</AltitudeMeters>
            <DistanceMeters>19293.405336713</DistanceMeters>
          </Trackpoint>
          <Trackpoint>
            <Time>2018-08-26T06:28:23.000Z</Time>
            <Position>
              <LatitudeDegrees>42.8648682497441768646240234375</LatitudeDegrees>
              <LongitudeDegrees>-1.75913977436721324920654296875</LongitudeDegrees>
            </Position>
            <AltitudeMeters>435.399993896484375</AltitudeMeters>
            <DistanceMeters>19298.702170439</DistanceMeters>
          </Trackpoint>
          <Trackpoint>
            <Time>2018-08-26T06:28:24.000Z</Time>
            <Position>
              <LatitudeDegrees>42.86490638740360736846923828125</LatitudeDegrees>
              <LongitudeDegrees>-1.7591790854930877685546875</LongitudeDegrees>
            </Position>
            <AltitudeMeters>435.399993896484375</AltitudeMeters>
            <DistanceMeters>19304.021969267</DistanceMeters>
          </Trackpoint>
          <Trackpoint>
            <Time>2018-08-26T06:28:25.000Z</Time>
            <Position>
              <LatitudeDegrees>42.864944525063037872314453125</LatitudeDegrees>
              <LongitudeDegrees>-1.75921806134283542633056640625</LongitudeDegrees>
            </Position>
            <AltitudeMeters>435.79998779296875</AltitudeMeters>
            <DistanceMeters>19309.325617834</DistanceMeters>
          </Trackpoint>
          <Trackpoint>
            <Time>2018-08-26T06:28:26.000Z</Time>
            <Position>
              <LatitudeDegrees>42.8649844229221343994140625</LatitudeDegrees>
              <LongitudeDegrees>-1.759258545935153961181640625</LongitudeDegrees>
            </Position>
            <AltitudeMeters>436.20001220703125</AltitudeMeters>
            <DistanceMeters>19314.859241351</DistanceMeters>
          </Trackpoint>
          <Trackpoint>
            <Time>2018-08-26T06:28:27.000Z</Time>
            <Position>
              <LatitudeDegrees>42.86502440460026264190673828125</LatitudeDegrees>
              <LongitudeDegrees>-1.759298779070377349853515625</LongitudeDegrees>
            </Position>
            <AltitudeMeters>436.79998779296875</AltitudeMeters>
            <DistanceMeters>19320.388783722</DistanceMeters>
          </Trackpoint>
          <Trackpoint>
            <Time>2018-08-26T06:28:28.000Z</Time>
            <Position>
              <LatitudeDegrees>42.865064553916454315185546875</LatitudeDegrees>
              <LongitudeDegrees>-1.75933825783431529998779296875</LongitudeDegrees>
            </Position>
            <AltitudeMeters>437.600006103515625</AltitudeMeters>
            <DistanceMeters>19325.89869452</DistanceMeters>
          </Trackpoint>
          <Trackpoint>
            <Time>2018-08-26T06:28:29.000Z</Time>
            <Position>
              <LatitudeDegrees>42.8651073016226291656494140625</LatitudeDegrees>
              <LongitudeDegrees>-1.75938016735017299652099609375</LongitudeDegrees>
            </Position>
            <AltitudeMeters>437.79998779296875</AltitudeMeters>
            <DistanceMeters>19331.758075942</DistanceMeters>
          </Trackpoint>
          <Trackpoint>
            <Time>2018-08-26T06:28:30.000Z</Time>
            <Position>
              <LatitudeDegrees>42.86514862440526485443115234375</LatitudeDegrees>
              <LongitudeDegrees>-1.75942207686603069305419921875</LongitudeDegrees>
            </Position>
            <AltitudeMeters>438</AltitudeMeters>
            <DistanceMeters>19337.489691604</DistanceMeters>
          </Trackpoint>
          <Trackpoint>
            <Time>2018-08-26T06:28:31.000Z</Time>
            <Position>
              <LatitudeDegrees>42.8651904501020908355712890625</LatitudeDegrees>
              <LongitudeDegrees>-1.759464405477046966552734375</LongitudeDegrees>
            </Position>
            <AltitudeMeters>438.399993896484375</AltitudeMeters>
            <DistanceMeters>19343.286321181</DistanceMeters>
          </Trackpoint>
          <Trackpoint>
            <Time>2018-08-26T06:28:32.000Z</Time>
            <Position>
              <LatitudeDegrees>42.86523043178021907806396484375</LatitudeDegrees>
              <LongitudeDegrees>-1.7595068179070949554443359375</LongitudeDegrees>
            </Position>
            <AltitudeMeters>438.79998779296875</AltitudeMeters>
            <DistanceMeters>19348.923416089</DistanceMeters>
          </Trackpoint>
          <Trackpoint>
            <Time>2018-08-26T06:28:33.000Z</Time>
            <Position>
              <LatitudeDegrees>42.8652685694396495819091796875</LatitudeDegrees>
              <LongitudeDegrees>-1.7595490626990795135498046875</LongitudeDegrees>
            </Position>
            <AltitudeMeters>439.20001220703125</AltitudeMeters>
            <DistanceMeters>19354.390549984</DistanceMeters>
          </Trackpoint>
          <Trackpoint>
            <Time>2018-08-26T06:28:34.000Z</Time>
            <Position>
              <LatitudeDegrees>42.8653049468994140625</LatitudeDegrees>
              <LongitudeDegrees>-1.75959206186234951019287109375</LongitudeDegrees>
            </Position>
            <AltitudeMeters>439.399993896484375</AltitudeMeters>
            <DistanceMeters>19359.747562486</DistanceMeters>
          </Trackpoint>
          <Trackpoint>
            <Time>2018-08-26T06:28:35.000Z</Time>
            <Position>
              <LatitudeDegrees>42.86533914506435394287109375</LatitudeDegrees>
              <LongitudeDegrees>-1.759636066854000091552734375</LongitudeDegrees>
            </Position>
            <AltitudeMeters>439.600006103515625</AltitudeMeters>
            <DistanceMeters>19364.980075436</DistanceMeters>
          </Trackpoint>
          <Trackpoint>
            <Time>2018-08-26T06:28:36.000Z</Time>
            <Position>
              <LatitudeDegrees>42.8653731755912303924560546875</LatitudeDegrees>
              <LongitudeDegrees>-1.759679652750492095947265625</LongitudeDegrees>
            </Position>
            <AltitudeMeters>439.79998779296875</AltitudeMeters>
            <DistanceMeters>19370.174482853</DistanceMeters>
          </Trackpoint>
          <Trackpoint>
            <Time>2018-08-26T06:28:37.000Z</Time>
            <Position>
              <LatitudeDegrees>42.8654077090322971343994140625</LatitudeDegrees>
              <LongitudeDegrees>-1.7597234062850475311279296875</LongitudeDegrees>
            </Position>
            <AltitudeMeters>440.20001220703125</AltitudeMeters>
            <DistanceMeters>19375.419923057</DistanceMeters>
          </Trackpoint>
          <Trackpoint>
            <Time>2018-08-26T06:28:38.000Z</Time>
            <Position>
              <LatitudeDegrees>42.8654419071972370147705078125</LatitudeDegrees>
              <LongitudeDegrees>-1.75976657308638095855712890625</LongitudeDegrees>
            </Position>
            <AltitudeMeters>440.20001220703125</AltitudeMeters>
            <DistanceMeters>19380.605631075</DistanceMeters>
          </Trackpoint>
          <Trackpoint>
            <Time>2018-08-26T06:28:39.000Z</Time>
            <Position>
              <LatitudeDegrees>42.86547652445733547210693359375</LatitudeDegrees>
              <LongitudeDegrees>-1.75980814732611179351806640625</LongitudeDegrees>
            </Position>
            <AltitudeMeters>440.399993896484375</AltitudeMeters>
            <DistanceMeters>19385.738833103</DistanceMeters>
          </Trackpoint>
          <Trackpoint>
            <Time>2018-08-26T06:28:40.000Z</Time>
            <Position>
              <LatitudeDegrees>42.8655113093554973602294921875</LatitudeDegrees>
              <LongitudeDegrees>-1.75985039211809635162353515625</LongitudeDegrees>
            </Position>
            <AltitudeMeters>440.399993896484375</AltitudeMeters>
            <DistanceMeters>19390.921928454</DistanceMeters>
          </Trackpoint>
          <Trackpoint>
            <Time>2018-08-26T06:28:41.000Z</Time>
            <Position>
              <LatitudeDegrees>42.865546680986881256103515625</LatitudeDegrees>
              <LongitudeDegrees>-1.7598930560052394866943359375</LongitudeDegrees>
            </Position>
            <AltitudeMeters>440.600006103515625</AltitudeMeters>
            <DistanceMeters>19396.175969156</DistanceMeters>
          </Trackpoint>
          <Trackpoint>
            <Time>2018-08-26T06:28:42.000Z</Time>
            <Position>
              <LatitudeDegrees>42.8655820526182651519775390625</LatitudeDegrees>
              <LongitudeDegrees>-1.7599356360733509063720703125</LongitudeDegrees>
            </Position>
            <AltitudeMeters>441</AltitudeMeters>
            <DistanceMeters>19401.425711369</DistanceMeters>
          </Trackpoint>
          <Trackpoint>
            <Time>2018-08-26T06:28:43.000Z</Time>
            <Position>
              <LatitudeDegrees>42.86561666987836360931396484375</LatitudeDegrees>
              <LongitudeDegrees>-1.75997905433177947998046875</LongitudeDegrees>
            </Position>
            <AltitudeMeters>441</AltitudeMeters>
            <DistanceMeters>19406.65822432</DistanceMeters>
          </Trackpoint>
          <Trackpoint>
            <Time>2018-08-26T06:28:44.000Z</Time>
            <Position>
              <LatitudeDegrees>42.86565162241458892822265625</LatitudeDegrees>
              <LongitudeDegrees>-1.76002305932343006134033203125</LongitudeDegrees>
            </Position>
            <AltitudeMeters>441.20001220703125</AltitudeMeters>
            <DistanceMeters>19411.950794312</DistanceMeters>
          </Trackpoint>
          <Trackpoint>
            <Time>2018-08-26T06:28:45.000Z</Time>
            <Position>
              <LatitudeDegrees>42.86568774841725826263427734375</LatitudeDegrees>
              <LongitudeDegrees>-1.76006664521992206573486328125</LongitudeDegrees>
            </Position>
            <AltitudeMeters>441.20001220703125</AltitudeMeters>
            <DistanceMeters>19417.318752391</DistanceMeters>
          </Trackpoint>
          <Trackpoint>
            <Time>2018-08-26T06:28:46.000Z</Time>
            <Position>
              <LatitudeDegrees>42.86572362296283245086669921875</LatitudeDegrees>
              <LongitudeDegrees>-1.76011048257350921630859375</LongitudeDegrees>
            </Position>
            <AltitudeMeters>441.20001220703125</AltitudeMeters>
            <DistanceMeters>19422.679135143</DistanceMeters>
          </Trackpoint>
          <Trackpoint>
            <Time>2018-08-26T06:28:47.000Z</Time>
            <Position>
              <LatitudeDegrees>42.86576117388904094696044921875</LatitudeDegrees>
              <LongitudeDegrees>-1.76015415228903293609619140625</LongitudeDegrees>
            </Position>
            <AltitudeMeters>441.399993896484375</AltitudeMeters>
            <DistanceMeters>19428.170988684</DistanceMeters>
          </Trackpoint>
          <Trackpoint>
            <Time>2018-08-26T06:28:48.000Z</Time>
            <Position>
              <LatitudeDegrees>42.86579788662493228912353515625</LatitudeDegrees>
              <LongitudeDegrees>-1.76019790582358837127685546875</LongitudeDegrees>
            </Position>
            <AltitudeMeters>441.399993896484375</AltitudeMeters>
            <DistanceMeters>19433.598336965</DistanceMeters>
          </Trackpoint>
          <Trackpoint>
            <Time>2018-08-26T06:28:49.000Z</Time>
            <Position>
              <LatitudeDegrees>42.86583392880856990814208984375</LatitudeDegrees>
              <LongitudeDegrees>-1.760241575539112091064453125</LongitudeDegrees>
            </Position>
            <AltitudeMeters>441.600006103515625</AltitudeMeters>
            <DistanceMeters>19438.963771123</DistanceMeters>
          </Trackpoint>
          <Trackpoint>
            <Time>2018-08-26T06:28:50.000Z</Time>
            <Position>
              <LatitudeDegrees>42.8658700548112392425537109375</LatitudeDegrees>
              <LongitudeDegrees>-1.7602846585214138031005859375</LongitudeDegrees>
            </Position>
            <AltitudeMeters>441.79998779296875</AltitudeMeters>
            <DistanceMeters>19444.304745892</DistanceMeters>
          </Trackpoint>
          <Trackpoint>
            <Time>2018-08-26T06:28:51.000Z</Time>
            <Position>
              <LatitudeDegrees>42.865906096994876861572265625</LatitudeDegrees>
              <LongitudeDegrees>-1.7603269033133983612060546875</LongitudeDegrees>
            </Position>
            <AltitudeMeters>442</AltitudeMeters>
            <DistanceMeters>19449.593048715</DistanceMeters>
          </Trackpoint>
          <Trackpoint>
            <Time>2018-08-26T06:28:52.000Z</Time>
            <Position>
              <LatitudeDegrees>42.86594331264495849609375</LatitudeDegrees>
              <LongitudeDegrees>-1.76036839373409748077392578125</LongitudeDegrees>
            </Position>
            <AltitudeMeters>442.20001220703125</AltitudeMeters>
            <DistanceMeters>19454.943314347</DistanceMeters>
          </Trackpoint>
          <Trackpoint>
            <Time>2018-08-26T06:28:53.000Z</Time>
            <Position>
              <LatitudeDegrees>42.8659813664853572845458984375</LatitudeDegrees>
              <LongitudeDegrees>-1.7604093812406063079833984375</LongitudeDegrees>
            </Position>
            <AltitudeMeters>442.399993896484375</AltitudeMeters>
            <DistanceMeters>19460.340630958</DistanceMeters>
          </Trackpoint>
          <Trackpoint>
            <Time>2018-08-26T06:28:54.000Z</Time>
            <Position>
              <LatitudeDegrees>42.86602042615413665771484375</LatitudeDegrees>
              <LongitudeDegrees>-1.76044936291873455047607421875</LongitudeDegrees>
            </Position>
            <AltitudeMeters>442.399993896484375</AltitudeMeters>
            <DistanceMeters>19465.776291923</DistanceMeters>
          </Trackpoint>
          <Trackpoint>
            <Time>2018-08-26T06:28:55.000Z</Time>
            <Position>
              <LatitudeDegrees>42.86606191657483577728271484375</LatitudeDegrees>
              <LongitudeDegrees>-1.7604861594736576080322265625</LongitudeDegrees>
            </Position>
            <AltitudeMeters>442.79998779296875</AltitudeMeters>
            <DistanceMeters>19471.284563599</DistanceMeters>
          </Trackpoint>
          <Trackpoint>
            <Time>2018-08-26T06:28:56.000Z</Time>
            <Position>
              <LatitudeDegrees>42.86610533483326435089111328125</LatitudeDegrees>
              <LongitudeDegrees>-1.7605196870863437652587890625</LongitudeDegrees>
            </Position>
            <AltitudeMeters>443.20001220703125</AltitudeMeters>
            <DistanceMeters>19476.836921745</DistanceMeters>
          </Trackpoint>
          <Trackpoint>
            <Time>2018-08-26T06:28:57.000Z</Time>
            <Position>
              <LatitudeDegrees>42.8661510162055492401123046875</LatitudeDegrees>
              <LongitudeDegrees>-1.76054902374744415283203125</LongitudeDegrees>
            </Position>
            <AltitudeMeters>443.600006103515625</AltitudeMeters>
            <DistanceMeters>19482.456368099</DistanceMeters>
          </Trackpoint>
          <Trackpoint>
            <Time>2018-08-26T06:28:58.000Z</Time>
            <Position>
              <LatitudeDegrees>42.8661979548633098602294921875</LatitudeDegrees>
              <LongitudeDegrees>-1.760575510561466217041015625</LongitudeDegrees>
            </Position>
            <AltitudeMeters>443.600006103515625</AltitudeMeters>
            <DistanceMeters>19488.109459336</DistanceMeters>
          </Trackpoint>
          <Trackpoint>
            <Time>2018-08-26T06:28:59.000Z</Time>
            <Position>
              <LatitudeDegrees>42.86624707281589508056640625</LatitudeDegrees>
              <LongitudeDegrees>-1.76059654913842678070068359375</LongitudeDegrees>
            </Position>
            <AltitudeMeters>443.600006103515625</AltitudeMeters>
            <DistanceMeters>19493.839499296</DistanceMeters>
          </Trackpoint>
          <Trackpoint>
            <Time>2018-08-26T06:29:00.000Z</Time>
            <Position>
              <LatitudeDegrees>42.866295687854290008544921875</LatitudeDegrees>
              <LongitudeDegrees>-1.76061314530670642852783203125</LongitudeDegrees>
            </Position>
            <AltitudeMeters>443.79998779296875</AltitudeMeters>
            <DistanceMeters>19499.417818346</DistanceMeters>
          </Trackpoint>
          <Trackpoint>
            <Time>2018-08-26T06:29:01.000Z</Time>
            <Position>
              <LatitudeDegrees>42.8663469851016998291015625</LatitudeDegrees>
              <LongitudeDegrees>-1.76062680780887603759765625</LongitudeDegrees>
            </Position>
            <AltitudeMeters>444</AltitudeMeters>
            <DistanceMeters>19505.236216458</DistanceMeters>
          </Trackpoint>
          <Trackpoint>
            <Time>2018-08-26T06:29:02.000Z</Time>
            <Position>
              <LatitudeDegrees>42.86639652214944362640380859375</LatitudeDegrees>
              <LongitudeDegrees>-1.760635860264301300048828125</LongitudeDegrees>
            </Position>
            <AltitudeMeters>444.20001220703125</AltitudeMeters>
            <DistanceMeters>19510.799135833</DistanceMeters>
          </Trackpoint>
          <Trackpoint>
            <Time>2018-08-26T06:29:03.000Z</Time>
            <Position>
              <LatitudeDegrees>42.86644756793975830078125</LatitudeDegrees>
              <LongitudeDegrees>-1.7606440745294094085693359375</LongitudeDegrees>
            </Position>
            <AltitudeMeters>444.600006103515625</AltitudeMeters>
            <DistanceMeters>19516.519712468</DistanceMeters>
          </Trackpoint>
          <Trackpoint>
            <Time>2018-08-26T06:29:04.000Z</Time>
            <Position>
              <LatitudeDegrees>42.86649785935878753662109375</LatitudeDegrees>
              <LongitudeDegrees>-1.76065170206129550933837890625</LongitudeDegrees>
            </Position>
            <AltitudeMeters>444.79998779296875</AltitudeMeters>
            <DistanceMeters>19522.151197927</DistanceMeters>
          </Trackpoint>
          <Trackpoint>
            <Time>2018-08-26T06:29:05.000Z</Time>
            <Position>
              <LatitudeDegrees>42.86654756404459476470947265625</LatitudeDegrees>
              <LongitudeDegrees>-1.76065974868834018707275390625</LongitudeDegrees>
            </Position>
            <AltitudeMeters>445</AltitudeMeters>
            <DistanceMeters>19527.7222277</DistanceMeters>
          </Trackpoint>
          <Trackpoint>
            <Time>2018-08-26T06:29:06.000Z</Time>
            <Position>
              <LatitudeDegrees>42.86659785546362400054931640625</LatitudeDegrees>
              <LongitudeDegrees>-1.76066762767732143402099609375</LongitudeDegrees>
            </Position>
            <AltitudeMeters>445.399993896484375</AltitudeMeters>
            <DistanceMeters>19533.356919243</DistanceMeters>
          </Trackpoint>
          <Trackpoint>
            <Time>2018-08-26T06:29:07.000Z</Time>
            <Position>
              <LatitudeDegrees>42.86664881743490695953369140625</LatitudeDegrees>
              <LongitudeDegrees>-1.7606757581233978271484375</LongitudeDegrees>
            </Position>
            <AltitudeMeters>445.600006103515625</AltitudeMeters>
            <DistanceMeters>19539.06801687</DistanceMeters>
          </Trackpoint>
          <Trackpoint>
            <Time>2018-08-26T06:29:08.000Z</Time>
            <Position>
              <LatitudeDegrees>42.86669927649199962615966796875</LatitudeDegrees>
              <LongitudeDegrees>-1.7606826312839984893798828125</LongitudeDegrees>
            </Position>
            <AltitudeMeters>445.79998779296875</AltitudeMeters>
            <DistanceMeters>19544.712315737</DistanceMeters>
          </Trackpoint>
          <Trackpoint>
            <Time>2018-08-26T06:29:09.000Z</Time>
            <Position>
              <LatitudeDegrees>42.86674956791102886199951171875</LatitudeDegrees>
              <LongitudeDegrees>-1.76068992353975772857666015625</LongitudeDegrees>
            </Position>
            <AltitudeMeters>445.79998779296875</AltitudeMeters>
            <DistanceMeters>19550.340593286</DistanceMeters>
          </Trackpoint>
          <Trackpoint>
            <Time>2018-08-26T06:29:10.000Z</Time>
            <Position>
              <LatitudeDegrees>42.86679960787296295166015625</LatitudeDegrees>
              <LongitudeDegrees>-1.76069746725261211395263671875</LongitudeDegrees>
            </Position>
            <AltitudeMeters>446</AltitudeMeters>
            <DistanceMeters>19555.943947263</DistanceMeters>
          </Trackpoint>
          <Trackpoint>
            <Time>2018-08-26T06:29:11.000Z</Time>
            <Position>
              <LatitudeDegrees>42.86684914492070674896240234375</LatitudeDegrees>
              <LongitudeDegrees>-1.76070417277514934539794921875</LongitudeDegrees>
            </Position>
            <AltitudeMeters>446.20001220703125</AltitudeMeters>
            <DistanceMeters>19561.484909265</DistanceMeters>
          </Trackpoint>
          <Trackpoint>
            <Time>2018-08-26T06:29:12.000Z</Time>
            <Position>
              <LatitudeDegrees>42.86689876578748226165771484375</LatitudeDegrees>
              <LongitudeDegrees>-1.76071104593575000762939453125</LongitudeDegrees>
            </Position>
            <AltitudeMeters>446.20001220703125</AltitudeMeters>
            <DistanceMeters>19567.037267411</DistanceMeters>
          </Trackpoint>
          <Trackpoint>
            <Time>2018-08-26T06:29:13.000Z</Time>
            <Position>
              <LatitudeDegrees>42.86694805137813091278076171875</LatitudeDegrees>
              <LongitudeDegrees>-1.76071858964860439300537109375</LongitudeDegrees>
            </Position>
            <AltitudeMeters>446.20001220703125</AltitudeMeters>
            <DistanceMeters>19572.557002724</DistanceMeters>
          </Trackpoint>
          <Trackpoint>
            <Time>2018-08-26T06:29:14.000Z</Time>
            <Position>
              <LatitudeDegrees>42.8669975884258747100830078125</LatitudeDegrees>
              <LongitudeDegrees>-1.76072395406663417816162109375</LongitudeDegrees>
            </Position>
            <AltitudeMeters>446.399993896484375</AltitudeMeters>
            <DistanceMeters>19578.088177915</DistanceMeters>
          </Trackpoint>
          <Trackpoint>
            <Time>2018-08-26T06:29:15.000Z</Time>
            <Position>
              <LatitudeDegrees>42.8670475445687770843505859375</LatitudeDegrees>
              <LongitudeDegrees>-1.76072529517114162445068359375</LongitudeDegrees>
            </Position>
            <AltitudeMeters>446.399993896484375</AltitudeMeters>
            <DistanceMeters>19583.648661863</DistanceMeters>
          </Trackpoint>
          <Trackpoint>
            <Time>2018-08-26T06:29:16.000Z</Time>
            <Position>
              <LatitudeDegrees>42.86709859035909175872802734375</LatitudeDegrees>
              <LongitudeDegrees>-1.76072378642857074737548828125</LongitudeDegrees>
            </Position>
            <AltitudeMeters>446.600006103515625</AltitudeMeters>
            <DistanceMeters>19589.331227601</DistanceMeters>
          </Trackpoint>
          <Trackpoint>
            <Time>2018-08-26T06:29:17.000Z</Time>
            <Position>
              <LatitudeDegrees>42.86714963614940643310546875</LatitudeDegrees>
              <LongitudeDegrees>-1.76072202622890472412109375</LongitudeDegrees>
            </Position>
            <AltitudeMeters>446.600006103515625</AltitudeMeters>
            <DistanceMeters>19595.013793339</DistanceMeters>
          </Trackpoint>
          <Trackpoint>
            <Time>2018-08-26T06:29:18.000Z</Time>
            <Position>
              <LatitudeDegrees>42.8672007657587528228759765625</LatitudeDegrees>
              <LongitudeDegrees>-1.76072068512439727783203125</LongitudeDegrees>
            </Position>
            <AltitudeMeters>446.79998779296875</AltitudeMeters>
            <DistanceMeters>19600.705885597</DistanceMeters>
          </Trackpoint>
          <Trackpoint>
            <Time>2018-08-26T06:29:19.000Z</Time>
            <Position>
              <LatitudeDegrees>42.8672503866255283355712890625</LatitudeDegrees>
              <LongitudeDegrees>-1.76071708090603351593017578125</LongitudeDegrees>
            </Position>
            <AltitudeMeters>446.79998779296875</AltitudeMeters>
            <DistanceMeters>19606.237060788</DistanceMeters>
          </Trackpoint>
          <Trackpoint>
            <Time>2018-08-26T06:29:20.000Z</Time>
            <Position>
              <LatitudeDegrees>42.86730143241584300994873046875</LatitudeDegrees>
              <LongitudeDegrees>-1.76071238704025745391845703125</LongitudeDegrees>
            </Position>
            <AltitudeMeters>447</AltitudeMeters>
            <DistanceMeters>19611.931532187</DistanceMeters>
          </Trackpoint>
          <Trackpoint>
            <Time>2018-08-26T06:29:21.000Z</Time>
            <Position>
              <LatitudeDegrees>42.86735222674906253814697265625</LatitudeDegrees>
              <LongitudeDegrees>-1.76070568151772022247314453125</LongitudeDegrees>
            </Position>
            <AltitudeMeters>447.20001220703125</AltitudeMeters>
            <DistanceMeters>19617.611713798</DistanceMeters>
          </Trackpoint>
          <Trackpoint>
            <Time>2018-08-26T06:29:22.000Z</Time>
            <Position>
              <LatitudeDegrees>42.8674029372632503509521484375</LatitudeDegrees>
              <LongitudeDegrees>-1.76069713197648525238037109375</LongitudeDegrees>
            </Position>
            <AltitudeMeters>447.399993896484375</AltitudeMeters>
            <DistanceMeters>19623.299044791</DistanceMeters>
          </Trackpoint>
          <Trackpoint>
            <Time>2018-08-26T06:29:23.000Z</Time>
            <Position>
              <LatitudeDegrees>42.86745482124388217926025390625</LatitudeDegrees>
              <LongitudeDegrees>-1.7606883309781551361083984375</LongitudeDegrees>
            </Position>
            <AltitudeMeters>447.600006103515625</AltitudeMeters>
            <DistanceMeters>19629.118218844</DistanceMeters>
          </Trackpoint>
          <Trackpoint>
            <Time>2018-08-26T06:29:24.000Z</Time>
            <Position>
              <LatitudeDegrees>42.86750745959579944610595703125</LatitudeDegrees>
              <LongitudeDegrees>-1.76067986525595188140869140625</LongitudeDegrees>
            </Position>
            <AltitudeMeters>447.79998779296875</AltitudeMeters>
            <DistanceMeters>19635.017533602</DistanceMeters>
          </Trackpoint>
          <Trackpoint>
            <Time>2018-08-26T06:29:25.000Z</Time>
            <Position>
              <LatitudeDegrees>42.86755976267158985137939453125</LatitudeDegrees>
              <LongitudeDegrees>-1.76067081280052661895751953125</LongitudeDegrees>
            </Position>
            <AltitudeMeters>448.20001220703125</AltitudeMeters>
            <DistanceMeters>19640.885385124</DistanceMeters>
          </Trackpoint>
          <Trackpoint>
            <Time>2018-08-26T06:29:26.000Z</Time>
            <Position>
              <LatitudeDegrees>42.8676118142902851104736328125</LatitudeDegrees>
              <LongitudeDegrees>-1.76066243089735507965087890625</LongitudeDegrees>
            </Position>
            <AltitudeMeters>448.600006103515625</AltitudeMeters>
            <DistanceMeters>19646.719282459</DistanceMeters>
          </Trackpoint>
          <Trackpoint>
            <Time>2018-08-26T06:29:27.000Z</Time>
            <Position>
              <LatitudeDegrees>42.86766327917575836181640625</LatitudeDegrees>
              <LongitudeDegrees>-1.7606544680893421173095703125</LongitudeDegrees>
            </Position>
            <AltitudeMeters>448.600006103515625</AltitudeMeters>
            <DistanceMeters>19652.484671552</DistanceMeters>
          </Trackpoint>
          <Trackpoint>
            <Time>2018-08-26T06:29:28.000Z</Time>
            <Position>
              <LatitudeDegrees>42.86771432496607303619384765625</LatitudeDegrees>
              <LongitudeDegrees>-1.76064650528132915496826171875</LongitudeDegrees>
            </Position>
            <AltitudeMeters>448.79998779296875</AltitudeMeters>
            <DistanceMeters>19658.203669443</DistanceMeters>
          </Trackpoint>
          <Trackpoint>
            <Time>2018-08-26T06:29:29.000Z</Time>
            <Position>
              <LatitudeDegrees>42.8677658736705780029296875</LatitudeDegrees>
              <LongitudeDegrees>-1.76063845865428447723388671875</LongitudeDegrees>
            </Position>
            <AltitudeMeters>449</AltitudeMeters>
            <DistanceMeters>19663.978448427</DistanceMeters>
          </Trackpoint>
          <Trackpoint>
            <Time>2018-08-26T06:29:30.000Z</Time>
            <Position>
              <LatitudeDegrees>42.8678156621754169464111328125</LatitudeDegrees>
              <LongitudeDegrees>-1.76063158549368381500244140625</LongitudeDegrees>
            </Position>
            <AltitudeMeters>449.20001220703125</AltitudeMeters>
            <DistanceMeters>19669.548667692</DistanceMeters>
          </Trackpoint>
          <Trackpoint>
            <Time>2018-08-26T06:29:31.000Z</Time>
            <Position>
              <LatitudeDegrees>42.8678649477660655975341796875</LatitudeDegrees>
              <LongitudeDegrees>-1.76062303595244884490966796875</LongitudeDegrees>
            </Position>
            <AltitudeMeters>449.399993896484375</AltitudeMeters>
            <DistanceMeters>19675.078210063</DistanceMeters>
          </Trackpoint>
          <Trackpoint>
            <Time>2018-08-26T06:29:32.000Z</Time>
            <Position>
              <LatitudeDegrees>42.86791398189961910247802734375</LatitudeDegrees>
              <LongitudeDegrees>-1.76061163656413555145263671875</LongitudeDegrees>
            </Position>
            <AltitudeMeters>449.600006103515625</AltitudeMeters>
            <DistanceMeters>19680.614280823</DistanceMeters>
          </Trackpoint>
          <Trackpoint>
            <Time>2018-08-26T06:29:33.000Z</Time>
            <Position>
              <LatitudeDegrees>42.86796226166188716888427734375</LatitudeDegrees>
              <LongitudeDegrees>-1.76059571094810962677001953125</LongitudeDegrees>
            </Position>
            <AltitudeMeters>449.600006103515625</AltitudeMeters>
            <DistanceMeters>19686.143006604</DistanceMeters>
          </Trackpoint>
          <Trackpoint>
            <Time>2018-08-26T06:29:34.000Z</Time>
            <Position>
              <LatitudeDegrees>42.86800886504352092742919921875</LatitudeDegrees>
              <LongitudeDegrees>-1.76057509146630764007568359375</LongitudeDegrees>
            </Position>
            <AltitudeMeters>450</AltitudeMeters>
            <DistanceMeters>19691.595254915</DistanceMeters>
          </Trackpoint>
          <Trackpoint>
            <Time>2018-08-26T06:29:35.000Z</Time>
            <Position>
              <LatitudeDegrees>42.8680530376732349395751953125</LatitudeDegrees>
              <LongitudeDegrees>-1.760551370680332183837890625</LongitudeDegrees>
            </Position>
            <AltitudeMeters>450.20001220703125</AltitudeMeters>
            <DistanceMeters>19696.879287122</DistanceMeters>
          </Trackpoint>
          <Trackpoint>
            <Time>2018-08-26T06:29:36.000Z</Time>
            <Position>
              <LatitudeDegrees>42.86809553392231464385986328125</LatitudeDegrees>
              <LongitudeDegrees>-1.760525889694690704345703125</LongitudeDegrees>
            </Position>
            <AltitudeMeters>450.399993896484375</AltitudeMeters>
            <DistanceMeters>19702.045804902</DistanceMeters>
          </Trackpoint>
          <Trackpoint>
            <Time>2018-08-26T06:29:37.000Z</Time>
            <Position>
              <LatitudeDegrees>42.8681387007236480712890625</LatitudeDegrees>
              <LongitudeDegrees>-1.7605014145374298095703125</LongitudeDegrees>
            </Position>
            <AltitudeMeters>450.600006103515625</AltitudeMeters>
            <DistanceMeters>19707.248897173</DistanceMeters>
          </Trackpoint>
          <Trackpoint>
            <Time>2018-08-26T06:29:38.000Z</Time>
            <Position>
              <LatitudeDegrees>42.868179939687252044677734375</LatitudeDegrees>
              <LongitudeDegrees>-1.7604781128466129302978515625</LongitudeDegrees>
            </Position>
            <AltitudeMeters>450.79998779296875</AltitudeMeters>
            <DistanceMeters>19712.217622261</DistanceMeters>
          </Trackpoint>
          <Trackpoint>
            <Time>2018-08-26T06:29:39.000Z</Time>
            <Position>
              <LatitudeDegrees>42.8682186640799045562744140625</LatitudeDegrees>
              <LongitudeDegrees>-1.76044919528067111968994140625</LongitudeDegrees>
            </Position>
            <AltitudeMeters>451</AltitudeMeters>
            <DistanceMeters>19717.130604485</DistanceMeters>
          </Trackpoint>
          <Trackpoint>
            <Time>2018-08-26T06:29:40.000Z</Time>
            <Position>
              <LatitudeDegrees>42.868255041539669036865234375</LatitudeDegrees>
              <LongitudeDegrees>-1.760413907468318939208984375</LongitudeDegrees>
            </Position>
            <AltitudeMeters>451.20001220703125</AltitudeMeters>
            <DistanceMeters>19722.097511857</DistanceMeters>
          </Trackpoint>
          <Trackpoint>
            <Time>2018-08-26T06:29:41.000Z</Time>
            <Position>
              <LatitudeDegrees>42.86828982643783092498779296875</LatitudeDegrees>
              <LongitudeDegrees>-1.76037610508501529693603515625</LongitudeDegrees>
            </Position>
            <AltitudeMeters>451.399993896484375</AltitudeMeters>
            <DistanceMeters>19727.047117639</DistanceMeters>
          </Trackpoint>
          <Trackpoint>
            <Time>2018-08-26T06:29:42.000Z</Time>
            <Position>
              <LatitudeDegrees>42.8683252818882465362548828125</LatitudeDegrees>
              <LongitudeDegrees>-1.76033712923526763916015625</LongitudeDegrees>
            </Position>
            <AltitudeMeters>451.600006103515625</AltitudeMeters>
            <DistanceMeters>19732.113922088</DistanceMeters>
          </Trackpoint>
          <Trackpoint>
            <Time>2018-08-26T06:29:43.000Z</Time>
            <Position>
              <LatitudeDegrees>42.86836065351963043212890625</LatitudeDegrees>
              <LongitudeDegrees>-1.76029949449002742767333984375</LongitudeDegrees>
            </Position>
            <AltitudeMeters>451.79998779296875</AltitudeMeters>
            <DistanceMeters>19737.10712157</DistanceMeters>
          </Trackpoint>
          <Trackpoint>
            <Time>2018-08-26T06:29:44.000Z</Time>
            <Position>
              <LatitudeDegrees>42.8683980368077754974365234375</LatitudeDegrees>
              <LongitudeDegrees>-1.76026496104896068572998046875</LongitudeDegrees>
            </Position>
            <AltitudeMeters>452</AltitudeMeters>
            <DistanceMeters>19742.131869697</DistanceMeters>
          </Trackpoint>
          <Trackpoint>
            <Time>2018-08-26T06:29:45.000Z</Time>
            <Position>
              <LatitudeDegrees>42.868438772857189178466796875</LatitudeDegrees>
              <LongitudeDegrees>-1.76023227162659168243408203125</LongitudeDegrees>
            </Position>
            <AltitudeMeters>452.399993896484375</AltitudeMeters>
            <DistanceMeters>19747.391922379</DistanceMeters>
          </Trackpoint>
          <Trackpoint>
            <Time>2018-08-26T06:29:46.000Z</Time>
            <Position>
              <LatitudeDegrees>42.86847992800176143646240234375</LatitudeDegrees>
              <LongitudeDegrees>-1.760199330747127532958984375</LongitudeDegrees>
            </Position>
            <AltitudeMeters>452.600006103515625</AltitudeMeters>
            <DistanceMeters>19752.703227192</DistanceMeters>
          </Trackpoint>
          <Trackpoint>
            <Time>2018-08-26T06:29:47.000Z</Time>
            <Position>
              <LatitudeDegrees>42.86851714365184307098388671875</LatitudeDegrees>
              <LongitudeDegrees>-1.76016270183026790618896484375</LongitudeDegrees>
            </Position>
            <AltitudeMeters>453</AltitudeMeters>
            <DistanceMeters>19757.810857841</DistanceMeters>
          </Trackpoint>
          <Trackpoint>
            <Time>2018-08-26T06:29:48.000Z</Time>
            <Position>
              <LatitudeDegrees>42.8685519285500049591064453125</LatitudeDegrees>
              <LongitudeDegrees>-1.76012196578085422515869140625</LongitudeDegrees>
            </Position>
            <AltitudeMeters>453.20001220703125</AltitudeMeters>
            <DistanceMeters>19762.913181859</DistanceMeters>
          </Trackpoint>
          <Trackpoint>
            <Time>2018-08-26T06:29:49.000Z</Time>
            <Position>
              <LatitudeDegrees>42.86858838982880115509033203125</LatitudeDegrees>
              <LongitudeDegrees>-1.76008257083594799041748046875</LongitudeDegrees>
            </Position>
            <AltitudeMeters>453.399993896484375</AltitudeMeters>
            <DistanceMeters>19768.09017586</DistanceMeters>
          </Trackpoint>
          <Trackpoint>
            <Time>2018-08-26T06:29:50.000Z</Time>
            <Position>
              <LatitudeDegrees>42.8686266951262950897216796875</LatitudeDegrees>
              <LongitudeDegrees>-1.7600462771952152252197265625</LongitudeDegrees>
            </Position>
            <AltitudeMeters>453.399993896484375</AltitudeMeters>
            <DistanceMeters>19773.281105267</DistanceMeters>
          </Trackpoint>
          <Trackpoint>
            <Time>2018-08-26T06:29:51.000Z</Time>
            <Position>
              <LatitudeDegrees>42.868666090071201324462890625</LatitudeDegrees>
              <LongitudeDegrees>-1.76001098938286304473876953125</LongitudeDegrees>
            </Position>
            <AltitudeMeters>453.79998779296875</AltitudeMeters>
            <DistanceMeters>19778.525684645</DistanceMeters>
          </Trackpoint>
          <Trackpoint>
            <Time>2018-08-26T06:29:52.000Z</Time>
            <Position>
              <LatitudeDegrees>42.86870473064482212066650390625</LatitudeDegrees>
              <LongitudeDegrees>-1.75997528247535228729248046875</LongitudeDegrees>
            </Position>
            <AltitudeMeters>453.79998779296875</AltitudeMeters>
            <DistanceMeters>19783.720092062</DistanceMeters>
          </Trackpoint>
          <Trackpoint>
            <Time>2018-08-26T06:29:53.000Z</Time>
            <Position>
              <LatitudeDegrees>42.86874152719974517822265625</LatitudeDegrees>
              <LongitudeDegrees>-1.7599373124539852142333984375</LongitudeDegrees>
            </Position>
            <AltitudeMeters>454</AltitudeMeters>
            <DistanceMeters>19788.855052939</DistanceMeters>
          </Trackpoint>
          <Trackpoint>
            <Time>2018-08-26T06:29:54.000Z</Time>
            <Position>
              <LatitudeDegrees>42.8687799163162708282470703125</LatitudeDegrees>
              <LongitudeDegrees>-1.75989900715649127960205078125</LongitudeDegrees>
            </Position>
            <AltitudeMeters>454.20001220703125</AltitudeMeters>
            <DistanceMeters>19794.147622932</DistanceMeters>
          </Trackpoint>
          <Trackpoint>
            <Time>2018-08-26T06:29:55.000Z</Time>
            <Position>
              <LatitudeDegrees>42.86881939508020877838134765625</LatitudeDegrees>
              <LongitudeDegrees>-1.75986112095415592193603515625</LongitudeDegrees>
            </Position>
            <AltitudeMeters>454.79998779296875</AltitudeMeters>
            <DistanceMeters>19799.51978491</DistanceMeters>
          </Trackpoint>
          <Trackpoint>
            <Time>2018-08-26T06:29:56.000Z</Time>
            <Position>
              <LatitudeDegrees>42.86885820329189300537109375</LatitudeDegrees>
              <LongitudeDegrees>-1.7598249949514865875244140625</LongitudeDegrees>
            </Position>
            <AltitudeMeters>455</AltitudeMeters>
            <DistanceMeters>19804.749708576</DistanceMeters>
          </Trackpoint>
          <Trackpoint>
            <Time>2018-08-26T06:29:57.000Z</Time>
            <Position>
              <LatitudeDegrees>42.86890019662678241729736328125</LatitudeDegrees>
              <LongitudeDegrees>-1.75979037769138813018798828125</LongitudeDegrees>
            </Position>
            <AltitudeMeters>455</AltitudeMeters>
            <DistanceMeters>19810.210231666</DistanceMeters>
          </Trackpoint>
          <Trackpoint>
            <Time>2018-08-26T06:29:58.000Z</Time>
            <Position>
              <LatitudeDegrees>42.8689406812191009521484375</LatitudeDegrees>
              <LongitudeDegrees>-1.75975316204130649566650390625</LongitudeDegrees>
            </Position>
            <AltitudeMeters>455.20001220703125</AltitudeMeters>
            <DistanceMeters>19815.642569083</DistanceMeters>
          </Trackpoint>
          <Trackpoint>
            <Time>2018-08-26T06:29:59.000Z</Time>
            <Position>
              <LatitudeDegrees>42.86897982470691204071044921875</LatitudeDegrees>
              <LongitudeDegrees>-1.7597133480012416839599609375</LongitudeDegrees>
            </Position>
            <AltitudeMeters>455.399993896484375</AltitudeMeters>
            <DistanceMeters>19821.076568529</DistanceMeters>
          </Trackpoint>
          <Trackpoint>
            <Time>2018-08-26T06:30:00.000Z</Time>
            <Position>
              <LatitudeDegrees>42.869019471108913421630859375</LatitudeDegrees>
              <LongitudeDegrees>-1.75967437215149402618408203125</LongitudeDegrees>
            </Position>
            <AltitudeMeters>455.600006103515625</AltitudeMeters>
            <DistanceMeters>19826.514720821</DistanceMeters>
          </Trackpoint>
          <Trackpoint>
            <Time>2018-08-26T06:30:01.000Z</Time>
            <Position>
              <LatitudeDegrees>42.8690602071583271026611328125</LatitudeDegrees>
              <LongitudeDegrees>-1.75963732413947582244873046875</LongitudeDegrees>
            </Position>
            <AltitudeMeters>456</AltitudeMeters>
            <DistanceMeters>19831.961998232</DistanceMeters>
          </Trackpoint>
          <Trackpoint>
            <Time>2018-08-26T06:30:02.000Z</Time>
            <Position>
              <LatitudeDegrees>42.86909935064613819122314453125</LatitudeDegrees>
              <LongitudeDegrees>-1.75959952175617218017578125</LongitudeDegrees>
            </Position>
            <AltitudeMeters>456.20001220703125</AltitudeMeters>
            <DistanceMeters>19837.299590497</DistanceMeters>
          </Trackpoint>
          <Trackpoint>
            <Time>2018-08-26T06:30:03.000Z</Time>
            <Position>
              <LatitudeDegrees>42.86913572810590267181396484375</LatitudeDegrees>
              <LongitudeDegrees>-1.75956104882061481475830078125</LongitudeDegrees>
            </Position>
            <AltitudeMeters>456.399993896484375</AltitudeMeters>
            <DistanceMeters>19842.422226746</DistanceMeters>
          </Trackpoint>
          <Trackpoint>
            <Time>2018-08-26T06:30:04.000Z</Time>
            <Position>
              <LatitudeDegrees>42.869172357022762298583984375</LatitudeDegrees>
              <LongitudeDegrees>-1.7595229111611843109130859375</LongitudeDegrees>
            </Position>
            <AltitudeMeters>456.600006103515625</AltitudeMeters>
            <DistanceMeters>19847.550148607</DistanceMeters>
          </Trackpoint>
          <Trackpoint>
            <Time>2018-08-26T06:30:05.000Z</Time>
            <Position>
              <LatitudeDegrees>42.8692107461392879486083984375</LatitudeDegrees>
              <LongitudeDegrees>-1.75948418676853179931640625</LongitudeDegrees>
            </Position>
            <AltitudeMeters>456.79998779296875</AltitudeMeters>
            <DistanceMeters>19852.863153309</DistanceMeters>
          </Trackpoint>
          <Trackpoint>
            <Time>2018-08-26T06:30:06.000Z</Time>
            <Position>
              <LatitudeDegrees>42.8692509792745113372802734375</LatitudeDegrees>
              <LongitudeDegrees>-1.75944621674716472625732421875</LongitudeDegrees>
            </Position>
            <AltitudeMeters>457</AltitudeMeters>
            <DistanceMeters>19858.308772745</DistanceMeters>
          </Trackpoint>
          <Trackpoint>
            <Time>2018-08-26T06:30:07.000Z</Time>
            <Position>
              <LatitudeDegrees>42.86929246969521045684814453125</LatitudeDegrees>
              <LongitudeDegrees>-1.759408749639987945556640625</LongitudeDegrees>
            </Position>
            <AltitudeMeters>457.20001220703125</AltitudeMeters>
            <DistanceMeters>19863.846474398</DistanceMeters>
          </Trackpoint>
          <Trackpoint>
            <Time>2018-08-26T06:30:08.000Z</Time>
            <Position>
              <LatitudeDegrees>42.86933219991624355316162109375</LatitudeDegrees>
              <LongitudeDegrees>-1.75937212072312831878662109375</LongitudeDegrees>
            </Position>
            <AltitudeMeters>457.600006103515625</AltitudeMeters>
            <DistanceMeters>19869.183220701</DistanceMeters>
          </Trackpoint>
          <Trackpoint>
            <Time>2018-08-26T06:30:09.000Z</Time>
            <Position>
              <LatitudeDegrees>42.86937243305146694183349609375</LatitudeDegrees>
              <LongitudeDegrees>-1.7593361623585224151611328125</LongitudeDegrees>
            </Position>
            <AltitudeMeters>457.79998779296875</AltitudeMeters>
            <DistanceMeters>19874.53686083</DistanceMeters>
          </Trackpoint>
          <Trackpoint>
            <Time>2018-08-26T06:30:10.000Z</Time>
            <Position>
              <LatitudeDegrees>42.86941166035830974578857421875</LatitudeDegrees>
              <LongitudeDegrees>-1.75930003635585308074951171875</LongitudeDegrees>
            </Position>
            <AltitudeMeters>458</AltitudeMeters>
            <DistanceMeters>19879.804633122</DistanceMeters>
          </Trackpoint>
          <Trackpoint>
            <Time>2018-08-26T06:30:11.000Z</Time>
            <Position>
              <LatitudeDegrees>42.86945155821740627288818359375</LatitudeDegrees>
              <LongitudeDegrees>-1.75926365889608860015869140625</LongitudeDegrees>
            </Position>
            <AltitudeMeters>458.20001220703125</AltitudeMeters>
            <DistanceMeters>19885.146453183</DistanceMeters>
          </Trackpoint>
          <Trackpoint>
            <Time>2018-08-26T06:30:12.000Z</Time>
            <Position>
              <LatitudeDegrees>42.86948944441974163055419921875</LatitudeDegrees>
              <LongitudeDegrees>-1.7592258565127849578857421875</LongitudeDegrees>
            </Position>
            <AltitudeMeters>458.399993896484375</AltitudeMeters>
            <DistanceMeters>19890.370330192</DistanceMeters>
          </Trackpoint>
          <Trackpoint>
            <Time>2018-08-26T06:30:13.000Z</Time>
            <Position>
              <LatitudeDegrees>42.86952800117433071136474609375</LatitudeDegrees>
              <LongitudeDegrees>-1.75918956287205219268798828125</LongitudeDegrees>
            </Position>
            <AltitudeMeters>458.600006103515625</AltitudeMeters>
            <DistanceMeters>19895.583825191</DistanceMeters>
          </Trackpoint>
          <Trackpoint>
            <Time>2018-08-26T06:30:14.000Z</Time>
            <Position>
              <LatitudeDegrees>42.8695656359195709228515625</LatitudeDegrees>
              <LongitudeDegrees>-1.7591541074216365814208984375</LongitudeDegrees>
            </Position>
            <AltitudeMeters>459</AltitudeMeters>
            <DistanceMeters>19900.674632533</DistanceMeters>
          </Trackpoint>
          <Trackpoint>
            <Time>2018-08-26T06:30:15.000Z</Time>
            <Position>
              <LatitudeDegrees>42.8696043603122234344482421875</LatitudeDegrees>
              <LongitudeDegrees>-1.75911915488541126251220703125</LongitudeDegrees>
            </Position>
            <AltitudeMeters>459.20001220703125</AltitudeMeters>
            <DistanceMeters>19905.842024142</DistanceMeters>
          </Trackpoint>
          <Trackpoint>
            <Time>2018-08-26T06:30:16.000Z</Time>
            <Position>
              <LatitudeDegrees>42.86964409053325653076171875</LatitudeDegrees>
              <LongitudeDegrees>-1.7590847052633762359619140625</LongitudeDegrees>
            </Position>
            <AltitudeMeters>459.20001220703125</AltitudeMeters>
            <DistanceMeters>19911.08057378</DistanceMeters>
          </Trackpoint>
          <Trackpoint>
            <Time>2018-08-26T06:30:17.000Z</Time>
            <Position>
              <LatitudeDegrees>42.86968373693525791168212890625</LatitudeDegrees>
              <LongitudeDegrees>-1.75905025564134120941162109375</LongitudeDegrees>
            </Position>
            <AltitudeMeters>459.399993896484375</AltitudeMeters>
            <DistanceMeters>19916.311360683</DistanceMeters>
          </Trackpoint>
          <Trackpoint>
            <Time>2018-08-26T06:30:18.000Z</Time>
            <Position>
              <LatitudeDegrees>42.8697227127850055694580078125</LatitudeDegrees>
              <LongitudeDegrees>-1.759015135467052459716796875</LongitudeDegrees>
            </Position>
            <AltitudeMeters>459.600006103515625</AltitudeMeters>
            <DistanceMeters>19921.510980754</DistanceMeters>
          </Trackpoint>
          <Trackpoint>
            <Time>2018-08-26T06:30:19.000Z</Time>
            <Position>
              <LatitudeDegrees>42.869760431349277496337890625</LatitudeDegrees>
              <LongitudeDegrees>-1.7589790932834148406982421875</LongitudeDegrees>
            </Position>
            <AltitudeMeters>459.79998779296875</AltitudeMeters>
            <DistanceMeters>19926.635379479</DistanceMeters>
          </Trackpoint>
          <Trackpoint>
            <Time>2018-08-26T06:30:20.000Z</Time>
            <Position>
              <LatitudeDegrees>42.869798652827739715576171875</LatitudeDegrees>
              <LongitudeDegrees>-1.75894347019493579864501953125</LongitudeDegrees>
            </Position>
            <AltitudeMeters>460</AltitudeMeters>
            <DistanceMeters>19931.787019477</DistanceMeters>
          </Trackpoint>
          <Trackpoint>
            <Time>2018-08-26T06:30:21.000Z</Time>
            <Position>
              <LatitudeDegrees>42.86983779631555080413818359375</LatitudeDegrees>
              <LongitudeDegrees>-1.75890860147774219512939453125</LongitudeDegrees>
            </Position>
            <AltitudeMeters>460.399993896484375</AltitudeMeters>
            <DistanceMeters>19936.990111748</DistanceMeters>
          </Trackpoint>
          <Trackpoint>
            <Time>2018-08-26T06:30:22.000Z</Time>
            <Position>
              <LatitudeDegrees>42.86987744271755218505859375</LatitudeDegrees>
              <LongitudeDegrees>-1.758874990046024322509765625</LongitudeDegrees>
            </Position>
            <AltitudeMeters>460.600006103515625</AltitudeMeters>
            <DistanceMeters>19942.184519165</DistanceMeters>
          </Trackpoint>
          <Trackpoint>
            <Time>2018-08-26T06:30:23.000Z</Time>
            <Position>
              <LatitudeDegrees>42.86991625092923641204833984375</LatitudeDegrees>
              <LongitudeDegrees>-1.7588399536907672882080078125</LongitudeDegrees>
            </Position>
            <AltitudeMeters>460.600006103515625</AltitudeMeters>
            <DistanceMeters>19947.36412891</DistanceMeters>
          </Trackpoint>
          <Trackpoint>
            <Time>2018-08-26T06:30:24.000Z</Time>
            <Position>
              <LatitudeDegrees>42.86995522677898406982421875</LatitudeDegrees>
              <LongitudeDegrees>-1.7588044144213199615478515625</LongitudeDegrees>
            </Position>
            <AltitudeMeters>460.79998779296875</AltitudeMeters>
            <DistanceMeters>19952.581952257</DistanceMeters>
          </Trackpoint>
          <Trackpoint>
            <Time>2018-08-26T06:30:25.000Z</Time>
            <Position>
              <LatitudeDegrees>42.8699942864477634429931640625</LatitudeDegrees>
              <LongitudeDegrees>-1.75876803696155548095703125</LongitudeDegrees>
            </Position>
            <AltitudeMeters>460.79998779296875</AltitudeMeters>
            <DistanceMeters>19957.845437275</DistanceMeters>
          </Trackpoint>
          <Trackpoint>
            <Time>2018-08-26T06:30:26.000Z</Time>
            <Position>
              <LatitudeDegrees>42.8700341843068599700927734375</LatitudeDegrees>
              <LongitudeDegrees>-1.758733503520488739013671875</LongitudeDegrees>
            </Position>
            <AltitudeMeters>461</AltitudeMeters>
            <DistanceMeters>19963.10377295</DistanceMeters>
          </Trackpoint>
          <Trackpoint>
            <Time>2018-08-26T06:30:27.000Z</Time>
            <Position>
              <LatitudeDegrees>42.87007416598498821258544921875</LatitudeDegrees>
              <LongitudeDegrees>-1.758699305355548858642578125</LongitudeDegrees>
            </Position>
            <AltitudeMeters>461</AltitudeMeters>
            <DistanceMeters>19968.356094678</DistanceMeters>
          </Trackpoint>
          <Trackpoint>
            <Time>2018-08-26T06:30:28.000Z</Time>
            <Position>
              <LatitudeDegrees>42.8701133094727993011474609375</LatitudeDegrees>
              <LongitudeDegrees>-1.75866384990513324737548828125</LongitudeDegrees>
            </Position>
            <AltitudeMeters>461.399993896484375</AltitudeMeters>
            <DistanceMeters>19973.586881581</DistanceMeters>
          </Trackpoint>
          <Trackpoint>
            <Time>2018-08-26T06:30:29.000Z</Time>
            <Position>
              <LatitudeDegrees>42.87015211768448352813720703125</LatitudeDegrees>
              <LongitudeDegrees>-1.7586283944547176361083984375</LongitudeDegrees>
            </Position>
            <AltitudeMeters>461.600006103515625</AltitudeMeters>
            <DistanceMeters>19978.785633239</DistanceMeters>
          </Trackpoint>
          <Trackpoint>
            <Time>2018-08-26T06:30:30.000Z</Time>
            <Position>
              <LatitudeDegrees>42.8701914288103580474853515625</LatitudeDegrees>
              <LongitudeDegrees>-1.758593358099460601806640625</LongitudeDegrees>
            </Position>
            <AltitudeMeters>461.600006103515625</AltitudeMeters>
            <DistanceMeters>19984.011238578</DistanceMeters>
          </Trackpoint>
          <Trackpoint>
            <Time>2018-08-26T06:30:31.000Z</Time>
            <Position>
              <LatitudeDegrees>42.87023090757429599761962890625</LatitudeDegrees>
              <LongitudeDegrees>-1.75855840556323528289794921875</LongitudeDegrees>
            </Position>
            <AltitudeMeters>461.79998779296875</AltitudeMeters>
            <DistanceMeters>19989.248064159</DistanceMeters>
          </Trackpoint>
          <Trackpoint>
            <Time>2018-08-26T06:30:32.000Z</Time>
            <Position>
              <LatitudeDegrees>42.87027013488113880157470703125</LatitudeDegrees>
              <LongitudeDegrees>-1.75852261483669281005859375</LongitudeDegrees>
            </Position>
            <AltitudeMeters>462</AltitudeMeters>
            <DistanceMeters>19994.49952619</DistanceMeters>
          </Trackpoint>
          <Trackpoint>
            <Time>2018-08-26T06:30:33.000Z</Time>
            <Position>
              <LatitudeDegrees>42.8703097812831401824951171875</LatitudeDegrees>
              <LongitudeDegrees>-1.75848833285272121429443359375</LongitudeDegrees>
            </Position>
            <AltitudeMeters>462.20001220703125</AltitudeMeters>
            <DistanceMeters>19999.723403199</DistanceMeters>
          </Trackpoint>
          <Trackpoint>
            <Time>2018-08-26T06:30:34.000Z</Time>
            <Position>
              <LatitudeDegrees>42.8703486733138561248779296875</LatitudeDegrees>
              <LongitudeDegrees>-1.75845430232584476470947265625</LongitudeDegrees>
            </Position>
            <AltitudeMeters>462.399993896484375</AltitudeMeters>
            <DistanceMeters>20004.866271456</DistanceMeters>
          </Trackpoint>
          <Trackpoint>
            <Time>2018-08-26T06:30:35.000Z</Time>
            <Position>
              <LatitudeDegrees>42.870387732982635498046875</LatitudeDegrees>
              <LongitudeDegrees>-1.7584205232560634613037109375</LongitudeDegrees>
            </Position>
            <AltitudeMeters>462.600006103515625</AltitudeMeters>
            <DistanceMeters>20010.011772805</DistanceMeters>
          </Trackpoint>
          <Trackpoint>
            <Time>2018-08-26T06:30:36.000Z</Time>
            <Position>
              <LatitudeDegrees>42.87042737938463687896728515625</LatitudeDegrees>
              <LongitudeDegrees>-1.758386828005313873291015625</LongitudeDegrees>
            </Position>
            <AltitudeMeters>462.79998779296875</AltitudeMeters>
            <DistanceMeters>20015.209655905</DistanceMeters>
          </Trackpoint>
          <Trackpoint>
            <Time>2018-08-26T06:30:37.000Z</Time>
            <Position>
              <LatitudeDegrees>42.87046694196760654449462890625</LatitudeDegrees>
              <LongitudeDegrees>-1.75835288129746913909912109375</LongitudeDegrees>
            </Position>
            <AltitudeMeters>463</AltitudeMeters>
            <DistanceMeters>20020.411012365</DistanceMeters>
          </Trackpoint>
          <Trackpoint>
            <Time>2018-08-26T06:30:38.000Z</Time>
            <Position>
              <LatitudeDegrees>42.8705062530934810638427734375</LatitudeDegrees>
              <LongitudeDegrees>-1.75831784494221210479736328125</LongitudeDegrees>
            </Position>
            <AltitudeMeters>463.20001220703125</AltitudeMeters>
            <DistanceMeters>20025.637481656</DistanceMeters>
          </Trackpoint>
          <Trackpoint>
            <Time>2018-08-26T06:30:39.000Z</Time>
            <Position>
              <LatitudeDegrees>42.870545648038387298583984375</LatitudeDegrees>
              <LongitudeDegrees>-1.75828247331082820892333984375</LongitudeDegrees>
            </Position>
            <AltitudeMeters>463.399993896484375</AltitudeMeters>
            <DistanceMeters>20030.885503488</DistanceMeters>
          </Trackpoint>
          <Trackpoint>
            <Time>2018-08-26T06:30:40.000Z</Time>
            <Position>
              <LatitudeDegrees>42.87058562971651554107666015625</LatitudeDegrees>
              <LongitudeDegrees>-1.758246682584285736083984375</LongitudeDegrees>
            </Position>
            <AltitudeMeters>463.79998779296875</AltitudeMeters>
            <DistanceMeters>20036.207847878</DistanceMeters>
          </Trackpoint>
          <Trackpoint>
            <Time>2018-08-26T06:30:41.000Z</Time>
            <Position>
              <LatitudeDegrees>42.87062552757561206817626953125</LatitudeDegrees>
              <LongitudeDegrees>-1.75821122713387012481689453125</LongitudeDegrees>
            </Position>
            <AltitudeMeters>463.79998779296875</AltitudeMeters>
            <DistanceMeters>20041.508090119</DistanceMeters>
          </Trackpoint>
          <Trackpoint>
            <Time>2018-08-26T06:30:42.000Z</Time>
            <Position>
              <LatitudeDegrees>42.87066467106342315673828125</LatitudeDegrees>
              <LongitudeDegrees>-1.758176274597644805908203125</LongitudeDegrees>
            </Position>
            <AltitudeMeters>464.20001220703125</AltitudeMeters>
            <DistanceMeters>20046.714652275</DistanceMeters>
          </Trackpoint>
          <Trackpoint>
            <Time>2018-08-26T06:30:43.000Z</Time>
            <Position>
              <LatitudeDegrees>42.8707027249038219451904296875</LatitudeDegrees>
              <LongitudeDegrees>-1.7581410706043243408203125</LongitudeDegrees>
            </Position>
            <AltitudeMeters>464.399993896484375</AltitudeMeters>
            <DistanceMeters>20051.831997455</DistanceMeters>
          </Trackpoint>
          <Trackpoint>
            <Time>2018-08-26T06:30:44.000Z</Time>
            <Position>
              <LatitudeDegrees>42.870741449296474456787109375</LatitudeDegrees>
              <LongitudeDegrees>-1.75810662098228931427001953125</LongitudeDegrees>
            </Position>
            <AltitudeMeters>464.399993896484375</AltitudeMeters>
            <DistanceMeters>20056.975743559</DistanceMeters>
          </Trackpoint>
          <Trackpoint>
            <Time>2018-08-26T06:30:45.000Z</Time>
            <Position>
              <LatitudeDegrees>42.8707795031368732452392578125</LatitudeDegrees>
              <LongitudeDegrees>-1.75807225517928600311279296875</LongitudeDegrees>
            </Position>
            <AltitudeMeters>464.600006103515625</AltitudeMeters>
            <DistanceMeters>20062.055008112</DistanceMeters>
          </Trackpoint>
          <Trackpoint>
            <Time>2018-08-26T06:30:46.000Z</Time>
            <Position>
              <LatitudeDegrees>42.87081780843436717987060546875</LatitudeDegrees>
              <LongitudeDegrees>-1.75803705118596553802490234375</LongitudeDegrees>
            </Position>
            <AltitudeMeters>464.79998779296875</AltitudeMeters>
            <DistanceMeters>20067.195241927</DistanceMeters>
          </Trackpoint>
          <Trackpoint>
            <Time>2018-08-26T06:30:47.000Z</Time>
            <Position>
              <LatitudeDegrees>42.87085720337927341461181640625</LatitudeDegrees>
              <LongitudeDegrees>-1.758002936840057373046875</LongitudeDegrees>
            </Position>
            <AltitudeMeters>465</AltitudeMeters>
            <DistanceMeters>20072.38791063</DistanceMeters>
          </Trackpoint>
          <Trackpoint>
            <Time>2018-08-26T06:30:48.000Z</Time>
            <Position>
              <LatitudeDegrees>42.8708968497812747955322265625</LatitudeDegrees>
              <LongitudeDegrees>-1.75796982832252979278564453125</LongitudeDegrees>
            </Position>
            <AltitudeMeters>465.20001220703125</AltitudeMeters>
            <DistanceMeters>20077.562287564</DistanceMeters>
          </Trackpoint>
          <Trackpoint>
            <Time>2018-08-26T06:30:49.000Z</Time>
            <Position>
              <LatitudeDegrees>42.87093616090714931488037109375</LatitudeDegrees>
              <LongitudeDegrees>-1.7579363845288753509521484375</LongitudeDegrees>
            </Position>
            <AltitudeMeters>465.399993896484375</AltitudeMeters>
            <DistanceMeters>20082.718307837</DistanceMeters>
          </Trackpoint>
          <Trackpoint>
            <Time>2018-08-26T06:30:50.000Z</Time>
            <Position>
              <LatitudeDegrees>42.87097387947142124176025390625</LatitudeDegrees>
              <LongitudeDegrees>-1.7579015158116817474365234375</LongitudeDegrees>
            </Position>
            <AltitudeMeters>465.399993896484375</AltitudeMeters>
            <DistanceMeters>20087.789565838</DistanceMeters>
          </Trackpoint>
          <Trackpoint>
            <Time>2018-08-26T06:30:51.000Z</Time>
            <Position>
              <LatitudeDegrees>42.87101260386407375335693359375</LatitudeDegrees>
              <LongitudeDegrees>-1.75786673091351985931396484375</LongitudeDegrees>
            </Position>
            <AltitudeMeters>465.79998779296875</AltitudeMeters>
            <DistanceMeters>20092.950837533</DistanceMeters>
          </Trackpoint>
          <Trackpoint>
            <Time>2018-08-26T06:30:52.000Z</Time>
            <Position>
              <LatitudeDegrees>42.87105183117091655731201171875</LatitudeDegrees>
              <LongitudeDegrees>-1.75783152692019939422607421875</LongitudeDegrees>
            </Position>
            <AltitudeMeters>466</AltitudeMeters>
            <DistanceMeters>20098.176442873</DistanceMeters>
          </Trackpoint>
          <Trackpoint>
            <Time>2018-08-26T06:30:53.000Z</Time>
            <Position>
              <LatitudeDegrees>42.87109172903001308441162109375</LatitudeDegrees>
              <LongitudeDegrees>-1.7577952332794666290283203125</LongitudeDegrees>
            </Position>
            <AltitudeMeters>466.20001220703125</AltitudeMeters>
            <DistanceMeters>20103.514880964</DistanceMeters>
          </Trackpoint>
          <Trackpoint>
            <Time>2018-08-26T06:30:54.000Z</Time>
            <Position>
              <LatitudeDegrees>42.8711315430700778961181640625</LatitudeDegrees>
              <LongitudeDegrees>-1.7577580176293849945068359375</LongitudeDegrees>
            </Position>
            <AltitudeMeters>466.399993896484375</AltitudeMeters>
            <DistanceMeters>20108.886202425</DistanceMeters>
          </Trackpoint>
          <Trackpoint>
            <Time>2018-08-26T06:30:55.000Z</Time>
            <Position>
              <LatitudeDegrees>42.87117186002433300018310546875</LatitudeDegrees>
              <LongitudeDegrees>-1.75772038288414478302001953125</LongitudeDegrees>
            </Position>
            <AltitudeMeters>466.399993896484375</AltitudeMeters>
            <DistanceMeters>20114.323524402</DistanceMeters>
          </Trackpoint>
          <Trackpoint>
            <Time>2018-08-26T06:30:56.000Z</Time>
            <Position>
              <LatitudeDegrees>42.87121293134987354278564453125</LatitudeDegrees>
              <LongitudeDegrees>-1.7576812393963336944580078125</LongitudeDegrees>
            </Position>
            <AltitudeMeters>466.399993896484375</AltitudeMeters>
            <DistanceMeters>20119.900224436</DistanceMeters>
          </Trackpoint>
          <Trackpoint>
            <Time>2018-08-26T06:30:57.000Z</Time>
            <Position>
              <LatitudeDegrees>42.871253751218318939208984375</LatitudeDegrees>
              <LongitudeDegrees>-1.75764293409883975982666015625</LongitudeDegrees>
            </Position>
            <AltitudeMeters>466.600006103515625</AltitudeMeters>
            <DistanceMeters>20125.413412018</DistanceMeters>
          </Trackpoint>
          <Trackpoint>
            <Time>2018-08-26T06:30:58.000Z</Time>
            <Position>
              <LatitudeDegrees>42.871294319629669189453125</LatitudeDegrees>
              <LongitudeDegrees>-1.75760622136294841766357421875</LongitudeDegrees>
            </Position>
            <AltitudeMeters>466.600006103515625</AltitudeMeters>
            <DistanceMeters>20130.830768241</DistanceMeters>
          </Trackpoint>
          <Trackpoint>
            <Time>2018-08-26T06:30:59.000Z</Time>
            <Position>
              <LatitudeDegrees>42.87133530713617801666259765625</LatitudeDegrees>
              <LongitudeDegrees>-1.75757001154124736785888671875</LongitudeDegrees>
            </Position>
            <AltitudeMeters>466.600006103515625</AltitudeMeters>
            <DistanceMeters>20136.265598509</DistanceMeters>
          </Trackpoint>
          <Trackpoint>
            <Time>2018-08-26T06:31:00.000Z</Time>
            <Position>
              <LatitudeDegrees>42.87137503735721111297607421875</LatitudeDegrees>
              <LongitudeDegrees>-1.757533214986324310302734375</LongitudeDegrees>
            </Position>
            <AltitudeMeters>466.600006103515625</AltitudeMeters>
            <DistanceMeters>20141.609953643</DistanceMeters>
          </Trackpoint>
          <Trackpoint>
            <Time>2018-08-26T06:31:01.000Z</Time>
            <Position>
              <LatitudeDegrees>42.8714138455688953399658203125</LatitudeDegrees>
              <LongitudeDegrees>-1.7574946582317352294921875</LongitudeDegrees>
            </Position>
            <AltitudeMeters>466.79998779296875</AltitudeMeters>
            <DistanceMeters>20146.953463885</DistanceMeters>
          </Trackpoint>
          <Trackpoint>
            <Time>2018-08-26T06:31:02.000Z</Time>
            <Position>
              <LatitudeDegrees>42.87145114503800868988037109375</LatitudeDegrees>
              <LongitudeDegrees>-1.75745241343975067138671875</LongitudeDegrees>
            </Position>
            <AltitudeMeters>466.79998779296875</AltitudeMeters>
            <DistanceMeters>20152.34910717</DistanceMeters>
          </Trackpoint>
          <Trackpoint>
            <Time>2018-08-26T06:31:03.000Z</Time>
            <Position>
              <LatitudeDegrees>42.87148718722164630889892578125</LatitudeDegrees>
              <LongitudeDegrees>-1.757406480610370635986328125</LongitudeDegrees>
            </Position>
            <AltitudeMeters>466.79998779296875</AltitudeMeters>
            <DistanceMeters>20157.838493756</DistanceMeters>
          </Trackpoint>
          <Trackpoint>
            <Time>2018-08-26T06:31:04.000Z</Time>
            <Position>
              <LatitudeDegrees>42.87152138538658618927001953125</LatitudeDegrees>
              <LongitudeDegrees>-1.75735644064843654632568359375</LongitudeDegrees>
            </Position>
            <AltitudeMeters>467</AltitudeMeters>
            <DistanceMeters>20163.420049429</DistanceMeters>
          </Trackpoint>
          <Trackpoint>
            <Time>2018-08-26T06:31:05.000Z</Time>
            <Position>
              <LatitudeDegrees>42.87155273370444774627685546875</LatitudeDegrees>
              <LongitudeDegrees>-1.7573013715445995330810546875</LongitudeDegrees>
            </Position>
            <AltitudeMeters>467</AltitudeMeters>
            <DistanceMeters>20169.107380422</DistanceMeters>
          </Trackpoint>
          <Trackpoint>
            <Time>2018-08-26T06:31:06.000Z</Time>
            <Position>
              <LatitudeDegrees>42.8715818189084529876708984375</LatitudeDegrees>
              <LongitudeDegrees>-1.7572420276701450347900390625</LongitudeDegrees>
            </Position>
            <AltitudeMeters>467.20001220703125</AltitudeMeters>
            <DistanceMeters>20174.931207954</DistanceMeters>
          </Trackpoint>
          <Trackpoint>
            <Time>2018-08-26T06:31:07.000Z</Time>
            <Position>
              <LatitudeDegrees>42.87160872481763362884521484375</LatitudeDegrees>
              <LongitudeDegrees>-1.75718008540570735931396484375</LongitudeDegrees>
            </Position>
            <AltitudeMeters>467.20001220703125</AltitudeMeters>
            <DistanceMeters>20180.80444318</DistanceMeters>
          </Trackpoint>
          <Trackpoint>
            <Time>2018-08-26T06:31:08.000Z</Time>
            <Position>
              <LatitudeDegrees>42.87163303233683109283447265625</LatitudeDegrees>
              <LongitudeDegrees>-1.75711621530354022979736328125</LongitudeDegrees>
            </Position>
            <AltitudeMeters>467.600006103515625</AltitudeMeters>
            <DistanceMeters>20186.674602608</DistanceMeters>
          </Trackpoint>
          <Trackpoint>
            <Time>2018-08-26T06:31:09.000Z</Time>
            <Position>
              <LatitudeDegrees>42.87165532819926738739013671875</LatitudeDegrees>
              <LongitudeDegrees>-1.7570495791733264923095703125</LongitudeDegrees>
            </Position>
            <AltitudeMeters>467.79998779296875</AltitudeMeters>
            <DistanceMeters>20192.6499622</DistanceMeters>
          </Trackpoint>
          <Trackpoint>
            <Time>2018-08-26T06:31:10.000Z</Time>
            <Position>
              <LatitudeDegrees>42.87167854607105255126953125</LatitudeDegrees>
              <LongitudeDegrees>-1.75697975791990756988525390625</LongitudeDegrees>
            </Position>
            <AltitudeMeters>467.79998779296875</AltitudeMeters>
            <DistanceMeters>20198.9044239</DistanceMeters>
          </Trackpoint>
          <Trackpoint>
            <Time>2018-08-26T06:31:11.000Z</Time>
            <Position>
              <LatitudeDegrees>42.87170427851378917694091796875</LatitudeDegrees>
              <LongitudeDegrees>-1.7569099366664886474609375</LongitudeDegrees>
            </Position>
            <AltitudeMeters>468</AltitudeMeters>
            <DistanceMeters>20205.279717939</DistanceMeters>
          </Trackpoint>
          <Trackpoint>
            <Time>2018-08-26T06:31:12.000Z</Time>
            <Position>
              <LatitudeDegrees>42.87173076532781124114990234375</LatitudeDegrees>
              <LongitudeDegrees>-1.75684162415564060211181640625</LongitudeDegrees>
            </Position>
            <AltitudeMeters>468</AltitudeMeters>
            <DistanceMeters>20211.58450949</DistanceMeters>
          </Trackpoint>
          <Trackpoint>
            <Time>2018-08-26T06:31:13.000Z</Time>
            <Position>
              <LatitudeDegrees>42.87175289355218410491943359375</LatitudeDegrees>
              <LongitudeDegrees>-1.756774485111236572265625</LongitudeDegrees>
            </Position>
            <AltitudeMeters>468</AltitudeMeters>
            <DistanceMeters>20217.590017405</DistanceMeters>
          </Trackpoint>
          <Trackpoint>
            <Time>2018-08-26T06:31:14.000Z</Time>
            <Position>
              <LatitudeDegrees>42.87177435122430324554443359375</LatitudeDegrees>
              <LongitudeDegrees>-1.7567055858671665191650390625</LongitudeDegrees>
            </Position>
            <AltitudeMeters>468</AltitudeMeters>
            <DistanceMeters>20223.696916431</DistanceMeters>
          </Trackpoint>
          <Trackpoint>
            <Time>2018-08-26T06:31:15.000Z</Time>
            <Position>
              <LatitudeDegrees>42.8717953898012638092041015625</LatitudeDegrees>
              <LongitudeDegrees>-1.75663107074797153472900390625</LongitudeDegrees>
            </Position>
            <AltitudeMeters>468</AltitudeMeters>
            <DistanceMeters>20230.210233492</DistanceMeters>
          </Trackpoint>
          <Trackpoint>
            <Time>2018-08-26T06:31:16.000Z</Time>
            <Position>
              <LatitudeDegrees>42.871815674006938934326171875</LatitudeDegrees>
              <LongitudeDegrees>-1.756556890904903411865234375</LongitudeDegrees>
            </Position>
            <AltitudeMeters>468.20001220703125</AltitudeMeters>
            <DistanceMeters>20236.669254561</DistanceMeters>
          </Trackpoint>
          <Trackpoint>
            <Time>2018-08-26T06:31:17.000Z</Time>
            <Position>
              <LatitudeDegrees>42.87183620966970920562744140625</LatitudeDegrees>
              <LongitudeDegrees>-1.75648413598537445068359375</LongitudeDegrees>
            </Position>
            <AltitudeMeters>468.20001220703125</AltitudeMeters>
            <DistanceMeters>20243.028238939</DistanceMeters>
          </Trackpoint>
          <Trackpoint>
            <Time>2018-08-26T06:31:18.000Z</Time>
            <Position>
              <LatitudeDegrees>42.87185699678957462310791015625</LatitudeDegrees>
              <LongitudeDegrees>-1.75641213543713092803955078125</LongitudeDegrees>
            </Position>
            <AltitudeMeters>468.20001220703125</AltitudeMeters>
            <DistanceMeters>20249.340902984</DistanceMeters>
          </Trackpoint>
          <Trackpoint>
            <Time>2018-08-26T06:31:19.000Z</Time>
            <Position>
              <LatitudeDegrees>42.87187811918556690216064453125</LatitudeDegrees>
              <LongitudeDegrees>-1.75634072162210941314697265625</LongitudeDegrees>
            </Position>
            <AltitudeMeters>468.399993896484375</AltitudeMeters>
            <DistanceMeters>20255.622736638</DistanceMeters>
          </Trackpoint>
          <Trackpoint>
            <Time>2018-08-26T06:31:20.000Z</Time>
            <Position>
              <LatitudeDegrees>42.871898822486400604248046875</LatitudeDegrees>
              <LongitudeDegrees>-1.7562703974545001983642578125</LongitudeDegrees>
            </Position>
            <AltitudeMeters>468.399993896484375</AltitudeMeters>
            <DistanceMeters>20261.804587777</DistanceMeters>
          </Trackpoint>
          <Trackpoint>
            <Time>2018-08-26T06:31:21.000Z</Time>
            <Position>
              <LatitudeDegrees>42.87191902287304401397705078125</LatitudeDegrees>
              <LongitudeDegrees>-1.75619990564882755279541015625</LongitudeDegrees>
            </Position>
            <AltitudeMeters>468.600006103515625</AltitudeMeters>
            <DistanceMeters>20267.977668256</DistanceMeters>
          </Trackpoint>
          <Trackpoint>
            <Time>2018-08-26T06:31:22.000Z</Time>
            <Position>
              <LatitudeDegrees>42.87194006145000457763671875</LatitudeDegrees>
              <LongitudeDegrees>-1.75612983293831348419189453125</LongitudeDegrees>
            </Position>
            <AltitudeMeters>469</AltitudeMeters>
            <DistanceMeters>20274.153673672</DistanceMeters>
          </Trackpoint>
          <Trackpoint>
            <Time>2018-08-26T06:31:23.000Z</Time>
            <Position>
              <LatitudeDegrees>42.8719626925885677337646484375</LatitudeDegrees>
              <LongitudeDegrees>-1.75605925731360912322998046875</LongitudeDegrees>
            </Position>
            <AltitudeMeters>469.20001220703125</AltitudeMeters>
            <DistanceMeters>20280.436944652</DistanceMeters>
          </Trackpoint>
          <Trackpoint>
            <Time>2018-08-26T06:31:24.000Z</Time>
            <Position>
              <LatitudeDegrees>42.8719868324697017669677734375</LatitudeDegrees>
              <LongitudeDegrees>-1.7559897713363170623779296875</LongitudeDegrees>
            </Position>
            <AltitudeMeters>469.20001220703125</AltitudeMeters>
            <DistanceMeters>20286.710147434</DistanceMeters>
          </Trackpoint>
          <Trackpoint>
            <Time>2018-08-26T06:31:25.000Z</Time>
            <Position>
              <LatitudeDegrees>42.87200921215116977691650390625</LatitudeDegrees>
              <LongitudeDegrees>-1.75592246465384960174560546875</LongitudeDegrees>
            </Position>
            <AltitudeMeters>469.399993896484375</AltitudeMeters>
            <DistanceMeters>20292.739665472</DistanceMeters>
          </Trackpoint>
          <Trackpoint>
            <Time>2018-08-26T06:31:26.000Z</Time>
            <Position>
              <LatitudeDegrees>42.87203201092779636383056640625</LatitudeDegrees>
              <LongitudeDegrees>-1.75585641525685787200927734375</LongitudeDegrees>
            </Position>
            <AltitudeMeters>469.600006103515625</AltitudeMeters>
            <DistanceMeters>20298.695346816</DistanceMeters>
          </Trackpoint>
          <Trackpoint>
            <Time>2018-08-26T06:31:27.000Z</Time>
            <Position>
              <LatitudeDegrees>42.8720547258853912353515625</LatitudeDegrees>
              <LongitudeDegrees>-1.7557906173169612884521484375</LongitudeDegrees>
            </Position>
            <AltitudeMeters>469.79998779296875</AltitudeMeters>
            <DistanceMeters>20304.628241386</DistanceMeters>
          </Trackpoint>
          <Trackpoint>
            <Time>2018-08-26T06:31:28.000Z</Time>
            <Position>
              <LatitudeDegrees>42.8720783628523349761962890625</LatitudeDegrees>
              <LongitudeDegrees>-1.75572431646287441253662109375</LongitudeDegrees>
            </Position>
            <AltitudeMeters>470</AltitudeMeters>
            <DistanceMeters>20310.642764329</DistanceMeters>
          </Trackpoint>
          <Trackpoint>
            <Time>2018-08-26T06:31:29.000Z</Time>
            <Position>
              <LatitudeDegrees>42.8721028380095958709716796875</LatitudeDegrees>
              <LongitudeDegrees>-1.7556591890752315521240234375</LongitudeDegrees>
            </Position>
            <AltitudeMeters>470</AltitudeMeters>
            <DistanceMeters>20316.612832312</DistanceMeters>
          </Trackpoint>
          <Trackpoint>
            <Time>2018-08-26T06:31:30.000Z</Time>
            <Position>
              <LatitudeDegrees>42.87212907336652278900146484375</LatitudeDegrees>
              <LongitudeDegrees>-1.7555951513350009918212890625</LongitudeDegrees>
            </Position>
            <AltitudeMeters>470.20001220703125</AltitudeMeters>
            <DistanceMeters>20322.597252349</DistanceMeters>
          </Trackpoint>
          <Trackpoint>
            <Time>2018-08-26T06:31:31.000Z</Time>
            <Position>
              <LatitudeDegrees>42.87215623073279857635498046875</LatitudeDegrees>
              <LongitudeDegrees>-1.755531616508960723876953125</LongitudeDegrees>
            </Position>
            <AltitudeMeters>470.20001220703125</AltitudeMeters>
            <DistanceMeters>20328.596742719</DistanceMeters>
          </Trackpoint>
          <Trackpoint>
            <Time>2018-08-26T06:31:32.000Z</Time>
            <Position>
              <LatitudeDegrees>42.87218372337520122528076171875</LatitudeDegrees>
              <LongitudeDegrees>-1.7554674111306667327880859375</LongitudeDegrees>
            </Position>
            <AltitudeMeters>470.399993896484375</AltitudeMeters>
            <DistanceMeters>20334.662097732</DistanceMeters>
          </Trackpoint>
          <Trackpoint>
            <Time>2018-08-26T06:31:33.000Z</Time>
            <Position>
              <LatitudeDegrees>42.8722121380269527435302734375</LatitudeDegrees>
              <LongitudeDegrees>-1.75540387630462646484375</LongitudeDegrees>
            </Position>
            <AltitudeMeters>470.600006103515625</AltitudeMeters>
            <DistanceMeters>20340.733405009</DistanceMeters>
          </Trackpoint>
          <Trackpoint>
            <Time>2018-08-26T06:31:34.000Z</Time>
            <Position>
              <LatitudeDegrees>42.87224113941192626953125</LatitudeDegrees>
              <LongitudeDegrees>-1.755341179668903350830078125</LongitudeDegrees>
            </Position>
            <AltitudeMeters>470.79998779296875</AltitudeMeters>
            <DistanceMeters>20346.781614634</DistanceMeters>
          </Trackpoint>
          <Trackpoint>
            <Time>2018-08-26T06:31:35.000Z</Time>
            <Position>
              <LatitudeDegrees>42.87227190099656581878662109375</LatitudeDegrees>
              <LongitudeDegrees>-1.75527705810964107513427734375</LongitudeDegrees>
            </Position>
            <AltitudeMeters>471</AltitudeMeters>
            <DistanceMeters>20353.033188104</DistanceMeters>
          </Trackpoint>
          <Trackpoint>
            <Time>2018-08-26T06:31:36.000Z</Time>
            <Position>
              <LatitudeDegrees>42.87230308167636394500732421875</LatitudeDegrees>
              <LongitudeDegrees>-1.75521419383585453033447265625</LongitudeDegrees>
            </Position>
            <AltitudeMeters>471.20001220703125</AltitudeMeters>
            <DistanceMeters>20359.22525598</DistanceMeters>
          </Trackpoint>
          <Trackpoint>
            <Time>2018-08-26T06:31:37.000Z</Time>
            <Position>
              <LatitudeDegrees>42.872335016727447509765625</LatitudeDegrees>
              <LongitudeDegrees>-1.75515241920948028564453125</LongitudeDegrees>
            </Position>
            <AltitudeMeters>471.20001220703125</AltitudeMeters>
            <DistanceMeters>20365.392482422</DistanceMeters>
          </Trackpoint>
          <Trackpoint>
            <Time>2018-08-26T06:31:38.000Z</Time>
            <Position>
              <LatitudeDegrees>42.872368209064006805419921875</LatitudeDegrees>
              <LongitudeDegrees>-1.75509131513535976409912109375</LongitudeDegrees>
            </Position>
            <AltitudeMeters>471.399993896484375</AltitudeMeters>
            <DistanceMeters>20371.597661384</DistanceMeters>
          </Trackpoint>
          <Trackpoint>
            <Time>2018-08-26T06:31:39.000Z</Time>
            <Position>
              <LatitudeDegrees>42.87240131758153438568115234375</LatitudeDegrees>
              <LongitudeDegrees>-1.75502995960414409637451171875</LongitudeDegrees>
            </Position>
            <AltitudeMeters>471.399993896484375</AltitudeMeters>
            <DistanceMeters>20377.813018737</DistanceMeters>
          </Trackpoint>
          <Trackpoint>
            <Time>2018-08-26T06:31:40.000Z</Time>
            <Position>
              <LatitudeDegrees>42.87243501283228397369384765625</LatitudeDegrees>
              <LongitudeDegrees>-1.7549701966345310211181640625</LongitudeDegrees>
            </Position>
            <AltitudeMeters>471.399993896484375</AltitudeMeters>
            <DistanceMeters>20383.964117851</DistanceMeters>
          </Trackpoint>
          <Trackpoint>
            <Time>2018-08-26T06:31:41.000Z</Time>
            <Position>
              <LatitudeDegrees>42.87246820516884326934814453125</LatitudeDegrees>
              <LongitudeDegrees>-1.75491160713136196136474609375</LongitudeDegrees>
            </Position>
            <AltitudeMeters>471.600006103515625</AltitudeMeters>
            <DistanceMeters>20390.004857781</DistanceMeters>
          </Trackpoint>
          <Trackpoint>
            <Time>2018-08-26T06:31:42.000Z</Time>
            <Position>
              <LatitudeDegrees>42.87249972112476825714111328125</LatitudeDegrees>
              <LongitudeDegrees>-1.75485444255173206329345703125</LongitudeDegrees>
            </Position>
            <AltitudeMeters>471.79998779296875</AltitudeMeters>
            <DistanceMeters>20395.840302775</DistanceMeters>
          </Trackpoint>
          <Trackpoint>
            <Time>2018-08-26T06:31:43.000Z</Time>
            <Position>
              <LatitudeDegrees>42.8725289739668369293212890625</LatitudeDegrees>
              <LongitudeDegrees>-1.75479979254305362701416015625</LongitudeDegrees>
            </Position>
            <AltitudeMeters>472</AltitudeMeters>
            <DistanceMeters>20401.360038087</DistanceMeters>
          </Trackpoint>
          <Trackpoint>
            <Time>2018-08-26T06:31:44.000Z</Time>
            <Position>
              <LatitudeDegrees>42.8725589811801910400390625</LatitudeDegrees>
              <LongitudeDegrees>-1.75474665127694606781005859375</LongitudeDegrees>
            </Position>
            <AltitudeMeters>472</AltitudeMeters>
            <DistanceMeters>20406.832124845</DistanceMeters>
          </Trackpoint>
          <Trackpoint>
            <Time>2018-08-26T06:31:45.000Z</Time>
            <Position>
              <LatitudeDegrees>42.87259091623127460479736328125</LatitudeDegrees>
              <LongitudeDegrees>-1.7546945996582508087158203125</LongitudeDegrees>
            </Position>
            <AltitudeMeters>472.20001220703125</AltitudeMeters>
            <DistanceMeters>20412.369011112</DistanceMeters>
          </Trackpoint>
          <Trackpoint>
            <Time>2018-08-26T06:31:46.000Z</Time>
            <Position>
              <LatitudeDegrees>42.87262159399688243865966796875</LatitudeDegrees>
              <LongitudeDegrees>-1.75464279949665069580078125</LongitudeDegrees>
            </Position>
            <AltitudeMeters>472.20001220703125</AltitudeMeters>
            <DistanceMeters>20417.801348529</DistanceMeters>
          </Trackpoint>
          <Trackpoint>
            <Time>2018-08-26T06:31:47.000Z</Time>
            <Position>
              <LatitudeDegrees>42.87264908663928508758544921875</LatitudeDegrees>
              <LongitudeDegrees>-1.75459242425858974456787109375</LongitudeDegrees>
            </Position>
            <AltitudeMeters>472.399993896484375</AltitudeMeters>
            <DistanceMeters>20422.923984779</DistanceMeters>
          </Trackpoint>
          <Trackpoint>
            <Time>2018-08-26T06:31:48.000Z</Time>
            <Position>
              <LatitudeDegrees>42.8726771660149097442626953125</LatitudeDegrees>
              <LongitudeDegrees>-1.75454355776309967041015625</LongitudeDegrees>
            </Position>
            <AltitudeMeters>472.399993896484375</AltitudeMeters>
            <DistanceMeters>20427.989006712</DistanceMeters>
          </Trackpoint>
          <Trackpoint>
            <Time>2018-08-26T06:31:49.000Z</Time>
            <Position>
              <LatitudeDegrees>42.872704826295375823974609375</LatitudeDegrees>
              <LongitudeDegrees>-1.7544947750866413116455078125</LongitudeDegrees>
            </Position>
            <AltitudeMeters>472.600006103515625</AltitudeMeters>
            <DistanceMeters>20433.020938185</DistanceMeters>
          </Trackpoint>
          <Trackpoint>
            <Time>2018-08-26T06:31:50.000Z</Time>
            <Position>
              <LatitudeDegrees>42.87273257039487361907958984375</LatitudeDegrees>
              <LongitudeDegrees>-1.75444657914340496063232421875</LongitudeDegrees>
            </Position>
            <AltitudeMeters>473</AltitudeMeters>
            <DistanceMeters>20438.020463322</DistanceMeters>
          </Trackpoint>
          <Trackpoint>
            <Time>2018-08-26T06:31:51.000Z</Time>
            <Position>
              <LatitudeDegrees>42.8727614879608154296875</LatitudeDegrees>
              <LongitudeDegrees>-1.754399053752422332763671875</LongitudeDegrees>
            </Position>
            <AltitudeMeters>473.399993896484375</AltitudeMeters>
            <DistanceMeters>20443.058671821</DistanceMeters>
          </Trackpoint>
          <Trackpoint>
            <Time>2018-08-26T06:31:52.000Z</Time>
            <Position>
              <LatitudeDegrees>42.87279174663126468658447265625</LatitudeDegrees>
              <LongitudeDegrees>-1.754352115094661712646484375</LongitudeDegrees>
            </Position>
            <AltitudeMeters>473.600006103515625</AltitudeMeters>
            <DistanceMeters>20448.158340453</DistanceMeters>
          </Trackpoint>
          <Trackpoint>
            <Time>2018-08-26T06:31:53.000Z</Time>
            <Position>
              <LatitudeDegrees>42.8728218376636505126953125</LatitudeDegrees>
              <LongitudeDegrees>-1.75430509261786937713623046875</LongitudeDegrees>
            </Position>
            <AltitudeMeters>473.79998779296875</AltitudeMeters>
            <DistanceMeters>20453.249147795</DistanceMeters>
          </Trackpoint>
          <Trackpoint>
            <Time>2018-08-26T06:31:54.000Z</Time>
            <Position>
              <LatitudeDegrees>42.8728515096008777618408203125</LatitudeDegrees>
              <LongitudeDegrees>-1.75425815396010875701904296875</LongitudeDegrees>
            </Position>
            <AltitudeMeters>474</AltitudeMeters>
            <DistanceMeters>20458.306140626</DistanceMeters>
          </Trackpoint>
          <Trackpoint>
            <Time>2018-08-26T06:31:55.000Z</Time>
            <Position>
              <LatitudeDegrees>42.87287975661456584930419921875</LatitudeDegrees>
              <LongitudeDegrees>-1.7542116343975067138671875</LongitudeDegrees>
            </Position>
            <AltitudeMeters>474.600006103515625</AltitudeMeters>
            <DistanceMeters>20463.234721115</DistanceMeters>
          </Trackpoint>
          <Trackpoint>
            <Time>2018-08-26T06:31:56.000Z</Time>
            <Position>
              <LatitudeDegrees>42.87290859036147594451904296875</LatitudeDegrees>
              <LongitudeDegrees>-1.7541648633778095245361328125</LongitudeDegrees>
            </Position>
            <AltitudeMeters>475</AltitudeMeters>
            <DistanceMeters>20468.221586917</DistanceMeters>
          </Trackpoint>
          <Trackpoint>
            <Time>2018-08-26T06:31:57.000Z</Time>
            <Position>
              <LatitudeDegrees>42.87293809466063976287841796875</LatitudeDegrees>
              <LongitudeDegrees>-1.75411800853908061981201171875</LongitudeDegrees>
            </Position>
            <AltitudeMeters>475.399993896484375</AltitudeMeters>
            <DistanceMeters>20473.262483178</DistanceMeters>
          </Trackpoint>
          <Trackpoint>
            <Time>2018-08-26T06:31:58.000Z</Time>
            <Position>
              <LatitudeDegrees>42.87296743132174015045166015625</LatitudeDegrees>
              <LongitudeDegrees>-1.75407140515744686126708984375</LongitudeDegrees>
            </Position>
            <AltitudeMeters>475.79998779296875</AltitudeMeters>
            <DistanceMeters>20478.274635676</DistanceMeters>
          </Trackpoint>
          <Trackpoint>
            <Time>2018-08-26T06:31:59.000Z</Time>
            <Position>
              <LatitudeDegrees>42.87299676798284053802490234375</LatitudeDegrees>
              <LongitudeDegrees>-1.75402530469000339508056640625</LongitudeDegrees>
            </Position>
            <AltitudeMeters>476.20001220703125</AltitudeMeters>
            <DistanceMeters>20483.255159744</DistanceMeters>
          </Trackpoint>
          <Trackpoint>
            <Time>2018-08-26T06:32:00.000Z</Time>
            <Position>
              <LatitudeDegrees>42.873026691377162933349609375</LatitudeDegrees>
              <LongitudeDegrees>-1.75397895276546478271484375</LongitudeDegrees>
            </Position>
            <AltitudeMeters>476.399993896484375</AltitudeMeters>
            <DistanceMeters>20488.294264323</DistanceMeters>
          </Trackpoint>
          <Trackpoint>
            <Time>2018-08-26T06:32:01.000Z</Time>
            <Position>
              <LatitudeDegrees>42.87305577658116817474365234375</LatitudeDegrees>
              <LongitudeDegrees>-1.75393260084092617034912109375</LongitudeDegrees>
            </Position>
            <AltitudeMeters>476.79998779296875</AltitudeMeters>
            <DistanceMeters>20493.272068032</DistanceMeters>
          </Trackpoint>
          <Trackpoint>
            <Time>2018-08-26T06:32:02.000Z</Time>
            <Position>
              <LatitudeDegrees>42.87308402359485626220703125</LatitudeDegrees>
              <LongitudeDegrees>-1.7538859136402606964111328125</LongitudeDegrees>
            </Position>
            <AltitudeMeters>477</AltitudeMeters>
            <DistanceMeters>20498.211629404</DistanceMeters>
          </Trackpoint>
          <Trackpoint>
            <Time>2018-08-26T06:32:03.000Z</Time>
            <Position>
              <LatitudeDegrees>42.873111180961132049560546875</LatitudeDegrees>
              <LongitudeDegrees>-1.75383905880153179168701171875</LongitudeDegrees>
            </Position>
            <AltitudeMeters>477.399993896484375</AltitudeMeters>
            <DistanceMeters>20503.084934345</DistanceMeters>
          </Trackpoint>
          <Trackpoint>
            <Time>2018-08-26T06:32:04.000Z</Time>
            <Position>
              <LatitudeDegrees>42.8731391765177249908447265625</LatitudeDegrees>
              <LongitudeDegrees>-1.753791533410549163818359375</LongitudeDegrees>
            </Position>
            <AltitudeMeters>477.600006103515625</AltitudeMeters>
            <DistanceMeters>20508.057292871</DistanceMeters>
          </Trackpoint>
          <Trackpoint>
            <Time>2018-08-26T06:32:05.000Z</Time>
            <Position>
              <LatitudeDegrees>42.873168848454952239990234375</LatitudeDegrees>
              <LongitudeDegrees>-1.75374266691505908966064453125</LongitudeDegrees>
            </Position>
            <AltitudeMeters>478</AltitudeMeters>
            <DistanceMeters>20513.232542307</DistanceMeters>
          </Trackpoint>
          <Trackpoint>
            <Time>2018-08-26T06:32:06.000Z</Time>
            <Position>
              <LatitudeDegrees>42.87320069968700408935546875</LatitudeDegrees>
              <LongitudeDegrees>-1.75369329750537872314453125</LongitudeDegrees>
            </Position>
            <AltitudeMeters>478.20001220703125</AltitudeMeters>
            <DistanceMeters>20518.597976465</DistanceMeters>
          </Trackpoint>
          <Trackpoint>
            <Time>2018-08-26T06:32:07.000Z</Time>
            <Position>
              <LatitudeDegrees>42.873232550919055938720703125</LatitudeDegrees>
              <LongitudeDegrees>-1.7536438442766666412353515625</LongitudeDegrees>
            </Position>
            <AltitudeMeters>478.600006103515625</AltitudeMeters>
            <DistanceMeters>20523.968457278</DistanceMeters>
          </Trackpoint>
          <Trackpoint>
            <Time>2018-08-26T06:32:08.000Z</Time>
            <Position>
              <LatitudeDegrees>42.8732625581324100494384765625</LatitudeDegrees>
              <LongitudeDegrees>-1.753592379391193389892578125</LongitudeDegrees>
            </Position>
            <AltitudeMeters>479</AltitudeMeters>
            <DistanceMeters>20529.332208163</DistanceMeters>
          </Trackpoint>
          <Trackpoint>
            <Time>2018-08-26T06:32:09.000Z</Time>
            <Position>
              <LatitudeDegrees>42.873293571174144744873046875</LatitudeDegrees>
              <LongitudeDegrees>-1.75353915430605411529541015625</LongitudeDegrees>
            </Position>
            <AltitudeMeters>479.20001220703125</AltitudeMeters>
            <DistanceMeters>20534.878871164</DistanceMeters>
          </Trackpoint>
          <Trackpoint>
            <Time>2018-08-26T06:32:10.000Z</Time>
            <Position>
              <LatitudeDegrees>42.8733252547681331634521484375</LatitudeDegrees>
              <LongitudeDegrees>-1.753486432135105133056640625</LongitudeDegrees>
            </Position>
            <AltitudeMeters>479.399993896484375</AltitudeMeters>
            <DistanceMeters>20540.440978848</DistanceMeters>
          </Trackpoint>
          <Trackpoint>
            <Time>2018-08-26T06:32:11.000Z</Time>
            <Position>
              <LatitudeDegrees>42.87335685454308986663818359375</LatitudeDegrees>
              <LongitudeDegrees>-1.7534336261451244354248046875</LongitudeDegrees>
            </Position>
            <AltitudeMeters>479.600006103515625</AltitudeMeters>
            <DistanceMeters>20546.002274724</DistanceMeters>
          </Trackpoint>
          <Trackpoint>
            <Time>2018-08-26T06:32:12.000Z</Time>
            <Position>
              <LatitudeDegrees>42.873388119041919708251953125</LatitudeDegrees>
              <LongitudeDegrees>-1.75338056869804859161376953125</LongitudeDegrees>
            </Position>
            <AltitudeMeters>479.79998779296875</AltitudeMeters>
            <DistanceMeters>20551.555445985</DistanceMeters>
          </Trackpoint>
          <Trackpoint>
            <Time>2018-08-26T06:32:13.000Z</Time>
            <Position>
              <LatitudeDegrees>42.87342064082622528076171875</LatitudeDegrees>
              <LongitudeDegrees>-1.7533276788890361785888671875</LongitudeDegrees>
            </Position>
            <AltitudeMeters>480.20001220703125</AltitudeMeters>
            <DistanceMeters>20557.186931444</DistanceMeters>
          </Trackpoint>
          <Trackpoint>
            <Time>2018-08-26T06:32:14.000Z</Time>
            <Position>
              <LatitudeDegrees>42.87345374934375286102294921875</LatitudeDegrees>
              <LongitudeDegrees>-1.75327562727034091949462890625</LongitudeDegrees>
            </Position>
            <AltitudeMeters>480.399993896484375</AltitudeMeters>
            <DistanceMeters>20562.808787682</DistanceMeters>
          </Trackpoint>
          <Trackpoint>
            <Time>2018-08-26T06:32:15.000Z</Time>
            <Position>
              <LatitudeDegrees>42.87348677404224872589111328125</LatitudeDegrees>
              <LongitudeDegrees>-1.7532230727374553680419921875</LongitudeDegrees>
            </Position>
            <AltitudeMeters>480.600006103515625</AltitudeMeters>
            <DistanceMeters>20568.455485825</DistanceMeters>
          </Trackpoint>
          <Trackpoint>
            <Time>2018-08-26T06:32:16.000Z</Time>
            <Position>
              <LatitudeDegrees>42.8735187090933322906494140625</LatitudeDegrees>
              <LongitudeDegrees>-1.75317001529037952423095703125</LongitudeDegrees>
            </Position>
            <AltitudeMeters>480.600006103515625</AltitudeMeters>
            <DistanceMeters>20574.056421958</DistanceMeters>
          </Trackpoint>
          <Trackpoint>
            <Time>2018-08-26T06:32:17.000Z</Time>
            <Position>
              <LatitudeDegrees>42.8735508956015110015869140625</LatitudeDegrees>
              <LongitudeDegrees>-1.75311670638620853424072265625</LongitudeDegrees>
            </Position>
            <AltitudeMeters>480.600006103515625</AltitudeMeters>
            <DistanceMeters>20579.6911135</DistanceMeters>
          </Trackpoint>
          <Trackpoint>
            <Time>2018-08-26T06:32:18.000Z</Time>
            <Position>
              <LatitudeDegrees>42.87358450703322887420654296875</LatitudeDegrees>
              <LongitudeDegrees>-1.7530638165771961212158203125</LongitudeDegrees>
            </Position>
            <AltitudeMeters>480.79998779296875</AltitudeMeters>
            <DistanceMeters>20585.400629764</DistanceMeters>
          </Trackpoint>
          <Trackpoint>
            <Time>2018-08-26T06:32:19.000Z</Time>
            <Position>
              <LatitudeDegrees>42.87361954338848590850830078125</LatitudeDegrees>
              <LongitudeDegrees>-1.753010340034961700439453125</LongitudeDegrees>
            </Position>
            <AltitudeMeters>481</AltitudeMeters>
            <DistanceMeters>20591.250757089</DistanceMeters>
          </Trackpoint>
          <Trackpoint>
            <Time>2018-08-26T06:32:20.000Z</Time>
            <Position>
              <LatitudeDegrees>42.87365491501986980438232421875</LatitudeDegrees>
              <LongitudeDegrees>-1.752955354750156402587890625</LongitudeDegrees>
            </Position>
            <AltitudeMeters>481.20001220703125</AltitudeMeters>
            <DistanceMeters>20597.218555804</DistanceMeters>
          </Trackpoint>
          <Trackpoint>
            <Time>2018-08-26T06:32:21.000Z</Time>
            <Position>
              <LatitudeDegrees>42.8736903704702854156494140625</LatitudeDegrees>
              <LongitudeDegrees>-1.75289810635149478912353515625</LongitudeDegrees>
            </Position>
            <AltitudeMeters>481.399993896484375</AltitudeMeters>
            <DistanceMeters>20603.3328437</DistanceMeters>
          </Trackpoint>
          <Trackpoint>
            <Time>2018-08-26T06:32:22.000Z</Time>
            <Position>
              <LatitudeDegrees>42.87372582592070102691650390625</LatitudeDegrees>
              <LongitudeDegrees>-1.75283968448638916015625</LongitudeDegrees>
            </Position>
            <AltitudeMeters>481.79998779296875</AltitudeMeters>
            <DistanceMeters>20609.52053504</DistanceMeters>
          </Trackpoint>
          <Trackpoint>
            <Time>2018-08-26T06:32:23.000Z</Time>
            <Position>
              <LatitudeDegrees>42.87376253865659236907958984375</LatitudeDegrees>
              <LongitudeDegrees>-1.7527811788022518157958984375</LongitudeDegrees>
            </Position>
            <AltitudeMeters>482</AltitudeMeters>
            <DistanceMeters>20615.803087398</DistanceMeters>
          </Trackpoint>
          <Trackpoint>
            <Time>2018-08-26T06:32:24.000Z</Time>
            <Position>
              <LatitudeDegrees>42.8737996704876422882080078125</LatitudeDegrees>
              <LongitudeDegrees>-1.7527225054800510406494140625</LongitudeDegrees>
            </Position>
            <AltitudeMeters>482.399993896484375</AltitudeMeters>
            <DistanceMeters>20622.126470867</DistanceMeters>
          </Trackpoint>
          <Trackpoint>
            <Time>2018-08-26T06:32:25.000Z</Time>
            <Position>
              <LatitudeDegrees>42.8738368861377239227294921875</LatitudeDegrees>
              <LongitudeDegrees>-1.75266291014850139617919921875</LongitudeDegrees>
            </Position>
            <AltitudeMeters>482.600006103515625</AltitudeMeters>
            <DistanceMeters>20628.513793105</DistanceMeters>
          </Trackpoint>
          <Trackpoint>
            <Time>2018-08-26T06:32:26.000Z</Time>
            <Position>
              <LatitudeDegrees>42.8738737665116786956787109375</LatitudeDegrees>
              <LongitudeDegrees>-1.75260323099792003631591796875</LongitudeDegrees>
            </Position>
            <AltitudeMeters>482.79998779296875</AltitudeMeters>
            <DistanceMeters>20634.881292083</DistanceMeters>
          </Trackpoint>
          <Trackpoint>
            <Time>2018-08-26T06:32:27.000Z</Time>
            <Position>
              <LatitudeDegrees>42.87390905432403087615966796875</LatitudeDegrees>
              <LongitudeDegrees>-1.7525446414947509765625</LongitudeDegrees>
            </Position>
            <AltitudeMeters>483</AltitudeMeters>
            <DistanceMeters>20641.066064013</DistanceMeters>
          </Trackpoint>
          <Trackpoint>
            <Time>2018-08-26T06:32:28.000Z</Time>
            <Position>
              <LatitudeDegrees>42.87394501268863677978515625</LatitudeDegrees>
              <LongitudeDegrees>-1.75248571671545505523681640625</LongitudeDegrees>
            </Position>
            <AltitudeMeters>483.20001220703125</AltitudeMeters>
            <DistanceMeters>20647.320525712</DistanceMeters>
          </Trackpoint>
          <Trackpoint>
            <Time>2018-08-26T06:32:29.000Z</Time>
            <Position>
              <LatitudeDegrees>42.87398197688162326812744140625</LatitudeDegrees>
              <LongitudeDegrees>-1.7524279654026031494140625</LongitudeDegrees>
            </Position>
            <AltitudeMeters>483.20001220703125</AltitudeMeters>
            <DistanceMeters>20653.57426548</DistanceMeters>
          </Trackpoint>
          <Trackpoint>
            <Time>2018-08-26T06:32:30.000Z</Time>
            <Position>
              <LatitudeDegrees>42.8740186057984828948974609375</LatitudeDegrees>
              <LongitudeDegrees>-1.7523701302707195281982421875</LongitudeDegrees>
            </Position>
            <AltitudeMeters>483.20001220703125</AltitudeMeters>
            <DistanceMeters>20659.809205663</DistanceMeters>
          </Trackpoint>
          <Trackpoint>
            <Time>2018-08-26T06:32:31.000Z</Time>
            <Position>
              <LatitudeDegrees>42.8740554861724376678466796875</LatitudeDegrees>
              <LongitudeDegrees>-1.7523126304149627685546875</LongitudeDegrees>
            </Position>
            <AltitudeMeters>483.399993896484375</AltitudeMeters>
            <DistanceMeters>20666.041973015</DistanceMeters>
          </Trackpoint>
          <Trackpoint>
            <Time>2018-08-26T06:32:32.000Z</Time>
            <Position>
              <LatitudeDegrees>42.8740930370986461639404296875</LatitudeDegrees>
              <LongitudeDegrees>-1.75225404091179370880126953125</LongitudeDegrees>
            </Position>
            <AltitudeMeters>483.399993896484375</AltitudeMeters>
            <DistanceMeters>20672.391009261</DistanceMeters>
          </Trackpoint>
          <Trackpoint>
            <Time>2018-08-26T06:32:33.000Z</Time>
            <Position>
              <LatitudeDegrees>42.8741309233009815216064453125</LatitudeDegrees>
              <LongitudeDegrees>-1.7521946132183074951171875</LongitudeDegrees>
            </Position>
            <AltitudeMeters>483.399993896484375</AltitudeMeters>
            <DistanceMeters>20678.816389366</DistanceMeters>
          </Trackpoint>
          <Trackpoint>
            <Time>2018-08-26T06:32:34.000Z</Time>
            <Position>
              <LatitudeDegrees>42.87416855804622173309326171875</LatitudeDegrees>
              <LongitudeDegrees>-1.75213451497256755828857421875</LongitudeDegrees>
            </Position>
            <AltitudeMeters>483.399993896484375</AltitudeMeters>
            <DistanceMeters>20685.264216283</DistanceMeters>
          </Trackpoint>
          <Trackpoint>
            <Time>2018-08-26T06:32:35.000Z</Time>
            <Position>
              <LatitudeDegrees>42.87420661188662052154541015625</LatitudeDegrees>
              <LongitudeDegrees>-1.7520737461745738983154296875</LongitudeDegrees>
            </Position>
            <AltitudeMeters>483.399993896484375</AltitudeMeters>
            <DistanceMeters>20691.784461669</DistanceMeters>
          </Trackpoint>
          <Trackpoint>
            <Time>2018-08-26T06:32:36.000Z</Time>
            <Position>
              <LatitudeDegrees>42.87424500100314617156982421875</LatitudeDegrees>
              <LongitudeDegrees>-1.75201264210045337677001953125</LongitudeDegrees>
            </Position>
            <AltitudeMeters>483.399993896484375</AltitudeMeters>
            <DistanceMeters>20698.348875184</DistanceMeters>
          </Trackpoint>
          <Trackpoint>
            <Time>2018-08-26T06:32:37.000Z</Time>
            <Position>
              <LatitudeDegrees>42.87428355775773525238037109375</LatitudeDegrees>
              <LongitudeDegrees>-1.751952879130840301513671875</LongitudeDegrees>
            </Position>
            <AltitudeMeters>483.399993896484375</AltitudeMeters>
            <DistanceMeters>20704.843448847</DistanceMeters>
          </Trackpoint>
          <Trackpoint>
            <Time>2018-08-26T06:32:38.000Z</Time>
            <Position>
              <LatitudeDegrees>42.874322868883609771728515625</LatitudeDegrees>
              <LongitudeDegrees>-1.75189294852316379547119140625</LongitudeDegrees>
            </Position>
            <AltitudeMeters>483.399993896484375</AltitudeMeters>
            <DistanceMeters>20711.403734232</DistanceMeters>
          </Trackpoint>
          <Trackpoint>
            <Time>2018-08-26T06:32:39.000Z</Time>
            <Position>
              <LatitudeDegrees>42.87436234764754772186279296875</LatitudeDegrees>
              <LongitudeDegrees>-1.7518323473632335662841796875</LongitudeDegrees>
            </Position>
            <AltitudeMeters>483.399993896484375</AltitudeMeters>
            <DistanceMeters>20718.018166965</DistanceMeters>
          </Trackpoint>
          <Trackpoint>
            <Time>2018-08-26T06:32:40.000Z</Time>
            <Position>
              <LatitudeDegrees>42.8744014911353588104248046875</LatitudeDegrees>
              <LongitudeDegrees>-1.75177208147943019866943359375</LongitudeDegrees>
            </Position>
            <AltitudeMeters>483.399993896484375</AltitudeMeters>
            <DistanceMeters>20724.587393352</DistanceMeters>
          </Trackpoint>
          <Trackpoint>
            <Time>2018-08-26T06:32:41.000Z</Time>
            <Position>
              <LatitudeDegrees>42.87444180808961391448974609375</LatitudeDegrees>
              <LongitudeDegrees>-1.75171340815722942352294921875</LongitudeDegrees>
            </Position>
            <AltitudeMeters>483.399993896484375</AltitudeMeters>
            <DistanceMeters>20731.149055068</DistanceMeters>
          </Trackpoint>
          <Trackpoint>
            <Time>2018-08-26T06:32:42.000Z</Time>
            <Position>
              <LatitudeDegrees>42.87448254413902759552001953125</LatitudeDegrees>
              <LongitudeDegrees>-1.7516566626727581024169921875</LongitudeDegrees>
            </Position>
            <AltitudeMeters>483.399993896484375</AltitudeMeters>
            <DistanceMeters>20737.629013052</DistanceMeters>
          </Trackpoint>
          <Trackpoint>
            <Time>2018-08-26T06:32:43.000Z</Time>
            <Position>
              <LatitudeDegrees>42.8745218552649021148681640625</LatitudeDegrees>
              <LongitudeDegrees>-1.75160092301666736602783203125</LongitudeDegrees>
            </Position>
            <AltitudeMeters>483.399993896484375</AltitudeMeters>
            <DistanceMeters>20743.938815508</DistanceMeters>
          </Trackpoint>
          <Trackpoint>
            <Time>2018-08-26T06:32:44.000Z</Time>
            <Position>
              <LatitudeDegrees>42.8745604120194911956787109375</LatitudeDegrees>
              <LongitudeDegrees>-1.7515460215508937835693359375</LongitudeDegrees>
            </Position>
            <AltitudeMeters>483.600006103515625</AltitudeMeters>
            <DistanceMeters>20750.141083291</DistanceMeters>
          </Trackpoint>
          <Trackpoint>
            <Time>2018-08-26T06:32:45.000Z</Time>
            <Position>
              <LatitudeDegrees>42.87459704093635082244873046875</LatitudeDegrees>
              <LongitudeDegrees>-1.7514937184751033782958984375</LongitudeDegrees>
            </Position>
            <AltitudeMeters>483.600006103515625</AltitudeMeters>
            <DistanceMeters>20756.04192855</DistanceMeters>
          </Trackpoint>
          <Trackpoint>
            <Time>2018-08-26T06:32:46.000Z</Time>
            <Position>
              <LatitudeDegrees>42.87463090382516384124755859375</LatitudeDegrees>
              <LongitudeDegrees>-1.75144367851316928863525390625</LongitudeDegrees>
            </Position>
            <AltitudeMeters>483.600006103515625</AltitudeMeters>
            <DistanceMeters>20761.597538443</DistanceMeters>
          </Trackpoint>
          <Trackpoint>
            <Time>2018-08-26T06:32:47.000Z</Time>
            <Position>
              <LatitudeDegrees>42.8746618330478668212890625</LatitudeDegrees>
              <LongitudeDegrees>-1.75139590166509151458740234375</LongitudeDegrees>
            </Position>
            <AltitudeMeters>483.600006103515625</AltitudeMeters>
            <DistanceMeters>20766.797158513</DistanceMeters>
          </Trackpoint>
          <Trackpoint>
            <Time>2018-08-26T06:32:48.000Z</Time>
            <Position>
              <LatitudeDegrees>42.8746901638805866241455078125</LatitudeDegrees>
              <LongitudeDegrees>-1.7513508908450603485107421875</LongitudeDegrees>
            </Position>
            <AltitudeMeters>483.600006103515625</AltitudeMeters>
            <DistanceMeters>20771.636995111</DistanceMeters>
          </Trackpoint>
          <Trackpoint>
            <Time>2018-08-26T06:32:49.000Z</Time>
            <Position>
              <LatitudeDegrees>42.8747176565229892730712890625</LatitudeDegrees>
              <LongitudeDegrees>-1.75130839459598064422607421875</LongitudeDegrees>
            </Position>
            <AltitudeMeters>483.79998779296875</AltitudeMeters>
            <DistanceMeters>20776.261194612</DistanceMeters>
          </Trackpoint>
          <Trackpoint>
            <Time>2018-08-26T06:32:50.000Z</Time>
            <Position>
              <LatitudeDegrees>42.8747476637363433837890625</LatitudeDegrees>
              <LongitudeDegrees>-1.75126858055591583251953125</LongitudeDegrees>
            </Position>
            <AltitudeMeters>484</AltitudeMeters>
            <DistanceMeters>20780.920411689</DistanceMeters>
          </Trackpoint>
          <Trackpoint>
            <Time>2018-08-26T06:32:51.000Z</Time>
            <Position>
              <LatitudeDegrees>42.8747773356735706329345703125</LatitudeDegrees>
              <LongitudeDegrees>-1.7512311972677707672119140625</LongitudeDegrees>
            </Position>
            <AltitudeMeters>484.20001220703125</AltitudeMeters>
            <DistanceMeters>20785.415888424</DistanceMeters>
          </Trackpoint>
          <Trackpoint>
            <Time>2018-08-26T06:32:52.000Z</Time>
            <Position>
              <LatitudeDegrees>42.87480533123016357421875</LatitudeDegrees>
              <LongitudeDegrees>-1.75119641236960887908935546875</LongitudeDegrees>
            </Position>
            <AltitudeMeters>484.399993896484375</AltitudeMeters>
            <DistanceMeters>20789.629334792</DistanceMeters>
          </Trackpoint>
          <Trackpoint>
            <Time>2018-08-26T06:32:53.000Z</Time>
            <Position>
              <LatitudeDegrees>42.87483156658709049224853515625</LatitudeDegrees>
              <LongitudeDegrees>-1.751161627471446990966796875</LongitudeDegrees>
            </Position>
            <AltitudeMeters>484.600006103515625</AltitudeMeters>
            <DistanceMeters>20793.701093668</DistanceMeters>
          </Trackpoint>
          <Trackpoint>
            <Time>2018-08-26T06:32:54.000Z</Time>
            <Position>
              <LatitudeDegrees>42.87485654465854167938232421875</LatitudeDegrees>
              <LongitudeDegrees>-1.75112508237361907958984375</LongitudeDegrees>
            </Position>
            <AltitudeMeters>484.79998779296875</AltitudeMeters>
            <DistanceMeters>20797.777285599</DistanceMeters>
          </Trackpoint>
          <Trackpoint>
            <Time>2018-08-26T06:32:55.000Z</Time>
            <Position>
              <LatitudeDegrees>42.87488269619643688201904296875</LatitudeDegrees>
              <LongitudeDegrees>-1.75108744762837886810302734375</LongitudeDegrees>
            </Position>
            <AltitudeMeters>485.20001220703125</AltitudeMeters>
            <DistanceMeters>20802.007842479</DistanceMeters>
          </Trackpoint>
          <Trackpoint>
            <Time>2018-08-26T06:32:56.000Z</Time>
            <Position>
              <LatitudeDegrees>42.874908261001110076904296875</LatitudeDegrees>
              <LongitudeDegrees>-1.75105006434023380279541015625</LongitudeDegrees>
            </Position>
            <AltitudeMeters>485.600006103515625</AltitudeMeters>
            <DistanceMeters>20806.180370176</DistanceMeters>
          </Trackpoint>
          <Trackpoint>
            <Time>2018-08-26T06:32:57.000Z</Time>
            <Position>
              <LatitudeDegrees>42.87493483163416385650634765625</LatitudeDegrees>
              <LongitudeDegrees>-1.7510122619569301605224609375</LongitudeDegrees>
            </Position>
            <AltitudeMeters>486</AltitudeMeters>
            <DistanceMeters>20810.453403592</DistanceMeters>
          </Trackpoint>
          <Trackpoint>
            <Time>2018-08-26T06:32:58.000Z</Time>
            <Position>
              <LatitudeDegrees>42.87496098317205905914306640625</LatitudeDegrees>
              <LongitudeDegrees>-1.75097563304007053375244140625</LongitudeDegrees>
            </Position>
            <AltitudeMeters>486.399993896484375</AltitudeMeters>
            <DistanceMeters>20814.625931289</DistanceMeters>
          </Trackpoint>
          <Trackpoint>
            <Time>2018-08-26T06:32:59.000Z</Time>
            <Position>
              <LatitudeDegrees>42.874986045062541961669921875</LatitudeDegrees>
              <LongitudeDegrees>-1.750937663018703460693359375</LongitudeDegrees>
            </Position>
            <AltitudeMeters>486.79998779296875</AltitudeMeters>
            <DistanceMeters>20818.79412839</DistanceMeters>
          </Trackpoint>
          <Trackpoint>
            <Time>2018-08-26T06:33:00.000Z</Time>
            <Position>
              <LatitudeDegrees>42.8750103525817394256591796875</LatitudeDegrees>
              <LongitudeDegrees>-1.75090069882571697235107421875</LongitudeDegrees>
            </Position>
            <AltitudeMeters>487</AltitudeMeters>
            <DistanceMeters>20822.843649204</DistanceMeters>
          </Trackpoint>
          <Trackpoint>
            <Time>2018-08-26T06:33:01.000Z</Time>
            <Position>
              <LatitudeDegrees>42.87503340281546115875244140625</LatitudeDegrees>
              <LongitudeDegrees>-1.75086624920368194580078125</LongitudeDegrees>
            </Position>
            <AltitudeMeters>487.20001220703125</AltitudeMeters>
            <DistanceMeters>20826.647092705</DistanceMeters>
          </Trackpoint>
          <Trackpoint>
            <Time>2018-08-26T06:33:02.000Z</Time>
            <Position>
              <LatitudeDegrees>42.87505703978240489959716796875</LatitudeDegrees>
              <LongitudeDegrees>-1.75083045847713947296142578125</LongitudeDegrees>
            </Position>
            <AltitudeMeters>487.399993896484375</AltitudeMeters>
            <DistanceMeters>20830.576651296</DistanceMeters>
          </Trackpoint>
          <Trackpoint>
            <Time>2018-08-26T06:33:03.000Z</Time>
            <Position>
              <LatitudeDegrees>42.8750810958445072174072265625</LatitudeDegrees>
              <LongitudeDegrees>-1.7507939971983432769775390625</LongitudeDegrees>
            </Position>
            <AltitudeMeters>487.600006103515625</AltitudeMeters>
            <DistanceMeters>20834.579070016</DistanceMeters>
          </Trackpoint>
          <Trackpoint>
            <Time>2018-08-26T06:33:04.000Z</Time>
            <Position>
              <LatitudeDegrees>42.87510464899241924285888671875</LatitudeDegrees>
              <LongitudeDegrees>-1.75075820647180080413818359375</LongitudeDegrees>
            </Position>
            <AltitudeMeters>487.79998779296875</AltitudeMeters>
            <DistanceMeters>20838.502879433</DistanceMeters>
          </Trackpoint>
          <Trackpoint>
            <Time>2018-08-26T06:33:05.000Z</Time>
            <Position>
              <LatitudeDegrees>42.87512719631195068359375</LatitudeDegrees>
              <LongitudeDegrees>-1.75072367303073406219482421875</LongitudeDegrees>
            </Position>
            <AltitudeMeters>488</AltitudeMeters>
            <DistanceMeters>20842.275332279</DistanceMeters>
          </Trackpoint>
          <Trackpoint>
            <Time>2018-08-26T06:33:06.000Z</Time>
            <Position>
              <LatitudeDegrees>42.87515007890760898590087890625</LatitudeDegrees>
              <LongitudeDegrees>-1.7506883852183818817138671875</LongitudeDegrees>
            </Position>
            <AltitudeMeters>488.399993896484375</AltitudeMeters>
            <DistanceMeters>20846.118925007</DistanceMeters>
          </Trackpoint>
          <Trackpoint>
            <Time>2018-08-26T06:33:07.000Z</Time>
            <Position>
              <LatitudeDegrees>42.8751739673316478729248046875</LatitudeDegrees>
              <LongitudeDegrees>-1.75065301358699798583984375</LongitudeDegrees>
            </Position>
            <AltitudeMeters>488.600006103515625</AltitudeMeters>
            <DistanceMeters>20850.042734424</DistanceMeters>
          </Trackpoint>
          <Trackpoint>
            <Time>2018-08-26T06:33:08.000Z</Time>
            <Position>
              <LatitudeDegrees>42.8751981072127819061279296875</LatitudeDegrees>
              <LongitudeDegrees>-1.7506173066794872283935546875</LongitudeDegrees>
            </Position>
            <AltitudeMeters>489.20001220703125</AltitudeMeters>
            <DistanceMeters>20854.004334209</DistanceMeters>
          </Trackpoint>
          <Trackpoint>
            <Time>2018-08-26T06:33:09.000Z</Time>
            <Position>
              <LatitudeDegrees>42.87522249855101108551025390625</LatitudeDegrees>
              <LongitudeDegrees>-1.7505807615816593170166015625</LongitudeDegrees>
            </Position>
            <AltitudeMeters>489.600006103515625</AltitudeMeters>
            <DistanceMeters>20858.0348562</DistanceMeters>
          </Trackpoint>
          <Trackpoint>
            <Time>2018-08-26T06:33:10.000Z</Time>
            <Position>
              <LatitudeDegrees>42.8752465546131134033203125</LatitudeDegrees>
              <LongitudeDegrees>-1.75054480321705341339111328125</LongitudeDegrees>
            </Position>
            <AltitudeMeters>489.79998779296875</AltitudeMeters>
            <DistanceMeters>20862.005563124</DistanceMeters>
          </Trackpoint>
          <Trackpoint>
            <Time>2018-08-26T06:33:11.000Z</Time>
            <Position>
              <LatitudeDegrees>42.87527061067521572113037109375</LatitudeDegrees>
              <LongitudeDegrees>-1.750509180128574371337890625</LongitudeDegrees>
            </Position>
            <AltitudeMeters>490</AltitudeMeters>
            <DistanceMeters>20865.958034787</DistanceMeters>
          </Trackpoint>
          <Trackpoint>
            <Time>2018-08-26T06:33:12.000Z</Time>
            <Position>
              <LatitudeDegrees>42.875293157994747161865234375</LatitudeDegrees>
              <LongitudeDegrees>-1.7504748143255710601806640625</LongitudeDegrees>
            </Position>
            <AltitudeMeters>490.20001220703125</AltitudeMeters>
            <DistanceMeters>20869.720900698</DistanceMeters>
          </Trackpoint>
          <Trackpoint>
            <Time>2018-08-26T06:33:13.000Z</Time>
            <Position>
              <LatitudeDegrees>42.8753149509429931640625</LatitudeDegrees>
              <LongitudeDegrees>-1.75044086761772632598876953125</LongitudeDegrees>
            </Position>
            <AltitudeMeters>490.600006103515625</AltitudeMeters>
            <DistanceMeters>20873.40126952</DistanceMeters>
          </Trackpoint>
          <Trackpoint>
            <Time>2018-08-26T06:33:14.000Z</Time>
            <Position>
              <LatitudeDegrees>42.87533783353865146636962890625</LatitudeDegrees>
              <LongitudeDegrees>-1.7504064179956912994384765625</LongitudeDegrees>
            </Position>
            <AltitudeMeters>491</AltitudeMeters>
            <DistanceMeters>20877.192823515</DistanceMeters>
          </Trackpoint>
          <Trackpoint>
            <Time>2018-08-26T06:33:15.000Z</Time>
            <Position>
              <LatitudeDegrees>42.875360883772373199462890625</LatitudeDegrees>
              <LongitudeDegrees>-1.75037205219268798828125</LongitudeDegrees>
            </Position>
            <AltitudeMeters>491.20001220703125</AltitudeMeters>
            <DistanceMeters>20880.99270407</DistanceMeters>
          </Trackpoint>
          <Trackpoint>
            <Time>2018-08-26T06:33:16.000Z</Time>
            <Position>
              <LatitudeDegrees>42.87538443692028522491455078125</LatitudeDegrees>
              <LongitudeDegrees>-1.75033676438033580780029296875</LongitudeDegrees>
            </Position>
            <AltitudeMeters>491.600006103515625</AltitudeMeters>
            <DistanceMeters>20884.88532122</DistanceMeters>
          </Trackpoint>
          <Trackpoint>
            <Time>2018-08-26T06:33:17.000Z</Time>
            <Position>
              <LatitudeDegrees>42.87540690042078495025634765625</LatitudeDegrees>
              <LongitudeDegrees>-1.750301308929920196533203125</LongitudeDegrees>
            </Position>
            <AltitudeMeters>491.79998779296875</AltitudeMeters>
            <DistanceMeters>20888.708892033</DistanceMeters>
          </Trackpoint>
          <Trackpoint>
            <Time>2018-08-26T06:33:18.000Z</Time>
            <Position>
              <LatitudeDegrees>42.87542902864515781402587890625</LatitudeDegrees>
              <LongitudeDegrees>-1.7502666078507900238037109375</LongitudeDegrees>
            </Position>
            <AltitudeMeters>492.399993896484375</AltitudeMeters>
            <DistanceMeters>20892.462146521</DistanceMeters>
          </Trackpoint>
          <Trackpoint>
            <Time>2018-08-26T06:33:19.000Z</Time>
            <Position>
              <LatitudeDegrees>42.875451408326625823974609375</LatitudeDegrees>
              <LongitudeDegrees>-1.75023282878100872039794921875</LongitudeDegrees>
            </Position>
            <AltitudeMeters>492.79998779296875</AltitudeMeters>
            <DistanceMeters>20896.17670663</DistanceMeters>
          </Trackpoint>
          <Trackpoint>
            <Time>2018-08-26T06:33:20.000Z</Time>
            <Position>
              <LatitudeDegrees>42.8754743747413158416748046875</LatitudeDegrees>
              <LongitudeDegrees>-1.75019913353025913238525390625</LongitudeDegrees>
            </Position>
            <AltitudeMeters>493</AltitudeMeters>
            <DistanceMeters>20899.93236628</DistanceMeters>
          </Trackpoint>
          <Trackpoint>
            <Time>2018-08-26T06:33:21.000Z</Time>
            <Position>
              <LatitudeDegrees>42.875496335327625274658203125</LatitudeDegrees>
              <LongitudeDegrees>-1.750164516270160675048828125</LongitudeDegrees>
            </Position>
            <AltitudeMeters>493.399993896484375</AltitudeMeters>
            <DistanceMeters>20903.66753269</DistanceMeters>
          </Trackpoint>
          <Trackpoint>
            <Time>2018-08-26T06:33:22.000Z</Time>
            <Position>
              <LatitudeDegrees>42.875518463551998138427734375</LatitudeDegrees>
              <LongitudeDegrees>-1.75013056956231594085693359375</LongitudeDegrees>
            </Position>
            <AltitudeMeters>493.600006103515625</AltitudeMeters>
            <DistanceMeters>20907.374792641</DistanceMeters>
          </Trackpoint>
          <Trackpoint>
            <Time>2018-08-26T06:33:23.000Z</Time>
            <Position>
              <LatitudeDegrees>42.87554117850959300994873046875</LatitudeDegrees>
              <LongitudeDegrees>-1.7500976286828517913818359375</LongitudeDegrees>
            </Position>
            <AltitudeMeters>493.79998779296875</AltitudeMeters>
            <DistanceMeters>20911.064962729</DistanceMeters>
          </Trackpoint>
          <Trackpoint>
            <Time>2018-08-26T06:33:24.000Z</Time>
            <Position>
              <LatitudeDegrees>42.87556364201009273529052734375</LatitudeDegrees>
              <LongitudeDegrees>-1.7500647716224193572998046875</LongitudeDegrees>
            </Position>
            <AltitudeMeters>494.20001220703125</AltitudeMeters>
            <DistanceMeters>20914.728116233</DistanceMeters>
          </Trackpoint>
          <Trackpoint>
            <Time>2018-08-26T06:33:25.000Z</Time>
            <Position>
              <LatitudeDegrees>42.875586189329624176025390625</LatitudeDegrees>
              <LongitudeDegrees>-1.75003183074295520782470703125</LongitudeDegrees>
            </Position>
            <AltitudeMeters>494.399993896484375</AltitudeMeters>
            <DistanceMeters>20918.406030658</DistanceMeters>
          </Trackpoint>
          <Trackpoint>
            <Time>2018-08-26T06:33:26.000Z</Time>
            <Position>
              <LatitudeDegrees>42.8756098262965679168701171875</LatitudeDegrees>
              <LongitudeDegrees>-1.74999997951090335845947265625</LongitudeDegrees>
            </Position>
            <AltitudeMeters>494.600006103515625</AltitudeMeters>
            <DistanceMeters>20922.103534645</DistanceMeters>
          </Trackpoint>
          <Trackpoint>
            <Time>2018-08-26T06:33:27.000Z</Time>
            <Position>
              <LatitudeDegrees>42.87563622929155826568603515625</LatitudeDegrees>
              <LongitudeDegrees>-1.749969385564327239990234375</LongitudeDegrees>
            </Position>
            <AltitudeMeters>494.79998779296875</AltitudeMeters>
            <DistanceMeters>20925.958856399</DistanceMeters>
          </Trackpoint>
          <Trackpoint>
            <Time>2018-08-26T06:33:28.000Z</Time>
            <Position>
              <LatitudeDegrees>42.8756638057529926300048828125</LatitudeDegrees>
              <LongitudeDegrees>-1.74993879161775112152099609375</LongitudeDegrees>
            </Position>
            <AltitudeMeters>495.20001220703125</AltitudeMeters>
            <DistanceMeters>20929.915894755</DistanceMeters>
          </Trackpoint>
          <Trackpoint>
            <Time>2018-08-26T06:33:29.000Z</Time>
            <Position>
              <LatitudeDegrees>42.87569104693830013275146484375</LatitudeDegrees>
              <LongitudeDegrees>-1.749910376965999603271484375</LongitudeDegrees>
            </Position>
            <AltitudeMeters>495.399993896484375</AltitudeMeters>
            <DistanceMeters>20933.733556786</DistanceMeters>
          </Trackpoint>
          <Trackpoint>
            <Time>2018-08-26T06:33:30.000Z</Time>
            <Position>
              <LatitudeDegrees>42.87571753375232219696044921875</LatitudeDegrees>
              <LongitudeDegrees>-1.7498852312564849853515625</LongitudeDegrees>
            </Position>
            <AltitudeMeters>495.79998779296875</AltitudeMeters>
            <DistanceMeters>20937.325767698</DistanceMeters>
          </Trackpoint>
          <Trackpoint>
            <Time>2018-08-26T06:33:31.000Z</Time>
            <Position>
              <LatitudeDegrees>42.87574318237602710723876953125</LatitudeDegrees>
              <LongitudeDegrees>-1.7498624324798583984375</LongitudeDegrees>
            </Position>
            <AltitudeMeters>496.20001220703125</AltitudeMeters>
            <DistanceMeters>20940.733505703</DistanceMeters>
          </Trackpoint>
          <Trackpoint>
            <Time>2018-08-26T06:33:32.000Z</Time>
            <Position>
              <LatitudeDegrees>42.8757700882852077484130859375</LatitudeDegrees>
              <LongitudeDegrees>-1.7498428188264369964599609375</LongitudeDegrees>
            </Position>
            <AltitudeMeters>496.399993896484375</AltitudeMeters>
            <DistanceMeters>20944.129298338</DistanceMeters>
          </Trackpoint>
          <Trackpoint>
            <Time>2018-08-26T06:33:33.000Z</Time>
            <Position>
              <LatitudeDegrees>42.875800095498561859130859375</LatitudeDegrees>
              <LongitudeDegrees>-1.7498263902962207794189453125</LongitudeDegrees>
            </Position>
            <AltitudeMeters>496.600006103515625</AltitudeMeters>
            <DistanceMeters>20947.727788246</DistanceMeters>
          </Trackpoint>
          <Trackpoint>
            <Time>2018-08-26T06:33:34.000Z</Time>
            <Position>
              <LatitudeDegrees>42.875832617282867431640625</LatitudeDegrees>
              <LongitudeDegrees>-1.749811805784702301025390625</LongitudeDegrees>
            </Position>
            <AltitudeMeters>497</AltitudeMeters>
            <DistanceMeters>20951.538347643</DistanceMeters>
          </Trackpoint>
          <Trackpoint>
            <Time>2018-08-26T06:33:35.000Z</Time>
            <Position>
              <LatitudeDegrees>42.87586740218102931976318359375</LatitudeDegrees>
              <LongitudeDegrees>-1.7498009093105792999267578125</LongitudeDegrees>
            </Position>
            <AltitudeMeters>497.20001220703125</AltitudeMeters>
            <DistanceMeters>20955.511328089</DistanceMeters>
          </Trackpoint>
          <Trackpoint>
            <Time>2018-08-26T06:33:36.000Z</Time>
            <Position>
              <LatitudeDegrees>42.87590042687952518463134765625</LatitudeDegrees>
              <LongitudeDegrees>-1.749795712530612945556640625</LongitudeDegrees>
            </Position>
            <AltitudeMeters>497.399993896484375</AltitudeMeters>
            <DistanceMeters>20959.211273479</DistanceMeters>
          </Trackpoint>
          <Trackpoint>
            <Time>2018-08-26T06:33:37.000Z</Time>
            <Position>
              <LatitudeDegrees>42.8759316913783550262451171875</LatitudeDegrees>
              <LongitudeDegrees>-1.7497942037880420684814453125</LongitudeDegrees>
            </Position>
            <AltitudeMeters>497.600006103515625</AltitudeMeters>
            <DistanceMeters>20962.692417341</DistanceMeters>
          </Trackpoint>
          <Trackpoint>
            <Time>2018-08-26T06:33:38.000Z</Time>
            <Position>
              <LatitudeDegrees>42.87596412934362888336181640625</LatitudeDegrees>
              <LongitudeDegrees>-1.749795377254486083984375</LongitudeDegrees>
            </Position>
            <AltitudeMeters>497.79998779296875</AltitudeMeters>
            <DistanceMeters>20966.304682623</DistanceMeters>
          </Trackpoint>
          <Trackpoint>
            <Time>2018-08-26T06:33:39.000Z</Time>
            <Position>
              <LatitudeDegrees>42.87599681876599788665771484375</LatitudeDegrees>
              <LongitudeDegrees>-1.7497995682060718536376953125</LongitudeDegrees>
            </Position>
            <AltitudeMeters>498.20001220703125</AltitudeMeters>
            <DistanceMeters>20969.960433317</DistanceMeters>
          </Trackpoint>
          <Trackpoint>
            <Time>2018-08-26T06:33:40.000Z</Time>
            <Position>
              <LatitudeDegrees>42.87603135220706462860107421875</LatitudeDegrees>
              <LongitudeDegrees>-1.7498079501092433929443359375</LongitudeDegrees>
            </Position>
            <AltitudeMeters>498.399993896484375</AltitudeMeters>
            <DistanceMeters>20973.864632215</DistanceMeters>
          </Trackpoint>
          <Trackpoint>
            <Time>2018-08-26T06:33:41.000Z</Time>
            <Position>
              <LatitudeDegrees>42.8760664723813533782958984375</LatitudeDegrees>
              <LongitudeDegrees>-1.749821193516254425048828125</LongitudeDegrees>
            </Position>
            <AltitudeMeters>498.399993896484375</AltitudeMeters>
            <DistanceMeters>20977.919723978</DistanceMeters>
          </Trackpoint>
          <Trackpoint>
            <Time>2018-08-26T06:33:42.000Z</Time>
            <Position>
              <LatitudeDegrees>42.87610125727951526641845703125</LatitudeDegrees>
              <LongitudeDegrees>-1.7498371191322803497314453125</LongitudeDegrees>
            </Position>
            <AltitudeMeters>498.600006103515625</AltitudeMeters>
            <DistanceMeters>20982.003662174</DistanceMeters>
          </Trackpoint>
          <Trackpoint>
            <Time>2018-08-26T06:33:43.000Z</Time>
            <Position>
              <LatitudeDegrees>42.87613570690155029296875</LatitudeDegrees>
              <LongitudeDegrees>-1.74985446967184543609619140625</LongitudeDegrees>
            </Position>
            <AltitudeMeters>498.79998779296875</AltitudeMeters>
            <DistanceMeters>20986.089810892</DistanceMeters>
          </Trackpoint>
          <Trackpoint>
            <Time>2018-08-26T06:33:44.000Z</Time>
            <Position>
              <LatitudeDegrees>42.87617099471390247344970703125</LatitudeDegrees>
              <LongitudeDegrees>-1.74987274222075939178466796875</LongitudeDegrees>
            </Position>
            <AltitudeMeters>499</AltitudeMeters>
            <DistanceMeters>20990.290378636</DistanceMeters>
          </Trackpoint>
          <Trackpoint>
            <Time>2018-08-26T06:33:45.000Z</Time>
            <Position>
              <LatitudeDegrees>42.87620720453560352325439453125</LatitudeDegrees>
              <LongitudeDegrees>-1.74988833256065845489501953125</LongitudeDegrees>
            </Position>
            <AltitudeMeters>499.20001220703125</AltitudeMeters>
            <DistanceMeters>20994.516664382</DistanceMeters>
          </Trackpoint>
          <Trackpoint>
            <Time>2018-08-26T06:33:46.000Z</Time>
            <Position>
              <LatitudeDegrees>42.8762421570718288421630859375</LatitudeDegrees>
              <LongitudeDegrees>-1.74990358762443065643310546875</LongitudeDegrees>
            </Position>
            <AltitudeMeters>499.399993896484375</AltitudeMeters>
            <DistanceMeters>20998.600602578</DistanceMeters>
          </Trackpoint>
          <Trackpoint>
            <Time>2018-08-26T06:33:47.000Z</Time>
            <Position>
              <LatitudeDegrees>42.8762760199606418609619140625</LatitudeDegrees>
              <LongitudeDegrees>-1.74992068670690059661865234375</LongitudeDegrees>
            </Position>
            <AltitudeMeters>499.600006103515625</AltitudeMeters>
            <DistanceMeters>21002.618783346</DistanceMeters>
          </Trackpoint>
          <Trackpoint>
            <Time>2018-08-26T06:33:48.000Z</Time>
            <Position>
              <LatitudeDegrees>42.87630929611623287200927734375</LatitudeDegrees>
              <LongitudeDegrees>-1.7499383725225925445556640625</LongitudeDegrees>
            </Position>
            <AltitudeMeters>500</AltitudeMeters>
            <DistanceMeters>21006.594036014</DistanceMeters>
          </Trackpoint>
          <Trackpoint>
            <Time>2018-08-26T06:33:49.000Z</Time>
            <Position>
              <LatitudeDegrees>42.87634299136698246002197265625</LatitudeDegrees>
              <LongitudeDegrees>-1.7499578185379505157470703125</LongitudeDegrees>
            </Position>
            <AltitudeMeters>500.20001220703125</AltitudeMeters>
            <DistanceMeters>21010.665794891</DistanceMeters>
          </Trackpoint>
          <Trackpoint>
            <Time>2018-08-26T06:33:50.000Z</Time>
            <Position>
              <LatitudeDegrees>42.87637702189385890960693359375</LatitudeDegrees>
              <LongitudeDegrees>-1.74997768364846706390380859375</LongitudeDegrees>
            </Position>
            <AltitudeMeters>500.399993896484375</AltitudeMeters>
            <DistanceMeters>21014.786055042</DistanceMeters>
          </Trackpoint>
          <Trackpoint>
            <Time>2018-08-26T06:33:51.000Z</Time>
            <Position>
              <LatitudeDegrees>42.8764106333255767822265625</LatitudeDegrees>
              <LongitudeDegrees>-1.74999813549220561981201171875</LongitudeDegrees>
            </Position>
            <AltitudeMeters>500.79998779296875</AltitudeMeters>
            <DistanceMeters>21018.882136344</DistanceMeters>
          </Trackpoint>
          <Trackpoint>
            <Time>2018-08-26T06:33:52.000Z</Time>
            <Position>
              <LatitudeDegrees>42.876444160938262939453125</LatitudeDegrees>
              <LongitudeDegrees>-1.7500195093452930450439453125</LongitudeDegrees>
            </Position>
            <AltitudeMeters>501</AltitudeMeters>
            <DistanceMeters>21023.000204285</DistanceMeters>
          </Trackpoint>
          <Trackpoint>
            <Time>2018-08-26T06:33:53.000Z</Time>
            <Position>
              <LatitudeDegrees>42.876476682722568511962890625</LatitudeDegrees>
              <LongitudeDegrees>-1.75004071556031703948974609375</LongitudeDegrees>
            </Position>
            <AltitudeMeters>501.20001220703125</AltitudeMeters>
            <DistanceMeters>21027.011637473</DistanceMeters>
          </Trackpoint>
          <Trackpoint>
            <Time>2018-08-26T06:33:54.000Z</Time>
            <Position>
              <LatitudeDegrees>42.87650912068784236907958984375</LatitudeDegrees>
              <LongitudeDegrees>-1.75006284378468990325927734375</LongitudeDegrees>
            </Position>
            <AltitudeMeters>501.399993896484375</AltitudeMeters>
            <DistanceMeters>21031.04887514</DistanceMeters>
          </Trackpoint>
          <Trackpoint>
            <Time>2018-08-26T06:33:55.000Z</Time>
            <Position>
              <LatitudeDegrees>42.87654013372957706451416015625</LatitudeDegrees>
              <LongitudeDegrees>-1.75008463673293590545654296875</LongitudeDegrees>
            </Position>
            <AltitudeMeters>501.600006103515625</AltitudeMeters>
            <DistanceMeters>21034.932202021</DistanceMeters>
          </Trackpoint>
          <Trackpoint>
            <Time>2018-08-26T06:33:56.000Z</Time>
            <Position>
              <LatitudeDegrees>42.876570224761962890625</LatitudeDegrees>
              <LongitudeDegrees>-1.75010777078568935394287109375</LongitudeDegrees>
            </Position>
            <AltitudeMeters>501.79998779296875</AltitudeMeters>
            <DistanceMeters>21038.775794749</DistanceMeters>
          </Trackpoint>
          <Trackpoint>
            <Time>2018-08-26T06:33:57.000Z</Time>
            <Position>
              <LatitudeDegrees>42.8766002319753170013427734375</LatitudeDegrees>
              <LongitudeDegrees>-1.750133335590362548828125</LongitudeDegrees>
            </Position>
            <AltitudeMeters>502</AltitudeMeters>
            <DistanceMeters>21042.713388082</DistanceMeters>
          </Trackpoint>
          <Trackpoint>
            <Time>2018-08-26T06:33:58.000Z</Time>
            <Position>
              <LatitudeDegrees>42.8766283951699733734130859375</LatitudeDegrees>
              <LongitudeDegrees>-1.75016175024211406707763671875</LongitudeDegrees>
            </Position>
            <AltitudeMeters>502</AltitudeMeters>
            <DistanceMeters>21046.610642061</DistanceMeters>
          </Trackpoint>
          <Trackpoint>
            <Time>2018-08-26T06:33:59.000Z</Time>
            <Position>
              <LatitudeDegrees>42.876655049622058868408203125</LatitudeDegrees>
              <LongitudeDegrees>-1.75019209273159503936767578125</LongitudeDegrees>
            </Position>
            <AltitudeMeters>502.20001220703125</AltitudeMeters>
            <DistanceMeters>21050.472984134</DistanceMeters>
          </Trackpoint>
          <Trackpoint>
            <Time>2018-08-26T06:34:00.000Z</Time>
            <Position>
              <LatitudeDegrees>42.87668145261704921722412109375</LatitudeDegrees>
              <LongitudeDegrees>-1.75022176466882228851318359375</LongitudeDegrees>
            </Position>
            <AltitudeMeters>502.20001220703125</AltitudeMeters>
            <DistanceMeters>21054.279987246</DistanceMeters>
          </Trackpoint>
          <Trackpoint>
            <Time>2018-08-26T06:34:01.000Z</Time>
            <Position>
              <LatitudeDegrees>42.876707352697849273681640625</LatitudeDegrees>
              <LongitudeDegrees>-1.75025093369185924530029296875</LongitudeDegrees>
            </Position>
            <AltitudeMeters>502.399993896484375</AltitudeMeters>
            <DistanceMeters>21058.017570456</DistanceMeters>
          </Trackpoint>
          <Trackpoint>
            <Time>2018-08-26T06:34:02.000Z</Time>
            <Position>
              <LatitudeDegrees>42.8767324984073638916015625</LatitudeDegrees>
              <LongitudeDegrees>-1.7502820305526256561279296875</LongitudeDegrees>
            </Position>
            <AltitudeMeters>502.600006103515625</AltitudeMeters>
            <DistanceMeters>21061.794807645</DistanceMeters>
          </Trackpoint>
          <Trackpoint>
            <Time>2018-08-26T06:34:03.000Z</Time>
            <Position>
              <LatitudeDegrees>42.87675772793591022491455078125</LatitudeDegrees>
              <LongitudeDegrees>-1.75031505525112152099609375</LongitudeDegrees>
            </Position>
            <AltitudeMeters>503</AltitudeMeters>
            <DistanceMeters>21065.685104308</DistanceMeters>
          </Trackpoint>
          <Trackpoint>
            <Time>2018-08-26T06:34:04.000Z</Time>
            <Position>
              <LatitudeDegrees>42.87678253836929798126220703125</LatitudeDegrees>
              <LongitudeDegrees>-1.7503474093973636627197265625</LongitudeDegrees>
            </Position>
            <AltitudeMeters>503.20001220703125</AltitudeMeters>
            <DistanceMeters>21069.505130948</DistanceMeters>
          </Trackpoint>
          <Trackpoint>
            <Time>2018-08-26T06:34:05.000Z</Time>
            <Position>
              <LatitudeDegrees>42.87680718116462230682373046875</LatitudeDegrees>
              <LongitudeDegrees>-1.7503799311816692352294921875</LongitudeDegrees>
            </Position>
            <AltitudeMeters>503.20001220703125</AltitudeMeters>
            <DistanceMeters>21073.320426903</DistanceMeters>
          </Trackpoint>
          <Trackpoint>
            <Time>2018-08-26T06:34:06.000Z</Time>
            <Position>
              <LatitudeDegrees>42.87683115340769290924072265625</LatitudeDegrees>
              <LongitudeDegrees>-1.75041387788951396942138671875</LongitudeDegrees>
            </Position>
            <AltitudeMeters>503.600006103515625</AltitudeMeters>
            <DistanceMeters>21077.166368299</DistanceMeters>
          </Trackpoint>
          <Trackpoint>
            <Time>2018-08-26T06:34:07.000Z</Time>
            <Position>
              <LatitudeDegrees>42.87685562856495380401611328125</LatitudeDegrees>
              <LongitudeDegrees>-1.750448830425739288330078125</LongitudeDegrees>
            </Position>
            <AltitudeMeters>504</AltitudeMeters>
            <DistanceMeters>21081.10969071</DistanceMeters>
          </Trackpoint>
          <Trackpoint>
            <Time>2018-08-26T06:34:08.000Z</Time>
            <Position>
              <LatitudeDegrees>42.876878343522548675537109375</LatitudeDegrees>
              <LongitudeDegrees>-1.75048395060002803802490234375</LongitudeDegrees>
            </Position>
            <AltitudeMeters>504.20001220703125</AltitudeMeters>
            <DistanceMeters>21084.930899106</DistanceMeters>
          </Trackpoint>
          <Trackpoint>
            <Time>2018-08-26T06:34:09.000Z</Time>
            <Position>
              <LatitudeDegrees>42.87689946591854095458984375</LatitudeDegrees>
              <LongitudeDegrees>-1.75051798112690448760986328125</LongitudeDegrees>
            </Position>
            <AltitudeMeters>504.600006103515625</AltitudeMeters>
            <DistanceMeters>21088.568076857</DistanceMeters>
          </Trackpoint>
          <Trackpoint>
            <Time>2018-08-26T06:34:10.000Z</Time>
            <Position>
              <LatitudeDegrees>42.876921258866786956787109375</LatitudeDegrees>
              <LongitudeDegrees>-1.75055100582540035247802734375</LongitudeDegrees>
            </Position>
            <AltitudeMeters>504.600006103515625</AltitudeMeters>
            <DistanceMeters>21092.191573945</DistanceMeters>
          </Trackpoint>
          <Trackpoint>
            <Time>2018-08-26T06:34:11.000Z</Time>
            <Position>
              <LatitudeDegrees>42.87694380618631839752197265625</LatitudeDegrees>
              <LongitudeDegrees>-1.75058185122907161712646484375</LongitudeDegrees>
            </Position>
            <AltitudeMeters>504.79998779296875</AltitudeMeters>
            <DistanceMeters>21095.744607419</DistanceMeters>
          </Trackpoint>
          <Trackpoint>
            <Time>2018-08-26T06:34:12.000Z</Time>
            <Position>
              <LatitudeDegrees>42.876966185867786407470703125</LatitudeDegrees>
              <LongitudeDegrees>-1.75060817040503025054931640625</LongitudeDegrees>
            </Position>
            <AltitudeMeters>505</AltitudeMeters>
            <DistanceMeters>21099.033685038</DistanceMeters>
          </Trackpoint>
          <Trackpoint>
            <Time>2018-08-26T06:34:13.000Z</Time>
            <Position>
              <LatitudeDegrees>42.87698923610150814056396484375</LatitudeDegrees>
              <LongitudeDegrees>-1.75062954425811767578125</LongitudeDegrees>
            </Position>
            <AltitudeMeters>505.20001220703125</AltitudeMeters>
            <DistanceMeters>21102.134818929</DistanceMeters>
          </Trackpoint>
          <Trackpoint>
            <Time>2018-08-26T06:34:14.000Z</Time>
            <Position>
              <LatitudeDegrees>42.87701077759265899658203125</LatitudeDegrees>
              <LongitudeDegrees>-1.75064639188349246978759765625</LongitudeDegrees>
            </Position>
            <AltitudeMeters>505.600006103515625</AltitudeMeters>
            <DistanceMeters>21104.897139438</DistanceMeters>
          </Trackpoint>
          <Trackpoint>
            <Time>2018-08-26T06:34:15.000Z</Time>
            <Position>
              <LatitudeDegrees>42.8770300559699535369873046875</LatitudeDegrees>
              <LongitudeDegrees>-1.750656031072139739990234375</LongitudeDegrees>
            </Position>
            <AltitudeMeters>505.79998779296875</AltitudeMeters>
            <DistanceMeters>21107.179759448</DistanceMeters>
          </Trackpoint>
          <Trackpoint>
            <Time>2018-08-26T06:34:16.000Z</Time>
            <Position>
              <LatitudeDegrees>42.87704832851886749267578125</LatitudeDegrees>
              <LongitudeDegrees>-1.750658042728900909423828125</LongitudeDegrees>
            </Position>
            <AltitudeMeters>506.399993896484375</AltitudeMeters>
            <DistanceMeters>21109.222281251</DistanceMeters>
          </Trackpoint>
          <Trackpoint>
            <Time>2018-08-26T06:34:17.000Z</Time>
            <Position>
              <LatitudeDegrees>42.8770652599632740020751953125</LatitudeDegrees>
              <LongitudeDegrees>-1.75065108574926853179931640625</LongitudeDegrees>
            </Position>
            <AltitudeMeters>506.600006103515625</AltitudeMeters>
            <DistanceMeters>21111.19050451</DistanceMeters>
          </Trackpoint>
          <Trackpoint>
            <Time>2018-08-26T06:34:18.000Z</Time>
            <Position>
              <LatitudeDegrees>42.87708411924540996551513671875</LatitudeDegrees>
              <LongitudeDegrees>-1.750642955303192138671875</LongitudeDegrees>
            </Position>
            <AltitudeMeters>506.79998779296875</AltitudeMeters>
            <DistanceMeters>21113.394632711</DistanceMeters>
          </Trackpoint>
          <Trackpoint>
            <Time>2018-08-26T06:34:19.000Z</Time>
            <Position>
              <LatitudeDegrees>42.87710725329816341400146484375</LatitudeDegrees>
              <LongitudeDegrees>-1.75063935108482837677001953125</LongitudeDegrees>
            </Position>
            <AltitudeMeters>507.20001220703125</AltitudeMeters>
            <DistanceMeters>21115.986615904</DistanceMeters>
          </Trackpoint>
          <Trackpoint>
            <Time>2018-08-26T06:34:20.000Z</Time>
            <Position>
              <LatitudeDegrees>42.87713441066443920135498046875</LatitudeDegrees>
              <LongitudeDegrees>-1.75065100193023681640625</LongitudeDegrees>
            </Position>
            <AltitudeMeters>507.600006103515625</AltitudeMeters>
            <DistanceMeters>21119.154014668</DistanceMeters>
          </Trackpoint>
          <Trackpoint>
            <Time>2018-08-26T06:34:21.000Z</Time>
            <Position>
              <LatitudeDegrees>42.87716508843004703521728515625</LatitudeDegrees>
              <LongitudeDegrees>-1.7506793327629566192626953125</LongitudeDegrees>
            </Position>
            <AltitudeMeters>508</AltitudeMeters>
            <DistanceMeters>21123.27756095</DistanceMeters>
          </Trackpoint>
          <Trackpoint>
            <Time>2018-08-26T06:34:22.000Z</Time>
            <Position>
              <LatitudeDegrees>42.8771992027759552001953125</LatitudeDegrees>
              <LongitudeDegrees>-1.750721745193004608154296875</LongitudeDegrees>
            </Position>
            <AltitudeMeters>508.399993896484375</AltitudeMeters>
            <DistanceMeters>21128.414280075</DistanceMeters>
          </Trackpoint>
          <Trackpoint>
            <Time>2018-08-26T06:34:23.000Z</Time>
            <Position>
              <LatitudeDegrees>42.87723499350249767303466796875</LatitudeDegrees>
              <LongitudeDegrees>-1.75077932886779308319091796875</LongitudeDegrees>
            </Position>
            <AltitudeMeters>508.600006103515625</AltitudeMeters>
            <DistanceMeters>21134.572715028</DistanceMeters>
          </Trackpoint>
          <Trackpoint>
            <Time>2018-08-26T06:34:24.000Z</Time>
            <Position>
              <LatitudeDegrees>42.87727120332419872283935546875</LatitudeDegrees>
              <LongitudeDegrees>-1.7508473061025142669677734375</LongitudeDegrees>
            </Position>
            <AltitudeMeters>508.600006103515625</AltitudeMeters>
            <DistanceMeters>21141.427823912</DistanceMeters>
          </Trackpoint>
          <Trackpoint>
            <Time>2018-08-26T06:34:25.000Z</Time>
            <Position>
              <LatitudeDegrees>42.87730422802269458770751953125</LatitudeDegrees>
              <LongitudeDegrees>-1.75092316232621669769287109375</LongitudeDegrees>
            </Position>
            <AltitudeMeters>508.600006103515625</AltitudeMeters>
            <DistanceMeters>21148.624803729</DistanceMeters>
          </Trackpoint>
          <Trackpoint>
            <Time>2018-08-26T06:34:26.000Z</Time>
            <Position>
              <LatitudeDegrees>42.877334989607334136962890625</LatitudeDegrees>
              <LongitudeDegrees>-1.75100161693990230560302734375</LongitudeDegrees>
            </Position>
            <AltitudeMeters>508.600006103515625</AltitudeMeters>
            <DistanceMeters>21155.881759414</DistanceMeters>
          </Trackpoint>
          <Trackpoint>
            <Time>2018-08-26T06:34:27.000Z</Time>
            <Position>
              <LatitudeDegrees>42.87736491300165653228759765625</LatitudeDegrees>
              <LongitudeDegrees>-1.75108074210584163665771484375</LongitudeDegrees>
            </Position>
            <AltitudeMeters>508.600006103515625</AltitudeMeters>
            <DistanceMeters>21163.14369073</DistanceMeters>
          </Trackpoint>
          <Trackpoint>
            <Time>2018-08-26T06:34:28.000Z</Time>
            <Position>
              <LatitudeDegrees>42.8773928247392177581787109375</LatitudeDegrees>
              <LongitudeDegrees>-1.75116020254790782928466796875</LongitudeDegrees>
            </Position>
            <AltitudeMeters>508.600006103515625</AltitudeMeters>
            <DistanceMeters>21170.331882256</DistanceMeters>
          </Trackpoint>
          <Trackpoint>
            <Time>2018-08-26T06:34:29.000Z</Time>
            <Position>
              <LatitudeDegrees>42.87741973064839839935302734375</LatitudeDegrees>
              <LongitudeDegrees>-1.75124016590416431427001953125</LongitudeDegrees>
            </Position>
            <AltitudeMeters>508.600006103515625</AltitudeMeters>
            <DistanceMeters>21177.508758738</DistanceMeters>
          </Trackpoint>
          <Trackpoint>
            <Time>2018-08-26T06:34:30.000Z</Time>
            <Position>
              <LatitudeDegrees>42.87744655273854732513427734375</LatitudeDegrees>
              <LongitudeDegrees>-1.7513197101652622222900390625</LongitudeDegrees>
            </Position>
            <AltitudeMeters>508.79998779296875</AltitudeMeters>
            <DistanceMeters>21184.650318214</DistanceMeters>
          </Trackpoint>
          <Trackpoint>
            <Time>2018-08-26T06:34:31.000Z</Time>
            <Position>
              <LatitudeDegrees>42.8774726204574108123779296875</LatitudeDegrees>
              <LongitudeDegrees>-1.75139791332185268402099609375</LongitudeDegrees>
            </Position>
            <AltitudeMeters>508.79998779296875</AltitudeMeters>
            <DistanceMeters>21191.657853851</DistanceMeters>
          </Trackpoint>
          <Trackpoint>
            <Time>2018-08-26T06:34:32.000Z</Time>
            <Position>
              <LatitudeDegrees>42.8774974308907985687255859375</LatitudeDegrees>
              <LongitudeDegrees>-1.751475445926189422607421875</LongitudeDegrees>
            </Position>
            <AltitudeMeters>508.79998779296875</AltitudeMeters>
            <DistanceMeters>21198.558259135</DistanceMeters>
          </Trackpoint>
          <Trackpoint>
            <Time>2018-08-26T06:34:33.000Z</Time>
            <Position>
              <LatitudeDegrees>42.877522744238376617431640625</LatitudeDegrees>
              <LongitudeDegrees>-1.75155063159763813018798828125</LongitudeDegrees>
            </Position>
            <AltitudeMeters>509</AltitudeMeters>
            <DistanceMeters>21205.307163164</DistanceMeters>
          </Trackpoint>
          <Trackpoint>
            <Time>2018-08-26T06:34:34.000Z</Time>
            <Position>
              <LatitudeDegrees>42.87754730321466922760009765625</LatitudeDegrees>
              <LongitudeDegrees>-1.75162355415523052215576171875</LongitudeDegrees>
            </Position>
            <AltitudeMeters>509</AltitudeMeters>
            <DistanceMeters>21211.852289797</DistanceMeters>
          </Trackpoint>
          <Trackpoint>
            <Time>2018-08-26T06:34:35.000Z</Time>
            <Position>
              <LatitudeDegrees>42.87757135927677154541015625</LatitudeDegrees>
              <LongitudeDegrees>-1.7516945488750934600830078125</LongitudeDegrees>
            </Position>
            <AltitudeMeters>509</AltitudeMeters>
            <DistanceMeters>21218.231123896</DistanceMeters>
          </Trackpoint>
          <Trackpoint>
            <Time>2018-08-26T06:34:36.000Z</Time>
            <Position>
              <LatitudeDegrees>42.8775956667959690093994140625</LatitudeDegrees>
              <LongitudeDegrees>-1.75176403485238552093505859375</LongitudeDegrees>
            </Position>
            <AltitudeMeters>509</AltitudeMeters>
            <DistanceMeters>21224.511519895</DistanceMeters>
          </Trackpoint>
          <Trackpoint>
            <Time>2018-08-26T06:34:37.000Z</Time>
            <Position>
              <LatitudeDegrees>42.8776201419532299041748046875</LatitudeDegrees>
              <LongitudeDegrees>-1.7518343590199947357177734375</LongitudeDegrees>
            </Position>
            <AltitudeMeters>509</AltitudeMeters>
            <DistanceMeters>21230.861978256</DistanceMeters>
          </Trackpoint>
          <Trackpoint>
            <Time>2018-08-26T06:34:38.000Z</Time>
            <Position>
              <LatitudeDegrees>42.87764537148177623748779296875</LatitudeDegrees>
              <LongitudeDegrees>-1.75190686248242855072021484375</LongitudeDegrees>
            </Position>
            <AltitudeMeters>509</AltitudeMeters>
            <DistanceMeters>21237.409174059</DistanceMeters>
          </Trackpoint>
          <Trackpoint>
            <Time>2018-08-26T06:34:39.000Z</Time>
            <Position>
              <LatitudeDegrees>42.8776712715625762939453125</LatitudeDegrees>
              <LongitudeDegrees>-1.75198137760162353515625</LongitudeDegrees>
            </Position>
            <AltitudeMeters>509</AltitudeMeters>
            <DistanceMeters>21244.135293519</DistanceMeters>
          </Trackpoint>
          <Trackpoint>
            <Time>2018-08-26T06:34:40.000Z</Time>
            <Position>
              <LatitudeDegrees>42.87769733928143978118896484375</LatitudeDegrees>
              <LongitudeDegrees>-1.7520578205585479736328125</LongitudeDegrees>
            </Position>
            <AltitudeMeters>509</AltitudeMeters>
            <DistanceMeters>21251.012759652</DistanceMeters>
          </Trackpoint>
          <Trackpoint>
            <Time>2018-08-26T06:34:41.000Z</Time>
            <Position>
              <LatitudeDegrees>42.87772516719996929168701171875</LatitudeDegrees>
              <LongitudeDegrees>-1.752133257687091827392578125</LongitudeDegrees>
            </Position>
            <AltitudeMeters>509</AltitudeMeters>
            <DistanceMeters>21257.900721733</DistanceMeters>
          </Trackpoint>
          <Trackpoint>
            <Time>2018-08-26T06:34:42.000Z</Time>
            <Position>
              <LatitudeDegrees>42.87775148637592792510986328125</LatitudeDegrees>
              <LongitudeDegrees>-1.75220735371112823486328125</LongitudeDegrees>
            </Position>
            <AltitudeMeters>509.20001220703125</AltitudeMeters>
            <DistanceMeters>21264.617436847</DistanceMeters>
          </Trackpoint>
          <Trackpoint>
            <Time>2018-08-26T06:34:43.000Z</Time>
            <Position>
              <LatitudeDegrees>42.8777767159044742584228515625</LatitudeDegrees>
              <LongitudeDegrees>-1.75228103064000606536865234375</LongitudeDegrees>
            </Position>
            <AltitudeMeters>509.20001220703125</AltitudeMeters>
            <DistanceMeters>21271.250274281</DistanceMeters>
          </Trackpoint>
          <Trackpoint>
            <Time>2018-08-26T06:34:44.000Z</Time>
            <Position>
              <LatitudeDegrees>42.87780244834721088409423828125</LatitudeDegrees>
              <LongitudeDegrees>-1.752354204654693603515625</LongitudeDegrees>
            </Position>
            <AltitudeMeters>509.399993896484375</AltitudeMeters>
            <DistanceMeters>21277.870165593</DistanceMeters>
          </Trackpoint>
          <Trackpoint>
            <Time>2018-08-26T06:34:45.000Z</Time>
            <Position>
              <LatitudeDegrees>42.8778290189802646636962890625</LatitudeDegrees>
              <LongitudeDegrees>-1.7524284683167934417724609375</LongitudeDegrees>
            </Position>
            <AltitudeMeters>509.600006103515625</AltitudeMeters>
            <DistanceMeters>21284.611036803</DistanceMeters>
          </Trackpoint>
          <Trackpoint>
            <Time>2018-08-26T06:34:46.000Z</Time>
            <Position>
              <LatitudeDegrees>42.87785592488944530487060546875</LatitudeDegrees>
              <LongitudeDegrees>-1.75250709056854248046875</LongitudeDegrees>
            </Position>
            <AltitudeMeters>509.79998779296875</AltitudeMeters>
            <DistanceMeters>21291.689091911</DistanceMeters>
          </Trackpoint>
          <Trackpoint>
            <Time>2018-08-26T06:34:47.000Z</Time>
            <Position>
              <LatitudeDegrees>42.877883501350879669189453125</LatitudeDegrees>
              <LongitudeDegrees>-1.7525875568389892578125</LongitudeDegrees>
            </Position>
            <AltitudeMeters>510</AltitudeMeters>
            <DistanceMeters>21298.934839936</DistanceMeters>
          </Trackpoint>
          <Trackpoint>
            <Time>2018-08-26T06:34:48.000Z</Time>
            <Position>
              <LatitudeDegrees>42.8779113292694091796875</LatitudeDegrees>
              <LongitudeDegrees>-1.7526681907474994659423828125</LongitudeDegrees>
            </Position>
            <AltitudeMeters>510</AltitudeMeters>
            <DistanceMeters>21306.204228312</DistanceMeters>
          </Trackpoint>
          <Trackpoint>
            <Time>2018-08-26T06:34:49.000Z</Time>
            <Position>
              <LatitudeDegrees>42.87793882191181182861328125</LatitudeDegrees>
              <LongitudeDegrees>-1.752751171588897705078125</LongitudeDegrees>
            </Position>
            <AltitudeMeters>510.20001220703125</AltitudeMeters>
            <DistanceMeters>21313.632132934</DistanceMeters>
          </Trackpoint>
          <Trackpoint>
            <Time>2018-08-26T06:34:50.000Z</Time>
            <Position>
              <LatitudeDegrees>42.8779668174684047698974609375</LatitudeDegrees>
              <LongitudeDegrees>-1.7528356611728668212890625</LongitudeDegrees>
            </Position>
            <AltitudeMeters>510.399993896484375</AltitudeMeters>
            <DistanceMeters>21321.19496998</DistanceMeters>
          </Trackpoint>
          <Trackpoint>
            <Time>2018-08-26T06:34:51.000Z</Time>
            <Position>
              <LatitudeDegrees>42.877995483577251434326171875</LatitudeDegrees>
              <LongitudeDegrees>-1.75292191095650196075439453125</LongitudeDegrees>
            </Position>
            <AltitudeMeters>510.399993896484375</AltitudeMeters>
            <DistanceMeters>21328.919654125</DistanceMeters>
          </Trackpoint>
          <Trackpoint>
            <Time>2018-08-26T06:34:52.000Z</Time>
            <Position>
              <LatitudeDegrees>42.87802624516189098358154296875</LatitudeDegrees>
              <LongitudeDegrees>-1.7530100047588348388671875</LongitudeDegrees>
            </Position>
            <AltitudeMeters>510.399993896484375</AltitudeMeters>
            <DistanceMeters>21336.878673302</DistanceMeters>
          </Trackpoint>
          <Trackpoint>
            <Time>2018-08-26T06:34:53.000Z</Time>
            <Position>
              <LatitudeDegrees>42.8780575096607208251953125</LatitudeDegrees>
              <LongitudeDegrees>-1.75309994257986545562744140625</LongitudeDegrees>
            </Position>
            <AltitudeMeters>510.399993896484375</AltitudeMeters>
            <DistanceMeters>21344.997203216</DistanceMeters>
          </Trackpoint>
          <Trackpoint>
            <Time>2018-08-26T06:34:54.000Z</Time>
            <Position>
              <LatitudeDegrees>42.87808810360729694366455078125</LatitudeDegrees>
              <LongitudeDegrees>-1.75319381989538669586181640625</LongitudeDegrees>
            </Position>
            <AltitudeMeters>510.600006103515625</AltitudeMeters>
            <DistanceMeters>21353.376813853</DistanceMeters>
          </Trackpoint>
          <Trackpoint>
            <Time>2018-08-26T06:34:55.000Z</Time>
            <Position>
              <LatitudeDegrees>42.87811945192515850067138671875</LatitudeDegrees>
              <LongitudeDegrees>-1.75328970886766910552978515625</LongitudeDegrees>
            </Position>
            <AltitudeMeters>510.79998779296875</AltitudeMeters>
            <DistanceMeters>21361.941351841</DistanceMeters>
          </Trackpoint>
          <Trackpoint>
            <Time>2018-08-26T06:34:56.000Z</Time>
            <Position>
              <LatitudeDegrees>42.87815230898559093475341796875</LatitudeDegrees>
              <LongitudeDegrees>-1.75338811241090297698974609375</LongitudeDegrees>
            </Position>
            <AltitudeMeters>510.79998779296875</AltitudeMeters>
            <DistanceMeters>21370.761448698</DistanceMeters>
          </Trackpoint>
          <Trackpoint>
            <Time>2018-08-26T06:34:57.000Z</Time>
            <Position>
              <LatitudeDegrees>42.87818558514118194580078125</LatitudeDegrees>
              <LongitudeDegrees>-1.75348869524896144866943359375</LongitudeDegrees>
            </Position>
            <AltitudeMeters>510.79998779296875</AltitudeMeters>
            <DistanceMeters>21379.76244008</DistanceMeters>
          </Trackpoint>
          <Trackpoint>
            <Time>2018-08-26T06:34:58.000Z</Time>
            <Position>
              <LatitudeDegrees>42.878219448029994964599609375</LatitudeDegrees>
              <LongitudeDegrees>-1.75359229557216167449951171875</LongitudeDegrees>
            </Position>
            <AltitudeMeters>510.79998779296875</AltitudeMeters>
            <DistanceMeters>21389.01474383</DistanceMeters>
          </Trackpoint>
          <Trackpoint>
            <Time>2018-08-26T06:34:59.000Z</Time>
            <Position>
              <LatitudeDegrees>42.878254987299442291259765625</LatitudeDegrees>
              <LongitudeDegrees>-1.7536981590092182159423828125</LongitudeDegrees>
            </Position>
            <AltitudeMeters>510.79998779296875</AltitudeMeters>
            <DistanceMeters>21398.511711953</DistanceMeters>
          </Trackpoint>
          <Trackpoint>
            <Time>2018-08-26T06:35:00.000Z</Time>
            <Position>
              <LatitudeDegrees>42.87829228676855564117431640625</LatitudeDegrees>
              <LongitudeDegrees>-1.75380620174109935760498046875</LongitudeDegrees>
            </Position>
            <AltitudeMeters>510.600006103515625</AltitudeMeters>
            <DistanceMeters>21408.252761346</DistanceMeters>
          </Trackpoint>
          <Trackpoint>
            <Time>2018-08-26T06:35:01.000Z</Time>
            <Position>
              <LatitudeDegrees>42.878330089151859283447265625</LatitudeDegrees>
              <LongitudeDegrees>-1.7539165914058685302734375</LongitudeDegrees>
            </Position>
            <AltitudeMeters>510.20001220703125</AltitudeMeters>
            <DistanceMeters>21418.190211521</DistanceMeters>
          </Trackpoint>
          <Trackpoint>
            <Time>2018-08-26T06:35:02.000Z</Time>
            <Position>
              <LatitudeDegrees>42.87836797535419464111328125</LatitudeDegrees>
              <LongitudeDegrees>-1.75402848981320858001708984375</LongitudeDegrees>
            </Position>
            <AltitudeMeters>509.79998779296875</AltitudeMeters>
            <DistanceMeters>21428.244199572</DistanceMeters>
          </Trackpoint>
          <Trackpoint>
            <Time>2018-08-26T06:35:03.000Z</Time>
            <Position>
              <LatitudeDegrees>42.87840686738491058349609375</LatitudeDegrees>
              <LongitudeDegrees>-1.75414256751537322998046875</LongitudeDegrees>
            </Position>
            <AltitudeMeters>509.20001220703125</AltitudeMeters>
            <DistanceMeters>21438.506204809</DistanceMeters>
          </Trackpoint>
          <Trackpoint>
            <Time>2018-08-26T06:35:04.000Z</Time>
            <Position>
              <LatitudeDegrees>42.8784472681581974029541015625</LatitudeDegrees>
              <LongitudeDegrees>-1.75425765104591846466064453125</LongitudeDegrees>
            </Position>
            <AltitudeMeters>508.600006103515625</AltitudeMeters>
            <DistanceMeters>21448.914124727</DistanceMeters>
          </Trackpoint>
          <Trackpoint>
            <Time>2018-08-26T06:35:05.000Z</Time>
            <Position>
              <LatitudeDegrees>42.87848926149308681488037109375</LatitudeDegrees>
              <LongitudeDegrees>-1.754376925528049468994140625</LongitudeDegrees>
            </Position>
            <AltitudeMeters>508</AltitudeMeters>
            <DistanceMeters>21459.707084753</DistanceMeters>
          </Trackpoint>
          <Trackpoint>
            <Time>2018-08-26T06:35:06.000Z</Time>
            <Position>
              <LatitudeDegrees>42.87853083573281764984130859375</LatitudeDegrees>
              <LongitudeDegrees>-1.7545011453330516815185546875</LongitudeDegrees>
            </Position>
            <AltitudeMeters>507.399993896484375</AltitudeMeters>
            <DistanceMeters>21470.845091316</DistanceMeters>
          </Trackpoint>
          <Trackpoint>
            <Time>2018-08-26T06:35:07.000Z</Time>
            <Position>
              <LatitudeDegrees>42.87857274524867534637451171875</LatitudeDegrees>
              <LongitudeDegrees>-1.75462729297578334808349609375</LongitudeDegrees>
            </Position>
            <AltitudeMeters>507.20001220703125</AltitudeMeters>
            <DistanceMeters>21482.141685506</DistanceMeters>
          </Trackpoint>
          <Trackpoint>
            <Time>2018-08-26T06:35:08.000Z</Time>
            <Position>
              <LatitudeDegrees>42.878616414964199066162109375</LatitudeDegrees>
              <LongitudeDegrees>-1.75475486554205417633056640625</LongitudeDegrees>
            </Position>
            <AltitudeMeters>507.20001220703125</AltitudeMeters>
            <DistanceMeters>21493.625773039</DistanceMeters>
          </Trackpoint>
          <Trackpoint>
            <Time>2018-08-26T06:35:09.000Z</Time>
            <Position>
              <LatitudeDegrees>42.87866477854549884796142578125</LatitudeDegrees>
              <LongitudeDegrees>-1.754874475300312042236328125</LongitudeDegrees>
            </Position>
            <AltitudeMeters>506.79998779296875</AltitudeMeters>
            <DistanceMeters>21504.767832586</DistanceMeters>
          </Trackpoint>
          <Trackpoint>
            <Time>2018-08-26T06:35:10.000Z</Time>
            <Position>
              <LatitudeDegrees>42.87871004082262516021728515625</LatitudeDegrees>
              <LongitudeDegrees>-1.75499710254371166229248046875</LongitudeDegrees>
            </Position>
            <AltitudeMeters>506.600006103515625</AltitudeMeters>
            <DistanceMeters>21515.9664799</DistanceMeters>
          </Trackpoint>
          <Trackpoint>
            <Time>2018-08-26T06:35:11.000Z</Time>
            <Position>
              <LatitudeDegrees>42.8787522017955780029296875</LatitudeDegrees>
              <LongitudeDegrees>-1.75512132234871387481689453125</LongitudeDegrees>
            </Position>
            <AltitudeMeters>505.79998779296875</AltitudeMeters>
            <DistanceMeters>21527.132017746</DistanceMeters>
          </Trackpoint>
          <Trackpoint>
            <Time>2018-08-26T06:35:12.000Z</Time>
            <Position>
              <LatitudeDegrees>42.878792770206928253173828125</LatitudeDegrees>
              <LongitudeDegrees>-1.75524629652500152587890625</LongitudeDegrees>
            </Position>
            <AltitudeMeters>504.600006103515625</AltitudeMeters>
            <DistanceMeters>21538.280559003</DistanceMeters>
          </Trackpoint>
          <Trackpoint>
            <Time>2018-08-26T06:35:13.000Z</Time>
            <Position>
              <LatitudeDegrees>42.878833673894405364990234375</LatitudeDegrees>
              <LongitudeDegrees>-1.75537294708192348480224609375</LongitudeDegrees>
            </Position>
            <AltitudeMeters>503.20001220703125</AltitudeMeters>
            <DistanceMeters>21549.569156736</DistanceMeters>
          </Trackpoint>
          <Trackpoint>
            <Time>2018-08-26T06:35:14.000Z</Time>
            <Position>
              <LatitudeDegrees>42.87887491285800933837890625</LatitudeDegrees>
              <LongitudeDegrees>-1.75549708306789398193359375</LongitudeDegrees>
            </Position>
            <AltitudeMeters>503</AltitudeMeters>
            <DistanceMeters>21560.68606396</DistanceMeters>
          </Trackpoint>
          <Trackpoint>
            <Time>2018-08-26T06:35:15.000Z</Time>
            <Position>
              <LatitudeDegrees>42.87891690619289875030517578125</LatitudeDegrees>
              <LongitudeDegrees>-1.75561937503516674041748046875</LongitudeDegrees>
            </Position>
            <AltitudeMeters>502.79998779296875</AltitudeMeters>
            <DistanceMeters>21571.701377717</DistanceMeters>
          </Trackpoint>
          <Trackpoint>
            <Time>2018-08-26T06:35:16.000Z</Time>
            <Position>
              <LatitudeDegrees>42.878958396613597869873046875</LatitudeDegrees>
              <LongitudeDegrees>-1.75573957152664661407470703125</LongitudeDegrees>
            </Position>
            <AltitudeMeters>501.600006103515625</AltitudeMeters>
            <DistanceMeters>21582.537756913</DistanceMeters>
          </Trackpoint>
          <Trackpoint>
            <Time>2018-08-26T06:35:17.000Z</Time>
            <Position>
              <LatitudeDegrees>42.8789987973868846893310546875</LatitudeDegrees>
              <LongitudeDegrees>-1.755857504904270172119140625</LongitudeDegrees>
            </Position>
            <AltitudeMeters>501</AltitudeMeters>
            <DistanceMeters>21593.155264828</DistanceMeters>
          </Trackpoint>
          <Trackpoint>
            <Time>2018-08-26T06:35:18.000Z</Time>
            <Position>
              <LatitudeDegrees>42.87903852760791778564453125</LatitudeDegrees>
              <LongitudeDegrees>-1.7559733428061008453369140625</LongitudeDegrees>
            </Position>
            <AltitudeMeters>500.79998779296875</AltitudeMeters>
            <DistanceMeters>21603.586584071</DistanceMeters>
          </Trackpoint>
          <Trackpoint>
            <Time>2018-08-26T06:35:19.000Z</Time>
            <Position>
              <LatitudeDegrees>42.87907700054347515106201171875</LatitudeDegrees>
              <LongitudeDegrees>-1.75608658231794834136962890625</LongitudeDegrees>
            </Position>
            <AltitudeMeters>500.399993896484375</AltitudeMeters>
            <DistanceMeters>21613.767311816</DistanceMeters>
          </Trackpoint>
          <Trackpoint>
            <Time>2018-08-26T06:35:20.000Z</Time>
            <Position>
              <LatitudeDegrees>42.87911404855549335479736328125</LatitudeDegrees>
              <LongitudeDegrees>-1.7561964690685272216796875</LongitudeDegrees>
            </Position>
            <AltitudeMeters>500.20001220703125</AltitudeMeters>
            <DistanceMeters>21623.633171839</DistanceMeters>
          </Trackpoint>
          <Trackpoint>
            <Time>2018-08-26T06:35:21.000Z</Time>
            <Position>
              <LatitudeDegrees>42.87914992310106754302978515625</LatitudeDegrees>
              <LongitudeDegrees>-1.756304763257503509521484375</LongitudeDegrees>
            </Position>
            <AltitudeMeters>499.79998779296875</AltitudeMeters>
            <DistanceMeters>21633.326828295</DistanceMeters>
          </Trackpoint>
          <Trackpoint>
            <Time>2018-08-26T06:35:22.000Z</Time>
            <Position>
              <LatitudeDegrees>42.87918479181826114654541015625</LatitudeDegrees>
              <LongitudeDegrees>-1.75640978850424289703369140625</LongitudeDegrees>
            </Position>
            <AltitudeMeters>499.600006103515625</AltitudeMeters>
            <DistanceMeters>21642.731112887</DistanceMeters>
          </Trackpoint>
          <Trackpoint>
            <Time>2018-08-26T06:35:23.000Z</Time>
            <Position>
              <LatitudeDegrees>42.879218570888042449951171875</LatitudeDegrees>
              <LongitudeDegrees>-1.7565134726464748382568359375</LongitudeDegrees>
            </Position>
            <AltitudeMeters>499.399993896484375</AltitudeMeters>
            <DistanceMeters>21651.985368394</DistanceMeters>
          </Trackpoint>
          <Trackpoint>
            <Time>2018-08-26T06:35:24.000Z</Time>
            <Position>
              <LatitudeDegrees>42.87925268523395061492919921875</LatitudeDegrees>
              <LongitudeDegrees>-1.75661749206483364105224609375</LongitudeDegrees>
            </Position>
            <AltitudeMeters>499</AltitudeMeters>
            <DistanceMeters>21661.280030375</DistanceMeters>
          </Trackpoint>
          <Trackpoint>
            <Time>2018-08-26T06:35:25.000Z</Time>
            <Position>
              <LatitudeDegrees>42.8792878054082393646240234375</LatitudeDegrees>
              <LongitudeDegrees>-1.75672209821641445159912109375</LongitudeDegrees>
            </Position>
            <AltitudeMeters>498.79998779296875</AltitudeMeters>
            <DistanceMeters>21670.664128919</DistanceMeters>
          </Trackpoint>
          <Trackpoint>
            <Time>2018-08-26T06:35:26.000Z</Time>
            <Position>
              <LatitudeDegrees>42.87932284176349639892578125</LatitudeDegrees>
              <LongitudeDegrees>-1.756828129291534423828125</LongitudeDegrees>
            </Position>
            <AltitudeMeters>498.600006103515625</AltitudeMeters>
            <DistanceMeters>21680.15063206</DistanceMeters>
          </Trackpoint>
          <Trackpoint>
            <Time>2018-08-26T06:35:27.000Z</Time>
            <Position>
              <LatitudeDegrees>42.87935829721391201019287109375</LatitudeDegrees>
              <LongitudeDegrees>-1.756934411823749542236328125</LongitudeDegrees>
            </Position>
            <AltitudeMeters>498.399993896484375</AltitudeMeters>
            <DistanceMeters>21689.675134564</DistanceMeters>
          </Trackpoint>
          <Trackpoint>
            <Time>2018-08-26T06:35:28.000Z</Time>
            <Position>
              <LatitudeDegrees>42.87939366884529590606689453125</LatitudeDegrees>
              <LongitudeDegrees>-1.75704144872725009918212890625</LongitudeDegrees>
            </Position>
            <AltitudeMeters>498.399993896484375</AltitudeMeters>
            <DistanceMeters>21699.25164</DistanceMeters>
          </Trackpoint>
          <Trackpoint>
            <Time>2018-08-26T06:35:29.000Z</Time>
            <Position>
              <LatitudeDegrees>42.87943121977150440216064453125</LatitudeDegrees>
              <LongitudeDegrees>-1.7571474798023700714111328125</LongitudeDegrees>
            </Position>
            <AltitudeMeters>498.399993896484375</AltitudeMeters>
            <DistanceMeters>21708.856391999</DistanceMeters>
          </Trackpoint>
          <Trackpoint>
            <Time>2018-08-26T06:35:30.000Z</Time>
            <Position>
              <LatitudeDegrees>42.87946893833577632904052734375</LatitudeDegrees>
              <LongitudeDegrees>-1.7572554387152194976806640625</LongitudeDegrees>
            </Position>
            <AltitudeMeters>498.399993896484375</AltitudeMeters>
            <DistanceMeters>21718.611336671</DistanceMeters>
          </Trackpoint>
          <Trackpoint>
            <Time>2018-08-26T06:35:31.000Z</Time>
            <Position>
              <LatitudeDegrees>42.8795060701668262481689453125</LatitudeDegrees>
              <LongitudeDegrees>-1.75736398436129093170166015625</LongitudeDegrees>
            </Position>
            <AltitudeMeters>498.20001220703125</AltitudeMeters>
            <DistanceMeters>21728.382005439</DistanceMeters>
          </Trackpoint>
          <Trackpoint>
            <Time>2018-08-26T06:35:32.000Z</Time>
            <Position>
              <LatitudeDegrees>42.8795426152646541595458984375</LatitudeDegrees>
              <LongitudeDegrees>-1.75747387111186981201171875</LongitudeDegrees>
            </Position>
            <AltitudeMeters>498.20001220703125</AltitudeMeters>
            <DistanceMeters>21738.224498014</DistanceMeters>
          </Trackpoint>
          <Trackpoint>
            <Time>2018-08-26T06:35:33.000Z</Time>
            <Position>
              <LatitudeDegrees>42.87957957945764064788818359375</LatitudeDegrees>
              <LongitudeDegrees>-1.7575860209763050079345703125</LongitudeDegrees>
            </Position>
            <AltitudeMeters>498.20001220703125</AltitudeMeters>
            <DistanceMeters>21748.254206464</DistanceMeters>
          </Trackpoint>
          <Trackpoint>
            <Time>2018-08-26T06:35:34.000Z</Time>
            <Position>
              <LatitudeDegrees>42.87961796857416629791259765625</LatitudeDegrees>
              <LongitudeDegrees>-1.7576980032026767730712890625</LongitudeDegrees>
            </Position>
            <AltitudeMeters>498.20001220703125</AltitudeMeters>
            <DistanceMeters>21758.337342418</DistanceMeters>
          </Trackpoint>
          <Trackpoint>
            <Time>2018-08-26T06:35:35.000Z</Time>
            <Position>
              <LatitudeDegrees>42.8796569444239139556884765625</LatitudeDegrees>
              <LongitudeDegrees>-1.7578123323619365692138671875</LongitudeDegrees>
            </Position>
            <AltitudeMeters>498</AltitudeMeters>
            <DistanceMeters>21768.621322937</DistanceMeters>
          </Trackpoint>
          <Trackpoint>
            <Time>2018-08-26T06:35:36.000Z</Time>
            <Position>
              <LatitudeDegrees>42.87969566881656646728515625</LatitudeDegrees>
              <LongitudeDegrees>-1.7579280026257038116455078125</LongitudeDegrees>
            </Position>
            <AltitudeMeters>498</AltitudeMeters>
            <DistanceMeters>21778.993609607</DistanceMeters>
          </Trackpoint>
          <Trackpoint>
            <Time>2018-08-26T06:35:37.000Z</Time>
            <Position>
              <LatitudeDegrees>42.8797340579330921173095703125</LatitudeDegrees>
              <LongitudeDegrees>-1.75804375670850276947021484375</LongitudeDegrees>
            </Position>
            <AltitudeMeters>497.79998779296875</AltitudeMeters>
            <DistanceMeters>21789.35631529</DistanceMeters>
          </Trackpoint>
          <Trackpoint>
            <Time>2018-08-26T06:35:38.000Z</Time>
            <Position>
              <LatitudeDegrees>42.879772447049617767333984375</LatitudeDegrees>
              <LongitudeDegrees>-1.75815917551517486572265625</LongitudeDegrees>
            </Position>
            <AltitudeMeters>497.600006103515625</AltitudeMeters>
            <DistanceMeters>21799.693719443</DistanceMeters>
          </Trackpoint>
          <Trackpoint>
            <Time>2018-08-26T06:35:39.000Z</Time>
            <Position>
              <LatitudeDegrees>42.87981125526130199432373046875</LatitudeDegrees>
              <LongitudeDegrees>-1.758274175226688385009765625</LongitudeDegrees>
            </Position>
            <AltitudeMeters>497.600006103515625</AltitudeMeters>
            <DistanceMeters>21810.019761408</DistanceMeters>
          </Trackpoint>
          <Trackpoint>
            <Time>2018-08-26T06:35:40.000Z</Time>
            <Position>
              <LatitudeDegrees>42.8798500634729862213134765625</LatitudeDegrees>
              <LongitudeDegrees>-1.75838716328144073486328125</LongitudeDegrees>
            </Position>
            <AltitudeMeters>497.399993896484375</AltitudeMeters>
            <DistanceMeters>21820.196940625</DistanceMeters>
          </Trackpoint>
          <Trackpoint>
            <Time>2018-08-26T06:35:41.000Z</Time>
            <Position>
              <LatitudeDegrees>42.879887111485004425048828125</LatitudeDegrees>
              <LongitudeDegrees>-1.75849889405071735382080078125</LongitudeDegrees>
            </Position>
            <AltitudeMeters>497.20001220703125</AltitudeMeters>
            <DistanceMeters>21830.199151226</DistanceMeters>
          </Trackpoint>
          <Trackpoint>
            <Time>2018-08-26T06:35:42.000Z</Time>
            <Position>
              <LatitudeDegrees>42.87992273457348346710205078125</LatitudeDegrees>
              <LongitudeDegrees>-1.75861003808677196502685546875</LongitudeDegrees>
            </Position>
            <AltitudeMeters>496.79998779296875</AltitudeMeters>
            <DistanceMeters>21840.09380073</DistanceMeters>
          </Trackpoint>
          <Trackpoint>
            <Time>2018-08-26T06:35:43.000Z</Time>
            <Position>
              <LatitudeDegrees>42.87995860911905765533447265625</LatitudeDegrees>
              <LongitudeDegrees>-1.75872235558927059173583984375</LongitudeDegrees>
            </Position>
            <AltitudeMeters>496.399993896484375</AltitudeMeters>
            <DistanceMeters>21850.086527351</DistanceMeters>
          </Trackpoint>
          <Trackpoint>
            <Time>2018-08-26T06:35:44.000Z</Time>
            <Position>
              <LatitudeDegrees>42.87999398075044155120849609375</LatitudeDegrees>
              <LongitudeDegrees>-1.75883584655821323394775390625</LongitudeDegrees>
            </Position>
            <AltitudeMeters>495.79998779296875</AltitudeMeters>
            <DistanceMeters>21860.145005192</DistanceMeters>
          </Trackpoint>
          <Trackpoint>
            <Time>2018-08-26T06:35:45.000Z</Time>
            <Position>
              <LatitudeDegrees>42.88002750836312770843505859375</LatitudeDegrees>
              <LongitudeDegrees>-1.75895084626972675323486328125</LongitudeDegrees>
            </Position>
            <AltitudeMeters>495.399993896484375</AltitudeMeters>
            <DistanceMeters>21870.239329468</DistanceMeters>
          </Trackpoint>
          <Trackpoint>
            <Time>2018-08-26T06:35:46.000Z</Time>
            <Position>
              <LatitudeDegrees>42.8800589405000209808349609375</LatitudeDegrees>
              <LongitudeDegrees>-1.759066097438335418701171875</LongitudeDegrees>
            </Position>
            <AltitudeMeters>495</AltitudeMeters>
            <DistanceMeters>21880.269488074</DistanceMeters>
          </Trackpoint>
          <Trackpoint>
            <Time>2018-08-26T06:35:47.000Z</Time>
            <Position>
              <LatitudeDegrees>42.88008970208466053009033203125</LatitudeDegrees>
              <LongitudeDegrees>-1.759181432425975799560546875</LongitudeDegrees>
            </Position>
            <AltitudeMeters>494.600006103515625</AltitudeMeters>
            <DistanceMeters>21890.279820651</DistanceMeters>
          </Trackpoint>
          <Trackpoint>
            <Time>2018-08-26T06:35:48.000Z</Time>
            <Position>
              <LatitudeDegrees>42.88011811673641204833984375</LatitudeDegrees>
              <LongitudeDegrees>-1.75929777324199676513671875</LongitudeDegrees>
            </Position>
            <AltitudeMeters>494</AltitudeMeters>
            <DistanceMeters>21900.282031253</DistanceMeters>
          </Trackpoint>
          <Trackpoint>
            <Time>2018-08-26T06:35:49.000Z</Time>
            <Position>
              <LatitudeDegrees>42.880143932998180389404296875</LatitudeDegrees>
              <LongitudeDegrees>-1.759414114058017730712890625</LongitudeDegrees>
            </Position>
            <AltitudeMeters>493.79998779296875</AltitudeMeters>
            <DistanceMeters>21910.196738115</DistanceMeters>
          </Trackpoint>
          <Trackpoint>
            <Time>2018-08-26T06:35:50.000Z</Time>
            <Position>
              <LatitudeDegrees>42.88016681559383869171142578125</LatitudeDegrees>
              <LongitudeDegrees>-1.75953187979757785797119140625</LongitudeDegrees>
            </Position>
            <AltitudeMeters>493.600006103515625</AltitudeMeters>
            <DistanceMeters>21920.133279558</DistanceMeters>
          </Trackpoint>
          <Trackpoint>
            <Time>2018-08-26T06:35:51.000Z</Time>
            <Position>
              <LatitudeDegrees>42.88018651306629180908203125</LatitudeDegrees>
              <LongitudeDegrees>-1.7596509866416454315185546875</LongitudeDegrees>
            </Position>
            <AltitudeMeters>493.600006103515625</AltitudeMeters>
            <DistanceMeters>21930.091607706</DistanceMeters>
          </Trackpoint>
          <Trackpoint>
            <Time>2018-08-26T06:35:52.000Z</Time>
            <Position>
              <LatitudeDegrees>42.8802034445106983184814453125</LatitudeDegrees>
              <LongitudeDegrees>-1.75977126695215702056884765625</LongitudeDegrees>
            </Position>
            <AltitudeMeters>493.600006103515625</AltitudeMeters>
            <DistanceMeters>21940.080719013</DistanceMeters>
          </Trackpoint>
          <Trackpoint>
            <Time>2018-08-26T06:35:53.000Z</Time>
            <Position>
              <LatitudeDegrees>42.88021811284124851226806640625</LatitudeDegrees>
              <LongitudeDegrees>-1.759891211986541748046875</LongitudeDegrees>
            </Position>
            <AltitudeMeters>493.399993896484375</AltitudeMeters>
            <DistanceMeters>21949.998613079</DistanceMeters>
          </Trackpoint>
          <Trackpoint>
            <Time>2018-08-26T06:35:54.000Z</Time>
            <Position>
              <LatitudeDegrees>42.88023085333406925201416015625</LatitudeDegrees>
              <LongitudeDegrees>-1.7600105702877044677734375</LongitudeDegrees>
            </Position>
            <AltitudeMeters>493.399993896484375</AltitudeMeters>
            <DistanceMeters>21959.836517293</DistanceMeters>
          </Trackpoint>
          <Trackpoint>
            <Time>2018-08-26T06:35:55.000Z</Time>
            <Position>
              <LatitudeDegrees>42.8802430070936679840087890625</LatitudeDegrees>
              <LongitudeDegrees>-1.76013059914112091064453125</LongitudeDegrees>
            </Position>
            <AltitudeMeters>493.20001220703125</AltitudeMeters>
            <DistanceMeters>21969.719295588</DistanceMeters>
          </Trackpoint>
          <Trackpoint>
            <Time>2018-08-26T06:35:56.000Z</Time>
            <Position>
              <LatitudeDegrees>42.88025298155844211578369140625</LatitudeDegrees>
              <LongitudeDegrees>-1.76025171764194965362548828125</LongitudeDegrees>
            </Position>
            <AltitudeMeters>493.20001220703125</AltitudeMeters>
            <DistanceMeters>21979.659925675</DistanceMeters>
          </Trackpoint>
          <Trackpoint>
            <Time>2018-08-26T06:35:57.000Z</Time>
            <Position>
              <LatitudeDegrees>42.8802597709000110626220703125</LatitudeDegrees>
              <LongitudeDegrees>-1.76037442870438098907470703125</LongitudeDegrees>
            </Position>
            <AltitudeMeters>493</AltitudeMeters>
            <DistanceMeters>21989.696834203</DistanceMeters>
          </Trackpoint>
          <Trackpoint>
            <Time>2018-08-26T06:35:58.000Z</Time>
            <Position>
              <LatitudeDegrees>42.880262620747089385986328125</LatitudeDegrees>
              <LongitudeDegrees>-1.76049806177616119384765625</LongitudeDegrees>
            </Position>
            <AltitudeMeters>493</AltitudeMeters>
            <DistanceMeters>21999.785342101</DistanceMeters>
          </Trackpoint>
          <Trackpoint>
            <Time>2018-08-26T06:35:59.000Z</Time>
            <Position>
              <LatitudeDegrees>42.88026169873774051666259765625</LatitudeDegrees>
              <LongitudeDegrees>-1.76062236540019512176513671875</LongitudeDegrees>
            </Position>
            <AltitudeMeters>493</AltitudeMeters>
            <DistanceMeters>22009.923850875</DistanceMeters>
          </Trackpoint>
          <Trackpoint>
            <Time>2018-08-26T06:36:00.000Z</Time>
            <Position>
              <LatitudeDegrees>42.88025868125259876251220703125</LatitudeDegrees>
              <LongitudeDegrees>-1.7607480101287364959716796875</LongitudeDegrees>
            </Position>
            <AltitudeMeters>493</AltitudeMeters>
            <DistanceMeters>22020.176172066</DistanceMeters>
          </Trackpoint>
          <Trackpoint>
            <Time>2018-08-26T06:36:01.000Z</Time>
            <Position>
              <LatitudeDegrees>42.88025381974875926971435546875</LatitudeDegrees>
              <LongitudeDegrees>-1.7608747445046901702880859375</LongitudeDegrees>
            </Position>
            <AltitudeMeters>492.79998779296875</AltitudeMeters>
            <DistanceMeters>22030.526234716</DistanceMeters>
          </Trackpoint>
          <Trackpoint>
            <Time>2018-08-26T06:36:02.000Z</Time>
            <Position>
              <LatitudeDegrees>42.88024828769266605377197265625</LatitudeDegrees>
              <LongitudeDegrees>-1.76100223325192928314208984375</LongitudeDegrees>
            </Position>
            <AltitudeMeters>492.600006103515625</AltitudeMeters>
            <DistanceMeters>22040.94196025</DistanceMeters>
          </Trackpoint>
          <Trackpoint>
            <Time>2018-08-26T06:36:03.000Z</Time>
            <Position>
              <LatitudeDegrees>42.8802423365414142608642578125</LatitudeDegrees>
              <LongitudeDegrees>-1.76113047637045383453369140625</LongitudeDegrees>
            </Position>
            <AltitudeMeters>492.600006103515625</AltitudeMeters>
            <DistanceMeters>22051.422075697</DistanceMeters>
          </Trackpoint>
          <Trackpoint>
            <Time>2018-08-26T06:36:04.000Z</Time>
            <Position>
              <LatitudeDegrees>42.880237139761447906494140625</LatitudeDegrees>
              <LongitudeDegrees>-1.7612583003938198089599609375</LongitudeDegrees>
            </Position>
            <AltitudeMeters>492.20001220703125</AltitudeMeters>
            <DistanceMeters>22061.863345395</DistanceMeters>
          </Trackpoint>
          <Trackpoint>
            <Time>2018-08-26T06:36:05.000Z</Time>
            <Position>
              <LatitudeDegrees>42.880231440067291259765625</LatitudeDegrees>
              <LongitudeDegrees>-1.7613852024078369140625</LongitudeDegrees>
            </Position>
            <AltitudeMeters>492</AltitudeMeters>
            <DistanceMeters>22072.233019946</DistanceMeters>
          </Trackpoint>
          <Trackpoint>
            <Time>2018-08-26T06:36:06.000Z</Time>
            <Position>
              <LatitudeDegrees>42.8802245669066905975341796875</LatitudeDegrees>
              <LongitudeDegrees>-1.76151084713637828826904296875</LongitudeDegrees>
            </Position>
            <AltitudeMeters>491.79998779296875</AltitudeMeters>
            <DistanceMeters>22082.509094777</DistanceMeters>
          </Trackpoint>
          <Trackpoint>
            <Time>2018-08-26T06:36:07.000Z</Time>
            <Position>
              <LatitudeDegrees>42.88021626882255077362060546875</LatitudeDegrees>
              <LongitudeDegrees>-1.7616368271410465240478515625</LongitudeDegrees>
            </Position>
            <AltitudeMeters>491.79998779296875</AltitudeMeters>
            <DistanceMeters>22092.825512807</DistanceMeters>
          </Trackpoint>
          <Trackpoint>
            <Time>2018-08-26T06:36:08.000Z</Time>
            <Position>
              <LatitudeDegrees>42.88020704872906208038330078125</LatitudeDegrees>
              <LongitudeDegrees>-1.76176297478377819061279296875</LongitudeDegrees>
            </Position>
            <AltitudeMeters>491.600006103515625</AltitudeMeters>
            <DistanceMeters>22103.165537232</DistanceMeters>
          </Trackpoint>
          <Trackpoint>
            <Time>2018-08-26T06:36:09.000Z</Time>
            <Position>
              <LatitudeDegrees>42.880198247730731964111328125</LatitudeDegrees>
              <LongitudeDegrees>-1.76189037971198558807373046875</LongitudeDegrees>
            </Position>
            <AltitudeMeters>491</AltitudeMeters>
            <DistanceMeters>22113.602914403</DistanceMeters>
          </Trackpoint>
          <Trackpoint>
            <Time>2018-08-26T06:36:10.000Z</Time>
            <Position>
              <LatitudeDegrees>42.88019011728465557098388671875</LatitudeDegrees>
              <LongitudeDegrees>-1.762019209563732147216796875</LongitudeDegrees>
            </Position>
            <AltitudeMeters>490.600006103515625</AltitudeMeters>
            <DistanceMeters>22124.149167366</DistanceMeters>
          </Trackpoint>
          <Trackpoint>
            <Time>2018-08-26T06:36:11.000Z</Time>
            <Position>
              <LatitudeDegrees>42.88018257357180118560791015625</LatitudeDegrees>
              <LongitudeDegrees>-1.7621497996151447296142578125</LongitudeDegrees>
            </Position>
            <AltitudeMeters>490.20001220703125</AltitudeMeters>
            <DistanceMeters>22134.833652679</DistanceMeters>
          </Trackpoint>
          <Trackpoint>
            <Time>2018-08-26T06:36:12.000Z</Time>
            <Position>
              <LatitudeDegrees>42.8801762871444225311279296875</LatitudeDegrees>
              <LongitudeDegrees>-1.7622822336852550506591796875</LongitudeDegrees>
            </Position>
            <AltitudeMeters>489</AltitudeMeters>
            <DistanceMeters>22145.657524989</DistanceMeters>
          </Trackpoint>
          <Trackpoint>
            <Time>2018-08-26T06:36:13.000Z</Time>
            <Position>
              <LatitudeDegrees>42.88016933016479015350341796875</LatitudeDegrees>
              <LongitudeDegrees>-1.76241718232631683349609375</LongitudeDegrees>
            </Position>
            <AltitudeMeters>488.20001220703125</AltitudeMeters>
            <DistanceMeters>22156.691268262</DistanceMeters>
          </Trackpoint>
          <Trackpoint>
            <Time>2018-08-26T06:36:14.000Z</Time>
            <Position>
              <LatitudeDegrees>42.88016371428966522216796875</LatitudeDegrees>
              <LongitudeDegrees>-1.76255397498607635498046875</LongitudeDegrees>
            </Position>
            <AltitudeMeters>487.79998779296875</AltitudeMeters>
            <DistanceMeters>22167.865698765</DistanceMeters>
          </Trackpoint>
          <Trackpoint>
            <Time>2018-08-26T06:36:15.000Z</Time>
            <Position>
              <LatitudeDegrees>42.880160026252269744873046875</LatitudeDegrees>
              <LongitudeDegrees>-1.762691438198089599609375</LongitudeDegrees>
            </Position>
            <AltitudeMeters>487.20001220703125</AltitudeMeters>
            <DistanceMeters>22179.084486823</DistanceMeters>
          </Trackpoint>
          <Trackpoint>
            <Time>2018-08-26T06:36:16.000Z</Time>
            <Position>
              <LatitudeDegrees>42.880160696804523468017578125</LatitudeDegrees>
              <LongitudeDegrees>-1.7628290690481662750244140625</LongitudeDegrees>
            </Position>
            <AltitudeMeters>487</AltitudeMeters>
            <DistanceMeters>22190.309712286</DistanceMeters>
          </Trackpoint>
          <Trackpoint>
            <Time>2018-08-26T06:36:17.000Z</Time>
            <Position>
              <LatitudeDegrees>42.88016564212739467620849609375</LatitudeDegrees>
              <LongitudeDegrees>-1.76296770572662353515625</LongitudeDegrees>
            </Position>
            <AltitudeMeters>486.600006103515625</AltitudeMeters>
            <DistanceMeters>22201.630261959</DistanceMeters>
          </Trackpoint>
          <Trackpoint>
            <Time>2018-08-26T06:36:18.000Z</Time>
            <Position>
              <LatitudeDegrees>42.88017486222088336944580078125</LatitudeDegrees>
              <LongitudeDegrees>-1.7631073482334613800048828125</LongitudeDegrees>
            </Position>
            <AltitudeMeters>486.600006103515625</AltitudeMeters>
            <DistanceMeters>22213.065494225</DistanceMeters>
          </Trackpoint>
          <Trackpoint>
            <Time>2018-08-26T06:36:19.000Z</Time>
            <Position>
              <LatitudeDegrees>42.88018894381821155548095703125</LatitudeDegrees>
              <LongitudeDegrees>-1.76324808038771152496337890625</LongitudeDegrees>
            </Position>
            <AltitudeMeters>486.399993896484375</AltitudeMeters>
            <DistanceMeters>22224.650182227</DistanceMeters>
          </Trackpoint>
          <Trackpoint>
            <Time>2018-08-26T06:36:20.000Z</Time>
            <Position>
              <LatitudeDegrees>42.88020662963390350341796875</LatitudeDegrees>
              <LongitudeDegrees>-1.76339124329388141632080078125</LongitudeDegrees>
            </Position>
            <AltitudeMeters>486.399993896484375</AltitudeMeters>
            <DistanceMeters>22236.491593757</DistanceMeters>
          </Trackpoint>
          <Trackpoint>
            <Time>2018-08-26T06:36:21.000Z</Time>
            <Position>
              <LatitudeDegrees>42.8802275843918323516845703125</LatitudeDegrees>
              <LongitudeDegrees>-1.763535998761653900146484375</LongitudeDegrees>
            </Position>
            <AltitudeMeters>486</AltitudeMeters>
            <DistanceMeters>22248.525893322</DistanceMeters>
          </Trackpoint>
          <Trackpoint>
            <Time>2018-08-26T06:36:22.000Z</Time>
            <Position>
              <LatitudeDegrees>42.8802547417581081390380859375</LatitudeDegrees>
              <LongitudeDegrees>-1.7636806704103946685791015625</LongitudeDegrees>
            </Position>
            <AltitudeMeters>485.79998779296875</AltitudeMeters>
            <DistanceMeters>22260.706005222</DistanceMeters>
          </Trackpoint>
          <Trackpoint>
            <Time>2018-08-26T06:36:23.000Z</Time>
            <Position>
              <LatitudeDegrees>42.88028785027563571929931640625</LatitudeDegrees>
              <LongitudeDegrees>-1.7638238333165645599365234375</LongitudeDegrees>
            </Position>
            <AltitudeMeters>485.600006103515625</AltitudeMeters>
            <DistanceMeters>22272.950078446</DistanceMeters>
          </Trackpoint>
          <Trackpoint>
            <Time>2018-08-26T06:36:24.000Z</Time>
            <Position>
              <LatitudeDegrees>42.880326323211193084716796875</LatitudeDegrees>
              <LongitudeDegrees>-1.76396506838500499725341796875</LongitudeDegrees>
            </Position>
            <AltitudeMeters>485.399993896484375</AltitudeMeters>
            <DistanceMeters>22285.239424585</DistanceMeters>
          </Trackpoint>
          <Trackpoint>
            <Time>2018-08-26T06:36:25.000Z</Time>
            <Position>
              <LatitudeDegrees>42.88036881946027278900146484375</LatitudeDegrees>
              <LongitudeDegrees>-1.76410429179668426513671875</LongitudeDegrees>
            </Position>
            <AltitudeMeters>485.20001220703125</AltitudeMeters>
            <DistanceMeters>22297.540154681</DistanceMeters>
          </Trackpoint>
          <Trackpoint>
            <Time>2018-08-26T06:36:26.000Z</Time>
            <Position>
              <LatitudeDegrees>42.88041609339416027069091796875</LatitudeDegrees>
              <LongitudeDegrees>-1.76423974335193634033203125</LongitudeDegrees>
            </Position>
            <AltitudeMeters>484.600006103515625</AltitudeMeters>
            <DistanceMeters>22309.776112651</DistanceMeters>
          </Trackpoint>
          <Trackpoint>
            <Time>2018-08-26T06:36:27.000Z</Time>
            <Position>
              <LatitudeDegrees>42.8804688155651092529296875</LatitudeDegrees>
              <LongitudeDegrees>-1.7643718421459197998046875</LongitudeDegrees>
            </Position>
            <AltitudeMeters>484.20001220703125</AltitudeMeters>
            <DistanceMeters>22322.043763364</DistanceMeters>
          </Trackpoint>
          <Trackpoint>
            <Time>2018-08-26T06:36:28.000Z</Time>
            <Position>
              <LatitudeDegrees>42.88052581250667572021484375</LatitudeDegrees>
              <LongitudeDegrees>-1.76449882797896862030029296875</LongitudeDegrees>
            </Position>
            <AltitudeMeters>484</AltitudeMeters>
            <DistanceMeters>22334.189352225</DistanceMeters>
          </Trackpoint>
          <Trackpoint>
            <Time>2018-08-26T06:36:29.000Z</Time>
            <Position>
              <LatitudeDegrees>42.8805853240191936492919921875</LatitudeDegrees>
              <LongitudeDegrees>-1.7646207846701145172119140625</LongitudeDegrees>
            </Position>
            <AltitudeMeters>483.79998779296875</AltitudeMeters>
            <DistanceMeters>22346.139315777</DistanceMeters>
          </Trackpoint>
          <Trackpoint>
            <Time>2018-08-26T06:36:30.000Z</Time>
            <Position>
              <LatitudeDegrees>42.88064785301685333251953125</LatitudeDegrees>
              <LongitudeDegrees>-1.7647374607622623443603515625</LongitudeDegrees>
            </Position>
            <AltitudeMeters>483.399993896484375</AltitudeMeters>
            <DistanceMeters>22357.928757521</DistanceMeters>
          </Trackpoint>
          <Trackpoint>
            <Time>2018-08-26T06:36:31.000Z</Time>
            <Position>
              <LatitudeDegrees>42.88071348331868648529052734375</LatitudeDegrees>
              <LongitudeDegrees>-1.76484818570315837860107421875</LongitudeDegrees>
            </Position>
            <AltitudeMeters>483.20001220703125</AltitudeMeters>
            <DistanceMeters>22369.544194325</DistanceMeters>
          </Trackpoint>
          <Trackpoint>
            <Time>2018-08-26T06:36:32.000Z</Time>
            <Position>
              <LatitudeDegrees>42.88078187964856624603271484375</LatitudeDegrees>
              <LongitudeDegrees>-1.76495279185473918914794921875</LongitudeDegrees>
            </Position>
            <AltitudeMeters>482.79998779296875</AltitudeMeters>
            <DistanceMeters>22380.978636892</DistanceMeters>
          </Trackpoint>
          <Trackpoint>
            <Time>2018-08-26T06:36:33.000Z</Time>
            <Position>
              <LatitudeDegrees>42.88085195235908031463623046875</LatitudeDegrees>
              <LongitudeDegrees>-1.76505102775990962982177734375</LongitudeDegrees>
            </Position>
            <AltitudeMeters>482.399993896484375</AltitudeMeters>
            <DistanceMeters>22392.160337945</DistanceMeters>
          </Trackpoint>
          <Trackpoint>
            <Time>2018-08-26T06:36:34.000Z</Time>
            <Position>
              <LatitudeDegrees>42.880923114717006683349609375</LatitudeDegrees>
              <LongitudeDegrees>-1.76514171995222568511962890625</LongitudeDegrees>
            </Position>
            <AltitudeMeters>482.20001220703125</AltitudeMeters>
            <DistanceMeters>22402.99755042</DistanceMeters>
          </Trackpoint>
          <Trackpoint>
            <Time>2018-08-26T06:36:35.000Z</Time>
            <Position>
              <LatitudeDegrees>42.88099427707493305206298828125</LatitudeDegrees>
              <LongitudeDegrees>-1.765226460993289947509765625</LongitudeDegrees>
            </Position>
            <AltitudeMeters>482</AltitudeMeters>
            <DistanceMeters>22413.509498168</DistanceMeters>
          </Trackpoint>
          <Trackpoint>
            <Time>2018-08-26T06:36:36.000Z</Time>
            <Position>
              <LatitudeDegrees>42.88106602616608142852783203125</LatitudeDegrees>
              <LongitudeDegrees>-1.765303909778594970703125</LongitudeDegrees>
            </Position>
            <AltitudeMeters>481.79998779296875</AltitudeMeters>
            <DistanceMeters>22423.691999714</DistanceMeters>
          </Trackpoint>
          <Trackpoint>
            <Time>2018-08-26T06:36:37.000Z</Time>
            <Position>
              <LatitudeDegrees>42.88113894872367382049560546875</LatitudeDegrees>
              <LongitudeDegrees>-1.76537456922233104705810546875</LongitudeDegrees>
            </Position>
            <AltitudeMeters>481.600006103515625</AltitudeMeters>
            <DistanceMeters>22433.646246487</DistanceMeters>
          </Trackpoint>
          <Trackpoint>
            <Time>2018-08-26T06:36:38.000Z</Time>
            <Position>
              <LatitudeDegrees>42.88121187128126621246337890625</LatitudeDegrees>
              <LongitudeDegrees>-1.76543994806706905364990234375</LongitudeDegrees>
            </Position>
            <AltitudeMeters>481.399993896484375</AltitudeMeters>
            <DistanceMeters>22443.357586167</DistanceMeters>
          </Trackpoint>
          <Trackpoint>
            <Time>2018-08-26T06:36:39.000Z</Time>
            <Position>
              <LatitudeDegrees>42.8812842071056365966796875</LatitudeDegrees>
              <LongitudeDegrees>-1.7655005492269992828369140625</LongitudeDegrees>
            </Position>
            <AltitudeMeters>481.399993896484375</AltitudeMeters>
            <DistanceMeters>22452.804981341</DistanceMeters>
          </Trackpoint>
          <Trackpoint>
            <Time>2018-08-26T06:36:40.000Z</Time>
            <Position>
              <LatitudeDegrees>42.88135419599711894989013671875</LatitudeDegrees>
              <LongitudeDegrees>-1.7655558697879314422607421875</LongitudeDegrees>
            </Position>
            <AltitudeMeters>481.399993896484375</AltitudeMeters>
            <DistanceMeters>22461.806975898</DistanceMeters>
          </Trackpoint>
          <Trackpoint>
            <Time>2018-08-26T06:36:41.000Z</Time>
            <Position>
              <LatitudeDegrees>42.8814231790602207183837890625</LatitudeDegrees>
              <LongitudeDegrees>-1.7656056582927703857421875</LongitudeDegrees>
            </Position>
            <AltitudeMeters>481.399993896484375</AltitudeMeters>
            <DistanceMeters>22470.492438385</DistanceMeters>
          </Trackpoint>
          <Trackpoint>
            <Time>2018-08-26T06:36:42.000Z</Time>
            <Position>
              <LatitudeDegrees>42.881489060819149017333984375</LatitudeDegrees>
              <LongitudeDegrees>-1.7656485736370086669921875</LongitudeDegrees>
            </Position>
            <AltitudeMeters>481.399993896484375</AltitudeMeters>
            <DistanceMeters>22478.618194901</DistanceMeters>
          </Trackpoint>
          <Trackpoint>
            <Time>2018-08-26T06:36:43.000Z</Time>
            <Position>
              <LatitudeDegrees>42.88155469112098217010498046875</LatitudeDegrees>
              <LongitudeDegrees>-1.76568654365837574005126953125</LongitudeDegrees>
            </Position>
            <AltitudeMeters>481.399993896484375</AltitudeMeters>
            <DistanceMeters>22486.552783294</DistanceMeters>
          </Trackpoint>
          <Trackpoint>
            <Time>2018-08-26T06:36:44.000Z</Time>
            <Position>
              <LatitudeDegrees>42.88161822594702243804931640625</LatitudeDegrees>
              <LongitudeDegrees>-1.7657218314707279205322265625</LongitudeDegrees>
            </Position>
            <AltitudeMeters>481.399993896484375</AltitudeMeters>
            <DistanceMeters>22494.187515997</DistanceMeters>
          </Trackpoint>
          <Trackpoint>
            <Time>2018-08-26T06:36:45.000Z</Time>
            <Position>
              <LatitudeDegrees>42.8816800005733966827392578125</LatitudeDegrees>
              <LongitudeDegrees>-1.76575653254985809326171875</LongitudeDegrees>
            </Position>
            <AltitudeMeters>481.600006103515625</AltitudeMeters>
            <DistanceMeters>22501.622711219</DistanceMeters>
          </Trackpoint>
          <Trackpoint>
            <Time>2018-08-26T06:36:46.000Z</Time>
            <Position>
              <LatitudeDegrees>42.88173976354300975799560546875</LatitudeDegrees>
              <LongitudeDegrees>-1.7657885514199733734130859375</LongitudeDegrees>
            </Position>
            <AltitudeMeters>481.600006103515625</AltitudeMeters>
            <DistanceMeters>22508.76806301</DistanceMeters>
          </Trackpoint>
          <Trackpoint>
            <Time>2018-08-26T06:36:47.000Z</Time>
            <Position>
              <LatitudeDegrees>42.88179810158908367156982421875</LatitudeDegrees>
              <LongitudeDegrees>-1.76581780426204204559326171875</LongitudeDegrees>
            </Position>
            <AltitudeMeters>481.79998779296875</AltitudeMeters>
            <DistanceMeters>22515.685459563</DistanceMeters>
          </Trackpoint>
          <Trackpoint>
            <Time>2018-08-26T06:36:48.000Z</Time>
            <Position>
              <LatitudeDegrees>42.88185493089258670806884765625</LatitudeDegrees>
              <LongitudeDegrees>-1.76584613509476184844970703125</LongitudeDegrees>
            </Position>
            <AltitudeMeters>481.79998779296875</AltitudeMeters>
            <DistanceMeters>22522.419629438</DistanceMeters>
          </Trackpoint>
          <Trackpoint>
            <Time>2018-08-26T06:36:49.000Z</Time>
            <Position>
              <LatitudeDegrees>42.8819118440151214599609375</LatitudeDegrees>
              <LongitudeDegrees>-1.765872202813625335693359375</LongitudeDegrees>
            </Position>
            <AltitudeMeters>482</AltitudeMeters>
            <DistanceMeters>22529.101298237</DistanceMeters>
          </Trackpoint>
          <Trackpoint>
            <Time>2018-08-26T06:36:50.000Z</Time>
            <Position>
              <LatitudeDegrees>42.88197286427021026611328125</LatitudeDegrees>
              <LongitudeDegrees>-1.76589894108474254608154296875</LongitudeDegrees>
            </Position>
            <AltitudeMeters>482.20001220703125</AltitudeMeters>
            <DistanceMeters>22536.235267037</DistanceMeters>
          </Trackpoint>
          <Trackpoint>
            <Time>2018-08-26T06:36:51.000Z</Time>
            <Position>
              <LatitudeDegrees>42.8820337168872356414794921875</LatitudeDegrees>
              <LongitudeDegrees>-1.76592391915619373321533203125</LongitudeDegrees>
            </Position>
            <AltitudeMeters>482.399993896484375</AltitudeMeters>
            <DistanceMeters>22543.308217164</DistanceMeters>
          </Trackpoint>
          <Trackpoint>
            <Time>2018-08-26T06:36:52.000Z</Time>
            <Position>
              <LatitudeDegrees>42.8820940665900707244873046875</LatitudeDegrees>
              <LongitudeDegrees>-1.76594655029475688934326171875</LongitudeDegrees>
            </Position>
            <AltitudeMeters>482.79998779296875</AltitudeMeters>
            <DistanceMeters>22550.274394796</DistanceMeters>
          </Trackpoint>
          <Trackpoint>
            <Time>2018-08-26T06:36:53.000Z</Time>
            <Position>
              <LatitudeDegrees>42.88215584121644496917724609375</LatitudeDegrees>
              <LongitudeDegrees>-1.76597370766103267669677734375</LongitudeDegrees>
            </Position>
            <AltitudeMeters>483.399993896484375</AltitudeMeters>
            <DistanceMeters>22557.497675332</DistanceMeters>
          </Trackpoint>
          <Trackpoint>
            <Time>2018-08-26T06:36:54.000Z</Time>
            <Position>
              <LatitudeDegrees>42.8822184540331363677978515625</LatitudeDegrees>
              <LongitudeDegrees>-1.76600170321762561798095703125</LongitudeDegrees>
            </Position>
            <AltitudeMeters>483.79998779296875</AltitudeMeters>
            <DistanceMeters>22564.830758259</DistanceMeters>
          </Trackpoint>
          <Trackpoint>
            <Time>2018-08-26T06:36:55.000Z</Time>
            <Position>
              <LatitudeDegrees>42.882280312478542327880859375</LatitudeDegrees>
              <LongitudeDegrees>-1.7660276032984256744384765625</LongitudeDegrees>
            </Position>
            <AltitudeMeters>484.20001220703125</AltitudeMeters>
            <DistanceMeters>22572.032755142</DistanceMeters>
          </Trackpoint>
          <Trackpoint>
            <Time>2018-08-26T06:36:56.000Z</Time>
            <Position>
              <LatitudeDegrees>42.88234259001910686492919921875</LatitudeDegrees>
              <LongitudeDegrees>-1.76605450920760631561279296875</LongitudeDegrees>
            </Position>
            <AltitudeMeters>484.399993896484375</AltitudeMeters>
            <DistanceMeters>22579.303385617</DistanceMeters>
          </Trackpoint>
          <Trackpoint>
            <Time>2018-08-26T06:36:57.000Z</Time>
            <Position>
              <LatitudeDegrees>42.8824062086641788482666015625</LatitudeDegrees>
              <LongitudeDegrees>-1.76608049310743808746337890625</LongitudeDegrees>
            </Position>
            <AltitudeMeters>484.600006103515625</AltitudeMeters>
            <DistanceMeters>22586.694729371</DistanceMeters>
          </Trackpoint>
          <Trackpoint>
            <Time>2018-08-26T06:36:58.000Z</Time>
            <Position>
              <LatitudeDegrees>42.8824678994715213775634765625</LatitudeDegrees>
              <LongitudeDegrees>-1.76610521972179412841796875</LongitudeDegrees>
            </Position>
            <AltitudeMeters>484.79998779296875</AltitudeMeters>
            <DistanceMeters>22593.851446047</DistanceMeters>
          </Trackpoint>
          <Trackpoint>
            <Time>2018-08-26T06:36:59.000Z</Time>
            <Position>
              <LatitudeDegrees>42.882527075707912445068359375</LatitudeDegrees>
              <LongitudeDegrees>-1.76612935960292816162109375</LongitudeDegrees>
            </Position>
            <AltitudeMeters>484.79998779296875</AltitudeMeters>
            <DistanceMeters>22600.72562891</DistanceMeters>
          </Trackpoint>
          <Trackpoint>
            <Time>2018-08-26T06:37:00.000Z</Time>
            <Position>
              <LatitudeDegrees>42.88258499465882778167724609375</LatitudeDegrees>
              <LongitudeDegrees>-1.76615492440760135650634765625</LongitudeDegrees>
            </Position>
            <AltitudeMeters>485</AltitudeMeters>
            <DistanceMeters>22607.501240221</DistanceMeters>
          </Trackpoint>
          <Trackpoint>
            <Time>2018-08-26T06:37:01.000Z</Time>
            <Position>
              <LatitudeDegrees>42.88264299742877483367919921875</LatitudeDegrees>
              <LongitudeDegrees>-1.76618208177387714385986328125</LongitudeDegrees>
            </Position>
            <AltitudeMeters>485</AltitudeMeters>
            <DistanceMeters>22614.326646024</DistanceMeters>
          </Trackpoint>
          <Trackpoint>
            <Time>2018-08-26T06:37:02.000Z</Time>
            <Position>
              <LatitudeDegrees>42.8827019222080707550048828125</LatitudeDegrees>
              <LongitudeDegrees>-1.76620974205434322357177734375</LongitudeDegrees>
            </Position>
            <AltitudeMeters>485</AltitudeMeters>
            <DistanceMeters>22621.262945275</DistanceMeters>
          </Trackpoint>
          <Trackpoint>
            <Time>2018-08-26T06:37:03.000Z</Time>
            <Position>
              <LatitudeDegrees>42.88276034407317638397216796875</LatitudeDegrees>
              <LongitudeDegrees>-1.7662371508777141571044921875</LongitudeDegrees>
            </Position>
            <AltitudeMeters>485</AltitudeMeters>
            <DistanceMeters>22628.139098288</DistanceMeters>
          </Trackpoint>
          <Trackpoint>
            <Time>2018-08-26T06:37:04.000Z</Time>
            <Position>
              <LatitudeDegrees>42.88282044231891632080078125</LatitudeDegrees>
              <LongitudeDegrees>-1.76626615226268768310546875</LongitudeDegrees>
            </Position>
            <AltitudeMeters>485</AltitudeMeters>
            <DistanceMeters>22635.234355589</DistanceMeters>
          </Trackpoint>
          <Trackpoint>
            <Time>2018-08-26T06:37:05.000Z</Time>
            <Position>
              <LatitudeDegrees>42.8828816302120685577392578125</LatitudeDegrees>
              <LongitudeDegrees>-1.76629439927637577056884765625</LongitudeDegrees>
            </Position>
            <AltitudeMeters>485</AltitudeMeters>
            <DistanceMeters>22642.424431225</DistanceMeters>
          </Trackpoint>
          <Trackpoint>
            <Time>2018-08-26T06:37:06.000Z</Time>
            <Position>
              <LatitudeDegrees>42.8829444944858551025390625</LatitudeDegrees>
              <LongitudeDegrees>-1.76632373593747615814208984375</LongitudeDegrees>
            </Position>
            <AltitudeMeters>485</AltitudeMeters>
            <DistanceMeters>22649.819439199</DistanceMeters>
          </Trackpoint>
          <Trackpoint>
            <Time>2018-08-26T06:37:07.000Z</Time>
            <Position>
              <LatitudeDegrees>42.88300945423543453216552734375</LatitudeDegrees>
              <LongitudeDegrees>-1.76635424606502056121826171875</LongitudeDegrees>
            </Position>
            <AltitudeMeters>485.20001220703125</AltitudeMeters>
            <DistanceMeters>22657.465990381</DistanceMeters>
          </Trackpoint>
          <Trackpoint>
            <Time>2018-08-26T06:37:08.000Z</Time>
            <Position>
              <LatitudeDegrees>42.883076258003711700439453125</LatitudeDegrees>
              <LongitudeDegrees>-1.76638442091643810272216796875</LongitudeDegrees>
            </Position>
            <AltitudeMeters>485.20001220703125</AltitudeMeters>
            <DistanceMeters>22665.297483164</DistanceMeters>
          </Trackpoint>
          <Trackpoint>
            <Time>2018-08-26T06:37:09.000Z</Time>
            <Position>
              <LatitudeDegrees>42.8831429779529571533203125</LatitudeDegrees>
              <LongitudeDegrees>-1.7664141766726970672607421875</LongitudeDegrees>
            </Position>
            <AltitudeMeters>485.20001220703125</AltitudeMeters>
            <DistanceMeters>22673.109349561</DistanceMeters>
          </Trackpoint>
          <Trackpoint>
            <Time>2018-08-26T06:37:10.000Z</Time>
            <Position>
              <LatitudeDegrees>42.88320877589285373687744140625</LatitudeDegrees>
              <LongitudeDegrees>-1.76644527353346347808837890625</LongitudeDegrees>
            </Position>
            <AltitudeMeters>485.20001220703125</AltitudeMeters>
            <DistanceMeters>22680.859708811</DistanceMeters>
          </Trackpoint>
          <Trackpoint>
            <Time>2018-08-26T06:37:11.000Z</Time>
            <Position>
              <LatitudeDegrees>42.88327432237565517425537109375</LatitudeDegrees>
              <LongitudeDegrees>-1.76647712476551532745361328125</LongitudeDegrees>
            </Position>
            <AltitudeMeters>485.20001220703125</AltitudeMeters>
            <DistanceMeters>22688.604240285</DistanceMeters>
          </Trackpoint>
          <Trackpoint>
            <Time>2018-08-26T06:37:12.000Z</Time>
            <Position>
              <LatitudeDegrees>42.88334037177264690399169921875</LatitudeDegrees>
              <LongitudeDegrees>-1.7665083892643451690673828125</LongitudeDegrees>
            </Position>
            <AltitudeMeters>485.20001220703125</AltitudeMeters>
            <DistanceMeters>22696.384833609</DistanceMeters>
          </Trackpoint>
          <Trackpoint>
            <Time>2018-08-26T06:37:13.000Z</Time>
            <Position>
              <LatitudeDegrees>42.8834070079028606414794921875</LatitudeDegrees>
              <LongitudeDegrees>-1.76653898321092128753662109375</LongitudeDegrees>
            </Position>
            <AltitudeMeters>485.20001220703125</AltitudeMeters>
            <DistanceMeters>22704.210559035</DistanceMeters>
          </Trackpoint>
          <Trackpoint>
            <Time>2018-08-26T06:37:14.000Z</Time>
            <Position>
              <LatitudeDegrees>42.883473895490169525146484375</LatitudeDegrees>
              <LongitudeDegrees>-1.76657100208103656768798828125</LongitudeDegrees>
            </Position>
            <AltitudeMeters>485.20001220703125</AltitudeMeters>
            <DistanceMeters>22712.100638059</DistanceMeters>
          </Trackpoint>
          <Trackpoint>
            <Time>2018-08-26T06:37:15.000Z</Time>
            <Position>
              <LatitudeDegrees>42.88354036398231983184814453125</LatitudeDegrees>
              <LongitudeDegrees>-1.76660318858921527862548828125</LongitudeDegrees>
            </Position>
            <AltitudeMeters>485.20001220703125</AltitudeMeters>
            <DistanceMeters>22719.950557909</DistanceMeters>
          </Trackpoint>
          <Trackpoint>
            <Time>2018-08-26T06:37:16.000Z</Time>
            <Position>
              <LatitudeDegrees>42.88360758684575557708740234375</LatitudeDegrees>
              <LongitudeDegrees>-1.7666354589164257049560546875</LongitudeDegrees>
            </Position>
            <AltitudeMeters>485.20001220703125</AltitudeMeters>
            <DistanceMeters>22727.881731373</DistanceMeters>
          </Trackpoint>
          <Trackpoint>
            <Time>2018-08-26T06:37:17.000Z</Time>
            <Position>
              <LatitudeDegrees>42.883674390614032745361328125</LatitudeDegrees>
              <LongitudeDegrees>-1.76666823215782642364501953125</LongitudeDegrees>
            </Position>
            <AltitudeMeters>485.20001220703125</AltitudeMeters>
            <DistanceMeters>22735.783246957</DistanceMeters>
          </Trackpoint>
          <Trackpoint>
            <Time>2018-08-26T06:37:18.000Z</Time>
            <Position>
              <LatitudeDegrees>42.88374052383005619049072265625</LatitudeDegrees>
              <LongitudeDegrees>-1.76669958047568798065185546875</LongitudeDegrees>
            </Position>
            <AltitudeMeters>485.20001220703125</AltitudeMeters>
            <DistanceMeters>22743.575437536</DistanceMeters>
          </Trackpoint>
          <Trackpoint>
            <Time>2018-08-26T06:37:19.000Z</Time>
            <Position>
              <LatitudeDegrees>42.883806489408016204833984375</LatitudeDegrees>
              <LongitudeDegrees>-1.766730844974517822265625</LongitudeDegrees>
            </Position>
            <AltitudeMeters>485.20001220703125</AltitudeMeters>
            <DistanceMeters>22751.347902486</DistanceMeters>
          </Trackpoint>
          <Trackpoint>
            <Time>2018-08-26T06:37:20.000Z</Time>
            <Position>
              <LatitudeDegrees>42.883872874081134796142578125</LatitudeDegrees>
              <LongitudeDegrees>-1.766762025654315948486328125</LongitudeDegrees>
            </Position>
            <AltitudeMeters>485.20001220703125</AltitudeMeters>
            <DistanceMeters>22759.162080429</DistanceMeters>
          </Trackpoint>
          <Trackpoint>
            <Time>2018-08-26T06:37:21.000Z</Time>
            <Position>
              <LatitudeDegrees>42.883939258754253387451171875</LatitudeDegrees>
              <LongitudeDegrees>-1.76679295487701892852783203125</LongitudeDegrees>
            </Position>
            <AltitudeMeters>485.399993896484375</AltitudeMeters>
            <DistanceMeters>22766.969321682</DistanceMeters>
          </Trackpoint>
          <Trackpoint>
            <Time>2018-08-26T06:37:22.000Z</Time>
            <Position>
              <LatitudeDegrees>42.8840061463415622711181640625</LatitudeDegrees>
              <LongitudeDegrees>-1.7668245546519756317138671875</LongitudeDegrees>
            </Position>
            <AltitudeMeters>485.399993896484375</AltitudeMeters>
            <DistanceMeters>22774.847947545</DistanceMeters>
          </Trackpoint>
          <Trackpoint>
            <Time>2018-08-26T06:37:23.000Z</Time>
            <Position>
              <LatitudeDegrees>42.884073369204998016357421875</LatitudeDegrees>
              <LongitudeDegrees>-1.766856573522090911865234375</LongitudeDegrees>
            </Position>
            <AltitudeMeters>485.399993896484375</AltitudeMeters>
            <DistanceMeters>22782.772286734</DistanceMeters>
          </Trackpoint>
          <Trackpoint>
            <Time>2018-08-26T06:37:24.000Z</Time>
            <Position>
              <LatitudeDegrees>42.8841407597064971923828125</LatitudeDegrees>
              <LongitudeDegrees>-1.7668889276683330535888671875</LongitudeDegrees>
            </Position>
            <AltitudeMeters>485.399993896484375</AltitudeMeters>
            <DistanceMeters>22790.723927776</DistanceMeters>
          </Trackpoint>
          <Trackpoint>
            <Time>2018-08-26T06:37:25.000Z</Time>
            <Position>
              <LatitudeDegrees>42.88420856930315494537353515625</LatitudeDegrees>
              <LongitudeDegrees>-1.76692136563360691070556640625</LongitudeDegrees>
            </Position>
            <AltitudeMeters>485.600006103515625</AltitudeMeters>
            <DistanceMeters>22798.721429352</DistanceMeters>
          </Trackpoint>
          <Trackpoint>
            <Time>2018-08-26T06:37:26.000Z</Time>
            <Position>
              <LatitudeDegrees>42.88427612744271755218505859375</LatitudeDegrees>
              <LongitudeDegrees>-1.76695221103727817535400390625</LongitudeDegrees>
            </Position>
            <AltitudeMeters>485.600006103515625</AltitudeMeters>
            <DistanceMeters>22806.650325379</DistanceMeters>
          </Trackpoint>
          <Trackpoint>
            <Time>2018-08-26T06:37:27.000Z</Time>
            <Position>
              <LatitudeDegrees>42.884342931210994720458984375</LatitudeDegrees>
              <LongitudeDegrees>-1.76698339171707630157470703125</LongitudeDegrees>
            </Position>
            <AltitudeMeters>485.600006103515625</AltitudeMeters>
            <DistanceMeters>22814.508293483</DistanceMeters>
          </Trackpoint>
          <Trackpoint>
            <Time>2018-08-26T06:37:28.000Z</Time>
            <Position>
              <LatitudeDegrees>42.88440939970314502716064453125</LatitudeDegrees>
              <LongitudeDegrees>-1.7670149914920330047607421875</LongitudeDegrees>
            </Position>
            <AltitudeMeters>485.600006103515625</AltitudeMeters>
            <DistanceMeters>22822.342092019</DistanceMeters>
          </Trackpoint>
          <Trackpoint>
            <Time>2018-08-26T06:37:29.000Z</Time>
            <Position>
              <LatitudeDegrees>42.88447536528110504150390625</LatitudeDegrees>
              <LongitudeDegrees>-1.767046339809894561767578125</LongitudeDegrees>
            </Position>
            <AltitudeMeters>485.600006103515625</AltitudeMeters>
            <DistanceMeters>22830.11688023</DistanceMeters>
          </Trackpoint>
          <Trackpoint>
            <Time>2018-08-26T06:37:30.000Z</Time>
            <Position>
              <LatitudeDegrees>42.88453998975455760955810546875</LatitudeDegrees>
              <LongitudeDegrees>-1.76707592792809009552001953125</LongitudeDegrees>
            </Position>
            <AltitudeMeters>485.600006103515625</AltitudeMeters>
            <DistanceMeters>22837.703559823</DistanceMeters>
          </Trackpoint>
          <Trackpoint>
            <Time>2018-08-26T06:37:31.000Z</Time>
            <Position>
              <LatitudeDegrees>42.8846036083996295928955078125</LatitudeDegrees>
              <LongitudeDegrees>-1.76710543222725391387939453125</LongitudeDegrees>
            </Position>
            <AltitudeMeters>485.600006103515625</AltitudeMeters>
            <DistanceMeters>22845.182349397</DistanceMeters>
          </Trackpoint>
          <Trackpoint>
            <Time>2018-08-26T06:37:32.000Z</Time>
            <Position>
              <LatitudeDegrees>42.88466538302600383758544921875</LatitudeDegrees>
              <LongitudeDegrees>-1.76713384687900543212890625</LongitudeDegrees>
            </Position>
            <AltitudeMeters>485.600006103515625</AltitudeMeters>
            <DistanceMeters>22852.438060642</DistanceMeters>
          </Trackpoint>
          <Trackpoint>
            <Time>2018-08-26T06:37:33.000Z</Time>
            <Position>
              <LatitudeDegrees>42.8847266547381877899169921875</LatitudeDegrees>
              <LongitudeDegrees>-1.76716201007366180419921875</LongitudeDegrees>
            </Position>
            <AltitudeMeters>485.600006103515625</AltitudeMeters>
            <DistanceMeters>22859.633785646</DistanceMeters>
          </Trackpoint>
          <Trackpoint>
            <Time>2018-08-26T06:37:34.000Z</Time>
            <Position>
              <LatitudeDegrees>42.88478918373584747314453125</LatitudeDegrees>
              <LongitudeDegrees>-1.76719151437282562255859375</LongitudeDegrees>
            </Position>
            <AltitudeMeters>485.600006103515625</AltitudeMeters>
            <DistanceMeters>22866.99697646</DistanceMeters>
          </Trackpoint>
          <Trackpoint>
            <Time>2018-08-26T06:37:35.000Z</Time>
            <Position>
              <LatitudeDegrees>42.88484819233417510986328125</LatitudeDegrees>
              <LongitudeDegrees>-1.76721959374845027923583984375</LongitudeDegrees>
            </Position>
            <AltitudeMeters>485.600006103515625</AltitudeMeters>
            <DistanceMeters>22873.952776169</DistanceMeters>
          </Trackpoint>
          <Trackpoint>
            <Time>2018-08-26T06:37:36.000Z</Time>
            <Position>
              <LatitudeDegrees>42.88490544073283672332763671875</LatitudeDegrees>
              <LongitudeDegrees>-1.76724649965763092041015625</LongitudeDegrees>
            </Position>
            <AltitudeMeters>485.600006103515625</AltitudeMeters>
            <DistanceMeters>22880.691637678</DistanceMeters>
          </Trackpoint>
          <Trackpoint>
            <Time>2018-08-26T06:37:37.000Z</Time>
            <Position>
              <LatitudeDegrees>42.88496218621730804443359375</LatitudeDegrees>
              <LongitudeDegrees>-1.76727332174777984619140625</LongitudeDegrees>
            </Position>
            <AltitudeMeters>485.600006103515625</AltitudeMeters>
            <DistanceMeters>22887.376008871</DistanceMeters>
          </Trackpoint>
          <Trackpoint>
            <Time>2018-08-26T06:37:38.000Z</Time>
            <Position>
              <LatitudeDegrees>42.88501792587339878082275390625</LatitudeDegrees>
              <LongitudeDegrees>-1.76730039529502391815185546875</LongitudeDegrees>
            </Position>
            <AltitudeMeters>485.600006103515625</AltitudeMeters>
            <DistanceMeters>22893.961024215</DistanceMeters>
          </Trackpoint>
          <Trackpoint>
            <Time>2018-08-26T06:37:39.000Z</Time>
            <Position>
              <LatitudeDegrees>42.88507358171045780181884765625</LatitudeDegrees>
              <LongitudeDegrees>-1.7673267982900142669677734375</LongitudeDegrees>
            </Position>
            <AltitudeMeters>485.600006103515625</AltitudeMeters>
            <DistanceMeters>22900.519244561</DistanceMeters>
          </Trackpoint>
          <Trackpoint>
            <Time>2018-08-26T06:37:40.000Z</Time>
            <Position>
              <LatitudeDegrees>42.88512890227138996124267578125</LatitudeDegrees>
              <LongitudeDegrees>-1.76735244691371917724609375</LongitudeDegrees>
            </Position>
            <AltitudeMeters>485.600006103515625</AltitudeMeters>
            <DistanceMeters>22907.021460945</DistanceMeters>
          </Trackpoint>
          <Trackpoint>
            <Time>2018-08-26T06:37:41.000Z</Time>
            <Position>
              <LatitudeDegrees>42.88518288172781467437744140625</LatitudeDegrees>
              <LongitudeDegrees>-1.7673780955374240875244140625</LongitudeDegrees>
            </Position>
            <AltitudeMeters>485.600006103515625</AltitudeMeters>
            <DistanceMeters>22913.383284789</DistanceMeters>
          </Trackpoint>
          <Trackpoint>
            <Time>2018-08-26T06:37:42.000Z</Time>
            <Position>
              <LatitudeDegrees>42.88523619063198566436767578125</LatitudeDegrees>
              <LongitudeDegrees>-1.76740282215178012847900390625</LongitudeDegrees>
            </Position>
            <AltitudeMeters>485.600006103515625</AltitudeMeters>
            <DistanceMeters>22919.650727053</DistanceMeters>
          </Trackpoint>
          <Trackpoint>
            <Time>2018-08-26T06:37:43.000Z</Time>
            <Position>
              <LatitudeDegrees>42.88528882898390293121337890625</LatitudeDegrees>
              <LongitudeDegrees>-1.76742679439485073089599609375</LongitudeDegrees>
            </Position>
            <AltitudeMeters>485.600006103515625</AltitudeMeters>
            <DistanceMeters>22925.826732469</DistanceMeters>
          </Trackpoint>
          <Trackpoint>
            <Time>2018-08-26T06:37:44.000Z</Time>
            <Position>
              <LatitudeDegrees>42.88533945567905902862548828125</LatitudeDegrees>
              <LongitudeDegrees>-1.7674505151808261871337890625</LongitudeDegrees>
            </Position>
            <AltitudeMeters>485.79998779296875</AltitudeMeters>
            <DistanceMeters>22931.783929832</DistanceMeters>
          </Trackpoint>
          <Trackpoint>
            <Time>2018-08-26T06:37:45.000Z</Time>
            <Position>
              <LatitudeDegrees>42.88538857363164424896240234375</LatitudeDegrees>
              <LongitudeDegrees>-1.7674729786813259124755859375</LongitudeDegrees>
            </Position>
            <AltitudeMeters>485.79998779296875</AltitudeMeters>
            <DistanceMeters>22937.550102</DistanceMeters>
          </Trackpoint>
          <Trackpoint>
            <Time>2018-08-26T06:37:46.000Z</Time>
            <Position>
              <LatitudeDegrees>42.88543467409908771514892578125</LatitudeDegrees>
              <LongitudeDegrees>-1.76749452017247676849365234375</LongitudeDegrees>
            </Position>
            <AltitudeMeters>486</AltitudeMeters>
            <DistanceMeters>22942.97328916</DistanceMeters>
          </Trackpoint>
          <Trackpoint>
            <Time>2018-08-26T06:37:47.000Z</Time>
            <Position>
              <LatitudeDegrees>42.8854796849191188812255859375</LatitudeDegrees>
              <LongitudeDegrees>-1.7675168998539447784423828125</LongitudeDegrees>
            </Position>
            <AltitudeMeters>486.399993896484375</AltitudeMeters>
            <DistanceMeters>22948.305803644</DistanceMeters>
          </Trackpoint>
          <Trackpoint>
            <Time>2018-08-26T06:37:48.000Z</Time>
            <Position>
              <LatitudeDegrees>42.88552603684365749359130859375</LatitudeDegrees>
              <LongitudeDegrees>-1.76753894425928592681884765625</LongitudeDegrees>
            </Position>
            <AltitudeMeters>486.79998779296875</AltitudeMeters>
            <DistanceMeters>22953.769633137</DistanceMeters>
          </Trackpoint>
          <Trackpoint>
            <Time>2018-08-26T06:37:49.000Z</Time>
            <Position>
              <LatitudeDegrees>42.8855735622346401214599609375</LatitudeDegrees>
              <LongitudeDegrees>-1.76756056956946849822998046875</LongitudeDegrees>
            </Position>
            <AltitudeMeters>487</AltitudeMeters>
            <DistanceMeters>22959.345523487</DistanceMeters>
          </Trackpoint>
          <Trackpoint>
            <Time>2018-08-26T06:37:50.000Z</Time>
            <Position>
              <LatitudeDegrees>42.88562125526368618011474609375</LatitudeDegrees>
              <LongitudeDegrees>-1.767584122717380523681640625</LongitudeDegrees>
            </Position>
            <AltitudeMeters>487.20001220703125</AltitudeMeters>
            <DistanceMeters>22964.991421985</DistanceMeters>
          </Trackpoint>
          <Trackpoint>
            <Time>2018-08-26T06:37:51.000Z</Time>
            <Position>
              <LatitudeDegrees>42.88566869683563709259033203125</LatitudeDegrees>
              <LongitudeDegrees>-1.7676064185798168182373046875</LongitudeDegrees>
            </Position>
            <AltitudeMeters>487.399993896484375</AltitudeMeters>
            <DistanceMeters>22970.576212405</DistanceMeters>
          </Trackpoint>
          <Trackpoint>
            <Time>2018-08-26T06:37:52.000Z</Time>
            <Position>
              <LatitudeDegrees>42.8857167251408100128173828125</LatitudeDegrees>
              <LongitudeDegrees>-1.7676275409758090972900390625</LongitudeDegrees>
            </Position>
            <AltitudeMeters>487.600006103515625</AltitudeMeters>
            <DistanceMeters>22976.192443972</DistanceMeters>
          </Trackpoint>
          <Trackpoint>
            <Time>2018-08-26T06:37:53.000Z</Time>
            <Position>
              <LatitudeDegrees>42.88576374761760234832763671875</LatitudeDegrees>
              <LongitudeDegrees>-1.7676506750285625457763671875</LongitudeDegrees>
            </Position>
            <AltitudeMeters>487.79998779296875</AltitudeMeters>
            <DistanceMeters>22981.755363347</DistanceMeters>
          </Trackpoint>
          <Trackpoint>
            <Time>2018-08-26T06:37:54.000Z</Time>
            <Position>
              <LatitudeDegrees>42.8858065791428089141845703125</LatitudeDegrees>
              <LongitudeDegrees>-1.7676717974245548248291015625</LongitudeDegrees>
            </Position>
            <AltitudeMeters>488</AltitudeMeters>
            <DistanceMeters>22986.824840397</DistanceMeters>
          </Trackpoint>
          <Trackpoint>
            <Time>2018-08-26T06:37:55.000Z</Time>
            <Position>
              <LatitudeDegrees>42.8858508355915546417236328125</LatitudeDegrees>
              <LongitudeDegrees>-1.7676937580108642578125</LongitudeDegrees>
            </Position>
            <AltitudeMeters>488.20001220703125</AltitudeMeters>
            <DistanceMeters>22992.065975059</DistanceMeters>
          </Trackpoint>
          <Trackpoint>
            <Time>2018-08-26T06:37:56.000Z</Time>
            <Position>
              <LatitudeDegrees>42.88589383475482463836669921875</LatitudeDegrees>
              <LongitudeDegrees>-1.767714209854602813720703125</LongitudeDegrees>
            </Position>
            <AltitudeMeters>488.399993896484375</AltitudeMeters>
            <DistanceMeters>22997.133670532</DistanceMeters>
          </Trackpoint>
          <Trackpoint>
            <Time>2018-08-26T06:37:57.000Z</Time>
            <Position>
              <LatitudeDegrees>42.8859376721084117889404296875</LatitudeDegrees>
              <LongitudeDegrees>-1.767732985317707061767578125</LongitudeDegrees>
            </Position>
            <AltitudeMeters>488.79998779296875</AltitudeMeters>
            <DistanceMeters>23002.24748529</DistanceMeters>
          </Trackpoint>
          <Trackpoint>
            <Time>2018-08-26T06:37:58.000Z</Time>
            <Position>
              <LatitudeDegrees>42.88598385639488697052001953125</LatitudeDegrees>
              <LongitudeDegrees>-1.76775276660919189453125</LongitudeDegrees>
            </Position>
            <AltitudeMeters>489</AltitudeMeters>
            <DistanceMeters>23007.634754143</DistanceMeters>
          </Trackpoint>
          <Trackpoint>
            <Time>2018-08-26T06:37:59.000Z</Time>
            <Position>
              <LatitudeDegrees>42.88602995686233043670654296875</LatitudeDegrees>
              <LongitudeDegrees>-1.767775900661945343017578125</LongitudeDegrees>
            </Position>
            <AltitudeMeters>489.399993896484375</AltitudeMeters>
            <DistanceMeters>23013.101062125</DistanceMeters>
          </Trackpoint>
          <Trackpoint>
            <Time>2018-08-26T06:38:00.000Z</Time>
            <Position>
              <LatitudeDegrees>42.886074967682361602783203125</LatitudeDegrees>
              <LongitudeDegrees>-1.76779710687696933746337890625</LongitudeDegrees>
            </Position>
            <AltitudeMeters>489.79998779296875</AltitudeMeters>
            <DistanceMeters>23018.400452443</DistanceMeters>
          </Trackpoint>
          <Trackpoint>
            <Time>2018-08-26T06:38:01.000Z</Time>
            <Position>
              <LatitudeDegrees>42.8861207328736782073974609375</LatitudeDegrees>
              <LongitudeDegrees>-1.76781688816845417022705078125</LongitudeDegrees>
            </Position>
            <AltitudeMeters>490</AltitudeMeters>
            <DistanceMeters>23023.743117661</DistanceMeters>
          </Trackpoint>
          <Trackpoint>
            <Time>2018-08-26T06:38:02.000Z</Time>
            <Position>
              <LatitudeDegrees>42.88616591133177280426025390625</LatitudeDegrees>
              <LongitudeDegrees>-1.767837591469287872314453125</LongitudeDegrees>
            </Position>
            <AltitudeMeters>490.20001220703125</AltitudeMeters>
            <DistanceMeters>23029.047617468</DistanceMeters>
          </Trackpoint>
          <Trackpoint>
            <Time>2018-08-26T06:38:03.000Z</Time>
            <Position>
              <LatitudeDegrees>42.8862095810472965240478515625</LatitudeDegrees>
              <LongitudeDegrees>-1.76786013878881931304931640625</LongitudeDegrees>
            </Position>
            <AltitudeMeters>490.399993896484375</AltitudeMeters>
            <DistanceMeters>23034.243763017</DistanceMeters>
          </Trackpoint>
          <Trackpoint>
            <Time>2018-08-26T06:38:04.000Z</Time>
            <Position>
              <LatitudeDegrees>42.88625358603894710540771484375</LatitudeDegrees>
              <LongitudeDegrees>-1.76788276992738246917724609375</LongitudeDegrees>
            </Position>
            <AltitudeMeters>490.600006103515625</AltitudeMeters>
            <DistanceMeters>23039.478001446</DistanceMeters>
          </Trackpoint>
          <Trackpoint>
            <Time>2018-08-26T06:38:05.000Z</Time>
            <Position>
              <LatitudeDegrees>42.88629901595413684844970703125</LatitudeDegrees>
              <LongitudeDegrees>-1.767904646694660186767578125</LongitudeDegrees>
            </Position>
            <AltitudeMeters>491.20001220703125</AltitudeMeters>
            <DistanceMeters>23044.840068529</DistanceMeters>
          </Trackpoint>
          <Trackpoint>
            <Time>2018-08-26T06:38:06.000Z</Time>
            <Position>
              <LatitudeDegrees>42.88634511642158031463623046875</LatitudeDegrees>
              <LongitudeDegrees>-1.7679284512996673583984375</LongitudeDegrees>
            </Position>
            <AltitudeMeters>491.79998779296875</AltitudeMeters>
            <DistanceMeters>23050.326164116</DistanceMeters>
          </Trackpoint>
          <Trackpoint>
            <Time>2018-08-26T06:38:07.000Z</Time>
            <Position>
              <LatitudeDegrees>42.8863906301558017730712890625</LatitudeDegrees>
              <LongitudeDegrees>-1.76795535720884799957275390625</LongitudeDegrees>
            </Position>
            <AltitudeMeters>492.20001220703125</AltitudeMeters>
            <DistanceMeters>23055.845899428</DistanceMeters>
          </Trackpoint>
          <Trackpoint>
            <Time>2018-08-26T06:38:08.000Z</Time>
            <Position>
              <LatitudeDegrees>42.8864348866045475006103515625</LatitudeDegrees>
              <LongitudeDegrees>-1.76798083819448947906494140625</LongitudeDegrees>
            </Position>
            <AltitudeMeters>492.600006103515625</AltitudeMeters>
            <DistanceMeters>23061.191099319</DistanceMeters>
          </Trackpoint>
          <Trackpoint>
            <Time>2018-08-26T06:38:09.000Z</Time>
            <Position>
              <LatitudeDegrees>42.886477969586849212646484375</LatitudeDegrees>
              <LongitudeDegrees>-1.768006570637226104736328125</LongitudeDegrees>
            </Position>
            <AltitudeMeters>492.79998779296875</AltitudeMeters>
            <DistanceMeters>23066.425337748</DistanceMeters>
          </Trackpoint>
          <Trackpoint>
            <Time>2018-08-26T06:38:10.000Z</Time>
            <Position>
              <LatitudeDegrees>42.8865187056362628936767578125</LatitudeDegrees>
              <LongitudeDegrees>-1.76803247071802616119384765625</LongitudeDegrees>
            </Position>
            <AltitudeMeters>493.20001220703125</AltitudeMeters>
            <DistanceMeters>23071.426668745</DistanceMeters>
          </Trackpoint>
          <Trackpoint>
            <Time>2018-08-26T06:38:11.000Z</Time>
            <Position>
              <LatitudeDegrees>42.8865606151521205902099609375</LatitudeDegrees>
              <LongitudeDegrees>-1.76805895753204822540283203125</LongitudeDegrees>
            </Position>
            <AltitudeMeters>493.399993896484375</AltitudeMeters>
            <DistanceMeters>23076.566902561</DistanceMeters>
          </Trackpoint>
          <Trackpoint>
            <Time>2018-08-26T06:38:12.000Z</Time>
            <Position>
              <LatitudeDegrees>42.88660394959151744842529296875</LatitudeDegrees>
              <LongitudeDegrees>-1.76808393560349941253662109375</LongitudeDegrees>
            </Position>
            <AltitudeMeters>493.600006103515625</AltitudeMeters>
            <DistanceMeters>23081.802865899</DistanceMeters>
          </Trackpoint>
          <Trackpoint>
            <Time>2018-08-26T06:38:13.000Z</Time>
            <Position>
              <LatitudeDegrees>42.88664661347866058349609375</LatitudeDegrees>
              <LongitudeDegrees>-1.76811017096042633056640625</LongitudeDegrees>
            </Position>
            <AltitudeMeters>493.79998779296875</AltitudeMeters>
            <DistanceMeters>23087.011162131</DistanceMeters>
          </Trackpoint>
          <Trackpoint>
            <Time>2018-08-26T06:38:14.000Z</Time>
            <Position>
              <LatitudeDegrees>42.88668827153742313385009765625</LatitudeDegrees>
              <LongitudeDegrees>-1.7681405134499073028564453125</LongitudeDegrees>
            </Position>
            <AltitudeMeters>494.20001220703125</AltitudeMeters>
            <DistanceMeters>23092.266062108</DistanceMeters>
          </Trackpoint>
          <Trackpoint>
            <Time>2018-08-26T06:38:15.000Z</Time>
            <Position>
              <LatitudeDegrees>42.8867316059768199920654296875</LatitudeDegrees>
              <LongitudeDegrees>-1.76816959865391254425048828125</LongitudeDegrees>
            </Position>
            <AltitudeMeters>494.399993896484375</AltitudeMeters>
            <DistanceMeters>23097.641584838</DistanceMeters>
          </Trackpoint>
          <Trackpoint>
            <Time>2018-08-26T06:38:16.000Z</Time>
            <Position>
              <LatitudeDegrees>42.886776030063629150390625</LatitudeDegrees>
              <LongitudeDegrees>-1.76819943822920322418212890625</LongitudeDegrees>
            </Position>
            <AltitudeMeters>494.600006103515625</AltitudeMeters>
            <DistanceMeters>23103.151495636</DistanceMeters>
          </Trackpoint>
          <Trackpoint>
            <Time>2018-08-26T06:38:17.000Z</Time>
            <Position>
              <LatitudeDegrees>42.88681819103658199310302734375</LatitudeDegrees>
              <LongitudeDegrees>-1.7682323791086673736572265625</LongitudeDegrees>
            </Position>
            <AltitudeMeters>495</AltitudeMeters>
            <DistanceMeters>23108.558841337</DistanceMeters>
          </Trackpoint>
          <Trackpoint>
            <Time>2018-08-26T06:38:18.000Z</Time>
            <Position>
              <LatitudeDegrees>42.8868596814572811126708984375</LatitudeDegrees>
              <LongitudeDegrees>-1.76826565526425838470458984375</LongitudeDegrees>
            </Position>
            <AltitudeMeters>495.600006103515625</AltitudeMeters>
            <DistanceMeters>23113.914167917</DistanceMeters>
          </Trackpoint>
          <Trackpoint>
            <Time>2018-08-26T06:38:19.000Z</Time>
            <Position>
              <LatitudeDegrees>42.88690318353474140167236328125</LatitudeDegrees>
              <LongitudeDegrees>-1.7682944051921367645263671875</LongitudeDegrees>
            </Position>
            <AltitudeMeters>496</AltitudeMeters>
            <DistanceMeters>23119.2930493</DistanceMeters>
          </Trackpoint>
          <Trackpoint>
            <Time>2018-08-26T06:38:20.000Z</Time>
            <Position>
              <LatitudeDegrees>42.886946015059947967529296875</LatitudeDegrees>
              <LongitudeDegrees>-1.76832751370966434478759765625</LongitudeDegrees>
            </Position>
            <AltitudeMeters>496.20001220703125</AltitudeMeters>
            <DistanceMeters>23124.770908738</DistanceMeters>
          </Trackpoint>
          <Trackpoint>
            <Time>2018-08-26T06:38:21.000Z</Time>
            <Position>
              <LatitudeDegrees>42.886986918747425079345703125</LatitudeDegrees>
              <LongitudeDegrees>-1.76836229860782623291015625</LongitudeDegrees>
            </Position>
            <AltitudeMeters>496.399993896484375</AltitudeMeters>
            <DistanceMeters>23130.134659622</DistanceMeters>
          </Trackpoint>
          <Trackpoint>
            <Time>2018-08-26T06:38:22.000Z</Time>
            <Position>
              <LatitudeDegrees>42.887029163539409637451171875</LatitudeDegrees>
              <LongitudeDegrees>-1.768395490944385528564453125</LongitudeDegrees>
            </Position>
            <AltitudeMeters>496.600006103515625</AltitudeMeters>
            <DistanceMeters>23135.559511614</DistanceMeters>
          </Trackpoint>
          <Trackpoint>
            <Time>2018-08-26T06:38:23.000Z</Time>
            <Position>
              <LatitudeDegrees>42.88707300089299678802490234375</LatitudeDegrees>
              <LongitudeDegrees>-1.76843094639480113983154296875</LongitudeDegrees>
            </Position>
            <AltitudeMeters>496.79998779296875</AltitudeMeters>
            <DistanceMeters>23141.230942852</DistanceMeters>
          </Trackpoint>
          <Trackpoint>
            <Time>2018-08-26T06:38:24.000Z</Time>
            <Position>
              <LatitudeDegrees>42.887118346989154815673828125</LatitudeDegrees>
              <LongitudeDegrees>-1.76847050897777080535888671875</LongitudeDegrees>
            </Position>
            <AltitudeMeters>497.20001220703125</AltitudeMeters>
            <DistanceMeters>23147.221395572</DistanceMeters>
          </Trackpoint>
          <Trackpoint>
            <Time>2018-08-26T06:38:25.000Z</Time>
            <Position>
              <LatitudeDegrees>42.88716168142855167388916015625</LatitudeDegrees>
              <LongitudeDegrees>-1.768510155379772186279296875</LongitudeDegrees>
            </Position>
            <AltitudeMeters>497.600006103515625</AltitudeMeters>
            <DistanceMeters>23153.026586808</DistanceMeters>
          </Trackpoint>
          <Trackpoint>
            <Time>2018-08-26T06:38:26.000Z</Time>
            <Position>
              <LatitudeDegrees>42.8872036747634410858154296875</LatitudeDegrees>
              <LongitudeDegrees>-1.7685478739440441131591796875</LongitudeDegrees>
            </Position>
            <AltitudeMeters>497.600006103515625</AltitudeMeters>
            <DistanceMeters>23158.621070248</DistanceMeters>
          </Trackpoint>
          <Trackpoint>
            <Time>2018-08-26T06:38:27.000Z</Time>
            <Position>
              <LatitudeDegrees>42.88724583573639392852783203125</LatitudeDegrees>
              <LongitudeDegrees>-1.7685850895941257476806640625</LongitudeDegrees>
            </Position>
            <AltitudeMeters>497.79998779296875</AltitudeMeters>
            <DistanceMeters>23164.209901469</DistanceMeters>
          </Trackpoint>
          <Trackpoint>
            <Time>2018-08-26T06:38:28.000Z</Time>
            <Position>
              <LatitudeDegrees>42.88728757761418819427490234375</LatitudeDegrees>
              <LongitudeDegrees>-1.76862255670130252838134765625</LongitudeDegrees>
            </Position>
            <AltitudeMeters>498</AltitudeMeters>
            <DistanceMeters>23169.771197345</DistanceMeters>
          </Trackpoint>
          <Trackpoint>
            <Time>2018-08-26T06:38:29.000Z</Time>
            <Position>
              <LatitudeDegrees>42.887328565120697021484375</LatitudeDegrees>
              <LongitudeDegrees>-1.76866027526557445526123046875</LongitudeDegrees>
            </Position>
            <AltitudeMeters>498.399993896484375</AltitudeMeters>
            <DistanceMeters>23175.272907646</DistanceMeters>
          </Trackpoint>
          <Trackpoint>
            <Time>2018-08-26T06:38:30.000Z</Time>
            <Position>
              <LatitudeDegrees>42.8873693011701107025146484375</LatitudeDegrees>
              <LongitudeDegrees>-1.76869967021048069000244140625</LongitudeDegrees>
            </Position>
            <AltitudeMeters>498.600006103515625</AltitudeMeters>
            <DistanceMeters>23180.8301427</DistanceMeters>
          </Trackpoint>
          <Trackpoint>
            <Time>2018-08-26T06:38:31.000Z</Time>
            <Position>
              <LatitudeDegrees>42.88740794174373149871826171875</LatitudeDegrees>
              <LongitudeDegrees>-1.76873906515538692474365234375</LongitudeDegrees>
            </Position>
            <AltitudeMeters>498.79998779296875</AltitudeMeters>
            <DistanceMeters>23186.198941822</DistanceMeters>
          </Trackpoint>
          <Trackpoint>
            <Time>2018-08-26T06:38:32.000Z</Time>
            <Position>
              <LatitudeDegrees>42.88744666613638401031494140625</LatitudeDegrees>
              <LongitudeDegrees>-1.76877946592867374420166015625</LongitudeDegrees>
            </Position>
            <AltitudeMeters>499</AltitudeMeters>
            <DistanceMeters>23191.624626037</DistanceMeters>
          </Trackpoint>
          <Trackpoint>
            <Time>2018-08-26T06:38:33.000Z</Time>
            <Position>
              <LatitudeDegrees>42.8874863125383853912353515625</LatitudeDegrees>
              <LongitudeDegrees>-1.76881961524486541748046875</LongitudeDegrees>
            </Position>
            <AltitudeMeters>499.600006103515625</AltitudeMeters>
            <DistanceMeters>23197.11976713</DistanceMeters>
          </Trackpoint>
          <Trackpoint>
            <Time>2018-08-26T06:38:34.000Z</Time>
            <Position>
              <LatitudeDegrees>42.887526042759418487548828125</LatitudeDegrees>
              <LongitudeDegrees>-1.768860854208469390869140625</LongitudeDegrees>
            </Position>
            <AltitudeMeters>500</AltitudeMeters>
            <DistanceMeters>23202.675377023</DistanceMeters>
          </Trackpoint>
          <Trackpoint>
            <Time>2018-08-26T06:38:35.000Z</Time>
            <Position>
              <LatitudeDegrees>42.88756468333303928375244140625</LatitudeDegrees>
              <LongitudeDegrees>-1.76890435628592967987060546875</LongitudeDegrees>
            </Position>
            <AltitudeMeters>500.20001220703125</AltitudeMeters>
            <DistanceMeters>23208.250457571</DistanceMeters>
          </Trackpoint>
          <Trackpoint>
            <Time>2018-08-26T06:38:36.000Z</Time>
            <Position>
              <LatitudeDegrees>42.88760290481150150299072265625</LatitudeDegrees>
              <LongitudeDegrees>-1.76894861273467540740966796875</LongitudeDegrees>
            </Position>
            <AltitudeMeters>500.600006103515625</AltitudeMeters>
            <DistanceMeters>23213.828776622</DistanceMeters>
          </Trackpoint>
          <Trackpoint>
            <Time>2018-08-26T06:38:37.000Z</Time>
            <Position>
              <LatitudeDegrees>42.88764171302318572998046875</LatitudeDegrees>
              <LongitudeDegrees>-1.76899337209761142730712890625</LongitudeDegrees>
            </Position>
            <AltitudeMeters>500.600006103515625</AltitudeMeters>
            <DistanceMeters>23219.483465003</DistanceMeters>
          </Trackpoint>
          <Trackpoint>
            <Time>2018-08-26T06:38:38.000Z</Time>
            <Position>
              <LatitudeDegrees>42.88768052123486995697021484375</LatitudeDegrees>
              <LongitudeDegrees>-1.76903821527957916259765625</LongitudeDegrees>
            </Position>
            <AltitudeMeters>500.79998779296875</AltitudeMeters>
            <DistanceMeters>23225.142942112</DistanceMeters>
          </Trackpoint>
          <Trackpoint>
            <Time>2018-08-26T06:38:39.000Z</Time>
            <Position>
              <LatitudeDegrees>42.887719161808490753173828125</LatitudeDegrees>
              <LongitudeDegrees>-1.7690836451947689056396484375</LongitudeDegrees>
            </Position>
            <AltitudeMeters>501.20001220703125</AltitudeMeters>
            <DistanceMeters>23230.819147953</DistanceMeters>
          </Trackpoint>
          <Trackpoint>
            <Time>2018-08-26T06:38:40.000Z</Time>
            <Position>
              <LatitudeDegrees>42.88775679655373096466064453125</LatitudeDegrees>
              <LongitudeDegrees>-1.7691289074718952178955078125</LongitudeDegrees>
            </Position>
            <AltitudeMeters>501.600006103515625</AltitudeMeters>
            <DistanceMeters>23236.403129862</DistanceMeters>
          </Trackpoint>
          <Trackpoint>
            <Time>2018-08-26T06:38:41.000Z</Time>
            <Position>
              <LatitudeDegrees>42.8877934254705905914306640625</LatitudeDegrees>
              <LongitudeDegrees>-1.76917341537773609161376953125</LongitudeDegrees>
            </Position>
            <AltitudeMeters>502.20001220703125</AltitudeMeters>
            <DistanceMeters>23241.861999</DistanceMeters>
          </Trackpoint>
          <Trackpoint>
            <Time>2018-08-26T06:38:42.000Z</Time>
            <Position>
              <LatitudeDegrees>42.88782921619713306427001953125</LatitudeDegrees>
              <LongitudeDegrees>-1.76921616308391094207763671875</LongitudeDegrees>
            </Position>
            <AltitudeMeters>502.399993896484375</AltitudeMeters>
            <DistanceMeters>23247.156274898</DistanceMeters>
          </Trackpoint>
          <Trackpoint>
            <Time>2018-08-26T06:38:43.000Z</Time>
            <Position>
              <LatitudeDegrees>42.8878636658191680908203125</LatitudeDegrees>
              <LongitudeDegrees>-1.76925756968557834625244140625</LongitudeDegrees>
            </Position>
            <AltitudeMeters>502.600006103515625</AltitudeMeters>
            <DistanceMeters>23252.265673199</DistanceMeters>
          </Trackpoint>
          <Trackpoint>
            <Time>2018-08-26T06:38:44.000Z</Time>
            <Position>
              <LatitudeDegrees>42.8878970257937908172607421875</LatitudeDegrees>
              <LongitudeDegrees>-1.76929947920143604278564453125</LongitudeDegrees>
            </Position>
            <AltitudeMeters>503.20001220703125</AltitudeMeters>
            <DistanceMeters>23257.311940688</DistanceMeters>
          </Trackpoint>
          <Trackpoint>
            <Time>2018-08-26T06:38:45.000Z</Time>
            <Position>
              <LatitudeDegrees>42.88792963139712810516357421875</LatitudeDegrees>
              <LongitudeDegrees>-1.7693421430885791778564453125</LongitudeDegrees>
            </Position>
            <AltitudeMeters>503.600006103515625</AltitudeMeters>
            <DistanceMeters>23262.338485614</DistanceMeters>
          </Trackpoint>
          <Trackpoint>
            <Time>2018-08-26T06:38:46.000Z</Time>
            <Position>
              <LatitudeDegrees>42.88796047680079936981201171875</LatitudeDegrees>
              <LongitudeDegrees>-1.76938698627054691314697265625</LongitudeDegrees>
            </Position>
            <AltitudeMeters>503.79998779296875</AltitudeMeters>
            <DistanceMeters>23267.355140181</DistanceMeters>
          </Trackpoint>
          <Trackpoint>
            <Time>2018-08-26T06:38:47.000Z</Time>
            <Position>
              <LatitudeDegrees>42.88799040019512176513671875</LatitudeDegrees>
              <LongitudeDegrees>-1.76943275146186351776123046875</LongitudeDegrees>
            </Position>
            <AltitudeMeters>504.20001220703125</AltitudeMeters>
            <DistanceMeters>23272.356471179</DistanceMeters>
          </Trackpoint>
          <Trackpoint>
            <Time>2018-08-26T06:38:48.000Z</Time>
            <Position>
              <LatitudeDegrees>42.88802032358944416046142578125</LatitudeDegrees>
              <LongitudeDegrees>-1.7694775946438312530517578125</LongitudeDegrees>
            </Position>
            <AltitudeMeters>504.20001220703125</AltitudeMeters>
            <DistanceMeters>23277.302426808</DistanceMeters>
          </Trackpoint>
          <Trackpoint>
            <Time>2018-08-26T06:38:49.000Z</Time>
            <Position>
              <LatitudeDegrees>42.888050414621829986572265625</LatitudeDegrees>
              <LongitudeDegrees>-1.7695215158164501190185546875</LongitudeDegrees>
            </Position>
            <AltitudeMeters>504.600006103515625</AltitudeMeters>
            <DistanceMeters>23282.205289594</DistanceMeters>
          </Trackpoint>
          <Trackpoint>
            <Time>2018-08-26T06:38:50.000Z</Time>
            <Position>
              <LatitudeDegrees>42.88808033801615238189697265625</LatitudeDegrees>
              <LongitudeDegrees>-1.76956585608422756195068359375</LongitudeDegrees>
            </Position>
            <AltitudeMeters>504.79998779296875</AltitudeMeters>
            <DistanceMeters>23287.121028049</DistanceMeters>
          </Trackpoint>
          <Trackpoint>
            <Time>2018-08-26T06:38:51.000Z</Time>
            <Position>
              <LatitudeDegrees>42.88810967467725276947021484375</LatitudeDegrees>
              <LongitudeDegrees>-1.76961086690425872802734375</LongitudeDegrees>
            </Position>
            <AltitudeMeters>505</AltitudeMeters>
            <DistanceMeters>23292.034010274</DistanceMeters>
          </Trackpoint>
          <Trackpoint>
            <Time>2018-08-26T06:38:52.000Z</Time>
            <Position>
              <LatitudeDegrees>42.8881374187767505645751953125</LatitudeDegrees>
              <LongitudeDegrees>-1.769655458629131317138671875</LongitudeDegrees>
            </Position>
            <AltitudeMeters>505.20001220703125</AltitudeMeters>
            <DistanceMeters>23296.804313475</DistanceMeters>
          </Trackpoint>
          <Trackpoint>
            <Time>2018-08-26T06:38:53.000Z</Time>
            <Position>
              <LatitudeDegrees>42.8881628997623920440673828125</LatitudeDegrees>
              <LongitudeDegrees>-1.769699715077877044677734375</LongitudeDegrees>
            </Position>
            <AltitudeMeters>505.399993896484375</AltitudeMeters>
            <DistanceMeters>23301.394211987</DistanceMeters>
          </Trackpoint>
          <Trackpoint>
            <Time>2018-08-26T06:38:54.000Z</Time>
            <Position>
              <LatitudeDegrees>42.88818913511931896209716796875</LatitudeDegrees>
              <LongitudeDegrees>-1.7697434686124324798583984375</LongitudeDegrees>
            </Position>
            <AltitudeMeters>505.600006103515625</AltitudeMeters>
            <DistanceMeters>23306.004721714</DistanceMeters>
          </Trackpoint>
          <Trackpoint>
            <Time>2018-08-26T06:38:55.000Z</Time>
            <Position>
              <LatitudeDegrees>42.88821838796138763427734375</LatitudeDegrees>
              <LongitudeDegrees>-1.7697873897850513458251953125</LongitudeDegrees>
            </Position>
            <AltitudeMeters>505.79998779296875</AltitudeMeters>
            <DistanceMeters>23310.844558312</DistanceMeters>
          </Trackpoint>
          <Trackpoint>
            <Time>2018-08-26T06:38:56.000Z</Time>
            <Position>
              <LatitudeDegrees>42.88824747316539287567138671875</LatitudeDegrees>
              <LongitudeDegrees>-1.7698329873383045196533203125</LongitudeDegrees>
            </Position>
            <AltitudeMeters>506</AltitudeMeters>
            <DistanceMeters>23315.774970647</DistanceMeters>
          </Trackpoint>
          <Trackpoint>
            <Time>2018-08-26T06:38:57.000Z</Time>
            <Position>
              <LatitudeDegrees>42.8882752172648906707763671875</LatitudeDegrees>
              <LongitudeDegrees>-1.76988118328154087066650390625</LongitudeDegrees>
            </Position>
            <AltitudeMeters>506.399993896484375</AltitudeMeters>
            <DistanceMeters>23320.774495784</DistanceMeters>
          </Trackpoint>
          <Trackpoint>
            <Time>2018-08-26T06:38:58.000Z</Time>
            <Position>
              <LatitudeDegrees>42.88830212317407131195068359375</LatitudeDegrees>
              <LongitudeDegrees>-1.7699295468628406524658203125</LongitudeDegrees>
            </Position>
            <AltitudeMeters>506.600006103515625</AltitudeMeters>
            <DistanceMeters>23325.726837414</DistanceMeters>
          </Trackpoint>
          <Trackpoint>
            <Time>2018-08-26T06:38:59.000Z</Time>
            <Position>
              <LatitudeDegrees>42.88832743652164936065673828125</LatitudeDegrees>
              <LongitudeDegrees>-1.76997774280607700347900390625</LongitudeDegrees>
            </Position>
            <AltitudeMeters>507</AltitudeMeters>
            <DistanceMeters>23330.56294101</DistanceMeters>
          </Trackpoint>
          <Trackpoint>
            <Time>2018-08-26T06:39:00.000Z</Time>
            <Position>
              <LatitudeDegrees>42.888352833688259124755859375</LatitudeDegrees>
              <LongitudeDegrees>-1.77002367563545703887939453125</LongitudeDegrees>
            </Position>
            <AltitudeMeters>507.399993896484375</AltitudeMeters>
            <DistanceMeters>23335.255952458</DistanceMeters>
          </Trackpoint>
          <Trackpoint>
            <Time>2018-08-26T06:39:01.000Z</Time>
            <Position>
              <LatitudeDegrees>42.88837923668324947357177734375</LatitudeDegrees>
              <LongitudeDegrees>-1.77007094956934452056884765625</LongitudeDegrees>
            </Position>
            <AltitudeMeters>507.79998779296875</AltitudeMeters>
            <DistanceMeters>23340.104177801</DistanceMeters>
          </Trackpoint>
          <Trackpoint>
            <Time>2018-08-26T06:39:02.000Z</Time>
            <Position>
              <LatitudeDegrees>42.88840337656438350677490234375</LatitudeDegrees>
              <LongitudeDegrees>-1.7701193131506443023681640625</LongitudeDegrees>
            </Position>
            <AltitudeMeters>507.79998779296875</AltitudeMeters>
            <DistanceMeters>23344.876373605</DistanceMeters>
          </Trackpoint>
          <Trackpoint>
            <Time>2018-08-26T06:39:03.000Z</Time>
            <Position>
              <LatitudeDegrees>42.8884277679026126861572265625</LatitudeDegrees>
              <LongitudeDegrees>-1.77016734145581722259521484375</LongitudeDegrees>
            </Position>
            <AltitudeMeters>508</AltitudeMeters>
            <DistanceMeters>23349.641942014</DistanceMeters>
          </Trackpoint>
          <Trackpoint>
            <Time>2018-08-26T06:39:04.000Z</Time>
            <Position>
              <LatitudeDegrees>42.88845241069793701171875</LatitudeDegrees>
              <LongitudeDegrees>-1.7702152021229267120361328125</LongitudeDegrees>
            </Position>
            <AltitudeMeters>508.20001220703125</AltitudeMeters>
            <DistanceMeters>23354.412245216</DistanceMeters>
          </Trackpoint>
          <Trackpoint>
            <Time>2018-08-26T06:39:05.000Z</Time>
            <Position>
              <LatitudeDegrees>42.888476885855197906494140625</LatitudeDegrees>
              <LongitudeDegrees>-1.77026390098035335540771484375</LongitudeDegrees>
            </Position>
            <AltitudeMeters>508.20001220703125</AltitudeMeters>
            <DistanceMeters>23359.228703083</DistanceMeters>
          </Trackpoint>
          <Trackpoint>
            <Time>2018-08-26T06:39:06.000Z</Time>
            <Position>
              <LatitudeDegrees>42.88850136101245880126953125</LatitudeDegrees>
              <LongitudeDegrees>-1.770314611494541168212890625</LongitudeDegrees>
            </Position>
            <AltitudeMeters>508.399993896484375</AltitudeMeters>
            <DistanceMeters>23364.181044713</DistanceMeters>
          </Trackpoint>
          <Trackpoint>
            <Time>2018-08-26T06:39:07.000Z</Time>
            <Position>
              <LatitudeDegrees>42.88852625526487827301025390625</LatitudeDegrees>
              <LongitudeDegrees>-1.77036590874195098876953125</LongitudeDegrees>
            </Position>
            <AltitudeMeters>508.600006103515625</AltitudeMeters>
            <DistanceMeters>23369.198599209</DistanceMeters>
          </Trackpoint>
          <Trackpoint>
            <Time>2018-08-26T06:39:08.000Z</Time>
            <Position>
              <LatitudeDegrees>42.8885514847934246063232421875</LatitudeDegrees>
              <LongitudeDegrees>-1.77041678689420223236083984375</LongitudeDegrees>
            </Position>
            <AltitudeMeters>508.79998779296875</AltitudeMeters>
            <DistanceMeters>23374.208949748</DistanceMeters>
          </Trackpoint>
          <Trackpoint>
            <Time>2018-08-26T06:39:09.000Z</Time>
            <Position>
              <LatitudeDegrees>42.888576798141002655029296875</LatitudeDegrees>
              <LongitudeDegrees>-1.7704666592180728912353515625</LongitudeDegrees>
            </Position>
            <AltitudeMeters>509</AltitudeMeters>
            <DistanceMeters>23379.157643243</DistanceMeters>
          </Trackpoint>
          <Trackpoint>
            <Time>2018-08-26T06:39:10.000Z</Time>
            <Position>
              <LatitudeDegrees>42.88860152475535869598388671875</LatitudeDegrees>
              <LongitudeDegrees>-1.77051686681807041168212890625</LongitudeDegrees>
            </Position>
            <AltitudeMeters>509.20001220703125</AltitudeMeters>
            <DistanceMeters>23384.091717229</DistanceMeters>
          </Trackpoint>
          <Trackpoint>
            <Time>2018-08-26T06:39:11.000Z</Time>
            <Position>
              <LatitudeDegrees>42.88862583227455615997314453125</LatitudeDegrees>
              <LongitudeDegrees>-1.77056615240871906280517578125</LongitudeDegrees>
            </Position>
            <AltitudeMeters>509.399993896484375</AltitudeMeters>
            <DistanceMeters>23388.937147938</DistanceMeters>
          </Trackpoint>
          <Trackpoint>
            <Time>2018-08-26T06:39:12.000Z</Time>
            <Position>
              <LatitudeDegrees>42.88865013979375362396240234375</LatitudeDegrees>
              <LongitudeDegrees>-1.77061493508517742156982421875</LongitudeDegrees>
            </Position>
            <AltitudeMeters>509.600006103515625</AltitudeMeters>
            <DistanceMeters>23393.748916428</DistanceMeters>
          </Trackpoint>
          <Trackpoint>
            <Time>2018-08-26T06:39:13.000Z</Time>
            <Position>
              <LatitudeDegrees>42.88867444731295108795166015625</LatitudeDegrees>
              <LongitudeDegrees>-1.77066422067582607269287109375</LongitudeDegrees>
            </Position>
            <AltitudeMeters>509.79998779296875</AltitudeMeters>
            <DistanceMeters>23398.594347137</DistanceMeters>
          </Trackpoint>
          <Trackpoint>
            <Time>2018-08-26T06:39:14.000Z</Time>
            <Position>
              <LatitudeDegrees>42.88869892247021198272705078125</LatitudeDegrees>
              <LongitudeDegrees>-1.77071384154260158538818359375</LongitudeDegrees>
            </Position>
            <AltitudeMeters>510</AltitudeMeters>
            <DistanceMeters>23403.472282297</DistanceMeters>
          </Trackpoint>
          <Trackpoint>
            <Time>2018-08-26T06:39:15.000Z</Time>
            <Position>
              <LatitudeDegrees>42.88872398436069488525390625</LatitudeDegrees>
              <LongitudeDegrees>-1.7707643844187259674072265625</LongitudeDegrees>
            </Position>
            <AltitudeMeters>510.20001220703125</AltitudeMeters>
            <DistanceMeters>23408.450086006</DistanceMeters>
          </Trackpoint>
          <Trackpoint>
            <Time>2018-08-26T06:39:16.000Z</Time>
            <Position>
              <LatitudeDegrees>42.88874887861311435699462890625</LatitudeDegrees>
              <LongitudeDegrees>-1.7708170227706432342529296875</LongitudeDegrees>
            </Position>
            <AltitudeMeters>510.399993896484375</AltitudeMeters>
            <DistanceMeters>23413.558600557</DistanceMeters>
          </Trackpoint>
          <Trackpoint>
            <Time>2018-08-26T06:39:17.000Z</Time>
            <Position>
              <LatitudeDegrees>42.88877419196069240570068359375</LatitudeDegrees>
              <LongitudeDegrees>-1.770870499312877655029296875</LongitudeDegrees>
            </Position>
            <AltitudeMeters>510.600006103515625</AltitudeMeters>
            <DistanceMeters>23418.750399685</DistanceMeters>
          </Trackpoint>
          <Trackpoint>
            <Time>2018-08-26T06:39:18.000Z</Time>
            <Position>
              <LatitudeDegrees>42.88879917003214359283447265625</LatitudeDegrees>
              <LongitudeDegrees>-1.770923472940921783447265625</LongitudeDegrees>
            </Position>
            <AltitudeMeters>510.79998779296875</AltitudeMeters>
            <DistanceMeters>23423.887997708</DistanceMeters>
          </Trackpoint>
          <Trackpoint>
            <Time>2018-08-26T06:39:19.000Z</Time>
            <Position>
              <LatitudeDegrees>42.88882314227521419525146484375</LatitudeDegrees>
              <LongitudeDegrees>-1.7709762789309024810791015625</LongitudeDegrees>
            </Position>
            <AltitudeMeters>511.20001220703125</AltitudeMeters>
            <DistanceMeters>23428.953019641</DistanceMeters>
          </Trackpoint>
          <Trackpoint>
            <Time>2018-08-26T06:39:20.000Z</Time>
            <Position>
              <LatitudeDegrees>42.88884610868990421295166015625</LatitudeDegrees>
              <LongitudeDegrees>-1.771028749644756317138671875</LongitudeDegrees>
            </Position>
            <AltitudeMeters>511.399993896484375</AltitudeMeters>
            <DistanceMeters>23433.938074342</DistanceMeters>
          </Trackpoint>
          <Trackpoint>
            <Time>2018-08-26T06:39:21.000Z</Time>
            <Position>
              <LatitudeDegrees>42.88886857219040393829345703125</LatitudeDegrees>
              <LongitudeDegrees>-1.7710812203586101531982421875</LongitudeDegrees>
            </Position>
            <AltitudeMeters>511.399993896484375</AltitudeMeters>
            <DistanceMeters>23438.894061421</DistanceMeters>
          </Trackpoint>
          <Trackpoint>
            <Time>2018-08-26T06:39:22.000Z</Time>
            <Position>
              <LatitudeDegrees>42.88889120332896709442138671875</LatitudeDegrees>
              <LongitudeDegrees>-1.77113276906311511993408203125</LongitudeDegrees>
            </Position>
            <AltitudeMeters>511.600006103515625</AltitudeMeters>
            <DistanceMeters>23443.794160733</DistanceMeters>
          </Trackpoint>
          <Trackpoint>
            <Time>2018-08-26T06:39:23.000Z</Time>
            <Position>
              <LatitudeDegrees>42.88891299627721309661865234375</LatitudeDegrees>
              <LongitudeDegrees>-1.77118540741503238677978515625</LongitudeDegrees>
            </Position>
            <AltitudeMeters>511.79998779296875</AltitudeMeters>
            <DistanceMeters>23448.724573067</DistanceMeters>
          </Trackpoint>
          <Trackpoint>
            <Time>2018-08-26T06:39:24.000Z</Time>
            <Position>
              <LatitudeDegrees>42.88893411867320537567138671875</LatitudeDegrees>
              <LongitudeDegrees>-1.77123896777629852294921875</LongitudeDegrees>
            </Position>
            <AltitudeMeters>512</AltitudeMeters>
            <DistanceMeters>23453.68511319</DistanceMeters>
          </Trackpoint>
          <Trackpoint>
            <Time>2018-08-26T06:39:25.000Z</Time>
            <Position>
              <LatitudeDegrees>42.88895440287888050079345703125</LatitudeDegrees>
              <LongitudeDegrees>-1.77129537798464298248291015625</LongitudeDegrees>
            </Position>
            <AltitudeMeters>512.20001220703125</AltitudeMeters>
            <DistanceMeters>23458.809511915</DistanceMeters>
          </Trackpoint>
          <Trackpoint>
            <Time>2018-08-26T06:39:26.000Z</Time>
            <Position>
              <LatitudeDegrees>42.888974435627460479736328125</LatitudeDegrees>
              <LongitudeDegrees>-1.7713524587452411651611328125</LongitudeDegrees>
            </Position>
            <AltitudeMeters>512.4000244140625</AltitudeMeters>
            <DistanceMeters>23463.97078361</DistanceMeters>
          </Trackpoint>
          <Trackpoint>
            <Time>2018-08-26T06:39:27.000Z</Time>
            <Position>
              <LatitudeDegrees>42.88899480365216732025146484375</LatitudeDegrees>
              <LongitudeDegrees>-1.7714097909629344940185546875</LongitudeDegrees>
            </Position>
            <AltitudeMeters>512.5999755859375</AltitudeMeters>
            <DistanceMeters>23469.166060166</DistanceMeters>
          </Trackpoint>
          <Trackpoint>
            <Time>2018-08-26T06:39:28.000Z</Time>
            <Position>
              <LatitudeDegrees>42.8890151716768741607666015625</LatitudeDegrees>
              <LongitudeDegrees>-1.77146653644740581512451171875</LongitudeDegrees>
            </Position>
            <AltitudeMeters>513</AltitudeMeters>
            <DistanceMeters>23474.320328776</DistanceMeters>
          </Trackpoint>
          <Trackpoint>
            <Time>2018-08-26T06:39:29.000Z</Time>
            <Position>
              <LatitudeDegrees>42.88903453387320041656494140625</LatitudeDegrees>
              <LongitudeDegrees>-1.77152336575090885162353515625</LongitudeDegrees>
            </Position>
            <AltitudeMeters>513.4000244140625</AltitudeMeters>
            <DistanceMeters>23479.431494118</DistanceMeters>
          </Trackpoint>
          <Trackpoint>
            <Time>2018-08-26T06:39:30.000Z</Time>
            <Position>
              <LatitudeDegrees>42.8890523873269557952880859375</LatitudeDegrees>
              <LongitudeDegrees>-1.771580614149570465087890625</LongitudeDegrees>
            </Position>
            <AltitudeMeters>514</AltitudeMeters>
            <DistanceMeters>23484.504532444</DistanceMeters>
          </Trackpoint>
          <Trackpoint>
            <Time>2018-08-26T06:39:31.000Z</Time>
            <Position>
              <LatitudeDegrees>42.88906990550458431243896484375</LatitudeDegrees>
              <LongitudeDegrees>-1.7716379463672637939453125</LongitudeDegrees>
            </Position>
            <AltitudeMeters>514.20001220703125</AltitudeMeters>
            <DistanceMeters>23489.569554377</DistanceMeters>
          </Trackpoint>
          <Trackpoint>
            <Time>2018-08-26T06:39:32.000Z</Time>
            <Position>
              <LatitudeDegrees>42.88908717222511768341064453125</LatitudeDegrees>
              <LongitudeDegrees>-1.771695613861083984375</LongitudeDegrees>
            </Position>
            <AltitudeMeters>514.4000244140625</AltitudeMeters>
            <DistanceMeters>23494.64881893</DistanceMeters>
          </Trackpoint>
          <Trackpoint>
            <Time>2018-08-26T06:39:33.000Z</Time>
            <Position>
              <LatitudeDegrees>42.88910443894565105438232421875</LatitudeDegrees>
              <LongitudeDegrees>-1.77175319753587245941162109375</LongitudeDegrees>
            </Position>
            <AltitudeMeters>514.5999755859375</AltitudeMeters>
            <DistanceMeters>23499.721857257</DistanceMeters>
          </Trackpoint>
          <Trackpoint>
            <Time>2018-08-26T06:39:34.000Z</Time>
            <Position>
              <LatitudeDegrees>42.88912229239940643310546875</LatitudeDegrees>
              <LongitudeDegrees>-1.771810613572597503662109375</LongitudeDegrees>
            </Position>
            <AltitudeMeters>514.79998779296875</AltitudeMeters>
            <DistanceMeters>23504.809115761</DistanceMeters>
          </Trackpoint>
          <Trackpoint>
            <Time>2018-08-26T06:39:35.000Z</Time>
            <Position>
              <LatitudeDegrees>42.889139391481876373291015625</LatitudeDegrees>
              <LongitudeDegrees>-1.7718681134283542633056640625</LongitudeDegrees>
            </Position>
            <AltitudeMeters>515</AltitudeMeters>
            <DistanceMeters>23509.869678654</DistanceMeters>
          </Trackpoint>
          <Trackpoint>
            <Time>2018-08-26T06:39:36.000Z</Time>
            <Position>
              <LatitudeDegrees>42.88915607146918773651123046875</LatitudeDegrees>
              <LongitudeDegrees>-1.7719261161983013153076171875</LongitudeDegrees>
            </Position>
            <AltitudeMeters>515.20001220703125</AltitudeMeters>
            <DistanceMeters>23514.949832045</DistanceMeters>
          </Trackpoint>
          <Trackpoint>
            <Time>2018-08-26T06:39:37.000Z</Time>
            <Position>
              <LatitudeDegrees>42.8891730867326259613037109375</LatitudeDegrees>
              <LongitudeDegrees>-1.771984286606311798095703125</LongitudeDegrees>
            </Position>
            <AltitudeMeters>515.4000244140625</AltitudeMeters>
            <DistanceMeters>23520.057462694</DistanceMeters>
          </Trackpoint>
          <Trackpoint>
            <Time>2018-08-26T06:39:38.000Z</Time>
            <Position>
              <LatitudeDegrees>42.8891905210912227630615234375</LatitudeDegrees>
              <LongitudeDegrees>-1.7720421217381954193115234375</LongitudeDegrees>
            </Position>
            <AltitudeMeters>515.5999755859375</AltitudeMeters>
            <DistanceMeters>23525.157131326</DistanceMeters>
          </Trackpoint>
          <Trackpoint>
            <Time>2018-08-26T06:39:39.000Z</Time>
            <Position>
              <LatitudeDegrees>42.88920787163078784942626953125</LatitudeDegrees>
              <LongitudeDegrees>-1.7721001245081424713134765625</LongitudeDegrees>
            </Position>
            <AltitudeMeters>516</AltitudeMeters>
            <DistanceMeters>23530.265645878</DistanceMeters>
          </Trackpoint>
          <Trackpoint>
            <Time>2018-08-26T06:39:40.000Z</Time>
            <Position>
              <LatitudeDegrees>42.889225222170352935791015625</LatitudeDegrees>
              <LongitudeDegrees>-1.772157959640026092529296875</LongitudeDegrees>
            </Position>
            <AltitudeMeters>516.20001220703125</AltitudeMeters>
            <DistanceMeters>23535.361771843</DistanceMeters>
          </Trackpoint>
          <Trackpoint>
            <Time>2018-08-26T06:39:41.000Z</Time>
            <Position>
              <LatitudeDegrees>42.88924173451960086822509765625</LatitudeDegrees>
              <LongitudeDegrees>-1.77221621386706829071044921875</LongitudeDegrees>
            </Position>
            <AltitudeMeters>516.4000244140625</AltitudeMeters>
            <DistanceMeters>23540.455239191</DistanceMeters>
          </Trackpoint>
          <Trackpoint>
            <Time>2018-08-26T06:39:42.000Z</Time>
            <Position>
              <LatitudeDegrees>42.8892575763165950775146484375</LatitudeDegrees>
              <LongitudeDegrees>-1.7722734622657299041748046875</LongitudeDegrees>
            </Position>
            <AltitudeMeters>516.5999755859375</AltitudeMeters>
            <DistanceMeters>23545.444820411</DistanceMeters>
          </Trackpoint>
          <Trackpoint>
            <Time>2018-08-26T06:39:43.000Z</Time>
            <Position>
              <LatitudeDegrees>42.88927408866584300994873046875</LatitudeDegrees>
              <LongitudeDegrees>-1.772330291569232940673828125</LongitudeDegrees>
            </Position>
            <AltitudeMeters>516.5999755859375</AltitudeMeters>
            <DistanceMeters>23550.430780745</DistanceMeters>
          </Trackpoint>
          <Trackpoint>
            <Time>2018-08-26T06:39:44.000Z</Time>
            <Position>
              <LatitudeDegrees>42.8892904333770275115966796875</LatitudeDegrees>
              <LongitudeDegrees>-1.77238804288208484649658203125</LongitudeDegrees>
            </Position>
            <AltitudeMeters>516.79998779296875</AltitudeMeters>
            <DistanceMeters>23555.479731706</DistanceMeters>
          </Trackpoint>
          <Trackpoint>
            <Time>2018-08-26T06:39:45.000Z</Time>
            <Position>
              <LatitudeDegrees>42.889306358993053436279296875</LatitudeDegrees>
              <LongitudeDegrees>-1.77244587801396846771240234375</LongitudeDegrees>
            </Position>
            <AltitudeMeters>517</AltitudeMeters>
            <DistanceMeters>23560.518836285</DistanceMeters>
          </Trackpoint>
          <Trackpoint>
            <Time>2018-08-26T06:39:46.000Z</Time>
            <Position>
              <LatitudeDegrees>42.8893226198852062225341796875</LatitudeDegrees>
              <LongitudeDegrees>-1.77250538952648639678955078125</LongitudeDegrees>
            </Position>
            <AltitudeMeters>517</AltitudeMeters>
            <DistanceMeters>23565.697574262</DistanceMeters>
          </Trackpoint>
          <Trackpoint>
            <Time>2018-08-26T06:39:47.000Z</Time>
            <Position>
              <LatitudeDegrees>42.88933980278670787811279296875</LatitudeDegrees>
              <LongitudeDegrees>-1.7725659906864166259765625</LongitudeDegrees>
            </Position>
            <AltitudeMeters>517.20001220703125</AltitudeMeters>
            <DistanceMeters>23570.99696458</DistanceMeters>
          </Trackpoint>
          <Trackpoint>
            <Time>2018-08-26T06:39:48.000Z</Time>
            <Position>
              <LatitudeDegrees>42.8893574886023998260498046875</LatitudeDegrees>
              <LongitudeDegrees>-1.77262743003666400909423828125</LongitudeDegrees>
            </Position>
            <AltitudeMeters>517.4000244140625</AltitudeMeters>
            <DistanceMeters>23576.380041331</DistanceMeters>
          </Trackpoint>
          <Trackpoint>
            <Time>2018-08-26T06:39:49.000Z</Time>
            <Position>
              <LatitudeDegrees>42.8893755935132503509521484375</LatitudeDegrees>
              <LongitudeDegrees>-1.7726892046630382537841796875</LongitudeDegrees>
            </Position>
            <AltitudeMeters>517.5999755859375</AltitudeMeters>
            <DistanceMeters>23581.805725547</DistanceMeters>
          </Trackpoint>
          <Trackpoint>
            <Time>2018-08-26T06:39:50.000Z</Time>
            <Position>
              <LatitudeDegrees>42.88939478807151317596435546875</LatitudeDegrees>
              <LongitudeDegrees>-1.77275215275585651397705078125</LongitudeDegrees>
            </Position>
            <AltitudeMeters>517.79998779296875</AltitudeMeters>
            <DistanceMeters>23587.366209496</DistanceMeters>
          </Trackpoint>
          <Trackpoint>
            <Time>2018-08-26T06:39:51.000Z</Time>
            <Position>
              <LatitudeDegrees>42.889414317905902862548828125</LatitudeDegrees>
              <LongitudeDegrees>-1.7728152684867382049560546875</LongitudeDegrees>
            </Position>
            <AltitudeMeters>518</AltitudeMeters>
            <DistanceMeters>23592.953424747</DistanceMeters>
          </Trackpoint>
          <Trackpoint>
            <Time>2018-08-26T06:39:52.000Z</Time>
            <Position>
              <LatitudeDegrees>42.88943368010222911834716796875</LatitudeDegrees>
              <LongitudeDegrees>-1.772878803312778472900390625</LongitudeDegrees>
            </Position>
            <AltitudeMeters>517.79998779296875</AltitudeMeters>
            <DistanceMeters>23598.564830681</DistanceMeters>
          </Trackpoint>
          <Trackpoint>
            <Time>2018-08-26T06:39:53.000Z</Time>
            <Position>
              <LatitudeDegrees>42.8894523717463016510009765625</LatitudeDegrees>
              <LongitudeDegrees>-1.7729430086910724639892578125</LongitudeDegrees>
            </Position>
            <AltitudeMeters>518</AltitudeMeters>
            <DistanceMeters>23604.199522224</DistanceMeters>
          </Trackpoint>
          <Trackpoint>
            <Time>2018-08-26T06:39:54.000Z</Time>
            <Position>
              <LatitudeDegrees>42.889470644295215606689453125</LatitudeDegrees>
              <LongitudeDegrees>-1.7730073817074298858642578125</LongitudeDegrees>
            </Position>
            <AltitudeMeters>518.20001220703125</AltitudeMeters>
            <DistanceMeters>23609.829403956</DistanceMeters>
          </Trackpoint>
          <Trackpoint>
            <Time>2018-08-26T06:39:55.000Z</Time>
            <Position>
              <LatitudeDegrees>42.8894890844821929931640625</LatitudeDegrees>
              <LongitudeDegrees>-1.77307225763797760009765625</LongitudeDegrees>
            </Position>
            <AltitudeMeters>518.4000244140625</AltitudeMeters>
            <DistanceMeters>23615.503222998</DistanceMeters>
          </Trackpoint>
          <Trackpoint>
            <Time>2018-08-26T06:39:56.000Z</Time>
            <Position>
              <LatitudeDegrees>42.8895073570311069488525390625</LatitudeDegrees>
              <LongitudeDegrees>-1.7731364630162715911865234375</LongitudeDegrees>
            </Position>
            <AltitudeMeters>518.5999755859375</AltitudeMeters>
            <DistanceMeters>23621.120258435</DistanceMeters>
          </Trackpoint>
          <Trackpoint>
            <Time>2018-08-26T06:39:57.000Z</Time>
            <Position>
              <LatitudeDegrees>42.88952571339905261993408203125</LatitudeDegrees>
              <LongitudeDegrees>-1.77320175804197788238525390625</LongitudeDegrees>
            </Position>
            <AltitudeMeters>518.5999755859375</AltitudeMeters>
            <DistanceMeters>23626.823444855</DistanceMeters>
          </Trackpoint>
          <Trackpoint>
            <Time>2018-08-26T06:39:58.000Z</Time>
            <Position>
              <LatitudeDegrees>42.88954415358603000640869140625</LatitudeDegrees>
              <LongitudeDegrees>-1.7732692323625087738037109375</LongitudeDegrees>
            </Position>
            <AltitudeMeters>518.79998779296875</AltitudeMeters>
            <DistanceMeters>23632.696680081</DistanceMeters>
          </Trackpoint>
          <Trackpoint>
            <Time>2018-08-26T06:39:59.000Z</Time>
            <Position>
              <LatitudeDegrees>42.88956343196332454681396484375</LatitudeDegrees>
              <LongitudeDegrees>-1.77333888597786426544189453125</LongitudeDegrees>
            </Position>
            <AltitudeMeters>519</AltitudeMeters>
            <DistanceMeters>23638.767987358</DistanceMeters>
          </Trackpoint>
          <Trackpoint>
            <Time>2018-08-26T06:40:00.000Z</Time>
            <Position>
              <LatitudeDegrees>42.88958405144512653350830078125</LatitudeDegrees>
              <LongitudeDegrees>-1.7734110541641712188720703125</LongitudeDegrees>
            </Position>
            <AltitudeMeters>519.20001220703125</AltitudeMeters>
            <DistanceMeters>23645.084226565</DistanceMeters>
          </Trackpoint>
          <Trackpoint>
            <Time>2018-08-26T06:40:01.000Z</Time>
            <Position>
              <LatitudeDegrees>42.889606095850467681884765625</LatitudeDegrees>
              <LongitudeDegrees>-1.773485653102397918701171875</LongitudeDegrees>
            </Position>
            <AltitudeMeters>519.4000244140625</AltitudeMeters>
            <DistanceMeters>23651.64451195</DistanceMeters>
          </Trackpoint>
          <Trackpoint>
            <Time>2018-08-26T06:40:02.000Z</Time>
            <Position>
              <LatitudeDegrees>42.8896287269890308380126953125</LatitudeDegrees>
              <LongitudeDegrees>-1.77356243133544921875</LongitudeDegrees>
            </Position>
            <AltitudeMeters>519.5999755859375</AltitudeMeters>
            <DistanceMeters>23658.393415979</DistanceMeters>
          </Trackpoint>
          <Trackpoint>
            <Time>2018-08-26T06:40:03.000Z</Time>
            <Position>
              <LatitudeDegrees>42.889651358127593994140625</LatitudeDegrees>
              <LongitudeDegrees>-1.77364214323461055755615234375</LongitudeDegrees>
            </Position>
            <AltitudeMeters>519.79998779296875</AltitudeMeters>
            <DistanceMeters>23665.364129094</DistanceMeters>
          </Trackpoint>
          <Trackpoint>
            <Time>2018-08-26T06:40:04.000Z</Time>
            <Position>
              <LatitudeDegrees>42.88967407308518886566162109375</LatitudeDegrees>
              <LongitudeDegrees>-1.77372361533343791961669921875</LongitudeDegrees>
            </Position>
            <AltitudeMeters>520</AltitudeMeters>
            <DistanceMeters>23672.4727371</DistanceMeters>
          </Trackpoint>
          <Trackpoint>
            <Time>2018-08-26T06:40:05.000Z</Time>
            <Position>
              <LatitudeDegrees>42.8896971233189105987548828125</LatitudeDegrees>
              <LongitudeDegrees>-1.7738070152699947357177734375</LongitudeDegrees>
            </Position>
            <AltitudeMeters>520.20001220703125</AltitudeMeters>
            <DistanceMeters>23679.741504346</DistanceMeters>
          </Trackpoint>
          <Trackpoint>
            <Time>2018-08-26T06:40:06.000Z</Time>
            <Position>
              <LatitudeDegrees>42.8897205926477909088134765625</LatitudeDegrees>
              <LongitudeDegrees>-1.77389276213943958282470703125</LongitudeDegrees>
            </Position>
            <AltitudeMeters>520.4000244140625</AltitudeMeters>
            <DistanceMeters>23687.20639562</DistanceMeters>
          </Trackpoint>
          <Trackpoint>
            <Time>2018-08-26T06:40:07.000Z</Time>
            <Position>
              <LatitudeDegrees>42.8897450678050518035888671875</LatitudeDegrees>
              <LongitudeDegrees>-1.77398127503693103790283203125</LongitudeDegrees>
            </Position>
            <AltitudeMeters>520.5999755859375</AltitudeMeters>
            <DistanceMeters>23694.92172218</DistanceMeters>
          </Trackpoint>
          <Trackpoint>
            <Time>2018-08-26T06:40:08.000Z</Time>
            <Position>
              <LatitudeDegrees>42.8897702135145664215087890625</LatitudeDegrees>
              <LongitudeDegrees>-1.77407247014343738555908203125</LongitudeDegrees>
            </Position>
            <AltitudeMeters>520.5999755859375</AltitudeMeters>
            <DistanceMeters>23702.867114833</DistanceMeters>
          </Trackpoint>
          <Trackpoint>
            <Time>2018-08-26T06:40:09.000Z</Time>
            <Position>
              <LatitudeDegrees>42.889796532690525054931640625</LatitudeDegrees>
              <LongitudeDegrees>-1.774164922535419464111328125</LongitudeDegrees>
            </Position>
            <AltitudeMeters>520.79998779296875</AltitudeMeters>
            <DistanceMeters>23710.954999214</DistanceMeters>
          </Trackpoint>
          <Trackpoint>
            <Time>2018-08-26T06:40:10.000Z</Time>
            <Position>
              <LatitudeDegrees>42.8898238576948642730712890625</LatitudeDegrees>
              <LongitudeDegrees>-1.77425905130803585052490234375</LongitudeDegrees>
            </Position>
            <AltitudeMeters>520.79998779296875</AltitudeMeters>
            <DistanceMeters>23719.210846657</DistanceMeters>
          </Trackpoint>
          <Trackpoint>
            <Time>2018-08-26T06:40:11.000Z</Time>
            <Position>
              <LatitudeDegrees>42.88985185325145721435546875</LatitudeDegrees>
              <LongitudeDegrees>-1.7743572033941745758056640625</LongitudeDegrees>
            </Position>
            <AltitudeMeters>520.79998779296875</AltitudeMeters>
            <DistanceMeters>23727.799074902</DistanceMeters>
          </Trackpoint>
          <Trackpoint>
            <Time>2018-08-26T06:40:12.000Z</Time>
            <Position>
              <LatitudeDegrees>42.88988160900771617889404296875</LatitudeDegrees>
              <LongitudeDegrees>-1.7744591273367404937744140625</LongitudeDegrees>
            </Position>
            <AltitudeMeters>520.79998779296875</AltitudeMeters>
            <DistanceMeters>23736.746232422</DistanceMeters>
          </Trackpoint>
          <Trackpoint>
            <Time>2018-08-26T06:40:13.000Z</Time>
            <Position>
              <LatitudeDegrees>42.8899117000401020050048828125</LatitudeDegrees>
              <LongitudeDegrees>-1.774562895298004150390625</LongitudeDegrees>
            </Position>
            <AltitudeMeters>520.79998779296875</AltitudeMeters>
            <DistanceMeters>23745.847490094</DistanceMeters>
          </Trackpoint>
          <Trackpoint>
            <Time>2018-08-26T06:40:14.000Z</Time>
            <Position>
              <LatitudeDegrees>42.8899418748915195465087890625</LatitudeDegrees>
              <LongitudeDegrees>-1.77466825582087039947509765625</LongitudeDegrees>
            </Position>
            <AltitudeMeters>520.79998779296875</AltitudeMeters>
            <DistanceMeters>23755.072425888</DistanceMeters>
          </Trackpoint>
          <Trackpoint>
            <Time>2018-08-26T06:40:15.000Z</Time>
            <Position>
              <LatitudeDegrees>42.889973223209381103515625</LatitudeDegrees>
              <LongitudeDegrees>-1.77477554418146610260009765625</LongitudeDegrees>
            </Position>
            <AltitudeMeters>520.79998779296875</AltitudeMeters>
            <DistanceMeters>23764.491102599</DistanceMeters>
          </Trackpoint>
          <Trackpoint>
            <Time>2018-08-26T06:40:16.000Z</Time>
            <Position>
              <LatitudeDegrees>42.890005409717559814453125</LatitudeDegrees>
              <LongitudeDegrees>-1.7748852632939815521240234375</LongitudeDegrees>
            </Position>
            <AltitudeMeters>520.79998779296875</AltitudeMeters>
            <DistanceMeters>23774.128704288</DistanceMeters>
          </Trackpoint>
          <Trackpoint>
            <Time>2018-08-26T06:40:17.000Z</Time>
            <Position>
              <LatitudeDegrees>42.8900380991399288177490234375</LatitudeDegrees>
              <LongitudeDegrees>-1.77499682642519474029541015625</LongitudeDegrees>
            </Position>
            <AltitudeMeters>520.79998779296875</AltitudeMeters>
            <DistanceMeters>23783.927059902</DistanceMeters>
          </Trackpoint>
          <Trackpoint>
            <Time>2018-08-26T06:40:18.000Z</Time>
            <Position>
              <LatitudeDegrees>42.89007179439067840576171875</LatitudeDegrees>
              <LongitudeDegrees>-1.775110401213169097900390625</LongitudeDegrees>
            </Position>
            <AltitudeMeters>520.79998779296875</AltitudeMeters>
            <DistanceMeters>23793.918882817</DistanceMeters>
          </Trackpoint>
          <Trackpoint>
            <Time>2018-08-26T06:40:19.000Z</Time>
            <Position>
              <LatitudeDegrees>42.89010758511722087860107421875</LatitudeDegrees>
              <LongitudeDegrees>-1.77522548474371433258056640625</LongitudeDegrees>
            </Position>
            <AltitudeMeters>520.79998779296875</AltitudeMeters>
            <DistanceMeters>23804.113792325</DistanceMeters>
          </Trackpoint>
          <Trackpoint>
            <Time>2018-08-26T06:40:20.000Z</Time>
            <Position>
              <LatitudeDegrees>42.890145219862461090087890625</LatitudeDegrees>
              <LongitudeDegrees>-1.77534216083586215972900390625</LongitudeDegrees>
            </Position>
            <AltitudeMeters>520.79998779296875</AltitudeMeters>
            <DistanceMeters>23814.509558525</DistanceMeters>
          </Trackpoint>
          <Trackpoint>
            <Time>2018-08-26T06:40:21.000Z</Time>
            <Position>
              <LatitudeDegrees>42.89018520154058933258056640625</LatitudeDegrees>
              <LongitudeDegrees>-1.7754599265754222869873046875</LongitudeDegrees>
            </Position>
            <AltitudeMeters>520.5999755859375</AltitudeMeters>
            <DistanceMeters>23825.093845386</DistanceMeters>
          </Trackpoint>
          <Trackpoint>
            <Time>2018-08-26T06:40:22.000Z</Time>
            <Position>
              <LatitudeDegrees>42.89022979326546192169189453125</LatitudeDegrees>
              <LongitudeDegrees>-1.7755781114101409912109375</LongitudeDegrees>
            </Position>
            <AltitudeMeters>520.5999755859375</AltitudeMeters>
            <DistanceMeters>23835.934390338</DistanceMeters>
          </Trackpoint>
          <Trackpoint>
            <Time>2018-08-26T06:40:23.000Z</Time>
            <Position>
              <LatitudeDegrees>42.89027907885611057281494140625</LatitudeDegrees>
              <LongitudeDegrees>-1.77569688297808170318603515625</LongitudeDegrees>
            </Position>
            <AltitudeMeters>520.4000244140625</AltitudeMeters>
            <DistanceMeters>23847.065097809</DistanceMeters>
          </Trackpoint>
          <Trackpoint>
            <Time>2018-08-26T06:40:24.000Z</Time>
            <Position>
              <LatitudeDegrees>42.89033305831253528594970703125</LatitudeDegrees>
              <LongitudeDegrees>-1.77581389434635639190673828125</LongitudeDegrees>
            </Position>
            <AltitudeMeters>520.20001220703125</AltitudeMeters>
            <DistanceMeters>23858.340889414</DistanceMeters>
          </Trackpoint>
          <Trackpoint>
            <Time>2018-08-26T06:40:25.000Z</Time>
            <Position>
              <LatitudeDegrees>42.89039005525410175323486328125</LatitudeDegrees>
              <LongitudeDegrees>-1.7759269662201404571533203125</LongitudeDegrees>
            </Position>
            <AltitudeMeters>519.79998779296875</AltitudeMeters>
            <DistanceMeters>23869.533084035</DistanceMeters>
          </Trackpoint>
          <Trackpoint>
            <Time>2018-08-26T06:40:26.000Z</Time>
            <Position>
              <LatitudeDegrees>42.8904494829475879669189453125</LatitudeDegrees>
              <LongitudeDegrees>-1.77603886462748050689697265625</LongitudeDegrees>
            </Position>
            <AltitudeMeters>519.5999755859375</AltitudeMeters>
            <DistanceMeters>23880.803268384</DistanceMeters>
          </Trackpoint>
          <Trackpoint>
            <Time>2018-08-26T06:40:27.000Z</Time>
            <Position>
              <LatitudeDegrees>42.890512682497501373291015625</LatitudeDegrees>
              <LongitudeDegrees>-1.77614984102547168731689453125</LongitudeDegrees>
            </Position>
            <AltitudeMeters>519</AltitudeMeters>
            <DistanceMeters>23892.26571194</DistanceMeters>
          </Trackpoint>
          <Trackpoint>
            <Time>2018-08-26T06:40:28.000Z</Time>
            <Position>
              <LatitudeDegrees>42.89057982154190540313720703125</LatitudeDegrees>
              <LongitudeDegrees>-1.77625847049057483673095703125</LongitudeDegrees>
            </Position>
            <AltitudeMeters>518.4000244140625</AltitudeMeters>
            <DistanceMeters>23903.855075901</DistanceMeters>
          </Trackpoint>
          <Trackpoint>
            <Time>2018-08-26T06:40:29.000Z</Time>
            <Position>
              <LatitudeDegrees>42.890650816261768341064453125</LatitudeDegrees>
              <LongitudeDegrees>-1.77636257372796535491943359375</LongitudeDegrees>
            </Position>
            <AltitudeMeters>518</AltitudeMeters>
            <DistanceMeters>23915.453007557</DistanceMeters>
          </Trackpoint>
          <Trackpoint>
            <Time>2018-08-26T06:40:30.000Z</Time>
            <Position>
              <LatitudeDegrees>42.89072566665709018707275390625</LatitudeDegrees>
              <LongitudeDegrees>-1.77646265365183353424072265625</LongitudeDegrees>
            </Position>
            <AltitudeMeters>517.4000244140625</AltitudeMeters>
            <DistanceMeters>23927.115383447</DistanceMeters>
          </Trackpoint>
          <Trackpoint>
            <Time>2018-08-26T06:40:31.000Z</Time>
            <Position>
              <LatitudeDegrees>42.8908038698136806488037109375</LatitudeDegrees>
              <LongitudeDegrees>-1.77656047046184539794921875</LongitudeDegrees>
            </Position>
            <AltitudeMeters>516.79998779296875</AltitudeMeters>
            <DistanceMeters>23938.921663979</DistanceMeters>
          </Trackpoint>
          <Trackpoint>
            <Time>2018-08-26T06:40:32.000Z</Time>
            <Position>
              <LatitudeDegrees>42.8908850066363811492919921875</LatitudeDegrees>
              <LongitudeDegrees>-1.7766565270721912384033203125</LongitudeDegrees>
            </Position>
            <AltitudeMeters>516.20001220703125</AltitudeMeters>
            <DistanceMeters>23950.876160614</DistanceMeters>
          </Trackpoint>
          <Trackpoint>
            <Time>2018-08-26T06:40:33.000Z</Time>
            <Position>
              <LatitudeDegrees>42.89096890948712825775146484375</LatitudeDegrees>
              <LongitudeDegrees>-1.77674545906484127044677734375</LongitudeDegrees>
            </Position>
            <AltitudeMeters>515.5999755859375</AltitudeMeters>
            <DistanceMeters>23962.700019692</DistanceMeters>
          </Trackpoint>
          <Trackpoint>
            <Time>2018-08-26T06:40:34.000Z</Time>
            <Position>
              <LatitudeDegrees>42.89104635827243328094482421875</LatitudeDegrees>
              <LongitudeDegrees>-1.77683346904814243316650390625</LongitudeDegrees>
            </Position>
            <AltitudeMeters>515</AltitudeMeters>
            <DistanceMeters>23973.916795303</DistanceMeters>
          </Trackpoint>
          <Trackpoint>
            <Time>2018-08-26T06:40:35.000Z</Time>
            <Position>
              <LatitudeDegrees>42.89112498052418231964111328125</LatitudeDegrees>
              <LongitudeDegrees>-1.7769227363169193267822265625</LongitudeDegrees>
            </Position>
            <AltitudeMeters>514.5999755859375</AltitudeMeters>
            <DistanceMeters>23985.299393285</DistanceMeters>
          </Trackpoint>
          <Trackpoint>
            <Time>2018-08-26T06:40:36.000Z</Time>
            <Position>
              <LatitudeDegrees>42.891200669109821319580078125</LatitudeDegrees>
              <LongitudeDegrees>-1.77700060419738292694091796875</LongitudeDegrees>
            </Position>
            <AltitudeMeters>514.4000244140625</AltitudeMeters>
            <DistanceMeters>23995.848214642</DistanceMeters>
          </Trackpoint>
          <Trackpoint>
            <Time>2018-08-26T06:40:37.000Z</Time>
            <Position>
              <LatitudeDegrees>42.89127350784838199615478515625</LatitudeDegrees>
              <LongitudeDegrees>-1.77708475850522518157958984375</LongitudeDegrees>
            </Position>
            <AltitudeMeters>514</AltitudeMeters>
            <DistanceMeters>24006.469549069</DistanceMeters>
          </Trackpoint>
          <Trackpoint>
            <Time>2018-08-26T06:40:38.000Z</Time>
            <Position>
              <LatitudeDegrees>42.89135414175689220428466796875</LatitudeDegrees>
              <LongitudeDegrees>-1.777171678841114044189453125</LongitudeDegrees>
            </Position>
            <AltitudeMeters>513.4000244140625</AltitudeMeters>
            <DistanceMeters>24017.905965781</DistanceMeters>
          </Trackpoint>
          <Trackpoint>
            <Time>2018-08-26T06:40:39.000Z</Time>
            <Position>
              <LatitudeDegrees>42.89143008179962635040283203125</LatitudeDegrees>
              <LongitudeDegrees>-1.77725055254995822906494140625</LongitudeDegrees>
            </Position>
            <AltitudeMeters>512.79998779296875</AltitudeMeters>
            <DistanceMeters>24028.527300208</DistanceMeters>
          </Trackpoint>
          <Trackpoint>
            <Time>2018-08-26T06:40:40.000Z</Time>
            <Position>
              <LatitudeDegrees>42.8915076144039630889892578125</LatitudeDegrees>
              <LongitudeDegrees>-1.7773295938968658447265625</LongitudeDegrees>
            </Position>
            <AltitudeMeters>512.4000244140625</AltitudeMeters>
            <DistanceMeters>24039.298485015</DistanceMeters>
          </Trackpoint>
          <Trackpoint>
            <Time>2018-08-26T06:40:41.000Z</Time>
            <Position>
              <LatitudeDegrees>42.89158296771347522735595703125</LatitudeDegrees>
              <LongitudeDegrees>-1.7774068750441074371337890625</LongitudeDegrees>
            </Position>
            <AltitudeMeters>511.79998779296875</AltitudeMeters>
            <DistanceMeters>24049.789365422</DistanceMeters>
          </Trackpoint>
          <Trackpoint>
            <Time>2018-08-26T06:40:42.000Z</Time>
            <Position>
              <LatitudeDegrees>42.8916591592133045196533203125</LatitudeDegrees>
              <LongitudeDegrees>-1.77748641930520534515380859375</LongitudeDegrees>
            </Position>
            <AltitudeMeters>511</AltitudeMeters>
            <DistanceMeters>24060.465818716</DistanceMeters>
          </Trackpoint>
          <Trackpoint>
            <Time>2018-08-26T06:40:43.000Z</Time>
            <Position>
              <LatitudeDegrees>42.8917372785508632659912109375</LatitudeDegrees>
              <LongitudeDegrees>-1.777565293014049530029296875</LongitudeDegrees>
            </Position>
            <AltitudeMeters>510.600006103515625</AltitudeMeters>
            <DistanceMeters>24071.281345068</DistanceMeters>
          </Trackpoint>
          <Trackpoint>
            <Time>2018-08-26T06:40:44.000Z</Time>
            <Position>
              <LatitudeDegrees>42.89181648753583431243896484375</LatitudeDegrees>
              <LongitudeDegrees>-1.777646429836750030517578125</LongitudeDegrees>
            </Position>
            <AltitudeMeters>510.20001220703125</AltitudeMeters>
            <DistanceMeters>24082.304443935</DistanceMeters>
          </Trackpoint>
          <Trackpoint>
            <Time>2018-08-26T06:40:45.000Z</Time>
            <Position>
              <LatitudeDegrees>42.891895361244678497314453125</LatitudeDegrees>
              <LongitudeDegrees>-1.77772857248783111572265625</LongitudeDegrees>
            </Position>
            <AltitudeMeters>509.79998779296875</AltitudeMeters>
            <DistanceMeters>24093.347185999</DistanceMeters>
          </Trackpoint>
          <Trackpoint>
            <Time>2018-08-26T06:40:46.000Z</Time>
            <Position>
              <LatitudeDegrees>42.89197289384901523590087890625</LatitudeDegrees>
              <LongitudeDegrees>-1.77781046368181705474853515625</LongitudeDegrees>
            </Position>
            <AltitudeMeters>509.79998779296875</AltitudeMeters>
            <DistanceMeters>24104.258719251</DistanceMeters>
          </Trackpoint>
          <Trackpoint>
            <Time>2018-08-26T06:40:47.000Z</Time>
            <Position>
              <LatitudeDegrees>42.8920490853488445281982421875</LatitudeDegrees>
              <LongitudeDegrees>-1.777891181409358978271484375</LongitudeDegrees>
            </Position>
            <AltitudeMeters>509.600006103515625</AltitudeMeters>
            <DistanceMeters>24114.993794266</DistanceMeters>
          </Trackpoint>
          <Trackpoint>
            <Time>2018-08-26T06:40:48.000Z</Time>
            <Position>
              <LatitudeDegrees>42.8921258635818958282470703125</LatitudeDegrees>
              <LongitudeDegrees>-1.7779706418514251708984375</LongitudeDegrees>
            </Position>
            <AltitudeMeters>509.399993896484375</AltitudeMeters>
            <DistanceMeters>24125.717928431</DistanceMeters>
          </Trackpoint>
          <Trackpoint>
            <Time>2018-08-26T06:40:49.000Z</Time>
            <Position>
              <LatitudeDegrees>42.89220306091010570526123046875</LatitudeDegrees>
              <LongitudeDegrees>-1.7780489288270473480224609375</LongitudeDegrees>
            </Position>
            <AltitudeMeters>509.399993896484375</AltitudeMeters>
            <DistanceMeters>24136.421834724</DistanceMeters>
          </Trackpoint>
          <Trackpoint>
            <Time>2018-08-26T06:40:50.000Z</Time>
            <Position>
              <LatitudeDegrees>42.8922812640666961669921875</LatitudeDegrees>
              <LongitudeDegrees>-1.77812646143138408660888671875</LongitudeDegrees>
            </Position>
            <AltitudeMeters>509.20001220703125</AltitudeMeters>
            <DistanceMeters>24147.179597489</DistanceMeters>
          </Trackpoint>
          <Trackpoint>
            <Time>2018-08-26T06:40:51.000Z</Time>
            <Position>
              <LatitudeDegrees>42.8923561982810497283935546875</LatitudeDegrees>
              <LongitudeDegrees>-1.77820458076894283294677734375</LongitudeDegrees>
            </Position>
            <AltitudeMeters>509</AltitudeMeters>
            <DistanceMeters>24157.674780787</DistanceMeters>
          </Trackpoint>
          <Trackpoint>
            <Time>2018-08-26T06:40:52.000Z</Time>
            <Position>
              <LatitudeDegrees>42.8924289532005786895751953125</LatitudeDegrees>
              <LongitudeDegrees>-1.77828353829681873321533203125</LongitudeDegrees>
            </Position>
            <AltitudeMeters>508.79998779296875</AltitudeMeters>
            <DistanceMeters>24168.020480188</DistanceMeters>
          </Trackpoint>
          <Trackpoint>
            <Time>2018-08-26T06:40:53.000Z</Time>
            <Position>
              <LatitudeDegrees>42.89250053465366363525390625</LatitudeDegrees>
              <LongitudeDegrees>-1.7783634178340435028076171875</LongitudeDegrees>
            </Position>
            <AltitudeMeters>508.79998779296875</AltitudeMeters>
            <DistanceMeters>24178.311482886</DistanceMeters>
          </Trackpoint>
          <Trackpoint>
            <Time>2018-08-26T06:40:54.000Z</Time>
            <Position>
              <LatitudeDegrees>42.89257219992578029632568359375</LatitudeDegrees>
              <LongitudeDegrees>-1.77844204008579254150390625</LongitudeDegrees>
            </Position>
            <AltitudeMeters>508.600006103515625</AltitudeMeters>
            <DistanceMeters>24188.544849708</DistanceMeters>
          </Trackpoint>
          <Trackpoint>
            <Time>2018-08-26T06:40:55.000Z</Time>
            <Position>
              <LatitudeDegrees>42.89264227263629436492919921875</LatitudeDegrees>
              <LongitudeDegrees>-1.7785236798226833343505859375</LongitudeDegrees>
            </Position>
            <AltitudeMeters>508.20001220703125</AltitudeMeters>
            <DistanceMeters>24198.798932315</DistanceMeters>
          </Trackpoint>
          <Trackpoint>
            <Time>2018-08-26T06:40:56.000Z</Time>
            <Position>
              <LatitudeDegrees>42.892709411680698394775390625</LatitudeDegrees>
              <LongitudeDegrees>-1.77861345000565052032470703125</LongitudeDegrees>
            </Position>
            <AltitudeMeters>507.79998779296875</AltitudeMeters>
            <DistanceMeters>24209.25964292</DistanceMeters>
          </Trackpoint>
          <Trackpoint>
            <Time>2018-08-26T06:40:57.000Z</Time>
            <Position>
              <LatitudeDegrees>42.89277168922126293182373046875</LatitudeDegrees>
              <LongitudeDegrees>-1.77871168591082096099853515625</LongitudeDegrees>
            </Position>
            <AltitudeMeters>507.600006103515625</AltitudeMeters>
            <DistanceMeters>24219.852457932</DistanceMeters>
          </Trackpoint>
          <Trackpoint>
            <Time>2018-08-26T06:40:58.000Z</Time>
            <Position>
              <LatitudeDegrees>42.8928309492766857147216796875</LatitudeDegrees>
              <LongitudeDegrees>-1.77881578914821147918701171875</LongitudeDegrees>
            </Position>
            <AltitudeMeters>507.600006103515625</AltitudeMeters>
            <DistanceMeters>24230.60224343</DistanceMeters>
          </Trackpoint>
          <Trackpoint>
            <Time>2018-08-26T06:40:59.000Z</Time>
            <Position>
              <LatitudeDegrees>42.89288937114179134368896484375</LatitudeDegrees>
              <LongitudeDegrees>-1.7789236642420291900634765625</LongitudeDegrees>
            </Position>
            <AltitudeMeters>507.399993896484375</AltitudeMeters>
            <DistanceMeters>24241.541052459</DistanceMeters>
          </Trackpoint>
          <Trackpoint>
            <Time>2018-08-26T06:41:00.000Z</Time>
            <Position>
              <LatitudeDegrees>42.8929464519023895263671875</LatitudeDegrees>
              <LongitudeDegrees>-1.77903422154486179351806640625</LongitudeDegrees>
            </Position>
            <AltitudeMeters>507.399993896484375</AltitudeMeters>
            <DistanceMeters>24252.569474813</DistanceMeters>
          </Trackpoint>
          <Trackpoint>
            <Time>2018-08-26T06:41:01.000Z</Time>
            <Position>
              <LatitudeDegrees>42.89300537668168544769287109375</LatitudeDegrees>
              <LongitudeDegrees>-1.77914746105670928955078125</LongitudeDegrees>
            </Position>
            <AltitudeMeters>507.20001220703125</AltitudeMeters>
            <DistanceMeters>24263.894809502</DistanceMeters>
          </Trackpoint>
          <Trackpoint>
            <Time>2018-08-26T06:41:02.000Z</Time>
            <Position>
              <LatitudeDegrees>42.89306572638452053070068359375</LatitudeDegrees>
              <LongitudeDegrees>-1.77926187403500080108642578125</LongitudeDegrees>
            </Position>
            <AltitudeMeters>507.20001220703125</AltitudeMeters>
            <DistanceMeters>24275.390685665</DistanceMeters>
          </Trackpoint>
          <Trackpoint>
            <Time>2018-08-26T06:41:03.000Z</Time>
            <Position>
              <LatitudeDegrees>42.89312775246798992156982421875</LatitudeDegrees>
              <LongitudeDegrees>-1.7793793044984340667724609375</LongitudeDegrees>
            </Position>
            <AltitudeMeters>507.20001220703125</AltitudeMeters>
            <DistanceMeters>24287.19543639</DistanceMeters>
          </Trackpoint>
          <Trackpoint>
            <Time>2018-08-26T06:41:04.000Z</Time>
            <Position>
              <LatitudeDegrees>42.8931900300085544586181640625</LatitudeDegrees>
              <LongitudeDegrees>-1.77949656732380390167236328125</LongitudeDegrees>
            </Position>
            <AltitudeMeters>506.79998779296875</AltitudeMeters>
            <DistanceMeters>24299.00554057</DistanceMeters>
          </Trackpoint>
          <Trackpoint>
            <Time>2018-08-26T06:41:05.000Z</Time>
            <Position>
              <LatitudeDegrees>42.8932522237300872802734375</LatitudeDegrees>
              <LongitudeDegrees>-1.77961559034883975982666015625</LongitudeDegrees>
            </Position>
            <AltitudeMeters>506.20001220703125</AltitudeMeters>
            <DistanceMeters>24310.926375818</DistanceMeters>
          </Trackpoint>
          <Trackpoint>
            <Time>2018-08-26T06:41:06.000Z</Time>
            <Position>
              <LatitudeDegrees>42.89331399835646152496337890625</LatitudeDegrees>
              <LongitudeDegrees>-1.7797333560883998870849609375</LongitudeDegrees>
            </Position>
            <AltitudeMeters>506</AltitudeMeters>
            <DistanceMeters>24322.736862295</DistanceMeters>
          </Trackpoint>
          <Trackpoint>
            <Time>2018-08-26T06:41:07.000Z</Time>
            <Position>
              <LatitudeDegrees>42.89337451569736003875732421875</LatitudeDegrees>
              <LongitudeDegrees>-1.77984709851443767547607421875</LongitudeDegrees>
            </Position>
            <AltitudeMeters>505.600006103515625</AltitudeMeters>
            <DistanceMeters>24334.19930585</DistanceMeters>
          </Trackpoint>
          <Trackpoint>
            <Time>2018-08-26T06:41:08.000Z</Time>
            <Position>
              <LatitudeDegrees>42.89343285374343395233154296875</LatitudeDegrees>
              <LongitudeDegrees>-1.77995991893112659454345703125</LongitudeDegrees>
            </Position>
            <AltitudeMeters>505.399993896484375</AltitudeMeters>
            <DistanceMeters>24345.459069315</DistanceMeters>
          </Trackpoint>
          <Trackpoint>
            <Time>2018-08-26T06:41:09.000Z</Time>
            <Position>
              <LatitudeDegrees>42.89348968304693698883056640625</LatitudeDegrees>
              <LongitudeDegrees>-1.78007408045232295989990234375</LongitudeDegrees>
            </Position>
            <AltitudeMeters>505.20001220703125</AltitudeMeters>
            <DistanceMeters>24356.713618718</DistanceMeters>
          </Trackpoint>
          <Trackpoint>
            <Time>2018-08-26T06:41:10.000Z</Time>
            <Position>
              <LatitudeDegrees>42.89354701526463031768798828125</LatitudeDegrees>
              <LongitudeDegrees>-1.7801896668970584869384765625</LongitudeDegrees>
            </Position>
            <AltitudeMeters>504.79998779296875</AltitudeMeters>
            <DistanceMeters>24368.095820032</DistanceMeters>
          </Trackpoint>
          <Trackpoint>
            <Time>2018-08-26T06:41:11.000Z</Time>
            <Position>
              <LatitudeDegrees>42.89360518567264080047607421875</LatitudeDegrees>
              <LongitudeDegrees>-1.78030692972242832183837890625</LongitudeDegrees>
            </Position>
            <AltitudeMeters>504.399993896484375</AltitudeMeters>
            <DistanceMeters>24379.643814183</DistanceMeters>
          </Trackpoint>
          <Trackpoint>
            <Time>2018-08-26T06:41:12.000Z</Time>
            <Position>
              <LatitudeDegrees>42.8936641104519367218017578125</LatitudeDegrees>
              <LongitudeDegrees>-1.780423857271671295166015625</LongitudeDegrees>
            </Position>
            <AltitudeMeters>503.79998779296875</AltitudeMeters>
            <DistanceMeters>24391.216023725</DistanceMeters>
          </Trackpoint>
          <Trackpoint>
            <Time>2018-08-26T06:41:13.000Z</Time>
            <Position>
              <LatitudeDegrees>42.89372387342154979705810546875</LatitudeDegrees>
              <LongitudeDegrees>-1.78054061718285083770751953125</LongitudeDegrees>
            </Position>
            <AltitudeMeters>503</AltitudeMeters>
            <DistanceMeters>24402.83029434</DistanceMeters>
          </Trackpoint>
          <Trackpoint>
            <Time>2018-08-26T06:41:14.000Z</Time>
            <Position>
              <LatitudeDegrees>42.8937841393053531646728515625</LatitudeDegrees>
              <LongitudeDegrees>-1.78065980784595012664794921875</LongitudeDegrees>
            </Position>
            <AltitudeMeters>502.600006103515625</AltitudeMeters>
            <DistanceMeters>24414.638869209</DistanceMeters>
          </Trackpoint>
          <Trackpoint>
            <Time>2018-08-26T06:41:15.000Z</Time>
            <Position>
              <LatitudeDegrees>42.893845997750759124755859375</LatitudeDegrees>
              <LongitudeDegrees>-1.78078050725162029266357421875</LongitudeDegrees>
            </Position>
            <AltitudeMeters>502</AltitudeMeters>
            <DistanceMeters>24426.649885039</DistanceMeters>
          </Trackpoint>
          <Trackpoint>
            <Time>2018-08-26T06:41:16.000Z</Time>
            <Position>
              <LatitudeDegrees>42.89390810765326023101806640625</LatitudeDegrees>
              <LongitudeDegrees>-1.7809021286666393280029296875</LongitudeDegrees>
            </Position>
            <AltitudeMeters>501.399993896484375</AltitudeMeters>
            <DistanceMeters>24438.738836903</DistanceMeters>
          </Trackpoint>
          <Trackpoint>
            <Time>2018-08-26T06:41:17.000Z</Time>
            <Position>
              <LatitudeDegrees>42.89396946318447589874267578125</LatitudeDegrees>
              <LongitudeDegrees>-1.781025342643260955810546875</LongitudeDegrees>
            </Position>
            <AltitudeMeters>501</AltitudeMeters>
            <DistanceMeters>24450.886656018</DistanceMeters>
          </Trackpoint>
          <Trackpoint>
            <Time>2018-08-26T06:41:18.000Z</Time>
            <Position>
              <LatitudeDegrees>42.894031070172786712646484375</LatitudeDegrees>
              <LongitudeDegrees>-1.78114914335310459136962890625</LongitudeDegrees>
            </Position>
            <AltitudeMeters>500.600006103515625</AltitudeMeters>
            <DistanceMeters>24463.090099004</DistanceMeters>
          </Trackpoint>
          <Trackpoint>
            <Time>2018-08-26T06:41:19.000Z</Time>
            <Position>
              <LatitudeDegrees>42.89409250952303409576416015625</LatitudeDegrees>
              <LongitudeDegrees>-1.7812716029584407806396484375</LongitudeDegrees>
            </Position>
            <AltitudeMeters>500.20001220703125</AltitudeMeters>
            <DistanceMeters>24475.192488847</DistanceMeters>
          </Trackpoint>
          <Trackpoint>
            <Time>2018-08-26T06:41:20.000Z</Time>
            <Position>
              <LatitudeDegrees>42.89415420033037662506103515625</LatitudeDegrees>
              <LongitudeDegrees>-1.78139154799282550811767578125</LongitudeDegrees>
            </Position>
            <AltitudeMeters>500</AltitudeMeters>
            <DistanceMeters>24487.142452399</DistanceMeters>
          </Trackpoint>
          <Trackpoint>
            <Time>2018-08-26T06:41:21.000Z</Time>
            <Position>
              <LatitudeDegrees>42.89421471767127513885498046875</LatitudeDegrees>
              <LongitudeDegrees>-1.7815086431801319122314453125</LongitudeDegrees>
            </Position>
            <AltitudeMeters>499.600006103515625</AltitudeMeters>
            <DistanceMeters>24498.827261162</DistanceMeters>
          </Trackpoint>
          <Trackpoint>
            <Time>2018-08-26T06:41:22.000Z</Time>
            <Position>
              <LatitudeDegrees>42.89427288807928562164306640625</LatitudeDegrees>
              <LongitudeDegrees>-1.78162355907261371612548828125</LongitudeDegrees>
            </Position>
            <AltitudeMeters>499.20001220703125</AltitudeMeters>
            <DistanceMeters>24510.216996813</DistanceMeters>
          </Trackpoint>
          <Trackpoint>
            <Time>2018-08-26T06:41:23.000Z</Time>
            <Position>
              <LatitudeDegrees>42.8943296335637569427490234375</LatitudeDegrees>
              <LongitudeDegrees>-1.78173420019447803497314453125</LongitudeDegrees>
            </Position>
            <AltitudeMeters>498.399993896484375</AltitudeMeters>
            <DistanceMeters>24521.230260943</DistanceMeters>
          </Trackpoint>
          <Trackpoint>
            <Time>2018-08-26T06:41:24.000Z</Time>
            <Position>
              <LatitudeDegrees>42.89438570849597454071044921875</LatitudeDegrees>
              <LongitudeDegrees>-1.78184048272669315338134765625</LongitudeDegrees>
            </Position>
            <AltitudeMeters>497.79998779296875</AltitudeMeters>
            <DistanceMeters>24531.910519631</DistanceMeters>
          </Trackpoint>
          <Trackpoint>
            <Time>2018-08-26T06:41:25.000Z</Time>
            <Position>
              <LatitudeDegrees>42.89443977177143096923828125</LatitudeDegrees>
              <LongitudeDegrees>-1.78194634616374969482421875</LongitudeDegrees>
            </Position>
            <AltitudeMeters>496.20001220703125</AltitudeMeters>
            <DistanceMeters>24542.433199772</DistanceMeters>
          </Trackpoint>
          <Trackpoint>
            <Time>2018-08-26T06:41:26.000Z</Time>
            <Position>
              <LatitudeDegrees>42.89449249394237995147705078125</LatitudeDegrees>
              <LongitudeDegrees>-1.78205237723886966705322265625</LongitudeDegrees>
            </Position>
            <AltitudeMeters>495.600006103515625</AltitudeMeters>
            <DistanceMeters>24552.882682264</DistanceMeters>
          </Trackpoint>
          <Trackpoint>
            <Time>2018-08-26T06:41:27.000Z</Time>
            <Position>
              <LatitudeDegrees>42.89454446174204349517822265625</LatitudeDegrees>
              <LongitudeDegrees>-1.78215882740914821624755859375</LongitudeDegrees>
            </Position>
            <AltitudeMeters>495.20001220703125</AltitudeMeters>
            <DistanceMeters>24563.314001507</DistanceMeters>
          </Trackpoint>
          <Trackpoint>
            <Time>2018-08-26T06:41:28.000Z</Time>
            <Position>
              <LatitudeDegrees>42.894597686827182769775390625</LatitudeDegrees>
              <LongitudeDegrees>-1.7822635173797607421875</LongitudeDegrees>
            </Position>
            <AltitudeMeters>495</AltitudeMeters>
            <DistanceMeters>24573.704989143</DistanceMeters>
          </Trackpoint>
          <Trackpoint>
            <Time>2018-08-26T06:41:29.000Z</Time>
            <Position>
              <LatitudeDegrees>42.8946523368358612060546875</LatitudeDegrees>
              <LongitudeDegrees>-1.7823659442365169525146484375</LongitudeDegrees>
            </Position>
            <AltitudeMeters>494.600006103515625</AltitudeMeters>
            <DistanceMeters>24584.037150762</DistanceMeters>
          </Trackpoint>
          <Trackpoint>
            <Time>2018-08-26T06:41:30.000Z</Time>
            <Position>
              <LatitudeDegrees>42.89470673538744449615478515625</LatitudeDegrees>
              <LongitudeDegrees>-1.7824671976268291473388671875</LongitudeDegrees>
            </Position>
            <AltitudeMeters>494.20001220703125</AltitudeMeters>
            <DistanceMeters>24594.275369716</DistanceMeters>
          </Trackpoint>
          <Trackpoint>
            <Time>2018-08-26T06:41:31.000Z</Time>
            <Position>
              <LatitudeDegrees>42.8947604633867740631103515625</LatitudeDegrees>
              <LongitudeDegrees>-1.78257037885487079620361328125</LongitudeDegrees>
            </Position>
            <AltitudeMeters>494</AltitudeMeters>
            <DistanceMeters>24604.597475701</DistanceMeters>
          </Trackpoint>
          <Trackpoint>
            <Time>2018-08-26T06:41:32.000Z</Time>
            <Position>
              <LatitudeDegrees>42.894815616309642791748046875</LatitudeDegrees>
              <LongitudeDegrees>-1.7826754041016101837158203125</LongitudeDegrees>
            </Position>
            <AltitudeMeters>493.79998779296875</AltitudeMeters>
            <DistanceMeters>24615.133877355</DistanceMeters>
          </Trackpoint>
          <Trackpoint>
            <Time>2018-08-26T06:41:33.000Z</Time>
            <Position>
              <LatitudeDegrees>42.89487185887992382049560546875</LatitudeDegrees>
              <LongitudeDegrees>-1.7827836982905864715576171875</LongitudeDegrees>
            </Position>
            <AltitudeMeters>493.79998779296875</AltitudeMeters>
            <DistanceMeters>24625.957749665</DistanceMeters>
          </Trackpoint>
          <Trackpoint>
            <Time>2018-08-26T06:41:34.000Z</Time>
            <Position>
              <LatitudeDegrees>42.89492868818342685699462890625</LatitudeDegrees>
              <LongitudeDegrees>-1.78289861418306827545166015625</LongitudeDegrees>
            </Position>
            <AltitudeMeters>493.600006103515625</AltitudeMeters>
            <DistanceMeters>24637.263133426</DistanceMeters>
          </Trackpoint>
          <Trackpoint>
            <Time>2018-08-26T06:41:35.000Z</Time>
            <Position>
              <LatitudeDegrees>42.89498803205788135528564453125</LatitudeDegrees>
              <LongitudeDegrees>-1.78301814012229442596435546875</LongitudeDegrees>
            </Position>
            <AltitudeMeters>493.600006103515625</AltitudeMeters>
            <DistanceMeters>24649.036862805</DistanceMeters>
          </Trackpoint>
          <Trackpoint>
            <Time>2018-08-26T06:41:36.000Z</Time>
            <Position>
              <LatitudeDegrees>42.895050980150699615478515625</LatitudeDegrees>
              <LongitudeDegrees>-1.783141605556011199951171875</LongitudeDegrees>
            </Position>
            <AltitudeMeters>493.600006103515625</AltitudeMeters>
            <DistanceMeters>24661.302305054</DistanceMeters>
          </Trackpoint>
          <Trackpoint>
            <Time>2018-08-26T06:41:37.000Z</Time>
            <Position>
              <LatitudeDegrees>42.8951158560812473297119140625</LatitudeDegrees>
              <LongitudeDegrees>-1.78326859138906002044677734375</LongitudeDegrees>
            </Position>
            <AltitudeMeters>493.399993896484375</AltitudeMeters>
            <DistanceMeters>24673.926202593</DistanceMeters>
          </Trackpoint>
          <Trackpoint>
            <Time>2018-08-26T06:41:38.000Z</Time>
            <Position>
              <LatitudeDegrees>42.8951822407543659210205078125</LatitudeDegrees>
              <LongitudeDegrees>-1.783398427069187164306640625</LongitudeDegrees>
            </Position>
            <AltitudeMeters>493.20001220703125</AltitudeMeters>
            <DistanceMeters>24686.836553131</DistanceMeters>
          </Trackpoint>
          <Trackpoint>
            <Time>2018-08-26T06:41:39.000Z</Time>
            <Position>
              <LatitudeDegrees>42.8952491283416748046875</LatitudeDegrees>
              <LongitudeDegrees>-1.78352742455899715423583984375</LongitudeDegrees>
            </Position>
            <AltitudeMeters>493</AltitudeMeters>
            <DistanceMeters>24699.723100605</DistanceMeters>
          </Trackpoint>
          <Trackpoint>
            <Time>2018-08-26T06:41:40.000Z</Time>
            <Position>
              <LatitudeDegrees>42.89531542919576168060302734375</LatitudeDegrees>
              <LongitudeDegrees>-1.7836554162204265594482421875</LongitudeDegrees>
            </Position>
            <AltitudeMeters>492.399993896484375</AltitudeMeters>
            <DistanceMeters>24712.504811876</DistanceMeters>
          </Trackpoint>
          <Trackpoint>
            <Time>2018-08-26T06:41:41.000Z</Time>
            <Position>
              <LatitudeDegrees>42.895379550755023956298828125</LatitudeDegrees>
              <LongitudeDegrees>-1.7837814800441265106201171875</LongitudeDegrees>
            </Position>
            <AltitudeMeters>491.600006103515625</AltitudeMeters>
            <DistanceMeters>24725.018787491</DistanceMeters>
          </Trackpoint>
          <Trackpoint>
            <Time>2018-08-26T06:41:42.000Z</Time>
            <Position>
              <LatitudeDegrees>42.89544216357171535491943359375</LatitudeDegrees>
              <LongitudeDegrees>-1.78390461020171642303466796875</LongitudeDegrees>
            </Position>
            <AltitudeMeters>491</AltitudeMeters>
            <DistanceMeters>24737.240715511</DistanceMeters>
          </Trackpoint>
          <Trackpoint>
            <Time>2018-08-26T06:41:43.000Z</Time>
            <Position>
              <LatitudeDegrees>42.89550368674099445343017578125</LatitudeDegrees>
              <LongitudeDegrees>-1.7840262316167354583740234375</LongitudeDegrees>
            </Position>
            <AltitudeMeters>490.600006103515625</AltitudeMeters>
            <DistanceMeters>24749.291886386</DistanceMeters>
          </Trackpoint>
          <Trackpoint>
            <Time>2018-08-26T06:41:44.000Z</Time>
            <Position>
              <LatitudeDegrees>42.89556554518640041351318359375</LatitudeDegrees>
              <LongitudeDegrees>-1.78414617665112018585205078125</LongitudeDegrees>
            </Position>
            <AltitudeMeters>490</AltitudeMeters>
            <DistanceMeters>24761.25242446</DistanceMeters>
          </Trackpoint>
          <Trackpoint>
            <Time>2018-08-26T06:41:45.000Z</Time>
            <Position>
              <LatitudeDegrees>42.89562706835567951202392578125</LatitudeDegrees>
              <LongitudeDegrees>-1.78426352329552173614501953125</LongitudeDegrees>
            </Position>
            <AltitudeMeters>489.20001220703125</AltitudeMeters>
            <DistanceMeters>24773.018481657</DistanceMeters>
          </Trackpoint>
          <Trackpoint>
            <Time>2018-08-26T06:41:46.000Z</Time>
            <Position>
              <LatitudeDegrees>42.89568624459207057952880859375</LatitudeDegrees>
              <LongitudeDegrees>-1.78437701426446437835693359375</LongitudeDegrees>
            </Position>
            <AltitudeMeters>488.20001220703125</AltitudeMeters>
            <DistanceMeters>24784.376460002</DistanceMeters>
          </Trackpoint>
          <Trackpoint>
            <Time>2018-08-26T06:41:47.000Z</Time>
            <Position>
              <LatitudeDegrees>42.8957428224384784698486328125</LatitudeDegrees>
              <LongitudeDegrees>-1.784487403929233551025390625</LongitudeDegrees>
            </Position>
            <AltitudeMeters>487.20001220703125</AltitudeMeters>
            <DistanceMeters>24795.36181123</DistanceMeters>
          </Trackpoint>
          <Trackpoint>
            <Time>2018-08-26T06:41:48.000Z</Time>
            <Position>
              <LatitudeDegrees>42.89579839445650577545166015625</LatitudeDegrees>
              <LongitudeDegrees>-1.78459594957530498504638671875</LongitudeDegrees>
            </Position>
            <AltitudeMeters>486.600006103515625</AltitudeMeters>
            <DistanceMeters>24806.15979007</DistanceMeters>
          </Trackpoint>
          <Trackpoint>
            <Time>2018-08-26T06:41:49.000Z</Time>
            <Position>
              <LatitudeDegrees>42.8958537988364696502685546875</LatitudeDegrees>
              <LongitudeDegrees>-1.78470290265977382659912109375</LongitudeDegrees>
            </Position>
            <AltitudeMeters>486</AltitudeMeters>
            <DistanceMeters>24816.840471496</DistanceMeters>
          </Trackpoint>
          <Trackpoint>
            <Time>2018-08-26T06:41:50.000Z</Time>
            <Position>
              <LatitudeDegrees>42.895908616483211517333984375</LatitudeDegrees>
              <LongitudeDegrees>-1.78480817936360836029052734375</LongitudeDegrees>
            </Position>
            <AltitudeMeters>485.600006103515625</AltitudeMeters>
            <DistanceMeters>24827.372158396</DistanceMeters>
          </Trackpoint>
          <Trackpoint>
            <Time>2018-08-26T06:41:51.000Z</Time>
            <Position>
              <LatitudeDegrees>42.89596217684447765350341796875</LatitudeDegrees>
              <LongitudeDegrees>-1.784913204610347747802734375</LongitudeDegrees>
            </Position>
            <AltitudeMeters>485.20001220703125</AltitudeMeters>
            <DistanceMeters>24837.806507043</DistanceMeters>
          </Trackpoint>
          <Trackpoint>
            <Time>2018-08-26T06:41:52.000Z</Time>
            <Position>
              <LatitudeDegrees>42.896015904843807220458984375</LatitudeDegrees>
              <LongitudeDegrees>-1.78501747548580169677734375</LongitudeDegrees>
            </Position>
            <AltitudeMeters>484.79998779296875</AltitudeMeters>
            <DistanceMeters>24848.201404576</DistanceMeters>
          </Trackpoint>
          <Trackpoint>
            <Time>2018-08-26T06:41:53.000Z</Time>
            <Position>
              <LatitudeDegrees>42.89607030339539051055908203125</LatitudeDegrees>
              <LongitudeDegrees>-1.78512149490416049957275390625</LongitudeDegrees>
            </Position>
            <AltitudeMeters>484.399993896484375</AltitudeMeters>
            <DistanceMeters>24858.623197103</DistanceMeters>
          </Trackpoint>
          <Trackpoint>
            <Time>2018-08-26T06:41:54.000Z</Time>
            <Position>
              <LatitudeDegrees>42.89612478576600551605224609375</LatitudeDegrees>
              <LongitudeDegrees>-1.78522610105574131011962890625</LongitudeDegrees>
            </Position>
            <AltitudeMeters>483.79998779296875</AltitudeMeters>
            <DistanceMeters>24869.08908585</DistanceMeters>
          </Trackpoint>
          <Trackpoint>
            <Time>2018-08-26T06:41:55.000Z</Time>
            <Position>
              <LatitudeDegrees>42.8961790166795253753662109375</LatitudeDegrees>
              <LongitudeDegrees>-1.78533322177827358245849609375</LongitudeDegrees>
            </Position>
            <AltitudeMeters>483.79998779296875</AltitudeMeters>
            <DistanceMeters>24879.706593765</DistanceMeters>
          </Trackpoint>
          <Trackpoint>
            <Time>2018-08-26T06:41:56.000Z</Time>
            <Position>
              <LatitudeDegrees>42.8962336666882038116455078125</LatitudeDegrees>
              <LongitudeDegrees>-1.7854417674243450164794921875</LongitudeDegrees>
            </Position>
            <AltitudeMeters>483.600006103515625</AltitudeMeters>
            <DistanceMeters>24890.445873831</DistanceMeters>
          </Trackpoint>
          <Trackpoint>
            <Time>2018-08-26T06:41:57.000Z</Time>
            <Position>
              <LatitudeDegrees>42.89629007689654827117919921875</LatitudeDegrees>
              <LongitudeDegrees>-1.7855503968894481658935546875</LongitudeDegrees>
            </Position>
            <AltitudeMeters>483.399993896484375</AltitudeMeters>
            <DistanceMeters>24901.303065821</DistanceMeters>
          </Trackpoint>
          <Trackpoint>
            <Time>2018-08-26T06:41:58.000Z</Time>
            <Position>
              <LatitudeDegrees>42.89634657092392444610595703125</LatitudeDegrees>
              <LongitudeDegrees>-1.78565860725939273834228515625</LongitudeDegrees>
            </Position>
            <AltitudeMeters>483</AltitudeMeters>
            <DistanceMeters>24912.137778266</DistanceMeters>
          </Trackpoint>
          <Trackpoint>
            <Time>2018-08-26T06:41:59.000Z</Time>
            <Position>
              <LatitudeDegrees>42.89640256203711032867431640625</LatitudeDegrees>
              <LongitudeDegrees>-1.78576589561998844146728515625</LongitudeDegrees>
            </Position>
            <AltitudeMeters>482.79998779296875</AltitudeMeters>
            <DistanceMeters>24922.878739892</DistanceMeters>
          </Trackpoint>
          <Trackpoint>
            <Time>2018-08-26T06:42:00.000Z</Time>
            <Position>
              <LatitudeDegrees>42.89645838551223278045654296875</LatitudeDegrees>
              <LongitudeDegrees>-1.7858732677996158599853515625</LongitudeDegrees>
            </Position>
            <AltitudeMeters>482.600006103515625</AltitudeMeters>
            <DistanceMeters>24933.614235486</DistanceMeters>
          </Trackpoint>
          <Trackpoint>
            <Time>2018-08-26T06:42:01.000Z</Time>
            <Position>
              <LatitudeDegrees>42.89651387371122837066650390625</LatitudeDegrees>
              <LongitudeDegrees>-1.78598105907440185546875</LongitudeDegrees>
            </Position>
            <AltitudeMeters>482.600006103515625</AltitudeMeters>
            <DistanceMeters>24944.356037793</DistanceMeters>
          </Trackpoint>
          <Trackpoint>
            <Time>2018-08-26T06:42:02.000Z</Time>
            <Position>
              <LatitudeDegrees>42.896569110453128814697265625</LatitudeDegrees>
              <LongitudeDegrees>-1.786091029644012451171875</LongitudeDegrees>
            </Position>
            <AltitudeMeters>482.399993896484375</AltitudeMeters>
            <DistanceMeters>24955.227775031</DistanceMeters>
          </Trackpoint>
          <Trackpoint>
            <Time>2018-08-26T06:42:03.000Z</Time>
            <Position>
              <LatitudeDegrees>42.89662635885179042816162109375</LatitudeDegrees>
              <LongitudeDegrees>-1.78620477207005023956298828125</LongitudeDegrees>
            </Position>
            <AltitudeMeters>482.20001220703125</AltitudeMeters>
            <DistanceMeters>24966.479515863</DistanceMeters>
          </Trackpoint>
          <Trackpoint>
            <Time>2018-08-26T06:42:04.000Z</Time>
            <Position>
              <LatitudeDegrees>42.89668620564043521881103515625</LatitudeDegrees>
              <LongitudeDegrees>-1.78632094524800777435302734375</LongitudeDegrees>
            </Position>
            <AltitudeMeters>482</AltitudeMeters>
            <DistanceMeters>24978.059526018</DistanceMeters>
          </Trackpoint>
          <Trackpoint>
            <Time>2018-08-26T06:42:05.000Z</Time>
            <Position>
              <LatitudeDegrees>42.89674672298133373260498046875</LatitudeDegrees>
              <LongitudeDegrees>-1.78643762134015560150146484375</LongitudeDegrees>
            </Position>
            <AltitudeMeters>481.79998779296875</AltitudeMeters>
            <DistanceMeters>24989.716093277</DistanceMeters>
          </Trackpoint>
          <Trackpoint>
            <Time>2018-08-26T06:42:06.000Z</Time>
            <Position>
              <LatitudeDegrees>42.8968069888651371002197265625</LatitudeDegrees>
              <LongitudeDegrees>-1.78655396215617656707763671875</LongitudeDegrees>
            </Position>
            <AltitudeMeters>481.600006103515625</AltitudeMeters>
            <DistanceMeters>25001.334250733</DistanceMeters>
          </Trackpoint>
          <Trackpoint>
            <Time>2018-08-26T06:42:07.000Z</Time>
            <Position>
              <LatitudeDegrees>42.89686608128249645233154296875</LatitudeDegrees>
              <LongitudeDegrees>-1.78666829131543636322021484375</LongitudeDegrees>
            </Position>
            <AltitudeMeters>481.399993896484375</AltitudeMeters>
            <DistanceMeters>25012.743394081</DistanceMeters>
          </Trackpoint>
          <Trackpoint>
            <Time>2018-08-26T06:42:08.000Z</Time>
            <Position>
              <LatitudeDegrees>42.8969246707856655120849609375</LatitudeDegrees>
              <LongitudeDegrees>-1.7867818661034107208251953125</LongitudeDegrees>
            </Position>
            <AltitudeMeters>480.79998779296875</AltitudeMeters>
            <DistanceMeters>25024.069526076</DistanceMeters>
          </Trackpoint>
          <Trackpoint>
            <Time>2018-08-26T06:42:09.000Z</Time>
            <Position>
              <LatitudeDegrees>42.89698376320302486419677734375</LatitudeDegrees>
              <LongitudeDegrees>-1.78689627908170223236083984375</LongitudeDegrees>
            </Position>
            <AltitudeMeters>480.399993896484375</AltitudeMeters>
            <DistanceMeters>25035.483812867</DistanceMeters>
          </Trackpoint>
          <Trackpoint>
            <Time>2018-08-26T06:42:10.000Z</Time>
            <Position>
              <LatitudeDegrees>42.8970426879823207855224609375</LatitudeDegrees>
              <LongitudeDegrees>-1.78701102733612060546875</LongitudeDegrees>
            </Position>
            <AltitudeMeters>480</AltitudeMeters>
            <DistanceMeters>25046.909960302</DistanceMeters>
          </Trackpoint>
          <Trackpoint>
            <Time>2018-08-26T06:42:11.000Z</Time>
            <Position>
              <LatitudeDegrees>42.89710186421871185302734375</LatitudeDegrees>
              <LongitudeDegrees>-1.7871255241334438323974609375</LongitudeDegrees>
            </Position>
            <AltitudeMeters>479.399993896484375</AltitudeMeters>
            <DistanceMeters>25058.334922228</DistanceMeters>
          </Trackpoint>
          <Trackpoint>
            <Time>2018-08-26T06:42:12.000Z</Time>
            <Position>
              <LatitudeDegrees>42.89716011844575405120849609375</LatitudeDegrees>
              <LongitudeDegrees>-1.78723926655948162078857421875</LongitudeDegrees>
            </Position>
            <AltitudeMeters>478.79998779296875</AltitudeMeters>
            <DistanceMeters>25069.650684861</DistanceMeters>
          </Trackpoint>
          <Trackpoint>
            <Time>2018-08-26T06:42:13.000Z</Time>
            <Position>
              <LatitudeDegrees>42.8972165286540985107421875</LatitudeDegrees>
              <LongitudeDegrees>-1.78735158406198024749755859375</LongitudeDegrees>
            </Position>
            <AltitudeMeters>478</AltitudeMeters>
            <DistanceMeters>25080.754587948</DistanceMeters>
          </Trackpoint>
          <Trackpoint>
            <Time>2018-08-26T06:42:14.000Z</Time>
            <Position>
              <LatitudeDegrees>42.89727176539599895477294921875</LatitudeDegrees>
              <LongitudeDegrees>-1.78746138699352741241455078125</LongitudeDegrees>
            </Position>
            <AltitudeMeters>477.399993896484375</AltitudeMeters>
            <DistanceMeters>25091.615106284</DistanceMeters>
          </Trackpoint>
          <Trackpoint>
            <Time>2018-08-26T06:42:15.000Z</Time>
            <Position>
              <LatitudeDegrees>42.89732675068080425262451171875</LatitudeDegrees>
              <LongitudeDegrees>-1.7875675857067108154296875</LongitudeDegrees>
            </Position>
            <AltitudeMeters>476.79998779296875</AltitudeMeters>
            <DistanceMeters>25102.218146023</DistanceMeters>
          </Trackpoint>
          <Trackpoint>
            <Time>2018-08-26T06:42:16.000Z</Time>
            <Position>
              <LatitudeDegrees>42.89738005958497524261474609375</LatitudeDegrees>
              <LongitudeDegrees>-1.78767244331538677215576171875</LongitudeDegrees>
            </Position>
            <AltitudeMeters>476</AltitudeMeters>
            <DistanceMeters>25112.62519829</DistanceMeters>
          </Trackpoint>
          <Trackpoint>
            <Time>2018-08-26T06:42:17.000Z</Time>
            <Position>
              <LatitudeDegrees>42.89743253029882907867431640625</LatitudeDegrees>
              <LongitudeDegrees>-1.78777478635311126708984375</LongitudeDegrees>
            </Position>
            <AltitudeMeters>475.20001220703125</AltitudeMeters>
            <DistanceMeters>25122.810359957</DistanceMeters>
          </Trackpoint>
          <Trackpoint>
            <Time>2018-08-26T06:42:18.000Z</Time>
            <Position>
              <LatitudeDegrees>42.89748449809849262237548828125</LatitudeDegrees>
              <LongitudeDegrees>-1.78787536919116973876953125</LongitudeDegrees>
            </Position>
            <AltitudeMeters>475</AltitudeMeters>
            <DistanceMeters>25132.846368758</DistanceMeters>
          </Trackpoint>
          <Trackpoint>
            <Time>2018-08-26T06:42:19.000Z</Time>
            <Position>
              <LatitudeDegrees>42.89753495715558528900146484375</LatitudeDegrees>
              <LongitudeDegrees>-1.7879747785627841949462890625</LongitudeDegrees>
            </Position>
            <AltitudeMeters>474.79998779296875</AltitudeMeters>
            <DistanceMeters>25142.707193427</DistanceMeters>
          </Trackpoint>
          <Trackpoint>
            <Time>2018-08-26T06:42:20.000Z</Time>
            <Position>
              <LatitudeDegrees>42.89758424274623394012451171875</LatitudeDegrees>
              <LongitudeDegrees>-1.7880713380873203277587890625</LongitudeDegrees>
            </Position>
            <AltitudeMeters>474.600006103515625</AltitudeMeters>
            <DistanceMeters>25152.302539143</DistanceMeters>
          </Trackpoint>
          <Trackpoint>
            <Time>2018-08-26T06:42:21.000Z</Time>
            <Position>
              <LatitudeDegrees>42.89763201959431171417236328125</LatitudeDegrees>
              <LongitudeDegrees>-1.78816395811736583709716796875</LongitudeDegrees>
            </Position>
            <AltitudeMeters>474.600006103515625</AltitudeMeters>
            <DistanceMeters>25161.539213991</DistanceMeters>
          </Trackpoint>
          <Trackpoint>
            <Time>2018-08-26T06:42:22.000Z</Time>
            <Position>
              <LatitudeDegrees>42.89767862297594547271728515625</LatitudeDegrees>
              <LongitudeDegrees>-1.78825247101485729217529296875</LongitudeDegrees>
            </Position>
            <AltitudeMeters>474.600006103515625</AltitudeMeters>
            <DistanceMeters>25170.427133249</DistanceMeters>
          </Trackpoint>
          <Trackpoint>
            <Time>2018-08-26T06:42:23.000Z</Time>
            <Position>
              <LatitudeDegrees>42.89772405289113521575927734375</LatitudeDegrees>
              <LongitudeDegrees>-1.7883375473320484161376953125</LongitudeDegrees>
            </Position>
            <AltitudeMeters>474.600006103515625</AltitudeMeters>
            <DistanceMeters>25179.011154671</DistanceMeters>
          </Trackpoint>
          <Trackpoint>
            <Time>2018-08-26T06:42:24.000Z</Time>
            <Position>
              <LatitudeDegrees>42.897768057882785797119140625</LatitudeDegrees>
              <LongitudeDegrees>-1.78842145018279552459716796875</LongitudeDegrees>
            </Position>
            <AltitudeMeters>474.600006103515625</AltitudeMeters>
            <DistanceMeters>25187.425178639</DistanceMeters>
          </Trackpoint>
          <Trackpoint>
            <Time>2018-08-26T06:42:25.000Z</Time>
            <Position>
              <LatitudeDegrees>42.89781038649380207061767578125</LatitudeDegrees>
              <LongitudeDegrees>-1.788504682481288909912109375</LongitudeDegrees>
            </Position>
            <AltitudeMeters>474.600006103515625</AltitudeMeters>
            <DistanceMeters>25195.687039678</DistanceMeters>
          </Trackpoint>
          <Trackpoint>
            <Time>2018-08-26T06:42:26.000Z</Time>
            <Position>
              <LatitudeDegrees>42.897851206362247467041015625</LatitudeDegrees>
              <LongitudeDegrees>-1.78858707658946514129638671875</LongitudeDegrees>
            </Position>
            <AltitudeMeters>474.600006103515625</AltitudeMeters>
            <DistanceMeters>25203.797223204</DistanceMeters>
          </Trackpoint>
          <Trackpoint>
            <Time>2018-08-26T06:42:27.000Z</Time>
            <Position>
              <LatitudeDegrees>42.89789236150681972503662109375</LatitudeDegrees>
              <LongitudeDegrees>-1.78867022506892681121826171875</LongitudeDegrees>
            </Position>
            <AltitudeMeters>474.600006103515625</AltitudeMeters>
            <DistanceMeters>25211.979459252</DistanceMeters>
          </Trackpoint>
          <Trackpoint>
            <Time>2018-08-26T06:42:28.000Z</Time>
            <Position>
              <LatitudeDegrees>42.89793494157493114471435546875</LatitudeDegrees>
              <LongitudeDegrees>-1.7887539602816104888916015625</LongitudeDegrees>
            </Position>
            <AltitudeMeters>474.600006103515625</AltitudeMeters>
            <DistanceMeters>25220.290902256</DistanceMeters>
          </Trackpoint>
          <Trackpoint>
            <Time>2018-08-26T06:42:29.000Z</Time>
            <Position>
              <LatitudeDegrees>42.8979784436523914337158203125</LatitudeDegrees>
              <LongitudeDegrees>-1.78883786313235759735107421875</LongitudeDegrees>
            </Position>
            <AltitudeMeters>474.79998779296875</AltitudeMeters>
            <DistanceMeters>25228.672667865</DistanceMeters>
          </Trackpoint>
          <Trackpoint>
            <Time>2018-08-26T06:42:30.000Z</Time>
            <Position>
              <LatitudeDegrees>42.8980210237205028533935546875</LatitudeDegrees>
              <LongitudeDegrees>-1.78892151452600955963134765625</LongitudeDegrees>
            </Position>
            <AltitudeMeters>474.79998779296875</AltitudeMeters>
            <DistanceMeters>25236.978676776</DistanceMeters>
          </Trackpoint>
          <Trackpoint>
            <Time>2018-08-26T06:42:31.000Z</Time>
            <Position>
              <LatitudeDegrees>42.89806318469345569610595703125</LatitudeDegrees>
              <LongitudeDegrees>-1.78900617174804210662841796875</LongitudeDegrees>
            </Position>
            <AltitudeMeters>475</AltitudeMeters>
            <DistanceMeters>25245.324814188</DistanceMeters>
          </Trackpoint>
          <Trackpoint>
            <Time>2018-08-26T06:42:32.000Z</Time>
            <Position>
              <LatitudeDegrees>42.8981061838567256927490234375</LatitudeDegrees>
              <LongitudeDegrees>-1.78909217007458209991455078125</LongitudeDegrees>
            </Position>
            <AltitudeMeters>475</AltitudeMeters>
            <DistanceMeters>25253.814162814</DistanceMeters>
          </Trackpoint>
          <Trackpoint>
            <Time>2018-08-26T06:42:33.000Z</Time>
            <Position>
              <LatitudeDegrees>42.89815085940062999725341796875</LatitudeDegrees>
              <LongitudeDegrees>-1.7891794256865978240966796875</LongitudeDegrees>
            </Position>
            <AltitudeMeters>475.20001220703125</AltitudeMeters>
            <DistanceMeters>25262.493905193</DistanceMeters>
          </Trackpoint>
          <Trackpoint>
            <Time>2018-08-26T06:42:34.000Z</Time>
            <Position>
              <LatitudeDegrees>42.898196876049041748046875</LatitudeDegrees>
              <LongitudeDegrees>-1.7892681062221527099609375</LongitudeDegrees>
            </Position>
            <AltitudeMeters>475.20001220703125</AltitudeMeters>
            <DistanceMeters>25271.354859695</DistanceMeters>
          </Trackpoint>
          <Trackpoint>
            <Time>2018-08-26T06:42:35.000Z</Time>
            <Position>
              <LatitudeDegrees>42.89824373088777065277099609375</LatitudeDegrees>
              <LongitudeDegrees>-1.789358966052532196044921875</LongitudeDegrees>
            </Position>
            <AltitudeMeters>475.20001220703125</AltitudeMeters>
            <DistanceMeters>25280.41534671</DistanceMeters>
          </Trackpoint>
          <Trackpoint>
            <Time>2018-08-26T06:42:36.000Z</Time>
            <Position>
              <LatitudeDegrees>42.89829066954553127288818359375</LatitudeDegrees>
              <LongitudeDegrees>-1.7894518375396728515625</LongitudeDegrees>
            </Position>
            <AltitudeMeters>475.20001220703125</AltitudeMeters>
            <DistanceMeters>25289.615778036</DistanceMeters>
          </Trackpoint>
          <Trackpoint>
            <Time>2018-08-26T06:42:37.000Z</Time>
            <Position>
              <LatitudeDegrees>42.89833844639360904693603515625</LatitudeDegrees>
              <LongitudeDegrees>-1.78954781033098697662353515625</LongitudeDegrees>
            </Position>
            <AltitudeMeters>475.20001220703125</AltitudeMeters>
            <DistanceMeters>25299.076545326</DistanceMeters>
          </Trackpoint>
          <Trackpoint>
            <Time>2018-08-26T06:42:38.000Z</Time>
            <Position>
              <LatitudeDegrees>42.89838739670813083648681640625</LatitudeDegrees>
              <LongitudeDegrees>-1.78964428603649139404296875</LongitudeDegrees>
            </Position>
            <AltitudeMeters>475.20001220703125</AltitudeMeters>
            <DistanceMeters>25308.644560532</DistanceMeters>
          </Trackpoint>
          <Trackpoint>
            <Time>2018-08-26T06:42:39.000Z</Time>
            <Position>
              <LatitudeDegrees>42.898439280688762664794921875</LatitudeDegrees>
              <LongitudeDegrees>-1.78974151611328125</LongitudeDegrees>
            </Position>
            <AltitudeMeters>475.20001220703125</AltitudeMeters>
            <DistanceMeters>25318.452127727</DistanceMeters>
          </Trackpoint>
          <Trackpoint>
            <Time>2018-08-26T06:42:40.000Z</Time>
            <Position>
              <LatitudeDegrees>42.8984920866787433624267578125</LatitudeDegrees>
              <LongitudeDegrees>-1.78984117694199085235595703125</LongitudeDegrees>
            </Position>
            <AltitudeMeters>475.20001220703125</AltitudeMeters>
            <DistanceMeters>25328.480935804</DistanceMeters>
          </Trackpoint>
          <Trackpoint>
            <Time>2018-08-26T06:42:41.000Z</Time>
            <Position>
              <LatitudeDegrees>42.89854531176388263702392578125</LatitudeDegrees>
              <LongitudeDegrees>-1.7899435199797153472900390625</LongitudeDegrees>
            </Position>
            <AltitudeMeters>475.20001220703125</AltitudeMeters>
            <DistanceMeters>25338.714743824</DistanceMeters>
          </Trackpoint>
          <Trackpoint>
            <Time>2018-08-26T06:42:42.000Z</Time>
            <Position>
              <LatitudeDegrees>42.89859979413449764251708984375</LatitudeDegrees>
              <LongitudeDegrees>-1.79004955105483531951904296875</LongitudeDegrees>
            </Position>
            <AltitudeMeters>475</AltitudeMeters>
            <DistanceMeters>25349.274687669</DistanceMeters>
          </Trackpoint>
          <Trackpoint>
            <Time>2018-08-26T06:42:43.000Z</Time>
            <Position>
              <LatitudeDegrees>42.8986553661525249481201171875</LatitudeDegrees>
              <LongitudeDegrees>-1.79015750996768474578857421875</LongitudeDegrees>
            </Position>
            <AltitudeMeters>474.79998779296875</AltitudeMeters>
            <DistanceMeters>25360.032870126</DistanceMeters>
          </Trackpoint>
          <Trackpoint>
            <Time>2018-08-26T06:42:44.000Z</Time>
            <Position>
              <LatitudeDegrees>42.8987120278179645538330078125</LatitudeDegrees>
              <LongitudeDegrees>-1.7902660556137561798095703125</LongitudeDegrees>
            </Position>
            <AltitudeMeters>474.79998779296875</AltitudeMeters>
            <DistanceMeters>25370.900038098</DistanceMeters>
          </Trackpoint>
          <Trackpoint>
            <Time>2018-08-26T06:42:45.000Z</Time>
            <Position>
              <LatitudeDegrees>42.8987700305879116058349609375</LatitudeDegrees>
              <LongitudeDegrees>-1.790375523269176483154296875</LongitudeDegrees>
            </Position>
            <AltitudeMeters>474.600006103515625</AltitudeMeters>
            <DistanceMeters>25381.915761735</DistanceMeters>
          </Trackpoint>
          <Trackpoint>
            <Time>2018-08-26T06:42:46.000Z</Time>
            <Position>
              <LatitudeDegrees>42.89882945828139781951904296875</LatitudeDegrees>
              <LongitudeDegrees>-1.79048758931457996368408203125</LongitudeDegrees>
            </Position>
            <AltitudeMeters>474.20001220703125</AltitudeMeters>
            <DistanceMeters>25393.195556818</DistanceMeters>
          </Trackpoint>
          <Trackpoint>
            <Time>2018-08-26T06:42:47.000Z</Time>
            <Position>
              <LatitudeDegrees>42.89888863451778888702392578125</LatitudeDegrees>
              <LongitudeDegrees>-1.790600828826427459716796875</LongitudeDegrees>
            </Position>
            <AltitudeMeters>473.79998779296875</AltitudeMeters>
            <DistanceMeters>25404.536826979</DistanceMeters>
          </Trackpoint>
          <Trackpoint>
            <Time>2018-08-26T06:42:48.000Z</Time>
            <Position>
              <LatitudeDegrees>42.89894646964967250823974609375</LatitudeDegrees>
              <LongitudeDegrees>-1.79071373306214809417724609375</LongitudeDegrees>
            </Position>
            <AltitudeMeters>473.399993896484375</AltitudeMeters>
            <DistanceMeters>25415.770094011</DistanceMeters>
          </Trackpoint>
          <Trackpoint>
            <Time>2018-08-26T06:42:49.000Z</Time>
            <Position>
              <LatitudeDegrees>42.89900363422930240631103515625</LatitudeDegrees>
              <LongitudeDegrees>-1.7908263020217418670654296875</LongitudeDegrees>
            </Position>
            <AltitudeMeters>473</AltitudeMeters>
            <DistanceMeters>25426.93805783</DistanceMeters>
          </Trackpoint>
          <Trackpoint>
            <Time>2018-08-26T06:42:50.000Z</Time>
            <Position>
              <LatitudeDegrees>42.8990620560944080352783203125</LatitudeDegrees>
              <LongitudeDegrees>-1.7909382842481136322021484375</LongitudeDegrees>
            </Position>
            <AltitudeMeters>472.399993896484375</AltitudeMeters>
            <DistanceMeters>25438.147182846</DistanceMeters>
          </Trackpoint>
          <Trackpoint>
            <Time>2018-08-26T06:42:51.000Z</Time>
            <Position>
              <LatitudeDegrees>42.899120561778545379638671875</LatitudeDegrees>
              <LongitudeDegrees>-1.79105018265545368194580078125</LongitudeDegrees>
            </Position>
            <AltitudeMeters>471.20001220703125</AltitudeMeters>
            <DistanceMeters>25449.356307863</DistanceMeters>
          </Trackpoint>
          <Trackpoint>
            <Time>2018-08-26T06:42:52.000Z</Time>
            <Position>
              <LatitudeDegrees>42.89917831309139728546142578125</LatitudeDegrees>
              <LongitudeDegrees>-1.7911635898053646087646484375</LongitudeDegrees>
            </Position>
            <AltitudeMeters>470.79998779296875</AltitudeMeters>
            <DistanceMeters>25460.616873276</DistanceMeters>
          </Trackpoint>
          <Trackpoint>
            <Time>2018-08-26T06:42:53.000Z</Time>
            <Position>
              <LatitudeDegrees>42.8992363996803760528564453125</LatitudeDegrees>
              <LongitudeDegrees>-1.79127716459333896636962890625</LongitudeDegrees>
            </Position>
            <AltitudeMeters>470.20001220703125</AltitudeMeters>
            <DistanceMeters>25471.910669351</DistanceMeters>
          </Trackpoint>
          <Trackpoint>
            <Time>2018-08-26T06:42:54.000Z</Time>
            <Position>
              <LatitudeDegrees>42.89929565973579883575439453125</LatitudeDegrees>
              <LongitudeDegrees>-1.79139032028615474700927734375</LongitudeDegrees>
            </Position>
            <AltitudeMeters>469.600006103515625</AltitudeMeters>
            <DistanceMeters>25483.251939512</DistanceMeters>
          </Trackpoint>
          <Trackpoint>
            <Time>2018-08-26T06:42:55.000Z</Time>
            <Position>
              <LatitudeDegrees>42.89935500361025333404541015625</LatitudeDegrees>
              <LongitudeDegrees>-1.79150448180735111236572265625</LongitudeDegrees>
            </Position>
            <AltitudeMeters>468.79998779296875</AltitudeMeters>
            <DistanceMeters>25494.664643952</DistanceMeters>
          </Trackpoint>
          <Trackpoint>
            <Time>2018-08-26T06:42:56.000Z</Time>
            <Position>
              <LatitudeDegrees>42.89941485039889812469482421875</LatitudeDegrees>
              <LongitudeDegrees>-1.791618727147579193115234375</LongitudeDegrees>
            </Position>
            <AltitudeMeters>468.20001220703125</AltitudeMeters>
            <DistanceMeters>25506.11605304</DistanceMeters>
          </Trackpoint>
          <Trackpoint>
            <Time>2018-08-26T06:42:57.000Z</Time>
            <Position>
              <LatitudeDegrees>42.8994731046259403228759765625</LatitudeDegrees>
              <LongitudeDegrees>-1.79173096083104610443115234375</LongitudeDegrees>
            </Position>
            <AltitudeMeters>467.600006103515625</AltitudeMeters>
            <DistanceMeters>25517.330815843</DistanceMeters>
          </Trackpoint>
          <Trackpoint>
            <Time>2018-08-26T06:42:58.000Z</Time>
            <Position>
              <LatitudeDegrees>42.899530269205570220947265625</LatitudeDegrees>
              <LongitudeDegrees>-1.791841685771942138671875</LongitudeDegrees>
            </Position>
            <AltitudeMeters>467.20001220703125</AltitudeMeters>
            <DistanceMeters>25528.37601085</DistanceMeters>
          </Trackpoint>
          <Trackpoint>
            <Time>2018-08-26T06:42:59.000Z</Time>
            <Position>
              <LatitudeDegrees>42.89958768524229526519775390625</LatitudeDegrees>
              <LongitudeDegrees>-1.7919524945318698883056640625</LongitudeDegrees>
            </Position>
            <AltitudeMeters>466.79998779296875</AltitudeMeters>
            <DistanceMeters>25539.442441925</DistanceMeters>
          </Trackpoint>
          <Trackpoint>
            <Time>2018-08-26T06:43:00.000Z</Time>
            <Position>
              <LatitudeDegrees>42.8996427543461322784423828125</LatitudeDegrees>
              <LongitudeDegrees>-1.7920597828924655914306640625</LongitudeDegrees>
            </Position>
            <AltitudeMeters>466.20001220703125</AltitudeMeters>
            <DistanceMeters>25550.123546072</DistanceMeters>
          </Trackpoint>
          <Trackpoint>
            <Time>2018-08-26T06:43:01.000Z</Time>
            <Position>
              <LatitudeDegrees>42.89969623088836669921875</LatitudeDegrees>
              <LongitudeDegrees>-1.79216346703469753265380859375</LongitudeDegrees>
            </Position>
            <AltitudeMeters>465.79998779296875</AltitudeMeters>
            <DistanceMeters>25560.462260444</DistanceMeters>
          </Trackpoint>
          <Trackpoint>
            <Time>2018-08-26T06:43:02.000Z</Time>
            <Position>
              <LatitudeDegrees>42.8997490368783473968505859375</LatitudeDegrees>
              <LongitudeDegrees>-1.79226606152951717376708984375</LongitudeDegrees>
            </Position>
            <AltitudeMeters>465.600006103515625</AltitudeMeters>
            <DistanceMeters>25570.685474457</DistanceMeters>
          </Trackpoint>
          <Trackpoint>
            <Time>2018-08-26T06:43:03.000Z</Time>
            <Position>
              <LatitudeDegrees>42.899801172316074371337890625</LatitudeDegrees>
              <LongitudeDegrees>-1.79236848838627338409423828125</LongitudeDegrees>
            </Position>
            <AltitudeMeters>465</AltitudeMeters>
            <DistanceMeters>25580.85510894</DistanceMeters>
          </Trackpoint>
          <Trackpoint>
            <Time>2018-08-26T06:43:04.000Z</Time>
            <Position>
              <LatitudeDegrees>42.89985322393476963043212890625</LatitudeDegrees>
              <LongitudeDegrees>-1.79246990941464900970458984375</LongitudeDegrees>
            </Position>
            <AltitudeMeters>464.600006103515625</AltitudeMeters>
            <DistanceMeters>25590.952116569</DistanceMeters>
          </Trackpoint>
          <Trackpoint>
            <Time>2018-08-26T06:43:05.000Z</Time>
            <Position>
              <LatitudeDegrees>42.899904437363147735595703125</LatitudeDegrees>
              <LongitudeDegrees>-1.79256881587207317352294921875</LongitudeDegrees>
            </Position>
            <AltitudeMeters>464.399993896484375</AltitudeMeters>
            <DistanceMeters>25600.827582411</DistanceMeters>
          </Trackpoint>
          <Trackpoint>
            <Time>2018-08-26T06:43:06.000Z</Time>
            <Position>
              <LatitudeDegrees>42.8999545611441135406494140625</LatitudeDegrees>
              <LongitudeDegrees>-1.79266537539660930633544921875</LongitudeDegrees>
            </Position>
            <AltitudeMeters>464.20001220703125</AltitudeMeters>
            <DistanceMeters>25610.476889029</DistanceMeters>
          </Trackpoint>
          <Trackpoint>
            <Time>2018-08-26T06:43:07.000Z</Time>
            <Position>
              <LatitudeDegrees>42.90000393055379390716552734375</LatitudeDegrees>
              <LongitudeDegrees>-1.7927608452737331390380859375</LongitudeDegrees>
            </Position>
            <AltitudeMeters>464</AltitudeMeters>
            <DistanceMeters>25620.005183135</DistanceMeters>
          </Trackpoint>
          <Trackpoint>
            <Time>2018-08-26T06:43:08.000Z</Time>
            <Position>
              <LatitudeDegrees>42.900052629411220550537109375</LatitudeDegrees>
              <LongitudeDegrees>-1.7928567342460155487060546875</LongitudeDegrees>
            </Position>
            <AltitudeMeters>463.79998779296875</AltitudeMeters>
            <DistanceMeters>25629.518301767</DistanceMeters>
          </Trackpoint>
          <Trackpoint>
            <Time>2018-08-26T06:43:09.000Z</Time>
            <Position>
              <LatitudeDegrees>42.90010032244026660919189453125</LatitudeDegrees>
              <LongitudeDegrees>-1.79295270703732967376708984375</LongitudeDegrees>
            </Position>
            <AltitudeMeters>463.600006103515625</AltitudeMeters>
            <DistanceMeters>25638.974295472</DistanceMeters>
          </Trackpoint>
          <Trackpoint>
            <Time>2018-08-26T06:43:10.000Z</Time>
            <Position>
              <LatitudeDegrees>42.90014809928834438323974609375</LatitudeDegrees>
              <LongitudeDegrees>-1.7930495180189609527587890625</LongitudeDegrees>
            </Position>
            <AltitudeMeters>463.399993896484375</AltitudeMeters>
            <DistanceMeters>25648.491210242</DistanceMeters>
          </Trackpoint>
          <Trackpoint>
            <Time>2018-08-26T06:43:11.000Z</Time>
            <Position>
              <LatitudeDegrees>42.90019470266997814178466796875</LatitudeDegrees>
              <LongitudeDegrees>-1.7931464128196239471435546875</LongitudeDegrees>
            </Position>
            <AltitudeMeters>463.399993896484375</AltitudeMeters>
            <DistanceMeters>25657.941950219</DistanceMeters>
          </Trackpoint>
          <Trackpoint>
            <Time>2018-08-26T06:43:12.000Z</Time>
            <Position>
              <LatitudeDegrees>42.90024247951805591583251953125</LatitudeDegrees>
              <LongitudeDegrees>-1.7932449840009212493896484375</LongitudeDegrees>
            </Position>
            <AltitudeMeters>463.20001220703125</AltitudeMeters>
            <DistanceMeters>25667.578614899</DistanceMeters>
          </Trackpoint>
          <Trackpoint>
            <Time>2018-08-26T06:43:13.000Z</Time>
            <Position>
              <LatitudeDegrees>42.90029092691838741302490234375</LatitudeDegrees>
              <LongitudeDegrees>-1.79334045387804508209228515625</LongitudeDegrees>
            </Position>
            <AltitudeMeters>463.20001220703125</AltitudeMeters>
            <DistanceMeters>25677.047968577</DistanceMeters>
          </Trackpoint>
          <Trackpoint>
            <Time>2018-08-26T06:43:14.000Z</Time>
            <Position>
              <LatitudeDegrees>42.900339625775814056396484375</LatitudeDegrees>
              <LongitudeDegrees>-1.7934335768222808837890625</LongitudeDegrees>
            </Position>
            <AltitudeMeters>463.20001220703125</AltitudeMeters>
            <DistanceMeters>25686.377056248</DistanceMeters>
          </Trackpoint>
          <Trackpoint>
            <Time>2018-08-26T06:43:15.000Z</Time>
            <Position>
              <LatitudeDegrees>42.90038757026195526123046875</LatitudeDegrees>
              <LongitudeDegrees>-1.793525107204914093017578125</LongitudeDegrees>
            </Position>
            <AltitudeMeters>463</AltitudeMeters>
            <DistanceMeters>25695.55094923</DistanceMeters>
          </Trackpoint>
          <Trackpoint>
            <Time>2018-08-26T06:43:16.000Z</Time>
            <Position>
              <LatitudeDegrees>42.90043459273874759674072265625</LatitudeDegrees>
              <LongitudeDegrees>-1.7936168052256107330322265625</LongitudeDegrees>
            </Position>
            <AltitudeMeters>463</AltitudeMeters>
            <DistanceMeters>25704.677472397</DistanceMeters>
          </Trackpoint>
          <Trackpoint>
            <Time>2018-08-26T06:43:17.000Z</Time>
            <Position>
              <LatitudeDegrees>42.90048186667263507843017578125</LatitudeDegrees>
              <LongitudeDegrees>-1.793706826865673065185546875</LongitudeDegrees>
            </Position>
            <AltitudeMeters>462.79998779296875</AltitudeMeters>
            <DistanceMeters>25713.708510568</DistanceMeters>
          </Trackpoint>
          <Trackpoint>
            <Time>2018-08-26T06:43:18.000Z</Time>
            <Position>
              <LatitudeDegrees>42.90052972733974456787109375</LatitudeDegrees>
              <LongitudeDegrees>-1.79379911161959171295166015625</LongitudeDegrees>
            </Position>
            <AltitudeMeters>462.79998779296875</AltitudeMeters>
            <DistanceMeters>25722.92757123</DistanceMeters>
          </Trackpoint>
          <Trackpoint>
            <Time>2018-08-26T06:43:19.000Z</Time>
            <Position>
              <LatitudeDegrees>42.9005768336355686187744140625</LatitudeDegrees>
              <LongitudeDegrees>-1.7938913963735103607177734375</LongitudeDegrees>
            </Position>
            <AltitudeMeters>462.399993896484375</AltitudeMeters>
            <DistanceMeters>25732.098510768</DistanceMeters>
          </Trackpoint>
          <Trackpoint>
            <Time>2018-08-26T06:43:20.000Z</Time>
            <Position>
              <LatitudeDegrees>42.90062486194074153900146484375</LatitudeDegrees>
              <LongitudeDegrees>-1.79398141801357269287109375</LongitudeDegrees>
            </Position>
            <AltitudeMeters>462.399993896484375</AltitudeMeters>
            <DistanceMeters>25741.178908777</DistanceMeters>
          </Trackpoint>
          <Trackpoint>
            <Time>2018-08-26T06:43:21.000Z</Time>
            <Position>
              <LatitudeDegrees>42.90067263878881931304931640625</LatitudeDegrees>
              <LongitudeDegrees>-1.7940717749297618865966796875</LongitudeDegrees>
            </Position>
            <AltitudeMeters>462.399993896484375</AltitudeMeters>
            <DistanceMeters>25750.26477466</DistanceMeters>
          </Trackpoint>
          <Trackpoint>
            <Time>2018-08-26T06:43:22.000Z</Time>
            <Position>
              <LatitudeDegrees>42.90071974508464336395263671875</LatitudeDegrees>
              <LongitudeDegrees>-1.7941622994840145111083984375</LongitudeDegrees>
            </Position>
            <AltitudeMeters>462.20001220703125</AltitudeMeters>
            <DistanceMeters>25759.317783763</DistanceMeters>
          </Trackpoint>
          <Trackpoint>
            <Time>2018-08-26T06:43:23.000Z</Time>
            <Position>
              <LatitudeDegrees>42.90076634846627712249755859375</LatitudeDegrees>
              <LongitudeDegrees>-1.794253326952457427978515625</LongitudeDegrees>
            </Position>
            <AltitudeMeters>462.20001220703125</AltitudeMeters>
            <DistanceMeters>25768.372288942</DistanceMeters>
          </Trackpoint>
          <Trackpoint>
            <Time>2018-08-26T06:43:24.000Z</Time>
            <Position>
              <LatitudeDegrees>42.90081345476210117340087890625</LatitudeDegrees>
              <LongitudeDegrees>-1.79434142075479030609130859375</LongitudeDegrees>
            </Position>
            <AltitudeMeters>462.20001220703125</AltitudeMeters>
            <DistanceMeters>25777.264271248</DistanceMeters>
          </Trackpoint>
          <Trackpoint>
            <Time>2018-08-26T06:43:25.000Z</Time>
            <Position>
              <LatitudeDegrees>42.900861985981464385986328125</LatitudeDegrees>
              <LongitudeDegrees>-1.79442666471004486083984375</LongitudeDegrees>
            </Position>
            <AltitudeMeters>462.20001220703125</AltitudeMeters>
            <DistanceMeters>25786.066433249</DistanceMeters>
          </Trackpoint>
          <Trackpoint>
            <Time>2018-08-26T06:43:26.000Z</Time>
            <Position>
              <LatitudeDegrees>42.9009126126766204833984375</LatitudeDegrees>
              <LongitudeDegrees>-1.7945089749991893768310546875</LongitudeDegrees>
            </Position>
            <AltitudeMeters>462.20001220703125</AltitudeMeters>
            <DistanceMeters>25794.829524603</DistanceMeters>
          </Trackpoint>
          <Trackpoint>
            <Time>2018-08-26T06:43:27.000Z</Time>
            <Position>
              <LatitudeDegrees>42.90096432901918888092041015625</LatitudeDegrees>
              <LongitudeDegrees>-1.7945887707173824310302734375</LongitudeDegrees>
            </Position>
            <AltitudeMeters>462.20001220703125</AltitudeMeters>
            <DistanceMeters>25803.516026705</DistanceMeters>
          </Trackpoint>
          <Trackpoint>
            <Time>2018-08-26T06:43:28.000Z</Time>
            <Position>
              <LatitudeDegrees>42.901016212999820709228515625</LatitudeDegrees>
              <LongitudeDegrees>-1.79466613568365573883056640625</LongitudeDegrees>
            </Position>
            <AltitudeMeters>462.20001220703125</AltitudeMeters>
            <DistanceMeters>25812.067375081</DistanceMeters>
          </Trackpoint>
          <Trackpoint>
            <Time>2018-08-26T06:43:29.000Z</Time>
            <Position>
              <LatitudeDegrees>42.90106893517076969146728515625</LatitudeDegrees>
              <LongitudeDegrees>-1.7947409860789775848388671875</LongitudeDegrees>
            </Position>
            <AltitudeMeters>462.20001220703125</AltitudeMeters>
            <DistanceMeters>25820.533823381</DistanceMeters>
          </Trackpoint>
          <Trackpoint>
            <Time>2018-08-26T06:43:30.000Z</Time>
            <Position>
              <LatitudeDegrees>42.9011226631700992584228515625</LatitudeDegrees>
              <LongitudeDegrees>-1.79481550119817256927490234375</LongitudeDegrees>
            </Position>
            <AltitudeMeters>462.20001220703125</AltitudeMeters>
            <DistanceMeters>25829.058201666</DistanceMeters>
          </Trackpoint>
          <Trackpoint>
            <Time>2018-08-26T06:43:31.000Z</Time>
            <Position>
              <LatitudeDegrees>42.9011779837310314178466796875</LatitudeDegrees>
              <LongitudeDegrees>-1.79488641209900379180908203125</LongitudeDegrees>
            </Position>
            <AltitudeMeters>462.20001220703125</AltitudeMeters>
            <DistanceMeters>25837.503826203</DistanceMeters>
          </Trackpoint>
          <Trackpoint>
            <Time>2018-08-26T06:43:32.000Z</Time>
            <Position>
              <LatitudeDegrees>42.9012363217771053314208984375</LatitudeDegrees>
              <LongitudeDegrees>-1.7949558980762958526611328125</LongitudeDegrees>
            </Position>
            <AltitudeMeters>462.20001220703125</AltitudeMeters>
            <DistanceMeters>25846.120396781</DistanceMeters>
          </Trackpoint>
          <Trackpoint>
            <Time>2018-08-26T06:43:33.000Z</Time>
            <Position>
              <LatitudeDegrees>42.9012970067560672760009765625</LatitudeDegrees>
              <LongitudeDegrees>-1.79502479732036590576171875</LongitudeDegrees>
            </Position>
            <AltitudeMeters>462.399993896484375</AltitudeMeters>
            <DistanceMeters>25854.905101289</DistanceMeters>
          </Trackpoint>
          <Trackpoint>
            <Time>2018-08-26T06:43:34.000Z</Time>
            <Position>
              <LatitudeDegrees>42.90135995484888553619384765625</LatitudeDegrees>
              <LongitudeDegrees>-1.79509453475475311279296875</LongitudeDegrees>
            </Position>
            <AltitudeMeters>462.399993896484375</AltitudeMeters>
            <DistanceMeters>25863.928136766</DistanceMeters>
          </Trackpoint>
          <Trackpoint>
            <Time>2018-08-26T06:43:35.000Z</Time>
            <Position>
              <LatitudeDegrees>42.9014250822365283966064453125</LatitudeDegrees>
              <LongitudeDegrees>-1.79516485892236232757568359375</LongitudeDegrees>
            </Position>
            <AltitudeMeters>462.600006103515625</AltitudeMeters>
            <DistanceMeters>25873.170675549</DistanceMeters>
          </Trackpoint>
          <Trackpoint>
            <Time>2018-08-26T06:43:36.000Z</Time>
            <Position>
              <LatitudeDegrees>42.90149121545255184173583984375</LatitudeDegrees>
              <LongitudeDegrees>-1.7952368594706058502197265625</LongitudeDegrees>
            </Position>
            <AltitudeMeters>462.600006103515625</AltitudeMeters>
            <DistanceMeters>25882.585516513</DistanceMeters>
          </Trackpoint>
          <Trackpoint>
            <Time>2018-08-26T06:43:37.000Z</Time>
            <Position>
              <LatitudeDegrees>42.9015590250492095947265625</LatitudeDegrees>
              <LongitudeDegrees>-1.79530886001884937286376953125</LongitudeDegrees>
            </Position>
            <AltitudeMeters>462.600006103515625</AltitudeMeters>
            <DistanceMeters>25892.146922995</DistanceMeters>
          </Trackpoint>
          <Trackpoint>
            <Time>2018-08-26T06:43:38.000Z</Time>
            <Position>
              <LatitudeDegrees>42.90162809193134307861328125</LatitudeDegrees>
              <LongitudeDegrees>-1.795381195843219757080078125</LongitudeDegrees>
            </Position>
            <AltitudeMeters>462.600006103515625</AltitudeMeters>
            <DistanceMeters>25901.835920606</DistanceMeters>
          </Trackpoint>
          <Trackpoint>
            <Time>2018-08-26T06:43:39.000Z</Time>
            <Position>
              <LatitudeDegrees>42.9016973264515399932861328125</LatitudeDegrees>
              <LongitudeDegrees>-1.79545126855373382568359375</LongitudeDegrees>
            </Position>
            <AltitudeMeters>462.600006103515625</AltitudeMeters>
            <DistanceMeters>25911.42844264</DistanceMeters>
          </Trackpoint>
          <Trackpoint>
            <Time>2018-08-26T06:43:40.000Z</Time>
            <Position>
              <LatitudeDegrees>42.90176597423851490020751953125</LatitudeDegrees>
              <LongitudeDegrees>-1.79552058689296245574951171875</LongitudeDegrees>
            </Position>
            <AltitudeMeters>462.600006103515625</AltitudeMeters>
            <DistanceMeters>25920.932064297</DistanceMeters>
          </Trackpoint>
          <Trackpoint>
            <Time>2018-08-26T06:43:41.000Z</Time>
            <Position>
              <LatitudeDegrees>42.90183235891163349151611328125</LatitudeDegrees>
              <LongitudeDegrees>-1.79558982141315937042236328125</LongitudeDegrees>
            </Position>
            <AltitudeMeters>462.600006103515625</AltitudeMeters>
            <DistanceMeters>25930.230126023</DistanceMeters>
          </Trackpoint>
          <Trackpoint>
            <Time>2018-08-26T06:43:42.000Z</Time>
            <Position>
              <LatitudeDegrees>42.90189723484218120574951171875</LatitudeDegrees>
              <LongitudeDegrees>-1.79565888829529285430908203125</LongitudeDegrees>
            </Position>
            <AltitudeMeters>462.600006103515625</AltitudeMeters>
            <DistanceMeters>25939.386284044</DistanceMeters>
          </Trackpoint>
          <Trackpoint>
            <Time>2018-08-26T06:43:43.000Z</Time>
            <Position>
              <LatitudeDegrees>42.9019608534872531890869140625</LatitudeDegrees>
              <LongitudeDegrees>-1.79572594352066516876220703125</LongitudeDegrees>
            </Position>
            <AltitudeMeters>462.600006103515625</AltitudeMeters>
            <DistanceMeters>25948.331927534</DistanceMeters>
          </Trackpoint>
          <Trackpoint>
            <Time>2018-08-26T06:43:44.000Z</Time>
            <Position>
              <LatitudeDegrees>42.90202279575169086456298828125</LatitudeDegrees>
              <LongitudeDegrees>-1.7957907356321811676025390625</LongitudeDegrees>
            </Position>
            <AltitudeMeters>462.600006103515625</AltitudeMeters>
            <DistanceMeters>25957.017390021</DistanceMeters>
          </Trackpoint>
          <Trackpoint>
            <Time>2018-08-26T06:43:45.000Z</Time>
            <Position>
              <LatitudeDegrees>42.90208197198808193206787109375</LatitudeDegrees>
              <LongitudeDegrees>-1.79585385136306285858154296875</LongitudeDegrees>
            </Position>
            <AltitudeMeters>462.600006103515625</AltitudeMeters>
            <DistanceMeters>25965.375420373</DistanceMeters>
          </Trackpoint>
          <Trackpoint>
            <Time>2018-08-26T06:43:46.000Z</Time>
            <Position>
              <LatitudeDegrees>42.90213796310126781463623046875</LatitudeDegrees>
              <LongitudeDegrees>-1.7959127761423587799072265625</LongitudeDegrees>
            </Position>
            <AltitudeMeters>462.399993896484375</AltitudeMeters>
            <DistanceMeters>25973.244297941</DistanceMeters>
          </Trackpoint>
          <Trackpoint>
            <Time>2018-08-26T06:43:47.000Z</Time>
            <Position>
              <LatitudeDegrees>42.902190349996089935302734375</LatitudeDegrees>
              <LongitudeDegrees>-1.7959655821323394775390625</LongitudeDegrees>
            </Position>
            <AltitudeMeters>462.20001220703125</AltitudeMeters>
            <DistanceMeters>25980.492538055</DistanceMeters>
          </Trackpoint>
          <Trackpoint>
            <Time>2018-08-26T06:43:48.000Z</Time>
            <Position>
              <LatitudeDegrees>42.90223871357738971710205078125</LatitudeDegrees>
              <LongitudeDegrees>-1.796010844409465789794921875</LongitudeDegrees>
            </Position>
            <AltitudeMeters>462.20001220703125</AltitudeMeters>
            <DistanceMeters>25987.019012646</DistanceMeters>
          </Trackpoint>
          <Trackpoint>
            <Time>2018-08-26T06:43:49.000Z</Time>
            <Position>
              <LatitudeDegrees>42.9022872447967529296875</LatitudeDegrees>
              <LongitudeDegrees>-1.79604470729827880859375</LongitudeDegrees>
            </Position>
            <AltitudeMeters>462</AltitudeMeters>
            <DistanceMeters>25993.085112011</DistanceMeters>
          </Trackpoint>
          <Trackpoint>
            <Time>2018-08-26T06:43:50.000Z</Time>
            <Position>
              <LatitudeDegrees>42.9023400507867336273193359375</LatitudeDegrees>
              <LongitudeDegrees>-1.7960608005523681640625</LongitudeDegrees>
            </Position>
            <AltitudeMeters>462</AltitudeMeters>
            <DistanceMeters>25999.107137169</DistanceMeters>
          </Trackpoint>
          <Trackpoint>
            <Time>2018-08-26T06:43:51.000Z</Time>
            <Position>
              <LatitudeDegrees>42.90239176712930202484130859375</LatitudeDegrees>
              <LongitudeDegrees>-1.79605686105787754058837890625</LongitudeDegrees>
            </Position>
            <AltitudeMeters>462</AltitudeMeters>
            <DistanceMeters>26004.872526262</DistanceMeters>
          </Trackpoint>
          <Trackpoint>
            <Time>2018-08-26T06:43:52.000Z</Time>
            <Position>
              <LatitudeDegrees>42.90243937633931636810302734375</LatitudeDegrees>
              <LongitudeDegrees>-1.79603490047156810760498046875</LongitudeDegrees>
            </Position>
            <AltitudeMeters>462</AltitudeMeters>
            <DistanceMeters>26010.467009701</DistanceMeters>
          </Trackpoint>
          <Trackpoint>
            <Time>2018-08-26T06:43:53.000Z</Time>
            <Position>
              <LatitudeDegrees>42.9024897515773773193359375</LatitudeDegrees>
              <LongitudeDegrees>-1.796007491648197174072265625</LongitudeDegrees>
            </Position>
            <AltitudeMeters>462</AltitudeMeters>
            <DistanceMeters>26016.503263378</DistanceMeters>
          </Trackpoint>
          <Trackpoint>
            <Time>2018-08-26T06:43:54.000Z</Time>
            <Position>
              <LatitudeDegrees>42.90254549123346805572509765625</LatitudeDegrees>
              <LongitudeDegrees>-1.79597966372966766357421875</LongitudeDegrees>
            </Position>
            <AltitudeMeters>462</AltitudeMeters>
            <DistanceMeters>26023.108816298</DistanceMeters>
          </Trackpoint>
          <Trackpoint>
            <Time>2018-08-26T06:43:55.000Z</Time>
            <Position>
              <LatitudeDegrees>42.9026029072701930999755859375</LatitudeDegrees>
              <LongitudeDegrees>-1.7959535121917724609375</LongitudeDegrees>
            </Position>
            <AltitudeMeters>462.20001220703125</AltitudeMeters>
            <DistanceMeters>26029.844997273</DistanceMeters>
          </Trackpoint>
          <Trackpoint>
            <Time>2018-08-26T06:43:56.000Z</Time>
            <Position>
              <LatitudeDegrees>42.9026632569730281829833984375</LatitudeDegrees>
              <LongitudeDegrees>-1.79592467844486236572265625</LongitudeDegrees>
            </Position>
            <AltitudeMeters>462.399993896484375</AltitudeMeters>
            <DistanceMeters>26036.961223007</DistanceMeters>
          </Trackpoint>
          <Trackpoint>
            <Time>2018-08-26T06:43:57.000Z</Time>
            <Position>
              <LatitudeDegrees>42.902725450694561004638671875</LatitudeDegrees>
              <LongitudeDegrees>-1.7958963476121425628662109375</LongitudeDegrees>
            </Position>
            <AltitudeMeters>462.600006103515625</AltitudeMeters>
            <DistanceMeters>26044.258507488</DistanceMeters>
          </Trackpoint>
          <Trackpoint>
            <Time>2018-08-26T06:43:58.000Z</Time>
            <Position>
              <LatitudeDegrees>42.9027896560728549957275390625</LatitudeDegrees>
              <LongitudeDegrees>-1.795865334570407867431640625</LongitudeDegrees>
            </Position>
            <AltitudeMeters>462.79998779296875</AltitudeMeters>
            <DistanceMeters>26051.838637857</DistanceMeters>
          </Trackpoint>
          <Trackpoint>
            <Time>2018-08-26T06:43:59.000Z</Time>
            <Position>
              <LatitudeDegrees>42.90285461582243442535400390625</LatitudeDegrees>
              <LongitudeDegrees>-1.795831806957721710205078125</LongitudeDegrees>
            </Position>
            <AltitudeMeters>462.79998779296875</AltitudeMeters>
            <DistanceMeters>26059.567996546</DistanceMeters>
          </Trackpoint>
          <Trackpoint>
            <Time>2018-08-26T06:44:00.000Z</Time>
            <Position>
              <LatitudeDegrees>42.9029214195907115936279296875</LatitudeDegrees>
              <LongitudeDegrees>-1.7957937531173229217529296875</LongitudeDegrees>
            </Position>
            <AltitudeMeters>462.79998779296875</AltitudeMeters>
            <DistanceMeters>26067.624558436</DistanceMeters>
          </Trackpoint>
          <Trackpoint>
            <Time>2018-08-26T06:44:01.000Z</Time>
            <Position>
              <LatitudeDegrees>42.90298822335898876190185546875</LatitudeDegrees>
              <LongitudeDegrees>-1.7957568727433681488037109375</LongitudeDegrees>
            </Position>
            <AltitudeMeters>462.79998779296875</AltitudeMeters>
            <DistanceMeters>26075.644610463</DistanceMeters>
          </Trackpoint>
          <Trackpoint>
            <Time>2018-08-26T06:44:02.000Z</Time>
            <Position>
              <LatitudeDegrees>42.9030565358698368072509765625</LatitudeDegrees>
              <LongitudeDegrees>-1.79571622051298618316650390625</LongitudeDegrees>
            </Position>
            <AltitudeMeters>462.79998779296875</AltitudeMeters>
            <DistanceMeters>26083.938651839</DistanceMeters>
          </Trackpoint>
          <Trackpoint>
            <Time>2018-08-26T06:44:03.000Z</Time>
            <Position>
              <LatitudeDegrees>42.903125770390033721923828125</LatitudeDegrees>
              <LongitudeDegrees>-1.79567330516874790191650390625</LongitudeDegrees>
            </Position>
            <AltitudeMeters>462.79998779296875</AltitudeMeters>
            <DistanceMeters>26092.401899818</DistanceMeters>
          </Trackpoint>
          <Trackpoint>
            <Time>2018-08-26T06:44:04.000Z</Time>
            <Position>
              <LatitudeDegrees>42.90319626219570636749267578125</LatitudeDegrees>
              <LongitudeDegrees>-1.79563189856708049774169921875</LongitudeDegrees>
            </Position>
            <AltitudeMeters>462.79998779296875</AltitudeMeters>
            <DistanceMeters>26100.943739062</DistanceMeters>
          </Trackpoint>
          <Trackpoint>
            <Time>2018-08-26T06:44:05.000Z</Time>
            <Position>
              <LatitudeDegrees>42.90326834656298160552978515625</LatitudeDegrees>
              <LongitudeDegrees>-1.79559149779379367828369140625</LongitudeDegrees>
            </Position>
            <AltitudeMeters>462.79998779296875</AltitudeMeters>
            <DistanceMeters>26109.61671645</DistanceMeters>
          </Trackpoint>
          <Trackpoint>
            <Time>2018-08-26T06:44:06.000Z</Time>
            <Position>
              <LatitudeDegrees>42.9033398441970348358154296875</LatitudeDegrees>
              <LongitudeDegrees>-1.795550845563411712646484375</LongitudeDegrees>
            </Position>
            <AltitudeMeters>462.79998779296875</AltitudeMeters>
            <DistanceMeters>26118.236430423</DistanceMeters>
          </Trackpoint>
          <Trackpoint>
            <Time>2018-08-26T06:44:07.000Z</Time>
            <Position>
              <LatitudeDegrees>42.903407402336597442626953125</LatitudeDegrees>
              <LongitudeDegrees>-1.79551136679947376251220703125</LongitudeDegrees>
            </Position>
            <AltitudeMeters>462.600006103515625</AltitudeMeters>
            <DistanceMeters>26126.415354943</DistanceMeters>
          </Trackpoint>
          <Trackpoint>
            <Time>2018-08-26T06:44:08.000Z</Time>
            <Position>
              <LatitudeDegrees>42.90347470901906490325927734375</LatitudeDegrees>
              <LongitudeDegrees>-1.79547213949263095855712890625</LongitudeDegrees>
            </Position>
            <AltitudeMeters>462.600006103515625</AltitudeMeters>
            <DistanceMeters>26134.561090128</DistanceMeters>
          </Trackpoint>
          <Trackpoint>
            <Time>2018-08-26T06:44:09.000Z</Time>
            <Position>
              <LatitudeDegrees>42.9035396687686443328857421875</LatitudeDegrees>
              <LongitudeDegrees>-1.79543257690966129302978515625</LongitudeDegrees>
            </Position>
            <AltitudeMeters>462.600006103515625</AltitudeMeters>
            <DistanceMeters>26142.478589144</DistanceMeters>
          </Trackpoint>
          <Trackpoint>
            <Time>2018-08-26T06:44:10.000Z</Time>
            <Position>
              <LatitudeDegrees>42.90360110811889171600341796875</LatitudeDegrees>
              <LongitudeDegrees>-1.79539402015507221221923828125</LongitudeDegrees>
            </Position>
            <AltitudeMeters>462.600006103515625</AltitudeMeters>
            <DistanceMeters>26150.004920889</DistanceMeters>
          </Trackpoint>
          <Trackpoint>
            <Time>2018-08-26T06:44:11.000Z</Time>
            <Position>
              <LatitudeDegrees>42.90365994907915592193603515625</LatitudeDegrees>
              <LongitudeDegrees>-1.79535797797143459320068359375</LongitudeDegrees>
            </Position>
            <AltitudeMeters>462.600006103515625</AltitudeMeters>
            <DistanceMeters>26157.183055479</DistanceMeters>
          </Trackpoint>
          <Trackpoint>
            <Time>2018-08-26T06:44:12.000Z</Time>
            <Position>
              <LatitudeDegrees>42.90371677838265895843505859375</LatitudeDegrees>
              <LongitudeDegrees>-1.7953226901590824127197265625</LongitudeDegrees>
            </Position>
            <AltitudeMeters>462.399993896484375</AltitudeMeters>
            <DistanceMeters>26164.131061572</DistanceMeters>
          </Trackpoint>
          <Trackpoint>
            <Time>2018-08-26T06:44:13.000Z</Time>
            <Position>
              <LatitudeDegrees>42.9037716798484325408935546875</LatitudeDegrees>
              <LongitudeDegrees>-1.795287318527698516845703125</LongitudeDegrees>
            </Position>
            <AltitudeMeters>462.399993896484375</AltitudeMeters>
            <DistanceMeters>26170.888657045</DistanceMeters>
          </Trackpoint>
          <Trackpoint>
            <Time>2018-08-26T06:44:14.000Z</Time>
            <Position>
              <LatitudeDegrees>42.90382348001003265380859375</LatitudeDegrees>
              <LongitudeDegrees>-1.79524783976376056671142578125</LongitudeDegrees>
            </Position>
            <AltitudeMeters>462.399993896484375</AltitudeMeters>
            <DistanceMeters>26177.491475312</DistanceMeters>
          </Trackpoint>
          <Trackpoint>
            <Time>2018-08-26T06:44:15.000Z</Time>
            <Position>
              <LatitudeDegrees>42.90387234650552272796630859375</LatitudeDegrees>
              <LongitudeDegrees>-1.7952024936676025390625</LongitudeDegrees>
            </Position>
            <AltitudeMeters>462.399993896484375</AltitudeMeters>
            <DistanceMeters>26184.068257669</DistanceMeters>
          </Trackpoint>
          <Trackpoint>
            <Time>2018-08-26T06:44:16.000Z</Time>
            <Position>
              <LatitudeDegrees>42.90392003953456878662109375</LatitudeDegrees>
              <LongitudeDegrees>-1.79515010677278041839599609375</LongitudeDegrees>
            </Position>
            <AltitudeMeters>462.399993896484375</AltitudeMeters>
            <DistanceMeters>26190.881745983</DistanceMeters>
          </Trackpoint>
          <Trackpoint>
            <Time>2018-08-26T06:44:17.000Z</Time>
            <Position>
              <LatitudeDegrees>42.9039649665355682373046875</LatitudeDegrees>
              <LongitudeDegrees>-1.79509394802153110504150390625</LongitudeDegrees>
            </Position>
            <AltitudeMeters>462.399993896484375</AltitudeMeters>
            <DistanceMeters>26197.662686128</DistanceMeters>
          </Trackpoint>
          <Trackpoint>
            <Time>2018-08-26T06:44:18.000Z</Time>
            <Position>
              <LatitudeDegrees>42.90401098318397998809814453125</LatitudeDegrees>
              <LongitudeDegrees>-1.795035190880298614501953125</LongitudeDegrees>
            </Position>
            <AltitudeMeters>462.79998779296875</AltitudeMeters>
            <DistanceMeters>26204.675374365</DistanceMeters>
          </Trackpoint>
          <Trackpoint>
            <Time>2018-08-26T06:44:19.000Z</Time>
            <Position>
              <LatitudeDegrees>42.90405138395726680755615234375</LatitudeDegrees>
              <LongitudeDegrees>-1.79497383534908294677734375</LongitudeDegrees>
            </Position>
            <AltitudeMeters>462.79998779296875</AltitudeMeters>
            <DistanceMeters>26211.401493825</DistanceMeters>
          </Trackpoint>
          <Trackpoint>
            <Time>2018-08-26T06:44:20.000Z</Time>
            <Position>
              <LatitudeDegrees>42.90408843196928501129150390625</LatitudeDegrees>
              <LongitudeDegrees>-1.7949039302766323089599609375</LongitudeDegrees>
            </Position>
            <AltitudeMeters>463</AltitudeMeters>
            <DistanceMeters>26218.435396641</DistanceMeters>
          </Trackpoint>
          <Trackpoint>
            <Time>2018-08-26T06:44:21.000Z</Time>
            <Position>
              <LatitudeDegrees>42.904122211039066314697265625</LatitudeDegrees>
              <LongitudeDegrees>-1.79482555948197841644287109375</LongitudeDegrees>
            </Position>
            <AltitudeMeters>463</AltitudeMeters>
            <DistanceMeters>26225.848089483</DistanceMeters>
          </Trackpoint>
          <Trackpoint>
            <Time>2018-08-26T06:44:22.000Z</Time>
            <Position>
              <LatitudeDegrees>42.90415280498564243316650390625</LatitudeDegrees>
              <LongitudeDegrees>-1.7947436682879924774169921875</LongitudeDegrees>
            </Position>
            <AltitudeMeters>463.20001220703125</AltitudeMeters>
            <DistanceMeters>26233.342559143</DistanceMeters>
          </Trackpoint>
          <Trackpoint>
            <Time>2018-08-26T06:44:23.000Z</Time>
            <Position>
              <LatitudeDegrees>42.9041787050664424896240234375</LatitudeDegrees>
              <LongitudeDegrees>-1.794659681618213653564453125</LongitudeDegrees>
            </Position>
            <AltitudeMeters>463.20001220703125</AltitudeMeters>
            <DistanceMeters>26240.771679362</DistanceMeters>
          </Trackpoint>
          <Trackpoint>
            <Time>2018-08-26T06:44:24.000Z</Time>
            <Position>
              <LatitudeDegrees>42.90420410223305225372314453125</LatitudeDegrees>
              <LongitudeDegrees>-1.7945767007768154144287109375</LongitudeDegrees>
            </Position>
            <AltitudeMeters>463.20001220703125</AltitudeMeters>
            <DistanceMeters>26248.10353077</DistanceMeters>
          </Trackpoint>
          <Trackpoint>
            <Time>2018-08-26T06:44:25.000Z</Time>
            <Position>
              <LatitudeDegrees>42.9042346961796283721923828125</LatitudeDegrees>
              <LongitudeDegrees>-1.79449380375444889068603515625</LongitudeDegrees>
            </Position>
            <AltitudeMeters>463.20001220703125</AltitudeMeters>
            <DistanceMeters>26255.671142335</DistanceMeters>
          </Trackpoint>
          <Trackpoint>
            <Time>2018-08-26T06:44:26.000Z</Time>
            <Position>
              <LatitudeDegrees>42.90427333675324916839599609375</LatitudeDegrees>
              <LongitudeDegrees>-1.79441803134977817535400390625</LongitudeDegrees>
            </Position>
            <AltitudeMeters>463.399993896484375</AltitudeMeters>
            <DistanceMeters>26263.198673782</DistanceMeters>
          </Trackpoint>
          <Trackpoint>
            <Time>2018-08-26T06:44:27.000Z</Time>
            <Position>
              <LatitudeDegrees>42.904322706162929534912109375</LatitudeDegrees>
              <LongitudeDegrees>-1.794356591999530792236328125</LongitudeDegrees>
            </Position>
            <AltitudeMeters>463.399993896484375</AltitudeMeters>
            <DistanceMeters>26270.633869004</DistanceMeters>
          </Trackpoint>
          <Trackpoint>
            <Time>2018-08-26T06:44:28.000Z</Time>
            <Position>
              <LatitudeDegrees>42.9043765179812908172607421875</LatitudeDegrees>
              <LongitudeDegrees>-1.79430889897048473358154296875</LongitudeDegrees>
            </Position>
            <AltitudeMeters>463.20001220703125</AltitudeMeters>
            <DistanceMeters>26277.774796233</DistanceMeters>
          </Trackpoint>
          <Trackpoint>
            <Time>2018-08-26T06:44:29.000Z</Time>
            <Position>
              <LatitudeDegrees>42.90443208999931812286376953125</LatitudeDegrees>
              <LongitudeDegrees>-1.7942665703594684600830078125</LongitudeDegrees>
            </Position>
            <AltitudeMeters>463.20001220703125</AltitudeMeters>
            <DistanceMeters>26284.857952642</DistanceMeters>
          </Trackpoint>
          <Trackpoint>
            <Time>2018-08-26T06:44:30.000Z</Time>
            <Position>
              <LatitudeDegrees>42.90448824875056743621826171875</LatitudeDegrees>
              <LongitudeDegrees>-1.7942246608436107635498046875</LongitudeDegrees>
            </Position>
            <AltitudeMeters>463.399993896484375</AltitudeMeters>
            <DistanceMeters>26291.981787958</DistanceMeters>
          </Trackpoint>
          <Trackpoint>
            <Time>2018-08-26T06:44:31.000Z</Time>
            <Position>
              <LatitudeDegrees>42.90454423986375331878662109375</LatitudeDegrees>
              <LongitudeDegrees>-1.79418501444160938262939453125</LongitudeDegrees>
            </Position>
            <AltitudeMeters>463.399993896484375</AltitudeMeters>
            <DistanceMeters>26299.002198006</DistanceMeters>
          </Trackpoint>
          <Trackpoint>
            <Time>2018-08-26T06:44:32.000Z</Time>
            <Position>
              <LatitudeDegrees>42.90459553711116313934326171875</LatitudeDegrees>
              <LongitudeDegrees>-1.794145368039608001708984375</LongitudeDegrees>
            </Position>
            <AltitudeMeters>463.399993896484375</AltitudeMeters>
            <DistanceMeters>26305.563859722</DistanceMeters>
          </Trackpoint>
          <Trackpoint>
            <Time>2018-08-26T06:44:33.000Z</Time>
            <Position>
              <LatitudeDegrees>42.9046454094350337982177734375</LatitudeDegrees>
              <LongitudeDegrees>-1.79410823620855808258056640625</LongitudeDegrees>
            </Position>
            <AltitudeMeters>463.399993896484375</AltitudeMeters>
            <DistanceMeters>26311.886529128</DistanceMeters>
          </Trackpoint>
          <Trackpoint>
            <Time>2018-08-26T06:44:34.000Z</Time>
            <Position>
              <LatitudeDegrees>42.9046953655779361724853515625</LatitudeDegrees>
              <LongitudeDegrees>-1.7940717749297618865966796875</LongitudeDegrees>
            </Position>
            <AltitudeMeters>463.600006103515625</AltitudeMeters>
            <DistanceMeters>26318.19132068</DistanceMeters>
          </Trackpoint>
          <Trackpoint>
            <Time>2018-08-26T06:44:35.000Z</Time>
            <Position>
              <LatitudeDegrees>42.9047426395118236541748046875</LatitudeDegrees>
              <LongitudeDegrees>-1.79403682239353656768798828125</LongitudeDegrees>
            </Position>
            <AltitudeMeters>463.600006103515625</AltitudeMeters>
            <DistanceMeters>26324.175740717</DistanceMeters>
          </Trackpoint>
          <Trackpoint>
            <Time>2018-08-26T06:44:36.000Z</Time>
            <Position>
              <LatitudeDegrees>42.90478982962667942047119140625</LatitudeDegrees>
              <LongitudeDegrees>-1.794001869857311248779296875</LongitudeDegrees>
            </Position>
            <AltitudeMeters>463.600006103515625</AltitudeMeters>
            <DistanceMeters>26330.151100309</DistanceMeters>
          </Trackpoint>
          <Trackpoint>
            <Time>2018-08-26T06:44:37.000Z</Time>
            <Position>
              <LatitudeDegrees>42.90483467280864715576171875</LatitudeDegrees>
              <LongitudeDegrees>-1.7939691804349422454833984375</LongitudeDegrees>
            </Position>
            <AltitudeMeters>463.600006103515625</AltitudeMeters>
            <DistanceMeters>26335.809779578</DistanceMeters>
          </Trackpoint>
          <Trackpoint>
            <Time>2018-08-26T06:44:38.000Z</Time>
            <Position>
              <LatitudeDegrees>42.9048767499625682830810546875</LatitudeDegrees>
              <LongitudeDegrees>-1.7939363233745098114013671875</LongitudeDegrees>
            </Position>
            <AltitudeMeters>463.600006103515625</AltitudeMeters>
            <DistanceMeters>26341.205422863</DistanceMeters>
          </Trackpoint>
          <Trackpoint>
            <Time>2018-08-26T06:44:39.000Z</Time>
            <Position>
              <LatitudeDegrees>42.9049179889261722564697265625</LatitudeDegrees>
              <LongitudeDegrees>-1.79390430450439453125</LongitudeDegrees>
            </Position>
            <AltitudeMeters>463.600006103515625</AltitudeMeters>
            <DistanceMeters>26346.48603609</DistanceMeters>
          </Trackpoint>
          <Trackpoint>
            <Time>2018-08-26T06:44:40.000Z</Time>
            <Position>
              <LatitudeDegrees>42.90495805442333221435546875</LatitudeDegrees>
              <LongitudeDegrees>-1.793874464929103851318359375</LongitudeDegrees>
            </Position>
            <AltitudeMeters>463.600006103515625</AltitudeMeters>
            <DistanceMeters>26351.566189481</DistanceMeters>
          </Trackpoint>
          <Trackpoint>
            <Time>2018-08-26T06:44:41.000Z</Time>
            <Position>
              <LatitudeDegrees>42.90499635972082614898681640625</LatitudeDegrees>
              <LongitudeDegrees>-1.79384705610573291778564453125</LongitudeDegrees>
            </Position>
            <AltitudeMeters>463.600006103515625</AltitudeMeters>
            <DistanceMeters>26356.378896212</DistanceMeters>
          </Trackpoint>
          <Trackpoint>
            <Time>2018-08-26T06:44:42.000Z</Time>
            <Position>
              <LatitudeDegrees>42.9050351679325103759765625</LatitudeDegrees>
              <LongitudeDegrees>-1.79381973110139369964599609375</LongitudeDegrees>
            </Position>
            <AltitudeMeters>463.600006103515625</AltitudeMeters>
            <DistanceMeters>26361.238284024</DistanceMeters>
          </Trackpoint>
          <Trackpoint>
            <Time>2018-08-26T06:44:43.000Z</Time>
            <Position>
              <LatitudeDegrees>42.9050738923251628875732421875</LatitudeDegrees>
              <LongitudeDegrees>-1.7937928251922130584716796875</LongitudeDegrees>
            </Position>
            <AltitudeMeters>463.79998779296875</AltitudeMeters>
            <DistanceMeters>26366.07438762</DistanceMeters>
          </Trackpoint>
          <Trackpoint>
            <Time>2018-08-26T06:44:44.000Z</Time>
            <Position>
              <LatitudeDegrees>42.90511286817491054534912109375</LatitudeDegrees>
              <LongitudeDegrees>-1.7937666736543178558349609375</LongitudeDegrees>
            </Position>
            <AltitudeMeters>464.20001220703125</AltitudeMeters>
            <DistanceMeters>26370.907689572</DistanceMeters>
          </Trackpoint>
          <Trackpoint>
            <Time>2018-08-26T06:44:45.000Z</Time>
            <Position>
              <LatitudeDegrees>42.9051503352820873260498046875</LatitudeDegrees>
              <LongitudeDegrees>-1.7937425337731838226318359375</LongitudeDegrees>
            </Position>
            <AltitudeMeters>465</AltitudeMeters>
            <DistanceMeters>26375.518199299</DistanceMeters>
          </Trackpoint>
          <Trackpoint>
            <Time>2018-08-26T06:44:46.000Z</Time>
            <Position>
              <LatitudeDegrees>42.90518738329410552978515625</LatitudeDegrees>
              <LongitudeDegrees>-1.79372166283428668975830078125</LongitudeDegrees>
            </Position>
            <AltitudeMeters>465.399993896484375</AltitudeMeters>
            <DistanceMeters>26379.979397399</DistanceMeters>
          </Trackpoint>
          <Trackpoint>
            <Time>2018-08-26T06:44:47.000Z</Time>
            <Position>
              <LatitudeDegrees>42.90522702969610691070556640625</LatitudeDegrees>
              <LongitudeDegrees>-1.79370255209505558013916015625</LongitudeDegrees>
            </Position>
            <AltitudeMeters>465.600006103515625</AltitudeMeters>
            <DistanceMeters>26384.658920385</DistanceMeters>
          </Trackpoint>
          <Trackpoint>
            <Time>2018-08-26T06:44:48.000Z</Time>
            <Position>
              <LatitudeDegrees>42.90526759810745716094970703125</LatitudeDegrees>
              <LongitudeDegrees>-1.79368662647902965545654296875</LongitudeDegrees>
            </Position>
            <AltitudeMeters>466</AltitudeMeters>
            <DistanceMeters>26389.356739754</DistanceMeters>
          </Trackpoint>
          <Trackpoint>
            <Time>2018-08-26T06:44:49.000Z</Time>
            <Position>
              <LatitudeDegrees>42.9053085856139659881591796875</LatitudeDegrees>
              <LongitudeDegrees>-1.79367472417652606964111328125</LongitudeDegrees>
            </Position>
            <AltitudeMeters>466.79998779296875</AltitudeMeters>
            <DistanceMeters>26394.021767539</DistanceMeters>
          </Trackpoint>
          <Trackpoint>
            <Time>2018-08-26T06:44:50.000Z</Time>
            <Position>
              <LatitudeDegrees>42.90534823201596736907958984375</LatitudeDegrees>
              <LongitudeDegrees>-1.79366516880691051483154296875</LongitudeDegrees>
            </Position>
            <AltitudeMeters>467.399993896484375</AltitudeMeters>
            <DistanceMeters>26398.503161297</DistanceMeters>
          </Trackpoint>
          <Trackpoint>
            <Time>2018-08-26T06:44:51.000Z</Time>
            <Position>
              <LatitudeDegrees>42.90538729168474674224853515625</LatitudeDegrees>
              <LongitudeDegrees>-1.79365846328437328338623046875</LongitudeDegrees>
            </Position>
            <AltitudeMeters>467.79998779296875</AltitudeMeters>
            <DistanceMeters>26402.884706974</DistanceMeters>
          </Trackpoint>
          <Trackpoint>
            <Time>2018-08-26T06:44:52.000Z</Time>
            <Position>
              <LatitudeDegrees>42.90542786009609699249267578125</LatitudeDegrees>
              <LongitudeDegrees>-1.793653182685375213623046875</LongitudeDegrees>
            </Position>
            <AltitudeMeters>468.399993896484375</AltitudeMeters>
            <DistanceMeters>26407.420179842</DistanceMeters>
          </Trackpoint>
          <Trackpoint>
            <Time>2018-08-26T06:44:53.000Z</Time>
            <Position>
              <LatitudeDegrees>42.90546901524066925048828125</LatitudeDegrees>
              <LongitudeDegrees>-1.79365075193345546722412109375</LongitudeDegrees>
            </Position>
            <AltitudeMeters>468.600006103515625</AltitudeMeters>
            <DistanceMeters>26412.004172412</DistanceMeters>
          </Trackpoint>
          <Trackpoint>
            <Time>2018-08-26T06:44:54.000Z</Time>
            <Position>
              <LatitudeDegrees>42.90550916455686092376708984375</LatitudeDegrees>
              <LongitudeDegrees>-1.7936540208756923675537109375</LongitudeDegrees>
            </Position>
            <AltitudeMeters>469</AltitudeMeters>
            <DistanceMeters>26416.480525798</DistanceMeters>
          </Trackpoint>
          <Trackpoint>
            <Time>2018-08-26T06:44:55.000Z</Time>
            <Position>
              <LatitudeDegrees>42.9055483080446720123291015625</LatitudeDegrees>
              <LongitudeDegrees>-1.79365946911275386810302734375</LongitudeDegrees>
            </Position>
            <AltitudeMeters>469.399993896484375</AltitudeMeters>
            <DistanceMeters>26420.861040886</DistanceMeters>
          </Trackpoint>
          <Trackpoint>
            <Time>2018-08-26T06:44:56.000Z</Time>
            <Position>
              <LatitudeDegrees>42.9055875353515148162841796875</LatitudeDegrees>
              <LongitudeDegrees>-1.793666593730449676513671875</LongitudeDegrees>
            </Position>
            <AltitudeMeters>469.79998779296875</AltitudeMeters>
            <DistanceMeters>26425.267248366</DistanceMeters>
          </Trackpoint>
          <Trackpoint>
            <Time>2018-08-26T06:44:57.000Z</Time>
            <Position>
              <LatitudeDegrees>42.90562860667705535888671875</LatitudeDegrees>
              <LongitudeDegrees>-1.79367505945265293121337890625</LongitudeDegrees>
            </Position>
            <AltitudeMeters>470.20001220703125</AltitudeMeters>
            <DistanceMeters>26429.89047137</DistanceMeters>
          </Trackpoint>
          <Trackpoint>
            <Time>2018-08-26T06:44:58.000Z</Time>
            <Position>
              <LatitudeDegrees>42.90566925890743732452392578125</LatitudeDegrees>
              <LongitudeDegrees>-1.79368528537452220916748046875</LongitudeDegrees>
            </Position>
            <AltitudeMeters>470.399993896484375</AltitudeMeters>
            <DistanceMeters>26434.491177749</DistanceMeters>
          </Trackpoint>
          <Trackpoint>
            <Time>2018-08-26T06:44:59.000Z</Time>
            <Position>
              <LatitudeDegrees>42.9057095758616924285888671875</LatitudeDegrees>
              <LongitudeDegrees>-1.79369576275348663330078125</LongitudeDegrees>
            </Position>
            <AltitudeMeters>470.399993896484375</AltitudeMeters>
            <DistanceMeters>26439.060372069</DistanceMeters>
          </Trackpoint>
          <Trackpoint>
            <Time>2018-08-26T06:45:00.000Z</Time>
            <Position>
              <LatitudeDegrees>42.9057498089969158172607421875</LatitudeDegrees>
              <LongitudeDegrees>-1.7937056533992290496826171875</LongitudeDegrees>
            </Position>
            <AltitudeMeters>470.600006103515625</AltitudeMeters>
            <DistanceMeters>26443.610752854</DistanceMeters>
          </Trackpoint>
          <Trackpoint>
            <Time>2018-08-26T06:45:01.000Z</Time>
            <Position>
              <LatitudeDegrees>42.90579046122729778289794921875</LatitudeDegrees>
              <LongitudeDegrees>-1.79371629841625690460205078125</LongitudeDegrees>
            </Position>
            <AltitudeMeters>471</AltitudeMeters>
            <DistanceMeters>26448.217343746</DistanceMeters>
          </Trackpoint>
          <Trackpoint>
            <Time>2018-08-26T06:45:02.000Z</Time>
            <Position>
              <LatitudeDegrees>42.9058319516479969024658203125</LatitudeDegrees>
              <LongitudeDegrees>-1.79372719489037990570068359375</LongitudeDegrees>
            </Position>
            <AltitudeMeters>471.20001220703125</AltitudeMeters>
            <DistanceMeters>26452.919005913</DistanceMeters>
          </Trackpoint>
          <Trackpoint>
            <Time>2018-08-26T06:45:03.000Z</Time>
            <Position>
              <LatitudeDegrees>42.90587411262094974517822265625</LatitudeDegrees>
              <LongitudeDegrees>-1.79373825900256633758544921875</LongitudeDegrees>
            </Position>
            <AltitudeMeters>471.79998779296875</AltitudeMeters>
            <DistanceMeters>26457.696875025</DistanceMeters>
          </Trackpoint>
          <Trackpoint>
            <Time>2018-08-26T06:45:04.000Z</Time>
            <Position>
              <LatitudeDegrees>42.90591618977487087249755859375</LatitudeDegrees>
              <LongitudeDegrees>-1.79374940693378448486328125</LongitudeDegrees>
            </Position>
            <AltitudeMeters>472</AltitudeMeters>
            <DistanceMeters>26462.467178227</DistanceMeters>
          </Trackpoint>
          <Trackpoint>
            <Time>2018-08-26T06:45:05.000Z</Time>
            <Position>
              <LatitudeDegrees>42.90595860220491886138916015625</LatitudeDegrees>
              <LongitudeDegrees>-1.79375921376049518585205078125</LongitudeDegrees>
            </Position>
            <AltitudeMeters>472.600006103515625</AltitudeMeters>
            <DistanceMeters>26467.256373793</DistanceMeters>
          </Trackpoint>
          <Trackpoint>
            <Time>2018-08-26T06:45:06.000Z</Time>
            <Position>
              <LatitudeDegrees>42.9060007631778717041015625</LatitudeDegrees>
              <LongitudeDegrees>-1.79376910440623760223388671875</LongitudeDegrees>
            </Position>
            <AltitudeMeters>472.600006103515625</AltitudeMeters>
            <DistanceMeters>26472.017202699</DistanceMeters>
          </Trackpoint>
          <Trackpoint>
            <Time>2018-08-26T06:45:07.000Z</Time>
            <Position>
              <LatitudeDegrees>42.90604359470307826995849609375</LatitudeDegrees>
              <LongitudeDegrees>-1.79377899505198001861572265625</LongitudeDegrees>
            </Position>
            <AltitudeMeters>473</AltitudeMeters>
            <DistanceMeters>26476.851438713</DistanceMeters>
          </Trackpoint>
          <Trackpoint>
            <Time>2018-08-26T06:45:08.000Z</Time>
            <Position>
              <LatitudeDegrees>42.90608701296150684356689453125</LatitudeDegrees>
              <LongitudeDegrees>-1.79378804750740528106689453125</LongitudeDegrees>
            </Position>
            <AltitudeMeters>473.399993896484375</AltitudeMeters>
            <DistanceMeters>26481.739544917</DistanceMeters>
          </Trackpoint>
          <Trackpoint>
            <Time>2018-08-26T06:45:09.000Z</Time>
            <Position>
              <LatitudeDegrees>42.906131856143474578857421875</LatitudeDegrees>
              <LongitudeDegrees>-1.79379525594413280487060546875</LongitudeDegrees>
            </Position>
            <AltitudeMeters>473.79998779296875</AltitudeMeters>
            <DistanceMeters>26486.764293044</DistanceMeters>
          </Trackpoint>
          <Trackpoint>
            <Time>2018-08-26T06:45:10.000Z</Time>
            <Position>
              <LatitudeDegrees>42.9061779566109180450439453125</LatitudeDegrees>
              <LongitudeDegrees>-1.79380171000957489013671875</LongitudeDegrees>
            </Position>
            <AltitudeMeters>474</AltitudeMeters>
            <DistanceMeters>26491.922064385</DistanceMeters>
          </Trackpoint>
          <Trackpoint>
            <Time>2018-08-26T06:45:11.000Z</Time>
            <Position>
              <LatitudeDegrees>42.906224392354488372802734375</LatitudeDegrees>
              <LongitudeDegrees>-1.793805398046970367431640625</LongitudeDegrees>
            </Position>
            <AltitudeMeters>474.399993896484375</AltitudeMeters>
            <DistanceMeters>26497.099058386</DistanceMeters>
          </Trackpoint>
          <Trackpoint>
            <Time>2018-08-26T06:45:12.000Z</Time>
            <Position>
              <LatitudeDegrees>42.90627175010740756988525390625</LatitudeDegrees>
              <LongitudeDegrees>-1.7938064038753509521484375</LongitudeDegrees>
            </Position>
            <AltitudeMeters>474.399993896484375</AltitudeMeters>
            <DistanceMeters>26502.371114464</DistanceMeters>
          </Trackpoint>
          <Trackpoint>
            <Time>2018-08-26T06:45:13.000Z</Time>
            <Position>
              <LatitudeDegrees>42.9063191078603267669677734375</LatitudeDegrees>
              <LongitudeDegrees>-1.7938045598566532135009765625</LongitudeDegrees>
            </Position>
            <AltitudeMeters>474.399993896484375</AltitudeMeters>
            <DistanceMeters>26507.644883083</DistanceMeters>
          </Trackpoint>
          <Trackpoint>
            <Time>2018-08-26T06:45:14.000Z</Time>
            <Position>
              <LatitudeDegrees>42.906366549432277679443359375</LatitudeDegrees>
              <LongitudeDegrees>-1.7937998659908771514892578125</LongitudeDegrees>
            </Position>
            <AltitudeMeters>474.600006103515625</AltitudeMeters>
            <DistanceMeters>26512.939158981</DistanceMeters>
          </Trackpoint>
          <Trackpoint>
            <Time>2018-08-26T06:45:15.000Z</Time>
            <Position>
              <LatitudeDegrees>42.90641424246132373809814453125</LatitudeDegrees>
              <LongitudeDegrees>-1.7937931604683399200439453125</LongitudeDegrees>
            </Position>
            <AltitudeMeters>475</AltitudeMeters>
            <DistanceMeters>26518.275905284</DistanceMeters>
          </Trackpoint>
          <Trackpoint>
            <Time>2018-08-26T06:45:16.000Z</Time>
            <Position>
              <LatitudeDegrees>42.90646277368068695068359375</LatitudeDegrees>
              <LongitudeDegrees>-1.79378503002226352691650390625</LongitudeDegrees>
            </Position>
            <AltitudeMeters>475</AltitudeMeters>
            <DistanceMeters>26523.719036811</DistanceMeters>
          </Trackpoint>
          <Trackpoint>
            <Time>2018-08-26T06:45:17.000Z</Time>
            <Position>
              <LatitudeDegrees>42.9065115563571453094482421875</LatitudeDegrees>
              <LongitudeDegrees>-1.7937760613858699798583984375</LongitudeDegrees>
            </Position>
            <AltitudeMeters>475.20001220703125</AltitudeMeters>
            <DistanceMeters>26529.197720421</DistanceMeters>
          </Trackpoint>
          <Trackpoint>
            <Time>2018-08-26T06:45:18.000Z</Time>
            <Position>
              <LatitudeDegrees>42.9065608419477939605712890625</LatitudeDegrees>
              <LongitudeDegrees>-1.79376625455915927886962890625</LongitudeDegrees>
            </Position>
            <AltitudeMeters>475.20001220703125</AltitudeMeters>
            <DistanceMeters>26534.741940854</DistanceMeters>
          </Trackpoint>
          <Trackpoint>
            <Time>2018-08-26T06:45:19.000Z</Time>
            <Position>
              <LatitudeDegrees>42.90661088190972805023193359375</LatitudeDegrees>
              <LongitudeDegrees>-1.79375502280890941619873046875</LongitudeDegrees>
            </Position>
            <AltitudeMeters>475.399993896484375</AltitudeMeters>
            <DistanceMeters>26540.386239721</DistanceMeters>
          </Trackpoint>
          <Trackpoint>
            <Time>2018-08-26T06:45:20.000Z</Time>
            <Position>
              <LatitudeDegrees>42.90666134096682071685791015625</LatitudeDegrees>
              <LongitudeDegrees>-1.793743707239627838134765625</LongitudeDegrees>
            </Position>
            <AltitudeMeters>475.399993896484375</AltitudeMeters>
            <DistanceMeters>26546.076745334</DistanceMeters>
          </Trackpoint>
          <Trackpoint>
            <Time>2018-08-26T06:45:21.000Z</Time>
            <Position>
              <LatitudeDegrees>42.9067115485668182373046875</LatitudeDegrees>
              <LongitudeDegrees>-1.79373272694647312164306640625</LongitudeDegrees>
            </Position>
            <AltitudeMeters>475.79998779296875</AltitudeMeters>
            <DistanceMeters>26551.736222442</DistanceMeters>
          </Trackpoint>
          <Trackpoint>
            <Time>2018-08-26T06:45:22.000Z</Time>
            <Position>
              <LatitudeDegrees>42.90676175616681575775146484375</LatitudeDegrees>
              <LongitudeDegrees>-1.793722920119762420654296875</LongitudeDegrees>
            </Position>
            <AltitudeMeters>475.79998779296875</AltitudeMeters>
            <DistanceMeters>26557.381321181</DistanceMeters>
          </Trackpoint>
          <Trackpoint>
            <Time>2018-08-26T06:45:23.000Z</Time>
            <Position>
              <LatitudeDegrees>42.90681322105228900909423828125</LatitudeDegrees>
              <LongitudeDegrees>-1.793713532388210296630859375</LongitudeDegrees>
            </Position>
            <AltitudeMeters>476</AltitudeMeters>
            <DistanceMeters>26563.160008116</DistanceMeters>
          </Trackpoint>
          <Trackpoint>
            <Time>2018-08-26T06:45:24.000Z</Time>
            <Position>
              <LatitudeDegrees>42.90686636231839656829833984375</LatitudeDegrees>
              <LongitudeDegrees>-1.7937033064663410186767578125</LongitudeDegrees>
            </Position>
            <AltitudeMeters>476.399993896484375</AltitudeMeters>
            <DistanceMeters>26569.133856298</DistanceMeters>
          </Trackpoint>
          <Trackpoint>
            <Time>2018-08-26T06:45:25.000Z</Time>
            <Position>
              <LatitudeDegrees>42.90692084468901157379150390625</LatitudeDegrees>
              <LongitudeDegrees>-1.79368880577385425567626953125</LongitudeDegrees>
            </Position>
            <AltitudeMeters>476.399993896484375</AltitudeMeters>
            <DistanceMeters>26575.312785268</DistanceMeters>
          </Trackpoint>
          <Trackpoint>
            <Time>2018-08-26T06:45:26.000Z</Time>
            <Position>
              <LatitudeDegrees>42.90697432123124599456787109375</LatitudeDegrees>
              <LongitudeDegrees>-1.7936697788536548614501953125</LongitudeDegrees>
            </Position>
            <AltitudeMeters>476.600006103515625</AltitudeMeters>
            <DistanceMeters>26581.464618358</DistanceMeters>
          </Trackpoint>
          <Trackpoint>
            <Time>2018-08-26T06:45:27.000Z</Time>
            <Position>
              <LatitudeDegrees>42.9070305638015270233154296875</LatitudeDegrees>
              <LongitudeDegrees>-1.79364890791475772857666015625</LongitudeDegrees>
            </Position>
            <AltitudeMeters>476.600006103515625</AltitudeMeters>
            <DistanceMeters>26587.951540296</DistanceMeters>
          </Trackpoint>
          <Trackpoint>
            <Time>2018-08-26T06:45:28.000Z</Time>
            <Position>
              <LatitudeDegrees>42.90708580054342746734619140625</LatitudeDegrees>
              <LongitudeDegrees>-1.79362895898520946502685546875</LongitudeDegrees>
            </Position>
            <AltitudeMeters>476.600006103515625</AltitudeMeters>
            <DistanceMeters>26594.311944566</DistanceMeters>
          </Trackpoint>
          <Trackpoint>
            <Time>2018-08-26T06:45:29.000Z</Time>
            <Position>
              <LatitudeDegrees>42.90714011527597904205322265625</LatitudeDegrees>
              <LongitudeDegrees>-1.7936090938746929168701171875</LongitudeDegrees>
            </Position>
            <AltitudeMeters>476.600006103515625</AltitudeMeters>
            <DistanceMeters>26600.570014678</DistanceMeters>
          </Trackpoint>
          <Trackpoint>
            <Time>2018-08-26T06:45:30.000Z</Time>
            <Position>
              <LatitudeDegrees>42.90719476528465747833251953125</LatitudeDegrees>
              <LongitudeDegrees>-1.79359040223062038421630859375</LongitudeDegrees>
            </Position>
            <AltitudeMeters>476.600006103515625</AltitudeMeters>
            <DistanceMeters>26606.840337863</DistanceMeters>
          </Trackpoint>
          <Trackpoint>
            <Time>2018-08-26T06:45:31.000Z</Time>
            <Position>
              <LatitudeDegrees>42.9072481580078601837158203125</LatitudeDegrees>
              <LongitudeDegrees>-1.79357363842427730560302734375</LongitudeDegrees>
            </Position>
            <AltitudeMeters>477</AltitudeMeters>
            <DistanceMeters>26612.938358427</DistanceMeters>
          </Trackpoint>
          <Trackpoint>
            <Time>2018-08-26T06:45:32.000Z</Time>
            <Position>
              <LatitudeDegrees>42.9073016345500946044921875</LatitudeDegrees>
              <LongitudeDegrees>-1.79355838336050510406494140625</LongitudeDegrees>
            </Position>
            <AltitudeMeters>477</AltitudeMeters>
            <DistanceMeters>26619.018583173</DistanceMeters>
          </Trackpoint>
          <Trackpoint>
            <Time>2018-08-26T06:45:33.000Z</Time>
            <Position>
              <LatitudeDegrees>42.9073530994355678558349609375</LatitudeDegrees>
              <LongitudeDegrees>-1.7935447208583354949951171875</LongitudeDegrees>
            </Position>
            <AltitudeMeters>477</AltitudeMeters>
            <DistanceMeters>26624.853254388</DistanceMeters>
          </Trackpoint>
          <Trackpoint>
            <Time>2018-08-26T06:45:34.000Z</Time>
            <Position>
              <LatitudeDegrees>42.90740330703556537628173828125</LatitudeDegrees>
              <LongitudeDegrees>-1.7935326509177684783935546875</LongitudeDegrees>
            </Position>
            <AltitudeMeters>477</AltitudeMeters>
            <DistanceMeters>26630.52707343</DistanceMeters>
          </Trackpoint>
          <Trackpoint>
            <Time>2018-08-26T06:45:35.000Z</Time>
            <Position>
              <LatitudeDegrees>42.90745091624557971954345703125</LatitudeDegrees>
              <LongitudeDegrees>-1.79352049715816974639892578125</LongitudeDegrees>
            </Position>
            <AltitudeMeters>477</AltitudeMeters>
            <DistanceMeters>26635.918531125</DistanceMeters>
          </Trackpoint>
          <Trackpoint>
            <Time>2018-08-26T06:45:36.000Z</Time>
            <Position>
              <LatitudeDegrees>42.90749651379883289337158203125</LatitudeDegrees>
              <LongitudeDegrees>-1.79351010359823703765869140625</LongitudeDegrees>
            </Position>
            <AltitudeMeters>477</AltitudeMeters>
            <DistanceMeters>26641.064032474</DistanceMeters>
          </Trackpoint>
          <Trackpoint>
            <Time>2018-08-26T06:45:37.000Z</Time>
            <Position>
              <LatitudeDegrees>42.90753926150500774383544921875</LatitudeDegrees>
              <LongitudeDegrees>-1.79350172169506549835205078125</LongitudeDegrees>
            </Position>
            <AltitudeMeters>477</AltitudeMeters>
            <DistanceMeters>26645.870167672</DistanceMeters>
          </Trackpoint>
          <Trackpoint>
            <Time>2018-08-26T06:45:38.000Z</Time>
            <Position>
              <LatitudeDegrees>42.90758016519248485565185546875</LatitudeDegrees>
              <LongitudeDegrees>-1.7934934236109256744384765625</LongitudeDegrees>
            </Position>
            <AltitudeMeters>477</AltitudeMeters>
            <DistanceMeters>26650.472836391</DistanceMeters>
          </Trackpoint>
          <Trackpoint>
            <Time>2018-08-26T06:45:39.000Z</Time>
            <Position>
              <LatitudeDegrees>42.9076216556131839752197265625</LatitudeDegrees>
              <LongitudeDegrees>-1.793484874069690704345703125</LongitudeDegrees>
            </Position>
            <AltitudeMeters>477</AltitudeMeters>
            <DistanceMeters>26655.143667654</DistanceMeters>
          </Trackpoint>
          <Trackpoint>
            <Time>2018-08-26T06:45:40.000Z</Time>
            <Position>
              <LatitudeDegrees>42.90766197256743907928466796875</LatitudeDegrees>
              <LongitudeDegrees>-1.79347858764231204986572265625</LongitudeDegrees>
            </Position>
            <AltitudeMeters>477.20001220703125</AltitudeMeters>
            <DistanceMeters>26659.65918674</DistanceMeters>
          </Trackpoint>
          <Trackpoint>
            <Time>2018-08-26T06:45:41.000Z</Time>
            <Position>
              <LatitudeDegrees>42.90770069696009159088134765625</LatitudeDegrees>
              <LongitudeDegrees>-1.7934746481478214263916015625</LongitudeDegrees>
            </Position>
            <AltitudeMeters>477.20001220703125</AltitudeMeters>
            <DistanceMeters>26663.980552043</DistanceMeters>
          </Trackpoint>
          <Trackpoint>
            <Time>2018-08-26T06:45:42.000Z</Time>
            <Position>
              <LatitudeDegrees>42.907739169895648956298828125</LatitudeDegrees>
              <LongitudeDegrees>-1.7934706248342990875244140625</LongitudeDegrees>
            </Position>
            <AltitudeMeters>477.600006103515625</AltitudeMeters>
            <DistanceMeters>26668.274666166</DistanceMeters>
          </Trackpoint>
          <Trackpoint>
            <Time>2018-08-26T06:45:43.000Z</Time>
            <Position>
              <LatitudeDegrees>42.9077765531837940216064453125</LatitudeDegrees>
              <LongitudeDegrees>-1.79346350021660327911376953125</LongitudeDegrees>
            </Position>
            <AltitudeMeters>478</AltitudeMeters>
            <DistanceMeters>26672.476308636</DistanceMeters>
          </Trackpoint>
          <Trackpoint>
            <Time>2018-08-26T06:45:44.000Z</Time>
            <Position>
              <LatitudeDegrees>42.90781049989163875579833984375</LatitudeDegrees>
              <LongitudeDegrees>-1.7934558726847171783447265625</LongitudeDegrees>
            </Position>
            <AltitudeMeters>478.20001220703125</AltitudeMeters>
            <DistanceMeters>26676.305779115</DistanceMeters>
          </Trackpoint>
          <Trackpoint>
            <Time>2018-08-26T06:45:45.000Z</Time>
            <Position>
              <LatitudeDegrees>42.90784335695207118988037109375</LatitudeDegrees>
              <LongitudeDegrees>-1.793448664247989654541015625</LongitudeDegrees>
            </Position>
            <AltitudeMeters>478.399993896484375</AltitudeMeters>
            <DistanceMeters>26680.008164297</DistanceMeters>
          </Trackpoint>
          <Trackpoint>
            <Time>2018-08-26T06:45:46.000Z</Time>
            <Position>
              <LatitudeDegrees>42.907874286174774169921875</LatitudeDegrees>
              <LongitudeDegrees>-1.7934411205351352691650390625</LongitudeDegrees>
            </Position>
            <AltitudeMeters>478.600006103515625</AltitudeMeters>
            <DistanceMeters>26683.504837503</DistanceMeters>
          </Trackpoint>
          <Trackpoint>
            <Time>2018-08-26T06:45:47.000Z</Time>
            <Position>
              <LatitudeDegrees>42.9079059697687625885009765625</LatitudeDegrees>
              <LongitudeDegrees>-1.7934337444603443145751953125</LongitudeDegrees>
            </Position>
            <AltitudeMeters>479</AltitudeMeters>
            <DistanceMeters>26687.081933856</DistanceMeters>
          </Trackpoint>
          <Trackpoint>
            <Time>2018-08-26T06:45:48.000Z</Time>
            <Position>
              <LatitudeDegrees>42.90793664753437042236328125</LatitudeDegrees>
              <LongitudeDegrees>-1.793423853814601898193359375</LongitudeDegrees>
            </Position>
            <AltitudeMeters>479.399993896484375</AltitudeMeters>
            <DistanceMeters>26690.591495691</DistanceMeters>
          </Trackpoint>
          <Trackpoint>
            <Time>2018-08-26T06:45:49.000Z</Time>
            <Position>
              <LatitudeDegrees>42.90796740911900997161865234375</LatitudeDegrees>
              <LongitudeDegrees>-1.7934116162359714508056640625</LongitudeDegrees>
            </Position>
            <AltitudeMeters>479.79998779296875</AltitudeMeters>
            <DistanceMeters>26694.15721408</DistanceMeters>
          </Trackpoint>
          <Trackpoint>
            <Time>2018-08-26T06:45:50.000Z</Time>
            <Position>
              <LatitudeDegrees>42.90799875743687152862548828125</LatitudeDegrees>
              <LongitudeDegrees>-1.79339761845767498016357421875</LongitudeDegrees>
            </Position>
            <AltitudeMeters>480.20001220703125</AltitudeMeters>
            <DistanceMeters>26697.827755464</DistanceMeters>
          </Trackpoint>
          <Trackpoint>
            <Time>2018-08-26T06:45:51.000Z</Time>
            <Position>
              <LatitudeDegrees>42.9080313630402088165283203125</LatitudeDegrees>
              <LongitudeDegrees>-1.793382279574871063232421875</LongitudeDegrees>
            </Position>
            <AltitudeMeters>480.79998779296875</AltitudeMeters>
            <DistanceMeters>26701.666646549</DistanceMeters>
          </Trackpoint>
          <Trackpoint>
            <Time>2018-08-26T06:45:52.000Z</Time>
            <Position>
              <LatitudeDegrees>42.90806296281516551971435546875</LatitudeDegrees>
              <LongitudeDegrees>-1.79336660541594028472900390625</LongitudeDegrees>
            </Position>
            <AltitudeMeters>481.20001220703125</AltitudeMeters>
            <DistanceMeters>26705.410264937</DistanceMeters>
          </Trackpoint>
          <Trackpoint>
            <Time>2018-08-26T06:45:53.000Z</Time>
            <Position>
              <LatitudeDegrees>42.908094227313995361328125</LatitudeDegrees>
              <LongitudeDegrees>-1.793350763618946075439453125</LongitudeDegrees>
            </Position>
            <AltitudeMeters>481.600006103515625</AltitudeMeters>
            <DistanceMeters>26709.122393256</DistanceMeters>
          </Trackpoint>
          <Trackpoint>
            <Time>2018-08-26T06:45:54.000Z</Time>
            <Position>
              <LatitudeDegrees>42.9081259109079837799072265625</LatitudeDegrees>
              <LongitudeDegrees>-1.79333525709807872772216796875</LongitudeDegrees>
            </Position>
            <AltitudeMeters>481.79998779296875</AltitudeMeters>
            <DistanceMeters>26712.868422993</DistanceMeters>
          </Trackpoint>
          <Trackpoint>
            <Time>2018-08-26T06:45:55.000Z</Time>
            <Position>
              <LatitudeDegrees>42.90815885178744792938232421875</LatitudeDegrees>
              <LongitudeDegrees>-1.79331916384398937225341796875</LongitudeDegrees>
            </Position>
            <AltitudeMeters>482.20001220703125</AltitudeMeters>
            <DistanceMeters>26716.762199868</DistanceMeters>
          </Trackpoint>
          <Trackpoint>
            <Time>2018-08-26T06:45:56.000Z</Time>
            <Position>
              <LatitudeDegrees>42.90819120593369007110595703125</LatitudeDegrees>
              <LongitudeDegrees>-1.79330424405634403228759765625</LongitudeDegrees>
            </Position>
            <AltitudeMeters>482.600006103515625</AltitudeMeters>
            <DistanceMeters>26720.563268443</DistanceMeters>
          </Trackpoint>
          <Trackpoint>
            <Time>2018-08-26T06:45:57.000Z</Time>
            <Position>
              <LatitudeDegrees>42.90822288952767848968505859375</LatitudeDegrees>
              <LongitudeDegrees>-1.793289072811603546142578125</LongitudeDegrees>
            </Position>
            <AltitudeMeters>483</AltitudeMeters>
            <DistanceMeters>26724.302059469</DistanceMeters>
          </Trackpoint>
          <Trackpoint>
            <Time>2018-08-26T06:45:58.000Z</Time>
            <Position>
              <LatitudeDegrees>42.908255495131015777587890625</LatitudeDegrees>
              <LongitudeDegrees>-1.7932721413671970367431640625</LongitudeDegrees>
            </Position>
            <AltitudeMeters>483.20001220703125</AltitudeMeters>
            <DistanceMeters>26728.185386349</DistanceMeters>
          </Trackpoint>
          <Trackpoint>
            <Time>2018-08-26T06:45:59.000Z</Time>
            <Position>
              <LatitudeDegrees>42.908288352191448211669921875</LatitudeDegrees>
              <LongitudeDegrees>-1.7932557128369808197021484375</LongitudeDegrees>
            </Position>
            <AltitudeMeters>483.399993896484375</AltitudeMeters>
            <DistanceMeters>26732.079163224</DistanceMeters>
          </Trackpoint>
          <Trackpoint>
            <Time>2018-08-26T06:46:00.000Z</Time>
            <Position>
              <LatitudeDegrees>42.90832095779478549957275390625</LatitudeDegrees>
              <LongitudeDegrees>-1.793239451944828033447265625</LongitudeDegrees>
            </Position>
            <AltitudeMeters>484</AltitudeMeters>
            <DistanceMeters>26735.943842569</DistanceMeters>
          </Trackpoint>
          <Trackpoint>
            <Time>2018-08-26T06:46:01.000Z</Time>
            <Position>
              <LatitudeDegrees>42.90835498832166194915771484375</LatitudeDegrees>
              <LongitudeDegrees>-1.7932238616049289703369140625</LongitudeDegrees>
            </Position>
            <AltitudeMeters>484.399993896484375</AltitudeMeters>
            <DistanceMeters>26739.939487092</DistanceMeters>
          </Trackpoint>
          <Trackpoint>
            <Time>2018-08-26T06:46:02.000Z</Time>
            <Position>
              <LatitudeDegrees>42.9083897732198238372802734375</LatitudeDegrees>
              <LongitudeDegrees>-1.79320550523698329925537109375</LongitudeDegrees>
            </Position>
            <AltitudeMeters>484.79998779296875</AltitudeMeters>
            <DistanceMeters>26744.09031663</DistanceMeters>
          </Trackpoint>
          <Trackpoint>
            <Time>2018-08-26T06:46:03.000Z</Time>
            <Position>
              <LatitudeDegrees>42.90842212736606597900390625</LatitudeDegrees>
              <LongitudeDegrees>-1.79318706505000591278076171875</LongitudeDegrees>
            </Position>
            <AltitudeMeters>485.20001220703125</AltitudeMeters>
            <DistanceMeters>26747.992201929</DistanceMeters>
          </Trackpoint>
          <Trackpoint>
            <Time>2018-08-26T06:46:04.000Z</Time>
            <Position>
              <LatitudeDegrees>42.90845540352165699005126953125</LatitudeDegrees>
              <LongitudeDegrees>-1.793170385062694549560546875</LongitudeDegrees>
            </Position>
            <AltitudeMeters>485.600006103515625</AltitudeMeters>
            <DistanceMeters>26751.937813641</DistanceMeters>
          </Trackpoint>
          <Trackpoint>
            <Time>2018-08-26T06:46:05.000Z</Time>
            <Position>
              <LatitudeDegrees>42.9084900207817554473876953125</LatitudeDegrees>
              <LongitudeDegrees>-1.79315454326570034027099609375</LongitudeDegrees>
            </Position>
            <AltitudeMeters>485.79998779296875</AltitudeMeters>
            <DistanceMeters>26756.002913873</DistanceMeters>
          </Trackpoint>
          <Trackpoint>
            <Time>2018-08-26T06:46:06.000Z</Time>
            <Position>
              <LatitudeDegrees>42.9085235483944416046142578125</LatitudeDegrees>
              <LongitudeDegrees>-1.793139539659023284912109375</LongitudeDegrees>
            </Position>
            <AltitudeMeters>486</AltitudeMeters>
            <DistanceMeters>26759.931323302</DistanceMeters>
          </Trackpoint>
          <Trackpoint>
            <Time>2018-08-26T06:46:07.000Z</Time>
            <Position>
              <LatitudeDegrees>42.9085550643503665924072265625</LatitudeDegrees>
              <LongitudeDegrees>-1.793124116957187652587890625</LongitudeDegrees>
            </Position>
            <AltitudeMeters>486.20001220703125</AltitudeMeters>
            <DistanceMeters>26763.658018563</DistanceMeters>
          </Trackpoint>
          <Trackpoint>
            <Time>2018-08-26T06:46:08.000Z</Time>
            <Position>
              <LatitudeDegrees>42.908587753772735595703125</LatitudeDegrees>
              <LongitudeDegrees>-1.79311028681695461273193359375</LongitudeDegrees>
            </Position>
            <AltitudeMeters>486.399993896484375</AltitudeMeters>
            <DistanceMeters>26767.467392901</DistanceMeters>
          </Trackpoint>
          <Trackpoint>
            <Time>2018-08-26T06:46:09.000Z</Time>
            <Position>
              <LatitudeDegrees>42.90862170048058032989501953125</LatitudeDegrees>
              <LongitudeDegrees>-1.79309285245835781097412109375</LongitudeDegrees>
            </Position>
            <AltitudeMeters>486.79998779296875</AltitudeMeters>
            <DistanceMeters>26771.505748762</DistanceMeters>
          </Trackpoint>
          <Trackpoint>
            <Time>2018-08-26T06:46:10.000Z</Time>
            <Position>
              <LatitudeDegrees>42.9086566530168056488037109375</LatitudeDegrees>
              <LongitudeDegrees>-1.79307508282363414764404296875</LongitudeDegrees>
            </Position>
            <AltitudeMeters>487</AltitudeMeters>
            <DistanceMeters>26775.657665901</DistanceMeters>
          </Trackpoint>
          <Trackpoint>
            <Time>2018-08-26T06:46:11.000Z</Time>
            <Position>
              <LatitudeDegrees>42.90869160555303096771240234375</LatitudeDegrees>
              <LongitudeDegrees>-1.79305664263665676116943359375</LongitudeDegrees>
            </Position>
            <AltitudeMeters>487.20001220703125</AltitudeMeters>
            <DistanceMeters>26779.828028863</DistanceMeters>
          </Trackpoint>
          <Trackpoint>
            <Time>2018-08-26T06:46:12.000Z</Time>
            <Position>
              <LatitudeDegrees>42.90872714482247829437255859375</LatitudeDegrees>
              <LongitudeDegrees>-1.79303837008774280548095703125</LongitudeDegrees>
            </Position>
            <AltitudeMeters>487.79998779296875</AltitudeMeters>
            <DistanceMeters>26784.054314609</DistanceMeters>
          </Trackpoint>
          <Trackpoint>
            <Time>2018-08-26T06:46:13.000Z</Time>
            <Position>
              <LatitudeDegrees>42.9087629355490207672119140625</LatitudeDegrees>
              <LongitudeDegrees>-1.7930178344249725341796875</LongitudeDegrees>
            </Position>
            <AltitudeMeters>488.20001220703125</AltitudeMeters>
            <DistanceMeters>26788.376724603</DistanceMeters>
          </Trackpoint>
          <Trackpoint>
            <Time>2018-08-26T06:46:14.000Z</Time>
            <Position>
              <LatitudeDegrees>42.90879654698073863983154296875</LatitudeDegrees>
              <LongitudeDegrees>-1.79299570620059967041015625</LongitudeDegrees>
            </Position>
            <AltitudeMeters>488.600006103515625</AltitudeMeters>
            <DistanceMeters>26792.530816091</DistanceMeters>
          </Trackpoint>
          <Trackpoint>
            <Time>2018-08-26T06:46:15.000Z</Time>
            <Position>
              <LatitudeDegrees>42.90882973931729793548583984375</LatitudeDegrees>
              <LongitudeDegrees>-1.79297232069075107574462890625</LongitudeDegrees>
            </Position>
            <AltitudeMeters>489.20001220703125</AltitudeMeters>
            <DistanceMeters>26796.688166968</DistanceMeters>
          </Trackpoint>
          <Trackpoint>
            <Time>2018-08-26T06:46:16.000Z</Time>
            <Position>
              <LatitudeDegrees>42.90886226110160350799560546875</LatitudeDegrees>
              <LongitudeDegrees>-1.7929479293525218963623046875</LongitudeDegrees>
            </Position>
            <AltitudeMeters>489.399993896484375</AltitudeMeters>
            <DistanceMeters>26800.818277669</DistanceMeters>
          </Trackpoint>
          <Trackpoint>
            <Time>2018-08-26T06:46:17.000Z</Time>
            <Position>
              <LatitudeDegrees>42.908895201981067657470703125</LatitudeDegrees>
              <LongitudeDegrees>-1.79292320273816585540771484375</LongitudeDegrees>
            </Position>
            <AltitudeMeters>489.79998779296875</AltitudeMeters>
            <DistanceMeters>26805.001612241</DistanceMeters>
          </Trackpoint>
          <Trackpoint>
            <Time>2018-08-26T06:46:18.000Z</Time>
            <Position>
              <LatitudeDegrees>42.9089278914034366607666015625</LatitudeDegrees>
              <LongitudeDegrees>-1.79289822466671466827392578125</LongitudeDegrees>
            </Position>
            <AltitudeMeters>490.20001220703125</AltitudeMeters>
            <DistanceMeters>26809.171975203</DistanceMeters>
          </Trackpoint>
          <Trackpoint>
            <Time>2018-08-26T06:46:19.000Z</Time>
            <Position>
              <LatitudeDegrees>42.90896049700677394866943359375</LatitudeDegrees>
              <LongitudeDegrees>-1.79287257604300975799560546875</LongitudeDegrees>
            </Position>
            <AltitudeMeters>490.399993896484375</AltitudeMeters>
            <DistanceMeters>26813.359624717</DistanceMeters>
          </Trackpoint>
          <Trackpoint>
            <Time>2018-08-26T06:46:20.000Z</Time>
            <Position>
              <LatitudeDegrees>42.90899268351495265960693359375</LatitudeDegrees>
              <LongitudeDegrees>-1.79284592159092426300048828125</LongitudeDegrees>
            </Position>
            <AltitudeMeters>490.600006103515625</AltitudeMeters>
            <DistanceMeters>26817.549430036</DistanceMeters>
          </Trackpoint>
          <Trackpoint>
            <Time>2018-08-26T06:46:21.000Z</Time>
            <Position>
              <LatitudeDegrees>42.9090257920324802398681640625</LatitudeDegrees>
              <LongitudeDegrees>-1.79281960241496562957763671875</LongitudeDegrees>
            </Position>
            <AltitudeMeters>491</AltitudeMeters>
            <DistanceMeters>26821.814001991</DistanceMeters>
          </Trackpoint>
          <Trackpoint>
            <Time>2018-08-26T06:46:22.000Z</Time>
            <Position>
              <LatitudeDegrees>42.909057140350341796875</LatitudeDegrees>
              <LongitudeDegrees>-1.79279345087707042694091796875</LongitudeDegrees>
            </Position>
            <AltitudeMeters>491.20001220703125</AltitudeMeters>
            <DistanceMeters>26825.90346425</DistanceMeters>
          </Trackpoint>
          <Trackpoint>
            <Time>2018-08-26T06:46:23.000Z</Time>
            <Position>
              <LatitudeDegrees>42.90908739902079105377197265625</LatitudeDegrees>
              <LongitudeDegrees>-1.79276729933917522430419921875</LongitudeDegrees>
            </Position>
            <AltitudeMeters>491.399993896484375</AltitudeMeters>
            <DistanceMeters>26829.888925888</DistanceMeters>
          </Trackpoint>
          <Trackpoint>
            <Time>2018-08-26T06:46:24.000Z</Time>
            <Position>
              <LatitudeDegrees>42.90911757387220859527587890625</LatitudeDegrees>
              <LongitudeDegrees>-1.79274131543934345245361328125</LongitudeDegrees>
            </Position>
            <AltitudeMeters>491.600006103515625</AltitudeMeters>
            <DistanceMeters>26833.859632811</DistanceMeters>
          </Trackpoint>
          <Trackpoint>
            <Time>2018-08-26T06:46:25.000Z</Time>
            <Position>
              <LatitudeDegrees>42.9091478325426578521728515625</LatitudeDegrees>
              <LongitudeDegrees>-1.79271549917757511138916015625</LongitudeDegrees>
            </Position>
            <AltitudeMeters>492</AltitudeMeters>
            <DistanceMeters>26837.830339735</DistanceMeters>
          </Trackpoint>
          <Trackpoint>
            <Time>2018-08-26T06:46:26.000Z</Time>
            <Position>
              <LatitudeDegrees>42.90917716920375823974609375</LatitudeDegrees>
              <LongitudeDegrees>-1.792688928544521331787109375</LongitudeDegrees>
            </Position>
            <AltitudeMeters>492.20001220703125</AltitudeMeters>
            <DistanceMeters>26841.748391541</DistanceMeters>
          </Trackpoint>
          <Trackpoint>
            <Time>2018-08-26T06:46:27.000Z</Time>
            <Position>
              <LatitudeDegrees>42.9092058353126049041748046875</LatitudeDegrees>
              <LongitudeDegrees>-1.79266151972115039825439453125</LongitudeDegrees>
            </Position>
            <AltitudeMeters>492.600006103515625</AltitudeMeters>
            <DistanceMeters>26845.643327795</DistanceMeters>
          </Trackpoint>
          <Trackpoint>
            <Time>2018-08-26T06:46:28.000Z</Time>
            <Position>
              <LatitudeDegrees>42.90923424996435642242431640625</LatitudeDegrees>
              <LongitudeDegrees>-1.792635284364223480224609375</LongitudeDegrees>
            </Position>
            <AltitudeMeters>493</AltitudeMeters>
            <DistanceMeters>26849.460989826</DistanceMeters>
          </Trackpoint>
          <Trackpoint>
            <Time>2018-08-26T06:46:29.000Z</Time>
            <Position>
              <LatitudeDegrees>42.9092628322541713714599609375</LatitudeDegrees>
              <LongitudeDegrees>-1.79260955192148685455322265625</LongitudeDegrees>
            </Position>
            <AltitudeMeters>493.20001220703125</AltitudeMeters>
            <DistanceMeters>26853.271549223</DistanceMeters>
          </Trackpoint>
          <Trackpoint>
            <Time>2018-08-26T06:46:30.000Z</Time>
            <Position>
              <LatitudeDegrees>42.9092926718294620513916015625</LatitudeDegrees>
              <LongitudeDegrees>-1.79258390329778194427490234375</LongitudeDegrees>
            </Position>
            <AltitudeMeters>493.399993896484375</AltitudeMeters>
            <DistanceMeters>26857.19535864</DistanceMeters>
          </Trackpoint>
          <Trackpoint>
            <Time>2018-08-26T06:46:31.000Z</Time>
            <Position>
              <LatitudeDegrees>42.909322679042816162109375</LatitudeDegrees>
              <LongitudeDegrees>-1.79255909286439418792724609375</LongitudeDegrees>
            </Position>
            <AltitudeMeters>493.600006103515625</AltitudeMeters>
            <DistanceMeters>26861.099557538</DistanceMeters>
          </Trackpoint>
          <Trackpoint>
            <Time>2018-08-26T06:46:32.000Z</Time>
            <Position>
              <LatitudeDegrees>42.90935344062745571136474609375</LatitudeDegrees>
              <LongitudeDegrees>-1.79253495298326015472412109375</LongitudeDegrees>
            </Position>
            <AltitudeMeters>493.79998779296875</AltitudeMeters>
            <DistanceMeters>26865.048600716</DistanceMeters>
          </Trackpoint>
          <Trackpoint>
            <Time>2018-08-26T06:46:33.000Z</Time>
            <Position>
              <LatitudeDegrees>42.909385375678539276123046875</LatitudeDegrees>
              <LongitudeDegrees>-1.79251265712082386016845703125</LongitudeDegrees>
            </Position>
            <AltitudeMeters>494</AltitudeMeters>
            <DistanceMeters>26869.040853829</DistanceMeters>
          </Trackpoint>
          <Trackpoint>
            <Time>2018-08-26T06:46:34.000Z</Time>
            <Position>
              <LatitudeDegrees>42.9094180651009082794189453125</LatitudeDegrees>
              <LongitudeDegrees>-1.79249270819127559661865234375</LongitudeDegrees>
            </Position>
            <AltitudeMeters>494.399993896484375</AltitudeMeters>
            <DistanceMeters>26873.027448183</DistanceMeters>
          </Trackpoint>
          <Trackpoint>
            <Time>2018-08-26T06:46:35.000Z</Time>
            <Position>
              <LatitudeDegrees>42.9094522632658481597900390625</LatitudeDegrees>
              <LongitudeDegrees>-1.79247510619461536407470703125</LongitudeDegrees>
            </Position>
            <AltitudeMeters>494.600006103515625</AltitudeMeters>
            <DistanceMeters>26877.094769174</DistanceMeters>
          </Trackpoint>
          <Trackpoint>
            <Time>2018-08-26T06:46:36.000Z</Time>
            <Position>
              <LatitudeDegrees>42.90948738344013690948486328125</LatitudeDegrees>
              <LongitudeDegrees>-1.7924594320356845855712890625</LongitudeDegrees>
            </Position>
            <AltitudeMeters>494.79998779296875</AltitudeMeters>
            <DistanceMeters>26881.206253469</DistanceMeters>
          </Trackpoint>
          <Trackpoint>
            <Time>2018-08-26T06:46:37.000Z</Time>
            <Position>
              <LatitudeDegrees>42.909522168338298797607421875</LatitudeDegrees>
              <LongitudeDegrees>-1.79244518280029296875</LongitudeDegrees>
            </Position>
            <AltitudeMeters>495.20001220703125</AltitudeMeters>
            <DistanceMeters>26885.249079011</DistanceMeters>
          </Trackpoint>
          <Trackpoint>
            <Time>2018-08-26T06:46:38.000Z</Time>
            <Position>
              <LatitudeDegrees>42.90955670177936553955078125</LatitudeDegrees>
              <LongitudeDegrees>-1.7924329452216625213623046875</LongitudeDegrees>
            </Position>
            <AltitudeMeters>495.399993896484375</AltitudeMeters>
            <DistanceMeters>26889.219785934</DistanceMeters>
          </Trackpoint>
          <Trackpoint>
            <Time>2018-08-26T06:46:39.000Z</Time>
            <Position>
              <LatitudeDegrees>42.9095910675823688507080078125</LatitudeDegrees>
              <LongitudeDegrees>-1.79242179729044437408447265625</LongitudeDegrees>
            </Position>
            <AltitudeMeters>495.79998779296875</AltitudeMeters>
            <DistanceMeters>26893.151641841</DistanceMeters>
          </Trackpoint>
          <Trackpoint>
            <Time>2018-08-26T06:46:40.000Z</Time>
            <Position>
              <LatitudeDegrees>42.90962501429021358489990234375</LatitudeDegrees>
              <LongitudeDegrees>-1.7924116551876068115234375</LongitudeDegrees>
            </Position>
            <AltitudeMeters>496</AltitudeMeters>
            <DistanceMeters>26897.018657045</DistanceMeters>
          </Trackpoint>
          <Trackpoint>
            <Time>2018-08-26T06:46:41.000Z</Time>
            <Position>
              <LatitudeDegrees>42.9096592962741851806640625</LatitudeDegrees>
              <LongitudeDegrees>-1.79240050725638866424560546875</LongitudeDegrees>
            </Position>
            <AltitudeMeters>496.399993896484375</AltitudeMeters>
            <DistanceMeters>26900.941315616</DistanceMeters>
          </Trackpoint>
          <Trackpoint>
            <Time>2018-08-26T06:46:42.000Z</Time>
            <Position>
              <LatitudeDegrees>42.9096926562488079071044921875</LatitudeDegrees>
              <LongitudeDegrees>-1.79238759912550449371337890625</LongitudeDegrees>
            </Position>
            <AltitudeMeters>496.79998779296875</AltitudeMeters>
            <DistanceMeters>26904.801319001</DistanceMeters>
          </Trackpoint>
          <Trackpoint>
            <Time>2018-08-26T06:46:43.000Z</Time>
            <Position>
              <LatitudeDegrees>42.90972610004246234893798828125</LatitudeDegrees>
              <LongitudeDegrees>-1.79237552918493747711181640625</LongitudeDegrees>
            </Position>
            <AltitudeMeters>497</AltitudeMeters>
            <DistanceMeters>26908.651953432</DistanceMeters>
          </Trackpoint>
          <Trackpoint>
            <Time>2018-08-26T06:46:44.000Z</Time>
            <Position>
              <LatitudeDegrees>42.90975795127451419830322265625</LatitudeDegrees>
              <LongitudeDegrees>-1.7923648841679096221923828125</LongitudeDegrees>
            </Position>
            <AltitudeMeters>497.399993896484375</AltitudeMeters>
            <DistanceMeters>26912.301523647</DistanceMeters>
          </Trackpoint>
          <Trackpoint>
            <Time>2018-08-26T06:46:45.000Z</Time>
            <Position>
              <LatitudeDegrees>42.90978963486850261688232421875</LatitudeDegrees>
              <LongitudeDegrees>-1.79235524497926235198974609375</LongitudeDegrees>
            </Position>
            <AltitudeMeters>497.600006103515625</AltitudeMeters>
            <DistanceMeters>26915.915038631</DistanceMeters>
          </Trackpoint>
          <Trackpoint>
            <Time>2018-08-26T06:46:46.000Z</Time>
            <Position>
              <LatitudeDegrees>42.90981997735798358917236328125</LatitudeDegrees>
              <LongitudeDegrees>-1.792345941066741943359375</LongitudeDegrees>
            </Position>
            <AltitudeMeters>497.79998779296875</AltitudeMeters>
            <DistanceMeters>26919.377976909</DistanceMeters>
          </Trackpoint>
          <Trackpoint>
            <Time>2018-08-26T06:46:47.000Z</Time>
            <Position>
              <LatitudeDegrees>42.90984897874295711517333984375</LatitudeDegrees>
              <LongitudeDegrees>-1.792336888611316680908203125</LongitudeDegrees>
            </Position>
            <AltitudeMeters>497.79998779296875</AltitudeMeters>
            <DistanceMeters>26922.688945468</DistanceMeters>
          </Trackpoint>
          <Trackpoint>
            <Time>2018-08-26T06:46:48.000Z</Time>
            <Position>
              <LatitudeDegrees>42.90987781248986721038818359375</LatitudeDegrees>
              <LongitudeDegrees>-1.79232641123235225677490234375</LongitudeDegrees>
            </Position>
            <AltitudeMeters>498</AltitudeMeters>
            <DistanceMeters>26926.010805401</DistanceMeters>
          </Trackpoint>
          <Trackpoint>
            <Time>2018-08-26T06:46:49.000Z</Time>
            <Position>
              <LatitudeDegrees>42.9099052213132381439208984375</LatitudeDegrees>
              <LongitudeDegrees>-1.79231853224337100982666015625</LongitudeDegrees>
            </Position>
            <AltitudeMeters>498.20001220703125</AltitudeMeters>
            <DistanceMeters>26929.127913397</DistanceMeters>
          </Trackpoint>
          <Trackpoint>
            <Time>2018-08-26T06:46:50.000Z</Time>
            <Position>
              <LatitudeDegrees>42.90993296541273593902587890625</LatitudeDegrees>
              <LongitudeDegrees>-1.7923092283308506011962890625</LongitudeDegrees>
            </Position>
            <AltitudeMeters>498.600006103515625</AltitudeMeters>
            <DistanceMeters>26932.308115531</DistanceMeters>
          </Trackpoint>
          <Trackpoint>
            <Time>2018-08-26T06:46:51.000Z</Time>
            <Position>
              <LatitudeDegrees>42.9099595360457897186279296875</LatitudeDegrees>
              <LongitudeDegrees>-1.7923001758754253387451171875</LongitudeDegrees>
            </Position>
            <AltitudeMeters>498.79998779296875</AltitudeMeters>
            <DistanceMeters>26935.354903772</DistanceMeters>
          </Trackpoint>
          <Trackpoint>
            <Time>2018-08-26T06:46:52.000Z</Time>
            <Position>
              <LatitudeDegrees>42.9099840112030506134033203125</LatitudeDegrees>
              <LongitudeDegrees>-1.792291291058063507080078125</LongitudeDegrees>
            </Position>
            <AltitudeMeters>499.20001220703125</AltitudeMeters>
            <DistanceMeters>26938.173851673</DistanceMeters>
          </Trackpoint>
          <Trackpoint>
            <Time>2018-08-26T06:46:53.000Z</Time>
            <Position>
              <LatitudeDegrees>42.9100094921886920928955078125</LatitudeDegrees>
              <LongitudeDegrees>-1.7922800593078136444091796875</LongitudeDegrees>
            </Position>
            <AltitudeMeters>499.399993896484375</AltitudeMeters>
            <DistanceMeters>26941.154723227</DistanceMeters>
          </Trackpoint>
          <Trackpoint>
            <Time>2018-08-26T06:46:54.000Z</Time>
            <Position>
              <LatitudeDegrees>42.91003623045980930328369140625</LatitudeDegrees>
              <LongitudeDegrees>-1.792266480624675750732421875</LongitudeDegrees>
            </Position>
            <AltitudeMeters>499.79998779296875</AltitudeMeters>
            <DistanceMeters>26944.332084627</DistanceMeters>
          </Trackpoint>
          <Trackpoint>
            <Time>2018-08-26T06:46:55.000Z</Time>
            <Position>
              <LatitudeDegrees>42.9100614599883556365966796875</LatitudeDegrees>
              <LongitudeDegrees>-1.792253740131855010986328125</LongitudeDegrees>
            </Position>
            <AltitudeMeters>500</AltitudeMeters>
            <DistanceMeters>26947.325049016</DistanceMeters>
          </Trackpoint>
          <Trackpoint>
            <Time>2018-08-26T06:46:56.000Z</Time>
            <Position>
              <LatitudeDegrees>42.910084091126918792724609375</LatitudeDegrees>
              <LongitudeDegrees>-1.79224125109612941741943359375</LongitudeDegrees>
            </Position>
            <AltitudeMeters>500.20001220703125</AltitudeMeters>
            <DistanceMeters>26950.042879498</DistanceMeters>
          </Trackpoint>
          <Trackpoint>
            <Time>2018-08-26T06:46:57.000Z</Time>
            <Position>
              <LatitudeDegrees>42.9101060517132282257080078125</LatitudeDegrees>
              <LongitudeDegrees>-1.7922227270901203155517578125</LongitudeDegrees>
            </Position>
            <AltitudeMeters>500.600006103515625</AltitudeMeters>
            <DistanceMeters>26952.915768266</DistanceMeters>
          </Trackpoint>
          <Trackpoint>
            <Time>2018-08-26T06:46:58.000Z</Time>
            <Position>
              <LatitudeDegrees>42.91012935340404510498046875</LatitudeDegrees>
              <LongitudeDegrees>-1.7922024428844451904296875</LongitudeDegrees>
            </Position>
            <AltitudeMeters>500.79998779296875</AltitudeMeters>
            <DistanceMeters>26955.990583713</DistanceMeters>
          </Trackpoint>
          <Trackpoint>
            <Time>2018-08-26T06:46:59.000Z</Time>
            <Position>
              <LatitudeDegrees>42.9101523198187351226806640625</LatitudeDegrees>
              <LongitudeDegrees>-1.7921814881265163421630859375</LongitudeDegrees>
            </Position>
            <AltitudeMeters>501</AltitudeMeters>
            <DistanceMeters>26959.063930417</DistanceMeters>
          </Trackpoint>
          <Trackpoint>
            <Time>2018-08-26T06:47:00.000Z</Time>
            <Position>
              <LatitudeDegrees>42.91017570532858371734619140625</LatitudeDegrees>
              <LongitudeDegrees>-1.79216061718761920928955078125</LongitudeDegrees>
            </Position>
            <AltitudeMeters>501.20001220703125</AltitudeMeters>
            <DistanceMeters>26962.173787628</DistanceMeters>
          </Trackpoint>
          <Trackpoint>
            <Time>2018-08-26T06:47:01.000Z</Time>
            <Position>
              <LatitudeDegrees>42.9101979173719882965087890625</LatitudeDegrees>
              <LongitudeDegrees>-1.79214150644838809967041015625</LongitudeDegrees>
            </Position>
            <AltitudeMeters>501.600006103515625</AltitudeMeters>
            <DistanceMeters>26965.096535019</DistanceMeters>
          </Trackpoint>
          <Trackpoint>
            <Time>2018-08-26T06:47:02.000Z</Time>
            <Position>
              <LatitudeDegrees>42.9102217219769954681396484375</LatitudeDegrees>
              <LongitudeDegrees>-1.79212792776525020599365234375</LongitudeDegrees>
            </Position>
            <AltitudeMeters>502</AltitudeMeters>
            <DistanceMeters>26967.966278861</DistanceMeters>
          </Trackpoint>
          <Trackpoint>
            <Time>2018-08-26T06:47:03.000Z</Time>
            <Position>
              <LatitudeDegrees>42.91024946607649326324462890625</LatitudeDegrees>
              <LongitudeDegrees>-1.792120970785617828369140625</LongitudeDegrees>
            </Position>
            <AltitudeMeters>502.600006103515625</AltitudeMeters>
            <DistanceMeters>26971.103599904</DistanceMeters>
          </Trackpoint>
          <Trackpoint>
            <Time>2018-08-26T06:47:04.000Z</Time>
            <Position>
              <LatitudeDegrees>42.9102797247469425201416015625</LatitudeDegrees>
              <LongitudeDegrees>-1.79211703129112720489501953125</LongitudeDegrees>
            </Position>
            <AltitudeMeters>502.79998779296875</AltitudeMeters>
            <DistanceMeters>26974.486070429</DistanceMeters>
          </Trackpoint>
          <Trackpoint>
            <Time>2018-08-26T06:47:05.000Z</Time>
            <Position>
              <LatitudeDegrees>42.9103065468370914459228515625</LatitudeDegrees>
              <LongitudeDegrees>-1.79211284033954143524169921875</LongitudeDegrees>
            </Position>
            <AltitudeMeters>503.20001220703125</AltitudeMeters>
            <DistanceMeters>26977.491078989</DistanceMeters>
          </Trackpoint>
          <Trackpoint>
            <Time>2018-08-26T06:47:06.000Z</Time>
            <Position>
              <LatitudeDegrees>42.9103310219943523406982421875</LatitudeDegrees>
              <LongitudeDegrees>-1.79211032576858997344970703125</LongitudeDegrees>
            </Position>
            <AltitudeMeters>503.600006103515625</AltitudeMeters>
            <DistanceMeters>26980.22381996</DistanceMeters>
          </Trackpoint>
          <Trackpoint>
            <Time>2018-08-26T06:47:07.000Z</Time>
            <Position>
              <LatitudeDegrees>42.910359017550945281982421875</LatitudeDegrees>
              <LongitudeDegrees>-1.79210931994020938873291015625</LongitudeDegrees>
            </Position>
            <AltitudeMeters>504</AltitudeMeters>
            <DistanceMeters>26983.340927956</DistanceMeters>
          </Trackpoint>
          <Trackpoint>
            <Time>2018-08-26T06:47:08.000Z</Time>
            <Position>
              <LatitudeDegrees>42.91039279662072658538818359375</LatitudeDegrees>
              <LongitudeDegrees>-1.7921112477779388427734375</LongitudeDegrees>
            </Position>
            <AltitudeMeters>504.20001220703125</AltitudeMeters>
            <DistanceMeters>26987.103793867</DistanceMeters>
          </Trackpoint>
          <Trackpoint>
            <Time>2018-08-26T06:47:09.000Z</Time>
            <Position>
              <LatitudeDegrees>42.91043470613658428192138671875</LatitudeDegrees>
              <LongitudeDegrees>-1.7921151034533977508544921875</LongitudeDegrees>
            </Position>
            <AltitudeMeters>504.600006103515625</AltitudeMeters>
            <DistanceMeters>26991.778490113</DistanceMeters>
          </Trackpoint>
          <Trackpoint>
            <Time>2018-08-26T06:47:10.000Z</Time>
            <Position>
              <LatitudeDegrees>42.91047628037631511688232421875</LatitudeDegrees>
              <LongitudeDegrees>-1.79212206043303012847900390625</LongitudeDegrees>
            </Position>
            <AltitudeMeters>504.79998779296875</AltitudeMeters>
            <DistanceMeters>26996.439644897</DistanceMeters>
          </Trackpoint>
          <Trackpoint>
            <Time>2018-08-26T06:47:11.000Z</Time>
            <Position>
              <LatitudeDegrees>42.91052095592021942138671875</LatitudeDegrees>
              <LongitudeDegrees>-1.792131029069423675537109375</LongitudeDegrees>
            </Position>
            <AltitudeMeters>504.79998779296875</AltitudeMeters>
            <DistanceMeters>27001.466189823</DistanceMeters>
          </Trackpoint>
          <Trackpoint>
            <Time>2018-08-26T06:47:12.000Z</Time>
            <Position>
              <LatitudeDegrees>42.9105697385966777801513671875</LatitudeDegrees>
              <LongitudeDegrees>-1.7921496368944644927978515625</LongitudeDegrees>
            </Position>
            <AltitudeMeters>504.79998779296875</AltitudeMeters>
            <DistanceMeters>27007.104085626</DistanceMeters>
          </Trackpoint>
          <Trackpoint>
            <Time>2018-08-26T06:47:13.000Z</Time>
            <Position>
              <LatitudeDegrees>42.910626232624053955078125</LatitudeDegrees>
              <LongitudeDegrees>-1.7921694181859493255615234375</LongitudeDegrees>
            </Position>
            <AltitudeMeters>504.79998779296875</AltitudeMeters>
            <DistanceMeters>27013.59518235</DistanceMeters>
          </Trackpoint>
          <Trackpoint>
            <Time>2018-08-26T06:47:14.000Z</Time>
            <Position>
              <LatitudeDegrees>42.9106864146888256072998046875</LatitudeDegrees>
              <LongitudeDegrees>-1.792189367115497589111328125</LongitudeDegrees>
            </Position>
            <AltitudeMeters>504.79998779296875</AltitudeMeters>
            <DistanceMeters>27020.488386413</DistanceMeters>
          </Trackpoint>
          <Trackpoint>
            <Time>2018-08-26T06:47:15.000Z</Time>
            <Position>
              <LatitudeDegrees>42.910753972828388214111328125</LatitudeDegrees>
              <LongitudeDegrees>-1.792218200862407684326171875</LongitudeDegrees>
            </Position>
            <AltitudeMeters>504.79998779296875</AltitudeMeters>
            <DistanceMeters>27028.365866043</DistanceMeters>
          </Trackpoint>
          <Trackpoint>
            <Time>2018-08-26T06:47:16.000Z</Time>
            <Position>
              <LatitudeDegrees>42.9108275659382343292236328125</LatitudeDegrees>
              <LongitudeDegrees>-1.79225080646574497222900390625</LongitudeDegrees>
            </Position>
            <AltitudeMeters>504.79998779296875</AltitudeMeters>
            <DistanceMeters>27036.976670749</DistanceMeters>
          </Trackpoint>
          <Trackpoint>
            <Time>2018-08-26T06:47:17.000Z</Time>
            <Position>
              <LatitudeDegrees>42.91090786457061767578125</LatitudeDegrees>
              <LongitudeDegrees>-1.792275868356227874755859375</LongitudeDegrees>
            </Position>
            <AltitudeMeters>504.79998779296875</AltitudeMeters>
            <DistanceMeters>27046.144163397</DistanceMeters>
          </Trackpoint>
          <Trackpoint>
            <Time>2018-08-26T06:47:18.000Z</Time>
            <Position>
              <LatitudeDegrees>42.91099369525909423828125</LatitudeDegrees>
              <LongitudeDegrees>-1.79228869266808032989501953125</LongitudeDegrees>
            </Position>
            <AltitudeMeters>504.399993896484375</AltitudeMeters>
            <DistanceMeters>27055.754084926</DistanceMeters>
          </Trackpoint>
          <Trackpoint>
            <Time>2018-08-26T06:47:19.000Z</Time>
            <Position>
              <LatitudeDegrees>42.91108153760433197021484375</LatitudeDegrees>
              <LongitudeDegrees>-1.7922877706587314605712890625</LongitudeDegrees>
            </Position>
            <AltitudeMeters>504.20001220703125</AltitudeMeters>
            <DistanceMeters>27065.531220971</DistanceMeters>
          </Trackpoint>
          <Trackpoint>
            <Time>2018-08-26T06:47:20.000Z</Time>
            <Position>
              <LatitudeDegrees>42.91117482818663120269775390625</LatitudeDegrees>
              <LongitudeDegrees>-1.7922834120690822601318359375</LongitudeDegrees>
            </Position>
            <AltitudeMeters>503.79998779296875</AltitudeMeters>
            <DistanceMeters>27075.92090498</DistanceMeters>
          </Trackpoint>
          <Trackpoint>
            <Time>2018-08-26T06:47:21.000Z</Time>
            <Position>
              <LatitudeDegrees>42.911270968616008758544921875</LatitudeDegrees>
              <LongitudeDegrees>-1.792283244431018829345703125</LongitudeDegrees>
            </Position>
            <AltitudeMeters>503.399993896484375</AltitudeMeters>
            <DistanceMeters>27086.621436243</DistanceMeters>
          </Trackpoint>
          <Trackpoint>
            <Time>2018-08-26T06:47:22.000Z</Time>
            <Position>
              <LatitudeDegrees>42.91137012653052806854248046875</LatitudeDegrees>
              <LongitudeDegrees>-1.7922909557819366455078125</LongitudeDegrees>
            </Position>
            <AltitudeMeters>503</AltitudeMeters>
            <DistanceMeters>27097.67562072</DistanceMeters>
          </Trackpoint>
          <Trackpoint>
            <Time>2018-08-26T06:47:23.000Z</Time>
            <Position>
              <LatitudeDegrees>42.9114726372063159942626953125</LatitudeDegrees>
              <LongitudeDegrees>-1.7923025228083133697509765625</LongitudeDegrees>
            </Position>
            <AltitudeMeters>502.399993896484375</AltitudeMeters>
            <DistanceMeters>27109.124663896</DistanceMeters>
          </Trackpoint>
          <Trackpoint>
            <Time>2018-08-26T06:47:24.000Z</Time>
            <Position>
              <LatitudeDegrees>42.9115765728056430816650390625</LatitudeDegrees>
              <LongitudeDegrees>-1.7923001758754253387451171875</LongitudeDegrees>
            </Position>
            <AltitudeMeters>502</AltitudeMeters>
            <DistanceMeters>27120.69414198</DistanceMeters>
          </Trackpoint>
          <Trackpoint>
            <Time>2018-08-26T06:47:25.000Z</Time>
            <Position>
              <LatitudeDegrees>42.91168075986206531524658203125</LatitudeDegrees>
              <LongitudeDegrees>-1.7922726832330226898193359375</LongitudeDegrees>
            </Position>
            <AltitudeMeters>501.20001220703125</AltitudeMeters>
            <DistanceMeters>27132.50424616</DistanceMeters>
          </Trackpoint>
          <Trackpoint>
            <Time>2018-08-26T06:47:26.000Z</Time>
            <Position>
              <LatitudeDegrees>42.911785282194614410400390625</LatitudeDegrees>
              <LongitudeDegrees>-1.79222725331783294677734375</LongitudeDegrees>
            </Position>
            <AltitudeMeters>500.600006103515625</AltitudeMeters>
            <DistanceMeters>27144.712867777</DistanceMeters>
          </Trackpoint>
          <Trackpoint>
            <Time>2018-08-26T06:47:27.000Z</Time>
            <Position>
              <LatitudeDegrees>42.9118880443274974822998046875</LatitudeDegrees>
              <LongitudeDegrees>-1.7921771295368671417236328125</LongitudeDegrees>
            </Position>
            <AltitudeMeters>500</AltitudeMeters>
            <DistanceMeters>27156.858456639</DistanceMeters>
          </Trackpoint>
          <Trackpoint>
            <Time>2018-08-26T06:47:28.000Z</Time>
            <Position>
              <LatitudeDegrees>42.91198887862265110015869140625</LatitudeDegrees>
              <LongitudeDegrees>-1.79213681258261203765869140625</LongitudeDegrees>
            </Position>
            <AltitudeMeters>499.600006103515625</AltitudeMeters>
            <DistanceMeters>27168.552535382</DistanceMeters>
          </Trackpoint>
          <Trackpoint>
            <Time>2018-08-26T06:47:29.000Z</Time>
            <Position>
              <LatitudeDegrees>42.91209080256521701812744140625</LatitudeDegrees>
              <LongitudeDegrees>-1.79211066104471683502197265625</LongitudeDegrees>
            </Position>
            <AltitudeMeters>498.600006103515625</AltitudeMeters>
            <DistanceMeters>27180.095054512</DistanceMeters>
          </Trackpoint>
          <Trackpoint>
            <Time>2018-08-26T06:47:30.000Z</Time>
            <Position>
              <LatitudeDegrees>42.91219289414584636688232421875</LatitudeDegrees>
              <LongitudeDegrees>-1.79209792055189609527587890625</LongitudeDegrees>
            </Position>
            <AltitudeMeters>497.600006103515625</AltitudeMeters>
            <DistanceMeters>27191.505385014</DistanceMeters>
          </Trackpoint>
          <Trackpoint>
            <Time>2018-08-26T06:47:31.000Z</Time>
            <Position>
              <LatitudeDegrees>42.91229465045034885406494140625</LatitudeDegrees>
              <LongitudeDegrees>-1.79209222085773944854736328125</LongitudeDegrees>
            </Position>
            <AltitudeMeters>496.79998779296875</AltitudeMeters>
            <DistanceMeters>27202.840283675</DistanceMeters>
          </Trackpoint>
          <Trackpoint>
            <Time>2018-08-26T06:47:32.000Z</Time>
            <Position>
              <LatitudeDegrees>42.91239556856453418731689453125</LatitudeDegrees>
              <LongitudeDegrees>-1.79208618588745594024658203125</LongitudeDegrees>
            </Position>
            <AltitudeMeters>496</AltitudeMeters>
            <DistanceMeters>27214.083594581</DistanceMeters>
          </Trackpoint>
          <Trackpoint>
            <Time>2018-08-26T06:47:33.000Z</Time>
            <Position>
              <LatitudeDegrees>42.912494726479053497314453125</LatitudeDegrees>
              <LongitudeDegrees>-1.7920752055943012237548828125</LongitudeDegrees>
            </Position>
            <AltitudeMeters>495.20001220703125</AltitudeMeters>
            <DistanceMeters>27225.156551637</DistanceMeters>
          </Trackpoint>
          <Trackpoint>
            <Time>2018-08-26T06:47:34.000Z</Time>
            <Position>
              <LatitudeDegrees>42.91259405203163623809814453125</LatitudeDegrees>
              <LongitudeDegrees>-1.79205735214054584503173828125</LongitudeDegrees>
            </Position>
            <AltitudeMeters>494.20001220703125</AltitudeMeters>
            <DistanceMeters>27236.306712733</DistanceMeters>
          </Trackpoint>
          <Trackpoint>
            <Time>2018-08-26T06:47:35.000Z</Time>
            <Position>
              <LatitudeDegrees>42.9126927070319652557373046875</LatitudeDegrees>
              <LongitudeDegrees>-1.7920306138694286346435546875</LongitudeDegrees>
            </Position>
            <AltitudeMeters>493.600006103515625</AltitudeMeters>
            <DistanceMeters>27247.50132755</DistanceMeters>
          </Trackpoint>
          <Trackpoint>
            <Time>2018-08-26T06:47:36.000Z</Time>
            <Position>
              <LatitudeDegrees>42.9127922840416431427001953125</LatitudeDegrees>
              <LongitudeDegrees>-1.79200001992285251617431640625</LongitudeDegrees>
            </Position>
            <AltitudeMeters>493</AltitudeMeters>
            <DistanceMeters>27258.861690772</DistanceMeters>
          </Trackpoint>
          <Trackpoint>
            <Time>2018-08-26T06:47:37.000Z</Time>
            <Position>
              <LatitudeDegrees>42.91289093904197216033935546875</LatitudeDegrees>
              <LongitudeDegrees>-1.79196842014789581298828125</LongitudeDegrees>
            </Position>
            <AltitudeMeters>492.20001220703125</AltitudeMeters>
            <DistanceMeters>27270.140685272</DistanceMeters>
          </Trackpoint>
          <Trackpoint>
            <Time>2018-08-26T06:47:38.000Z</Time>
            <Position>
              <LatitudeDegrees>42.912988252937793731689453125</LatitudeDegrees>
              <LongitudeDegrees>-1.79193623363971710205078125</LongitudeDegrees>
            </Position>
            <AltitudeMeters>491.79998779296875</AltitudeMeters>
            <DistanceMeters>27281.284770759</DistanceMeters>
          </Trackpoint>
          <Trackpoint>
            <Time>2018-08-26T06:47:39.000Z</Time>
            <Position>
              <LatitudeDegrees>42.91308590210974216461181640625</LatitudeDegrees>
              <LongitudeDegrees>-1.791904382407665252685546875</LongitudeDegrees>
            </Position>
            <AltitudeMeters>491.600006103515625</AltitudeMeters>
            <DistanceMeters>27292.459201262</DistanceMeters>
          </Trackpoint>
          <Trackpoint>
            <Time>2018-08-26T06:47:40.000Z</Time>
            <Position>
              <LatitudeDegrees>42.91318246163427829742431640625</LatitudeDegrees>
              <LongitudeDegrees>-1.7918747104704380035400390625</LongitudeDegrees>
            </Position>
            <AltitudeMeters>491.399993896484375</AltitudeMeters>
            <DistanceMeters>27303.475744613</DistanceMeters>
          </Trackpoint>
          <Trackpoint>
            <Time>2018-08-26T06:47:41.000Z</Time>
            <Position>
              <LatitudeDegrees>42.91327969171106815338134765625</LatitudeDegrees>
              <LongitudeDegrees>-1.7918457090854644775390625</LongitudeDegrees>
            </Position>
            <AltitudeMeters>491.20001220703125</AltitudeMeters>
            <DistanceMeters>27314.552778454</DistanceMeters>
          </Trackpoint>
          <Trackpoint>
            <Time>2018-08-26T06:47:42.000Z</Time>
            <Position>
              <LatitudeDegrees>42.9133783467113971710205078125</LatitudeDegrees>
              <LongitudeDegrees>-1.7918203957378864288330078125</LongitudeDegrees>
            </Position>
            <AltitudeMeters>491</AltitudeMeters>
            <DistanceMeters>27325.725592637</DistanceMeters>
          </Trackpoint>
          <Trackpoint>
            <Time>2018-08-26T06:47:43.000Z</Time>
            <Position>
              <LatitudeDegrees>42.9134769178926944732666015625</LatitudeDegrees>
              <LongitudeDegrees>-1.79179768078029155731201171875</LongitudeDegrees>
            </Position>
            <AltitudeMeters>491</AltitudeMeters>
            <DistanceMeters>27336.852242989</DistanceMeters>
          </Trackpoint>
          <Trackpoint>
            <Time>2018-08-26T06:47:44.000Z</Time>
            <Position>
              <LatitudeDegrees>42.913574986159801483154296875</LatitudeDegrees>
              <LongitudeDegrees>-1.79177907295525074005126953125</LongitudeDegrees>
            </Position>
            <AltitudeMeters>490.600006103515625</AltitudeMeters>
            <DistanceMeters>27347.872064585</DistanceMeters>
          </Trackpoint>
          <Trackpoint>
            <Time>2018-08-26T06:47:45.000Z</Time>
            <Position>
              <LatitudeDegrees>42.91367246769368648529052734375</LatitudeDegrees>
              <LongitudeDegrees>-1.79176130332052707672119140625</LongitudeDegrees>
            </Position>
            <AltitudeMeters>490.600006103515625</AltitudeMeters>
            <DistanceMeters>27358.817888184</DistanceMeters>
          </Trackpoint>
          <Trackpoint>
            <Time>2018-08-26T06:47:46.000Z</Time>
            <Position>
              <LatitudeDegrees>42.913767434656620025634765625</LatitudeDegrees>
              <LongitudeDegrees>-1.79173749871551990509033203125</LongitudeDegrees>
            </Position>
            <AltitudeMeters>490</AltitudeMeters>
            <DistanceMeters>27369.564733196</DistanceMeters>
          </Trackpoint>
          <Trackpoint>
            <Time>2018-08-26T06:47:47.000Z</Time>
            <Position>
              <LatitudeDegrees>42.9138551093637943267822265625</LatitudeDegrees>
              <LongitudeDegrees>-1.7917064018547534942626953125</LongitudeDegrees>
            </Position>
            <AltitudeMeters>489.600006103515625</AltitudeMeters>
            <DistanceMeters>27379.64742136</DistanceMeters>
          </Trackpoint>
          <Trackpoint>
            <Time>2018-08-26T06:47:48.000Z</Time>
            <Position>
              <LatitudeDegrees>42.91393616236746311187744140625</LatitudeDegrees>
              <LongitudeDegrees>-1.79167480207979679107666015625</LongitudeDegrees>
            </Position>
            <AltitudeMeters>489.20001220703125</AltitudeMeters>
            <DistanceMeters>27389.029595158</DistanceMeters>
          </Trackpoint>
          <Trackpoint>
            <Time>2018-08-26T06:47:49.000Z</Time>
            <Position>
              <LatitudeDegrees>42.91401319205760955810546875</LatitudeDegrees>
              <LongitudeDegrees>-1.79165485315024852752685546875</LongitudeDegrees>
            </Position>
            <AltitudeMeters>489</AltitudeMeters>
            <DistanceMeters>27397.756545641</DistanceMeters>
          </Trackpoint>
          <Trackpoint>
            <Time>2018-08-26T06:47:50.000Z</Time>
            <Position>
              <LatitudeDegrees>42.9140901379287242889404296875</LatitudeDegrees>
              <LongitudeDegrees>-1.79165720008313655853271484375</LongitudeDegrees>
            </Position>
            <AltitudeMeters>488.79998779296875</AltitudeMeters>
            <DistanceMeters>27406.323192083</DistanceMeters>
          </Trackpoint>
          <Trackpoint>
            <Time>2018-08-26T06:47:51.000Z</Time>
            <Position>
              <LatitudeDegrees>42.914161719381809234619140625</LatitudeDegrees>
              <LongitudeDegrees>-1.79168972186744213104248046875</LongitudeDegrees>
            </Position>
            <AltitudeMeters>488.79998779296875</AltitudeMeters>
            <DistanceMeters>27414.71948929</DistanceMeters>
          </Trackpoint>
          <Trackpoint>
            <Time>2018-08-26T06:47:52.000Z</Time>
            <Position>
              <LatitudeDegrees>42.91421963833272457122802734375</LatitudeDegrees>
              <LongitudeDegrees>-1.79175342433154582977294921875</LongitudeDegrees>
            </Position>
            <AltitudeMeters>488.79998779296875</AltitudeMeters>
            <DistanceMeters>27422.997183417</DistanceMeters>
          </Trackpoint>
          <Trackpoint>
            <Time>2018-08-26T06:47:53.000Z</Time>
            <Position>
              <LatitudeDegrees>42.91426020674407482147216796875</LatitudeDegrees>
              <LongitudeDegrees>-1.7918361537158489227294921875</LongitudeDegrees>
            </Position>
            <AltitudeMeters>488.600006103515625</AltitudeMeters>
            <DistanceMeters>27431.112375806</DistanceMeters>
          </Trackpoint>
          <Trackpoint>
            <Time>2018-08-26T06:47:54.000Z</Time>
            <Position>
              <LatitudeDegrees>42.91428786702454090118408203125</LatitudeDegrees>
              <LongitudeDegrees>-1.7919256724417209625244140625</LongitudeDegrees>
            </Position>
            <AltitudeMeters>488.600006103515625</AltitudeMeters>
            <DistanceMeters>27439.032155536</DistanceMeters>
          </Trackpoint>
          <Trackpoint>
            <Time>2018-08-26T06:47:55.000Z</Time>
            <Position>
              <LatitudeDegrees>42.9143073968589305877685546875</LatitudeDegrees>
              <LongitudeDegrees>-1.7920131795108318328857421875</LongitudeDegrees>
            </Position>
            <AltitudeMeters>488.399993896484375</AltitudeMeters>
            <DistanceMeters>27446.489179791</DistanceMeters>
          </Trackpoint>
          <Trackpoint>
            <Time>2018-08-26T06:47:56.000Z</Time>
            <Position>
              <LatitudeDegrees>42.91432055644690990447998046875</LatitudeDegrees>
              <LongitudeDegrees>-1.79209708236157894134521484375</LongitudeDegrees>
            </Position>
            <AltitudeMeters>488.399993896484375</AltitudeMeters>
            <DistanceMeters>27453.483817321</DistanceMeters>
          </Trackpoint>
          <Trackpoint>
            <Time>2018-08-26T06:47:57.000Z</Time>
            <Position>
              <LatitudeDegrees>42.91433162055909633636474609375</LatitudeDegrees>
              <LongitudeDegrees>-1.79217620752751827239990234375</LongitudeDegrees>
            </Position>
            <AltitudeMeters>488.399993896484375</AltitudeMeters>
            <DistanceMeters>27460.050981481</DistanceMeters>
          </Trackpoint>
          <Trackpoint>
            <Time>2018-08-26T06:47:58.000Z</Time>
            <Position>
              <LatitudeDegrees>42.9143456183373928070068359375</LatitudeDegrees>
              <LongitudeDegrees>-1.79224611259996891021728515625</LongitudeDegrees>
            </Position>
            <AltitudeMeters>488.399993896484375</AltitudeMeters>
            <DistanceMeters>27465.957944777</DistanceMeters>
          </Trackpoint>
          <Trackpoint>
            <Time>2018-08-26T06:47:59.000Z</Time>
            <Position>
              <LatitudeDegrees>42.914372272789478302001953125</LatitudeDegrees>
              <LongitudeDegrees>-1.79229975678026676177978515625</LongitudeDegrees>
            </Position>
            <AltitudeMeters>488.399993896484375</AltitudeMeters>
            <DistanceMeters>27471.241976984</DistanceMeters>
          </Trackpoint>
          <Trackpoint>
            <Time>2018-08-26T06:48:00.000Z</Time>
            <Position>
              <LatitudeDegrees>42.9144089855253696441650390625</LatitudeDegrees>
              <LongitudeDegrees>-1.7923326976597309112548828125</LongitudeDegrees>
            </Position>
            <AltitudeMeters>488.399993896484375</AltitudeMeters>
            <DistanceMeters>27476.13100678</DistanceMeters>
          </Trackpoint>
          <Trackpoint>
            <Time>2018-08-26T06:48:01.000Z</Time>
            <Position>
              <LatitudeDegrees>42.91445315815508365631103515625</LatitudeDegrees>
              <LongitudeDegrees>-1.792342923581600189208984375</LongitudeDegrees>
            </Position>
            <AltitudeMeters>488.399993896484375</AltitudeMeters>
            <DistanceMeters>27481.117872582</DistanceMeters>
          </Trackpoint>
          <Trackpoint>
            <Time>2018-08-26T06:48:02.000Z</Time>
            <Position>
              <LatitudeDegrees>42.9145038686692714691162109375</LatitudeDegrees>
              <LongitudeDegrees>-1.792332865297794342041015625</LongitudeDegrees>
            </Position>
            <AltitudeMeters>488.399993896484375</AltitudeMeters>
            <DistanceMeters>27486.821059002</DistanceMeters>
          </Trackpoint>
          <Trackpoint>
            <Time>2018-08-26T06:48:03.000Z</Time>
            <Position>
              <LatitudeDegrees>42.91455776430666446685791015625</LatitudeDegrees>
              <LongitudeDegrees>-1.79230579175055027008056640625</LongitudeDegrees>
            </Position>
            <AltitudeMeters>488.399993896484375</AltitudeMeters>
            <DistanceMeters>27493.212621083</DistanceMeters>
          </Trackpoint>
          <Trackpoint>
            <Time>2018-08-26T06:48:04.000Z</Time>
            <Position>
              <LatitudeDegrees>42.91461308486759662628173828125</LatitudeDegrees>
              <LongitudeDegrees>-1.7922668159008026123046875</LongitudeDegrees>
            </Position>
            <AltitudeMeters>488.600006103515625</AltitudeMeters>
            <DistanceMeters>27500.141104783</DistanceMeters>
          </Trackpoint>
          <Trackpoint>
            <Time>2018-08-26T06:48:05.000Z</Time>
            <Position>
              <LatitudeDegrees>42.9146684892475605010986328125</LatitudeDegrees>
              <LongitudeDegrees>-1.792222224175930023193359375</LongitudeDegrees>
            </Position>
            <AltitudeMeters>488.79998779296875</AltitudeMeters>
            <DistanceMeters>27507.299083111</DistanceMeters>
          </Trackpoint>
          <Trackpoint>
            <Time>2018-08-26T06:48:06.000Z</Time>
            <Position>
              <LatitudeDegrees>42.91472733020782470703125</LatitudeDegrees>
              <LongitudeDegrees>-1.7921757884323596954345703125</LongitudeDegrees>
            </Position>
            <AltitudeMeters>488.79998779296875</AltitudeMeters>
            <DistanceMeters>27514.86311407</DistanceMeters>
          </Trackpoint>
          <Trackpoint>
            <Time>2018-08-26T06:48:07.000Z</Time>
            <Position>
              <LatitudeDegrees>42.91478793136775493621826171875</LatitudeDegrees>
              <LongitudeDegrees>-1.79213094525039196014404296875</LongitudeDegrees>
            </Position>
            <AltitudeMeters>489.20001220703125</AltitudeMeters>
            <DistanceMeters>27522.53501333</DistanceMeters>
          </Trackpoint>
          <Trackpoint>
            <Time>2018-08-26T06:48:08.000Z</Time>
            <Position>
              <LatitudeDegrees>42.91485096327960491180419921875</LatitudeDegrees>
              <LongitudeDegrees>-1.79209180176258087158203125</LongitudeDegrees>
            </Position>
            <AltitudeMeters>489.600006103515625</AltitudeMeters>
            <DistanceMeters>27530.242142682</DistanceMeters>
          </Trackpoint>
          <Trackpoint>
            <Time>2018-08-26T06:48:09.000Z</Time>
            <Position>
              <LatitudeDegrees>42.91491307318210601806640625</LatitudeDegrees>
              <LongitudeDegrees>-1.79206120781600475311279296875</LongitudeDegrees>
            </Position>
            <AltitudeMeters>489.79998779296875</AltitudeMeters>
            <DistanceMeters>27537.59060219</DistanceMeters>
          </Trackpoint>
          <Trackpoint>
            <Time>2018-08-26T06:48:10.000Z</Time>
            <Position>
              <LatitudeDegrees>42.91497920639812946319580078125</LatitudeDegrees>
              <LongitudeDegrees>-1.79203203879296779632568359375</LongitudeDegrees>
            </Position>
            <AltitudeMeters>489.79998779296875</AltitudeMeters>
            <DistanceMeters>27545.325216365</DistanceMeters>
          </Trackpoint>
          <Trackpoint>
            <Time>2018-08-26T06:48:11.000Z</Time>
            <Position>
              <LatitudeDegrees>42.91504693217575550079345703125</LatitudeDegrees>
              <LongitudeDegrees>-1.79200421087443828582763671875</LongitudeDegrees>
            </Position>
            <AltitudeMeters>489.79998779296875</AltitudeMeters>
            <DistanceMeters>27553.196962331</DistanceMeters>
          </Trackpoint>
          <Trackpoint>
            <Time>2018-08-26T06:48:12.000Z</Time>
            <Position>
              <LatitudeDegrees>42.91511381976306438446044921875</LatitudeDegrees>
              <LongitudeDegrees>-1.79197512567043304443359375</LongitudeDegrees>
            </Position>
            <AltitudeMeters>489.79998779296875</AltitudeMeters>
            <DistanceMeters>27561.009984587</DistanceMeters>
          </Trackpoint>
          <Trackpoint>
            <Time>2018-08-26T06:48:13.000Z</Time>
            <Position>
              <LatitudeDegrees>42.915180958807468414306640625</LatitudeDegrees>
              <LongitudeDegrees>-1.79194184951484203338623046875</LongitudeDegrees>
            </Position>
            <AltitudeMeters>489.79998779296875</AltitudeMeters>
            <DistanceMeters>27568.959354056</DistanceMeters>
          </Trackpoint>
          <Trackpoint>
            <Time>2018-08-26T06:48:14.000Z</Time>
            <Position>
              <LatitudeDegrees>42.91524725966155529022216796875</LatitudeDegrees>
              <LongitudeDegrees>-1.79189759306609630584716796875</LongitudeDegrees>
            </Position>
            <AltitudeMeters>489.79998779296875</AltitudeMeters>
            <DistanceMeters>27577.172983041</DistanceMeters>
          </Trackpoint>
          <Trackpoint>
            <Time>2018-08-26T06:48:15.000Z</Time>
            <Position>
              <LatitudeDegrees>42.91531263850629329681396484375</LatitudeDegrees>
              <LongitudeDegrees>-1.79184562526643276214599609375</LongitudeDegrees>
            </Position>
            <AltitudeMeters>490</AltitudeMeters>
            <DistanceMeters>27585.592371385</DistanceMeters>
          </Trackpoint>
          <Trackpoint>
            <Time>2018-08-26T06:48:16.000Z</Time>
            <Position>
              <LatitudeDegrees>42.91537449695169925689697265625</LatitudeDegrees>
              <LongitudeDegrees>-1.7917898856103420257568359375</LongitudeDegrees>
            </Position>
            <AltitudeMeters>490</AltitudeMeters>
            <DistanceMeters>27593.841653541</DistanceMeters>
          </Trackpoint>
          <Trackpoint>
            <Time>2018-08-26T06:48:17.000Z</Time>
            <Position>
              <LatitudeDegrees>42.91543249972164630889892578125</LatitudeDegrees>
              <LongitudeDegrees>-1.791730038821697235107421875</LongitudeDegrees>
            </Position>
            <AltitudeMeters>490</AltitudeMeters>
            <DistanceMeters>27601.934002666</DistanceMeters>
          </Trackpoint>
          <Trackpoint>
            <Time>2018-08-26T06:48:18.000Z</Time>
            <Position>
              <LatitudeDegrees>42.91548748500645160675048828125</LatitudeDegrees>
              <LongitudeDegrees>-1.7916705273091793060302734375</LongitudeDegrees>
            </Position>
            <AltitudeMeters>490</AltitudeMeters>
            <DistanceMeters>27609.743556834</DistanceMeters>
          </Trackpoint>
          <Trackpoint>
            <Time>2018-08-26T06:48:19.000Z</Time>
            <Position>
              <LatitudeDegrees>42.915541715919971466064453125</LatitudeDegrees>
              <LongitudeDegrees>-1.7916135303676128387451171875</LongitudeDegrees>
            </Position>
            <AltitudeMeters>490.20001220703125</AltitudeMeters>
            <DistanceMeters>27617.361120174</DistanceMeters>
          </Trackpoint>
          <Trackpoint>
            <Time>2018-08-26T06:48:20.000Z</Time>
            <Position>
              <LatitudeDegrees>42.91559762321412563323974609375</LatitudeDegrees>
              <LongitudeDegrees>-1.79155661724507808685302734375</LongitudeDegrees>
            </Position>
            <AltitudeMeters>490.20001220703125</AltitudeMeters>
            <DistanceMeters>27625.123121851</DistanceMeters>
          </Trackpoint>
          <Trackpoint>
            <Time>2018-08-26T06:48:21.000Z</Time>
            <Position>
              <LatitudeDegrees>42.9156558774411678314208984375</LatitudeDegrees>
              <LongitudeDegrees>-1.79149903357028961181640625</LongitudeDegrees>
            </Position>
            <AltitudeMeters>490.20001220703125</AltitudeMeters>
            <DistanceMeters>27633.127959291</DistanceMeters>
          </Trackpoint>
          <Trackpoint>
            <Time>2018-08-26T06:48:22.000Z</Time>
            <Position>
              <LatitudeDegrees>42.91571765206754207611083984375</LatitudeDegrees>
              <LongitudeDegrees>-1.7914388515055179595947265625</LongitudeDegrees>
            </Position>
            <AltitudeMeters>490</AltitudeMeters>
            <DistanceMeters>27641.574118413</DistanceMeters>
          </Trackpoint>
          <Trackpoint>
            <Time>2018-08-26T06:48:23.000Z</Time>
            <Position>
              <LatitudeDegrees>42.9157792590558528900146484375</LatitudeDegrees>
              <LongitudeDegrees>-1.79137674160301685333251953125</LongitudeDegrees>
            </Position>
            <AltitudeMeters>490.20001220703125</AltitudeMeters>
            <DistanceMeters>27650.096907564</DistanceMeters>
          </Trackpoint>
          <Trackpoint>
            <Time>2018-08-26T06:48:24.000Z</Time>
            <Position>
              <LatitudeDegrees>42.9158419556915760040283203125</LatitudeDegrees>
              <LongitudeDegrees>-1.7913131229579448699951171875</LongitudeDegrees>
            </Position>
            <AltitudeMeters>490.20001220703125</AltitudeMeters>
            <DistanceMeters>27658.790683489</DistanceMeters>
          </Trackpoint>
          <Trackpoint>
            <Time>2018-08-26T06:48:25.000Z</Time>
            <Position>
              <LatitudeDegrees>42.915901802480220794677734375</LatitudeDegrees>
              <LongitudeDegrees>-1.79124983958899974822998046875</LongitudeDegrees>
            </Position>
            <AltitudeMeters>490.399993896484375</AltitudeMeters>
            <DistanceMeters>27667.215432794</DistanceMeters>
          </Trackpoint>
          <Trackpoint>
            <Time>2018-08-26T06:48:26.000Z</Time>
            <Position>
              <LatitudeDegrees>42.9159633256494998931884765625</LatitudeDegrees>
              <LongitudeDegrees>-1.7911858856678009033203125</LongitudeDegrees>
            </Position>
            <AltitudeMeters>490.20001220703125</AltitudeMeters>
            <DistanceMeters>27675.821517095</DistanceMeters>
          </Trackpoint>
          <Trackpoint>
            <Time>2018-08-26T06:48:27.000Z</Time>
            <Position>
              <LatitudeDegrees>42.91602727957069873809814453125</LatitudeDegrees>
              <LongitudeDegrees>-1.7911230213940143585205078125</LongitudeDegrees>
            </Position>
            <AltitudeMeters>490.399993896484375</AltitudeMeters>
            <DistanceMeters>27684.591818751</DistanceMeters>
          </Trackpoint>
          <Trackpoint>
            <Time>2018-08-26T06:48:28.000Z</Time>
            <Position>
              <LatitudeDegrees>42.91609014384448528289794921875</LatitudeDegrees>
              <LongitudeDegrees>-1.7910630069673061370849609375</LongitudeDegrees>
            </Position>
            <AltitudeMeters>490.399993896484375</AltitudeMeters>
            <DistanceMeters>27693.128370567</DistanceMeters>
          </Trackpoint>
          <Trackpoint>
            <Time>2018-08-26T06:48:29.000Z</Time>
            <Position>
              <LatitudeDegrees>42.91615225374698638916015625</LatitudeDegrees>
              <LongitudeDegrees>-1.7910023219883441925048828125</LongitudeDegrees>
            </Position>
            <AltitudeMeters>490.399993896484375</AltitudeMeters>
            <DistanceMeters>27701.628880652</DistanceMeters>
          </Trackpoint>
          <Trackpoint>
            <Time>2018-08-26T06:48:30.000Z</Time>
            <Position>
              <LatitudeDegrees>42.91621285490691661834716796875</LatitudeDegrees>
              <LongitudeDegrees>-1.7909426428377628326416015625</LongitudeDegrees>
            </Position>
            <AltitudeMeters>490.399993896484375</AltitudeMeters>
            <DistanceMeters>27709.945754197</DistanceMeters>
          </Trackpoint>
          <Trackpoint>
            <Time>2018-08-26T06:48:31.000Z</Time>
            <Position>
              <LatitudeDegrees>42.91627387516200542449951171875</LatitudeDegrees>
              <LongitudeDegrees>-1.79088572971522808074951171875</LongitudeDegrees>
            </Position>
            <AltitudeMeters>490.399993896484375</AltitudeMeters>
            <DistanceMeters>27718.170918798</DistanceMeters>
          </Trackpoint>
          <Trackpoint>
            <Time>2018-08-26T06:48:32.000Z</Time>
            <Position>
              <LatitudeDegrees>42.91633464395999908447265625</LatitudeDegrees>
              <LongitudeDegrees>-1.790828816592693328857421875</LongitudeDegrees>
            </Position>
            <AltitudeMeters>490.399993896484375</AltitudeMeters>
            <DistanceMeters>27726.37189492</DistanceMeters>
          </Trackpoint>
          <Trackpoint>
            <Time>2018-08-26T06:48:33.000Z</Time>
            <Position>
              <LatitudeDegrees>42.91639440692961215972900390625</LatitudeDegrees>
              <LongitudeDegrees>-1.7907709814608097076416015625</LongitudeDegrees>
            </Position>
            <AltitudeMeters>490.600006103515625</AltitudeMeters>
            <DistanceMeters>27734.524278782</DistanceMeters>
          </Trackpoint>
          <Trackpoint>
            <Time>2018-08-26T06:48:34.000Z</Time>
            <Position>
              <LatitudeDegrees>42.9164524935185909271240234375</LatitudeDegrees>
              <LongitudeDegrees>-1.79071490652859210968017578125</LongitudeDegrees>
            </Position>
            <AltitudeMeters>490.600006103515625</AltitudeMeters>
            <DistanceMeters>27742.441777798</DistanceMeters>
          </Trackpoint>
          <Trackpoint>
            <Time>2018-08-26T06:48:35.000Z</Time>
            <Position>
              <LatitudeDegrees>42.9165104962885379791259765625</LatitudeDegrees>
              <LongitudeDegrees>-1.7906596697866916656494140625</LongitudeDegrees>
            </Position>
            <AltitudeMeters>490.600006103515625</AltitudeMeters>
            <DistanceMeters>27750.31237653</DistanceMeters>
          </Trackpoint>
          <Trackpoint>
            <Time>2018-08-26T06:48:36.000Z</Time>
            <Position>
              <LatitudeDegrees>42.9165664874017238616943359375</LatitudeDegrees>
              <LongitudeDegrees>-1.79060527123510837554931640625</LongitudeDegrees>
            </Position>
            <AltitudeMeters>490.600006103515625</AltitudeMeters>
            <DistanceMeters>27757.960698909</DistanceMeters>
          </Trackpoint>
          <Trackpoint>
            <Time>2018-08-26T06:48:37.000Z</Time>
            <Position>
              <LatitudeDegrees>42.91662004776298999786376953125</LatitudeDegrees>
              <LongitudeDegrees>-1.79055296815931797027587890625</LongitudeDegrees>
            </Position>
            <AltitudeMeters>490.79998779296875</AltitudeMeters>
            <DistanceMeters>27765.289470613</DistanceMeters>
          </Trackpoint>
          <Trackpoint>
            <Time>2018-08-26T06:48:38.000Z</Time>
            <Position>
              <LatitudeDegrees>42.91667369194328784942626953125</LatitudeDegrees>
              <LongitudeDegrees>-1.790500581264495849609375</LongitudeDegrees>
            </Position>
            <AltitudeMeters>490.79998779296875</AltitudeMeters>
            <DistanceMeters>27772.629323204</DistanceMeters>
          </Trackpoint>
          <Trackpoint>
            <Time>2018-08-26T06:48:39.000Z</Time>
            <Position>
              <LatitudeDegrees>42.91672800667583942413330078125</LatitudeDegrees>
              <LongitudeDegrees>-1.7904487811028957366943359375</LongitudeDegrees>
            </Position>
            <AltitudeMeters>490.79998779296875</AltitudeMeters>
            <DistanceMeters>27780.002930888</DistanceMeters>
          </Trackpoint>
          <Trackpoint>
            <Time>2018-08-26T06:48:40.000Z</Time>
            <Position>
              <LatitudeDegrees>42.916780896484851837158203125</LatitudeDegrees>
              <LongitudeDegrees>-1.79039706476032733917236328125</LongitudeDegrees>
            </Position>
            <AltitudeMeters>491</AltitudeMeters>
            <DistanceMeters>27787.243068577</DistanceMeters>
          </Trackpoint>
          <Trackpoint>
            <Time>2018-08-26T06:48:41.000Z</Time>
            <Position>
              <LatitudeDegrees>42.9168326966464519500732421875</LatitudeDegrees>
              <LongitudeDegrees>-1.790346018970012664794921875</LongitudeDegrees>
            </Position>
            <AltitudeMeters>491.20001220703125</AltitudeMeters>
            <DistanceMeters>27794.352946771</DistanceMeters>
          </Trackpoint>
          <Trackpoint>
            <Time>2018-08-26T06:48:42.000Z</Time>
            <Position>
              <LatitudeDegrees>42.9168846644461154937744140625</LatitudeDegrees>
              <LongitudeDegrees>-1.79029472172260284423828125</LongitudeDegrees>
            </Position>
            <AltitudeMeters>491.399993896484375</AltitudeMeters>
            <DistanceMeters>27801.490079334</DistanceMeters>
          </Trackpoint>
          <Trackpoint>
            <Time>2018-08-26T06:48:43.000Z</Time>
            <Position>
              <LatitudeDegrees>42.91693705134093761444091796875</LatitudeDegrees>
              <LongitudeDegrees>-1.79024417884647846221923828125</LongitudeDegrees>
            </Position>
            <AltitudeMeters>491.600006103515625</AltitudeMeters>
            <DistanceMeters>27808.629109481</DistanceMeters>
          </Trackpoint>
          <Trackpoint>
            <Time>2018-08-26T06:48:44.000Z</Time>
            <Position>
              <LatitudeDegrees>42.91698968969285488128662109375</LatitudeDegrees>
              <LongitudeDegrees>-1.79019439034163951873779296875</LongitudeDegrees>
            </Position>
            <AltitudeMeters>491.79998779296875</AltitudeMeters>
            <DistanceMeters>27815.756746542</DistanceMeters>
          </Trackpoint>
          <Trackpoint>
            <Time>2018-08-26T06:48:45.000Z</Time>
            <Position>
              <LatitudeDegrees>42.917042411863803863525390625</LatitudeDegrees>
              <LongitudeDegrees>-1.79014544002711772918701171875</LongitudeDegrees>
            </Position>
            <AltitudeMeters>492</AltitudeMeters>
            <DistanceMeters>27822.853276422</DistanceMeters>
          </Trackpoint>
          <Trackpoint>
            <Time>2018-08-26T06:48:46.000Z</Time>
            <Position>
              <LatitudeDegrees>42.9170942120254039764404296875</LatitudeDegrees>
              <LongitudeDegrees>-1.79009581916034221649169921875</LongitudeDegrees>
            </Position>
            <AltitudeMeters>492.20001220703125</AltitudeMeters>
            <DistanceMeters>27829.896160057</DistanceMeters>
          </Trackpoint>
          <Trackpoint>
            <Time>2018-08-26T06:48:47.000Z</Time>
            <Position>
              <LatitudeDegrees>42.91714592836797237396240234375</LatitudeDegrees>
              <LongitudeDegrees>-1.79004653356969356536865234375</LongitudeDegrees>
            </Position>
            <AltitudeMeters>492.399993896484375</AltitudeMeters>
            <DistanceMeters>27836.915283726</DistanceMeters>
          </Trackpoint>
          <Trackpoint>
            <Time>2018-08-26T06:48:48.000Z</Time>
            <Position>
              <LatitudeDegrees>42.91719697415828704833984375</LatitudeDegrees>
              <LongitudeDegrees>-1.789997331798076629638671875</LongitudeDegrees>
            </Position>
            <AltitudeMeters>492.600006103515625</AltitudeMeters>
            <DistanceMeters>27843.869785106</DistanceMeters>
          </Trackpoint>
          <Trackpoint>
            <Time>2018-08-26T06:48:49.000Z</Time>
            <Position>
              <LatitudeDegrees>42.9172481037676334381103515625</LatitudeDegrees>
              <LongitudeDegrees>-1.78994846530258655548095703125</LongitudeDegrees>
            </Position>
            <AltitudeMeters>492.79998779296875</AltitudeMeters>
            <DistanceMeters>27850.815191383</DistanceMeters>
          </Trackpoint>
          <Trackpoint>
            <Time>2018-08-26T06:48:50.000Z</Time>
            <Position>
              <LatitudeDegrees>42.9172983951866626739501953125</LatitudeDegrees>
              <LongitudeDegrees>-1.7898999340832233428955078125</LongitudeDegrees>
            </Position>
            <AltitudeMeters>492.79998779296875</AltitudeMeters>
            <DistanceMeters>27857.669641597</DistanceMeters>
          </Trackpoint>
          <Trackpoint>
            <Time>2018-08-26T06:48:51.000Z</Time>
            <Position>
              <LatitudeDegrees>42.91734977625310420989990234375</LatitudeDegrees>
              <LongitudeDegrees>-1.789850480854511260986328125</LongitudeDegrees>
            </Position>
            <AltitudeMeters>493</AltitudeMeters>
            <DistanceMeters>27864.665570008</DistanceMeters>
          </Trackpoint>
          <Trackpoint>
            <Time>2018-08-26T06:48:52.000Z</Time>
            <Position>
              <LatitudeDegrees>42.917399145662784576416015625</LatitudeDegrees>
              <LongitudeDegrees>-1.78979893215000629425048828125</LongitudeDegrees>
            </Position>
            <AltitudeMeters>493.20001220703125</AltitudeMeters>
            <DistanceMeters>27871.582313823</DistanceMeters>
          </Trackpoint>
          <Trackpoint>
            <Time>2018-08-26T06:48:53.000Z</Time>
            <Position>
              <LatitudeDegrees>42.9174506105482578277587890625</LatitudeDegrees>
              <LongitudeDegrees>-1.789747215807437896728515625</LongitudeDegrees>
            </Position>
            <AltitudeMeters>493.399993896484375</AltitudeMeters>
            <DistanceMeters>27878.694731713</DistanceMeters>
          </Trackpoint>
          <Trackpoint>
            <Time>2018-08-26T06:48:54.000Z</Time>
            <Position>
              <LatitudeDegrees>42.91750199161469936370849609375</LatitudeDegrees>
              <LongitudeDegrees>-1.78969751112163066864013671875</LongitudeDegrees>
            </Position>
            <AltitudeMeters>493.399993896484375</AltitudeMeters>
            <DistanceMeters>27885.702911632</DistanceMeters>
          </Trackpoint>
          <Trackpoint>
            <Time>2018-08-26T06:48:55.000Z</Time>
            <Position>
              <LatitudeDegrees>42.917551361024379730224609375</LatitudeDegrees>
              <LongitudeDegrees>-1.789650656282901763916015625</LongitudeDegrees>
            </Position>
            <AltitudeMeters>493.79998779296875</AltitudeMeters>
            <DistanceMeters>27892.394034035</DistanceMeters>
          </Trackpoint>
          <Trackpoint>
            <Time>2018-08-26T06:48:56.000Z</Time>
            <Position>
              <LatitudeDegrees>42.91760039515793323516845703125</LatitudeDegrees>
              <LongitudeDegrees>-1.78960531018674373626708984375</LongitudeDegrees>
            </Position>
            <AltitudeMeters>493.79998779296875</AltitudeMeters>
            <DistanceMeters>27898.984532323</DistanceMeters>
          </Trackpoint>
          <Trackpoint>
            <Time>2018-08-26T06:48:57.000Z</Time>
            <Position>
              <LatitudeDegrees>42.91764733381569385528564453125</LatitudeDegrees>
              <LongitudeDegrees>-1.7895602993667125701904296875</LongitudeDegrees>
            </Position>
            <AltitudeMeters>494</AltitudeMeters>
            <DistanceMeters>27905.367611903</DistanceMeters>
          </Trackpoint>
          <Trackpoint>
            <Time>2018-08-26T06:48:58.000Z</Time>
            <Position>
              <LatitudeDegrees>42.91769410483539104461669921875</LatitudeDegrees>
              <LongitudeDegrees>-1.78951419889926910400390625</LongitudeDegrees>
            </Position>
            <AltitudeMeters>494.20001220703125</AltitudeMeters>
            <DistanceMeters>27911.787368042</DistanceMeters>
          </Trackpoint>
          <Trackpoint>
            <Time>2018-08-26T06:48:59.000Z</Time>
            <Position>
              <LatitudeDegrees>42.9177409596741199493408203125</LatitudeDegrees>
              <LongitudeDegrees>-1.78946767933666706085205078125</LongitudeDegrees>
            </Position>
            <AltitudeMeters>494.399993896484375</AltitudeMeters>
            <DistanceMeters>27918.234494679</DistanceMeters>
          </Trackpoint>
          <Trackpoint>
            <Time>2018-08-26T06:49:00.000Z</Time>
            <Position>
              <LatitudeDegrees>42.9177862219512462615966796875</LatitudeDegrees>
              <LongitudeDegrees>-1.78942141123116016387939453125</LongitudeDegrees>
            </Position>
            <AltitudeMeters>494.600006103515625</AltitudeMeters>
            <DistanceMeters>27924.527817751</DistanceMeters>
          </Trackpoint>
          <Trackpoint>
            <Time>2018-08-26T06:49:01.000Z</Time>
            <Position>
              <LatitudeDegrees>42.91783156804740428924560546875</LatitudeDegrees>
              <LongitudeDegrees>-1.7893753945827484130859375</LongitudeDegrees>
            </Position>
            <AltitudeMeters>494.79998779296875</AltitudeMeters>
            <DistanceMeters>27930.815398738</DistanceMeters>
          </Trackpoint>
          <Trackpoint>
            <Time>2018-08-26T06:49:02.000Z</Time>
            <Position>
              <LatitudeDegrees>42.91787599213421344757080078125</LatitudeDegrees>
              <LongitudeDegrees>-1.7893306352198123931884765625</LongitudeDegrees>
            </Position>
            <AltitudeMeters>495</AltitudeMeters>
            <DistanceMeters>27936.960622874</DistanceMeters>
          </Trackpoint>
          <Trackpoint>
            <Time>2018-08-26T06:49:03.000Z</Time>
            <Position>
              <LatitudeDegrees>42.9179203324019908905029296875</LatitudeDegrees>
              <LongitudeDegrees>-1.7892860434949398040771484375</LongitudeDegrees>
            </Position>
            <AltitudeMeters>495.20001220703125</AltitudeMeters>
            <DistanceMeters>27943.089661788</DistanceMeters>
          </Trackpoint>
          <Trackpoint>
            <Time>2018-08-26T06:49:04.000Z</Time>
            <Position>
              <LatitudeDegrees>42.91796810925006866455078125</LatitudeDegrees>
              <LongitudeDegrees>-1.7892412841320037841796875</LongitudeDegrees>
            </Position>
            <AltitudeMeters>495.399993896484375</AltitudeMeters>
            <DistanceMeters>27949.538188909</DistanceMeters>
          </Trackpoint>
          <Trackpoint>
            <Time>2018-08-26T06:49:05.000Z</Time>
            <Position>
              <LatitudeDegrees>42.91801446117460727691650390625</LatitudeDegrees>
              <LongitudeDegrees>-1.7891971953213214874267578125</LongitudeDegrees>
            </Position>
            <AltitudeMeters>495.600006103515625</AltitudeMeters>
            <DistanceMeters>27955.824333555</DistanceMeters>
          </Trackpoint>
          <Trackpoint>
            <Time>2018-08-26T06:49:06.000Z</Time>
            <Position>
              <LatitudeDegrees>42.91806274093687534332275390625</LatitudeDegrees>
              <LongitudeDegrees>-1.7891519330441951751708984375</LongitudeDegrees>
            </Position>
            <AltitudeMeters>495.79998779296875</AltitudeMeters>
            <DistanceMeters>27962.343193866</DistanceMeters>
          </Trackpoint>
          <Trackpoint>
            <Time>2018-08-26T06:49:07.000Z</Time>
            <Position>
              <LatitudeDegrees>42.9181100986897945404052734375</LatitudeDegrees>
              <LongitudeDegrees>-1.78910725750029087066650390625</LongitudeDegrees>
            </Position>
            <AltitudeMeters>496</AltitudeMeters>
            <DistanceMeters>27968.749573299</DistanceMeters>
          </Trackpoint>
          <Trackpoint>
            <Time>2018-08-26T06:49:08.000Z</Time>
            <Position>
              <LatitudeDegrees>42.9181563667953014373779296875</LatitudeDegrees>
              <LongitudeDegrees>-1.78906090557575225830078125</LongitudeDegrees>
            </Position>
            <AltitudeMeters>496</AltitudeMeters>
            <DistanceMeters>27975.136895537</DistanceMeters>
          </Trackpoint>
          <Trackpoint>
            <Time>2018-08-26T06:49:09.000Z</Time>
            <Position>
              <LatitudeDegrees>42.91820154525339603424072265625</LatitudeDegrees>
              <LongitudeDegrees>-1.789014302194118499755859375</LongitudeDegrees>
            </Position>
            <AltitudeMeters>496.399993896484375</AltitudeMeters>
            <DistanceMeters>27981.438821925</DistanceMeters>
          </Trackpoint>
          <Trackpoint>
            <Time>2018-08-26T06:49:10.000Z</Time>
            <Position>
              <LatitudeDegrees>42.918248064815998077392578125</LatitudeDegrees>
              <LongitudeDegrees>-1.78896836936473846435546875</LongitudeDegrees>
            </Position>
            <AltitudeMeters>496.79998779296875</AltitudeMeters>
            <DistanceMeters>27987.828971037</DistanceMeters>
          </Trackpoint>
          <Trackpoint>
            <Time>2018-08-26T06:49:11.000Z</Time>
            <Position>
              <LatitudeDegrees>42.918294332921504974365234375</LatitudeDegrees>
              <LongitudeDegrees>-1.7889236100018024444580078125</LongitudeDegrees>
            </Position>
            <AltitudeMeters>497.20001220703125</AltitudeMeters>
            <DistanceMeters>27994.14020445</DistanceMeters>
          </Trackpoint>
          <Trackpoint>
            <Time>2018-08-26T06:49:12.000Z</Time>
            <Position>
              <LatitudeDegrees>42.91833934374153614044189453125</LatitudeDegrees>
              <LongitudeDegrees>-1.7888791859149932861328125</LongitudeDegrees>
            </Position>
            <AltitudeMeters>497.399993896484375</AltitudeMeters>
            <DistanceMeters>28000.32205559</DistanceMeters>
          </Trackpoint>
          <Trackpoint>
            <Time>2018-08-26T06:49:13.000Z</Time>
            <Position>
              <LatitudeDegrees>42.91838427074253559112548828125</LatitudeDegrees>
              <LongitudeDegrees>-1.788834594190120697021484375</LongitudeDegrees>
            </Position>
            <AltitudeMeters>497.399993896484375</AltitudeMeters>
            <DistanceMeters>28006.503176316</DistanceMeters>
          </Trackpoint>
          <Trackpoint>
            <Time>2018-08-26T06:49:14.000Z</Time>
            <Position>
              <LatitudeDegrees>42.91843003593385219573974609375</LatitudeDegrees>
              <LongitudeDegrees>-1.7887908406555652618408203125</LongitudeDegrees>
            </Position>
            <AltitudeMeters>497.600006103515625</AltitudeMeters>
            <DistanceMeters>28012.721438721</DistanceMeters>
          </Trackpoint>
          <Trackpoint>
            <Time>2018-08-26T06:49:15.000Z</Time>
            <Position>
              <LatitudeDegrees>42.9184765554964542388916015625</LatitudeDegrees>
              <LongitudeDegrees>-1.78874750621616840362548828125</LongitudeDegrees>
            </Position>
            <AltitudeMeters>497.79998779296875</AltitudeMeters>
            <DistanceMeters>28018.990321611</DistanceMeters>
          </Trackpoint>
          <Trackpoint>
            <Time>2018-08-26T06:49:16.000Z</Time>
            <Position>
              <LatitudeDegrees>42.91852156631648540496826171875</LatitudeDegrees>
              <LongitudeDegrees>-1.78870291449129581451416015625</LongitudeDegrees>
            </Position>
            <AltitudeMeters>498</AltitudeMeters>
            <DistanceMeters>28025.180201605</DistanceMeters>
          </Trackpoint>
          <Trackpoint>
            <Time>2018-08-26T06:49:17.000Z</Time>
            <Position>
              <LatitudeDegrees>42.91856632567942142486572265625</LatitudeDegrees>
              <LongitudeDegrees>-1.78865832276642322540283203125</LongitudeDegrees>
            </Position>
            <AltitudeMeters>498.20001220703125</AltitudeMeters>
            <DistanceMeters>28031.347428047</DistanceMeters>
          </Trackpoint>
          <Trackpoint>
            <Time>2018-08-26T06:49:18.000Z</Time>
            <Position>
              <LatitudeDegrees>42.9186110012233257293701171875</LatitudeDegrees>
              <LongitudeDegrees>-1.7886138148605823516845703125</LongitudeDegrees>
            </Position>
            <AltitudeMeters>498.399993896484375</AltitudeMeters>
            <DistanceMeters>28037.502929713</DistanceMeters>
          </Trackpoint>
          <Trackpoint>
            <Time>2018-08-26T06:49:19.000Z</Time>
            <Position>
              <LatitudeDegrees>42.91865517385303974151611328125</LatitudeDegrees>
              <LongitudeDegrees>-1.78856997750699520111083984375</LongitudeDegrees>
            </Position>
            <AltitudeMeters>498.79998779296875</AltitudeMeters>
            <DistanceMeters>28043.580183423</DistanceMeters>
          </Trackpoint>
          <Trackpoint>
            <Time>2018-08-26T06:49:20.000Z</Time>
            <Position>
              <LatitudeDegrees>42.9186998493969440460205078125</LatitudeDegrees>
              <LongitudeDegrees>-1.78852555342018604278564453125</LongitudeDegrees>
            </Position>
            <AltitudeMeters>499</AltitudeMeters>
            <DistanceMeters>28049.731282536</DistanceMeters>
          </Trackpoint>
          <Trackpoint>
            <Time>2018-08-26T06:49:21.000Z</Time>
            <Position>
              <LatitudeDegrees>42.91874402202665805816650390625</LatitudeDegrees>
              <LongitudeDegrees>-1.78848087787628173828125</LongitudeDegrees>
            </Position>
            <AltitudeMeters>499.20001220703125</AltitudeMeters>
            <DistanceMeters>28055.849999472</DistanceMeters>
          </Trackpoint>
          <Trackpoint>
            <Time>2018-08-26T06:49:22.000Z</Time>
            <Position>
              <LatitudeDegrees>42.918787859380245208740234375</LatitudeDegrees>
              <LongitudeDegrees>-1.788437627255916595458984375</LongitudeDegrees>
            </Position>
            <AltitudeMeters>499.20001220703125</AltitudeMeters>
            <DistanceMeters>28061.869024866</DistanceMeters>
          </Trackpoint>
          <Trackpoint>
            <Time>2018-08-26T06:49:23.000Z</Time>
            <Position>
              <LatitudeDegrees>42.918831445276737213134765625</LatitudeDegrees>
              <LongitudeDegrees>-1.7883942089974880218505859375</LongitudeDegrees>
            </Position>
            <AltitudeMeters>499.399993896484375</AltitudeMeters>
            <DistanceMeters>28067.874532781</DistanceMeters>
          </Trackpoint>
          <Trackpoint>
            <Time>2018-08-26T06:49:24.000Z</Time>
            <Position>
              <LatitudeDegrees>42.91887545026838779449462890625</LatitudeDegrees>
              <LongitudeDegrees>-1.78834953345358371734619140625</LongitudeDegrees>
            </Position>
            <AltitudeMeters>499.600006103515625</AltitudeMeters>
            <DistanceMeters>28073.977734017</DistanceMeters>
          </Trackpoint>
          <Trackpoint>
            <Time>2018-08-26T06:49:25.000Z</Time>
            <Position>
              <LatitudeDegrees>42.918920628726482391357421875</LatitudeDegrees>
              <LongitudeDegrees>-1.78830443881452083587646484375</LongitudeDegrees>
            </Position>
            <AltitudeMeters>499.79998779296875</AltitudeMeters>
            <DistanceMeters>28080.206153431</DistanceMeters>
          </Trackpoint>
          <Trackpoint>
            <Time>2018-08-26T06:49:26.000Z</Time>
            <Position>
              <LatitudeDegrees>42.9189687408506870269775390625</LatitudeDegrees>
              <LongitudeDegrees>-1.78825766779482364654541015625</LongitudeDegrees>
            </Position>
            <AltitudeMeters>500</AltitudeMeters>
            <DistanceMeters>28086.779502333</DistanceMeters>
          </Trackpoint>
          <Trackpoint>
            <Time>2018-08-26T06:49:27.000Z</Time>
            <Position>
              <LatitudeDegrees>42.91901660151779651641845703125</LatitudeDegrees>
              <LongitudeDegrees>-1.78821056149899959564208984375</LongitudeDegrees>
            </Position>
            <AltitudeMeters>500.20001220703125</AltitudeMeters>
            <DistanceMeters>28093.345291314</DistanceMeters>
          </Trackpoint>
          <Trackpoint>
            <Time>2018-08-26T06:49:28.000Z</Time>
            <Position>
              <LatitudeDegrees>42.91906513273715972900390625</LatitudeDegrees>
              <LongitudeDegrees>-1.78816311992704868316650390625</LongitudeDegrees>
            </Position>
            <AltitudeMeters>500.399993896484375</AltitudeMeters>
            <DistanceMeters>28099.98901118</DistanceMeters>
          </Trackpoint>
          <Trackpoint>
            <Time>2018-08-26T06:49:29.000Z</Time>
            <Position>
              <LatitudeDegrees>42.91911567561328411102294921875</LatitudeDegrees>
              <LongitudeDegrees>-1.78811400197446346282958984375</LongitudeDegrees>
            </Position>
            <AltitudeMeters>500.600006103515625</AltitudeMeters>
            <DistanceMeters>28106.89399515</DistanceMeters>
          </Trackpoint>
          <Trackpoint>
            <Time>2018-08-26T06:49:30.000Z</Time>
            <Position>
              <LatitudeDegrees>42.919166050851345062255859375</LatitudeDegrees>
              <LongitudeDegrees>-1.78806488402187824249267578125</LongitudeDegrees>
            </Position>
            <AltitudeMeters>500.79998779296875</AltitudeMeters>
            <DistanceMeters>28113.783268101</DistanceMeters>
          </Trackpoint>
          <Trackpoint>
            <Time>2018-08-26T06:49:31.000Z</Time>
            <Position>
              <LatitudeDegrees>42.91921743191778659820556640625</LatitudeDegrees>
              <LongitudeDegrees>-1.78801576606929302215576171875</LongitudeDegrees>
            </Position>
            <AltitudeMeters>501</AltitudeMeters>
            <DistanceMeters>28120.764336971</DistanceMeters>
          </Trackpoint>
          <Trackpoint>
            <Time>2018-08-26T06:49:32.000Z</Time>
            <Position>
              <LatitudeDegrees>42.91926990263164043426513671875</LatitudeDegrees>
              <LongitudeDegrees>-1.78796580992639064788818359375</LongitudeDegrees>
            </Position>
            <AltitudeMeters>501.20001220703125</AltitudeMeters>
            <DistanceMeters>28127.883100136</DistanceMeters>
          </Trackpoint>
          <Trackpoint>
            <Time>2018-08-26T06:49:33.000Z</Time>
            <Position>
              <LatitudeDegrees>42.9193214513361454010009765625</LatitudeDegrees>
              <LongitudeDegrees>-1.7879135906696319580078125</LongitudeDegrees>
            </Position>
            <AltitudeMeters>501.399993896484375</AltitudeMeters>
            <DistanceMeters>28135.027188046</DistanceMeters>
          </Trackpoint>
          <Trackpoint>
            <Time>2018-08-26T06:49:34.000Z</Time>
            <Position>
              <LatitudeDegrees>42.9193744249641895294189453125</LatitudeDegrees>
              <LongitudeDegrees>-1.78785927593708038330078125</LongitudeDegrees>
            </Position>
            <AltitudeMeters>501.600006103515625</AltitudeMeters>
            <DistanceMeters>28142.40018338</DistanceMeters>
          </Trackpoint>
          <Trackpoint>
            <Time>2018-08-26T06:49:35.000Z</Time>
            <Position>
              <LatitudeDegrees>42.91942932642996311187744140625</LatitudeDegrees>
              <LongitudeDegrees>-1.7878041230142116546630859375</LongitudeDegrees>
            </Position>
            <AltitudeMeters>501.600006103515625</AltitudeMeters>
            <DistanceMeters>28149.986267823</DistanceMeters>
          </Trackpoint>
          <Trackpoint>
            <Time>2018-08-26T06:49:36.000Z</Time>
            <Position>
              <LatitudeDegrees>42.919484563171863555908203125</LatitudeDegrees>
              <LongitudeDegrees>-1.7877477966248989105224609375</LongitudeDegrees>
            </Position>
            <AltitudeMeters>501.79998779296875</AltitudeMeters>
            <DistanceMeters>28157.659344026</DistanceMeters>
          </Trackpoint>
          <Trackpoint>
            <Time>2018-08-26T06:49:37.000Z</Time>
            <Position>
              <LatitudeDegrees>42.9195397160947322845458984375</LatitudeDegrees>
              <LongitudeDegrees>-1.78769188933074474334716796875</LongitudeDegrees>
            </Position>
            <AltitudeMeters>501.79998779296875</AltitudeMeters>
            <DistanceMeters>28165.305304717</DistanceMeters>
          </Trackpoint>
          <Trackpoint>
            <Time>2018-08-26T06:49:38.000Z</Time>
            <Position>
              <LatitudeDegrees>42.91959595866501331329345703125</LatitudeDegrees>
              <LongitudeDegrees>-1.78763606585562229156494140625</LongitudeDegrees>
            </Position>
            <AltitudeMeters>501.79998779296875</AltitudeMeters>
            <DistanceMeters>28173.044004025</DistanceMeters>
          </Trackpoint>
          <Trackpoint>
            <Time>2018-08-26T06:49:39.000Z</Time>
            <Position>
              <LatitudeDegrees>42.91965278796851634979248046875</LatitudeDegrees>
              <LongitudeDegrees>-1.7875801585614681243896484375</LongitudeDegrees>
            </Position>
            <AltitudeMeters>501.79998779296875</AltitudeMeters>
            <DistanceMeters>28180.839670415</DistanceMeters>
          </Trackpoint>
          <Trackpoint>
            <Time>2018-08-26T06:49:40.000Z</Time>
            <Position>
              <LatitudeDegrees>42.919709868729114532470703125</LatitudeDegrees>
              <LongitudeDegrees>-1.78752441890537738800048828125</LongitudeDegrees>
            </Position>
            <AltitudeMeters>501.79998779296875</AltitudeMeters>
            <DistanceMeters>28188.650380783</DistanceMeters>
          </Trackpoint>
          <Trackpoint>
            <Time>2018-08-26T06:49:41.000Z</Time>
            <Position>
              <LatitudeDegrees>42.919766865670680999755859375</LatitudeDegrees>
              <LongitudeDegrees>-1.7874685116112232208251953125</LongitudeDegrees>
            </Position>
            <AltitudeMeters>501.79998779296875</AltitudeMeters>
            <DistanceMeters>28196.461091152</DistanceMeters>
          </Trackpoint>
          <Trackpoint>
            <Time>2018-08-26T06:49:42.000Z</Time>
            <Position>
              <LatitudeDegrees>42.9198250360786914825439453125</LatitudeDegrees>
              <LongitudeDegrees>-1.7874121852219104766845703125</LongitudeDegrees>
            </Position>
            <AltitudeMeters>501.79998779296875</AltitudeMeters>
            <DistanceMeters>28204.397955348</DistanceMeters>
          </Trackpoint>
          <Trackpoint>
            <Time>2018-08-26T06:49:43.000Z</Time>
            <Position>
              <LatitudeDegrees>42.919884212315082550048828125</LatitudeDegrees>
              <LongitudeDegrees>-1.787355355918407440185546875</LongitudeDegrees>
            </Position>
            <AltitudeMeters>501.79998779296875</AltitudeMeters>
            <DistanceMeters>28212.450032649</DistanceMeters>
          </Trackpoint>
          <Trackpoint>
            <Time>2018-08-26T06:49:44.000Z</Time>
            <Position>
              <LatitudeDegrees>42.91994313709437847137451171875</LatitudeDegrees>
              <LongitudeDegrees>-1.7872975207865238189697265625</LongitudeDegrees>
            </Position>
            <AltitudeMeters>501.79998779296875</AltitudeMeters>
            <DistanceMeters>28220.526744371</DistanceMeters>
          </Trackpoint>
          <Trackpoint>
            <Time>2018-08-26T06:49:45.000Z</Time>
            <Position>
              <LatitudeDegrees>42.92000298388302326202392578125</LatitudeDegrees>
              <LongitudeDegrees>-1.7872378416359424591064453125</LongitudeDegrees>
            </Position>
            <AltitudeMeters>501.79998779296875</AltitudeMeters>
            <DistanceMeters>28228.774931804</DistanceMeters>
          </Trackpoint>
          <Trackpoint>
            <Time>2018-08-26T06:49:46.000Z</Time>
            <Position>
              <LatitudeDegrees>42.92006249539554119110107421875</LatitudeDegrees>
              <LongitudeDegrees>-1.78717799484729766845703125</LongitudeDegrees>
            </Position>
            <AltitudeMeters>501.79998779296875</AltitudeMeters>
            <DistanceMeters>28237.001194191</DistanceMeters>
          </Trackpoint>
          <Trackpoint>
            <Time>2018-08-26T06:49:47.000Z</Time>
            <Position>
              <LatitudeDegrees>42.9201225936412811279296875</LatitudeDegrees>
              <LongitudeDegrees>-1.78711672313511371612548828125</LongitudeDegrees>
            </Position>
            <AltitudeMeters>501.79998779296875</AltitudeMeters>
            <DistanceMeters>28245.348954365</DistanceMeters>
          </Trackpoint>
          <Trackpoint>
            <Time>2018-08-26T06:49:48.000Z</Time>
            <Position>
              <LatitudeDegrees>42.92018168605864048004150390625</LatitudeDegrees>
              <LongitudeDegrees>-1.78705486468970775604248046875</LongitudeDegrees>
            </Position>
            <AltitudeMeters>501.79998779296875</AltitudeMeters>
            <DistanceMeters>28253.635915893</DistanceMeters>
          </Trackpoint>
          <Trackpoint>
            <Time>2018-08-26T06:49:49.000Z</Time>
            <Position>
              <LatitudeDegrees>42.9202404431998729705810546875</LatitudeDegrees>
              <LongitudeDegrees>-1.7869944311678409576416015625</LongitudeDegrees>
            </Position>
            <AltitudeMeters>501.79998779296875</AltitudeMeters>
            <DistanceMeters>28261.82366818</DistanceMeters>
          </Trackpoint>
          <Trackpoint>
            <Time>2018-08-26T06:49:50.000Z</Time>
            <Position>
              <LatitudeDegrees>42.9202987812459468841552734375</LatitudeDegrees>
              <LongitudeDegrees>-1.78693383000791072845458984375</LongitudeDegrees>
            </Position>
            <AltitudeMeters>501.79998779296875</AltitudeMeters>
            <DistanceMeters>28269.9826953</DistanceMeters>
          </Trackpoint>
          <Trackpoint>
            <Time>2018-08-26T06:49:51.000Z</Time>
            <Position>
              <LatitudeDegrees>42.92035602964460849761962890625</LatitudeDegrees>
              <LongitudeDegrees>-1.7868754081428050994873046875</LongitudeDegrees>
            </Position>
            <AltitudeMeters>501.79998779296875</AltitudeMeters>
            <DistanceMeters>28277.937174896</DistanceMeters>
          </Trackpoint>
          <Trackpoint>
            <Time>2018-08-26T06:49:52.000Z</Time>
            <Position>
              <LatitudeDegrees>42.920413948595523834228515625</LatitudeDegrees>
              <LongitudeDegrees>-1.78681698627769947052001953125</LongitudeDegrees>
            </Position>
            <AltitudeMeters>501.79998779296875</AltitudeMeters>
            <DistanceMeters>28285.951595258</DistanceMeters>
          </Trackpoint>
          <Trackpoint>
            <Time>2018-08-26T06:49:53.000Z</Time>
            <Position>
              <LatitudeDegrees>42.9204724542796611785888671875</LatitudeDegrees>
              <LongitudeDegrees>-1.78675747476518154144287109375</LongitudeDegrees>
            </Position>
            <AltitudeMeters>501.79998779296875</AltitudeMeters>
            <DistanceMeters>28294.071793421</DistanceMeters>
          </Trackpoint>
          <Trackpoint>
            <Time>2018-08-26T06:49:54.000Z</Time>
            <Position>
              <LatitudeDegrees>42.9205301217734813690185546875</LatitudeDegrees>
              <LongitudeDegrees>-1.7866980470716953277587890625</LongitudeDegrees>
            </Position>
            <AltitudeMeters>501.79998779296875</AltitudeMeters>
            <DistanceMeters>28302.112648309</DistanceMeters>
          </Trackpoint>
          <Trackpoint>
            <Time>2018-08-26T06:49:55.000Z</Time>
            <Position>
              <LatitudeDegrees>42.92058653198182582855224609375</LatitudeDegrees>
              <LongitudeDegrees>-1.786641888320446014404296875</LongitudeDegrees>
            </Position>
            <AltitudeMeters>501.79998779296875</AltitudeMeters>
            <DistanceMeters>28309.882789306</DistanceMeters>
          </Trackpoint>
          <Trackpoint>
            <Time>2018-08-26T06:49:56.000Z</Time>
            <Position>
              <LatitudeDegrees>42.92064252309501171112060546875</LatitudeDegrees>
              <LongitudeDegrees>-1.7865880765020847320556640625</LongitudeDegrees>
            </Position>
            <AltitudeMeters>501.79998779296875</AltitudeMeters>
            <DistanceMeters>28317.503908101</DistanceMeters>
          </Trackpoint>
          <Trackpoint>
            <Time>2018-08-26T06:49:57.000Z</Time>
            <Position>
              <LatitudeDegrees>42.92069667018949985504150390625</LatitudeDegrees>
              <LongitudeDegrees>-1.78653518669307231903076171875</LongitudeDegrees>
            </Position>
            <AltitudeMeters>501.79998779296875</AltitudeMeters>
            <DistanceMeters>28324.913554838</DistanceMeters>
          </Trackpoint>
          <Trackpoint>
            <Time>2018-08-26T06:49:58.000Z</Time>
            <Position>
              <LatitudeDegrees>42.9207490570843219757080078125</LatitudeDegrees>
              <LongitudeDegrees>-1.78648355416953563690185546875</LongitudeDegrees>
            </Position>
            <AltitudeMeters>501.79998779296875</AltitudeMeters>
            <DistanceMeters>28332.104258401</DistanceMeters>
          </Trackpoint>
          <Trackpoint>
            <Time>2018-08-26T06:49:59.000Z</Time>
            <Position>
              <LatitudeDegrees>42.92079876177012920379638671875</LatitudeDegrees>
              <LongitudeDegrees>-1.78643208928406238555908203125</LongitudeDegrees>
            </Position>
            <AltitudeMeters>501.79998779296875</AltitudeMeters>
            <DistanceMeters>28339.047063889</DistanceMeters>
          </Trackpoint>
          <Trackpoint>
            <Time>2018-08-26T06:50:00.000Z</Time>
            <Position>
              <LatitudeDegrees>42.92084704153239727020263671875</LatitudeDegrees>
              <LongitudeDegrees>-1.78638137876987457275390625</LongitudeDegrees>
            </Position>
            <AltitudeMeters>501.79998779296875</AltitudeMeters>
            <DistanceMeters>28345.825340141</DistanceMeters>
          </Trackpoint>
          <Trackpoint>
            <Time>2018-08-26T06:50:01.000Z</Time>
            <Position>
              <LatitudeDegrees>42.92089414782822132110595703125</LatitudeDegrees>
              <LongitudeDegrees>-1.78633318282663822174072265625</LongitudeDegrees>
            </Position>
            <AltitudeMeters>502</AltitudeMeters>
            <DistanceMeters>28352.375983107</DistanceMeters>
          </Trackpoint>
          <Trackpoint>
            <Time>2018-08-26T06:50:02.000Z</Time>
            <Position>
              <LatitudeDegrees>42.920941673219203948974609375</LatitudeDegrees>
              <LongitudeDegrees>-1.78628708235919475555419921875</LongitudeDegrees>
            </Position>
            <AltitudeMeters>502</AltitudeMeters>
            <DistanceMeters>28358.864296939</DistanceMeters>
          </Trackpoint>
          <Trackpoint>
            <Time>2018-08-26T06:50:03.000Z</Time>
            <Position>
              <LatitudeDegrees>42.92098953388631343841552734375</LatitudeDegrees>
              <LongitudeDegrees>-1.78624047897756099700927734375</LongitudeDegrees>
            </Position>
            <AltitudeMeters>502</AltitudeMeters>
            <DistanceMeters>28365.406663662</DistanceMeters>
          </Trackpoint>
          <Trackpoint>
            <Time>2018-08-26T06:50:04.000Z</Time>
            <Position>
              <LatitudeDegrees>42.92103647254407405853271484375</LatitudeDegrees>
              <LongitudeDegrees>-1.78619370795786380767822265625</LongitudeDegrees>
            </Position>
            <AltitudeMeters>502</AltitudeMeters>
            <DistanceMeters>28371.872671235</DistanceMeters>
          </Trackpoint>
          <Trackpoint>
            <Time>2018-08-26T06:50:05.000Z</Time>
            <Position>
              <LatitudeDegrees>42.92108173482120037078857421875</LatitudeDegrees>
              <LongitudeDegrees>-1.7861468531191349029541015625</LongitudeDegrees>
            </Position>
            <AltitudeMeters>502.20001220703125</AltitudeMeters>
            <DistanceMeters>28378.194626498</DistanceMeters>
          </Trackpoint>
          <Trackpoint>
            <Time>2018-08-26T06:50:06.000Z</Time>
            <Position>
              <LatitudeDegrees>42.9211238957941532135009765625</LatitudeDegrees>
              <LongitudeDegrees>-1.786098740994930267333984375</LongitudeDegrees>
            </Position>
            <AltitudeMeters>502.600006103515625</AltitudeMeters>
            <DistanceMeters>28384.310391097</DistanceMeters>
          </Trackpoint>
          <Trackpoint>
            <Time>2018-08-26T06:50:07.000Z</Time>
            <Position>
              <LatitudeDegrees>42.92116463184356689453125</LatitudeDegrees>
              <LongitudeDegrees>-1.78605037741363048553466796875</LongitudeDegrees>
            </Position>
            <AltitudeMeters>503</AltitudeMeters>
            <DistanceMeters>28390.317402456</DistanceMeters>
          </Trackpoint>
          <Trackpoint>
            <Time>2018-08-26T06:50:08.000Z</Time>
            <Position>
              <LatitudeDegrees>42.92120662517845630645751953125</LatitudeDegrees>
              <LongitudeDegrees>-1.78600477986037731170654296875</LongitudeDegrees>
            </Position>
            <AltitudeMeters>503.399993896484375</AltitudeMeters>
            <DistanceMeters>28396.287470439</DistanceMeters>
          </Trackpoint>
          <Trackpoint>
            <Time>2018-08-26T06:50:09.000Z</Time>
            <Position>
              <LatitudeDegrees>42.921248786151409149169921875</LatitudeDegrees>
              <LongitudeDegrees>-1.78596219979226589202880859375</LongitudeDegrees>
            </Position>
            <AltitudeMeters>503.79998779296875</AltitudeMeters>
            <DistanceMeters>28402.123689108</DistanceMeters>
          </Trackpoint>
          <Trackpoint>
            <Time>2018-08-26T06:50:10.000Z</Time>
            <Position>
              <LatitudeDegrees>42.9212908633053302764892578125</LatitudeDegrees>
              <LongitudeDegrees>-1.78592137992382049560546875</LongitudeDegrees>
            </Position>
            <AltitudeMeters>504</AltitudeMeters>
            <DistanceMeters>28407.868680788</DistanceMeters>
          </Trackpoint>
          <Trackpoint>
            <Time>2018-08-26T06:50:11.000Z</Time>
            <Position>
              <LatitudeDegrees>42.9213322699069976806640625</LatitudeDegrees>
              <LongitudeDegrees>-1.78588257171213626861572265625</LongitudeDegrees>
            </Position>
            <AltitudeMeters>504.20001220703125</AltitudeMeters>
            <DistanceMeters>28413.458319819</DistanceMeters>
          </Trackpoint>
          <Trackpoint>
            <Time>2018-08-26T06:50:12.000Z</Time>
            <Position>
              <LatitudeDegrees>42.921372167766094207763671875</LatitudeDegrees>
              <LongitudeDegrees>-1.7858454398810863494873046875</LongitudeDegrees>
            </Position>
            <AltitudeMeters>504.399993896484375</AltitudeMeters>
            <DistanceMeters>28418.833002558</DistanceMeters>
          </Trackpoint>
          <Trackpoint>
            <Time>2018-08-26T06:50:13.000Z</Time>
            <Position>
              <LatitudeDegrees>42.92141198180615901947021484375</LatitudeDegrees>
              <LongitudeDegrees>-1.7858062125742435455322265625</LongitudeDegrees>
            </Position>
            <AltitudeMeters>504.79998779296875</AltitudeMeters>
            <DistanceMeters>28424.29683205</DistanceMeters>
          </Trackpoint>
          <Trackpoint>
            <Time>2018-08-26T06:50:14.000Z</Time>
            <Position>
              <LatitudeDegrees>42.92145187966525554656982421875</LatitudeDegrees>
              <LongitudeDegrees>-1.78576706908643245697021484375</LongitudeDegrees>
            </Position>
            <AltitudeMeters>505</AltitudeMeters>
            <DistanceMeters>28429.764791734</DistanceMeters>
          </Trackpoint>
          <Trackpoint>
            <Time>2018-08-26T06:50:15.000Z</Time>
            <Position>
              <LatitudeDegrees>42.9214910231530666351318359375</LatitudeDegrees>
              <LongitudeDegrees>-1.78572666831314563751220703125</LongitudeDegrees>
            </Position>
            <AltitudeMeters>505.20001220703125</AltitudeMeters>
            <DistanceMeters>28435.226141613</DistanceMeters>
          </Trackpoint>
          <Trackpoint>
            <Time>2018-08-26T06:50:16.000Z</Time>
            <Position>
              <LatitudeDegrees>42.92152999900281429290771484375</LatitudeDegrees>
              <LongitudeDegrees>-1.785686016082763671875</LongitudeDegrees>
            </Position>
            <AltitudeMeters>505.600006103515625</AltitudeMeters>
            <DistanceMeters>28440.685010751</DistanceMeters>
          </Trackpoint>
          <Trackpoint>
            <Time>2018-08-26T06:50:17.000Z</Time>
            <Position>
              <LatitudeDegrees>42.92156855575740337371826171875</LatitudeDegrees>
              <LongitudeDegrees>-1.78564569912850856781005859375</LongitudeDegrees>
            </Position>
            <AltitudeMeters>505.79998779296875</AltitudeMeters>
            <DistanceMeters>28446.090686229</DistanceMeters>
          </Trackpoint>
          <Trackpoint>
            <Time>2018-08-26T06:50:18.000Z</Time>
            <Position>
              <LatitudeDegrees>42.92160677723586559295654296875</LatitudeDegrees>
              <LongitudeDegrees>-1.7856050468981266021728515625</LongitudeDegrees>
            </Position>
            <AltitudeMeters>506.20001220703125</AltitudeMeters>
            <DistanceMeters>28451.482981301</DistanceMeters>
          </Trackpoint>
          <Trackpoint>
            <Time>2018-08-26T06:50:19.000Z</Time>
            <Position>
              <LatitudeDegrees>42.921644747257232666015625</LatitudeDegrees>
              <LongitudeDegrees>-1.785564981400966644287109375</LongitudeDegrees>
            </Position>
            <AltitudeMeters>506.20001220703125</AltitudeMeters>
            <DistanceMeters>28456.82395607</DistanceMeters>
          </Trackpoint>
          <Trackpoint>
            <Time>2018-08-26T06:50:20.000Z</Time>
            <Position>
              <LatitudeDegrees>42.9216824658215045928955078125</LatitudeDegrees>
              <LongitudeDegrees>-1.785523407161235809326171875</LongitudeDegrees>
            </Position>
            <AltitudeMeters>506.600006103515625</AltitudeMeters>
            <DistanceMeters>28462.219599355</DistanceMeters>
          </Trackpoint>
          <Trackpoint>
            <Time>2018-08-26T06:50:21.000Z</Time>
            <Position>
              <LatitudeDegrees>42.9217210225760936737060546875</LatitudeDegrees>
              <LongitudeDegrees>-1.78548015654087066650390625</LongitudeDegrees>
            </Position>
            <AltitudeMeters>507</AltitudeMeters>
            <DistanceMeters>28467.773583613</DistanceMeters>
          </Trackpoint>
          <Trackpoint>
            <Time>2018-08-26T06:50:22.000Z</Time>
            <Position>
              <LatitudeDegrees>42.9217605851590633392333984375</LatitudeDegrees>
              <LongitudeDegrees>-1.7854379117488861083984375</LongitudeDegrees>
            </Position>
            <AltitudeMeters>507.20001220703125</AltitudeMeters>
            <DistanceMeters>28473.363222644</DistanceMeters>
          </Trackpoint>
          <Trackpoint>
            <Time>2018-08-26T06:50:23.000Z</Time>
            <Position>
              <LatitudeDegrees>42.92180023156106472015380859375</LatitudeDegrees>
              <LongitudeDegrees>-1.78539357148110866546630859375</LongitudeDegrees>
            </Position>
            <AltitudeMeters>507.600006103515625</AltitudeMeters>
            <DistanceMeters>28479.067200679</DistanceMeters>
          </Trackpoint>
          <Trackpoint>
            <Time>2018-08-26T06:50:24.000Z</Time>
            <Position>
              <LatitudeDegrees>42.92183895595371723175048828125</LatitudeDegrees>
              <LongitudeDegrees>-1.785350404679775238037109375</LongitudeDegrees>
            </Position>
            <AltitudeMeters>507.600006103515625</AltitudeMeters>
            <DistanceMeters>28484.630931626</DistanceMeters>
          </Trackpoint>
          <Trackpoint>
            <Time>2018-08-26T06:50:25.000Z</Time>
            <Position>
              <LatitudeDegrees>42.9218782670795917510986328125</LatitudeDegrees>
              <LongitudeDegrees>-1.785308159887790679931640625</LongitudeDegrees>
            </Position>
            <AltitudeMeters>508</AltitudeMeters>
            <DistanceMeters>28490.197907677</DistanceMeters>
          </Trackpoint>
          <Trackpoint>
            <Time>2018-08-26T06:50:26.000Z</Time>
            <Position>
              <LatitudeDegrees>42.921917997300624847412109375</LatitudeDegrees>
              <LongitudeDegrees>-1.78526666946709156036376953125</LongitudeDegrees>
            </Position>
            <AltitudeMeters>508.20001220703125</AltitudeMeters>
            <DistanceMeters>28495.764883728</DistanceMeters>
          </Trackpoint>
          <Trackpoint>
            <Time>2018-08-26T06:50:27.000Z</Time>
            <Position>
              <LatitudeDegrees>42.9219573922455310821533203125</LatitudeDegrees>
              <LongitudeDegrees>-1.78522308357059955596923828125</LongitudeDegrees>
            </Position>
            <AltitudeMeters>508.399993896484375</AltitudeMeters>
            <DistanceMeters>28501.40758251</DistanceMeters>
          </Trackpoint>
          <Trackpoint>
            <Time>2018-08-26T06:50:28.000Z</Time>
            <Position>
              <LatitudeDegrees>42.9219962842762470245361328125</LatitudeDegrees>
              <LongitudeDegrees>-1.78517748601734638214111328125</LongitudeDegrees>
            </Position>
            <AltitudeMeters>508.600006103515625</AltitudeMeters>
            <DistanceMeters>28507.111560545</DistanceMeters>
          </Trackpoint>
          <Trackpoint>
            <Time>2018-08-26T06:50:29.000Z</Time>
            <Position>
              <LatitudeDegrees>42.92203567922115325927734375</LatitudeDegrees>
              <LongitudeDegrees>-1.78513205610215663909912109375</LongitudeDegrees>
            </Position>
            <AltitudeMeters>508.79998779296875</AltitudeMeters>
            <DistanceMeters>28512.850261513</DistanceMeters>
          </Trackpoint>
          <Trackpoint>
            <Time>2018-08-26T06:50:30.000Z</Time>
            <Position>
              <LatitudeDegrees>42.92207515798509120941162109375</LatitudeDegrees>
              <LongitudeDegrees>-1.78508712910115718841552734375</LongitudeDegrees>
            </Position>
            <AltitudeMeters>509</AltitudeMeters>
            <DistanceMeters>28518.57004883</DistanceMeters>
          </Trackpoint>
          <Trackpoint>
            <Time>2018-08-26T06:50:31.000Z</Time>
            <Position>
              <LatitudeDegrees>42.9221136309206485748291015625</LatitudeDegrees>
              <LongitudeDegrees>-1.7850417830049991607666015625</LongitudeDegrees>
            </Position>
            <AltitudeMeters>509.20001220703125</AltitudeMeters>
            <DistanceMeters>28524.226333904</DistanceMeters>
          </Trackpoint>
          <Trackpoint>
            <Time>2018-08-26T06:50:32.000Z</Time>
            <Position>
              <LatitudeDegrees>42.92214975692331790924072265625</LatitudeDegrees>
              <LongitudeDegrees>-1.78499509580433368682861328125</LongitudeDegrees>
            </Position>
            <AltitudeMeters>509.399993896484375</AltitudeMeters>
            <DistanceMeters>28529.761589036</DistanceMeters>
          </Trackpoint>
          <Trackpoint>
            <Time>2018-08-26T06:50:33.000Z</Time>
            <Position>
              <LatitudeDegrees>42.92218730784952640533447265625</LatitudeDegrees>
              <LongitudeDegrees>-1.784948743879795074462890625</LongitudeDegrees>
            </Position>
            <AltitudeMeters>509.600006103515625</AltitudeMeters>
            <DistanceMeters>28535.394677765</DistanceMeters>
          </Trackpoint>
          <Trackpoint>
            <Time>2018-08-26T06:50:34.000Z</Time>
            <Position>
              <LatitudeDegrees>42.92222385294735431671142578125</LatitudeDegrees>
              <LongitudeDegrees>-1.78490473888814449310302734375</LongitudeDegrees>
            </Position>
            <AltitudeMeters>510</AltitudeMeters>
            <DistanceMeters>28540.818697405</DistanceMeters>
          </Trackpoint>
          <Trackpoint>
            <Time>2018-08-26T06:50:35.000Z</Time>
            <Position>
              <LatitudeDegrees>42.9222603142261505126953125</LatitudeDegrees>
              <LongitudeDegrees>-1.78486098535358905792236328125</LongitudeDegrees>
            </Position>
            <AltitudeMeters>510.399993896484375</AltitudeMeters>
            <DistanceMeters>28546.221030888</DistanceMeters>
          </Trackpoint>
          <Trackpoint>
            <Time>2018-08-26T06:50:36.000Z</Time>
            <Position>
              <LatitudeDegrees>42.9222960211336612701416015625</LatitudeDegrees>
              <LongitudeDegrees>-1.78481689654290676116943359375</LongitudeDegrees>
            </Position>
            <AltitudeMeters>510.600006103515625</AltitudeMeters>
            <DistanceMeters>28551.578043389</DistanceMeters>
          </Trackpoint>
          <Trackpoint>
            <Time>2018-08-26T06:50:37.000Z</Time>
            <Position>
              <LatitudeDegrees>42.92233147658407688140869140625</LatitudeDegrees>
              <LongitudeDegrees>-1.784773059189319610595703125</LongitudeDegrees>
            </Position>
            <AltitudeMeters>510.79998779296875</AltitudeMeters>
            <DistanceMeters>28556.902084144</DistanceMeters>
          </Trackpoint>
          <Trackpoint>
            <Time>2018-08-26T06:50:38.000Z</Time>
            <Position>
              <LatitudeDegrees>42.92236718349158763885498046875</LatitudeDegrees>
              <LongitudeDegrees>-1.78473006002604961395263671875</LongitudeDegrees>
            </Position>
            <AltitudeMeters>511</AltitudeMeters>
            <DistanceMeters>28562.201474462</DistanceMeters>
          </Trackpoint>
          <Trackpoint>
            <Time>2018-08-26T06:50:39.000Z</Time>
            <Position>
              <LatitudeDegrees>42.92240372858941555023193359375</LatitudeDegrees>
              <LongitudeDegrees>-1.784687228500843048095703125</LongitudeDegrees>
            </Position>
            <AltitudeMeters>511</AltitudeMeters>
            <DistanceMeters>28567.561857214</DistanceMeters>
          </Trackpoint>
          <Trackpoint>
            <Time>2018-08-26T06:50:40.000Z</Time>
            <Position>
              <LatitudeDegrees>42.92244127951562404632568359375</LatitudeDegrees>
              <LongitudeDegrees>-1.78464389406144618988037109375</LongitudeDegrees>
            </Position>
            <AltitudeMeters>511.20001220703125</AltitudeMeters>
            <DistanceMeters>28573.033118806</DistanceMeters>
          </Trackpoint>
          <Trackpoint>
            <Time>2018-08-26T06:50:41.000Z</Time>
            <Position>
              <LatitudeDegrees>42.92247815988957881927490234375</LatitudeDegrees>
              <LongitudeDegrees>-1.7846002243459224700927734375</LongitudeDegrees>
            </Position>
            <AltitudeMeters>511.20001220703125</AltitudeMeters>
            <DistanceMeters>28578.466287301</DistanceMeters>
          </Trackpoint>
          <Trackpoint>
            <Time>2018-08-26T06:50:42.000Z</Time>
            <Position>
              <LatitudeDegrees>42.92251487262547016143798828125</LatitudeDegrees>
              <LongitudeDegrees>-1.78455722518265247344970703125</LongitudeDegrees>
            </Position>
            <AltitudeMeters>511.399993896484375</AltitudeMeters>
            <DistanceMeters>28583.850202734</DistanceMeters>
          </Trackpoint>
          <Trackpoint>
            <Time>2018-08-26T06:50:43.000Z</Time>
            <Position>
              <LatitudeDegrees>42.92255200445652008056640625</LatitudeDegrees>
              <LongitudeDegrees>-1.78451363928616046905517578125</LongitudeDegrees>
            </Position>
            <AltitudeMeters>512</AltitudeMeters>
            <DistanceMeters>28589.300794582</DistanceMeters>
          </Trackpoint>
          <Trackpoint>
            <Time>2018-08-26T06:50:44.000Z</Time>
            <Position>
              <LatitudeDegrees>42.92258896864950656890869140625</LatitudeDegrees>
              <LongitudeDegrees>-1.78446938283741474151611328125</LongitudeDegrees>
            </Position>
            <AltitudeMeters>512.4000244140625</AltitudeMeters>
            <DistanceMeters>28594.77288134</DistanceMeters>
          </Trackpoint>
          <Trackpoint>
            <Time>2018-08-26T06:50:45.000Z</Time>
            <Position>
              <LatitudeDegrees>42.9226259328424930572509765625</LatitudeDegrees>
              <LongitudeDegrees>-1.7844235338270664215087890625</LongitudeDegrees>
            </Position>
            <AltitudeMeters>512.79998779296875</AltitudeMeters>
            <DistanceMeters>28600.330116394</DistanceMeters>
          </Trackpoint>
          <Trackpoint>
            <Time>2018-08-26T06:50:46.000Z</Time>
            <Position>
              <LatitudeDegrees>42.92266373522579669952392578125</LatitudeDegrees>
              <LongitudeDegrees>-1.784375421702861785888671875</LongitudeDegrees>
            </Position>
            <AltitudeMeters>513</AltitudeMeters>
            <DistanceMeters>28606.080606802</DistanceMeters>
          </Trackpoint>
          <Trackpoint>
            <Time>2018-08-26T06:50:47.000Z</Time>
            <Position>
              <LatitudeDegrees>42.92270178906619548797607421875</LatitudeDegrees>
              <LongitudeDegrees>-1.78432739339768886566162109375</LongitudeDegrees>
            </Position>
            <AltitudeMeters>513.4000244140625</AltitudeMeters>
            <DistanceMeters>28611.848344801</DistanceMeters>
          </Trackpoint>
          <Trackpoint>
            <Time>2018-08-26T06:50:48.000Z</Time>
            <Position>
              <LatitudeDegrees>42.9227392561733722686767578125</LatitudeDegrees>
              <LongitudeDegrees>-1.78428079001605510711669921875</LongitudeDegrees>
            </Position>
            <AltitudeMeters>513.5999755859375</AltitudeMeters>
            <DistanceMeters>28617.489443044</DistanceMeters>
          </Trackpoint>
          <Trackpoint>
            <Time>2018-08-26T06:50:49.000Z</Time>
            <Position>
              <LatitudeDegrees>42.92277655564248561859130859375</LatitudeDegrees>
              <LongitudeDegrees>-1.78423301316797733306884765625</LongitudeDegrees>
            </Position>
            <AltitudeMeters>514</AltitudeMeters>
            <DistanceMeters>28623.181535302</DistanceMeters>
          </Trackpoint>
          <Trackpoint>
            <Time>2018-08-26T06:50:50.000Z</Time>
            <Position>
              <LatitudeDegrees>42.92281410656869411468505859375</LatitudeDegrees>
              <LongitudeDegrees>-1.78418372757732868194580078125</LongitudeDegrees>
            </Position>
            <AltitudeMeters>514.20001220703125</AltitudeMeters>
            <DistanceMeters>28628.978943734</DistanceMeters>
          </Trackpoint>
          <Trackpoint>
            <Time>2018-08-26T06:50:51.000Z</Time>
            <Position>
              <LatitudeDegrees>42.92285241186618804931640625</LatitudeDegrees>
              <LongitudeDegrees>-1.78413293324410915374755859375</LongitudeDegrees>
            </Position>
            <AltitudeMeters>514.4000244140625</AltitudeMeters>
            <DistanceMeters>28634.922483004</DistanceMeters>
          </Trackpoint>
          <Trackpoint>
            <Time>2018-08-26T06:50:52.000Z</Time>
            <Position>
              <LatitudeDegrees>42.92289197444915771484375</LatitudeDegrees>
              <LongitudeDegrees>-1.78407928906381130218505859375</LongitudeDegrees>
            </Position>
            <AltitudeMeters>514.5999755859375</AltitudeMeters>
            <DistanceMeters>28641.127661966</DistanceMeters>
          </Trackpoint>
          <Trackpoint>
            <Time>2018-08-26T06:50:53.000Z</Time>
            <Position>
              <LatitudeDegrees>42.922935225069522857666015625</LatitudeDegrees>
              <LongitudeDegrees>-1.7840191908180713653564453125</LongitudeDegrees>
            </Position>
            <AltitudeMeters>515</AltitudeMeters>
            <DistanceMeters>28647.995930987</DistanceMeters>
          </Trackpoint>
          <Trackpoint>
            <Time>2018-08-26T06:50:54.000Z</Time>
            <Position>
              <LatitudeDegrees>42.92298040352761745452880859375</LatitudeDegrees>
              <LongitudeDegrees>-1.78395372815430164337158203125</LongitudeDegrees>
            </Position>
            <AltitudeMeters>515.20001220703125</AltitudeMeters>
            <DistanceMeters>28655.327166558</DistanceMeters>
          </Trackpoint>
          <Trackpoint>
            <Time>2018-08-26T06:50:55.000Z</Time>
            <Position>
              <LatitudeDegrees>42.92302683927118778228759765625</LatitudeDegrees>
              <LongitudeDegrees>-1.78388348780572414398193359375</LongitudeDegrees>
            </Position>
            <AltitudeMeters>515.4000244140625</AltitudeMeters>
            <DistanceMeters>28663.039566543</DistanceMeters>
          </Trackpoint>
          <Trackpoint>
            <Time>2018-08-26T06:50:56.000Z</Time>
            <Position>
              <LatitudeDegrees>42.92307503521442413330078125</LatitudeDegrees>
              <LongitudeDegrees>-1.78380914032459259033203125</LongitudeDegrees>
            </Position>
            <AltitudeMeters>515.4000244140625</AltitudeMeters>
            <DistanceMeters>28671.131915669</DistanceMeters>
          </Trackpoint>
          <Trackpoint>
            <Time>2018-08-26T06:50:57.000Z</Time>
            <Position>
              <LatitudeDegrees>42.9231251589953899383544921875</LatitudeDegrees>
              <LongitudeDegrees>-1.783733367919921875</LongitudeDegrees>
            </Position>
            <AltitudeMeters>515.4000244140625</AltitudeMeters>
            <DistanceMeters>28679.455301187</DistanceMeters>
          </Trackpoint>
          <Trackpoint>
            <Time>2018-08-26T06:50:58.000Z</Time>
            <Position>
              <LatitudeDegrees>42.92317603714764118194580078125</LatitudeDegrees>
              <LongitudeDegrees>-1.78365449421107769012451171875</LongitudeDegrees>
            </Position>
            <AltitudeMeters>515.4000244140625</AltitudeMeters>
            <DistanceMeters>28688.023001661</DistanceMeters>
          </Trackpoint>
          <Trackpoint>
            <Time>2018-08-26T06:50:59.000Z</Time>
            <Position>
              <LatitudeDegrees>42.92322934605181217193603515625</LatitudeDegrees>
              <LongitudeDegrees>-1.78357318975031375885009765625</LongitudeDegrees>
            </Position>
            <AltitudeMeters>515.4000244140625</AltitudeMeters>
            <DistanceMeters>28696.918030036</DistanceMeters>
          </Trackpoint>
          <Trackpoint>
            <Time>2018-08-26T06:51:00.000Z</Time>
            <Position>
              <LatitudeDegrees>42.92328651063144207000732421875</LatitudeDegrees>
              <LongitudeDegrees>-1.78348937071859836578369140625</LongitudeDegrees>
            </Position>
            <AltitudeMeters>515.4000244140625</AltitudeMeters>
            <DistanceMeters>28706.253407252</DistanceMeters>
          </Trackpoint>
          <Trackpoint>
            <Time>2018-08-26T06:51:01.000Z</Time>
            <Position>
              <LatitudeDegrees>42.92334568686783313751220703125</LatitudeDegrees>
              <LongitudeDegrees>-1.78340404294431209564208984375</LongitudeDegrees>
            </Position>
            <AltitudeMeters>515.4000244140625</AltitudeMeters>
            <DistanceMeters>28715.831798384</DistanceMeters>
          </Trackpoint>
          <Trackpoint>
            <Time>2018-08-26T06:51:02.000Z</Time>
            <Position>
              <LatitudeDegrees>42.92340762913227081298828125</LatitudeDegrees>
              <LongitudeDegrees>-1.78332005627453327178955078125</LongitudeDegrees>
            </Position>
            <AltitudeMeters>515.4000244140625</AltitudeMeters>
            <DistanceMeters>28725.546856747</DistanceMeters>
          </Trackpoint>
          <Trackpoint>
            <Time>2018-08-26T06:51:03.000Z</Time>
            <Position>
              <LatitudeDegrees>42.9234698228538036346435546875</LatitudeDegrees>
              <LongitudeDegrees>-1.7832366563379764556884765625</LongitudeDegrees>
            </Position>
            <AltitudeMeters>515.4000244140625</AltitudeMeters>
            <DistanceMeters>28735.248893484</DistanceMeters>
          </Trackpoint>
          <Trackpoint>
            <Time>2018-08-26T06:51:04.000Z</Time>
            <Position>
              <LatitudeDegrees>42.9235321842133998870849609375</LatitudeDegrees>
              <LongitudeDegrees>-1.78315442986786365509033203125</LongitudeDegrees>
            </Position>
            <AltitudeMeters>515.20001220703125</AltitudeMeters>
            <DistanceMeters>28744.897732178</DistanceMeters>
          </Trackpoint>
          <Trackpoint>
            <Time>2018-08-26T06:51:05.000Z</Time>
            <Position>
              <LatitudeDegrees>42.92359312064945697784423828125</LatitudeDegrees>
              <LongitudeDegrees>-1.7830713652074337005615234375</LongitudeDegrees>
            </Position>
            <AltitudeMeters>514.79998779296875</AltitudeMeters>
            <DistanceMeters>28754.480835925</DistanceMeters>
          </Trackpoint>
          <Trackpoint>
            <Time>2018-08-26T06:51:06.000Z</Time>
            <Position>
              <LatitudeDegrees>42.92365246452391147613525390625</LatitudeDegrees>
              <LongitudeDegrees>-1.78299014456570148468017578125</LongitudeDegrees>
            </Position>
            <AltitudeMeters>514.5999755859375</AltitudeMeters>
            <DistanceMeters>28763.832642722</DistanceMeters>
          </Trackpoint>
          <Trackpoint>
            <Time>2018-08-26T06:51:07.000Z</Time>
            <Position>
              <LatitudeDegrees>42.9237113893032073974609375</LatitudeDegrees>
              <LongitudeDegrees>-1.7829111032187938690185546875</LongitudeDegrees>
            </Position>
            <AltitudeMeters>514.4000244140625</AltitudeMeters>
            <DistanceMeters>28773.026201092</DistanceMeters>
          </Trackpoint>
          <Trackpoint>
            <Time>2018-08-26T06:51:08.000Z</Time>
            <Position>
              <LatitudeDegrees>42.923769056797027587890625</LatitudeDegrees>
              <LongitudeDegrees>-1.78283206187188625335693359375</LongitudeDegrees>
            </Position>
            <AltitudeMeters>514</AltitudeMeters>
            <DistanceMeters>28782.120014378</DistanceMeters>
          </Trackpoint>
          <Trackpoint>
            <Time>2018-08-26T06:51:09.000Z</Time>
            <Position>
              <LatitudeDegrees>42.9238268919289112091064453125</LatitudeDegrees>
              <LongitudeDegrees>-1.7827531881630420684814453125</LongitudeDegrees>
            </Position>
            <AltitudeMeters>513.5999755859375</AltitudeMeters>
            <DistanceMeters>28791.217798761</DistanceMeters>
          </Trackpoint>
          <Trackpoint>
            <Time>2018-08-26T06:51:10.000Z</Time>
            <Position>
              <LatitudeDegrees>42.9238855652511119842529296875</LatitudeDegrees>
              <LongitudeDegrees>-1.7826752364635467529296875</LongitudeDegrees>
            </Position>
            <AltitudeMeters>513.4000244140625</AltitudeMeters>
            <DistanceMeters>28800.328972821</DistanceMeters>
          </Trackpoint>
          <Trackpoint>
            <Time>2018-08-26T06:51:11.000Z</Time>
            <Position>
              <LatitudeDegrees>42.9239449091255664825439453125</LatitudeDegrees>
              <LongitudeDegrees>-1.7825982905924320220947265625</LongitudeDegrees>
            </Position>
            <AltitudeMeters>513</AltitudeMeters>
            <DistanceMeters>28809.436181622</DistanceMeters>
          </Trackpoint>
          <Trackpoint>
            <Time>2018-08-26T06:51:12.000Z</Time>
            <Position>
              <LatitudeDegrees>42.92400467209517955780029296875</LatitudeDegrees>
              <LongitudeDegrees>-1.78252159617841243743896484375</LongitudeDegrees>
            </Position>
            <AltitudeMeters>512.79998779296875</AltitudeMeters>
            <DistanceMeters>28818.563694167</DistanceMeters>
          </Trackpoint>
          <Trackpoint>
            <Time>2018-08-26T06:51:13.000Z</Time>
            <Position>
              <LatitudeDegrees>42.924063764512538909912109375</LatitudeDegrees>
              <LongitudeDegrees>-1.7824443988502025604248046875</LongitudeDegrees>
            </Position>
            <AltitudeMeters>512.79998779296875</AltitudeMeters>
            <DistanceMeters>28827.665447916</DistanceMeters>
          </Trackpoint>
          <Trackpoint>
            <Time>2018-08-26T06:51:14.000Z</Time>
            <Position>
              <LatitudeDegrees>42.924120090901851654052734375</LatitudeDegrees>
              <LongitudeDegrees>-1.7823686264455318450927734375</LongitudeDegrees>
            </Position>
            <AltitudeMeters>512.5999755859375</AltitudeMeters>
            <DistanceMeters>28836.465557892</DistanceMeters>
          </Trackpoint>
          <Trackpoint>
            <Time>2018-08-26T06:51:15.000Z</Time>
            <Position>
              <LatitudeDegrees>42.92417499236762523651123046875</LatitudeDegrees>
              <LongitudeDegrees>-1.78229511715471744537353515625</LongitudeDegrees>
            </Position>
            <AltitudeMeters>512.5999755859375</AltitudeMeters>
            <DistanceMeters>28845.023239818</DistanceMeters>
          </Trackpoint>
          <Trackpoint>
            <Time>2018-08-26T06:51:16.000Z</Time>
            <Position>
              <LatitudeDegrees>42.9242290556430816650390625</LatitudeDegrees>
              <LongitudeDegrees>-1.78222487680613994598388671875</LongitudeDegrees>
            </Position>
            <AltitudeMeters>512.5999755859375</AltitudeMeters>
            <DistanceMeters>28853.328161484</DistanceMeters>
          </Trackpoint>
          <Trackpoint>
            <Time>2018-08-26T06:51:17.000Z</Time>
            <Position>
              <LatitudeDegrees>42.92428202927112579345703125</LatitudeDegrees>
              <LongitudeDegrees>-1.782156564295291900634765625</LongitudeDegrees>
            </Position>
            <AltitudeMeters>512.5999755859375</AltitudeMeters>
            <DistanceMeters>28861.437788279</DistanceMeters>
          </Trackpoint>
          <Trackpoint>
            <Time>2018-08-26T06:51:18.000Z</Time>
            <Position>
              <LatitudeDegrees>42.92433458380401134490966796875</LatitudeDegrees>
              <LongitudeDegrees>-1.78208858706057071685791015625</LongitudeDegrees>
            </Position>
            <AltitudeMeters>512.5999755859375</AltitudeMeters>
            <DistanceMeters>28869.494350168</DistanceMeters>
          </Trackpoint>
          <Trackpoint>
            <Time>2018-08-26T06:51:19.000Z</Time>
            <Position>
              <LatitudeDegrees>42.9243854619562625885009765625</LatitudeDegrees>
              <LongitudeDegrees>-1.78202052600681781768798828125</LongitudeDegrees>
            </Position>
            <AltitudeMeters>512.5999755859375</AltitudeMeters>
            <DistanceMeters>28877.420968104</DistanceMeters>
          </Trackpoint>
          <Trackpoint>
            <Time>2018-08-26T06:51:20.000Z</Time>
            <Position>
              <LatitudeDegrees>42.92443315498530864715576171875</LatitudeDegrees>
              <LongitudeDegrees>-1.78195414133369922637939453125</LongitudeDegrees>
            </Position>
            <AltitudeMeters>512.5999755859375</AltitudeMeters>
            <DistanceMeters>28885.000502808</DistanceMeters>
          </Trackpoint>
          <Trackpoint>
            <Time>2018-08-26T06:51:21.000Z</Time>
            <Position>
              <LatitudeDegrees>42.9244830273091793060302734375</LatitudeDegrees>
              <LongitudeDegrees>-1.78188893012702465057373046875</LongitudeDegrees>
            </Position>
            <AltitudeMeters>512.5999755859375</AltitudeMeters>
            <DistanceMeters>28892.685338522</DistanceMeters>
          </Trackpoint>
          <Trackpoint>
            <Time>2018-08-26T06:51:22.000Z</Time>
            <Position>
              <LatitudeDegrees>42.9245321452617645263671875</LatitudeDegrees>
              <LongitudeDegrees>-1.78182573057711124420166015625</LongitudeDegrees>
            </Position>
            <AltitudeMeters>512.5999755859375</AltitudeMeters>
            <DistanceMeters>28900.196657821</DistanceMeters>
          </Trackpoint>
          <Trackpoint>
            <Time>2018-08-26T06:51:23.000Z</Time>
            <Position>
              <LatitudeDegrees>42.92458050884306430816650390625</LatitudeDegrees>
              <LongitudeDegrees>-1.78176286630332469940185546875</LongitudeDegrees>
            </Position>
            <AltitudeMeters>512.79998779296875</AltitudeMeters>
            <DistanceMeters>28907.628208637</DistanceMeters>
          </Trackpoint>
          <Trackpoint>
            <Time>2018-08-26T06:51:24.000Z</Time>
            <Position>
              <LatitudeDegrees>42.9246282018721103668212890625</LatitudeDegrees>
              <LongitudeDegrees>-1.781703270971775054931640625</LongitudeDegrees>
            </Position>
            <AltitudeMeters>513.20001220703125</AltitudeMeters>
            <DistanceMeters>28914.822678609</DistanceMeters>
          </Trackpoint>
          <Trackpoint>
            <Time>2018-08-26T06:51:25.000Z</Time>
            <Position>
              <LatitudeDegrees>42.92467103339731693267822265625</LatitudeDegrees>
              <LongitudeDegrees>-1.7816440947353839874267578125</LongitudeDegrees>
            </Position>
            <AltitudeMeters>513.4000244140625</AltitudeMeters>
            <DistanceMeters>28921.604284564</DistanceMeters>
          </Trackpoint>
          <Trackpoint>
            <Time>2018-08-26T06:51:26.000Z</Time>
            <Position>
              <LatitudeDegrees>42.92471461929380893707275390625</LatitudeDegrees>
              <LongitudeDegrees>-1.78158433176577091217041015625</LongitudeDegrees>
            </Position>
            <AltitudeMeters>513.4000244140625</AltitudeMeters>
            <DistanceMeters>28928.477810585</DistanceMeters>
          </Trackpoint>
          <Trackpoint>
            <Time>2018-08-26T06:51:27.000Z</Time>
            <Position>
              <LatitudeDegrees>42.9247599653899669647216796875</LatitudeDegrees>
              <LongitudeDegrees>-1.78152498789131641387939453125</LongitudeDegrees>
            </Position>
            <AltitudeMeters>513.5999755859375</AltitudeMeters>
            <DistanceMeters>28935.467282207</DistanceMeters>
          </Trackpoint>
          <Trackpoint>
            <Time>2018-08-26T06:51:28.000Z</Time>
            <Position>
              <LatitudeDegrees>42.92480480857193470001220703125</LatitudeDegrees>
              <LongitudeDegrees>-1.78146832622587680816650390625</LongitudeDegrees>
            </Position>
            <AltitudeMeters>513.79998779296875</AltitudeMeters>
            <DistanceMeters>28942.266176332</DistanceMeters>
          </Trackpoint>
          <Trackpoint>
            <Time>2018-08-26T06:51:29.000Z</Time>
            <Position>
              <LatitudeDegrees>42.9248494841158390045166015625</LatitudeDegrees>
              <LongitudeDegrees>-1.78141300566494464874267578125</LongitudeDegrees>
            </Position>
            <AltitudeMeters>514</AltitudeMeters>
            <DistanceMeters>28948.978184331</DistanceMeters>
          </Trackpoint>
          <Trackpoint>
            <Time>2018-08-26T06:51:30.000Z</Time>
            <Position>
              <LatitudeDegrees>42.92489332146942615509033203125</LatitudeDegrees>
              <LongitudeDegrees>-1.781359277665615081787109375</LongitudeDegrees>
            </Position>
            <AltitudeMeters>514.4000244140625</AltitudeMeters>
            <DistanceMeters>28955.534338987</DistanceMeters>
          </Trackpoint>
          <Trackpoint>
            <Time>2018-08-26T06:51:31.000Z</Time>
            <Position>
              <LatitudeDegrees>42.92493338696658611297607421875</LatitudeDegrees>
              <LongitudeDegrees>-1.781304962933063507080078125</LongitudeDegrees>
            </Position>
            <AltitudeMeters>514.79998779296875</AltitudeMeters>
            <DistanceMeters>28961.817609967</DistanceMeters>
          </Trackpoint>
          <Trackpoint>
            <Time>2018-08-26T06:51:32.000Z</Time>
            <Position>
              <LatitudeDegrees>42.9249691776931285858154296875</LatitudeDegrees>
              <LongitudeDegrees>-1.7812491394579410552978515625</LongitudeDegrees>
            </Position>
            <AltitudeMeters>515.20001220703125</AltitudeMeters>
            <DistanceMeters>28967.864326392</DistanceMeters>
          </Trackpoint>
          <Trackpoint>
            <Time>2018-08-26T06:51:33.000Z</Time>
            <Position>
              <LatitudeDegrees>42.9250067286193370819091796875</LatitudeDegrees>
              <LongitudeDegrees>-1.7811924777925014495849609375</LongitudeDegrees>
            </Position>
            <AltitudeMeters>515.79998779296875</AltitudeMeters>
            <DistanceMeters>28974.092745807</DistanceMeters>
          </Trackpoint>
          <Trackpoint>
            <Time>2018-08-26T06:51:34.000Z</Time>
            <Position>
              <LatitudeDegrees>42.925047464668750762939453125</LatitudeDegrees>
              <LongitudeDegrees>-1.7811408452689647674560546875</LongitudeDegrees>
            </Position>
            <AltitudeMeters>516</AltitudeMeters>
            <DistanceMeters>28980.278977614</DistanceMeters>
          </Trackpoint>
          <Trackpoint>
            <Time>2018-08-26T06:51:35.000Z</Time>
            <Position>
              <LatitudeDegrees>42.925088368356227874755859375</LatitudeDegrees>
              <LongitudeDegrees>-1.78109365515410900115966796875</LongitudeDegrees>
            </Position>
            <AltitudeMeters>516.20001220703125</AltitudeMeters>
            <DistanceMeters>28986.238448282</DistanceMeters>
          </Trackpoint>
          <Trackpoint>
            <Time>2018-08-26T06:51:36.000Z</Time>
            <Position>
              <LatitudeDegrees>42.925128936767578125</LatitudeDegrees>
              <LongitudeDegrees>-1.78104386664927005767822265625</LongitudeDegrees>
            </Position>
            <AltitudeMeters>516.5999755859375</AltitudeMeters>
            <DistanceMeters>28992.309011845</DistanceMeters>
          </Trackpoint>
          <Trackpoint>
            <Time>2018-08-26T06:51:37.000Z</Time>
            <Position>
              <LatitudeDegrees>42.92516891844570636749267578125</LatitudeDegrees>
              <LongitudeDegrees>-1.7809908092021942138671875</LongitudeDegrees>
            </Position>
            <AltitudeMeters>517</AltitudeMeters>
            <DistanceMeters>28998.514190808</DistanceMeters>
          </Trackpoint>
          <Trackpoint>
            <Time>2018-08-26T06:51:38.000Z</Time>
            <Position>
              <LatitudeDegrees>42.92520797811448574066162109375</LatitudeDegrees>
              <LongitudeDegrees>-1.78093758411705493927001953125</LongitudeDegrees>
            </Position>
            <AltitudeMeters>517.4000244140625</AltitudeMeters>
            <DistanceMeters>29004.65574023</DistanceMeters>
          </Trackpoint>
          <Trackpoint>
            <Time>2018-08-26T06:51:39.000Z</Time>
            <Position>
              <LatitudeDegrees>42.9252447746694087982177734375</LatitudeDegrees>
              <LongitudeDegrees>-1.7808860354125499725341796875</LongitudeDegrees>
            </Position>
            <AltitudeMeters>517.5999755859375</AltitudeMeters>
            <DistanceMeters>29010.521282937</DistanceMeters>
          </Trackpoint>
          <Trackpoint>
            <Time>2018-08-26T06:51:40.000Z</Time>
            <Position>
              <LatitudeDegrees>42.9252809844911098480224609375</LatitudeDegrees>
              <LongitudeDegrees>-1.7808330617845058441162109375</LongitudeDegrees>
            </Position>
            <AltitudeMeters>517.79998779296875</AltitudeMeters>
            <DistanceMeters>29016.426717318</DistanceMeters>
          </Trackpoint>
          <Trackpoint>
            <Time>2018-08-26T06:51:41.000Z</Time>
            <Position>
              <LatitudeDegrees>42.92531962506473064422607421875</LatitudeDegrees>
              <LongitudeDegrees>-1.78078050725162029266357421875</LongitudeDegrees>
            </Position>
            <AltitudeMeters>518</AltitudeMeters>
            <DistanceMeters>29022.496537076</DistanceMeters>
          </Trackpoint>
          <Trackpoint>
            <Time>2018-08-26T06:51:42.000Z</Time>
            <Position>
              <LatitudeDegrees>42.92536170221865177154541015625</LatitudeDegrees>
              <LongitudeDegrees>-1.7807287909090518951416015625</LongitudeDegrees>
            </Position>
            <AltitudeMeters>518.4000244140625</AltitudeMeters>
            <DistanceMeters>29028.797030394</DistanceMeters>
          </Trackpoint>
          <Trackpoint>
            <Time>2018-08-26T06:51:43.000Z</Time>
            <Position>
              <LatitudeDegrees>42.92540344409644603729248046875</LatitudeDegrees>
              <LongitudeDegrees>-1.780677996575832366943359375</LongitudeDegrees>
            </Position>
            <AltitudeMeters>518.5999755859375</AltitudeMeters>
            <DistanceMeters>29035.019647833</DistanceMeters>
          </Trackpoint>
          <Trackpoint>
            <Time>2018-08-26T06:51:44.000Z</Time>
            <Position>
              <LatitudeDegrees>42.925444431602954864501953125</LatitudeDegrees>
              <LongitudeDegrees>-1.78062812425196170806884765625</LongitudeDegrees>
            </Position>
            <AltitudeMeters>518.79998779296875</AltitudeMeters>
            <DistanceMeters>29041.128764458</DistanceMeters>
          </Trackpoint>
          <Trackpoint>
            <Time>2018-08-26T06:51:45.000Z</Time>
            <Position>
              <LatitudeDegrees>42.9254844971001148223876953125</LatitudeDegrees>
              <LongitudeDegrees>-1.780576743185520172119140625</LongitudeDegrees>
            </Position>
            <AltitudeMeters>519.20001220703125</AltitudeMeters>
            <DistanceMeters>29047.246005403</DistanceMeters>
          </Trackpoint>
          <Trackpoint>
            <Time>2018-08-26T06:51:46.000Z</Time>
            <Position>
              <LatitudeDegrees>42.92552330531179904937744140625</LatitudeDegrees>
              <LongitudeDegrees>-1.7805242724716663360595703125</LongitudeDegrees>
            </Position>
            <AltitudeMeters>519.4000244140625</AltitudeMeters>
            <DistanceMeters>29053.324002008</DistanceMeters>
          </Trackpoint>
          <Trackpoint>
            <Time>2018-08-26T06:51:47.000Z</Time>
            <Position>
              <LatitudeDegrees>42.9255616106092929840087890625</LatitudeDegrees>
              <LongitudeDegrees>-1.78047087974846363067626953125</LongitudeDegrees>
            </Position>
            <AltitudeMeters>519.79998779296875</AltitudeMeters>
            <DistanceMeters>29059.416096409</DistanceMeters>
          </Trackpoint>
          <Trackpoint>
            <Time>2018-08-26T06:51:48.000Z</Time>
            <Position>
              <LatitudeDegrees>42.92560008354485034942626953125</LatitudeDegrees>
              <LongitudeDegrees>-1.78041472099721431732177734375</LongitudeDegrees>
            </Position>
            <AltitudeMeters>520</AltitudeMeters>
            <DistanceMeters>29065.683538673</DistanceMeters>
          </Trackpoint>
          <Trackpoint>
            <Time>2018-08-26T06:51:49.000Z</Time>
            <Position>
              <LatitudeDegrees>42.92563386261463165283203125</LatitudeDegrees>
              <LongitudeDegrees>-1.7803566344082355499267578125</LongitudeDegrees>
            </Position>
            <AltitudeMeters>520.4000244140625</AltitudeMeters>
            <DistanceMeters>29071.728761528</DistanceMeters>
          </Trackpoint>
          <Trackpoint>
            <Time>2018-08-26T06:51:50.000Z</Time>
            <Position>
              <LatitudeDegrees>42.92566202580928802490234375</LatitudeDegrees>
              <LongitudeDegrees>-1.7802929319441318511962890625</LongitudeDegrees>
            </Position>
            <AltitudeMeters>520.5999755859375</AltitudeMeters>
            <DistanceMeters>29077.793372097</DistanceMeters>
          </Trackpoint>
          <Trackpoint>
            <Time>2018-08-26T06:51:51.000Z</Time>
            <Position>
              <LatitudeDegrees>42.92568189091980457305908203125</LatitudeDegrees>
              <LongitudeDegrees>-1.78022294305264949798583984375</LongitudeDegrees>
            </Position>
            <AltitudeMeters>521</AltitudeMeters>
            <DistanceMeters>29083.910613043</DistanceMeters>
          </Trackpoint>
          <Trackpoint>
            <Time>2018-08-26T06:51:52.000Z</Time>
            <Position>
              <LatitudeDegrees>42.9256893508136272430419921875</LatitudeDegrees>
              <LongitudeDegrees>-1.78014851175248622894287109375</LongitudeDegrees>
            </Position>
            <AltitudeMeters>521.20001220703125</AltitudeMeters>
            <DistanceMeters>29090.033755814</DistanceMeters>
          </Trackpoint>
          <Trackpoint>
            <Time>2018-08-26T06:51:53.000Z</Time>
            <Position>
              <LatitudeDegrees>42.9256881773471832275390625</LatitudeDegrees>
              <LongitudeDegrees>-1.78007148206233978271484375</LongitudeDegrees>
            </Position>
            <AltitudeMeters>521.4000244140625</AltitudeMeters>
            <DistanceMeters>29096.312713829</DistanceMeters>
          </Trackpoint>
          <Trackpoint>
            <Time>2018-08-26T06:51:54.000Z</Time>
            <Position>
              <LatitudeDegrees>42.92567669413983821868896484375</LatitudeDegrees>
              <LongitudeDegrees>-1.77999394945800304412841796875</LongitudeDegrees>
            </Position>
            <AltitudeMeters>521.5999755859375</AltitudeMeters>
            <DistanceMeters>29102.759840466</DistanceMeters>
          </Trackpoint>
          <Trackpoint>
            <Time>2018-08-26T06:51:55.000Z</Time>
            <Position>
              <LatitudeDegrees>42.9256601817905902862548828125</LatitudeDegrees>
              <LongitudeDegrees>-1.77991784177720546722412109375</LongitudeDegrees>
            </Position>
            <AltitudeMeters>522</AltitudeMeters>
            <DistanceMeters>29109.228640528</DistanceMeters>
          </Trackpoint>
          <Trackpoint>
            <Time>2018-08-26T06:51:56.000Z</Time>
            <Position>
              <LatitudeDegrees>42.925648279488086700439453125</LatitudeDegrees>
              <LongitudeDegrees>-1.77984005771577358245849609375</LongitudeDegrees>
            </Position>
            <AltitudeMeters>522.20001220703125</AltitudeMeters>
            <DistanceMeters>29115.704416543</DistanceMeters>
          </Trackpoint>
          <Trackpoint>
            <Time>2018-08-26T06:51:57.000Z</Time>
            <Position>
              <LatitudeDegrees>42.92565423063933849334716796875</LatitudeDegrees>
              <LongitudeDegrees>-1.77976277656853199005126953125</LongitudeDegrees>
            </Position>
            <AltitudeMeters>522.4000244140625</AltitudeMeters>
            <DistanceMeters>29122.037788439</DistanceMeters>
          </Trackpoint>
          <Trackpoint>
            <Time>2018-08-26T06:51:58.000Z</Time>
            <Position>
              <LatitudeDegrees>42.92568088509142398834228515625</LatitudeDegrees>
              <LongitudeDegrees>-1.77969069220125675201416015625</LongitudeDegrees>
            </Position>
            <AltitudeMeters>522.5999755859375</AltitudeMeters>
            <DistanceMeters>29128.618688576</DistanceMeters>
          </Trackpoint>
          <Trackpoint>
            <Time>2018-08-26T06:51:59.000Z</Time>
            <Position>
              <LatitudeDegrees>42.925726734101772308349609375</LatitudeDegrees>
              <LongitudeDegrees>-1.779637970030307769775390625</LongitudeDegrees>
            </Position>
            <AltitudeMeters>522.79998779296875</AltitudeMeters>
            <DistanceMeters>29135.289536852</DistanceMeters>
          </Trackpoint>
          <Trackpoint>
            <Time>2018-08-26T06:52:00.000Z</Time>
            <Position>
              <LatitudeDegrees>42.92578272521495819091796875</LatitudeDegrees>
              <LongitudeDegrees>-1.77961089648306369781494140625</LongitudeDegrees>
            </Position>
            <AltitudeMeters>523</AltitudeMeters>
            <DistanceMeters>29141.900555683</DistanceMeters>
          </Trackpoint>
          <Trackpoint>
            <Time>2018-08-26T06:52:01.000Z</Time>
            <Position>
              <LatitudeDegrees>42.92584332637488842010498046875</LatitudeDegrees>
              <LongitudeDegrees>-1.7796059511601924896240234375</LongitudeDegrees>
            </Position>
            <AltitudeMeters>523</AltitudeMeters>
            <DistanceMeters>29148.657482981</DistanceMeters>
          </Trackpoint>
          <Trackpoint>
            <Time>2018-08-26T06:52:02.000Z</Time>
            <Position>
              <LatitudeDegrees>42.925904095172882080078125</LatitudeDegrees>
              <LongitudeDegrees>-1.77961039356887340545654296875</LongitudeDegrees>
            </Position>
            <AltitudeMeters>523.20001220703125</AltitudeMeters>
            <DistanceMeters>29155.430428303</DistanceMeters>
          </Trackpoint>
          <Trackpoint>
            <Time>2018-08-26T06:52:03.000Z</Time>
            <Position>
              <LatitudeDegrees>42.92596402578055858612060546875</LatitudeDegrees>
              <LongitudeDegrees>-1.7796175181865692138671875</LongitudeDegrees>
            </Position>
            <AltitudeMeters>523.20001220703125</AltitudeMeters>
            <DistanceMeters>29162.126946773</DistanceMeters>
          </Trackpoint>
          <Trackpoint>
            <Time>2018-08-26T06:52:04.000Z</Time>
            <Position>
              <LatitudeDegrees>42.926025129854679107666015625</LatitudeDegrees>
              <LongitudeDegrees>-1.7796217091381549835205078125</LongitudeDegrees>
            </Position>
            <AltitudeMeters>523.20001220703125</AltitudeMeters>
            <DistanceMeters>29168.937120972</DistanceMeters>
          </Trackpoint>
          <Trackpoint>
            <Time>2018-08-26T06:52:05.000Z</Time>
            <Position>
              <LatitudeDegrees>42.92608690448105335235595703125</LatitudeDegrees>
              <LongitudeDegrees>-1.77961927838623523712158203125</LongitudeDegrees>
            </Position>
            <AltitudeMeters>523.20001220703125</AltitudeMeters>
            <DistanceMeters>29175.815899974</DistanceMeters>
          </Trackpoint>
          <Trackpoint>
            <Time>2018-08-26T06:52:06.000Z</Time>
            <Position>
              <LatitudeDegrees>42.926147170364856719970703125</LatitudeDegrees>
              <LongitudeDegrees>-1.77960704080760478973388671875</LongitudeDegrees>
            </Position>
            <AltitudeMeters>523.20001220703125</AltitudeMeters>
            <DistanceMeters>29182.596840119</DistanceMeters>
          </Trackpoint>
          <Trackpoint>
            <Time>2018-08-26T06:52:07.000Z</Time>
            <Position>
              <LatitudeDegrees>42.92620626278221607208251953125</LatitudeDegrees>
              <LongitudeDegrees>-1.77958608604967594146728515625</LongitudeDegrees>
            </Position>
            <AltitudeMeters>523.20001220703125</AltitudeMeters>
            <DistanceMeters>29189.392413012</DistanceMeters>
          </Trackpoint>
          <Trackpoint>
            <Time>2018-08-26T06:52:08.000Z</Time>
            <Position>
              <LatitudeDegrees>42.926263511180877685546875</LatitudeDegrees>
              <LongitudeDegrees>-1.7795536480844020843505859375</LongitudeDegrees>
            </Position>
            <AltitudeMeters>523.4000244140625</AltitudeMeters>
            <DistanceMeters>29196.291509542</DistanceMeters>
          </Trackpoint>
          <Trackpoint>
            <Time>2018-08-26T06:52:09.000Z</Time>
            <Position>
              <LatitudeDegrees>42.92631673626601696014404296875</LatitudeDegrees>
              <LongitudeDegrees>-1.77951215766370296478271484375</LongitudeDegrees>
            </Position>
            <AltitudeMeters>523.4000244140625</AltitudeMeters>
            <DistanceMeters>29203.112945162</DistanceMeters>
          </Trackpoint>
          <Trackpoint>
            <Time>2018-08-26T06:52:10.000Z</Time>
            <Position>
              <LatitudeDegrees>42.9263672791421413421630859375</LatitudeDegrees>
              <LongitudeDegrees>-1.77946639247238636016845703125</LongitudeDegrees>
            </Position>
            <AltitudeMeters>523.4000244140625</AltitudeMeters>
            <DistanceMeters>29209.86251816</DistanceMeters>
          </Trackpoint>
          <Trackpoint>
            <Time>2018-08-26T06:52:11.000Z</Time>
            <Position>
              <LatitudeDegrees>42.92641513980925083160400390625</LatitudeDegrees>
              <LongitudeDegrees>-1.7794168554246425628662109375</LongitudeDegrees>
            </Position>
            <AltitudeMeters>523.4000244140625</AltitudeMeters>
            <DistanceMeters>29216.546889353</DistanceMeters>
          </Trackpoint>
          <Trackpoint>
            <Time>2018-08-26T06:52:12.000Z</Time>
            <Position>
              <LatitudeDegrees>42.926460988819599151611328125</LatitudeDegrees>
              <LongitudeDegrees>-1.77936413325369358062744140625</LongitudeDegrees>
            </Position>
            <AltitudeMeters>523.79998779296875</AltitudeMeters>
            <DistanceMeters>29223.217737629</DistanceMeters>
          </Trackpoint>
          <Trackpoint>
            <Time>2018-08-26T06:52:13.000Z</Time>
            <Position>
              <LatitudeDegrees>42.92650583200156688690185546875</LatitudeDegrees>
              <LongitudeDegrees>-1.77930864505469799041748046875</LongitudeDegrees>
            </Position>
            <AltitudeMeters>524</AltitudeMeters>
            <DistanceMeters>29229.952577937</DistanceMeters>
          </Trackpoint>
          <Trackpoint>
            <Time>2018-08-26T06:52:14.000Z</Time>
            <Position>
              <LatitudeDegrees>42.9265496693551540374755859375</LatitudeDegrees>
              <LongitudeDegrees>-1.77925248630344867706298828125</LongitudeDegrees>
            </Position>
            <AltitudeMeters>524.4000244140625</AltitudeMeters>
            <DistanceMeters>29236.642350643</DistanceMeters>
          </Trackpoint>
          <Trackpoint>
            <Time>2018-08-26T06:52:15.000Z</Time>
            <Position>
              <LatitudeDegrees>42.92659283615648746490478515625</LatitudeDegrees>
              <LongitudeDegrees>-1.77919582463800907135009765625</LongitudeDegrees>
            </Position>
            <AltitudeMeters>524.5999755859375</AltitudeMeters>
            <DistanceMeters>29243.305071994</DistanceMeters>
          </Trackpoint>
          <Trackpoint>
            <Time>2018-08-26T06:52:16.000Z</Time>
            <Position>
              <LatitudeDegrees>42.92663692496716976165771484375</LatitudeDegrees>
              <LongitudeDegrees>-1.7791392467916011810302734375</LongitudeDegrees>
            </Position>
            <AltitudeMeters>524.79998779296875</AltitudeMeters>
            <DistanceMeters>29250.037900801</DistanceMeters>
          </Trackpoint>
          <Trackpoint>
            <Time>2018-08-26T06:52:17.000Z</Time>
            <Position>
              <LatitudeDegrees>42.9266817681491374969482421875</LatitudeDegrees>
              <LongitudeDegrees>-1.77908266894519329071044921875</LongitudeDegrees>
            </Position>
            <AltitudeMeters>525.20001220703125</AltitudeMeters>
            <DistanceMeters>29256.832144746</DistanceMeters>
          </Trackpoint>
          <Trackpoint>
            <Time>2018-08-26T06:52:18.000Z</Time>
            <Position>
              <LatitudeDegrees>42.92672694660723209381103515625</LatitudeDegrees>
              <LongitudeDegrees>-1.7790262587368488311767578125</LongitudeDegrees>
            </Position>
            <AltitudeMeters>525.20001220703125</AltitudeMeters>
            <DistanceMeters>29263.644970365</DistanceMeters>
          </Trackpoint>
          <Trackpoint>
            <Time>2018-08-26T06:52:19.000Z</Time>
            <Position>
              <LatitudeDegrees>42.9267729632556438446044921875</LatitudeDegrees>
              <LongitudeDegrees>-1.77897001616656780242919921875</LongitudeDegrees>
            </Position>
            <AltitudeMeters>525.4000244140625</AltitudeMeters>
            <DistanceMeters>29270.518496386</DistanceMeters>
          </Trackpoint>
          <Trackpoint>
            <Time>2018-08-26T06:52:20.000Z</Time>
            <Position>
              <LatitudeDegrees>42.926819734275341033935546875</LatitudeDegrees>
              <LongitudeDegrees>-1.77891503088176250457763671875</LongitudeDegrees>
            </Position>
            <AltitudeMeters>525.5999755859375</AltitudeMeters>
            <DistanceMeters>29277.387422752</DistanceMeters>
          </Trackpoint>
          <Trackpoint>
            <Time>2018-08-26T06:52:21.000Z</Time>
            <Position>
              <LatitudeDegrees>42.926866002380847930908203125</LatitudeDegrees>
              <LongitudeDegrees>-1.77886180579662322998046875</LongitudeDegrees>
            </Position>
            <AltitudeMeters>525.79998779296875</AltitudeMeters>
            <DistanceMeters>29284.120251559</DistanceMeters>
          </Trackpoint>
          <Trackpoint>
            <Time>2018-08-26T06:52:22.000Z</Time>
            <Position>
              <LatitudeDegrees>42.92691201902925968170166015625</LatitudeDegrees>
              <LongitudeDegrees>-1.77880740724503993988037109375</LongitudeDegrees>
            </Position>
            <AltitudeMeters>526</AltitudeMeters>
            <DistanceMeters>29290.894530007</DistanceMeters>
          </Trackpoint>
          <Trackpoint>
            <Time>2018-08-26T06:52:23.000Z</Time>
            <Position>
              <LatitudeDegrees>42.926957197487354278564453125</LatitudeDegrees>
              <LongitudeDegrees>-1.7787503264844417572021484375</LongitudeDegrees>
            </Position>
            <AltitudeMeters>526</AltitudeMeters>
            <DistanceMeters>29297.744367757</DistanceMeters>
          </Trackpoint>
          <Trackpoint>
            <Time>2018-08-26T06:52:24.000Z</Time>
            <Position>
              <LatitudeDegrees>42.9270009510219097137451171875</LatitudeDegrees>
              <LongitudeDegrees>-1.77869324572384357452392578125</LongitudeDegrees>
            </Position>
            <AltitudeMeters>526.20001220703125</AltitudeMeters>
            <DistanceMeters>29304.479208065</DistanceMeters>
          </Trackpoint>
          <Trackpoint>
            <Time>2018-08-26T06:52:25.000Z</Time>
            <Position>
              <LatitudeDegrees>42.92704478837549686431884765625</LatitudeDegrees>
              <LongitudeDegrees>-1.77863809280097484588623046875</LongitudeDegrees>
            </Position>
            <AltitudeMeters>526.20001220703125</AltitudeMeters>
            <DistanceMeters>29311.1120455</DistanceMeters>
          </Trackpoint>
          <Trackpoint>
            <Time>2018-08-26T06:52:26.000Z</Time>
            <Position>
              <LatitudeDegrees>42.92708921246230602264404296875</LatitudeDegrees>
              <LongitudeDegrees>-1.778583861887454986572265625</LongitudeDegrees>
            </Position>
            <AltitudeMeters>526.4000244140625</AltitudeMeters>
            <DistanceMeters>29317.743521375</DistanceMeters>
          </Trackpoint>
          <Trackpoint>
            <Time>2018-08-26T06:52:27.000Z</Time>
            <Position>
              <LatitudeDegrees>42.92713413946330547332763671875</LatitudeDegrees>
              <LongitudeDegrees>-1.77852963097393512725830078125</LongitudeDegrees>
            </Position>
            <AltitudeMeters>526.5999755859375</AltitudeMeters>
            <DistanceMeters>29324.417076426</DistanceMeters>
          </Trackpoint>
          <Trackpoint>
            <Time>2018-08-26T06:52:28.000Z</Time>
            <Position>
              <LatitudeDegrees>42.92717856355011463165283203125</LatitudeDegrees>
              <LongitudeDegrees>-1.778475232422351837158203125</LongitudeDegrees>
            </Position>
            <AltitudeMeters>526.79998779296875</AltitudeMeters>
            <DistanceMeters>29331.058077356</DistanceMeters>
          </Trackpoint>
          <Trackpoint>
            <Time>2018-08-26T06:52:29.000Z</Time>
            <Position>
              <LatitudeDegrees>42.9272222332656383514404296875</LatitudeDegrees>
              <LongitudeDegrees>-1.7784212529659271240234375</LongitudeDegrees>
            </Position>
            <AltitudeMeters>527</AltitudeMeters>
            <DistanceMeters>29337.612854524</DistanceMeters>
          </Trackpoint>
          <Trackpoint>
            <Time>2018-08-26T06:52:30.000Z</Time>
            <Position>
              <LatitudeDegrees>42.92726573534309864044189453125</LatitudeDegrees>
              <LongitudeDegrees>-1.7783684469759464263916015625</LongitudeDegrees>
            </Position>
            <AltitudeMeters>527</AltitudeMeters>
            <DistanceMeters>29344.090721861</DistanceMeters>
          </Trackpoint>
          <Trackpoint>
            <Time>2018-08-26T06:52:31.000Z</Time>
            <Position>
              <LatitudeDegrees>42.92730881832540035247802734375</LatitudeDegrees>
              <LongitudeDegrees>-1.77831555716693401336669921875</LongitudeDegrees>
            </Position>
            <AltitudeMeters>527.20001220703125</AltitudeMeters>
            <DistanceMeters>29350.538548778</DistanceMeters>
          </Trackpoint>
          <Trackpoint>
            <Time>2018-08-26T06:52:32.000Z</Time>
            <Position>
              <LatitudeDegrees>42.92735123075544834136962890625</LatitudeDegrees>
              <LongitudeDegrees>-1.7782608233392238616943359375</LongitudeDegrees>
            </Position>
            <AltitudeMeters>527.20001220703125</AltitudeMeters>
            <DistanceMeters>29357.033817606</DistanceMeters>
          </Trackpoint>
          <Trackpoint>
            <Time>2018-08-26T06:52:33.000Z</Time>
            <Position>
              <LatitudeDegrees>42.92739230208098888397216796875</LatitudeDegrees>
              <LongitudeDegrees>-1.7782041616737842559814453125</LongitudeDegrees>
            </Position>
            <AltitudeMeters>527.4000244140625</AltitudeMeters>
            <DistanceMeters>29363.530476539</DistanceMeters>
          </Trackpoint>
          <Trackpoint>
            <Time>2018-08-26T06:52:34.000Z</Time>
            <Position>
              <LatitudeDegrees>42.9274307750165462493896484375</LatitudeDegrees>
              <LongitudeDegrees>-1.77814356051385402679443359375</LongitudeDegrees>
            </Position>
            <AltitudeMeters>527.5999755859375</AltitudeMeters>
            <DistanceMeters>29370.067319946</DistanceMeters>
          </Trackpoint>
          <Trackpoint>
            <Time>2018-08-26T06:52:35.000Z</Time>
            <Position>
              <LatitudeDegrees>42.927463464438915252685546875</LatitudeDegrees>
              <LongitudeDegrees>-1.778075583279132843017578125</LongitudeDegrees>
            </Position>
            <AltitudeMeters>527.79998779296875</AltitudeMeters>
            <DistanceMeters>29376.695390699</DistanceMeters>
          </Trackpoint>
          <Trackpoint>
            <Time>2018-08-26T06:52:36.000Z</Time>
            <Position>
              <LatitudeDegrees>42.92748785577714443206787109375</LatitudeDegrees>
              <LongitudeDegrees>-1.7780009843409061431884765625</LongitudeDegrees>
            </Position>
            <AltitudeMeters>527.79998779296875</AltitudeMeters>
            <DistanceMeters>29383.353366763</DistanceMeters>
          </Trackpoint>
          <Trackpoint>
            <Time>2018-08-26T06:52:37.000Z</Time>
            <Position>
              <LatitudeDegrees>42.92750059626996517181396484375</LatitudeDegrees>
              <LongitudeDegrees>-1.7779218591749668121337890625</LongitudeDegrees>
            </Position>
            <AltitudeMeters>527.79998779296875</AltitudeMeters>
            <DistanceMeters>29389.95618503</DistanceMeters>
          </Trackpoint>
          <Trackpoint>
            <Time>2018-08-26T06:52:38.000Z</Time>
            <Position>
              <LatitudeDegrees>42.927503027021884918212890625</LatitudeDegrees>
              <LongitudeDegrees>-1.7778403870761394500732421875</LongitudeDegrees>
            </Position>
            <AltitudeMeters>528</AltitudeMeters>
            <DistanceMeters>29396.601943368</DistanceMeters>
          </Trackpoint>
          <Trackpoint>
            <Time>2018-08-26T06:52:39.000Z</Time>
            <Position>
              <LatitudeDegrees>42.927496992051601409912109375</LatitudeDegrees>
              <LongitudeDegrees>-1.77776033990085124969482421875</LongitudeDegrees>
            </Position>
            <AltitudeMeters>528.20001220703125</AltitudeMeters>
            <DistanceMeters>29403.159475223</DistanceMeters>
          </Trackpoint>
          <Trackpoint>
            <Time>2018-08-26T06:52:40.000Z</Time>
            <Position>
              <LatitudeDegrees>42.92748567648231983184814453125</LatitudeDegrees>
              <LongitudeDegrees>-1.777682639658451080322265625</LongitudeDegrees>
            </Position>
            <AltitudeMeters>528.4000244140625</AltitudeMeters>
            <DistanceMeters>29409.615000204</DistanceMeters>
          </Trackpoint>
          <Trackpoint>
            <Time>2018-08-26T06:52:41.000Z</Time>
            <Position>
              <LatitudeDegrees>42.9274686612188816070556640625</LatitudeDegrees>
              <LongitudeDegrees>-1.7776087112724781036376953125</LongitudeDegrees>
            </Position>
            <AltitudeMeters>528.5999755859375</AltitudeMeters>
            <DistanceMeters>29415.92980959</DistanceMeters>
          </Trackpoint>
          <Trackpoint>
            <Time>2018-08-26T06:52:42.000Z</Time>
            <Position>
              <LatitudeDegrees>42.927450723946094512939453125</LatitudeDegrees>
              <LongitudeDegrees>-1.7775361239910125732421875</LongitudeDegrees>
            </Position>
            <AltitudeMeters>528.5999755859375</AltitudeMeters>
            <DistanceMeters>29422.172710353</DistanceMeters>
          </Trackpoint>
          <Trackpoint>
            <Time>2018-08-26T06:52:43.000Z</Time>
            <Position>
              <LatitudeDegrees>42.9274324513971805572509765625</LatitudeDegrees>
              <LongitudeDegrees>-1.77746429108083248138427734375</LongitudeDegrees>
            </Position>
            <AltitudeMeters>528.79998779296875</AltitudeMeters>
            <DistanceMeters>29428.369880281</DistanceMeters>
          </Trackpoint>
          <Trackpoint>
            <Time>2018-08-26T06:52:44.000Z</Time>
            <Position>
              <LatitudeDegrees>42.92741627432405948638916015625</LatitudeDegrees>
              <LongitudeDegrees>-1.7773934639990329742431640625</LongitudeDegrees>
            </Position>
            <AltitudeMeters>528.79998779296875</AltitudeMeters>
            <DistanceMeters>29434.415849967</DistanceMeters>
          </Trackpoint>
          <Trackpoint>
            <Time>2018-08-26T06:52:45.000Z</Time>
            <Position>
              <LatitudeDegrees>42.92740236036479473114013671875</LatitudeDegrees>
              <LongitudeDegrees>-1.77732288837432861328125</LongitudeDegrees>
            </Position>
            <AltitudeMeters>528.79998779296875</AltitudeMeters>
            <DistanceMeters>29440.371531311</DistanceMeters>
          </Trackpoint>
          <Trackpoint>
            <Time>2018-08-26T06:52:46.000Z</Time>
            <Position>
              <LatitudeDegrees>42.9273915477097034454345703125</LatitudeDegrees>
              <LongitudeDegrees>-1.77725222893059253692626953125</LongitudeDegrees>
            </Position>
            <AltitudeMeters>529</AltitudeMeters>
            <DistanceMeters>29446.25398428</DistanceMeters>
          </Trackpoint>
          <Trackpoint>
            <Time>2018-08-26T06:52:47.000Z</Time>
            <Position>
              <LatitudeDegrees>42.92738710530102252960205078125</LatitudeDegrees>
              <LongitudeDegrees>-1.77718232385814189910888671875</LongitudeDegrees>
            </Position>
            <AltitudeMeters>529</AltitudeMeters>
            <DistanceMeters>29451.972982171</DistanceMeters>
          </Trackpoint>
          <Trackpoint>
            <Time>2018-08-26T06:52:48.000Z</Time>
            <Position>
              <LatitudeDegrees>42.92738802731037139892578125</LatitudeDegrees>
              <LongitudeDegrees>-1.777109988033771514892578125</LongitudeDegrees>
            </Position>
            <AltitudeMeters>529.20001220703125</AltitudeMeters>
            <DistanceMeters>29457.868468939</DistanceMeters>
          </Trackpoint>
          <Trackpoint>
            <Time>2018-08-26T06:52:49.000Z</Time>
            <Position>
              <LatitudeDegrees>42.927395068109035491943359375</LatitudeDegrees>
              <LongitudeDegrees>-1.7770394124090671539306640625</LongitudeDegrees>
            </Position>
            <AltitudeMeters>529.4000244140625</AltitudeMeters>
            <DistanceMeters>29463.672882364</DistanceMeters>
          </Trackpoint>
          <Trackpoint>
            <Time>2018-08-26T06:52:50.000Z</Time>
            <Position>
              <LatitudeDegrees>42.9274106584489345550537109375</LatitudeDegrees>
              <LongitudeDegrees>-1.77697009406983852386474609375</LongitudeDegrees>
            </Position>
            <AltitudeMeters>529.79998779296875</AltitudeMeters>
            <DistanceMeters>29469.582902304</DistanceMeters>
          </Trackpoint>
          <Trackpoint>
            <Time>2018-08-26T06:52:51.000Z</Time>
            <Position>
              <LatitudeDegrees>42.927434630692005157470703125</LatitudeDegrees>
              <LongitudeDegrees>-1.77690337412059307098388671875</LongitudeDegrees>
            </Position>
            <AltitudeMeters>529.79998779296875</AltitudeMeters>
            <DistanceMeters>29475.639317953</DistanceMeters>
          </Trackpoint>
          <Trackpoint>
            <Time>2018-08-26T06:52:52.000Z</Time>
            <Position>
              <LatitudeDegrees>42.92746572755277156829833984375</LatitudeDegrees>
              <LongitudeDegrees>-1.7768405936658382415771484375</LongitudeDegrees>
            </Position>
            <AltitudeMeters>530</AltitudeMeters>
            <DistanceMeters>29481.816785319</DistanceMeters>
          </Trackpoint>
          <Trackpoint>
            <Time>2018-08-26T06:52:53.000Z</Time>
            <Position>
              <LatitudeDegrees>42.927507050335407257080078125</LatitudeDegrees>
              <LongitudeDegrees>-1.7767889611423015594482421875</LongitudeDegrees>
            </Position>
            <AltitudeMeters>530.4000244140625</AltitudeMeters>
            <DistanceMeters>29488.051001309</DistanceMeters>
          </Trackpoint>
          <Trackpoint>
            <Time>2018-08-26T06:52:54.000Z</Time>
            <Position>
              <LatitudeDegrees>42.92755524627864360809326171875</LatitudeDegrees>
              <LongitudeDegrees>-1.77675333805382251739501953125</LongitudeDegrees>
            </Position>
            <AltitudeMeters>530.5999755859375</AltitudeMeters>
            <DistanceMeters>29494.150502514</DistanceMeters>
          </Trackpoint>
          <Trackpoint>
            <Time>2018-08-26T06:52:55.000Z</Time>
            <Position>
              <LatitudeDegrees>42.9276072978973388671875</LatitudeDegrees>
              <LongitudeDegrees>-1.77673481404781341552734375</LongitudeDegrees>
            </Position>
            <AltitudeMeters>530.79998779296875</AltitudeMeters>
            <DistanceMeters>29500.137939652</DistanceMeters>
          </Trackpoint>
          <Trackpoint>
            <Time>2018-08-26T06:52:56.000Z</Time>
            <Position>
              <LatitudeDegrees>42.92766085825860500335693359375</LatitudeDegrees>
              <LongitudeDegrees>-1.77673020400106906890869140625</LongitudeDegrees>
            </Position>
            <AltitudeMeters>531.20001220703125</AltitudeMeters>
            <DistanceMeters>29506.111787834</DistanceMeters>
          </Trackpoint>
          <Trackpoint>
            <Time>2018-08-26T06:52:57.000Z</Time>
            <Position>
              <LatitudeDegrees>42.92771399952471256256103515625</LatitudeDegrees>
              <LongitudeDegrees>-1.7767383344471454620361328125</LongitudeDegrees>
            </Position>
            <AltitudeMeters>531.4000244140625</AltitudeMeters>
            <DistanceMeters>29512.064435982</DistanceMeters>
          </Trackpoint>
          <Trackpoint>
            <Time>2018-08-26T06:52:58.000Z</Time>
            <Position>
              <LatitudeDegrees>42.9277657158672809600830078125</LatitudeDegrees>
              <LongitudeDegrees>-1.7767581157386302947998046875</LongitudeDegrees>
            </Position>
            <AltitudeMeters>531.4000244140625</AltitudeMeters>
            <DistanceMeters>29518.042061973</DistanceMeters>
          </Trackpoint>
          <Trackpoint>
            <Time>2018-08-26T06:52:59.000Z</Time>
            <Position>
              <LatitudeDegrees>42.92781651020050048828125</LatitudeDegrees>
              <LongitudeDegrees>-1.776786111295223236083984375</LongitudeDegrees>
            </Position>
            <AltitudeMeters>531.5999755859375</AltitudeMeters>
            <DistanceMeters>29524.138601536</DistanceMeters>
          </Trackpoint>
          <Trackpoint>
            <Time>2018-08-26T06:53:00.000Z</Time>
            <Position>
              <LatitudeDegrees>42.92786671780049800872802734375</LatitudeDegrees>
              <LongitudeDegrees>-1.77681687287986278533935546875</LongitudeDegrees>
            </Position>
            <AltitudeMeters>532</AltitudeMeters>
            <DistanceMeters>29530.263218875</DistanceMeters>
          </Trackpoint>
          <Trackpoint>
            <Time>2018-08-26T06:53:01.000Z</Time>
            <Position>
              <LatitudeDegrees>42.92791801504790782928466796875</LatitudeDegrees>
              <LongitudeDegrees>-1.77684118039906024932861328125</LongitudeDegrees>
            </Position>
            <AltitudeMeters>532.20001220703125</AltitudeMeters>
            <DistanceMeters>29536.306947791</DistanceMeters>
          </Trackpoint>
          <Trackpoint>
            <Time>2018-08-26T06:53:02.000Z</Time>
            <Position>
              <LatitudeDegrees>42.9279695637524127960205078125</LatitudeDegrees>
              <LongitudeDegrees>-1.77684335969388484954833984375</LongitudeDegrees>
            </Position>
            <AltitudeMeters>532.5999755859375</AltitudeMeters>
            <DistanceMeters>29542.048008583</DistanceMeters>
          </Trackpoint>
          <Trackpoint>
            <Time>2018-08-26T06:53:03.000Z</Time>
            <Position>
              <LatitudeDegrees>42.92801658622920513153076171875</LatitudeDegrees>
              <LongitudeDegrees>-1.77681704051792621612548828125</LongitudeDegrees>
            </Position>
            <AltitudeMeters>532.5999755859375</AltitudeMeters>
            <DistanceMeters>29547.703495367</DistanceMeters>
          </Trackpoint>
          <Trackpoint>
            <Time>2018-08-26T06:53:04.000Z</Time>
            <Position>
              <LatitudeDegrees>42.92805455625057220458984375</LatitudeDegrees>
              <LongitudeDegrees>-1.77677261643111705780029296875</LongitudeDegrees>
            </Position>
            <AltitudeMeters>532.79998779296875</AltitudeMeters>
            <DistanceMeters>29553.267226314</DistanceMeters>
          </Trackpoint>
          <Trackpoint>
            <Time>2018-08-26T06:53:05.000Z</Time>
            <Position>
              <LatitudeDegrees>42.9280815459787845611572265625</LatitudeDegrees>
              <LongitudeDegrees>-1.7767162062227725982666015625</LongitudeDegrees>
            </Position>
            <AltitudeMeters>533</AltitudeMeters>
            <DistanceMeters>29558.757435342</DistanceMeters>
          </Trackpoint>
          <Trackpoint>
            <Time>2018-08-26T06:53:06.000Z</Time>
            <Position>
              <LatitudeDegrees>42.92809738777577877044677734375</LatitudeDegrees>
              <LongitudeDegrees>-1.77665510214865207672119140625</LongitudeDegrees>
            </Position>
            <AltitudeMeters>533.20001220703125</AltitudeMeters>
            <DistanceMeters>29564.039758336</DistanceMeters>
          </Trackpoint>
          <Trackpoint>
            <Time>2018-08-26T06:53:07.000Z</Time>
            <Position>
              <LatitudeDegrees>42.9281021654605865478515625</LatitudeDegrees>
              <LongitudeDegrees>-1.7765919864177703857421875</LongitudeDegrees>
            </Position>
            <AltitudeMeters>533.4000244140625</AltitudeMeters>
            <DistanceMeters>29569.211516879</DistanceMeters>
          </Trackpoint>
          <Trackpoint>
            <Time>2018-08-26T06:53:08.000Z</Time>
            <Position>
              <LatitudeDegrees>42.9280952922999858856201171875</LatitudeDegrees>
              <LongitudeDegrees>-1.77652937360107898712158203125</LongitudeDegrees>
            </Position>
            <AltitudeMeters>533.5999755859375</AltitudeMeters>
            <DistanceMeters>29574.371038694</DistanceMeters>
          </Trackpoint>
          <Trackpoint>
            <Time>2018-08-26T06:53:09.000Z</Time>
            <Position>
              <LatitudeDegrees>42.92808548547327518463134765625</LatitudeDegrees>
              <LongitudeDegrees>-1.77646650932729244232177734375</LongitudeDegrees>
            </Position>
            <AltitudeMeters>533.79998779296875</AltitudeMeters>
            <DistanceMeters>29579.609588332</DistanceMeters>
          </Trackpoint>
          <Trackpoint>
            <Time>2018-08-26T06:53:10.000Z</Time>
            <Position>
              <LatitudeDegrees>42.9280724935233592987060546875</LatitudeDegrees>
              <LongitudeDegrees>-1.776404567062854766845703125</LongitudeDegrees>
            </Position>
            <AltitudeMeters>534.20001220703125</AltitudeMeters>
            <DistanceMeters>29584.861050363</DistanceMeters>
          </Trackpoint>
          <Trackpoint>
            <Time>2018-08-26T06:53:11.000Z</Time>
            <Position>
              <LatitudeDegrees>42.9280567355453968048095703125</LatitudeDegrees>
              <LongitudeDegrees>-1.77634480409324169158935546875</LongitudeDegrees>
            </Position>
            <AltitudeMeters>534.4000244140625</AltitudeMeters>
            <DistanceMeters>29590.038044364</DistanceMeters>
          </Trackpoint>
          <Trackpoint>
            <Time>2018-08-26T06:53:12.000Z</Time>
            <Position>
              <LatitudeDegrees>42.92804139666259288787841796875</LatitudeDegrees>
              <LongitudeDegrees>-1.77628981880843639373779296875</LongitudeDegrees>
            </Position>
            <AltitudeMeters>534.5999755859375</AltitudeMeters>
            <DistanceMeters>29594.832893123</DistanceMeters>
          </Trackpoint>
          <Trackpoint>
            <Time>2018-08-26T06:53:13.000Z</Time>
            <Position>
              <LatitudeDegrees>42.92803041636943817138671875</LatitudeDegrees>
              <LongitudeDegrees>-1.77623298950493335723876953125</LongitudeDegrees>
            </Position>
            <AltitudeMeters>535</AltitudeMeters>
            <DistanceMeters>29599.623031351</DistanceMeters>
          </Trackpoint>
          <Trackpoint>
            <Time>2018-08-26T06:53:14.000Z</Time>
            <Position>
              <LatitudeDegrees>42.9280181787908077239990234375</LatitudeDegrees>
              <LongitudeDegrees>-1.77617565728724002838134765625</LongitudeDegrees>
            </Position>
            <AltitudeMeters>535.4000244140625</AltitudeMeters>
            <DistanceMeters>29604.488918777</DistanceMeters>
          </Trackpoint>
          <Trackpoint>
            <Time>2018-08-26T06:53:15.000Z</Time>
            <Position>
              <LatitudeDegrees>42.9280040971934795379638671875</LatitudeDegrees>
              <LongitudeDegrees>-1.776118911802768707275390625</LongitudeDegrees>
            </Position>
            <AltitudeMeters>535.5999755859375</AltitudeMeters>
            <DistanceMeters>29609.372404406</DistanceMeters>
          </Trackpoint>
          <Trackpoint>
            <Time>2018-08-26T06:53:16.000Z</Time>
            <Position>
              <LatitudeDegrees>42.92798892594873905181884765625</LatitudeDegrees>
              <LongitudeDegrees>-1.77606157958507537841796875</LongitudeDegrees>
            </Position>
            <AltitudeMeters>535.79998779296875</AltitudeMeters>
            <DistanceMeters>29614.340220719</DistanceMeters>
          </Trackpoint>
          <Trackpoint>
            <Time>2018-08-26T06:53:17.000Z</Time>
            <Position>
              <LatitudeDegrees>42.92797115631401538848876953125</LatitudeDegrees>
              <LongitudeDegrees>-1.77600483410060405731201171875</LongitudeDegrees>
            </Position>
            <AltitudeMeters>536.20001220703125</AltitudeMeters>
            <DistanceMeters>29619.370357317</DistanceMeters>
          </Trackpoint>
          <Trackpoint>
            <Time>2018-08-26T06:53:18.000Z</Time>
            <Position>
              <LatitudeDegrees>42.92795489542186260223388671875</LatitudeDegrees>
              <LongitudeDegrees>-1.7759470827877521514892578125</LongitudeDegrees>
            </Position>
            <AltitudeMeters>536.4000244140625</AltitudeMeters>
            <DistanceMeters>29624.413044623</DistanceMeters>
          </Trackpoint>
          <Trackpoint>
            <Time>2018-08-26T06:53:19.000Z</Time>
            <Position>
              <LatitudeDegrees>42.9279437474906444549560546875</LatitudeDegrees>
              <LongitudeDegrees>-1.775890924036502838134765625</LongitudeDegrees>
            </Position>
            <AltitudeMeters>536.79998779296875</AltitudeMeters>
            <DistanceMeters>29629.154868148</DistanceMeters>
          </Trackpoint>
          <Trackpoint>
            <Time>2018-08-26T06:53:20.000Z</Time>
            <Position>
              <LatitudeDegrees>42.92794232256710529327392578125</LatitudeDegrees>
              <LongitudeDegrees>-1.77583417855203151702880859375</LongitudeDegrees>
            </Position>
            <AltitudeMeters>537.20001220703125</AltitudeMeters>
            <DistanceMeters>29633.782971575</DistanceMeters>
          </Trackpoint>
          <Trackpoint>
            <Time>2018-08-26T06:53:21.000Z</Time>
            <Position>
              <LatitudeDegrees>42.92795740999281406402587890625</LatitudeDegrees>
              <LongitudeDegrees>-1.77577726542949676513671875</LongitudeDegrees>
            </Position>
            <AltitudeMeters>537.4000244140625</AltitudeMeters>
            <DistanceMeters>29638.716130402</DistanceMeters>
          </Trackpoint>
          <Trackpoint>
            <Time>2018-08-26T06:53:22.000Z</Time>
            <Position>
              <LatitudeDegrees>42.92798674665391445159912109375</LatitudeDegrees>
              <LongitudeDegrees>-1.77572454325854778289794921875</LongitudeDegrees>
            </Position>
            <AltitudeMeters>537.79998779296875</AltitudeMeters>
            <DistanceMeters>29644.112610415</DistanceMeters>
          </Trackpoint>
          <Trackpoint>
            <Time>2018-08-26T06:53:23.000Z</Time>
            <Position>
              <LatitudeDegrees>42.9280175082385540008544921875</LatitudeDegrees>
              <LongitudeDegrees>-1.77567861042916774749755859375</LongitudeDegrees>
            </Position>
            <AltitudeMeters>538.20001220703125</AltitudeMeters>
            <DistanceMeters>29649.185648742</DistanceMeters>
          </Trackpoint>
          <Trackpoint>
            <Time>2018-08-26T06:53:24.000Z</Time>
            <Position>
              <LatitudeDegrees>42.92805363424122333526611328125</LatitudeDegrees>
              <LongitudeDegrees>-1.775630749762058258056640625</LongitudeDegrees>
            </Position>
            <AltitudeMeters>538.5999755859375</AltitudeMeters>
            <DistanceMeters>29654.788196887</DistanceMeters>
          </Trackpoint>
          <Trackpoint>
            <Time>2018-08-26T06:53:25.000Z</Time>
            <Position>
              <LatitudeDegrees>42.92809135280549526214599609375</LatitudeDegrees>
              <LongitudeDegrees>-1.77558154799044132232666015625</LongitudeDegrees>
            </Position>
            <AltitudeMeters>538.79998779296875</AltitudeMeters>
            <DistanceMeters>29660.593388123</DistanceMeters>
          </Trackpoint>
          <Trackpoint>
            <Time>2018-08-26T06:53:26.000Z</Time>
            <Position>
              <LatitudeDegrees>42.92812957428395748138427734375</LatitudeDegrees>
              <LongitudeDegrees>-1.77553930319845676422119140625</LongitudeDegrees>
            </Position>
            <AltitudeMeters>539</AltitudeMeters>
            <DistanceMeters>29666.065474882</DistanceMeters>
          </Trackpoint>
          <Trackpoint>
            <Time>2018-08-26T06:53:27.000Z</Time>
            <Position>
              <LatitudeDegrees>42.92816829867660999298095703125</LatitudeDegrees>
              <LongitudeDegrees>-1.77550024352967739105224609375</LongitudeDegrees>
            </Position>
            <AltitudeMeters>539.20001220703125</AltitudeMeters>
            <DistanceMeters>29671.423330144</DistanceMeters>
          </Trackpoint>
          <Trackpoint>
            <Time>2018-08-26T06:53:28.000Z</Time>
            <Position>
              <LatitudeDegrees>42.92820383794605731964111328125</LatitudeDegrees>
              <LongitudeDegrees>-1.775453053414821624755859375</LongitudeDegrees>
            </Position>
            <AltitudeMeters>539.4000244140625</AltitudeMeters>
            <DistanceMeters>29676.941429253</DistanceMeters>
          </Trackpoint>
          <Trackpoint>
            <Time>2018-08-26T06:53:29.000Z</Time>
            <Position>
              <LatitudeDegrees>42.9282354377210140228271484375</LatitudeDegrees>
              <LongitudeDegrees>-1.77539748139679431915283203125</LongitudeDegrees>
            </Position>
            <AltitudeMeters>539.5999755859375</AltitudeMeters>
            <DistanceMeters>29682.67619502</DistanceMeters>
          </Trackpoint>
          <Trackpoint>
            <Time>2018-08-26T06:53:30.000Z</Time>
            <Position>
              <LatitudeDegrees>42.92826066724956035614013671875</LatitudeDegrees>
              <LongitudeDegrees>-1.77533872425556182861328125</LongitudeDegrees>
            </Position>
            <AltitudeMeters>539.79998779296875</AltitudeMeters>
            <DistanceMeters>29688.226926578</DistanceMeters>
          </Trackpoint>
          <Trackpoint>
            <Time>2018-08-26T06:53:31.000Z</Time>
            <Position>
              <LatitudeDegrees>42.92828799225389957427978515625</LatitudeDegrees>
              <LongitudeDegrees>-1.77527845837175846099853515625</LongitudeDegrees>
            </Position>
            <AltitudeMeters>540</AltitudeMeters>
            <DistanceMeters>29694.004050649</DistanceMeters>
          </Trackpoint>
          <Trackpoint>
            <Time>2018-08-26T06:53:32.000Z</Time>
            <Position>
              <LatitudeDegrees>42.928316406905651092529296875</LatitudeDegrees>
              <LongitudeDegrees>-1.7752195335924625396728515625</LongitudeDegrees>
            </Position>
            <AltitudeMeters>540.20001220703125</AltitudeMeters>
            <DistanceMeters>29699.753755847</DistanceMeters>
          </Trackpoint>
          <Trackpoint>
            <Time>2018-08-26T06:53:33.000Z</Time>
            <Position>
              <LatitudeDegrees>42.928340546786785125732421875</LatitudeDegrees>
              <LongitudeDegrees>-1.77516597323119640350341796875</LongitudeDegrees>
            </Position>
            <AltitudeMeters>540.4000244140625</AltitudeMeters>
            <DistanceMeters>29704.879916443</DistanceMeters>
          </Trackpoint>
          <Trackpoint>
            <Time>2018-08-26T06:53:34.000Z</Time>
            <Position>
              <LatitudeDegrees>42.9283623397350311279296875</LatitudeDegrees>
              <LongitudeDegrees>-1.77511434070765972137451171875</LongitudeDegrees>
            </Position>
            <AltitudeMeters>540.79998779296875</AltitudeMeters>
            <DistanceMeters>29709.736516042</DistanceMeters>
          </Trackpoint>
          <Trackpoint>
            <Time>2018-08-26T06:53:35.000Z</Time>
            <Position>
              <LatitudeDegrees>42.92838891036808490753173828125</LatitudeDegrees>
              <LongitudeDegrees>-1.77506539039313793182373046875</LongitudeDegrees>
            </Position>
            <AltitudeMeters>541</AltitudeMeters>
            <DistanceMeters>29714.701605034</DistanceMeters>
          </Trackpoint>
          <Trackpoint>
            <Time>2018-08-26T06:53:36.000Z</Time>
            <Position>
              <LatitudeDegrees>42.92841908521950244903564453125</LatitudeDegrees>
              <LongitudeDegrees>-1.77501526661217212677001953125</LongitudeDegrees>
            </Position>
            <AltitudeMeters>541.4000244140625</AltitudeMeters>
            <DistanceMeters>29719.989907857</DistanceMeters>
          </Trackpoint>
          <Trackpoint>
            <Time>2018-08-26T06:53:37.000Z</Time>
            <Position>
              <LatitudeDegrees>42.92844875715672969818115234375</LatitudeDegrees>
              <LongitudeDegrees>-1.77496346645057201385498046875</LongitudeDegrees>
            </Position>
            <AltitudeMeters>541.5999755859375</AltitudeMeters>
            <DistanceMeters>29725.348605748</DistanceMeters>
          </Trackpoint>
          <Trackpoint>
            <Time>2018-08-26T06:53:38.000Z</Time>
            <Position>
              <LatitudeDegrees>42.92848094366490840911865234375</LatitudeDegrees>
              <LongitudeDegrees>-1.7749144323170185089111328125</LongitudeDegrees>
            </Position>
            <AltitudeMeters>542</AltitudeMeters>
            <DistanceMeters>29730.714881345</DistanceMeters>
          </Trackpoint>
          <Trackpoint>
            <Time>2018-08-26T06:53:39.000Z</Time>
            <Position>
              <LatitudeDegrees>42.9285140521824359893798828125</LatitudeDegrees>
              <LongitudeDegrees>-1.7748748697340488433837890625</LongitudeDegrees>
            </Position>
            <AltitudeMeters>542.20001220703125</AltitudeMeters>
            <DistanceMeters>29735.6103714</DistanceMeters>
          </Trackpoint>
          <Trackpoint>
            <Time>2018-08-26T06:53:40.000Z</Time>
            <Position>
              <LatitudeDegrees>42.928550429642200469970703125</LatitudeDegrees>
              <LongitudeDegrees>-1.77484461106359958648681640625</LongitudeDegrees>
            </Position>
            <AltitudeMeters>542.4000244140625</AltitudeMeters>
            <DistanceMeters>29740.350290196</DistanceMeters>
          </Trackpoint>
          <Trackpoint>
            <Time>2018-08-26T06:53:41.000Z</Time>
            <Position>
              <LatitudeDegrees>42.9285878129303455352783203125</LatitudeDegrees>
              <LongitudeDegrees>-1.7748192138969898223876953125</LongitudeDegrees>
            </Position>
            <AltitudeMeters>542.5999755859375</AltitudeMeters>
            <DistanceMeters>29744.995920692</DistanceMeters>
          </Trackpoint>
          <Trackpoint>
            <Time>2018-08-26T06:53:42.000Z</Time>
            <Position>
              <LatitudeDegrees>42.9286273755133152008056640625</LatitudeDegrees>
              <LongitudeDegrees>-1.7747960798442363739013671875</LongitudeDegrees>
            </Position>
            <AltitudeMeters>543</AltitudeMeters>
            <DistanceMeters>29749.787001397</DistanceMeters>
          </Trackpoint>
          <Trackpoint>
            <Time>2018-08-26T06:53:43.000Z</Time>
            <Position>
              <LatitudeDegrees>42.92866836301982402801513671875</LatitudeDegrees>
              <LongitudeDegrees>-1.77477487362921237945556640625</LongitudeDegrees>
            </Position>
            <AltitudeMeters>543.20001220703125</AltitudeMeters>
            <DistanceMeters>29754.665862074</DistanceMeters>
          </Trackpoint>
          <Trackpoint>
            <Time>2018-08-26T06:53:44.000Z</Time>
            <Position>
              <LatitudeDegrees>42.9287115298211574554443359375</LatitudeDegrees>
              <LongitudeDegrees>-1.7747538350522518157958984375</LongitudeDegrees>
            </Position>
            <AltitudeMeters>543.20001220703125</AltitudeMeters>
            <DistanceMeters>29759.767301117</DistanceMeters>
          </Trackpoint>
          <Trackpoint>
            <Time>2018-08-26T06:53:45.000Z</Time>
            <Position>
              <LatitudeDegrees>42.92875503189861774444580078125</LatitudeDegrees>
              <LongitudeDegrees>-1.77473078481853008270263671875</LongitudeDegrees>
            </Position>
            <AltitudeMeters>543.4000244140625</AltitudeMeters>
            <DistanceMeters>29764.96083925</DistanceMeters>
          </Trackpoint>
          <Trackpoint>
            <Time>2018-08-26T06:53:46.000Z</Time>
            <Position>
              <LatitudeDegrees>42.92879811488091945648193359375</LatitudeDegrees>
              <LongitudeDegrees>-1.7747048847377300262451171875</LongitudeDegrees>
            </Position>
            <AltitudeMeters>543.4000244140625</AltitudeMeters>
            <DistanceMeters>29770.200250704</DistanceMeters>
          </Trackpoint>
          <Trackpoint>
            <Time>2018-08-26T06:53:47.000Z</Time>
            <Position>
              <LatitudeDegrees>42.92883935384452342987060546875</LatitudeDegrees>
              <LongitudeDegrees>-1.7746733687818050384521484375</LongitudeDegrees>
            </Position>
            <AltitudeMeters>543.5999755859375</AltitudeMeters>
            <DistanceMeters>29775.460303387</DistanceMeters>
          </Trackpoint>
          <Trackpoint>
            <Time>2018-08-26T06:53:48.000Z</Time>
            <Position>
              <LatitudeDegrees>42.92887791059911251068115234375</LatitudeDegrees>
              <LongitudeDegrees>-1.7746354825794696807861328125</LongitudeDegrees>
            </Position>
            <AltitudeMeters>543.5999755859375</AltitudeMeters>
            <DistanceMeters>29780.747752363</DistanceMeters>
          </Trackpoint>
          <Trackpoint>
            <Time>2018-08-26T06:53:49.000Z</Time>
            <Position>
              <LatitudeDegrees>42.9289113543927669525146484375</LatitudeDegrees>
              <LongitudeDegrees>-1.77458896301686763763427734375</LongitudeDegrees>
            </Position>
            <AltitudeMeters>544</AltitudeMeters>
            <DistanceMeters>29786.061606805</DistanceMeters>
          </Trackpoint>
          <Trackpoint>
            <Time>2018-08-26T06:53:50.000Z</Time>
            <Position>
              <LatitudeDegrees>42.92893893085420131683349609375</LatitudeDegrees>
              <LongitudeDegrees>-1.77453313954174518585205078125</LongitudeDegrees>
            </Position>
            <AltitudeMeters>544.20001220703125</AltitudeMeters>
            <DistanceMeters>29791.549348139</DistanceMeters>
          </Trackpoint>
          <Trackpoint>
            <Time>2018-08-26T06:53:51.000Z</Time>
            <Position>
              <LatitudeDegrees>42.9289566166698932647705078125</LatitudeDegrees>
              <LongitudeDegrees>-1.77446968853473663330078125</LongitudeDegrees>
            </Position>
            <AltitudeMeters>544.4000244140625</AltitudeMeters>
            <DistanceMeters>29797.082155667</DistanceMeters>
          </Trackpoint>
          <Trackpoint>
            <Time>2018-08-26T06:53:52.000Z</Time>
            <Position>
              <LatitudeDegrees>42.9289658367633819580078125</LatitudeDegrees>
              <LongitudeDegrees>-1.77440305240452289581298828125</LongitudeDegrees>
            </Position>
            <AltitudeMeters>544.4000244140625</AltitudeMeters>
            <DistanceMeters>29802.608430953</DistanceMeters>
          </Trackpoint>
          <Trackpoint>
            <Time>2018-08-26T06:53:53.000Z</Time>
            <Position>
              <LatitudeDegrees>42.92897094972431659698486328125</LatitudeDegrees>
              <LongitudeDegrees>-1.7743362486362457275390625</LongitudeDegrees>
            </Position>
            <AltitudeMeters>544.5999755859375</AltitudeMeters>
            <DistanceMeters>29808.082167669</DistanceMeters>
          </Trackpoint>
          <Trackpoint>
            <Time>2018-08-26T06:53:54.000Z</Time>
            <Position>
              <LatitudeDegrees>42.928974889218807220458984375</LatitudeDegrees>
              <LongitudeDegrees>-1.7742691934108734130859375</LongitudeDegrees>
            </Position>
            <AltitudeMeters>544.5999755859375</AltitudeMeters>
            <DistanceMeters>29813.564970281</DistanceMeters>
          </Trackpoint>
          <Trackpoint>
            <Time>2018-08-26T06:53:55.000Z</Time>
            <Position>
              <LatitudeDegrees>42.92897933162748813629150390625</LatitudeDegrees>
              <LongitudeDegrees>-1.77420255728065967559814453125</LongitudeDegrees>
            </Position>
            <AltitudeMeters>544.79998779296875</AltitudeMeters>
            <DistanceMeters>29819.018874553</DistanceMeters>
          </Trackpoint>
          <Trackpoint>
            <Time>2018-08-26T06:53:56.000Z</Time>
            <Position>
              <LatitudeDegrees>42.9289854504168033599853515625</LatitudeDegrees>
              <LongitudeDegrees>-1.77413583733141422271728515625</LongitudeDegrees>
            </Position>
            <AltitudeMeters>544.79998779296875</AltitudeMeters>
            <DistanceMeters>29824.499206135</DistanceMeters>
          </Trackpoint>
          <Trackpoint>
            <Time>2018-08-26T06:53:57.000Z</Time>
            <Position>
              <LatitudeDegrees>42.928995676338672637939453125</LatitudeDegrees>
              <LongitudeDegrees>-1.7740692012012004852294921875</LongitudeDegrees>
            </Position>
            <AltitudeMeters>545</AltitudeMeters>
            <DistanceMeters>29830.048310628</DistanceMeters>
          </Trackpoint>
          <Trackpoint>
            <Time>2018-08-26T06:53:58.000Z</Time>
            <Position>
              <LatitudeDegrees>42.9290109314024448394775390625</LatitudeDegrees>
              <LongitudeDegrees>-1.77400407381355762481689453125</LongitudeDegrees>
            </Position>
            <AltitudeMeters>545.20001220703125</AltitudeMeters>
            <DistanceMeters>29835.62177122</DistanceMeters>
          </Trackpoint>
          <Trackpoint>
            <Time>2018-08-26T06:53:59.000Z</Time>
            <Position>
              <LatitudeDegrees>42.92903222143650054931640625</LatitudeDegrees>
              <LongitudeDegrees>-1.77394305355846881866455078125</LongitudeDegrees>
            </Position>
            <AltitudeMeters>545.20001220703125</AltitudeMeters>
            <DistanceMeters>29841.130042896</DistanceMeters>
          </Trackpoint>
          <Trackpoint>
            <Time>2018-08-26T06:54:00.000Z</Time>
            <Position>
              <LatitudeDegrees>42.9290598817169666290283203125</LatitudeDegrees>
              <LongitudeDegrees>-1.77388706244528293609619140625</LongitudeDegrees>
            </Position>
            <AltitudeMeters>545.20001220703125</AltitudeMeters>
            <DistanceMeters>29846.635034862</DistanceMeters>
          </Trackpoint>
          <Trackpoint>
            <Time>2018-08-26T06:54:01.000Z</Time>
            <Position>
              <LatitudeDegrees>42.9290910623967647552490234375</LatitudeDegrees>
              <LongitudeDegrees>-1.77383626811206340789794921875</LongitudeDegrees>
            </Position>
            <AltitudeMeters>545.4000244140625</AltitudeMeters>
            <DistanceMeters>29852.037368345</DistanceMeters>
          </Trackpoint>
          <Trackpoint>
            <Time>2018-08-26T06:54:02.000Z</Time>
            <Position>
              <LatitudeDegrees>42.92912534438073635101318359375</LatitudeDegrees>
              <LongitudeDegrees>-1.773792095482349395751953125</LongitudeDegrees>
            </Position>
            <AltitudeMeters>545.4000244140625</AltitudeMeters>
            <DistanceMeters>29857.283669232</DistanceMeters>
          </Trackpoint>
          <Trackpoint>
            <Time>2018-08-26T06:54:03.000Z</Time>
            <Position>
              <LatitudeDegrees>42.92916121892631053924560546875</LatitudeDegrees>
              <LongitudeDegrees>-1.77375144325196743011474609375</LongitudeDegrees>
            </Position>
            <AltitudeMeters>545.4000244140625</AltitudeMeters>
            <DistanceMeters>29862.471118298</DistanceMeters>
          </Trackpoint>
          <Trackpoint>
            <Time>2018-08-26T06:54:04.000Z</Time>
            <Position>
              <LatitudeDegrees>42.92919742874801158905029296875</LatitudeDegrees>
              <LongitudeDegrees>-1.7737164907157421112060546875</LongitudeDegrees>
            </Position>
            <AltitudeMeters>545.5999755859375</AltitudeMeters>
            <DistanceMeters>29867.406107271</DistanceMeters>
          </Trackpoint>
          <Trackpoint>
            <Time>2018-08-26T06:54:05.000Z</Time>
            <Position>
              <LatitudeDegrees>42.9292335547506809234619140625</LatitudeDegrees>
              <LongitudeDegrees>-1.773683130741119384765625</LongitudeDegrees>
            </Position>
            <AltitudeMeters>545.79998779296875</AltitudeMeters>
            <DistanceMeters>29872.258986763</DistanceMeters>
          </Trackpoint>
          <Trackpoint>
            <Time>2018-08-26T06:54:06.000Z</Time>
            <Position>
              <LatitudeDegrees>42.92927001602947711944580078125</LatitudeDegrees>
              <LongitudeDegrees>-1.77364851348102092742919921875</LongitudeDegrees>
            </Position>
            <AltitudeMeters>545.79998779296875</AltitudeMeters>
            <DistanceMeters>29877.200375911</DistanceMeters>
          </Trackpoint>
          <Trackpoint>
            <Time>2018-08-26T06:54:07.000Z</Time>
            <Position>
              <LatitudeDegrees>42.9293066449463367462158203125</LatitudeDegrees>
              <LongitudeDegrees>-1.773615069687366485595703125</LongitudeDegrees>
            </Position>
            <AltitudeMeters>546</AltitudeMeters>
            <DistanceMeters>29882.103238696</DistanceMeters>
          </Trackpoint>
          <Trackpoint>
            <Time>2018-08-26T06:54:08.000Z</Time>
            <Position>
              <LatitudeDegrees>42.9293431900441646575927734375</LatitudeDegrees>
              <LongitudeDegrees>-1.7735837213695049285888671875</LongitudeDegrees>
            </Position>
            <AltitudeMeters>546</AltitudeMeters>
            <DistanceMeters>29886.907494663</DistanceMeters>
          </Trackpoint>
          <Trackpoint>
            <Time>2018-08-26T06:54:09.000Z</Time>
            <Position>
              <LatitudeDegrees>42.92938082478940486907958984375</LatitudeDegrees>
              <LongitudeDegrees>-1.773557402193546295166015625</LongitudeDegrees>
            </Position>
            <AltitudeMeters>546</AltitudeMeters>
            <DistanceMeters>29891.613955915</DistanceMeters>
          </Trackpoint>
          <Trackpoint>
            <Time>2018-08-26T06:54:10.000Z</Time>
            <Position>
              <LatitudeDegrees>42.929416112601757049560546875</LatitudeDegrees>
              <LongitudeDegrees>-1.773530580103397369384765625</LongitudeDegrees>
            </Position>
            <AltitudeMeters>546.4000244140625</AltitudeMeters>
            <DistanceMeters>29896.108428187</DistanceMeters>
          </Trackpoint>
          <Trackpoint>
            <Time>2018-08-26T06:54:11.000Z</Time>
            <Position>
              <LatitudeDegrees>42.9294524900615215301513671875</LatitudeDegrees>
              <LongitudeDegrees>-1.7735019139945507049560546875</LongitudeDegrees>
            </Position>
            <AltitudeMeters>546.79998779296875</AltitudeMeters>
            <DistanceMeters>29900.782158487</DistanceMeters>
          </Trackpoint>
          <Trackpoint>
            <Time>2018-08-26T06:54:12.000Z</Time>
            <Position>
              <LatitudeDegrees>42.9294861853122711181640625</LatitudeDegrees>
              <LongitudeDegrees>-1.77347014658153057098388671875</LongitudeDegrees>
            </Position>
            <AltitudeMeters>547</AltitudeMeters>
            <DistanceMeters>29905.337497735</DistanceMeters>
          </Trackpoint>
          <Trackpoint>
            <Time>2018-08-26T06:54:13.000Z</Time>
            <Position>
              <LatitudeDegrees>42.9295192100107669830322265625</LatitudeDegrees>
              <LongitudeDegrees>-1.7734365351498126983642578125</LongitudeDegrees>
            </Position>
            <AltitudeMeters>547.4000244140625</AltitudeMeters>
            <DistanceMeters>29909.920505242</DistanceMeters>
          </Trackpoint>
          <Trackpoint>
            <Time>2018-08-26T06:54:14.000Z</Time>
            <Position>
              <LatitudeDegrees>42.92954812757670879364013671875</LatitudeDegrees>
              <LongitudeDegrees>-1.7733956314623355865478515625</LongitudeDegrees>
            </Position>
            <AltitudeMeters>547.5999755859375</AltitudeMeters>
            <DistanceMeters>29914.552509304</DistanceMeters>
          </Trackpoint>
          <Trackpoint>
            <Time>2018-08-26T06:54:15.000Z</Time>
            <Position>
              <LatitudeDegrees>42.9295715130865573883056640625</LatitudeDegrees>
              <LongitudeDegrees>-1.773349530994892120361328125</LongitudeDegrees>
            </Position>
            <AltitudeMeters>547.79998779296875</AltitudeMeters>
            <DistanceMeters>29919.122691665</DistanceMeters>
          </Trackpoint>
          <Trackpoint>
            <Time>2018-08-26T06:54:16.000Z</Time>
            <Position>
              <LatitudeDegrees>42.92959037236869335174560546875</LatitudeDegrees>
              <LongitudeDegrees>-1.77329680882394313812255859375</LongitudeDegrees>
            </Position>
            <AltitudeMeters>548</AltitudeMeters>
            <DistanceMeters>29923.904339243</DistanceMeters>
          </Trackpoint>
          <Trackpoint>
            <Time>2018-08-26T06:54:17.000Z</Time>
            <Position>
              <LatitudeDegrees>42.92960361577570438385009765625</LatitudeDegrees>
              <LongitudeDegrees>-1.7732390575110912322998046875</LongitudeDegrees>
            </Position>
            <AltitudeMeters>548.4000244140625</AltitudeMeters>
            <DistanceMeters>29928.835667245</DistanceMeters>
          </Trackpoint>
          <Trackpoint>
            <Time>2018-08-26T06:54:18.000Z</Time>
            <Position>
              <LatitudeDegrees>42.9296073876321315765380859375</LatitudeDegrees>
              <LongitudeDegrees>-1.77317820489406585693359375</LongitudeDegrees>
            </Position>
            <AltitudeMeters>548.5999755859375</AltitudeMeters>
            <DistanceMeters>29933.811656555</DistanceMeters>
          </Trackpoint>
          <Trackpoint>
            <Time>2018-08-26T06:54:19.000Z</Time>
            <Position>
              <LatitudeDegrees>42.9296050406992435455322265625</LatitudeDegrees>
              <LongitudeDegrees>-1.77311374805867671966552734375</LongitudeDegrees>
            </Position>
            <AltitudeMeters>549</AltitudeMeters>
            <DistanceMeters>29939.071709237</DistanceMeters>
          </Trackpoint>
          <Trackpoint>
            <Time>2018-08-26T06:54:20.000Z</Time>
            <Position>
              <LatitudeDegrees>42.929601185023784637451171875</LatitudeDegrees>
              <LongitudeDegrees>-1.77304677665233612060546875</LongitudeDegrees>
            </Position>
            <AltitudeMeters>549.4000244140625</AltitudeMeters>
            <DistanceMeters>29944.547095415</DistanceMeters>
          </Trackpoint>
          <Trackpoint>
            <Time>2018-08-26T06:54:21.000Z</Time>
            <Position>
              <LatitudeDegrees>42.9295959882438182830810546875</LatitudeDegrees>
              <LongitudeDegrees>-1.77297829650342464447021484375</LongitudeDegrees>
            </Position>
            <AltitudeMeters>549.79998779296875</AltitudeMeters>
            <DistanceMeters>29950.157696674</DistanceMeters>
          </Trackpoint>
          <Trackpoint>
            <Time>2018-08-26T06:54:22.000Z</Time>
            <Position>
              <LatitudeDegrees>42.92959070764482021331787109375</LatitudeDegrees>
              <LongitudeDegrees>-1.7729104869067668914794921875</LongitudeDegrees>
            </Position>
            <AltitudeMeters>550.20001220703125</AltitudeMeters>
            <DistanceMeters>29955.714931727</DistanceMeters>
          </Trackpoint>
          <Trackpoint>
            <Time>2018-08-26T06:54:23.000Z</Time>
            <Position>
              <LatitudeDegrees>42.92958634905517101287841796875</LatitudeDegrees>
              <LongitudeDegrees>-1.77284200675785541534423828125</LongitudeDegrees>
            </Position>
            <AltitudeMeters>550.4000244140625</AltitudeMeters>
            <DistanceMeters>29961.31586786</DistanceMeters>
          </Trackpoint>
          <Trackpoint>
            <Time>2018-08-26T06:54:24.000Z</Time>
            <Position>
              <LatitudeDegrees>42.9295819066464900970458984375</LatitudeDegrees>
              <LongitudeDegrees>-1.77277226932346820831298828125</LongitudeDegrees>
            </Position>
            <AltitudeMeters>550.5999755859375</AltitudeMeters>
            <DistanceMeters>29967.0206374</DistanceMeters>
          </Trackpoint>
          <Trackpoint>
            <Time>2018-08-26T06:54:25.000Z</Time>
            <Position>
              <LatitudeDegrees>42.92957746423780918121337890625</LatitudeDegrees>
              <LongitudeDegrees>-1.77270269952714443206787109375</LongitudeDegrees>
            </Position>
            <AltitudeMeters>550.5999755859375</AltitudeMeters>
            <DistanceMeters>29972.712729659</DistanceMeters>
          </Trackpoint>
          <Trackpoint>
            <Time>2018-08-26T06:54:26.000Z</Time>
            <Position>
              <LatitudeDegrees>42.9295725189149379730224609375</LatitudeDegrees>
              <LongitudeDegrees>-1.77263329736888408660888671875</LongitudeDegrees>
            </Position>
            <AltitudeMeters>550.79998779296875</AltitudeMeters>
            <DistanceMeters>29978.396089883</DistanceMeters>
          </Trackpoint>
          <Trackpoint>
            <Time>2018-08-26T06:54:27.000Z</Time>
            <Position>
              <LatitudeDegrees>42.92956757359206676483154296875</LatitudeDegrees>
              <LongitudeDegrees>-1.7725631408393383026123046875</LongitudeDegrees>
            </Position>
            <AltitudeMeters>551</AltitudeMeters>
            <DistanceMeters>29984.140295601</DistanceMeters>
          </Trackpoint>
          <Trackpoint>
            <Time>2018-08-26T06:54:28.000Z</Time>
            <Position>
              <LatitudeDegrees>42.92956237681210041046142578125</LatitudeDegrees>
              <LongitudeDegrees>-1.772494576871395111083984375</LongitudeDegrees>
            </Position>
            <AltitudeMeters>551</AltitudeMeters>
            <DistanceMeters>29989.758134791</DistanceMeters>
          </Trackpoint>
          <Trackpoint>
            <Time>2018-08-26T06:54:29.000Z</Time>
            <Position>
              <LatitudeDegrees>42.92955768294632434844970703125</LatitudeDegrees>
              <LongitudeDegrees>-1.7724256776273250579833984375</LongitudeDegrees>
            </Position>
            <AltitudeMeters>551</AltitudeMeters>
            <DistanceMeters>29995.397632041</DistanceMeters>
          </Trackpoint>
          <Trackpoint>
            <Time>2018-08-26T06:54:30.000Z</Time>
            <Position>
              <LatitudeDegrees>42.92955365963280200958251953125</LatitudeDegrees>
              <LongitudeDegrees>-1.77235652692615985870361328125</LongitudeDegrees>
            </Position>
            <AltitudeMeters>551.20001220703125</AltitudeMeters>
            <DistanceMeters>30001.051521907</DistanceMeters>
          </Trackpoint>
          <Trackpoint>
            <Time>2018-08-26T06:54:31.000Z</Time>
            <Position>
              <LatitudeDegrees>42.92954896576702594757080078125</LatitudeDegrees>
              <LongitudeDegrees>-1.7722888849675655364990234375</LongitudeDegrees>
            </Position>
            <AltitudeMeters>551.4000244140625</AltitudeMeters>
            <DistanceMeters>30006.588408173</DistanceMeters>
          </Trackpoint>
          <Trackpoint>
            <Time>2018-08-26T06:54:32.000Z</Time>
            <Position>
              <LatitudeDegrees>42.9295440204441547393798828125</LatitudeDegrees>
              <LongitudeDegrees>-1.77222224883735179901123046875</LongitudeDegrees>
            </Position>
            <AltitudeMeters>551.5999755859375</AltitudeMeters>
            <DistanceMeters>30012.046450147</DistanceMeters>
          </Trackpoint>
          <Trackpoint>
            <Time>2018-08-26T06:54:33.000Z</Time>
            <Position>
              <LatitudeDegrees>42.929538823664188385009765625</LatitudeDegrees>
              <LongitudeDegrees>-1.7721564508974552154541015625</LongitudeDegrees>
            </Position>
            <AltitudeMeters>551.79998779296875</AltitudeMeters>
            <DistanceMeters>30017.43874522</DistanceMeters>
          </Trackpoint>
          <Trackpoint>
            <Time>2018-08-26T06:54:34.000Z</Time>
            <Position>
              <LatitudeDegrees>42.9295336268842220306396484375</LatitudeDegrees>
              <LongitudeDegrees>-1.772090904414653778076171875</LongitudeDegrees>
            </Position>
            <AltitudeMeters>552</AltitudeMeters>
            <DistanceMeters>30022.811747583</DistanceMeters>
          </Trackpoint>
          <Trackpoint>
            <Time>2018-08-26T06:54:35.000Z</Time>
            <Position>
              <LatitudeDegrees>42.92952918447554111480712890625</LatitudeDegrees>
              <LongitudeDegrees>-1.7720253579318523406982421875</LongitudeDegrees>
            </Position>
            <AltitudeMeters>552.20001220703125</AltitudeMeters>
            <DistanceMeters>30028.175498467</DistanceMeters>
          </Trackpoint>
          <Trackpoint>
            <Time>2018-08-26T06:54:36.000Z</Time>
            <Position>
              <LatitudeDegrees>42.92952499352395534515380859375</LatitudeDegrees>
              <LongitudeDegrees>-1.77196039818227291107177734375</LongitudeDegrees>
            </Position>
            <AltitudeMeters>552.4000244140625</AltitudeMeters>
            <DistanceMeters>30033.490202515</DistanceMeters>
          </Trackpoint>
          <Trackpoint>
            <Time>2018-08-26T06:54:37.000Z</Time>
            <Position>
              <LatitudeDegrees>42.9295212216675281524658203125</LatitudeDegrees>
              <LongitudeDegrees>-1.7718952707946300506591796875</LongitudeDegrees>
            </Position>
            <AltitudeMeters>552.79998779296875</AltitudeMeters>
            <DistanceMeters>30038.815091249</DistanceMeters>
          </Trackpoint>
          <Trackpoint>
            <Time>2018-08-26T06:54:38.000Z</Time>
            <Position>
              <LatitudeDegrees>42.92951845563948154449462890625</LatitudeDegrees>
              <LongitudeDegrees>-1.7718319036066532135009765625</LongitudeDegrees>
            </Position>
            <AltitudeMeters>552.79998779296875</AltitudeMeters>
            <DistanceMeters>30043.988595534</DistanceMeters>
          </Trackpoint>
          <Trackpoint>
            <Time>2018-08-26T06:54:39.000Z</Time>
            <Position>
              <LatitudeDegrees>42.92951594106853008270263671875</LatitudeDegrees>
              <LongitudeDegrees>-1.7717693746089935302734375</LongitudeDegrees>
            </Position>
            <AltitudeMeters>553</AltitudeMeters>
            <DistanceMeters>30049.091804374</DistanceMeters>
          </Trackpoint>
          <Trackpoint>
            <Time>2018-08-26T06:54:40.000Z</Time>
            <Position>
              <LatitudeDegrees>42.929513342678546905517578125</LatitudeDegrees>
              <LongitudeDegrees>-1.77170927636325359344482421875</LongitudeDegrees>
            </Position>
            <AltitudeMeters>553.20001220703125</AltitudeMeters>
            <DistanceMeters>30053.99834937</DistanceMeters>
          </Trackpoint>
          <Trackpoint>
            <Time>2018-08-26T06:54:41.000Z</Time>
            <Position>
              <LatitudeDegrees>42.929512001574039459228515625</LatitudeDegrees>
              <LongitudeDegrees>-1.77165177650749683380126953125</LongitudeDegrees>
            </Position>
            <AltitudeMeters>553.4000244140625</AltitudeMeters>
            <DistanceMeters>30058.686547965</DistanceMeters>
          </Trackpoint>
          <Trackpoint>
            <Time>2018-08-26T06:54:42.000Z</Time>
            <Position>
              <LatitudeDegrees>42.92951024137437343597412109375</LatitudeDegrees>
              <LongitudeDegrees>-1.77159570157527923583984375</LongitudeDegrees>
            </Position>
            <AltitudeMeters>553.79998779296875</AltitudeMeters>
            <DistanceMeters>30063.261667329</DistanceMeters>
          </Trackpoint>
          <Trackpoint>
            <Time>2018-08-26T06:54:43.000Z</Time>
            <Position>
              <LatitudeDegrees>42.92950605042278766632080078125</LatitudeDegrees>
              <LongitudeDegrees>-1.77153962664306163787841796875</LongitudeDegrees>
            </Position>
            <AltitudeMeters>554</AltitudeMeters>
            <DistanceMeters>30067.856481659</DistanceMeters>
          </Trackpoint>
          <Trackpoint>
            <Time>2018-08-26T06:54:44.000Z</Time>
            <Position>
              <LatitudeDegrees>42.92950102128088474273681640625</LatitudeDegrees>
              <LongitudeDegrees>-1.77148304879665374755859375</LongitudeDegrees>
            </Position>
            <AltitudeMeters>554.4000244140625</AltitudeMeters>
            <DistanceMeters>30072.502112154</DistanceMeters>
          </Trackpoint>
          <Trackpoint>
            <Time>2018-08-26T06:54:45.000Z</Time>
            <Position>
              <LatitudeDegrees>42.92949649505317211151123046875</LatitudeDegrees>
              <LongitudeDegrees>-1.77142596803605556488037109375</LongitudeDegrees>
            </Position>
            <AltitudeMeters>554.5999755859375</AltitudeMeters>
            <DistanceMeters>30077.180670191</DistanceMeters>
          </Trackpoint>
          <Trackpoint>
            <Time>2018-08-26T06:54:46.000Z</Time>
            <Position>
              <LatitudeDegrees>42.929493896663188934326171875</LatitudeDegrees>
              <LongitudeDegrees>-1.7713682167232036590576171875</LongitudeDegrees>
            </Position>
            <AltitudeMeters>554.79998779296875</AltitudeMeters>
            <DistanceMeters>30081.895757486</DistanceMeters>
          </Trackpoint>
          <Trackpoint>
            <Time>2018-08-26T06:54:47.000Z</Time>
            <Position>
              <LatitudeDegrees>42.92949230410158634185791015625</LatitudeDegrees>
              <LongitudeDegrees>-1.77131147123873233795166015625</LongitudeDegrees>
            </Position>
            <AltitudeMeters>555.20001220703125</AltitudeMeters>
            <DistanceMeters>30086.523860913</DistanceMeters>
          </Trackpoint>
          <Trackpoint>
            <Time>2018-08-26T06:54:48.000Z</Time>
            <Position>
              <LatitudeDegrees>42.92949087917804718017578125</LatitudeDegrees>
              <LongitudeDegrees>-1.77125598303973674774169921875</LongitudeDegrees>
            </Position>
            <AltitudeMeters>555.20001220703125</AltitudeMeters>
            <DistanceMeters>30091.049367887</DistanceMeters>
          </Trackpoint>
          <Trackpoint>
            <Time>2018-08-26T06:54:49.000Z</Time>
            <Position>
              <LatitudeDegrees>42.92948878370225429534912109375</LatitudeDegrees>
              <LongitudeDegrees>-1.77120007574558258056640625</LongitudeDegrees>
            </Position>
            <AltitudeMeters>555.5999755859375</AltitudeMeters>
            <DistanceMeters>30095.612629471</DistanceMeters>
          </Trackpoint>
          <Trackpoint>
            <Time>2018-08-26T06:54:50.000Z</Time>
            <Position>
              <LatitudeDegrees>42.9294853471219539642333984375</LatitudeDegrees>
              <LongitudeDegrees>-1.77114349789917469024658203125</LongitudeDegrees>
            </Position>
            <AltitudeMeters>555.79998779296875</AltitudeMeters>
            <DistanceMeters>30100.238781346</DistanceMeters>
          </Trackpoint>
          <Trackpoint>
            <Time>2018-08-26T06:54:51.000Z</Time>
            <Position>
              <LatitudeDegrees>42.92948073707520961761474609375</LatitudeDegrees>
              <LongitudeDegrees>-1.7710862495005130767822265625</LongitudeDegrees>
            </Position>
            <AltitudeMeters>555.79998779296875</AltitudeMeters>
            <DistanceMeters>30104.931792793</DistanceMeters>
          </Trackpoint>
          <Trackpoint>
            <Time>2018-08-26T06:54:52.000Z</Time>
            <Position>
              <LatitudeDegrees>42.92947637848556041717529296875</LatitudeDegrees>
              <LongitudeDegrees>-1.7710285820066928863525390625</LongitudeDegrees>
            </Position>
            <AltitudeMeters>556</AltitudeMeters>
            <DistanceMeters>30109.657401648</DistanceMeters>
          </Trackpoint>
          <Trackpoint>
            <Time>2018-08-26T06:54:53.000Z</Time>
            <Position>
              <LatitudeDegrees>42.9294722713530063629150390625</LatitudeDegrees>
              <LongitudeDegrees>-1.770971082150936126708984375</LongitudeDegrees>
            </Position>
            <AltitudeMeters>556.20001220703125</AltitudeMeters>
            <DistanceMeters>30114.365781164</DistanceMeters>
          </Trackpoint>
          <Trackpoint>
            <Time>2018-08-26T06:54:54.000Z</Time>
            <Position>
              <LatitudeDegrees>42.92946849949657917022705078125</LatitudeDegrees>
              <LongitudeDegrees>-1.77091442048549652099609375</LongitudeDegrees>
            </Position>
            <AltitudeMeters>556.4000244140625</AltitudeMeters>
            <DistanceMeters>30119.00168258</DistanceMeters>
          </Trackpoint>
          <Trackpoint>
            <Time>2018-08-26T06:54:55.000Z</Time>
            <Position>
              <LatitudeDegrees>42.9294647276401519775390625</LatitudeDegrees>
              <LongitudeDegrees>-1.77085750736296176910400390625</LongitudeDegrees>
            </Position>
            <AltitudeMeters>556.5999755859375</AltitudeMeters>
            <DistanceMeters>30123.657991584</DistanceMeters>
          </Trackpoint>
          <Trackpoint>
            <Time>2018-08-26T06:54:56.000Z</Time>
            <Position>
              <LatitudeDegrees>42.92946095578372478485107421875</LatitudeDegrees>
              <LongitudeDegrees>-1.77080051042139530181884765625</LongitudeDegrees>
            </Position>
            <AltitudeMeters>557</AltitudeMeters>
            <DistanceMeters>30128.321083271</DistanceMeters>
          </Trackpoint>
          <Trackpoint>
            <Time>2018-08-26T06:54:57.000Z</Time>
            <Position>
              <LatitudeDegrees>42.929459027945995330810546875</LatitudeDegrees>
              <LongitudeDegrees>-1.77074552513659000396728515625</LongitudeDegrees>
            </Position>
            <AltitudeMeters>557.20001220703125</AltitudeMeters>
            <DistanceMeters>30132.807511738</DistanceMeters>
          </Trackpoint>
          <Trackpoint>
            <Time>2018-08-26T06:54:58.000Z</Time>
            <Position>
              <LatitudeDegrees>42.9294568486511707305908203125</LatitudeDegrees>
              <LongitudeDegrees>-1.77068936638534069061279296875</LongitudeDegrees>
            </Position>
            <AltitudeMeters>557.20001220703125</AltitudeMeters>
            <DistanceMeters>30137.390519245</DistanceMeters>
          </Trackpoint>
          <Trackpoint>
            <Time>2018-08-26T06:54:59.000Z</Time>
            <Position>
              <LatitudeDegrees>42.9294538311660289764404296875</LatitudeDegrees>
              <LongitudeDegrees>-1.77063220180571079254150390625</LongitudeDegrees>
            </Position>
            <AltitudeMeters>557.5999755859375</AltitudeMeters>
            <DistanceMeters>30142.061350508</DistanceMeters>
          </Trackpoint>
          <Trackpoint>
            <Time>2018-08-26T06:55:00.000Z</Time>
            <Position>
              <LatitudeDegrees>42.92945005930960178375244140625</LatitudeDegrees>
              <LongitudeDegrees>-1.7705749534070491790771484375</LongitudeDegrees>
            </Position>
            <AltitudeMeters>557.79998779296875</AltitudeMeters>
            <DistanceMeters>30146.744731304</DistanceMeters>
          </Trackpoint>
          <Trackpoint>
            <Time>2018-08-26T06:55:01.000Z</Time>
            <Position>
              <LatitudeDegrees>42.9294461198151111602783203125</LatitudeDegrees>
              <LongitudeDegrees>-1.7705176211893558502197265625</LongitudeDegrees>
            </Position>
            <AltitudeMeters>558.20001220703125</AltitudeMeters>
            <DistanceMeters>30151.436780576</DistanceMeters>
          </Trackpoint>
          <Trackpoint>
            <Time>2018-08-26T06:55:02.000Z</Time>
            <Position>
              <LatitudeDegrees>42.929440923035144805908203125</LatitudeDegrees>
              <LongitudeDegrees>-1.77046104334294795989990234375</LongitudeDegrees>
            </Position>
            <AltitudeMeters>558.4000244140625</AltitudeMeters>
            <DistanceMeters>30156.084354444</DistanceMeters>
          </Trackpoint>
          <Trackpoint>
            <Time>2018-08-26T06:55:03.000Z</Time>
            <Position>
              <LatitudeDegrees>42.9294343851506710052490234375</LatitudeDegrees>
              <LongitudeDegrees>-1.7704029567539691925048828125</LongitudeDegrees>
            </Position>
            <AltitudeMeters>558.5999755859375</AltitudeMeters>
            <DistanceMeters>30160.874492672</DistanceMeters>
          </Trackpoint>
          <Trackpoint>
            <Time>2018-08-26T06:55:04.000Z</Time>
            <Position>
              <LatitudeDegrees>42.92942692525684833526611328125</LatitudeDegrees>
              <LongitudeDegrees>-1.77034570835530757904052734375</LongitudeDegrees>
            </Position>
            <AltitudeMeters>558.79998779296875</AltitudeMeters>
            <DistanceMeters>30165.612505973</DistanceMeters>
          </Trackpoint>
          <Trackpoint>
            <Time>2018-08-26T06:55:05.000Z</Time>
            <Position>
              <LatitudeDegrees>42.9294162802398204803466796875</LatitudeDegrees>
              <LongitudeDegrees>-1.77028971724212169647216796875</LongitudeDegrees>
            </Position>
            <AltitudeMeters>559</AltitudeMeters>
            <DistanceMeters>30170.327593268</DistanceMeters>
          </Trackpoint>
          <Trackpoint>
            <Time>2018-08-26T06:55:06.000Z</Time>
            <Position>
              <LatitudeDegrees>42.9294030368328094482421875</LatitudeDegrees>
              <LongitudeDegrees>-1.7702351510524749755859375</LongitudeDegrees>
            </Position>
            <AltitudeMeters>559</AltitudeMeters>
            <DistanceMeters>30175.012901779</DistanceMeters>
          </Trackpoint>
          <Trackpoint>
            <Time>2018-08-26T06:55:07.000Z</Time>
            <Position>
              <LatitudeDegrees>42.9293861053884029388427734375</LatitudeDegrees>
              <LongitudeDegrees>-1.770182512700557708740234375</LongitudeDegrees>
            </Position>
            <AltitudeMeters>559.4000244140625</AltitudeMeters>
            <DistanceMeters>30179.699173848</DistanceMeters>
          </Trackpoint>
          <Trackpoint>
            <Time>2018-08-26T06:55:08.000Z</Time>
            <Position>
              <LatitudeDegrees>42.929364480078220367431640625</LatitudeDegrees>
              <LongitudeDegrees>-1.77013247273862361907958984375</LongitudeDegrees>
            </Position>
            <AltitudeMeters>559.5999755859375</AltitudeMeters>
            <DistanceMeters>30184.435280888</DistanceMeters>
          </Trackpoint>
          <Trackpoint>
            <Time>2018-08-26T06:55:09.000Z</Time>
            <Position>
              <LatitudeDegrees>42.9293395020067691802978515625</LatitudeDegrees>
              <LongitudeDegrees>-1.7700862884521484375</LongitudeDegrees>
            </Position>
            <AltitudeMeters>559.79998779296875</AltitudeMeters>
            <DistanceMeters>30189.114803874</DistanceMeters>
          </Trackpoint>
          <Trackpoint>
            <Time>2018-08-26T06:55:10.000Z</Time>
            <Position>
              <LatitudeDegrees>42.92931108735501766204833984375</LatitudeDegrees>
              <LongitudeDegrees>-1.77004161290824413299560546875</LongitudeDegrees>
            </Position>
            <AltitudeMeters>560</AltitudeMeters>
            <DistanceMeters>30193.937819208</DistanceMeters>
          </Trackpoint>
          <Trackpoint>
            <Time>2018-08-26T06:55:11.000Z</Time>
            <Position>
              <LatitudeDegrees>42.9292811639606952667236328125</LatitudeDegrees>
              <LongitudeDegrees>-1.76999920047819614410400390625</LongitudeDegrees>
            </Position>
            <AltitudeMeters>560.20001220703125</AltitudeMeters>
            <DistanceMeters>30198.738314504</DistanceMeters>
          </Trackpoint>
          <Trackpoint>
            <Time>2018-08-26T06:55:12.000Z</Time>
            <Position>
              <LatitudeDegrees>42.92924973182380199432373046875</LatitudeDegrees>
              <LongitudeDegrees>-1.76995879970490932464599609375</LongitudeDegrees>
            </Position>
            <AltitudeMeters>560.4000244140625</AltitudeMeters>
            <DistanceMeters>30203.540690503</DistanceMeters>
          </Trackpoint>
          <Trackpoint>
            <Time>2018-08-26T06:55:13.000Z</Time>
            <Position>
              <LatitudeDegrees>42.92921771295368671417236328125</LatitudeDegrees>
              <LongitudeDegrees>-1.76992091350257396697998046875</LongitudeDegrees>
            </Position>
            <AltitudeMeters>560.4000244140625</AltitudeMeters>
            <DistanceMeters>30208.255777799</DistanceMeters>
          </Trackpoint>
          <Trackpoint>
            <Time>2018-08-26T06:55:14.000Z</Time>
            <Position>
              <LatitudeDegrees>42.92918485589325428009033203125</LatitudeDegrees>
              <LongitudeDegrees>-1.76988302730023860931396484375</LongitudeDegrees>
            </Position>
            <AltitudeMeters>560.5999755859375</AltitudeMeters>
            <DistanceMeters>30213.043087483</DistanceMeters>
          </Trackpoint>
          <Trackpoint>
            <Time>2018-08-26T06:55:15.000Z</Time>
            <Position>
              <LatitudeDegrees>42.929152585566043853759765625</LatitudeDegrees>
              <LongitudeDegrees>-1.769846566021442413330078125</LongitudeDegrees>
            </Position>
            <AltitudeMeters>560.79998779296875</AltitudeMeters>
            <DistanceMeters>30217.704242268</DistanceMeters>
          </Trackpoint>
          <Trackpoint>
            <Time>2018-08-26T06:55:16.000Z</Time>
            <Position>
              <LatitudeDegrees>42.9291198961436748504638671875</LatitudeDegrees>
              <LongitudeDegrees>-1.76981077529489994049072265625</LongitudeDegrees>
            </Position>
            <AltitudeMeters>560.79998779296875</AltitudeMeters>
            <DistanceMeters>30222.367333954</DistanceMeters>
          </Trackpoint>
          <Trackpoint>
            <Time>2018-08-26T06:55:17.000Z</Time>
            <Position>
              <LatitudeDegrees>42.9290863685309886932373046875</LatitudeDegrees>
              <LongitudeDegrees>-1.7697764933109283447265625</LongitudeDegrees>
            </Position>
            <AltitudeMeters>561</AltitudeMeters>
            <DistanceMeters>30227.028488739</DistanceMeters>
          </Trackpoint>
          <Trackpoint>
            <Time>2018-08-26T06:55:18.000Z</Time>
            <Position>
              <LatitudeDegrees>42.929052673280239105224609375</LatitudeDegrees>
              <LongitudeDegrees>-1.769741959869861602783203125</LongitudeDegrees>
            </Position>
            <AltitudeMeters>561.20001220703125</AltitudeMeters>
            <DistanceMeters>30231.717650299</DistanceMeters>
          </Trackpoint>
          <Trackpoint>
            <Time>2018-08-26T06:55:19.000Z</Time>
            <Position>
              <LatitudeDegrees>42.9290183074772357940673828125</LatitudeDegrees>
              <LongitudeDegrees>-1.76970751024782657623291015625</LongitudeDegrees>
            </Position>
            <AltitudeMeters>561.4000244140625</AltitudeMeters>
            <DistanceMeters>30236.46328099</DistanceMeters>
          </Trackpoint>
          <Trackpoint>
            <Time>2018-08-26T06:55:20.000Z</Time>
            <Position>
              <LatitudeDegrees>42.92898335494101047515869140625</LatitudeDegrees>
              <LongitudeDegrees>-1.76967364735901355743408203125</LongitudeDegrees>
            </Position>
            <AltitudeMeters>561.5999755859375</AltitudeMeters>
            <DistanceMeters>30241.233584192</DistanceMeters>
          </Trackpoint>
          <Trackpoint>
            <Time>2018-08-26T06:55:21.000Z</Time>
            <Position>
              <LatitudeDegrees>42.92894764803349971771240234375</LatitudeDegrees>
              <LongitudeDegrees>-1.7696405388414859771728515625</LongitudeDegrees>
            </Position>
            <AltitudeMeters>561.5999755859375</AltitudeMeters>
            <DistanceMeters>30246.037840158</DistanceMeters>
          </Trackpoint>
          <Trackpoint>
            <Time>2018-08-26T06:55:22.000Z</Time>
            <Position>
              <LatitudeDegrees>42.92891152203083038330078125</LatitudeDegrees>
              <LongitudeDegrees>-1.76960684359073638916015625</LongitudeDegrees>
            </Position>
            <AltitudeMeters>561.79998779296875</AltitudeMeters>
            <DistanceMeters>30250.907437754</DistanceMeters>
          </Trackpoint>
          <Trackpoint>
            <Time>2018-08-26T06:55:23.000Z</Time>
            <Position>
              <LatitudeDegrees>42.92887531220912933349609375</LatitudeDegrees>
              <LongitudeDegrees>-1.769574321806430816650390625</LongitudeDegrees>
            </Position>
            <AltitudeMeters>562</AltitudeMeters>
            <DistanceMeters>30255.732325014</DistanceMeters>
          </Trackpoint>
          <Trackpoint>
            <Time>2018-08-26T06:55:24.000Z</Time>
            <Position>
              <LatitudeDegrees>42.9288396053016185760498046875</LatitudeDegrees>
              <LongitudeDegrees>-1.769541800022125244140625</LongitudeDegrees>
            </Position>
            <AltitudeMeters>562.20001220703125</AltitudeMeters>
            <DistanceMeters>30260.509249042</DistanceMeters>
          </Trackpoint>
          <Trackpoint>
            <Time>2018-08-26T06:55:25.000Z</Time>
            <Position>
              <LatitudeDegrees>42.928806245326995849609375</LatitudeDegrees>
              <LongitudeDegrees>-1.76950735040009021759033203125</LongitudeDegrees>
            </Position>
            <AltitudeMeters>562.5999755859375</AltitudeMeters>
            <DistanceMeters>30265.164588285</DistanceMeters>
          </Trackpoint>
          <Trackpoint>
            <Time>2018-08-26T06:55:26.000Z</Time>
            <Position>
              <LatitudeDegrees>42.92877632193267345428466796875</LatitudeDegrees>
              <LongitudeDegrees>-1.769467033445835113525390625</LongitudeDegrees>
            </Position>
            <AltitudeMeters>563</AltitudeMeters>
            <DistanceMeters>30269.844111271</DistanceMeters>
          </Trackpoint>
          <Trackpoint>
            <Time>2018-08-26T06:55:27.000Z</Time>
            <Position>
              <LatitudeDegrees>42.92875084094703197479248046875</LatitudeDegrees>
              <LongitudeDegrees>-1.76942034624516963958740234375</LongitudeDegrees>
            </Position>
            <AltitudeMeters>563.20001220703125</AltitudeMeters>
            <DistanceMeters>30274.589741962</DistanceMeters>
          </Trackpoint>
          <Trackpoint>
            <Time>2018-08-26T06:55:28.000Z</Time>
            <Position>
              <LatitudeDegrees>42.9287319816648960113525390625</LatitudeDegrees>
              <LongitudeDegrees>-1.7693686299026012420654296875</LongitudeDegrees>
            </Position>
            <AltitudeMeters>563.4000244140625</AltitudeMeters>
            <DistanceMeters>30279.298121478</DistanceMeters>
          </Trackpoint>
          <Trackpoint>
            <Time>2018-08-26T06:55:29.000Z</Time>
            <Position>
              <LatitudeDegrees>42.9287185706198215484619140625</LatitudeDegrees>
              <LongitudeDegrees>-1.769312806427478790283203125</LongitudeDegrees>
            </Position>
            <AltitudeMeters>563.4000244140625</AltitudeMeters>
            <DistanceMeters>30284.085431162</DistanceMeters>
          </Trackpoint>
          <Trackpoint>
            <Time>2018-08-26T06:55:30.000Z</Time>
            <Position>
              <LatitudeDegrees>42.92871010489761829376220703125</LatitudeDegrees>
              <LongitudeDegrees>-1.76925606094300746917724609375</LongitudeDegrees>
            </Position>
            <AltitudeMeters>563.5999755859375</AltitudeMeters>
            <DistanceMeters>30288.805303892</DistanceMeters>
          </Trackpoint>
          <Trackpoint>
            <Time>2018-08-26T06:55:31.000Z</Time>
            <Position>
              <LatitudeDegrees>42.928705997765064239501953125</LatitudeDegrees>
              <LongitudeDegrees>-1.76919906400144100189208984375</LongitudeDegrees>
            </Position>
            <AltitudeMeters>563.79998779296875</AltitudeMeters>
            <DistanceMeters>30293.472266972</DistanceMeters>
          </Trackpoint>
          <Trackpoint>
            <Time>2018-08-26T06:55:32.000Z</Time>
            <Position>
              <LatitudeDegrees>42.92870557866990566253662109375</LatitudeDegrees>
              <LongitudeDegrees>-1.76914340816438198089599609375</LongitudeDegrees>
            </Position>
            <AltitudeMeters>564</AltitudeMeters>
            <DistanceMeters>30298.00773984</DistanceMeters>
          </Trackpoint>
          <Trackpoint>
            <Time>2018-08-26T06:55:33.000Z</Time>
            <Position>
              <LatitudeDegrees>42.92870893143117427825927734375</LatitudeDegrees>
              <LongitudeDegrees>-1.7690880037844181060791015625</LongitudeDegrees>
            </Position>
            <AltitudeMeters>564.20001220703125</AltitudeMeters>
            <DistanceMeters>30302.539228981</DistanceMeters>
          </Trackpoint>
          <Trackpoint>
            <Time>2018-08-26T06:55:34.000Z</Time>
            <Position>
              <LatitudeDegrees>42.928715385496616363525390625</LatitudeDegrees>
              <LongitudeDegrees>-1.76903377287089824676513671875</LongitudeDegrees>
            </Position>
            <AltitudeMeters>564.5999755859375</AltitudeMeters>
            <DistanceMeters>30307.017599196</DistanceMeters>
          </Trackpoint>
          <Trackpoint>
            <Time>2018-08-26T06:55:35.000Z</Time>
            <Position>
              <LatitudeDegrees>42.92872670106589794158935546875</LatitudeDegrees>
              <LongitudeDegrees>-1.76898096688091754913330078125</LongitudeDegrees>
            </Position>
            <AltitudeMeters>564.79998779296875</AltitudeMeters>
            <DistanceMeters>30311.503021173</DistanceMeters>
          </Trackpoint>
          <Trackpoint>
            <Time>2018-08-26T06:55:36.000Z</Time>
            <Position>
              <LatitudeDegrees>42.92874262668192386627197265625</LatitudeDegrees>
              <LongitudeDegrees>-1.76893017254769802093505859375</LongitudeDegrees>
            </Position>
            <AltitudeMeters>565</AltitudeMeters>
            <DistanceMeters>30316.006525552</DistanceMeters>
          </Trackpoint>
          <Trackpoint>
            <Time>2018-08-26T06:55:37.000Z</Time>
            <Position>
              <LatitudeDegrees>42.9287646710872650146484375</LatitudeDegrees>
              <LongitudeDegrees>-1.76888206042349338531494140625</LongitudeDegrees>
            </Position>
            <AltitudeMeters>565.4000244140625</AltitudeMeters>
            <DistanceMeters>30320.632677428</DistanceMeters>
          </Trackpoint>
          <Trackpoint>
            <Time>2018-08-26T06:55:38.000Z</Time>
            <Position>
              <LatitudeDegrees>42.928792499005794525146484375</LatitudeDegrees>
              <LongitudeDegrees>-1.7688372172415256500244140625</LongitudeDegrees>
            </Position>
            <AltitudeMeters>565.4000244140625</AltitudeMeters>
            <DistanceMeters>30325.423758133</DistanceMeters>
          </Trackpoint>
          <Trackpoint>
            <Time>2018-08-26T06:55:39.000Z</Time>
            <Position>
              <LatitudeDegrees>42.92882275767624378204345703125</LatitudeDegrees>
              <LongitudeDegrees>-1.768796481192111968994140625</LongitudeDegrees>
            </Position>
            <AltitudeMeters>565.5999755859375</AltitudeMeters>
            <DistanceMeters>30330.154141777</DistanceMeters>
          </Trackpoint>
          <Trackpoint>
            <Time>2018-08-26T06:55:40.000Z</Time>
            <Position>
              <LatitudeDegrees>42.928852848708629608154296875</LatitudeDegrees>
              <LongitudeDegrees>-1.7687590979039669036865234375</LongitudeDegrees>
            </Position>
            <AltitudeMeters>565.79998779296875</AltitudeMeters>
            <DistanceMeters>30334.681643686</DistanceMeters>
          </Trackpoint>
          <Trackpoint>
            <Time>2018-08-26T06:55:41.000Z</Time>
            <Position>
              <LatitudeDegrees>42.92888444848358631134033203125</LatitudeDegrees>
              <LongitudeDegrees>-1.7687232233583927154541015625</LongitudeDegrees>
            </Position>
            <AltitudeMeters>566</AltitudeMeters>
            <DistanceMeters>30339.255776075</DistanceMeters>
          </Trackpoint>
          <Trackpoint>
            <Time>2018-08-26T06:55:42.000Z</Time>
            <Position>
              <LatitudeDegrees>42.92891596443951129913330078125</LatitudeDegrees>
              <LongitudeDegrees>-1.7686876840889453887939453125</LongitudeDegrees>
            </Position>
            <AltitudeMeters>566.4000244140625</AltitudeMeters>
            <DistanceMeters>30343.805164519</DistanceMeters>
          </Trackpoint>
          <Trackpoint>
            <Time>2018-08-26T06:55:43.000Z</Time>
            <Position>
              <LatitudeDegrees>42.92894664220511913299560546875</LatitudeDegrees>
              <LongitudeDegrees>-1.76865390501916408538818359375</LongitudeDegrees>
            </Position>
            <AltitudeMeters>566.79998779296875</AltitudeMeters>
            <DistanceMeters>30348.190830127</DistanceMeters>
          </Trackpoint>
          <Trackpoint>
            <Time>2018-08-26T06:55:44.000Z</Time>
            <Position>
              <LatitudeDegrees>42.92897782288491725921630859375</LatitudeDegrees>
              <LongitudeDegrees>-1.76862138323485851287841796875</LongitudeDegrees>
            </Position>
            <AltitudeMeters>567</AltitudeMeters>
            <DistanceMeters>30352.555857194</DistanceMeters>
          </Trackpoint>
          <Trackpoint>
            <Time>2018-08-26T06:55:45.000Z</Time>
            <Position>
              <LatitudeDegrees>42.9290087521076202392578125</LatitudeDegrees>
              <LongitudeDegrees>-1.76859020255506038665771484375</LongitudeDegrees>
            </Position>
            <AltitudeMeters>567.4000244140625</AltitudeMeters>
            <DistanceMeters>30356.833115063</DistanceMeters>
          </Trackpoint>
          <Trackpoint>
            <Time>2018-08-26T06:55:46.000Z</Time>
            <Position>
              <LatitudeDegrees>42.92903917841613292694091796875</LatitudeDegrees>
              <LongitudeDegrees>-1.76856019534170627593994140625</LongitudeDegrees>
            </Position>
            <AltitudeMeters>567.5999755859375</AltitudeMeters>
            <DistanceMeters>30361.009968866</DistanceMeters>
          </Trackpoint>
          <Trackpoint>
            <Time>2018-08-26T06:55:47.000Z</Time>
            <Position>
              <LatitudeDegrees>42.92906868271529674530029296875</LatitudeDegrees>
              <LongitudeDegrees>-1.76853203214704990386962890625</LongitudeDegrees>
            </Position>
            <AltitudeMeters>568</AltitudeMeters>
            <DistanceMeters>30365.014643105</DistanceMeters>
          </Trackpoint>
          <Trackpoint>
            <Time>2018-08-26T06:55:48.000Z</Time>
            <Position>
              <LatitudeDegrees>42.92909927666187286376953125</LatitudeDegrees>
              <LongitudeDegrees>-1.7685049585998058319091796875</LongitudeDegrees>
            </Position>
            <AltitudeMeters>568.20001220703125</AltitudeMeters>
            <DistanceMeters>30369.070848139</DistanceMeters>
          </Trackpoint>
          <Trackpoint>
            <Time>2018-08-26T06:55:49.000Z</Time>
            <Position>
              <LatitudeDegrees>42.92913054116070270538330078125</LatitudeDegrees>
              <LongitudeDegrees>-1.76847922615706920623779296875</LongitudeDegrees>
            </Position>
            <AltitudeMeters>568.5999755859375</AltitudeMeters>
            <DistanceMeters>30373.132614955</DistanceMeters>
          </Trackpoint>
          <Trackpoint>
            <Time>2018-08-26T06:55:50.000Z</Time>
            <Position>
              <LatitudeDegrees>42.92916256003081798553466796875</LatitudeDegrees>
              <LongitudeDegrees>-1.76845223642885684967041015625</LongitudeDegrees>
            </Position>
            <AltitudeMeters>568.79998779296875</AltitudeMeters>
            <DistanceMeters>30377.320264469</DistanceMeters>
          </Trackpoint>
          <Trackpoint>
            <Time>2018-08-26T06:55:51.000Z</Time>
            <Position>
              <LatitudeDegrees>42.9291951656341552734375</LatitudeDegrees>
              <LongitudeDegrees>-1.76842541433870792388916015625</LongitudeDegrees>
            </Position>
            <AltitudeMeters>569.20001220703125</AltitudeMeters>
            <DistanceMeters>30381.557219976</DistanceMeters>
          </Trackpoint>
          <Trackpoint>
            <Time>2018-08-26T06:55:52.000Z</Time>
            <Position>
              <LatitudeDegrees>42.9292295314371585845947265625</LatitudeDegrees>
              <LongitudeDegrees>-1.76839892752468585968017578125</LongitudeDegrees>
            </Position>
            <AltitudeMeters>569.4000244140625</AltitudeMeters>
            <DistanceMeters>30385.950086166</DistanceMeters>
          </Trackpoint>
          <Trackpoint>
            <Time>2018-08-26T06:55:53.000Z</Time>
            <Position>
              <LatitudeDegrees>42.929265908896923065185546875</LatitudeDegrees>
              <LongitudeDegrees>-1.76837193779647350311279296875</LongitudeDegrees>
            </Position>
            <AltitudeMeters>569.5999755859375</AltitudeMeters>
            <DistanceMeters>30390.557657079</DistanceMeters>
          </Trackpoint>
          <Trackpoint>
            <Time>2018-08-26T06:55:54.000Z</Time>
            <Position>
              <LatitudeDegrees>42.92930320836603641510009765625</LatitudeDegrees>
              <LongitudeDegrees>-1.76834612153470516204833984375</LongitudeDegrees>
            </Position>
            <AltitudeMeters>570</AltitudeMeters>
            <DistanceMeters>30395.211056193</DistanceMeters>
          </Trackpoint>
          <Trackpoint>
            <Time>2018-08-26T06:55:55.000Z</Time>
            <Position>
              <LatitudeDegrees>42.92933933436870574951171875</LatitudeDegrees>
              <LongitudeDegrees>-1.76832131110131740570068359375</LongitudeDegrees>
            </Position>
            <AltitudeMeters>570.4000244140625</AltitudeMeters>
            <DistanceMeters>30399.710548541</DistanceMeters>
          </Trackpoint>
          <Trackpoint>
            <Time>2018-08-26T06:55:56.000Z</Time>
            <Position>
              <LatitudeDegrees>42.92937579564750194549560546875</LatitudeDegrees>
              <LongitudeDegrees>-1.76829566247761249542236328125</LongitudeDegrees>
            </Position>
            <AltitudeMeters>570.5999755859375</AltitudeMeters>
            <DistanceMeters>30404.274799449</DistanceMeters>
          </Trackpoint>
          <Trackpoint>
            <Time>2018-08-26T06:55:57.000Z</Time>
            <Position>
              <LatitudeDegrees>42.92941167019307613372802734375</LatitudeDegrees>
              <LongitudeDegrees>-1.76826984621584415435791015625</LongitudeDegrees>
            </Position>
            <AltitudeMeters>571</AltitudeMeters>
            <DistanceMeters>30408.787317857</DistanceMeters>
          </Trackpoint>
          <Trackpoint>
            <Time>2018-08-26T06:55:58.000Z</Time>
            <Position>
              <LatitudeDegrees>42.92944687418639659881591796875</LatitudeDegrees>
              <LongitudeDegrees>-1.7682451196014881134033203125</LongitudeDegrees>
            </Position>
            <AltitudeMeters>571.4000244140625</AltitudeMeters>
            <DistanceMeters>30413.193525337</DistanceMeters>
          </Trackpoint>
          <Trackpoint>
            <Time>2018-08-26T06:55:59.000Z</Time>
            <Position>
              <LatitudeDegrees>42.92948157526552677154541015625</LatitudeDegrees>
              <LongitudeDegrees>-1.7682213149964809417724609375</LongitudeDegrees>
            </Position>
            <AltitudeMeters>571.5999755859375</AltitudeMeters>
            <DistanceMeters>30417.516979771</DistanceMeters>
          </Trackpoint>
          <Trackpoint>
            <Time>2018-08-26T06:56:00.000Z</Time>
            <Position>
              <LatitudeDegrees>42.92951644398272037506103515625</LatitudeDegrees>
              <LongitudeDegrees>-1.7681985162198543548583984375</LongitudeDegrees>
            </Position>
            <AltitudeMeters>571.79998779296875</AltitudeMeters>
            <DistanceMeters>30421.819497256</DistanceMeters>
          </Trackpoint>
          <Trackpoint>
            <Time>2018-08-26T06:56:01.000Z</Time>
            <Position>
              <LatitudeDegrees>42.92955080978572368621826171875</LatitudeDegrees>
              <LongitudeDegrees>-1.7681773938238620758056640625</LongitudeDegrees>
            </Position>
            <AltitudeMeters>572.20001220703125</AltitudeMeters>
            <DistanceMeters>30426.013610858</DistanceMeters>
          </Trackpoint>
          <Trackpoint>
            <Time>2018-08-26T06:56:02.000Z</Time>
            <Position>
              <LatitudeDegrees>42.92958567850291728973388671875</LatitudeDegrees>
              <LongitudeDegrees>-1.7681569419801235198974609375</LongitudeDegrees>
            </Position>
            <AltitudeMeters>572.4000244140625</AltitudeMeters>
            <DistanceMeters>30430.237759418</DistanceMeters>
          </Trackpoint>
          <Trackpoint>
            <Time>2018-08-26T06:56:03.000Z</Time>
            <Position>
              <LatitudeDegrees>42.92962071485817432403564453125</LatitudeDegrees>
              <LongitudeDegrees>-1.7681376636028289794921875</LongitudeDegrees>
            </Position>
            <AltitudeMeters>572.5999755859375</AltitudeMeters>
            <DistanceMeters>30434.441550517</DistanceMeters>
          </Trackpoint>
          <Trackpoint>
            <Time>2018-08-26T06:56:04.000Z</Time>
            <Position>
              <LatitudeDegrees>42.92965675704181194305419921875</LatitudeDegrees>
              <LongitudeDegrees>-1.7681197263300418853759765625</LongitudeDegrees>
            </Position>
            <AltitudeMeters>573</AltitudeMeters>
            <DistanceMeters>30438.710355298</DistanceMeters>
          </Trackpoint>
          <Trackpoint>
            <Time>2018-08-26T06:56:05.000Z</Time>
            <Position>
              <LatitudeDegrees>42.9296922124922275543212890625</LatitudeDegrees>
              <LongitudeDegrees>-1.7681026272475719451904296875</LongitudeDegrees>
            </Position>
            <AltitudeMeters>573.20001220703125</AltitudeMeters>
            <DistanceMeters>30442.895847898</DistanceMeters>
          </Trackpoint>
          <Trackpoint>
            <Time>2018-08-26T06:56:06.000Z</Time>
            <Position>
              <LatitudeDegrees>42.92972833849489688873291015625</LatitudeDegrees>
              <LongitudeDegrees>-1.7680875398218631744384765625</LongitudeDegrees>
            </Position>
            <AltitudeMeters>573.5999755859375</AltitudeMeters>
            <DistanceMeters>30447.09856482</DistanceMeters>
          </Trackpoint>
          <Trackpoint>
            <Time>2018-08-26T06:56:07.000Z</Time>
            <Position>
              <LatitudeDegrees>42.929766140878200531005859375</LatitudeDegrees>
              <LongitudeDegrees>-1.76807396113872528076171875</LongitudeDegrees>
            </Position>
            <AltitudeMeters>573.79998779296875</AltitudeMeters>
            <DistanceMeters>30451.449086653</DistanceMeters>
          </Trackpoint>
          <Trackpoint>
            <Time>2018-08-26T06:56:08.000Z</Time>
            <Position>
              <LatitudeDegrees>42.92980394326150417327880859375</LatitudeDegrees>
              <LongitudeDegrees>-1.76806214265525341033935546875</LongitudeDegrees>
            </Position>
            <AltitudeMeters>574</AltitudeMeters>
            <DistanceMeters>30455.766270664</DistanceMeters>
          </Trackpoint>
          <Trackpoint>
            <Time>2018-08-26T06:56:09.000Z</Time>
            <Position>
              <LatitudeDegrees>42.92984224855899810791015625</LatitudeDegrees>
              <LongitudeDegrees>-1.76805250346660614013671875</LongitudeDegrees>
            </Position>
            <AltitudeMeters>574.20001220703125</AltitudeMeters>
            <DistanceMeters>30460.100155642</DistanceMeters>
          </Trackpoint>
          <Trackpoint>
            <Time>2018-08-26T06:56:10.000Z</Time>
            <Position>
              <LatitudeDegrees>42.92988114058971405029296875</LatitudeDegrees>
              <LongitudeDegrees>-1.76804940216243267059326171875</LongitudeDegrees>
            </Position>
            <AltitudeMeters>574.5999755859375</AltitudeMeters>
            <DistanceMeters>30464.436123718</DistanceMeters>
          </Trackpoint>
          <Trackpoint>
            <Time>2018-08-26T06:56:11.000Z</Time>
            <Position>
              <LatitudeDegrees>42.9299191944301128387451171875</LatitudeDegrees>
              <LongitudeDegrees>-1.76805225200951099395751953125</LongitudeDegrees>
            </Position>
            <AltitudeMeters>574.79998779296875</AltitudeMeters>
            <DistanceMeters>30468.678404043</DistanceMeters>
          </Trackpoint>
          <Trackpoint>
            <Time>2018-08-26T06:56:12.000Z</Time>
            <Position>
              <LatitudeDegrees>42.92995666153728961944580078125</LatitudeDegrees>
              <LongitudeDegrees>-1.76805828697979450225830078125</LongitudeDegrees>
            </Position>
            <AltitudeMeters>575</AltitudeMeters>
            <DistanceMeters>30472.877896785</DistanceMeters>
          </Trackpoint>
          <Trackpoint>
            <Time>2018-08-26T06:56:13.000Z</Time>
            <Position>
              <LatitudeDegrees>42.929994799196720123291015625</LatitudeDegrees>
              <LongitudeDegrees>-1.768068931996822357177734375</LongitudeDegrees>
            </Position>
            <AltitudeMeters>575.4000244140625</AltitudeMeters>
            <DistanceMeters>30477.210739839</DistanceMeters>
          </Trackpoint>
          <Trackpoint>
            <Time>2018-08-26T06:56:14.000Z</Time>
            <Position>
              <LatitudeDegrees>42.93003310449421405792236328125</LatitudeDegrees>
              <LongitudeDegrees>-1.76808142103254795074462890625</LongitudeDegrees>
            </Position>
            <AltitudeMeters>575.5999755859375</AltitudeMeters>
            <DistanceMeters>30481.596405447</DistanceMeters>
          </Trackpoint>
          <Trackpoint>
            <Time>2018-08-26T06:56:15.000Z</Time>
            <Position>
              <LatitudeDegrees>42.93007048778235912322998046875</LatitudeDegrees>
              <LongitudeDegrees>-1.76809810101985931396484375</LongitudeDegrees>
            </Position>
            <AltitudeMeters>575.5999755859375</AltitudeMeters>
            <DistanceMeters>30485.974858632</DistanceMeters>
          </Trackpoint>
          <Trackpoint>
            <Time>2018-08-26T06:56:16.000Z</Time>
            <Position>
              <LatitudeDegrees>42.9301072843372821807861328125</LatitudeDegrees>
              <LongitudeDegrees>-1.76812064833939075469970703125</LongitudeDegrees>
            </Position>
            <AltitudeMeters>576</AltitudeMeters>
            <DistanceMeters>30490.463299402</DistanceMeters>
          </Trackpoint>
          <Trackpoint>
            <Time>2018-08-26T06:56:17.000Z</Time>
            <Position>
              <LatitudeDegrees>42.930144332349300384521484375</LatitudeDegrees>
              <LongitudeDegrees>-1.76814830861985683441162109375</LongitudeDegrees>
            </Position>
            <AltitudeMeters>576.20001220703125</AltitudeMeters>
            <DistanceMeters>30495.163040563</DistanceMeters>
          </Trackpoint>
          <Trackpoint>
            <Time>2018-08-26T06:56:18.000Z</Time>
            <Position>
              <LatitudeDegrees>42.93018129654228687286376953125</LatitudeDegrees>
              <LongitudeDegrees>-1.768178902566432952880859375</LongitudeDegrees>
            </Position>
            <AltitudeMeters>576.5999755859375</AltitudeMeters>
            <DistanceMeters>30499.973870629</DistanceMeters>
          </Trackpoint>
          <Trackpoint>
            <Time>2018-08-26T06:56:19.000Z</Time>
            <Position>
              <LatitudeDegrees>42.93021775782108306884765625</LatitudeDegrees>
              <LongitudeDegrees>-1.76820865832269191741943359375</LongitudeDegrees>
            </Position>
            <AltitudeMeters>576.79998779296875</AltitudeMeters>
            <DistanceMeters>30504.700434828</DistanceMeters>
          </Trackpoint>
          <Trackpoint>
            <Time>2018-08-26T06:56:20.000Z</Time>
            <Position>
              <LatitudeDegrees>42.93025572784245014190673828125</LatitudeDegrees>
              <LongitudeDegrees>-1.76824159920215606689453125</LongitudeDegrees>
            </Position>
            <AltitudeMeters>577.20001220703125</AltitudeMeters>
            <DistanceMeters>30509.707179499</DistanceMeters>
          </Trackpoint>
          <Trackpoint>
            <Time>2018-08-26T06:56:21.000Z</Time>
            <Position>
              <LatitudeDegrees>42.93029461987316608428955078125</LatitudeDegrees>
              <LongitudeDegrees>-1.76827646791934967041015625</LongitudeDegrees>
            </Position>
            <AltitudeMeters>577.5999755859375</AltitudeMeters>
            <DistanceMeters>30514.885045562</DistanceMeters>
          </Trackpoint>
          <Trackpoint>
            <Time>2018-08-26T06:56:22.000Z</Time>
            <Position>
              <LatitudeDegrees>42.93033468537032604217529296875</LatitudeDegrees>
              <LongitudeDegrees>-1.76830974407494068145751953125</LongitudeDegrees>
            </Position>
            <AltitudeMeters>578</AltitudeMeters>
            <DistanceMeters>30520.103734148</DistanceMeters>
          </Trackpoint>
          <Trackpoint>
            <Time>2018-08-26T06:56:23.000Z</Time>
            <Position>
              <LatitudeDegrees>42.9303766787052154541015625</LatitudeDegrees>
              <LongitudeDegrees>-1.76833815872669219970703125</LongitudeDegrees>
            </Position>
            <AltitudeMeters>578.4000244140625</AltitudeMeters>
            <DistanceMeters>30525.320692112</DistanceMeters>
          </Trackpoint>
          <Trackpoint>
            <Time>2018-08-26T06:56:24.000Z</Time>
            <Position>
              <LatitudeDegrees>42.93042051605880260467529296875</LatitudeDegrees>
              <LongitudeDegrees>-1.768361292779445648193359375</LongitudeDegrees>
            </Position>
            <AltitudeMeters>578.5999755859375</AltitudeMeters>
            <DistanceMeters>30530.549752398</DistanceMeters>
          </Trackpoint>
          <Trackpoint>
            <Time>2018-08-26T06:56:25.000Z</Time>
            <Position>
              <LatitudeDegrees>42.93046494014561176300048828125</LatitudeDegrees>
              <LongitudeDegrees>-1.7683802358806133270263671875</LongitudeDegrees>
            </Position>
            <AltitudeMeters>578.79998779296875</AltitudeMeters>
            <DistanceMeters>30535.729362143</DistanceMeters>
          </Trackpoint>
          <Trackpoint>
            <Time>2018-08-26T06:56:26.000Z</Time>
            <Position>
              <LatitudeDegrees>42.9305092804133892059326171875</LatitudeDegrees>
              <LongitudeDegrees>-1.76839624531567096710205078125</LongitudeDegrees>
            </Position>
            <AltitudeMeters>579.20001220703125</AltitudeMeters>
            <DistanceMeters>30540.834340166</DistanceMeters>
          </Trackpoint>
          <Trackpoint>
            <Time>2018-08-26T06:56:27.000Z</Time>
            <Position>
              <LatitudeDegrees>42.93055362068116664886474609375</LatitudeDegrees>
              <LongitudeDegrees>-1.76841082982718944549560546875</LongitudeDegrees>
            </Position>
            <AltitudeMeters>579.20001220703125</AltitudeMeters>
            <DistanceMeters>30545.910937272</DistanceMeters>
          </Trackpoint>
          <Trackpoint>
            <Time>2018-08-26T06:56:28.000Z</Time>
            <Position>
              <LatitudeDegrees>42.93059737421572208404541015625</LatitudeDegrees>
              <LongitudeDegrees>-1.76842373795807361602783203125</LongitudeDegrees>
            </Position>
            <AltitudeMeters>579.4000244140625</AltitudeMeters>
            <DistanceMeters>30550.894180214</DistanceMeters>
          </Trackpoint>
          <Trackpoint>
            <Time>2018-08-26T06:56:29.000Z</Time>
            <Position>
              <LatitudeDegrees>42.93064096011221408843994140625</LatitudeDegrees>
              <LongitudeDegrees>-1.76843564026057720184326171875</LongitudeDegrees>
            </Position>
            <AltitudeMeters>579.4000244140625</AltitudeMeters>
            <DistanceMeters>30555.841048634</DistanceMeters>
          </Trackpoint>
          <Trackpoint>
            <Time>2018-08-26T06:56:30.000Z</Time>
            <Position>
              <LatitudeDegrees>42.930684126913547515869140625</LatitudeDegrees>
              <LongitudeDegrees>-1.76844519563019275665283203125</LongitudeDegrees>
            </Position>
            <AltitudeMeters>579.4000244140625</AltitudeMeters>
            <DistanceMeters>30560.707863867</DistanceMeters>
          </Trackpoint>
          <Trackpoint>
            <Time>2018-08-26T06:56:31.000Z</Time>
            <Position>
              <LatitudeDegrees>42.930727042257785797119140625</LatitudeDegrees>
              <LongitudeDegrees>-1.76845307461917400360107421875</LongitudeDegrees>
            </Position>
            <AltitudeMeters>579.4000244140625</AltitudeMeters>
            <DistanceMeters>30565.528069951</DistanceMeters>
          </Trackpoint>
          <Trackpoint>
            <Time>2018-08-26T06:56:32.000Z</Time>
            <Position>
              <LatitudeDegrees>42.93077029287815093994140625</LatitudeDegrees>
              <LongitudeDegrees>-1.76846086978912353515625</LongitudeDegrees>
            </Position>
            <AltitudeMeters>579.5999755859375</AltitudeMeters>
            <DistanceMeters>30570.382809853</DistanceMeters>
          </Trackpoint>
          <Trackpoint>
            <Time>2018-08-26T06:56:33.000Z</Time>
            <Position>
              <LatitudeDegrees>42.9308130405843257904052734375</LatitudeDegrees>
              <LongitudeDegrees>-1.76846799440681934356689453125</LongitudeDegrees>
            </Position>
            <AltitudeMeters>579.5999755859375</AltitudeMeters>
            <DistanceMeters>30575.177658612</DistanceMeters>
          </Trackpoint>
          <Trackpoint>
            <Time>2018-08-26T06:56:34.000Z</Time>
            <Position>
              <LatitudeDegrees>42.93085553683340549468994140625</LatitudeDegrees>
              <LongitudeDegrees>-1.768474280834197998046875</LongitudeDegrees>
            </Position>
            <AltitudeMeters>580</AltitudeMeters>
            <DistanceMeters>30579.935641551</DistanceMeters>
          </Trackpoint>
          <Trackpoint>
            <Time>2018-08-26T06:56:35.000Z</Time>
            <Position>
              <LatitudeDegrees>42.93089761398732662200927734375</LatitudeDegrees>
              <LongitudeDegrees>-1.76848031580448150634765625</LongitudeDegrees>
            </Position>
            <AltitudeMeters>580</AltitudeMeters>
            <DistanceMeters>30584.644979907</DistanceMeters>
          </Trackpoint>
          <Trackpoint>
            <Time>2018-08-26T06:56:36.000Z</Time>
            <Position>
              <LatitudeDegrees>42.93093985877931118011474609375</LatitudeDegrees>
              <LongitudeDegrees>-1.76848559640347957611083984375</LongitudeDegrees>
            </Position>
            <AltitudeMeters>580.4000244140625</AltitudeMeters>
            <DistanceMeters>30589.365809141</DistanceMeters>
          </Trackpoint>
          <Trackpoint>
            <Time>2018-08-26T06:56:37.000Z</Time>
            <Position>
              <LatitudeDegrees>42.930981852114200592041015625</LatitudeDegrees>
              <LongitudeDegrees>-1.76848961971700191497802734375</LongitudeDegrees>
            </Position>
            <AltitudeMeters>580.4000244140625</AltitudeMeters>
            <DistanceMeters>30594.050153894</DistanceMeters>
          </Trackpoint>
          <Trackpoint>
            <Time>2018-08-26T06:56:38.000Z</Time>
            <Position>
              <LatitudeDegrees>42.931024096906185150146484375</LatitudeDegrees>
              <LongitudeDegrees>-1.768492050468921661376953125</LongitudeDegrees>
            </Position>
            <AltitudeMeters>580.5999755859375</AltitudeMeters>
            <DistanceMeters>30598.75565572</DistanceMeters>
          </Trackpoint>
          <Trackpoint>
            <Time>2018-08-26T06:56:39.000Z</Time>
            <Position>
              <LatitudeDegrees>42.93106667697429656982421875</LatitudeDegrees>
              <LongitudeDegrees>-1.76849280484020709991455078125</LongitudeDegrees>
            </Position>
            <AltitudeMeters>580.79998779296875</AltitudeMeters>
            <DistanceMeters>30603.495574516</DistanceMeters>
          </Trackpoint>
          <Trackpoint>
            <Time>2018-08-26T06:56:40.000Z</Time>
            <Position>
              <LatitudeDegrees>42.931109257042407989501953125</LatitudeDegrees>
              <LongitudeDegrees>-1.768492050468921661376953125</LongitudeDegrees>
            </Position>
            <AltitudeMeters>581</AltitudeMeters>
            <DistanceMeters>30608.235493312</DistanceMeters>
          </Trackpoint>
          <Trackpoint>
            <Time>2018-08-26T06:56:41.000Z</Time>
            <Position>
              <LatitudeDegrees>42.931150831282138824462890625</LatitudeDegrees>
              <LongitudeDegrees>-1.76848945207893848419189453125</LongitudeDegrees>
            </Position>
            <AltitudeMeters>581.20001220703125</AltitudeMeters>
            <DistanceMeters>30612.867497374</DistanceMeters>
          </Trackpoint>
          <Trackpoint>
            <Time>2018-08-26T06:56:42.000Z</Time>
            <Position>
              <LatitudeDegrees>42.9311920702457427978515625</LatitudeDegrees>
              <LongitudeDegrees>-1.7684851773083209991455078125</LongitudeDegrees>
            </Position>
            <AltitudeMeters>581.4000244140625</AltitudeMeters>
            <DistanceMeters>30617.470166093</DistanceMeters>
          </Trackpoint>
          <Trackpoint>
            <Time>2018-08-26T06:56:43.000Z</Time>
            <Position>
              <LatitudeDegrees>42.93123163282871246337890625</LatitudeDegrees>
              <LongitudeDegrees>-1.76847889088094234466552734375</LongitudeDegrees>
            </Position>
            <AltitudeMeters>581.5999755859375</AltitudeMeters>
            <DistanceMeters>30621.902935695</DistanceMeters>
          </Trackpoint>
          <Trackpoint>
            <Time>2018-08-26T06:56:44.000Z</Time>
            <Position>
              <LatitudeDegrees>42.9312703572213649749755859375</LatitudeDegrees>
              <LongitudeDegrees>-1.7684704251587390899658203125</LongitudeDegrees>
            </Position>
            <AltitudeMeters>581.79998779296875</AltitudeMeters>
            <DistanceMeters>30626.267962762</DistanceMeters>
          </Trackpoint>
          <Trackpoint>
            <Time>2018-08-26T06:56:45.000Z</Time>
            <Position>
              <LatitudeDegrees>42.9313079081475734710693359375</LatitudeDegrees>
              <LongitudeDegrees>-1.76846112124621868133544921875</LongitudeDegrees>
            </Position>
            <AltitudeMeters>582.20001220703125</AltitudeMeters>
            <DistanceMeters>30630.515561229</DistanceMeters>
          </Trackpoint>
          <Trackpoint>
            <Time>2018-08-26T06:56:46.000Z</Time>
            <Position>
              <LatitudeDegrees>42.93134487234055995941162109375</LatitudeDegrees>
              <LongitudeDegrees>-1.768446452915668487548828125</LongitudeDegrees>
            </Position>
            <AltitudeMeters>582.4000244140625</AltitudeMeters>
            <DistanceMeters>30634.799147966</DistanceMeters>
          </Trackpoint>
          <Trackpoint>
            <Time>2018-08-26T06:56:47.000Z</Time>
            <Position>
              <LatitudeDegrees>42.93138317763805389404296875</LatitudeDegrees>
              <LongitudeDegrees>-1.7684273421764373779296875</LongitudeDegrees>
            </Position>
            <AltitudeMeters>582.5999755859375</AltitudeMeters>
            <DistanceMeters>30639.338601066</DistanceMeters>
          </Trackpoint>
          <Trackpoint>
            <Time>2018-08-26T06:56:48.000Z</Time>
            <Position>
              <LatitudeDegrees>42.93142215348780155181884765625</LatitudeDegrees>
              <LongitudeDegrees>-1.768407560884952545166015625</LongitudeDegrees>
            </Position>
            <AltitudeMeters>583</AltitudeMeters>
            <DistanceMeters>30643.966704492</DistanceMeters>
          </Trackpoint>
          <Trackpoint>
            <Time>2018-08-26T06:56:49.000Z</Time>
            <Position>
              <LatitudeDegrees>42.9314604587852954864501953125</LatitudeDegrees>
              <LongitudeDegrees>-1.76838803105056285858154296875</LongitudeDegrees>
            </Position>
            <AltitudeMeters>583</AltitudeMeters>
            <DistanceMeters>30648.517085277</DistanceMeters>
          </Trackpoint>
          <Trackpoint>
            <Time>2018-08-26T06:56:50.000Z</Time>
            <Position>
              <LatitudeDegrees>42.9314980097115039825439453125</LatitudeDegrees>
              <LongitudeDegrees>-1.76836724393069744110107421875</LongitudeDegrees>
            </Position>
            <AltitudeMeters>583.20001220703125</AltitudeMeters>
            <DistanceMeters>30653.026601011</DistanceMeters>
          </Trackpoint>
          <Trackpoint>
            <Time>2018-08-26T06:56:51.000Z</Time>
            <Position>
              <LatitudeDegrees>42.931534387171268463134765625</LatitudeDegrees>
              <LongitudeDegrees>-1.7683463729918003082275390625</LongitudeDegrees>
            </Position>
            <AltitudeMeters>583.5999755859375</AltitudeMeters>
            <DistanceMeters>30657.418439269</DistanceMeters>
          </Trackpoint>
          <Trackpoint>
            <Time>2018-08-26T06:56:52.000Z</Time>
            <Position>
              <LatitudeDegrees>42.931568920612335205078125</LatitudeDegrees>
              <LongitudeDegrees>-1.768324077129364013671875</LongitudeDegrees>
            </Position>
            <AltitudeMeters>584</AltitudeMeters>
            <DistanceMeters>30661.67028746</DistanceMeters>
          </Trackpoint>
          <Trackpoint>
            <Time>2018-08-26T06:56:53.000Z</Time>
            <Position>
              <LatitudeDegrees>42.93160068802535533905029296875</LatitudeDegrees>
              <LongitudeDegrees>-1.76829884760081768035888671875</LongitudeDegrees>
            </Position>
            <AltitudeMeters>584.20001220703125</AltitudeMeters>
            <DistanceMeters>30665.75974972</DistanceMeters>
          </Trackpoint>
          <Trackpoint>
            <Time>2018-08-26T06:56:54.000Z</Time>
            <Position>
              <LatitudeDegrees>42.9316307790577411651611328125</LatitudeDegrees>
              <LongitudeDegrees>-1.76826967857778072357177734375</LongitudeDegrees>
            </Position>
            <AltitudeMeters>584.5999755859375</AltitudeMeters>
            <DistanceMeters>30669.866839054</DistanceMeters>
          </Trackpoint>
          <Trackpoint>
            <Time>2018-08-26T06:56:55.000Z</Time>
            <Position>
              <LatitudeDegrees>42.93165952898561954498291015625</LatitudeDegrees>
              <LongitudeDegrees>-1.7682342231273651123046875</LongitudeDegrees>
            </Position>
            <AltitudeMeters>584.79998779296875</AltitudeMeters>
            <DistanceMeters>30674.178790746</DistanceMeters>
          </Trackpoint>
          <Trackpoint>
            <Time>2018-08-26T06:56:56.000Z</Time>
            <Position>
              <LatitudeDegrees>42.93168702162802219390869140625</LatitudeDegrees>
              <LongitudeDegrees>-1.76819340325891971588134765625</LongitudeDegrees>
            </Position>
            <AltitudeMeters>585.20001220703125</AltitudeMeters>
            <DistanceMeters>30678.698307636</DistanceMeters>
          </Trackpoint>
          <Trackpoint>
            <Time>2018-08-26T06:56:57.000Z</Time>
            <Position>
              <LatitudeDegrees>42.93170906603336334228515625</LatitudeDegrees>
              <LongitudeDegrees>-1.76814638078212738037109375</LongitudeDegrees>
            </Position>
            <AltitudeMeters>585.4000244140625</AltitudeMeters>
            <DistanceMeters>30683.247696079</DistanceMeters>
          </Trackpoint>
          <Trackpoint>
            <Time>2018-08-26T06:56:58.000Z</Time>
            <Position>
              <LatitudeDegrees>42.9317233152687549591064453125</LatitudeDegrees>
              <LongitudeDegrees>-1.76809416152536869049072265625</LongitudeDegrees>
            </Position>
            <AltitudeMeters>585.79998779296875</AltitudeMeters>
            <DistanceMeters>30687.788143692</DistanceMeters>
          </Trackpoint>
          <Trackpoint>
            <Time>2018-08-26T06:56:59.000Z</Time>
            <Position>
              <LatitudeDegrees>42.931729517877101898193359375</LatitudeDegrees>
              <LongitudeDegrees>-1.76803909242153167724609375</LongitudeDegrees>
            </Position>
            <AltitudeMeters>586</AltitudeMeters>
            <DistanceMeters>30692.327596791</DistanceMeters>
          </Trackpoint>
          <Trackpoint>
            <Time>2018-08-26T06:57:00.000Z</Time>
            <Position>
              <LatitudeDegrees>42.931728847324848175048828125</LatitudeDegrees>
              <LongitudeDegrees>-1.7679812572896480560302734375</LongitudeDegrees>
            </Position>
            <AltitudeMeters>586.20001220703125</AltitudeMeters>
            <DistanceMeters>30697.040768553</DistanceMeters>
          </Trackpoint>
          <Trackpoint>
            <Time>2018-08-26T06:57:01.000Z</Time>
            <Position>
              <LatitudeDegrees>42.9317239858210086822509765625</LatitudeDegrees>
              <LongitudeDegrees>-1.76792032085359096527099609375</LongitudeDegrees>
            </Position>
            <AltitudeMeters>586.5999755859375</AltitudeMeters>
            <DistanceMeters>30702.03668001</DistanceMeters>
          </Trackpoint>
          <Trackpoint>
            <Time>2018-08-26T06:57:02.000Z</Time>
            <Position>
              <LatitudeDegrees>42.9317162744700908660888671875</LatitudeDegrees>
              <LongitudeDegrees>-1.76785980351269245147705078125</LongitudeDegrees>
            </Position>
            <AltitudeMeters>586.79998779296875</AltitudeMeters>
            <DistanceMeters>30707.041620775</DistanceMeters>
          </Trackpoint>
          <Trackpoint>
            <Time>2018-08-26T06:57:03.000Z</Time>
            <Position>
              <LatitudeDegrees>42.9317055456340312957763671875</LatitudeDegrees>
              <LongitudeDegrees>-1.76780037581920623779296875</LongitudeDegrees>
            </Position>
            <AltitudeMeters>587.20001220703125</AltitudeMeters>
            <DistanceMeters>30712.03029702</DistanceMeters>
          </Trackpoint>
          <Trackpoint>
            <Time>2018-08-26T06:57:04.000Z</Time>
            <Position>
              <LatitudeDegrees>42.93169255368411540985107421875</LatitudeDegrees>
              <LongitudeDegrees>-1.767742373049259185791015625</LongitudeDegrees>
            </Position>
            <AltitudeMeters>587.4000244140625</AltitudeMeters>
            <DistanceMeters>30716.973513266</DistanceMeters>
          </Trackpoint>
          <Trackpoint>
            <Time>2018-08-26T06:57:05.000Z</Time>
            <Position>
              <LatitudeDegrees>42.93167914263904094696044921875</LatitudeDegrees>
              <LongitudeDegrees>-1.76768328063189983367919921875</LongitudeDegrees>
            </Position>
            <AltitudeMeters>587.5999755859375</AltitudeMeters>
            <DistanceMeters>30722.014409527</DistanceMeters>
          </Trackpoint>
          <Trackpoint>
            <Time>2018-08-26T06:57:06.000Z</Time>
            <Position>
              <LatitudeDegrees>42.93166757561266422271728515625</LatitudeDegrees>
              <LongitudeDegrees>-1.767623014748096466064453125</LongitudeDegrees>
            </Position>
            <AltitudeMeters>587.79998779296875</AltitudeMeters>
            <DistanceMeters>30727.091006633</DistanceMeters>
          </Trackpoint>
          <Trackpoint>
            <Time>2018-08-26T06:57:07.000Z</Time>
            <Position>
              <LatitudeDegrees>42.931656427681446075439453125</LatitudeDegrees>
              <LongitudeDegrees>-1.76756090484559535980224609375</LongitudeDegrees>
            </Position>
            <AltitudeMeters>588</AltitudeMeters>
            <DistanceMeters>30732.302769285</DistanceMeters>
          </Trackpoint>
          <Trackpoint>
            <Time>2018-08-26T06:57:08.000Z</Time>
            <Position>
              <LatitudeDegrees>42.931645028293132781982421875</LatitudeDegrees>
              <LongitudeDegrees>-1.7674966156482696533203125</LongitudeDegrees>
            </Position>
            <AltitudeMeters>588.20001220703125</AltitudeMeters>
            <DistanceMeters>30737.693389471</DistanceMeters>
          </Trackpoint>
          <Trackpoint>
            <Time>2018-08-26T06:57:09.000Z</Time>
            <Position>
              <LatitudeDegrees>42.931632958352565765380859375</LatitudeDegrees>
              <LongitudeDegrees>-1.76743148826062679290771484375</LongitudeDegrees>
            </Position>
            <AltitudeMeters>588.4000244140625</AltitudeMeters>
            <DistanceMeters>30743.167126188</DistanceMeters>
          </Trackpoint>
          <Trackpoint>
            <Time>2018-08-26T06:57:10.000Z</Time>
            <Position>
              <LatitudeDegrees>42.9316207207739353179931640625</LatitudeDegrees>
              <LongitudeDegrees>-1.76736527122557163238525390625</LongitudeDegrees>
            </Position>
            <AltitudeMeters>588.4000244140625</AltitudeMeters>
            <DistanceMeters>30748.732479924</DistanceMeters>
          </Trackpoint>
          <Trackpoint>
            <Time>2018-08-26T06:57:11.000Z</Time>
            <Position>
              <LatitudeDegrees>42.9316076450049877166748046875</LatitudeDegrees>
              <LongitudeDegrees>-1.76729871891438961029052734375</LongitudeDegrees>
            </Position>
            <AltitudeMeters>588.5999755859375</AltitudeMeters>
            <DistanceMeters>30754.347907507</DistanceMeters>
          </Trackpoint>
          <Trackpoint>
            <Time>2018-08-26T06:57:12.000Z</Time>
            <Position>
              <LatitudeDegrees>42.93159314431250095367431640625</LatitudeDegrees>
              <LongitudeDegrees>-1.7672305740416049957275390625</LongitudeDegrees>
            </Position>
            <AltitudeMeters>588.5999755859375</AltitudeMeters>
            <DistanceMeters>30760.131280497</DistanceMeters>
          </Trackpoint>
          <Trackpoint>
            <Time>2018-08-26T06:57:13.000Z</Time>
            <Position>
              <LatitudeDegrees>42.9315808229148387908935546875</LatitudeDegrees>
              <LongitudeDegrees>-1.7671685479581356048583984375</LongitudeDegrees>
            </Position>
            <AltitudeMeters>588.5999755859375</AltitudeMeters>
            <DistanceMeters>30765.368106078</DistanceMeters>
          </Trackpoint>
          <Trackpoint>
            <Time>2018-08-26T06:57:14.000Z</Time>
            <Position>
              <LatitudeDegrees>42.931567244231700897216796875</LatitudeDegrees>
              <LongitudeDegrees>-1.7671031691133975982666015625</LongitudeDegrees>
            </Position>
            <AltitudeMeters>588.79998779296875</AltitudeMeters>
            <DistanceMeters>30770.907438146</DistanceMeters>
          </Trackpoint>
          <Trackpoint>
            <Time>2018-08-26T06:57:15.000Z</Time>
            <Position>
              <LatitudeDegrees>42.9315540008246898651123046875</LatitudeDegrees>
              <LongitudeDegrees>-1.76703670062124729156494140625</LongitudeDegrees>
            </Position>
            <AltitudeMeters>588.79998779296875</AltitudeMeters>
            <DistanceMeters>30776.521257415</DistanceMeters>
          </Trackpoint>
          <Trackpoint>
            <Time>2018-08-26T06:57:16.000Z</Time>
            <Position>
              <LatitudeDegrees>42.93154302053153514862060546875</LatitudeDegrees>
              <LongitudeDegrees>-1.76696713082492351531982421875</LongitudeDegrees>
            </Position>
            <AltitudeMeters>588.79998779296875</AltitudeMeters>
            <DistanceMeters>30782.321001785</DistanceMeters>
          </Trackpoint>
          <Trackpoint>
            <Time>2018-08-26T06:57:17.000Z</Time>
            <Position>
              <LatitudeDegrees>42.9315322078764438629150390625</LatitudeDegrees>
              <LongitudeDegrees>-1.7668942920863628387451171875</LongitudeDegrees>
            </Position>
            <AltitudeMeters>588.79998779296875</AltitudeMeters>
            <DistanceMeters>30788.377417434</DistanceMeters>
          </Trackpoint>
          <Trackpoint>
            <Time>2018-08-26T06:57:18.000Z</Time>
            <Position>
              <LatitudeDegrees>42.9315204732120037078857421875</LatitudeDegrees>
              <LongitudeDegrees>-1.7668232135474681854248046875</LongitudeDegrees>
            </Position>
            <AltitudeMeters>588.79998779296875</AltitudeMeters>
            <DistanceMeters>30794.316397025</DistanceMeters>
          </Trackpoint>
          <Trackpoint>
            <Time>2018-08-26T06:57:19.000Z</Time>
            <Position>
              <LatitudeDegrees>42.931507565081119537353515625</LatitudeDegrees>
              <LongitudeDegrees>-1.7667517997324466705322265625</LongitudeDegrees>
            </Position>
            <AltitudeMeters>588.79998779296875</AltitudeMeters>
            <DistanceMeters>30800.310617089</DistanceMeters>
          </Trackpoint>
          <Trackpoint>
            <Time>2018-08-26T06:57:20.000Z</Time>
            <Position>
              <LatitudeDegrees>42.93149490840733051300048828125</LatitudeDegrees>
              <LongitudeDegrees>-1.7666810564696788787841796875</LongitudeDegrees>
            </Position>
            <AltitudeMeters>588.79998779296875</AltitudeMeters>
            <DistanceMeters>30806.245033499</DistanceMeters>
          </Trackpoint>
          <Trackpoint>
            <Time>2018-08-26T06:57:21.000Z</Time>
            <Position>
              <LatitudeDegrees>42.9314819164574146270751953125</LatitudeDegrees>
              <LongitudeDegrees>-1.76660855300724506378173828125</LongitudeDegrees>
            </Position>
            <AltitudeMeters>588.79998779296875</AltitudeMeters>
            <DistanceMeters>30812.32822783</DistanceMeters>
          </Trackpoint>
          <Trackpoint>
            <Time>2018-08-26T06:57:22.000Z</Time>
            <Position>
              <LatitudeDegrees>42.93146842159330844879150390625</LatitudeDegrees>
              <LongitudeDegrees>-1.7665362171828746795654296875</LongitudeDegrees>
            </Position>
            <AltitudeMeters>588.79998779296875</AltitudeMeters>
            <DistanceMeters>30818.411422161</DistanceMeters>
          </Trackpoint>
          <Trackpoint>
            <Time>2018-08-26T06:57:23.000Z</Time>
            <Position>
              <LatitudeDegrees>42.9314540885388851165771484375</LatitudeDegrees>
              <LongitudeDegrees>-1.76646463572978973388671875</LongitudeDegrees>
            </Position>
            <AltitudeMeters>588.79998779296875</AltitudeMeters>
            <DistanceMeters>30824.458138586</DistanceMeters>
          </Trackpoint>
          <Trackpoint>
            <Time>2018-08-26T06:57:24.000Z</Time>
            <Position>
              <LatitudeDegrees>42.93144084513187408447265625</LatitudeDegrees>
              <LongitudeDegrees>-1.7663927190005779266357421875</LongitudeDegrees>
            </Position>
            <AltitudeMeters>589</AltitudeMeters>
            <DistanceMeters>30830.500373194</DistanceMeters>
          </Trackpoint>
          <Trackpoint>
            <Time>2018-08-26T06:57:25.000Z</Time>
            <Position>
              <LatitudeDegrees>42.93143137358129024505615234375</LatitudeDegrees>
              <LongitudeDegrees>-1.7663290165364742279052734375</LongitudeDegrees>
            </Position>
            <AltitudeMeters>589</AltitudeMeters>
            <DistanceMeters>30835.797206919</DistanceMeters>
          </Trackpoint>
          <Trackpoint>
            <Time>2018-08-26T06:57:26.000Z</Time>
            <Position>
              <LatitudeDegrees>42.93141980655491352081298828125</LatitudeDegrees>
              <LongitudeDegrees>-1.76625969819724559783935546875</LongitudeDegrees>
            </Position>
            <AltitudeMeters>589</AltitudeMeters>
            <DistanceMeters>30841.591499302</DistanceMeters>
          </Trackpoint>
          <Trackpoint>
            <Time>2018-08-26T06:57:27.000Z</Time>
            <Position>
              <LatitudeDegrees>42.9314068146049976348876953125</LatitudeDegrees>
              <LongitudeDegrees>-1.7661902122199535369873046875</LongitudeDegrees>
            </Position>
            <AltitudeMeters>589.20001220703125</AltitudeMeters>
            <DistanceMeters>30847.435449089</DistanceMeters>
          </Trackpoint>
          <Trackpoint>
            <Time>2018-08-26T06:57:28.000Z</Time>
            <Position>
              <LatitudeDegrees>42.9313907213509082794189453125</LatitudeDegrees>
              <LongitudeDegrees>-1.7661214806139469146728515625</LongitudeDegrees>
            </Position>
            <AltitudeMeters>589.20001220703125</AltitudeMeters>
            <DistanceMeters>30853.316366771</DistanceMeters>
          </Trackpoint>
          <Trackpoint>
            <Time>2018-08-26T06:57:29.000Z</Time>
            <Position>
              <LatitudeDegrees>42.93137655593454837799072265625</LatitudeDegrees>
              <LongitudeDegrees>-1.76604948006570339202880859375</LongitudeDegrees>
            </Position>
            <AltitudeMeters>589.20001220703125</AltitudeMeters>
            <DistanceMeters>30859.392134418</DistanceMeters>
          </Trackpoint>
          <Trackpoint>
            <Time>2018-08-26T06:57:30.000Z</Time>
            <Position>
              <LatitudeDegrees>42.9313645698130130767822265625</LatitudeDegrees>
              <LongitudeDegrees>-1.76597756333649158477783203125</LongitudeDegrees>
            </Position>
            <AltitudeMeters>589.20001220703125</AltitudeMeters>
            <DistanceMeters>30865.402902743</DistanceMeters>
          </Trackpoint>
          <Trackpoint>
            <Time>2018-08-26T06:57:31.000Z</Time>
            <Position>
              <LatitudeDegrees>42.93135107494890689849853515625</LatitudeDegrees>
              <LongitudeDegrees>-1.76590405404567718505859375</LongitudeDegrees>
            </Position>
            <AltitudeMeters>589.20001220703125</AltitudeMeters>
            <DistanceMeters>30871.578908159</DistanceMeters>
          </Trackpoint>
          <Trackpoint>
            <Time>2018-08-26T06:57:32.000Z</Time>
            <Position>
              <LatitudeDegrees>42.93133783154189586639404296875</LatitudeDegrees>
              <LongitudeDegrees>-1.7658291198313236236572265625</LongitudeDegrees>
            </Position>
            <AltitudeMeters>589.20001220703125</AltitudeMeters>
            <DistanceMeters>30877.860023027</DistanceMeters>
          </Trackpoint>
          <Trackpoint>
            <Time>2018-08-26T06:57:33.000Z</Time>
            <Position>
              <LatitudeDegrees>42.93132416903972625732421875</LatitudeDegrees>
              <LongitudeDegrees>-1.7657550238072872161865234375</LongitudeDegrees>
            </Position>
            <AltitudeMeters>589.20001220703125</AltitudeMeters>
            <DistanceMeters>30884.086992454</DistanceMeters>
          </Trackpoint>
          <Trackpoint>
            <Time>2018-08-26T06:57:34.000Z</Time>
            <Position>
              <LatitudeDegrees>42.931310422718524932861328125</LatitudeDegrees>
              <LongitudeDegrees>-1.76568252034485340118408203125</LongitudeDegrees>
            </Position>
            <AltitudeMeters>589.20001220703125</AltitudeMeters>
            <DistanceMeters>30890.190933428</DistanceMeters>
          </Trackpoint>
          <Trackpoint>
            <Time>2018-08-26T06:57:35.000Z</Time>
            <Position>
              <LatitudeDegrees>42.93129793368279933929443359375</LatitudeDegrees>
              <LongitudeDegrees>-1.7656111903488636016845703125</LongitudeDegrees>
            </Position>
            <AltitudeMeters>589.20001220703125</AltitudeMeters>
            <DistanceMeters>30896.167804048</DistanceMeters>
          </Trackpoint>
          <Trackpoint>
            <Time>2018-08-26T06:57:36.000Z</Time>
            <Position>
              <LatitudeDegrees>42.93128485791385173797607421875</LatitudeDegrees>
              <LongitudeDegrees>-1.765539944171905517578125</LongitudeDegrees>
            </Position>
            <AltitudeMeters>589.4000244140625</AltitudeMeters>
            <DistanceMeters>30902.153732826</DistanceMeters>
          </Trackpoint>
          <Trackpoint>
            <Time>2018-08-26T06:57:37.000Z</Time>
            <Position>
              <LatitudeDegrees>42.9312725365161895751953125</LatitudeDegrees>
              <LongitudeDegrees>-1.7654727213084697723388671875</LongitudeDegrees>
            </Position>
            <AltitudeMeters>589.4000244140625</AltitudeMeters>
            <DistanceMeters>30907.800430969</DistanceMeters>
          </Trackpoint>
          <Trackpoint>
            <Time>2018-08-26T06:57:38.000Z</Time>
            <Position>
              <LatitudeDegrees>42.93126247823238372802734375</LatitudeDegrees>
              <LongitudeDegrees>-1.76540960557758808135986328125</LongitudeDegrees>
            </Position>
            <AltitudeMeters>589.4000244140625</AltitudeMeters>
            <DistanceMeters>30913.063915987</DistanceMeters>
          </Trackpoint>
          <Trackpoint>
            <Time>2018-08-26T06:57:39.000Z</Time>
            <Position>
              <LatitudeDegrees>42.93125015683472156524658203125</LatitudeDegrees>
              <LongitudeDegrees>-1.7653439752757549285888671875</LongitudeDegrees>
            </Position>
            <AltitudeMeters>589.5999755859375</AltitudeMeters>
            <DistanceMeters>30918.585287019</DistanceMeters>
          </Trackpoint>
          <Trackpoint>
            <Time>2018-08-26T06:57:40.000Z</Time>
            <Position>
              <LatitudeDegrees>42.93123724870383739471435546875</LatitudeDegrees>
              <LongitudeDegrees>-1.76527717150747776031494140625</LongitudeDegrees>
            </Position>
            <AltitudeMeters>589.5999755859375</AltitudeMeters>
            <DistanceMeters>30924.215168751</DistanceMeters>
          </Trackpoint>
          <Trackpoint>
            <Time>2018-08-26T06:57:41.000Z</Time>
            <Position>
              <LatitudeDegrees>42.93122635222971439361572265625</LatitudeDegrees>
              <LongitudeDegrees>-1.76521346904337406158447265625</LongitudeDegrees>
            </Position>
            <AltitudeMeters>589.79998779296875</AltitudeMeters>
            <DistanceMeters>30929.546836468</DistanceMeters>
          </Trackpoint>
          <Trackpoint>
            <Time>2018-08-26T06:57:42.000Z</Time>
            <Position>
              <LatitudeDegrees>42.9312163777649402618408203125</LatitudeDegrees>
              <LongitudeDegrees>-1.76515102386474609375</LongitudeDegrees>
            </Position>
            <AltitudeMeters>589.79998779296875</AltitudeMeters>
            <DistanceMeters>30934.7551327</DistanceMeters>
          </Trackpoint>
          <Trackpoint>
            <Time>2018-08-26T06:57:43.000Z</Time>
            <Position>
              <LatitudeDegrees>42.93120724149048328399658203125</LatitudeDegrees>
              <LongitudeDegrees>-1.7650888301432132720947265625</LongitudeDegrees>
            </Position>
            <AltitudeMeters>589.79998779296875</AltitudeMeters>
            <DistanceMeters>30939.924271525</DistanceMeters>
          </Trackpoint>
          <Trackpoint>
            <Time>2018-08-26T06:57:44.000Z</Time>
            <Position>
              <LatitudeDegrees>42.93119936250150203704833984375</LatitudeDegrees>
              <LongitudeDegrees>-1.76502697169780731201171875</LongitudeDegrees>
            </Position>
            <AltitudeMeters>590</AltitudeMeters>
            <DistanceMeters>30945.039851799</DistanceMeters>
          </Trackpoint>
          <Trackpoint>
            <Time>2018-08-26T06:57:45.000Z</Time>
            <Position>
              <LatitudeDegrees>42.93119114823639392852783203125</LatitudeDegrees>
              <LongitudeDegrees>-1.76496620289981365203857421875</LongitudeDegrees>
            </Position>
            <AltitudeMeters>590</AltitudeMeters>
            <DistanceMeters>30950.075371102</DistanceMeters>
          </Trackpoint>
          <Trackpoint>
            <Time>2018-08-26T06:57:46.000Z</Time>
            <Position>
              <LatitudeDegrees>42.93118293397128582000732421875</LatitudeDegrees>
              <LongitudeDegrees>-1.76491054706275463104248046875</LongitudeDegrees>
            </Position>
            <AltitudeMeters>590.20001220703125</AltitudeMeters>
            <DistanceMeters>30954.702498856</DistanceMeters>
          </Trackpoint>
          <Trackpoint>
            <Time>2018-08-26T06:57:47.000Z</Time>
            <Position>
              <LatitudeDegrees>42.9311721213161945343017578125</LatitudeDegrees>
              <LongitudeDegrees>-1.76485556177794933319091796875</LongitudeDegrees>
            </Position>
            <AltitudeMeters>590.5999755859375</AltitudeMeters>
            <DistanceMeters>30959.342294352</DistanceMeters>
          </Trackpoint>
          <Trackpoint>
            <Time>2018-08-26T06:57:48.000Z</Time>
            <Position>
              <LatitudeDegrees>42.93116114102303981781005859375</LatitudeDegrees>
              <LongitudeDegrees>-1.76479890011250972747802734375</LongitudeDegrees>
            </Position>
            <AltitudeMeters>590.79998779296875</AltitudeMeters>
            <DistanceMeters>30964.11827311</DistanceMeters>
          </Trackpoint>
          <Trackpoint>
            <Time>2018-08-26T06:57:49.000Z</Time>
            <Position>
              <LatitudeDegrees>42.93115108273923397064208984375</LatitudeDegrees>
              <LongitudeDegrees>-1.76474131643772125244140625</LongitudeDegrees>
            </Position>
            <AltitudeMeters>591</AltitudeMeters>
            <DistanceMeters>30968.942224498</DistanceMeters>
          </Trackpoint>
          <Trackpoint>
            <Time>2018-08-26T06:57:50.000Z</Time>
            <Position>
              <LatitudeDegrees>42.9311392642557621002197265625</LatitudeDegrees>
              <LongitudeDegrees>-1.76468708552420139312744140625</LongitudeDegrees>
            </Position>
            <AltitudeMeters>591.4000244140625</AltitudeMeters>
            <DistanceMeters>30973.552734226</DistanceMeters>
          </Trackpoint>
          <Trackpoint>
            <Time>2018-08-26T06:57:51.000Z</Time>
            <Position>
              <LatitudeDegrees>42.93112434446811676025390625</LatitudeDegrees>
              <LongitudeDegrees>-1.76463411189615726470947265625</LongitudeDegrees>
            </Position>
            <AltitudeMeters>591.5999755859375</AltitudeMeters>
            <DistanceMeters>30978.177910016</DistanceMeters>
          </Trackpoint>
          <Trackpoint>
            <Time>2018-08-26T06:57:52.000Z</Time>
            <Position>
              <LatitudeDegrees>42.9311080835759639739990234375</LatitudeDegrees>
              <LongitudeDegrees>-1.76457862369716167449951171875</LongitudeDegrees>
            </Position>
            <AltitudeMeters>591.79998779296875</AltitudeMeters>
            <DistanceMeters>30983.047507612</DistanceMeters>
          </Trackpoint>
          <Trackpoint>
            <Time>2018-08-26T06:57:53.000Z</Time>
            <Position>
              <LatitudeDegrees>42.9310913197696208953857421875</LatitudeDegrees>
              <LongitudeDegrees>-1.76452565006911754608154296875</LongitudeDegrees>
            </Position>
            <AltitudeMeters>591.79998779296875</AltitudeMeters>
            <DistanceMeters>30987.751090001</DistanceMeters>
          </Trackpoint>
          <Trackpoint>
            <Time>2018-08-26T06:57:54.000Z</Time>
            <Position>
              <LatitudeDegrees>42.9310718737542629241943359375</LatitudeDegrees>
              <LongitudeDegrees>-1.764473430812358856201171875</LongitudeDegrees>
            </Position>
            <AltitudeMeters>592.20001220703125</AltitudeMeters>
            <DistanceMeters>30992.525177656</DistanceMeters>
          </Trackpoint>
          <Trackpoint>
            <Time>2018-08-26T06:57:55.000Z</Time>
            <Position>
              <LatitudeDegrees>42.93104848824441432952880859375</LatitudeDegrees>
              <LongitudeDegrees>-1.76442104391753673553466796875</LongitudeDegrees>
            </Position>
            <AltitudeMeters>592.4000244140625</AltitudeMeters>
            <DistanceMeters>30997.524702793</DistanceMeters>
          </Trackpoint>
          <Trackpoint>
            <Time>2018-08-26T06:57:56.000Z</Time>
            <Position>
              <LatitudeDegrees>42.9310222528874874114990234375</LatitudeDegrees>
              <LongitudeDegrees>-1.7643642984330654144287109375</LongitudeDegrees>
            </Position>
            <AltitudeMeters>592.5999755859375</AltitudeMeters>
            <DistanceMeters>31002.993488141</DistanceMeters>
          </Trackpoint>
          <Trackpoint>
            <Time>2018-08-26T06:57:57.000Z</Time>
            <Position>
              <LatitudeDegrees>42.93099920265376567840576171875</LatitudeDegrees>
              <LongitudeDegrees>-1.764307804405689239501953125</LongitudeDegrees>
            </Position>
            <AltitudeMeters>593</AltitudeMeters>
            <DistanceMeters>31008.263831123</DistanceMeters>
          </Trackpoint>
          <Trackpoint>
            <Time>2018-08-26T06:57:58.000Z</Time>
            <Position>
              <LatitudeDegrees>42.93097414076328277587890625</LatitudeDegrees>
              <LongitudeDegrees>-1.76425038836896419525146484375</LongitudeDegrees>
            </Position>
            <AltitudeMeters>593.20001220703125</AltitudeMeters>
            <DistanceMeters>31013.711108534</DistanceMeters>
          </Trackpoint>
          <Trackpoint>
            <Time>2018-08-26T06:57:59.000Z</Time>
            <Position>
              <LatitudeDegrees>42.93094555847346782684326171875</LatitudeDegrees>
              <LongitudeDegrees>-1.7641969956457614898681640625</LongitudeDegrees>
            </Position>
            <AltitudeMeters>593.4000244140625</AltitudeMeters>
            <DistanceMeters>31019.101728721</DistanceMeters>
          </Trackpoint>
          <Trackpoint>
            <Time>2018-08-26T06:58:00.000Z</Time>
            <Position>
              <LatitudeDegrees>42.93091622181236743927001953125</LatitudeDegrees>
              <LongitudeDegrees>-1.76414645276963710784912109375</LongitudeDegrees>
            </Position>
            <AltitudeMeters>593.79998779296875</AltitudeMeters>
            <DistanceMeters>31024.358346827</DistanceMeters>
          </Trackpoint>
          <Trackpoint>
            <Time>2018-08-26T06:58:01.000Z</Time>
            <Position>
              <LatitudeDegrees>42.93088789097964763641357421875</LatitudeDegrees>
              <LongitudeDegrees>-1.7640964128077030181884765625</LongitudeDegrees>
            </Position>
            <AltitudeMeters>594</AltitudeMeters>
            <DistanceMeters>31029.512615437</DistanceMeters>
          </Trackpoint>
          <Trackpoint>
            <Time>2018-08-26T06:58:02.000Z</Time>
            <Position>
              <LatitudeDegrees>42.9308616556227207183837890625</LatitudeDegrees>
              <LongitudeDegrees>-1.7640464566648006439208984375</LongitudeDegrees>
            </Position>
            <AltitudeMeters>594.20001220703125</AltitudeMeters>
            <DistanceMeters>31034.522965975</DistanceMeters>
          </Trackpoint>
          <Trackpoint>
            <Time>2018-08-26T06:58:03.000Z</Time>
            <Position>
              <LatitudeDegrees>42.930834330618381500244140625</LatitudeDegrees>
              <LongitudeDegrees>-1.7639958299696445465087890625</LongitudeDegrees>
            </Position>
            <AltitudeMeters>594.5999755859375</AltitudeMeters>
            <DistanceMeters>31039.64912657</DistanceMeters>
          </Trackpoint>
          <Trackpoint>
            <Time>2018-08-26T06:58:04.000Z</Time>
            <Position>
              <LatitudeDegrees>42.93080926872789859771728515625</LatitudeDegrees>
              <LongitudeDegrees>-1.76394931040704250335693359375</LongitudeDegrees>
            </Position>
            <AltitudeMeters>594.79998779296875</AltitudeMeters>
            <DistanceMeters>31044.356547052</DistanceMeters>
          </Trackpoint>
          <Trackpoint>
            <Time>2018-08-26T06:58:05.000Z</Time>
            <Position>
              <LatitudeDegrees>42.930785715579986572265625</LatitudeDegrees>
              <LongitudeDegrees>-1.76390371285378932952880859375</LongitudeDegrees>
            </Position>
            <AltitudeMeters>595.20001220703125</AltitudeMeters>
            <DistanceMeters>31048.903950164</DistanceMeters>
          </Trackpoint>
          <Trackpoint>
            <Time>2018-08-26T06:58:06.000Z</Time>
            <Position>
              <LatitudeDegrees>42.930764257907867431640625</LatitudeDegrees>
              <LongitudeDegrees>-1.76385610364377498626708984375</LongitudeDegrees>
            </Position>
            <AltitudeMeters>595.20001220703125</AltitudeMeters>
            <DistanceMeters>31053.460280457</DistanceMeters>
          </Trackpoint>
          <Trackpoint>
            <Time>2018-08-26T06:58:07.000Z</Time>
            <Position>
              <LatitudeDegrees>42.9307439737021923065185546875</LatitudeDegrees>
              <LongitudeDegrees>-1.7638000287115573883056640625</LongitudeDegrees>
            </Position>
            <AltitudeMeters>595.4000244140625</AltitudeMeters>
            <DistanceMeters>31058.55729232</DistanceMeters>
          </Trackpoint>
          <Trackpoint>
            <Time>2018-08-26T06:58:08.000Z</Time>
            <Position>
              <LatitudeDegrees>42.93072829954326152801513671875</LatitudeDegrees>
              <LongitudeDegrees>-1.7637430317699909210205078125</LongitudeDegrees>
            </Position>
            <AltitudeMeters>595.5999755859375</AltitudeMeters>
            <DistanceMeters>31063.51874255</DistanceMeters>
          </Trackpoint>
          <Trackpoint>
            <Time>2018-08-26T06:58:09.000Z</Time>
            <Position>
              <LatitudeDegrees>42.93071790598332881927490234375</LatitudeDegrees>
              <LongitudeDegrees>-1.76368611864745616912841796875</LongitudeDegrees>
            </Position>
            <AltitudeMeters>595.79998779296875</AltitudeMeters>
            <DistanceMeters>31068.298501268</DistanceMeters>
          </Trackpoint>
          <Trackpoint>
            <Time>2018-08-26T06:58:10.000Z</Time>
            <Position>
              <LatitudeDegrees>42.930716983973979949951171875</LatitudeDegrees>
              <LongitudeDegrees>-1.7636236734688282012939453125</LongitudeDegrees>
            </Position>
            <AltitudeMeters>596</AltitudeMeters>
            <DistanceMeters>31073.388421633</DistanceMeters>
          </Trackpoint>
          <Trackpoint>
            <Time>2018-08-26T06:58:11.000Z</Time>
            <Position>
              <LatitudeDegrees>42.9307198338210582733154296875</LatitudeDegrees>
              <LongitudeDegrees>-1.76355971954762935638427734375</LongitudeDegrees>
            </Position>
            <AltitudeMeters>596.20001220703125</AltitudeMeters>
            <DistanceMeters>31078.608840266</DistanceMeters>
          </Trackpoint>
          <Trackpoint>
            <Time>2018-08-26T06:58:12.000Z</Time>
            <Position>
              <LatitudeDegrees>42.9307329095900058746337890625</LatitudeDegrees>
              <LongitudeDegrees>-1.7635029740631580352783203125</LongitudeDegrees>
            </Position>
            <AltitudeMeters>596.5999755859375</AltitudeMeters>
            <DistanceMeters>31083.456134244</DistanceMeters>
          </Trackpoint>
          <Trackpoint>
            <Time>2018-08-26T06:58:13.000Z</Time>
            <Position>
              <LatitudeDegrees>42.930752523243427276611328125</LatitudeDegrees>
              <LongitudeDegrees>-1.76345377229154109954833984375</LongitudeDegrees>
            </Position>
            <AltitudeMeters>596.79998779296875</AltitudeMeters>
            <DistanceMeters>31088.021374263</DistanceMeters>
          </Trackpoint>
          <Trackpoint>
            <Time>2018-08-26T06:58:14.000Z</Time>
            <Position>
              <LatitudeDegrees>42.9307754896581172943115234375</LatitudeDegrees>
              <LongitudeDegrees>-1.7634107731282711029052734375</LongitudeDegrees>
            </Position>
            <AltitudeMeters>597.20001220703125</AltitudeMeters>
            <DistanceMeters>31092.358383513</DistanceMeters>
          </Trackpoint>
          <Trackpoint>
            <Time>2018-08-26T06:58:15.000Z</Time>
            <Position>
              <LatitudeDegrees>42.9307992942631244659423828125</LatitudeDegrees>
              <LongitudeDegrees>-1.7633794248104095458984375</LongitudeDegrees>
            </Position>
            <AltitudeMeters>597.4000244140625</AltitudeMeters>
            <DistanceMeters>31096.038752335</DistanceMeters>
          </Trackpoint>
          <Trackpoint>
            <Time>2018-08-26T06:58:16.000Z</Time>
            <Position>
              <LatitudeDegrees>42.9308237694203853607177734375</LatitudeDegrees>
              <LongitudeDegrees>-1.76334883086383342742919921875</LongitudeDegrees>
            </Position>
            <AltitudeMeters>597.5999755859375</AltitudeMeters>
            <DistanceMeters>31099.731368674</DistanceMeters>
          </Trackpoint>
          <Trackpoint>
            <Time>2018-08-26T06:58:17.000Z</Time>
            <Position>
              <LatitudeDegrees>42.9308556206524372100830078125</LatitudeDegrees>
              <LongitudeDegrees>-1.76332938484847545623779296875</LongitudeDegrees>
            </Position>
            <AltitudeMeters>597.79998779296875</AltitudeMeters>
            <DistanceMeters>31103.614695555</DistanceMeters>
          </Trackpoint>
          <Trackpoint>
            <Time>2018-08-26T06:58:18.000Z</Time>
            <Position>
              <LatitudeDegrees>42.930893003940582275390625</LatitudeDegrees>
              <LongitudeDegrees>-1.763309352099895477294921875</LongitudeDegrees>
            </Position>
            <AltitudeMeters>598</AltitudeMeters>
            <DistanceMeters>31108.083982869</DistanceMeters>
          </Trackpoint>
          <Trackpoint>
            <Time>2018-08-26T06:58:19.000Z</Time>
            <Position>
              <LatitudeDegrees>42.9309372603893280029296875</LatitudeDegrees>
              <LongitudeDegrees>-1.7633004672825336456298828125</LongitudeDegrees>
            </Position>
            <AltitudeMeters>598.5999755859375</AltitudeMeters>
            <DistanceMeters>31113.062693529</DistanceMeters>
          </Trackpoint>
          <Trackpoint>
            <Time>2018-08-26T06:58:20.000Z</Time>
            <Position>
              <LatitudeDegrees>42.93098210357129573822021484375</LatitudeDegrees>
              <LongitudeDegrees>-1.76329560577869415283203125</LongitudeDegrees>
            </Position>
            <AltitudeMeters>598.79998779296875</AltitudeMeters>
            <DistanceMeters>31118.068536329</DistanceMeters>
          </Trackpoint>
          <Trackpoint>
            <Time>2018-08-26T06:58:21.000Z</Time>
            <Position>
              <LatitudeDegrees>42.9310230910778045654296875</LatitudeDegrees>
              <LongitudeDegrees>-1.76328998990356922149658203125</LongitudeDegrees>
            </Position>
            <AltitudeMeters>599</AltitudeMeters>
            <DistanceMeters>31122.653513751</DistanceMeters>
          </Trackpoint>
          <Trackpoint>
            <Time>2018-08-26T06:58:22.000Z</Time>
            <Position>
              <LatitudeDegrees>42.931062988936901092529296875</LatitudeDegrees>
              <LongitudeDegrees>-1.7632840387523174285888671875</LongitudeDegrees>
            </Position>
            <AltitudeMeters>599.4000244140625</AltitudeMeters>
            <DistanceMeters>31127.120780134</DistanceMeters>
          </Trackpoint>
          <Trackpoint>
            <Time>2018-08-26T06:58:23.000Z</Time>
            <Position>
              <LatitudeDegrees>42.93110330589115619659423828125</LatitudeDegrees>
              <LongitudeDegrees>-1.763282530009746551513671875</LongitudeDegrees>
            </Position>
            <AltitudeMeters>599.79998779296875</AltitudeMeters>
            <DistanceMeters>31131.610226717</DistanceMeters>
          </Trackpoint>
          <Trackpoint>
            <Time>2018-08-26T06:58:24.000Z</Time>
            <Position>
              <LatitudeDegrees>42.931145131587982177734375</LatitudeDegrees>
              <LongitudeDegrees>-1.76328328438103199005126953125</LongitudeDegrees>
            </Position>
            <AltitudeMeters>600</AltitudeMeters>
            <DistanceMeters>31136.266535721</DistanceMeters>
          </Trackpoint>
          <Trackpoint>
            <Time>2018-08-26T06:58:25.000Z</Time>
            <Position>
              <LatitudeDegrees>42.93118393979966640472412109375</LatitudeDegrees>
              <LongitudeDegrees>-1.76328177563846111297607421875</LongitudeDegrees>
            </Position>
            <AltitudeMeters>600.20001220703125</AltitudeMeters>
            <DistanceMeters>31140.587901025</DistanceMeters>
          </Trackpoint>
          <Trackpoint>
            <Time>2018-08-26T06:58:26.000Z</Time>
            <Position>
              <LatitudeDegrees>42.931214533746242523193359375</LatitudeDegrees>
              <LongitudeDegrees>-1.7632810212671756744384765625</LongitudeDegrees>
            </Position>
            <AltitudeMeters>600.5999755859375</AltitudeMeters>
            <DistanceMeters>31143.994313835</DistanceMeters>
          </Trackpoint>
          <Trackpoint>
            <Time>2018-08-26T06:58:27.000Z</Time>
            <Position>
              <LatitudeDegrees>42.93125032447278499603271484375</LatitudeDegrees>
              <LongitudeDegrees>-1.76328076981008052825927734375</LongitudeDegrees>
            </Position>
            <AltitudeMeters>600.79998779296875</AltitudeMeters>
            <DistanceMeters>31147.978642434</DistanceMeters>
          </Trackpoint>
          <Trackpoint>
            <Time>2018-08-26T06:58:28.000Z</Time>
            <Position>
              <LatitudeDegrees>42.93128938414156436920166015625</LatitudeDegrees>
              <LongitudeDegrees>-1.76328093744814395904541015625</LongitudeDegrees>
            </Position>
            <AltitudeMeters>601</AltitudeMeters>
            <DistanceMeters>31152.326049707</DistanceMeters>
          </Trackpoint>
          <Trackpoint>
            <Time>2018-08-26T06:58:29.000Z</Time>
            <Position>
              <LatitudeDegrees>42.93133028782904148101806640625</LatitudeDegrees>
              <LongitudeDegrees>-1.7632793448865413665771484375</LongitudeDegrees>
            </Position>
            <AltitudeMeters>601.20001220703125</AltitudeMeters>
            <DistanceMeters>31156.880397695</DistanceMeters>
          </Trackpoint>
          <Trackpoint>
            <Time>2018-08-26T06:58:30.000Z</Time>
            <Position>
              <LatitudeDegrees>42.93137353844940662384033203125</LatitudeDegrees>
              <LongitudeDegrees>-1.76327473483979701995849609375</LongitudeDegrees>
            </Position>
            <AltitudeMeters>601.4000244140625</AltitudeMeters>
            <DistanceMeters>31161.709026628</DistanceMeters>
          </Trackpoint>
          <Trackpoint>
            <Time>2018-08-26T06:58:31.000Z</Time>
            <Position>
              <LatitudeDegrees>42.93141729198396205902099609375</LatitudeDegrees>
              <LongitudeDegrees>-1.76327322609722614288330078125</LongitudeDegrees>
            </Position>
            <AltitudeMeters>601.5999755859375</AltitudeMeters>
            <DistanceMeters>31166.580478249</DistanceMeters>
          </Trackpoint>
          <Trackpoint>
            <Time>2018-08-26T06:58:32.000Z</Time>
            <Position>
              <LatitudeDegrees>42.9314602911472320556640625</LatitudeDegrees>
              <LongitudeDegrees>-1.7632682807743549346923828125</LongitudeDegrees>
            </Position>
            <AltitudeMeters>602</AltitudeMeters>
            <DistanceMeters>31171.382854248</DistanceMeters>
          </Trackpoint>
          <Trackpoint>
            <Time>2018-08-26T06:58:33.000Z</Time>
            <Position>
              <LatitudeDegrees>42.93150614015758037567138671875</LatitudeDegrees>
              <LongitudeDegrees>-1.763264425098896026611328125</LongitudeDegrees>
            </Position>
            <AltitudeMeters>602.20001220703125</AltitudeMeters>
            <DistanceMeters>31176.49578602</DistanceMeters>
          </Trackpoint>
          <Trackpoint>
            <Time>2018-08-26T06:58:34.000Z</Time>
            <Position>
              <LatitudeDegrees>42.93154888786375522613525390625</LatitudeDegrees>
              <LongitudeDegrees>-1.76326333545148372650146484375</LongitudeDegrees>
            </Position>
            <AltitudeMeters>602.4000244140625</AltitudeMeters>
            <DistanceMeters>31181.254717804</DistanceMeters>
          </Trackpoint>
          <Trackpoint>
            <Time>2018-08-26T06:58:35.000Z</Time>
            <Position>
              <LatitudeDegrees>42.93159062974154949188232421875</LatitudeDegrees>
              <LongitudeDegrees>-1.7632612399756908416748046875</LongitudeDegrees>
            </Position>
            <AltitudeMeters>602.5999755859375</AltitudeMeters>
            <DistanceMeters>31185.904234231</DistanceMeters>
          </Trackpoint>
          <Trackpoint>
            <Time>2018-08-26T06:58:36.000Z</Time>
            <Position>
              <LatitudeDegrees>42.9316358081996440887451171875</LatitudeDegrees>
              <LongitudeDegrees>-1.7632578872144222259521484375</LongitudeDegrees>
            </Position>
            <AltitudeMeters>602.5999755859375</AltitudeMeters>
            <DistanceMeters>31190.939753535</DistanceMeters>
          </Trackpoint>
          <Trackpoint>
            <Time>2018-08-26T06:58:37.000Z</Time>
            <Position>
              <LatitudeDegrees>42.931679226458072662353515625</LatitudeDegrees>
              <LongitudeDegrees>-1.7632605694234371185302734375</LongitudeDegrees>
            </Position>
            <AltitudeMeters>602.79998779296875</AltitudeMeters>
            <DistanceMeters>31195.777723992</DistanceMeters>
          </Trackpoint>
          <Trackpoint>
            <Time>2018-08-26T06:58:38.000Z</Time>
            <Position>
              <LatitudeDegrees>42.93172172270715236663818359375</LatitudeDegrees>
              <LongitudeDegrees>-1.763263083994388580322265625</LongitudeDegrees>
            </Position>
            <AltitudeMeters>603</AltitudeMeters>
            <DistanceMeters>31200.512877612</DistanceMeters>
          </Trackpoint>
          <Trackpoint>
            <Time>2018-08-26T06:58:39.000Z</Time>
            <Position>
              <LatitudeDegrees>42.931766398251056671142578125</LatitudeDegrees>
              <LongitudeDegrees>-1.76326182670891284942626953125</LongitudeDegrees>
            </Position>
            <AltitudeMeters>603.20001220703125</AltitudeMeters>
            <DistanceMeters>31205.487051861</DistanceMeters>
          </Trackpoint>
          <Trackpoint>
            <Time>2018-08-26T06:58:40.000Z</Time>
            <Position>
              <LatitudeDegrees>42.9318114928901195526123046875</LatitudeDegrees>
              <LongitudeDegrees>-1.7632612399756908416748046875</LongitudeDegrees>
            </Position>
            <AltitudeMeters>603.5999755859375</AltitudeMeters>
            <DistanceMeters>31210.506405731</DistanceMeters>
          </Trackpoint>
          <Trackpoint>
            <Time>2018-08-26T06:58:41.000Z</Time>
            <Position>
              <LatitudeDegrees>42.9318545758724212646484375</LatitudeDegrees>
              <LongitudeDegrees>-1.763257049024105072021484375</LongitudeDegrees>
            </Position>
            <AltitudeMeters>603.79998779296875</AltitudeMeters>
            <DistanceMeters>31215.314419427</DistanceMeters>
          </Trackpoint>
          <Trackpoint>
            <Time>2018-08-26T06:58:42.000Z</Time>
            <Position>
              <LatitudeDegrees>42.93189874850213527679443359375</LatitudeDegrees>
              <LongitudeDegrees>-1.76325093023478984832763671875</LongitudeDegrees>
            </Position>
            <AltitudeMeters>604.20001220703125</AltitudeMeters>
            <DistanceMeters>31220.254894771</DistanceMeters>
          </Trackpoint>
          <Trackpoint>
            <Time>2018-08-26T06:58:43.000Z</Time>
            <Position>
              <LatitudeDegrees>42.931940741837024688720703125</LatitudeDegrees>
              <LongitudeDegrees>-1.76323927938938140869140625</LongitudeDegrees>
            </Position>
            <AltitudeMeters>604.5999755859375</AltitudeMeters>
            <DistanceMeters>31225.02330462</DistanceMeters>
          </Trackpoint>
          <Trackpoint>
            <Time>2018-08-26T06:58:44.000Z</Time>
            <Position>
              <LatitudeDegrees>42.9319858364760875701904296875</LatitudeDegrees>
              <LongitudeDegrees>-1.76322461105883121490478515625</LongitudeDegrees>
            </Position>
            <AltitudeMeters>604.79998779296875</AltitudeMeters>
            <DistanceMeters>31230.182826435</DistanceMeters>
          </Trackpoint>
          <Trackpoint>
            <Time>2018-08-26T06:58:45.000Z</Time>
            <Position>
              <LatitudeDegrees>42.93203067965805530548095703125</LatitudeDegrees>
              <LongitudeDegrees>-1.76320851780474185943603515625</LongitudeDegrees>
            </Position>
            <AltitudeMeters>605</AltitudeMeters>
            <DistanceMeters>31235.34234825</DistanceMeters>
          </Trackpoint>
          <Trackpoint>
            <Time>2018-08-26T06:58:46.000Z</Time>
            <Position>
              <LatitudeDegrees>42.932068817317485809326171875</LatitudeDegrees>
              <LongitudeDegrees>-1.7631874792277812957763671875</LongitudeDegrees>
            </Position>
            <AltitudeMeters>605.4000244140625</AltitudeMeters>
            <DistanceMeters>31239.92042726</DistanceMeters>
          </Trackpoint>
          <Trackpoint>
            <Time>2018-08-26T06:58:47.000Z</Time>
            <Position>
              <LatitudeDegrees>42.9321119002997875213623046875</LatitudeDegrees>
              <LongitudeDegrees>-1.76316258497536182403564453125</LongitudeDegrees>
            </Position>
            <AltitudeMeters>605.5999755859375</AltitudeMeters>
            <DistanceMeters>31245.127856526</DistanceMeters>
          </Trackpoint>
          <Trackpoint>
            <Time>2018-08-26T06:58:48.000Z</Time>
            <Position>
              <LatitudeDegrees>42.93215489946305751800537109375</LatitudeDegrees>
              <LongitudeDegrees>-1.76313190720975399017333984375</LongitudeDegrees>
            </Position>
            <AltitudeMeters>605.79998779296875</AltitudeMeters>
            <DistanceMeters>31250.526845947</DistanceMeters>
          </Trackpoint>
          <Trackpoint>
            <Time>2018-08-26T06:58:49.000Z</Time>
            <Position>
              <LatitudeDegrees>42.93219395913183689117431640625</LatitudeDegrees>
              <LongitudeDegrees>-1.7631006427109241485595703125</LongitudeDegrees>
            </Position>
            <AltitudeMeters>606</AltitudeMeters>
            <DistanceMeters>31255.565950526</DistanceMeters>
          </Trackpoint>
          <Trackpoint>
            <Time>2018-08-26T06:58:50.000Z</Time>
            <Position>
              <LatitudeDegrees>42.93223419226706027984619140625</LatitudeDegrees>
              <LongitudeDegrees>-1.76306786946952342987060546875</LongitudeDegrees>
            </Position>
            <AltitudeMeters>606.20001220703125</AltitudeMeters>
            <DistanceMeters>31260.779445524</DistanceMeters>
          </Trackpoint>
          <Trackpoint>
            <Time>2018-08-26T06:58:51.000Z</Time>
            <Position>
              <LatitudeDegrees>42.9322735033929347991943359375</LatitudeDegrees>
              <LongitudeDegrees>-1.76303601823747158050537109375</LongitudeDegrees>
            </Position>
            <AltitudeMeters>606.20001220703125</AltitudeMeters>
            <DistanceMeters>31265.866704028</DistanceMeters>
          </Trackpoint>
          <Trackpoint>
            <Time>2018-08-26T06:58:52.000Z</Time>
            <Position>
              <LatitudeDegrees>42.93231180869042873382568359375</LatitudeDegrees>
              <LongitudeDegrees>-1.763001568615436553955078125</LongitudeDegrees>
            </Position>
            <AltitudeMeters>606.4000244140625</AltitudeMeters>
            <DistanceMeters>31270.971682051</DistanceMeters>
          </Trackpoint>
          <Trackpoint>
            <Time>2018-08-26T06:58:53.000Z</Time>
            <Position>
              <LatitudeDegrees>42.932349108159542083740234375</LatitudeDegrees>
              <LongitudeDegrees>-1.76296561025083065032958984375</LongitudeDegrees>
            </Position>
            <AltitudeMeters>606.5999755859375</AltitudeMeters>
            <DistanceMeters>31276.053612652</DistanceMeters>
          </Trackpoint>
          <Trackpoint>
            <Time>2018-08-26T06:58:54.000Z</Time>
            <Position>
              <LatitudeDegrees>42.9323885031044483184814453125</LatitudeDegrees>
              <LongitudeDegrees>-1.7629303224384784698486328125</LongitudeDegrees>
            </Position>
            <AltitudeMeters>606.79998779296875</AltitudeMeters>
            <DistanceMeters>31281.296469955</DistanceMeters>
          </Trackpoint>
          <Trackpoint>
            <Time>2018-08-26T06:58:55.000Z</Time>
            <Position>
              <LatitudeDegrees>42.93242664076387882232666015625</LatitudeDegrees>
              <LongitudeDegrees>-1.76289637573063373565673828125</LongitudeDegrees>
            </Position>
            <AltitudeMeters>607</AltitudeMeters>
            <DistanceMeters>31286.363274404</DistanceMeters>
          </Trackpoint>
          <Trackpoint>
            <Time>2018-08-26T06:58:56.000Z</Time>
            <Position>
              <LatitudeDegrees>42.9324625991284847259521484375</LatitudeDegrees>
              <LongitudeDegrees>-1.7628625966608524322509765625</LongitudeDegrees>
            </Position>
            <AltitudeMeters>607.20001220703125</AltitudeMeters>
            <DistanceMeters>31291.219874004</DistanceMeters>
          </Trackpoint>
          <Trackpoint>
            <Time>2018-08-26T06:58:57.000Z</Time>
            <Position>
              <LatitudeDegrees>42.93250040151178836822509765625</LatitudeDegrees>
              <LongitudeDegrees>-1.76282864995300769805908203125</LongitudeDegrees>
            </Position>
            <AltitudeMeters>607.4000244140625</AltitudeMeters>
            <DistanceMeters>31296.255393307</DistanceMeters>
          </Trackpoint>
          <Trackpoint>
            <Time>2018-08-26T06:58:58.000Z</Time>
            <Position>
              <LatitudeDegrees>42.93253812007606029510498046875</LatitudeDegrees>
              <LongitudeDegrees>-1.76279394887387752532958984375</LongitudeDegrees>
            </Position>
            <AltitudeMeters>607.5999755859375</AltitudeMeters>
            <DistanceMeters>31301.317740287</DistanceMeters>
          </Trackpoint>
          <Trackpoint>
            <Time>2018-08-26T06:58:59.000Z</Time>
            <Position>
              <LatitudeDegrees>42.93257751502096652984619140625</LatitudeDegrees>
              <LongitudeDegrees>-1.7627620138227939605712890625</LongitudeDegrees>
            </Position>
            <AltitudeMeters>607.79998779296875</AltitudeMeters>
            <DistanceMeters>31306.41740892</DistanceMeters>
          </Trackpoint>
          <Trackpoint>
            <Time>2018-08-26T06:59:00.000Z</Time>
            <Position>
              <LatitudeDegrees>42.93261690996587276458740234375</LatitudeDegrees>
              <LongitudeDegrees>-1.7627294920384883880615234375</LongitudeDegrees>
            </Position>
            <AltitudeMeters>608.20001220703125</AltitudeMeters>
            <DistanceMeters>31311.540926483</DistanceMeters>
          </Trackpoint>
          <Trackpoint>
            <Time>2018-08-26T06:59:01.000Z</Time>
            <Position>
              <LatitudeDegrees>42.93265446089208126068115234375</LatitudeDegrees>
              <LongitudeDegrees>-1.76269554533064365386962890625</LongitudeDegrees>
            </Position>
            <AltitudeMeters>608.5999755859375</AltitudeMeters>
            <DistanceMeters>31316.552178082</DistanceMeters>
          </Trackpoint>
          <Trackpoint>
            <Time>2018-08-26T06:59:02.000Z</Time>
            <Position>
              <LatitudeDegrees>42.932691760361194610595703125</LatitudeDegrees>
              <LongitudeDegrees>-1.76266335882246494293212890625</LongitudeDegrees>
            </Position>
            <AltitudeMeters>608.79998779296875</AltitudeMeters>
            <DistanceMeters>31321.464241219</DistanceMeters>
          </Trackpoint>
          <Trackpoint>
            <Time>2018-08-26T06:59:03.000Z</Time>
            <Position>
              <LatitudeDegrees>42.932727634906768798828125</LatitudeDegrees>
              <LongitudeDegrees>-1.76262949593365192413330078125</LongitudeDegrees>
            </Position>
            <AltitudeMeters>609</AltitudeMeters>
            <DistanceMeters>31326.318981121</DistanceMeters>
          </Trackpoint>
          <Trackpoint>
            <Time>2018-08-26T06:59:04.000Z</Time>
            <Position>
              <LatitudeDegrees>42.9327653534710407257080078125</LatitudeDegrees>
              <LongitudeDegrees>-1.7625926993787288665771484375</LongitudeDegrees>
            </Position>
            <AltitudeMeters>609.20001220703125</AltitudeMeters>
            <DistanceMeters>31331.478502936</DistanceMeters>
          </Trackpoint>
          <Trackpoint>
            <Time>2018-08-26T06:59:05.000Z</Time>
            <Position>
              <LatitudeDegrees>42.932801060378551483154296875</LatitudeDegrees>
              <LongitudeDegrees>-1.76255221478641033172607421875</LongitudeDegrees>
            </Position>
            <AltitudeMeters>609.5999755859375</AltitudeMeters>
            <DistanceMeters>31336.645020716</DistanceMeters>
          </Trackpoint>
          <Trackpoint>
            <Time>2018-08-26T06:59:06.000Z</Time>
            <Position>
              <LatitudeDegrees>42.93283366598188877105712890625</LatitudeDegrees>
              <LongitudeDegrees>-1.76251349039375782012939453125</LongitudeDegrees>
            </Position>
            <AltitudeMeters>609.79998779296875</AltitudeMeters>
            <DistanceMeters>31341.453973385</DistanceMeters>
          </Trackpoint>
          <Trackpoint>
            <Time>2018-08-26T06:59:07.000Z</Time>
            <Position>
              <LatitudeDegrees>42.9328656010329723358154296875</LatitudeDegrees>
              <LongitudeDegrees>-1.76246990449726581573486328125</LongitudeDegrees>
            </Position>
            <AltitudeMeters>610</AltitudeMeters>
            <DistanceMeters>31346.478721511</DistanceMeters>
          </Trackpoint>
          <Trackpoint>
            <Time>2018-08-26T06:59:08.000Z</Time>
            <Position>
              <LatitudeDegrees>42.93289585970342159271240234375</LatitudeDegrees>
              <LongitudeDegrees>-1.762423552572727203369140625</LongitudeDegrees>
            </Position>
            <AltitudeMeters>610.4000244140625</AltitudeMeters>
            <DistanceMeters>31351.539284405</DistanceMeters>
          </Trackpoint>
          <Trackpoint>
            <Time>2018-08-26T06:59:09.000Z</Time>
            <Position>
              <LatitudeDegrees>42.93292544782161712646484375</LatitudeDegrees>
              <LongitudeDegrees>-1.76237820647656917572021484375</LongitudeDegrees>
            </Position>
            <AltitudeMeters>610.5999755859375</AltitudeMeters>
            <DistanceMeters>31356.489802304</DistanceMeters>
          </Trackpoint>
          <Trackpoint>
            <Time>2018-08-26T06:59:10.000Z</Time>
            <Position>
              <LatitudeDegrees>42.93294631876051425933837890625</LatitudeDegrees>
              <LongitudeDegrees>-1.76232959143817424774169921875</LongitudeDegrees>
            </Position>
            <AltitudeMeters>610.79998779296875</AltitudeMeters>
            <DistanceMeters>31361.082650937</DistanceMeters>
          </Trackpoint>
          <Trackpoint>
            <Time>2018-08-26T06:59:11.000Z</Time>
            <Position>
              <LatitudeDegrees>42.93296358548104763031005859375</LatitudeDegrees>
              <LongitudeDegrees>-1.76227410323917865753173828125</LongitudeDegrees>
            </Position>
            <AltitudeMeters>611</AltitudeMeters>
            <DistanceMeters>31365.996552077</DistanceMeters>
          </Trackpoint>
          <Trackpoint>
            <Time>2018-08-26T06:59:12.000Z</Time>
            <Position>
              <LatitudeDegrees>42.93297800235450267791748046875</LatitudeDegrees>
              <LongitudeDegrees>-1.76221467554569244384765625</LongitudeDegrees>
            </Position>
            <AltitudeMeters>611.20001220703125</AltitudeMeters>
            <DistanceMeters>31371.098876095</DistanceMeters>
          </Trackpoint>
          <Trackpoint>
            <Time>2018-08-26T06:59:13.000Z</Time>
            <Position>
              <LatitudeDegrees>42.932989485561847686767578125</LatitudeDegrees>
              <LongitudeDegrees>-1.76215658895671367645263671875</LongitudeDegrees>
            </Position>
            <AltitudeMeters>611.4000244140625</AltitudeMeters>
            <DistanceMeters>31376.001738881</DistanceMeters>
          </Trackpoint>
          <Trackpoint>
            <Time>2018-08-26T06:59:14.000Z</Time>
            <Position>
              <LatitudeDegrees>42.93299728073179721832275390625</LatitudeDegrees>
              <LongitudeDegrees>-1.7620998434722423553466796875</LongitudeDegrees>
            </Position>
            <AltitudeMeters>611.5999755859375</AltitudeMeters>
            <DistanceMeters>31380.706281087</DistanceMeters>
          </Trackpoint>
          <Trackpoint>
            <Time>2018-08-26T06:59:15.000Z</Time>
            <Position>
              <LatitudeDegrees>42.93300080113112926483154296875</LatitudeDegrees>
              <LongitudeDegrees>-1.76204259507358074188232421875</LongitudeDegrees>
            </Position>
            <AltitudeMeters>611.79998779296875</AltitudeMeters>
            <DistanceMeters>31385.388697728</DistanceMeters>
          </Trackpoint>
          <Trackpoint>
            <Time>2018-08-26T06:59:16.000Z</Time>
            <Position>
              <LatitudeDegrees>42.9329973645508289337158203125</LatitudeDegrees>
              <LongitudeDegrees>-1.76198526285588741302490234375</LongitudeDegrees>
            </Position>
            <AltitudeMeters>611.79998779296875</AltitudeMeters>
            <DistanceMeters>31390.07593316</DistanceMeters>
          </Trackpoint>
          <Trackpoint>
            <Time>2018-08-26T06:59:17.000Z</Time>
            <Position>
              <LatitudeDegrees>42.93298856355249881744384765625</LatitudeDegrees>
              <LongitudeDegrees>-1.76192943938076496124267578125</LongitudeDegrees>
            </Position>
            <AltitudeMeters>612.4000244140625</AltitudeMeters>
            <DistanceMeters>31394.729332273</DistanceMeters>
          </Trackpoint>
          <Trackpoint>
            <Time>2018-08-26T06:59:18.000Z</Time>
            <Position>
              <LatitudeDegrees>42.93297850526869297027587890625</LatitudeDegrees>
              <LongitudeDegrees>-1.761873699724674224853515625</LongitudeDegrees>
            </Position>
            <AltitudeMeters>612.5999755859375</AltitudeMeters>
            <DistanceMeters>31399.40789031</DistanceMeters>
          </Trackpoint>
          <Trackpoint>
            <Time>2018-08-26T06:59:19.000Z</Time>
            <Position>
              <LatitudeDegrees>42.93296978808939456939697265625</LatitudeDegrees>
              <LongitudeDegrees>-1.76181678660213947296142578125</LongitudeDegrees>
            </Position>
            <AltitudeMeters>613</AltitudeMeters>
            <DistanceMeters>31404.145903611</DistanceMeters>
          </Trackpoint>
          <Trackpoint>
            <Time>2018-08-26T06:59:20.000Z</Time>
            <Position>
              <LatitudeDegrees>42.93296090327203273773193359375</LatitudeDegrees>
              <LongitudeDegrees>-1.7617581970989704132080078125</LongitudeDegrees>
            </Position>
            <AltitudeMeters>613.20001220703125</AltitudeMeters>
            <DistanceMeters>31409.021061167</DistanceMeters>
          </Trackpoint>
          <Trackpoint>
            <Time>2018-08-26T06:59:21.000Z</Time>
            <Position>
              <LatitudeDegrees>42.9329504258930683135986328125</LatitudeDegrees>
              <LongitudeDegrees>-1.7617008648812770843505859375</LongitudeDegrees>
            </Position>
            <AltitudeMeters>613.4000244140625</AltitudeMeters>
            <DistanceMeters>31413.835643831</DistanceMeters>
          </Trackpoint>
          <Trackpoint>
            <Time>2018-08-26T06:59:22.000Z</Time>
            <Position>
              <LatitudeDegrees>42.93293659575283527374267578125</LatitudeDegrees>
              <LongitudeDegrees>-1.761645376682281494140625</LongitudeDegrees>
            </Position>
            <AltitudeMeters>613.5999755859375</AltitudeMeters>
            <DistanceMeters>31418.61162259</DistanceMeters>
          </Trackpoint>
          <Trackpoint>
            <Time>2018-08-26T06:59:23.000Z</Time>
            <Position>
              <LatitudeDegrees>42.932923100888729095458984375</LatitudeDegrees>
              <LongitudeDegrees>-1.7615930736064910888671875</LongitudeDegrees>
            </Position>
            <AltitudeMeters>613.79998779296875</AltitudeMeters>
            <DistanceMeters>31423.131139479</DistanceMeters>
          </Trackpoint>
          <Trackpoint>
            <Time>2018-08-26T06:59:24.000Z</Time>
            <Position>
              <LatitudeDegrees>42.93290725909173488616943359375</LatitudeDegrees>
              <LongitudeDegrees>-1.76154102198779582977294921875</LongitudeDegrees>
            </Position>
            <AltitudeMeters>614</AltitudeMeters>
            <DistanceMeters>31427.723988113</DistanceMeters>
          </Trackpoint>
          <Trackpoint>
            <Time>2018-08-26T06:59:25.000Z</Time>
            <Position>
              <LatitudeDegrees>42.93289192020893096923828125</LatitudeDegrees>
              <LongitudeDegrees>-1.7614899761974811553955078125</LongitudeDegrees>
            </Position>
            <AltitudeMeters>614.4000244140625</AltitudeMeters>
            <DistanceMeters>31432.220469088</DistanceMeters>
          </Trackpoint>
          <Trackpoint>
            <Time>2018-08-26T06:59:26.000Z</Time>
            <Position>
              <LatitudeDegrees>42.93287624605000019073486328125</LatitudeDegrees>
              <LongitudeDegrees>-1.761439852416515350341796875</LongitudeDegrees>
            </Position>
            <AltitudeMeters>614.5999755859375</AltitudeMeters>
            <DistanceMeters>31436.663412606</DistanceMeters>
          </Trackpoint>
          <Trackpoint>
            <Time>2018-08-26T06:59:27.000Z</Time>
            <Position>
              <LatitudeDegrees>42.93286166153848171234130859375</LatitudeDegrees>
              <LongitudeDegrees>-1.76139165647327899932861328125</LongitudeDegrees>
            </Position>
            <AltitudeMeters>614.79998779296875</AltitudeMeters>
            <DistanceMeters>31440.914198765</DistanceMeters>
          </Trackpoint>
          <Trackpoint>
            <Time>2018-08-26T06:59:28.000Z</Time>
            <Position>
              <LatitudeDegrees>42.93284724466502666473388671875</LatitudeDegrees>
              <LongitudeDegrees>-1.76134429872035980224609375</LongitudeDegrees>
            </Position>
            <AltitudeMeters>615.20001220703125</AltitudeMeters>
            <DistanceMeters>31445.093213941</DistanceMeters>
          </Trackpoint>
          <Trackpoint>
            <Time>2018-08-26T06:59:29.000Z</Time>
            <Position>
              <LatitudeDegrees>42.9328270442783832550048828125</LatitudeDegrees>
              <LongitudeDegrees>-1.7613015510141849517822265625</LongitudeDegrees>
            </Position>
            <AltitudeMeters>615.4000244140625</AltitudeMeters>
            <DistanceMeters>31449.239690222</DistanceMeters>
          </Trackpoint>
          <Trackpoint>
            <Time>2018-08-26T06:59:30.000Z</Time>
            <Position>
              <LatitudeDegrees>42.93280416168272495269775390625</LatitudeDegrees>
              <LongitudeDegrees>-1.761262156069278717041015625</LongitudeDegrees>
            </Position>
            <AltitudeMeters>615.5999755859375</AltitudeMeters>
            <DistanceMeters>31453.336873658</DistanceMeters>
          </Trackpoint>
          <Trackpoint>
            <Time>2018-08-26T06:59:31.000Z</Time>
            <Position>
              <LatitudeDegrees>42.93278169818222522735595703125</LatitudeDegrees>
              <LongitudeDegrees>-1.76122569479048252105712890625</LongitudeDegrees>
            </Position>
            <AltitudeMeters>616</AltitudeMeters>
            <DistanceMeters>31457.220200539</DistanceMeters>
          </Trackpoint>
          <Trackpoint>
            <Time>2018-08-26T06:59:32.000Z</Time>
            <Position>
              <LatitudeDegrees>42.932756803929805755615234375</LatitudeDegrees>
              <LongitudeDegrees>-1.761190406978130340576171875</LongitudeDegrees>
            </Position>
            <AltitudeMeters>616.20001220703125</AltitudeMeters>
            <DistanceMeters>31461.214714912</DistanceMeters>
          </Trackpoint>
          <Trackpoint>
            <Time>2018-08-26T06:59:33.000Z</Time>
            <Position>
              <LatitudeDegrees>42.93273157440125942230224609375</LatitudeDegrees>
              <LongitudeDegrees>-1.76115562207996845245361328125</LongitudeDegrees>
            </Position>
            <AltitudeMeters>616.5999755859375</AltitudeMeters>
            <DistanceMeters>31465.205836915</DistanceMeters>
          </Trackpoint>
          <Trackpoint>
            <Time>2018-08-26T06:59:34.000Z</Time>
            <Position>
              <LatitudeDegrees>42.9327066801488399505615234375</LatitudeDegrees>
              <LongitudeDegrees>-1.76111622713506221771240234375</LongitudeDegrees>
            </Position>
            <AltitudeMeters>617</AltitudeMeters>
            <DistanceMeters>31469.444923152</DistanceMeters>
          </Trackpoint>
          <Trackpoint>
            <Time>2018-08-26T06:59:35.000Z</Time>
            <Position>
              <LatitudeDegrees>42.932684384286403656005859375</LatitudeDegrees>
              <LongitudeDegrees>-1.7610765807330608367919921875</LongitudeDegrees>
            </Position>
            <AltitudeMeters>617.20001220703125</AltitudeMeters>
            <DistanceMeters>31473.518899159</DistanceMeters>
          </Trackpoint>
          <Trackpoint>
            <Time>2018-08-26T06:59:36.000Z</Time>
            <Position>
              <LatitudeDegrees>42.93265949003398418426513671875</LatitudeDegrees>
              <LongitudeDegrees>-1.761038862168788909912109375</LongitudeDegrees>
            </Position>
            <AltitudeMeters>617.4000244140625</AltitudeMeters>
            <DistanceMeters>31477.656655186</DistanceMeters>
          </Trackpoint>
          <Trackpoint>
            <Time>2018-08-26T06:59:37.000Z</Time>
            <Position>
              <LatitudeDegrees>42.93263099156320095062255859375</LatitudeDegrees>
              <LongitudeDegrees>-1.7609991319477558135986328125</LongitudeDegrees>
            </Position>
            <AltitudeMeters>617.4000244140625</AltitudeMeters>
            <DistanceMeters>31482.188144326</DistanceMeters>
          </Trackpoint>
          <Trackpoint>
            <Time>2018-08-26T06:59:38.000Z</Time>
            <Position>
              <LatitudeDegrees>42.932605259120464324951171875</LatitudeDegrees>
              <LongitudeDegrees>-1.76096250303089618682861328125</LongitudeDegrees>
            </Position>
            <AltitudeMeters>617.5999755859375</AltitudeMeters>
            <DistanceMeters>31486.325900353</DistanceMeters>
          </Trackpoint>
          <Trackpoint>
            <Time>2018-08-26T06:59:39.000Z</Time>
            <Position>
              <LatitudeDegrees>42.9325814545154571533203125</LatitudeDegrees>
              <LongitudeDegrees>-1.76092428155243396759033203125</LongitudeDegrees>
            </Position>
            <AltitudeMeters>617.79998779296875</AltitudeMeters>
            <DistanceMeters>31490.414258398</DistanceMeters>
          </Trackpoint>
          <Trackpoint>
            <Time>2018-08-26T06:59:40.000Z</Time>
            <Position>
              <LatitudeDegrees>42.93255773372948169708251953125</LatitudeDegrees>
              <LongitudeDegrees>-1.7608824558556079864501953125</LongitudeDegrees>
            </Position>
            <AltitudeMeters>617.79998779296875</AltitudeMeters>
            <DistanceMeters>31494.72621009</DistanceMeters>
          </Trackpoint>
          <Trackpoint>
            <Time>2018-08-26T06:59:41.000Z</Time>
            <Position>
              <LatitudeDegrees>42.9325366951525211334228515625</LatitudeDegrees>
              <LongitudeDegrees>-1.760840378701686859130859375</LongitudeDegrees>
            </Position>
            <AltitudeMeters>618.20001220703125</AltitudeMeters>
            <DistanceMeters>31498.877039628</DistanceMeters>
          </Trackpoint>
          <Trackpoint>
            <Time>2018-08-26T06:59:42.000Z</Time>
            <Position>
              <LatitudeDegrees>42.9325162433087825775146484375</LatitudeDegrees>
              <LongitudeDegrees>-1.76080006174743175506591796875</LongitudeDegrees>
            </Position>
            <AltitudeMeters>618.4000244140625</AltitudeMeters>
            <DistanceMeters>31502.872684151</DistanceMeters>
          </Trackpoint>
          <Trackpoint>
            <Time>2018-08-26T06:59:43.000Z</Time>
            <Position>
              <LatitudeDegrees>42.93249788694083690643310546875</LatitudeDegrees>
              <LongitudeDegrees>-1.7607567273080348968505859375</LongitudeDegrees>
            </Position>
            <AltitudeMeters>618.5999755859375</AltitudeMeters>
            <DistanceMeters>31506.95330432</DistanceMeters>
          </Trackpoint>
          <Trackpoint>
            <Time>2018-08-26T06:59:44.000Z</Time>
            <Position>
              <LatitudeDegrees>42.93247978202998638153076171875</LatitudeDegrees>
              <LongitudeDegrees>-1.76070936955511569976806640625</LongitudeDegrees>
            </Position>
            <AltitudeMeters>618.79998779296875</AltitudeMeters>
            <DistanceMeters>31511.305901289</DistanceMeters>
          </Trackpoint>
          <Trackpoint>
            <Time>2018-08-26T06:59:45.000Z</Time>
            <Position>
              <LatitudeDegrees>42.93246251530945301055908203125</LatitudeDegrees>
              <LongitudeDegrees>-1.760664023458957672119140625</LongitudeDegrees>
            </Position>
            <AltitudeMeters>619</AltitudeMeters>
            <DistanceMeters>31515.471931405</DistanceMeters>
          </Trackpoint>
          <Trackpoint>
            <Time>2018-08-26T06:59:46.000Z</Time>
            <Position>
              <LatitudeDegrees>42.9324431531131267547607421875</LatitudeDegrees>
              <LongitudeDegrees>-1.760615408420562744140625</LongitudeDegrees>
            </Position>
            <AltitudeMeters>619.5999755859375</AltitudeMeters>
            <DistanceMeters>31519.983449144</DistanceMeters>
          </Trackpoint>
          <Trackpoint>
            <Time>2018-08-26T06:59:47.000Z</Time>
            <Position>
              <LatitudeDegrees>42.9324232041835784912109375</LatitudeDegrees>
              <LongitudeDegrees>-1.76056352443993091583251953125</LongitudeDegrees>
            </Position>
            <AltitudeMeters>620</AltitudeMeters>
            <DistanceMeters>31524.759427902</DistanceMeters>
          </Trackpoint>
          <Trackpoint>
            <Time>2018-08-26T06:59:48.000Z</Time>
            <Position>
              <LatitudeDegrees>42.9324059374630451202392578125</LatitudeDegrees>
              <LongitudeDegrees>-1.76051373593509197235107421875</LongitudeDegrees>
            </Position>
            <AltitudeMeters>620.20001220703125</AltitudeMeters>
            <DistanceMeters>31529.248874485</DistanceMeters>
          </Trackpoint>
          <Trackpoint>
            <Time>2018-08-26T06:59:49.000Z</Time>
            <Position>
              <LatitudeDegrees>42.932386659085750579833984375</LatitudeDegrees>
              <LongitudeDegrees>-1.76046076230704784393310546875</LongitudeDegrees>
            </Position>
            <AltitudeMeters>620.5999755859375</AltitudeMeters>
            <DistanceMeters>31534.069080569</DistanceMeters>
          </Trackpoint>
          <Trackpoint>
            <Time>2018-08-26T06:59:50.000Z</Time>
            <Position>
              <LatitudeDegrees>42.93236888945102691650390625</LatitudeDegrees>
              <LongitudeDegrees>-1.76040829159319400787353515625</LongitudeDegrees>
            </Position>
            <AltitudeMeters>620.79998779296875</AltitudeMeters>
            <DistanceMeters>31538.779377568</DistanceMeters>
          </Trackpoint>
          <Trackpoint>
            <Time>2018-08-26T06:59:51.000Z</Time>
            <Position>
              <LatitudeDegrees>42.9323519580066204071044921875</LatitudeDegrees>
              <LongitudeDegrees>-1.76035447977483272552490234375</LongitudeDegrees>
            </Position>
            <AltitudeMeters>621.20001220703125</AltitudeMeters>
            <DistanceMeters>31543.552519392</DistanceMeters>
          </Trackpoint>
          <Trackpoint>
            <Time>2018-08-26T06:59:52.000Z</Time>
            <Position>
              <LatitudeDegrees>42.932338714599609375</LatitudeDegrees>
              <LongitudeDegrees>-1.76030117087066173553466796875</LongitudeDegrees>
            </Position>
            <AltitudeMeters>621.4000244140625</AltitudeMeters>
            <DistanceMeters>31548.139465883</DistanceMeters>
          </Trackpoint>
          <Trackpoint>
            <Time>2018-08-26T06:59:53.000Z</Time>
            <Position>
              <LatitudeDegrees>42.932327650487422943115234375</LatitudeDegrees>
              <LongitudeDegrees>-1.7602477781474590301513671875</LongitudeDegrees>
            </Position>
            <AltitudeMeters>621.5999755859375</AltitudeMeters>
            <DistanceMeters>31552.660980349</DistanceMeters>
          </Trackpoint>
          <Trackpoint>
            <Time>2018-08-26T06:59:54.000Z</Time>
            <Position>
              <LatitudeDegrees>42.93231884948909282684326171875</LatitudeDegrees>
              <LongitudeDegrees>-1.76019539125263690948486328125</LongitudeDegrees>
            </Position>
            <AltitudeMeters>621.79998779296875</AltitudeMeters>
            <DistanceMeters>31557.040464607</DistanceMeters>
          </Trackpoint>
          <Trackpoint>
            <Time>2018-08-26T06:59:55.000Z</Time>
            <Position>
              <LatitudeDegrees>42.932311557233333587646484375</LatitudeDegrees>
              <LongitudeDegrees>-1.76013923250138759613037109375</LongitudeDegrees>
            </Position>
            <AltitudeMeters>622</AltitudeMeters>
            <DistanceMeters>31561.689981035</DistanceMeters>
          </Trackpoint>
          <Trackpoint>
            <Time>2018-08-26T06:59:56.000Z</Time>
            <Position>
              <LatitudeDegrees>42.9323077015578746795654296875</LatitudeDegrees>
              <LongitudeDegrees>-1.7600829899311065673828125</LongitudeDegrees>
            </Position>
            <AltitudeMeters>622.20001220703125</AltitudeMeters>
            <DistanceMeters>31566.292649754</DistanceMeters>
          </Trackpoint>
          <Trackpoint>
            <Time>2018-08-26T06:59:57.000Z</Time>
            <Position>
              <LatitudeDegrees>42.9323050193488597869873046875</LatitudeDegrees>
              <LongitudeDegrees>-1.76002406515181064605712890625</LongitudeDegrees>
            </Position>
            <AltitudeMeters>622.4000244140625</AltitudeMeters>
            <DistanceMeters>31571.10347982</DistanceMeters>
          </Trackpoint>
          <Trackpoint>
            <Time>2018-08-26T06:59:58.000Z</Time>
            <Position>
              <LatitudeDegrees>42.93230317533016204833984375</LatitudeDegrees>
              <LongitudeDegrees>-1.759960949420928955078125</LongitudeDegrees>
            </Position>
            <AltitudeMeters>622.5999755859375</AltitudeMeters>
            <DistanceMeters>31576.251612915</DistanceMeters>
          </Trackpoint>
          <Trackpoint>
            <Time>2018-08-26T06:59:59.000Z</Time>
            <Position>
              <LatitudeDegrees>42.932305522263050079345703125</LatitudeDegrees>
              <LongitudeDegrees>-1.759908981621265411376953125</LongitudeDegrees>
            </Position>
            <AltitudeMeters>622.79998779296875</AltitudeMeters>
            <DistanceMeters>31580.494957401</DistanceMeters>
          </Trackpoint>
          <Trackpoint>
            <Time>2018-08-26T07:00:00.000Z</Time>
            <Position>
              <LatitudeDegrees>42.932308204472064971923828125</LatitudeDegrees>
              <LongitudeDegrees>-1.75986061803996562957763671875</LongitudeDegrees>
            </Position>
            <AltitudeMeters>623</AltitudeMeters>
            <DistanceMeters>31584.447429064</DistanceMeters>
          </Trackpoint>
          <Trackpoint>
            <Time>2018-08-26T07:00:01.000Z</Time>
            <Position>
              <LatitudeDegrees>42.93230778537690639495849609375</LatitudeDegrees>
              <LongitudeDegrees>-1.75980965606868267059326171875</LongitudeDegrees>
            </Position>
            <AltitudeMeters>623.4000244140625</AltitudeMeters>
            <DistanceMeters>31588.601520552</DistanceMeters>
          </Trackpoint>
          <Trackpoint>
            <Time>2018-08-26T07:00:02.000Z</Time>
            <Position>
              <LatitudeDegrees>42.93230443261563777923583984375</LatitudeDegrees>
              <LongitudeDegrees>-1.759757101535797119140625</LongitudeDegrees>
            </Position>
            <AltitudeMeters>623.5999755859375</AltitudeMeters>
            <DistanceMeters>31592.900888701</DistanceMeters>
          </Trackpoint>
          <Trackpoint>
            <Time>2018-08-26T07:00:03.000Z</Time>
            <Position>
              <LatitudeDegrees>42.9322983138263225555419921875</LatitudeDegrees>
              <LongitudeDegrees>-1.75970421172678470611572265625</LongitudeDegrees>
            </Position>
            <AltitudeMeters>623.79998779296875</AltitudeMeters>
            <DistanceMeters>31597.263846544</DistanceMeters>
          </Trackpoint>
          <Trackpoint>
            <Time>2018-08-26T07:00:04.000Z</Time>
            <Position>
              <LatitudeDegrees>42.93229068629443645477294921875</LatitudeDegrees>
              <LongitudeDegrees>-1.75965341739356517791748046875</LongitudeDegrees>
            </Position>
            <AltitudeMeters>624.4000244140625</AltitudeMeters>
            <DistanceMeters>31601.49013229</DistanceMeters>
          </Trackpoint>
          <Trackpoint>
            <Time>2018-08-26T07:00:05.000Z</Time>
            <Position>
              <LatitudeDegrees>42.93227878399193286895751953125</LatitudeDegrees>
              <LongitudeDegrees>-1.75960195250809192657470703125</LongitudeDegrees>
            </Position>
            <AltitudeMeters>624.79998779296875</AltitudeMeters>
            <DistanceMeters>31605.888134534</DistanceMeters>
          </Trackpoint>
          <Trackpoint>
            <Time>2018-08-26T07:00:06.000Z</Time>
            <Position>
              <LatitudeDegrees>42.93226419948041439056396484375</LatitudeDegrees>
              <LongitudeDegrees>-1.75955434329807758331298828125</LongitudeDegrees>
            </Position>
            <AltitudeMeters>625</AltitudeMeters>
            <DistanceMeters>31610.094073164</DistanceMeters>
          </Trackpoint>
          <Trackpoint>
            <Time>2018-08-26T07:00:07.000Z</Time>
            <Position>
              <LatitudeDegrees>42.932245172560214996337890625</LatitudeDegrees>
              <LongitudeDegrees>-1.75950606353580951690673828125</LongitudeDegrees>
            </Position>
            <AltitudeMeters>625.4000244140625</AltitudeMeters>
            <DistanceMeters>31614.563360478</DistanceMeters>
          </Trackpoint>
          <Trackpoint>
            <Time>2018-08-26T07:00:08.000Z</Time>
            <Position>
              <LatitudeDegrees>42.9322232119739055633544921875</LatitudeDegrees>
              <LongitudeDegrees>-1.75945661030709743499755859375</LongitudeDegrees>
            </Position>
            <AltitudeMeters>625.5999755859375</AltitudeMeters>
            <DistanceMeters>31619.276532239</DistanceMeters>
          </Trackpoint>
          <Trackpoint>
            <Time>2018-08-26T07:00:09.000Z</Time>
            <Position>
              <LatitudeDegrees>42.9322010837495326995849609375</LatitudeDegrees>
              <LongitudeDegrees>-1.75940481014549732208251953125</LongitudeDegrees>
            </Position>
            <AltitudeMeters>625.79998779296875</AltitudeMeters>
            <DistanceMeters>31624.162790738</DistanceMeters>
          </Trackpoint>
          <Trackpoint>
            <Time>2018-08-26T07:00:10.000Z</Time>
            <Position>
              <LatitudeDegrees>42.9321769438683986663818359375</LatitudeDegrees>
              <LongitudeDegrees>-1.75935636274516582489013671875</LongitudeDegrees>
            </Position>
            <AltitudeMeters>626.20001220703125</AltitudeMeters>
            <DistanceMeters>31628.937824038</DistanceMeters>
          </Trackpoint>
          <Trackpoint>
            <Time>2018-08-26T07:00:11.000Z</Time>
            <Position>
              <LatitudeDegrees>42.93215590529143810272216796875</LatitudeDegrees>
              <LongitudeDegrees>-1.75930984318256378173828125</LongitudeDegrees>
            </Position>
            <AltitudeMeters>626.4000244140625</AltitudeMeters>
            <DistanceMeters>31633.394972025</DistanceMeters>
          </Trackpoint>
          <Trackpoint>
            <Time>2018-08-26T07:00:12.000Z</Time>
            <Position>
              <LatitudeDegrees>42.93213679455220699310302734375</LatitudeDegrees>
              <LongitudeDegrees>-1.759261898696422576904296875</LongitudeDegrees>
            </Position>
            <AltitudeMeters>626.5999755859375</AltitudeMeters>
            <DistanceMeters>31637.844008726</DistanceMeters>
          </Trackpoint>
          <Trackpoint>
            <Time>2018-08-26T07:00:13.000Z</Time>
            <Position>
              <LatitudeDegrees>42.93211919255554676055908203125</LatitudeDegrees>
              <LongitudeDegrees>-1.75921185873448848724365234375</LongitudeDegrees>
            </Position>
            <AltitudeMeters>626.4000244140625</AltitudeMeters>
            <DistanceMeters>31642.367519887</DistanceMeters>
          </Trackpoint>
          <Trackpoint>
            <Time>2018-08-26T07:00:14.000Z</Time>
            <Position>
              <LatitudeDegrees>42.93210879899561405181884765625</LatitudeDegrees>
              <LongitudeDegrees>-1.75915871746838092803955078125</LongitudeDegrees>
            </Position>
            <AltitudeMeters>626.5999755859375</AltitudeMeters>
            <DistanceMeters>31646.850928207</DistanceMeters>
          </Trackpoint>
          <Trackpoint>
            <Time>2018-08-26T07:00:15.000Z</Time>
            <Position>
              <LatitudeDegrees>42.93210544623434543609619140625</LatitudeDegrees>
              <LongitudeDegrees>-1.759100295603275299072265625</LongitudeDegrees>
            </Position>
            <AltitudeMeters>626.79998779296875</AltitudeMeters>
            <DistanceMeters>31651.626906965</DistanceMeters>
          </Trackpoint>
          <Trackpoint>
            <Time>2018-08-26T07:00:16.000Z</Time>
            <Position>
              <LatitudeDegrees>42.9321139119565486907958984375</LatitudeDegrees>
              <LongitudeDegrees>-1.75903625786304473876953125</LongitudeDegrees>
            </Position>
            <AltitudeMeters>627</AltitudeMeters>
            <DistanceMeters>31656.930555532</DistanceMeters>
          </Trackpoint>
          <Trackpoint>
            <Time>2018-08-26T07:00:17.000Z</Time>
            <Position>
              <LatitudeDegrees>42.932129167020320892333984375</LatitudeDegrees>
              <LongitudeDegrees>-1.75897247157990932464599609375</LongitudeDegrees>
            </Position>
            <AltitudeMeters>627</AltitudeMeters>
            <DistanceMeters>31662.39934088</DistanceMeters>
          </Trackpoint>
          <Trackpoint>
            <Time>2018-08-26T07:00:18.000Z</Time>
            <Position>
              <LatitudeDegrees>42.93215573765337467193603515625</LatitudeDegrees>
              <LongitudeDegrees>-1.7589163966476917266845703125</LongitudeDegrees>
            </Position>
            <AltitudeMeters>627.20001220703125</AltitudeMeters>
            <DistanceMeters>31667.842472406</DistanceMeters>
          </Trackpoint>
          <Trackpoint>
            <Time>2018-08-26T07:00:19.000Z</Time>
            <Position>
              <LatitudeDegrees>42.9321866668760776519775390625</LatitudeDegrees>
              <LongitudeDegrees>-1.7588733136653900146484375</LongitudeDegrees>
            </Position>
            <AltitudeMeters>627.4000244140625</AltitudeMeters>
            <DistanceMeters>31672.759129262</DistanceMeters>
          </Trackpoint>
          <Trackpoint>
            <Time>2018-08-26T07:00:20.000Z</Time>
            <Position>
              <LatitudeDegrees>42.93221876956522464752197265625</LatitudeDegrees>
              <LongitudeDegrees>-1.7588357627391815185546875</LongitudeDegrees>
            </Position>
            <AltitudeMeters>627.5999755859375</AltitudeMeters>
            <DistanceMeters>31677.462711651</DistanceMeters>
          </Trackpoint>
          <Trackpoint>
            <Time>2018-08-26T07:00:21.000Z</Time>
            <Position>
              <LatitudeDegrees>42.93224819004535675048828125</LatitudeDegrees>
              <LongitudeDegrees>-1.758805252611637115478515625</LongitudeDegrees>
            </Position>
            <AltitudeMeters>627.79998779296875</AltitudeMeters>
            <DistanceMeters>31681.575293952</DistanceMeters>
          </Trackpoint>
          <Trackpoint>
            <Time>2018-08-26T07:00:22.000Z</Time>
            <Position>
              <LatitudeDegrees>42.932278700172901153564453125</LatitudeDegrees>
              <LongitudeDegrees>-1.75877952016890048980712890625</LongitudeDegrees>
            </Position>
            <AltitudeMeters>628</AltitudeMeters>
            <DistanceMeters>31685.566415955</DistanceMeters>
          </Trackpoint>
          <Trackpoint>
            <Time>2018-08-26T07:00:23.000Z</Time>
            <Position>
              <LatitudeDegrees>42.9323078691959381103515625</LatitudeDegrees>
              <LongitudeDegrees>-1.75875521264970302581787109375</LongitudeDegrees>
            </Position>
            <AltitudeMeters>628</AltitudeMeters>
            <DistanceMeters>31689.369859456</DistanceMeters>
          </Trackpoint>
          <Trackpoint>
            <Time>2018-08-26T07:00:24.000Z</Time>
            <Position>
              <LatitudeDegrees>42.932339720427989959716796875</LatitudeDegrees>
              <LongitudeDegrees>-1.7587309889495372772216796875</LongitudeDegrees>
            </Position>
            <AltitudeMeters>628.20001220703125</AltitudeMeters>
            <DistanceMeters>31693.427177457</DistanceMeters>
          </Trackpoint>
          <Trackpoint>
            <Time>2018-08-26T07:00:25.000Z</Time>
            <Position>
              <LatitudeDegrees>42.93237132020294666290283203125</LatitudeDegrees>
              <LongitudeDegrees>-1.75870441831648349761962890625</LongitudeDegrees>
            </Position>
            <AltitudeMeters>628.4000244140625</AltitudeMeters>
            <DistanceMeters>31697.557288158</DistanceMeters>
          </Trackpoint>
          <Trackpoint>
            <Time>2018-08-26T07:00:26.000Z</Time>
            <Position>
              <LatitudeDegrees>42.932400405406951904296875</LatitudeDegrees>
              <LongitudeDegrees>-1.7586749978363513946533203125</LongitudeDegrees>
            </Position>
            <AltitudeMeters>628.5999755859375</AltitudeMeters>
            <DistanceMeters>31701.584448111</DistanceMeters>
          </Trackpoint>
          <Trackpoint>
            <Time>2018-08-26T07:00:27.000Z</Time>
            <Position>
              <LatitudeDegrees>42.93242731131613254547119140625</LatitudeDegrees>
              <LongitudeDegrees>-1.75863887183368206024169921875</LongitudeDegrees>
            </Position>
            <AltitudeMeters>628.79998779296875</AltitudeMeters>
            <DistanceMeters>31705.782865577</DistanceMeters>
          </Trackpoint>
          <Trackpoint>
            <Time>2018-08-26T07:00:28.000Z</Time>
            <Position>
              <LatitudeDegrees>42.93246000073850154876708984375</LatitudeDegrees>
              <LongitudeDegrees>-1.7586079426109790802001953125</LongitudeDegrees>
            </Position>
            <AltitudeMeters>629.20001220703125</AltitudeMeters>
            <DistanceMeters>31710.207479202</DistanceMeters>
          </Trackpoint>
          <Trackpoint>
            <Time>2018-08-26T07:00:29.000Z</Time>
            <Position>
              <LatitudeDegrees>42.932496629655361175537109375</LatitudeDegrees>
              <LongitudeDegrees>-1.75858153961598873138427734375</LongitudeDegrees>
            </Position>
            <AltitudeMeters>629.5999755859375</AltitudeMeters>
            <DistanceMeters>31714.817009533</DistanceMeters>
          </Trackpoint>
          <Trackpoint>
            <Time>2018-08-26T07:00:30.000Z</Time>
            <Position>
              <LatitudeDegrees>42.93253242038190364837646484375</LatitudeDegrees>
              <LongitudeDegrees>-1.75855656154453754425048828125</LongitudeDegrees>
            </Position>
            <AltitudeMeters>629.79998779296875</AltitudeMeters>
            <DistanceMeters>31719.290335969</DistanceMeters>
          </Trackpoint>
          <Trackpoint>
            <Time>2018-08-26T07:00:31.000Z</Time>
            <Position>
              <LatitudeDegrees>42.932569049298763275146484375</LatitudeDegrees>
              <LongitudeDegrees>-1.75853074528276920318603515625</LongitudeDegrees>
            </Position>
            <AltitudeMeters>630</AltitudeMeters>
            <DistanceMeters>31723.87728246</DistanceMeters>
          </Trackpoint>
          <Trackpoint>
            <Time>2018-08-26T07:00:32.000Z</Time>
            <Position>
              <LatitudeDegrees>42.9326054267585277557373046875</LatitudeDegrees>
              <LongitudeDegrees>-1.758497469127178192138671875</LongitudeDegrees>
            </Position>
            <AltitudeMeters>630.20001220703125</AltitudeMeters>
            <DistanceMeters>31728.748734081</DistanceMeters>
          </Trackpoint>
          <Trackpoint>
            <Time>2018-08-26T07:00:33.000Z</Time>
            <Position>
              <LatitudeDegrees>42.9326439835131168365478515625</LatitudeDegrees>
              <LongitudeDegrees>-1.758469976484775543212890625</LongitudeDegrees>
            </Position>
            <AltitudeMeters>630.4000244140625</AltitudeMeters>
            <DistanceMeters>31733.58950348</DistanceMeters>
          </Trackpoint>
          <Trackpoint>
            <Time>2018-08-26T07:00:34.000Z</Time>
            <Position>
              <LatitudeDegrees>42.9326798580586910247802734375</LatitudeDegrees>
              <LongitudeDegrees>-1.75843586213886737823486328125</LongitudeDegrees>
            </Position>
            <AltitudeMeters>630.5999755859375</AltitudeMeters>
            <DistanceMeters>31738.455390905</DistanceMeters>
          </Trackpoint>
          <Trackpoint>
            <Time>2018-08-26T07:00:35.000Z</Time>
            <Position>
              <LatitudeDegrees>42.932722605764865875244140625</LatitudeDegrees>
              <LongitudeDegrees>-1.7584004066884517669677734375</LongitudeDegrees>
            </Position>
            <AltitudeMeters>631</AltitudeMeters>
            <DistanceMeters>31744.022366957</DistanceMeters>
          </Trackpoint>
          <Trackpoint>
            <Time>2018-08-26T07:00:36.000Z</Time>
            <Position>
              <LatitudeDegrees>42.93276191689074039459228515625</LatitudeDegrees>
              <LongitudeDegrees>-1.75836310721933841705322265625</LongitudeDegrees>
            </Position>
            <AltitudeMeters>631.20001220703125</AltitudeMeters>
            <DistanceMeters>31749.348951246</DistanceMeters>
          </Trackpoint>
          <Trackpoint>
            <Time>2018-08-26T07:00:37.000Z</Time>
            <Position>
              <LatitudeDegrees>42.93280416168272495269775390625</LatitudeDegrees>
              <LongitudeDegrees>-1.75832991488277912139892578125</LongitudeDegrees>
            </Position>
            <AltitudeMeters>631.4000244140625</AltitudeMeters>
            <DistanceMeters>31754.772970886</DistanceMeters>
          </Trackpoint>
          <Trackpoint>
            <Time>2018-08-26T07:00:38.000Z</Time>
            <Position>
              <LatitudeDegrees>42.9328377731144428253173828125</LatitudeDegrees>
              <LongitudeDegrees>-1.7582885921001434326171875</LongitudeDegrees>
            </Position>
            <AltitudeMeters>631.5999755859375</AltitudeMeters>
            <DistanceMeters>31759.805799556</DistanceMeters>
          </Trackpoint>
          <Trackpoint>
            <Time>2018-08-26T07:00:39.000Z</Time>
            <Position>
              <LatitudeDegrees>42.932860739529132843017578125</LatitudeDegrees>
              <LongitudeDegrees>-1.75823721103370189666748046875</LongitudeDegrees>
            </Position>
            <AltitudeMeters>632</AltitudeMeters>
            <DistanceMeters>31764.711424259</DistanceMeters>
          </Trackpoint>
          <Trackpoint>
            <Time>2018-08-26T07:00:40.000Z</Time>
            <Position>
              <LatitudeDegrees>42.932879514992237091064453125</LatitudeDegrees>
              <LongitudeDegrees>-1.75818063318729400634765625</LongitudeDegrees>
            </Position>
            <AltitudeMeters>632.20001220703125</AltitudeMeters>
            <DistanceMeters>31769.772879274</DistanceMeters>
          </Trackpoint>
          <Trackpoint>
            <Time>2018-08-26T07:00:41.000Z</Time>
            <Position>
              <LatitudeDegrees>42.93289233930408954620361328125</LatitudeDegrees>
              <LongitudeDegrees>-1.75811550579965114593505859375</LongitudeDegrees>
            </Position>
            <AltitudeMeters>632.4000244140625</AltitudeMeters>
            <DistanceMeters>31775.268020367</DistanceMeters>
          </Trackpoint>
          <Trackpoint>
            <Time>2018-08-26T07:00:42.000Z</Time>
            <Position>
              <LatitudeDegrees>42.93289870955049991607666015625</LatitudeDegrees>
              <LongitudeDegrees>-1.7580471932888031005859375</LongitudeDegrees>
            </Position>
            <AltitudeMeters>632.5999755859375</AltitudeMeters>
            <DistanceMeters>31780.880230861</DistanceMeters>
          </Trackpoint>
          <Trackpoint>
            <Time>2018-08-26T07:00:43.000Z</Time>
            <Position>
              <LatitudeDegrees>42.93290139175951480865478515625</LatitudeDegrees>
              <LongitudeDegrees>-1.7579746060073375701904296875</LongitudeDegrees>
            </Position>
            <AltitudeMeters>632.79998779296875</AltitudeMeters>
            <DistanceMeters>31786.803986179</DistanceMeters>
          </Trackpoint>
          <Trackpoint>
            <Time>2018-08-26T07:00:44.000Z</Time>
            <Position>
              <LatitudeDegrees>42.9329078458249568939208984375</LatitudeDegrees>
              <LongitudeDegrees>-1.75789975561201572418212890625</LongitudeDegrees>
            </Position>
            <AltitudeMeters>633</AltitudeMeters>
            <DistanceMeters>31792.945535601</DistanceMeters>
          </Trackpoint>
          <Trackpoint>
            <Time>2018-08-26T07:00:45.000Z</Time>
            <Position>
              <LatitudeDegrees>42.93291262350976467132568359375</LatitudeDegrees>
              <LongitudeDegrees>-1.7578232288360595703125</LongitudeDegrees>
            </Position>
            <AltitudeMeters>633.20001220703125</AltitudeMeters>
            <DistanceMeters>31799.204327147</DistanceMeters>
          </Trackpoint>
          <Trackpoint>
            <Time>2018-08-26T07:00:46.000Z</Time>
            <Position>
              <LatitudeDegrees>42.93291245587170124053955078125</LatitudeDegrees>
              <LongitudeDegrees>-1.757741756737232208251953125</LongitudeDegrees>
            </Position>
            <AltitudeMeters>633.20001220703125</AltitudeMeters>
            <DistanceMeters>31805.843968191</DistanceMeters>
          </Trackpoint>
          <Trackpoint>
            <Time>2018-08-26T07:00:47.000Z</Time>
            <Position>
              <LatitudeDegrees>42.932909019291400909423828125</LatitudeDegrees>
              <LongitudeDegrees>-1.75765433348715305328369140625</LongitudeDegrees>
            </Position>
            <AltitudeMeters>633.4000244140625</AltitudeMeters>
            <DistanceMeters>31812.977936991</DistanceMeters>
          </Trackpoint>
          <Trackpoint>
            <Time>2018-08-26T07:00:48.000Z</Time>
            <Position>
              <LatitudeDegrees>42.93290507979691028594970703125</LatitudeDegrees>
              <LongitudeDegrees>-1.75756372511386871337890625</LongitudeDegrees>
            </Position>
            <AltitudeMeters>633.4000244140625</AltitudeMeters>
            <DistanceMeters>31820.374165969</DistanceMeters>
          </Trackpoint>
          <Trackpoint>
            <Time>2018-08-26T07:00:49.000Z</Time>
            <Position>
              <LatitudeDegrees>42.9329034872353076934814453125</LatitudeDegrees>
              <LongitudeDegrees>-1.75747076980769634246826171875</LongitudeDegrees>
            </Position>
            <AltitudeMeters>633.4000244140625</AltitudeMeters>
            <DistanceMeters>31827.951317547</DistanceMeters>
          </Trackpoint>
          <Trackpoint>
            <Time>2018-08-26T07:00:50.000Z</Time>
            <Position>
              <LatitudeDegrees>42.93292050249874591827392578125</LatitudeDegrees>
              <LongitudeDegrees>-1.75737597048282623291015625</LongitudeDegrees>
            </Position>
            <AltitudeMeters>633.4000244140625</AltitudeMeters>
            <DistanceMeters>31835.905229513</DistanceMeters>
          </Trackpoint>
          <Trackpoint>
            <Time>2018-08-26T07:00:51.000Z</Time>
            <Position>
              <LatitudeDegrees>42.93295604176819324493408203125</LatitudeDegrees>
              <LongitudeDegrees>-1.75729676149785518646240234375</LongitudeDegrees>
            </Position>
            <AltitudeMeters>633.4000244140625</AltitudeMeters>
            <DistanceMeters>31843.475227209</DistanceMeters>
          </Trackpoint>
          <Trackpoint>
            <Time>2018-08-26T07:00:52.000Z</Time>
            <Position>
              <LatitudeDegrees>42.93300465680658817291259765625</LatitudeDegrees>
              <LongitudeDegrees>-1.75722777843475341796875</LongitudeDegrees>
            </Position>
            <AltitudeMeters>633.4000244140625</AltitudeMeters>
            <DistanceMeters>31851.277261899</DistanceMeters>
          </Trackpoint>
          <Trackpoint>
            <Time>2018-08-26T07:00:53.000Z</Time>
            <Position>
              <LatitudeDegrees>42.93306433595716953277587890625</LatitudeDegrees>
              <LongitudeDegrees>-1.757181845605373382568359375</LongitudeDegrees>
            </Position>
            <AltitudeMeters>633</AltitudeMeters>
            <DistanceMeters>31858.900750077</DistanceMeters>
          </Trackpoint>
          <Trackpoint>
            <Time>2018-08-26T07:00:54.000Z</Time>
            <Position>
              <LatitudeDegrees>42.93313005007803440093994140625</LatitudeDegrees>
              <LongitudeDegrees>-1.7571598850190639495849609375</LongitudeDegrees>
            </Position>
            <AltitudeMeters>632.5999755859375</AltitudeMeters>
            <DistanceMeters>31866.431279943</DistanceMeters>
          </Trackpoint>
          <Trackpoint>
            <Time>2018-08-26T07:00:55.000Z</Time>
            <Position>
              <LatitudeDegrees>42.9332106001675128936767578125</LatitudeDegrees>
              <LongitudeDegrees>-1.7571565322577953338623046875</LongitudeDegrees>
            </Position>
            <AltitudeMeters>632.20001220703125</AltitudeMeters>
            <DistanceMeters>31875.401117239</DistanceMeters>
          </Trackpoint>
          <Trackpoint>
            <Time>2018-08-26T07:00:56.000Z</Time>
            <Position>
              <LatitudeDegrees>42.93329433538019657135009765625</LatitudeDegrees>
              <LongitudeDegrees>-1.757158376276493072509765625</LongitudeDegrees>
            </Position>
            <AltitudeMeters>631.79998779296875</AltitudeMeters>
            <DistanceMeters>31884.722458105</DistanceMeters>
          </Trackpoint>
          <Trackpoint>
            <Time>2018-08-26T07:00:57.000Z</Time>
            <Position>
              <LatitudeDegrees>42.93338385410606861114501953125</LatitudeDegrees>
              <LongitudeDegrees>-1.75716684199869632720947265625</LongitudeDegrees>
            </Position>
            <AltitudeMeters>631.20001220703125</AltitudeMeters>
            <DistanceMeters>31894.709761265</DistanceMeters>
          </Trackpoint>
          <Trackpoint>
            <Time>2018-08-26T07:00:58.000Z</Time>
            <Position>
              <LatitudeDegrees>42.933475971221923828125</LatitudeDegrees>
              <LongitudeDegrees>-1.75717078149318695068359375</LongitudeDegrees>
            </Position>
            <AltitudeMeters>630.5999755859375</AltitudeMeters>
            <DistanceMeters>31904.967365796</DistanceMeters>
          </Trackpoint>
          <Trackpoint>
            <Time>2018-08-26T07:00:59.000Z</Time>
            <Position>
              <LatitudeDegrees>42.93357009999454021453857421875</LatitudeDegrees>
              <LongitudeDegrees>-1.75717346370220184326171875</LongitudeDegrees>
            </Position>
            <AltitudeMeters>630.20001220703125</AltitudeMeters>
            <DistanceMeters>31915.446188705</DistanceMeters>
          </Trackpoint>
          <Trackpoint>
            <Time>2018-08-26T07:01:00.000Z</Time>
            <Position>
              <LatitudeDegrees>42.9336665757000446319580078125</LatitudeDegrees>
              <LongitudeDegrees>-1.75717807374894618988037109375</LongitudeDegrees>
            </Position>
            <AltitudeMeters>629.79998779296875</AltitudeMeters>
            <DistanceMeters>31926.190932878</DistanceMeters>
          </Trackpoint>
          <Trackpoint>
            <Time>2018-08-26T07:01:01.000Z</Time>
            <Position>
              <LatitudeDegrees>42.93376590125262737274169921875</LatitudeDegrees>
              <LongitudeDegrees>-1.75718494690954685211181640625</LongitudeDegrees>
            </Position>
            <AltitudeMeters>629.5999755859375</AltitudeMeters>
            <DistanceMeters>31937.260627424</DistanceMeters>
          </Trackpoint>
          <Trackpoint>
            <Time>2018-08-26T07:01:02.000Z</Time>
            <Position>
              <LatitudeDegrees>42.9338687472045421600341796875</LatitudeDegrees>
              <LongitudeDegrees>-1.757190562784671783447265625</LongitudeDegrees>
            </Position>
            <AltitudeMeters>629.20001220703125</AltitudeMeters>
            <DistanceMeters>31948.716766871</DistanceMeters>
          </Trackpoint>
          <Trackpoint>
            <Time>2018-08-26T07:01:03.000Z</Time>
            <Position>
              <LatitudeDegrees>42.93397343717515468597412109375</LatitudeDegrees>
              <LongitudeDegrees>-1.7571947537362575531005859375</LongitudeDegrees>
            </Position>
            <AltitudeMeters>629</AltitudeMeters>
            <DistanceMeters>31960.374108781</DistanceMeters>
          </Trackpoint>
          <Trackpoint>
            <Time>2018-08-26T07:01:04.000Z</Time>
            <Position>
              <LatitudeDegrees>42.93408072553575038909912109375</LatitudeDegrees>
              <LongitudeDegrees>-1.75720053724944591522216796875</LongitudeDegrees>
            </Position>
            <AltitudeMeters>628.79998779296875</AltitudeMeters>
            <DistanceMeters>31972.324827966</DistanceMeters>
          </Trackpoint>
          <Trackpoint>
            <Time>2018-08-26T07:01:05.000Z</Time>
            <Position>
              <LatitudeDegrees>42.9341849125921726226806640625</LatitudeDegrees>
              <LongitudeDegrees>-1.7572068236768245697021484375</LongitudeDegrees>
            </Position>
            <AltitudeMeters>628</AltitudeMeters>
            <DistanceMeters>31983.932487964</DistanceMeters>
          </Trackpoint>
          <Trackpoint>
            <Time>2018-08-26T07:01:06.000Z</Time>
            <Position>
              <LatitudeDegrees>42.9342885129153728485107421875</LatitudeDegrees>
              <LongitudeDegrees>-1.757206656038761138916015625</LongitudeDegrees>
            </Position>
            <AltitudeMeters>627</AltitudeMeters>
            <DistanceMeters>31995.463266149</DistanceMeters>
          </Trackpoint>
          <Trackpoint>
            <Time>2018-08-26T07:01:07.000Z</Time>
            <Position>
              <LatitudeDegrees>42.93439437635242938995361328125</LatitudeDegrees>
              <LongitudeDegrees>-1.75720321945846080780029296875</LongitudeDegrees>
            </Position>
            <AltitudeMeters>626.20001220703125</AltitudeMeters>
            <DistanceMeters>32007.24964371</DistanceMeters>
          </Trackpoint>
          <Trackpoint>
            <Time>2018-08-26T07:01:08.000Z</Time>
            <Position>
              <LatitudeDegrees>42.93449797667562961578369140625</LatitudeDegrees>
              <LongitudeDegrees>-1.75718285143375396728515625</LongitudeDegrees>
            </Position>
            <AltitudeMeters>625.4000244140625</AltitudeMeters>
            <DistanceMeters>32018.899236788</DistanceMeters>
          </Trackpoint>
          <Trackpoint>
            <Time>2018-08-26T07:01:09.000Z</Time>
            <Position>
              <LatitudeDegrees>42.9345976375043392181396484375</LatitudeDegrees>
              <LongitudeDegrees>-1.75713750533759593963623046875</LongitudeDegrees>
            </Position>
            <AltitudeMeters>624.79998779296875</AltitudeMeters>
            <DistanceMeters>32030.590998726</DistanceMeters>
          </Trackpoint>
          <Trackpoint>
            <Time>2018-08-26T07:01:10.000Z</Time>
            <Position>
              <LatitudeDegrees>42.93469863943755626678466796875</LatitudeDegrees>
              <LongitudeDegrees>-1.75707195885479450225830078125</LongitudeDegrees>
            </Position>
            <AltitudeMeters>624.4000244140625</AltitudeMeters>
            <DistanceMeters>32043.036959168</DistanceMeters>
          </Trackpoint>
          <Trackpoint>
            <Time>2018-08-26T07:01:11.000Z</Time>
            <Position>
              <LatitudeDegrees>42.93479804880917072296142578125</LatitudeDegrees>
              <LongitudeDegrees>-1.75699777901172637939453125</LongitudeDegrees>
            </Position>
            <AltitudeMeters>624.20001220703125</AltitudeMeters>
            <DistanceMeters>32055.645109933</DistanceMeters>
          </Trackpoint>
          <Trackpoint>
            <Time>2018-08-26T07:01:12.000Z</Time>
            <Position>
              <LatitudeDegrees>42.93489745818078517913818359375</LatitudeDegrees>
              <LongitudeDegrees>-1.75692058168351650238037109375</LongitudeDegrees>
            </Position>
            <AltitudeMeters>624</AltitudeMeters>
            <DistanceMeters>32068.373015157</DistanceMeters>
          </Trackpoint>
          <Trackpoint>
            <Time>2018-08-26T07:01:13.000Z</Time>
            <Position>
              <LatitudeDegrees>42.934997119009494781494140625</LatitudeDegrees>
              <LongitudeDegrees>-1.75684028305113315582275390625</LongitudeDegrees>
            </Position>
            <AltitudeMeters>623.20001220703125</AltitudeMeters>
            <DistanceMeters>32081.251852222</DistanceMeters>
          </Trackpoint>
          <Trackpoint>
            <Time>2018-08-26T07:01:14.000Z</Time>
            <Position>
              <LatitudeDegrees>42.9350965283811092376708984375</LatitudeDegrees>
              <LongitudeDegrees>-1.7567592300474643707275390625</LongitudeDegrees>
            </Position>
            <AltitudeMeters>622</AltitudeMeters>
            <DistanceMeters>32094.13769894</DistanceMeters>
          </Trackpoint>
          <Trackpoint>
            <Time>2018-08-26T07:01:15.000Z</Time>
            <Position>
              <LatitudeDegrees>42.93519468046724796295166015625</LatitudeDegrees>
              <LongitudeDegrees>-1.75667683593928813934326171875</LongitudeDegrees>
            </Position>
            <AltitudeMeters>621.79998779296875</AltitudeMeters>
            <DistanceMeters>32106.960320821</DistanceMeters>
          </Trackpoint>
          <Trackpoint>
            <Time>2018-08-26T07:01:16.000Z</Time>
            <Position>
              <LatitudeDegrees>42.9352926649153232574462890625</LatitudeDegrees>
              <LongitudeDegrees>-1.756593771278858184814453125</LongitudeDegrees>
            </Position>
            <AltitudeMeters>621.4000244140625</AltitudeMeters>
            <DistanceMeters>32119.795964346</DistanceMeters>
          </Trackpoint>
          <Trackpoint>
            <Time>2018-08-26T07:01:17.000Z</Time>
            <Position>
              <LatitudeDegrees>42.9353902302682399749755859375</LatitudeDegrees>
              <LongitudeDegrees>-1.75650919787585735321044921875</LongitudeDegrees>
            </Position>
            <AltitudeMeters>621.20001220703125</AltitudeMeters>
            <DistanceMeters>32132.65726056</DistanceMeters>
          </Trackpoint>
          <Trackpoint>
            <Time>2018-08-26T07:01:18.000Z</Time>
            <Position>
              <LatitudeDegrees>42.93549072928726673126220703125</LatitudeDegrees>
              <LongitudeDegrees>-1.75642705522477626800537109375</LongitudeDegrees>
            </Position>
            <AltitudeMeters>620.5999755859375</AltitudeMeters>
            <DistanceMeters>32145.69290318</DistanceMeters>
          </Trackpoint>
          <Trackpoint>
            <Time>2018-08-26T07:01:19.000Z</Time>
            <Position>
              <LatitudeDegrees>42.93559382669627666473388671875</LatitudeDegrees>
              <LongitudeDegrees>-1.75634759478271007537841796875</LongitudeDegrees>
            </Position>
            <AltitudeMeters>619.79998779296875</AltitudeMeters>
            <DistanceMeters>32158.868760634</DistanceMeters>
          </Trackpoint>
          <Trackpoint>
            <Time>2018-08-26T07:01:20.000Z</Time>
            <Position>
              <LatitudeDegrees>42.9356993548572063446044921875</LatitudeDegrees>
              <LongitudeDegrees>-1.7562747560441493988037109375</LongitudeDegrees>
            </Position>
            <AltitudeMeters>618.5999755859375</AltitudeMeters>
            <DistanceMeters>32172.028845593</DistanceMeters>
          </Trackpoint>
          <Trackpoint>
            <Time>2018-08-26T07:01:21.000Z</Time>
            <Position>
              <LatitudeDegrees>42.9358027875423431396484375</LatitudeDegrees>
              <LongitudeDegrees>-1.75620853900909423828125</LongitudeDegrees>
            </Position>
            <AltitudeMeters>617.5999755859375</AltitudeMeters>
            <DistanceMeters>32184.743263727</DistanceMeters>
          </Trackpoint>
          <Trackpoint>
            <Time>2018-08-26T07:01:22.000Z</Time>
            <Position>
              <LatitudeDegrees>42.93590663932263851165771484375</LatitudeDegrees>
              <LongitudeDegrees>-1.756145842373371124267578125</LongitudeDegrees>
            </Position>
            <AltitudeMeters>616.5999755859375</AltitudeMeters>
            <DistanceMeters>32197.380744963</DistanceMeters>
          </Trackpoint>
          <Trackpoint>
            <Time>2018-08-26T07:01:23.000Z</Time>
            <Position>
              <LatitudeDegrees>42.93601023964583873748779296875</LatitudeDegrees>
              <LongitudeDegrees>-1.7560813017189502716064453125</LongitudeDegrees>
            </Position>
            <AltitudeMeters>615.5999755859375</AltitudeMeters>
            <DistanceMeters>32210.05425946</DistanceMeters>
          </Trackpoint>
          <Trackpoint>
            <Time>2018-08-26T07:01:24.000Z</Time>
            <Position>
              <LatitudeDegrees>42.93610788881778717041015625</LatitudeDegrees>
              <LongitudeDegrees>-1.75600410439074039459228515625</LongitudeDegrees>
            </Position>
            <AltitudeMeters>614.79998779296875</AltitudeMeters>
            <DistanceMeters>32222.61217549</DistanceMeters>
          </Trackpoint>
          <Trackpoint>
            <Time>2018-08-26T07:01:25.000Z</Time>
            <Position>
              <LatitudeDegrees>42.93619598262012004852294921875</LatitudeDegrees>
              <LongitudeDegrees>-1.75590611994266510009765625</LongitudeDegrees>
            </Position>
            <AltitudeMeters>614.20001220703125</AltitudeMeters>
            <DistanceMeters>32235.256800179</DistanceMeters>
          </Trackpoint>
          <Trackpoint>
            <Time>2018-08-26T07:01:26.000Z</Time>
            <Position>
              <LatitudeDegrees>42.93626052327454090118408203125</LatitudeDegrees>
              <LongitudeDegrees>-1.75578399561345577239990234375</LongitudeDegrees>
            </Position>
            <AltitudeMeters>613.4000244140625</AltitudeMeters>
            <DistanceMeters>32247.530338187</DistanceMeters>
          </Trackpoint>
          <Trackpoint>
            <Time>2018-08-26T07:01:27.000Z</Time>
            <Position>
              <LatitudeDegrees>42.93629472143948078155517578125</LatitudeDegrees>
              <LongitudeDegrees>-1.75564703531563282012939453125</LongitudeDegrees>
            </Position>
            <AltitudeMeters>612.5999755859375</AltitudeMeters>
            <DistanceMeters>32259.32169464</DistanceMeters>
          </Trackpoint>
          <Trackpoint>
            <Time>2018-08-26T07:01:28.000Z</Time>
            <Position>
              <LatitudeDegrees>42.93628952465951442718505859375</LatitudeDegrees>
              <LongitudeDegrees>-1.75550647079944610595703125</LongitudeDegrees>
            </Position>
            <AltitudeMeters>611.79998779296875</AltitudeMeters>
            <DistanceMeters>32270.789651447</DistanceMeters>
          </Trackpoint>
          <Trackpoint>
            <Time>2018-08-26T07:01:29.000Z</Time>
            <Position>
              <LatitudeDegrees>42.93624945916235446929931640625</LatitudeDegrees>
              <LongitudeDegrees>-1.7553654871881008148193359375</LongitudeDegrees>
            </Position>
            <AltitudeMeters>611</AltitudeMeters>
            <DistanceMeters>32283.113117909</DistanceMeters>
          </Trackpoint>
          <Trackpoint>
            <Time>2018-08-26T07:01:30.000Z</Time>
            <Position>
              <LatitudeDegrees>42.93619665317237377166748046875</LatitudeDegrees>
              <LongitudeDegrees>-1.75523347221314907073974609375</LongitudeDegrees>
            </Position>
            <AltitudeMeters>610.20001220703125</AltitudeMeters>
            <DistanceMeters>32295.371195737</DistanceMeters>
          </Trackpoint>
          <Trackpoint>
            <Time>2018-08-26T07:01:31.000Z</Time>
            <Position>
              <LatitudeDegrees>42.93615876697003841400146484375</LatitudeDegrees>
              <LongitudeDegrees>-1.75509952940046787261962890625</LongitudeDegrees>
            </Position>
            <AltitudeMeters>609.4000244140625</AltitudeMeters>
            <DistanceMeters>32307.071450387</DistanceMeters>
          </Trackpoint>
          <Trackpoint>
            <Time>2018-08-26T07:01:32.000Z</Time>
            <Position>
              <LatitudeDegrees>42.9361613653600215911865234375</LatitudeDegrees>
              <LongitudeDegrees>-1.7549675144255161285400390625</LongitudeDegrees>
            </Position>
            <AltitudeMeters>608.79998779296875</AltitudeMeters>
            <DistanceMeters>32317.832570232</DistanceMeters>
          </Trackpoint>
          <Trackpoint>
            <Time>2018-08-26T07:01:33.000Z</Time>
            <Position>
              <LatitudeDegrees>42.93620335869491100311279296875</LatitudeDegrees>
              <LongitudeDegrees>-1.754848323762416839599609375</LongitudeDegrees>
            </Position>
            <AltitudeMeters>608</AltitudeMeters>
            <DistanceMeters>32328.610459793</DistanceMeters>
          </Trackpoint>
          <Trackpoint>
            <Time>2018-08-26T07:01:34.000Z</Time>
            <Position>
              <LatitudeDegrees>42.9362696595489978790283203125</LatitudeDegrees>
              <LongitudeDegrees>-1.75475302152335643768310546875</LongitudeDegrees>
            </Position>
            <AltitudeMeters>607.4000244140625</AltitudeMeters>
            <DistanceMeters>32339.322799007</DistanceMeters>
          </Trackpoint>
          <Trackpoint>
            <Time>2018-08-26T07:01:35.000Z</Time>
            <Position>
              <LatitudeDegrees>42.936350293457508087158203125</LatitudeDegrees>
              <LongitudeDegrees>-1.7546741478145122528076171875</LongitudeDegrees>
            </Position>
            <AltitudeMeters>606.5999755859375</AltitudeMeters>
            <DistanceMeters>32350.361451621</DistanceMeters>
          </Trackpoint>
          <Trackpoint>
            <Time>2018-08-26T07:01:36.000Z</Time>
            <Position>
              <LatitudeDegrees>42.93643536977469921112060546875</LatitudeDegrees>
              <LongitudeDegrees>-1.75459912978112697601318359375</LongitudeDegrees>
            </Position>
            <AltitudeMeters>605.5999755859375</AltitudeMeters>
            <DistanceMeters>32361.632437178</DistanceMeters>
          </Trackpoint>
          <Trackpoint>
            <Time>2018-08-26T07:01:37.000Z</Time>
            <Position>
              <LatitudeDegrees>42.93652170337736606597900390625</LatitudeDegrees>
              <LongitudeDegrees>-1.754523776471614837646484375</LongitudeDegrees>
            </Position>
            <AltitudeMeters>604.79998779296875</AltitudeMeters>
            <DistanceMeters>32373.035642902</DistanceMeters>
          </Trackpoint>
          <Trackpoint>
            <Time>2018-08-26T07:01:38.000Z</Time>
            <Position>
              <LatitudeDegrees>42.93660736642777919769287109375</LatitudeDegrees>
              <LongitudeDegrees>-1.7544478364288806915283203125</LongitudeDegrees>
            </Position>
            <AltitudeMeters>604</AltitudeMeters>
            <DistanceMeters>32384.402363351</DistanceMeters>
          </Trackpoint>
          <Trackpoint>
            <Time>2018-08-26T07:01:39.000Z</Time>
            <Position>
              <LatitudeDegrees>42.93668883852660655975341796875</LatitudeDegrees>
              <LongitudeDegrees>-1.75436661578714847564697265625</LongitudeDegrees>
            </Position>
            <AltitudeMeters>603.20001220703125</AltitudeMeters>
            <DistanceMeters>32395.629197589</DistanceMeters>
          </Trackpoint>
          <Trackpoint>
            <Time>2018-08-26T07:01:40.000Z</Time>
            <Position>
              <LatitudeDegrees>42.93676259927451610565185546875</LatitudeDegrees>
              <LongitudeDegrees>-1.7542738281190395355224609375</LongitudeDegrees>
            </Position>
            <AltitudeMeters>602.5999755859375</AltitudeMeters>
            <DistanceMeters>32406.789881908</DistanceMeters>
          </Trackpoint>
          <Trackpoint>
            <Time>2018-08-26T07:01:41.000Z</Time>
            <Position>
              <LatitudeDegrees>42.9368211887776851654052734375</LatitudeDegrees>
              <LongitudeDegrees>-1.7541655339300632476806640625</LongitudeDegrees>
            </Position>
            <AltitudeMeters>602.20001220703125</AltitudeMeters>
            <DistanceMeters>32417.762073081</DistanceMeters>
          </Trackpoint>
          <Trackpoint>
            <Time>2018-08-26T07:01:42.000Z</Time>
            <Position>
              <LatitudeDegrees>42.93686117045581340789794921875</LatitudeDegrees>
              <LongitudeDegrees>-1.75404726527631282806396484375</LongitudeDegrees>
            </Position>
            <AltitudeMeters>602</AltitudeMeters>
            <DistanceMeters>32428.377029222</DistanceMeters>
          </Trackpoint>
          <Trackpoint>
            <Time>2018-08-26T07:01:43.000Z</Time>
            <Position>
              <LatitudeDegrees>42.936890423297882080078125</LatitudeDegrees>
              <LongitudeDegrees>-1.7539224587380886077880859375</LongitudeDegrees>
            </Position>
            <AltitudeMeters>601.5999755859375</AltitudeMeters>
            <DistanceMeters>32439.055596791</DistanceMeters>
          </Trackpoint>
          <Trackpoint>
            <Time>2018-08-26T07:01:44.000Z</Time>
            <Position>
              <LatitudeDegrees>42.9369174130260944366455078125</LatitudeDegrees>
              <LongitudeDegrees>-1.75379522144794464111328125</LongitudeDegrees>
            </Position>
            <AltitudeMeters>601.4000244140625</AltitudeMeters>
            <DistanceMeters>32449.850230015</DistanceMeters>
          </Trackpoint>
          <Trackpoint>
            <Time>2018-08-26T07:01:45.000Z</Time>
            <Position>
              <LatitudeDegrees>42.93694339692592620849609375</LatitudeDegrees>
              <LongitudeDegrees>-1.75366622395813465118408203125</LongitudeDegrees>
            </Position>
            <AltitudeMeters>601.20001220703125</AltitudeMeters>
            <DistanceMeters>32460.752242038</DistanceMeters>
          </Trackpoint>
          <Trackpoint>
            <Time>2018-08-26T07:01:46.000Z</Time>
            <Position>
              <LatitudeDegrees>42.93697030283510684967041015625</LatitudeDegrees>
              <LongitudeDegrees>-1.75353680737316608428955078125</LongitudeDegrees>
            </Position>
            <AltitudeMeters>600.79998779296875</AltitudeMeters>
            <DistanceMeters>32471.714964665</DistanceMeters>
          </Trackpoint>
          <Trackpoint>
            <Time>2018-08-26T07:01:47.000Z</Time>
            <Position>
              <LatitudeDegrees>42.93699729256331920623779296875</LatitudeDegrees>
              <LongitudeDegrees>-1.75340831279754638671875</LongitudeDegrees>
            </Position>
            <AltitudeMeters>600.5999755859375</AltitudeMeters>
            <DistanceMeters>32482.607447137</DistanceMeters>
          </Trackpoint>
          <Trackpoint>
            <Time>2018-08-26T07:01:48.000Z</Time>
            <Position>
              <LatitudeDegrees>42.93702327646315097808837890625</LatitudeDegrees>
              <LongitudeDegrees>-1.753282248973846435546875</LongitudeDegrees>
            </Position>
            <AltitudeMeters>600.4000244140625</AltitudeMeters>
            <DistanceMeters>32493.279247553</DistanceMeters>
          </Trackpoint>
          <Trackpoint>
            <Time>2018-08-26T07:01:49.000Z</Time>
            <Position>
              <LatitudeDegrees>42.93704959563910961151123046875</LatitudeDegrees>
              <LongitudeDegrees>-1.75315828062593936920166015625</LongitudeDegrees>
            </Position>
            <AltitudeMeters>600.20001220703125</AltitudeMeters>
            <DistanceMeters>32503.79720679</DistanceMeters>
          </Trackpoint>
          <Trackpoint>
            <Time>2018-08-26T07:01:50.000Z</Time>
            <Position>
              <LatitudeDegrees>42.93707658536732196807861328125</LatitudeDegrees>
              <LongitudeDegrees>-1.7530356533825397491455078125</LongitudeDegrees>
            </Position>
            <AltitudeMeters>600.20001220703125</AltitudeMeters>
            <DistanceMeters>32514.231122719</DistanceMeters>
          </Trackpoint>
          <Trackpoint>
            <Time>2018-08-26T07:01:51.000Z</Time>
            <Position>
              <LatitudeDegrees>42.93710357509553432464599609375</LatitudeDegrees>
              <LongitudeDegrees>-1.75291369669139385223388671875</LongitudeDegrees>
            </Position>
            <AltitudeMeters>600</AltitudeMeters>
            <DistanceMeters>32524.612546627</DistanceMeters>
          </Trackpoint>
          <Trackpoint>
            <Time>2018-08-26T07:01:52.000Z</Time>
            <Position>
              <LatitudeDegrees>42.93713006190955638885498046875</LatitudeDegrees>
              <LongitudeDegrees>-1.75279199145734310150146484375</LongitudeDegrees>
            </Position>
            <AltitudeMeters>599.79998779296875</AltitudeMeters>
            <DistanceMeters>32534.958246027</DistanceMeters>
          </Trackpoint>
          <Trackpoint>
            <Time>2018-08-26T07:01:53.000Z</Time>
            <Position>
              <LatitudeDegrees>42.93715688399970531463623046875</LatitudeDegrees>
              <LongitudeDegrees>-1.7526725493371486663818359375</LongitudeDegrees>
            </Position>
            <AltitudeMeters>599.4000244140625</AltitudeMeters>
            <DistanceMeters>32545.138530274</DistanceMeters>
          </Trackpoint>
          <Trackpoint>
            <Time>2018-08-26T07:01:54.000Z</Time>
            <Position>
              <LatitudeDegrees>42.9371836222708225250244140625</LatitudeDegrees>
              <LongitudeDegrees>-1.75255545414984226226806640625</LongitudeDegrees>
            </Position>
            <AltitudeMeters>599.4000244140625</AltitudeMeters>
            <DistanceMeters>32555.133515802</DistanceMeters>
          </Trackpoint>
          <Trackpoint>
            <Time>2018-08-26T07:01:55.000Z</Time>
            <Position>
              <LatitudeDegrees>42.93720952235162258148193359375</LatitudeDegrees>
              <LongitudeDegrees>-1.7524412088096141815185546875</LongitudeDegrees>
            </Position>
            <AltitudeMeters>599.20001220703125</AltitudeMeters>
            <DistanceMeters>32564.879199156</DistanceMeters>
          </Trackpoint>
          <Trackpoint>
            <Time>2018-08-26T07:01:56.000Z</Time>
            <Position>
              <LatitudeDegrees>42.937234751880168914794921875</LatitudeDegrees>
              <LongitudeDegrees>-1.7523300647735595703125</LongitudeDegrees>
            </Position>
            <AltitudeMeters>599.20001220703125</AltitudeMeters>
            <DistanceMeters>32574.360941669</DistanceMeters>
          </Trackpoint>
          <Trackpoint>
            <Time>2018-08-26T07:01:57.000Z</Time>
            <Position>
              <LatitudeDegrees>42.9372597299516201019287109375</LatitudeDegrees>
              <LongitudeDegrees>-1.75222076475620269775390625</LongitudeDegrees>
            </Position>
            <AltitudeMeters>599.20001220703125</AltitudeMeters>
            <DistanceMeters>32583.690997238</DistanceMeters>
          </Trackpoint>
          <Trackpoint>
            <Time>2018-08-26T07:01:58.000Z</Time>
            <Position>
              <LatitudeDegrees>42.9372842051088809967041015625</LatitudeDegrees>
              <LongitudeDegrees>-1.7521123029291629791259765625</LongitudeDegrees>
            </Position>
            <AltitudeMeters>599.20001220703125</AltitudeMeters>
            <DistanceMeters>32592.939396238</DistanceMeters>
          </Trackpoint>
          <Trackpoint>
            <Time>2018-08-26T07:01:59.000Z</Time>
            <Position>
              <LatitudeDegrees>42.9373073391616344451904296875</LatitudeDegrees>
              <LongitudeDegrees>-1.7520056851208209991455078125</LongitudeDegrees>
            </Position>
            <AltitudeMeters>599.20001220703125</AltitudeMeters>
            <DistanceMeters>32602.000381562</DistanceMeters>
          </Trackpoint>
          <Trackpoint>
            <Time>2018-08-26T07:02:00.000Z</Time>
            <Position>
              <LatitudeDegrees>42.93732904829084873199462890625</LatitudeDegrees>
              <LongitudeDegrees>-1.75190133042633533477783203125</LongitudeDegrees>
            </Position>
            <AltitudeMeters>599.20001220703125</AltitudeMeters>
            <DistanceMeters>32610.84042011</DistanceMeters>
          </Trackpoint>
          <Trackpoint>
            <Time>2018-08-26T07:02:01.000Z</Time>
            <Position>
              <LatitudeDegrees>42.9373475722968578338623046875</LatitudeDegrees>
              <LongitudeDegrees>-1.751796640455722808837890625</LongitudeDegrees>
            </Position>
            <AltitudeMeters>599.20001220703125</AltitudeMeters>
            <DistanceMeters>32619.616897312</DistanceMeters>
          </Trackpoint>
          <Trackpoint>
            <Time>2018-08-26T07:02:02.000Z</Time>
            <Position>
              <LatitudeDegrees>42.93736207298934459686279296875</LatitudeDegrees>
              <LongitudeDegrees>-1.75169236958026885986328125</LongitudeDegrees>
            </Position>
            <AltitudeMeters>599.20001220703125</AltitudeMeters>
            <DistanceMeters>32628.265894552</DistanceMeters>
          </Trackpoint>
          <Trackpoint>
            <Time>2018-08-26T07:02:03.000Z</Time>
            <Position>
              <LatitudeDegrees>42.93737514875829219818115234375</LatitudeDegrees>
              <LongitudeDegrees>-1.75158902071416378021240234375</LongitudeDegrees>
            </Position>
            <AltitudeMeters>599.20001220703125</AltitudeMeters>
            <DistanceMeters>32636.813017953</DistanceMeters>
          </Trackpoint>
          <Trackpoint>
            <Time>2018-08-26T07:02:04.000Z</Time>
            <Position>
              <LatitudeDegrees>42.93738654814660549163818359375</LatitudeDegrees>
              <LongitudeDegrees>-1.751486174762248992919921875</LongitudeDegrees>
            </Position>
            <AltitudeMeters>599.20001220703125</AltitudeMeters>
            <DistanceMeters>32645.288527266</DistanceMeters>
          </Trackpoint>
          <Trackpoint>
            <Time>2018-08-26T07:02:05.000Z</Time>
            <Position>
              <LatitudeDegrees>42.93739526532590389251708984375</LatitudeDegrees>
              <LongitudeDegrees>-1.7513830773532390594482421875</LongitudeDegrees>
            </Position>
            <AltitudeMeters>599.20001220703125</AltitudeMeters>
            <DistanceMeters>32653.744837062</DistanceMeters>
          </Trackpoint>
          <Trackpoint>
            <Time>2018-08-26T07:02:06.000Z</Time>
            <Position>
              <LatitudeDegrees>42.93740205466747283935546875</LatitudeDegrees>
              <LongitudeDegrees>-1.751278303563594818115234375</LongitudeDegrees>
            </Position>
            <AltitudeMeters>599.20001220703125</AltitudeMeters>
            <DistanceMeters>32662.316225627</DistanceMeters>
          </Trackpoint>
          <Trackpoint>
            <Time>2018-08-26T07:02:07.000Z</Time>
            <Position>
              <LatitudeDegrees>42.93740876019001007080078125</LatitudeDegrees>
              <LongitudeDegrees>-1.751171685755252838134765625</LongitudeDegrees>
            </Position>
            <AltitudeMeters>599.20001220703125</AltitudeMeters>
            <DistanceMeters>32671.035929961</DistanceMeters>
          </Trackpoint>
          <Trackpoint>
            <Time>2018-08-26T07:02:08.000Z</Time>
            <Position>
              <LatitudeDegrees>42.93741622008383274078369140625</LatitudeDegrees>
              <LongitudeDegrees>-1.75106414593756198883056640625</LongitudeDegrees>
            </Position>
            <AltitudeMeters>599.20001220703125</AltitudeMeters>
            <DistanceMeters>32679.837066009</DistanceMeters>
          </Trackpoint>
          <Trackpoint>
            <Time>2018-08-26T07:02:09.000Z</Time>
            <Position>
              <LatitudeDegrees>42.93742577545344829559326171875</LatitudeDegrees>
              <LongitudeDegrees>-1.7509566061198711395263671875</LongitudeDegrees>
            </Position>
            <AltitudeMeters>599.20001220703125</AltitudeMeters>
            <DistanceMeters>32688.663815102</DistanceMeters>
          </Trackpoint>
          <Trackpoint>
            <Time>2018-08-26T07:02:10.000Z</Time>
            <Position>
              <LatitudeDegrees>42.9374362528324127197265625</LatitudeDegrees>
              <LongitudeDegrees>-1.75084638409316539764404296875</LongitudeDegrees>
            </Position>
            <AltitudeMeters>599.20001220703125</AltitudeMeters>
            <DistanceMeters>32697.720813193</DistanceMeters>
          </Trackpoint>
          <Trackpoint>
            <Time>2018-08-26T07:02:11.000Z</Time>
            <Position>
              <LatitudeDegrees>42.93744631111621856689453125</LatitudeDegrees>
              <LongitudeDegrees>-1.75073557533323764801025390625</LongitudeDegrees>
            </Position>
            <AltitudeMeters>599.20001220703125</AltitudeMeters>
            <DistanceMeters>32706.819093842</DistanceMeters>
          </Trackpoint>
          <Trackpoint>
            <Time>2018-08-26T07:02:12.000Z</Time>
            <Position>
              <LatitudeDegrees>42.9374535195529460906982421875</LatitudeDegrees>
              <LongitudeDegrees>-1.75062309019267559051513671875</LongitudeDegrees>
            </Position>
            <AltitudeMeters>599.20001220703125</AltitudeMeters>
            <DistanceMeters>32716.019525168</DistanceMeters>
          </Trackpoint>
          <Trackpoint>
            <Time>2018-08-26T07:02:13.000Z</Time>
            <Position>
              <LatitudeDegrees>42.93746240437030792236328125</LatitudeDegrees>
              <LongitudeDegrees>-1.7505106888711452484130859375</LongitudeDegrees>
            </Position>
            <AltitudeMeters>599.20001220703125</AltitudeMeters>
            <DistanceMeters>32725.231726773</DistanceMeters>
          </Trackpoint>
          <Trackpoint>
            <Time>2018-08-26T07:02:14.000Z</Time>
            <Position>
              <LatitudeDegrees>42.9374719597399234771728515625</LatitudeDegrees>
              <LongitudeDegrees>-1.7503963597118854522705078125</LongitudeDegrees>
            </Position>
            <AltitudeMeters>599.20001220703125</AltitudeMeters>
            <DistanceMeters>32734.608123963</DistanceMeters>
          </Trackpoint>
          <Trackpoint>
            <Time>2018-08-26T07:02:15.000Z</Time>
            <Position>
              <LatitudeDegrees>42.93748042546212673187255859375</LatitudeDegrees>
              <LongitudeDegrees>-1.750281862914562225341796875</LongitudeDegrees>
            </Position>
            <AltitudeMeters>599.20001220703125</AltitudeMeters>
            <DistanceMeters>32743.985484168</DistanceMeters>
          </Trackpoint>
          <Trackpoint>
            <Time>2018-08-26T07:02:16.000Z</Time>
            <Position>
              <LatitudeDegrees>42.9374870471656322479248046875</LatitudeDegrees>
              <LongitudeDegrees>-1.750166527926921844482421875</LongitudeDegrees>
            </Position>
            <AltitudeMeters>599</AltitudeMeters>
            <DistanceMeters>32753.412785603</DistanceMeters>
          </Trackpoint>
          <Trackpoint>
            <Time>2018-08-26T07:02:17.000Z</Time>
            <Position>
              <LatitudeDegrees>42.93749467469751834869384765625</LatitudeDegrees>
              <LongitudeDegrees>-1.7500510253012180328369140625</LongitudeDegrees>
            </Position>
            <AltitudeMeters>598.79998779296875</AltitudeMeters>
            <DistanceMeters>32762.863047824</DistanceMeters>
          </Trackpoint>
          <Trackpoint>
            <Time>2018-08-26T07:02:18.000Z</Time>
            <Position>
              <LatitudeDegrees>42.93750389479100704193115234375</LatitudeDegrees>
              <LongitudeDegrees>-1.74993552267551422119140625</LongitudeDegrees>
            </Position>
            <AltitudeMeters>598.5999755859375</AltitudeMeters>
            <DistanceMeters>32772.330494089</DistanceMeters>
          </Trackpoint>
          <Trackpoint>
            <Time>2018-08-26T07:02:19.000Z</Time>
            <Position>
              <LatitudeDegrees>42.9375131987035274505615234375</LatitudeDegrees>
              <LongitudeDegrees>-1.7498195171356201171875</LongitudeDegrees>
            </Position>
            <AltitudeMeters>598.20001220703125</AltitudeMeters>
            <DistanceMeters>32781.839815069</DistanceMeters>
          </Trackpoint>
          <Trackpoint>
            <Time>2018-08-26T07:02:20.000Z</Time>
            <Position>
              <LatitudeDegrees>42.9375219158828258514404296875</LatitudeDegrees>
              <LongitudeDegrees>-1.7497026734054088592529296875</LongitudeDegrees>
            </Position>
            <AltitudeMeters>598</AltitudeMeters>
            <DistanceMeters>32791.410189428</DistanceMeters>
          </Trackpoint>
          <Trackpoint>
            <Time>2018-08-26T07:02:21.000Z</Time>
            <Position>
              <LatitudeDegrees>42.93753021396696567535400390625</LatitudeDegrees>
              <LongitudeDegrees>-1.74958490766584873199462890625</LongitudeDegrees>
            </Position>
            <AltitudeMeters>597.79998779296875</AltitudeMeters>
            <DistanceMeters>32801.050601596</DistanceMeters>
          </Trackpoint>
          <Trackpoint>
            <Time>2018-08-26T07:02:22.000Z</Time>
            <Position>
              <LatitudeDegrees>42.9375420324504375457763671875</LatitudeDegrees>
              <LongitudeDegrees>-1.7494694888591766357421875</LongitudeDegrees>
            </Position>
            <AltitudeMeters>597.4000244140625</AltitudeMeters>
            <DistanceMeters>32810.547569718</DistanceMeters>
          </Trackpoint>
          <Trackpoint>
            <Time>2018-08-26T07:02:23.000Z</Time>
            <Position>
              <LatitudeDegrees>42.93755829334259033203125</LatitudeDegrees>
              <LongitudeDegrees>-1.749355494976043701171875</LongitudeDegrees>
            </Position>
            <AltitudeMeters>597</AltitudeMeters>
            <DistanceMeters>32820.011200003</DistanceMeters>
          </Trackpoint>
          <Trackpoint>
            <Time>2018-08-26T07:02:24.000Z</Time>
            <Position>
              <LatitudeDegrees>42.93758067302405834197998046875</LatitudeDegrees>
              <LongitudeDegrees>-1.7492441833019256591796875</LongitudeDegrees>
            </Position>
            <AltitudeMeters>596.79998779296875</AltitudeMeters>
            <DistanceMeters>32829.416924799</DistanceMeters>
          </Trackpoint>
          <Trackpoint>
            <Time>2018-08-26T07:02:25.000Z</Time>
            <Position>
              <LatitudeDegrees>42.93761017732322216033935546875</LatitudeDegrees>
              <LongitudeDegrees>-1.74913681112229824066162109375</LongitudeDegrees>
            </Position>
            <AltitudeMeters>596.5999755859375</AltitudeMeters>
            <DistanceMeters>32838.761486811</DistanceMeters>
          </Trackpoint>
          <Trackpoint>
            <Time>2018-08-26T07:02:26.000Z</Time>
            <Position>
              <LatitudeDegrees>42.937645129859447479248046875</LatitudeDegrees>
              <LongitudeDegrees>-1.749033629894256591796875</LongitudeDegrees>
            </Position>
            <AltitudeMeters>596.20001220703125</AltitudeMeters>
            <DistanceMeters>32848.025494936</DistanceMeters>
          </Trackpoint>
          <Trackpoint>
            <Time>2018-08-26T07:02:27.000Z</Time>
            <Position>
              <LatitudeDegrees>42.9376828484237194061279296875</LatitudeDegrees>
              <LongitudeDegrees>-1.7489348910748958587646484375</LongitudeDegrees>
            </Position>
            <AltitudeMeters>596</AltitudeMeters>
            <DistanceMeters>32857.100919292</DistanceMeters>
          </Trackpoint>
          <Trackpoint>
            <Time>2018-08-26T07:02:28.000Z</Time>
            <Position>
              <LatitudeDegrees>42.93772199191153049468994140625</LatitudeDegrees>
              <LongitudeDegrees>-1.74884143285453319549560546875</LongitudeDegrees>
            </Position>
            <AltitudeMeters>595.79998779296875</AltitudeMeters>
            <DistanceMeters>32865.874309264</DistanceMeters>
          </Trackpoint>
          <Trackpoint>
            <Time>2018-08-26T07:02:29.000Z</Time>
            <Position>
              <LatitudeDegrees>42.93776121921837329864501953125</LatitudeDegrees>
              <LongitudeDegrees>-1.7487541772425174713134765625</LongitudeDegrees>
            </Position>
            <AltitudeMeters>595.5999755859375</AltitudeMeters>
            <DistanceMeters>32874.21774137</DistanceMeters>
          </Trackpoint>
          <Trackpoint>
            <Time>2018-08-26T07:02:30.000Z</Time>
            <Position>
              <LatitudeDegrees>42.93780178762972354888916015625</LatitudeDegrees>
              <LongitudeDegrees>-1.7486747168004512786865234375</LongitudeDegrees>
            </Position>
            <AltitudeMeters>595.5999755859375</AltitudeMeters>
            <DistanceMeters>32882.111253102</DistanceMeters>
          </Trackpoint>
          <Trackpoint>
            <Time>2018-08-26T07:02:31.000Z</Time>
            <Position>
              <LatitudeDegrees>42.937842942774295806884765625</LatitudeDegrees>
              <LongitudeDegrees>-1.7486033029854297637939453125</LongitudeDegrees>
            </Position>
            <AltitudeMeters>595.4000244140625</AltitudeMeters>
            <DistanceMeters>32889.517242862</DistanceMeters>
          </Trackpoint>
          <Trackpoint>
            <Time>2018-08-26T07:02:32.000Z</Time>
            <Position>
              <LatitudeDegrees>42.9378907196223735809326171875</LatitudeDegrees>
              <LongitudeDegrees>-1.74855175428092479705810546875</LongitudeDegrees>
            </Position>
            <AltitudeMeters>595.4000244140625</AltitudeMeters>
            <DistanceMeters>32896.293520507</DistanceMeters>
          </Trackpoint>
          <Trackpoint>
            <Time>2018-08-26T07:02:33.000Z</Time>
            <Position>
              <LatitudeDegrees>42.937946878373622894287109375</LatitudeDegrees>
              <LongitudeDegrees>-1.748534739017486572265625</LongitudeDegrees>
            </Position>
            <AltitudeMeters>595.4000244140625</AltitudeMeters>
            <DistanceMeters>32902.696375109</DistanceMeters>
          </Trackpoint>
          <Trackpoint>
            <Time>2018-08-26T07:02:34.000Z</Time>
            <Position>
              <LatitudeDegrees>42.93800127692520618438720703125</LatitudeDegrees>
              <LongitudeDegrees>-1.74855091609060764312744140625</LongitudeDegrees>
            </Position>
            <AltitudeMeters>595.4000244140625</AltitudeMeters>
            <DistanceMeters>32908.892816429</DistanceMeters>
          </Trackpoint>
          <Trackpoint>
            <Time>2018-08-26T07:02:35.000Z</Time>
            <Position>
              <LatitudeDegrees>42.9380516521632671356201171875</LatitudeDegrees>
              <LongitudeDegrees>-1.7485858686268329620361328125</LongitudeDegrees>
            </Position>
            <AltitudeMeters>595.4000244140625</AltitudeMeters>
            <DistanceMeters>32915.181833429</DistanceMeters>
          </Trackpoint>
          <Trackpoint>
            <Time>2018-08-26T07:02:36.000Z</Time>
            <Position>
              <LatitudeDegrees>42.9381032846868038177490234375</LatitudeDegrees>
              <LongitudeDegrees>-1.748626269400119781494140625</LongitudeDegrees>
            </Position>
            <AltitudeMeters>595.4000244140625</AltitudeMeters>
            <DistanceMeters>32921.805134069</DistanceMeters>
          </Trackpoint>
          <Trackpoint>
            <Time>2018-08-26T07:02:37.000Z</Time>
            <Position>
              <LatitudeDegrees>42.9381577670574188232421875</LatitudeDegrees>
              <LongitudeDegrees>-1.74867010675370693206787109375</LongitudeDegrees>
            </Position>
            <AltitudeMeters>595.4000244140625</AltitudeMeters>
            <DistanceMeters>32928.842887211</DistanceMeters>
          </Trackpoint>
          <Trackpoint>
            <Time>2018-08-26T07:02:38.000Z</Time>
            <Position>
              <LatitudeDegrees>42.93821384198963642120361328125</LatitudeDegrees>
              <LongitudeDegrees>-1.7487166263163089752197265625</LongitudeDegrees>
            </Position>
            <AltitudeMeters>595.4000244140625</AltitudeMeters>
            <DistanceMeters>32936.145738126</DistanceMeters>
          </Trackpoint>
          <Trackpoint>
            <Time>2018-08-26T07:02:39.000Z</Time>
            <Position>
              <LatitudeDegrees>42.938270755112171173095703125</LatitudeDegrees>
              <LongitudeDegrees>-1.74876465462148189544677734375</LongitudeDegrees>
            </Position>
            <AltitudeMeters>595.79998779296875</AltitudeMeters>
            <DistanceMeters>32943.591855864</DistanceMeters>
          </Trackpoint>
          <Trackpoint>
            <Time>2018-08-26T07:02:40.000Z</Time>
            <Position>
              <LatitudeDegrees>42.938329093158245086669921875</LatitudeDegrees>
              <LongitudeDegrees>-1.7488138563930988311767578125</LongitudeDegrees>
            </Position>
            <AltitudeMeters>595.79998779296875</AltitudeMeters>
            <DistanceMeters>32951.223631087</DistanceMeters>
          </Trackpoint>
          <Trackpoint>
            <Time>2018-08-26T07:02:41.000Z</Time>
            <Position>
              <LatitudeDegrees>42.93838785029947757720947265625</LatitudeDegrees>
              <LongitudeDegrees>-1.7488631419837474822998046875</LongitudeDegrees>
            </Position>
            <AltitudeMeters>596</AltitudeMeters>
            <DistanceMeters>32958.897884052</DistanceMeters>
          </Trackpoint>
          <Trackpoint>
            <Time>2018-08-26T07:02:42.000Z</Time>
            <Position>
              <LatitudeDegrees>42.93844920583069324493408203125</LatitudeDegrees>
              <LongitudeDegrees>-1.74891435541212558746337890625</LongitudeDegrees>
            </Position>
            <AltitudeMeters>596</AltitudeMeters>
            <DistanceMeters>32966.901029197</DistanceMeters>
          </Trackpoint>
          <Trackpoint>
            <Time>2018-08-26T07:02:43.000Z</Time>
            <Position>
              <LatitudeDegrees>42.9385145008563995361328125</LatitudeDegrees>
              <LongitudeDegrees>-1.74896464683115482330322265625</LongitudeDegrees>
            </Position>
            <AltitudeMeters>596</AltitudeMeters>
            <DistanceMeters>32975.243920137</DistanceMeters>
          </Trackpoint>
          <Trackpoint>
            <Time>2018-08-26T07:02:44.000Z</Time>
            <Position>
              <LatitudeDegrees>42.93858331628143787384033203125</LatitudeDegrees>
              <LongitudeDegrees>-1.74901493825018405914306640625</LongitudeDegrees>
            </Position>
            <AltitudeMeters>596</AltitudeMeters>
            <DistanceMeters>32983.930422239</DistanceMeters>
          </Trackpoint>
          <Trackpoint>
            <Time>2018-08-26T07:02:45.000Z</Time>
            <Position>
              <LatitudeDegrees>42.93865590356290340423583984375</LatitudeDegrees>
              <LongitudeDegrees>-1.7490686662495136260986328125</LongitudeDegrees>
            </Position>
            <AltitudeMeters>596</AltitudeMeters>
            <DistanceMeters>32993.119068208</DistanceMeters>
          </Trackpoint>
          <Trackpoint>
            <Time>2018-08-26T07:02:46.000Z</Time>
            <Position>
              <LatitudeDegrees>42.9387285746634006500244140625</LatitudeDegrees>
              <LongitudeDegrees>-1.749122142791748046875</LongitudeDegrees>
            </Position>
            <AltitudeMeters>596</AltitudeMeters>
            <DistanceMeters>33002.306731382</DistanceMeters>
          </Trackpoint>
          <Trackpoint>
            <Time>2018-08-26T07:02:47.000Z</Time>
            <Position>
              <LatitudeDegrees>42.93880258686840534210205078125</LatitudeDegrees>
              <LongitudeDegrees>-1.74917318858206272125244140625</LongitudeDegrees>
            </Position>
            <AltitudeMeters>596</AltitudeMeters>
            <DistanceMeters>33011.53509261</DistanceMeters>
          </Trackpoint>
          <Trackpoint>
            <Time>2018-08-26T07:02:48.000Z</Time>
            <Position>
              <LatitudeDegrees>42.93887701816856861114501953125</LatitudeDegrees>
              <LongitudeDegrees>-1.7492161877453327178955078125</LongitudeDegrees>
            </Position>
            <AltitudeMeters>595.79998779296875</AltitudeMeters>
            <DistanceMeters>33020.530062589</DistanceMeters>
          </Trackpoint>
          <Trackpoint>
            <Time>2018-08-26T07:02:49.000Z</Time>
            <Position>
              <LatitudeDegrees>42.93895371258258819580078125</LatitudeDegrees>
              <LongitudeDegrees>-1.7492503859102725982666015625</LongitudeDegrees>
            </Position>
            <AltitudeMeters>595.5999755859375</AltitudeMeters>
            <DistanceMeters>33029.509458592</DistanceMeters>
          </Trackpoint>
          <Trackpoint>
            <Time>2018-08-26T07:02:50.000Z</Time>
            <Position>
              <LatitudeDegrees>42.93903325684368610382080078125</LatitudeDegrees>
              <LongitudeDegrees>-1.74927762709558010101318359375</LongitudeDegrees>
            </Position>
            <AltitudeMeters>595.20001220703125</AltitudeMeters>
            <DistanceMeters>33038.636971137</DistanceMeters>
          </Trackpoint>
          <Trackpoint>
            <Time>2018-08-26T07:02:51.000Z</Time>
            <Position>
              <LatitudeDegrees>42.9391148127615451812744140625</LatitudeDegrees>
              <LongitudeDegrees>-1.74930654466152191162109375</LongitudeDegrees>
            </Position>
            <AltitudeMeters>594.79998779296875</AltitudeMeters>
            <DistanceMeters>33048.015294259</DistanceMeters>
          </Trackpoint>
          <Trackpoint>
            <Time>2018-08-26T07:02:52.000Z</Time>
            <Position>
              <LatitudeDegrees>42.93919502757489681243896484375</LatitudeDegrees>
              <LongitudeDegrees>-1.74934535287320613861083984375</LongitudeDegrees>
            </Position>
            <AltitudeMeters>594.20001220703125</AltitudeMeters>
            <DistanceMeters>33057.486554966</DistanceMeters>
          </Trackpoint>
          <Trackpoint>
            <Time>2018-08-26T07:02:53.000Z</Time>
            <Position>
              <LatitudeDegrees>42.9392697103321552276611328125</LatitudeDegrees>
              <LongitudeDegrees>-1.749400757253170013427734375</LongitudeDegrees>
            </Position>
            <AltitudeMeters>593.79998779296875</AltitudeMeters>
            <DistanceMeters>33066.945413111</DistanceMeters>
          </Trackpoint>
          <Trackpoint>
            <Time>2018-08-26T07:02:54.000Z</Time>
            <Position>
              <LatitudeDegrees>42.93933668173849582672119140625</LatitudeDegrees>
              <LongitudeDegrees>-1.74947242252528667449951171875</LongitudeDegrees>
            </Position>
            <AltitudeMeters>593.5999755859375</AltitudeMeters>
            <DistanceMeters>33076.41476679</DistanceMeters>
          </Trackpoint>
          <Trackpoint>
            <Time>2018-08-26T07:02:55.000Z</Time>
            <Position>
              <LatitudeDegrees>42.93939904309809207916259765625</LatitudeDegrees>
              <LongitudeDegrees>-1.7495524697005748748779296875</LongitudeDegrees>
            </Position>
            <AltitudeMeters>593.4000244140625</AltitudeMeters>
            <DistanceMeters>33085.939269294</DistanceMeters>
          </Trackpoint>
          <Trackpoint>
            <Time>2018-08-26T07:02:56.000Z</Time>
            <Position>
              <LatitudeDegrees>42.93946157209575176239013671875</LatitudeDegrees>
              <LongitudeDegrees>-1.7496357858180999755859375</LongitudeDegrees>
            </Position>
            <AltitudeMeters>593</AltitudeMeters>
            <DistanceMeters>33095.661760755</DistanceMeters>
          </Trackpoint>
          <Trackpoint>
            <Time>2018-08-26T07:02:57.000Z</Time>
            <Position>
              <LatitudeDegrees>42.9395261965692043304443359375</LatitudeDegrees>
              <LongitudeDegrees>-1.74971960484981536865234375</LongitudeDegrees>
            </Position>
            <AltitudeMeters>592.79998779296875</AltitudeMeters>
            <DistanceMeters>33105.580110053</DistanceMeters>
          </Trackpoint>
          <Trackpoint>
            <Time>2018-08-26T07:02:58.000Z</Time>
            <Position>
              <LatitudeDegrees>42.93959400616586208343505859375</LatitudeDegrees>
              <LongitudeDegrees>-1.749802418053150177001953125</LongitudeDegrees>
            </Position>
            <AltitudeMeters>592.79998779296875</AltitudeMeters>
            <DistanceMeters>33115.703912087</DistanceMeters>
          </Trackpoint>
          <Trackpoint>
            <Time>2018-08-26T07:02:59.000Z</Time>
            <Position>
              <LatitudeDegrees>42.939666174352169036865234375</LatitudeDegrees>
              <LongitudeDegrees>-1.749880872666835784912109375</LongitudeDegrees>
            </Position>
            <AltitudeMeters>592.4000244140625</AltitudeMeters>
            <DistanceMeters>33125.969436531</DistanceMeters>
          </Trackpoint>
          <Trackpoint>
            <Time>2018-08-26T07:03:00.000Z</Time>
            <Position>
              <LatitudeDegrees>42.9397434554994106292724609375</LatitudeDegrees>
              <LongitudeDegrees>-1.749953292310237884521484375</LongitudeDegrees>
            </Position>
            <AltitudeMeters>592.4000244140625</AltitudeMeters>
            <DistanceMeters>33136.400755774</DistanceMeters>
          </Trackpoint>
          <Trackpoint>
            <Time>2018-08-26T07:03:01.000Z</Time>
            <Position>
              <LatitudeDegrees>42.93982408940792083740234375</LatitudeDegrees>
              <LongitudeDegrees>-1.7500208504498004913330078125</LongitudeDegrees>
            </Position>
            <AltitudeMeters>592.20001220703125</AltitudeMeters>
            <DistanceMeters>33146.929012436</DistanceMeters>
          </Trackpoint>
          <Trackpoint>
            <Time>2018-08-26T07:03:02.000Z</Time>
            <Position>
              <LatitudeDegrees>42.93990748934447765350341796875</LatitudeDegrees>
              <LongitudeDegrees>-1.75008547492325305938720703125</LongitudeDegrees>
            </Position>
            <AltitudeMeters>592</AltitudeMeters>
            <DistanceMeters>33157.600812852</DistanceMeters>
          </Trackpoint>
          <Trackpoint>
            <Time>2018-08-26T07:03:03.000Z</Time>
            <Position>
              <LatitudeDegrees>42.93999281711876392364501953125</LatitudeDegrees>
              <LongitudeDegrees>-1.75014783628284931182861328125</LongitudeDegrees>
            </Position>
            <AltitudeMeters>592</AltitudeMeters>
            <DistanceMeters>33168.371578474</DistanceMeters>
          </Trackpoint>
          <Trackpoint>
            <Time>2018-08-26T07:03:04.000Z</Time>
            <Position>
              <LatitudeDegrees>42.9400790669023990631103515625</LatitudeDegrees>
              <LongitudeDegrees>-1.75020969472825527191162109375</LongitudeDegrees>
            </Position>
            <AltitudeMeters>591.5999755859375</AltitudeMeters>
            <DistanceMeters>33179.213789279</DistanceMeters>
          </Trackpoint>
          <Trackpoint>
            <Time>2018-08-26T07:03:05.000Z</Time>
            <Position>
              <LatitudeDegrees>42.94016632251441478729248046875</LatitudeDegrees>
              <LongitudeDegrees>-1.7502716369926929473876953125</LongitudeDegrees>
            </Position>
            <AltitudeMeters>591.20001220703125</AltitudeMeters>
            <DistanceMeters>33190.158375339</DistanceMeters>
          </Trackpoint>
          <Trackpoint>
            <Time>2018-08-26T07:03:06.000Z</Time>
            <Position>
              <LatitudeDegrees>42.94025332666933536529541015625</LatitudeDegrees>
              <LongitudeDegrees>-1.75033517181873321533203125</LongitudeDegrees>
            </Position>
            <AltitudeMeters>590.5999755859375</AltitudeMeters>
            <DistanceMeters>33201.138793395</DistanceMeters>
          </Trackpoint>
          <Trackpoint>
            <Time>2018-08-26T07:03:07.000Z</Time>
            <Position>
              <LatitudeDegrees>42.9403410851955413818359375</LatitudeDegrees>
              <LongitudeDegrees>-1.7504010535776615142822265625</LongitudeDegrees>
            </Position>
            <AltitudeMeters>590.20001220703125</AltitudeMeters>
            <DistanceMeters>33212.284499368</DistanceMeters>
          </Trackpoint>
          <Trackpoint>
            <Time>2018-08-26T07:03:08.000Z</Time>
            <Position>
              <LatitudeDegrees>42.940429933369159698486328125</LatitudeDegrees>
              <LongitudeDegrees>-1.75046953372657299041748046875</LongitudeDegrees>
            </Position>
            <AltitudeMeters>589.5999755859375</AltitudeMeters>
            <DistanceMeters>33223.639297097</DistanceMeters>
          </Trackpoint>
          <Trackpoint>
            <Time>2018-08-26T07:03:09.000Z</Time>
            <Position>
              <LatitudeDegrees>42.94052054174244403839111328125</LatitudeDegrees>
              <LongitudeDegrees>-1.75053340382874011993408203125</LongitudeDegrees>
            </Position>
            <AltitudeMeters>589</AltitudeMeters>
            <DistanceMeters>33234.988128769</DistanceMeters>
          </Trackpoint>
          <Trackpoint>
            <Time>2018-08-26T07:03:10.000Z</Time>
            <Position>
              <LatitudeDegrees>42.9406146705150604248046875</LatitudeDegrees>
              <LongitudeDegrees>-1.7505918256938457489013671875</LongitudeDegrees>
            </Position>
            <AltitudeMeters>588.4000244140625</AltitudeMeters>
            <DistanceMeters>33246.495389128</DistanceMeters>
          </Trackpoint>
          <Trackpoint>
            <Time>2018-08-26T07:03:11.000Z</Time>
            <Position>
              <LatitudeDegrees>42.940712235867977142333984375</LatitudeDegrees>
              <LongitudeDegrees>-1.750643290579319000244140625</LongitudeDegrees>
            </Position>
            <AltitudeMeters>587.5999755859375</AltitudeMeters>
            <DistanceMeters>33258.136064672</DistanceMeters>
          </Trackpoint>
          <Trackpoint>
            <Time>2018-08-26T07:03:12.000Z</Time>
            <Position>
              <LatitudeDegrees>42.94081172905862331390380859375</LatitudeDegrees>
              <LongitudeDegrees>-1.75068981014192104339599609375</LongitudeDegrees>
            </Position>
            <AltitudeMeters>587.4000244140625</AltitudeMeters>
            <DistanceMeters>33269.84017761</DistanceMeters>
          </Trackpoint>
          <Trackpoint>
            <Time>2018-08-26T07:03:13.000Z</Time>
            <Position>
              <LatitudeDegrees>42.94091231189668178558349609375</LatitudeDegrees>
              <LongitudeDegrees>-1.75073054619133472442626953125</LongitudeDegrees>
            </Position>
            <AltitudeMeters>586.79998779296875</AltitudeMeters>
            <DistanceMeters>33281.516482425</DistanceMeters>
          </Trackpoint>
          <Trackpoint>
            <Time>2018-08-26T07:03:14.000Z</Time>
            <Position>
              <LatitudeDegrees>42.94101607985794544219970703125</LatitudeDegrees>
              <LongitudeDegrees>-1.75076021812856197357177734375</LongitudeDegrees>
            </Position>
            <AltitudeMeters>586.4000244140625</AltitudeMeters>
            <DistanceMeters>33293.31625991</DistanceMeters>
          </Trackpoint>
          <Trackpoint>
            <Time>2018-08-26T07:03:15.000Z</Time>
            <Position>
              <LatitudeDegrees>42.94112269766628742218017578125</LatitudeDegrees>
              <LongitudeDegrees>-1.75077228806912899017333984375</LongitudeDegrees>
            </Position>
            <AltitudeMeters>586.20001220703125</AltitudeMeters>
            <DistanceMeters>33305.223831465</DistanceMeters>
          </Trackpoint>
          <Trackpoint>
            <Time>2018-08-26T07:03:16.000Z</Time>
            <Position>
              <LatitudeDegrees>42.94122864492237567901611328125</LatitudeDegrees>
              <LongitudeDegrees>-1.7507634870707988739013671875</LongitudeDegrees>
            </Position>
            <AltitudeMeters>586</AltitudeMeters>
            <DistanceMeters>33317.037758056</DistanceMeters>
          </Trackpoint>
          <Trackpoint>
            <Time>2018-08-26T07:03:17.000Z</Time>
            <Position>
              <LatitudeDegrees>42.94133576564490795135498046875</LatitudeDegrees>
              <LongitudeDegrees>-1.75074295140802860260009765625</LongitudeDegrees>
            </Position>
            <AltitudeMeters>585.20001220703125</AltitudeMeters>
            <DistanceMeters>33329.077309007</DistanceMeters>
          </Trackpoint>
          <Trackpoint>
            <Time>2018-08-26T07:03:18.000Z</Time>
            <Position>
              <LatitudeDegrees>42.94144204817712306976318359375</LatitudeDegrees>
              <LongitudeDegrees>-1.7507199011743068695068359375</LongitudeDegrees>
            </Position>
            <AltitudeMeters>584.79998779296875</AltitudeMeters>
            <DistanceMeters>33341.055199244</DistanceMeters>
          </Trackpoint>
          <Trackpoint>
            <Time>2018-08-26T07:03:19.000Z</Time>
            <Position>
              <LatitudeDegrees>42.9415462352335453033447265625</LatitudeDegrees>
              <LongitudeDegrees>-1.75070137716829776763916015625</LongitudeDegrees>
            </Position>
            <AltitudeMeters>584.20001220703125</AltitudeMeters>
            <DistanceMeters>33352.749277988</DistanceMeters>
          </Trackpoint>
          <Trackpoint>
            <Time>2018-08-26T07:03:20.000Z</Time>
            <Position>
              <LatitudeDegrees>42.9416558705270290374755859375</LatitudeDegrees>
              <LongitudeDegrees>-1.75068779848515987396240234375</LongitudeDegrees>
            </Position>
            <AltitudeMeters>583.4000244140625</AltitudeMeters>
            <DistanceMeters>33365.002198087</DistanceMeters>
          </Trackpoint>
          <Trackpoint>
            <Time>2018-08-26T07:03:21.000Z</Time>
            <Position>
              <LatitudeDegrees>42.9417655058205127716064453125</LatitudeDegrees>
              <LongitudeDegrees>-1.7506806738674640655517578125</LongitudeDegrees>
            </Position>
            <AltitudeMeters>583</AltitudeMeters>
            <DistanceMeters>33377.218953117</DistanceMeters>
          </Trackpoint>
          <Trackpoint>
            <Time>2018-08-26T07:03:22.000Z</Time>
            <Position>
              <LatitudeDegrees>42.9418727941811084747314453125</LatitudeDegrees>
              <LongitudeDegrees>-1.7506830208003520965576171875</LongitudeDegrees>
            </Position>
            <AltitudeMeters>582.20001220703125</AltitudeMeters>
            <DistanceMeters>33389.161357706</DistanceMeters>
          </Trackpoint>
          <Trackpoint>
            <Time>2018-08-26T07:03:23.000Z</Time>
            <Position>
              <LatitudeDegrees>42.9419757239520549774169921875</LatitudeDegrees>
              <LongitudeDegrees>-1.75069081597030162811279296875</LongitudeDegrees>
            </Position>
            <AltitudeMeters>581.79998779296875</AltitudeMeters>
            <DistanceMeters>33400.634825115</DistanceMeters>
          </Trackpoint>
          <Trackpoint>
            <Time>2018-08-26T07:03:24.000Z</Time>
            <Position>
              <LatitudeDegrees>42.94207806698977947235107421875</LatitudeDegrees>
              <LongitudeDegrees>-1.750706322491168975830078125</LongitudeDegrees>
            </Position>
            <AltitudeMeters>581.20001220703125</AltitudeMeters>
            <DistanceMeters>33412.095692969</DistanceMeters>
          </Trackpoint>
          <Trackpoint>
            <Time>2018-08-26T07:03:25.000Z</Time>
            <Position>
              <LatitudeDegrees>42.94217864982783794403076171875</LatitudeDegrees>
              <LongitudeDegrees>-1.75073079764842987060546875</LongitudeDegrees>
            </Position>
            <AltitudeMeters>580.4000244140625</AltitudeMeters>
            <DistanceMeters>33423.467179005</DistanceMeters>
          </Trackpoint>
          <Trackpoint>
            <Time>2018-08-26T07:03:26.000Z</Time>
            <Position>
              <LatitudeDegrees>42.94227755628526210784912109375</LatitudeDegrees>
              <LongitudeDegrees>-1.75076072104275226593017578125</LongitudeDegrees>
            </Position>
            <AltitudeMeters>579.79998779296875</AltitudeMeters>
            <DistanceMeters>33434.742169745</DistanceMeters>
          </Trackpoint>
          <Trackpoint>
            <Time>2018-08-26T07:03:27.000Z</Time>
            <Position>
              <LatitudeDegrees>42.94237487018108367919921875</LatitudeDegrees>
              <LongitudeDegrees>-1.75079424865543842315673828125</LongitudeDegrees>
            </Position>
            <AltitudeMeters>579</AltitudeMeters>
            <DistanceMeters>33445.912559008</DistanceMeters>
          </Trackpoint>
          <Trackpoint>
            <Time>2018-08-26T07:03:28.000Z</Time>
            <Position>
              <LatitudeDegrees>42.94247184880077838897705078125</LatitudeDegrees>
              <LongitudeDegrees>-1.75082811154425144195556640625</LongitudeDegrees>
            </Position>
            <AltitudeMeters>578.4000244140625</AltitudeMeters>
            <DistanceMeters>33457.053808077</DistanceMeters>
          </Trackpoint>
          <Trackpoint>
            <Time>2018-08-26T07:03:29.000Z</Time>
            <Position>
              <LatitudeDegrees>42.94257008470594882965087890625</LatitudeDegrees>
              <LongitudeDegrees>-1.7508615553379058837890625</LongitudeDegrees>
            </Position>
            <AltitudeMeters>577.5999755859375</AltitudeMeters>
            <DistanceMeters>33468.32238984</DistanceMeters>
          </Trackpoint>
          <Trackpoint>
            <Time>2018-08-26T07:03:30.000Z</Time>
            <Position>
              <LatitudeDegrees>42.9426684044301509857177734375</LatitudeDegrees>
              <LongitudeDegrees>-1.75089483149349689483642578125</LongitudeDegrees>
            </Position>
            <AltitudeMeters>577</AltitudeMeters>
            <DistanceMeters>33479.596579657</DistanceMeters>
          </Trackpoint>
          <Trackpoint>
            <Time>2018-08-26T07:03:31.000Z</Time>
            <Position>
              <LatitudeDegrees>42.94276638887822628021240234375</LatitudeDegrees>
              <LongitudeDegrees>-1.7509271018207073211669921875</LongitudeDegrees>
            </Position>
            <AltitudeMeters>576.5999755859375</AltitudeMeters>
            <DistanceMeters>33490.814562779</DistanceMeters>
          </Trackpoint>
          <Trackpoint>
            <Time>2018-08-26T07:03:32.000Z</Time>
            <Position>
              <LatitudeDegrees>42.94286529533565044403076171875</LatitudeDegrees>
              <LongitudeDegrees>-1.750960461795330047607421875</LongitudeDegrees>
            </Position>
            <AltitudeMeters>576.4000244140625</AltitudeMeters>
            <DistanceMeters>33502.153444047</DistanceMeters>
          </Trackpoint>
          <Trackpoint>
            <Time>2018-08-26T07:03:33.000Z</Time>
            <Position>
              <LatitudeDegrees>42.94296453706920146942138671875</LatitudeDegrees>
              <LongitudeDegrees>-1.7509931512176990509033203125</LongitudeDegrees>
            </Position>
            <AltitudeMeters>576.20001220703125</AltitudeMeters>
            <DistanceMeters>33513.515396909</DistanceMeters>
          </Trackpoint>
          <Trackpoint>
            <Time>2018-08-26T07:03:34.000Z</Time>
            <Position>
              <LatitudeDegrees>42.9430640302598476409912109375</LatitudeDegrees>
              <LongitudeDegrees>-1.7510263435542583465576171875</LongitudeDegrees>
            </Position>
            <AltitudeMeters>576</AltitudeMeters>
            <DistanceMeters>33524.914642499</DistanceMeters>
          </Trackpoint>
          <Trackpoint>
            <Time>2018-08-26T07:03:35.000Z</Time>
            <Position>
              <LatitudeDegrees>42.943161427974700927734375</LatitudeDegrees>
              <LongitudeDegrees>-1.7510640621185302734375</LongitudeDegrees>
            </Position>
            <AltitudeMeters>575.79998779296875</AltitudeMeters>
            <DistanceMeters>33536.182422884</DistanceMeters>
          </Trackpoint>
          <Trackpoint>
            <Time>2018-08-26T07:03:36.000Z</Time>
            <Position>
              <LatitudeDegrees>42.94325505383312702178955078125</LatitudeDegrees>
              <LongitudeDegrees>-1.75111033022403717041015625</LongitudeDegrees>
            </Position>
            <AltitudeMeters>575.5999755859375</AltitudeMeters>
            <DistanceMeters>33547.264346888</DistanceMeters>
          </Trackpoint>
          <Trackpoint>
            <Time>2018-08-26T07:03:37.000Z</Time>
            <Position>
              <LatitudeDegrees>42.9433451592922210693359375</LatitudeDegrees>
              <LongitudeDegrees>-1.751169003546237945556640625</LongitudeDegrees>
            </Position>
            <AltitudeMeters>575.4000244140625</AltitudeMeters>
            <DistanceMeters>33558.373941158</DistanceMeters>
          </Trackpoint>
          <Trackpoint>
            <Time>2018-08-26T07:03:38.000Z</Time>
            <Position>
              <LatitudeDegrees>42.94343174435198307037353515625</LatitudeDegrees>
              <LongitudeDegrees>-1.75124050118029117584228515625</LongitudeDegrees>
            </Position>
            <AltitudeMeters>575.4000244140625</AltitudeMeters>
            <DistanceMeters>33569.634506571</DistanceMeters>
          </Trackpoint>
          <Trackpoint>
            <Time>2018-08-26T07:03:39.000Z</Time>
            <Position>
              <LatitudeDegrees>42.94351455755531787872314453125</LatitudeDegrees>
              <LongitudeDegrees>-1.751318536698818206787109375</LongitudeDegrees>
            </Position>
            <AltitudeMeters>575.20001220703125</AltitudeMeters>
            <DistanceMeters>33580.832347501</DistanceMeters>
          </Trackpoint>
          <Trackpoint>
            <Time>2018-08-26T07:03:40.000Z</Time>
            <Position>
              <LatitudeDegrees>42.94359586201608180999755859375</LatitudeDegrees>
              <LongitudeDegrees>-1.75140277482569217681884765625</LongitudeDegrees>
            </Position>
            <AltitudeMeters>575.20001220703125</AltitudeMeters>
            <DistanceMeters>33592.189928318</DistanceMeters>
          </Trackpoint>
          <Trackpoint>
            <Time>2018-08-26T07:03:41.000Z</Time>
            <Position>
              <LatitudeDegrees>42.94367599301040172576904296875</LatitudeDegrees>
              <LongitudeDegrees>-1.7514891922473907470703125</LongitudeDegrees>
            </Position>
            <AltitudeMeters>575</AltitudeMeters>
            <DistanceMeters>33603.552675917</DistanceMeters>
          </Trackpoint>
          <Trackpoint>
            <Time>2018-08-26T07:03:42.000Z</Time>
            <Position>
              <LatitudeDegrees>42.94375645928084850311279296875</LatitudeDegrees>
              <LongitudeDegrees>-1.75157493911683559417724609375</LongitudeDegrees>
            </Position>
            <AltitudeMeters>574.79998779296875</AltitudeMeters>
            <DistanceMeters>33614.911449276</DistanceMeters>
          </Trackpoint>
          <Trackpoint>
            <Time>2018-08-26T07:03:43.000Z</Time>
            <Position>
              <LatitudeDegrees>42.9438361711800098419189453125</LatitudeDegrees>
              <LongitudeDegrees>-1.751657836139202117919921875</LongitudeDegrees>
            </Position>
            <AltitudeMeters>574.4000244140625</AltitudeMeters>
            <DistanceMeters>33626.061610373</DistanceMeters>
          </Trackpoint>
          <Trackpoint>
            <Time>2018-08-26T07:03:44.000Z</Time>
            <Position>
              <LatitudeDegrees>42.94391470961272716522216796875</LatitudeDegrees>
              <LongitudeDegrees>-1.7517434991896152496337890625</LongitudeDegrees>
            </Position>
            <AltitudeMeters>574</AltitudeMeters>
            <DistanceMeters>33637.247348579</DistanceMeters>
          </Trackpoint>
          <Trackpoint>
            <Time>2018-08-26T07:03:45.000Z</Time>
            <Position>
              <LatitudeDegrees>42.9439914040267467498779296875</LatitudeDegrees>
              <LongitudeDegrees>-1.7518333531916141510009765625</LongitudeDegrees>
            </Position>
            <AltitudeMeters>573.79998779296875</AltitudeMeters>
            <DistanceMeters>33648.492667183</DistanceMeters>
          </Trackpoint>
          <Trackpoint>
            <Time>2018-08-26T07:03:46.000Z</Time>
            <Position>
              <LatitudeDegrees>42.94406457804143428802490234375</LatitudeDegrees>
              <LongitudeDegrees>-1.7519295774400234222412109375</LongitudeDegrees>
            </Position>
            <AltitudeMeters>573.5999755859375</AltitudeMeters>
            <DistanceMeters>33659.797252175</DistanceMeters>
          </Trackpoint>
          <Trackpoint>
            <Time>2018-08-26T07:03:47.000Z</Time>
            <Position>
              <LatitudeDegrees>42.9441359080374240875244140625</LatitudeDegrees>
              <LongitudeDegrees>-1.75202772952616214752197265625</LongitudeDegrees>
            </Position>
            <AltitudeMeters>573.20001220703125</AltitudeMeters>
            <DistanceMeters>33671.065833938</DistanceMeters>
          </Trackpoint>
          <Trackpoint>
            <Time>2018-08-26T07:03:48.000Z</Time>
            <Position>
              <LatitudeDegrees>42.94420455582439899444580078125</LatitudeDegrees>
              <LongitudeDegrees>-1.75212948583066463470458984375</LongitudeDegrees>
            </Position>
            <AltitudeMeters>572.5999755859375</AltitudeMeters>
            <DistanceMeters>33682.340023755</DistanceMeters>
          </Trackpoint>
          <Trackpoint>
            <Time>2018-08-26T07:03:49.000Z</Time>
            <Position>
              <LatitudeDegrees>42.94427161104977130889892578125</LatitudeDegrees>
              <LongitudeDegrees>-1.75223543308675289154052734375</LongitudeDegrees>
            </Position>
            <AltitudeMeters>572.4000244140625</AltitudeMeters>
            <DistanceMeters>33693.751145625</DistanceMeters>
          </Trackpoint>
          <Trackpoint>
            <Time>2018-08-26T07:03:50.000Z</Time>
            <Position>
              <LatitudeDegrees>42.94433824717998504638671875</LatitudeDegrees>
              <LongitudeDegrees>-1.75234389491379261016845703125</LongitudeDegrees>
            </Position>
            <AltitudeMeters>572.20001220703125</AltitudeMeters>
            <DistanceMeters>33705.288187134</DistanceMeters>
          </Trackpoint>
          <Trackpoint>
            <Time>2018-08-26T07:03:51.000Z</Time>
            <Position>
              <LatitudeDegrees>42.94440521858632564544677734375</LatitudeDegrees>
              <LongitudeDegrees>-1.75245269201695919036865234375</LongitudeDegrees>
            </Position>
            <AltitudeMeters>572</AltitudeMeters>
            <DistanceMeters>33716.870146621</DistanceMeters>
          </Trackpoint>
          <Trackpoint>
            <Time>2018-08-26T07:03:52.000Z</Time>
            <Position>
              <LatitudeDegrees>42.94447395019233226776123046875</LatitudeDegrees>
              <LongitudeDegrees>-1.7525585554540157318115234375</LongitudeDegrees>
            </Position>
            <AltitudeMeters>571.79998779296875</AltitudeMeters>
            <DistanceMeters>33728.399358444</DistanceMeters>
          </Trackpoint>
          <Trackpoint>
            <Time>2018-08-26T07:03:53.000Z</Time>
            <Position>
              <LatitudeDegrees>42.94454804621636867523193359375</LatitudeDegrees>
              <LongitudeDegrees>-1.75265955738723278045654296875</LongitudeDegrees>
            </Position>
            <AltitudeMeters>571.5999755859375</AltitudeMeters>
            <DistanceMeters>33740.050114175</DistanceMeters>
          </Trackpoint>
          <Trackpoint>
            <Time>2018-08-26T07:03:54.000Z</Time>
            <Position>
              <LatitudeDegrees>42.94462683610618114471435546875</LatitudeDegrees>
              <LongitudeDegrees>-1.75275058485567569732666015625</LongitudeDegrees>
            </Position>
            <AltitudeMeters>571.4000244140625</AltitudeMeters>
            <DistanceMeters>33751.535381116</DistanceMeters>
          </Trackpoint>
          <Trackpoint>
            <Time>2018-08-26T07:03:55.000Z</Time>
            <Position>
              <LatitudeDegrees>42.944710738956928253173828125</LatitudeDegrees>
              <LongitudeDegrees>-1.75283222459256649017333984375</LongitudeDegrees>
            </Position>
            <AltitudeMeters>571.20001220703125</AltitudeMeters>
            <DistanceMeters>33763.000975425</DistanceMeters>
          </Trackpoint>
          <Trackpoint>
            <Time>2018-08-26T07:03:56.000Z</Time>
            <Position>
              <LatitudeDegrees>42.94479698874056339263916015625</LatitudeDegrees>
              <LongitudeDegrees>-1.75290984101593494415283203125</LongitudeDegrees>
            </Position>
            <AltitudeMeters>571</AltitudeMeters>
            <DistanceMeters>33774.496458829</DistanceMeters>
          </Trackpoint>
          <Trackpoint>
            <Time>2018-08-26T07:03:57.000Z</Time>
            <Position>
              <LatitudeDegrees>42.94488416053354740142822265625</LatitudeDegrees>
              <LongitudeDegrees>-1.75298527814447879791259765625</LongitudeDegrees>
            </Position>
            <AltitudeMeters>570.5999755859375</AltitudeMeters>
            <DistanceMeters>33785.981725769</DistanceMeters>
          </Trackpoint>
          <Trackpoint>
            <Time>2018-08-26T07:03:58.000Z</Time>
            <Position>
              <LatitudeDegrees>42.9449710808694362640380859375</LatitudeDegrees>
              <LongitudeDegrees>-1.75306071527302265167236328125</LongitudeDegrees>
            </Position>
            <AltitudeMeters>570.20001220703125</AltitudeMeters>
            <DistanceMeters>33797.443381501</DistanceMeters>
          </Trackpoint>
          <Trackpoint>
            <Time>2018-08-26T07:03:59.000Z</Time>
            <Position>
              <LatitudeDegrees>42.9450565762817859649658203125</LatitudeDegrees>
              <LongitudeDegrees>-1.75313514657318592071533203125</LongitudeDegrees>
            </Position>
            <AltitudeMeters>569.5999755859375</AltitudeMeters>
            <DistanceMeters>33808.727178639</DistanceMeters>
          </Trackpoint>
          <Trackpoint>
            <Time>2018-08-26T07:04:00.000Z</Time>
            <Position>
              <LatitudeDegrees>42.945140898227691650390625</LatitudeDegrees>
              <LongitudeDegrees>-1.7532079853117465972900390625</LongitudeDegrees>
            </Position>
            <AltitudeMeters>569.20001220703125</AltitudeMeters>
            <DistanceMeters>33819.831081726</DistanceMeters>
          </Trackpoint>
          <Trackpoint>
            <Time>2018-08-26T07:04:01.000Z</Time>
            <Position>
              <LatitudeDegrees>42.94522530399262905120849609375</LatitudeDegrees>
              <LongitudeDegrees>-1.75327981822192668914794921875</LongitudeDegrees>
            </Position>
            <AltitudeMeters>568.5999755859375</AltitudeMeters>
            <DistanceMeters>33830.899144657</DistanceMeters>
          </Trackpoint>
          <Trackpoint>
            <Time>2018-08-26T07:04:02.000Z</Time>
            <Position>
              <LatitudeDegrees>42.9453097097575664520263671875</LatitudeDegrees>
              <LongitudeDegrees>-1.75334997475147247314453125</LongitudeDegrees>
            </Position>
            <AltitudeMeters>568.4000244140625</AltitudeMeters>
            <DistanceMeters>33841.895998013</DistanceMeters>
          </Trackpoint>
          <Trackpoint>
            <Time>2018-08-26T07:04:03.000Z</Time>
            <Position>
              <LatitudeDegrees>42.94539579190313816070556640625</LatitudeDegrees>
              <LongitudeDegrees>-1.75342197529971599578857421875</LongitudeDegrees>
            </Position>
            <AltitudeMeters>568.20001220703125</AltitudeMeters>
            <DistanceMeters>33853.130872669</DistanceMeters>
          </Trackpoint>
          <Trackpoint>
            <Time>2018-08-26T07:04:04.000Z</Time>
            <Position>
              <LatitudeDegrees>42.94548179022967815399169921875</LatitudeDegrees>
              <LongitudeDegrees>-1.7534939758479595184326171875</LongitudeDegrees>
            </Position>
            <AltitudeMeters>568</AltitudeMeters>
            <DistanceMeters>33864.357706907</DistanceMeters>
          </Trackpoint>
          <Trackpoint>
            <Time>2018-08-26T07:04:05.000Z</Time>
            <Position>
              <LatitudeDegrees>42.94556678272783756256103515625</LatitudeDegrees>
              <LongitudeDegrees>-1.7535637132823467254638671875</LongitudeDegrees>
            </Position>
            <AltitudeMeters>567.5999755859375</AltitudeMeters>
            <DistanceMeters>33875.39308687</DistanceMeters>
          </Trackpoint>
          <Trackpoint>
            <Time>2018-08-26T07:04:06.000Z</Time>
            <Position>
              <LatitudeDegrees>42.9456510208547115325927734375</LatitudeDegrees>
              <LongitudeDegrees>-1.75363361835479736328125</LongitudeDegrees>
            </Position>
            <AltitudeMeters>567.4000244140625</AltitudeMeters>
            <DistanceMeters>33886.362808776</DistanceMeters>
          </Trackpoint>
          <Trackpoint>
            <Time>2018-08-26T07:04:07.000Z</Time>
            <Position>
              <LatitudeDegrees>42.94573375023901462554931640625</LatitudeDegrees>
              <LongitudeDegrees>-1.75370444543659687042236328125</LongitudeDegrees>
            </Position>
            <AltitudeMeters>567</AltitudeMeters>
            <DistanceMeters>33897.229976748</DistanceMeters>
          </Trackpoint>
          <Trackpoint>
            <Time>2018-08-26T07:04:08.000Z</Time>
            <Position>
              <LatitudeDegrees>42.9458141326904296875</LatitudeDegrees>
              <LongitudeDegrees>-1.7537776194512844085693359375</LongitudeDegrees>
            </Position>
            <AltitudeMeters>566.5999755859375</AltitudeMeters>
            <DistanceMeters>33907.981022208</DistanceMeters>
          </Trackpoint>
          <Trackpoint>
            <Time>2018-08-26T07:04:09.000Z</Time>
            <Position>
              <LatitudeDegrees>42.94589300639927387237548828125</LatitudeDegrees>
              <LongitudeDegrees>-1.75385213457047939300537109375</LongitudeDegrees>
            </Position>
            <AltitudeMeters>566</AltitudeMeters>
            <DistanceMeters>33918.654514814</DistanceMeters>
          </Trackpoint>
          <Trackpoint>
            <Time>2018-08-26T07:04:10.000Z</Time>
            <Position>
              <LatitudeDegrees>42.94596903026103973388671875</LatitudeDegrees>
              <LongitudeDegrees>-1.753931678831577301025390625</LongitudeDegrees>
            </Position>
            <AltitudeMeters>565.79998779296875</AltitudeMeters>
            <DistanceMeters>33929.312344405</DistanceMeters>
          </Trackpoint>
          <Trackpoint>
            <Time>2018-08-26T07:04:11.000Z</Time>
            <Position>
              <LatitudeDegrees>42.94604304246604442596435546875</LatitudeDegrees>
              <LongitudeDegrees>-1.75401759333908557891845703125</LongitudeDegrees>
            </Position>
            <AltitudeMeters>565.79998779296875</AltitudeMeters>
            <DistanceMeters>33940.122024751</DistanceMeters>
          </Trackpoint>
          <Trackpoint>
            <Time>2018-08-26T07:04:12.000Z</Time>
            <Position>
              <LatitudeDegrees>42.9461143724620342254638671875</LatitudeDegrees>
              <LongitudeDegrees>-1.75410903990268707275390625</LongitudeDegrees>
            </Position>
            <AltitudeMeters>565.5999755859375</AltitudeMeters>
            <DistanceMeters>33951.009117265</DistanceMeters>
          </Trackpoint>
          <Trackpoint>
            <Time>2018-08-26T07:04:13.000Z</Time>
            <Position>
              <LatitudeDegrees>42.94618318788707256317138671875</LatitudeDegrees>
              <LongitudeDegrees>-1.7542010731995105743408203125</LongitudeDegrees>
            </Position>
            <AltitudeMeters>565.4000244140625</AltitudeMeters>
            <DistanceMeters>33961.727355577</DistanceMeters>
          </Trackpoint>
          <Trackpoint>
            <Time>2018-08-26T07:04:14.000Z</Time>
            <Position>
              <LatitudeDegrees>42.94625066220760345458984375</LatitudeDegrees>
              <LongitudeDegrees>-1.75429411232471466064453125</LongitudeDegrees>
            </Position>
            <AltitudeMeters>565</AltitudeMeters>
            <DistanceMeters>33972.397463534</DistanceMeters>
          </Trackpoint>
          <Trackpoint>
            <Time>2018-08-26T07:04:15.000Z</Time>
            <Position>
              <LatitudeDegrees>42.94631796889007091522216796875</LatitudeDegrees>
              <LongitudeDegrees>-1.75438924692571163177490234375</LongitudeDegrees>
            </Position>
            <AltitudeMeters>564.79998779296875</AltitudeMeters>
            <DistanceMeters>33983.177028631</DistanceMeters>
          </Trackpoint>
          <Trackpoint>
            <Time>2018-08-26T07:04:16.000Z</Time>
            <Position>
              <LatitudeDegrees>42.94638569466769695281982421875</LatitudeDegrees>
              <LongitudeDegrees>-1.7544793523848056793212890625</LongitudeDegrees>
            </Position>
            <AltitudeMeters>564.5999755859375</AltitudeMeters>
            <DistanceMeters>33993.698850583</DistanceMeters>
          </Trackpoint>
          <Trackpoint>
            <Time>2018-08-26T07:04:17.000Z</Time>
            <Position>
              <LatitudeDegrees>42.9464526660740375518798828125</LatitudeDegrees>
              <LongitudeDegrees>-1.75457163713872432708740234375</LongitudeDegrees>
            </Position>
            <AltitudeMeters>564.5999755859375</AltitudeMeters>
            <DistanceMeters>34004.286123079</DistanceMeters>
          </Trackpoint>
          <Trackpoint>
            <Time>2018-08-26T07:04:18.000Z</Time>
            <Position>
              <LatitudeDegrees>42.94651846401393413543701171875</LatitudeDegrees>
              <LongitudeDegrees>-1.75466685555875301361083984375</LongitudeDegrees>
            </Position>
            <AltitudeMeters>564.4000244140625</AltitudeMeters>
            <DistanceMeters>34014.954538308</DistanceMeters>
          </Trackpoint>
          <Trackpoint>
            <Time>2018-08-26T07:04:19.000Z</Time>
            <Position>
              <LatitudeDegrees>42.9465840943157672882080078125</LatitudeDegrees>
              <LongitudeDegrees>-1.7547629959881305694580078125</LongitudeDegrees>
            </Position>
            <AltitudeMeters>564.4000244140625</AltitudeMeters>
            <DistanceMeters>34025.665191469</DistanceMeters>
          </Trackpoint>
          <Trackpoint>
            <Time>2018-08-26T07:04:20.000Z</Time>
            <Position>
              <LatitudeDegrees>42.9466501437127590179443359375</LatitudeDegrees>
              <LongitudeDegrees>-1.7548582144081592559814453125</LongitudeDegrees>
            </Position>
            <AltitudeMeters>564.20001220703125</AltitudeMeters>
            <DistanceMeters>34036.353056879</DistanceMeters>
          </Trackpoint>
          <Trackpoint>
            <Time>2018-08-26T07:04:21.000Z</Time>
            <Position>
              <LatitudeDegrees>42.94671644456684589385986328125</LatitudeDegrees>
              <LongitudeDegrees>-1.75494932569563388824462890625</LongitudeDegrees>
            </Position>
            <AltitudeMeters>564.20001220703125</AltitudeMeters>
            <DistanceMeters>34046.819808401</DistanceMeters>
          </Trackpoint>
          <Trackpoint>
            <Time>2018-08-26T07:04:22.000Z</Time>
            <Position>
              <LatitudeDegrees>42.946781404316425323486328125</LatitudeDegrees>
              <LongitudeDegrees>-1.755038090050220489501953125</LongitudeDegrees>
            </Position>
            <AltitudeMeters>564</AltitudeMeters>
            <DistanceMeters>34057.045671945</DistanceMeters>
          </Trackpoint>
          <Trackpoint>
            <Time>2018-08-26T07:04:23.000Z</Time>
            <Position>
              <LatitudeDegrees>42.9468449391424655914306640625</LatitudeDegrees>
              <LongitudeDegrees>-1.75512718968093395233154296875</LongitudeDegrees>
            </Position>
            <AltitudeMeters>563.5999755859375</AltitudeMeters>
            <DistanceMeters>34067.179726385</DistanceMeters>
          </Trackpoint>
          <Trackpoint>
            <Time>2018-08-26T07:04:24.000Z</Time>
            <Position>
              <LatitudeDegrees>42.9469079710543155670166015625</LatitudeDegrees>
              <LongitudeDegrees>-1.75521620549261569976806640625</LongitudeDegrees>
            </Position>
            <AltitudeMeters>563.4000244140625</AltitudeMeters>
            <DistanceMeters>34077.269576822</DistanceMeters>
          </Trackpoint>
          <Trackpoint>
            <Time>2018-08-26T07:04:25.000Z</Time>
            <Position>
              <LatitudeDegrees>42.94697083532810211181640625</LatitudeDegrees>
              <LongitudeDegrees>-1.75530354492366313934326171875</LongitudeDegrees>
            </Position>
            <AltitudeMeters>563</AltitudeMeters>
            <DistanceMeters>34087.248739263</DistanceMeters>
          </Trackpoint>
          <Trackpoint>
            <Time>2018-08-26T07:04:26.000Z</Time>
            <Position>
              <LatitudeDegrees>42.94703344814479351043701171875</LatitudeDegrees>
              <LongitudeDegrees>-1.75539113581180572509765625</LongitudeDegrees>
            </Position>
            <AltitudeMeters>562.5999755859375</AltitudeMeters>
            <DistanceMeters>34097.222923549</DistanceMeters>
          </Trackpoint>
          <Trackpoint>
            <Time>2018-08-26T07:04:27.000Z</Time>
            <Position>
              <LatitudeDegrees>42.9470977373421192169189453125</LatitudeDegrees>
              <LongitudeDegrees>-1.755475960671901702880859375</LongitudeDegrees>
            </Position>
            <AltitudeMeters>562.4000244140625</AltitudeMeters>
            <DistanceMeters>34107.171272047</DistanceMeters>
          </Trackpoint>
          <Trackpoint>
            <Time>2018-08-26T07:04:28.000Z</Time>
            <Position>
              <LatitudeDegrees>42.9471600987017154693603515625</LatitudeDegrees>
              <LongitudeDegrees>-1.75556690432131290435791015625</LongitudeDegrees>
            </Position>
            <AltitudeMeters>562.4000244140625</AltitudeMeters>
            <DistanceMeters>34117.323576836</DistanceMeters>
          </Trackpoint>
          <Trackpoint>
            <Time>2018-08-26T07:04:29.000Z</Time>
            <Position>
              <LatitudeDegrees>42.9472227953374385833740234375</LatitudeDegrees>
              <LongitudeDegrees>-1.75565742887556552886962890625</LongitudeDegrees>
            </Position>
            <AltitudeMeters>562.20001220703125</AltitudeMeters>
            <DistanceMeters>34127.476771047</DistanceMeters>
          </Trackpoint>
          <Trackpoint>
            <Time>2018-08-26T07:04:30.000Z</Time>
            <Position>
              <LatitudeDegrees>42.94728574343025684356689453125</LatitudeDegrees>
              <LongitudeDegrees>-1.75574493594467639923095703125</LongitudeDegrees>
            </Position>
            <AltitudeMeters>561.79998779296875</AltitudeMeters>
            <DistanceMeters>34137.473111674</DistanceMeters>
          </Trackpoint>
          <Trackpoint>
            <Time>2018-08-26T07:04:31.000Z</Time>
            <Position>
              <LatitudeDegrees>42.9473491944372653961181640625</LatitudeDegrees>
              <LongitudeDegrees>-1.755831353366374969482421875</LongitudeDegrees>
            </Position>
            <AltitudeMeters>561.79998779296875</AltitudeMeters>
            <DistanceMeters>34147.445032341</DistanceMeters>
          </Trackpoint>
          <Trackpoint>
            <Time>2018-08-26T07:04:32.000Z</Time>
            <Position>
              <LatitudeDegrees>42.94741415418684482574462890625</LatitudeDegrees>
              <LongitudeDegrees>-1.7559076286852359771728515625</LongitudeDegrees>
            </Position>
            <AltitudeMeters>561.5999755859375</AltitudeMeters>
            <DistanceMeters>34156.979011022</DistanceMeters>
          </Trackpoint>
          <Trackpoint>
            <Time>2018-08-26T07:04:33.000Z</Time>
            <Position>
              <LatitudeDegrees>42.94747651554644107818603515625</LatitudeDegrees>
              <LongitudeDegrees>-1.7559937946498394012451171875</LongitudeDegrees>
            </Position>
            <AltitudeMeters>561.4000244140625</AltitudeMeters>
            <DistanceMeters>34166.850818606</DistanceMeters>
          </Trackpoint>
          <Trackpoint>
            <Time>2018-08-26T07:04:34.000Z</Time>
            <Position>
              <LatitudeDegrees>42.9475352726876735687255859375</LatitudeDegrees>
              <LongitudeDegrees>-1.75608792342245578765869140625</LongitudeDegrees>
            </Position>
            <AltitudeMeters>561.20001220703125</AltitudeMeters>
            <DistanceMeters>34176.929027765</DistanceMeters>
          </Trackpoint>
          <Trackpoint>
            <Time>2018-08-26T07:04:35.000Z</Time>
            <Position>
              <LatitudeDegrees>42.9475964605808258056640625</LatitudeDegrees>
              <LongitudeDegrees>-1.75617836415767669677734375</LongitudeDegrees>
            </Position>
            <AltitudeMeters>561</AltitudeMeters>
            <DistanceMeters>34186.9623369</DistanceMeters>
          </Trackpoint>
          <Trackpoint>
            <Time>2018-08-26T07:04:36.000Z</Time>
            <Position>
              <LatitudeDegrees>42.9476583190262317657470703125</LatitudeDegrees>
              <LongitudeDegrees>-1.75626629032194614410400390625</LongitudeDegrees>
            </Position>
            <AltitudeMeters>560.79998779296875</AltitudeMeters>
            <DistanceMeters>34196.897969526</DistanceMeters>
          </Trackpoint>
          <Trackpoint>
            <Time>2018-08-26T07:04:37.000Z</Time>
            <Position>
              <LatitudeDegrees>42.9477186687290668487548828125</LatitudeDegrees>
              <LongitudeDegrees>-1.75636318512260913848876953125</LongitudeDegrees>
            </Position>
            <AltitudeMeters>560.79998779296875</AltitudeMeters>
            <DistanceMeters>34207.262853484</DistanceMeters>
          </Trackpoint>
          <Trackpoint>
            <Time>2018-08-26T07:04:38.000Z</Time>
            <Position>
              <LatitudeDegrees>42.9477770067751407623291015625</LatitudeDegrees>
              <LongitudeDegrees>-1.756460666656494140625</LongitudeDegrees>
            </Position>
            <AltitudeMeters>560.79998779296875</AltitudeMeters>
            <DistanceMeters>34217.521338307</DistanceMeters>
          </Trackpoint>
          <Trackpoint>
            <Time>2018-08-26T07:04:39.000Z</Time>
            <Position>
              <LatitudeDegrees>42.9478256218135356903076171875</LatitudeDegrees>
              <LongitudeDegrees>-1.75656468607485294342041015625</LongitudeDegrees>
            </Position>
            <AltitudeMeters>560.5999755859375</AltitudeMeters>
            <DistanceMeters>34227.576224476</DistanceMeters>
          </Trackpoint>
          <Trackpoint>
            <Time>2018-08-26T07:04:40.000Z</Time>
            <Position>
              <LatitudeDegrees>42.94786627404391765594482421875</LatitudeDegrees>
              <LongitudeDegrees>-1.7566804401576519012451171875</LongitudeDegrees>
            </Position>
            <AltitudeMeters>560.5999755859375</AltitudeMeters>
            <DistanceMeters>34238.036071807</DistanceMeters>
          </Trackpoint>
          <Trackpoint>
            <Time>2018-08-26T07:04:41.000Z</Time>
            <Position>
              <LatitudeDegrees>42.947897873818874359130859375</LatitudeDegrees>
              <LongitudeDegrees>-1.75680021755397319793701171875</LongitudeDegrees>
            </Position>
            <AltitudeMeters>560.5999755859375</AltitudeMeters>
            <DistanceMeters>34248.408793766</DistanceMeters>
          </Trackpoint>
          <Trackpoint>
            <Time>2018-08-26T07:04:42.000Z</Time>
            <Position>
              <LatitudeDegrees>42.947922013700008392333984375</LatitudeDegrees>
              <LongitudeDegrees>-1.756919324398040771484375</LongitudeDegrees>
            </Position>
            <AltitudeMeters>560.5999755859375</AltitudeMeters>
            <DistanceMeters>34258.477590528</DistanceMeters>
          </Trackpoint>
          <Trackpoint>
            <Time>2018-08-26T07:04:43.000Z</Time>
            <Position>
              <LatitudeDegrees>42.94795612804591655731201171875</LatitudeDegrees>
              <LongitudeDegrees>-1.75702921114861965179443359375</LongitudeDegrees>
            </Position>
            <AltitudeMeters>560.5999755859375</AltitudeMeters>
            <DistanceMeters>34268.201939376</DistanceMeters>
          </Trackpoint>
          <Trackpoint>
            <Time>2018-08-26T07:04:44.000Z</Time>
            <Position>
              <LatitudeDegrees>42.94800356961786746978759765625</LatitudeDegrees>
              <LongitudeDegrees>-1.75713046453893184661865234375</LongitudeDegrees>
            </Position>
            <AltitudeMeters>560.79998779296875</AltitudeMeters>
            <DistanceMeters>34277.996146953</DistanceMeters>
          </Trackpoint>
          <Trackpoint>
            <Time>2018-08-26T07:04:45.000Z</Time>
            <Position>
              <LatitudeDegrees>42.9480578005313873291015625</LatitudeDegrees>
              <LongitudeDegrees>-1.7572255991399288177490234375</LongitudeDegrees>
            </Position>
            <AltitudeMeters>560.79998779296875</AltitudeMeters>
            <DistanceMeters>34287.81935401</DistanceMeters>
          </Trackpoint>
          <Trackpoint>
            <Time>2018-08-26T07:04:46.000Z</Time>
            <Position>
              <LatitudeDegrees>42.9481159709393978118896484375</LatitudeDegrees>
              <LongitudeDegrees>-1.757307238876819610595703125</LongitudeDegrees>
            </Position>
            <AltitudeMeters>560.79998779296875</AltitudeMeters>
            <DistanceMeters>34297.10089102</DistanceMeters>
          </Trackpoint>
          <Trackpoint>
            <Time>2018-08-26T07:04:47.000Z</Time>
            <Position>
              <LatitudeDegrees>42.9481763206422328948974609375</LatitudeDegrees>
              <LongitudeDegrees>-1.75738804042339324951171875</LongitudeDegrees>
            </Position>
            <AltitudeMeters>561</AltitudeMeters>
            <DistanceMeters>34306.505175613</DistanceMeters>
          </Trackpoint>
          <Trackpoint>
            <Time>2018-08-26T07:04:48.000Z</Time>
            <Position>
              <LatitudeDegrees>42.9482403583824634552001953125</LatitudeDegrees>
              <LongitudeDegrees>-1.757460795342922210693359375</LongitudeDegrees>
            </Position>
            <AltitudeMeters>561</AltitudeMeters>
            <DistanceMeters>34315.775030382</DistanceMeters>
          </Trackpoint>
          <Trackpoint>
            <Time>2018-08-26T07:04:49.000Z</Time>
            <Position>
              <LatitudeDegrees>42.94830330647528171539306640625</LatitudeDegrees>
              <LongitudeDegrees>-1.7575353942811489105224609375</LongitudeDegrees>
            </Position>
            <AltitudeMeters>561.20001220703125</AltitudeMeters>
            <DistanceMeters>34325.049267716</DistanceMeters>
          </Trackpoint>
          <Trackpoint>
            <Time>2018-08-26T07:04:50.000Z</Time>
            <Position>
              <LatitudeDegrees>42.948369272053241729736328125</LatitudeDegrees>
              <LongitudeDegrees>-1.75760353915393352508544921875</LongitudeDegrees>
            </Position>
            <AltitudeMeters>561.20001220703125</AltitudeMeters>
            <DistanceMeters>34334.254605154</DistanceMeters>
          </Trackpoint>
          <Trackpoint>
            <Time>2018-08-26T07:04:51.000Z</Time>
            <Position>
              <LatitudeDegrees>42.9484354890882968902587890625</LatitudeDegrees>
              <LongitudeDegrees>-1.75767579115927219390869140625</LongitudeDegrees>
            </Position>
            <AltitudeMeters>561.20001220703125</AltitudeMeters>
            <DistanceMeters>34343.686694696</DistanceMeters>
          </Trackpoint>
          <Trackpoint>
            <Time>2018-08-26T07:04:52.000Z</Time>
            <Position>
              <LatitudeDegrees>42.9485035501420497894287109375</LatitudeDegrees>
              <LongitudeDegrees>-1.75774452276527881622314453125</LongitudeDegrees>
            </Position>
            <AltitudeMeters>561.20001220703125</AltitudeMeters>
            <DistanceMeters>34353.1063301</DistanceMeters>
          </Trackpoint>
          <Trackpoint>
            <Time>2018-08-26T07:04:53.000Z</Time>
            <Position>
              <LatitudeDegrees>42.94857068918645381927490234375</LatitudeDegrees>
              <LongitudeDegrees>-1.75781509838998317718505859375</LongitudeDegrees>
            </Position>
            <AltitudeMeters>561.20001220703125</AltitudeMeters>
            <DistanceMeters>34362.534589351</DistanceMeters>
          </Trackpoint>
          <Trackpoint>
            <Time>2018-08-26T07:04:54.000Z</Time>
            <Position>
              <LatitudeDegrees>42.9486353136599063873291015625</LatitudeDegrees>
              <LongitudeDegrees>-1.7578901164233684539794921875</LongitudeDegrees>
            </Position>
            <AltitudeMeters>561.20001220703125</AltitudeMeters>
            <DistanceMeters>34371.973378161</DistanceMeters>
          </Trackpoint>
          <Trackpoint>
            <Time>2018-08-26T07:04:55.000Z</Time>
            <Position>
              <LatitudeDegrees>42.9487001895904541015625</LatitudeDegrees>
              <LongitudeDegrees>-1.75796178169548511505126953125</LongitudeDegrees>
            </Position>
            <AltitudeMeters>561.20001220703125</AltitudeMeters>
            <DistanceMeters>34381.258805986</DistanceMeters>
          </Trackpoint>
          <Trackpoint>
            <Time>2018-08-26T07:04:56.000Z</Time>
            <Position>
              <LatitudeDegrees>42.94876682572066783905029296875</LatitudeDegrees>
              <LongitudeDegrees>-1.7580312676727771759033203125</LongitudeDegrees>
            </Position>
            <AltitudeMeters>561.20001220703125</AltitudeMeters>
            <DistanceMeters>34390.588861555</DistanceMeters>
          </Trackpoint>
          <Trackpoint>
            <Time>2018-08-26T07:04:57.000Z</Time>
            <Position>
              <LatitudeDegrees>42.94883153401315212249755859375</LatitudeDegrees>
              <LongitudeDegrees>-1.75809748470783233642578125</LongitudeDegrees>
            </Position>
            <AltitudeMeters>561.20001220703125</AltitudeMeters>
            <DistanceMeters>34399.58784625</DistanceMeters>
          </Trackpoint>
          <Trackpoint>
            <Time>2018-08-26T07:04:58.000Z</Time>
            <Position>
              <LatitudeDegrees>42.94889657758176326751708984375</LatitudeDegrees>
              <LongitudeDegrees>-1.75816881470382213592529296875</LongitudeDegrees>
            </Position>
            <AltitudeMeters>561.20001220703125</AltitudeMeters>
            <DistanceMeters>34408.87181521</DistanceMeters>
          </Trackpoint>
          <Trackpoint>
            <Time>2018-08-26T07:04:59.000Z</Time>
            <Position>
              <LatitudeDegrees>42.9489645548164844512939453125</LatitudeDegrees>
              <LongitudeDegrees>-1.75823888741433620452880859375</LongitudeDegrees>
            </Position>
            <AltitudeMeters>561.20001220703125</AltitudeMeters>
            <DistanceMeters>34418.349747499</DistanceMeters>
          </Trackpoint>
          <Trackpoint>
            <Time>2018-08-26T07:05:00.000Z</Time>
            <Position>
              <LatitudeDegrees>42.94903202913701534271240234375</LatitudeDegrees>
              <LongitudeDegrees>-1.75831097178161144256591796875</LongitudeDegrees>
            </Position>
            <AltitudeMeters>561</AltitudeMeters>
            <DistanceMeters>34427.882778986</DistanceMeters>
          </Trackpoint>
          <Trackpoint>
            <Time>2018-08-26T07:05:01.000Z</Time>
            <Position>
              <LatitudeDegrees>42.94910042546689510345458984375</LatitudeDegrees>
              <LongitudeDegrees>-1.75838179886341094970703125</LongitudeDegrees>
            </Position>
            <AltitudeMeters>560.79998779296875</AltitudeMeters>
            <DistanceMeters>34437.434736502</DistanceMeters>
          </Trackpoint>
          <Trackpoint>
            <Time>2018-08-26T07:05:02.000Z</Time>
            <Position>
              <LatitudeDegrees>42.94916697777807712554931640625</LatitudeDegrees>
              <LongitudeDegrees>-1.758452542126178741455078125</LongitudeDegrees>
            </Position>
            <AltitudeMeters>560.79998779296875</AltitudeMeters>
            <DistanceMeters>34446.820278346</DistanceMeters>
          </Trackpoint>
          <Trackpoint>
            <Time>2018-08-26T07:05:03.000Z</Time>
            <Position>
              <LatitudeDegrees>42.94923503883183002471923828125</LatitudeDegrees>
              <LongitudeDegrees>-1.75852320156991481781005859375</LongitudeDegrees>
            </Position>
            <AltitudeMeters>560.79998779296875</AltitudeMeters>
            <DistanceMeters>34456.334346155</DistanceMeters>
          </Trackpoint>
          <Trackpoint>
            <Time>2018-08-26T07:05:04.000Z</Time>
            <Position>
              <LatitudeDegrees>42.94930377043783664703369140625</LatitudeDegrees>
              <LongitudeDegrees>-1.75859503448009490966796875</LongitudeDegrees>
            </Position>
            <AltitudeMeters>560.79998779296875</AltitudeMeters>
            <DistanceMeters>34465.966793168</DistanceMeters>
          </Trackpoint>
          <Trackpoint>
            <Time>2018-08-26T07:05:05.000Z</Time>
            <Position>
              <LatitudeDegrees>42.9493732564151287078857421875</LatitudeDegrees>
              <LongitudeDegrees>-1.758667118847370147705078125</LongitudeDegrees>
            </Position>
            <AltitudeMeters>560.5999755859375</AltitudeMeters>
            <DistanceMeters>34475.677667913</DistanceMeters>
          </Trackpoint>
          <Trackpoint>
            <Time>2018-08-26T07:05:06.000Z</Time>
            <Position>
              <LatitudeDegrees>42.9494426585733890533447265625</LatitudeDegrees>
              <LongitudeDegrees>-1.75873987376689910888671875</LongitudeDegrees>
            </Position>
            <AltitudeMeters>560.4000244140625</AltitudeMeters>
            <DistanceMeters>34485.414544855</DistanceMeters>
          </Trackpoint>
          <Trackpoint>
            <Time>2018-08-26T07:05:07.000Z</Time>
            <Position>
              <LatitudeDegrees>42.9495115578174591064453125</LatitudeDegrees>
              <LongitudeDegrees>-1.7588138021528720855712890625</LongitudeDegrees>
            </Position>
            <AltitudeMeters>560.4000244140625</AltitudeMeters>
            <DistanceMeters>34495.165786056</DistanceMeters>
          </Trackpoint>
          <Trackpoint>
            <Time>2018-08-26T07:05:08.000Z</Time>
            <Position>
              <LatitudeDegrees>42.949582301080226898193359375</LatitudeDegrees>
              <LongitudeDegrees>-1.75889099948108196258544921875</LongitudeDegrees>
            </Position>
            <AltitudeMeters>560.20001220703125</AltitudeMeters>
            <DistanceMeters>34505.243099174</DistanceMeters>
          </Trackpoint>
          <Trackpoint>
            <Time>2018-08-26T07:05:09.000Z</Time>
            <Position>
              <LatitudeDegrees>42.949652373790740966796875</LatitudeDegrees>
              <LongitudeDegrees>-1.7589683644473552703857421875</LongitudeDegrees>
            </Position>
            <AltitudeMeters>560.20001220703125</AltitudeMeters>
            <DistanceMeters>34515.270556539</DistanceMeters>
          </Trackpoint>
          <Trackpoint>
            <Time>2018-08-26T07:05:10.000Z</Time>
            <Position>
              <LatitudeDegrees>42.94972253032028675079345703125</LatitudeDegrees>
              <LongitudeDegrees>-1.759043969213962554931640625</LongitudeDegrees>
            </Position>
            <AltitudeMeters>559.79998779296875</AltitudeMeters>
            <DistanceMeters>34525.216181576</DistanceMeters>
          </Trackpoint>
          <Trackpoint>
            <Time>2018-08-26T07:05:11.000Z</Time>
            <Position>
              <LatitudeDegrees>42.94979360885918140411376953125</LatitudeDegrees>
              <LongitudeDegrees>-1.75911982543766498565673828125</LongitudeDegrees>
            </Position>
            <AltitudeMeters>559.79998779296875</AltitudeMeters>
            <DistanceMeters>34535.254889317</DistanceMeters>
          </Trackpoint>
          <Trackpoint>
            <Time>2018-08-26T07:05:12.000Z</Time>
            <Position>
              <LatitudeDegrees>42.9498651064932346343994140625</LatitudeDegrees>
              <LongitudeDegrees>-1.75919660367071628570556640625</LongitudeDegrees>
            </Position>
            <AltitudeMeters>559.4000244140625</AltitudeMeters>
            <DistanceMeters>34545.376461194</DistanceMeters>
          </Trackpoint>
          <Trackpoint>
            <Time>2018-08-26T07:05:13.000Z</Time>
            <Position>
              <LatitudeDegrees>42.94993777759373188018798828125</LatitudeDegrees>
              <LongitudeDegrees>-1.75927455537021160125732421875</LongitudeDegrees>
            </Position>
            <AltitudeMeters>559.20001220703125</AltitudeMeters>
            <DistanceMeters>34555.660002667</DistanceMeters>
          </Trackpoint>
          <Trackpoint>
            <Time>2018-08-26T07:05:14.000Z</Time>
            <Position>
              <LatitudeDegrees>42.9500091075897216796875</LatitudeDegrees>
              <LongitudeDegrees>-1.75935300998389720916748046875</LongitudeDegrees>
            </Position>
            <AltitudeMeters>559</AltitudeMeters>
            <DistanceMeters>34565.852254597</DistanceMeters>
          </Trackpoint>
          <Trackpoint>
            <Time>2018-08-26T07:05:15.000Z</Time>
            <Position>
              <LatitudeDegrees>42.95008110813796520233154296875</LatitudeDegrees>
              <LongitudeDegrees>-1.759430207312107086181640625</LongitudeDegrees>
            </Position>
            <AltitudeMeters>558.79998779296875</AltitudeMeters>
            <DistanceMeters>34576.039189293</DistanceMeters>
          </Trackpoint>
          <Trackpoint>
            <Time>2018-08-26T07:05:16.000Z</Time>
            <Position>
              <LatitudeDegrees>42.95015403069555759429931640625</LatitudeDegrees>
              <LongitudeDegrees>-1.75950698554515838623046875</LongitudeDegrees>
            </Position>
            <AltitudeMeters>558.79998779296875</AltitudeMeters>
            <DistanceMeters>34586.28622442</DistanceMeters>
          </Trackpoint>
          <Trackpoint>
            <Time>2018-08-26T07:05:17.000Z</Time>
            <Position>
              <LatitudeDegrees>42.9502258636057376861572265625</LatitudeDegrees>
              <LongitudeDegrees>-1.75958284176886081695556640625</LongitudeDegrees>
            </Position>
            <AltitudeMeters>558.4000244140625</AltitudeMeters>
            <DistanceMeters>34596.39127783</DistanceMeters>
          </Trackpoint>
          <Trackpoint>
            <Time>2018-08-26T07:05:18.000Z</Time>
            <Position>
              <LatitudeDegrees>42.950296103954315185546875</LatitudeDegrees>
              <LongitudeDegrees>-1.75965777598321437835693359375</LongitudeDegrees>
            </Position>
            <AltitudeMeters>558.20001220703125</AltitudeMeters>
            <DistanceMeters>34606.310082338</DistanceMeters>
          </Trackpoint>
          <Trackpoint>
            <Time>2018-08-26T07:05:19.000Z</Time>
            <Position>
              <LatitudeDegrees>42.95036651194095611572265625</LatitudeDegrees>
              <LongitudeDegrees>-1.75973287783563137054443359375</LongitudeDegrees>
            </Position>
            <AltitudeMeters>557.79998779296875</AltitudeMeters>
            <DistanceMeters>34616.252983167</DistanceMeters>
          </Trackpoint>
          <Trackpoint>
            <Time>2018-08-26T07:05:20.000Z</Time>
            <Position>
              <LatitudeDegrees>42.95043767429888248443603515625</LatitudeDegrees>
              <LongitudeDegrees>-1.75980714149773120880126953125</LongitudeDegrees>
            </Position>
            <AltitudeMeters>557.5999755859375</AltitudeMeters>
            <DistanceMeters>34626.219469052</DistanceMeters>
          </Trackpoint>
          <Trackpoint>
            <Time>2018-08-26T07:05:21.000Z</Time>
            <Position>
              <LatitudeDegrees>42.950509004294872283935546875</LatitudeDegrees>
              <LongitudeDegrees>-1.75988308154046535491943359375</LongitudeDegrees>
            </Position>
            <AltitudeMeters>557.20001220703125</AltitudeMeters>
            <DistanceMeters>34636.284229235</DistanceMeters>
          </Trackpoint>
          <Trackpoint>
            <Time>2018-08-26T07:05:22.000Z</Time>
            <Position>
              <LatitudeDegrees>42.95058066956698894500732421875</LatitudeDegrees>
              <LongitudeDegrees>-1.7599594406783580780029296875</LongitudeDegrees>
            </Position>
            <AltitudeMeters>557</AltitudeMeters>
            <DistanceMeters>34646.399554054</DistanceMeters>
          </Trackpoint>
          <Trackpoint>
            <Time>2018-08-26T07:05:23.000Z</Time>
            <Position>
              <LatitudeDegrees>42.9506533406674861907958984375</LatitudeDegrees>
              <LongitudeDegrees>-1.76003596745431423187255859375</LongitudeDegrees>
            </Position>
            <AltitudeMeters>556.79998779296875</AltitudeMeters>
            <DistanceMeters>34656.611720957</DistanceMeters>
          </Trackpoint>
          <Trackpoint>
            <Time>2018-08-26T07:05:24.000Z</Time>
            <Position>
              <LatitudeDegrees>42.95072349719703197479248046875</LatitudeDegrees>
              <LongitudeDegrees>-1.76011073403060436248779296875</LongitudeDegrees>
            </Position>
            <AltitudeMeters>556.79998779296875</AltitudeMeters>
            <DistanceMeters>34666.515492477</DistanceMeters>
          </Trackpoint>
          <Trackpoint>
            <Time>2018-08-26T07:05:25.000Z</Time>
            <Position>
              <LatitudeDegrees>42.95079440809786319732666015625</LatitudeDegrees>
              <LongitudeDegrees>-1.76018147729337215423583984375</LongitudeDegrees>
            </Position>
            <AltitudeMeters>556.5999755859375</AltitudeMeters>
            <DistanceMeters>34676.288009475</DistanceMeters>
          </Trackpoint>
          <Trackpoint>
            <Time>2018-08-26T07:05:26.000Z</Time>
            <Position>
              <LatitudeDegrees>42.95086674392223358154296875</LatitudeDegrees>
              <LongitudeDegrees>-1.76025171764194965362548828125</LongitudeDegrees>
            </Position>
            <AltitudeMeters>556.5999755859375</AltitudeMeters>
            <DistanceMeters>34686.165303938</DistanceMeters>
          </Trackpoint>
          <Trackpoint>
            <Time>2018-08-26T07:05:27.000Z</Time>
            <Position>
              <LatitudeDegrees>42.95093916356563568115234375</LatitudeDegrees>
              <LongitudeDegrees>-1.7603245563805103302001953125</LongitudeDegrees>
            </Position>
            <AltitudeMeters>556.5999755859375</AltitudeMeters>
            <DistanceMeters>34696.17428331</DistanceMeters>
          </Trackpoint>
          <Trackpoint>
            <Time>2018-08-26T07:05:28.000Z</Time>
            <Position>
              <LatitudeDegrees>42.951010577380657196044921875</LatitudeDegrees>
              <LongitudeDegrees>-1.7603979818522930145263671875</LongitudeDegrees>
            </Position>
            <AltitudeMeters>556.4000244140625</AltitudeMeters>
            <DistanceMeters>34706.12172407</DistanceMeters>
          </Trackpoint>
          <Trackpoint>
            <Time>2018-08-26T07:05:29.000Z</Time>
            <Position>
              <LatitudeDegrees>42.9510824941098690032958984375</LatitudeDegrees>
              <LongitudeDegrees>-1.76047031767666339874267578125</LongitudeDegrees>
            </Position>
            <AltitudeMeters>556.20001220703125</AltitudeMeters>
            <DistanceMeters>34716.060991462</DistanceMeters>
          </Trackpoint>
          <Trackpoint>
            <Time>2018-08-26T07:05:30.000Z</Time>
            <Position>
              <LatitudeDegrees>42.95115374028682708740234375</LatitudeDegrees>
              <LongitudeDegrees>-1.76054223440587520599365234375</LongitudeDegrees>
            </Position>
            <AltitudeMeters>556</AltitudeMeters>
            <DistanceMeters>34725.920442406</DistanceMeters>
          </Trackpoint>
          <Trackpoint>
            <Time>2018-08-26T07:05:31.000Z</Time>
            <Position>
              <LatitudeDegrees>42.9512263275682926177978515625</LatitudeDegrees>
              <LongitudeDegrees>-1.760616414248943328857421875</LongitudeDegrees>
            </Position>
            <AltitudeMeters>555.79998779296875</AltitudeMeters>
            <DistanceMeters>34736.009397837</DistanceMeters>
          </Trackpoint>
          <Trackpoint>
            <Time>2018-08-26T07:05:32.000Z</Time>
            <Position>
              <LatitudeDegrees>42.951297573745250701904296875</LatitudeDegrees>
              <LongitudeDegrees>-1.76069042645394802093505859375</LongitudeDegrees>
            </Position>
            <AltitudeMeters>555.5999755859375</AltitudeMeters>
            <DistanceMeters>34745.97135247</DistanceMeters>
          </Trackpoint>
          <Trackpoint>
            <Time>2018-08-26T07:05:33.000Z</Time>
            <Position>
              <LatitudeDegrees>42.95136806555092334747314453125</LatitudeDegrees>
              <LongitudeDegrees>-1.76076334901154041290283203125</LongitudeDegrees>
            </Position>
            <AltitudeMeters>555.5999755859375</AltitudeMeters>
            <DistanceMeters>34755.812468761</DistanceMeters>
          </Trackpoint>
          <Trackpoint>
            <Time>2018-08-26T07:05:34.000Z</Time>
            <Position>
              <LatitudeDegrees>42.951438724994659423828125</LatitudeDegrees>
              <LongitudeDegrees>-1.760835014283657073974609375</LongitudeDegrees>
            </Position>
            <AltitudeMeters>555.4000244140625</AltitudeMeters>
            <DistanceMeters>34765.607598276</DistanceMeters>
          </Trackpoint>
          <Trackpoint>
            <Time>2018-08-26T07:05:35.000Z</Time>
            <Position>
              <LatitudeDegrees>42.9515109769999980926513671875</LatitudeDegrees>
              <LongitudeDegrees>-1.76090785302221775054931640625</LongitudeDegrees>
            </Position>
            <AltitudeMeters>555.20001220703125</AltitudeMeters>
            <DistanceMeters>34775.601228521</DistanceMeters>
          </Trackpoint>
          <Trackpoint>
            <Time>2018-08-26T07:05:36.000Z</Time>
            <Position>
              <LatitudeDegrees>42.951583564281463623046875</LatitudeDegrees>
              <LongitudeDegrees>-1.76098613999783992767333984375</LongitudeDegrees>
            </Position>
            <AltitudeMeters>554.5999755859375</AltitudeMeters>
            <DistanceMeters>34785.893986016</DistanceMeters>
          </Trackpoint>
          <Trackpoint>
            <Time>2018-08-26T07:05:37.000Z</Time>
            <Position>
              <LatitudeDegrees>42.95165397226810455322265625</LatitudeDegrees>
              <LongitudeDegrees>-1.76106543280184268951416015625</LongitudeDegrees>
            </Position>
            <AltitudeMeters>554.4000244140625</AltitudeMeters>
            <DistanceMeters>34796.049848025</DistanceMeters>
          </Trackpoint>
          <Trackpoint>
            <Time>2018-08-26T07:05:38.000Z</Time>
            <Position>
              <LatitudeDegrees>42.9517216980457305908203125</LatitudeDegrees>
              <LongitudeDegrees>-1.76114288158714771270751953125</LongitudeDegrees>
            </Position>
            <AltitudeMeters>554.20001220703125</AltitudeMeters>
            <DistanceMeters>34805.879487792</DistanceMeters>
          </Trackpoint>
          <Trackpoint>
            <Time>2018-08-26T07:05:39.000Z</Time>
            <Position>
              <LatitudeDegrees>42.95178598724305629730224609375</LatitudeDegrees>
              <LongitudeDegrees>-1.76122133620083332061767578125</LongitudeDegrees>
            </Position>
            <AltitudeMeters>553.79998779296875</AltitudeMeters>
            <DistanceMeters>34815.473892373</DistanceMeters>
          </Trackpoint>
          <Trackpoint>
            <Time>2018-08-26T07:05:40.000Z</Time>
            <Position>
              <LatitudeDegrees>42.95184516347944736480712890625</LatitudeDegrees>
              <LongitudeDegrees>-1.76130448468029499053955078125</LongitudeDegrees>
            </Position>
            <AltitudeMeters>553.5999755859375</AltitudeMeters>
            <DistanceMeters>34824.922243326</DistanceMeters>
          </Trackpoint>
          <Trackpoint>
            <Time>2018-08-26T07:05:41.000Z</Time>
            <Position>
              <LatitudeDegrees>42.95189864002168178558349609375</LatitudeDegrees>
              <LongitudeDegrees>-1.76139199174940586090087890625</LongitudeDegrees>
            </Position>
            <AltitudeMeters>553.4000244140625</AltitudeMeters>
            <DistanceMeters>34834.208643599</DistanceMeters>
          </Trackpoint>
          <Trackpoint>
            <Time>2018-08-26T07:05:42.000Z</Time>
            <Position>
              <LatitudeDegrees>42.951950021088123321533203125</LatitudeDegrees>
              <LongitudeDegrees>-1.7614839412271976470947265625</LongitudeDegrees>
            </Position>
            <AltitudeMeters>553.20001220703125</AltitudeMeters>
            <DistanceMeters>34843.632591913</DistanceMeters>
          </Trackpoint>
          <Trackpoint>
            <Time>2018-08-26T07:05:43.000Z</Time>
            <Position>
              <LatitudeDegrees>42.95199997723102569580078125</LatitudeDegrees>
              <LongitudeDegrees>-1.761577315628528594970703125</LongitudeDegrees>
            </Position>
            <AltitudeMeters>553</AltitudeMeters>
            <DistanceMeters>34853.05510281</DistanceMeters>
          </Trackpoint>
          <Trackpoint>
            <Time>2018-08-26T07:05:44.000Z</Time>
            <Position>
              <LatitudeDegrees>42.95204825699329376220703125</LatitudeDegrees>
              <LongitudeDegrees>-1.76167110912501811981201171875</LongitudeDegrees>
            </Position>
            <AltitudeMeters>553</AltitudeMeters>
            <DistanceMeters>34862.396765336</DistanceMeters>
          </Trackpoint>
          <Trackpoint>
            <Time>2018-08-26T07:05:45.000Z</Time>
            <Position>
              <LatitudeDegrees>42.95209494419395923614501953125</LatitudeDegrees>
              <LongitudeDegrees>-1.7617662437260150909423828125</LongitudeDegrees>
            </Position>
            <AltitudeMeters>553</AltitudeMeters>
            <DistanceMeters>34871.727788703</DistanceMeters>
          </Trackpoint>
          <Trackpoint>
            <Time>2018-08-26T07:05:46.000Z</Time>
            <Position>
              <LatitudeDegrees>42.9521392844617366790771484375</LatitudeDegrees>
              <LongitudeDegrees>-1.76185936667025089263916015625</LongitudeDegrees>
            </Position>
            <AltitudeMeters>552.79998779296875</AltitudeMeters>
            <DistanceMeters>34880.77780491</DistanceMeters>
          </Trackpoint>
          <Trackpoint>
            <Time>2018-08-26T07:05:47.000Z</Time>
            <Position>
              <LatitudeDegrees>42.95218345709145069122314453125</LatitudeDegrees>
              <LongitudeDegrees>-1.7619499750435352325439453125</LongitudeDegrees>
            </Position>
            <AltitudeMeters>552.79998779296875</AltitudeMeters>
            <DistanceMeters>34889.647417414</DistanceMeters>
          </Trackpoint>
          <Trackpoint>
            <Time>2018-08-26T07:05:48.000Z</Time>
            <Position>
              <LatitudeDegrees>42.95222888700664043426513671875</LatitudeDegrees>
              <LongitudeDegrees>-1.7620371468365192413330078125</LongitudeDegrees>
            </Position>
            <AltitudeMeters>552.79998779296875</AltitudeMeters>
            <DistanceMeters>34898.365050313</DistanceMeters>
          </Trackpoint>
          <Trackpoint>
            <Time>2018-08-26T07:05:49.000Z</Time>
            <Position>
              <LatitudeDegrees>42.95227817259728908538818359375</LatitudeDegrees>
              <LongitudeDegrees>-1.7621214687824249267578125</LongitudeDegrees>
            </Position>
            <AltitudeMeters>552.79998779296875</AltitudeMeters>
            <DistanceMeters>34907.155920248</DistanceMeters>
          </Trackpoint>
          <Trackpoint>
            <Time>2018-08-26T07:05:50.000Z</Time>
            <Position>
              <LatitudeDegrees>42.9523313976824283599853515625</LatitudeDegrees>
              <LongitudeDegrees>-1.7622071318328380584716796875</LongitudeDegrees>
            </Position>
            <AltitudeMeters>552.79998779296875</AltitudeMeters>
            <DistanceMeters>34916.310105596</DistanceMeters>
          </Trackpoint>
          <Trackpoint>
            <Time>2018-08-26T07:05:51.000Z</Time>
            <Position>
              <LatitudeDegrees>42.9523867182433605194091796875</LatitudeDegrees>
              <LongitudeDegrees>-1.7622892744839191436767578125</LongitudeDegrees>
            </Position>
            <AltitudeMeters>552.79998779296875</AltitudeMeters>
            <DistanceMeters>34925.403422373</DistanceMeters>
          </Trackpoint>
          <Trackpoint>
            <Time>2018-08-26T07:05:52.000Z</Time>
            <Position>
              <LatitudeDegrees>42.9524432122707366943359375</LatitudeDegrees>
              <LongitudeDegrees>-1.7623707465827465057373046875</LongitudeDegrees>
            </Position>
            <AltitudeMeters>552.5999755859375</AltitudeMeters>
            <DistanceMeters>34934.546256596</DistanceMeters>
          </Trackpoint>
          <Trackpoint>
            <Time>2018-08-26T07:05:53.000Z</Time>
            <Position>
              <LatitudeDegrees>42.952499203383922576904296875</LatitudeDegrees>
              <LongitudeDegrees>-1.76245330832898616790771484375</LongitudeDegrees>
            </Position>
            <AltitudeMeters>552.5999755859375</AltitudeMeters>
            <DistanceMeters>34943.715226642</DistanceMeters>
          </Trackpoint>
          <Trackpoint>
            <Time>2018-08-26T07:05:54.000Z</Time>
            <Position>
              <LatitudeDegrees>42.95255728997290134429931640625</LatitudeDegrees>
              <LongitudeDegrees>-1.76253947429358959197998046875</LongitudeDegrees>
            </Position>
            <AltitudeMeters>552.5999755859375</AltitudeMeters>
            <DistanceMeters>34953.25867209</DistanceMeters>
          </Trackpoint>
          <Trackpoint>
            <Time>2018-08-26T07:05:55.000Z</Time>
            <Position>
              <LatitudeDegrees>42.95261462219059467315673828125</LatitudeDegrees>
              <LongitudeDegrees>-1.7626252211630344390869140625</LongitudeDegrees>
            </Position>
            <AltitudeMeters>552.5999755859375</AltitudeMeters>
            <DistanceMeters>34962.719916605</DistanceMeters>
          </Trackpoint>
          <Trackpoint>
            <Time>2018-08-26T07:05:56.000Z</Time>
            <Position>
              <LatitudeDegrees>42.95266927219927310943603515625</LatitudeDegrees>
              <LongitudeDegrees>-1.76271549426019191741943359375</LongitudeDegrees>
            </Position>
            <AltitudeMeters>552.5999755859375</AltitudeMeters>
            <DistanceMeters>34972.263362053</DistanceMeters>
          </Trackpoint>
          <Trackpoint>
            <Time>2018-08-26T07:05:57.000Z</Time>
            <Position>
              <LatitudeDegrees>42.95272056944668292999267578125</LatitudeDegrees>
              <LongitudeDegrees>-1.76281020976603031158447265625</LongitudeDegrees>
            </Position>
            <AltitudeMeters>552.4000244140625</AltitudeMeters>
            <DistanceMeters>34981.861530622</DistanceMeters>
          </Trackpoint>
          <Trackpoint>
            <Time>2018-08-26T07:05:58.000Z</Time>
            <Position>
              <LatitudeDegrees>42.95276650227606296539306640625</LatitudeDegrees>
              <LongitudeDegrees>-1.76290995441377162933349609375</LongitudeDegrees>
            </Position>
            <AltitudeMeters>552.4000244140625</AltitudeMeters>
            <DistanceMeters>34991.461580632</DistanceMeters>
          </Trackpoint>
          <Trackpoint>
            <Time>2018-08-26T07:05:59.000Z</Time>
            <Position>
              <LatitudeDegrees>42.95280690304934978485107421875</LatitudeDegrees>
              <LongitudeDegrees>-1.76301531493663787841796875</LongitudeDegrees>
            </Position>
            <AltitudeMeters>552.20001220703125</AltitudeMeters>
            <DistanceMeters>35001.151044228</DistanceMeters>
          </Trackpoint>
          <Trackpoint>
            <Time>2018-08-26T07:06:00.000Z</Time>
            <Position>
              <LatitudeDegrees>42.95284462161362171173095703125</LatitudeDegrees>
              <LongitudeDegrees>-1.7631261236965656280517578125</LongitudeDegrees>
            </Position>
            <AltitudeMeters>552.20001220703125</AltitudeMeters>
            <DistanceMeters>35011.106651646</DistanceMeters>
          </Trackpoint>
          <Trackpoint>
            <Time>2018-08-26T07:06:01.000Z</Time>
            <Position>
              <LatitudeDegrees>42.95287848450243473052978515625</LatitudeDegrees>
              <LongitudeDegrees>-1.76323793828487396240234375</LongitudeDegrees>
            </Position>
            <AltitudeMeters>552.20001220703125</AltitudeMeters>
            <DistanceMeters>35020.964728674</DistanceMeters>
          </Trackpoint>
          <Trackpoint>
            <Time>2018-08-26T07:06:02.000Z</Time>
            <Position>
              <LatitudeDegrees>42.95291251502931118011474609375</LatitudeDegrees>
              <LongitudeDegrees>-1.7633520998060703277587890625</LongitudeDegrees>
            </Position>
            <AltitudeMeters>551.79998779296875</AltitudeMeters>
            <DistanceMeters>35031.00613463</DistanceMeters>
          </Trackpoint>
          <Trackpoint>
            <Time>2018-08-26T07:06:03.000Z</Time>
            <Position>
              <LatitudeDegrees>42.95294319279491901397705078125</LatitudeDegrees>
              <LongitudeDegrees>-1.76346969790756702423095703125</LongitudeDegrees>
            </Position>
            <AltitudeMeters>551.5999755859375</AltitudeMeters>
            <DistanceMeters>35041.177100943</DistanceMeters>
          </Trackpoint>
          <Trackpoint>
            <Time>2018-08-26T07:06:04.000Z</Time>
            <Position>
              <LatitudeDegrees>42.952974624931812286376953125</LatitudeDegrees>
              <LongitudeDegrees>-1.76358654163777828216552734375</LongitudeDegrees>
            </Position>
            <AltitudeMeters>551.4000244140625</AltitudeMeters>
            <DistanceMeters>35051.318281378</DistanceMeters>
          </Trackpoint>
          <Trackpoint>
            <Time>2018-08-26T07:06:05.000Z</Time>
            <Position>
              <LatitudeDegrees>42.95300739817321300506591796875</LatitudeDegrees>
              <LongitudeDegrees>-1.7637068219482898712158203125</LongitudeDegrees>
            </Position>
            <AltitudeMeters>550.79998779296875</AltitudeMeters>
            <DistanceMeters>35061.773811275</DistanceMeters>
          </Trackpoint>
          <Trackpoint>
            <Time>2018-08-26T07:06:06.000Z</Time>
            <Position>
              <LatitudeDegrees>42.953041009604930877685546875</LatitudeDegrees>
              <LongitudeDegrees>-1.76382173784077167510986328125</LongitudeDegrees>
            </Position>
            <AltitudeMeters>550.5999755859375</AltitudeMeters>
            <DistanceMeters>35071.855155946</DistanceMeters>
          </Trackpoint>
          <Trackpoint>
            <Time>2018-08-26T07:06:07.000Z</Time>
            <Position>
              <LatitudeDegrees>42.9530762135982513427734375</LatitudeDegrees>
              <LongitudeDegrees>-1.7639401741325855255126953125</LongitudeDegrees>
            </Position>
            <AltitudeMeters>550.4000244140625</AltitudeMeters>
            <DistanceMeters>35082.268280258</DistanceMeters>
          </Trackpoint>
          <Trackpoint>
            <Time>2018-08-26T07:06:08.000Z</Time>
            <Position>
              <LatitudeDegrees>42.9531110823154449462890625</LatitudeDegrees>
              <LongitudeDegrees>-1.764059700071811676025390625</LongitudeDegrees>
            </Position>
            <AltitudeMeters>549.79998779296875</AltitudeMeters>
            <DistanceMeters>35092.750118842</DistanceMeters>
          </Trackpoint>
          <Trackpoint>
            <Time>2018-08-26T07:06:09.000Z</Time>
            <Position>
              <LatitudeDegrees>42.9531491361558437347412109375</LatitudeDegrees>
              <LongitudeDegrees>-1.76417796872556209564208984375</LongitudeDegrees>
            </Position>
            <AltitudeMeters>549.5999755859375</AltitudeMeters>
            <DistanceMeters>35103.274515151</DistanceMeters>
          </Trackpoint>
          <Trackpoint>
            <Time>2018-08-26T07:06:10.000Z</Time>
            <Position>
              <LatitudeDegrees>42.95319230295717716217041015625</LatitudeDegrees>
              <LongitudeDegrees>-1.7642913758754730224609375</LongitudeDegrees>
            </Position>
            <AltitudeMeters>549.4000244140625</AltitudeMeters>
            <DistanceMeters>35113.687639463</DistanceMeters>
          </Trackpoint>
          <Trackpoint>
            <Time>2018-08-26T07:06:11.000Z</Time>
            <Position>
              <LatitudeDegrees>42.95323907397687435150146484375</LatitudeDegrees>
              <LongitudeDegrees>-1.76440411247313022613525390625</LongitudeDegrees>
            </Position>
            <AltitudeMeters>549.20001220703125</AltitudeMeters>
            <DistanceMeters>35124.244162252</DistanceMeters>
          </Trackpoint>
          <Trackpoint>
            <Time>2018-08-26T07:06:12.000Z</Time>
            <Position>
              <LatitudeDegrees>42.95328869484364986419677734375</LatitudeDegrees>
              <LongitudeDegrees>-1.7645131610333919525146484375</LongitudeDegrees>
            </Position>
            <AltitudeMeters>549</AltitudeMeters>
            <DistanceMeters>35134.704441229</DistanceMeters>
          </Trackpoint>
          <Trackpoint>
            <Time>2018-08-26T07:06:13.000Z</Time>
            <Position>
              <LatitudeDegrees>42.95334015972912311553955078125</LatitudeDegrees>
              <LongitudeDegrees>-1.76462371833622455596923828125</LongitudeDegrees>
            </Position>
            <AltitudeMeters>548.5999755859375</AltitudeMeters>
            <DistanceMeters>35145.377933835</DistanceMeters>
          </Trackpoint>
          <Trackpoint>
            <Time>2018-08-26T07:06:14.000Z</Time>
            <Position>
              <LatitudeDegrees>42.95339313335716724395751953125</LatitudeDegrees>
              <LongitudeDegrees>-1.76473000086843967437744140625</LongitudeDegrees>
            </Position>
            <AltitudeMeters>548.20001220703125</AltitudeMeters>
            <DistanceMeters>35155.853740201</DistanceMeters>
          </Trackpoint>
          <Trackpoint>
            <Time>2018-08-26T07:06:15.000Z</Time>
            <Position>
              <LatitudeDegrees>42.9534478671848773956298828125</LatitudeDegrees>
              <LongitudeDegrees>-1.76483745686709880828857421875</LongitudeDegrees>
            </Position>
            <AltitudeMeters>548</AltitudeMeters>
            <DistanceMeters>35166.519192511</DistanceMeters>
          </Trackpoint>
          <Trackpoint>
            <Time>2018-08-26T07:06:16.000Z</Time>
            <Position>
              <LatitudeDegrees>42.9535025171935558319091796875</LatitudeDegrees>
              <LongitudeDegrees>-1.7649419791996479034423828125</LongitudeDegrees>
            </Position>
            <AltitudeMeters>547.5999755859375</AltitudeMeters>
            <DistanceMeters>35176.983355495</DistanceMeters>
          </Trackpoint>
          <Trackpoint>
            <Time>2018-08-26T07:06:17.000Z</Time>
            <Position>
              <LatitudeDegrees>42.95355708338320255279541015625</LatitudeDegrees>
              <LongitudeDegrees>-1.76504801027476787567138671875</LongitudeDegrees>
            </Position>
            <AltitudeMeters>547.5999755859375</AltitudeMeters>
            <DistanceMeters>35187.542016574</DistanceMeters>
          </Trackpoint>
          <Trackpoint>
            <Time>2018-08-26T07:06:18.000Z</Time>
            <Position>
              <LatitudeDegrees>42.95361072756350040435791015625</LatitudeDegrees>
              <LongitudeDegrees>-1.76515529863536357879638671875</LongitudeDegrees>
            </Position>
            <AltitudeMeters>547.20001220703125</AltitudeMeters>
            <DistanceMeters>35198.126303435</DistanceMeters>
          </Trackpoint>
          <Trackpoint>
            <Time>2018-08-26T07:06:19.000Z</Time>
            <Position>
              <LatitudeDegrees>42.95366554521024227142333984375</LatitudeDegrees>
              <LongitudeDegrees>-1.7652618326246738433837890625</LongitudeDegrees>
            </Position>
            <AltitudeMeters>547</AltitudeMeters>
            <DistanceMeters>35208.734877454</DistanceMeters>
          </Trackpoint>
          <Trackpoint>
            <Time>2018-08-26T07:06:20.000Z</Time>
            <Position>
              <LatitudeDegrees>42.95371851883828639984130859375</LatitudeDegrees>
              <LongitudeDegrees>-1.7653671093285083770751953125</LongitudeDegrees>
            </Position>
            <AltitudeMeters>546.20001220703125</AltitudeMeters>
            <DistanceMeters>35219.142797372</DistanceMeters>
          </Trackpoint>
          <Trackpoint>
            <Time>2018-08-26T07:06:21.000Z</Time>
            <Position>
              <LatitudeDegrees>42.95377367176115512847900390625</LatitudeDegrees>
              <LongitudeDegrees>-1.76547263748943805694580078125</LongitudeDegrees>
            </Position>
            <AltitudeMeters>545.79998779296875</AltitudeMeters>
            <DistanceMeters>35229.706588581</DistanceMeters>
          </Trackpoint>
          <Trackpoint>
            <Time>2018-08-26T07:06:22.000Z</Time>
            <Position>
              <LatitudeDegrees>42.9538287408649921417236328125</LatitudeDegrees>
              <LongitudeDegrees>-1.7655790038406848907470703125</LongitudeDegrees>
            </Position>
            <AltitudeMeters>545.5999755859375</AltitudeMeters>
            <DistanceMeters>35240.320268604</DistanceMeters>
          </Trackpoint>
          <Trackpoint>
            <Time>2018-08-26T07:06:23.000Z</Time>
            <Position>
              <LatitudeDegrees>42.9538843967020511627197265625</LatitudeDegrees>
              <LongitudeDegrees>-1.76568252034485340118408203125</LongitudeDegrees>
            </Position>
            <AltitudeMeters>545.4000244140625</AltitudeMeters>
            <DistanceMeters>35250.7835686</DistanceMeters>
          </Trackpoint>
          <Trackpoint>
            <Time>2018-08-26T07:06:24.000Z</Time>
            <Position>
              <LatitudeDegrees>42.95393829233944416046142578125</LatitudeDegrees>
              <LongitudeDegrees>-1.765791065990924835205078125</LongitudeDegrees>
            </Position>
            <AltitudeMeters>545.4000244140625</AltitudeMeters>
            <DistanceMeters>35261.468899037</DistanceMeters>
          </Trackpoint>
          <Trackpoint>
            <Time>2018-08-26T07:06:25.000Z</Time>
            <Position>
              <LatitudeDegrees>42.95399243943393230438232421875</LatitudeDegrees>
              <LongitudeDegrees>-1.76590003073215484619140625</LongitudeDegrees>
            </Position>
            <AltitudeMeters>545.20001220703125</AltitudeMeters>
            <DistanceMeters>35272.198505022</DistanceMeters>
          </Trackpoint>
          <Trackpoint>
            <Time>2018-08-26T07:06:26.000Z</Time>
            <Position>
              <LatitudeDegrees>42.9540471732616424560546875</LatitudeDegrees>
              <LongitudeDegrees>-1.7660041339695453643798828125</LongitudeDegrees>
            </Position>
            <AltitudeMeters>545</AltitudeMeters>
            <DistanceMeters>35282.640207133</DistanceMeters>
          </Trackpoint>
          <Trackpoint>
            <Time>2018-08-26T07:06:27.000Z</Time>
            <Position>
              <LatitudeDegrees>42.9541008174419403076171875</LatitudeDegrees>
              <LongitudeDegrees>-1.76611435599625110626220703125</LongitudeDegrees>
            </Position>
            <AltitudeMeters>545</AltitudeMeters>
            <DistanceMeters>35293.423122523</DistanceMeters>
          </Trackpoint>
          <Trackpoint>
            <Time>2018-08-26T07:06:28.000Z</Time>
            <Position>
              <LatitudeDegrees>42.95415270142257213592529296875</LatitudeDegrees>
              <LongitudeDegrees>-1.76621921360492706298828125</LongitudeDegrees>
            </Position>
            <AltitudeMeters>544.5999755859375</AltitudeMeters>
            <DistanceMeters>35303.734287348</DistanceMeters>
          </Trackpoint>
          <Trackpoint>
            <Time>2018-08-26T07:06:29.000Z</Time>
            <Position>
              <LatitudeDegrees>42.9542059265077114105224609375</LatitudeDegrees>
              <LongitudeDegrees>-1.76633186638355255126953125</LongitudeDegrees>
            </Position>
            <AltitudeMeters>544.20001220703125</AltitudeMeters>
            <DistanceMeters>35314.656987105</DistanceMeters>
          </Trackpoint>
          <Trackpoint>
            <Time>2018-08-26T07:06:30.000Z</Time>
            <Position>
              <LatitudeDegrees>42.9542585648596286773681640625</LatitudeDegrees>
              <LongitudeDegrees>-1.7664409987628459930419921875</LongitudeDegrees>
            </Position>
            <AltitudeMeters>543.79998779296875</AltitudeMeters>
            <DistanceMeters>35325.304220533</DistanceMeters>
          </Trackpoint>
          <Trackpoint>
            <Time>2018-08-26T07:06:31.000Z</Time>
            <Position>
              <LatitudeDegrees>42.95431204140186309814453125</LatitudeDegrees>
              <LongitudeDegrees>-1.7665578424930572509765625</LongitudeDegrees>
            </Position>
            <AltitudeMeters>543.5999755859375</AltitudeMeters>
            <DistanceMeters>35336.530250412</DistanceMeters>
          </Trackpoint>
          <Trackpoint>
            <Time>2018-08-26T07:06:32.000Z</Time>
            <Position>
              <LatitudeDegrees>42.95436702668666839599609375</LatitudeDegrees>
              <LongitudeDegrees>-1.7666699923574924468994140625</LongitudeDegrees>
            </Position>
            <AltitudeMeters>543.4000244140625</AltitudeMeters>
            <DistanceMeters>35347.526282587</DistanceMeters>
          </Trackpoint>
          <Trackpoint>
            <Time>2018-08-26T07:06:33.000Z</Time>
            <Position>
              <LatitudeDegrees>42.95442075468599796295166015625</LatitudeDegrees>
              <LongitudeDegrees>-1.766779124736785888671875</LongitudeDegrees>
            </Position>
            <AltitudeMeters>543.4000244140625</AltitudeMeters>
            <DistanceMeters>35358.240307589</DistanceMeters>
          </Trackpoint>
          <Trackpoint>
            <Time>2018-08-26T07:06:34.000Z</Time>
            <Position>
              <LatitudeDegrees>42.95447322539985179901123046875</LatitudeDegrees>
              <LongitudeDegrees>-1.76689085550606250762939453125</LongitudeDegrees>
            </Position>
            <AltitudeMeters>543.20001220703125</AltitudeMeters>
            <DistanceMeters>35369.054998991</DistanceMeters>
          </Trackpoint>
          <Trackpoint>
            <Time>2018-08-26T07:06:35.000Z</Time>
            <Position>
              <LatitudeDegrees>42.95452619902789592742919921875</LatitudeDegrees>
              <LongitudeDegrees>-1.767000071704387664794921875</LongitudeDegrees>
            </Position>
            <AltitudeMeters>542.79998779296875</AltitudeMeters>
            <DistanceMeters>35379.728491597</DistanceMeters>
          </Trackpoint>
          <Trackpoint>
            <Time>2018-08-26T07:06:36.000Z</Time>
            <Position>
              <LatitudeDegrees>42.95458084903657436370849609375</LatitudeDegrees>
              <LongitudeDegrees>-1.7671076953411102294921875</LongitudeDegrees>
            </Position>
            <AltitudeMeters>542.20001220703125</AltitudeMeters>
            <DistanceMeters>35390.399445817</DistanceMeters>
          </Trackpoint>
          <Trackpoint>
            <Time>2018-08-26T07:06:37.000Z</Time>
            <Position>
              <LatitudeDegrees>42.95463667251169681549072265625</LatitudeDegrees>
              <LongitudeDegrees>-1.7672138102352619171142578125</LongitudeDegrees>
            </Position>
            <AltitudeMeters>541.79998779296875</AltitudeMeters>
            <DistanceMeters>35401.04498288</DistanceMeters>
          </Trackpoint>
          <Trackpoint>
            <Time>2018-08-26T07:06:38.000Z</Time>
            <Position>
              <LatitudeDegrees>42.9546924121677875518798828125</LatitudeDegrees>
              <LongitudeDegrees>-1.76731984131038188934326171875</LongitudeDegrees>
            </Position>
            <AltitudeMeters>541.5999755859375</AltitudeMeters>
            <DistanceMeters>35411.679486977</DistanceMeters>
          </Trackpoint>
          <Trackpoint>
            <Time>2018-08-26T07:06:39.000Z</Time>
            <Position>
              <LatitudeDegrees>42.954746223986148834228515625</LatitudeDegrees>
              <LongitudeDegrees>-1.76743148826062679290771484375</LongitudeDegrees>
            </Position>
            <AltitudeMeters>541.4000244140625</AltitudeMeters>
            <DistanceMeters>35422.569482107</DistanceMeters>
          </Trackpoint>
          <Trackpoint>
            <Time>2018-08-26T07:06:40.000Z</Time>
            <Position>
              <LatitudeDegrees>42.95479961670935153961181640625</LatitudeDegrees>
              <LongitudeDegrees>-1.76754028536379337310791015625</LongitudeDegrees>
            </Position>
            <AltitudeMeters>541.4000244140625</AltitudeMeters>
            <DistanceMeters>35433.240436327</DistanceMeters>
          </Trackpoint>
          <Trackpoint>
            <Time>2018-08-26T07:06:41.000Z</Time>
            <Position>
              <LatitudeDegrees>42.9548513330519199371337890625</LatitudeDegrees>
              <LongitudeDegrees>-1.7676506750285625457763671875</LongitudeDegrees>
            </Position>
            <AltitudeMeters>541</AltitudeMeters>
            <DistanceMeters>35443.91731251</DistanceMeters>
          </Trackpoint>
          <Trackpoint>
            <Time>2018-08-26T07:06:42.000Z</Time>
            <Position>
              <LatitudeDegrees>42.954900451004505157470703125</LatitudeDegrees>
              <LongitudeDegrees>-1.76776139996945858001708984375</LongitudeDegrees>
            </Position>
            <AltitudeMeters>540.5999755859375</AltitudeMeters>
            <DistanceMeters>35454.463993582</DistanceMeters>
          </Trackpoint>
          <Trackpoint>
            <Time>2018-08-26T07:06:43.000Z</Time>
            <Position>
              <LatitudeDegrees>42.954946719110012054443359375</LatitudeDegrees>
              <LongitudeDegrees>-1.76787455566227436065673828125</LongitudeDegrees>
            </Position>
            <AltitudeMeters>540</AltitudeMeters>
            <DistanceMeters>35465.022654661</DistanceMeters>
          </Trackpoint>
          <Trackpoint>
            <Time>2018-08-26T07:06:44.000Z</Time>
            <Position>
              <LatitudeDegrees>42.954989969730377197265625</LatitudeDegrees>
              <LongitudeDegrees>-1.76798787899315357208251953125</LongitudeDegrees>
            </Position>
            <AltitudeMeters>539.79998779296875</AltitudeMeters>
            <DistanceMeters>35475.433610792</DistanceMeters>
          </Trackpoint>
          <Trackpoint>
            <Time>2018-08-26T07:06:45.000Z</Time>
            <Position>
              <LatitudeDegrees>42.95503162778913974761962890625</LatitudeDegrees>
              <LongitudeDegrees>-1.76810472272336483001708984375</LongitudeDegrees>
            </Position>
            <AltitudeMeters>539.5999755859375</AltitudeMeters>
            <DistanceMeters>35486.020883287</DistanceMeters>
          </Trackpoint>
          <Trackpoint>
            <Time>2018-08-26T07:06:46.000Z</Time>
            <Position>
              <LatitudeDegrees>42.95507068745791912078857421875</LatitudeDegrees>
              <LongitudeDegrees>-1.76822148263454437255859375</LongitudeDegrees>
            </Position>
            <AltitudeMeters>539.4000244140625</AltitudeMeters>
            <DistanceMeters>35496.478140372</DistanceMeters>
          </Trackpoint>
          <Trackpoint>
            <Time>2018-08-26T07:06:47.000Z</Time>
            <Position>
              <LatitudeDegrees>42.955108322203159332275390625</LatitudeDegrees>
              <LongitudeDegrees>-1.768336482346057891845703125</LongitudeDegrees>
            </Position>
            <AltitudeMeters>539.20001220703125</AltitudeMeters>
            <DistanceMeters>35506.740145609</DistanceMeters>
          </Trackpoint>
          <Trackpoint>
            <Time>2018-08-26T07:06:48.000Z</Time>
            <Position>
              <LatitudeDegrees>42.9551453702151775360107421875</LatitudeDegrees>
              <LongitudeDegrees>-1.7684496380388736724853515625</LongitudeDegrees>
            </Position>
            <AltitudeMeters>539</AltitudeMeters>
            <DistanceMeters>35516.83804753</DistanceMeters>
          </Trackpoint>
          <Trackpoint>
            <Time>2018-08-26T07:06:49.000Z</Time>
            <Position>
              <LatitudeDegrees>42.9551822505891323089599609375</LatitudeDegrees>
              <LongitudeDegrees>-1.7685629613697528839111328125</LongitudeDegrees>
            </Position>
            <AltitudeMeters>538.79998779296875</AltitudeMeters>
            <DistanceMeters>35526.940866644</DistanceMeters>
          </Trackpoint>
          <Trackpoint>
            <Time>2018-08-26T07:06:50.000Z</Time>
            <Position>
              <LatitudeDegrees>42.955218292772769927978515625</LatitudeDegrees>
              <LongitudeDegrees>-1.76867418922483921051025390625</LongitudeDegrees>
            </Position>
            <AltitudeMeters>539</AltitudeMeters>
            <DistanceMeters>35536.850107344</DistanceMeters>
          </Trackpoint>
          <Trackpoint>
            <Time>2018-08-26T07:06:51.000Z</Time>
            <Position>
              <LatitudeDegrees>42.9552550055086612701416015625</LatitudeDegrees>
              <LongitudeDegrees>-1.7687822319567203521728515625</LongitudeDegrees>
            </Position>
            <AltitudeMeters>538.79998779296875</AltitudeMeters>
            <DistanceMeters>35546.553540091</DistanceMeters>
          </Trackpoint>
          <Trackpoint>
            <Time>2018-08-26T07:06:52.000Z</Time>
            <Position>
              <LatitudeDegrees>42.95529247261583805084228515625</LatitudeDegrees>
              <LongitudeDegrees>-1.7688854970037937164306640625</LongitudeDegrees>
            </Position>
            <AltitudeMeters>538.5999755859375</AltitudeMeters>
            <DistanceMeters>35555.942448774</DistanceMeters>
          </Trackpoint>
          <Trackpoint>
            <Time>2018-08-26T07:06:53.000Z</Time>
            <Position>
              <LatitudeDegrees>42.95532851479947566986083984375</LatitudeDegrees>
              <LongitudeDegrees>-1.768988929688930511474609375</LongitudeDegrees>
            </Position>
            <AltitudeMeters>538.5999755859375</AltitudeMeters>
            <DistanceMeters>35565.274439838</DistanceMeters>
          </Trackpoint>
          <Trackpoint>
            <Time>2018-08-26T07:06:54.000Z</Time>
            <Position>
              <LatitudeDegrees>42.955362461507320404052734375</LatitudeDegrees>
              <LongitudeDegrees>-1.769096888601779937744140625</LongitudeDegrees>
            </Position>
            <AltitudeMeters>538.5999755859375</AltitudeMeters>
            <DistanceMeters>35574.84622941</DistanceMeters>
          </Trackpoint>
          <Trackpoint>
            <Time>2018-08-26T07:06:55.000Z</Time>
            <Position>
              <LatitudeDegrees>42.955397330224514007568359375</LatitudeDegrees>
              <LongitudeDegrees>-1.76920090802013874053955078125</LongitudeDegrees>
            </Position>
            <AltitudeMeters>538.5999755859375</AltitudeMeters>
            <DistanceMeters>35584.166601473</DistanceMeters>
          </Trackpoint>
          <Trackpoint>
            <Time>2018-08-26T07:06:56.000Z</Time>
            <Position>
              <LatitudeDegrees>42.9554313607513904571533203125</LatitudeDegrees>
              <LongitudeDegrees>-1.769302077591419219970703125</LongitudeDegrees>
            </Position>
            <AltitudeMeters>538.5999755859375</AltitudeMeters>
            <DistanceMeters>35593.237547209</DistanceMeters>
          </Trackpoint>
          <Trackpoint>
            <Time>2018-08-26T07:06:57.000Z</Time>
            <Position>
              <LatitudeDegrees>42.95546446926891803741455078125</LatitudeDegrees>
              <LongitudeDegrees>-1.76940090022981166839599609375</LongitudeDegrees>
            </Position>
            <AltitudeMeters>538.5999755859375</AltitudeMeters>
            <DistanceMeters>35602.091365234</DistanceMeters>
          </Trackpoint>
          <Trackpoint>
            <Time>2018-08-26T07:06:58.000Z</Time>
            <Position>
              <LatitudeDegrees>42.9554994218051433563232421875</LatitudeDegrees>
              <LongitudeDegrees>-1.76949829794466495513916015625</LongitudeDegrees>
            </Position>
            <AltitudeMeters>538.5999755859375</AltitudeMeters>
            <DistanceMeters>35610.927316848</DistanceMeters>
          </Trackpoint>
          <Trackpoint>
            <Time>2018-08-26T07:06:59.000Z</Time>
            <Position>
              <LatitudeDegrees>42.95553387142717838287353515625</LatitudeDegrees>
              <LongitudeDegrees>-1.7695946060121059417724609375</LongitudeDegrees>
            </Position>
            <AltitudeMeters>538.5999755859375</AltitudeMeters>
            <DistanceMeters>35619.659439471</DistanceMeters>
          </Trackpoint>
          <Trackpoint>
            <Time>2018-08-26T07:07:00.000Z</Time>
            <Position>
              <LatitudeDegrees>42.9555664770305156707763671875</LatitudeDegrees>
              <LongitudeDegrees>-1.7696908302605152130126953125</LongitudeDegrees>
            </Position>
            <AltitudeMeters>538.5999755859375</AltitudeMeters>
            <DistanceMeters>35628.29694441</DistanceMeters>
          </Trackpoint>
          <Trackpoint>
            <Time>2018-08-26T07:07:01.000Z</Time>
            <Position>
              <LatitudeDegrees>42.95559992082417011260986328125</LatitudeDegrees>
              <LongitudeDegrees>-1.76978579722344875335693359375</LongitudeDegrees>
            </Position>
            <AltitudeMeters>538.79998779296875</AltitudeMeters>
            <DistanceMeters>35636.882543633</DistanceMeters>
          </Trackpoint>
          <Trackpoint>
            <Time>2018-08-26T07:07:02.000Z</Time>
            <Position>
              <LatitudeDegrees>42.95563177205622196197509765625</LatitudeDegrees>
              <LongitudeDegrees>-1.76987699232995510101318359375</LongitudeDegrees>
            </Position>
            <AltitudeMeters>538.79998779296875</AltitudeMeters>
            <DistanceMeters>35645.113744247</DistanceMeters>
          </Trackpoint>
          <Trackpoint>
            <Time>2018-08-26T07:07:03.000Z</Time>
            <Position>
              <LatitudeDegrees>42.95566387474536895751953125</LatitudeDegrees>
              <LongitudeDegrees>-1.76997003145515918731689453125</LongitudeDegrees>
            </Position>
            <AltitudeMeters>539</AltitudeMeters>
            <DistanceMeters>35653.492816055</DistanceMeters>
          </Trackpoint>
          <Trackpoint>
            <Time>2018-08-26T07:07:04.000Z</Time>
            <Position>
              <LatitudeDegrees>42.95569564215838909149169921875</LatitudeDegrees>
              <LongitudeDegrees>-1.770062148571014404296875</LongitudeDegrees>
            </Position>
            <AltitudeMeters>539.4000244140625</AltitudeMeters>
            <DistanceMeters>35661.787946102</DistanceMeters>
          </Trackpoint>
          <Trackpoint>
            <Time>2018-08-26T07:07:05.000Z</Time>
            <Position>
              <LatitudeDegrees>42.9557277448475360870361328125</LatitudeDegrees>
              <LongitudeDegrees>-1.7701535113155841827392578125</LongitudeDegrees>
            </Position>
            <AltitudeMeters>539.5999755859375</AltitudeMeters>
            <DistanceMeters>35670.043793545</DistanceMeters>
          </Trackpoint>
          <Trackpoint>
            <Time>2018-08-26T07:07:06.000Z</Time>
            <Position>
              <LatitudeDegrees>42.9557597637176513671875</LatitudeDegrees>
              <LongitudeDegrees>-1.7702467180788516998291015625</LongitudeDegrees>
            </Position>
            <AltitudeMeters>539.5999755859375</AltitudeMeters>
            <DistanceMeters>35678.430944163</DistanceMeters>
          </Trackpoint>
          <Trackpoint>
            <Time>2018-08-26T07:07:07.000Z</Time>
            <Position>
              <LatitudeDegrees>42.95579035766422748565673828125</LatitudeDegrees>
              <LongitudeDegrees>-1.77033984102308750152587890625</LongitudeDegrees>
            </Position>
            <AltitudeMeters>539.79998779296875</AltitudeMeters>
            <DistanceMeters>35686.746188918</DistanceMeters>
          </Trackpoint>
          <Trackpoint>
            <Time>2018-08-26T07:07:08.000Z</Time>
            <Position>
              <LatitudeDegrees>42.9558202810585498809814453125</LatitudeDegrees>
              <LongitudeDegrees>-1.77043220959603786468505859375</LongitudeDegrees>
            </Position>
            <AltitudeMeters>539.79998779296875</AltitudeMeters>
            <DistanceMeters>35694.974646439</DistanceMeters>
          </Trackpoint>
          <Trackpoint>
            <Time>2018-08-26T07:07:09.000Z</Time>
            <Position>
              <LatitudeDegrees>42.95585070736706256866455078125</LatitudeDegrees>
              <LongitudeDegrees>-1.77052575163543224334716796875</LongitudeDegrees>
            </Position>
            <AltitudeMeters>539.79998779296875</AltitudeMeters>
            <DistanceMeters>35703.313206784</DistanceMeters>
          </Trackpoint>
          <Trackpoint>
            <Time>2018-08-26T07:07:10.000Z</Time>
            <Position>
              <LatitudeDegrees>42.95588188804686069488525390625</LatitudeDegrees>
              <LongitudeDegrees>-1.77061812020838260650634765625</LongitudeDegrees>
            </Position>
            <AltitudeMeters>539.79998779296875</AltitudeMeters>
            <DistanceMeters>35711.599623457</DistanceMeters>
          </Trackpoint>
          <Trackpoint>
            <Time>2018-08-26T07:07:11.000Z</Time>
            <Position>
              <LatitudeDegrees>42.95591206289827823638916015625</LatitudeDegrees>
              <LongitudeDegrees>-1.7707107402384281158447265625</LongitudeDegrees>
            </Position>
            <AltitudeMeters>539.79998779296875</AltitudeMeters>
            <DistanceMeters>35719.858751586</DistanceMeters>
          </Trackpoint>
          <Trackpoint>
            <Time>2018-08-26T07:07:12.000Z</Time>
            <Position>
              <LatitudeDegrees>42.9559413157403469085693359375</LatitudeDegrees>
              <LongitudeDegrees>-1.77080302499234676361083984375</LongitudeDegrees>
            </Position>
            <AltitudeMeters>540</AltitudeMeters>
            <DistanceMeters>35728.05091419</DistanceMeters>
          </Trackpoint>
          <Trackpoint>
            <Time>2018-08-26T07:07:13.000Z</Time>
            <Position>
              <LatitudeDegrees>42.95596964657306671142578125</LatitudeDegrees>
              <LongitudeDegrees>-1.77089522592723369598388671875</LongitudeDegrees>
            </Position>
            <AltitudeMeters>540.20001220703125</AltitudeMeters>
            <DistanceMeters>35736.196649376</DistanceMeters>
          </Trackpoint>
          <Trackpoint>
            <Time>2018-08-26T07:07:14.000Z</Time>
            <Position>
              <LatitudeDegrees>42.95599646866321563720703125</LatitudeDegrees>
              <LongitudeDegrees>-1.770987175405025482177734375</LongitudeDegrees>
            </Position>
            <AltitudeMeters>540.20001220703125</AltitudeMeters>
            <DistanceMeters>35744.259933471</DistanceMeters>
          </Trackpoint>
          <Trackpoint>
            <Time>2018-08-26T07:07:15.000Z</Time>
            <Position>
              <LatitudeDegrees>42.95602136291563510894775390625</LatitudeDegrees>
              <LongitudeDegrees>-1.77108197472989559173583984375</LongitudeDegrees>
            </Position>
            <AltitudeMeters>540.20001220703125</AltitudeMeters>
            <DistanceMeters>35752.46476253</DistanceMeters>
          </Trackpoint>
          <Trackpoint>
            <Time>2018-08-26T07:07:16.000Z</Time>
            <Position>
              <LatitudeDegrees>42.95604701153934001922607421875</LatitudeDegrees>
              <LongitudeDegrees>-1.771174259483814239501953125</LongitudeDegrees>
            </Position>
            <AltitudeMeters>540.4000244140625</AltitudeMeters>
            <DistanceMeters>35760.505617418</DistanceMeters>
          </Trackpoint>
          <Trackpoint>
            <Time>2018-08-26T07:07:17.000Z</Time>
            <Position>
              <LatitudeDegrees>42.95607081614434719085693359375</LatitudeDegrees>
              <LongitudeDegrees>-1.771273501217365264892578125</LongitudeDegrees>
            </Position>
            <AltitudeMeters>540.4000244140625</AltitudeMeters>
            <DistanceMeters>35769.012498905</DistanceMeters>
          </Trackpoint>
          <Trackpoint>
            <Time>2018-08-26T07:07:18.000Z</Time>
            <Position>
              <LatitudeDegrees>42.95609244145452976226806640625</LatitudeDegrees>
              <LongitudeDegrees>-1.77136930637061595916748046875</LongitudeDegrees>
            </Position>
            <AltitudeMeters>540.4000244140625</AltitudeMeters>
            <DistanceMeters>35777.179269663</DistanceMeters>
          </Trackpoint>
          <Trackpoint>
            <Time>2018-08-26T07:07:19.000Z</Time>
            <Position>
              <LatitudeDegrees>42.95611582696437835693359375</LatitudeDegrees>
              <LongitudeDegrees>-1.77146603353321552276611328125</LongitudeDegrees>
            </Position>
            <AltitudeMeters>540.4000244140625</AltitudeMeters>
            <DistanceMeters>35785.476576624</DistanceMeters>
          </Trackpoint>
          <Trackpoint>
            <Time>2018-08-26T07:07:20.000Z</Time>
            <Position>
              <LatitudeDegrees>42.95614155940711498260498046875</LatitudeDegrees>
              <LongitudeDegrees>-1.77156527526676654815673828125</LongitudeDegrees>
            </Position>
            <AltitudeMeters>540.5999755859375</AltitudeMeters>
            <DistanceMeters>35794.053231142</DistanceMeters>
          </Trackpoint>
          <Trackpoint>
            <Time>2018-08-26T07:07:21.000Z</Time>
            <Position>
              <LatitudeDegrees>42.95616737566888332366943359375</LatitudeDegrees>
              <LongitudeDegrees>-1.77166334353387355804443359375</LongitudeDegrees>
            </Position>
            <AltitudeMeters>540.5999755859375</AltitudeMeters>
            <DistanceMeters>35802.543111599</DistanceMeters>
          </Trackpoint>
          <Trackpoint>
            <Time>2018-08-26T07:07:22.000Z</Time>
            <Position>
              <LatitudeDegrees>42.9561921022832393646240234375</LatitudeDegrees>
              <LongitudeDegrees>-1.77176141180098056793212890625</LongitudeDegrees>
            </Position>
            <AltitudeMeters>540.79998779296875</AltitudeMeters>
            <DistanceMeters>35810.992477514</DistanceMeters>
          </Trackpoint>
          <Trackpoint>
            <Time>2018-08-26T07:07:23.000Z</Time>
            <Position>
              <LatitudeDegrees>42.95621682889759540557861328125</LatitudeDegrees>
              <LongitudeDegrees>-1.77185830660164356231689453125</LongitudeDegrees>
            </Position>
            <AltitudeMeters>540.79998779296875</AltitudeMeters>
            <DistanceMeters>35819.351588203</DistanceMeters>
          </Trackpoint>
          <Trackpoint>
            <Time>2018-08-26T07:07:24.000Z</Time>
            <Position>
              <LatitudeDegrees>42.95624457299709320068359375</LatitudeDegrees>
              <LongitudeDegrees>-1.77195201627910137176513671875</LongitudeDegrees>
            </Position>
            <AltitudeMeters>540.79998779296875</AltitudeMeters>
            <DistanceMeters>35827.585530998</DistanceMeters>
          </Trackpoint>
          <Trackpoint>
            <Time>2018-08-26T07:07:25.000Z</Time>
            <Position>
              <LatitudeDegrees>42.9562712274491786956787109375</LatitudeDegrees>
              <LongitudeDegrees>-1.7720511741936206817626953125</LongitudeDegrees>
            </Position>
            <AltitudeMeters>541</AltitudeMeters>
            <DistanceMeters>35836.190565968</DistanceMeters>
          </Trackpoint>
          <Trackpoint>
            <Time>2018-08-26T07:07:26.000Z</Time>
            <Position>
              <LatitudeDegrees>42.95629679225385189056396484375</LatitudeDegrees>
              <LongitudeDegrees>-1.7721463926136493682861328125</LongitudeDegrees>
            </Position>
            <AltitudeMeters>541</AltitudeMeters>
            <DistanceMeters>35844.451880498</DistanceMeters>
          </Trackpoint>
          <Trackpoint>
            <Time>2018-08-26T07:07:27.000Z</Time>
            <Position>
              <LatitudeDegrees>42.9563228599727153778076171875</LatitudeDegrees>
              <LongitudeDegrees>-1.772242449223995208740234375</LongitudeDegrees>
            </Position>
            <AltitudeMeters>541</AltitudeMeters>
            <DistanceMeters>35852.796935892</DistanceMeters>
          </Trackpoint>
          <Trackpoint>
            <Time>2018-08-26T07:07:28.000Z</Time>
            <Position>
              <LatitudeDegrees>42.95634741894900798797607421875</LatitudeDegrees>
              <LongitudeDegrees>-1.77234043367207050323486328125</LongitudeDegrees>
            </Position>
            <AltitudeMeters>541.20001220703125</AltitudeMeters>
            <DistanceMeters>35861.23400248</DistanceMeters>
          </Trackpoint>
          <Trackpoint>
            <Time>2018-08-26T07:07:29.000Z</Time>
            <Position>
              <LatitudeDegrees>42.956371642649173736572265625</LatitudeDegrees>
              <LongitudeDegrees>-1.772438250482082366943359375</LongitudeDegrees>
            </Position>
            <AltitudeMeters>541.20001220703125</AltitudeMeters>
            <DistanceMeters>35869.645879739</DistanceMeters>
          </Trackpoint>
          <Trackpoint>
            <Time>2018-08-26T07:07:30.000Z</Time>
            <Position>
              <LatitudeDegrees>42.9563972912728786468505859375</LatitudeDegrees>
              <LongitudeDegrees>-1.77253539673984050750732421875</LongitudeDegrees>
            </Position>
            <AltitudeMeters>541.20001220703125</AltitudeMeters>
            <DistanceMeters>35878.05883042</DistanceMeters>
          </Trackpoint>
          <Trackpoint>
            <Time>2018-08-26T07:07:31.000Z</Time>
            <Position>
              <LatitudeDegrees>42.95641983859241008758544921875</LatitudeDegrees>
              <LongitudeDegrees>-1.7726372368633747100830078125</LongitudeDegrees>
            </Position>
            <AltitudeMeters>541.20001220703125</AltitudeMeters>
            <DistanceMeters>35886.725558515</DistanceMeters>
          </Trackpoint>
          <Trackpoint>
            <Time>2018-08-26T07:07:32.000Z</Time>
            <Position>
              <LatitudeDegrees>42.9564405418932437896728515625</LatitudeDegrees>
              <LongitudeDegrees>-1.772732622921466827392578125</LongitudeDegrees>
            </Position>
            <AltitudeMeters>541.20001220703125</AltitudeMeters>
            <DistanceMeters>35894.829615892</DistanceMeters>
          </Trackpoint>
          <Trackpoint>
            <Time>2018-08-26T07:07:33.000Z</Time>
            <Position>
              <LatitudeDegrees>42.9564596526324748992919921875</LatitudeDegrees>
              <LongitudeDegrees>-1.7728280089795589447021484375</LongitudeDegrees>
            </Position>
            <AltitudeMeters>541.4000244140625</AltitudeMeters>
            <DistanceMeters>35902.885056869</DistanceMeters>
          </Trackpoint>
          <Trackpoint>
            <Time>2018-08-26T07:07:34.000Z</Time>
            <Position>
              <LatitudeDegrees>42.95647599734365940093994140625</LatitudeDegrees>
              <LongitudeDegrees>-1.77292716689407825469970703125</LongitudeDegrees>
            </Position>
            <AltitudeMeters>541.4000244140625</AltitudeMeters>
            <DistanceMeters>35911.164932493</DistanceMeters>
          </Trackpoint>
          <Trackpoint>
            <Time>2018-08-26T07:07:35.000Z</Time>
            <Position>
              <LatitudeDegrees>42.95648991130292415618896484375</LatitudeDegrees>
              <LongitudeDegrees>-1.77302573807537555694580078125</LongitudeDegrees>
            </Position>
            <AltitudeMeters>541.4000244140625</AltitudeMeters>
            <DistanceMeters>35919.342752872</DistanceMeters>
          </Trackpoint>
          <Trackpoint>
            <Time>2018-08-26T07:07:36.000Z</Time>
            <Position>
              <LatitudeDegrees>42.95650005340576171875</LatitudeDegrees>
              <LongitudeDegrees>-1.7731230519711971282958984375</LongitudeDegrees>
            </Position>
            <AltitudeMeters>541.4000244140625</AltitudeMeters>
            <DistanceMeters>35927.349846149</DistanceMeters>
          </Trackpoint>
          <Trackpoint>
            <Time>2018-08-26T07:07:37.000Z</Time>
            <Position>
              <LatitudeDegrees>42.95650717802345752716064453125</LatitudeDegrees>
              <LongitudeDegrees>-1.773216426372528076171875</LongitudeDegrees>
            </Position>
            <AltitudeMeters>541.4000244140625</AltitudeMeters>
            <DistanceMeters>35934.997578174</DistanceMeters>
          </Trackpoint>
          <Trackpoint>
            <Time>2018-08-26T07:07:38.000Z</Time>
            <Position>
              <LatitudeDegrees>42.95651438646018505096435546875</LatitudeDegrees>
              <LongitudeDegrees>-1.77330954931676387786865234375</LongitudeDegrees>
            </Position>
            <AltitudeMeters>541.4000244140625</AltitudeMeters>
            <DistanceMeters>35942.624619046</DistanceMeters>
          </Trackpoint>
          <Trackpoint>
            <Time>2018-08-26T07:07:39.000Z</Time>
            <Position>
              <LatitudeDegrees>42.956523187458515167236328125</LatitudeDegrees>
              <LongitudeDegrees>-1.77339923568069934844970703125</LongitudeDegrees>
            </Position>
            <AltitudeMeters>541.4000244140625</AltitudeMeters>
            <DistanceMeters>35949.995164472</DistanceMeters>
          </Trackpoint>
          <Trackpoint>
            <Time>2018-08-26T07:07:40.000Z</Time>
            <Position>
              <LatitudeDegrees>42.95653098262846469879150390625</LatitudeDegrees>
              <LongitudeDegrees>-1.7734868265688419342041015625</LongitudeDegrees>
            </Position>
            <AltitudeMeters>541.5999755859375</AltitudeMeters>
            <DistanceMeters>35957.182099651</DistanceMeters>
          </Trackpoint>
          <Trackpoint>
            <Time>2018-08-26T07:07:41.000Z</Time>
            <Position>
              <LatitudeDegrees>42.95653701759874820709228515625</LatitudeDegrees>
              <LongitudeDegrees>-1.77357542328536510467529296875</LongitudeDegrees>
            </Position>
            <AltitudeMeters>541.5999755859375</AltitudeMeters>
            <DistanceMeters>35964.430339765</DistanceMeters>
          </Trackpoint>
          <Trackpoint>
            <Time>2018-08-26T07:07:42.000Z</Time>
            <Position>
              <LatitudeDegrees>42.9565431363880634307861328125</LatitudeDegrees>
              <LongitudeDegrees>-1.7736591584980487823486328125</LongitudeDegrees>
            </Position>
            <AltitudeMeters>541.5999755859375</AltitudeMeters>
            <DistanceMeters>35971.285448649</DistanceMeters>
          </Trackpoint>
          <Trackpoint>
            <Time>2018-08-26T07:07:43.000Z</Time>
            <Position>
              <LatitudeDegrees>42.95655009336769580841064453125</LatitudeDegrees>
              <LongitudeDegrees>-1.77374339662492275238037109375</LongitudeDegrees>
            </Position>
            <AltitudeMeters>542</AltitudeMeters>
            <DistanceMeters>35978.191086469</DistanceMeters>
          </Trackpoint>
          <Trackpoint>
            <Time>2018-08-26T07:07:44.000Z</Time>
            <Position>
              <LatitudeDegrees>42.9565577208995819091796875</LatitudeDegrees>
              <LongitudeDegrees>-1.77382771857082843780517578125</LongitudeDegrees>
            </Position>
            <AltitudeMeters>542.20001220703125</AltitudeMeters>
            <DistanceMeters>35985.112398161</DistanceMeters>
          </Trackpoint>
          <Trackpoint>
            <Time>2018-08-26T07:07:45.000Z</Time>
            <Position>
              <LatitudeDegrees>42.95656501315534114837646484375</LatitudeDegrees>
              <LongitudeDegrees>-1.77391178905963897705078125</LongitudeDegrees>
            </Position>
            <AltitudeMeters>542.20001220703125</AltitudeMeters>
            <DistanceMeters>35992.009531095</DistanceMeters>
          </Trackpoint>
          <Trackpoint>
            <Time>2018-08-26T07:07:46.000Z</Time>
            <Position>
              <LatitudeDegrees>42.95657088048756122589111328125</LatitudeDegrees>
              <LongitudeDegrees>-1.7739951051771640777587890625</LongitudeDegrees>
            </Position>
            <AltitudeMeters>542.5999755859375</AltitudeMeters>
            <DistanceMeters>35998.827656463</DistanceMeters>
          </Trackpoint>
          <Trackpoint>
            <Time>2018-08-26T07:07:47.000Z</Time>
            <Position>
              <LatitudeDegrees>42.956576161086559295654296875</LatitudeDegrees>
              <LongitudeDegrees>-1.7740755714476108551025390625</LongitudeDegrees>
            </Position>
            <AltitudeMeters>542.79998779296875</AltitudeMeters>
            <DistanceMeters>36005.408556601</DistanceMeters>
          </Trackpoint>
          <Trackpoint>
            <Time>2018-08-26T07:07:48.000Z</Time>
            <Position>
              <LatitudeDegrees>42.9565818607807159423828125</LatitudeDegrees>
              <LongitudeDegrees>-1.77415360696613788604736328125</LongitudeDegrees>
            </Position>
            <AltitudeMeters>543</AltitudeMeters>
            <DistanceMeters>36011.797292432</DistanceMeters>
          </Trackpoint>
          <Trackpoint>
            <Time>2018-08-26T07:07:49.000Z</Time>
            <Position>
              <LatitudeDegrees>42.9565870575606822967529296875</LatitudeDegrees>
              <LongitudeDegrees>-1.77423239685595035552978515625</LongitudeDegrees>
            </Position>
            <AltitudeMeters>543.4000244140625</AltitudeMeters>
            <DistanceMeters>36018.240916528</DistanceMeters>
          </Trackpoint>
          <Trackpoint>
            <Time>2018-08-26T07:07:50.000Z</Time>
            <Position>
              <LatitudeDegrees>42.95659233815968036651611328125</LatitudeDegrees>
              <LongitudeDegrees>-1.77430850453674793243408203125</LongitudeDegrees>
            </Position>
            <AltitudeMeters>543.5999755859375</AltitudeMeters>
            <DistanceMeters>36024.467885956</DistanceMeters>
          </Trackpoint>
          <Trackpoint>
            <Time>2018-08-26T07:07:51.000Z</Time>
            <Position>
              <LatitudeDegrees>42.95659937895834445953369140625</LatitudeDegrees>
              <LongitudeDegrees>-1.774382181465625762939453125</LongitudeDegrees>
            </Position>
            <AltitudeMeters>543.79998779296875</AltitudeMeters>
            <DistanceMeters>36030.519826971</DistanceMeters>
          </Trackpoint>
          <Trackpoint>
            <Time>2018-08-26T07:07:52.000Z</Time>
            <Position>
              <LatitudeDegrees>42.95660792849957942962646484375</LatitudeDegrees>
              <LongitudeDegrees>-1.7744527570903301239013671875</LongitudeDegrees>
            </Position>
            <AltitudeMeters>544</AltitudeMeters>
            <DistanceMeters>36036.346754758</DistanceMeters>
          </Trackpoint>
          <Trackpoint>
            <Time>2018-08-26T07:07:53.000Z</Time>
            <Position>
              <LatitudeDegrees>42.9566162265837192535400390625</LatitudeDegrees>
              <LongitudeDegrees>-1.77452358417212963104248046875</LongitudeDegrees>
            </Position>
            <AltitudeMeters>544.20001220703125</AltitudeMeters>
            <DistanceMeters>36042.189931893</DistanceMeters>
          </Trackpoint>
          <Trackpoint>
            <Time>2018-08-26T07:07:54.000Z</Time>
            <Position>
              <LatitudeDegrees>42.95662452466785907745361328125</LatitudeDegrees>
              <LongitudeDegrees>-1.774591393768787384033203125</LongitudeDegrees>
            </Position>
            <AltitudeMeters>544.4000244140625</AltitudeMeters>
            <DistanceMeters>36047.790868026</DistanceMeters>
          </Trackpoint>
          <Trackpoint>
            <Time>2018-08-26T07:07:55.000Z</Time>
            <Position>
              <LatitudeDegrees>42.9566336609423160552978515625</LatitudeDegrees>
              <LongitudeDegrees>-1.77465853281319141387939453125</LongitudeDegrees>
            </Position>
            <AltitudeMeters>544.79998779296875</AltitudeMeters>
            <DistanceMeters>36053.352975711</DistanceMeters>
          </Trackpoint>
          <Trackpoint>
            <Time>2018-08-26T07:07:56.000Z</Time>
            <Position>
              <LatitudeDegrees>42.95664464123547077178955078125</LatitudeDegrees>
              <LongitudeDegrees>-1.77472324110567569732666015625</LongitudeDegrees>
            </Position>
            <AltitudeMeters>545.20001220703125</AltitudeMeters>
            <DistanceMeters>36058.76366031</DistanceMeters>
          </Trackpoint>
          <Trackpoint>
            <Time>2018-08-26T07:07:57.000Z</Time>
            <Position>
              <LatitudeDegrees>42.9566571302711963653564453125</LatitudeDegrees>
              <LongitudeDegrees>-1.7747833393514156341552734375</LongitudeDegrees>
            </Position>
            <AltitudeMeters>545.4000244140625</AltitudeMeters>
            <DistanceMeters>36063.852693543</DistanceMeters>
          </Trackpoint>
          <Trackpoint>
            <Time>2018-08-26T07:07:58.000Z</Time>
            <Position>
              <LatitudeDegrees>42.95666827820241451263427734375</LatitudeDegrees>
              <LongitudeDegrees>-1.774846874177455902099609375</LongitudeDegrees>
            </Position>
            <AltitudeMeters>545.79998779296875</AltitudeMeters>
            <DistanceMeters>36069.174189547</DistanceMeters>
          </Trackpoint>
          <Trackpoint>
            <Time>2018-08-26T07:07:59.000Z</Time>
            <Position>
              <LatitudeDegrees>42.95667900703847408294677734375</LatitudeDegrees>
              <LongitudeDegrees>-1.77491049282252788543701171875</LongitudeDegrees>
            </Position>
            <AltitudeMeters>546.20001220703125</AltitudeMeters>
            <DistanceMeters>36074.492290658</DistanceMeters>
          </Trackpoint>
          <Trackpoint>
            <Time>2018-08-26T07:08:00.000Z</Time>
            <Position>
              <LatitudeDegrees>42.95668822713196277618408203125</LatitudeDegrees>
              <LongitudeDegrees>-1.77497419528663158416748046875</LongitudeDegrees>
            </Position>
            <AltitudeMeters>546.5999755859375</AltitudeMeters>
            <DistanceMeters>36079.783154196</DistanceMeters>
          </Trackpoint>
          <Trackpoint>
            <Time>2018-08-26T07:08:01.000Z</Time>
            <Position>
              <LatitudeDegrees>42.95669711194932460784912109375</LatitudeDegrees>
              <LongitudeDegrees>-1.7750358022749423980712890625</LongitudeDegrees>
            </Position>
            <AltitudeMeters>547</AltitudeMeters>
            <DistanceMeters>36084.898734469</DistanceMeters>
          </Trackpoint>
          <Trackpoint>
            <Time>2018-08-26T07:08:02.000Z</Time>
            <Position>
              <LatitudeDegrees>42.95670750550925731658935546875</LatitudeDegrees>
              <LongitudeDegrees>-1.77509221248328685760498046875</LongitudeDegrees>
            </Position>
            <AltitudeMeters>547.4000244140625</AltitudeMeters>
            <DistanceMeters>36089.63674777</DistanceMeters>
          </Trackpoint>
          <Trackpoint>
            <Time>2018-08-26T07:08:03.000Z</Time>
            <Position>
              <LatitudeDegrees>42.95671999454498291015625</LatitudeDegrees>
              <LongitudeDegrees>-1.77514837123453617095947265625</LongitudeDegrees>
            </Position>
            <AltitudeMeters>547.5999755859375</AltitudeMeters>
            <DistanceMeters>36094.418395348</DistanceMeters>
          </Trackpoint>
          <Trackpoint>
            <Time>2018-08-26T07:08:04.000Z</Time>
            <Position>
              <LatitudeDegrees>42.95673131011426448822021484375</LatitudeDegrees>
              <LongitudeDegrees>-1.77520570345222949981689453125</LongitudeDegrees>
            </Position>
            <AltitudeMeters>547.79998779296875</AltitudeMeters>
            <DistanceMeters>36099.255432464</DistanceMeters>
          </Trackpoint>
          <Trackpoint>
            <Time>2018-08-26T07:08:05.000Z</Time>
            <Position>
              <LatitudeDegrees>42.95674019493162631988525390625</LatitudeDegrees>
              <LongitudeDegrees>-1.775265969336032867431640625</LongitudeDegrees>
            </Position>
            <AltitudeMeters>548</AltitudeMeters>
            <DistanceMeters>36104.263980394</DistanceMeters>
          </Trackpoint>
          <Trackpoint>
            <Time>2018-08-26T07:08:06.000Z</Time>
            <Position>
              <LatitudeDegrees>42.95675109140574932098388671875</LatitudeDegrees>
              <LongitudeDegrees>-1.77533109672367572784423828125</LongitudeDegrees>
            </Position>
            <AltitudeMeters>548</AltitudeMeters>
            <DistanceMeters>36109.70711192</DistanceMeters>
          </Trackpoint>
          <Trackpoint>
            <Time>2018-08-26T07:08:07.000Z</Time>
            <Position>
              <LatitudeDegrees>42.9567610658705234527587890625</LatitudeDegrees>
              <LongitudeDegrees>-1.77539848722517490386962890625</LongitudeDegrees>
            </Position>
            <AltitudeMeters>548.20001220703125</AltitudeMeters>
            <DistanceMeters>36115.308048053</DistanceMeters>
          </Trackpoint>
          <Trackpoint>
            <Time>2018-08-26T07:08:08.000Z</Time>
            <Position>
              <LatitudeDegrees>42.9567681066691875457763671875</LatitudeDegrees>
              <LongitudeDegrees>-1.7754696495831012725830078125</LongitudeDegrees>
            </Position>
            <AltitudeMeters>548.4000244140625</AltitudeMeters>
            <DistanceMeters>36121.158175378</DistanceMeters>
          </Trackpoint>
          <Trackpoint>
            <Time>2018-08-26T07:08:09.000Z</Time>
            <Position>
              <LatitudeDegrees>42.95677808113396167755126953125</LatitudeDegrees>
              <LongitudeDegrees>-1.7755410633981227874755859375</LongitudeDegrees>
            </Position>
            <AltitudeMeters>548.79998779296875</AltitudeMeters>
            <DistanceMeters>36127.080406116</DistanceMeters>
          </Trackpoint>
          <Trackpoint>
            <Time>2018-08-26T07:08:10.000Z</Time>
            <Position>
              <LatitudeDegrees>42.956786043941974639892578125</LatitudeDegrees>
              <LongitudeDegrees>-1.7756091244518756866455078125</LongitudeDegrees>
            </Position>
            <AltitudeMeters>549.4000244140625</AltitudeMeters>
            <DistanceMeters>36132.6950296</DistanceMeters>
          </Trackpoint>
          <Trackpoint>
            <Time>2018-08-26T07:08:11.000Z</Time>
            <Position>
              <LatitudeDegrees>42.95679216273128986358642578125</LatitudeDegrees>
              <LongitudeDegrees>-1.7756775207817554473876953125</LongitudeDegrees>
            </Position>
            <AltitudeMeters>549.5999755859375</AltitudeMeters>
            <DistanceMeters>36138.308848869</DistanceMeters>
          </Trackpoint>
          <Trackpoint>
            <Time>2018-08-26T07:08:12.000Z</Time>
            <Position>
              <LatitudeDegrees>42.9567964375019073486328125</LatitudeDegrees>
              <LongitudeDegrees>-1.77574935369193553924560546875</LongitudeDegrees>
            </Position>
            <AltitudeMeters>549.79998779296875</AltitudeMeters>
            <DistanceMeters>36144.179777397</DistanceMeters>
          </Trackpoint>
          <Trackpoint>
            <Time>2018-08-26T07:08:13.000Z</Time>
            <Position>
              <LatitudeDegrees>42.95680423267185688018798828125</LatitudeDegrees>
              <LongitudeDegrees>-1.77581775002181529998779296875</LongitudeDegrees>
            </Position>
            <AltitudeMeters>550</AltitudeMeters>
            <DistanceMeters>36149.8176732</DistanceMeters>
          </Trackpoint>
          <Trackpoint>
            <Time>2018-08-26T07:08:14.000Z</Time>
            <Position>
              <LatitudeDegrees>42.956813536584377288818359375</LatitudeDegrees>
              <LongitudeDegrees>-1.77588312886655330657958984375</LongitudeDegrees>
            </Position>
            <AltitudeMeters>550.20001220703125</AltitudeMeters>
            <DistanceMeters>36155.243357416</DistanceMeters>
          </Trackpoint>
          <Trackpoint>
            <Time>2018-08-26T07:08:15.000Z</Time>
            <Position>
              <LatitudeDegrees>42.9568220861256122589111328125</LatitudeDegrees>
              <LongitudeDegrees>-1.7759407125413417816162109375</LongitudeDegrees>
            </Position>
            <AltitudeMeters>550.20001220703125</AltitudeMeters>
            <DistanceMeters>36160.0306671</DistanceMeters>
          </Trackpoint>
          <Trackpoint>
            <Time>2018-08-26T07:08:16.000Z</Time>
            <Position>
              <LatitudeDegrees>42.95683038420975208282470703125</LatitudeDegrees>
              <LongitudeDegrees>-1.77599796094000339508056640625</LongitudeDegrees>
            </Position>
            <AltitudeMeters>550.4000244140625</AltitudeMeters>
            <DistanceMeters>36164.783902973</DistanceMeters>
          </Trackpoint>
          <Trackpoint>
            <Time>2018-08-26T07:08:17.000Z</Time>
            <Position>
              <LatitudeDegrees>42.95684061013162136077880859375</LatitudeDegrees>
              <LongitudeDegrees>-1.77605797536671161651611328125</LongitudeDegrees>
            </Position>
            <AltitudeMeters>550.79998779296875</AltitudeMeters>
            <DistanceMeters>36169.803256844</DistanceMeters>
          </Trackpoint>
          <Trackpoint>
            <Time>2018-08-26T07:08:18.000Z</Time>
            <Position>
              <LatitudeDegrees>42.95685452409088611602783203125</LatitudeDegrees>
              <LongitudeDegrees>-1.7761217616498470306396484375</LongitudeDegrees>
            </Position>
            <AltitudeMeters>551</AltitudeMeters>
            <DistanceMeters>36175.225611397</DistanceMeters>
          </Trackpoint>
          <Trackpoint>
            <Time>2018-08-26T07:08:19.000Z</Time>
            <Position>
              <LatitudeDegrees>42.95686743222177028656005859375</LatitudeDegrees>
              <LongitudeDegrees>-1.7761754058301448822021484375</LongitudeDegrees>
            </Position>
            <AltitudeMeters>551.4000244140625</AltitudeMeters>
            <DistanceMeters>36179.826317776</DistanceMeters>
          </Trackpoint>
          <Trackpoint>
            <Time>2018-08-26T07:08:20.000Z</Time>
            <Position>
              <LatitudeDegrees>42.95687782578170299530029296875</LatitudeDegrees>
              <LongitudeDegrees>-1.77622511051595211029052734375</LongitudeDegrees>
            </Position>
            <AltitudeMeters>551.5999755859375</AltitudeMeters>
            <DistanceMeters>36184.035475647</DistanceMeters>
          </Trackpoint>
          <Trackpoint>
            <Time>2018-08-26T07:08:21.000Z</Time>
            <Position>
              <LatitudeDegrees>42.95689056627452373504638671875</LatitudeDegrees>
              <LongitudeDegrees>-1.77627422846853733062744140625</LongitudeDegrees>
            </Position>
            <AltitudeMeters>551.79998779296875</AltitudeMeters>
            <DistanceMeters>36188.280947656</DistanceMeters>
          </Trackpoint>
          <Trackpoint>
            <Time>2018-08-26T07:08:22.000Z</Time>
            <Position>
              <LatitudeDegrees>42.9569038935005664825439453125</LatitudeDegrees>
              <LongitudeDegrees>-1.7763299681246280670166015625</LongitudeDegrees>
            </Position>
            <AltitudeMeters>552</AltitudeMeters>
            <DistanceMeters>36193.057871685</DistanceMeters>
          </Trackpoint>
          <Trackpoint>
            <Time>2018-08-26T07:08:23.000Z</Time>
            <Position>
              <LatitudeDegrees>42.95691688545048236846923828125</LatitudeDegrees>
              <LongitudeDegrees>-1.77639040164649486541748046875</LongitudeDegrees>
            </Position>
            <AltitudeMeters>552.4000244140625</AltitudeMeters>
            <DistanceMeters>36198.188434308</DistanceMeters>
          </Trackpoint>
          <Trackpoint>
            <Time>2018-08-26T07:08:24.000Z</Time>
            <Position>
              <LatitudeDegrees>42.95693230815231800079345703125</LatitudeDegrees>
              <LongitudeDegrees>-1.77645393647253513336181640625</LongitudeDegrees>
            </Position>
            <AltitudeMeters>552.5999755859375</AltitudeMeters>
            <DistanceMeters>36203.641510663</DistanceMeters>
          </Trackpoint>
          <Trackpoint>
            <Time>2018-08-26T07:08:25.000Z</Time>
            <Position>
              <LatitudeDegrees>42.95694840140640735626220703125</LatitudeDegrees>
              <LongitudeDegrees>-1.7765168845653533935546875</LongitudeDegrees>
            </Position>
            <AltitudeMeters>552.79998779296875</AltitudeMeters>
            <DistanceMeters>36209.073848081</DistanceMeters>
          </Trackpoint>
          <Trackpoint>
            <Time>2018-08-26T07:08:26.000Z</Time>
            <Position>
              <LatitudeDegrees>42.95696415938436985015869140625</LatitudeDegrees>
              <LongitudeDegrees>-1.77658100612461566925048828125</LongitudeDegrees>
            </Position>
            <AltitudeMeters>553.20001220703125</AltitudeMeters>
            <DistanceMeters>36214.582119756</DistanceMeters>
          </Trackpoint>
          <Trackpoint>
            <Time>2018-08-26T07:08:27.000Z</Time>
            <Position>
              <LatitudeDegrees>42.95698176138103008270263671875</LatitudeDegrees>
              <LongitudeDegrees>-1.77664437331259250640869140625</LongitudeDegrees>
            </Position>
            <AltitudeMeters>553.5999755859375</AltitudeMeters>
            <DistanceMeters>36220.103490788</DistanceMeters>
          </Trackpoint>
          <Trackpoint>
            <Time>2018-08-26T07:08:28.000Z</Time>
            <Position>
              <LatitudeDegrees>42.95699902810156345367431640625</LatitudeDegrees>
              <LongitudeDegrees>-1.77670665085315704345703125</LongitudeDegrees>
            </Position>
            <AltitudeMeters>553.79998779296875</AltitudeMeters>
            <DistanceMeters>36225.529175004</DistanceMeters>
          </Trackpoint>
          <Trackpoint>
            <Time>2018-08-26T07:08:29.000Z</Time>
            <Position>
              <LatitudeDegrees>42.95701378025114536285400390625</LatitudeDegrees>
              <LongitudeDegrees>-1.77677094005048274993896484375</LongitudeDegrees>
            </Position>
            <AltitudeMeters>554.20001220703125</AltitudeMeters>
            <DistanceMeters>36231.016916337</DistanceMeters>
          </Trackpoint>
          <Trackpoint>
            <Time>2018-08-26T07:08:30.000Z</Time>
            <Position>
              <LatitudeDegrees>42.95702635310590267181396484375</LatitudeDegrees>
              <LongitudeDegrees>-1.77683615125715732574462890625</LongitudeDegrees>
            </Position>
            <AltitudeMeters>554.4000244140625</AltitudeMeters>
            <DistanceMeters>36236.5104139</DistanceMeters>
          </Trackpoint>
          <Trackpoint>
            <Time>2018-08-26T07:08:31.000Z</Time>
            <Position>
              <LatitudeDegrees>42.95703792013227939605712890625</LatitudeDegrees>
              <LongitudeDegrees>-1.7768985964357852935791015625</LongitudeDegrees>
            </Position>
            <AltitudeMeters>554.79998779296875</AltitudeMeters>
            <DistanceMeters>36241.757575331</DistanceMeters>
          </Trackpoint>
          <Trackpoint>
            <Time>2018-08-26T07:08:32.000Z</Time>
            <Position>
              <LatitudeDegrees>42.9570487327873706817626953125</LatitudeDegrees>
              <LongitudeDegrees>-1.7769659869372844696044921875</LongitudeDegrees>
            </Position>
            <AltitudeMeters>555</AltitudeMeters>
            <DistanceMeters>36247.377825094</DistanceMeters>
          </Trackpoint>
          <Trackpoint>
            <Time>2018-08-26T07:08:33.000Z</Time>
            <Position>
              <LatitudeDegrees>42.9570591263473033905029296875</LatitudeDegrees>
              <LongitudeDegrees>-1.7770313657820224761962890625</LongitudeDegrees>
            </Position>
            <AltitudeMeters>555.20001220703125</AltitudeMeters>
            <DistanceMeters>36252.827588522</DistanceMeters>
          </Trackpoint>
          <Trackpoint>
            <Time>2018-08-26T07:08:34.000Z</Time>
            <Position>
              <LatitudeDegrees>42.9570695199072360992431640625</LatitudeDegrees>
              <LongitudeDegrees>-1.7770987562835216522216796875</LongitudeDegrees>
            </Position>
            <AltitudeMeters>555.4000244140625</AltitudeMeters>
            <DistanceMeters>36258.436580083</DistanceMeters>
          </Trackpoint>
          <Trackpoint>
            <Time>2018-08-26T07:08:35.000Z</Time>
            <Position>
              <LatitudeDegrees>42.95707848854362964630126953125</LatitudeDegrees>
              <LongitudeDegrees>-1.777169667184352874755859375</LongitudeDegrees>
            </Position>
            <AltitudeMeters>555.4000244140625</AltitudeMeters>
            <DistanceMeters>36264.299042957</DistanceMeters>
          </Trackpoint>
          <Trackpoint>
            <Time>2018-08-26T07:08:36.000Z</Time>
            <Position>
              <LatitudeDegrees>42.9570859484374523162841796875</LatitudeDegrees>
              <LongitudeDegrees>-1.7772419191896915435791015625</LongitudeDegrees>
            </Position>
            <AltitudeMeters>555.5999755859375</AltitudeMeters>
            <DistanceMeters>36270.242582226</DistanceMeters>
          </Trackpoint>
          <Trackpoint>
            <Time>2018-08-26T07:08:37.000Z</Time>
            <Position>
              <LatitudeDegrees>42.95709290541708469390869140625</LatitudeDegrees>
              <LongitudeDegrees>-1.7773099802434444427490234375</LongitudeDegrees>
            </Position>
            <AltitudeMeters>555.79998779296875</AltitudeMeters>
            <DistanceMeters>36275.841099471</DistanceMeters>
          </Trackpoint>
          <Trackpoint>
            <Time>2018-08-26T07:08:38.000Z</Time>
            <Position>
              <LatitudeDegrees>42.95709977857768535614013671875</LatitudeDegrees>
              <LongitudeDegrees>-1.77737728692591190338134765625</LongitudeDegrees>
            </Position>
            <AltitudeMeters>556</AltitudeMeters>
            <DistanceMeters>36281.37717023</DistanceMeters>
          </Trackpoint>
          <Trackpoint>
            <Time>2018-08-26T07:08:39.000Z</Time>
            <Position>
              <LatitudeDegrees>42.95710690319538116455078125</LatitudeDegrees>
              <LongitudeDegrees>-1.7774450965225696563720703125</LongitudeDegrees>
            </Position>
            <AltitudeMeters>556.4000244140625</AltitudeMeters>
            <DistanceMeters>36286.957107826</DistanceMeters>
          </Trackpoint>
          <Trackpoint>
            <Time>2018-08-26T07:08:40.000Z</Time>
            <Position>
              <LatitudeDegrees>42.95711671002209186553955078125</LatitudeDegrees>
              <LongitudeDegrees>-1.77751106210052967071533203125</LongitudeDegrees>
            </Position>
            <AltitudeMeters>556.79998779296875</AltitudeMeters>
            <DistanceMeters>36292.440733867</DistanceMeters>
          </Trackpoint>
          <Trackpoint>
            <Time>2018-08-26T07:08:41.000Z</Time>
            <Position>
              <LatitudeDegrees>42.957125343382358551025390625</LatitudeDegrees>
              <LongitudeDegrees>-1.77757862024009227752685546875</LongitudeDegrees>
            </Position>
            <AltitudeMeters>557.20001220703125</AltitudeMeters>
            <DistanceMeters>36298.027140959</DistanceMeters>
          </Trackpoint>
          <Trackpoint>
            <Time>2018-08-26T07:08:42.000Z</Time>
            <Position>
              <LatitudeDegrees>42.95713347382843494415283203125</LatitudeDegrees>
              <LongitudeDegrees>-1.77764852531254291534423828125</LongitudeDegrees>
            </Position>
            <AltitudeMeters>557.4000244140625</AltitudeMeters>
            <DistanceMeters>36303.79174687</DistanceMeters>
          </Trackpoint>
          <Trackpoint>
            <Time>2018-08-26T07:08:43.000Z</Time>
            <Position>
              <LatitudeDegrees>42.95714369975030422210693359375</LatitudeDegrees>
              <LongitudeDegrees>-1.7777190171182155609130859375</LongitudeDegrees>
            </Position>
            <AltitudeMeters>557.79998779296875</AltitudeMeters>
            <DistanceMeters>36309.64496052</DistanceMeters>
          </Trackpoint>
          <Trackpoint>
            <Time>2018-08-26T07:08:44.000Z</Time>
            <Position>
              <LatitudeDegrees>42.95715727843344211578369140625</LatitudeDegrees>
              <LongitudeDegrees>-1.77778623998165130615234375</LongitudeDegrees>
            </Position>
            <AltitudeMeters>558</AltitudeMeters>
            <DistanceMeters>36315.325936951</DistanceMeters>
          </Trackpoint>
          <Trackpoint>
            <Time>2018-08-26T07:08:45.000Z</Time>
            <Position>
              <LatitudeDegrees>42.957173623144626617431640625</LatitudeDegrees>
              <LongitudeDegrees>-1.77785052917897701263427734375</LongitudeDegrees>
            </Position>
            <AltitudeMeters>558.20001220703125</AltitudeMeters>
            <DistanceMeters>36320.868528408</DistanceMeters>
          </Trackpoint>
          <Trackpoint>
            <Time>2018-08-26T07:08:46.000Z</Time>
            <Position>
              <LatitudeDegrees>42.9571918956935405731201171875</LatitudeDegrees>
              <LongitudeDegrees>-1.77791540510952472686767578125</LongitudeDegrees>
            </Position>
            <AltitudeMeters>558.4000244140625</AltitudeMeters>
            <DistanceMeters>36326.530398362</DistanceMeters>
          </Trackpoint>
          <Trackpoint>
            <Time>2018-08-26T07:08:47.000Z</Time>
            <Position>
              <LatitudeDegrees>42.95721109025180339813232421875</LatitudeDegrees>
              <LongitudeDegrees>-1.77797961048781871795654296875</LongitudeDegrees>
            </Position>
            <AltitudeMeters>558.5999755859375</AltitudeMeters>
            <DistanceMeters>36332.179494764</DistanceMeters>
          </Trackpoint>
          <Trackpoint>
            <Time>2018-08-26T07:08:48.000Z</Time>
            <Position>
              <LatitudeDegrees>42.95723020099103450775146484375</LatitudeDegrees>
              <LongitudeDegrees>-1.77804532460868358612060546875</LongitudeDegrees>
            </Position>
            <AltitudeMeters>558.79998779296875</AltitudeMeters>
            <DistanceMeters>36337.939399351</DistanceMeters>
          </Trackpoint>
          <Trackpoint>
            <Time>2018-08-26T07:08:49.000Z</Time>
            <Position>
              <LatitudeDegrees>42.95724906027317047119140625</LatitudeDegrees>
              <LongitudeDegrees>-1.77810986526310443878173828125</LongitudeDegrees>
            </Position>
            <AltitudeMeters>559</AltitudeMeters>
            <DistanceMeters>36343.599674187</DistanceMeters>
          </Trackpoint>
          <Trackpoint>
            <Time>2018-08-26T07:08:50.000Z</Time>
            <Position>
              <LatitudeDegrees>42.9572690092027187347412109375</LatitudeDegrees>
              <LongitudeDegrees>-1.77817390300333499908447265625</LongitudeDegrees>
            </Position>
            <AltitudeMeters>559.4000244140625</AltitudeMeters>
            <DistanceMeters>36349.268716617</DistanceMeters>
          </Trackpoint>
          <Trackpoint>
            <Time>2018-08-26T07:08:51.000Z</Time>
            <Position>
              <LatitudeDegrees>42.95728853903710842132568359375</LatitudeDegrees>
              <LongitudeDegrees>-1.778235174715518951416015625</LongitudeDegrees>
            </Position>
            <AltitudeMeters>559.5999755859375</AltitudeMeters>
            <DistanceMeters>36354.711018587</DistanceMeters>
          </Trackpoint>
          <Trackpoint>
            <Time>2018-08-26T07:08:52.000Z</Time>
            <Position>
              <LatitudeDegrees>42.9573079012334346771240234375</LatitudeDegrees>
              <LongitudeDegrees>-1.77829795517027378082275390625</LongitudeDegrees>
            </Position>
            <AltitudeMeters>559.79998779296875</AltitudeMeters>
            <DistanceMeters>36360.26012308</DistanceMeters>
          </Trackpoint>
          <Trackpoint>
            <Time>2018-08-26T07:08:53.000Z</Time>
            <Position>
              <LatitudeDegrees>42.95732692815363407135009765625</LatitudeDegrees>
              <LongitudeDegrees>-1.77835830487310886383056640625</LongitudeDegrees>
            </Position>
            <AltitudeMeters>560.20001220703125</AltitudeMeters>
            <DistanceMeters>36365.612919784</DistanceMeters>
          </Trackpoint>
          <Trackpoint>
            <Time>2018-08-26T07:08:54.000Z</Time>
            <Position>
              <LatitudeDegrees>42.9573454521596431732177734375</LatitudeDegrees>
              <LongitudeDegrees>-1.77841697819530963897705078125</LongitudeDegrees>
            </Position>
            <AltitudeMeters>560.4000244140625</AltitudeMeters>
            <DistanceMeters>36370.81948194</DistanceMeters>
          </Trackpoint>
          <Trackpoint>
            <Time>2018-08-26T07:08:55.000Z</Time>
            <Position>
              <LatitudeDegrees>42.9573638923466205596923828125</LatitudeDegrees>
              <LongitudeDegrees>-1.778475232422351837158203125</LongitudeDegrees>
            </Position>
            <AltitudeMeters>560.5999755859375</AltitudeMeters>
            <DistanceMeters>36375.990367391</DistanceMeters>
          </Trackpoint>
          <Trackpoint>
            <Time>2018-08-26T07:08:56.000Z</Time>
            <Position>
              <LatitudeDegrees>42.95738358981907367706298828125</LatitudeDegrees>
              <LongitudeDegrees>-1.77853348664939403533935546875</LongitudeDegrees>
            </Position>
            <AltitudeMeters>560.5999755859375</AltitudeMeters>
            <DistanceMeters>36381.21770049</DistanceMeters>
          </Trackpoint>
          <Trackpoint>
            <Time>2018-08-26T07:08:57.000Z</Time>
            <Position>
              <LatitudeDegrees>42.957403957843780517578125</LatitudeDegrees>
              <LongitudeDegrees>-1.77858947776257991790771484375</LongitudeDegrees>
            </Position>
            <AltitudeMeters>560.5999755859375</AltitudeMeters>
            <DistanceMeters>36386.311167837</DistanceMeters>
          </Trackpoint>
          <Trackpoint>
            <Time>2018-08-26T07:08:58.000Z</Time>
            <Position>
              <LatitudeDegrees>42.95742432586848735809326171875</LatitudeDegrees>
              <LongitudeDegrees>-1.7786465585231781005859375</LongitudeDegrees>
            </Position>
            <AltitudeMeters>560.79998779296875</AltitudeMeters>
            <DistanceMeters>36391.48292638</DistanceMeters>
          </Trackpoint>
          <Trackpoint>
            <Time>2018-08-26T07:08:59.000Z</Time>
            <Position>
              <LatitudeDegrees>42.95744326896965503692626953125</LatitudeDegrees>
              <LongitudeDegrees>-1.77870665676891803741455078125</LongitudeDegrees>
            </Position>
            <AltitudeMeters>561.4000244140625</AltitudeMeters>
            <DistanceMeters>36396.813747196</DistanceMeters>
          </Trackpoint>
          <Trackpoint>
            <Time>2018-08-26T07:09:00.000Z</Time>
            <Position>
              <LatitudeDegrees>42.9574611224234104156494140625</LatitudeDegrees>
              <LongitudeDegrees>-1.77876734174787998199462890625</LongitudeDegrees>
            </Position>
            <AltitudeMeters>562</AltitudeMeters>
            <DistanceMeters>36402.1420265</DistanceMeters>
          </Trackpoint>
          <Trackpoint>
            <Time>2018-08-26T07:09:01.000Z</Time>
            <Position>
              <LatitudeDegrees>42.95748098753392696380615234375</LatitudeDegrees>
              <LongitudeDegrees>-1.77882769145071506500244140625</LongitudeDegrees>
            </Position>
            <AltitudeMeters>562.4000244140625</AltitudeMeters>
            <DistanceMeters>36407.53097128</DistanceMeters>
          </Trackpoint>
          <Trackpoint>
            <Time>2018-08-26T07:09:02.000Z</Time>
            <Position>
              <LatitudeDegrees>42.95750118792057037353515625</LatitudeDegrees>
              <LongitudeDegrees>-1.77888988517224788665771484375</LongitudeDegrees>
            </Position>
            <AltitudeMeters>562.79998779296875</AltitudeMeters>
            <DistanceMeters>36413.073562737</DistanceMeters>
          </Trackpoint>
          <Trackpoint>
            <Time>2018-08-26T07:09:03.000Z</Time>
            <Position>
              <LatitudeDegrees>42.9575204662978649139404296875</LatitudeDegrees>
              <LongitudeDegrees>-1.7789531685411930084228515625</LongitudeDegrees>
            </Position>
            <AltitudeMeters>563</AltitudeMeters>
            <DistanceMeters>36418.657544647</DistanceMeters>
          </Trackpoint>
          <Trackpoint>
            <Time>2018-08-26T07:09:04.000Z</Time>
            <Position>
              <LatitudeDegrees>42.9575382359325885772705078125</LatitudeDegrees>
              <LongitudeDegrees>-1.77901779301464557647705078125</LongitudeDegrees>
            </Position>
            <AltitudeMeters>563.4000244140625</AltitudeMeters>
            <DistanceMeters>36424.281006899</DistanceMeters>
          </Trackpoint>
          <Trackpoint>
            <Time>2018-08-26T07:09:05.000Z</Time>
            <Position>
              <LatitudeDegrees>42.9575556702911853790283203125</LatitudeDegrees>
              <LongitudeDegrees>-1.779082082211971282958984375</LongitudeDegrees>
            </Position>
            <AltitudeMeters>563.5999755859375</AltitudeMeters>
            <DistanceMeters>36429.865797319</DistanceMeters>
          </Trackpoint>
          <Trackpoint>
            <Time>2018-08-26T07:09:06.000Z</Time>
            <Position>
              <LatitudeDegrees>42.95757167972624301910400390625</LatitudeDegrees>
              <LongitudeDegrees>-1.77914771251380443572998046875</LongitudeDegrees>
            </Position>
            <AltitudeMeters>563.79998779296875</AltitudeMeters>
            <DistanceMeters>36435.500488862</DistanceMeters>
          </Trackpoint>
          <Trackpoint>
            <Time>2018-08-26T07:09:07.000Z</Time>
            <Position>
              <LatitudeDegrees>42.9575855098664760589599609375</LatitudeDegrees>
              <LongitudeDegrees>-1.77921359427273273468017578125</LongitudeDegrees>
            </Position>
            <AltitudeMeters>564</AltitudeMeters>
            <DistanceMeters>36441.083662143</DistanceMeters>
          </Trackpoint>
          <Trackpoint>
            <Time>2018-08-26T07:09:08.000Z</Time>
            <Position>
              <LatitudeDegrees>42.9575969092547893524169921875</LatitudeDegrees>
              <LongitudeDegrees>-1.77927696146070957183837890625</LongitudeDegrees>
            </Position>
            <AltitudeMeters>564.4000244140625</AltitudeMeters>
            <DistanceMeters>36446.400064993</DistanceMeters>
          </Trackpoint>
          <Trackpoint>
            <Time>2018-08-26T07:09:09.000Z</Time>
            <Position>
              <LatitudeDegrees>42.95760956592857837677001953125</LatitudeDegrees>
              <LongitudeDegrees>-1.77933949045836925506591796875</LongitudeDegrees>
            </Position>
            <AltitudeMeters>564.5999755859375</AltitudeMeters>
            <DistanceMeters>36451.684951599</DistanceMeters>
          </Trackpoint>
          <Trackpoint>
            <Time>2018-08-26T07:09:10.000Z</Time>
            <Position>
              <LatitudeDegrees>42.9576198756694793701171875</LatitudeDegrees>
              <LongitudeDegrees>-1.7794024385511875152587890625</LongitudeDegrees>
            </Position>
            <AltitudeMeters>564.79998779296875</AltitudeMeters>
            <DistanceMeters>36456.939851576</DistanceMeters>
          </Trackpoint>
          <Trackpoint>
            <Time>2018-08-26T07:09:11.000Z</Time>
            <Position>
              <LatitudeDegrees>42.95762968249619007110595703125</LatitudeDegrees>
              <LongitudeDegrees>-1.77946253679692745208740234375</LongitudeDegrees>
            </Position>
            <AltitudeMeters>565</AltitudeMeters>
            <DistanceMeters>36461.955606053</DistanceMeters>
          </Trackpoint>
          <Trackpoint>
            <Time>2018-08-26T07:09:12.000Z</Time>
            <Position>
              <LatitudeDegrees>42.95763823203742504119873046875</LatitudeDegrees>
              <LongitudeDegrees>-1.77952925674617290496826171875</LongitudeDegrees>
            </Position>
            <AltitudeMeters>565.20001220703125</AltitudeMeters>
            <DistanceMeters>36467.473705161</DistanceMeters>
          </Trackpoint>
          <Trackpoint>
            <Time>2018-08-26T07:09:13.000Z</Time>
            <Position>
              <LatitudeDegrees>42.95764602720737457275390625</LatitudeDegrees>
              <LongitudeDegrees>-1.77959279157221317291259765625</LongitudeDegrees>
            </Position>
            <AltitudeMeters>565.4000244140625</AltitudeMeters>
            <DistanceMeters>36472.721726994</DistanceMeters>
          </Trackpoint>
          <Trackpoint>
            <Time>2018-08-26T07:09:14.000Z</Time>
            <Position>
              <LatitudeDegrees>42.9576512239873409271240234375</LatitudeDegrees>
              <LongitudeDegrees>-1.77965330891311168670654296875</LongitudeDegrees>
            </Position>
            <AltitudeMeters>565.5999755859375</AltitudeMeters>
            <DistanceMeters>36477.684996938</DistanceMeters>
          </Trackpoint>
          <Trackpoint>
            <Time>2018-08-26T07:09:15.000Z</Time>
            <Position>
              <LatitudeDegrees>42.95765566639602184295654296875</LatitudeDegrees>
              <LongitudeDegrees>-1.77971567027270793914794921875</LongitudeDegrees>
            </Position>
            <AltitudeMeters>565.79998779296875</AltitudeMeters>
            <DistanceMeters>36482.789090446</DistanceMeters>
          </Trackpoint>
          <Trackpoint>
            <Time>2018-08-26T07:09:16.000Z</Time>
            <Position>
              <LatitudeDegrees>42.9576592706143856048583984375</LatitudeDegrees>
              <LongitudeDegrees>-1.7797776125371456146240234375</LongitudeDegrees>
            </Position>
            <AltitudeMeters>566</AltitudeMeters>
            <DistanceMeters>36487.850545462</DistanceMeters>
          </Trackpoint>
          <Trackpoint>
            <Time>2018-08-26T07:09:17.000Z</Time>
            <Position>
              <LatitudeDegrees>42.957663126289844512939453125</LatitudeDegrees>
              <LongitudeDegrees>-1.779841817915439605712890625</LongitudeDegrees>
            </Position>
            <AltitudeMeters>566.20001220703125</AltitudeMeters>
            <DistanceMeters>36493.098567294</DistanceMeters>
          </Trackpoint>
          <Trackpoint>
            <Time>2018-08-26T07:09:18.000Z</Time>
            <Position>
              <LatitudeDegrees>42.95765968970954418182373046875</LatitudeDegrees>
              <LongitudeDegrees>-1.779908202588558197021484375</LongitudeDegrees>
            </Position>
            <AltitudeMeters>566.5999755859375</AltitudeMeters>
            <DistanceMeters>36498.519256249</DistanceMeters>
          </Trackpoint>
          <Trackpoint>
            <Time>2018-08-26T07:09:19.000Z</Time>
            <Position>
              <LatitudeDegrees>42.95765005052089691162109375</LatitudeDegrees>
              <LongitudeDegrees>-1.77998104132711887359619140625</LongitudeDegrees>
            </Position>
            <AltitudeMeters>566.79998779296875</AltitudeMeters>
            <DistanceMeters>36504.548774287</DistanceMeters>
          </Trackpoint>
          <Trackpoint>
            <Time>2018-08-26T07:09:20.000Z</Time>
            <Position>
              <LatitudeDegrees>42.95763756148517131805419921875</LatitudeDegrees>
              <LongitudeDegrees>-1.78006284870207309722900390625</LongitudeDegrees>
            </Position>
            <AltitudeMeters>567</AltitudeMeters>
            <DistanceMeters>36511.355632757</DistanceMeters>
          </Trackpoint>
          <Trackpoint>
            <Time>2018-08-26T07:09:21.000Z</Time>
            <Position>
              <LatitudeDegrees>42.95762616209685802459716796875</LatitudeDegrees>
              <LongitudeDegrees>-1.78015639074146747589111328125</LongitudeDegrees>
            </Position>
            <AltitudeMeters>567</AltitudeMeters>
            <DistanceMeters>36519.079732385</DistanceMeters>
          </Trackpoint>
          <Trackpoint>
            <Time>2018-08-26T07:09:22.000Z</Time>
            <Position>
              <LatitudeDegrees>42.957620210945606231689453125</LatitudeDegrees>
              <LongitudeDegrees>-1.7802607454359531402587890625</LongitudeDegrees>
            </Position>
            <AltitudeMeters>567.20001220703125</AltitudeMeters>
            <DistanceMeters>36527.605699507</DistanceMeters>
          </Trackpoint>
          <Trackpoint>
            <Time>2018-08-26T07:09:23.000Z</Time>
            <Position>
              <LatitudeDegrees>42.95762012712657451629638671875</LatitudeDegrees>
              <LongitudeDegrees>-1.7803717218339443206787109375</LongitudeDegrees>
            </Position>
            <AltitudeMeters>567.20001220703125</AltitudeMeters>
            <DistanceMeters>36536.645732241</DistanceMeters>
          </Trackpoint>
          <Trackpoint>
            <Time>2018-08-26T07:09:24.000Z</Time>
            <Position>
              <LatitudeDegrees>42.95762322843074798583984375</LatitudeDegrees>
              <LongitudeDegrees>-1.7804924212396144866943359375</LongitudeDegrees>
            </Position>
            <AltitudeMeters>567.20001220703125</AltitudeMeters>
            <DistanceMeters>36546.484095387</DistanceMeters>
          </Trackpoint>
          <Trackpoint>
            <Time>2018-08-26T07:09:25.000Z</Time>
            <Position>
              <LatitudeDegrees>42.957633621990680694580078125</LatitudeDegrees>
              <LongitudeDegrees>-1.7806154675781726837158203125</LongitudeDegrees>
            </Position>
            <AltitudeMeters>567.20001220703125</AltitudeMeters>
            <DistanceMeters>36556.573050818</DistanceMeters>
          </Trackpoint>
          <Trackpoint>
            <Time>2018-08-26T07:09:26.000Z</Time>
            <Position>
              <LatitudeDegrees>42.9576542414724826812744140625</LatitudeDegrees>
              <LongitudeDegrees>-1.7807378433644771575927734375</LongitudeDegrees>
            </Position>
            <AltitudeMeters>567.20001220703125</AltitudeMeters>
            <DistanceMeters>36566.802446002</DistanceMeters>
          </Trackpoint>
          <Trackpoint>
            <Time>2018-08-26T07:09:27.000Z</Time>
            <Position>
              <LatitudeDegrees>42.957681231200695037841796875</LatitudeDegrees>
              <LongitudeDegrees>-1.78086063824594020843505859375</LongitudeDegrees>
            </Position>
            <AltitudeMeters>567.20001220703125</AltitudeMeters>
            <DistanceMeters>36577.246742217</DistanceMeters>
          </Trackpoint>
          <Trackpoint>
            <Time>2018-08-26T07:09:28.000Z</Time>
            <Position>
              <LatitudeDegrees>42.95771383680403232574462890625</LatitudeDegrees>
              <LongitudeDegrees>-1.78098318167030811309814453125</LongitudeDegrees>
            </Position>
            <AltitudeMeters>567.20001220703125</AltitudeMeters>
            <DistanceMeters>36587.867651545</DistanceMeters>
          </Trackpoint>
          <Trackpoint>
            <Time>2018-08-26T07:09:29.000Z</Time>
            <Position>
              <LatitudeDegrees>42.95775239355862140655517578125</LatitudeDegrees>
              <LongitudeDegrees>-1.7811061441898345947265625</LongitudeDegrees>
            </Position>
            <AltitudeMeters>567</AltitudeMeters>
            <DistanceMeters>36598.764692668</DistanceMeters>
          </Trackpoint>
          <Trackpoint>
            <Time>2018-08-26T07:09:30.000Z</Time>
            <Position>
              <LatitudeDegrees>42.9577906988561153411865234375</LatitudeDegrees>
              <LongitudeDegrees>-1.78123128600418567657470703125</LongitudeDegrees>
            </Position>
            <AltitudeMeters>566.79998779296875</AltitudeMeters>
            <DistanceMeters>36609.813974704</DistanceMeters>
          </Trackpoint>
          <Trackpoint>
            <Time>2018-08-26T07:09:31.000Z</Time>
            <Position>
              <LatitudeDegrees>42.9578264057636260986328125</LatitudeDegrees>
              <LongitudeDegrees>-1.78136154077947139739990234375</LongitudeDegrees>
            </Position>
            <AltitudeMeters>566.20001220703125</AltitudeMeters>
            <DistanceMeters>36621.14449088</DistanceMeters>
          </Trackpoint>
          <Trackpoint>
            <Time>2018-08-26T07:09:32.000Z</Time>
            <Position>
              <LatitudeDegrees>42.9578560777008533477783203125</LatitudeDegrees>
              <LongitudeDegrees>-1.7814942263066768646240234375</LongitudeDegrees>
            </Position>
            <AltitudeMeters>565.5999755859375</AltitudeMeters>
            <DistanceMeters>36632.445880229</DistanceMeters>
          </Trackpoint>
          <Trackpoint>
            <Time>2018-08-26T07:09:33.000Z</Time>
            <Position>
              <LatitudeDegrees>42.9578782059252262115478515625</LatitudeDegrees>
              <LongitudeDegrees>-1.78163512609899044036865234375</LongitudeDegrees>
            </Position>
            <AltitudeMeters>565.20001220703125</AltitudeMeters>
            <DistanceMeters>36644.18427605</DistanceMeters>
          </Trackpoint>
          <Trackpoint>
            <Time>2018-08-26T07:09:34.000Z</Time>
            <Position>
              <LatitudeDegrees>42.9578939639031887054443359375</LatitudeDegrees>
              <LongitudeDegrees>-1.78178180940449237823486328125</LongitudeDegrees>
            </Position>
            <AltitudeMeters>564.4000244140625</AltitudeMeters>
            <DistanceMeters>36656.261270491</DistanceMeters>
          </Trackpoint>
          <Trackpoint>
            <Time>2018-08-26T07:09:35.000Z</Time>
            <Position>
              <LatitudeDegrees>42.9579107277095317840576171875</LatitudeDegrees>
              <LongitudeDegrees>-1.78193251602351665496826171875</LongitudeDegrees>
            </Position>
            <AltitudeMeters>564</AltitudeMeters>
            <DistanceMeters>36668.678175307</DistanceMeters>
          </Trackpoint>
          <Trackpoint>
            <Time>2018-08-26T07:09:36.000Z</Time>
            <Position>
              <LatitudeDegrees>42.95793478377163410186767578125</LatitudeDegrees>
              <LongitudeDegrees>-1.7820863239467144012451171875</LongitudeDegrees>
            </Position>
            <AltitudeMeters>563.5999755859375</AltitudeMeters>
            <DistanceMeters>36681.490229381</DistanceMeters>
          </Trackpoint>
          <Trackpoint>
            <Time>2018-08-26T07:09:37.000Z</Time>
            <Position>
              <LatitudeDegrees>42.95796982012689113616943359375</LatitudeDegrees>
              <LongitudeDegrees>-1.78223862312734127044677734375</LongitudeDegrees>
            </Position>
            <AltitudeMeters>563</AltitudeMeters>
            <DistanceMeters>36694.49466215</DistanceMeters>
          </Trackpoint>
          <Trackpoint>
            <Time>2018-08-26T07:09:38.000Z</Time>
            <Position>
              <LatitudeDegrees>42.95801483094692230224609375</LatitudeDegrees>
              <LongitudeDegrees>-1.78238756954669952392578125</LongitudeDegrees>
            </Position>
            <AltitudeMeters>562.4000244140625</AltitudeMeters>
            <DistanceMeters>36707.62073767</DistanceMeters>
          </Trackpoint>
          <Trackpoint>
            <Time>2018-08-26T07:09:39.000Z</Time>
            <Position>
              <LatitudeDegrees>42.9580704867839813232421875</LatitudeDegrees>
              <LongitudeDegrees>-1.782534755766391754150390625</LongitudeDegrees>
            </Position>
            <AltitudeMeters>561.5999755859375</AltitudeMeters>
            <DistanceMeters>36721.115869448</DistanceMeters>
          </Trackpoint>
          <Trackpoint>
            <Time>2018-08-26T07:09:40.000Z</Time>
            <Position>
              <LatitudeDegrees>42.95813779346644878387451171875</LatitudeDegrees>
              <LongitudeDegrees>-1.782672889530658721923828125</LongitudeDegrees>
            </Position>
            <AltitudeMeters>561.20001220703125</AltitudeMeters>
            <DistanceMeters>36734.633398692</DistanceMeters>
          </Trackpoint>
          <Trackpoint>
            <Time>2018-08-26T07:09:41.000Z</Time>
            <Position>
              <LatitudeDegrees>42.95821205712854862213134765625</LatitudeDegrees>
              <LongitudeDegrees>-1.78280523978173732757568359375</LongitudeDegrees>
            </Position>
            <AltitudeMeters>560.5999755859375</AltitudeMeters>
            <DistanceMeters>36748.217898764</DistanceMeters>
          </Trackpoint>
          <Trackpoint>
            <Time>2018-08-26T07:09:42.000Z</Time>
            <Position>
              <LatitudeDegrees>42.9582895897328853607177734375</LatitudeDegrees>
              <LongitudeDegrees>-1.78293264470994472503662109375</LongitudeDegrees>
            </Position>
            <AltitudeMeters>559.79998779296875</AltitudeMeters>
            <DistanceMeters>36761.715037801</DistanceMeters>
          </Trackpoint>
          <Trackpoint>
            <Time>2018-08-26T07:09:43.000Z</Time>
            <Position>
              <LatitudeDegrees>42.9583744145929813385009765625</LatitudeDegrees>
              <LongitudeDegrees>-1.783048398792743682861328125</LongitudeDegrees>
            </Position>
            <AltitudeMeters>558.79998779296875</AltitudeMeters>
            <DistanceMeters>36775.058087946</DistanceMeters>
          </Trackpoint>
          <Trackpoint>
            <Time>2018-08-26T07:09:44.000Z</Time>
            <Position>
              <LatitudeDegrees>42.9584669508039951324462890625</LatitudeDegrees>
              <LongitudeDegrees>-1.783156692981719970703125</LongitudeDegrees>
            </Position>
            <AltitudeMeters>558</AltitudeMeters>
            <DistanceMeters>36788.618636486</DistanceMeters>
          </Trackpoint>
          <Trackpoint>
            <Time>2018-08-26T07:09:45.000Z</Time>
            <Position>
              <LatitudeDegrees>42.9585692100226879119873046875</LatitudeDegrees>
              <LongitudeDegrees>-1.78324361331760883331298828125</LongitudeDegrees>
            </Position>
            <AltitudeMeters>557.20001220703125</AltitudeMeters>
            <DistanceMeters>36802.022456871</DistanceMeters>
          </Trackpoint>
          <Trackpoint>
            <Time>2018-08-26T07:09:46.000Z</Time>
            <Position>
              <LatitudeDegrees>42.9586734808981418609619140625</LatitudeDegrees>
              <LongitudeDegrees>-1.78331988863646984100341796875</LongitudeDegrees>
            </Position>
            <AltitudeMeters>556.20001220703125</AltitudeMeters>
            <DistanceMeters>36815.186315233</DistanceMeters>
          </Trackpoint>
          <Trackpoint>
            <Time>2018-08-26T07:09:47.000Z</Time>
            <Position>
              <LatitudeDegrees>42.95877716504037380218505859375</LatitudeDegrees>
              <LongitudeDegrees>-1.78340270183980464935302734375</LongitudeDegrees>
            </Position>
            <AltitudeMeters>555.20001220703125</AltitudeMeters>
            <DistanceMeters>36828.553706626</DistanceMeters>
          </Trackpoint>
          <Trackpoint>
            <Time>2018-08-26T07:09:48.000Z</Time>
            <Position>
              <LatitudeDegrees>42.9588716290891170501708984375</LatitudeDegrees>
              <LongitudeDegrees>-1.78350110538303852081298828125</LongitudeDegrees>
            </Position>
            <AltitudeMeters>554.20001220703125</AltitudeMeters>
            <DistanceMeters>36841.774719815</DistanceMeters>
          </Trackpoint>
          <Trackpoint>
            <Time>2018-08-26T07:09:49.000Z</Time>
            <Position>
              <LatitudeDegrees>42.9589517600834369659423828125</LatitudeDegrees>
              <LongitudeDegrees>-1.7836188711225986480712890625</LongitudeDegrees>
            </Position>
            <AltitudeMeters>553.20001220703125</AltitudeMeters>
            <DistanceMeters>36854.872559037</DistanceMeters>
          </Trackpoint>
          <Trackpoint>
            <Time>2018-08-26T07:09:50.000Z</Time>
            <Position>
              <LatitudeDegrees>42.95901596546173095703125</LatitudeDegrees>
              <LongitudeDegrees>-1.7837516404688358306884765625</LongitudeDegrees>
            </Position>
            <AltitudeMeters>552.5999755859375</AltitudeMeters>
            <DistanceMeters>36867.835261782</DistanceMeters>
          </Trackpoint>
          <Trackpoint>
            <Time>2018-08-26T07:09:51.000Z</Time>
            <Position>
              <LatitudeDegrees>42.95907908119261264801025390625</LatitudeDegrees>
              <LongitudeDegrees>-1.78389119915664196014404296875</LongitudeDegrees>
            </Position>
            <AltitudeMeters>552.20001220703125</AltitudeMeters>
            <DistanceMeters>36881.198261508</DistanceMeters>
          </Trackpoint>
          <Trackpoint>
            <Time>2018-08-26T07:09:52.000Z</Time>
            <Position>
              <LatitudeDegrees>42.95915116555988788604736328125</LatitudeDegrees>
              <LongitudeDegrees>-1.78402237594127655029296875</LongitudeDegrees>
            </Position>
            <AltitudeMeters>551.79998779296875</AltitudeMeters>
            <DistanceMeters>36894.560247567</DistanceMeters>
          </Trackpoint>
          <Trackpoint>
            <Time>2018-08-26T07:09:53.000Z</Time>
            <Position>
              <LatitudeDegrees>42.95923096127808094024658203125</LatitudeDegrees>
              <LongitudeDegrees>-1.78414575755596160888671875</LongitudeDegrees>
            </Position>
            <AltitudeMeters>551.20001220703125</AltitudeMeters>
            <DistanceMeters>36907.972149847</DistanceMeters>
          </Trackpoint>
          <Trackpoint>
            <Time>2018-08-26T07:09:54.000Z</Time>
            <Position>
              <LatitudeDegrees>42.9593165405094623565673828125</LatitudeDegrees>
              <LongitudeDegrees>-1.784261427819728851318359375</LongitudeDegrees>
            </Position>
            <AltitudeMeters>550.79998779296875</AltitudeMeters>
            <DistanceMeters>36921.369905613</DistanceMeters>
          </Trackpoint>
          <Trackpoint>
            <Time>2018-08-26T07:09:55.000Z</Time>
            <Position>
              <LatitudeDegrees>42.9594057239592075347900390625</LatitudeDegrees>
              <LongitudeDegrees>-1.78436460904777050018310546875</LongitudeDegrees>
            </Position>
            <AltitudeMeters>550.4000244140625</AltitudeMeters>
            <DistanceMeters>36934.376074227</DistanceMeters>
          </Trackpoint>
          <Trackpoint>
            <Time>2018-08-26T07:09:56.000Z</Time>
            <Position>
              <LatitudeDegrees>42.95949666760861873626708984375</LatitudeDegrees>
              <LongitudeDegrees>-1.7844454944133758544921875</LongitudeDegrees>
            </Position>
            <AltitudeMeters>550</AltitudeMeters>
            <DistanceMeters>36946.453442517</DistanceMeters>
          </Trackpoint>
          <Trackpoint>
            <Time>2018-08-26T07:09:57.000Z</Time>
            <Position>
              <LatitudeDegrees>42.9595891200006008148193359375</LatitudeDegrees>
              <LongitudeDegrees>-1.78449846804141998291015625</LongitudeDegrees>
            </Position>
            <AltitudeMeters>549.4000244140625</AltitudeMeters>
            <DistanceMeters>36957.611699281</DistanceMeters>
          </Trackpoint>
          <Trackpoint>
            <Time>2018-08-26T07:09:58.000Z</Time>
            <Position>
              <LatitudeDegrees>42.95967704616487026214599609375</LatitudeDegrees>
              <LongitudeDegrees>-1.7845179140567779541015625</LongitudeDegrees>
            </Position>
            <AltitudeMeters>548.79998779296875</AltitudeMeters>
            <DistanceMeters>36967.525495325</DistanceMeters>
          </Trackpoint>
          <Trackpoint>
            <Time>2018-08-26T07:09:59.000Z</Time>
            <Position>
              <LatitudeDegrees>42.959758937358856201171875</LatitudeDegrees>
              <LongitudeDegrees>-1.78452084772288799285888671875</LongitudeDegrees>
            </Position>
            <AltitudeMeters>548.20001220703125</AltitudeMeters>
            <DistanceMeters>36976.643109253</DistanceMeters>
          </Trackpoint>
          <Trackpoint>
            <Time>2018-08-26T07:10:00.000Z</Time>
            <Position>
              <LatitudeDegrees>42.959845103323459625244140625</LatitudeDegrees>
              <LongitudeDegrees>-1.78452805615961551666259765625</LongitudeDegrees>
            </Position>
            <AltitudeMeters>547.4000244140625</AltitudeMeters>
            <DistanceMeters>36986.251151275</DistanceMeters>
          </Trackpoint>
          <Trackpoint>
            <Time>2018-08-26T07:10:01.000Z</Time>
            <Position>
              <LatitudeDegrees>42.9599277488887310028076171875</LatitudeDegrees>
              <LongitudeDegrees>-1.7845594882965087890625</LongitudeDegrees>
            </Position>
            <AltitudeMeters>546.5999755859375</AltitudeMeters>
            <DistanceMeters>36995.799326586</DistanceMeters>
          </Trackpoint>
          <Trackpoint>
            <Time>2018-08-26T07:10:02.000Z</Time>
            <Position>
              <LatitudeDegrees>42.95998382382094860076904296875</LatitudeDegrees>
              <LongitudeDegrees>-1.78461916744709014892578125</LongitudeDegrees>
            </Position>
            <AltitudeMeters>546</AltitudeMeters>
            <DistanceMeters>37003.709979515</DistanceMeters>
          </Trackpoint>
          <Trackpoint>
            <Time>2018-08-26T07:10:03.000Z</Time>
            <Position>
              <LatitudeDegrees>42.9600097239017486572265625</LatitudeDegrees>
              <LongitudeDegrees>-1.78471011109650135040283203125</LongitudeDegrees>
            </Position>
            <AltitudeMeters>545.5999755859375</AltitudeMeters>
            <DistanceMeters>37011.658780989</DistanceMeters>
          </Trackpoint>
          <Trackpoint>
            <Time>2018-08-26T07:10:04.000Z</Time>
            <Position>
              <LatitudeDegrees>42.959998659789562225341796875</LatitudeDegrees>
              <LongitudeDegrees>-1.78481941111385822296142578125</LongitudeDegrees>
            </Position>
            <AltitudeMeters>545.20001220703125</AltitudeMeters>
            <DistanceMeters>37020.646720902</DistanceMeters>
          </Trackpoint>
          <Trackpoint>
            <Time>2018-08-26T07:10:05.000Z</Time>
            <Position>
              <LatitudeDegrees>42.959962785243988037109375</LatitudeDegrees>
              <LongitudeDegrees>-1.78493089042603969573974609375</LongitudeDegrees>
            </Position>
            <AltitudeMeters>545</AltitudeMeters>
            <DistanceMeters>37030.566890915</DistanceMeters>
          </Trackpoint>
          <Trackpoint>
            <Time>2018-08-26T07:10:06.000Z</Time>
            <Position>
              <LatitudeDegrees>42.9599158465862274169921875</LatitudeDegrees>
              <LongitudeDegrees>-1.785042285919189453125</LongitudeDegrees>
            </Position>
            <AltitudeMeters>544.79998779296875</AltitudeMeters>
            <DistanceMeters>37041.037092824</DistanceMeters>
          </Trackpoint>
          <Trackpoint>
            <Time>2018-08-26T07:10:07.000Z</Time>
            <Position>
              <LatitudeDegrees>42.95986681245267391204833984375</LatitudeDegrees>
              <LongitudeDegrees>-1.7851589620113372802734375</LongitudeDegrees>
            </Position>
            <AltitudeMeters>544.5999755859375</AltitudeMeters>
            <DistanceMeters>37051.996108141</DistanceMeters>
          </Trackpoint>
          <Trackpoint>
            <Time>2018-08-26T07:10:08.000Z</Time>
            <Position>
              <LatitudeDegrees>42.959826998412609100341796875</LatitudeDegrees>
              <LongitudeDegrees>-1.78528024815022945404052734375</LongitudeDegrees>
            </Position>
            <AltitudeMeters>544.20001220703125</AltitudeMeters>
            <DistanceMeters>37062.823317033</DistanceMeters>
          </Trackpoint>
          <Trackpoint>
            <Time>2018-08-26T07:10:09.000Z</Time>
            <Position>
              <LatitudeDegrees>42.95980629511177539825439453125</LatitudeDegrees>
              <LongitudeDegrees>-1.785407401621341705322265625</LongitudeDegrees>
            </Position>
            <AltitudeMeters>544.20001220703125</AltitudeMeters>
            <DistanceMeters>37073.433593326</DistanceMeters>
          </Trackpoint>
          <Trackpoint>
            <Time>2018-08-26T07:10:10.000Z</Time>
            <Position>
              <LatitudeDegrees>42.9598043672740459442138671875</LatitudeDegrees>
              <LongitudeDegrees>-1.785546205937862396240234375</LongitudeDegrees>
            </Position>
            <AltitudeMeters>544</AltitudeMeters>
            <DistanceMeters>37084.742171601</DistanceMeters>
          </Trackpoint>
          <Trackpoint>
            <Time>2018-08-26T07:10:11.000Z</Time>
            <Position>
              <LatitudeDegrees>42.95981551520526409149169921875</LatitudeDegrees>
              <LongitudeDegrees>-1.78569012321531772613525390625</LongitudeDegrees>
            </Position>
            <AltitudeMeters>544</AltitudeMeters>
            <DistanceMeters>37096.530081353</DistanceMeters>
          </Trackpoint>
          <Trackpoint>
            <Time>2018-08-26T07:10:12.000Z</Time>
            <Position>
              <LatitudeDegrees>42.959831021726131439208984375</LatitudeDegrees>
              <LongitudeDegrees>-1.78583714179694652557373046875</LongitudeDegrees>
            </Position>
            <AltitudeMeters>543.79998779296875</AltitudeMeters>
            <DistanceMeters>37108.628739922</DistanceMeters>
          </Trackpoint>
          <Trackpoint>
            <Time>2018-08-26T07:10:13.000Z</Time>
            <Position>
              <LatitudeDegrees>42.9598452709615230560302734375</LatitudeDegrees>
              <LongitudeDegrees>-1.7859859205782413482666015625</LongitudeDegrees>
            </Position>
            <AltitudeMeters>543.5999755859375</AltitudeMeters>
            <DistanceMeters>37120.850667942</DistanceMeters>
          </Trackpoint>
          <Trackpoint>
            <Time>2018-08-26T07:10:14.000Z</Time>
            <Position>
              <LatitudeDegrees>42.9598563350737094879150390625</LatitudeDegrees>
              <LongitudeDegrees>-1.786134280264377593994140625</LongitudeDegrees>
            </Position>
            <AltitudeMeters>543.5999755859375</AltitudeMeters>
            <DistanceMeters>37132.997743685</DistanceMeters>
          </Trackpoint>
          <Trackpoint>
            <Time>2018-08-26T07:10:15.000Z</Time>
            <Position>
              <LatitudeDegrees>42.9598643817007541656494140625</LatitudeDegrees>
              <LongitudeDegrees>-1.78628289140760898590087890625</LongitudeDegrees>
            </Position>
            <AltitudeMeters>543.4000244140625</AltitudeMeters>
            <DistanceMeters>37145.135895408</DistanceMeters>
          </Trackpoint>
          <Trackpoint>
            <Time>2018-08-26T07:10:16.000Z</Time>
            <Position>
              <LatitudeDegrees>42.95986228622496128082275390625</LatitudeDegrees>
              <LongitudeDegrees>-1.78643275983631610870361328125</LongitudeDegrees>
            </Position>
            <AltitudeMeters>543.20001220703125</AltitudeMeters>
            <DistanceMeters>37157.34599623</DistanceMeters>
          </Trackpoint>
          <Trackpoint>
            <Time>2018-08-26T07:10:17.000Z</Time>
            <Position>
              <LatitudeDegrees>42.959844432771205902099609375</LatitudeDegrees>
              <LongitudeDegrees>-1.7865833826363086700439453125</LongitudeDegrees>
            </Position>
            <AltitudeMeters>542.79998779296875</AltitudeMeters>
            <DistanceMeters>37169.774531448</DistanceMeters>
          </Trackpoint>
          <Trackpoint>
            <Time>2018-08-26T07:10:18.000Z</Time>
            <Position>
              <LatitudeDegrees>42.95981233008205890655517578125</LatitudeDegrees>
              <LongitudeDegrees>-1.7867292277514934539794921875</LongitudeDegrees>
            </Position>
            <AltitudeMeters>542.20001220703125</AltitudeMeters>
            <DistanceMeters>37182.180158914</DistanceMeters>
          </Trackpoint>
          <Trackpoint>
            <Time>2018-08-26T07:10:19.000Z</Time>
            <Position>
              <LatitudeDegrees>42.959765978157520294189453125</LatitudeDegrees>
              <LongitudeDegrees>-1.78686828352510929107666015625</LongitudeDegrees>
            </Position>
            <AltitudeMeters>541.5999755859375</AltitudeMeters>
            <DistanceMeters>37194.626119356</DistanceMeters>
          </Trackpoint>
          <Trackpoint>
            <Time>2018-08-26T07:10:20.000Z</Time>
            <Position>
              <LatitudeDegrees>42.95970906503498554229736328125</LatitudeDegrees>
              <LongitudeDegrees>-1.78701111115515232086181640625</LongitudeDegrees>
            </Position>
            <AltitudeMeters>541</AltitudeMeters>
            <DistanceMeters>37207.872720635</DistanceMeters>
          </Trackpoint>
          <Trackpoint>
            <Time>2018-08-26T07:10:21.000Z</Time>
            <Position>
              <LatitudeDegrees>42.9596558399498462677001953125</LatitudeDegrees>
              <LongitudeDegrees>-1.7871597222983837127685546875</LongitudeDegrees>
            </Position>
            <AltitudeMeters>540.79998779296875</AltitudeMeters>
            <DistanceMeters>37221.349438616</DistanceMeters>
          </Trackpoint>
          <Trackpoint>
            <Time>2018-08-26T07:10:22.000Z</Time>
            <Position>
              <LatitudeDegrees>42.95961166732013225555419921875</LatitudeDegrees>
              <LongitudeDegrees>-1.78731436841189861297607421875</LongitudeDegrees>
            </Position>
            <AltitudeMeters>540.4000244140625</AltitudeMeters>
            <DistanceMeters>37234.87164324</DistanceMeters>
          </Trackpoint>
          <Trackpoint>
            <Time>2018-08-26T07:10:23.000Z</Time>
            <Position>
              <LatitudeDegrees>42.95957277528941631317138671875</LatitudeDegrees>
              <LongitudeDegrees>-1.78747035562992095947265625</LongitudeDegrees>
            </Position>
            <AltitudeMeters>540</AltitudeMeters>
            <DistanceMeters>37248.294986541</DistanceMeters>
          </Trackpoint>
          <Trackpoint>
            <Time>2018-08-26T07:10:24.000Z</Time>
            <Position>
              <LatitudeDegrees>42.9595344699919223785400390625</LatitudeDegrees>
              <LongitudeDegrees>-1.78762592375278472900390625</LongitudeDegrees>
            </Position>
            <AltitudeMeters>539.5999755859375</AltitudeMeters>
            <DistanceMeters>37261.664404372</DistanceMeters>
          </Trackpoint>
          <Trackpoint>
            <Time>2018-08-26T07:10:25.000Z</Time>
            <Position>
              <LatitudeDegrees>42.95949809253215789794921875</LatitudeDegrees>
              <LongitudeDegrees>-1.78778174333274364471435546875</LongitudeDegrees>
            </Position>
            <AltitudeMeters>539.20001220703125</AltitudeMeters>
            <DistanceMeters>37274.986797269</DistanceMeters>
          </Trackpoint>
          <Trackpoint>
            <Time>2018-08-26T07:10:26.000Z</Time>
            <Position>
              <LatitudeDegrees>42.95947789214551448822021484375</LatitudeDegrees>
              <LongitudeDegrees>-1.78794234059751033782958984375</LongitudeDegrees>
            </Position>
            <AltitudeMeters>538.79998779296875</AltitudeMeters>
            <DistanceMeters>37288.260297994</DistanceMeters>
          </Trackpoint>
          <Trackpoint>
            <Time>2018-08-26T07:10:27.000Z</Time>
            <Position>
              <LatitudeDegrees>42.9594831727445125579833984375</LatitudeDegrees>
              <LongitudeDegrees>-1.78810243494808673858642578125</LongitudeDegrees>
            </Position>
            <AltitudeMeters>538</AltitudeMeters>
            <DistanceMeters>37301.313938961</DistanceMeters>
          </Trackpoint>
          <Trackpoint>
            <Time>2018-08-26T07:10:28.000Z</Time>
            <Position>
              <LatitudeDegrees>42.9595167003571987152099609375</LatitudeDegrees>
              <LongitudeDegrees>-1.78825666196644306182861328125</LongitudeDegrees>
            </Position>
            <AltitudeMeters>537.20001220703125</AltitudeMeters>
            <DistanceMeters>37314.419359746</DistanceMeters>
          </Trackpoint>
          <Trackpoint>
            <Time>2018-08-26T07:10:29.000Z</Time>
            <Position>
              <LatitudeDegrees>42.9595725238323211669921875</LatitudeDegrees>
              <LongitudeDegrees>-1.78839546628296375274658203125</LongitudeDegrees>
            </Position>
            <AltitudeMeters>536.4000244140625</AltitudeMeters>
            <DistanceMeters>37327.320264325</DistanceMeters>
          </Trackpoint>
          <Trackpoint>
            <Time>2018-08-26T07:10:30.000Z</Time>
            <Position>
              <LatitudeDegrees>42.95963915996253490447998046875</LatitudeDegrees>
              <LongitudeDegrees>-1.788524128496646881103515625</LongitudeDegrees>
            </Position>
            <AltitudeMeters>535.79998779296875</AltitudeMeters>
            <DistanceMeters>37340.159424947</DistanceMeters>
          </Trackpoint>
          <Trackpoint>
            <Time>2018-08-26T07:10:31.000Z</Time>
            <Position>
              <LatitudeDegrees>42.959713004529476165771484375</LatitudeDegrees>
              <LongitudeDegrees>-1.788648180663585662841796875</LongitudeDegrees>
            </Position>
            <AltitudeMeters>535</AltitudeMeters>
            <DistanceMeters>37353.184672592</DistanceMeters>
          </Trackpoint>
          <Trackpoint>
            <Time>2018-08-26T07:10:32.000Z</Time>
            <Position>
              <LatitudeDegrees>42.95979439280927181243896484375</LatitudeDegrees>
              <LongitudeDegrees>-1.78876494057476520538330078125</LongitudeDegrees>
            </Position>
            <AltitudeMeters>534.5999755859375</AltitudeMeters>
            <DistanceMeters>37366.319000911</DistanceMeters>
          </Trackpoint>
          <Trackpoint>
            <Time>2018-08-26T07:10:33.000Z</Time>
            <Position>
              <LatitudeDegrees>42.95988324098289012908935546875</LatitudeDegrees>
              <LongitudeDegrees>-1.7888729833066463470458984375</LongitudeDegrees>
            </Position>
            <AltitudeMeters>533.79998779296875</AltitudeMeters>
            <DistanceMeters>37379.556737254</DistanceMeters>
          </Trackpoint>
          <Trackpoint>
            <Time>2018-08-26T07:10:34.000Z</Time>
            <Position>
              <LatitudeDegrees>42.95997812412679195404052734375</LatitudeDegrees>
              <LongitudeDegrees>-1.78897080011665821075439453125</LongitudeDegrees>
            </Position>
            <AltitudeMeters>533</AltitudeMeters>
            <DistanceMeters>37392.785602718</DistanceMeters>
          </Trackpoint>
          <Trackpoint>
            <Time>2018-08-26T07:10:35.000Z</Time>
            <Position>
              <LatitudeDegrees>42.960075438022613525390625</LatitudeDegrees>
              <LongitudeDegrees>-1.789068281650543212890625</LongitudeDegrees>
            </Position>
            <AltitudeMeters>532.20001220703125</AltitudeMeters>
            <DistanceMeters>37406.215335285</DistanceMeters>
          </Trackpoint>
          <Trackpoint>
            <Time>2018-08-26T07:10:36.000Z</Time>
            <Position>
              <LatitudeDegrees>42.96017132699489593505859375</LatitudeDegrees>
              <LongitudeDegrees>-1.78916609846055507659912109375</LongitudeDegrees>
            </Position>
            <AltitudeMeters>531.79998779296875</AltitudeMeters>
            <DistanceMeters>37419.533999695</DistanceMeters>
          </Trackpoint>
          <Trackpoint>
            <Time>2018-08-26T07:10:37.000Z</Time>
            <Position>
              <LatitudeDegrees>42.9602677188813686370849609375</LatitudeDegrees>
              <LongitudeDegrees>-1.78926433436572551727294921875</LongitudeDegrees>
            </Position>
            <AltitudeMeters>531.4000244140625</AltitudeMeters>
            <DistanceMeters>37432.917593993</DistanceMeters>
          </Trackpoint>
          <Trackpoint>
            <Time>2018-08-26T07:10:38.000Z</Time>
            <Position>
              <LatitudeDegrees>42.96036486513912677764892578125</LatitudeDegrees>
              <LongitudeDegrees>-1.789360307157039642333984375</LongitudeDegrees>
            </Position>
            <AltitudeMeters>531.20001220703125</AltitudeMeters>
            <DistanceMeters>37446.259967359</DistanceMeters>
          </Trackpoint>
          <Trackpoint>
            <Time>2018-08-26T07:10:39.000Z</Time>
            <Position>
              <LatitudeDegrees>42.96046578325331211090087890625</LatitudeDegrees>
              <LongitudeDegrees>-1.7894478142261505126953125</LongitudeDegrees>
            </Position>
            <AltitudeMeters>531</AltitudeMeters>
            <DistanceMeters>37459.563028591</DistanceMeters>
          </Trackpoint>
          <Trackpoint>
            <Time>2018-08-26T07:10:40.000Z</Time>
            <Position>
              <LatitudeDegrees>42.9605704732239246368408203125</LatitudeDegrees>
              <LongitudeDegrees>-1.78952417336404323577880859375</LongitudeDegrees>
            </Position>
            <AltitudeMeters>530.79998779296875</AltitudeMeters>
            <DistanceMeters>37472.771400061</DistanceMeters>
          </Trackpoint>
          <Trackpoint>
            <Time>2018-08-26T07:10:41.000Z</Time>
            <Position>
              <LatitudeDegrees>42.96067315153777599334716796875</LatitudeDegrees>
              <LongitudeDegrees>-1.78959734737873077392578125</LongitudeDegrees>
            </Position>
            <AltitudeMeters>530.4000244140625</AltitudeMeters>
            <DistanceMeters>37485.660750177</DistanceMeters>
          </Trackpoint>
          <Trackpoint>
            <Time>2018-08-26T07:10:42.000Z</Time>
            <Position>
              <LatitudeDegrees>42.9607639275491237640380859375</LatitudeDegrees>
              <LongitudeDegrees>-1.78967789746820926666259765625</LongitudeDegrees>
            </Position>
            <AltitudeMeters>530.20001220703125</AltitudeMeters>
            <DistanceMeters>37497.707799136</DistanceMeters>
          </Trackpoint>
          <Trackpoint>
            <Time>2018-08-26T07:10:43.000Z</Time>
            <Position>
              <LatitudeDegrees>42.960823439061641693115234375</LatitudeDegrees>
              <LongitudeDegrees>-1.789771020412445068359375</LongitudeDegrees>
            </Position>
            <AltitudeMeters>529.5999755859375</AltitudeMeters>
            <DistanceMeters>37507.777941065</DistanceMeters>
          </Trackpoint>
          <Trackpoint>
            <Time>2018-08-26T07:10:44.000Z</Time>
            <Position>
              <LatitudeDegrees>42.96084699220955371856689453125</LatitudeDegrees>
              <LongitudeDegrees>-1.7898769676685333251953125</LongitudeDegrees>
            </Position>
            <AltitudeMeters>529.20001220703125</AltitudeMeters>
            <DistanceMeters>37516.796972532</DistanceMeters>
          </Trackpoint>
          <Trackpoint>
            <Time>2018-08-26T07:10:45.000Z</Time>
            <Position>
              <LatitudeDegrees>42.96082721091806888580322265625</LatitudeDegrees>
              <LongitudeDegrees>-1.7899867706000804901123046875</LongitudeDegrees>
            </Position>
            <AltitudeMeters>528.79998779296875</AltitudeMeters>
            <DistanceMeters>37526.007703675</DistanceMeters>
          </Trackpoint>
          <Trackpoint>
            <Time>2018-08-26T07:10:46.000Z</Time>
            <Position>
              <LatitudeDegrees>42.960778512060642242431640625</LatitudeDegrees>
              <LongitudeDegrees>-1.79008408449590206146240234375</LongitudeDegrees>
            </Position>
            <AltitudeMeters>528.4000244140625</AltitudeMeters>
            <DistanceMeters>37535.609634756</DistanceMeters>
          </Trackpoint>
          <Trackpoint>
            <Time>2018-08-26T07:10:47.000Z</Time>
            <Position>
              <LatitudeDegrees>42.96070910990238189697265625</LatitudeDegrees>
              <LongitudeDegrees>-1.79013890214264392852783203125</LongitudeDegrees>
            </Position>
            <AltitudeMeters>527.79998779296875</AltitudeMeters>
            <DistanceMeters>37544.532030955</DistanceMeters>
          </Trackpoint>
          <Trackpoint>
            <Time>2018-08-26T07:10:48.000Z</Time>
            <Position>
              <LatitudeDegrees>42.9606284759938716888427734375</LatitudeDegrees>
              <LongitudeDegrees>-1.79016773588955402374267578125</LongitudeDegrees>
            </Position>
            <AltitudeMeters>527.4000244140625</AltitudeMeters>
            <DistanceMeters>37553.809188849</DistanceMeters>
          </Trackpoint>
          <Trackpoint>
            <Time>2018-08-26T07:10:49.000Z</Time>
            <Position>
              <LatitudeDegrees>42.96054742299020290374755859375</LatitudeDegrees>
              <LongitudeDegrees>-1.7901922948658466339111328125</LongitudeDegrees>
            </Position>
            <AltitudeMeters>527.20001220703125</AltitudeMeters>
            <DistanceMeters>37563.049284778</DistanceMeters>
          </Trackpoint>
          <Trackpoint>
            <Time>2018-08-26T07:10:50.000Z</Time>
            <Position>
              <LatitudeDegrees>42.9604692198336124420166015625</LatitudeDegrees>
              <LongitudeDegrees>-1.790212579071521759033203125</LongitudeDegrees>
            </Position>
            <AltitudeMeters>527</AltitudeMeters>
            <DistanceMeters>37571.908710519</DistanceMeters>
          </Trackpoint>
          <Trackpoint>
            <Time>2018-08-26T07:10:51.000Z</Time>
            <Position>
              <LatitudeDegrees>42.9603931121528148651123046875</LatitudeDegrees>
              <LongitudeDegrees>-1.79023034870624542236328125</LongitudeDegrees>
            </Position>
            <AltitudeMeters>527</AltitudeMeters>
            <DistanceMeters>37580.502719783</DistanceMeters>
          </Trackpoint>
          <Trackpoint>
            <Time>2018-08-26T07:10:52.000Z</Time>
            <Position>
              <LatitudeDegrees>42.96031893230974674224853515625</LatitudeDegrees>
              <LongitudeDegrees>-1.79024551995098590850830078125</LongitudeDegrees>
            </Position>
            <AltitudeMeters>527</AltitudeMeters>
            <DistanceMeters>37588.851561623</DistanceMeters>
          </Trackpoint>
          <Trackpoint>
            <Time>2018-08-26T07:10:53.000Z</Time>
            <Position>
              <LatitudeDegrees>42.9602502845227718353271484375</LatitudeDegrees>
              <LongitudeDegrees>-1.79025943391025066375732421875</LongitudeDegrees>
            </Position>
            <AltitudeMeters>527</AltitudeMeters>
            <DistanceMeters>37596.576245768</DistanceMeters>
          </Trackpoint>
          <Trackpoint>
            <Time>2018-08-26T07:10:54.000Z</Time>
            <Position>
              <LatitudeDegrees>42.96018683351576328277587890625</LatitudeDegrees>
              <LongitudeDegrees>-1.79026949219405651092529296875</LongitudeDegrees>
            </Position>
            <AltitudeMeters>527</AltitudeMeters>
            <DistanceMeters>37603.686123962</DistanceMeters>
          </Trackpoint>
          <Trackpoint>
            <Time>2018-08-26T07:10:55.000Z</Time>
            <Position>
              <LatitudeDegrees>42.960128076374530792236328125</LatitudeDegrees>
              <LongitudeDegrees>-1.79028139449656009674072265625</LongitudeDegrees>
            </Position>
            <AltitudeMeters>527</AltitudeMeters>
            <DistanceMeters>37610.297142793</DistanceMeters>
          </Trackpoint>
          <Trackpoint>
            <Time>2018-08-26T07:10:56.000Z</Time>
            <Position>
              <LatitudeDegrees>42.960074432194232940673828125</LatitudeDegrees>
              <LongitudeDegrees>-1.790297739207744598388671875</LongitudeDegrees>
            </Position>
            <AltitudeMeters>527</AltitudeMeters>
            <DistanceMeters>37616.414383739</DistanceMeters>
          </Trackpoint>
          <Trackpoint>
            <Time>2018-08-26T07:10:57.000Z</Time>
            <Position>
              <LatitudeDegrees>42.9600300081074237823486328125</LatitudeDegrees>
              <LongitudeDegrees>-1.79032699204981327056884765625</LongitudeDegrees>
            </Position>
            <AltitudeMeters>527</AltitudeMeters>
            <DistanceMeters>37621.903770325</DistanceMeters>
          </Trackpoint>
          <Trackpoint>
            <Time>2018-08-26T07:10:58.000Z</Time>
            <Position>
              <LatitudeDegrees>42.96000528149306774139404296875</LatitudeDegrees>
              <LongitudeDegrees>-1.79036789573729038238525390625</LongitudeDegrees>
            </Position>
            <AltitudeMeters>527.4000244140625</AltitudeMeters>
            <DistanceMeters>37626.225135629</DistanceMeters>
          </Trackpoint>
          <Trackpoint>
            <Time>2018-08-26T07:10:59.000Z</Time>
            <Position>
              <LatitudeDegrees>42.96000159345567226409912109375</LatitudeDegrees>
              <LongitudeDegrees>-1.7904149182140827178955078125</LongitudeDegrees>
            </Position>
            <AltitudeMeters>527.79998779296875</AltitudeMeters>
            <DistanceMeters>37630.07577006</DistanceMeters>
          </Trackpoint>
          <Trackpoint>
            <Time>2018-08-26T07:11:00.000Z</Time>
            <Position>
              <LatitudeDegrees>42.96001911163330078125</LatitudeDegrees>
              <LongitudeDegrees>-1.79045121185481548309326171875</LongitudeDegrees>
            </Position>
            <AltitudeMeters>528.20001220703125</AltitudeMeters>
            <DistanceMeters>37633.618622901</DistanceMeters>
          </Trackpoint>
          <Trackpoint>
            <Time>2018-08-26T07:11:01.000Z</Time>
            <Position>
              <LatitudeDegrees>42.96005330979824066162109375</LatitudeDegrees>
              <LongitudeDegrees>-1.79047887213528156280517578125</LongitudeDegrees>
            </Position>
            <AltitudeMeters>528.4000244140625</AltitudeMeters>
            <DistanceMeters>37638.043236526</DistanceMeters>
          </Trackpoint>
          <Trackpoint>
            <Time>2018-08-26T07:11:02.000Z</Time>
            <Position>
              <LatitudeDegrees>42.9600943811237812042236328125</LatitudeDegrees>
              <LongitudeDegrees>-1.79049949161708354949951171875</LongitudeDegrees>
            </Position>
            <AltitudeMeters>528.79998779296875</AltitudeMeters>
            <DistanceMeters>37642.912834122</DistanceMeters>
          </Trackpoint>
          <Trackpoint>
            <Time>2018-08-26T07:11:03.000Z</Time>
            <Position>
              <LatitudeDegrees>42.96014006249606609344482421875</LatitudeDegrees>
              <LongitudeDegrees>-1.7905178479850292205810546875</LongitudeDegrees>
            </Position>
            <AltitudeMeters>529.20001220703125</AltitudeMeters>
            <DistanceMeters>37648.212224439</DistanceMeters>
          </Trackpoint>
          <Trackpoint>
            <Time>2018-08-26T07:11:04.000Z</Time>
            <Position>
              <LatitudeDegrees>42.96018800698220729827880859375</LatitudeDegrees>
              <LongitudeDegrees>-1.7905342765152454376220703125</LongitudeDegrees>
            </Position>
            <AltitudeMeters>529.4000244140625</AltitudeMeters>
            <DistanceMeters>37653.713934741</DistanceMeters>
          </Trackpoint>
          <Trackpoint>
            <Time>2018-08-26T07:11:05.000Z</Time>
            <Position>
              <LatitudeDegrees>42.9602382145822048187255859375</LatitudeDegrees>
              <LongitudeDegrees>-1.79055581800639629364013671875</LongitudeDegrees>
            </Position>
            <AltitudeMeters>529.5999755859375</AltitudeMeters>
            <DistanceMeters>37659.571774828</DistanceMeters>
          </Trackpoint>
          <Trackpoint>
            <Time>2018-08-26T07:11:06.000Z</Time>
            <Position>
              <LatitudeDegrees>42.96028758399188518524169921875</LatitudeDegrees>
              <LongitudeDegrees>-1.79058565758168697357177734375</LongitudeDegrees>
            </Position>
            <AltitudeMeters>529.79998779296875</AltitudeMeters>
            <DistanceMeters>37665.580289255</DistanceMeters>
          </Trackpoint>
          <Trackpoint>
            <Time>2018-08-26T07:11:07.000Z</Time>
            <Position>
              <LatitudeDegrees>42.96033401973545551300048828125</LatitudeDegrees>
              <LongitudeDegrees>-1.79062203504145145416259765625</LongitudeDegrees>
            </Position>
            <AltitudeMeters>530.20001220703125</AltitudeMeters>
            <DistanceMeters>37671.537486619</DistanceMeters>
          </Trackpoint>
          <Trackpoint>
            <Time>2018-08-26T07:11:08.000Z</Time>
            <Position>
              <LatitudeDegrees>42.96037961728870868682861328125</LatitudeDegrees>
              <LongitudeDegrees>-1.79066008888185024261474609375</LongitudeDegrees>
            </Position>
            <AltitudeMeters>530.5999755859375</AltitudeMeters>
            <DistanceMeters>37677.484063731</DistanceMeters>
          </Trackpoint>
          <Trackpoint>
            <Time>2018-08-26T07:11:09.000Z</Time>
            <Position>
              <LatitudeDegrees>42.96042487956583499908447265625</LatitudeDegrees>
              <LongitudeDegrees>-1.7906965501606464385986328125</LongitudeDegrees>
            </Position>
            <AltitudeMeters>531</AltitudeMeters>
            <DistanceMeters>37683.331875244</DistanceMeters>
          </Trackpoint>
          <Trackpoint>
            <Time>2018-08-26T07:11:10.000Z</Time>
            <Position>
              <LatitudeDegrees>42.96046930365264415740966796875</LatitudeDegrees>
              <LongitudeDegrees>-1.79073116742074489593505859375</LongitudeDegrees>
            </Position>
            <AltitudeMeters>531.4000244140625</AltitudeMeters>
            <DistanceMeters>37689.022380857</DistanceMeters>
          </Trackpoint>
          <Trackpoint>
            <Time>2018-08-26T07:11:11.000Z</Time>
            <Position>
              <LatitudeDegrees>42.9605134762823581695556640625</LatitudeDegrees>
              <LongitudeDegrees>-1.79076402448117733001708984375</LongitudeDegrees>
            </Position>
            <AltitudeMeters>531.79998779296875</AltitudeMeters>
            <DistanceMeters>37694.620091573</DistanceMeters>
          </Trackpoint>
          <Trackpoint>
            <Time>2018-08-26T07:11:12.000Z</Time>
            <Position>
              <LatitudeDegrees>42.96055882237851619720458984375</LatitudeDegrees>
              <LongitudeDegrees>-1.7907974682748317718505859375</LongitudeDegrees>
            </Position>
            <AltitudeMeters>532.20001220703125</AltitudeMeters>
            <DistanceMeters>37700.355644596</DistanceMeters>
          </Trackpoint>
          <Trackpoint>
            <Time>2018-08-26T07:11:13.000Z</Time>
            <Position>
              <LatitudeDegrees>42.9606040008366107940673828125</LatitudeDegrees>
              <LongitudeDegrees>-1.790831498801708221435546875</LongitudeDegrees>
            </Position>
            <AltitudeMeters>532.4000244140625</AltitudeMeters>
            <DistanceMeters>37706.098278067</DistanceMeters>
          </Trackpoint>
          <Trackpoint>
            <Time>2018-08-26T07:11:14.000Z</Time>
            <Position>
              <LatitudeDegrees>42.9606482572853565216064453125</LatitudeDegrees>
              <LongitudeDegrees>-1.7908638529479503631591796875</LongitudeDegrees>
            </Position>
            <AltitudeMeters>532.79998779296875</AltitudeMeters>
            <DistanceMeters>37711.684685158</DistanceMeters>
          </Trackpoint>
          <Trackpoint>
            <Time>2018-08-26T07:11:15.000Z</Time>
            <Position>
              <LatitudeDegrees>42.96069293282926082611083984375</LatitudeDegrees>
              <LongitudeDegrees>-1.79089696146547794342041015625</LongitudeDegrees>
            </Position>
            <AltitudeMeters>533</AltitudeMeters>
            <DistanceMeters>37717.340970232</DistanceMeters>
          </Trackpoint>
          <Trackpoint>
            <Time>2018-08-26T07:11:16.000Z</Time>
            <Position>
              <LatitudeDegrees>42.96073702163994312286376953125</LatitudeDegrees>
              <LongitudeDegrees>-1.79093199782073497772216796875</LongitudeDegrees>
            </Position>
            <AltitudeMeters>533.4000244140625</AltitudeMeters>
            <DistanceMeters>37723.017176073</DistanceMeters>
          </Trackpoint>
          <Trackpoint>
            <Time>2018-08-26T07:11:17.000Z</Time>
            <Position>
              <LatitudeDegrees>42.96078043989837169647216796875</LatitudeDegrees>
              <LongitudeDegrees>-1.790966279804706573486328125</LongitudeDegrees>
            </Position>
            <AltitudeMeters>533.5999755859375</AltitudeMeters>
            <DistanceMeters>37728.597922767</DistanceMeters>
          </Trackpoint>
          <Trackpoint>
            <Time>2018-08-26T07:11:18.000Z</Time>
            <Position>
              <LatitudeDegrees>42.9608242772519588470458984375</LatitudeDegrees>
              <LongitudeDegrees>-1.790995113551616668701171875</LongitudeDegrees>
            </Position>
            <AltitudeMeters>534</AltitudeMeters>
            <DistanceMeters>37734.013611854</DistanceMeters>
          </Trackpoint>
          <Trackpoint>
            <Time>2018-08-26T07:11:19.000Z</Time>
            <Position>
              <LatitudeDegrees>42.960869036614894866943359375</LatitudeDegrees>
              <LongitudeDegrees>-1.7910180799663066864013671875</LongitudeDegrees>
            </Position>
            <AltitudeMeters>534.4000244140625</AltitudeMeters>
            <DistanceMeters>37739.335956244</DistanceMeters>
          </Trackpoint>
          <Trackpoint>
            <Time>2018-08-26T07:11:20.000Z</Time>
            <Position>
              <LatitudeDegrees>42.9609161429107189178466796875</LatitudeDegrees>
              <LongitudeDegrees>-1.79104146547615528106689453125</LongitudeDegrees>
            </Position>
            <AltitudeMeters>534.79998779296875</AltitudeMeters>
            <DistanceMeters>37744.914275294</DistanceMeters>
          </Trackpoint>
          <Trackpoint>
            <Time>2018-08-26T07:11:21.000Z</Time>
            <Position>
              <LatitudeDegrees>42.9609634168446063995361328125</LatitudeDegrees>
              <LongitudeDegrees>-1.791066192090511322021484375</LongitudeDegrees>
            </Position>
            <AltitudeMeters>535</AltitudeMeters>
            <DistanceMeters>37750.548966836</DistanceMeters>
          </Trackpoint>
          <Trackpoint>
            <Time>2018-08-26T07:11:22.000Z</Time>
            <Position>
              <LatitudeDegrees>42.9610083438456058502197265625</LatitudeDegrees>
              <LongitudeDegrees>-1.79108873941004276275634765625</LongitudeDegrees>
            </Position>
            <AltitudeMeters>535.20001220703125</AltitudeMeters>
            <DistanceMeters>37755.8763987</DistanceMeters>
          </Trackpoint>
          <Trackpoint>
            <Time>2018-08-26T07:11:23.000Z</Time>
            <Position>
              <LatitudeDegrees>42.96105436049401760101318359375</LatitudeDegrees>
              <LongitudeDegrees>-1.79110835306346416473388671875</LongitudeDegrees>
            </Position>
            <AltitudeMeters>535.4000244140625</AltitudeMeters>
            <DistanceMeters>37761.241832858</DistanceMeters>
          </Trackpoint>
          <Trackpoint>
            <Time>2018-08-26T07:11:24.000Z</Time>
            <Position>
              <LatitudeDegrees>42.96110213734209537506103515625</LatitudeDegrees>
              <LongitudeDegrees>-1.7911290563642978668212890625</LongitudeDegrees>
            </Position>
            <AltitudeMeters>535.79998779296875</AltitudeMeters>
            <DistanceMeters>37766.820151908</DistanceMeters>
          </Trackpoint>
          <Trackpoint>
            <Time>2018-08-26T07:11:25.000Z</Time>
            <Position>
              <LatitudeDegrees>42.961150668561458587646484375</LatitudeDegrees>
              <LongitudeDegrees>-1.791153363883495330810546875</LongitudeDegrees>
            </Position>
            <AltitudeMeters>536.20001220703125</AltitudeMeters>
            <DistanceMeters>37772.572212417</DistanceMeters>
          </Trackpoint>
          <Trackpoint>
            <Time>2018-08-26T07:11:26.000Z</Time>
            <Position>
              <LatitudeDegrees>42.96119861304759979248046875</LatitudeDegrees>
              <LongitudeDegrees>-1.79117985069751739501953125</LongitudeDegrees>
            </Position>
            <AltitudeMeters>536.20001220703125</AltitudeMeters>
            <DistanceMeters>37778.328196301</DistanceMeters>
          </Trackpoint>
          <Trackpoint>
            <Time>2018-08-26T07:11:27.000Z</Time>
            <Position>
              <LatitudeDegrees>42.96124781481921672821044921875</LatitudeDegrees>
              <LongitudeDegrees>-1.79120667278766632080078125</LongitudeDegrees>
            </Position>
            <AltitudeMeters>536.4000244140625</AltitudeMeters>
            <DistanceMeters>37784.224448865</DistanceMeters>
          </Trackpoint>
          <Trackpoint>
            <Time>2018-08-26T07:11:28.000Z</Time>
            <Position>
              <LatitudeDegrees>42.96129676513373851776123046875</LatitudeDegrees>
              <LongitudeDegrees>-1.7912333272397518157958984375</LongitudeDegrees>
            </Position>
            <AltitudeMeters>536.79998779296875</AltitudeMeters>
            <DistanceMeters>37790.089991573</DistanceMeters>
          </Trackpoint>
          <Trackpoint>
            <Time>2018-08-26T07:11:29.000Z</Time>
            <Position>
              <LatitudeDegrees>42.9613456316292285919189453125</LatitudeDegrees>
              <LongitudeDegrees>-1.7912624962627887725830078125</LongitudeDegrees>
            </Position>
            <AltitudeMeters>537</AltitudeMeters>
            <DistanceMeters>37796.025168757</DistanceMeters>
          </Trackpoint>
          <Trackpoint>
            <Time>2018-08-26T07:11:30.000Z</Time>
            <Position>
              <LatitudeDegrees>42.96139298938214778900146484375</LatitudeDegrees>
              <LongitudeDegrees>-1.7912966944277286529541015625</LongitudeDegrees>
            </Position>
            <AltitudeMeters>537.20001220703125</AltitudeMeters>
            <DistanceMeters>37801.986911865</DistanceMeters>
          </Trackpoint>
          <Trackpoint>
            <Time>2018-08-26T07:11:31.000Z</Time>
            <Position>
              <LatitudeDegrees>42.961438335478305816650390625</LatitudeDegrees>
              <LongitudeDegrees>-1.7913345806300640106201171875</LongitudeDegrees>
            </Position>
            <AltitudeMeters>537.20001220703125</AltitudeMeters>
            <DistanceMeters>37807.90227713</DistanceMeters>
          </Trackpoint>
          <Trackpoint>
            <Time>2018-08-26T07:11:32.000Z</Time>
            <Position>
              <LatitudeDegrees>42.96148301102221012115478515625</LatitudeDegrees>
              <LongitudeDegrees>-1.79137607105076313018798828125</LongitudeDegrees>
            </Position>
            <AltitudeMeters>537.4000244140625</AltitudeMeters>
            <DistanceMeters>37813.914547583</DistanceMeters>
          </Trackpoint>
          <Trackpoint>
            <Time>2018-08-26T07:11:33.000Z</Time>
            <Position>
              <LatitudeDegrees>42.96152626164257526397705078125</LatitudeDegrees>
              <LongitudeDegrees>-1.79142049513757228851318359375</LongitudeDegrees>
            </Position>
            <AltitudeMeters>537.4000244140625</AltitudeMeters>
            <DistanceMeters>37819.936572741</DistanceMeters>
          </Trackpoint>
          <Trackpoint>
            <Time>2018-08-26T07:11:34.000Z</Time>
            <Position>
              <LatitudeDegrees>42.961566746234893798828125</LatitudeDegrees>
              <LongitudeDegrees>-1.7914660088717937469482421875</LongitudeDegrees>
            </Position>
            <AltitudeMeters>537.5999755859375</AltitudeMeters>
            <DistanceMeters>37825.771243957</DistanceMeters>
          </Trackpoint>
          <Trackpoint>
            <Time>2018-08-26T07:11:35.000Z</Time>
            <Position>
              <LatitudeDegrees>42.96160505153238773345947265625</LatitudeDegrees>
              <LongitudeDegrees>-1.791510768234729766845703125</LongitudeDegrees>
            </Position>
            <AltitudeMeters>537.5999755859375</AltitudeMeters>
            <DistanceMeters>37831.380235518</DistanceMeters>
          </Trackpoint>
          <Trackpoint>
            <Time>2018-08-26T07:11:36.000Z</Time>
            <Position>
              <LatitudeDegrees>42.96164243482053279876708984375</LatitudeDegrees>
              <LongitudeDegrees>-1.79155611433088779449462890625</LongitudeDegrees>
            </Position>
            <AltitudeMeters>537.79998779296875</AltitudeMeters>
            <DistanceMeters>37836.943966464</DistanceMeters>
          </Trackpoint>
          <Trackpoint>
            <Time>2018-08-26T07:11:37.000Z</Time>
            <Position>
              <LatitudeDegrees>42.96167797408998012542724609375</LatitudeDegrees>
              <LongitudeDegrees>-1.79160221479833126068115234375</LongitudeDegrees>
            </Position>
            <AltitudeMeters>537.79998779296875</AltitudeMeters>
            <DistanceMeters>37842.397870736</DistanceMeters>
          </Trackpoint>
          <Trackpoint>
            <Time>2018-08-26T07:11:38.000Z</Time>
            <Position>
              <LatitudeDegrees>42.961712591350078582763671875</LatitudeDegrees>
              <LongitudeDegrees>-1.7916472256183624267578125</LongitudeDegrees>
            </Position>
            <AltitudeMeters>538</AltitudeMeters>
            <DistanceMeters>37847.715971847</DistanceMeters>
          </Trackpoint>
          <Trackpoint>
            <Time>2018-08-26T07:11:39.000Z</Time>
            <Position>
              <LatitudeDegrees>42.96174469403922557830810546875</LatitudeDegrees>
              <LongitudeDegrees>-1.79169458337128162384033203125</LongitudeDegrees>
            </Position>
            <AltitudeMeters>538.4000244140625</AltitudeMeters>
            <DistanceMeters>37852.974307522</DistanceMeters>
          </Trackpoint>
          <Trackpoint>
            <Time>2018-08-26T07:11:40.000Z</Time>
            <Position>
              <LatitudeDegrees>42.9617731086909770965576171875</LatitudeDegrees>
              <LongitudeDegrees>-1.79174487479031085968017578125</LongitudeDegrees>
            </Position>
            <AltitudeMeters>538.5999755859375</AltitudeMeters>
            <DistanceMeters>37858.149556959</DistanceMeters>
          </Trackpoint>
          <Trackpoint>
            <Time>2018-08-26T07:11:41.000Z</Time>
            <Position>
              <LatitudeDegrees>42.96179951168596744537353515625</LatitudeDegrees>
              <LongitudeDegrees>-1.79179784841835498809814453125</LongitudeDegrees>
            </Position>
            <AltitudeMeters>538.79998779296875</AltitudeMeters>
            <DistanceMeters>37863.369975592</DistanceMeters>
          </Trackpoint>
          <Trackpoint>
            <Time>2018-08-26T07:11:42.000Z</Time>
            <Position>
              <LatitudeDegrees>42.9618264175951480865478515625</LatitudeDegrees>
              <LongitudeDegrees>-1.7918529175221920013427734375</LongitudeDegrees>
            </Position>
            <AltitudeMeters>539</AltitudeMeters>
            <DistanceMeters>37868.76394503</DistanceMeters>
          </Trackpoint>
          <Trackpoint>
            <Time>2018-08-26T07:11:43.000Z</Time>
            <Position>
              <LatitudeDegrees>42.96185097657144069671630859375</LatitudeDegrees>
              <LongitudeDegrees>-1.791903041303157806396484375</LongitudeDegrees>
            </Position>
            <AltitudeMeters>539</AltitudeMeters>
            <DistanceMeters>37873.676927255</DistanceMeters>
          </Trackpoint>
          <Trackpoint>
            <Time>2018-08-26T07:11:44.000Z</Time>
            <Position>
              <LatitudeDegrees>42.9618770442903041839599609375</LatitudeDegrees>
              <LongitudeDegrees>-1.79195442236959934234619140625</LongitudeDegrees>
            </Position>
            <AltitudeMeters>539.20001220703125</AltitudeMeters>
            <DistanceMeters>37878.769508088</DistanceMeters>
          </Trackpoint>
          <Trackpoint>
            <Time>2018-08-26T07:11:45.000Z</Time>
            <Position>
              <LatitudeDegrees>42.96190411783754825592041015625</LatitudeDegrees>
              <LongitudeDegrees>-1.7920047976076602935791015625</LongitudeDegrees>
            </Position>
            <AltitudeMeters>539.4000244140625</AltitudeMeters>
            <DistanceMeters>37883.859428453</DistanceMeters>
          </Trackpoint>
          <Trackpoint>
            <Time>2018-08-26T07:11:46.000Z</Time>
            <Position>
              <LatitudeDegrees>42.961931191384792327880859375</LatitudeDegrees>
              <LongitudeDegrees>-1.79205584339797496795654296875</LongitudeDegrees>
            </Position>
            <AltitudeMeters>539.5999755859375</AltitudeMeters>
            <DistanceMeters>37888.994389331</DistanceMeters>
          </Trackpoint>
          <Trackpoint>
            <Time>2018-08-26T07:11:47.000Z</Time>
            <Position>
              <LatitudeDegrees>42.96195759437978267669677734375</LatitudeDegrees>
              <LongitudeDegrees>-1.79210923612117767333984375</LongitudeDegrees>
            </Position>
            <AltitudeMeters>539.79998779296875</AltitudeMeters>
            <DistanceMeters>37894.244131544</DistanceMeters>
          </Trackpoint>
          <Trackpoint>
            <Time>2018-08-26T07:11:48.000Z</Time>
            <Position>
              <LatitudeDegrees>42.96198324300348758697509765625</LatitudeDegrees>
              <LongitudeDegrees>-1.7921633832156658172607421875</LongitudeDegrees>
            </Position>
            <AltitudeMeters>539.79998779296875</AltitudeMeters>
            <DistanceMeters>37899.497312829</DistanceMeters>
          </Trackpoint>
          <Trackpoint>
            <Time>2018-08-26T07:11:49.000Z</Time>
            <Position>
              <LatitudeDegrees>42.96201040036976337432861328125</LatitudeDegrees>
              <LongitudeDegrees>-1.792214848101139068603515625</LongitudeDegrees>
            </Position>
            <AltitudeMeters>540</AltitudeMeters>
            <DistanceMeters>37904.66557812</DistanceMeters>
          </Trackpoint>
          <Trackpoint>
            <Time>2018-08-26T07:11:50.000Z</Time>
            <Position>
              <LatitudeDegrees>42.96203873120248317718505859375</LatitudeDegrees>
              <LongitudeDegrees>-1.79226421751081943511962890625</LongitudeDegrees>
            </Position>
            <AltitudeMeters>540.4000244140625</AltitudeMeters>
            <DistanceMeters>37909.775860018</DistanceMeters>
          </Trackpoint>
          <Trackpoint>
            <Time>2018-08-26T07:11:51.000Z</Time>
            <Position>
              <LatitudeDegrees>42.962067313492298126220703125</LatitudeDegrees>
              <LongitudeDegrees>-1.79231710731983184814453125</LongitudeDegrees>
            </Position>
            <AltitudeMeters>540.5999755859375</AltitudeMeters>
            <DistanceMeters>37915.131186599</DistanceMeters>
          </Trackpoint>
          <Trackpoint>
            <Time>2018-08-26T07:11:52.000Z</Time>
            <Position>
              <LatitudeDegrees>42.9620964825153350830078125</LatitudeDegrees>
              <LongitudeDegrees>-1.7923709191381931304931640625</LongitudeDegrees>
            </Position>
            <AltitudeMeters>540.79998779296875</AltitudeMeters>
            <DistanceMeters>37920.586746328</DistanceMeters>
          </Trackpoint>
          <Trackpoint>
            <Time>2018-08-26T07:11:53.000Z</Time>
            <Position>
              <LatitudeDegrees>42.9621261544525623321533203125</LatitudeDegrees>
              <LongitudeDegrees>-1.79242397658526897430419921875</LongitudeDegrees>
            </Position>
            <AltitudeMeters>541</AltitudeMeters>
            <DistanceMeters>37926.025728809</DistanceMeters>
          </Trackpoint>
          <Trackpoint>
            <Time>2018-08-26T07:11:54.000Z</Time>
            <Position>
              <LatitudeDegrees>42.96215825714170932769775390625</LatitudeDegrees>
              <LongitudeDegrees>-1.792475022375583648681640625</LongitudeDegrees>
            </Position>
            <AltitudeMeters>541.20001220703125</AltitudeMeters>
            <DistanceMeters>37931.507707868</DistanceMeters>
          </Trackpoint>
          <Trackpoint>
            <Time>2018-08-26T07:11:55.000Z</Time>
            <Position>
              <LatitudeDegrees>42.9621928744018077850341796875</LatitudeDegrees>
              <LongitudeDegrees>-1.79251533932983875274658203125</LongitudeDegrees>
            </Position>
            <AltitudeMeters>541.4000244140625</AltitudeMeters>
            <DistanceMeters>37936.570054849</DistanceMeters>
          </Trackpoint>
          <Trackpoint>
            <Time>2018-08-26T07:11:56.000Z</Time>
            <Position>
              <LatitudeDegrees>42.96223084442317485809326171875</LatitudeDegrees>
              <LongitudeDegrees>-1.792535372078418731689453125</LongitudeDegrees>
            </Position>
            <AltitudeMeters>541.79998779296875</AltitudeMeters>
            <DistanceMeters>37941.099550812</DistanceMeters>
          </Trackpoint>
          <Trackpoint>
            <Time>2018-08-26T07:11:57.000Z</Time>
            <Position>
              <LatitudeDegrees>42.9622730053961277008056640625</LatitudeDegrees>
              <LongitudeDegrees>-1.79253612644970417022705078125</LongitudeDegrees>
            </Position>
            <AltitudeMeters>541.79998779296875</AltitudeMeters>
            <DistanceMeters>37945.793524238</DistanceMeters>
          </Trackpoint>
          <Trackpoint>
            <Time>2018-08-26T07:11:58.000Z</Time>
            <Position>
              <LatitudeDegrees>42.96231918968260288238525390625</LatitudeDegrees>
              <LongitudeDegrees>-1.79252204485237598419189453125</LongitudeDegrees>
            </Position>
            <AltitudeMeters>542</AltitudeMeters>
            <DistanceMeters>37951.060439353</DistanceMeters>
          </Trackpoint>
          <Trackpoint>
            <Time>2018-08-26T07:11:59.000Z</Time>
            <Position>
              <LatitudeDegrees>42.962362356483936309814453125</LatitudeDegrees>
              <LongitudeDegrees>-1.79249203763902187347412109375</LongitudeDegrees>
            </Position>
            <AltitudeMeters>542</AltitudeMeters>
            <DistanceMeters>37956.45105954</DistanceMeters>
          </Trackpoint>
          <Trackpoint>
            <Time>2018-08-26T07:12:00.000Z</Time>
            <Position>
              <LatitudeDegrees>42.9623967222869396209716796875</LatitudeDegrees>
              <LongitudeDegrees>-1.79244493134319782257080078125</LongitudeDegrees>
            </Position>
            <AltitudeMeters>542.20001220703125</AltitudeMeters>
            <DistanceMeters>37961.868415763</DistanceMeters>
          </Trackpoint>
          <Trackpoint>
            <Time>2018-08-26T07:12:01.000Z</Time>
            <Position>
              <LatitudeDegrees>42.96242379583418369293212890625</LatitudeDegrees>
              <LongitudeDegrees>-1.79238894023001194000244140625</LongitudeDegrees>
            </Position>
            <AltitudeMeters>542.20001220703125</AltitudeMeters>
            <DistanceMeters>37967.335549658</DistanceMeters>
          </Trackpoint>
          <Trackpoint>
            <Time>2018-08-26T07:12:02.000Z</Time>
            <Position>
              <LatitudeDegrees>42.9624520428478717803955078125</LatitudeDegrees>
              <LongitudeDegrees>-1.792334876954555511474609375</LongitudeDegrees>
            </Position>
            <AltitudeMeters>542.4000244140625</AltitudeMeters>
            <DistanceMeters>37972.746234257</DistanceMeters>
          </Trackpoint>
          <Trackpoint>
            <Time>2018-08-26T07:12:03.000Z</Time>
            <Position>
              <LatitudeDegrees>42.9624822176992893218994140625</LatitudeDegrees>
              <LongitudeDegrees>-1.79228198714554309844970703125</LongitudeDegrees>
            </Position>
            <AltitudeMeters>542.5999755859375</AltitudeMeters>
            <DistanceMeters>37978.208410799</DistanceMeters>
          </Trackpoint>
          <Trackpoint>
            <Time>2018-08-26T07:12:04.000Z</Time>
            <Position>
              <LatitudeDegrees>42.96250945888459682464599609375</LatitudeDegrees>
              <LongitudeDegrees>-1.79222750477492809295654296875</LongitudeDegrees>
            </Position>
            <AltitudeMeters>543</AltitudeMeters>
            <DistanceMeters>37983.582253415</DistanceMeters>
          </Trackpoint>
          <Trackpoint>
            <Time>2018-08-26T07:12:05.000Z</Time>
            <Position>
              <LatitudeDegrees>42.96253292821347713470458984375</LatitudeDegrees>
              <LongitudeDegrees>-1.79217319004237651824951171875</LongitudeDegrees>
            </Position>
            <AltitudeMeters>543.20001220703125</AltitudeMeters>
            <DistanceMeters>37988.71897254</DistanceMeters>
          </Trackpoint>
          <Trackpoint>
            <Time>2018-08-26T07:12:06.000Z</Time>
            <Position>
              <LatitudeDegrees>42.9625551402568817138671875</LatitudeDegrees>
              <LongitudeDegrees>-1.79212004877626895904541015625</LongitudeDegrees>
            </Position>
            <AltitudeMeters>543.4000244140625</AltitudeMeters>
            <DistanceMeters>37993.704027241</DistanceMeters>
          </Trackpoint>
          <Trackpoint>
            <Time>2018-08-26T07:12:07.000Z</Time>
            <Position>
              <LatitudeDegrees>42.96257869340479373931884765625</LatitudeDegrees>
              <LongitudeDegrees>-1.79206640459597110748291015625</LongitudeDegrees>
            </Position>
            <AltitudeMeters>543.5999755859375</AltitudeMeters>
            <DistanceMeters>37998.799267155</DistanceMeters>
          </Trackpoint>
          <Trackpoint>
            <Time>2018-08-26T07:12:08.000Z</Time>
            <Position>
              <LatitudeDegrees>42.9626049287617206573486328125</LatitudeDegrees>
              <LongitudeDegrees>-1.7920131795108318328857421875</LongitudeDegrees>
            </Position>
            <AltitudeMeters>543.79998779296875</AltitudeMeters>
            <DistanceMeters>38004.026600253</DistanceMeters>
          </Trackpoint>
          <Trackpoint>
            <Time>2018-08-26T07:12:09.000Z</Time>
            <Position>
              <LatitudeDegrees>42.96263116411864757537841796875</LatitudeDegrees>
              <LongitudeDegrees>-1.791962049901485443115234375</LongitudeDegrees>
            </Position>
            <AltitudeMeters>544.4000244140625</AltitudeMeters>
            <DistanceMeters>38009.11208341</DistanceMeters>
          </Trackpoint>
          <Trackpoint>
            <Time>2018-08-26T07:12:10.000Z</Time>
            <Position>
              <LatitudeDegrees>42.96265832148492336273193359375</LatitudeDegrees>
              <LongitudeDegrees>-1.7919125966727733612060546875</LongitudeDegrees>
            </Position>
            <AltitudeMeters>544.5999755859375</AltitudeMeters>
            <DistanceMeters>38014.147602713</DistanceMeters>
          </Trackpoint>
          <Trackpoint>
            <Time>2018-08-26T07:12:11.000Z</Time>
            <Position>
              <LatitudeDegrees>42.96268765814602375030517578125</LatitudeDegrees>
              <LongitudeDegrees>-1.79186440072953701019287109375</LongitudeDegrees>
            </Position>
            <AltitudeMeters>545</AltitudeMeters>
            <DistanceMeters>38019.254349307</DistanceMeters>
          </Trackpoint>
          <Trackpoint>
            <Time>2018-08-26T07:12:12.000Z</Time>
            <Position>
              <LatitudeDegrees>42.962716408073902130126953125</LatitudeDegrees>
              <LongitudeDegrees>-1.791813187301158905029296875</LongitudeDegrees>
            </Position>
            <AltitudeMeters>545.20001220703125</AltitudeMeters>
            <DistanceMeters>38024.511826268</DistanceMeters>
          </Trackpoint>
          <Trackpoint>
            <Time>2018-08-26T07:12:13.000Z</Time>
            <Position>
              <LatitudeDegrees>42.96274490654468536376953125</LatitudeDegrees>
              <LongitudeDegrees>-1.79176281206309795379638671875</LongitudeDegrees>
            </Position>
            <AltitudeMeters>545.5999755859375</AltitudeMeters>
            <DistanceMeters>38029.697534286</DistanceMeters>
          </Trackpoint>
          <Trackpoint>
            <Time>2018-08-26T07:12:14.000Z</Time>
            <Position>
              <LatitudeDegrees>42.9627750813961029052734375</LatitudeDegrees>
              <LongitudeDegrees>-1.79171629250049591064453125</LongitudeDegrees>
            </Position>
            <AltitudeMeters>546</AltitudeMeters>
            <DistanceMeters>38034.760773074</DistanceMeters>
          </Trackpoint>
          <Trackpoint>
            <Time>2018-08-26T07:12:15.000Z</Time>
            <Position>
              <LatitudeDegrees>42.962806932628154754638671875</LatitudeDegrees>
              <LongitudeDegrees>-1.7916758917272090911865234375</LongitudeDegrees>
            </Position>
            <AltitudeMeters>546.4000244140625</AltitudeMeters>
            <DistanceMeters>38039.59687667</DistanceMeters>
          </Trackpoint>
          <Trackpoint>
            <Time>2018-08-26T07:12:16.000Z</Time>
            <Position>
              <LatitudeDegrees>42.9628399573266506195068359375</LatitudeDegrees>
              <LongitudeDegrees>-1.79164110682904720306396484375</LongitudeDegrees>
            </Position>
            <AltitudeMeters>546.5999755859375</AltitudeMeters>
            <DistanceMeters>38044.237645175</DistanceMeters>
          </Trackpoint>
          <Trackpoint>
            <Time>2018-08-26T07:12:17.000Z</Time>
            <Position>
              <LatitudeDegrees>42.9628743231296539306640625</LatitudeDegrees>
              <LongitudeDegrees>-1.7916078306734561920166015625</LongitudeDegrees>
            </Position>
            <AltitudeMeters>546.79998779296875</AltitudeMeters>
            <DistanceMeters>38048.923917245</DistanceMeters>
          </Trackpoint>
          <Trackpoint>
            <Time>2018-08-26T07:12:18.000Z</Time>
            <Position>
              <LatitudeDegrees>42.96291111968457698822021484375</LatitudeDegrees>
              <LongitudeDegrees>-1.7915766499936580657958984375</LongitudeDegrees>
            </Position>
            <AltitudeMeters>547.20001220703125</AltitudeMeters>
            <DistanceMeters>38053.741312439</DistanceMeters>
          </Trackpoint>
          <Trackpoint>
            <Time>2018-08-26T07:12:19.000Z</Time>
            <Position>
              <LatitudeDegrees>42.9629499278962612152099609375</LatitudeDegrees>
              <LongitudeDegrees>-1.79154588840901851654052734375</LongitudeDegrees>
            </Position>
            <AltitudeMeters>547.5999755859375</AltitudeMeters>
            <DistanceMeters>38058.735416076</DistanceMeters>
          </Trackpoint>
          <Trackpoint>
            <Time>2018-08-26T07:12:20.000Z</Time>
            <Position>
              <LatitudeDegrees>42.962987311184406280517578125</LatitudeDegrees>
              <LongitudeDegrees>-1.79151604883372783660888671875</LongitudeDegrees>
            </Position>
            <AltitudeMeters>548</AltitudeMeters>
            <DistanceMeters>38063.553748416</DistanceMeters>
          </Trackpoint>
          <Trackpoint>
            <Time>2018-08-26T07:12:21.000Z</Time>
            <Position>
              <LatitudeDegrees>42.9630240239202976226806640625</LatitudeDegrees>
              <LongitudeDegrees>-1.7914867959916591644287109375</LongitudeDegrees>
            </Position>
            <AltitudeMeters>548.5999755859375</AltitudeMeters>
            <DistanceMeters>38068.284132061</DistanceMeters>
          </Trackpoint>
          <Trackpoint>
            <Time>2018-08-26T07:12:22.000Z</Time>
            <Position>
              <LatitudeDegrees>42.963057719171047210693359375</LatitudeDegrees>
              <LongitudeDegrees>-1.79145611822605133056640625</LongitudeDegrees>
            </Position>
            <AltitudeMeters>548.79998779296875</AltitudeMeters>
            <DistanceMeters>38072.789641116</DistanceMeters>
          </Trackpoint>
          <Trackpoint>
            <Time>2018-08-26T07:12:23.000Z</Time>
            <Position>
              <LatitudeDegrees>42.96309015713632106781005859375</LatitudeDegrees>
              <LongitudeDegrees>-1.7914261110126972198486328125</LongitudeDegrees>
            </Position>
            <AltitudeMeters>549.20001220703125</AltitudeMeters>
            <DistanceMeters>38077.148457565</DistanceMeters>
          </Trackpoint>
          <Trackpoint>
            <Time>2018-08-26T07:12:24.000Z</Time>
            <Position>
              <LatitudeDegrees>42.9631210863590240478515625</LatitudeDegrees>
              <LongitudeDegrees>-1.791396103799343109130859375</LongitudeDegrees>
            </Position>
            <AltitudeMeters>550</AltitudeMeters>
            <DistanceMeters>38081.370467857</DistanceMeters>
          </Trackpoint>
          <Trackpoint>
            <Time>2018-08-26T07:12:25.000Z</Time>
            <Position>
              <LatitudeDegrees>42.9631531052291393280029296875</LatitudeDegrees>
              <LongitudeDegrees>-1.79136618040502071380615234375</LongitudeDegrees>
            </Position>
            <AltitudeMeters>550.20001220703125</AltitudeMeters>
            <DistanceMeters>38085.687651867</DistanceMeters>
          </Trackpoint>
          <Trackpoint>
            <Time>2018-08-26T07:12:26.000Z</Time>
            <Position>
              <LatitudeDegrees>42.9631854593753814697265625</LatitudeDegrees>
              <LongitudeDegrees>-1.7913372628390789031982421875</LongitudeDegrees>
            </Position>
            <AltitudeMeters>550.5999755859375</AltitudeMeters>
            <DistanceMeters>38089.990169352</DistanceMeters>
          </Trackpoint>
          <Trackpoint>
            <Time>2018-08-26T07:12:27.000Z</Time>
            <Position>
              <LatitudeDegrees>42.96322108246386051177978515625</LatitudeDegrees>
              <LongitudeDegrees>-1.79130868054926395416259765625</LongitudeDegrees>
            </Position>
            <AltitudeMeters>550.5999755859375</AltitudeMeters>
            <DistanceMeters>38094.586948538</DistanceMeters>
          </Trackpoint>
          <Trackpoint>
            <Time>2018-08-26T07:12:28.000Z</Time>
            <Position>
              <LatitudeDegrees>42.963260896503925323486328125</LatitudeDegrees>
              <LongitudeDegrees>-1.79128102026879787445068359375</LongitudeDegrees>
            </Position>
            <AltitudeMeters>551</AltitudeMeters>
            <DistanceMeters>38099.559307063</DistanceMeters>
          </Trackpoint>
          <Trackpoint>
            <Time>2018-08-26T07:12:29.000Z</Time>
            <Position>
              <LatitudeDegrees>42.9633029736578464508056640625</LatitudeDegrees>
              <LongitudeDegrees>-1.791253946721553802490234375</LongitudeDegrees>
            </Position>
            <AltitudeMeters>551.20001220703125</AltitudeMeters>
            <DistanceMeters>38104.737173126</DistanceMeters>
          </Trackpoint>
          <Trackpoint>
            <Time>2018-08-26T07:12:30.000Z</Time>
            <Position>
              <LatitudeDegrees>42.96334329061210155487060546875</LatitudeDegrees>
              <LongitudeDegrees>-1.7912262864410877227783203125</LongitudeDegrees>
            </Position>
            <AltitudeMeters>551.5999755859375</AltitudeMeters>
            <DistanceMeters>38109.758325726</DistanceMeters>
          </Trackpoint>
          <Trackpoint>
            <Time>2018-08-26T07:12:31.000Z</Time>
            <Position>
              <LatitudeDegrees>42.96338335610926151275634765625</LatitudeDegrees>
              <LongitudeDegrees>-1.79120189510285854339599609375</LongitudeDegrees>
            </Position>
            <AltitudeMeters>552</AltitudeMeters>
            <DistanceMeters>38114.639036909</DistanceMeters>
          </Trackpoint>
          <Trackpoint>
            <Time>2018-08-26T07:12:32.000Z</Time>
            <Position>
              <LatitudeDegrees>42.9634233377873897552490234375</LatitudeDegrees>
              <LongitudeDegrees>-1.79117985069751739501953125</LongitudeDegrees>
            </Position>
            <AltitudeMeters>552.4000244140625</AltitudeMeters>
            <DistanceMeters>38119.436709768</DistanceMeters>
          </Trackpoint>
          <Trackpoint>
            <Time>2018-08-26T07:12:33.000Z</Time>
            <Position>
              <LatitudeDegrees>42.96346281655132770538330078125</LatitudeDegrees>
              <LongitudeDegrees>-1.791159398853778839111328125</LongitudeDegrees>
            </Position>
            <AltitudeMeters>552.5999755859375</AltitudeMeters>
            <DistanceMeters>38124.134529137</DistanceMeters>
          </Trackpoint>
          <Trackpoint>
            <Time>2018-08-26T07:12:34.000Z</Time>
            <Position>
              <LatitudeDegrees>42.96350355260074138641357421875</LatitudeDegrees>
              <LongitudeDegrees>-1.79114104248583316802978515625</LongitudeDegrees>
            </Position>
            <AltitudeMeters>552.79998779296875</AltitudeMeters>
            <DistanceMeters>38128.907670961</DistanceMeters>
          </Trackpoint>
          <Trackpoint>
            <Time>2018-08-26T07:12:35.000Z</Time>
            <Position>
              <LatitudeDegrees>42.96354412101209163665771484375</LatitudeDegrees>
              <LongitudeDegrees>-1.7911246977746486663818359375</LongitudeDegrees>
            </Position>
            <AltitudeMeters>552.79998779296875</AltitudeMeters>
            <DistanceMeters>38133.615091443</DistanceMeters>
          </Trackpoint>
          <Trackpoint>
            <Time>2018-08-26T07:12:36.000Z</Time>
            <Position>
              <LatitudeDegrees>42.96358401887118816375732421875</LatitudeDegrees>
              <LongitudeDegrees>-1.79111103527247905731201171875</LongitudeDegrees>
            </Position>
            <AltitudeMeters>553</AltitudeMeters>
            <DistanceMeters>38138.192184117</DistanceMeters>
          </Trackpoint>
          <Trackpoint>
            <Time>2018-08-26T07:12:37.000Z</Time>
            <Position>
              <LatitudeDegrees>42.96362525783479213714599609375</LatitudeDegrees>
              <LongitudeDegrees>-1.79110072553157806396484375</LongitudeDegrees>
            </Position>
            <AltitudeMeters>553</AltitudeMeters>
            <DistanceMeters>38142.859147196</DistanceMeters>
          </Trackpoint>
          <Trackpoint>
            <Time>2018-08-26T07:12:38.000Z</Time>
            <Position>
              <LatitudeDegrees>42.963667921721935272216796875</LatitudeDegrees>
              <LongitudeDegrees>-1.79109267890453338623046875</LongitudeDegrees>
            </Position>
            <AltitudeMeters>553.20001220703125</AltitudeMeters>
            <DistanceMeters>38147.653995956</DistanceMeters>
          </Trackpoint>
          <Trackpoint>
            <Time>2018-08-26T07:12:39.000Z</Time>
            <Position>
              <LatitudeDegrees>42.96371192671358585357666015625</LatitudeDegrees>
              <LongitudeDegrees>-1.7910861410200595855712890625</LongitudeDegrees>
            </Position>
            <AltitudeMeters>553.5999755859375</AltitudeMeters>
            <DistanceMeters>38152.580743918</DistanceMeters>
          </Trackpoint>
          <Trackpoint>
            <Time>2018-08-26T07:12:40.000Z</Time>
            <Position>
              <LatitudeDegrees>42.963756434619426727294921875</LatitudeDegrees>
              <LongitudeDegrees>-1.7910811118781566619873046875</LongitudeDegrees>
            </Position>
            <AltitudeMeters>554.20001220703125</AltitudeMeters>
            <DistanceMeters>38157.551286056</DistanceMeters>
          </Trackpoint>
          <Trackpoint>
            <Time>2018-08-26T07:12:41.000Z</Time>
            <Position>
              <LatitudeDegrees>42.96380027197301387786865234375</LatitudeDegrees>
              <LongitudeDegrees>-1.79107784293591976165771484375</LongitudeDegrees>
            </Position>
            <AltitudeMeters>554.4000244140625</AltitudeMeters>
            <DistanceMeters>38162.437544555</DistanceMeters>
          </Trackpoint>
          <Trackpoint>
            <Time>2018-08-26T07:12:42.000Z</Time>
            <Position>
              <LatitudeDegrees>42.96384327113628387451171875</LatitudeDegrees>
              <LongitudeDegrees>-1.7910759150981903076171875</LongitudeDegrees>
            </Position>
            <AltitudeMeters>554.79998779296875</AltitudeMeters>
            <DistanceMeters>38167.226740121</DistanceMeters>
          </Trackpoint>
          <Trackpoint>
            <Time>2018-08-26T07:12:43.000Z</Time>
            <Position>
              <LatitudeDegrees>42.963885851204395294189453125</LatitudeDegrees>
              <LongitudeDegrees>-1.791072227060794830322265625</LongitudeDegrees>
            </Position>
            <AltitudeMeters>555.20001220703125</AltitudeMeters>
            <DistanceMeters>38171.976174925</DistanceMeters>
          </Trackpoint>
          <Trackpoint>
            <Time>2018-08-26T07:12:44.000Z</Time>
            <Position>
              <LatitudeDegrees>42.96392935328185558319091796875</LatitudeDegrees>
              <LongitudeDegrees>-1.7910693772137165069580078125</LongitudeDegrees>
            </Position>
            <AltitudeMeters>555.5999755859375</AltitudeMeters>
            <DistanceMeters>38176.823468903</DistanceMeters>
          </Trackpoint>
          <Trackpoint>
            <Time>2018-08-26T07:12:45.000Z</Time>
            <Position>
              <LatitudeDegrees>42.9639725200831890106201171875</LatitudeDegrees>
              <LongitudeDegrees>-1.7910673655569553375244140625</LongitudeDegrees>
            </Position>
            <AltitudeMeters>556</AltitudeMeters>
            <DistanceMeters>38181.629604101</DistanceMeters>
          </Trackpoint>
          <Trackpoint>
            <Time>2018-08-26T07:12:46.000Z</Time>
            <Position>
              <LatitudeDegrees>42.9640151001513004302978515625</LatitudeDegrees>
              <LongitudeDegrees>-1.79106610827147960662841796875</LongitudeDegrees>
            </Position>
            <AltitudeMeters>556.20001220703125</AltitudeMeters>
            <DistanceMeters>38186.369522897</DistanceMeters>
          </Trackpoint>
          <Trackpoint>
            <Time>2018-08-26T07:12:47.000Z</Time>
            <Position>
              <LatitudeDegrees>42.96405860222876071929931640625</LatitudeDegrees>
              <LongitudeDegrees>-1.79106594063341617584228515625</LongitudeDegrees>
            </Position>
            <AltitudeMeters>556.4000244140625</AltitudeMeters>
            <DistanceMeters>38191.211224917</DistanceMeters>
          </Trackpoint>
          <Trackpoint>
            <Time>2018-08-26T07:12:48.000Z</Time>
            <Position>
              <LatitudeDegrees>42.96410269103944301605224609375</LatitudeDegrees>
              <LongitudeDegrees>-1.7910651862621307373046875</LongitudeDegrees>
            </Position>
            <AltitudeMeters>556.79998779296875</AltitudeMeters>
            <DistanceMeters>38196.119609982</DistanceMeters>
          </Trackpoint>
          <Trackpoint>
            <Time>2018-08-26T07:12:49.000Z</Time>
            <Position>
              <LatitudeDegrees>42.9641471989452838897705078125</LatitudeDegrees>
              <LongitudeDegrees>-1.79106493480503559112548828125</LongitudeDegrees>
            </Position>
            <AltitudeMeters>557.20001220703125</AltitudeMeters>
            <DistanceMeters>38201.073774672</DistanceMeters>
          </Trackpoint>
          <Trackpoint>
            <Time>2018-08-26T07:12:50.000Z</Time>
            <Position>
              <LatitudeDegrees>42.9641897790133953094482421875</LatitudeDegrees>
              <LongitudeDegrees>-1.79106728173792362213134765625</LongitudeDegrees>
            </Position>
            <AltitudeMeters>557.4000244140625</AltitudeMeters>
            <DistanceMeters>38205.816550275</DistanceMeters>
          </Trackpoint>
          <Trackpoint>
            <Time>2018-08-26T07:12:51.000Z</Time>
            <Position>
              <LatitudeDegrees>42.9642313532531261444091796875</LatitudeDegrees>
              <LongitudeDegrees>-1.79107281379401683807373046875</LongitudeDegrees>
            </Position>
            <AltitudeMeters>557.5999755859375</AltitudeMeters>
            <DistanceMeters>38210.464124143</DistanceMeters>
          </Trackpoint>
          <Trackpoint>
            <Time>2018-08-26T07:12:52.000Z</Time>
            <Position>
              <LatitudeDegrees>42.96427267603576183319091796875</LatitudeDegrees>
              <LongitudeDegrees>-1.79108102805912494659423828125</LongitudeDegrees>
            </Position>
            <AltitudeMeters>558</AltitudeMeters>
            <DistanceMeters>38215.11169801</DistanceMeters>
          </Trackpoint>
          <Trackpoint>
            <Time>2018-08-26T07:12:53.000Z</Time>
            <Position>
              <LatitudeDegrees>42.96431357972323894500732421875</LatitudeDegrees>
              <LongitudeDegrees>-1.7910925112664699554443359375</LongitudeDegrees>
            </Position>
            <AltitudeMeters>558.20001220703125</AltitudeMeters>
            <DistanceMeters>38219.760243259</DistanceMeters>
          </Trackpoint>
          <Trackpoint>
            <Time>2018-08-26T07:12:54.000Z</Time>
            <Position>
              <LatitudeDegrees>42.964354567229747772216796875</LatitudeDegrees>
              <LongitudeDegrees>-1.79110818542540073394775390625</LongitudeDegrees>
            </Position>
            <AltitudeMeters>558.5999755859375</AltitudeMeters>
            <DistanceMeters>38224.49825656</DistanceMeters>
          </Trackpoint>
          <Trackpoint>
            <Time>2018-08-26T07:12:55.000Z</Time>
            <Position>
              <LatitudeDegrees>42.9643949680030345916748046875</LatitudeDegrees>
              <LongitudeDegrees>-1.79112629033625125885009765625</LongitudeDegrees>
            </Position>
            <AltitudeMeters>558.79998779296875</AltitudeMeters>
            <DistanceMeters>38229.230548772</DistanceMeters>
          </Trackpoint>
          <Trackpoint>
            <Time>2018-08-26T07:12:56.000Z</Time>
            <Position>
              <LatitudeDegrees>42.964436374604701995849609375</LatitudeDegrees>
              <LongitudeDegrees>-1.7911468259990215301513671875</LongitudeDegrees>
            </Position>
            <AltitudeMeters>559</AltitudeMeters>
            <DistanceMeters>38234.133411558</DistanceMeters>
          </Trackpoint>
          <Trackpoint>
            <Time>2018-08-26T07:12:57.000Z</Time>
            <Position>
              <LatitudeDegrees>42.9644782841205596923828125</LatitudeDegrees>
              <LongitudeDegrees>-1.79117104969918727874755859375</LongitudeDegrees>
            </Position>
            <AltitudeMeters>559.4000244140625</AltitudeMeters>
            <DistanceMeters>38239.199324827</DistanceMeters>
          </Trackpoint>
          <Trackpoint>
            <Time>2018-08-26T07:12:58.000Z</Time>
            <Position>
              <LatitudeDegrees>42.96451918780803680419921875</LatitudeDegrees>
              <LongitudeDegrees>-1.79119954816997051239013671875</LongitudeDegrees>
            </Position>
            <AltitudeMeters>559.79998779296875</AltitudeMeters>
            <DistanceMeters>38244.310490169</DistanceMeters>
          </Trackpoint>
          <Trackpoint>
            <Time>2018-08-26T07:12:59.000Z</Time>
            <Position>
              <LatitudeDegrees>42.96455933712422847747802734375</LatitudeDegrees>
              <LongitudeDegrees>-1.7912336625158786773681640625</LongitudeDegrees>
            </Position>
            <AltitudeMeters>560</AltitudeMeters>
            <DistanceMeters>38249.572259299</DistanceMeters>
          </Trackpoint>
          <Trackpoint>
            <Time>2018-08-26T07:13:00.000Z</Time>
            <Position>
              <LatitudeDegrees>42.9645981453359127044677734375</LatitudeDegrees>
              <LongitudeDegrees>-1.79127196781337261199951171875</LongitudeDegrees>
            </Position>
            <AltitudeMeters>560.20001220703125</AltitudeMeters>
            <DistanceMeters>38254.900538603</DistanceMeters>
          </Trackpoint>
          <Trackpoint>
            <Time>2018-08-26T07:13:01.000Z</Time>
            <Position>
              <LatitudeDegrees>42.96463578008115291595458984375</LatitudeDegrees>
              <LongitudeDegrees>-1.791313625872135162353515625</LongitudeDegrees>
            </Position>
            <AltitudeMeters>560.5999755859375</AltitudeMeters>
            <DistanceMeters>38260.29115879</DistanceMeters>
          </Trackpoint>
          <Trackpoint>
            <Time>2018-08-26T07:13:02.000Z</Time>
            <Position>
              <LatitudeDegrees>42.96467198990285396575927734375</LatitudeDegrees>
              <LongitudeDegrees>-1.7913593910634517669677734375</LongitudeDegrees>
            </Position>
            <AltitudeMeters>560.79998779296875</AltitudeMeters>
            <DistanceMeters>38265.779722811</DistanceMeters>
          </Trackpoint>
          <Trackpoint>
            <Time>2018-08-26T07:13:03.000Z</Time>
            <Position>
              <LatitudeDegrees>42.96470560133457183837890625</LatitudeDegrees>
              <LongitudeDegrees>-1.79140993393957614898681640625</LongitudeDegrees>
            </Position>
            <AltitudeMeters>561</AltitudeMeters>
            <DistanceMeters>38271.343453758</DistanceMeters>
          </Trackpoint>
          <Trackpoint>
            <Time>2018-08-26T07:13:04.000Z</Time>
            <Position>
              <LatitudeDegrees>42.9647346027195453643798828125</LatitudeDegrees>
              <LongitudeDegrees>-1.7914643324911594390869140625</LongitudeDegrees>
            </Position>
            <AltitudeMeters>561.20001220703125</AltitudeMeters>
            <DistanceMeters>38276.825432817</DistanceMeters>
          </Trackpoint>
          <Trackpoint>
            <Time>2018-08-26T07:13:05.000Z</Time>
            <Position>
              <LatitudeDegrees>42.96476100571453571319580078125</LatitudeDegrees>
              <LongitudeDegrees>-1.791522167623043060302734375</LongitudeDegrees>
            </Position>
            <AltitudeMeters>561.4000244140625</AltitudeMeters>
            <DistanceMeters>38282.377790963</DistanceMeters>
          </Trackpoint>
          <Trackpoint>
            <Time>2018-08-26T07:13:06.000Z</Time>
            <Position>
              <LatitudeDegrees>42.96478682197630405426025390625</LatitudeDegrees>
              <LongitudeDegrees>-1.791580505669116973876953125</LongitudeDegrees>
            </Position>
            <AltitudeMeters>561.5999755859375</AltitudeMeters>
            <DistanceMeters>38287.930962224</DistanceMeters>
          </Trackpoint>
          <Trackpoint>
            <Time>2018-08-26T07:13:07.000Z</Time>
            <Position>
              <LatitudeDegrees>42.96481288969516754150390625</LatitudeDegrees>
              <LongitudeDegrees>-1.79163825698196887969970703125</LongitudeDegrees>
            </Position>
            <AltitudeMeters>561.79998779296875</AltitudeMeters>
            <DistanceMeters>38293.45723751</DistanceMeters>
          </Trackpoint>
          <Trackpoint>
            <Time>2018-08-26T07:13:08.000Z</Time>
            <Position>
              <LatitudeDegrees>42.96483761630952358245849609375</LatitudeDegrees>
              <LongitudeDegrees>-1.7916953377425670623779296875</LongitudeDegrees>
            </Position>
            <AltitudeMeters>562</AltitudeMeters>
            <DistanceMeters>38298.860406686</DistanceMeters>
          </Trackpoint>
          <Trackpoint>
            <Time>2018-08-26T07:13:09.000Z</Time>
            <Position>
              <LatitudeDegrees>42.96486209146678447723388671875</LatitudeDegrees>
              <LongitudeDegrees>-1.79175317287445068359375</LongitudeDegrees>
            </Position>
            <AltitudeMeters>562</AltitudeMeters>
            <DistanceMeters>38304.302708656</DistanceMeters>
          </Trackpoint>
          <Trackpoint>
            <Time>2018-08-26T07:13:10.000Z</Time>
            <Position>
              <LatitudeDegrees>42.964886985719203948974609375</LatitudeDegrees>
              <LongitudeDegrees>-1.7918113432824611663818359375</LongitudeDegrees>
            </Position>
            <AltitudeMeters>562.20001220703125</AltitudeMeters>
            <DistanceMeters>38309.791272678</DistanceMeters>
          </Trackpoint>
          <Trackpoint>
            <Time>2018-08-26T07:13:11.000Z</Time>
            <Position>
              <LatitudeDegrees>42.9649133048951625823974609375</LatitudeDegrees>
              <LongitudeDegrees>-1.79186792112886905670166015625</LongitudeDegrees>
            </Position>
            <AltitudeMeters>562.20001220703125</AltitudeMeters>
            <DistanceMeters>38315.251795768</DistanceMeters>
          </Trackpoint>
          <Trackpoint>
            <Time>2018-08-26T07:13:12.000Z</Time>
            <Position>
              <LatitudeDegrees>42.96494389884173870086669921875</LatitudeDegrees>
              <LongitudeDegrees>-1.7919203080236911773681640625</LongitudeDegrees>
            </Position>
            <AltitudeMeters>562.4000244140625</AltitudeMeters>
            <DistanceMeters>38320.710664906</DistanceMeters>
          </Trackpoint>
          <Trackpoint>
            <Time>2018-08-26T07:13:13.000Z</Time>
            <Position>
              <LatitudeDegrees>42.964980192482471466064453125</LatitudeDegrees>
              <LongitudeDegrees>-1.79196397773921489715576171875</LongitudeDegrees>
            </Position>
            <AltitudeMeters>562.5999755859375</AltitudeMeters>
            <DistanceMeters>38326.092902845</DistanceMeters>
          </Trackpoint>
          <Trackpoint>
            <Time>2018-08-26T07:13:14.000Z</Time>
            <Position>
              <LatitudeDegrees>42.96502210199832916259765625</LatitudeDegrees>
              <LongitudeDegrees>-1.79199390113353729248046875</LongitudeDegrees>
            </Position>
            <AltitudeMeters>562.5999755859375</AltitudeMeters>
            <DistanceMeters>38331.356387862</DistanceMeters>
          </Trackpoint>
          <Trackpoint>
            <Time>2018-08-26T07:13:15.000Z</Time>
            <Position>
              <LatitudeDegrees>42.96506895683705806732177734375</LatitudeDegrees>
              <LongitudeDegrees>-1.7920081503689289093017578125</LongitudeDegrees>
            </Position>
            <AltitudeMeters>562.79998779296875</AltitudeMeters>
            <DistanceMeters>38336.698207923</DistanceMeters>
          </Trackpoint>
          <Trackpoint>
            <Time>2018-08-26T07:13:16.000Z</Time>
            <Position>
              <LatitudeDegrees>42.965118326246738433837890625</LatitudeDegrees>
              <LongitudeDegrees>-1.79200756363570690155029296875</LongitudeDegrees>
            </Position>
            <AltitudeMeters>563</AltitudeMeters>
            <DistanceMeters>38342.193349016</DistanceMeters>
          </Trackpoint>
          <Trackpoint>
            <Time>2018-08-26T07:13:17.000Z</Time>
            <Position>
              <LatitudeDegrees>42.96516937203705310821533203125</LatitudeDegrees>
              <LongitudeDegrees>-1.7919932305812835693359375</LongitudeDegrees>
            </Position>
            <AltitudeMeters>563.4000244140625</AltitudeMeters>
            <DistanceMeters>38347.993871822</DistanceMeters>
          </Trackpoint>
          <Trackpoint>
            <Time>2018-08-26T07:13:18.000Z</Time>
            <Position>
              <LatitudeDegrees>42.96521781943738460540771484375</LatitudeDegrees>
              <LongitudeDegrees>-1.791964732110500335693359375</LongitudeDegrees>
            </Position>
            <AltitudeMeters>563.5999755859375</AltitudeMeters>
            <DistanceMeters>38353.864800351</DistanceMeters>
          </Trackpoint>
          <Trackpoint>
            <Time>2018-08-26T07:13:19.000Z</Time>
            <Position>
              <LatitudeDegrees>42.96526073478162288665771484375</LatitudeDegrees>
              <LongitudeDegrees>-1.7919234931468963623046875</LongitudeDegrees>
            </Position>
            <AltitudeMeters>563.5999755859375</AltitudeMeters>
            <DistanceMeters>38359.704112695</DistanceMeters>
          </Trackpoint>
          <Trackpoint>
            <Time>2018-08-26T07:13:20.000Z</Time>
            <Position>
              <LatitudeDegrees>42.965297363698482513427734375</LatitudeDegrees>
              <LongitudeDegrees>-1.79187814705073833465576171875</LongitudeDegrees>
            </Position>
            <AltitudeMeters>563.79998779296875</AltitudeMeters>
            <DistanceMeters>38365.205822996</DistanceMeters>
          </Trackpoint>
          <Trackpoint>
            <Time>2018-08-26T07:13:21.000Z</Time>
            <Position>
              <LatitudeDegrees>42.9653287120163440704345703125</LatitudeDegrees>
              <LongitudeDegrees>-1.7918328009545803070068359375</LongitudeDegrees>
            </Position>
            <AltitudeMeters>564.5999755859375</AltitudeMeters>
            <DistanceMeters>38370.287753597</DistanceMeters>
          </Trackpoint>
          <Trackpoint>
            <Time>2018-08-26T07:13:22.000Z</Time>
            <Position>
              <LatitudeDegrees>42.96535679139196872711181640625</LatitudeDegrees>
              <LongitudeDegrees>-1.791783012449741363525390625</LongitudeDegrees>
            </Position>
            <AltitudeMeters>564.79998779296875</AltitudeMeters>
            <DistanceMeters>38375.406863074</DistanceMeters>
          </Trackpoint>
          <Trackpoint>
            <Time>2018-08-26T07:13:23.000Z</Time>
            <Position>
              <LatitudeDegrees>42.96538378112018108367919921875</LatitudeDegrees>
              <LongitudeDegrees>-1.79173163138329982757568359375</LongitudeDegrees>
            </Position>
            <AltitudeMeters>565</AltitudeMeters>
            <DistanceMeters>38380.559379425</DistanceMeters>
          </Trackpoint>
          <Trackpoint>
            <Time>2018-08-26T07:13:24.000Z</Time>
            <Position>
              <LatitudeDegrees>42.965412028133869171142578125</LatitudeDegrees>
              <LongitudeDegrees>-1.79167882539331912994384765625</LongitudeDegrees>
            </Position>
            <AltitudeMeters>565.20001220703125</AltitudeMeters>
            <DistanceMeters>38385.887658729</DistanceMeters>
          </Trackpoint>
          <Trackpoint>
            <Time>2018-08-26T07:13:25.000Z</Time>
            <Position>
              <LatitudeDegrees>42.96544186770915985107421875</LatitudeDegrees>
              <LongitudeDegrees>-1.79162736050784587860107421875</LongitudeDegrees>
            </Position>
            <AltitudeMeters>565.5999755859375</AltitudeMeters>
            <DistanceMeters>38391.236236313</DistanceMeters>
          </Trackpoint>
          <Trackpoint>
            <Time>2018-08-26T07:13:26.000Z</Time>
            <Position>
              <LatitudeDegrees>42.96547313220798969268798828125</LatitudeDegrees>
              <LongitudeDegrees>-1.79157790727913379669189453125</LongitudeDegrees>
            </Position>
            <AltitudeMeters>565.79998779296875</AltitudeMeters>
            <DistanceMeters>38396.559428953</DistanceMeters>
          </Trackpoint>
          <Trackpoint>
            <Time>2018-08-26T07:13:27.000Z</Time>
            <Position>
              <LatitudeDegrees>42.96550624072551727294921875</LatitudeDegrees>
              <LongitudeDegrees>-1.7915297113358974456787109375</LongitudeDegrees>
            </Position>
            <AltitudeMeters>566.20001220703125</AltitudeMeters>
            <DistanceMeters>38401.944182936</DistanceMeters>
          </Trackpoint>
          <Trackpoint>
            <Time>2018-08-26T07:13:28.000Z</Time>
            <Position>
              <LatitudeDegrees>42.9655402712523937225341796875</LatitudeDegrees>
              <LongitudeDegrees>-1.79148604162037372589111328125</LongitudeDegrees>
            </Position>
            <AltitudeMeters>566.5999755859375</AltitudeMeters>
            <DistanceMeters>38407.139459492</DistanceMeters>
          </Trackpoint>
          <Trackpoint>
            <Time>2018-08-26T07:13:29.000Z</Time>
            <Position>
              <LatitudeDegrees>42.96557304449379444122314453125</LatitudeDegrees>
              <LongitudeDegrees>-1.79144429974257946014404296875</LongitudeDegrees>
            </Position>
            <AltitudeMeters>567</AltitudeMeters>
            <DistanceMeters>38412.126325294</DistanceMeters>
          </Trackpoint>
          <Trackpoint>
            <Time>2018-08-26T07:13:30.000Z</Time>
            <Position>
              <LatitudeDegrees>42.96560489572584629058837890625</LatitudeDegrees>
              <LongitudeDegrees>-1.79140658117830753326416015625</LongitudeDegrees>
            </Position>
            <AltitudeMeters>567.4000244140625</AltitudeMeters>
            <DistanceMeters>38416.816449623</DistanceMeters>
          </Trackpoint>
          <Trackpoint>
            <Time>2018-08-26T07:13:31.000Z</Time>
            <Position>
              <LatitudeDegrees>42.9656364955008029937744140625</LatitudeDegrees>
              <LongitudeDegrees>-1.79137523286044597625732421875</LongitudeDegrees>
            </Position>
            <AltitudeMeters>567.5999755859375</AltitudeMeters>
            <DistanceMeters>38421.162818213</DistanceMeters>
          </Trackpoint>
          <Trackpoint>
            <Time>2018-08-26T07:13:32.000Z</Time>
            <Position>
              <LatitudeDegrees>42.9656700231134891510009765625</LatitudeDegrees>
              <LongitudeDegrees>-1.79134748876094818115234375</LongitudeDegrees>
            </Position>
            <AltitudeMeters>568</AltitudeMeters>
            <DistanceMeters>38425.524741076</DistanceMeters>
          </Trackpoint>
          <Trackpoint>
            <Time>2018-08-26T07:13:33.000Z</Time>
            <Position>
              <LatitudeDegrees>42.9657085798680782318115234375</LatitudeDegrees>
              <LongitudeDegrees>-1.791322343051433563232421875</LongitudeDegrees>
            </Position>
            <AltitudeMeters>568.20001220703125</AltitudeMeters>
            <DistanceMeters>38430.279876344</DistanceMeters>
          </Trackpoint>
          <Trackpoint>
            <Time>2018-08-26T07:13:34.000Z</Time>
            <Position>
              <LatitudeDegrees>42.96575040556490421295166015625</LatitudeDegrees>
              <LongitudeDegrees>-1.79130231030285358428955078125</LongitudeDegrees>
            </Position>
            <AltitudeMeters>568.5999755859375</AltitudeMeters>
            <DistanceMeters>38435.213035172</DistanceMeters>
          </Trackpoint>
          <Trackpoint>
            <Time>2018-08-26T07:13:35.000Z</Time>
            <Position>
              <LatitudeDegrees>42.96579281799495220184326171875</LatitudeDegrees>
              <LongitudeDegrees>-1.79128990508615970611572265625</LongitudeDegrees>
            </Position>
            <AltitudeMeters>569</AltitudeMeters>
            <DistanceMeters>38440.040728959</DistanceMeters>
          </Trackpoint>
          <Trackpoint>
            <Time>2018-08-26T07:13:36.000Z</Time>
            <Position>
              <LatitudeDegrees>42.96583673916757106781005859375</LatitudeDegrees>
              <LongitudeDegrees>-1.7912849597632884979248046875</LongitudeDegrees>
            </Position>
            <AltitudeMeters>569.20001220703125</AltitudeMeters>
            <DistanceMeters>38444.945433195</DistanceMeters>
          </Trackpoint>
          <Trackpoint>
            <Time>2018-08-26T07:13:37.000Z</Time>
            <Position>
              <LatitudeDegrees>42.96588300727307796478271484375</LatitudeDegrees>
              <LongitudeDegrees>-1.7912851274013519287109375</LongitudeDegrees>
            </Position>
            <AltitudeMeters>569.5999755859375</AltitudeMeters>
            <DistanceMeters>38450.09444324</DistanceMeters>
          </Trackpoint>
          <Trackpoint>
            <Time>2018-08-26T07:13:38.000Z</Time>
            <Position>
              <LatitudeDegrees>42.965928018093109130859375</LatitudeDegrees>
              <LongitudeDegrees>-1.79129174910485744476318359375</LongitudeDegrees>
            </Position>
            <AltitudeMeters>569.79998779296875</AltitudeMeters>
            <DistanceMeters>38455.133547819</DistanceMeters>
          </Trackpoint>
          <Trackpoint>
            <Time>2018-08-26T07:13:39.000Z</Time>
            <Position>
              <LatitudeDegrees>42.9659694246947765350341796875</LatitudeDegrees>
              <LongitudeDegrees>-1.7913065850734710693359375</LongitudeDegrees>
            </Position>
            <AltitudeMeters>570.20001220703125</AltitudeMeters>
            <DistanceMeters>38459.898168704</DistanceMeters>
          </Trackpoint>
          <Trackpoint>
            <Time>2018-08-26T07:13:40.000Z</Time>
            <Position>
              <LatitudeDegrees>42.96600521542131900787353515625</LatitudeDegrees>
              <LongitudeDegrees>-1.7913329042494297027587890625</LongitudeDegrees>
            </Position>
            <AltitudeMeters>570.5999755859375</AltitudeMeters>
            <DistanceMeters>38464.421679865</DistanceMeters>
          </Trackpoint>
          <Trackpoint>
            <Time>2018-08-26T07:13:41.000Z</Time>
            <Position>
              <LatitudeDegrees>42.96603756956756114959716796875</LatitudeDegrees>
              <LongitudeDegrees>-1.79136768914759159088134765625</LongitudeDegrees>
            </Position>
            <AltitudeMeters>571</AltitudeMeters>
            <DistanceMeters>38469.003702097</DistanceMeters>
          </Trackpoint>
          <Trackpoint>
            <Time>2018-08-26T07:13:42.000Z</Time>
            <Position>
              <LatitudeDegrees>42.96606623567640781402587890625</LatitudeDegrees>
              <LongitudeDegrees>-1.79140783846378326416015625</LongitudeDegrees>
            </Position>
            <AltitudeMeters>571.20001220703125</AltitudeMeters>
            <DistanceMeters>38473.572896417</DistanceMeters>
          </Trackpoint>
          <Trackpoint>
            <Time>2018-08-26T07:13:43.000Z</Time>
            <Position>
              <LatitudeDegrees>42.9660924710333347320556640625</LatitudeDegrees>
              <LongitudeDegrees>-1.79145134054124355316162109375</LongitudeDegrees>
            </Position>
            <AltitudeMeters>571.4000244140625</AltitudeMeters>
            <DistanceMeters>38478.163778513</DistanceMeters>
          </Trackpoint>
          <Trackpoint>
            <Time>2018-08-26T07:13:44.000Z</Time>
            <Position>
              <LatitudeDegrees>42.9661159403622150421142578125</LatitudeDegrees>
              <LongitudeDegrees>-1.7914965189993381500244140625</LongitudeDegrees>
            </Position>
            <AltitudeMeters>571.5999755859375</AltitudeMeters>
            <DistanceMeters>38482.675296252</DistanceMeters>
          </Trackpoint>
          <Trackpoint>
            <Time>2018-08-26T07:13:45.000Z</Time>
            <Position>
              <LatitudeDegrees>42.96613647602498531341552734375</LatitudeDegrees>
              <LongitudeDegrees>-1.79154303856194019317626953125</LongitudeDegrees>
            </Position>
            <AltitudeMeters>571.79998779296875</AltitudeMeters>
            <DistanceMeters>38487.099909877</DistanceMeters>
          </Trackpoint>
          <Trackpoint>
            <Time>2018-08-26T07:13:46.000Z</Time>
            <Position>
              <LatitudeDegrees>42.96615592204034328460693359375</LatitudeDegrees>
              <LongitudeDegrees>-1.7915880493819713592529296875</LongitudeDegrees>
            </Position>
            <AltitudeMeters>572.20001220703125</AltitudeMeters>
            <DistanceMeters>38491.357064258</DistanceMeters>
          </Trackpoint>
          <Trackpoint>
            <Time>2018-08-26T07:13:47.000Z</Time>
            <Position>
              <LatitudeDegrees>42.9661759547889232635498046875</LatitudeDegrees>
              <LongitudeDegrees>-1.79163607768714427947998046875</LongitudeDegrees>
            </Position>
            <AltitudeMeters>572.20001220703125</AltitudeMeters>
            <DistanceMeters>38495.860568637</DistanceMeters>
          </Trackpoint>
          <Trackpoint>
            <Time>2018-08-26T07:13:48.000Z</Time>
            <Position>
              <LatitudeDegrees>42.9661984182894229888916015625</LatitudeDegrees>
              <LongitudeDegrees>-1.79168276488780975341796875</LongitudeDegrees>
            </Position>
            <AltitudeMeters>572.4000244140625</AltitudeMeters>
            <DistanceMeters>38500.411941547</DistanceMeters>
          </Trackpoint>
          <Trackpoint>
            <Time>2018-08-26T07:13:49.000Z</Time>
            <Position>
              <LatitudeDegrees>42.9662232287228107452392578125</LatitudeDegrees>
              <LongitudeDegrees>-1.79172526113688945770263671875</LongitudeDegrees>
            </Position>
            <AltitudeMeters>572.5999755859375</AltitudeMeters>
            <DistanceMeters>38504.840635037</DistanceMeters>
          </Trackpoint>
          <Trackpoint>
            <Time>2018-08-26T07:13:50.000Z</Time>
            <Position>
              <LatitudeDegrees>42.96624845825135707855224609375</LatitudeDegrees>
              <LongitudeDegrees>-1.79176599718630313873291015625</LongitudeDegrees>
            </Position>
            <AltitudeMeters>572.79998779296875</AltitudeMeters>
            <DistanceMeters>38509.18804231</DistanceMeters>
          </Trackpoint>
          <Trackpoint>
            <Time>2018-08-26T07:13:51.000Z</Time>
            <Position>
              <LatitudeDegrees>42.96627469360828399658203125</LatitudeDegrees>
              <LongitudeDegrees>-1.79181042127311229705810546875</LongitudeDegrees>
            </Position>
            <AltitudeMeters>573.20001220703125</AltitudeMeters>
            <DistanceMeters>38513.837558738</DistanceMeters>
          </Trackpoint>
          <Trackpoint>
            <Time>2018-08-26T07:13:52.000Z</Time>
            <Position>
              <LatitudeDegrees>42.966302521526813507080078125</LatitudeDegrees>
              <LongitudeDegrees>-1.79185970686376094818115234375</LongitudeDegrees>
            </Position>
            <AltitudeMeters>573.5999755859375</AltitudeMeters>
            <DistanceMeters>38518.907926341</DistanceMeters>
          </Trackpoint>
          <Trackpoint>
            <Time>2018-08-26T07:13:53.000Z</Time>
            <Position>
              <LatitudeDegrees>42.966332696378231048583984375</LatitudeDegrees>
              <LongitudeDegrees>-1.79190278984606266021728515625</LongitudeDegrees>
            </Position>
            <AltitudeMeters>573.79998779296875</AltitudeMeters>
            <DistanceMeters>38523.764525941</DistanceMeters>
          </Trackpoint>
          <Trackpoint>
            <Time>2018-08-26T07:13:54.000Z</Time>
            <Position>
              <LatitudeDegrees>42.96636513434350490570068359375</LatitudeDegrees>
              <LongitudeDegrees>-1.79194302298128604888916015625</LongitudeDegrees>
            </Position>
            <AltitudeMeters>574.20001220703125</AltitudeMeters>
            <DistanceMeters>38528.639683497</DistanceMeters>
          </Trackpoint>
          <Trackpoint>
            <Time>2018-08-26T07:13:55.000Z</Time>
            <Position>
              <LatitudeDegrees>42.9664005897939205169677734375</LatitudeDegrees>
              <LongitudeDegrees>-1.791980825364589691162109375</LongitudeDegrees>
            </Position>
            <AltitudeMeters>574.4000244140625</AltitudeMeters>
            <DistanceMeters>38533.645526297</DistanceMeters>
          </Trackpoint>
          <Trackpoint>
            <Time>2018-08-26T07:13:56.000Z</Time>
            <Position>
              <LatitudeDegrees>42.96643688343465328216552734375</LatitudeDegrees>
              <LongitudeDegrees>-1.79202298633754253387451171875</LongitudeDegrees>
            </Position>
            <AltitudeMeters>574.79998779296875</AltitudeMeters>
            <DistanceMeters>38538.947471975</DistanceMeters>
          </Trackpoint>
          <Trackpoint>
            <Time>2018-08-26T07:13:57.000Z</Time>
            <Position>
              <LatitudeDegrees>42.96647250652313232421875</LatitudeDegrees>
              <LongitudeDegrees>-1.7920651473104953765869140625</LongitudeDegrees>
            </Position>
            <AltitudeMeters>575</AltitudeMeters>
            <DistanceMeters>38544.192912178</DistanceMeters>
          </Trackpoint>
          <Trackpoint>
            <Time>2018-08-26T07:13:58.000Z</Time>
            <Position>
              <LatitudeDegrees>42.966508381068706512451171875</LatitudeDegrees>
              <LongitudeDegrees>-1.7921077273786067962646484375</LongitudeDegrees>
            </Position>
            <AltitudeMeters>575</AltitudeMeters>
            <DistanceMeters>38549.48206871</DistanceMeters>
          </Trackpoint>
          <Trackpoint>
            <Time>2018-08-26T07:13:59.000Z</Time>
            <Position>
              <LatitudeDegrees>42.9665437527000904083251953125</LatitudeDegrees>
              <LongitudeDegrees>-1.7921439372003078460693359375</LongitudeDegrees>
            </Position>
            <AltitudeMeters>575.20001220703125</AltitudeMeters>
            <DistanceMeters>38554.400561853</DistanceMeters>
          </Trackpoint>
          <Trackpoint>
            <Time>2018-08-26T07:14:00.000Z</Time>
            <Position>
              <LatitudeDegrees>42.9665802977979183197021484375</LatitudeDegrees>
              <LongitudeDegrees>-1.7921783030033111572265625</LongitudeDegrees>
            </Position>
            <AltitudeMeters>575.4000244140625</AltitudeMeters>
            <DistanceMeters>38559.336465645</DistanceMeters>
          </Trackpoint>
          <Trackpoint>
            <Time>2018-08-26T07:14:01.000Z</Time>
            <Position>
              <LatitudeDegrees>42.96661709435284137725830078125</LatitudeDegrees>
              <LongitudeDegrees>-1.79221426136791706085205078125</LongitudeDegrees>
            </Position>
            <AltitudeMeters>575.5999755859375</AltitudeMeters>
            <DistanceMeters>38564.37108823</DistanceMeters>
          </Trackpoint>
          <Trackpoint>
            <Time>2018-08-26T07:14:02.000Z</Time>
            <Position>
              <LatitudeDegrees>42.96665313653647899627685546875</LatitudeDegrees>
              <LongitudeDegrees>-1.79224628023803234100341796875</LongitudeDegrees>
            </Position>
            <AltitudeMeters>575.79998779296875</AltitudeMeters>
            <DistanceMeters>38569.15651129</DistanceMeters>
          </Trackpoint>
          <Trackpoint>
            <Time>2018-08-26T07:14:03.000Z</Time>
            <Position>
              <LatitudeDegrees>42.966689765453338623046875</LatitudeDegrees>
              <LongitudeDegrees>-1.79227762855589389801025390625</LongitudeDegrees>
            </Position>
            <AltitudeMeters>576.20001220703125</AltitudeMeters>
            <DistanceMeters>38573.966402749</DistanceMeters>
          </Trackpoint>
          <Trackpoint>
            <Time>2018-08-26T07:14:04.000Z</Time>
            <Position>
              <LatitudeDegrees>42.96672857366502285003662109375</LatitudeDegrees>
              <LongitudeDegrees>-1.7923065461218357086181640625</LongitudeDegrees>
            </Position>
            <AltitudeMeters>576.4000244140625</AltitudeMeters>
            <DistanceMeters>38578.885813778</DistanceMeters>
          </Trackpoint>
          <Trackpoint>
            <Time>2018-08-26T07:14:05.000Z</Time>
            <Position>
              <LatitudeDegrees>42.96677014790475368499755859375</LatitudeDegrees>
              <LongitudeDegrees>-1.792331524193286895751953125</LongitudeDegrees>
            </Position>
            <AltitudeMeters>576.5999755859375</AltitudeMeters>
            <DistanceMeters>38583.939234024</DistanceMeters>
          </Trackpoint>
          <Trackpoint>
            <Time>2018-08-26T07:14:06.000Z</Time>
            <Position>
              <LatitudeDegrees>42.96681473962962627410888671875</LatitudeDegrees>
              <LongitudeDegrees>-1.7923494614660739898681640625</LongitudeDegrees>
            </Position>
            <AltitudeMeters>576.79998779296875</AltitudeMeters>
            <DistanceMeters>38589.112738308</DistanceMeters>
          </Trackpoint>
          <Trackpoint>
            <Time>2018-08-26T07:14:07.000Z</Time>
            <Position>
              <LatitudeDegrees>42.9668609239161014556884765625</LatitudeDegrees>
              <LongitudeDegrees>-1.7923580110073089599609375</LongitudeDegrees>
            </Position>
            <AltitudeMeters>576.79998779296875</AltitudeMeters>
            <DistanceMeters>38594.300187374</DistanceMeters>
          </Trackpoint>
          <Trackpoint>
            <Time>2018-08-26T07:14:08.000Z</Time>
            <Position>
              <LatitudeDegrees>42.96691029332578182220458984375</LatitudeDegrees>
              <LongitudeDegrees>-1.7923585139214992523193359375</LongitudeDegrees>
            </Position>
            <AltitudeMeters>577.20001220703125</AltitudeMeters>
            <DistanceMeters>38599.795328466</DistanceMeters>
          </Trackpoint>
          <Trackpoint>
            <Time>2018-08-26T07:14:09.000Z</Time>
            <Position>
              <LatitudeDegrees>42.96696024946868419647216796875</LatitudeDegrees>
              <LongitudeDegrees>-1.79234971292316913604736328125</LongitudeDegrees>
            </Position>
            <AltitudeMeters>577.20001220703125</AltitudeMeters>
            <DistanceMeters>38605.401099245</DistanceMeters>
          </Trackpoint>
          <Trackpoint>
            <Time>2018-08-26T07:14:10.000Z</Time>
            <Position>
              <LatitudeDegrees>42.967011295258998870849609375</LatitudeDegrees>
              <LongitudeDegrees>-1.7923343740403652191162109375</LongitudeDegrees>
            </Position>
            <AltitudeMeters>577.4000244140625</AltitudeMeters>
            <DistanceMeters>38611.217945163</DistanceMeters>
          </Trackpoint>
          <Trackpoint>
            <Time>2018-08-26T07:14:11.000Z</Time>
            <Position>
              <LatitudeDegrees>42.967061586678028106689453125</LatitudeDegrees>
              <LongitudeDegrees>-1.79231551475822925567626953125</LongitudeDegrees>
            </Position>
            <AltitudeMeters>577.5999755859375</AltitudeMeters>
            <DistanceMeters>38617.022358589</DistanceMeters>
          </Trackpoint>
          <Trackpoint>
            <Time>2018-08-26T07:14:12.000Z</Time>
            <Position>
              <LatitudeDegrees>42.967109866440296173095703125</LatitudeDegrees>
              <LongitudeDegrees>-1.7922917939722537994384765625</LongitudeDegrees>
            </Position>
            <AltitudeMeters>577.79998779296875</AltitudeMeters>
            <DistanceMeters>38622.731874852</DistanceMeters>
          </Trackpoint>
          <Trackpoint>
            <Time>2018-08-26T07:14:13.000Z</Time>
            <Position>
              <LatitudeDegrees>42.96715521253645420074462890625</LatitudeDegrees>
              <LongitudeDegrees>-1.7922639660537242889404296875</LongitudeDegrees>
            </Position>
            <AltitudeMeters>578.20001220703125</AltitudeMeters>
            <DistanceMeters>38628.263866272</DistanceMeters>
          </Trackpoint>
          <Trackpoint>
            <Time>2018-08-26T07:14:14.000Z</Time>
            <Position>
              <LatitudeDegrees>42.96719628386199474334716796875</LatitudeDegrees>
              <LongitudeDegrees>-1.79223219864070415496826171875</LongitudeDegrees>
            </Position>
            <AltitudeMeters>578.20001220703125</AltitudeMeters>
            <DistanceMeters>38633.515328303</DistanceMeters>
          </Trackpoint>
          <Trackpoint>
            <Time>2018-08-26T07:14:15.000Z</Time>
            <Position>
              <LatitudeDegrees>42.96723467297852039337158203125</LatitudeDegrees>
              <LongitudeDegrees>-1.792197413742542266845703125</LongitudeDegrees>
            </Position>
            <AltitudeMeters>578.4000244140625</AltitudeMeters>
            <DistanceMeters>38638.642369606</DistanceMeters>
          </Trackpoint>
          <Trackpoint>
            <Time>2018-08-26T07:14:16.000Z</Time>
            <Position>
              <LatitudeDegrees>42.96727021224796772003173828125</LatitudeDegrees>
              <LongitudeDegrees>-1.792161203920841217041015625</LongitudeDegrees>
            </Position>
            <AltitudeMeters>578.4000244140625</AltitudeMeters>
            <DistanceMeters>38643.576443591</DistanceMeters>
          </Trackpoint>
          <Trackpoint>
            <Time>2018-08-26T07:14:17.000Z</Time>
            <Position>
              <LatitudeDegrees>42.96730491332709789276123046875</LatitudeDegrees>
              <LongitudeDegrees>-1.7921219766139984130859375</LongitudeDegrees>
            </Position>
            <AltitudeMeters>578.5999755859375</AltitudeMeters>
            <DistanceMeters>38648.58679413</DistanceMeters>
          </Trackpoint>
          <Trackpoint>
            <Time>2018-08-26T07:14:18.000Z</Time>
            <Position>
              <LatitudeDegrees>42.9673393629491329193115234375</LatitudeDegrees>
              <LongitudeDegrees>-1.792080067098140716552734375</LongitudeDegrees>
            </Position>
            <AltitudeMeters>578.5999755859375</AltitudeMeters>
            <DistanceMeters>38653.719996158</DistanceMeters>
          </Trackpoint>
          <Trackpoint>
            <Time>2018-08-26T07:14:19.000Z</Time>
            <Position>
              <LatitudeDegrees>42.967371046543121337890625</LatitudeDegrees>
              <LongitudeDegrees>-1.79203555919229984283447265625</LongitudeDegrees>
            </Position>
            <AltitudeMeters>578.79998779296875</AltitudeMeters>
            <DistanceMeters>38658.776096079</DistanceMeters>
          </Trackpoint>
          <Trackpoint>
            <Time>2018-08-26T07:14:20.000Z</Time>
            <Position>
              <LatitudeDegrees>42.967397868633270263671875</LatitudeDegrees>
              <LongitudeDegrees>-1.791986189782619476318359375</LongitudeDegrees>
            </Position>
            <AltitudeMeters>579.4000244140625</AltitudeMeters>
            <DistanceMeters>38663.784644008</DistanceMeters>
          </Trackpoint>
          <Trackpoint>
            <Time>2018-08-26T07:14:21.000Z</Time>
            <Position>
              <LatitudeDegrees>42.96742075122892856597900390625</LatitudeDegrees>
              <LongitudeDegrees>-1.79193715564906597137451171875</LongitudeDegrees>
            </Position>
            <AltitudeMeters>579.5999755859375</AltitudeMeters>
            <DistanceMeters>38668.520751048</DistanceMeters>
          </Trackpoint>
          <Trackpoint>
            <Time>2018-08-26T07:14:22.000Z</Time>
            <Position>
              <LatitudeDegrees>42.9674421250820159912109375</LatitudeDegrees>
              <LongitudeDegrees>-1.79188904352486133575439453125</LongitudeDegrees>
            </Position>
            <AltitudeMeters>579.79998779296875</AltitudeMeters>
            <DistanceMeters>38673.10572847</DistanceMeters>
          </Trackpoint>
          <Trackpoint>
            <Time>2018-08-26T07:14:23.000Z</Time>
            <Position>
              <LatitudeDegrees>42.9674647562205791473388671875</LatitudeDegrees>
              <LongitudeDegrees>-1.79184327833354473114013671875</LongitudeDegrees>
            </Position>
            <AltitudeMeters>580</AltitudeMeters>
            <DistanceMeters>38677.60321346</DistanceMeters>
          </Trackpoint>
          <Trackpoint>
            <Time>2018-08-26T07:14:24.000Z</Time>
            <Position>
              <LatitudeDegrees>42.96748981811106204986572265625</LatitudeDegrees>
              <LongitudeDegrees>-1.7917999438941478729248046875</LongitudeDegrees>
            </Position>
            <AltitudeMeters>580.20001220703125</AltitudeMeters>
            <DistanceMeters>38682.10069845</DistanceMeters>
          </Trackpoint>
          <Trackpoint>
            <Time>2018-08-26T07:14:25.000Z</Time>
            <Position>
              <LatitudeDegrees>42.96751664020121097564697265625</LatitudeDegrees>
              <LongitudeDegrees>-1.7917571961879730224609375</LongitudeDegrees>
            </Position>
            <AltitudeMeters>580.4000244140625</AltitudeMeters>
            <DistanceMeters>38686.685675872</DistanceMeters>
          </Trackpoint>
          <Trackpoint>
            <Time>2018-08-26T07:14:26.000Z</Time>
            <Position>
              <LatitudeDegrees>42.96754715032875537872314453125</LatitudeDegrees>
              <LongitudeDegrees>-1.7917178012430667877197265625</LongitudeDegrees>
            </Position>
            <AltitudeMeters>580.5999755859375</AltitudeMeters>
            <DistanceMeters>38691.358440026</DistanceMeters>
          </Trackpoint>
          <Trackpoint>
            <Time>2018-08-26T07:14:27.000Z</Time>
            <Position>
              <LatitudeDegrees>42.96758319251239299774169921875</LatitudeDegrees>
              <LongitudeDegrees>-1.79168368689715862274169921875</LongitudeDegrees>
            </Position>
            <AltitudeMeters>581</AltitudeMeters>
            <DistanceMeters>38696.23915121</DistanceMeters>
          </Trackpoint>
          <Trackpoint>
            <Time>2018-08-26T07:14:28.000Z</Time>
            <Position>
              <LatitudeDegrees>42.96762392856180667877197265625</LatitudeDegrees>
              <LongitudeDegrees>-1.79165552370250225067138671875</LongitudeDegrees>
            </Position>
            <AltitudeMeters>581.4000244140625</AltitudeMeters>
            <DistanceMeters>38701.32108181</DistanceMeters>
          </Trackpoint>
          <Trackpoint>
            <Time>2018-08-26T07:14:29.000Z</Time>
            <Position>
              <LatitudeDegrees>42.96766986139118671417236328125</LatitudeDegrees>
              <LongitudeDegrees>-1.79163557477295398712158203125</LongitudeDegrees>
            </Position>
            <AltitudeMeters>581.5999755859375</AltitudeMeters>
            <DistanceMeters>38706.685674398</DistanceMeters>
          </Trackpoint>
          <Trackpoint>
            <Time>2018-08-26T07:14:30.000Z</Time>
            <Position>
              <LatitudeDegrees>42.96771713532507419586181640625</LatitudeDegrees>
              <LongitudeDegrees>-1.79162417538464069366455078125</LongitudeDegrees>
            </Position>
            <AltitudeMeters>581.79998779296875</AltitudeMeters>
            <DistanceMeters>38712.027494458</DistanceMeters>
          </Trackpoint>
          <Trackpoint>
            <Time>2018-08-26T07:14:31.000Z</Time>
            <Position>
              <LatitudeDegrees>42.96776507981121540069580078125</LatitudeDegrees>
              <LongitudeDegrees>-1.7916225828230381011962890625</LongitudeDegrees>
            </Position>
            <AltitudeMeters>582</AltitudeMeters>
            <DistanceMeters>38717.36593255</DistanceMeters>
          </Trackpoint>
          <Trackpoint>
            <Time>2018-08-26T07:14:32.000Z</Time>
            <Position>
              <LatitudeDegrees>42.96781361103057861328125</LatitudeDegrees>
              <LongitudeDegrees>-1.7916279472410678863525390625</LongitudeDegrees>
            </Position>
            <AltitudeMeters>582.20001220703125</AltitudeMeters>
            <DistanceMeters>38722.784955395</DistanceMeters>
          </Trackpoint>
          <Trackpoint>
            <Time>2018-08-26T07:14:33.000Z</Time>
            <Position>
              <LatitudeDegrees>42.9678597114980220794677734375</LatitudeDegrees>
              <LongitudeDegrees>-1.79163582623004913330078125</LongitudeDegrees>
            </Position>
            <AltitudeMeters>582.4000244140625</AltitudeMeters>
            <DistanceMeters>38727.956713938</DistanceMeters>
          </Trackpoint>
          <Trackpoint>
            <Time>2018-08-26T07:14:34.000Z</Time>
            <Position>
              <LatitudeDegrees>42.96790556050837039947509765625</LatitudeDegrees>
              <LongitudeDegrees>-1.79165435023605823516845703125</LongitudeDegrees>
            </Position>
            <AltitudeMeters>582.4000244140625</AltitudeMeters>
            <DistanceMeters>38733.278209943</DistanceMeters>
          </Trackpoint>
          <Trackpoint>
            <Time>2018-08-26T07:14:35.000Z</Time>
            <Position>
              <LatitudeDegrees>42.9679515771567821502685546875</LatitudeDegrees>
              <LongitudeDegrees>-1.79168553091585636138916015625</LongitudeDegrees>
            </Position>
            <AltitudeMeters>582.79998779296875</AltitudeMeters>
            <DistanceMeters>38738.994049039</DistanceMeters>
          </Trackpoint>
          <Trackpoint>
            <Time>2018-08-26T07:14:36.000Z</Time>
            <Position>
              <LatitudeDegrees>42.96799398958683013916015625</LatitudeDegrees>
              <LongitudeDegrees>-1.7917258478701114654541015625</LongitudeDegrees>
            </Position>
            <AltitudeMeters>583</AltitudeMeters>
            <DistanceMeters>38744.744539448</DistanceMeters>
          </Trackpoint>
          <Trackpoint>
            <Time>2018-08-26T07:14:37.000Z</Time>
            <Position>
              <LatitudeDegrees>42.968035228550434112548828125</LatitudeDegrees>
              <LongitudeDegrees>-1.79177270270884037017822265625</LongitudeDegrees>
            </Position>
            <AltitudeMeters>583.20001220703125</AltitudeMeters>
            <DistanceMeters>38750.714607431</DistanceMeters>
          </Trackpoint>
          <Trackpoint>
            <Time>2018-08-26T07:14:38.000Z</Time>
            <Position>
              <LatitudeDegrees>42.968072779476642608642578125</LatitudeDegrees>
              <LongitudeDegrees>-1.791821904480457305908203125</LongitudeDegrees>
            </Position>
            <AltitudeMeters>583.20001220703125</AltitudeMeters>
            <DistanceMeters>38756.504222596</DistanceMeters>
          </Trackpoint>
          <Trackpoint>
            <Time>2018-08-26T07:14:39.000Z</Time>
            <Position>
              <LatitudeDegrees>42.96811108477413654327392578125</LatitudeDegrees>
              <LongitudeDegrees>-1.79187320172786712646484375</LongitudeDegrees>
            </Position>
            <AltitudeMeters>583.4000244140625</AltitudeMeters>
            <DistanceMeters>38762.473534252</DistanceMeters>
          </Trackpoint>
          <Trackpoint>
            <Time>2018-08-26T07:14:40.000Z</Time>
            <Position>
              <LatitudeDegrees>42.9681500606238842010498046875</LatitudeDegrees>
              <LongitudeDegrees>-1.79192684590816497802734375</LongitudeDegrees>
            </Position>
            <AltitudeMeters>583.79998779296875</AltitudeMeters>
            <DistanceMeters>38768.630502736</DistanceMeters>
          </Trackpoint>
          <Trackpoint>
            <Time>2018-08-26T07:14:41.000Z</Time>
            <Position>
              <LatitudeDegrees>42.96818844974040985107421875</LatitudeDegrees>
              <LongitudeDegrees>-1.79198107682168483734130859375</LongitudeDegrees>
            </Position>
            <AltitudeMeters>584.20001220703125</AltitudeMeters>
            <DistanceMeters>38774.775726872</DistanceMeters>
          </Trackpoint>
          <Trackpoint>
            <Time>2018-08-26T07:14:42.000Z</Time>
            <Position>
              <LatitudeDegrees>42.9682280123233795166015625</LatitudeDegrees>
              <LongitudeDegrees>-1.79203539155423641204833984375</LongitudeDegrees>
            </Position>
            <AltitudeMeters>584.4000244140625</AltitudeMeters>
            <DistanceMeters>38781.017181012</DistanceMeters>
          </Trackpoint>
          <Trackpoint>
            <Time>2018-08-26T07:14:43.000Z</Time>
            <Position>
              <LatitudeDegrees>42.968266569077968597412109375</LatitudeDegrees>
              <LongitudeDegrees>-1.7920882813632488250732421875</LongitudeDegrees>
            </Position>
            <AltitudeMeters>584.79998779296875</AltitudeMeters>
            <DistanceMeters>38787.09814829</DistanceMeters>
          </Trackpoint>
          <Trackpoint>
            <Time>2018-08-26T07:14:44.000Z</Time>
            <Position>
              <LatitudeDegrees>42.9683026112616062164306640625</LatitudeDegrees>
              <LongitudeDegrees>-1.79213865660130977630615234375</LongitudeDegrees>
            </Position>
            <AltitudeMeters>585.20001220703125</AltitudeMeters>
            <DistanceMeters>38792.836062434</DistanceMeters>
          </Trackpoint>
          <Trackpoint>
            <Time>2018-08-26T07:14:45.000Z</Time>
            <Position>
              <LatitudeDegrees>42.9683358035981655120849609375</LatitudeDegrees>
              <LongitudeDegrees>-1.7921865172684192657470703125</LongitudeDegrees>
            </Position>
            <AltitudeMeters>585.4000244140625</AltitudeMeters>
            <DistanceMeters>38798.205702467</DistanceMeters>
          </Trackpoint>
          <Trackpoint>
            <Time>2018-08-26T07:14:46.000Z</Time>
            <Position>
              <LatitudeDegrees>42.968367822468280792236328125</LatitudeDegrees>
              <LongitudeDegrees>-1.7922341264784336090087890625</LongitudeDegrees>
            </Position>
            <AltitudeMeters>585.5999755859375</AltitudeMeters>
            <DistanceMeters>38803.472617582</DistanceMeters>
          </Trackpoint>
          <Trackpoint>
            <Time>2018-08-26T07:14:47.000Z</Time>
            <Position>
              <LatitudeDegrees>42.96839908696711063385009765625</LatitudeDegrees>
              <LongitudeDegrees>-1.7922787182033061981201171875</LongitudeDegrees>
            </Position>
            <AltitudeMeters>585.79998779296875</AltitudeMeters>
            <DistanceMeters>38808.502754181</DistanceMeters>
          </Trackpoint>
          <Trackpoint>
            <Time>2018-08-26T07:14:48.000Z</Time>
            <Position>
              <LatitudeDegrees>42.968434207141399383544921875</LatitudeDegrees>
              <LongitudeDegrees>-1.79232406429946422576904296875</LongitudeDegrees>
            </Position>
            <AltitudeMeters>585.79998779296875</AltitudeMeters>
            <DistanceMeters>38813.879956499</DistanceMeters>
          </Trackpoint>
          <Trackpoint>
            <Time>2018-08-26T07:14:49.000Z</Time>
            <Position>
              <LatitudeDegrees>42.968470752239227294921875</LatitudeDegrees>
              <LongitudeDegrees>-1.79236982949078083038330078125</LongitudeDegrees>
            </Position>
            <AltitudeMeters>586.4000244140625</AltitudeMeters>
            <DistanceMeters>38819.396418918</DistanceMeters>
          </Trackpoint>
          <Trackpoint>
            <Time>2018-08-26T07:14:50.000Z</Time>
            <Position>
              <LatitudeDegrees>42.96850855462253093719482421875</LatitudeDegrees>
              <LongitudeDegrees>-1.79241509176790714263916015625</LongitudeDegrees>
            </Position>
            <AltitudeMeters>586.4000244140625</AltitudeMeters>
            <DistanceMeters>38824.990095247</DistanceMeters>
          </Trackpoint>
          <Trackpoint>
            <Time>2018-08-26T07:14:51.000Z</Time>
            <Position>
              <LatitudeDegrees>42.968548201024532318115234375</LatitudeDegrees>
              <LongitudeDegrees>-1.7924530617892742156982421875</LongitudeDegrees>
            </Position>
            <AltitudeMeters>586.5999755859375</AltitudeMeters>
            <DistanceMeters>38830.379040027</DistanceMeters>
          </Trackpoint>
          <Trackpoint>
            <Time>2018-08-26T07:14:52.000Z</Time>
            <Position>
              <LatitudeDegrees>42.968593128025531768798828125</LatitudeDegrees>
              <LongitudeDegrees>-1.79248332045972347259521484375</LongitudeDegrees>
            </Position>
            <AltitudeMeters>586.5999755859375</AltitudeMeters>
            <DistanceMeters>38835.953310656</DistanceMeters>
          </Trackpoint>
          <Trackpoint>
            <Time>2018-08-26T07:14:53.000Z</Time>
            <Position>
              <LatitudeDegrees>42.96864249743521213531494140625</LatitudeDegrees>
              <LongitudeDegrees>-1.79250544868409633636474609375</LongitudeDegrees>
            </Position>
            <AltitudeMeters>587</AltitudeMeters>
            <DistanceMeters>38841.736683647</DistanceMeters>
          </Trackpoint>
          <Trackpoint>
            <Time>2018-08-26T07:14:54.000Z</Time>
            <Position>
              <LatitudeDegrees>42.96869295649230480194091796875</LatitudeDegrees>
              <LongitudeDegrees>-1.79251802153885364532470703125</LongitudeDegrees>
            </Position>
            <AltitudeMeters>587.20001220703125</AltitudeMeters>
            <DistanceMeters>38847.444618108</DistanceMeters>
          </Trackpoint>
          <Trackpoint>
            <Time>2018-08-26T07:14:55.000Z</Time>
            <Position>
              <LatitudeDegrees>42.96874458901584148406982421875</LatitudeDegrees>
              <LongitudeDegrees>-1.79252707399427890777587890625</LongitudeDegrees>
            </Position>
            <AltitudeMeters>587.4000244140625</AltitudeMeters>
            <DistanceMeters>38853.23891049</DistanceMeters>
          </Trackpoint>
          <Trackpoint>
            <Time>2018-08-26T07:14:56.000Z</Time>
            <Position>
              <LatitudeDegrees>42.96879605390131473541259765625</LatitudeDegrees>
              <LongitudeDegrees>-1.792540065944194793701171875</LongitudeDegrees>
            </Position>
            <AltitudeMeters>587.5999755859375</AltitudeMeters>
            <DistanceMeters>38859.064288356</DistanceMeters>
          </Trackpoint>
          <Trackpoint>
            <Time>2018-08-26T07:14:57.000Z</Time>
            <Position>
              <LatitudeDegrees>42.968847937881946563720703125</LatitudeDegrees>
              <LongitudeDegrees>-1.79256110452115535736083984375</LongitudeDegrees>
            </Position>
            <AltitudeMeters>587.79998779296875</AltitudeMeters>
            <DistanceMeters>38865.087812835</DistanceMeters>
          </Trackpoint>
          <Trackpoint>
            <Time>2018-08-26T07:14:58.000Z</Time>
            <Position>
              <LatitudeDegrees>42.9689014144241809844970703125</LatitudeDegrees>
              <LongitudeDegrees>-1.79258943535387516021728515625</LongitudeDegrees>
            </Position>
            <AltitudeMeters>587.79998779296875</AltitudeMeters>
            <DistanceMeters>38871.470892415</DistanceMeters>
          </Trackpoint>
          <Trackpoint>
            <Time>2018-08-26T07:14:59.000Z</Time>
            <Position>
              <LatitudeDegrees>42.96895480714738368988037109375</LatitudeDegrees>
              <LongitudeDegrees>-1.79262422025203704833984375</LongitudeDegrees>
            </Position>
            <AltitudeMeters>588</AltitudeMeters>
            <DistanceMeters>38878.054536309</DistanceMeters>
          </Trackpoint>
          <Trackpoint>
            <Time>2018-08-26T07:15:00.000Z</Time>
            <Position>
              <LatitudeDegrees>42.96900451183319091796875</LatitudeDegrees>
              <LongitudeDegrees>-1.79266453720629215240478515625</LongitudeDegrees>
            </Position>
            <AltitudeMeters>588</AltitudeMeters>
            <DistanceMeters>38884.488343146</DistanceMeters>
          </Trackpoint>
          <Trackpoint>
            <Time>2018-08-26T07:15:01.000Z</Time>
            <Position>
              <LatitudeDegrees>42.96905371360480785369873046875</LatitudeDegrees>
              <LongitudeDegrees>-1.79270912893116474151611328125</LongitudeDegrees>
            </Position>
            <AltitudeMeters>588.20001220703125</AltitudeMeters>
            <DistanceMeters>38891.059631114</DistanceMeters>
          </Trackpoint>
          <Trackpoint>
            <Time>2018-08-26T07:15:02.000Z</Time>
            <Position>
              <LatitudeDegrees>42.9691052623093128204345703125</LatitudeDegrees>
              <LongitudeDegrees>-1.79275757633149623870849609375</LongitudeDegrees>
            </Position>
            <AltitudeMeters>588.20001220703125</AltitudeMeters>
            <DistanceMeters>38898.022567307</DistanceMeters>
          </Trackpoint>
          <Trackpoint>
            <Time>2018-08-26T07:15:03.000Z</Time>
            <Position>
              <LatitudeDegrees>42.96915647573769092559814453125</LatitudeDegrees>
              <LongitudeDegrees>-1.79280887357890605926513671875</LongitudeDegrees>
            </Position>
            <AltitudeMeters>588.4000244140625</AltitudeMeters>
            <DistanceMeters>38905.089769923</DistanceMeters>
          </Trackpoint>
          <Trackpoint>
            <Time>2018-08-26T07:15:04.000Z</Time>
            <Position>
              <LatitudeDegrees>42.96920727007091045379638671875</LatitudeDegrees>
              <LongitudeDegrees>-1.792865954339504241943359375</LongitudeDegrees>
            </Position>
            <AltitudeMeters>588.4000244140625</AltitudeMeters>
            <DistanceMeters>38912.408677865</DistanceMeters>
          </Trackpoint>
          <Trackpoint>
            <Time>2018-08-26T07:15:05.000Z</Time>
            <Position>
              <LatitudeDegrees>42.969257645308971405029296875</LatitudeDegrees>
              <LongitudeDegrees>-1.79292504675686359405517578125</LongitudeDegrees>
            </Position>
            <AltitudeMeters>588.4000244140625</AltitudeMeters>
            <DistanceMeters>38919.797577795</DistanceMeters>
          </Trackpoint>
          <Trackpoint>
            <Time>2018-08-26T07:15:06.000Z</Time>
            <Position>
              <LatitudeDegrees>42.9693060927093029022216796875</LatitudeDegrees>
              <LongitudeDegrees>-1.79298690520226955413818359375</LongitudeDegrees>
            </Position>
            <AltitudeMeters>588.4000244140625</AltitudeMeters>
            <DistanceMeters>38927.176694338</DistanceMeters>
          </Trackpoint>
          <Trackpoint>
            <Time>2018-08-26T07:15:07.000Z</Time>
            <Position>
              <LatitudeDegrees>42.96935562975704669952392578125</LatitudeDegrees>
              <LongitudeDegrees>-1.79304859600961208343505859375</LongitudeDegrees>
            </Position>
            <AltitudeMeters>588.5999755859375</AltitudeMeters>
            <DistanceMeters>38934.636140098</DistanceMeters>
          </Trackpoint>
          <Trackpoint>
            <Time>2018-08-26T07:15:08.000Z</Time>
            <Position>
              <LatitudeDegrees>42.96940709464251995086669921875</LatitudeDegrees>
              <LongitudeDegrees>-1.79310793988406658172607421875</LongitudeDegrees>
            </Position>
            <AltitudeMeters>588.5999755859375</AltitudeMeters>
            <DistanceMeters>38942.130609758</DistanceMeters>
          </Trackpoint>
          <Trackpoint>
            <Time>2018-08-26T07:15:09.000Z</Time>
            <Position>
              <LatitudeDegrees>42.96945671550929546356201171875</LatitudeDegrees>
              <LongitudeDegrees>-1.79316870868206024169921875</LongitudeDegrees>
            </Position>
            <AltitudeMeters>588.5999755859375</AltitudeMeters>
            <DistanceMeters>38949.546347452</DistanceMeters>
          </Trackpoint>
          <Trackpoint>
            <Time>2018-08-26T07:15:10.000Z</Time>
            <Position>
              <LatitudeDegrees>42.96950541436672210693359375</LatitudeDegrees>
              <LongitudeDegrees>-1.793231405317783355712890625</LongitudeDegrees>
            </Position>
            <AltitudeMeters>588.5999755859375</AltitudeMeters>
            <DistanceMeters>38956.99246519</DistanceMeters>
          </Trackpoint>
          <Trackpoint>
            <Time>2018-08-26T07:15:11.000Z</Time>
            <Position>
              <LatitudeDegrees>42.969554364681243896484375</LatitudeDegrees>
              <LongitudeDegrees>-1.79329385049641132354736328125</LongitudeDegrees>
            </Position>
            <AltitudeMeters>588.5999755859375</AltitudeMeters>
            <DistanceMeters>38964.444644075</DistanceMeters>
          </Trackpoint>
          <Trackpoint>
            <Time>2018-08-26T07:15:12.000Z</Time>
            <Position>
              <LatitudeDegrees>42.96960473991930484771728515625</LatitudeDegrees>
              <LongitudeDegrees>-1.79335570894181728363037109375</LongitudeDegrees>
            </Position>
            <AltitudeMeters>588.5999755859375</AltitudeMeters>
            <DistanceMeters>38971.981766265</DistanceMeters>
          </Trackpoint>
          <Trackpoint>
            <Time>2018-08-26T07:15:13.000Z</Time>
            <Position>
              <LatitudeDegrees>42.9696549475193023681640625</LatitudeDegrees>
              <LongitudeDegrees>-1.7934179864823818206787109375</LongitudeDegrees>
            </Position>
            <AltitudeMeters>588.5999755859375</AltitudeMeters>
            <DistanceMeters>38979.529065266</DistanceMeters>
          </Trackpoint>
          <Trackpoint>
            <Time>2018-08-26T07:15:14.000Z</Time>
            <Position>
              <LatitudeDegrees>42.96970414929091930389404296875</LatitudeDegrees>
              <LongitudeDegrees>-1.7934803478419780731201171875</LongitudeDegrees>
            </Position>
            <AltitudeMeters>588.5999755859375</AltitudeMeters>
            <DistanceMeters>38986.998189195</DistanceMeters>
          </Trackpoint>
          <Trackpoint>
            <Time>2018-08-26T07:15:15.000Z</Time>
            <Position>
              <LatitudeDegrees>42.9697541892528533935546875</LatitudeDegrees>
              <LongitudeDegrees>-1.793542541563510894775390625</LongitudeDegrees>
            </Position>
            <AltitudeMeters>588.5999755859375</AltitudeMeters>
            <DistanceMeters>38994.526320421</DistanceMeters>
          </Trackpoint>
          <Trackpoint>
            <Time>2018-08-26T07:15:16.000Z</Time>
            <Position>
              <LatitudeDegrees>42.96980422921478748321533203125</LatitudeDegrees>
              <LongitudeDegrees>-1.79360297508537769317626953125</LongitudeDegrees>
            </Position>
            <AltitudeMeters>588.5999755859375</AltitudeMeters>
            <DistanceMeters>39001.959086238</DistanceMeters>
          </Trackpoint>
          <Trackpoint>
            <Time>2018-08-26T07:15:17.000Z</Time>
            <Position>
              <LatitudeDegrees>42.9698549397289752960205078125</LatitudeDegrees>
              <LongitudeDegrees>-1.79366433061659336090087890625</LongitudeDegrees>
            </Position>
            <AltitudeMeters>588.5999755859375</AltitudeMeters>
            <DistanceMeters>39009.496807444</DistanceMeters>
          </Trackpoint>
          <Trackpoint>
            <Time>2018-08-26T07:15:18.000Z</Time>
            <Position>
              <LatitudeDegrees>42.96990565024316310882568359375</LatitudeDegrees>
              <LongitudeDegrees>-1.7937271110713481903076171875</LongitudeDegrees>
            </Position>
            <AltitudeMeters>588.5999755859375</AltitudeMeters>
            <DistanceMeters>39017.113185263</DistanceMeters>
          </Trackpoint>
          <Trackpoint>
            <Time>2018-08-26T07:15:19.000Z</Time>
            <Position>
              <LatitudeDegrees>42.969955690205097198486328125</LatitudeDegrees>
              <LongitudeDegrees>-1.79378938861191272735595703125</LongitudeDegrees>
            </Position>
            <AltitudeMeters>588.5999755859375</AltitudeMeters>
            <DistanceMeters>39024.646113005</DistanceMeters>
          </Trackpoint>
          <Trackpoint>
            <Time>2018-08-26T07:15:20.000Z</Time>
            <Position>
              <LatitudeDegrees>42.97000707127153873443603515625</LatitudeDegrees>
              <LongitudeDegrees>-1.79385158233344554901123046875</LongitudeDegrees>
            </Position>
            <AltitudeMeters>588.5999755859375</AltitudeMeters>
            <DistanceMeters>39032.284984256</DistanceMeters>
          </Trackpoint>
          <Trackpoint>
            <Time>2018-08-26T07:15:21.000Z</Time>
            <Position>
              <LatitudeDegrees>42.970058619976043701171875</LatitudeDegrees>
              <LongitudeDegrees>-1.7939145304262638092041015625</LongitudeDegrees>
            </Position>
            <AltitudeMeters>588.79998779296875</AltitudeMeters>
            <DistanceMeters>39039.978627807</DistanceMeters>
          </Trackpoint>
          <Trackpoint>
            <Time>2018-08-26T07:15:22.000Z</Time>
            <Position>
              <LatitudeDegrees>42.9701094143092632293701171875</LatitudeDegrees>
              <LongitudeDegrees>-1.79397915489971637725830078125</LongitudeDegrees>
            </Position>
            <AltitudeMeters>588.79998779296875</AltitudeMeters>
            <DistanceMeters>39047.702142874</DistanceMeters>
          </Trackpoint>
          <Trackpoint>
            <Time>2018-08-26T07:15:23.000Z</Time>
            <Position>
              <LatitudeDegrees>42.97015895135700702667236328125</LatitudeDegrees>
              <LongitudeDegrees>-1.7940442822873592376708984375</LongitudeDegrees>
            </Position>
            <AltitudeMeters>588.79998779296875</AltitudeMeters>
            <DistanceMeters>39055.35282621</DistanceMeters>
          </Trackpoint>
          <Trackpoint>
            <Time>2018-08-26T07:15:24.000Z</Time>
            <Position>
              <LatitudeDegrees>42.97020773403346538543701171875</LatitudeDegrees>
              <LongitudeDegrees>-1.79410823620855808258056640625</LongitudeDegrees>
            </Position>
            <AltitudeMeters>588.79998779296875</AltitudeMeters>
            <DistanceMeters>39062.876157862</DistanceMeters>
          </Trackpoint>
          <Trackpoint>
            <Time>2018-08-26T07:15:25.000Z</Time>
            <Position>
              <LatitudeDegrees>42.9702559299767017364501953125</LatitudeDegrees>
              <LongitudeDegrees>-1.79417009465396404266357421875</LongitudeDegrees>
            </Position>
            <AltitudeMeters>588.79998779296875</AltitudeMeters>
            <DistanceMeters>39070.235055092</DistanceMeters>
          </Trackpoint>
          <Trackpoint>
            <Time>2018-08-26T07:15:26.000Z</Time>
            <Position>
              <LatitudeDegrees>42.97030446119606494903564453125</LatitudeDegrees>
              <LongitudeDegrees>-1.7942303605377674102783203125</LongitudeDegrees>
            </Position>
            <AltitudeMeters>588.79998779296875</AltitudeMeters>
            <DistanceMeters>39077.534195522</DistanceMeters>
          </Trackpoint>
          <Trackpoint>
            <Time>2018-08-26T07:15:27.000Z</Time>
            <Position>
              <LatitudeDegrees>42.97035433351993560791015625</LatitudeDegrees>
              <LongitudeDegrees>-1.79429029114544391632080078125</LongitudeDegrees>
            </Position>
            <AltitudeMeters>588.79998779296875</AltitudeMeters>
            <DistanceMeters>39084.925539276</DistanceMeters>
          </Trackpoint>
          <Trackpoint>
            <Time>2018-08-26T07:15:28.000Z</Time>
            <Position>
              <LatitudeDegrees>42.970404960215091705322265625</LatitudeDegrees>
              <LongitudeDegrees>-1.79434997029602527618408203125</LongitudeDegrees>
            </Position>
            <AltitudeMeters>588.79998779296875</AltitudeMeters>
            <DistanceMeters>39092.366804541</DistanceMeters>
          </Trackpoint>
          <Trackpoint>
            <Time>2018-08-26T07:15:29.000Z</Time>
            <Position>
              <LatitudeDegrees>42.97045583836734294891357421875</LatitudeDegrees>
              <LongitudeDegrees>-1.79441065527498722076416015625</LongitudeDegrees>
            </Position>
            <AltitudeMeters>588.79998779296875</AltitudeMeters>
            <DistanceMeters>39099.882931086</DistanceMeters>
          </Trackpoint>
          <Trackpoint>
            <Time>2018-08-26T07:15:30.000Z</Time>
            <Position>
              <LatitudeDegrees>42.9705078899860382080078125</LatitudeDegrees>
              <LongitudeDegrees>-1.7944727651774883270263671875</LongitudeDegrees>
            </Position>
            <AltitudeMeters>588.79998779296875</AltitudeMeters>
            <DistanceMeters>39107.573639812</DistanceMeters>
          </Trackpoint>
          <Trackpoint>
            <Time>2018-08-26T07:15:31.000Z</Time>
            <Position>
              <LatitudeDegrees>42.9705606959760189056396484375</LatitudeDegrees>
              <LongitudeDegrees>-1.79453705437481403350830078125</LongitudeDegrees>
            </Position>
            <AltitudeMeters>589</AltitudeMeters>
            <DistanceMeters>39115.445385778</DistanceMeters>
          </Trackpoint>
          <Trackpoint>
            <Time>2018-08-26T07:15:32.000Z</Time>
            <Position>
              <LatitudeDegrees>42.97061375342309474945068359375</LatitudeDegrees>
              <LongitudeDegrees>-1.79460243321955204010009765625</LongitudeDegrees>
            </Position>
            <AltitudeMeters>589</AltitudeMeters>
            <DistanceMeters>39123.39702682</DistanceMeters>
          </Trackpoint>
          <Trackpoint>
            <Time>2018-08-26T07:15:33.000Z</Time>
            <Position>
              <LatitudeDegrees>42.97066840343177318572998046875</LatitudeDegrees>
              <LongitudeDegrees>-1.7946675606071949005126953125</LongitudeDegrees>
            </Position>
            <AltitudeMeters>589</AltitudeMeters>
            <DistanceMeters>39131.467027521</DistanceMeters>
          </Trackpoint>
          <Trackpoint>
            <Time>2018-08-26T07:15:34.000Z</Time>
            <Position>
              <LatitudeDegrees>42.97072405926883220672607421875</LatitudeDegrees>
              <LongitudeDegrees>-1.79473243653774261474609375</LongitudeDegrees>
            </Position>
            <AltitudeMeters>589.20001220703125</AltitudeMeters>
            <DistanceMeters>39139.608327239</DistanceMeters>
          </Trackpoint>
          <Trackpoint>
            <Time>2018-08-26T07:15:35.000Z</Time>
            <Position>
              <LatitudeDegrees>42.9707796312868595123291015625</LatitudeDegrees>
              <LongitudeDegrees>-1.7947956360876560211181640625</LongitudeDegrees>
            </Position>
            <AltitudeMeters>589.20001220703125</AltitudeMeters>
            <DistanceMeters>39147.654795291</DistanceMeters>
          </Trackpoint>
          <Trackpoint>
            <Time>2018-08-26T07:15:36.000Z</Time>
            <Position>
              <LatitudeDegrees>42.97083579003810882568359375</LatitudeDegrees>
              <LongitudeDegrees>-1.79485422559082508087158203125</LongitudeDegrees>
            </Position>
            <AltitudeMeters>589.20001220703125</AltitudeMeters>
            <DistanceMeters>39155.518507104</DistanceMeters>
          </Trackpoint>
          <Trackpoint>
            <Time>2018-08-26T07:15:37.000Z</Time>
            <Position>
              <LatitudeDegrees>42.9708963073790073394775390625</LatitudeDegrees>
              <LongitudeDegrees>-1.79490887559950351715087890625</LongitudeDegrees>
            </Position>
            <AltitudeMeters>589.20001220703125</AltitudeMeters>
            <DistanceMeters>39163.591304742</DistanceMeters>
          </Trackpoint>
          <Trackpoint>
            <Time>2018-08-26T07:15:38.000Z</Time>
            <Position>
              <LatitudeDegrees>42.9709606803953647613525390625</LatitudeDegrees>
              <LongitudeDegrees>-1.794958077371120452880859375</LongitudeDegrees>
            </Position>
            <AltitudeMeters>589.20001220703125</AltitudeMeters>
            <DistanceMeters>39171.800534943</DistanceMeters>
          </Trackpoint>
          <Trackpoint>
            <Time>2018-08-26T07:15:39.000Z</Time>
            <Position>
              <LatitudeDegrees>42.9710260592401027679443359375</LatitudeDegrees>
              <LongitudeDegrees>-1.7950001545250415802001953125</LongitudeDegrees>
            </Position>
            <AltitudeMeters>589.20001220703125</AltitudeMeters>
            <DistanceMeters>39179.843635567</DistanceMeters>
          </Trackpoint>
          <Trackpoint>
            <Time>2018-08-26T07:15:40.000Z</Time>
            <Position>
              <LatitudeDegrees>42.97109219245612621307373046875</LatitudeDegrees>
              <LongitudeDegrees>-1.79503762163221836090087890625</LongitudeDegrees>
            </Position>
            <AltitudeMeters>589.4000244140625</AltitudeMeters>
            <DistanceMeters>39187.812292766</DistanceMeters>
          </Trackpoint>
          <Trackpoint>
            <Time>2018-08-26T07:15:41.000Z</Time>
            <Position>
              <LatitudeDegrees>42.971159331500530242919921875</LatitudeDegrees>
              <LongitudeDegrees>-1.7950705625116825103759765625</LongitudeDegrees>
            </Position>
            <AltitudeMeters>589.4000244140625</AltitudeMeters>
            <DistanceMeters>39195.752569445</DistanceMeters>
          </Trackpoint>
          <Trackpoint>
            <Time>2018-08-26T07:15:42.000Z</Time>
            <Position>
              <LatitudeDegrees>42.97122781164944171905517578125</LatitudeDegrees>
              <LongitudeDegrees>-1.7951014079153537750244140625</LongitudeDegrees>
            </Position>
            <AltitudeMeters>589.4000244140625</AltitudeMeters>
            <DistanceMeters>39203.77768659</DistanceMeters>
          </Trackpoint>
          <Trackpoint>
            <Time>2018-08-26T07:15:43.000Z</Time>
            <Position>
              <LatitudeDegrees>42.97129620797932147979736328125</LatitudeDegrees>
              <LongitudeDegrees>-1.79513284005224704742431640625</LongitudeDegrees>
            </Position>
            <AltitudeMeters>589.4000244140625</AltitudeMeters>
            <DistanceMeters>39211.808427898</DistanceMeters>
          </Trackpoint>
          <Trackpoint>
            <Time>2018-08-26T07:15:44.000Z</Time>
            <Position>
              <LatitudeDegrees>42.97136393375694751739501953125</LatitudeDegrees>
              <LongitudeDegrees>-1.795163266360759735107421875</LongitudeDegrees>
            </Position>
            <AltitudeMeters>589.4000244140625</AltitudeMeters>
            <DistanceMeters>39219.743585304</DistanceMeters>
          </Trackpoint>
          <Trackpoint>
            <Time>2018-08-26T07:15:45.000Z</Time>
            <Position>
              <LatitudeDegrees>42.97143098898231983184814453125</LatitudeDegrees>
              <LongitudeDegrees>-1.79519084282219409942626953125</LongitudeDegrees>
            </Position>
            <AltitudeMeters>589.5999755859375</AltitudeMeters>
            <DistanceMeters>39227.537513982</DistanceMeters>
          </Trackpoint>
          <Trackpoint>
            <Time>2018-08-26T07:15:46.000Z</Time>
            <Position>
              <LatitudeDegrees>42.97149787656962871551513671875</LatitudeDegrees>
              <LongitudeDegrees>-1.7952184192836284637451171875</LongitudeDegrees>
            </Position>
            <AltitudeMeters>589.5999755859375</AltitudeMeters>
            <DistanceMeters>39235.313463561</DistanceMeters>
          </Trackpoint>
          <Trackpoint>
            <Time>2018-08-26T07:15:47.000Z</Time>
            <Position>
              <LatitudeDegrees>42.97156459651887416839599609375</LatitudeDegrees>
              <LongitudeDegrees>-1.79524582810699939727783203125</LongitudeDegrees>
            </Position>
            <AltitudeMeters>589.5999755859375</AltitudeMeters>
            <DistanceMeters>39243.067317375</DistanceMeters>
          </Trackpoint>
          <Trackpoint>
            <Time>2018-08-26T07:15:48.000Z</Time>
            <Position>
              <LatitudeDegrees>42.971630059182643890380859375</LatitudeDegrees>
              <LongitudeDegrees>-1.7952737398445606231689453125</LongitudeDegrees>
            </Position>
            <AltitudeMeters>589.5999755859375</AltitudeMeters>
            <DistanceMeters>39250.700275728</DistanceMeters>
          </Trackpoint>
          <Trackpoint>
            <Time>2018-08-26T07:15:49.000Z</Time>
            <Position>
              <LatitudeDegrees>42.971695773303508758544921875</LatitudeDegrees>
              <LongitudeDegrees>-1.79530483670532703399658203125</LongitudeDegrees>
            </Position>
            <AltitudeMeters>589.5999755859375</AltitudeMeters>
            <DistanceMeters>39258.44014182</DistanceMeters>
          </Trackpoint>
          <Trackpoint>
            <Time>2018-08-26T07:15:50.000Z</Time>
            <Position>
              <LatitudeDegrees>42.97175981104373931884765625</LatitudeDegrees>
              <LongitudeDegrees>-1.79534171707928180694580078125</LongitudeDegrees>
            </Position>
            <AltitudeMeters>589.5999755859375</AltitudeMeters>
            <DistanceMeters>39266.174172229</DistanceMeters>
          </Trackpoint>
          <Trackpoint>
            <Time>2018-08-26T07:15:51.000Z</Time>
            <Position>
              <LatitudeDegrees>42.9718179814517498016357421875</LatitudeDegrees>
              <LongitudeDegrees>-1.79538848809897899627685546875</LongitudeDegrees>
            </Position>
            <AltitudeMeters>589.5999755859375</AltitudeMeters>
            <DistanceMeters>39273.686693629</DistanceMeters>
          </Trackpoint>
          <Trackpoint>
            <Time>2018-08-26T07:15:52.000Z</Time>
            <Position>
              <LatitudeDegrees>42.971867434680461883544921875</LatitudeDegrees>
              <LongitudeDegrees>-1.79544992744922637939453125</LongitudeDegrees>
            </Position>
            <AltitudeMeters>589.5999755859375</AltitudeMeters>
            <DistanceMeters>39281.125531471</DistanceMeters>
          </Trackpoint>
          <Trackpoint>
            <Time>2018-08-26T07:15:53.000Z</Time>
            <Position>
              <LatitudeDegrees>42.97190423123538494110107421875</LatitudeDegrees>
              <LongitudeDegrees>-1.79552393965423107147216796875</LongitudeDegrees>
            </Position>
            <AltitudeMeters>589.5999755859375</AltitudeMeters>
            <DistanceMeters>39288.412289975</DistanceMeters>
          </Trackpoint>
          <Trackpoint>
            <Time>2018-08-26T07:15:54.000Z</Time>
            <Position>
              <LatitudeDegrees>42.97192669473588466644287109375</LatitudeDegrees>
              <LongitudeDegrees>-1.79560624994337558746337890625</LongitudeDegrees>
            </Position>
            <AltitudeMeters>589.5999755859375</AltitudeMeters>
            <DistanceMeters>39295.566482682</DistanceMeters>
          </Trackpoint>
          <Trackpoint>
            <Time>2018-08-26T07:15:55.000Z</Time>
            <Position>
              <LatitudeDegrees>42.97193490900099277496337890625</LatitudeDegrees>
              <LongitudeDegrees>-1.7956948466598987579345703125</LongitudeDegrees>
            </Position>
            <AltitudeMeters>589.79998779296875</AltitudeMeters>
            <DistanceMeters>39302.838975908</DistanceMeters>
          </Trackpoint>
          <Trackpoint>
            <Time>2018-08-26T07:15:56.000Z</Time>
            <Position>
              <LatitudeDegrees>42.9719343222677707672119140625</LatitudeDegrees>
              <LongitudeDegrees>-1.79578226990997791290283203125</LongitudeDegrees>
            </Position>
            <AltitudeMeters>589.79998779296875</AltitudeMeters>
            <DistanceMeters>39309.95837329</DistanceMeters>
          </Trackpoint>
          <Trackpoint>
            <Time>2018-08-26T07:15:57.000Z</Time>
            <Position>
              <LatitudeDegrees>42.971927784383296966552734375</LatitudeDegrees>
              <LongitudeDegrees>-1.7958712019026279449462890625</LongitudeDegrees>
            </Position>
            <AltitudeMeters>589.79998779296875</AltitudeMeters>
            <DistanceMeters>39317.237072246</DistanceMeters>
          </Trackpoint>
          <Trackpoint>
            <Time>2018-08-26T07:15:58.000Z</Time>
            <Position>
              <LatitudeDegrees>42.97191579826176166534423828125</LatitudeDegrees>
              <LongitudeDegrees>-1.7959610559046268463134765625</LongitudeDegrees>
            </Position>
            <AltitudeMeters>589.79998779296875</AltitudeMeters>
            <DistanceMeters>39324.675303109</DistanceMeters>
          </Trackpoint>
          <Trackpoint>
            <Time>2018-08-26T07:15:59.000Z</Time>
            <Position>
              <LatitudeDegrees>42.97190490178763866424560546875</LatitudeDegrees>
              <LongitudeDegrees>-1.79605300538241863250732421875</LongitudeDegrees>
            </Position>
            <AltitudeMeters>589.79998779296875</AltitudeMeters>
            <DistanceMeters>39332.261387552</DistanceMeters>
          </Trackpoint>
          <Trackpoint>
            <Time>2018-08-26T07:16:00.000Z</Time>
            <Position>
              <LatitudeDegrees>42.97189551405608654022216796875</LatitudeDegrees>
              <LongitudeDegrees>-1.79614520631730556488037109375</LongitudeDegrees>
            </Position>
            <AltitudeMeters>589.79998779296875</AltitudeMeters>
            <DistanceMeters>39339.842113539</DistanceMeters>
          </Trackpoint>
          <Trackpoint>
            <Time>2018-08-26T07:16:01.000Z</Time>
            <Position>
              <LatitudeDegrees>42.97188545577228069305419921875</LatitudeDegrees>
              <LongitudeDegrees>-1.7962336353957653045654296875</LongitudeDegrees>
            </Position>
            <AltitudeMeters>589.79998779296875</AltitudeMeters>
            <DistanceMeters>39347.130111182</DistanceMeters>
          </Trackpoint>
          <Trackpoint>
            <Time>2018-08-26T07:16:02.000Z</Time>
            <Position>
              <LatitudeDegrees>42.9718729667365550994873046875</LatitudeDegrees>
              <LongitudeDegrees>-1.79632340557873249053955078125</LongitudeDegrees>
            </Position>
            <AltitudeMeters>589.79998779296875</AltitudeMeters>
            <DistanceMeters>39354.572589863</DistanceMeters>
          </Trackpoint>
          <Trackpoint>
            <Time>2018-08-26T07:16:03.000Z</Time>
            <Position>
              <LatitudeDegrees>42.971864752471446990966796875</LatitudeDegrees>
              <LongitudeDegrees>-1.796414852142333984375</LongitudeDegrees>
            </Position>
            <AltitudeMeters>589.79998779296875</AltitudeMeters>
            <DistanceMeters>39362.075489072</DistanceMeters>
          </Trackpoint>
          <Trackpoint>
            <Time>2018-08-26T07:16:04.000Z</Time>
            <Position>
              <LatitudeDegrees>42.9718598909676074981689453125</LatitudeDegrees>
              <LongitudeDegrees>-1.79650579579174518585205078125</LongitudeDegrees>
            </Position>
            <AltitudeMeters>589.79998779296875</AltitudeMeters>
            <DistanceMeters>39369.500961904</DistanceMeters>
          </Trackpoint>
          <Trackpoint>
            <Time>2018-08-26T07:16:05.000Z</Time>
            <Position>
              <LatitudeDegrees>42.97185343690216541290283203125</LatitudeDegrees>
              <LongitudeDegrees>-1.79660067893564701080322265625</LongitudeDegrees>
            </Position>
            <AltitudeMeters>590</AltitudeMeters>
            <DistanceMeters>39377.26121833</DistanceMeters>
          </Trackpoint>
          <Trackpoint>
            <Time>2018-08-26T07:16:06.000Z</Time>
            <Position>
              <LatitudeDegrees>42.97184505499899387359619140625</LatitudeDegrees>
              <LongitudeDegrees>-1.79669841192662715911865234375</LongitudeDegrees>
            </Position>
            <AltitudeMeters>590</AltitudeMeters>
            <DistanceMeters>39385.275075308</DistanceMeters>
          </Trackpoint>
          <Trackpoint>
            <Time>2018-08-26T07:16:07.000Z</Time>
            <Position>
              <LatitudeDegrees>42.97184069640934467315673828125</LatitudeDegrees>
              <LongitudeDegrees>-1.796794049441814422607421875</LongitudeDegrees>
            </Position>
            <AltitudeMeters>590.4000244140625</AltitudeMeters>
            <DistanceMeters>39393.078845906</DistanceMeters>
          </Trackpoint>
          <Trackpoint>
            <Time>2018-08-26T07:16:08.000Z</Time>
            <Position>
              <LatitudeDegrees>42.97184153459966182708740234375</LatitudeDegrees>
              <LongitudeDegrees>-1.79688851349055767059326171875</LongitudeDegrees>
            </Position>
            <AltitudeMeters>590.79998779296875</AltitudeMeters>
            <DistanceMeters>39400.772489457</DistanceMeters>
          </Trackpoint>
          <Trackpoint>
            <Time>2018-08-26T07:16:09.000Z</Time>
            <Position>
              <LatitudeDegrees>42.97184756956994533538818359375</LatitudeDegrees>
              <LongitudeDegrees>-1.79698054678738117218017578125</LongitudeDegrees>
            </Position>
            <AltitudeMeters>591</AltitudeMeters>
            <DistanceMeters>39408.297621308</DistanceMeters>
          </Trackpoint>
          <Trackpoint>
            <Time>2018-08-26T07:16:10.000Z</Time>
            <Position>
              <LatitudeDegrees>42.971857376396656036376953125</LatitudeDegrees>
              <LongitudeDegrees>-1.7970704846084117889404296875</LongitudeDegrees>
            </Position>
            <AltitudeMeters>591.20001220703125</AltitudeMeters>
            <DistanceMeters>39415.703001396</DistanceMeters>
          </Trackpoint>
          <Trackpoint>
            <Time>2018-08-26T07:16:11.000Z</Time>
            <Position>
              <LatitudeDegrees>42.971871457993984222412109375</LatitudeDegrees>
              <LongitudeDegrees>-1.7971626855432987213134765625</LongitudeDegrees>
            </Position>
            <AltitudeMeters>591.4000244140625</AltitudeMeters>
            <DistanceMeters>39423.37254623</DistanceMeters>
          </Trackpoint>
          <Trackpoint>
            <Time>2018-08-26T07:16:12.000Z</Time>
            <Position>
              <LatitudeDegrees>42.97188880853354930877685546875</LatitudeDegrees>
              <LongitudeDegrees>-1.79725429974496364593505859375</LongitudeDegrees>
            </Position>
            <AltitudeMeters>591.4000244140625</AltitudeMeters>
            <DistanceMeters>39431.07850384</DistanceMeters>
          </Trackpoint>
          <Trackpoint>
            <Time>2018-08-26T07:16:13.000Z</Time>
            <Position>
              <LatitudeDegrees>42.9719080030918121337890625</LatitudeDegrees>
              <LongitudeDegrees>-1.79734666831791400909423828125</LongitudeDegrees>
            </Position>
            <AltitudeMeters>591.5999755859375</AltitudeMeters>
            <DistanceMeters>39438.898457656</DistanceMeters>
          </Trackpoint>
          <Trackpoint>
            <Time>2018-08-26T07:16:14.000Z</Time>
            <Position>
              <LatitudeDegrees>42.97192736528813838958740234375</LatitudeDegrees>
              <LongitudeDegrees>-1.7974407970905303955078125</LongitudeDegrees>
            </Position>
            <AltitudeMeters>592</AltitudeMeters>
            <DistanceMeters>39446.861446843</DistanceMeters>
          </Trackpoint>
          <Trackpoint>
            <Time>2018-08-26T07:16:15.000Z</Time>
            <Position>
              <LatitudeDegrees>42.971946895122528076171875</LatitudeDegrees>
              <LongitudeDegrees>-1.79753509350121021270751953125</LongitudeDegrees>
            </Position>
            <AltitudeMeters>592.20001220703125</AltitudeMeters>
            <DistanceMeters>39454.842559499</DistanceMeters>
          </Trackpoint>
          <Trackpoint>
            <Time>2018-08-26T07:16:16.000Z</Time>
            <Position>
              <LatitudeDegrees>42.97196692787110805511474609375</LatitudeDegrees>
              <LongitudeDegrees>-1.79763056337833404541015625</LongitudeDegrees>
            </Position>
            <AltitudeMeters>592.4000244140625</AltitudeMeters>
            <DistanceMeters>39462.93044388</DistanceMeters>
          </Trackpoint>
          <Trackpoint>
            <Time>2018-08-26T07:16:17.000Z</Time>
            <Position>
              <LatitudeDegrees>42.9719869606196880340576171875</LatitudeDegrees>
              <LongitudeDegrees>-1.7977269552648067474365234375</LongitudeDegrees>
            </Position>
            <AltitudeMeters>592.5999755859375</AltitudeMeters>
            <DistanceMeters>39471.090577684</DistanceMeters>
          </Trackpoint>
          <Trackpoint>
            <Time>2018-08-26T07:16:18.000Z</Time>
            <Position>
              <LatitudeDegrees>42.97200716100633144378662109375</LatitudeDegrees>
              <LongitudeDegrees>-1.7978215031325817108154296875</LongitudeDegrees>
            </Position>
            <AltitudeMeters>592.5999755859375</AltitudeMeters>
            <DistanceMeters>39479.112318439</DistanceMeters>
          </Trackpoint>
          <Trackpoint>
            <Time>2018-08-26T07:16:19.000Z</Time>
            <Position>
              <LatitudeDegrees>42.97202610410749912261962890625</LatitudeDegrees>
              <LongitudeDegrees>-1.79791479371488094329833984375</LongitudeDegrees>
            </Position>
            <AltitudeMeters>592.79998779296875</AltitudeMeters>
            <DistanceMeters>39486.996672962</DistanceMeters>
          </Trackpoint>
          <Trackpoint>
            <Time>2018-08-26T07:16:20.000Z</Time>
            <Position>
              <LatitudeDegrees>42.97204538248479366302490234375</LatitudeDegrees>
              <LongitudeDegrees>-1.79800984449684619903564453125</LongitudeDegrees>
            </Position>
            <AltitudeMeters>592.79998779296875</AltitudeMeters>
            <DistanceMeters>39495.029100751</DistanceMeters>
          </Trackpoint>
          <Trackpoint>
            <Time>2018-08-26T07:16:21.000Z</Time>
            <Position>
              <LatitudeDegrees>42.97206549905240535736083984375</LatitudeDegrees>
              <LongitudeDegrees>-1.7981091700494289398193359375</LongitudeDegrees>
            </Position>
            <AltitudeMeters>592.79998779296875</AltitudeMeters>
            <DistanceMeters>39503.42270882</DistanceMeters>
          </Trackpoint>
          <Trackpoint>
            <Time>2018-08-26T07:16:22.000Z</Time>
            <Position>
              <LatitudeDegrees>42.9720845259726047515869140625</LatitudeDegrees>
              <LongitudeDegrees>-1.7982104234397411346435546875</LongitudeDegrees>
            </Position>
            <AltitudeMeters>592.79998779296875</AltitudeMeters>
            <DistanceMeters>39511.936487277</DistanceMeters>
          </Trackpoint>
          <Trackpoint>
            <Time>2018-08-26T07:16:23.000Z</Time>
            <Position>
              <LatitudeDegrees>42.9721026308834552764892578125</LatitudeDegrees>
              <LongitudeDegrees>-1.7983151972293853759765625</LongitudeDegrees>
            </Position>
            <AltitudeMeters>592.79998779296875</AltitudeMeters>
            <DistanceMeters>39520.704729452</DistanceMeters>
          </Trackpoint>
          <Trackpoint>
            <Time>2018-08-26T07:16:24.000Z</Time>
            <Position>
              <LatitudeDegrees>42.97212014906108379364013671875</LatitudeDegrees>
              <LongitudeDegrees>-1.798424161970615386962890625</LongitudeDegrees>
            </Position>
            <AltitudeMeters>592.79998779296875</AltitudeMeters>
            <DistanceMeters>39529.790595336</DistanceMeters>
          </Trackpoint>
          <Trackpoint>
            <Time>2018-08-26T07:16:25.000Z</Time>
            <Position>
              <LatitudeDegrees>42.97213640995323657989501953125</LatitudeDegrees>
              <LongitudeDegrees>-1.7985359765589237213134765625</LongitudeDegrees>
            </Position>
            <AltitudeMeters>592.79998779296875</AltitudeMeters>
            <DistanceMeters>39539.07505061</DistanceMeters>
          </Trackpoint>
          <Trackpoint>
            <Time>2018-08-26T07:16:26.000Z</Time>
            <Position>
              <LatitudeDegrees>42.97215283848345279693603515625</LatitudeDegrees>
              <LongitudeDegrees>-1.798650808632373809814453125</LongitudeDegrees>
            </Position>
            <AltitudeMeters>592.79998779296875</AltitudeMeters>
            <DistanceMeters>39548.60429238</DistanceMeters>
          </Trackpoint>
          <Trackpoint>
            <Time>2018-08-26T07:16:27.000Z</Time>
            <Position>
              <LatitudeDegrees>42.9721683450043201446533203125</LatitudeDegrees>
              <LongitudeDegrees>-1.79876605980098247528076171875</LongitudeDegrees>
            </Position>
            <AltitudeMeters>592.79998779296875</AltitudeMeters>
            <DistanceMeters>39558.147737828</DistanceMeters>
          </Trackpoint>
          <Trackpoint>
            <Time>2018-08-26T07:16:28.000Z</Time>
            <Position>
              <LatitudeDegrees>42.97218334861099720001220703125</LatitudeDegrees>
              <LongitudeDegrees>-1.7988819815218448638916015625</LongitudeDegrees>
            </Position>
            <AltitudeMeters>592.79998779296875</AltitudeMeters>
            <DistanceMeters>39567.73461</DistanceMeters>
          </Trackpoint>
          <Trackpoint>
            <Time>2018-08-26T07:16:29.000Z</Time>
            <Position>
              <LatitudeDegrees>42.9722001962363719940185546875</LatitudeDegrees>
              <LongitudeDegrees>-1.7990010045468807220458984375</LongitudeDegrees>
            </Position>
            <AltitudeMeters>592.79998779296875</AltitudeMeters>
            <DistanceMeters>39577.607332276</DistanceMeters>
          </Trackpoint>
          <Trackpoint>
            <Time>2018-08-26T07:16:30.000Z</Time>
            <Position>
              <LatitudeDegrees>42.97221872024238109588623046875</LatitudeDegrees>
              <LongitudeDegrees>-1.7991213686764240264892578125</LongitudeDegrees>
            </Position>
            <AltitudeMeters>592.79998779296875</AltitudeMeters>
            <DistanceMeters>39587.623977392</DistanceMeters>
          </Trackpoint>
          <Trackpoint>
            <Time>2018-08-26T07:16:31.000Z</Time>
            <Position>
              <LatitudeDegrees>42.97224101610481739044189453125</LatitudeDegrees>
              <LongitudeDegrees>-1.799241565167903900146484375</LongitudeDegrees>
            </Position>
            <AltitudeMeters>592.5999755859375</AltitudeMeters>
            <DistanceMeters>39597.721879312</DistanceMeters>
          </Trackpoint>
          <Trackpoint>
            <Time>2018-08-26T07:16:32.000Z</Time>
            <Position>
              <LatitudeDegrees>42.9722706042230129241943359375</LatitudeDegrees>
              <LongitudeDegrees>-1.799357235431671142578125</LongitudeDegrees>
            </Position>
            <AltitudeMeters>592.4000244140625</AltitudeMeters>
            <DistanceMeters>39607.701041753</DistanceMeters>
          </Trackpoint>
          <Trackpoint>
            <Time>2018-08-26T07:16:33.000Z</Time>
            <Position>
              <LatitudeDegrees>42.97231008298695087432861328125</LatitudeDegrees>
              <LongitudeDegrees>-1.79946695454418659210205078125</LongitudeDegrees>
            </Position>
            <AltitudeMeters>592.20001220703125</AltitudeMeters>
            <DistanceMeters>39617.658463074</DistanceMeters>
          </Trackpoint>
          <Trackpoint>
            <Time>2018-08-26T07:16:34.000Z</Time>
            <Position>
              <LatitudeDegrees>42.97235987149178981781005859375</LatitudeDegrees>
              <LongitudeDegrees>-1.79956636391580104827880859375</LongitudeDegrees>
            </Position>
            <AltitudeMeters>591.79998779296875</AltitudeMeters>
            <DistanceMeters>39627.469712479</DistanceMeters>
          </Trackpoint>
          <Trackpoint>
            <Time>2018-08-26T07:16:35.000Z</Time>
            <Position>
              <LatitudeDegrees>42.9724201373755931854248046875</LatitudeDegrees>
              <LongitudeDegrees>-1.799655295908451080322265625</LongitudeDegrees>
            </Position>
            <AltitudeMeters>591.5999755859375</AltitudeMeters>
            <DistanceMeters>39637.341520064</DistanceMeters>
          </Trackpoint>
          <Trackpoint>
            <Time>2018-08-26T07:16:36.000Z</Time>
            <Position>
              <LatitudeDegrees>42.972488366067409515380859375</LatitudeDegrees>
              <LongitudeDegrees>-1.79973567835986614227294921875</LongitudeDegrees>
            </Position>
            <AltitudeMeters>591.5999755859375</AltitudeMeters>
            <DistanceMeters>39647.367626535</DistanceMeters>
          </Trackpoint>
          <Trackpoint>
            <Time>2018-08-26T07:16:37.000Z</Time>
            <Position>
              <LatitudeDegrees>42.97256019897758960723876953125</LatitudeDegrees>
              <LongitudeDegrees>-1.79981078021228313446044921875</LongitudeDegrees>
            </Position>
            <AltitudeMeters>591.4000244140625</AltitudeMeters>
            <DistanceMeters>39657.434180953</DistanceMeters>
          </Trackpoint>
          <Trackpoint>
            <Time>2018-08-26T07:16:38.000Z</Time>
            <Position>
              <LatitudeDegrees>42.9726327024400234222412109375</LatitudeDegrees>
              <LongitudeDegrees>-1.79988496005535125732421875</LongitudeDegrees>
            </Position>
            <AltitudeMeters>591.20001220703125</AltitudeMeters>
            <DistanceMeters>39667.514181953</DistanceMeters>
          </Trackpoint>
          <Trackpoint>
            <Time>2018-08-26T07:16:39.000Z</Time>
            <Position>
              <LatitudeDegrees>42.9727047868072986602783203125</LatitudeDegrees>
              <LongitudeDegrees>-1.79995863698422908782958984375</LongitudeDegrees>
            </Position>
            <AltitudeMeters>591.20001220703125</AltitudeMeters>
            <DistanceMeters>39677.533080582</DistanceMeters>
          </Trackpoint>
          <Trackpoint>
            <Time>2018-08-26T07:16:40.000Z</Time>
            <Position>
              <LatitudeDegrees>42.97277293168008327484130859375</LatitudeDegrees>
              <LongitudeDegrees>-1.80003340356051921844482421875</LongitudeDegrees>
            </Position>
            <AltitudeMeters>591</AltitudeMeters>
            <DistanceMeters>39687.259286463</DistanceMeters>
          </Trackpoint>
          <Trackpoint>
            <Time>2018-08-26T07:16:41.000Z</Time>
            <Position>
              <LatitudeDegrees>42.97283344902098178863525390625</LatitudeDegrees>
              <LongitudeDegrees>-1.8001141212880611419677734375</LongitudeDegrees>
            </Position>
            <AltitudeMeters>591</AltitudeMeters>
            <DistanceMeters>39696.670769865</DistanceMeters>
          </Trackpoint>
          <Trackpoint>
            <Time>2018-08-26T07:16:42.000Z</Time>
            <Position>
              <LatitudeDegrees>42.97288659028708934783935546875</LatitudeDegrees>
              <LongitudeDegrees>-1.8002012930810451507568359375</LongitudeDegrees>
            </Position>
            <AltitudeMeters>590.79998779296875</AltitudeMeters>
            <DistanceMeters>39705.910865794</DistanceMeters>
          </Trackpoint>
          <Trackpoint>
            <Time>2018-08-26T07:16:43.000Z</Time>
            <Position>
              <LatitudeDegrees>42.972932271659374237060546875</LatitudeDegrees>
              <LongitudeDegrees>-1.8002955056726932525634765625</LongitudeDegrees>
            </Position>
            <AltitudeMeters>590.5999755859375</AltitudeMeters>
            <DistanceMeters>39715.115222219</DistanceMeters>
          </Trackpoint>
          <Trackpoint>
            <Time>2018-08-26T07:16:44.000Z</Time>
            <Position>
              <LatitudeDegrees>42.97297225333750247955322265625</LatitudeDegrees>
              <LongitudeDegrees>-1.80039499886333942413330078125</LongitudeDegrees>
            </Position>
            <AltitudeMeters>590.4000244140625</AltitudeMeters>
            <DistanceMeters>39724.359226405</DistanceMeters>
          </Trackpoint>
          <Trackpoint>
            <Time>2018-08-26T07:16:45.000Z</Time>
            <Position>
              <LatitudeDegrees>42.973009385168552398681640625</LatitudeDegrees>
              <LongitudeDegrees>-1.80049709044396877288818359375</LongitudeDegrees>
            </Position>
            <AltitudeMeters>590.20001220703125</AltitudeMeters>
            <DistanceMeters>39733.643681679</DistanceMeters>
          </Trackpoint>
          <Trackpoint>
            <Time>2018-08-26T07:16:46.000Z</Time>
            <Position>
              <LatitudeDegrees>42.9730437509715557098388671875</LatitudeDegrees>
              <LongitudeDegrees>-1.8006022833287715911865234375</LongitudeDegrees>
            </Position>
            <AltitudeMeters>590</AltitudeMeters>
            <DistanceMeters>39743.025374229</DistanceMeters>
          </Trackpoint>
          <Trackpoint>
            <Time>2018-08-26T07:16:47.000Z</Time>
            <Position>
              <LatitudeDegrees>42.97307518310844898223876953125</LatitudeDegrees>
              <LongitudeDegrees>-1.80070999078452587127685546875</LongitudeDegrees>
            </Position>
            <AltitudeMeters>590</AltitudeMeters>
            <DistanceMeters>39752.467989058</DistanceMeters>
          </Trackpoint>
          <Trackpoint>
            <Time>2018-08-26T07:16:48.000Z</Time>
            <Position>
              <LatitudeDegrees>42.97310627996921539306640625</LatitudeDegrees>
              <LongitudeDegrees>-1.8008182011544704437255859375</LongitudeDegrees>
            </Position>
            <AltitudeMeters>590</AltitudeMeters>
            <DistanceMeters>39761.935435323</DistanceMeters>
          </Trackpoint>
          <Trackpoint>
            <Time>2018-08-26T07:16:49.000Z</Time>
            <Position>
              <LatitudeDegrees>42.97313821502029895782470703125</LatitudeDegrees>
              <LongitudeDegrees>-1.80092624388635158538818359375</LongitudeDegrees>
            </Position>
            <AltitudeMeters>590</AltitudeMeters>
            <DistanceMeters>39771.424793694</DistanceMeters>
          </Trackpoint>
          <Trackpoint>
            <Time>2018-08-26T07:16:50.000Z</Time>
            <Position>
              <LatitudeDegrees>42.97317090444266796112060546875</LatitudeDegrees>
              <LongitudeDegrees>-1.80103403516113758087158203125</LongitudeDegrees>
            </Position>
            <AltitudeMeters>590</AltitudeMeters>
            <DistanceMeters>39780.926989986</DistanceMeters>
          </Trackpoint>
          <Trackpoint>
            <Time>2018-08-26T07:16:51.000Z</Time>
            <Position>
              <LatitudeDegrees>42.973205186426639556884765625</LatitudeDegrees>
              <LongitudeDegrees>-1.8011420778930187225341796875</LongitudeDegrees>
            </Position>
            <AltitudeMeters>590</AltitudeMeters>
            <DistanceMeters>39790.516687505</DistanceMeters>
          </Trackpoint>
          <Trackpoint>
            <Time>2018-08-26T07:16:52.000Z</Time>
            <Position>
              <LatitudeDegrees>42.97324080951511859893798828125</LatitudeDegrees>
              <LongitudeDegrees>-1.80124743841588497161865234375</LongitudeDegrees>
            </Position>
            <AltitudeMeters>590.20001220703125</AltitudeMeters>
            <DistanceMeters>39799.968860606</DistanceMeters>
          </Trackpoint>
          <Trackpoint>
            <Time>2018-08-26T07:16:53.000Z</Time>
            <Position>
              <LatitudeDegrees>42.97327802516520023345947265625</LatitudeDegrees>
              <LongitudeDegrees>-1.801349781453609466552734375</LongitudeDegrees>
            </Position>
            <AltitudeMeters>590.20001220703125</AltitudeMeters>
            <DistanceMeters>39809.275658834</DistanceMeters>
          </Trackpoint>
          <Trackpoint>
            <Time>2018-08-26T07:16:54.000Z</Time>
            <Position>
              <LatitudeDegrees>42.97332077287137508392333984375</LatitudeDegrees>
              <LongitudeDegrees>-1.80144793353974819183349609375</LongitudeDegrees>
            </Position>
            <AltitudeMeters>590.4000244140625</AltitudeMeters>
            <DistanceMeters>39818.577604463</DistanceMeters>
          </Trackpoint>
          <Trackpoint>
            <Time>2018-08-26T07:16:55.000Z</Time>
            <Position>
              <LatitudeDegrees>42.9733686335384845733642578125</LatitudeDegrees>
              <LongitudeDegrees>-1.801541559398174285888671875</LongitudeDegrees>
            </Position>
            <AltitudeMeters>590.4000244140625</AltitudeMeters>
            <DistanceMeters>39827.878579268</DistanceMeters>
          </Trackpoint>
          <Trackpoint>
            <Time>2018-08-26T07:16:56.000Z</Time>
            <Position>
              <LatitudeDegrees>42.9734180867671966552734375</LatitudeDegrees>
              <LongitudeDegrees>-1.80163585580885410308837890625</LongitudeDegrees>
            </Position>
            <AltitudeMeters>590.4000244140625</AltitudeMeters>
            <DistanceMeters>39837.325974442</DistanceMeters>
          </Trackpoint>
          <Trackpoint>
            <Time>2018-08-26T07:16:57.000Z</Time>
            <Position>
              <LatitudeDegrees>42.973468042910099029541015625</LatitudeDegrees>
              <LongitudeDegrees>-1.80173174478113651275634765625</LongitudeDegrees>
            </Position>
            <AltitudeMeters>590.4000244140625</AltitudeMeters>
            <DistanceMeters>39846.912375642</DistanceMeters>
          </Trackpoint>
          <Trackpoint>
            <Time>2018-08-26T07:16:58.000Z</Time>
            <Position>
              <LatitudeDegrees>42.97351934015750885009765625</LatitudeDegrees>
              <LongitudeDegrees>-1.8018293939530849456787109375</LongitudeDegrees>
            </Position>
            <AltitudeMeters>590.4000244140625</AltitudeMeters>
            <DistanceMeters>39856.701511009</DistanceMeters>
          </Trackpoint>
          <Trackpoint>
            <Time>2018-08-26T07:16:59.000Z</Time>
            <Position>
              <LatitudeDegrees>42.973571307957172393798828125</LatitudeDegrees>
              <LongitudeDegrees>-1.80192838422954082489013671875</LongitudeDegrees>
            </Position>
            <AltitudeMeters>590.4000244140625</AltitudeMeters>
            <DistanceMeters>39866.623501403</DistanceMeters>
          </Trackpoint>
          <Trackpoint>
            <Time>2018-08-26T07:17:00.000Z</Time>
            <Position>
              <LatitudeDegrees>42.973622940480709075927734375</LatitudeDegrees>
              <LongitudeDegrees>-1.8020282126963138580322265625</LongitudeDegrees>
            </Position>
            <AltitudeMeters>590.4000244140625</AltitudeMeters>
            <DistanceMeters>39876.579108821</DistanceMeters>
          </Trackpoint>
          <Trackpoint>
            <Time>2018-08-26T07:17:01.000Z</Time>
            <Position>
              <LatitudeDegrees>42.97367398627102375030517578125</LatitudeDegrees>
              <LongitudeDegrees>-1.802129633724689483642578125</LongitudeDegrees>
            </Position>
            <AltitudeMeters>590.4000244140625</AltitudeMeters>
            <DistanceMeters>39886.603413818</DistanceMeters>
          </Trackpoint>
          <Trackpoint>
            <Time>2018-08-26T07:17:02.000Z</Time>
            <Position>
              <LatitudeDegrees>42.97372377477586269378662109375</LatitudeDegrees>
              <LongitudeDegrees>-1.802230216562747955322265625</LongitudeDegrees>
            </Position>
            <AltitudeMeters>590.4000244140625</AltitudeMeters>
            <DistanceMeters>39896.492586073</DistanceMeters>
          </Trackpoint>
          <Trackpoint>
            <Time>2018-08-26T07:17:03.000Z</Time>
            <Position>
              <LatitudeDegrees>42.97377280890941619873046875</LatitudeDegrees>
              <LongitudeDegrees>-1.8023286201059818267822265625</LongitudeDegrees>
            </Position>
            <AltitudeMeters>590.4000244140625</AltitudeMeters>
            <DistanceMeters>39906.187174028</DistanceMeters>
          </Trackpoint>
          <Trackpoint>
            <Time>2018-08-26T07:17:04.000Z</Time>
            <Position>
              <LatitudeDegrees>42.97382134012877941131591796875</LatitudeDegrees>
              <LongitudeDegrees>-1.8024261854588985443115234375</LongitudeDegrees>
            </Position>
            <AltitudeMeters>590.4000244140625</AltitudeMeters>
            <DistanceMeters>39915.794746115</DistanceMeters>
          </Trackpoint>
          <Trackpoint>
            <Time>2018-08-26T07:17:05.000Z</Time>
            <Position>
              <LatitudeDegrees>42.97386861406266689300537109375</LatitudeDegrees>
              <LongitudeDegrees>-1.8025230802595615386962890625</LongitudeDegrees>
            </Position>
            <AltitudeMeters>590.4000244140625</AltitudeMeters>
            <DistanceMeters>39925.279345292</DistanceMeters>
          </Trackpoint>
          <Trackpoint>
            <Time>2018-08-26T07:17:06.000Z</Time>
            <Position>
              <LatitudeDegrees>42.97391354106366634368896484375</LatitudeDegrees>
              <LongitudeDegrees>-1.80261452682316303253173828125</LongitudeDegrees>
            </Position>
            <AltitudeMeters>590.4000244140625</AltitudeMeters>
            <DistanceMeters>39934.249182588</DistanceMeters>
          </Trackpoint>
          <Trackpoint>
            <Time>2018-08-26T07:17:07.000Z</Time>
            <Position>
              <LatitudeDegrees>42.9739572107791900634765625</LatitudeDegrees>
              <LongitudeDegrees>-1.80270220153033733367919921875</LongitudeDegrees>
            </Position>
            <AltitudeMeters>590.4000244140625</AltitudeMeters>
            <DistanceMeters>39942.886687527</DistanceMeters>
          </Trackpoint>
          <Trackpoint>
            <Time>2018-08-26T07:17:08.000Z</Time>
            <Position>
              <LatitudeDegrees>42.973997779190540313720703125</LatitudeDegrees>
              <LongitudeDegrees>-1.80278752930462360382080078125</LongitudeDegrees>
            </Position>
            <AltitudeMeters>590.4000244140625</AltitudeMeters>
            <DistanceMeters>39951.174193873</DistanceMeters>
          </Trackpoint>
          <Trackpoint>
            <Time>2018-08-26T07:17:09.000Z</Time>
            <Position>
              <LatitudeDegrees>42.97403440810739994049072265625</LatitudeDegrees>
              <LongitudeDegrees>-1.80286983959376811981201171875</LongitudeDegrees>
            </Position>
            <AltitudeMeters>590.4000244140625</AltitudeMeters>
            <DistanceMeters>39959.019511014</DistanceMeters>
          </Trackpoint>
          <Trackpoint>
            <Time>2018-08-26T07:17:10.000Z</Time>
            <Position>
              <LatitudeDegrees>42.97406877391040325164794921875</LatitudeDegrees>
              <LongitudeDegrees>-1.8029492162168025970458984375</LongitudeDegrees>
            </Position>
            <AltitudeMeters>590.4000244140625</AltitudeMeters>
            <DistanceMeters>39966.530229192</DistanceMeters>
          </Trackpoint>
          <Trackpoint>
            <Time>2018-08-26T07:17:11.000Z</Time>
            <Position>
              <LatitudeDegrees>42.97410313971340656280517578125</LatitudeDegrees>
              <LongitudeDegrees>-1.80302716791629791259765625</LongitudeDegrees>
            </Position>
            <AltitudeMeters>590.4000244140625</AltitudeMeters>
            <DistanceMeters>39973.942312912</DistanceMeters>
          </Trackpoint>
          <Trackpoint>
            <Time>2018-08-26T07:17:12.000Z</Time>
            <Position>
              <LatitudeDegrees>42.9741369187831878662109375</LatitudeDegrees>
              <LongitudeDegrees>-1.8031034432351589202880859375</LongitudeDegrees>
            </Position>
            <AltitudeMeters>590.4000244140625</AltitudeMeters>
            <DistanceMeters>39981.20300064</DistanceMeters>
          </Trackpoint>
          <Trackpoint>
            <Time>2018-08-26T07:17:13.000Z</Time>
            <Position>
              <LatitudeDegrees>42.974165417253971099853515625</LatitudeDegrees>
              <LongitudeDegrees>-1.80318047292530536651611328125</LongitudeDegrees>
            </Position>
            <AltitudeMeters>590.5999755859375</AltitudeMeters>
            <DistanceMeters>39988.232408745</DistanceMeters>
          </Trackpoint>
          <Trackpoint>
            <Time>2018-08-26T07:17:14.000Z</Time>
            <Position>
              <LatitudeDegrees>42.97419265843927860260009765625</LatitudeDegrees>
              <LongitudeDegrees>-1.80325976572930812835693359375</LongitudeDegrees>
            </Position>
            <AltitudeMeters>590.79998779296875</AltitudeMeters>
            <DistanceMeters>39995.366377545</DistanceMeters>
          </Trackpoint>
          <Trackpoint>
            <Time>2018-08-26T07:17:15.000Z</Time>
            <Position>
              <LatitudeDegrees>42.974220402538776397705078125</LatitudeDegrees>
              <LongitudeDegrees>-1.80333805270493030548095703125</LongitudeDegrees>
            </Position>
            <AltitudeMeters>591</AltitudeMeters>
            <DistanceMeters>40002.450808706</DistanceMeters>
          </Trackpoint>
          <Trackpoint>
            <Time>2018-08-26T07:17:16.000Z</Time>
            <Position>
              <LatitudeDegrees>42.9742442071437835693359375</LatitudeDegrees>
              <LongitudeDegrees>-1.80341877043247222900390625</LongitudeDegrees>
            </Position>
            <AltitudeMeters>591.5999755859375</AltitudeMeters>
            <DistanceMeters>40009.538425742</DistanceMeters>
          </Trackpoint>
          <Trackpoint>
            <Time>2018-08-26T07:17:17.000Z</Time>
            <Position>
              <LatitudeDegrees>42.97426390461623668670654296875</LatitudeDegrees>
              <LongitudeDegrees>-1.8035037629306316375732421875</LongitudeDegrees>
            </Position>
            <AltitudeMeters>592.20001220703125</AltitudeMeters>
            <DistanceMeters>40016.797869669</DistanceMeters>
          </Trackpoint>
          <Trackpoint>
            <Time>2018-08-26T07:17:18.000Z</Time>
            <Position>
              <LatitudeDegrees>42.974284105002880096435546875</LatitudeDegrees>
              <LongitudeDegrees>-1.8035937845706939697265625</LongitudeDegrees>
            </Position>
            <AltitudeMeters>592.4000244140625</AltitudeMeters>
            <DistanceMeters>40024.466237018</DistanceMeters>
          </Trackpoint>
          <Trackpoint>
            <Time>2018-08-26T07:17:19.000Z</Time>
            <Position>
              <LatitudeDegrees>42.9743003658950328826904296875</LatitudeDegrees>
              <LongitudeDegrees>-1.8036841414868831634521484375</LongitudeDegrees>
            </Position>
            <AltitudeMeters>592.79998779296875</AltitudeMeters>
            <DistanceMeters>40032.044580253</DistanceMeters>
          </Trackpoint>
          <Trackpoint>
            <Time>2018-08-26T07:17:20.000Z</Time>
            <Position>
              <LatitudeDegrees>42.97431905753910541534423828125</LatitudeDegrees>
              <LongitudeDegrees>-1.80377743206918239593505859375</LongitudeDegrees>
            </Position>
            <AltitudeMeters>593.20001220703125</AltitudeMeters>
            <DistanceMeters>40039.922059883</DistanceMeters>
          </Trackpoint>
          <Trackpoint>
            <Time>2018-08-26T07:17:21.000Z</Time>
            <Position>
              <LatitudeDegrees>42.9743369109928607940673828125</LatitudeDegrees>
              <LongitudeDegrees>-1.80387265048921108245849609375</LongitudeDegrees>
            </Position>
            <AltitudeMeters>593.4000244140625</AltitudeMeters>
            <DistanceMeters>40047.925769167</DistanceMeters>
          </Trackpoint>
          <Trackpoint>
            <Time>2018-08-26T07:17:22.000Z</Time>
            <Position>
              <LatitudeDegrees>42.974355854094028472900390625</LatitudeDegrees>
              <LongitudeDegrees>-1.80396904237568378448486328125</LongitudeDegrees>
            </Position>
            <AltitudeMeters>593.4000244140625</AltitudeMeters>
            <DistanceMeters>40056.05374796</DistanceMeters>
          </Trackpoint>
          <Trackpoint>
            <Time>2018-08-26T07:17:23.000Z</Time>
            <Position>
              <LatitudeDegrees>42.974374294281005859375</LatitudeDegrees>
              <LongitudeDegrees>-1.80406459607183933258056640625</LongitudeDegrees>
            </Position>
            <AltitudeMeters>593.5999755859375</AltitudeMeters>
            <DistanceMeters>40064.100777112</DistanceMeters>
          </Trackpoint>
          <Trackpoint>
            <Time>2018-08-26T07:17:24.000Z</Time>
            <Position>
              <LatitudeDegrees>42.97439348883926868438720703125</LatitudeDegrees>
              <LongitudeDegrees>-1.80415579117834568023681640625</LongitudeDegrees>
            </Position>
            <AltitudeMeters>594</AltitudeMeters>
            <DistanceMeters>40071.828383179</DistanceMeters>
          </Trackpoint>
          <Trackpoint>
            <Time>2018-08-26T07:17:25.000Z</Time>
            <Position>
              <LatitudeDegrees>42.97441251575946807861328125</LatitudeDegrees>
              <LongitudeDegrees>-1.80424111895263195037841796875</LongitudeDegrees>
            </Position>
            <AltitudeMeters>594.20001220703125</AltitudeMeters>
            <DistanceMeters>40079.092801032</DistanceMeters>
          </Trackpoint>
          <Trackpoint>
            <Time>2018-08-26T07:17:26.000Z</Time>
            <Position>
              <LatitudeDegrees>42.9744319617748260498046875</LatitudeDegrees>
              <LongitudeDegrees>-1.80432124994695186614990234375</LongitudeDegrees>
            </Position>
            <AltitudeMeters>594.5999755859375</AltitudeMeters>
            <DistanceMeters>40085.967640674</DistanceMeters>
          </Trackpoint>
          <Trackpoint>
            <Time>2018-08-26T07:17:27.000Z</Time>
            <Position>
              <LatitudeDegrees>42.9744561016559600830078125</LatitudeDegrees>
              <LongitudeDegrees>-1.8043984472751617431640625</LongitudeDegrees>
            </Position>
            <AltitudeMeters>595</AltitudeMeters>
            <DistanceMeters>40092.804282809</DistanceMeters>
          </Trackpoint>
          <Trackpoint>
            <Time>2018-08-26T07:17:28.000Z</Time>
            <Position>
              <LatitudeDegrees>42.974489293992519378662109375</LatitudeDegrees>
              <LongitudeDegrees>-1.8044703640043735504150390625</LongitudeDegrees>
            </Position>
            <AltitudeMeters>595.20001220703125</AltitudeMeters>
            <DistanceMeters>40099.728855425</DistanceMeters>
          </Trackpoint>
          <Trackpoint>
            <Time>2018-08-26T07:17:29.000Z</Time>
            <Position>
              <LatitudeDegrees>42.97453464008867740631103515625</LatitudeDegrees>
              <LongitudeDegrees>-1.80453297682106494903564453125</LongitudeDegrees>
            </Position>
            <AltitudeMeters>595.5999755859375</AltitudeMeters>
            <DistanceMeters>40106.903844331</DistanceMeters>
          </Trackpoint>
          <Trackpoint>
            <Time>2018-08-26T07:17:30.000Z</Time>
            <Position>
              <LatitudeDegrees>42.9745876975357532501220703125</LatitudeDegrees>
              <LongitudeDegrees>-1.80458494462072849273681640625</LongitudeDegrees>
            </Position>
            <AltitudeMeters>595.79998779296875</AltitudeMeters>
            <DistanceMeters>40114.169505133</DistanceMeters>
          </Trackpoint>
          <Trackpoint>
            <Time>2018-08-26T07:17:31.000Z</Time>
            <Position>
              <LatitudeDegrees>42.97464678995311260223388671875</LatitudeDegrees>
              <LongitudeDegrees>-1.80462651886045932769775390625</LongitudeDegrees>
            </Position>
            <AltitudeMeters>596</AltitudeMeters>
            <DistanceMeters>40121.566954914</DistanceMeters>
          </Trackpoint>
          <Trackpoint>
            <Time>2018-08-26T07:17:32.000Z</Time>
            <Position>
              <LatitudeDegrees>42.97471250407397747039794921875</LatitudeDegrees>
              <LongitudeDegrees>-1.80465736426413059234619140625</LongitudeDegrees>
            </Position>
            <AltitudeMeters>596.20001220703125</AltitudeMeters>
            <DistanceMeters>40129.300401512</DistanceMeters>
          </Trackpoint>
          <Trackpoint>
            <Time>2018-08-26T07:17:33.000Z</Time>
            <Position>
              <LatitudeDegrees>42.9747818224132061004638671875</LatitudeDegrees>
              <LongitudeDegrees>-1.8046768940985202789306640625</LongitudeDegrees>
            </Position>
            <AltitudeMeters>596.5999755859375</AltitudeMeters>
            <DistanceMeters>40137.177881142</DistanceMeters>
          </Trackpoint>
          <Trackpoint>
            <Time>2018-08-26T07:17:34.000Z</Time>
            <Position>
              <LatitudeDegrees>42.9748545773327350616455078125</LatitudeDegrees>
              <LongitudeDegrees>-1.8046896345913410186767578125</LongitudeDegrees>
            </Position>
            <AltitudeMeters>597</AltitudeMeters>
            <DistanceMeters>40145.341334097</DistanceMeters>
          </Trackpoint>
          <Trackpoint>
            <Time>2018-08-26T07:17:35.000Z</Time>
            <Position>
              <LatitudeDegrees>42.974929511547088623046875</LatitudeDegrees>
              <LongitudeDegrees>-1.8046993575990200042724609375</LongitudeDegrees>
            </Position>
            <AltitudeMeters>597.20001220703125</AltitudeMeters>
            <DistanceMeters>40153.719328141</DistanceMeters>
          </Trackpoint>
          <Trackpoint>
            <Time>2018-08-26T07:17:36.000Z</Time>
            <Position>
              <LatitudeDegrees>42.9750057868659496307373046875</LatitudeDegrees>
              <LongitudeDegrees>-1.80470899678766727447509765625</LongitudeDegrees>
            </Position>
            <AltitudeMeters>597.4000244140625</AltitudeMeters>
            <DistanceMeters>40162.245295264</DistanceMeters>
          </Trackpoint>
          <Trackpoint>
            <Time>2018-08-26T07:17:37.000Z</Time>
            <Position>
              <LatitudeDegrees>42.97508231364190578460693359375</LatitudeDegrees>
              <LongitudeDegrees>-1.804715283215045928955078125</LongitudeDegrees>
            </Position>
            <AltitudeMeters>597.4000244140625</AltitudeMeters>
            <DistanceMeters>40170.77814393</DistanceMeters>
          </Trackpoint>
          <Trackpoint>
            <Time>2018-08-26T07:17:38.000Z</Time>
            <Position>
              <LatitudeDegrees>42.975160181522369384765625</LatitudeDegrees>
              <LongitudeDegrees>-1.80472073145210742950439453125</LongitudeDegrees>
            </Position>
            <AltitudeMeters>597.4000244140625</AltitudeMeters>
            <DistanceMeters>40179.456325626</DistanceMeters>
          </Trackpoint>
          <Trackpoint>
            <Time>2018-08-26T07:17:39.000Z</Time>
            <Position>
              <LatitudeDegrees>42.97523972578346729278564453125</LatitudeDegrees>
              <LongitudeDegrees>-1.80472609587013721466064453125</LongitudeDegrees>
            </Position>
            <AltitudeMeters>597.4000244140625</AltitudeMeters>
            <DistanceMeters>40188.320846212</DistanceMeters>
          </Trackpoint>
          <Trackpoint>
            <Time>2018-08-26T07:17:40.000Z</Time>
            <Position>
              <LatitudeDegrees>42.975321449339389801025390625</LatitudeDegrees>
              <LongitudeDegrees>-1.80473171174526214599609375</LongitudeDegrees>
            </Position>
            <AltitudeMeters>597.4000244140625</AltitudeMeters>
            <DistanceMeters>40197.428055012</DistanceMeters>
          </Trackpoint>
          <Trackpoint>
            <Time>2018-08-26T07:17:41.000Z</Time>
            <Position>
              <LatitudeDegrees>42.97540602274239063262939453125</LatitudeDegrees>
              <LongitudeDegrees>-1.80473933927714824676513671875</LongitudeDegrees>
            </Position>
            <AltitudeMeters>597.4000244140625</AltitudeMeters>
            <DistanceMeters>40206.861101884</DistanceMeters>
          </Trackpoint>
          <Trackpoint>
            <Time>2018-08-26T07:17:42.000Z</Time>
            <Position>
              <LatitudeDegrees>42.97549319453537464141845703125</LatitudeDegrees>
              <LongitudeDegrees>-1.804748140275478363037109375</LongitudeDegrees>
            </Position>
            <AltitudeMeters>597.4000244140625</AltitudeMeters>
            <DistanceMeters>40216.590092648</DistanceMeters>
          </Trackpoint>
          <Trackpoint>
            <Time>2018-08-26T07:17:43.000Z</Time>
            <Position>
              <LatitudeDegrees>42.9755831323564052581787109375</LatitudeDegrees>
              <LongitudeDegrees>-1.80475719273090362548828125</LongitudeDegrees>
            </Position>
            <AltitudeMeters>597.4000244140625</AltitudeMeters>
            <DistanceMeters>40226.627001176</DistanceMeters>
          </Trackpoint>
          <Trackpoint>
            <Time>2018-08-26T07:17:44.000Z</Time>
            <Position>
              <LatitudeDegrees>42.97567692585289478302001953125</LatitudeDegrees>
              <LongitudeDegrees>-1.804766245186328887939453125</LongitudeDegrees>
            </Position>
            <AltitudeMeters>597.4000244140625</AltitudeMeters>
            <DistanceMeters>40237.092027077</DistanceMeters>
          </Trackpoint>
          <Trackpoint>
            <Time>2018-08-26T07:17:45.000Z</Time>
            <Position>
              <LatitudeDegrees>42.97577180899679660797119140625</LatitudeDegrees>
              <LongitudeDegrees>-1.80477554909884929656982421875</LongitudeDegrees>
            </Position>
            <AltitudeMeters>597.4000244140625</AltitudeMeters>
            <DistanceMeters>40247.680152457</DistanceMeters>
          </Trackpoint>
          <Trackpoint>
            <Time>2018-08-26T07:17:46.000Z</Time>
            <Position>
              <LatitudeDegrees>42.975869290530681610107421875</LatitudeDegrees>
              <LongitudeDegrees>-1.8047851882874965667724609375</LongitudeDegrees>
            </Position>
            <AltitudeMeters>597.20001220703125</AltitudeMeters>
            <DistanceMeters>40258.558117419</DistanceMeters>
          </Trackpoint>
          <Trackpoint>
            <Time>2018-08-26T07:17:47.000Z</Time>
            <Position>
              <LatitudeDegrees>42.9759710468351840972900390625</LatitudeDegrees>
              <LongitudeDegrees>-1.80479616858065128326416015625</LongitudeDegrees>
            </Position>
            <AltitudeMeters>597</AltitudeMeters>
            <DistanceMeters>40269.918480641</DistanceMeters>
          </Trackpoint>
          <Trackpoint>
            <Time>2018-08-26T07:17:48.000Z</Time>
            <Position>
              <LatitudeDegrees>42.97607204876840114593505859375</LatitudeDegrees>
              <LongitudeDegrees>-1.8048086576163768768310546875</LongitudeDegrees>
            </Position>
            <AltitudeMeters>596.79998779296875</AltitudeMeters>
            <DistanceMeters>40281.206278417</DistanceMeters>
          </Trackpoint>
          <Trackpoint>
            <Time>2018-08-26T07:17:49.000Z</Time>
            <Position>
              <LatitudeDegrees>42.9761748947203159332275390625</LatitudeDegrees>
              <LongitudeDegrees>-1.8048224039375782012939453125</LongitudeDegrees>
            </Position>
            <AltitudeMeters>596.5999755859375</AltitudeMeters>
            <DistanceMeters>40292.707651806</DistanceMeters>
          </Trackpoint>
          <Trackpoint>
            <Time>2018-08-26T07:17:50.000Z</Time>
            <Position>
              <LatitudeDegrees>42.97628142870962619781494140625</LatitudeDegrees>
              <LongitudeDegrees>-1.804836653172969818115234375</LongitudeDegrees>
            </Position>
            <AltitudeMeters>596</AltitudeMeters>
            <DistanceMeters>40304.621288595</DistanceMeters>
          </Trackpoint>
          <Trackpoint>
            <Time>2018-08-26T07:17:51.000Z</Time>
            <Position>
              <LatitudeDegrees>42.97638921998441219329833984375</LatitudeDegrees>
              <LongitudeDegrees>-1.8048522435128688812255859375</LongitudeDegrees>
            </Position>
            <AltitudeMeters>595.5999755859375</AltitudeMeters>
            <DistanceMeters>40316.685565288</DistanceMeters>
          </Trackpoint>
          <Trackpoint>
            <Time>2018-08-26T07:17:52.000Z</Time>
            <Position>
              <LatitudeDegrees>42.97649701125919818878173828125</LatitudeDegrees>
              <LongitudeDegrees>-1.8048678338527679443359375</LongitudeDegrees>
            </Position>
            <AltitudeMeters>595.20001220703125</AltitudeMeters>
            <DistanceMeters>40328.749841981</DistanceMeters>
          </Trackpoint>
          <Trackpoint>
            <Time>2018-08-26T07:17:53.000Z</Time>
            <Position>
              <LatitudeDegrees>42.976605556905269622802734375</LatitudeDegrees>
              <LongitudeDegrees>-1.80488065816462039947509765625</LongitudeDegrees>
            </Position>
            <AltitudeMeters>594.79998779296875</AltitudeMeters>
            <DistanceMeters>40340.876084796</DistanceMeters>
          </Trackpoint>
          <Trackpoint>
            <Time>2018-08-26T07:17:54.000Z</Time>
            <Position>
              <LatitudeDegrees>42.97671242617070674896240234375</LatitudeDegrees>
              <LongitudeDegrees>-1.80488250218331813812255859375</LongitudeDegrees>
            </Position>
            <AltitudeMeters>594.20001220703125</AltitudeMeters>
            <DistanceMeters>40352.7722757</DistanceMeters>
          </Trackpoint>
          <Trackpoint>
            <Time>2018-08-26T07:17:55.000Z</Time>
            <Position>
              <LatitudeDegrees>42.9768162779510021209716796875</LatitudeDegrees>
              <LongitudeDegrees>-1.804866492748260498046875</LongitudeDegrees>
            </Position>
            <AltitudeMeters>593.5999755859375</AltitudeMeters>
            <DistanceMeters>40364.404026874</DistanceMeters>
          </Trackpoint>
          <Trackpoint>
            <Time>2018-08-26T07:17:56.000Z</Time>
            <Position>
              <LatitudeDegrees>42.97691904008388519287109375</LatitudeDegrees>
              <LongitudeDegrees>-1.8048317916691303253173828125</LongitudeDegrees>
            </Position>
            <AltitudeMeters>593.20001220703125</AltitudeMeters>
            <DistanceMeters>40376.185040198</DistanceMeters>
          </Trackpoint>
          <Trackpoint>
            <Time>2018-08-26T07:17:57.000Z</Time>
            <Position>
              <LatitudeDegrees>42.97701702453196048736572265625</LatitudeDegrees>
              <LongitudeDegrees>-1.8047764711081981658935546875</LongitudeDegrees>
            </Position>
            <AltitudeMeters>592.20001220703125</AltitudeMeters>
            <DistanceMeters>40387.984435039</DistanceMeters>
          </Trackpoint>
          <Trackpoint>
            <Time>2018-08-26T07:17:58.000Z</Time>
            <Position>
              <LatitudeDegrees>42.97710813581943511962890625</LatitudeDegrees>
              <LongitudeDegrees>-1.804709248244762420654296875</LongitudeDegrees>
            </Position>
            <AltitudeMeters>591.4000244140625</AltitudeMeters>
            <DistanceMeters>40399.508162916</DistanceMeters>
          </Trackpoint>
          <Trackpoint>
            <Time>2018-08-26T07:17:59.000Z</Time>
            <Position>
              <LatitudeDegrees>42.9771961458027362823486328125</LatitudeDegrees>
              <LongitudeDegrees>-1.80463909171521663665771484375</LongitudeDegrees>
            </Position>
            <AltitudeMeters>590.79998779296875</AltitudeMeters>
            <DistanceMeters>40410.847840537</DistanceMeters>
          </Trackpoint>
          <Trackpoint>
            <Time>2018-08-26T07:18:00.000Z</Time>
            <Position>
              <LatitudeDegrees>42.97729211859405040740966796875</LatitudeDegrees>
              <LongitudeDegrees>-1.80457413196563720703125</LongitudeDegrees>
            </Position>
            <AltitudeMeters>590.4000244140625</AltitudeMeters>
            <DistanceMeters>40422.767918257</DistanceMeters>
          </Trackpoint>
          <Trackpoint>
            <Time>2018-08-26T07:18:01.000Z</Time>
            <Position>
              <LatitudeDegrees>42.97739244997501373291015625</LatitudeDegrees>
              <LongitudeDegrees>-1.80452249944210052490234375</LongitudeDegrees>
            </Position>
            <AltitudeMeters>589.5999755859375</AltitudeMeters>
            <DistanceMeters>40434.699732252</DistanceMeters>
          </Trackpoint>
          <Trackpoint>
            <Time>2018-08-26T07:18:02.000Z</Time>
            <Position>
              <LatitudeDegrees>42.97749747522175312042236328125</LatitudeDegrees>
              <LongitudeDegrees>-1.8044844456017017364501953125</LongitudeDegrees>
            </Position>
            <AltitudeMeters>589</AltitudeMeters>
            <DistanceMeters>40446.793165102</DistanceMeters>
          </Trackpoint>
          <Trackpoint>
            <Time>2018-08-26T07:18:03.000Z</Time>
            <Position>
              <LatitudeDegrees>42.9776118882000446319580078125</LatitudeDegrees>
              <LongitudeDegrees>-1.80446189828217029571533203125</LongitudeDegrees>
            </Position>
            <AltitudeMeters>588.5999755859375</AltitudeMeters>
            <DistanceMeters>40459.659024237</DistanceMeters>
          </Trackpoint>
          <Trackpoint>
            <Time>2018-08-26T07:18:04.000Z</Time>
            <Position>
              <LatitudeDegrees>42.977723367512226104736328125</LatitudeDegrees>
              <LongitudeDegrees>-1.804456450045108795166015625</LongitudeDegrees>
            </Position>
            <AltitudeMeters>587.4000244140625</AltitudeMeters>
            <DistanceMeters>40472.074838145</DistanceMeters>
          </Trackpoint>
          <Trackpoint>
            <Time>2018-08-26T07:18:05.000Z</Time>
            <Position>
              <LatitudeDegrees>42.97783635556697845458984375</LatitudeDegrees>
              <LongitudeDegrees>-1.80447011254727840423583984375</LongitudeDegrees>
            </Position>
            <AltitudeMeters>587</AltitudeMeters>
            <DistanceMeters>40484.700166235</DistanceMeters>
          </Trackpoint>
          <Trackpoint>
            <Time>2018-08-26T07:18:06.000Z</Time>
            <Position>
              <LatitudeDegrees>42.97794724814593791961669921875</LatitudeDegrees>
              <LongitudeDegrees>-1.8045035563409328460693359375</LongitudeDegrees>
            </Position>
            <AltitudeMeters>586.5999755859375</AltitudeMeters>
            <DistanceMeters>40497.339433712</DistanceMeters>
          </Trackpoint>
          <Trackpoint>
            <Time>2018-08-26T07:18:07.000Z</Time>
            <Position>
              <LatitudeDegrees>42.97805436886847019195556640625</LatitudeDegrees>
              <LongitudeDegrees>-1.8045555241405963897705078125</LongitudeDegrees>
            </Position>
            <AltitudeMeters>586.20001220703125</AltitudeMeters>
            <DistanceMeters>40509.990840945</DistanceMeters>
          </Trackpoint>
          <Trackpoint>
            <Time>2018-08-26T07:18:08.000Z</Time>
            <Position>
              <LatitudeDegrees>42.97816031612455844879150390625</LatitudeDegrees>
              <LongitudeDegrees>-1.80462174117565155029296875</LongitudeDegrees>
            </Position>
            <AltitudeMeters>585.5999755859375</AltitudeMeters>
            <DistanceMeters>40522.957722736</DistanceMeters>
          </Trackpoint>
          <Trackpoint>
            <Time>2018-08-26T07:18:09.000Z</Time>
            <Position>
              <LatitudeDegrees>42.9782650060951709747314453125</LatitudeDegrees>
              <LongitudeDegrees>-1.804695166647434234619140625</LongitudeDegrees>
            </Position>
            <AltitudeMeters>584.79998779296875</AltitudeMeters>
            <DistanceMeters>40536.054183021</DistanceMeters>
          </Trackpoint>
          <Trackpoint>
            <Time>2018-08-26T07:18:10.000Z</Time>
            <Position>
              <LatitudeDegrees>42.97836936078965663909912109375</LatitudeDegrees>
              <LongitudeDegrees>-1.8047734536230564117431640625</LongitudeDegrees>
            </Position>
            <AltitudeMeters>584.4000244140625</AltitudeMeters>
            <DistanceMeters>40549.303170001</DistanceMeters>
          </Trackpoint>
          <Trackpoint>
            <Time>2018-08-26T07:18:11.000Z</Time>
            <Position>
              <LatitudeDegrees>42.97847430221736431121826171875</LatitudeDegrees>
              <LongitudeDegrees>-1.80485375225543975830078125</LongitudeDegrees>
            </Position>
            <AltitudeMeters>583.79998779296875</AltitudeMeters>
            <DistanceMeters>40562.689125584</DistanceMeters>
          </Trackpoint>
          <Trackpoint>
            <Time>2018-08-26T07:18:12.000Z</Time>
            <Position>
              <LatitudeDegrees>42.978579998016357421875</LatitudeDegrees>
              <LongitudeDegrees>-1.804933212697505950927734375</LongitudeDegrees>
            </Position>
            <AltitudeMeters>583.20001220703125</AltitudeMeters>
            <DistanceMeters>40576.115159472</DistanceMeters>
          </Trackpoint>
          <Trackpoint>
            <Time>2018-08-26T07:18:13.000Z</Time>
            <Position>
              <LatitudeDegrees>42.97868602909147739410400390625</LatitudeDegrees>
              <LongitudeDegrees>-1.80501309223473072052001953125</LongitudeDegrees>
            </Position>
            <AltitudeMeters>582</AltitudeMeters>
            <DistanceMeters>40589.59087234</DistanceMeters>
          </Trackpoint>
          <Trackpoint>
            <Time>2018-08-26T07:18:14.000Z</Time>
            <Position>
              <LatitudeDegrees>42.97879348509013652801513671875</LatitudeDegrees>
              <LongitudeDegrees>-1.8050923012197017669677734375</LongitudeDegrees>
            </Position>
            <AltitudeMeters>581.5999755859375</AltitudeMeters>
            <DistanceMeters>40603.179360229</DistanceMeters>
          </Trackpoint>
          <Trackpoint>
            <Time>2018-08-26T07:18:15.000Z</Time>
            <Position>
              <LatitudeDegrees>42.97890228219330310821533203125</LatitudeDegrees>
              <LongitudeDegrees>-1.805169917643070220947265625</LongitudeDegrees>
            </Position>
            <AltitudeMeters>581</AltitudeMeters>
            <DistanceMeters>40616.839429762</DistanceMeters>
          </Trackpoint>
          <Trackpoint>
            <Time>2018-08-26T07:18:16.000Z</Time>
            <Position>
              <LatitudeDegrees>42.979010827839374542236328125</LatitudeDegrees>
              <LongitudeDegrees>-1.8052461929619312286376953125</LongitudeDegrees>
            </Position>
            <AltitudeMeters>580.5999755859375</AltitudeMeters>
            <DistanceMeters>40630.423929834</DistanceMeters>
          </Trackpoint>
          <Trackpoint>
            <Time>2018-08-26T07:18:17.000Z</Time>
            <Position>
              <LatitudeDegrees>42.979117445647716522216796875</LatitudeDegrees>
              <LongitudeDegrees>-1.8053184449672698974609375</LongitudeDegrees>
            </Position>
            <AltitudeMeters>580</AltitudeMeters>
            <DistanceMeters>40643.669167663</DistanceMeters>
          </Trackpoint>
          <Trackpoint>
            <Time>2018-08-26T07:18:18.000Z</Time>
            <Position>
              <LatitudeDegrees>42.9792252369225025177001953125</LatitudeDegrees>
              <LongitudeDegrees>-1.80538608692586421966552734375</LongitudeDegrees>
            </Position>
            <AltitudeMeters>579.4000244140625</AltitudeMeters>
            <DistanceMeters>40656.870700732</DistanceMeters>
          </Trackpoint>
          <Trackpoint>
            <Time>2018-08-26T07:18:19.000Z</Time>
            <Position>
              <LatitudeDegrees>42.9793348722159862518310546875</LatitudeDegrees>
              <LongitudeDegrees>-1.8054463528096675872802734375</LongitudeDegrees>
            </Position>
            <AltitudeMeters>579</AltitudeMeters>
            <DistanceMeters>40670.023235638</DistanceMeters>
          </Trackpoint>
          <Trackpoint>
            <Time>2018-08-26T07:18:20.000Z</Time>
            <Position>
              <LatitudeDegrees>42.9794465191662311553955078125</LatitudeDegrees>
              <LongitudeDegrees>-1.80549882352352142333984375</LongitudeDegrees>
            </Position>
            <AltitudeMeters>578.4000244140625</AltitudeMeters>
            <DistanceMeters>40683.163750154</DistanceMeters>
          </Trackpoint>
          <Trackpoint>
            <Time>2018-08-26T07:18:21.000Z</Time>
            <Position>
              <LatitudeDegrees>42.9795598424971103668212890625</LatitudeDegrees>
              <LongitudeDegrees>-1.80554718710482120513916015625</LongitudeDegrees>
            </Position>
            <AltitudeMeters>577.79998779296875</AltitudeMeters>
            <DistanceMeters>40696.377589798</DistanceMeters>
          </Trackpoint>
          <Trackpoint>
            <Time>2018-08-26T07:18:22.000Z</Time>
            <Position>
              <LatitudeDegrees>42.97967358492314815521240234375</LatitudeDegrees>
              <LongitudeDegrees>-1.8055945448577404022216796875</LongitudeDegrees>
            </Position>
            <AltitudeMeters>577</AltitudeMeters>
            <DistanceMeters>40709.611914968</DistanceMeters>
          </Trackpoint>
          <Trackpoint>
            <Time>2018-08-26T07:18:23.000Z</Time>
            <Position>
              <LatitudeDegrees>42.97978791408240795135498046875</LatitudeDegrees>
              <LongitudeDegrees>-1.8056429922580718994140625</LongitudeDegrees>
            </Position>
            <AltitudeMeters>576.4000244140625</AltitudeMeters>
            <DistanceMeters>40722.933968955</DistanceMeters>
          </Trackpoint>
          <Trackpoint>
            <Time>2018-08-26T07:18:24.000Z</Time>
            <Position>
              <LatitudeDegrees>42.97990291379392147064208984375</LatitudeDegrees>
              <LongitudeDegrees>-1.80569135583937168121337890625</LongitudeDegrees>
            </Position>
            <AltitudeMeters>575.5999755859375</AltitudeMeters>
            <DistanceMeters>40736.325994502</DistanceMeters>
          </Trackpoint>
          <Trackpoint>
            <Time>2018-08-26T07:18:25.000Z</Time>
            <Position>
              <LatitudeDegrees>42.98001841641962528228759765625</LatitudeDegrees>
              <LongitudeDegrees>-1.8057387135922908782958984375</LongitudeDegrees>
            </Position>
            <AltitudeMeters>575</AltitudeMeters>
            <DistanceMeters>40749.747992306</DistanceMeters>
          </Trackpoint>
          <Trackpoint>
            <Time>2018-08-26T07:18:26.000Z</Time>
            <Position>
              <LatitudeDegrees>42.98013358376920223236083984375</LatitudeDegrees>
              <LongitudeDegrees>-1.805785484611988067626953125</LongitudeDegrees>
            </Position>
            <AltitudeMeters>574.4000244140625</AltitudeMeters>
            <DistanceMeters>40763.120111575</DistanceMeters>
          </Trackpoint>
          <Trackpoint>
            <Time>2018-08-26T07:18:27.000Z</Time>
            <Position>
              <LatitudeDegrees>42.98024975694715976715087890625</LatitudeDegrees>
              <LongitudeDegrees>-1.805832087993621826171875</LongitudeDegrees>
            </Position>
            <AltitudeMeters>573.79998779296875</AltitudeMeters>
            <DistanceMeters>40776.595824442</DistanceMeters>
          </Trackpoint>
          <Trackpoint>
            <Time>2018-08-26T07:18:28.000Z</Time>
            <Position>
              <LatitudeDegrees>42.98036676831543445587158203125</LatitudeDegrees>
              <LongitudeDegrees>-1.80587944574654102325439453125</LongitudeDegrees>
            </Position>
            <AltitudeMeters>573.4000244140625</AltitudeMeters>
            <DistanceMeters>40790.178662578</DistanceMeters>
          </Trackpoint>
          <Trackpoint>
            <Time>2018-08-26T07:18:29.000Z</Time>
            <Position>
              <LatitudeDegrees>42.9804831929504871368408203125</LatitudeDegrees>
              <LongitudeDegrees>-1.805927641689777374267578125</LongitudeDegrees>
            </Position>
            <AltitudeMeters>572.79998779296875</AltitudeMeters>
            <DistanceMeters>40803.718552237</DistanceMeters>
          </Trackpoint>
          <Trackpoint>
            <Time>2018-08-26T07:18:30.000Z</Time>
            <Position>
              <LatitudeDegrees>42.9805971868336200714111328125</LatitudeDegrees>
              <LongitudeDegrees>-1.80597550235688686370849609375</LongitudeDegrees>
            </Position>
            <AltitudeMeters>572.20001220703125</AltitudeMeters>
            <DistanceMeters>40816.99103246</DistanceMeters>
          </Trackpoint>
          <Trackpoint>
            <Time>2018-08-26T07:18:31.000Z</Time>
            <Position>
              <LatitudeDegrees>42.9807084985077381134033203125</LatitudeDegrees>
              <LongitudeDegrees>-1.8060236983001232147216796875</LongitudeDegrees>
            </Position>
            <AltitudeMeters>571.5999755859375</AltitudeMeters>
            <DistanceMeters>40829.987129944</DistanceMeters>
          </Trackpoint>
          <Trackpoint>
            <Time>2018-08-26T07:18:32.000Z</Time>
            <Position>
              <LatitudeDegrees>42.98081872053444385528564453125</LatitudeDegrees>
              <LongitudeDegrees>-1.80607072077691555023193359375</LongitudeDegrees>
            </Position>
            <AltitudeMeters>571.4000244140625</AltitudeMeters>
            <DistanceMeters>40842.838592824</DistanceMeters>
          </Trackpoint>
          <Trackpoint>
            <Time>2018-08-26T07:18:33.000Z</Time>
            <Position>
              <LatitudeDegrees>42.9809296131134033203125</LatitudeDegrees>
              <LongitudeDegrees>-1.80611263029277324676513671875</LongitudeDegrees>
            </Position>
            <AltitudeMeters>571</AltitudeMeters>
            <DistanceMeters>40855.644302028</DistanceMeters>
          </Trackpoint>
          <Trackpoint>
            <Time>2018-08-26T07:18:34.000Z</Time>
            <Position>
              <LatitudeDegrees>42.98104084096848964691162109375</LatitudeDegrees>
              <LongitudeDegrees>-1.806148588657379150390625</LongitudeDegrees>
            </Position>
            <AltitudeMeters>570.79998779296875</AltitudeMeters>
            <DistanceMeters>40868.365110566</DistanceMeters>
          </Trackpoint>
          <Trackpoint>
            <Time>2018-08-26T07:18:35.000Z</Time>
            <Position>
              <LatitudeDegrees>42.9811534099280834197998046875</LatitudeDegrees>
              <LongitudeDegrees>-1.80618144571781158447265625</LongitudeDegrees>
            </Position>
            <AltitudeMeters>570.4000244140625</AltitudeMeters>
            <DistanceMeters>40881.17645981</DistanceMeters>
          </Trackpoint>
          <Trackpoint>
            <Time>2018-08-26T07:18:36.000Z</Time>
            <Position>
              <LatitudeDegrees>42.98126849345862865447998046875</LatitudeDegrees>
              <LongitudeDegrees>-1.80620885454118251800537109375</LongitudeDegrees>
            </Position>
            <AltitudeMeters>569</AltitudeMeters>
            <DistanceMeters>40894.178114745</DistanceMeters>
          </Trackpoint>
          <Trackpoint>
            <Time>2018-08-26T07:18:37.000Z</Time>
            <Position>
              <LatitudeDegrees>42.98138625919818878173828125</LatitudeDegrees>
              <LongitudeDegrees>-1.806230060756206512451171875</LongitudeDegrees>
            </Position>
            <AltitudeMeters>568.4000244140625</AltitudeMeters>
            <DistanceMeters>40907.398786424</DistanceMeters>
          </Trackpoint>
          <Trackpoint>
            <Time>2018-08-26T07:18:38.000Z</Time>
            <Position>
              <LatitudeDegrees>42.98150536604225635528564453125</LatitudeDegrees>
              <LongitudeDegrees>-1.806248165667057037353515625</LongitudeDegrees>
            </Position>
            <AltitudeMeters>567.79998779296875</AltitudeMeters>
            <DistanceMeters>40920.737436887</DistanceMeters>
          </Trackpoint>
          <Trackpoint>
            <Time>2018-08-26T07:18:39.000Z</Time>
            <Position>
              <LatitudeDegrees>42.9816256463527679443359375</LatitudeDegrees>
              <LongitudeDegrees>-1.8062671087682247161865234375</LongitudeDegrees>
            </Position>
            <AltitudeMeters>567.4000244140625</AltitudeMeters>
            <DistanceMeters>40934.213149754</DistanceMeters>
          </Trackpoint>
          <Trackpoint>
            <Time>2018-08-26T07:18:40.000Z</Time>
            <Position>
              <LatitudeDegrees>42.9817458428442478179931640625</LatitudeDegrees>
              <LongitudeDegrees>-1.80628831498324871063232421875</LongitudeDegrees>
            </Position>
            <AltitudeMeters>567.20001220703125</AltitudeMeters>
            <DistanceMeters>40947.702257966</DistanceMeters>
          </Trackpoint>
          <Trackpoint>
            <Time>2018-08-26T07:18:41.000Z</Time>
            <Position>
              <LatitudeDegrees>42.9818658716976642608642578125</LatitudeDegrees>
              <LongitudeDegrees>-1.8063080124557018280029296875</LongitudeDegrees>
            </Position>
            <AltitudeMeters>566.79998779296875</AltitudeMeters>
            <DistanceMeters>40961.157852814</DistanceMeters>
          </Trackpoint>
          <Trackpoint>
            <Time>2018-08-26T07:18:42.000Z</Time>
            <Position>
              <LatitudeDegrees>42.98198699019849300384521484375</LatitudeDegrees>
              <LongitudeDegrees>-1.80632636882364749908447265625</LongitudeDegrees>
            </Position>
            <AltitudeMeters>565.20001220703125</AltitudeMeters>
            <DistanceMeters>40974.721064724</DistanceMeters>
          </Trackpoint>
          <Trackpoint>
            <Time>2018-08-26T07:18:43.000Z</Time>
            <Position>
              <LatitudeDegrees>42.982107438147068023681640625</LatitudeDegrees>
              <LongitudeDegrees>-1.80634413845837116241455078125</LongitudeDegrees>
            </Position>
            <AltitudeMeters>564.79998779296875</AltitudeMeters>
            <DistanceMeters>40988.204816394</DistanceMeters>
          </Trackpoint>
          <Trackpoint>
            <Time>2018-08-26T07:18:44.000Z</Time>
            <Position>
              <LatitudeDegrees>42.9822269640862941741943359375</LatitudeDegrees>
              <LongitudeDegrees>-1.80636274628341197967529296875</LongitudeDegrees>
            </Position>
            <AltitudeMeters>564.5999755859375</AltitudeMeters>
            <DistanceMeters>41001.594481727</DistanceMeters>
          </Trackpoint>
          <Trackpoint>
            <Time>2018-08-26T07:18:45.000Z</Time>
            <Position>
              <LatitudeDegrees>42.9823443107306957244873046875</LatitudeDegrees>
              <LongitudeDegrees>-1.80638152174651622772216796875</LongitudeDegrees>
            </Position>
            <AltitudeMeters>564</AltitudeMeters>
            <DistanceMeters>41014.744613434</DistanceMeters>
          </Trackpoint>
          <Trackpoint>
            <Time>2018-08-26T07:18:46.000Z</Time>
            <Position>
              <LatitudeDegrees>42.9824603162705898284912109375</LatitudeDegrees>
              <LongitudeDegrees>-1.806399039924144744873046875</LongitudeDegrees>
            </Position>
            <AltitudeMeters>563.4000244140625</AltitudeMeters>
            <DistanceMeters>41027.734455944</DistanceMeters>
          </Trackpoint>
          <Trackpoint>
            <Time>2018-08-26T07:18:47.000Z</Time>
            <Position>
              <LatitudeDegrees>42.98257456161081790924072265625</LatitudeDegrees>
              <LongitudeDegrees>-1.80641370825469493865966796875</LongitudeDegrees>
            </Position>
            <AltitudeMeters>562.79998779296875</AltitudeMeters>
            <DistanceMeters>41040.506272607</DistanceMeters>
          </Trackpoint>
          <Trackpoint>
            <Time>2018-08-26T07:18:48.000Z</Time>
            <Position>
              <LatitudeDegrees>42.98268654383718967437744140625</LatitudeDegrees>
              <LongitudeDegrees>-1.80642393417656421661376953125</LongitudeDegrees>
            </Position>
            <AltitudeMeters>562.20001220703125</AltitudeMeters>
            <DistanceMeters>41052.997858613</DistanceMeters>
          </Trackpoint>
          <Trackpoint>
            <Time>2018-08-26T07:18:49.000Z</Time>
            <Position>
              <LatitudeDegrees>42.98279768787324428558349609375</LatitudeDegrees>
              <LongitudeDegrees>-1.80643131025135517120361328125</LongitudeDegrees>
            </Position>
            <AltitudeMeters>561.79998779296875</AltitudeMeters>
            <DistanceMeters>41065.383452609</DistanceMeters>
          </Trackpoint>
          <Trackpoint>
            <Time>2018-08-26T07:18:50.000Z</Time>
            <Position>
              <LatitudeDegrees>42.9829069040715694427490234375</LatitudeDegrees>
              <LongitudeDegrees>-1.80643248371779918670654296875</LongitudeDegrees>
            </Position>
            <AltitudeMeters>561.4000244140625</AltitudeMeters>
            <DistanceMeters>41077.539817239</DistanceMeters>
          </Trackpoint>
          <Trackpoint>
            <Time>2018-08-26T07:18:51.000Z</Time>
            <Position>
              <LatitudeDegrees>42.98301477916538715362548828125</LatitudeDegrees>
              <LongitudeDegrees>-1.80642628110945224761962890625</LongitudeDegrees>
            </Position>
            <AltitudeMeters>561</AltitudeMeters>
            <DistanceMeters>41089.557221807</DistanceMeters>
          </Trackpoint>
          <Trackpoint>
            <Time>2018-08-26T07:18:52.000Z</Time>
            <Position>
              <LatitudeDegrees>42.9831204749643802642822265625</LatitudeDegrees>
              <LongitudeDegrees>-1.80641421116888523101806640625</LongitudeDegrees>
            </Position>
            <AltitudeMeters>560.79998779296875</AltitudeMeters>
            <DistanceMeters>41101.362355003</DistanceMeters>
          </Trackpoint>
          <Trackpoint>
            <Time>2018-08-26T07:18:53.000Z</Time>
            <Position>
              <LatitudeDegrees>42.98322382383048534393310546875</LatitudeDegrees>
              <LongitudeDegrees>-1.806400381028652191162109375</LongitudeDegrees>
            </Position>
            <AltitudeMeters>560.79998779296875</AltitudeMeters>
            <DistanceMeters>41112.920119528</DistanceMeters>
          </Trackpoint>
          <Trackpoint>
            <Time>2018-08-26T07:18:54.000Z</Time>
            <Position>
              <LatitudeDegrees>42.98332641832530498504638671875</LatitudeDegrees>
              <LongitudeDegrees>-1.80638353340327739715576171875</LongitudeDegrees>
            </Position>
            <AltitudeMeters>560.79998779296875</AltitudeMeters>
            <DistanceMeters>41124.421100345</DistanceMeters>
          </Trackpoint>
          <Trackpoint>
            <Time>2018-08-26T07:18:55.000Z</Time>
            <Position>
              <LatitudeDegrees>42.9834280908107757568359375</LatitudeDegrees>
              <LongitudeDegrees>-1.8063640035688877105712890625</LongitudeDegrees>
            </Position>
            <AltitudeMeters>560.5999755859375</AltitudeMeters>
            <DistanceMeters>41135.848828271</DistanceMeters>
          </Trackpoint>
          <Trackpoint>
            <Time>2018-08-26T07:18:56.000Z</Time>
            <Position>
              <LatitudeDegrees>42.98353043384850025177001953125</LatitudeDegrees>
              <LongitudeDegrees>-1.80634438991546630859375</LongitudeDegrees>
            </Position>
            <AltitudeMeters>560.4000244140625</AltitudeMeters>
            <DistanceMeters>41147.351379294</DistanceMeters>
          </Trackpoint>
          <Trackpoint>
            <Time>2018-08-26T07:18:57.000Z</Time>
            <Position>
              <LatitudeDegrees>42.98363269306719303131103515625</LatitudeDegrees>
              <LongitudeDegrees>-1.8063247762620449066162109375</LongitudeDegrees>
            </Position>
            <AltitudeMeters>560.20001220703125</AltitudeMeters>
            <DistanceMeters>41158.844898699</DistanceMeters>
          </Trackpoint>
          <Trackpoint>
            <Time>2018-08-26T07:18:58.000Z</Time>
            <Position>
              <LatitudeDegrees>42.9837338626384735107421875</LatitudeDegrees>
              <LongitudeDegrees>-1.8063070066273212432861328125</LongitudeDegrees>
            </Position>
            <AltitudeMeters>560.20001220703125</AltitudeMeters>
            <DistanceMeters>41170.198105786</DistanceMeters>
          </Trackpoint>
          <Trackpoint>
            <Time>2018-08-26T07:18:59.000Z</Time>
            <Position>
              <LatitudeDegrees>42.9838336072862148284912109375</LatitudeDegrees>
              <LongitudeDegrees>-1.806293763220310211181640625</LongitudeDegrees>
            </Position>
            <AltitudeMeters>560.20001220703125</AltitudeMeters>
            <DistanceMeters>41181.352315451</DistanceMeters>
          </Trackpoint>
          <Trackpoint>
            <Time>2018-08-26T07:19:00.000Z</Time>
            <Position>
              <LatitudeDegrees>42.983932681381702423095703125</LatitudeDegrees>
              <LongitudeDegrees>-1.8062795139849185943603515625</LongitudeDegrees>
            </Position>
            <AltitudeMeters>560</AltitudeMeters>
            <DistanceMeters>41192.440756318</DistanceMeters>
          </Trackpoint>
          <Trackpoint>
            <Time>2018-08-26T07:19:01.000Z</Time>
            <Position>
              <LatitudeDegrees>42.98403100110590457916259765625</LatitudeDegrees>
              <LongitudeDegrees>-1.80625855922698974609375</LongitudeDegrees>
            </Position>
            <AltitudeMeters>560</AltitudeMeters>
            <DistanceMeters>41203.516159625</DistanceMeters>
          </Trackpoint>
          <Trackpoint>
            <Time>2018-08-26T07:19:02.000Z</Time>
            <Position>
              <LatitudeDegrees>42.98412881791591644287109375</LatitudeDegrees>
              <LongitudeDegrees>-1.80623886175453662872314453125</LongitudeDegrees>
            </Position>
            <AltitudeMeters>559.79998779296875</AltitudeMeters>
            <DistanceMeters>41214.52081115</DistanceMeters>
          </Trackpoint>
          <Trackpoint>
            <Time>2018-08-26T07:19:03.000Z</Time>
            <Position>
              <LatitudeDegrees>42.98422495834529399871826171875</LatitudeDegrees>
              <LongitudeDegrees>-1.806225366890430450439453125</LongitudeDegrees>
            </Position>
            <AltitudeMeters>559.79998779296875</AltitudeMeters>
            <DistanceMeters>41225.278154206</DistanceMeters>
          </Trackpoint>
          <Trackpoint>
            <Time>2018-08-26T07:19:04.000Z</Time>
            <Position>
              <LatitudeDegrees>42.98431866802275180816650390625</LatitudeDegrees>
              <LongitudeDegrees>-1.80621069855988025665283203125</LongitudeDegrees>
            </Position>
            <AltitudeMeters>559.79998779296875</AltitudeMeters>
            <DistanceMeters>41235.775918393</DistanceMeters>
          </Trackpoint>
          <Trackpoint>
            <Time>2018-08-26T07:19:05.000Z</Time>
            <Position>
              <LatitudeDegrees>42.9844106175005435943603515625</LatitudeDegrees>
              <LongitudeDegrees>-1.80619108490645885467529296875</LongitudeDegrees>
            </Position>
            <AltitudeMeters>559.79998779296875</AltitudeMeters>
            <DistanceMeters>41246.134266152</DistanceMeters>
          </Trackpoint>
          <Trackpoint>
            <Time>2018-08-26T07:19:06.000Z</Time>
            <Position>
              <LatitudeDegrees>42.98450206406414508819580078125</LatitudeDegrees>
              <LongitudeDegrees>-1.8061682023108005523681640625</LongitudeDegrees>
            </Position>
            <AltitudeMeters>559.5999755859375</AltitudeMeters>
            <DistanceMeters>41256.481711074</DistanceMeters>
          </Trackpoint>
          <Trackpoint>
            <Time>2018-08-26T07:19:07.000Z</Time>
            <Position>
              <LatitudeDegrees>42.98459107987582683563232421875</LatitudeDegrees>
              <LongitudeDegrees>-1.8061407096683979034423828125</LongitudeDegrees>
            </Position>
            <AltitudeMeters>559.5999755859375</AltitudeMeters>
            <DistanceMeters>41266.639351225</DistanceMeters>
          </Trackpoint>
          <Trackpoint>
            <Time>2018-08-26T07:19:08.000Z</Time>
            <Position>
              <LatitudeDegrees>42.98468110151588916778564453125</LatitudeDegrees>
              <LongitudeDegrees>-1.80611162446439266204833984375</LongitudeDegrees>
            </Position>
            <AltitudeMeters>559.5999755859375</AltitudeMeters>
            <DistanceMeters>41276.934740353</DistanceMeters>
          </Trackpoint>
          <Trackpoint>
            <Time>2018-08-26T07:19:09.000Z</Time>
            <Position>
              <LatitudeDegrees>42.98476743511855602264404296875</LatitudeDegrees>
              <LongitudeDegrees>-1.80608161725103855133056640625</LongitudeDegrees>
            </Position>
            <AltitudeMeters>559.4000244140625</AltitudeMeters>
            <DistanceMeters>41286.849902593</DistanceMeters>
          </Trackpoint>
          <Trackpoint>
            <Time>2018-08-26T07:19:10.000Z</Time>
            <Position>
              <LatitudeDegrees>42.98485175706446170806884765625</LatitudeDegrees>
              <LongitudeDegrees>-1.8060602433979511260986328125</LongitudeDegrees>
            </Position>
            <AltitudeMeters>559.4000244140625</AltitudeMeters>
            <DistanceMeters>41296.395240268</DistanceMeters>
          </Trackpoint>
          <Trackpoint>
            <Time>2018-08-26T07:19:11.000Z</Time>
            <Position>
              <LatitudeDegrees>42.984932474792003631591796875</LatitudeDegrees>
              <LongitudeDegrees>-1.8060538731515407562255859375</LongitudeDegrees>
            </Position>
            <AltitudeMeters>559.20001220703125</AltitudeMeters>
            <DistanceMeters>41305.394224963</DistanceMeters>
          </Trackpoint>
          <Trackpoint>
            <Time>2018-08-26T07:19:12.000Z</Time>
            <Position>
              <LatitudeDegrees>42.98501252196729183197021484375</LatitudeDegrees>
              <LongitudeDegrees>-1.806068457663059234619140625</LongitudeDegrees>
            </Position>
            <AltitudeMeters>559.20001220703125</AltitudeMeters>
            <DistanceMeters>41314.382164875</DistanceMeters>
          </Trackpoint>
          <Trackpoint>
            <Time>2018-08-26T07:19:13.000Z</Time>
            <Position>
              <LatitudeDegrees>42.98508770763874053955078125</LatitudeDegrees>
              <LongitudeDegrees>-1.80610106326639652252197265625</LongitudeDegrees>
            </Position>
            <AltitudeMeters>559.20001220703125</AltitudeMeters>
            <DistanceMeters>41323.16172822</DistanceMeters>
          </Trackpoint>
          <Trackpoint>
            <Time>2018-08-26T07:19:14.000Z</Time>
            <Position>
              <LatitudeDegrees>42.98516037873923778533935546875</LatitudeDegrees>
              <LongitudeDegrees>-1.80614062584936618804931640625</LongitudeDegrees>
            </Position>
            <AltitudeMeters>559.20001220703125</AltitudeMeters>
            <DistanceMeters>41331.867959418</DistanceMeters>
          </Trackpoint>
          <Trackpoint>
            <Time>2018-08-26T07:19:15.000Z</Time>
            <Position>
              <LatitudeDegrees>42.98523120582103729248046875</LatitudeDegrees>
              <LongitudeDegrees>-1.8061829544603824615478515625</LongitudeDegrees>
            </Position>
            <AltitudeMeters>559.20001220703125</AltitudeMeters>
            <DistanceMeters>41340.47194493</DistanceMeters>
          </Trackpoint>
          <Trackpoint>
            <Time>2018-08-26T07:19:16.000Z</Time>
            <Position>
              <LatitudeDegrees>42.98529918305575847625732421875</LatitudeDegrees>
              <LongitudeDegrees>-1.806227378547191619873046875</LongitudeDegrees>
            </Position>
            <AltitudeMeters>559.20001220703125</AltitudeMeters>
            <DistanceMeters>41348.858018823</DistanceMeters>
          </Trackpoint>
          <Trackpoint>
            <Time>2018-08-26T07:19:17.000Z</Time>
            <Position>
              <LatitudeDegrees>42.98536665737628936767578125</LatitudeDegrees>
              <LongitudeDegrees>-1.80627205409109592437744140625</LongitudeDegrees>
            </Position>
            <AltitudeMeters>559.20001220703125</AltitudeMeters>
            <DistanceMeters>41357.201992061</DistanceMeters>
          </Trackpoint>
          <Trackpoint>
            <Time>2018-08-26T07:19:18.000Z</Time>
            <Position>
              <LatitudeDegrees>42.9854338802397251129150390625</LatitudeDegrees>
              <LongitudeDegrees>-1.80631329305469989776611328125</LongitudeDegrees>
            </Position>
            <AltitudeMeters>559.20001220703125</AltitudeMeters>
            <DistanceMeters>41365.402417615</DistanceMeters>
          </Trackpoint>
          <Trackpoint>
            <Time>2018-08-26T07:19:19.000Z</Time>
            <Position>
              <LatitudeDegrees>42.9855016060173511505126953125</LatitudeDegrees>
              <LongitudeDegrees>-1.80634430609643459320068359375</LongitudeDegrees>
            </Position>
            <AltitudeMeters>559.20001220703125</AltitudeMeters>
            <DistanceMeters>41373.351787084</DistanceMeters>
          </Trackpoint>
          <Trackpoint>
            <Time>2018-08-26T07:19:20.000Z</Time>
            <Position>
              <LatitudeDegrees>42.9855710081756114959716796875</LatitudeDegrees>
              <LongitudeDegrees>-1.8063656799495220184326171875</LongitudeDegrees>
            </Position>
            <AltitudeMeters>559.4000244140625</AltitudeMeters>
            <DistanceMeters>41381.27042654</DistanceMeters>
          </Trackpoint>
          <Trackpoint>
            <Time>2018-08-26T07:19:21.000Z</Time>
            <Position>
              <LatitudeDegrees>42.9856410808861255645751953125</LatitudeDegrees>
              <LongitudeDegrees>-1.8063797615468502044677734375</LongitudeDegrees>
            </Position>
            <AltitudeMeters>559.4000244140625</AltitudeMeters>
            <DistanceMeters>41389.154208384</DistanceMeters>
          </Trackpoint>
          <Trackpoint>
            <Time>2018-08-26T07:19:22.000Z</Time>
            <Position>
              <LatitudeDegrees>42.98570972867310047149658203125</LatitudeDegrees>
              <LongitudeDegrees>-1.806390993297100067138671875</LongitudeDegrees>
            </Position>
            <AltitudeMeters>559.5999755859375</AltitudeMeters>
            <DistanceMeters>41396.849612293</DistanceMeters>
          </Trackpoint>
          <Trackpoint>
            <Time>2018-08-26T07:19:23.000Z</Time>
            <Position>
              <LatitudeDegrees>42.98577510751783847808837890625</LatitudeDegrees>
              <LongitudeDegrees>-1.80639962665736675262451171875</LongitudeDegrees>
            </Position>
            <AltitudeMeters>559.79998779296875</AltitudeMeters>
            <DistanceMeters>41404.161113681</DistanceMeters>
          </Trackpoint>
          <Trackpoint>
            <Time>2018-08-26T07:19:24.000Z</Time>
            <Position>
              <LatitudeDegrees>42.98583797179162502288818359375</LatitudeDegrees>
              <LongitudeDegrees>-1.80640281178057193756103515625</LongitudeDegrees>
            </Position>
            <AltitudeMeters>560</AltitudeMeters>
            <DistanceMeters>41411.162203234</DistanceMeters>
          </Trackpoint>
          <Trackpoint>
            <Time>2018-08-26T07:19:25.000Z</Time>
            <Position>
              <LatitudeDegrees>42.9858999140560626983642578125</LatitudeDegrees>
              <LongitudeDegrees>-1.8063985370099544525146484375</LongitudeDegrees>
            </Position>
            <AltitudeMeters>560.20001220703125</AltitudeMeters>
            <DistanceMeters>41418.065225282</DistanceMeters>
          </Trackpoint>
          <Trackpoint>
            <Time>2018-08-26T07:19:26.000Z</Time>
            <Position>
              <LatitudeDegrees>42.9859619401395320892333984375</LatitudeDegrees>
              <LongitudeDegrees>-1.8063837848603725433349609375</LongitudeDegrees>
            </Position>
            <AltitudeMeters>560.5999755859375</AltitudeMeters>
            <DistanceMeters>41425.072760919</DistanceMeters>
          </Trackpoint>
          <Trackpoint>
            <Time>2018-08-26T07:19:27.000Z</Time>
            <Position>
              <LatitudeDegrees>42.98602958209812641143798828125</LatitudeDegrees>
              <LongitudeDegrees>-1.8063604831695556640625</LongitudeDegrees>
            </Position>
            <AltitudeMeters>560.79998779296875</AltitudeMeters>
            <DistanceMeters>41432.837088987</DistanceMeters>
          </Trackpoint>
          <Trackpoint>
            <Time>2018-08-26T07:19:28.000Z</Time>
            <Position>
              <LatitudeDegrees>42.9861004091799259185791015625</LatitudeDegrees>
              <LongitudeDegrees>-1.8063298054039478302001953125</LongitudeDegrees>
            </Position>
            <AltitudeMeters>560.79998779296875</AltitudeMeters>
            <DistanceMeters>41441.10659737</DistanceMeters>
          </Trackpoint>
          <Trackpoint>
            <Time>2018-08-26T07:19:29.000Z</Time>
            <Position>
              <LatitudeDegrees>42.9861728288233280181884765625</LatitudeDegrees>
              <LongitudeDegrees>-1.80629971437156200408935546875</LongitudeDegrees>
            </Position>
            <AltitudeMeters>561</AltitudeMeters>
            <DistanceMeters>41449.531346675</DistanceMeters>
          </Trackpoint>
          <Trackpoint>
            <Time>2018-08-26T07:19:30.000Z</Time>
            <Position>
              <LatitudeDegrees>42.98624734394252300262451171875</LatitudeDegrees>
              <LongitudeDegrees>-1.80628026835620403289794921875</LongitudeDegrees>
            </Position>
            <AltitudeMeters>561</AltitudeMeters>
            <DistanceMeters>41457.975367258</DistanceMeters>
          </Trackpoint>
          <Trackpoint>
            <Time>2018-08-26T07:19:31.000Z</Time>
            <Position>
              <LatitudeDegrees>42.98632554709911346435546875</LatitudeDegrees>
              <LongitudeDegrees>-1.8062746524810791015625</LongitudeDegrees>
            </Position>
            <AltitudeMeters>561</AltitudeMeters>
            <DistanceMeters>41466.690928229</DistanceMeters>
          </Trackpoint>
          <Trackpoint>
            <Time>2018-08-26T07:19:32.000Z</Time>
            <Position>
              <LatitudeDegrees>42.986405678093433380126953125</LatitudeDegrees>
              <LongitudeDegrees>-1.806289739906787872314453125</LongitudeDegrees>
            </Position>
            <AltitudeMeters>561</AltitudeMeters>
            <DistanceMeters>41475.69392585</DistanceMeters>
          </Trackpoint>
          <Trackpoint>
            <Time>2018-08-26T07:19:33.000Z</Time>
            <Position>
              <LatitudeDegrees>42.98648245632648468017578125</LatitudeDegrees>
              <LongitudeDegrees>-1.806328296661376953125</LongitudeDegrees>
            </Position>
            <AltitudeMeters>561</AltitudeMeters>
            <DistanceMeters>41484.798159573</DistanceMeters>
          </Trackpoint>
          <Trackpoint>
            <Time>2018-08-26T07:19:34.000Z</Time>
            <Position>
              <LatitudeDegrees>42.98655043356120586395263671875</LatitudeDegrees>
              <LongitudeDegrees>-1.80637682788074016571044921875</LongitudeDegrees>
            </Position>
            <AltitudeMeters>561</AltitudeMeters>
            <DistanceMeters>41493.334182466</DistanceMeters>
          </Trackpoint>
          <Trackpoint>
            <Time>2018-08-26T07:19:35.000Z</Time>
            <Position>
              <LatitudeDegrees>42.98660508356988430023193359375</LatitudeDegrees>
              <LongitudeDegrees>-1.8064421229064464569091796875</LongitudeDegrees>
            </Position>
            <AltitudeMeters>561</AltitudeMeters>
            <DistanceMeters>41501.412012149</DistanceMeters>
          </Trackpoint>
          <Trackpoint>
            <Time>2018-08-26T07:19:36.000Z</Time>
            <Position>
              <LatitudeDegrees>42.9866425506770610809326171875</LatitudeDegrees>
              <LongitudeDegrees>-1.80652786977589130401611328125</LongitudeDegrees>
            </Position>
            <AltitudeMeters>561</AltitudeMeters>
            <DistanceMeters>41509.543878466</DistanceMeters>
          </Trackpoint>
          <Trackpoint>
            <Time>2018-08-26T07:19:37.000Z</Time>
            <Position>
              <LatitudeDegrees>42.98665269277989864349365234375</LatitudeDegrees>
              <LongitudeDegrees>-1.806629039347171783447265625</LongitudeDegrees>
            </Position>
            <AltitudeMeters>560.4000244140625</AltitudeMeters>
            <DistanceMeters>41517.858037183</DistanceMeters>
          </Trackpoint>
          <Trackpoint>
            <Time>2018-08-26T07:19:38.000Z</Time>
            <Position>
              <LatitudeDegrees>42.9866398684680461883544921875</LatitudeDegrees>
              <LongitudeDegrees>-1.8067388422787189483642578125</LongitudeDegrees>
            </Position>
            <AltitudeMeters>559.5999755859375</AltitudeMeters>
            <DistanceMeters>41526.911046285</DistanceMeters>
          </Trackpoint>
          <Trackpoint>
            <Time>2018-08-26T07:19:39.000Z</Time>
            <Position>
              <LatitudeDegrees>42.98661933280527591705322265625</LatitudeDegrees>
              <LongitudeDegrees>-1.806852333247661590576171875</LongitudeDegrees>
            </Position>
            <AltitudeMeters>559.4000244140625</AltitudeMeters>
            <DistanceMeters>41536.429858556</DistanceMeters>
          </Trackpoint>
          <Trackpoint>
            <Time>2018-08-26T07:19:40.000Z</Time>
            <Position>
              <LatitudeDegrees>42.98661145381629467010498046875</LatitudeDegrees>
              <LongitudeDegrees>-1.80697328411042690277099609375</LongitudeDegrees>
            </Position>
            <AltitudeMeters>558.20001220703125</AltitudeMeters>
            <DistanceMeters>41546.316291048</DistanceMeters>
          </Trackpoint>
          <Trackpoint>
            <Time>2018-08-26T07:19:41.000Z</Time>
            <Position>
              <LatitudeDegrees>42.98662327229976654052734375</LatitudeDegrees>
              <LongitudeDegrees>-1.807097755372524261474609375</LongitudeDegrees>
            </Position>
            <AltitudeMeters>557.4000244140625</AltitudeMeters>
            <DistanceMeters>41556.535971286</DistanceMeters>
          </Trackpoint>
          <Trackpoint>
            <Time>2018-08-26T07:19:42.000Z</Time>
            <Position>
              <LatitudeDegrees>42.9866546206176280975341796875</LatitudeDegrees>
              <LongitudeDegrees>-1.80721543729305267333984375</LongitudeDegrees>
            </Position>
            <AltitudeMeters>556.5999755859375</AltitudeMeters>
            <DistanceMeters>41566.733537678</DistanceMeters>
          </Trackpoint>
          <Trackpoint>
            <Time>2018-08-26T07:19:43.000Z</Time>
            <Position>
              <LatitudeDegrees>42.986705414950847625732421875</LatitudeDegrees>
              <LongitudeDegrees>-1.8073282577097415924072265625</LongitudeDegrees>
            </Position>
            <AltitudeMeters>556</AltitudeMeters>
            <DistanceMeters>41577.519802319</DistanceMeters>
          </Trackpoint>
          <Trackpoint>
            <Time>2018-08-26T07:19:44.000Z</Time>
            <Position>
              <LatitudeDegrees>42.98677138052880764007568359375</LatitudeDegrees>
              <LongitudeDegrees>-1.80742959491908550262451171875</LongitudeDegrees>
            </Position>
            <AltitudeMeters>555.20001220703125</AltitudeMeters>
            <DistanceMeters>41588.564997327</DistanceMeters>
          </Trackpoint>
          <Trackpoint>
            <Time>2018-08-26T07:19:45.000Z</Time>
            <Position>
              <LatitudeDegrees>42.98685184679925441741943359375</LatitudeDegrees>
              <LongitudeDegrees>-1.80751810781657695770263671875</LongitudeDegrees>
            </Position>
            <AltitudeMeters>554.5999755859375</AltitudeMeters>
            <DistanceMeters>41600.060087957</DistanceMeters>
          </Trackpoint>
          <Trackpoint>
            <Time>2018-08-26T07:19:46.000Z</Time>
            <Position>
              <LatitudeDegrees>42.986943461000919342041015625</LatitudeDegrees>
              <LongitudeDegrees>-1.80758784525096416473388671875</LongitudeDegrees>
            </Position>
            <AltitudeMeters>554</AltitudeMeters>
            <DistanceMeters>41611.730591074</DistanceMeters>
          </Trackpoint>
          <Trackpoint>
            <Time>2018-08-26T07:19:47.000Z</Time>
            <Position>
              <LatitudeDegrees>42.9870411939918994903564453125</LatitudeDegrees>
              <LongitudeDegrees>-1.8076439201831817626953125</LongitudeDegrees>
            </Position>
            <AltitudeMeters>553.5999755859375</AltitudeMeters>
            <DistanceMeters>41623.527689792</DistanceMeters>
          </Trackpoint>
          <Trackpoint>
            <Time>2018-08-26T07:19:48.000Z</Time>
            <Position>
              <LatitudeDegrees>42.98714051954448223114013671875</LatitudeDegrees>
              <LongitudeDegrees>-1.80768708698451519012451171875</LongitudeDegrees>
            </Position>
            <AltitudeMeters>553.20001220703125</AltitudeMeters>
            <DistanceMeters>41635.128346206</DistanceMeters>
          </Trackpoint>
          <Trackpoint>
            <Time>2018-08-26T07:19:49.000Z</Time>
            <Position>
              <LatitudeDegrees>42.98724261112511157989501953125</LatitudeDegrees>
              <LongitudeDegrees>-1.80770586244761943817138671875</LongitudeDegrees>
            </Position>
            <AltitudeMeters>552.5999755859375</AltitudeMeters>
            <DistanceMeters>41646.593940516</DistanceMeters>
          </Trackpoint>
          <Trackpoint>
            <Time>2018-08-26T07:19:50.000Z</Time>
            <Position>
              <LatitudeDegrees>42.9873467981815338134765625</LatitudeDegrees>
              <LongitudeDegrees>-1.80770670063793659210205078125</LongitudeDegrees>
            </Position>
            <AltitudeMeters>552</AltitudeMeters>
            <DistanceMeters>41658.19031488</DistanceMeters>
          </Trackpoint>
          <Trackpoint>
            <Time>2018-08-26T07:19:51.000Z</Time>
            <Position>
              <LatitudeDegrees>42.98744930885732173919677734375</LatitudeDegrees>
              <LongitudeDegrees>-1.80768859572708606719970703125</LongitudeDegrees>
            </Position>
            <AltitudeMeters>551</AltitudeMeters>
            <DistanceMeters>41669.694828362</DistanceMeters>
          </Trackpoint>
          <Trackpoint>
            <Time>2018-08-26T07:19:52.000Z</Time>
            <Position>
              <LatitudeDegrees>42.987547628581523895263671875</LatitudeDegrees>
              <LongitudeDegrees>-1.8076601810753345489501953125</LongitudeDegrees>
            </Position>
            <AltitudeMeters>550.20001220703125</AltitudeMeters>
            <DistanceMeters>41680.880162918</DistanceMeters>
          </Trackpoint>
          <Trackpoint>
            <Time>2018-08-26T07:19:53.000Z</Time>
            <Position>
              <LatitudeDegrees>42.98763941042125225067138671875</LatitudeDegrees>
              <LongitudeDegrees>-1.8076216243207454681396484375</LongitudeDegrees>
            </Position>
            <AltitudeMeters>549.4000244140625</AltitudeMeters>
            <DistanceMeters>41691.567183403</DistanceMeters>
          </Trackpoint>
          <Trackpoint>
            <Time>2018-08-26T07:19:54.000Z</Time>
            <Position>
              <LatitudeDegrees>42.98772406764328479766845703125</LatitudeDegrees>
              <LongitudeDegrees>-1.8075659684836864471435546875</LongitudeDegrees>
            </Position>
            <AltitudeMeters>548.4000244140625</AltitudeMeters>
            <DistanceMeters>41702.022713301</DistanceMeters>
          </Trackpoint>
          <Trackpoint>
            <Time>2018-08-26T07:19:55.000Z</Time>
            <Position>
              <LatitudeDegrees>42.9877979122102260589599609375</LatitudeDegrees>
              <LongitudeDegrees>-1.8074838258326053619384765625</LongitudeDegrees>
            </Position>
            <AltitudeMeters>547.5999755859375</AltitudeMeters>
            <DistanceMeters>41712.618511545</DistanceMeters>
          </Trackpoint>
          <Trackpoint>
            <Time>2018-08-26T07:19:56.000Z</Time>
            <Position>
              <LatitudeDegrees>42.9878565855324268341064453125</LatitudeDegrees>
              <LongitudeDegrees>-1.80738030932843685150146484375</LongitudeDegrees>
            </Position>
            <AltitudeMeters>547.20001220703125</AltitudeMeters>
            <DistanceMeters>41723.280153176</DistanceMeters>
          </Trackpoint>
          <Trackpoint>
            <Time>2018-08-26T07:19:57.000Z</Time>
            <Position>
              <LatitudeDegrees>42.98789866268634796142578125</LatitudeDegrees>
              <LongitudeDegrees>-1.80726765654981136322021484375</LongitudeDegrees>
            </Position>
            <AltitudeMeters>546.5999755859375</AltitudeMeters>
            <DistanceMeters>41733.578611693</DistanceMeters>
          </Trackpoint>
          <Trackpoint>
            <Time>2018-08-26T07:19:58.000Z</Time>
            <Position>
              <LatitudeDegrees>42.9879390634596347808837890625</LatitudeDegrees>
              <LongitudeDegrees>-1.80715768598020076751708984375</LongitudeDegrees>
            </Position>
            <AltitudeMeters>546.4000244140625</AltitudeMeters>
            <DistanceMeters>41743.598411587</DistanceMeters>
          </Trackpoint>
          <Trackpoint>
            <Time>2018-08-26T07:19:59.000Z</Time>
            <Position>
              <LatitudeDegrees>42.9879906959831714630126953125</LatitudeDegrees>
              <LongitudeDegrees>-1.80705777369439601898193359375</LongitudeDegrees>
            </Position>
            <AltitudeMeters>545.79998779296875</AltitudeMeters>
            <DistanceMeters>41753.558553143</DistanceMeters>
          </Trackpoint>
          <Trackpoint>
            <Time>2018-08-26T07:20:00.000Z</Time>
            <Position>
              <LatitudeDegrees>42.9880580864846706390380859375</LatitudeDegrees>
              <LongitudeDegrees>-1.80697730742394924163818359375</LongitudeDegrees>
            </Position>
            <AltitudeMeters>545</AltitudeMeters>
            <DistanceMeters>41763.516881291</DistanceMeters>
          </Trackpoint>
          <Trackpoint>
            <Time>2018-08-26T07:20:01.000Z</Time>
            <Position>
              <LatitudeDegrees>42.988140396773815155029296875</LatitudeDegrees>
              <LongitudeDegrees>-1.80693254806101322174072265625</LongitudeDegrees>
            </Position>
            <AltitudeMeters>544.20001220703125</AltitudeMeters>
            <DistanceMeters>41773.375874284</DistanceMeters>
          </Trackpoint>
          <Trackpoint>
            <Time>2018-08-26T07:20:02.000Z</Time>
            <Position>
              <LatitudeDegrees>42.9882341064512729644775390625</LatitudeDegrees>
              <LongitudeDegrees>-1.80692081339657306671142578125</LongitudeDegrees>
            </Position>
            <AltitudeMeters>543.5999755859375</AltitudeMeters>
            <DistanceMeters>41783.849525445</DistanceMeters>
          </Trackpoint>
          <Trackpoint>
            <Time>2018-08-26T07:20:03.000Z</Time>
            <Position>
              <LatitudeDegrees>42.98833074979484081268310546875</LatitudeDegrees>
              <LongitudeDegrees>-1.80693254806101322174072265625</LongitudeDegrees>
            </Position>
            <AltitudeMeters>542.5999755859375</AltitudeMeters>
            <DistanceMeters>41794.648340528</DistanceMeters>
          </Trackpoint>
          <Trackpoint>
            <Time>2018-08-26T07:20:04.000Z</Time>
            <Position>
              <LatitudeDegrees>42.988432087004184722900390625</LatitudeDegrees>
              <LongitudeDegrees>-1.8069614656269550323486328125</LongitudeDegrees>
            </Position>
            <AltitudeMeters>541.4000244140625</AltitudeMeters>
            <DistanceMeters>41806.170501084</DistanceMeters>
          </Trackpoint>
          <Trackpoint>
            <Time>2018-08-26T07:20:05.000Z</Time>
            <Position>
              <LatitudeDegrees>42.9885328374803066253662109375</LatitudeDegrees>
              <LongitudeDegrees>-1.8070082366466522216796875</LongitudeDegrees>
            </Position>
            <AltitudeMeters>540.5999755859375</AltitudeMeters>
            <DistanceMeters>41818.013437685</DistanceMeters>
          </Trackpoint>
          <Trackpoint>
            <Time>2018-08-26T07:20:06.000Z</Time>
            <Position>
              <LatitudeDegrees>42.98862956464290618896484375</LatitudeDegrees>
              <LongitudeDegrees>-1.807080321013927459716796875</LongitudeDegrees>
            </Position>
            <AltitudeMeters>540</AltitudeMeters>
            <DistanceMeters>41830.275198276</DistanceMeters>
          </Trackpoint>
          <Trackpoint>
            <Time>2018-08-26T07:20:07.000Z</Time>
            <Position>
              <LatitudeDegrees>42.98871866427361965179443359375</LatitudeDegrees>
              <LongitudeDegrees>-1.8071745336055755615234375</LongitudeDegrees>
            </Position>
            <AltitudeMeters>539.4000244140625</AltitudeMeters>
            <DistanceMeters>41842.812243804</DistanceMeters>
          </Trackpoint>
          <Trackpoint>
            <Time>2018-08-26T07:20:08.000Z</Time>
            <Position>
              <LatitudeDegrees>42.98880231566727161407470703125</LatitudeDegrees>
              <LongitudeDegrees>-1.80728425271809101104736328125</LongitudeDegrees>
            </Position>
            <AltitudeMeters>538.5999755859375</AltitudeMeters>
            <DistanceMeters>41855.714898156</DistanceMeters>
          </Trackpoint>
          <Trackpoint>
            <Time>2018-08-26T07:20:09.000Z</Time>
            <Position>
              <LatitudeDegrees>42.9888842068612575531005859375</LatitudeDegrees>
              <LongitudeDegrees>-1.80740294046700000762939453125</LongitudeDegrees>
            </Position>
            <AltitudeMeters>537</AltitudeMeters>
            <DistanceMeters>41868.998259693</DistanceMeters>
          </Trackpoint>
          <Trackpoint>
            <Time>2018-08-26T07:20:10.000Z</Time>
            <Position>
              <LatitudeDegrees>42.988967187702655792236328125</LatitudeDegrees>
              <LongitudeDegrees>-1.80752514861524105072021484375</LongitudeDegrees>
            </Position>
            <AltitudeMeters>536</AltitudeMeters>
            <DistanceMeters>41882.574115475</DistanceMeters>
          </Trackpoint>
          <Trackpoint>
            <Time>2018-08-26T07:20:11.000Z</Time>
            <Position>
              <LatitudeDegrees>42.98905176110565662384033203125</LatitudeDegrees>
              <LongitudeDegrees>-1.8076487816870212554931640625</LongitudeDegrees>
            </Position>
            <AltitudeMeters>535.20001220703125</AltitudeMeters>
            <DistanceMeters>41896.355282616</DistanceMeters>
          </Trackpoint>
          <Trackpoint>
            <Time>2018-08-26T07:20:12.000Z</Time>
            <Position>
              <LatitudeDegrees>42.98913876526057720184326171875</LatitudeDegrees>
              <LongitudeDegrees>-1.80777627043426036834716796875</LongitudeDegrees>
            </Position>
            <AltitudeMeters>534.5999755859375</AltitudeMeters>
            <DistanceMeters>41910.550887074</DistanceMeters>
          </Trackpoint>
          <Trackpoint>
            <Time>2018-08-26T07:20:13.000Z</Time>
            <Position>
              <LatitudeDegrees>42.98922778107225894927978515625</LatitudeDegrees>
              <LongitudeDegrees>-1.8079052679240703582763671875</LongitudeDegrees>
            </Position>
            <AltitudeMeters>534.20001220703125</AltitudeMeters>
            <DistanceMeters>41924.989007267</DistanceMeters>
          </Trackpoint>
          <Trackpoint>
            <Time>2018-08-26T07:20:14.000Z</Time>
            <Position>
              <LatitudeDegrees>42.98932048492133617401123046875</LatitudeDegrees>
              <LongitudeDegrees>-1.80803661234676837921142578125</LongitudeDegrees>
            </Position>
            <AltitudeMeters>533.5999755859375</AltitudeMeters>
            <DistanceMeters>41939.848463152</DistanceMeters>
          </Trackpoint>
          <Trackpoint>
            <Time>2018-08-26T07:20:15.000Z</Time>
            <Position>
              <LatitudeDegrees>42.989413104951381683349609375</LatitudeDegrees>
              <LongitudeDegrees>-1.80817021988332271575927734375</LongitudeDegrees>
            </Position>
            <AltitudeMeters>533</AltitudeMeters>
            <DistanceMeters>41954.834992481</DistanceMeters>
          </Trackpoint>
          <Trackpoint>
            <Time>2018-08-26T07:20:16.000Z</Time>
            <Position>
              <LatitudeDegrees>42.9895037971436977386474609375</LatitudeDegrees>
              <LongitudeDegrees>-1.80830667726695537567138671875</LongitudeDegrees>
            </Position>
            <AltitudeMeters>531.5999755859375</AltitudeMeters>
            <DistanceMeters>41969.845604308</DistanceMeters>
          </Trackpoint>
          <Trackpoint>
            <Time>2018-08-26T07:20:17.000Z</Time>
            <Position>
              <LatitudeDegrees>42.98959323205053806304931640625</LatitudeDegrees>
              <LongitudeDegrees>-1.80843852460384368896484375</LongitudeDegrees>
            </Position>
            <AltitudeMeters>530.5999755859375</AltitudeMeters>
            <DistanceMeters>41984.484962363</DistanceMeters>
          </Trackpoint>
          <Trackpoint>
            <Time>2018-08-26T07:20:18.000Z</Time>
            <Position>
              <LatitudeDegrees>42.9896776378154754638671875</LatitudeDegrees>
              <LongitudeDegrees>-1.80857456289231777191162109375</LongitudeDegrees>
            </Position>
            <AltitudeMeters>529.4000244140625</AltitudeMeters>
            <DistanceMeters>41999.00820324</DistanceMeters>
          </Trackpoint>
          <Trackpoint>
            <Time>2018-08-26T07:20:19.000Z</Time>
            <Position>
              <LatitudeDegrees>42.98974829725921154022216796875</LatitudeDegrees>
              <LongitudeDegrees>-1.80872392840683460235595703125</LongitudeDegrees>
            </Position>
            <AltitudeMeters>528</AltitudeMeters>
            <DistanceMeters>42013.490349334</DistanceMeters>
          </Trackpoint>
          <Trackpoint>
            <Time>2018-08-26T07:20:20.000Z</Time>
            <Position>
              <LatitudeDegrees>42.9898018576204776763916015625</LatitudeDegrees>
              <LongitudeDegrees>-1.80888536386191844940185546875</LongitudeDegrees>
            </Position>
            <AltitudeMeters>527</AltitudeMeters>
            <DistanceMeters>42027.921900986</DistanceMeters>
          </Trackpoint>
          <Trackpoint>
            <Time>2018-08-26T07:20:21.000Z</Time>
            <Position>
              <LatitudeDegrees>42.98984033055603504180908203125</LatitudeDegrees>
              <LongitudeDegrees>-1.80905878543853759765625</LongitudeDegrees>
            </Position>
            <AltitudeMeters>525.5999755859375</AltitudeMeters>
            <DistanceMeters>42042.675850382</DistanceMeters>
          </Trackpoint>
          <Trackpoint>
            <Time>2018-08-26T07:20:22.000Z</Time>
            <Position>
              <LatitudeDegrees>42.98987084068357944488525390625</LatitudeDegrees>
              <LongitudeDegrees>-1.809231452643871307373046875</LongitudeDegrees>
            </Position>
            <AltitudeMeters>524.79998779296875</AltitudeMeters>
            <DistanceMeters>42057.137717499</DistanceMeters>
          </Trackpoint>
          <Trackpoint>
            <Time>2018-08-26T07:20:23.000Z</Time>
            <Position>
              <LatitudeDegrees>42.98989850096404552459716796875</LatitudeDegrees>
              <LongitudeDegrees>-1.80940135382115840911865234375</LongitudeDegrees>
            </Position>
            <AltitudeMeters>524</AltitudeMeters>
            <DistanceMeters>42071.309128865</DistanceMeters>
          </Trackpoint>
          <Trackpoint>
            <Time>2018-08-26T07:20:24.000Z</Time>
            <Position>
              <LatitudeDegrees>42.98992616124451160430908203125</LatitudeDegrees>
              <LongitudeDegrees>-1.80956446565687656402587890625</LongitudeDegrees>
            </Position>
            <AltitudeMeters>523.20001220703125</AltitudeMeters>
            <DistanceMeters>42084.941405756</DistanceMeters>
          </Trackpoint>
          <Trackpoint>
            <Time>2018-08-26T07:20:25.000Z</Time>
            <Position>
              <LatitudeDegrees>42.98995055258274078369140625</LatitudeDegrees>
              <LongitudeDegrees>-1.8097145855426788330078125</LongitudeDegrees>
            </Position>
            <AltitudeMeters>522.4000244140625</AltitudeMeters>
            <DistanceMeters>42097.461152834</DistanceMeters>
          </Trackpoint>
          <Trackpoint>
            <Time>2018-08-26T07:20:26.000Z</Time>
            <Position>
              <LatitudeDegrees>42.9899678193032741546630859375</LatitudeDegrees>
              <LongitudeDegrees>-1.80985263548791408538818359375</LongitudeDegrees>
            </Position>
            <AltitudeMeters>521</AltitudeMeters>
            <DistanceMeters>42108.863566642</DistanceMeters>
          </Trackpoint>
          <Trackpoint>
            <Time>2018-08-26T07:20:27.000Z</Time>
            <Position>
              <LatitudeDegrees>42.98997745849192142486572265625</LatitudeDegrees>
              <LongitudeDegrees>-1.80998121388256549835205078125</LongitudeDegrees>
            </Position>
            <AltitudeMeters>520.20001220703125</AltitudeMeters>
            <DistanceMeters>42119.386246783</DistanceMeters>
          </Trackpoint>
          <Trackpoint>
            <Time>2018-08-26T07:20:28.000Z</Time>
            <Position>
              <LatitudeDegrees>42.9899802245199680328369140625</LatitudeDegrees>
              <LongitudeDegrees>-1.81010107509791851043701171875</LongitudeDegrees>
            </Position>
            <AltitudeMeters>519.5999755859375</AltitudeMeters>
            <DistanceMeters>42129.149519131</DistanceMeters>
          </Trackpoint>
          <Trackpoint>
            <Time>2018-08-26T07:20:29.000Z</Time>
            <Position>
              <LatitudeDegrees>42.98997913487255573272705078125</LatitudeDegrees>
              <LongitudeDegrees>-1.81021020747721195220947265625</LongitudeDegrees>
            </Position>
            <AltitudeMeters>519.4000244140625</AltitudeMeters>
            <DistanceMeters>42138.034389883</DistanceMeters>
          </Trackpoint>
          <Trackpoint>
            <Time>2018-08-26T07:20:30.000Z</Time>
            <Position>
              <LatitudeDegrees>42.9899765364825725555419921875</LatitudeDegrees>
              <LongitudeDegrees>-1.81030810810625553131103515625</LongitudeDegrees>
            </Position>
            <AltitudeMeters>519.20001220703125</AltitudeMeters>
            <DistanceMeters>42146.009843379</DistanceMeters>
          </Trackpoint>
          <Trackpoint>
            <Time>2018-08-26T07:20:31.000Z</Time>
            <Position>
              <LatitudeDegrees>42.989973016083240509033203125</LatitudeDegrees>
              <LongitudeDegrees>-1.81039896793663501739501953125</LongitudeDegrees>
            </Position>
            <AltitudeMeters>519.20001220703125</AltitudeMeters>
            <DistanceMeters>42153.417661854</DistanceMeters>
          </Trackpoint>
          <Trackpoint>
            <Time>2018-08-26T07:20:32.000Z</Time>
            <Position>
              <LatitudeDegrees>42.98997159115970134735107421875</LatitudeDegrees>
              <LongitudeDegrees>-1.81048370897769927978515625</LongitudeDegrees>
            </Position>
            <AltitudeMeters>519.20001220703125</AltitudeMeters>
            <DistanceMeters>42160.318721422</DistanceMeters>
          </Trackpoint>
          <Trackpoint>
            <Time>2018-08-26T07:20:33.000Z</Time>
            <Position>
              <LatitudeDegrees>42.9899835772812366485595703125</LatitudeDegrees>
              <LongitudeDegrees>-1.81056325323879718780517578125</LongitudeDegrees>
            </Position>
            <AltitudeMeters>519.20001220703125</AltitudeMeters>
            <DistanceMeters>42166.930423175</DistanceMeters>
          </Trackpoint>
          <Trackpoint>
            <Time>2018-08-26T07:20:34.000Z</Time>
            <Position>
              <LatitudeDegrees>42.9900157637894153594970703125</LatitudeDegrees>
              <LongitudeDegrees>-1.810628883540630340576171875</LongitudeDegrees>
            </Position>
            <AltitudeMeters>519.20001220703125</AltitudeMeters>
            <DistanceMeters>42173.363528206</DistanceMeters>
          </Trackpoint>
          <Trackpoint>
            <Time>2018-08-26T07:20:35.000Z</Time>
            <Position>
              <LatitudeDegrees>42.9900640435516834259033203125</LatitudeDegrees>
              <LongitudeDegrees>-1.81067146360874176025390625</LongitudeDegrees>
            </Position>
            <AltitudeMeters>519.20001220703125</AltitudeMeters>
            <DistanceMeters>42179.757915286</DistanceMeters>
          </Trackpoint>
          <Trackpoint>
            <Time>2018-08-26T07:20:36.000Z</Time>
            <Position>
              <LatitudeDegrees>42.990121878683567047119140625</LatitudeDegrees>
              <LongitudeDegrees>-1.81069015525281429290771484375</LongitudeDegrees>
            </Position>
            <AltitudeMeters>519.20001220703125</AltitudeMeters>
            <DistanceMeters>42186.372348019</DistanceMeters>
          </Trackpoint>
          <Trackpoint>
            <Time>2018-08-26T07:20:37.000Z</Time>
            <Position>
              <LatitudeDegrees>42.99018465913832187652587890625</LatitudeDegrees>
              <LongitudeDegrees>-1.81069803424179553985595703125</LongitudeDegrees>
            </Position>
            <AltitudeMeters>519.4000244140625</AltitudeMeters>
            <DistanceMeters>42193.388898223</DistanceMeters>
          </Trackpoint>
          <Trackpoint>
            <Time>2018-08-26T07:20:38.000Z</Time>
            <Position>
              <LatitudeDegrees>42.99025188200175762176513671875</LatitudeDegrees>
              <LongitudeDegrees>-1.81071027182042598724365234375</LongitudeDegrees>
            </Position>
            <AltitudeMeters>519.79998779296875</AltitudeMeters>
            <DistanceMeters>42200.937393594</DistanceMeters>
          </Trackpoint>
          <Trackpoint>
            <Time>2018-08-26T07:20:39.000Z</Time>
            <Position>
              <LatitudeDegrees>42.99031809903681278228759765625</LatitudeDegrees>
              <LongitudeDegrees>-1.8107349984347820281982421875</LongitudeDegrees>
            </Position>
            <AltitudeMeters>519.79998779296875</AltitudeMeters>
            <DistanceMeters>42208.578037821</DistanceMeters>
          </Trackpoint>
          <Trackpoint>
            <Time>2018-08-26T07:20:40.000Z</Time>
            <Position>
              <LatitudeDegrees>42.99038398079574108123779296875</LatitudeDegrees>
              <LongitudeDegrees>-1.8107755668461322784423828125</LongitudeDegrees>
            </Position>
            <AltitudeMeters>520</AltitudeMeters>
            <DistanceMeters>42216.62057707</DistanceMeters>
          </Trackpoint>
          <Trackpoint>
            <Time>2018-08-26T07:20:41.000Z</Time>
            <Position>
              <LatitudeDegrees>42.99044986255466938018798828125</LatitudeDegrees>
              <LongitudeDegrees>-1.81082862429320812225341796875</LongitudeDegrees>
            </Position>
            <AltitudeMeters>520</AltitudeMeters>
            <DistanceMeters>42225.130642468</DistanceMeters>
          </Trackpoint>
          <Trackpoint>
            <Time>2018-08-26T07:20:42.000Z</Time>
            <Position>
              <LatitudeDegrees>42.9905113019049167633056640625</LatitudeDegrees>
              <LongitudeDegrees>-1.81089341640472412109375</LongitudeDegrees>
            </Position>
            <AltitudeMeters>520.20001220703125</AltitudeMeters>
            <DistanceMeters>42233.767101895</DistanceMeters>
          </Trackpoint>
          <Trackpoint>
            <Time>2018-08-26T07:20:43.000Z</Time>
            <Position>
              <LatitudeDegrees>42.99056804738938808441162109375</LatitudeDegrees>
              <LongitudeDegrees>-1.81096759624779224395751953125</LongitudeDegrees>
            </Position>
            <AltitudeMeters>520.20001220703125</AltitudeMeters>
            <DistanceMeters>42242.505943723</DistanceMeters>
          </Trackpoint>
          <Trackpoint>
            <Time>2018-08-26T07:20:44.000Z</Time>
            <Position>
              <LatitudeDegrees>42.9906145669519901275634765625</LatitudeDegrees>
              <LongitudeDegrees>-1.81105057708919048309326171875</LongitudeDegrees>
            </Position>
            <AltitudeMeters>520.4000244140625</AltitudeMeters>
            <DistanceMeters>42251.01707016</DistanceMeters>
          </Trackpoint>
          <Trackpoint>
            <Time>2018-08-26T07:20:45.000Z</Time>
            <Position>
              <LatitudeDegrees>42.9906507767736911773681640625</LatitudeDegrees>
              <LongitudeDegrees>-1.8111426942050457000732421875</LongitudeDegrees>
            </Position>
            <AltitudeMeters>520.4000244140625</AltitudeMeters>
            <DistanceMeters>42259.530848617</DistanceMeters>
          </Trackpoint>
          <Trackpoint>
            <Time>2018-08-26T07:20:46.000Z</Time>
            <Position>
              <LatitudeDegrees>42.99067533574998378753662109375</LatitudeDegrees>
              <LongitudeDegrees>-1.8112426064908504486083984375</LongitudeDegrees>
            </Position>
            <AltitudeMeters>520.5999755859375</AltitudeMeters>
            <DistanceMeters>42268.111713569</DistanceMeters>
          </Trackpoint>
          <Trackpoint>
            <Time>2018-08-26T07:20:47.000Z</Time>
            <Position>
              <LatitudeDegrees>42.99068757332861423492431640625</LatitudeDegrees>
              <LongitudeDegrees>-1.81134738028049468994140625</LongitudeDegrees>
            </Position>
            <AltitudeMeters>520.79998779296875</AltitudeMeters>
            <DistanceMeters>42276.749218508</DistanceMeters>
          </Trackpoint>
          <Trackpoint>
            <Time>2018-08-26T07:20:48.000Z</Time>
            <Position>
              <LatitudeDegrees>42.99069327302277088165283203125</LatitudeDegrees>
              <LongitudeDegrees>-1.811452321708202362060546875</LongitudeDegrees>
            </Position>
            <AltitudeMeters>521</AltitudeMeters>
            <DistanceMeters>42285.316391983</DistanceMeters>
          </Trackpoint>
          <Trackpoint>
            <Time>2018-08-26T07:20:49.000Z</Time>
            <Position>
              <LatitudeDegrees>42.990694530308246612548828125</LatitudeDegrees>
              <LongitudeDegrees>-1.81156019680202007293701171875</LongitudeDegrees>
            </Position>
            <AltitudeMeters>521</AltitudeMeters>
            <DistanceMeters>42294.100068499</DistanceMeters>
          </Trackpoint>
          <Trackpoint>
            <Time>2018-08-26T07:20:50.000Z</Time>
            <Position>
              <LatitudeDegrees>42.9906926862895488739013671875</LatitudeDegrees>
              <LongitudeDegrees>-1.8116677366197109222412109375</LongitudeDegrees>
            </Position>
            <AltitudeMeters>521.20001220703125</AltitudeMeters>
            <DistanceMeters>42302.856974868</DistanceMeters>
          </Trackpoint>
          <Trackpoint>
            <Time>2018-08-26T07:20:51.000Z</Time>
            <Position>
              <LatitudeDegrees>42.9906997270882129669189453125</LatitudeDegrees>
              <LongitudeDegrees>-1.81177544407546520233154296875</LongitudeDegrees>
            </Position>
            <AltitudeMeters>521.20001220703125</AltitudeMeters>
            <DistanceMeters>42311.660162702</DistanceMeters>
          </Trackpoint>
          <Trackpoint>
            <Time>2018-08-26T07:20:52.000Z</Time>
            <Position>
              <LatitudeDegrees>42.99072629772126674652099609375</LatitudeDegrees>
              <LongitudeDegrees>-1.8118799664080142974853515625</LongitudeDegrees>
            </Position>
            <AltitudeMeters>521.4000244140625</AltitudeMeters>
            <DistanceMeters>42320.669176359</DistanceMeters>
          </Trackpoint>
          <Trackpoint>
            <Time>2018-08-26T07:20:53.000Z</Time>
            <Position>
              <LatitudeDegrees>42.99076753668487071990966796875</LatitudeDegrees>
              <LongitudeDegrees>-1.81198968552052974700927734375</LongitudeDegrees>
            </Position>
            <AltitudeMeters>521.5999755859375</AltitudeMeters>
            <DistanceMeters>42330.711931151</DistanceMeters>
          </Trackpoint>
          <Trackpoint>
            <Time>2018-08-26T07:20:54.000Z</Time>
            <Position>
              <LatitudeDegrees>42.9908207617700099945068359375</LatitudeDegrees>
              <LongitudeDegrees>-1.812082640826702117919921875</LongitudeDegrees>
            </Position>
            <AltitudeMeters>521.5999755859375</AltitudeMeters>
            <DistanceMeters>42340.322322499</DistanceMeters>
          </Trackpoint>
          <Trackpoint>
            <Time>2018-08-26T07:20:55.000Z</Time>
            <Position>
              <LatitudeDegrees>42.99088287167251110076904296875</LatitudeDegrees>
              <LongitudeDegrees>-1.81216503493487834930419921875</LongitudeDegrees>
            </Position>
            <AltitudeMeters>521.5999755859375</AltitudeMeters>
            <DistanceMeters>42349.954769512</DistanceMeters>
          </Trackpoint>
          <Trackpoint>
            <Time>2018-08-26T07:20:56.000Z</Time>
            <Position>
              <LatitudeDegrees>42.99095378257334232330322265625</LatitudeDegrees>
              <LongitudeDegrees>-1.8122363649308681488037109375</LongitudeDegrees>
            </Position>
            <AltitudeMeters>521.5999755859375</AltitudeMeters>
            <DistanceMeters>42359.753585912</DistanceMeters>
          </Trackpoint>
          <Trackpoint>
            <Time>2018-08-26T07:20:57.000Z</Time>
            <Position>
              <LatitudeDegrees>42.99103056080639362335205078125</LatitudeDegrees>
              <LongitudeDegrees>-1.812296546995639801025390625</LongitudeDegrees>
            </Position>
            <AltitudeMeters>521.5999755859375</AltitudeMeters>
            <DistanceMeters>42369.604332151</DistanceMeters>
          </Trackpoint>
          <Trackpoint>
            <Time>2018-08-26T07:20:58.000Z</Time>
            <Position>
              <LatitudeDegrees>42.99111018888652324676513671875</LatitudeDegrees>
              <LongitudeDegrees>-1.81234918534755706787109375</LongitudeDegrees>
            </Position>
            <AltitudeMeters>521.79998779296875</AltitudeMeters>
            <DistanceMeters>42379.448659472</DistanceMeters>
          </Trackpoint>
          <Trackpoint>
            <Time>2018-08-26T07:20:59.000Z</Time>
            <Position>
              <LatitudeDegrees>42.99119182862341403961181640625</LatitudeDegrees>
              <LongitudeDegrees>-1.8123932741582393646240234375</LongitudeDegrees>
            </Position>
            <AltitudeMeters>521.79998779296875</AltitudeMeters>
            <DistanceMeters>42389.218866127</DistanceMeters>
          </Trackpoint>
          <Trackpoint>
            <Time>2018-08-26T07:21:00.000Z</Time>
            <Position>
              <LatitudeDegrees>42.9912770725786685943603515625</LatitudeDegrees>
              <LongitudeDegrees>-1.81242755614221096038818359375</LongitudeDegrees>
            </Position>
            <AltitudeMeters>521.79998779296875</AltitudeMeters>
            <DistanceMeters>42399.108951467</DistanceMeters>
          </Trackpoint>
          <Trackpoint>
            <Time>2018-08-26T07:21:01.000Z</Time>
            <Position>
              <LatitudeDegrees>42.9913659207522869110107421875</LatitudeDegrees>
              <LongitudeDegrees>-1.812451779842376708984375</LongitudeDegrees>
            </Position>
            <AltitudeMeters>521.79998779296875</AltitudeMeters>
            <DistanceMeters>42409.192982945</DistanceMeters>
          </Trackpoint>
          <Trackpoint>
            <Time>2018-08-26T07:21:02.000Z</Time>
            <Position>
              <LatitudeDegrees>42.99145527184009552001953125</LatitudeDegrees>
              <LongitudeDegrees>-1.8124665319919586181640625</LongitudeDegrees>
            </Position>
            <AltitudeMeters>521.79998779296875</AltitudeMeters>
            <DistanceMeters>42419.210078804</DistanceMeters>
          </Trackpoint>
          <Trackpoint>
            <Time>2018-08-26T07:21:03.000Z</Time>
            <Position>
              <LatitudeDegrees>42.99154403619468212127685546875</LatitudeDegrees>
              <LongitudeDegrees>-1.8124692142009735107421875</LongitudeDegrees>
            </Position>
            <AltitudeMeters>521.79998779296875</AltitudeMeters>
            <DistanceMeters>42429.091943337</DistanceMeters>
          </Trackpoint>
          <Trackpoint>
            <Time>2018-08-26T07:21:04.000Z</Time>
            <Position>
              <LatitudeDegrees>42.9916321299970149993896484375</LatitudeDegrees>
              <LongitudeDegrees>-1.812457479536533355712890625</LongitudeDegrees>
            </Position>
            <AltitudeMeters>521.79998779296875</AltitudeMeters>
            <DistanceMeters>42438.943147911</DistanceMeters>
          </Trackpoint>
          <Trackpoint>
            <Time>2018-08-26T07:21:05.000Z</Time>
            <Position>
              <LatitudeDegrees>42.99171988852322101593017578125</LatitudeDegrees>
              <LongitudeDegrees>-1.81243635714054107666015625</LongitudeDegrees>
            </Position>
            <AltitudeMeters>521.79998779296875</AltitudeMeters>
            <DistanceMeters>42448.860586724</DistanceMeters>
          </Trackpoint>
          <Trackpoint>
            <Time>2018-08-26T07:21:06.000Z</Time>
            <Position>
              <LatitudeDegrees>42.991803623735904693603515625</LatitudeDegrees>
              <LongitudeDegrees>-1.8124056793749332427978515625</LongitudeDegrees>
            </Position>
            <AltitudeMeters>521.79998779296875</AltitudeMeters>
            <DistanceMeters>42458.509425418</DistanceMeters>
          </Trackpoint>
          <Trackpoint>
            <Time>2018-08-26T07:21:07.000Z</Time>
            <Position>
              <LatitudeDegrees>42.991885431110858917236328125</LatitudeDegrees>
              <LongitudeDegrees>-1.81236955337226390838623046875</LongitudeDegrees>
            </Position>
            <AltitudeMeters>521.79998779296875</AltitudeMeters>
            <DistanceMeters>42468.077440625</DistanceMeters>
          </Trackpoint>
          <Trackpoint>
            <Time>2018-08-26T07:21:08.000Z</Time>
            <Position>
              <LatitudeDegrees>42.9919660650193691253662109375</LatitudeDegrees>
              <LongitudeDegrees>-1.81233367882668972015380859375</LongitudeDegrees>
            </Position>
            <AltitudeMeters>521.79998779296875</AltitudeMeters>
            <DistanceMeters>42477.515751073</DistanceMeters>
          </Trackpoint>
          <Trackpoint>
            <Time>2018-08-26T07:21:09.000Z</Time>
            <Position>
              <LatitudeDegrees>42.9920435138046741485595703125</LatitudeDegrees>
              <LongitudeDegrees>-1.8122960440814495086669921875</LongitudeDegrees>
            </Position>
            <AltitudeMeters>522</AltitudeMeters>
            <DistanceMeters>42486.66450938</DistanceMeters>
          </Trackpoint>
          <Trackpoint>
            <Time>2018-08-26T07:21:10.000Z</Time>
            <Position>
              <LatitudeDegrees>42.9921192862093448638916015625</LatitudeDegrees>
              <LongitudeDegrees>-1.812258660793304443359375</LongitudeDegrees>
            </Position>
            <AltitudeMeters>521.79998779296875</AltitudeMeters>
            <DistanceMeters>42495.630318908</DistanceMeters>
          </Trackpoint>
          <Trackpoint>
            <Time>2018-08-26T07:21:11.000Z</Time>
            <Position>
              <LatitudeDegrees>42.9921943880617618560791015625</LatitudeDegrees>
              <LongitudeDegrees>-1.8122197687625885009765625</LongitudeDegrees>
            </Position>
            <AltitudeMeters>521.79998779296875</AltitudeMeters>
            <DistanceMeters>42504.568893536</DistanceMeters>
          </Trackpoint>
          <Trackpoint>
            <Time>2018-08-26T07:21:12.000Z</Time>
            <Position>
              <LatitudeDegrees>42.992267310619354248046875</LatitudeDegrees>
              <LongitudeDegrees>-1.81217894889414310455322265625</LongitudeDegrees>
            </Position>
            <AltitudeMeters>521.79998779296875</AltitudeMeters>
            <DistanceMeters>42513.339195193</DistanceMeters>
          </Trackpoint>
          <Trackpoint>
            <Time>2018-08-26T07:21:13.000Z</Time>
            <Position>
              <LatitudeDegrees>42.99234216101467609405517578125</LatitudeDegrees>
              <LongitudeDegrees>-1.8121384643018245697021484375</LongitudeDegrees>
            </Position>
            <AltitudeMeters>521.79998779296875</AltitudeMeters>
            <DistanceMeters>42522.298455738</DistanceMeters>
          </Trackpoint>
          <Trackpoint>
            <Time>2018-08-26T07:21:14.000Z</Time>
            <Position>
              <LatitudeDegrees>42.99241759814321994781494140625</LatitudeDegrees>
              <LongitudeDegrees>-1.81209680624306201934814453125</LongitudeDegrees>
            </Position>
            <AltitudeMeters>522</AltitudeMeters>
            <DistanceMeters>42531.354456746</DistanceMeters>
          </Trackpoint>
          <Trackpoint>
            <Time>2018-08-26T07:21:15.000Z</Time>
            <Position>
              <LatitudeDegrees>42.99249269999563694000244140625</LatitudeDegrees>
              <LongitudeDegrees>-1.81205322034657001495361328125</LongitudeDegrees>
            </Position>
            <AltitudeMeters>522.20001220703125</AltitudeMeters>
            <DistanceMeters>42540.435351971</DistanceMeters>
          </Trackpoint>
          <Trackpoint>
            <Time>2018-08-26T07:21:16.000Z</Time>
            <Position>
              <LatitudeDegrees>42.9925675503909587860107421875</LatitudeDegrees>
              <LongitudeDegrees>-1.812008209526538848876953125</LongitudeDegrees>
            </Position>
            <AltitudeMeters>522.20001220703125</AltitudeMeters>
            <DistanceMeters>42549.536609644</DistanceMeters>
          </Trackpoint>
          <Trackpoint>
            <Time>2018-08-26T07:21:17.000Z</Time>
            <Position>
              <LatitudeDegrees>42.99264214932918548583984375</LatitudeDegrees>
              <LongitudeDegrees>-1.81196160614490509033203125</LongitudeDegrees>
            </Position>
            <AltitudeMeters>522.4000244140625</AltitudeMeters>
            <DistanceMeters>42558.665111461</DistanceMeters>
          </Trackpoint>
          <Trackpoint>
            <Time>2018-08-26T07:21:18.000Z</Time>
            <Position>
              <LatitudeDegrees>42.9927165806293487548828125</LatitudeDegrees>
              <LongitudeDegrees>-1.81191542185842990875244140625</LongitudeDegrees>
            </Position>
            <AltitudeMeters>522.4000244140625</AltitudeMeters>
            <DistanceMeters>42567.762399552</DistanceMeters>
          </Trackpoint>
          <Trackpoint>
            <Time>2018-08-26T07:21:19.000Z</Time>
            <Position>
              <LatitudeDegrees>42.99279059283435344696044921875</LatitudeDegrees>
              <LongitudeDegrees>-1.81186982430517673492431640625</LongitudeDegrees>
            </Position>
            <AltitudeMeters>522.4000244140625</AltitudeMeters>
            <DistanceMeters>42576.797936123</DistanceMeters>
          </Trackpoint>
          <Trackpoint>
            <Time>2018-08-26T07:21:20.000Z</Time>
            <Position>
              <LatitudeDegrees>42.9928615875542163848876953125</LatitudeDegrees>
              <LongitudeDegrees>-1.811823137104511260986328125</LongitudeDegrees>
            </Position>
            <AltitudeMeters>522.5999755859375</AltitudeMeters>
            <DistanceMeters>42585.566693214</DistanceMeters>
          </Trackpoint>
          <Trackpoint>
            <Time>2018-08-26T07:21:21.000Z</Time>
            <Position>
              <LatitudeDegrees>42.99293274991214275360107421875</LatitudeDegrees>
              <LongitudeDegrees>-1.81177787482738494873046875</LongitudeDegrees>
            </Position>
            <AltitudeMeters>522.5999755859375</AltitudeMeters>
            <DistanceMeters>42594.302434512</DistanceMeters>
          </Trackpoint>
          <Trackpoint>
            <Time>2018-08-26T07:21:22.000Z</Time>
            <Position>
              <LatitudeDegrees>42.99300231970846652984619140625</LatitudeDegrees>
              <LongitudeDegrees>-1.811733953654766082763671875</LongitudeDegrees>
            </Position>
            <AltitudeMeters>522.5999755859375</AltitudeMeters>
            <DistanceMeters>42602.831578422</DistanceMeters>
          </Trackpoint>
          <Trackpoint>
            <Time>2018-08-26T07:21:23.000Z</Time>
            <Position>
              <LatitudeDegrees>42.99306987784802913665771484375</LatitudeDegrees>
              <LongitudeDegrees>-1.8116912059485912322998046875</LongitudeDegrees>
            </Position>
            <AltitudeMeters>522.79998779296875</AltitudeMeters>
            <DistanceMeters>42611.116905279</DistanceMeters>
          </Trackpoint>
          <Trackpoint>
            <Time>2018-08-26T07:21:24.000Z</Time>
            <Position>
              <LatitudeDegrees>42.9931358434259891510009765625</LatitudeDegrees>
              <LongitudeDegrees>-1.811646111309528350830078125</LongitudeDegrees>
            </Position>
            <AltitudeMeters>522.79998779296875</AltitudeMeters>
            <DistanceMeters>42619.32613548</DistanceMeters>
          </Trackpoint>
          <Trackpoint>
            <Time>2018-08-26T07:21:25.000Z</Time>
            <Position>
              <LatitudeDegrees>42.993203066289424896240234375</LatitudeDegrees>
              <LongitudeDegrees>-1.8116003461182117462158203125</LongitudeDegrees>
            </Position>
            <AltitudeMeters>522.79998779296875</AltitudeMeters>
            <DistanceMeters>42627.684165832</DistanceMeters>
          </Trackpoint>
          <Trackpoint>
            <Time>2018-08-26T07:21:26.000Z</Time>
            <Position>
              <LatitudeDegrees>42.99327054060995578765869140625</LatitudeDegrees>
              <LongitudeDegrees>-1.81155416183173656463623046875</LongitudeDegrees>
            </Position>
            <AltitudeMeters>522.79998779296875</AltitudeMeters>
            <DistanceMeters>42636.08207611</DistanceMeters>
          </Trackpoint>
          <Trackpoint>
            <Time>2018-08-26T07:21:27.000Z</Time>
            <Position>
              <LatitudeDegrees>42.99333759583532810211181640625</LatitudeDegrees>
              <LongitudeDegrees>-1.811505295336246490478515625</LongitudeDegrees>
            </Position>
            <AltitudeMeters>523</AltitudeMeters>
            <DistanceMeters>42644.538919814</DistanceMeters>
          </Trackpoint>
          <Trackpoint>
            <Time>2018-08-26T07:21:28.000Z</Time>
            <Position>
              <LatitudeDegrees>42.9934060759842395782470703125</LatitudeDegrees>
              <LongitudeDegrees>-1.81145408190786838531494140625</LongitudeDegrees>
            </Position>
            <AltitudeMeters>523</AltitudeMeters>
            <DistanceMeters>42653.226461406</DistanceMeters>
          </Trackpoint>
          <Trackpoint>
            <Time>2018-08-26T07:21:29.000Z</Time>
            <Position>
              <LatitudeDegrees>42.99347522668540477752685546875</LatitudeDegrees>
              <LongitudeDegrees>-1.81140144355595111846923828125</LongitudeDegrees>
            </Position>
            <AltitudeMeters>523</AltitudeMeters>
            <DistanceMeters>42662.035801731</DistanceMeters>
          </Trackpoint>
          <Trackpoint>
            <Time>2018-08-26T07:21:30.000Z</Time>
            <Position>
              <LatitudeDegrees>42.99354337155818939208984375</LatitudeDegrees>
              <LongitudeDegrees>-1.81134679354727268218994140625</LongitudeDegrees>
            </Position>
            <AltitudeMeters>523</AltitudeMeters>
            <DistanceMeters>42670.828725847</DistanceMeters>
          </Trackpoint>
          <Trackpoint>
            <Time>2018-08-26T07:21:31.000Z</Time>
            <Position>
              <LatitudeDegrees>42.9936095885932445526123046875</LatitudeDegrees>
              <LongitudeDegrees>-1.8112890422344207763671875</LongitudeDegrees>
            </Position>
            <AltitudeMeters>523.20001220703125</AltitudeMeters>
            <DistanceMeters>42679.570667105</DistanceMeters>
          </Trackpoint>
          <Trackpoint>
            <Time>2018-08-26T07:21:32.000Z</Time>
            <Position>
              <LatitudeDegrees>42.99367404542863368988037109375</LatitudeDegrees>
              <LongitudeDegrees>-1.81122693233191967010498046875</LongitudeDegrees>
            </Position>
            <AltitudeMeters>523.4000244140625</AltitudeMeters>
            <DistanceMeters>42688.347144306</DistanceMeters>
          </Trackpoint>
          <Trackpoint>
            <Time>2018-08-26T07:21:33.000Z</Time>
            <Position>
              <LatitudeDegrees>42.99373540095984935760498046875</LatitudeDegrees>
              <LongitudeDegrees>-1.81115903891623020172119140625</LongitudeDegrees>
            </Position>
            <AltitudeMeters>523.4000244140625</AltitudeMeters>
            <DistanceMeters>42697.132362765</DistanceMeters>
          </Trackpoint>
          <Trackpoint>
            <Time>2018-08-26T07:21:34.000Z</Time>
            <Position>
              <LatitudeDegrees>42.9937936551868915557861328125</LatitudeDegrees>
              <LongitudeDegrees>-1.811088211834430694580078125</LongitudeDegrees>
            </Position>
            <AltitudeMeters>523.5999755859375</AltitudeMeters>
            <DistanceMeters>42705.809503849</DistanceMeters>
          </Trackpoint>
          <Trackpoint>
            <Time>2018-08-26T07:21:35.000Z</Time>
            <Position>
              <LatitudeDegrees>42.99384989775717258453369140625</LatitudeDegrees>
              <LongitudeDegrees>-1.811015792191028594970703125</LongitudeDegrees>
            </Position>
            <AltitudeMeters>523.5999755859375</AltitudeMeters>
            <DistanceMeters>42714.409290246</DistanceMeters>
          </Trackpoint>
          <Trackpoint>
            <Time>2018-08-26T07:21:36.000Z</Time>
            <Position>
              <LatitudeDegrees>42.99390303902328014373779296875</LatitudeDegrees>
              <LongitudeDegrees>-1.8109416961669921875</LongitudeDegrees>
            </Position>
            <AltitudeMeters>523.5999755859375</AltitudeMeters>
            <DistanceMeters>42722.857587365</DistanceMeters>
          </Trackpoint>
          <Trackpoint>
            <Time>2018-08-26T07:21:37.000Z</Time>
            <Position>
              <LatitudeDegrees>42.99395509064197540283203125</LatitudeDegrees>
              <LongitudeDegrees>-1.81086684577167034149169921875</LongitudeDegrees>
            </Position>
            <AltitudeMeters>523.79998779296875</AltitudeMeters>
            <DistanceMeters>42731.266243533</DistanceMeters>
          </Trackpoint>
          <Trackpoint>
            <Time>2018-08-26T07:21:38.000Z</Time>
            <Position>
              <LatitudeDegrees>42.99400714226067066192626953125</LatitudeDegrees>
              <LongitudeDegrees>-1.8107903189957141876220703125</LongitudeDegrees>
            </Position>
            <AltitudeMeters>524</AltitudeMeters>
            <DistanceMeters>42739.773125019</DistanceMeters>
          </Trackpoint>
          <Trackpoint>
            <Time>2018-08-26T07:21:39.000Z</Time>
            <Position>
              <LatitudeDegrees>42.994060702621936798095703125</LatitudeDegrees>
              <LongitudeDegrees>-1.8107125349342823028564453125</LongitudeDegrees>
            </Position>
            <AltitudeMeters>524</AltitudeMeters>
            <DistanceMeters>42748.469497264</DistanceMeters>
          </Trackpoint>
          <Trackpoint>
            <Time>2018-08-26T07:21:40.000Z</Time>
            <Position>
              <LatitudeDegrees>42.994113676249980926513671875</LatitudeDegrees>
              <LongitudeDegrees>-1.81063097901642322540283203125</LongitudeDegrees>
            </Position>
            <AltitudeMeters>524</AltitudeMeters>
            <DistanceMeters>42757.349284846</DistanceMeters>
          </Trackpoint>
          <Trackpoint>
            <Time>2018-08-26T07:21:41.000Z</Time>
            <Position>
              <LatitudeDegrees>42.9941651411354541778564453125</LatitudeDegrees>
              <LongitudeDegrees>-1.8105435557663440704345703125</LongitudeDegrees>
            </Position>
            <AltitudeMeters>524</AltitudeMeters>
            <DistanceMeters>42766.485202785</DistanceMeters>
          </Trackpoint>
          <Trackpoint>
            <Time>2018-08-26T07:21:42.000Z</Time>
            <Position>
              <LatitudeDegrees>42.99421392381191253662109375</LatitudeDegrees>
              <LongitudeDegrees>-1.81045127101242542266845703125</LongitudeDegrees>
            </Position>
            <AltitudeMeters>524</AltitudeMeters>
            <DistanceMeters>42775.755057554</DistanceMeters>
          </Trackpoint>
          <Trackpoint>
            <Time>2018-08-26T07:21:43.000Z</Time>
            <Position>
              <LatitudeDegrees>42.9942593537271022796630859375</LatitudeDegrees>
              <LongitudeDegrees>-1.810355298221111297607421875</LongitudeDegrees>
            </Position>
            <AltitudeMeters>524</AltitudeMeters>
            <DistanceMeters>42785.061855781</DistanceMeters>
          </Trackpoint>
          <Trackpoint>
            <Time>2018-08-26T07:21:44.000Z</Time>
            <Position>
              <LatitudeDegrees>42.99430218525230884552001953125</LatitudeDegrees>
              <LongitudeDegrees>-1.810256727039813995361328125</LongitudeDegrees>
            </Position>
            <AltitudeMeters>524</AltitudeMeters>
            <DistanceMeters>42794.39578194</DistanceMeters>
          </Trackpoint>
          <Trackpoint>
            <Time>2018-08-26T07:21:45.000Z</Time>
            <Position>
              <LatitudeDegrees>42.99434342421591281890869140625</LatitudeDegrees>
              <LongitudeDegrees>-1.81015572510659694671630859375</LongitudeDegrees>
            </Position>
            <AltitudeMeters>524</AltitudeMeters>
            <DistanceMeters>42803.811581987</DistanceMeters>
          </Trackpoint>
          <Trackpoint>
            <Time>2018-08-26T07:21:46.000Z</Time>
            <Position>
              <LatitudeDegrees>42.99438290297985076904296875</LatitudeDegrees>
              <LongitudeDegrees>-1.81005195714533329010009765625</LongitudeDegrees>
            </Position>
            <AltitudeMeters>524</AltitudeMeters>
            <DistanceMeters>42813.333239799</DistanceMeters>
          </Trackpoint>
          <Trackpoint>
            <Time>2018-08-26T07:21:47.000Z</Time>
            <Position>
              <LatitudeDegrees>42.9944219626486301422119140625</LatitudeDegrees>
              <LongitudeDegrees>-1.80994684807956218719482421875</LongitudeDegrees>
            </Position>
            <AltitudeMeters>524</AltitudeMeters>
            <DistanceMeters>42822.93046751</DistanceMeters>
          </Trackpoint>
          <Trackpoint>
            <Time>2018-08-26T07:21:48.000Z</Time>
            <Position>
              <LatitudeDegrees>42.99446160905063152313232421875</LatitudeDegrees>
              <LongitudeDegrees>-1.8098414875566959381103515625</LongitudeDegrees>
            </Position>
            <AltitudeMeters>524</AltitudeMeters>
            <DistanceMeters>42832.576030096</DistanceMeters>
          </Trackpoint>
          <Trackpoint>
            <Time>2018-08-26T07:21:49.000Z</Time>
            <Position>
              <LatitudeDegrees>42.9944984056055545806884765625</LatitudeDegrees>
              <LongitudeDegrees>-1.8097341991961002349853515625</LongitudeDegrees>
            </Position>
            <AltitudeMeters>524</AltitudeMeters>
            <DistanceMeters>42842.222528826</DistanceMeters>
          </Trackpoint>
          <Trackpoint>
            <Time>2018-08-26T07:21:50.000Z</Time>
            <Position>
              <LatitudeDegrees>42.99453084357082843780517578125</LatitudeDegrees>
              <LongitudeDegrees>-1.8096252344548702239990234375</LongitudeDegrees>
            </Position>
            <AltitudeMeters>524</AltitudeMeters>
            <DistanceMeters>42851.799977157</DistanceMeters>
          </Trackpoint>
          <Trackpoint>
            <Time>2018-08-26T07:21:51.000Z</Time>
            <Position>
              <LatitudeDegrees>42.99455992877483367919921875</LatitudeDegrees>
              <LongitudeDegrees>-1.8095162697136402130126953125</LongitudeDegrees>
            </Position>
            <AltitudeMeters>523.79998779296875</AltitudeMeters>
            <DistanceMeters>42861.242591985</DistanceMeters>
          </Trackpoint>
          <Trackpoint>
            <Time>2018-08-26T07:21:52.000Z</Time>
            <Position>
              <LatitudeDegrees>42.9945860803127288818359375</LatitudeDegrees>
              <LongitudeDegrees>-1.8094083108007907867431640625</LongitudeDegrees>
            </Position>
            <AltitudeMeters>523.5999755859375</AltitudeMeters>
            <DistanceMeters>42870.500749772</DistanceMeters>
          </Trackpoint>
          <Trackpoint>
            <Time>2018-08-26T07:21:53.000Z</Time>
            <Position>
              <LatitudeDegrees>42.99461089074611663818359375</LatitudeDegrees>
              <LongitudeDegrees>-1.80930177681148052215576171875</LongitudeDegrees>
            </Position>
            <AltitudeMeters>523.5999755859375</AltitudeMeters>
            <DistanceMeters>42879.602503521</DistanceMeters>
          </Trackpoint>
          <Trackpoint>
            <Time>2018-08-26T07:21:54.000Z</Time>
            <Position>
              <LatitudeDegrees>42.9946351982653141021728515625</LatitudeDegrees>
              <LongitudeDegrees>-1.8091977573931217193603515625</LongitudeDegrees>
            </Position>
            <AltitudeMeters>523.20001220703125</AltitudeMeters>
            <DistanceMeters>42888.492454535</DistanceMeters>
          </Trackpoint>
          <Trackpoint>
            <Time>2018-08-26T07:21:55.000Z</Time>
            <Position>
              <LatitudeDegrees>42.99465808086097240447998046875</LatitudeDegrees>
              <LongitudeDegrees>-1.809096001088619232177734375</LongitudeDegrees>
            </Position>
            <AltitudeMeters>523</AltitudeMeters>
            <DistanceMeters>42897.159182629</DistanceMeters>
          </Trackpoint>
          <Trackpoint>
            <Time>2018-08-26T07:21:56.000Z</Time>
            <Position>
              <LatitudeDegrees>42.994680963456630706787109375</LatitudeDegrees>
              <LongitudeDegrees>-1.80899432860314846038818359375</LongitudeDegrees>
            </Position>
            <AltitudeMeters>522.79998779296875</AltitudeMeters>
            <DistanceMeters>42905.818614181</DistanceMeters>
          </Trackpoint>
          <Trackpoint>
            <Time>2018-08-26T07:21:57.000Z</Time>
            <Position>
              <LatitudeDegrees>42.99470476806163787841796875</LatitudeDegrees>
              <LongitudeDegrees>-1.80889039300382137298583984375</LongitudeDegrees>
            </Position>
            <AltitudeMeters>522.79998779296875</AltitudeMeters>
            <DistanceMeters>42914.684662649</DistanceMeters>
          </Trackpoint>
          <Trackpoint>
            <Time>2018-08-26T07:21:58.000Z</Time>
            <Position>
              <LatitudeDegrees>42.99473050050437450408935546875</LatitudeDegrees>
              <LongitudeDegrees>-1.8087890557944774627685546875</LongitudeDegrees>
            </Position>
            <AltitudeMeters>522.79998779296875</AltitudeMeters>
            <DistanceMeters>42923.417819332</DistanceMeters>
          </Trackpoint>
          <Trackpoint>
            <Time>2018-08-26T07:21:59.000Z</Time>
            <Position>
              <LatitudeDegrees>42.99475707113742828369140625</LatitudeDegrees>
              <LongitudeDegrees>-1.8086898140609264373779296875</LongitudeDegrees>
            </Position>
            <AltitudeMeters>522.79998779296875</AltitudeMeters>
            <DistanceMeters>42932.021280066</DistanceMeters>
          </Trackpoint>
          <Trackpoint>
            <Time>2018-08-26T07:22:00.000Z</Time>
            <Position>
              <LatitudeDegrees>42.994783557951450347900390625</LatitudeDegrees>
              <LongitudeDegrees>-1.80859283544123172760009765625</LongitudeDegrees>
            </Position>
            <AltitudeMeters>522.79998779296875</AltitudeMeters>
            <DistanceMeters>42940.448172801</DistanceMeters>
          </Trackpoint>
          <Trackpoint>
            <Time>2018-08-26T07:22:01.000Z</Time>
            <Position>
              <LatitudeDegrees>42.9948087036609649658203125</LatitudeDegrees>
              <LongitudeDegrees>-1.80849895812571048736572265625</LongitudeDegrees>
            </Position>
            <AltitudeMeters>522.79998779296875</AltitudeMeters>
            <DistanceMeters>42948.586699124</DistanceMeters>
          </Trackpoint>
          <Trackpoint>
            <Time>2018-08-26T07:22:02.000Z</Time>
            <Position>
              <LatitudeDegrees>42.99483628012239933013916015625</LatitudeDegrees>
              <LongitudeDegrees>-1.8084095232188701629638671875</LongitudeDegrees>
            </Position>
            <AltitudeMeters>522.79998779296875</AltitudeMeters>
            <DistanceMeters>42956.488214709</DistanceMeters>
          </Trackpoint>
          <Trackpoint>
            <Time>2018-08-26T07:22:03.000Z</Time>
            <Position>
              <LatitudeDegrees>42.994867376983165740966796875</LatitudeDegrees>
              <LongitudeDegrees>-1.80831891484558582305908203125</LongitudeDegrees>
            </Position>
            <AltitudeMeters>522.79998779296875</AltitudeMeters>
            <DistanceMeters>42964.636166722</DistanceMeters>
          </Trackpoint>
          <Trackpoint>
            <Time>2018-08-26T07:22:04.000Z</Time>
            <Position>
              <LatitudeDegrees>42.99489880912005901336669921875</LatitudeDegrees>
              <LongitudeDegrees>-1.808230988681316375732421875</LongitudeDegrees>
            </Position>
            <AltitudeMeters>523</AltitudeMeters>
            <DistanceMeters>42972.6025572</DistanceMeters>
          </Trackpoint>
          <Trackpoint>
            <Time>2018-08-26T07:22:05.000Z</Time>
            <Position>
              <LatitudeDegrees>42.9949282296001911163330078125</LatitudeDegrees>
              <LongitudeDegrees>-1.80814591236412525177001953125</LongitudeDegrees>
            </Position>
            <AltitudeMeters>523.20001220703125</AltitudeMeters>
            <DistanceMeters>42980.263855842</DistanceMeters>
          </Trackpoint>
          <Trackpoint>
            <Time>2018-08-26T07:22:06.000Z</Time>
            <Position>
              <LatitudeDegrees>42.9949580691754817962646484375</LatitudeDegrees>
              <LongitudeDegrees>-1.80806293152272701263427734375</LongitudeDegrees>
            </Position>
            <AltitudeMeters>523.79998779296875</AltitudeMeters>
            <DistanceMeters>42987.791987069</DistanceMeters>
          </Trackpoint>
          <Trackpoint>
            <Time>2018-08-26T07:22:07.000Z</Time>
            <Position>
              <LatitudeDegrees>42.9949892498552799224853515625</LatitudeDegrees>
              <LongitudeDegrees>-1.807978861033916473388671875</LongitudeDegrees>
            </Position>
            <AltitudeMeters>524</AltitudeMeters>
            <DistanceMeters>42995.465063272</DistanceMeters>
          </Trackpoint>
          <Trackpoint>
            <Time>2018-08-26T07:22:08.000Z</Time>
            <Position>
              <LatitudeDegrees>42.9950211010873317718505859375</LatitudeDegrees>
              <LongitudeDegrees>-1.807897053658962249755859375</LongitudeDegrees>
            </Position>
            <AltitudeMeters>524.20001220703125</AltitudeMeters>
            <DistanceMeters>43003.009968964</DistanceMeters>
          </Trackpoint>
          <Trackpoint>
            <Time>2018-08-26T07:22:09.000Z</Time>
            <Position>
              <LatitudeDegrees>42.99505504779517650604248046875</LatitudeDegrees>
              <LongitudeDegrees>-1.8078197725117206573486328125</LongitudeDegrees>
            </Position>
            <AltitudeMeters>524.20001220703125</AltitudeMeters>
            <DistanceMeters>43010.348591172</DistanceMeters>
          </Trackpoint>
          <Trackpoint>
            <Time>2018-08-26T07:22:10.000Z</Time>
            <Position>
              <LatitudeDegrees>42.9950925149023532867431640625</LatitudeDegrees>
              <LongitudeDegrees>-1.8077466823160648345947265625</LongitudeDegrees>
            </Position>
            <AltitudeMeters>524.4000244140625</AltitudeMeters>
            <DistanceMeters>43017.614251974</DistanceMeters>
          </Trackpoint>
          <Trackpoint>
            <Time>2018-08-26T07:22:11.000Z</Time>
            <Position>
              <LatitudeDegrees>42.9951320774853229522705078125</LatitudeDegrees>
              <LongitudeDegrees>-1.807674430310726165771484375</LongitudeDegrees>
            </Position>
            <AltitudeMeters>524.5999755859375</AltitudeMeters>
            <DistanceMeters>43024.961482539</DistanceMeters>
          </Trackpoint>
          <Trackpoint>
            <Time>2018-08-26T07:22:12.000Z</Time>
            <Position>
              <LatitudeDegrees>42.99517189152538776397705078125</LatitudeDegrees>
              <LongitudeDegrees>-1.807603351771831512451171875</LongitudeDegrees>
            </Position>
            <AltitudeMeters>524.5999755859375</AltitudeMeters>
            <DistanceMeters>43032.249480182</DistanceMeters>
          </Trackpoint>
          <Trackpoint>
            <Time>2018-08-26T07:22:13.000Z</Time>
            <Position>
              <LatitudeDegrees>42.99521313048899173736572265625</LatitudeDegrees>
              <LongitudeDegrees>-1.8075347878038883209228515625</LongitudeDegrees>
            </Position>
            <AltitudeMeters>524.79998779296875</AltitudeMeters>
            <DistanceMeters>43039.475260555</DistanceMeters>
          </Trackpoint>
          <Trackpoint>
            <Time>2018-08-26T07:22:14.000Z</Time>
            <Position>
              <LatitudeDegrees>42.9952564649283885955810546875</LatitudeDegrees>
              <LongitudeDegrees>-1.80746949277818202972412109375</LongitudeDegrees>
            </Position>
            <AltitudeMeters>524.79998779296875</AltitudeMeters>
            <DistanceMeters>43046.652137037</DistanceMeters>
          </Trackpoint>
          <Trackpoint>
            <Time>2018-08-26T07:22:15.000Z</Time>
            <Position>
              <LatitudeDegrees>42.99530046992003917694091796875</LatitudeDegrees>
              <LongitudeDegrees>-1.80740428157150745391845703125</LongitudeDegrees>
            </Position>
            <AltitudeMeters>524.79998779296875</AltitudeMeters>
            <DistanceMeters>43053.874792478</DistanceMeters>
          </Trackpoint>
          <Trackpoint>
            <Time>2018-08-26T07:22:16.000Z</Time>
            <Position>
              <LatitudeDegrees>42.9953433014452457427978515625</LatitudeDegrees>
              <LongitudeDegrees>-1.8073383159935474395751953125</LongitudeDegrees>
            </Position>
            <AltitudeMeters>525</AltitudeMeters>
            <DistanceMeters>43061.055442622</DistanceMeters>
          </Trackpoint>
          <Trackpoint>
            <Time>2018-08-26T07:22:17.000Z</Time>
            <Position>
              <LatitudeDegrees>42.995383702218532562255859375</LatitudeDegrees>
              <LongitudeDegrees>-1.80727084167301654815673828125</LongitudeDegrees>
            </Position>
            <AltitudeMeters>525.4000244140625</AltitudeMeters>
            <DistanceMeters>43068.153880941</DistanceMeters>
          </Trackpoint>
          <Trackpoint>
            <Time>2018-08-26T07:22:18.000Z</Time>
            <Position>
              <LatitudeDegrees>42.9954224266111850738525390625</LatitudeDegrees>
              <LongitudeDegrees>-1.8072068877518177032470703125</LongitudeDegrees>
            </Position>
            <AltitudeMeters>526</AltitudeMeters>
            <DistanceMeters>43074.913480545</DistanceMeters>
          </Trackpoint>
          <Trackpoint>
            <Time>2018-08-26T07:22:19.000Z</Time>
            <Position>
              <LatitudeDegrees>42.99546408466994762420654296875</LatitudeDegrees>
              <LongitudeDegrees>-1.80714293383061885833740234375</LongitudeDegrees>
            </Position>
            <AltitudeMeters>526.20001220703125</AltitudeMeters>
            <DistanceMeters>43081.885488971</DistanceMeters>
          </Trackpoint>
          <Trackpoint>
            <Time>2018-08-26T07:22:20.000Z</Time>
            <Position>
              <LatitudeDegrees>42.99550264142453670501708984375</LatitudeDegrees>
              <LongitudeDegrees>-1.807081662118434906005859375</LongitudeDegrees>
            </Position>
            <AltitudeMeters>526.5999755859375</AltitudeMeters>
            <DistanceMeters>43088.465016801</DistanceMeters>
          </Trackpoint>
          <Trackpoint>
            <Time>2018-08-26T07:22:21.000Z</Time>
            <Position>
              <LatitudeDegrees>42.99554002471268177032470703125</LatitudeDegrees>
              <LongitudeDegrees>-1.80702441371977329254150390625</LongitudeDegrees>
            </Position>
            <AltitudeMeters>526.79998779296875</AltitudeMeters>
            <DistanceMeters>43094.712255423</DistanceMeters>
          </Trackpoint>
          <Trackpoint>
            <Time>2018-08-26T07:22:22.000Z</Time>
            <Position>
              <LatitudeDegrees>42.99557757563889026641845703125</LatitudeDegrees>
              <LongitudeDegrees>-1.8069695122539997100830078125</LongitudeDegrees>
            </Position>
            <AltitudeMeters>527</AltitudeMeters>
            <DistanceMeters>43100.830972358</DistanceMeters>
          </Trackpoint>
          <Trackpoint>
            <Time>2018-08-26T07:22:23.000Z</Time>
            <Position>
              <LatitudeDegrees>42.99561110325157642364501953125</LatitudeDegrees>
              <LongitudeDegrees>-1.80691142566502094268798828125</LongitudeDegrees>
            </Position>
            <AltitudeMeters>527.20001220703125</AltitudeMeters>
            <DistanceMeters>43106.854496837</DistanceMeters>
          </Trackpoint>
          <Trackpoint>
            <Time>2018-08-26T07:22:24.000Z</Time>
            <Position>
              <LatitudeDegrees>42.99564664252102375030517578125</LatitudeDegrees>
              <LongitudeDegrees>-1.8068575300276279449462890625</LongitudeDegrees>
            </Position>
            <AltitudeMeters>527.4000244140625</AltitudeMeters>
            <DistanceMeters>43112.762224443</DistanceMeters>
          </Trackpoint>
          <Trackpoint>
            <Time>2018-08-26T07:22:25.000Z</Time>
            <Position>
              <LatitudeDegrees>42.99568134360015392303466796875</LatitudeDegrees>
              <LongitudeDegrees>-1.80679692886769771575927734375</LongitudeDegrees>
            </Position>
            <AltitudeMeters>527.5999755859375</AltitudeMeters>
            <DistanceMeters>43119.027505147</DistanceMeters>
          </Trackpoint>
          <Trackpoint>
            <Time>2018-08-26T07:22:26.000Z</Time>
            <Position>
              <LatitudeDegrees>42.99571101553738117218017578125</LatitudeDegrees>
              <LongitudeDegrees>-1.8067354895174503326416015625</LongitudeDegrees>
            </Position>
            <AltitudeMeters>528</AltitudeMeters>
            <DistanceMeters>43125.020971931</DistanceMeters>
          </Trackpoint>
          <Trackpoint>
            <Time>2018-08-26T07:22:27.000Z</Time>
            <Position>
              <LatitudeDegrees>42.99574001692235469818115234375</LatitudeDegrees>
              <LongitudeDegrees>-1.80667304433882236480712890625</LongitudeDegrees>
            </Position>
            <AltitudeMeters>528.20001220703125</AltitudeMeters>
            <DistanceMeters>43131.041497394</DistanceMeters>
          </Trackpoint>
          <Trackpoint>
            <Time>2018-08-26T07:22:28.000Z</Time>
            <Position>
              <LatitudeDegrees>42.9957731254398822784423828125</LatitudeDegrees>
              <LongitudeDegrees>-1.8066084198653697967529296875</LongitudeDegrees>
            </Position>
            <AltitudeMeters>528.5999755859375</AltitudeMeters>
            <DistanceMeters>43137.464769089</DistanceMeters>
          </Trackpoint>
          <Trackpoint>
            <Time>2018-08-26T07:22:29.000Z</Time>
            <Position>
              <LatitudeDegrees>42.99580355174839496612548828125</LatitudeDegrees>
              <LongitudeDegrees>-1.806543879210948944091796875</LongitudeDegrees>
            </Position>
            <AltitudeMeters>529</AltitudeMeters>
            <DistanceMeters>43143.715620293</DistanceMeters>
          </Trackpoint>
          <Trackpoint>
            <Time>2018-08-26T07:22:30.000Z</Time>
            <Position>
              <LatitudeDegrees>42.99583171494305133819580078125</LatitudeDegrees>
              <LongitudeDegrees>-1.8064796738326549530029296875</LongitudeDegrees>
            </Position>
            <AltitudeMeters>529.20001220703125</AltitudeMeters>
            <DistanceMeters>43149.80993768</DistanceMeters>
          </Trackpoint>
          <Trackpoint>
            <Time>2018-08-26T07:22:31.000Z</Time>
            <Position>
              <LatitudeDegrees>42.99586188979446887969970703125</LatitudeDegrees>
              <LongitudeDegrees>-1.80641689337790012359619140625</LongitudeDegrees>
            </Position>
            <AltitudeMeters>529.5999755859375</AltitudeMeters>
            <DistanceMeters>43155.925702279</DistanceMeters>
          </Trackpoint>
          <Trackpoint>
            <Time>2018-08-26T07:22:32.000Z</Time>
            <Position>
              <LatitudeDegrees>42.99588854424655437469482421875</LatitudeDegrees>
              <LongitudeDegrees>-1.80635570548474788665771484375</LongitudeDegrees>
            </Position>
            <AltitudeMeters>529.79998779296875</AltitudeMeters>
            <DistanceMeters>43161.724668107</DistanceMeters>
          </Trackpoint>
          <Trackpoint>
            <Time>2018-08-26T07:22:33.000Z</Time>
            <Position>
              <LatitudeDegrees>42.9959159530699253082275390625</LatitudeDegrees>
              <LongitudeDegrees>-1.80629468522965908050537109375</LongitudeDegrees>
            </Position>
            <AltitudeMeters>530.20001220703125</AltitudeMeters>
            <DistanceMeters>43167.554694499</DistanceMeters>
          </Trackpoint>
          <Trackpoint>
            <Time>2018-08-26T07:22:34.000Z</Time>
            <Position>
              <LatitudeDegrees>42.99594470299780368804931640625</LatitudeDegrees>
              <LongitudeDegrees>-1.806228049099445343017578125</LongitudeDegrees>
            </Position>
            <AltitudeMeters>530.4000244140625</AltitudeMeters>
            <DistanceMeters>43173.852320698</DistanceMeters>
          </Trackpoint>
          <Trackpoint>
            <Time>2018-08-26T07:22:35.000Z</Time>
            <Position>
              <LatitudeDegrees>42.9959773086011409759521484375</LatitudeDegrees>
              <LongitudeDegrees>-1.80616191588342189788818359375</LongitudeDegrees>
            </Position>
            <AltitudeMeters>531</AltitudeMeters>
            <DistanceMeters>43180.344808422</DistanceMeters>
          </Trackpoint>
          <Trackpoint>
            <Time>2018-08-26T07:22:36.000Z</Time>
            <Position>
              <LatitudeDegrees>42.9960155300796031951904296875</LatitudeDegrees>
              <LongitudeDegrees>-1.80610206909477710723876953125</LongitudeDegrees>
            </Position>
            <AltitudeMeters>531.20001220703125</AltitudeMeters>
            <DistanceMeters>43186.81221239</DistanceMeters>
          </Trackpoint>
          <Trackpoint>
            <Time>2018-08-26T07:22:37.000Z</Time>
            <Position>
              <LatitudeDegrees>42.99604712985455989837646484375</LatitudeDegrees>
              <LongitudeDegrees>-1.806029565632343292236328125</LongitudeDegrees>
            </Position>
            <AltitudeMeters>531.4000244140625</AltitudeMeters>
            <DistanceMeters>43193.683110414</DistanceMeters>
          </Trackpoint>
          <Trackpoint>
            <Time>2018-08-26T07:22:38.000Z</Time>
            <Position>
              <LatitudeDegrees>42.9960812442004680633544921875</LatitudeDegrees>
              <LongitudeDegrees>-1.8059583194553852081298828125</LongitudeDegrees>
            </Position>
            <AltitudeMeters>531.5999755859375</AltitudeMeters>
            <DistanceMeters>43200.614851664</DistanceMeters>
          </Trackpoint>
          <Trackpoint>
            <Time>2018-08-26T07:22:39.000Z</Time>
            <Position>
              <LatitudeDegrees>42.996123991906642913818359375</LatitudeDegrees>
              <LongitudeDegrees>-1.8058976344764232635498046875</LongitudeDegrees>
            </Position>
            <AltitudeMeters>532</AltitudeMeters>
            <DistanceMeters>43207.474569468</DistanceMeters>
          </Trackpoint>
          <Trackpoint>
            <Time>2018-08-26T07:22:40.000Z</Time>
            <Position>
              <LatitudeDegrees>42.99615793861448764801025390625</LatitudeDegrees>
              <LongitudeDegrees>-1.80582647211849689483642578125</LongitudeDegrees>
            </Position>
            <AltitudeMeters>532.4000244140625</AltitudeMeters>
            <DistanceMeters>43214.390660482</DistanceMeters>
          </Trackpoint>
          <Trackpoint>
            <Time>2018-08-26T07:22:41.000Z</Time>
            <Position>
              <LatitudeDegrees>42.996191717684268951416015625</LatitudeDegrees>
              <LongitudeDegrees>-1.80575857870280742645263671875</LongitudeDegrees>
            </Position>
            <AltitudeMeters>532.5999755859375</AltitudeMeters>
            <DistanceMeters>43221.075031675</DistanceMeters>
          </Trackpoint>
          <Trackpoint>
            <Time>2018-08-26T07:22:42.000Z</Time>
            <Position>
              <LatitudeDegrees>42.99622314982116222381591796875</LatitudeDegrees>
              <LongitudeDegrees>-1.8056884221732616424560546875</LongitudeDegrees>
            </Position>
            <AltitudeMeters>532.79998779296875</AltitudeMeters>
            <DistanceMeters>43227.772898483</DistanceMeters>
          </Trackpoint>
          <Trackpoint>
            <Time>2018-08-26T07:22:43.000Z</Time>
            <Position>
              <LatitudeDegrees>42.996253408491611480712890625</LatitudeDegrees>
              <LongitudeDegrees>-1.8056156672537326812744140625</LongitudeDegrees>
            </Position>
            <AltitudeMeters>532.79998779296875</AltitudeMeters>
            <DistanceMeters>43234.586386797</DistanceMeters>
          </Trackpoint>
          <Trackpoint>
            <Time>2018-08-26T07:22:44.000Z</Time>
            <Position>
              <LatitudeDegrees>42.99628115259110927581787109375</LatitudeDegrees>
              <LongitudeDegrees>-1.80554307997226715087890625</LongitudeDegrees>
            </Position>
            <AltitudeMeters>533</AltitudeMeters>
            <DistanceMeters>43241.253850057</DistanceMeters>
          </Trackpoint>
          <Trackpoint>
            <Time>2018-08-26T07:22:45.000Z</Time>
            <Position>
              <LatitudeDegrees>42.99630872905254364013671875</LatitudeDegrees>
              <LongitudeDegrees>-1.805471666157245635986328125</LongitudeDegrees>
            </Position>
            <AltitudeMeters>533</AltitudeMeters>
            <DistanceMeters>43247.827198959</DistanceMeters>
          </Trackpoint>
          <Trackpoint>
            <Time>2018-08-26T07:22:46.000Z</Time>
            <Position>
              <LatitudeDegrees>42.99633814953267574310302734375</LatitudeDegrees>
              <LongitudeDegrees>-1.80539832450449466705322265625</LongitudeDegrees>
            </Position>
            <AltitudeMeters>533.20001220703125</AltitudeMeters>
            <DistanceMeters>43254.63604706</DistanceMeters>
          </Trackpoint>
          <Trackpoint>
            <Time>2018-08-26T07:22:47.000Z</Time>
            <Position>
              <LatitudeDegrees>42.9963689111173152923583984375</LatitudeDegrees>
              <LongitudeDegrees>-1.8053236417472362518310546875</LongitudeDegrees>
            </Position>
            <AltitudeMeters>533.4000244140625</AltitudeMeters>
            <DistanceMeters>43261.613234324</DistanceMeters>
          </Trackpoint>
          <Trackpoint>
            <Time>2018-08-26T07:22:48.000Z</Time>
            <Position>
              <LatitudeDegrees>42.9964005947113037109375</LatitudeDegrees>
              <LongitudeDegrees>-1.80524929426610469818115234375</LongitudeDegrees>
            </Position>
            <AltitudeMeters>533.5999755859375</AltitudeMeters>
            <DistanceMeters>43268.616903022</DistanceMeters>
          </Trackpoint>
          <Trackpoint>
            <Time>2018-08-26T07:22:49.000Z</Time>
            <Position>
              <LatitudeDegrees>42.99643076956272125244140625</LatitudeDegrees>
              <LongitudeDegrees>-1.805173270404338836669921875</LongitudeDegrees>
            </Position>
            <AltitudeMeters>533.79998779296875</AltitudeMeters>
            <DistanceMeters>43275.658504385</DistanceMeters>
          </Trackpoint>
          <Trackpoint>
            <Time>2018-08-26T07:22:50.000Z</Time>
            <Position>
              <LatitudeDegrees>42.99645817838609218597412109375</LatitudeDegrees>
              <LongitudeDegrees>-1.80509959347546100616455078125</LongitudeDegrees>
            </Position>
            <AltitudeMeters>534.20001220703125</AltitudeMeters>
            <DistanceMeters>43282.387308387</DistanceMeters>
          </Trackpoint>
          <Trackpoint>
            <Time>2018-08-26T07:22:51.000Z</Time>
            <Position>
              <LatitudeDegrees>42.99648282118141651153564453125</LatitudeDegrees>
              <LongitudeDegrees>-1.805025748908519744873046875</LongitudeDegrees>
            </Position>
            <AltitudeMeters>534.4000244140625</AltitudeMeters>
            <DistanceMeters>43288.995594828</DistanceMeters>
          </Trackpoint>
          <Trackpoint>
            <Time>2018-08-26T07:22:52.000Z</Time>
            <Position>
              <LatitudeDegrees>42.9965093918144702911376953125</LatitudeDegrees>
              <LongitudeDegrees>-1.80494888685643672943115234375</LongitudeDegrees>
            </Position>
            <AltitudeMeters>534.5999755859375</AltitudeMeters>
            <DistanceMeters>43295.916906519</DistanceMeters>
          </Trackpoint>
          <Trackpoint>
            <Time>2018-08-26T07:22:53.000Z</Time>
            <Position>
              <LatitudeDegrees>42.99654208123683929443359375</LatitudeDegrees>
              <LongitudeDegrees>-1.80487127043306827545166015625</LongitudeDegrees>
            </Position>
            <AltitudeMeters>534.79998779296875</AltitudeMeters>
            <DistanceMeters>43303.207381809</DistanceMeters>
          </Trackpoint>
          <Trackpoint>
            <Time>2018-08-26T07:22:54.000Z</Time>
            <Position>
              <LatitudeDegrees>42.99657250754535198211669921875</LatitudeDegrees>
              <LongitudeDegrees>-1.80479566566646099090576171875</LongitudeDegrees>
            </Position>
            <AltitudeMeters>535</AltitudeMeters>
            <DistanceMeters>43310.232292326</DistanceMeters>
          </Trackpoint>
          <Trackpoint>
            <Time>2018-08-26T07:22:55.000Z</Time>
            <Position>
              <LatitudeDegrees>42.9966012574732303619384765625</LatitudeDegrees>
              <LongitudeDegrees>-1.80472156964242458343505859375</LongitudeDegrees>
            </Position>
            <AltitudeMeters>535.20001220703125</AltitudeMeters>
            <DistanceMeters>43317.059682354</DistanceMeters>
          </Trackpoint>
          <Trackpoint>
            <Time>2018-08-26T07:22:56.000Z</Time>
            <Position>
              <LatitudeDegrees>42.99663101322948932647705078125</LatitudeDegrees>
              <LongitudeDegrees>-1.80464780889451503753662109375</LongitudeDegrees>
            </Position>
            <AltitudeMeters>535.4000244140625</AltitudeMeters>
            <DistanceMeters>43323.917425286</DistanceMeters>
          </Trackpoint>
          <Trackpoint>
            <Time>2018-08-26T07:22:57.000Z</Time>
            <Position>
              <LatitudeDegrees>42.99666001461446285247802734375</LatitudeDegrees>
              <LongitudeDegrees>-1.80457346141338348388671875</LongitudeDegrees>
            </Position>
            <AltitudeMeters>535.4000244140625</AltitudeMeters>
            <DistanceMeters>43330.776484863</DistanceMeters>
          </Trackpoint>
          <Trackpoint>
            <Time>2018-08-26T07:22:58.000Z</Time>
            <Position>
              <LatitudeDegrees>42.996688596904277801513671875</LatitudeDegrees>
              <LongitudeDegrees>-1.80449944920837879180908203125</LongitudeDegrees>
            </Position>
            <AltitudeMeters>535.5999755859375</AltitudeMeters>
            <DistanceMeters>43337.589310482</DistanceMeters>
          </Trackpoint>
          <Trackpoint>
            <Time>2018-08-26T07:22:59.000Z</Time>
            <Position>
              <LatitudeDegrees>42.99671885557472705841064453125</LatitudeDegrees>
              <LongitudeDegrees>-1.804426610469818115234375</LongitudeDegrees>
            </Position>
            <AltitudeMeters>535.79998779296875</AltitudeMeters>
            <DistanceMeters>43344.408098029</DistanceMeters>
          </Trackpoint>
          <Trackpoint>
            <Time>2018-08-26T07:23:00.000Z</Time>
            <Position>
              <LatitudeDegrees>42.99675137735903263092041015625</LatitudeDegrees>
              <LongitudeDegrees>-1.80435611866414546966552734375</LongitudeDegrees>
            </Position>
            <AltitudeMeters>535.79998779296875</AltitudeMeters>
            <DistanceMeters>43351.19236657</DistanceMeters>
          </Trackpoint>
          <Trackpoint>
            <Time>2018-08-26T07:23:01.000Z</Time>
            <Position>
              <LatitudeDegrees>42.99678641371428966522216796875</LatitudeDegrees>
              <LongitudeDegrees>-1.8042859621345996856689453125</LongitudeDegrees>
            </Position>
            <AltitudeMeters>536</AltitudeMeters>
            <DistanceMeters>43358.107151799</DistanceMeters>
          </Trackpoint>
          <Trackpoint>
            <Time>2018-08-26T07:23:02.000Z</Time>
            <Position>
              <LatitudeDegrees>42.9968242160975933074951171875</LatitudeDegrees>
              <LongitudeDegrees>-1.80421647615730762481689453125</LongitudeDegrees>
            </Position>
            <AltitudeMeters>536.20001220703125</AltitudeMeters>
            <DistanceMeters>43365.157083767</DistanceMeters>
          </Trackpoint>
          <Trackpoint>
            <Time>2018-08-26T07:23:03.000Z</Time>
            <Position>
              <LatitudeDegrees>42.99686570651829242706298828125</LatitudeDegrees>
              <LongitudeDegrees>-1.8041518516838550567626953125</LongitudeDegrees>
            </Position>
            <AltitudeMeters>536.4000244140625</AltitudeMeters>
            <DistanceMeters>43372.157528386</DistanceMeters>
          </Trackpoint>
          <Trackpoint>
            <Time>2018-08-26T07:23:04.000Z</Time>
            <Position>
              <LatitudeDegrees>42.99691046588122844696044921875</LatitudeDegrees>
              <LongitudeDegrees>-1.80409393273293972015380859375</LongitudeDegrees>
            </Position>
            <AltitudeMeters>536.79998779296875</AltitudeMeters>
            <DistanceMeters>43379.016587962</DistanceMeters>
          </Trackpoint>
          <Trackpoint>
            <Time>2018-08-26T07:23:05.000Z</Time>
            <Position>
              <LatitudeDegrees>42.99696126021444797515869140625</LatitudeDegrees>
              <LongitudeDegrees>-1.8040412105619907379150390625</LongitudeDegrees>
            </Position>
            <AltitudeMeters>537</AltitudeMeters>
            <DistanceMeters>43386.11502628</DistanceMeters>
          </Trackpoint>
          <Trackpoint>
            <Time>2018-08-26T07:23:06.000Z</Time>
            <Position>
              <LatitudeDegrees>42.9970159940421581268310546875</LatitudeDegrees>
              <LongitudeDegrees>-1.80399267934262752532958984375</LongitudeDegrees>
            </Position>
            <AltitudeMeters>537.20001220703125</AltitudeMeters>
            <DistanceMeters>43393.375714008</DistanceMeters>
          </Trackpoint>
          <Trackpoint>
            <Time>2018-08-26T07:23:07.000Z</Time>
            <Position>
              <LatitudeDegrees>42.9970719851553440093994140625</LatitudeDegrees>
              <LongitudeDegrees>-1.80394657887518405914306640625</LongitudeDegrees>
            </Position>
            <AltitudeMeters>537.20001220703125</AltitudeMeters>
            <DistanceMeters>43400.65006951</DistanceMeters>
          </Trackpoint>
          <Trackpoint>
            <Time>2018-08-26T07:23:08.000Z</Time>
            <Position>
              <LatitudeDegrees>42.99712923355400562286376953125</LatitudeDegrees>
              <LongitudeDegrees>-1.8039050884544849395751953125</LongitudeDegrees>
            </Position>
            <AltitudeMeters>537.4000244140625</AltitudeMeters>
            <DistanceMeters>43407.862090053</DistanceMeters>
          </Trackpoint>
          <Trackpoint>
            <Time>2018-08-26T07:23:09.000Z</Time>
            <Position>
              <LatitudeDegrees>42.99718740396201610565185546875</LatitudeDegrees>
              <LongitudeDegrees>-1.80386577732861042022705078125</LongitudeDegrees>
            </Position>
            <AltitudeMeters>537.5999755859375</AltitudeMeters>
            <DistanceMeters>43415.084120345</DistanceMeters>
          </Trackpoint>
          <Trackpoint>
            <Time>2018-08-26T07:23:10.000Z</Time>
            <Position>
              <LatitudeDegrees>42.997245490550994873046875</LatitudeDegrees>
              <LongitudeDegrees>-1.803824119269847869873046875</LongitudeDegrees>
            </Position>
            <AltitudeMeters>537.5999755859375</AltitudeMeters>
            <DistanceMeters>43422.385116253</DistanceMeters>
          </Trackpoint>
          <Trackpoint>
            <Time>2018-08-26T07:23:11.000Z</Time>
            <Position>
              <LatitudeDegrees>42.99730408005416393280029296875</LatitudeDegrees>
              <LongitudeDegrees>-1.80378212593495845794677734375</LongitudeDegrees>
            </Position>
            <AltitudeMeters>537.79998779296875</AltitudeMeters>
            <DistanceMeters>43429.747693852</DistanceMeters>
          </Trackpoint>
          <Trackpoint>
            <Time>2018-08-26T07:23:12.000Z</Time>
            <Position>
              <LatitudeDegrees>42.997363507747650146484375</LatitudeDegrees>
              <LongitudeDegrees>-1.80374239571392536163330078125</LongitudeDegrees>
            </Position>
            <AltitudeMeters>538</AltitudeMeters>
            <DistanceMeters>43437.11027145</DistanceMeters>
          </Trackpoint>
          <Trackpoint>
            <Time>2018-08-26T07:23:13.000Z</Time>
            <Position>
              <LatitudeDegrees>42.99742176197469234466552734375</LatitudeDegrees>
              <LongitudeDegrees>-1.80370383895933628082275390625</LongitudeDegrees>
            </Position>
            <AltitudeMeters>538</AltitudeMeters>
            <DistanceMeters>43444.313522053</DistanceMeters>
          </Trackpoint>
          <Trackpoint>
            <Time>2018-08-26T07:23:14.000Z</Time>
            <Position>
              <LatitudeDegrees>42.99747892655432224273681640625</LatitudeDegrees>
              <LongitudeDegrees>-1.8036662042140960693359375</LongitudeDegrees>
            </Position>
            <AltitudeMeters>538</AltitudeMeters>
            <DistanceMeters>43451.374333058</DistanceMeters>
          </Trackpoint>
          <Trackpoint>
            <Time>2018-08-26T07:23:15.000Z</Time>
            <Position>
              <LatitudeDegrees>42.9975366778671741485595703125</LatitudeDegrees>
              <LongitudeDegrees>-1.803626306354999542236328125</LongitudeDegrees>
            </Position>
            <AltitudeMeters>538.20001220703125</AltitudeMeters>
            <DistanceMeters>43458.575702998</DistanceMeters>
          </Trackpoint>
          <Trackpoint>
            <Time>2018-08-26T07:23:16.000Z</Time>
            <Position>
              <LatitudeDegrees>42.99759459681808948516845703125</LatitudeDegrees>
              <LongitudeDegrees>-1.803584396839141845703125</LongitudeDegrees>
            </Position>
            <AltitudeMeters>538.4000244140625</AltitudeMeters>
            <DistanceMeters>43465.869274163</DistanceMeters>
          </Trackpoint>
          <Trackpoint>
            <Time>2018-08-26T07:23:17.000Z</Time>
            <Position>
              <LatitudeDegrees>42.99765243194997310638427734375</LatitudeDegrees>
              <LongitudeDegrees>-1.80354340933263301849365234375</LongitudeDegrees>
            </Position>
            <AltitudeMeters>538.4000244140625</AltitudeMeters>
            <DistanceMeters>43473.119382781</DistanceMeters>
          </Trackpoint>
          <Trackpoint>
            <Time>2018-08-26T07:23:18.000Z</Time>
            <Position>
              <LatitudeDegrees>42.9977126978337764739990234375</LatitudeDegrees>
              <LongitudeDegrees>-1.80350317619740962982177734375</LongitudeDegrees>
            </Position>
            <AltitudeMeters>538.5999755859375</AltitudeMeters>
            <DistanceMeters>43480.584274055</DistanceMeters>
          </Trackpoint>
          <Trackpoint>
            <Time>2018-08-26T07:23:19.000Z</Time>
            <Position>
              <LatitudeDegrees>42.9977738857269287109375</LatitudeDegrees>
              <LongitudeDegrees>-1.8034608475863933563232421875</LongitudeDegrees>
            </Position>
            <AltitudeMeters>538.5999755859375</AltitudeMeters>
            <DistanceMeters>43488.216049279</DistanceMeters>
          </Trackpoint>
          <Trackpoint>
            <Time>2018-08-26T07:23:20.000Z</Time>
            <Position>
              <LatitudeDegrees>42.9978354088962078094482421875</LatitudeDegrees>
              <LongitudeDegrees>-1.80341935716569423675537109375</LongitudeDegrees>
            </Position>
            <AltitudeMeters>538.5999755859375</AltitudeMeters>
            <DistanceMeters>43495.850781982</DistanceMeters>
          </Trackpoint>
          <Trackpoint>
            <Time>2018-08-26T07:23:21.000Z</Time>
            <Position>
              <LatitudeDegrees>42.99789869226515293121337890625</LatitudeDegrees>
              <LongitudeDegrees>-1.8033765256404876708984375</LongitudeDegrees>
            </Position>
            <AltitudeMeters>538.5999755859375</AltitudeMeters>
            <DistanceMeters>43503.709899164</DistanceMeters>
          </Trackpoint>
          <Trackpoint>
            <Time>2018-08-26T07:23:22.000Z</Time>
            <Position>
              <LatitudeDegrees>42.99796239472925662994384765625</LatitudeDegrees>
              <LongitudeDegrees>-1.80333252064883708953857421875</LongitudeDegrees>
            </Position>
            <AltitudeMeters>538.79998779296875</AltitudeMeters>
            <DistanceMeters>43511.653586858</DistanceMeters>
          </Trackpoint>
          <Trackpoint>
            <Time>2018-08-26T07:23:23.000Z</Time>
            <Position>
              <LatitudeDegrees>42.99802743829786777496337890625</LatitudeDegrees>
              <LongitudeDegrees>-1.8032878451049327850341796875</LongitudeDegrees>
            </Position>
            <AltitudeMeters>538.79998779296875</AltitudeMeters>
            <DistanceMeters>43519.754858091</DistanceMeters>
          </Trackpoint>
          <Trackpoint>
            <Time>2018-08-26T07:23:24.000Z</Time>
            <Position>
              <LatitudeDegrees>42.99809332005679607391357421875</LatitudeDegrees>
              <LongitudeDegrees>-1.8032415769994258880615234375</LongitudeDegrees>
            </Position>
            <AltitudeMeters>538.79998779296875</AltitudeMeters>
            <DistanceMeters>43527.99866518</DistanceMeters>
          </Trackpoint>
          <Trackpoint>
            <Time>2018-08-26T07:23:25.000Z</Time>
            <Position>
              <LatitudeDegrees>42.9981606267392635345458984375</LatitudeDegrees>
              <LongitudeDegrees>-1.8031963147222995758056640625</LongitudeDegrees>
            </Position>
            <AltitudeMeters>539</AltitudeMeters>
            <DistanceMeters>43536.34750702</DistanceMeters>
          </Trackpoint>
          <Trackpoint>
            <Time>2018-08-26T07:23:26.000Z</Time>
            <Position>
              <LatitudeDegrees>42.99822650849819183349609375</LatitudeDegrees>
              <LongitudeDegrees>-1.8031503818929195404052734375</LongitudeDegrees>
            </Position>
            <AltitudeMeters>539</AltitudeMeters>
            <DistanceMeters>43544.578159089</DistanceMeters>
          </Trackpoint>
          <Trackpoint>
            <Time>2018-08-26T07:23:27.000Z</Time>
            <Position>
              <LatitudeDegrees>42.99829465337097644805908203125</LatitudeDegrees>
              <LongitudeDegrees>-1.80310428142547607421875</LongitudeDegrees>
            </Position>
            <AltitudeMeters>539</AltitudeMeters>
            <DistanceMeters>43553.040340026</DistanceMeters>
          </Trackpoint>
          <Trackpoint>
            <Time>2018-08-26T07:23:28.000Z</Time>
            <Position>
              <LatitudeDegrees>42.99836355261504650115966796875</LatitudeDegrees>
              <LongitudeDegrees>-1.80305642075836658477783203125</LongitudeDegrees>
            </Position>
            <AltitudeMeters>539.20001220703125</AltitudeMeters>
            <DistanceMeters>43561.641701331</DistanceMeters>
          </Trackpoint>
          <Trackpoint>
            <Time>2018-08-26T07:23:29.000Z</Time>
            <Position>
              <LatitudeDegrees>42.99843362532556056976318359375</LatitudeDegrees>
              <LongitudeDegrees>-1.80300730280578136444091796875</LongitudeDegrees>
            </Position>
            <AltitudeMeters>539.20001220703125</AltitudeMeters>
            <DistanceMeters>43570.406853377</DistanceMeters>
          </Trackpoint>
          <Trackpoint>
            <Time>2018-08-26T07:23:30.000Z</Time>
            <Position>
              <LatitudeDegrees>42.99850520677864551544189453125</LatitudeDegrees>
              <LongitudeDegrees>-1.802959106862545013427734375</LongitudeDegrees>
            </Position>
            <AltitudeMeters>539.20001220703125</AltitudeMeters>
            <DistanceMeters>43579.287657826</DistanceMeters>
          </Trackpoint>
          <Trackpoint>
            <Time>2018-08-26T07:23:31.000Z</Time>
            <Position>
              <LatitudeDegrees>42.99857762642204761505126953125</LatitudeDegrees>
              <LongitudeDegrees>-1.802911497652530670166015625</LongitudeDegrees>
            </Position>
            <AltitudeMeters>539.20001220703125</AltitudeMeters>
            <DistanceMeters>43588.23178703</DistanceMeters>
          </Trackpoint>
          <Trackpoint>
            <Time>2018-08-26T07:23:32.000Z</Time>
            <Position>
              <LatitudeDegrees>42.99865071661770343780517578125</LatitudeDegrees>
              <LongitudeDegrees>-1.8028628826141357421875</LongitudeDegrees>
            </Position>
            <AltitudeMeters>539.20001220703125</AltitudeMeters>
            <DistanceMeters>43597.27781117</DistanceMeters>
          </Trackpoint>
          <Trackpoint>
            <Time>2018-08-26T07:23:33.000Z</Time>
            <Position>
              <LatitudeDegrees>42.99872338771820068359375</LatitudeDegrees>
              <LongitudeDegrees>-1.80281334556639194488525390625</LongitudeDegrees>
            </Position>
            <AltitudeMeters>539.20001220703125</AltitudeMeters>
            <DistanceMeters>43606.315346311</DistanceMeters>
          </Trackpoint>
          <Trackpoint>
            <Time>2018-08-26T07:23:34.000Z</Time>
            <Position>
              <LatitudeDegrees>42.99879689700901508331298828125</LatitudeDegrees>
              <LongitudeDegrees>-1.8027624674141407012939453125</LongitudeDegrees>
            </Position>
            <AltitudeMeters>539.20001220703125</AltitudeMeters>
            <DistanceMeters>43615.485301155</DistanceMeters>
          </Trackpoint>
          <Trackpoint>
            <Time>2018-08-26T07:23:35.000Z</Time>
            <Position>
              <LatitudeDegrees>42.9988694004714488983154296875</LatitudeDegrees>
              <LongitudeDegrees>-1.80271175689995288848876953125</LongitudeDegrees>
            </Position>
            <AltitudeMeters>539.20001220703125</AltitudeMeters>
            <DistanceMeters>43624.549275752</DistanceMeters>
          </Trackpoint>
          <Trackpoint>
            <Time>2018-08-26T07:23:36.000Z</Time>
            <Position>
              <LatitudeDegrees>42.99894190393388271331787109375</LatitudeDegrees>
              <LongitudeDegrees>-1.80266146548092365264892578125</LongitudeDegrees>
            </Position>
            <AltitudeMeters>539.20001220703125</AltitudeMeters>
            <DistanceMeters>43633.598294107</DistanceMeters>
          </Trackpoint>
          <Trackpoint>
            <Time>2018-08-26T07:23:37.000Z</Time>
            <Position>
              <LatitudeDegrees>42.99901516176760196685791015625</LatitudeDegrees>
              <LongitudeDegrees>-1.8026120960712432861328125</LongitudeDegrees>
            </Position>
            <AltitudeMeters>539.20001220703125</AltitudeMeters>
            <DistanceMeters>43642.689127931</DistanceMeters>
          </Trackpoint>
          <Trackpoint>
            <Time>2018-08-26T07:23:38.000Z</Time>
            <Position>
              <LatitudeDegrees>42.9990883357822895050048828125</LatitudeDegrees>
              <LongitudeDegrees>-1.80256272666156291961669921875</LongitudeDegrees>
            </Position>
            <AltitudeMeters>539.20001220703125</AltitudeMeters>
            <DistanceMeters>43651.771514639</DistanceMeters>
          </Trackpoint>
          <Trackpoint>
            <Time>2018-08-26T07:23:39.000Z</Time>
            <Position>
              <LatitudeDegrees>42.99916318617761135101318359375</LatitudeDegrees>
              <LongitudeDegrees>-1.80251277051866054534912109375</LongitudeDegrees>
            </Position>
            <AltitudeMeters>539</AltitudeMeters>
            <DistanceMeters>43661.042343491</DistanceMeters>
          </Trackpoint>
          <Trackpoint>
            <Time>2018-08-26T07:23:40.000Z</Time>
            <Position>
              <LatitudeDegrees>42.99923996441066265106201171875</LatitudeDegrees>
              <LongitudeDegrees>-1.80246214382350444793701171875</LongitudeDegrees>
            </Position>
            <AltitudeMeters>539</AltitudeMeters>
            <DistanceMeters>43670.530274354</DistanceMeters>
          </Trackpoint>
          <Trackpoint>
            <Time>2018-08-26T07:23:41.000Z</Time>
            <Position>
              <LatitudeDegrees>42.99931657500565052032470703125</LatitudeDegrees>
              <LongitudeDegrees>-1.802409254014492034912109375</LongitudeDegrees>
            </Position>
            <AltitudeMeters>539</AltitudeMeters>
            <DistanceMeters>43680.08223187</DistanceMeters>
          </Trackpoint>
          <Trackpoint>
            <Time>2018-08-26T07:23:42.000Z</Time>
            <Position>
              <LatitudeDegrees>42.99939326941967010498046875</LatitudeDegrees>
              <LongitudeDegrees>-1.80235569365322589874267578125</LongitudeDegrees>
            </Position>
            <AltitudeMeters>538.79998779296875</AltitudeMeters>
            <DistanceMeters>43689.667220015</DistanceMeters>
          </Trackpoint>
          <Trackpoint>
            <Time>2018-08-26T07:23:43.000Z</Time>
            <Position>
              <LatitudeDegrees>42.9994698800146579742431640625</LatitudeDegrees>
              <LongitudeDegrees>-1.80230305530130863189697265625</LongitudeDegrees>
            </Position>
            <AltitudeMeters>538.79998779296875</AltitudeMeters>
            <DistanceMeters>43699.209719209</DistanceMeters>
          </Trackpoint>
          <Trackpoint>
            <Time>2018-08-26T07:23:44.000Z</Time>
            <Position>
              <LatitudeDegrees>42.99954615533351898193359375</LatitudeDegrees>
              <LongitudeDegrees>-1.80225058458745479583740234375</LongitudeDegrees>
            </Position>
            <AltitudeMeters>538.5999755859375</AltitudeMeters>
            <DistanceMeters>43708.713340866</DistanceMeters>
          </Trackpoint>
          <Trackpoint>
            <Time>2018-08-26T07:23:45.000Z</Time>
            <Position>
              <LatitudeDegrees>42.99962259829044342041015625</LatitudeDegrees>
              <LongitudeDegrees>-1.80219878442585468292236328125</LongitudeDegrees>
            </Position>
            <AltitudeMeters>538.5999755859375</AltitudeMeters>
            <DistanceMeters>43718.208882625</DistanceMeters>
          </Trackpoint>
          <Trackpoint>
            <Time>2018-08-26T07:23:46.000Z</Time>
            <Position>
              <LatitudeDegrees>42.99969962798058986663818359375</LatitudeDegrees>
              <LongitudeDegrees>-1.8021462298929691314697265625</LongitudeDegrees>
            </Position>
            <AltitudeMeters>538.4000244140625</AltitudeMeters>
            <DistanceMeters>43727.791044034</DistanceMeters>
          </Trackpoint>
          <Trackpoint>
            <Time>2018-08-26T07:23:47.000Z</Time>
            <Position>
              <LatitudeDegrees>42.9997753165662288665771484375</LatitudeDegrees>
              <LongitudeDegrees>-1.802092753350734710693359375</LongitudeDegrees>
            </Position>
            <AltitudeMeters>538.20001220703125</AltitudeMeters>
            <DistanceMeters>43737.273262717</DistanceMeters>
          </Trackpoint>
          <Trackpoint>
            <Time>2018-08-26T07:23:48.000Z</Time>
            <Position>
              <LatitudeDegrees>42.999849580228328704833984375</LatitudeDegrees>
              <LongitudeDegrees>-1.8020407855510711669921875</LongitudeDegrees>
            </Position>
            <AltitudeMeters>538</AltitudeMeters>
            <DistanceMeters>43746.558204279</DistanceMeters>
          </Trackpoint>
          <Trackpoint>
            <Time>2018-08-26T07:23:49.000Z</Time>
            <Position>
              <LatitudeDegrees>42.99992342479526996612548828125</LatitudeDegrees>
              <LongitudeDegrees>-1.801989488303661346435546875</LongitudeDegrees>
            </Position>
            <AltitudeMeters>537.79998779296875</AltitudeMeters>
            <DistanceMeters>43755.777264941</DistanceMeters>
          </Trackpoint>
          <Trackpoint>
            <Time>2018-08-26T07:23:50.000Z</Time>
            <Position>
              <LatitudeDegrees>42.99999735318124294281005859375</LatitudeDegrees>
              <LongitudeDegrees>-1.80193684995174407958984375</LongitudeDegrees>
            </Position>
            <AltitudeMeters>537.79998779296875</AltitudeMeters>
            <DistanceMeters>43765.054422835</DistanceMeters>
          </Trackpoint>
          <Trackpoint>
            <Time>2018-08-26T07:23:51.000Z</Time>
            <Position>
              <LatitudeDegrees>43.00007178448140621185302734375</LatitudeDegrees>
              <LongitudeDegrees>-1.8018793500959873199462890625</LongitudeDegrees>
            </Position>
            <AltitudeMeters>537.5999755859375</AltitudeMeters>
            <DistanceMeters>43774.569439726</DistanceMeters>
          </Trackpoint>
          <Trackpoint>
            <Time>2018-08-26T07:23:52.000Z</Time>
            <Position>
              <LatitudeDegrees>43.0001462996006011962890625</LatitudeDegrees>
              <LongitudeDegrees>-1.8018156476318836212158203125</LongitudeDegrees>
            </Position>
            <AltitudeMeters>537.5999755859375</AltitudeMeters>
            <DistanceMeters>43784.351192636</DistanceMeters>
          </Trackpoint>
          <Trackpoint>
            <Time>2018-08-26T07:23:53.000Z</Time>
            <Position>
              <LatitudeDegrees>43.000216372311115264892578125</LatitudeDegrees>
              <LongitudeDegrees>-1.80174146778881549835205078125</LongitudeDegrees>
            </Position>
            <AltitudeMeters>537.4000244140625</AltitudeMeters>
            <DistanceMeters>43794.215221919</DistanceMeters>
          </Trackpoint>
          <Trackpoint>
            <Time>2018-08-26T07:23:54.000Z</Time>
            <Position>
              <LatitudeDegrees>43.00027906894683837890625</LatitudeDegrees>
              <LongitudeDegrees>-1.80165848694741725921630859375</LongitudeDegrees>
            </Position>
            <AltitudeMeters>537.4000244140625</AltitudeMeters>
            <DistanceMeters>43803.926561599</DistanceMeters>
          </Trackpoint>
          <Trackpoint>
            <Time>2018-08-26T07:23:55.000Z</Time>
            <Position>
              <LatitudeDegrees>43.00033665262162685394287109375</LatitudeDegrees>
              <LongitudeDegrees>-1.80156846530735492706298828125</LongitudeDegrees>
            </Position>
            <AltitudeMeters>537.4000244140625</AltitudeMeters>
            <DistanceMeters>43813.662047326</DistanceMeters>
          </Trackpoint>
          <Trackpoint>
            <Time>2018-08-26T07:23:56.000Z</Time>
            <Position>
              <LatitudeDegrees>43.00038862042129039764404296875</LatitudeDegrees>
              <LongitudeDegrees>-1.801475174725055694580078125</LongitudeDegrees>
            </Position>
            <AltitudeMeters>537.20001220703125</AltitudeMeters>
            <DistanceMeters>43823.207385001</DistanceMeters>
          </Trackpoint>
          <Trackpoint>
            <Time>2018-08-26T07:23:57.000Z</Time>
            <Position>
              <LatitudeDegrees>43.00043438561260700225830078125</LatitudeDegrees>
              <LongitudeDegrees>-1.801377274096012115478515625</LongitudeDegrees>
            </Position>
            <AltitudeMeters>537.20001220703125</AltitudeMeters>
            <DistanceMeters>43832.665288429</DistanceMeters>
          </Trackpoint>
          <Trackpoint>
            <Time>2018-08-26T07:23:58.000Z</Time>
            <Position>
              <LatitudeDegrees>43.0004753731191158294677734375</LatitudeDegrees>
              <LongitudeDegrees>-1.80127794854342937469482421875</LongitudeDegrees>
            </Position>
            <AltitudeMeters>537.20001220703125</AltitudeMeters>
            <DistanceMeters>43841.948284686</DistanceMeters>
          </Trackpoint>
          <Trackpoint>
            <Time>2018-08-26T07:23:59.000Z</Time>
            <Position>
              <LatitudeDegrees>43.00051284022629261016845703125</LatitudeDegrees>
              <LongitudeDegrees>-1.80117786861956119537353515625</LongitudeDegrees>
            </Position>
            <AltitudeMeters>537.20001220703125</AltitudeMeters>
            <DistanceMeters>43851.100496937</DistanceMeters>
          </Trackpoint>
          <Trackpoint>
            <Time>2018-08-26T07:24:00.000Z</Time>
            <Position>
              <LatitudeDegrees>43.0005467869341373443603515625</LatitudeDegrees>
              <LongitudeDegrees>-1.8010756932199001312255859375</LongitudeDegrees>
            </Position>
            <AltitudeMeters>537.20001220703125</AltitudeMeters>
            <DistanceMeters>43860.234932133</DistanceMeters>
          </Trackpoint>
          <Trackpoint>
            <Time>2018-08-26T07:24:01.000Z</Time>
            <Position>
              <LatitudeDegrees>43.00057855434715747833251953125</LatitudeDegrees>
              <LongitudeDegrees>-1.800972260534763336181640625</LongitudeDegrees>
            </Position>
            <AltitudeMeters>537.20001220703125</AltitudeMeters>
            <DistanceMeters>43869.366401121</DistanceMeters>
          </Trackpoint>
          <Trackpoint>
            <Time>2018-08-26T07:24:02.000Z</Time>
            <Position>
              <LatitudeDegrees>43.00061208195984363555908203125</LatitudeDegrees>
              <LongitudeDegrees>-1.8008688278496265411376953125</LongitudeDegrees>
            </Position>
            <AltitudeMeters>537.20001220703125</AltitudeMeters>
            <DistanceMeters>43878.575661567</DistanceMeters>
          </Trackpoint>
          <Trackpoint>
            <Time>2018-08-26T07:24:03.000Z</Time>
            <Position>
              <LatitudeDegrees>43.00064628012478351593017578125</LatitudeDegrees>
              <LongitudeDegrees>-1.80076765827834606170654296875</LongitudeDegrees>
            </Position>
            <AltitudeMeters>537.20001220703125</AltitudeMeters>
            <DistanceMeters>43887.648598074</DistanceMeters>
          </Trackpoint>
          <Trackpoint>
            <Time>2018-08-26T07:24:04.000Z</Time>
            <Position>
              <LatitudeDegrees>43.00068081356585025787353515625</LatitudeDegrees>
              <LongitudeDegrees>-1.80066942237317562103271484375</LongitudeDegrees>
            </Position>
            <AltitudeMeters>537.20001220703125</AltitudeMeters>
            <DistanceMeters>43896.521264327</DistanceMeters>
          </Trackpoint>
          <Trackpoint>
            <Time>2018-08-26T07:24:05.000Z</Time>
            <Position>
              <LatitudeDegrees>43.00071417354047298431396484375</LatitudeDegrees>
              <LongitudeDegrees>-1.800572611391544342041015625</LongitudeDegrees>
            </Position>
            <AltitudeMeters>537.20001220703125</AltitudeMeters>
            <DistanceMeters>43905.232161661</DistanceMeters>
          </Trackpoint>
          <Trackpoint>
            <Time>2018-08-26T07:24:06.000Z</Time>
            <Position>
              <LatitudeDegrees>43.00074703060090541839599609375</LatitudeDegrees>
              <LongitudeDegrees>-1.80047580040991306304931640625</LongitudeDegrees>
            </Position>
            <AltitudeMeters>537.20001220703125</AltitudeMeters>
            <DistanceMeters>43913.919703253</DistanceMeters>
          </Trackpoint>
          <Trackpoint>
            <Time>2018-08-26T07:24:07.000Z</Time>
            <Position>
              <LatitudeDegrees>43.00077921710908412933349609375</LatitudeDegrees>
              <LongitudeDegrees>-1.80037857033312320709228515625</LongitudeDegrees>
            </Position>
            <AltitudeMeters>537.20001220703125</AltitudeMeters>
            <DistanceMeters>43922.607244845</DistanceMeters>
          </Trackpoint>
          <Trackpoint>
            <Time>2018-08-26T07:24:08.000Z</Time>
            <Position>
              <LatitudeDegrees>43.0008109845221042633056640625</LatitudeDegrees>
              <LongitudeDegrees>-1.800281591713428497314453125</LongitudeDegrees>
            </Position>
            <AltitudeMeters>537.20001220703125</AltitudeMeters>
            <DistanceMeters>43931.257286083</DistanceMeters>
          </Trackpoint>
          <Trackpoint>
            <Time>2018-08-26T07:24:09.000Z</Time>
            <Position>
              <LatitudeDegrees>43.0008425004780292510986328125</LatitudeDegrees>
              <LongitudeDegrees>-1.80018411017954349517822265625</LongitudeDegrees>
            </Position>
            <AltitudeMeters>537.4000244140625</AltitudeMeters>
            <DistanceMeters>43939.932345569</DistanceMeters>
          </Trackpoint>
          <Trackpoint>
            <Time>2018-08-26T07:24:10.000Z</Time>
            <Position>
              <LatitudeDegrees>43.00087510608136653900146484375</LatitudeDegrees>
              <LongitudeDegrees>-1.80008637718856334686279296875</LongitudeDegrees>
            </Position>
            <AltitudeMeters>537.5999755859375</AltitudeMeters>
            <DistanceMeters>43948.676868845</DistanceMeters>
          </Trackpoint>
          <Trackpoint>
            <Time>2018-08-26T07:24:11.000Z</Time>
            <Position>
              <LatitudeDegrees>43.000907711684703826904296875</LatitudeDegrees>
              <LongitudeDegrees>-1.7999890632927417755126953125</LongitudeDegrees>
            </Position>
            <AltitudeMeters>537.5999755859375</AltitudeMeters>
            <DistanceMeters>43957.390357397</DistanceMeters>
          </Trackpoint>
          <Trackpoint>
            <Time>2018-08-26T07:24:12.000Z</Time>
            <Position>
              <LatitudeDegrees>43.00093914382159709930419921875</LatitudeDegrees>
              <LongitudeDegrees>-1.79989141412079334259033203125</LongitudeDegrees>
            </Position>
            <AltitudeMeters>537.5999755859375</AltitudeMeters>
            <DistanceMeters>43966.074780145</DistanceMeters>
          </Trackpoint>
          <Trackpoint>
            <Time>2018-08-26T07:24:13.000Z</Time>
            <Position>
              <LatitudeDegrees>43.000970743596553802490234375</LatitudeDegrees>
              <LongitudeDegrees>-1.7997932620346546173095703125</LongitudeDegrees>
            </Position>
            <AltitudeMeters>537.79998779296875</AltitudeMeters>
            <DistanceMeters>43974.80431708</DistanceMeters>
          </Trackpoint>
          <Trackpoint>
            <Time>2018-08-26T07:24:14.000Z</Time>
            <Position>
              <LatitudeDegrees>43.0010034330189228057861328125</LatitudeDegrees>
              <LongitudeDegrees>-1.79969318211078643798828125</LongitudeDegrees>
            </Position>
            <AltitudeMeters>537.79998779296875</AltitudeMeters>
            <DistanceMeters>43983.726713279</DistanceMeters>
          </Trackpoint>
          <Trackpoint>
            <Time>2018-08-26T07:24:15.000Z</Time>
            <Position>
              <LatitudeDegrees>43.00103536807000637054443359375</LatitudeDegrees>
              <LongitudeDegrees>-1.79959519766271114349365234375</LongitudeDegrees>
            </Position>
            <AltitudeMeters>538</AltitudeMeters>
            <DistanceMeters>43992.458318825</DistanceMeters>
          </Trackpoint>
          <Trackpoint>
            <Time>2018-08-26T07:24:16.000Z</Time>
            <Position>
              <LatitudeDegrees>43.00106856040656566619873046875</LatitudeDegrees>
              <LongitudeDegrees>-1.79949729703366756439208984375</LongitudeDegrees>
            </Position>
            <AltitudeMeters>538</AltitudeMeters>
            <DistanceMeters>44001.241995341</DistanceMeters>
          </Trackpoint>
          <Trackpoint>
            <Time>2018-08-26T07:24:17.000Z</Time>
            <Position>
              <LatitudeDegrees>43.00110275857150554656982421875</LatitudeDegrees>
              <LongitudeDegrees>-1.79939738474786281585693359375</LongitudeDegrees>
            </Position>
            <AltitudeMeters>538</AltitudeMeters>
            <DistanceMeters>44010.221894152</DistanceMeters>
          </Trackpoint>
          <Trackpoint>
            <Time>2018-08-26T07:24:18.000Z</Time>
            <Position>
              <LatitudeDegrees>43.00113670527935028076171875</LatitudeDegrees>
              <LongitudeDegrees>-1.7992968857288360595703125</LongitudeDegrees>
            </Position>
            <AltitudeMeters>538.20001220703125</AltitudeMeters>
            <DistanceMeters>44019.232912262</DistanceMeters>
          </Trackpoint>
          <Trackpoint>
            <Time>2018-08-26T07:24:19.000Z</Time>
            <Position>
              <LatitudeDegrees>43.0011682212352752685546875</LatitudeDegrees>
              <LongitudeDegrees>-1.7991964705288410186767578125</LongitudeDegrees>
            </Position>
            <AltitudeMeters>538.20001220703125</AltitudeMeters>
            <DistanceMeters>44028.127940638</DistanceMeters>
          </Trackpoint>
          <Trackpoint>
            <Time>2018-08-26T07:24:20.000Z</Time>
            <Position>
              <LatitudeDegrees>43.00120149739086627960205078125</LatitudeDegrees>
              <LongitudeDegrees>-1.7990970611572265625</LongitudeDegrees>
            </Position>
            <AltitudeMeters>538.20001220703125</AltitudeMeters>
            <DistanceMeters>44037.027028816</DistanceMeters>
          </Trackpoint>
          <Trackpoint>
            <Time>2018-08-26T07:24:21.000Z</Time>
            <Position>
              <LatitudeDegrees>43.00123460590839385986328125</LatitudeDegrees>
              <LongitudeDegrees>-1.79899656213819980621337890625</LongitudeDegrees>
            </Position>
            <AltitudeMeters>538.20001220703125</AltitudeMeters>
            <DistanceMeters>44045.999382549</DistanceMeters>
          </Trackpoint>
          <Trackpoint>
            <Time>2018-08-26T07:24:22.000Z</Time>
            <Position>
              <LatitudeDegrees>43.00126771442592144012451171875</LatitudeDegrees>
              <LongitudeDegrees>-1.7988967336714267730712890625</LongitudeDegrees>
            </Position>
            <AltitudeMeters>538.20001220703125</AltitudeMeters>
            <DistanceMeters>44054.921778748</DistanceMeters>
          </Trackpoint>
          <Trackpoint>
            <Time>2018-08-26T07:24:23.000Z</Time>
            <Position>
              <LatitudeDegrees>43.00130032002925872802734375</LatitudeDegrees>
              <LongitudeDegrees>-1.7987981624901294708251953125</LongitudeDegrees>
            </Position>
            <AltitudeMeters>538.4000244140625</AltitudeMeters>
            <DistanceMeters>44063.728043364</DistanceMeters>
          </Trackpoint>
          <Trackpoint>
            <Time>2018-08-26T07:24:24.000Z</Time>
            <Position>
              <LatitudeDegrees>43.00133393146097660064697265625</LatitudeDegrees>
              <LongitudeDegrees>-1.79870001040399074554443359375</LongitudeDegrees>
            </Position>
            <AltitudeMeters>538.4000244140625</AltitudeMeters>
            <DistanceMeters>44072.549675798</DistanceMeters>
          </Trackpoint>
          <Trackpoint>
            <Time>2018-08-26T07:24:25.000Z</Time>
            <Position>
              <LatitudeDegrees>43.00136695615947246551513671875</LatitudeDegrees>
              <LongitudeDegrees>-1.79859976284205913543701171875</LongitudeDegrees>
            </Position>
            <AltitudeMeters>538.4000244140625</AltitudeMeters>
            <DistanceMeters>44081.499860608</DistanceMeters>
          </Trackpoint>
          <Trackpoint>
            <Time>2018-08-26T07:24:26.000Z</Time>
            <Position>
              <LatitudeDegrees>43.0014010705053806304931640625</LatitudeDegrees>
              <LongitudeDegrees>-1.7985001020133495330810546875</LongitudeDegrees>
            </Position>
            <AltitudeMeters>538.20001220703125</AltitudeMeters>
            <DistanceMeters>44090.456601038</DistanceMeters>
          </Trackpoint>
          <Trackpoint>
            <Time>2018-08-26T07:24:27.000Z</Time>
            <Position>
              <LatitudeDegrees>43.001437447965145111083984375</LatitudeDegrees>
              <LongitudeDegrees>-1.79840060882270336151123046875</LongitudeDegrees>
            </Position>
            <AltitudeMeters>538.20001220703125</AltitudeMeters>
            <DistanceMeters>44099.510607552</DistanceMeters>
          </Trackpoint>
          <Trackpoint>
            <Time>2018-08-26T07:24:28.000Z</Time>
            <Position>
              <LatitudeDegrees>43.00147038884460926055908203125</LatitudeDegrees>
              <LongitudeDegrees>-1.7983026243746280670166015625</LongitudeDegrees>
            </Position>
            <AltitudeMeters>538.20001220703125</AltitudeMeters>
            <DistanceMeters>44108.289142303</DistanceMeters>
          </Trackpoint>
          <Trackpoint>
            <Time>2018-08-26T07:24:29.000Z</Time>
            <Position>
              <LatitudeDegrees>43.001502491533756256103515625</LatitudeDegrees>
              <LongitudeDegrees>-1.79820480756461620330810546875</LongitudeDegrees>
            </Position>
            <AltitudeMeters>538.20001220703125</AltitudeMeters>
            <DistanceMeters>44117.016092786</DistanceMeters>
          </Trackpoint>
          <Trackpoint>
            <Time>2018-08-26T07:24:30.000Z</Time>
            <Position>
              <LatitudeDegrees>43.00153442658483982086181640625</LatitudeDegrees>
              <LongitudeDegrees>-1.79810908623039722442626953125</LongitudeDegrees>
            </Position>
            <AltitudeMeters>538.20001220703125</AltitudeMeters>
            <DistanceMeters>44125.58010358</DistanceMeters>
          </Trackpoint>
          <Trackpoint>
            <Time>2018-08-26T07:24:31.000Z</Time>
            <Position>
              <LatitudeDegrees>43.00156443379819393157958984375</LatitudeDegrees>
              <LongitudeDegrees>-1.79801881313323974609375</LongitudeDegrees>
            </Position>
            <AltitudeMeters>538.20001220703125</AltitudeMeters>
            <DistanceMeters>44133.652341907</DistanceMeters>
          </Trackpoint>
          <Trackpoint>
            <Time>2018-08-26T07:24:32.000Z</Time>
            <Position>
              <LatitudeDegrees>43.001593016088008880615234375</LatitudeDegrees>
              <LongitudeDegrees>-1.7979289591312408447265625</LongitudeDegrees>
            </Position>
            <AltitudeMeters>538.20001220703125</AltitudeMeters>
            <DistanceMeters>44141.627795404</DistanceMeters>
          </Trackpoint>
          <Trackpoint>
            <Time>2018-08-26T07:24:33.000Z</Time>
            <Position>
              <LatitudeDegrees>43.0016233585774898529052734375</LatitudeDegrees>
              <LongitudeDegrees>-1.797834075987339019775390625</LongitudeDegrees>
            </Position>
            <AltitudeMeters>538.20001220703125</AltitudeMeters>
            <DistanceMeters>44150.05790226</DistanceMeters>
          </Trackpoint>
          <Trackpoint>
            <Time>2018-08-26T07:24:34.000Z</Time>
            <Position>
              <LatitudeDegrees>43.00165294669568538665771484375</LatitudeDegrees>
              <LongitudeDegrees>-1.79773827083408832550048828125</LongitudeDegrees>
            </Position>
            <AltitudeMeters>538.20001220703125</AltitudeMeters>
            <DistanceMeters>44158.523283921</DistanceMeters>
          </Trackpoint>
          <Trackpoint>
            <Time>2018-08-26T07:24:35.000Z</Time>
            <Position>
              <LatitudeDegrees>43.0016837082803249359130859375</LatitudeDegrees>
              <LongitudeDegrees>-1.7976411245763301849365234375</LongitudeDegrees>
            </Position>
            <AltitudeMeters>538.20001220703125</AltitudeMeters>
            <DistanceMeters>44167.140378478</DistanceMeters>
          </Trackpoint>
          <Trackpoint>
            <Time>2018-08-26T07:24:36.000Z</Time>
            <Position>
              <LatitudeDegrees>43.00171312876045703887939453125</LatitudeDegrees>
              <LongitudeDegrees>-1.7975413799285888671875</LongitudeDegrees>
            </Position>
            <AltitudeMeters>538.20001220703125</AltitudeMeters>
            <DistanceMeters>44175.895222214</DistanceMeters>
          </Trackpoint>
          <Trackpoint>
            <Time>2018-08-26T07:24:37.000Z</Time>
            <Position>
              <LatitudeDegrees>43.00174330361187458038330078125</LatitudeDegrees>
              <LongitudeDegrees>-1.797441802918910980224609375</LongitudeDegrees>
            </Position>
            <AltitudeMeters>538.20001220703125</AltitudeMeters>
            <DistanceMeters>44184.6691268</DistanceMeters>
          </Trackpoint>
          <Trackpoint>
            <Time>2018-08-26T07:24:38.000Z</Time>
            <Position>
              <LatitudeDegrees>43.00177481956779956817626953125</LatitudeDegrees>
              <LongitudeDegrees>-1.79734381847083568572998046875</LongitudeDegrees>
            </Position>
            <AltitudeMeters>538.20001220703125</AltitudeMeters>
            <DistanceMeters>44193.38209717</DistanceMeters>
          </Trackpoint>
          <Trackpoint>
            <Time>2018-08-26T07:24:39.000Z</Time>
            <Position>
              <LatitudeDegrees>43.001806251704692840576171875</LatitudeDegrees>
              <LongitudeDegrees>-1.79724457673728466033935546875</LongitudeDegrees>
            </Position>
            <AltitudeMeters>538.20001220703125</AltitudeMeters>
            <DistanceMeters>44202.185285004</DistanceMeters>
          </Trackpoint>
          <Trackpoint>
            <Time>2018-08-26T07:24:40.000Z</Time>
            <Position>
              <LatitudeDegrees>43.0018392764031887054443359375</LatitudeDegrees>
              <LongitudeDegrees>-1.797144748270511627197265625</LongitudeDegrees>
            </Position>
            <AltitudeMeters>538.20001220703125</AltitudeMeters>
            <DistanceMeters>44211.10363201</DistanceMeters>
          </Trackpoint>
          <Trackpoint>
            <Time>2018-08-26T07:24:41.000Z</Time>
            <Position>
              <LatitudeDegrees>43.0018709599971771240234375</LatitudeDegrees>
              <LongitudeDegrees>-1.79704491980373859405517578125</LongitudeDegrees>
            </Position>
            <AltitudeMeters>538.20001220703125</AltitudeMeters>
            <DistanceMeters>44219.96203843</DistanceMeters>
          </Trackpoint>
          <Trackpoint>
            <Time>2018-08-26T07:24:42.000Z</Time>
            <Position>
              <LatitudeDegrees>43.00190222449600696563720703125</LatitudeDegrees>
              <LongitudeDegrees>-1.79694400168955326080322265625</LongitudeDegrees>
            </Position>
            <AltitudeMeters>538.20001220703125</AltitudeMeters>
            <DistanceMeters>44228.883422503</DistanceMeters>
          </Trackpoint>
          <Trackpoint>
            <Time>2018-08-26T07:24:43.000Z</Time>
            <Position>
              <LatitudeDegrees>43.00193692557513713836669921875</LatitudeDegrees>
              <LongitudeDegrees>-1.7968453466892242431640625</LongitudeDegrees>
            </Position>
            <AltitudeMeters>538.4000244140625</AltitudeMeters>
            <DistanceMeters>44237.794678994</DistanceMeters>
          </Trackpoint>
          <Trackpoint>
            <Time>2018-08-26T07:24:44.000Z</Time>
            <Position>
              <LatitudeDegrees>43.0019727163016796112060546875</LatitudeDegrees>
              <LongitudeDegrees>-1.79674736224114894866943359375</LongitudeDegrees>
            </Position>
            <AltitudeMeters>538.5999755859375</AltitudeMeters>
            <DistanceMeters>44246.709987898</DistanceMeters>
          </Trackpoint>
          <Trackpoint>
            <Time>2018-08-26T07:24:45.000Z</Time>
            <Position>
              <LatitudeDegrees>43.00200280733406543731689453125</LatitudeDegrees>
              <LongitudeDegrees>-1.79664895869791507720947265625</LongitudeDegrees>
            </Position>
            <AltitudeMeters>538.5999755859375</AltitudeMeters>
            <DistanceMeters>44255.391810753</DistanceMeters>
          </Trackpoint>
          <Trackpoint>
            <Time>2018-08-26T07:24:46.000Z</Time>
            <Position>
              <LatitudeDegrees>43.00203264690935611724853515625</LatitudeDegrees>
              <LongitudeDegrees>-1.796553321182727813720703125</LongitudeDegrees>
            </Position>
            <AltitudeMeters>538.5999755859375</AltitudeMeters>
            <DistanceMeters>44263.855058732</DistanceMeters>
          </Trackpoint>
          <Trackpoint>
            <Time>2018-08-26T07:24:47.000Z</Time>
            <Position>
              <LatitudeDegrees>43.0020635761320590972900390625</LatitudeDegrees>
              <LongitudeDegrees>-1.79645734839141368865966796875</LongitudeDegrees>
            </Position>
            <AltitudeMeters>538.79998779296875</AltitudeMeters>
            <DistanceMeters>44272.391610547</DistanceMeters>
          </Trackpoint>
          <Trackpoint>
            <Time>2018-08-26T07:24:48.000Z</Time>
            <Position>
              <LatitudeDegrees>43.002087213099002838134765625</LatitudeDegrees>
              <LongitudeDegrees>-1.79636263288557529449462890625</LongitudeDegrees>
            </Position>
            <AltitudeMeters>538.79998779296875</AltitudeMeters>
            <DistanceMeters>44280.537345733</DistanceMeters>
          </Trackpoint>
          <Trackpoint>
            <Time>2018-08-26T07:24:49.000Z</Time>
            <Position>
              <LatitudeDegrees>43.00210942514240741729736328125</LatitudeDegrees>
              <LongitudeDegrees>-1.79626741446554660797119140625</LongitudeDegrees>
            </Position>
            <AltitudeMeters>538.79998779296875</AltitudeMeters>
            <DistanceMeters>44288.673097716</DistanceMeters>
          </Trackpoint>
          <Trackpoint>
            <Time>2018-08-26T07:24:50.000Z</Time>
            <Position>
              <LatitudeDegrees>43.00213842652738094329833984375</LatitudeDegrees>
              <LongitudeDegrees>-1.7961766384541988372802734375</LongitudeDegrees>
            </Position>
            <AltitudeMeters>538.79998779296875</AltitudeMeters>
            <DistanceMeters>44296.736381811</DistanceMeters>
          </Trackpoint>
          <Trackpoint>
            <Time>2018-08-26T07:24:51.000Z</Time>
            <Position>
              <LatitudeDegrees>43.00216910429298877716064453125</LatitudeDegrees>
              <LongitudeDegrees>-1.79608502425253391265869140625</LongitudeDegrees>
            </Position>
            <AltitudeMeters>539</AltitudeMeters>
            <DistanceMeters>44304.937908464</DistanceMeters>
          </Trackpoint>
          <Trackpoint>
            <Time>2018-08-26T07:24:52.000Z</Time>
            <Position>
              <LatitudeDegrees>43.002205230295658111572265625</LatitudeDegrees>
              <LongitudeDegrees>-1.79599701426923274993896484375</LongitudeDegrees>
            </Position>
            <AltitudeMeters>539</AltitudeMeters>
            <DistanceMeters>44313.152087132</DistanceMeters>
          </Trackpoint>
          <Trackpoint>
            <Time>2018-08-26T07:24:53.000Z</Time>
            <Position>
              <LatitudeDegrees>43.0022452957928180694580078125</LatitudeDegrees>
              <LongitudeDegrees>-1.79591017775237560272216796875</LongitudeDegrees>
            </Position>
            <AltitudeMeters>539.20001220703125</AltitudeMeters>
            <DistanceMeters>44321.509037007</DistanceMeters>
          </Trackpoint>
          <Trackpoint>
            <Time>2018-08-26T07:24:54.000Z</Time>
            <Position>
              <LatitudeDegrees>43.00228946842253208160400390625</LatitudeDegrees>
              <LongitudeDegrees>-1.79582468234002590179443359375</LongitudeDegrees>
            </Position>
            <AltitudeMeters>539.4000244140625</AltitudeMeters>
            <DistanceMeters>44330.029706852</DistanceMeters>
          </Trackpoint>
          <Trackpoint>
            <Time>2018-08-26T07:24:55.000Z</Time>
            <Position>
              <LatitudeDegrees>43.002338670194149017333984375</LatitudeDegrees>
              <LongitudeDegrees>-1.79574287496507167816162109375</LongitudeDegrees>
            </Position>
            <AltitudeMeters>539.5999755859375</AltitudeMeters>
            <DistanceMeters>44338.650468369</DistanceMeters>
          </Trackpoint>
          <Trackpoint>
            <Time>2018-08-26T07:24:56.000Z</Time>
            <Position>
              <LatitudeDegrees>43.002390973269939422607421875</LatitudeDegrees>
              <LongitudeDegrees>-1.7956633307039737701416015625</LongitudeDegrees>
            </Position>
            <AltitudeMeters>540</AltitudeMeters>
            <DistanceMeters>44347.35721815</DistanceMeters>
          </Trackpoint>
          <Trackpoint>
            <Time>2018-08-26T07:24:57.000Z</Time>
            <Position>
              <LatitudeDegrees>43.00244470126926898956298828125</LatitudeDegrees>
              <LongitudeDegrees>-1.795587725937366485595703125</LongitudeDegrees>
            </Position>
            <AltitudeMeters>540.20001220703125</AltitudeMeters>
            <DistanceMeters>44355.938609261</DistanceMeters>
          </Trackpoint>
          <Trackpoint>
            <Time>2018-08-26T07:24:58.000Z</Time>
            <Position>
              <LatitudeDegrees>43.00250102765858173370361328125</LatitudeDegrees>
              <LongitudeDegrees>-1.79551907815039157867431640625</LongitudeDegrees>
            </Position>
            <AltitudeMeters>540.4000244140625</AltitudeMeters>
            <DistanceMeters>44364.336519538</DistanceMeters>
          </Trackpoint>
          <Trackpoint>
            <Time>2018-08-26T07:24:59.000Z</Time>
            <Position>
              <LatitudeDegrees>43.00256070680916309356689453125</LatitudeDegrees>
              <LongitudeDegrees>-1.7954554595053195953369140625</LongitudeDegrees>
            </Position>
            <AltitudeMeters>540.5999755859375</AltitudeMeters>
            <DistanceMeters>44372.758588789</DistanceMeters>
          </Trackpoint>
          <Trackpoint>
            <Time>2018-08-26T07:25:00.000Z</Time>
            <Position>
              <LatitudeDegrees>43.0026184581220149993896484375</LatitudeDegrees>
              <LongitudeDegrees>-1.79539485834538936614990234375</LongitudeDegrees>
            </Position>
            <AltitudeMeters>540.79998779296875</AltitudeMeters>
            <DistanceMeters>44380.860974595</DistanceMeters>
          </Trackpoint>
          <Trackpoint>
            <Time>2018-08-26T07:25:01.000Z</Time>
            <Position>
              <LatitudeDegrees>43.00267335958778858184814453125</LatitudeDegrees>
              <LongitudeDegrees>-1.79533635266125202178955078125</LongitudeDegrees>
            </Position>
            <AltitudeMeters>541</AltitudeMeters>
            <DistanceMeters>44388.60900326</DistanceMeters>
          </Trackpoint>
          <Trackpoint>
            <Time>2018-08-26T07:25:02.000Z</Time>
            <Position>
              <LatitudeDegrees>43.00272700376808643341064453125</LatitudeDegrees>
              <LongitudeDegrees>-1.7952784337103366851806640625</LongitudeDegrees>
            </Position>
            <AltitudeMeters>541</AltitudeMeters>
            <DistanceMeters>44396.217077262</DistanceMeters>
          </Trackpoint>
          <Trackpoint>
            <Time>2018-08-26T07:25:03.000Z</Time>
            <Position>
              <LatitudeDegrees>43.002780564129352569580078125</LatitudeDegrees>
              <LongitudeDegrees>-1.79521917365491390228271484375</LongitudeDegrees>
            </Position>
            <AltitudeMeters>541</AltitudeMeters>
            <DistanceMeters>44403.885444611</DistanceMeters>
          </Trackpoint>
          <Trackpoint>
            <Time>2018-08-26T07:25:04.000Z</Time>
            <Position>
              <LatitudeDegrees>43.00283378921449184417724609375</LatitudeDegrees>
              <LongitudeDegrees>-1.7951600812375545501708984375</LongitudeDegrees>
            </Position>
            <AltitudeMeters>541</AltitudeMeters>
            <DistanceMeters>44411.516036522</DistanceMeters>
          </Trackpoint>
          <Trackpoint>
            <Time>2018-08-26T07:25:05.000Z</Time>
            <Position>
              <LatitudeDegrees>43.00288441590964794158935546875</LatitudeDegrees>
              <LongitudeDegrees>-1.7951017431914806365966796875</LongitudeDegrees>
            </Position>
            <AltitudeMeters>541</AltitudeMeters>
            <DistanceMeters>44418.885356689</DistanceMeters>
          </Trackpoint>
          <Trackpoint>
            <Time>2018-08-26T07:25:06.000Z</Time>
            <Position>
              <LatitudeDegrees>43.002935461699962615966796875</LatitudeDegrees>
              <LongitudeDegrees>-1.79504533298313617706298828125</LongitudeDegrees>
            </Position>
            <AltitudeMeters>541.4000244140625</AltitudeMeters>
            <DistanceMeters>44426.190680213</DistanceMeters>
          </Trackpoint>
          <Trackpoint>
            <Time>2018-08-26T07:25:07.000Z</Time>
            <Position>
              <LatitudeDegrees>43.00298399291932582855224609375</LatitudeDegrees>
              <LongitudeDegrees>-1.7949904315173625946044921875</LongitudeDegrees>
            </Position>
            <AltitudeMeters>541.20001220703125</AltitudeMeters>
            <DistanceMeters>44433.201436669</DistanceMeters>
          </Trackpoint>
          <Trackpoint>
            <Time>2018-08-26T07:25:08.000Z</Time>
            <Position>
              <LatitudeDegrees>43.003034703433513641357421875</LatitudeDegrees>
              <LongitudeDegrees>-1.7949381284415721893310546875</LongitudeDegrees>
            </Position>
            <AltitudeMeters>541.5999755859375</AltitudeMeters>
            <DistanceMeters>44440.271194311</DistanceMeters>
          </Trackpoint>
          <Trackpoint>
            <Time>2018-08-26T07:25:09.000Z</Time>
            <Position>
              <LatitudeDegrees>43.00308340229094028472900390625</LatitudeDegrees>
              <LongitudeDegrees>-1.79488624446094036102294921875</LongitudeDegrees>
            </Position>
            <AltitudeMeters>541.79998779296875</AltitudeMeters>
            <DistanceMeters>44447.142092334</DistanceMeters>
          </Trackpoint>
          <Trackpoint>
            <Time>2018-08-26T07:25:10.000Z</Time>
            <Position>
              <LatitudeDegrees>43.0031297542154788970947265625</LatitudeDegrees>
              <LongitudeDegrees>-1.794830672442913055419921875</LongitudeDegrees>
            </Position>
            <AltitudeMeters>542.20001220703125</AltitudeMeters>
            <DistanceMeters>44454.003784442</DistanceMeters>
          </Trackpoint>
          <Trackpoint>
            <Time>2018-08-26T07:25:11.000Z</Time>
            <Position>
              <LatitudeDegrees>43.00317442975938320159912109375</LatitudeDegrees>
              <LongitudeDegrees>-1.7947708256542682647705078125</LongitudeDegrees>
            </Position>
            <AltitudeMeters>542.5999755859375</AltitudeMeters>
            <DistanceMeters>44460.965423636</DistanceMeters>
          </Trackpoint>
          <Trackpoint>
            <Time>2018-08-26T07:25:12.000Z</Time>
            <Position>
              <LatitudeDegrees>43.00321365706622600555419921875</LatitudeDegrees>
              <LongitudeDegrees>-1.79470553062856197357177734375</LongitudeDegrees>
            </Position>
            <AltitudeMeters>543</AltitudeMeters>
            <DistanceMeters>44467.843546236</DistanceMeters>
          </Trackpoint>
          <Trackpoint>
            <Time>2018-08-26T07:25:13.000Z</Time>
            <Position>
              <LatitudeDegrees>43.0032534711062908172607421875</LatitudeDegrees>
              <LongitudeDegrees>-1.79464015178382396697998046875</LongitudeDegrees>
            </Position>
            <AltitudeMeters>543.20001220703125</AltitudeMeters>
            <DistanceMeters>44474.769422792</DistanceMeters>
          </Trackpoint>
          <Trackpoint>
            <Time>2018-08-26T07:25:14.000Z</Time>
            <Position>
              <LatitudeDegrees>43.00329479388892650604248046875</LatitudeDegrees>
              <LongitudeDegrees>-1.794574521481990814208984375</LongitudeDegrees>
            </Position>
            <AltitudeMeters>543.5999755859375</AltitudeMeters>
            <DistanceMeters>44481.819354759</DistanceMeters>
          </Trackpoint>
          <Trackpoint>
            <Time>2018-08-26T07:25:15.000Z</Time>
            <Position>
              <LatitudeDegrees>43.00333385355770587921142578125</LatitudeDegrees>
              <LongitudeDegrees>-1.79450713098049163818359375</LongitudeDegrees>
            </Position>
            <AltitudeMeters>544</AltitudeMeters>
            <DistanceMeters>44488.817864217</DistanceMeters>
          </Trackpoint>
          <Trackpoint>
            <Time>2018-08-26T07:25:16.000Z</Time>
            <Position>
              <LatitudeDegrees>43.0033703148365020751953125</LatitudeDegrees>
              <LongitudeDegrees>-1.79443915374577045440673828125</LongitudeDegrees>
            </Position>
            <AltitudeMeters>544.4000244140625</AltitudeMeters>
            <DistanceMeters>44495.678898287</DistanceMeters>
          </Trackpoint>
          <Trackpoint>
            <Time>2018-08-26T07:25:17.000Z</Time>
            <Position>
              <LatitudeDegrees>43.00340711139142513275146484375</LatitudeDegrees>
              <LongitudeDegrees>-1.79436891339719295501708984375</LongitudeDegrees>
            </Position>
            <AltitudeMeters>544.5999755859375</AltitudeMeters>
            <DistanceMeters>44502.711517193</DistanceMeters>
          </Trackpoint>
          <Trackpoint>
            <Time>2018-08-26T07:25:18.000Z</Time>
            <Position>
              <LatitudeDegrees>43.00344340503215789794921875</LatitudeDegrees>
              <LongitudeDegrees>-1.79429984651505947113037109375</LongitudeDegrees>
            </Position>
            <AltitudeMeters>545</AltitudeMeters>
            <DistanceMeters>44509.634785624</DistanceMeters>
          </Trackpoint>
          <Trackpoint>
            <Time>2018-08-26T07:25:19.000Z</Time>
            <Position>
              <LatitudeDegrees>43.0034784413874149322509765625</LatitudeDegrees>
              <LongitudeDegrees>-1.79423245601356029510498046875</LongitudeDegrees>
            </Position>
            <AltitudeMeters>545.20001220703125</AltitudeMeters>
            <DistanceMeters>44516.364931495</DistanceMeters>
          </Trackpoint>
          <Trackpoint>
            <Time>2018-08-26T07:25:20.000Z</Time>
            <Position>
              <LatitudeDegrees>43.00351272337138652801513671875</LatitudeDegrees>
              <LongitudeDegrees>-1.79416355676949024200439453125</LongitudeDegrees>
            </Position>
            <AltitudeMeters>545.5999755859375</AltitudeMeters>
            <DistanceMeters>44523.148534487</DistanceMeters>
          </Trackpoint>
          <Trackpoint>
            <Time>2018-08-26T07:25:21.000Z</Time>
            <Position>
              <LatitudeDegrees>43.00355027429759502410888671875</LatitudeDegrees>
              <LongitudeDegrees>-1.7940918914973735809326171875</LongitudeDegrees>
            </Position>
            <AltitudeMeters>545.79998779296875</AltitudeMeters>
            <DistanceMeters>44530.324152641</DistanceMeters>
          </Trackpoint>
          <Trackpoint>
            <Time>2018-08-26T07:25:22.000Z</Time>
            <Position>
              <LatitudeDegrees>43.00358765758574008941650390625</LatitudeDegrees>
              <LongitudeDegrees>-1.7940198071300983428955078125</LongitudeDegrees>
            </Position>
            <AltitudeMeters>546</AltitudeMeters>
            <DistanceMeters>44537.517367362</DistanceMeters>
          </Trackpoint>
          <Trackpoint>
            <Time>2018-08-26T07:25:23.000Z</Time>
            <Position>
              <LatitudeDegrees>43.0036299861967563629150390625</LatitudeDegrees>
              <LongitudeDegrees>-1.79394596256315708160400390625</LongitudeDegrees>
            </Position>
            <AltitudeMeters>546.20001220703125</AltitudeMeters>
            <DistanceMeters>44545.153874002</DistanceMeters>
          </Trackpoint>
          <Trackpoint>
            <Time>2018-08-26T07:25:24.000Z</Time>
            <Position>
              <LatitudeDegrees>43.00367382355034351348876953125</LatitudeDegrees>
              <LongitudeDegrees>-1.7938679270446300506591796875</LongitudeDegrees>
            </Position>
            <AltitudeMeters>546.4000244140625</AltitudeMeters>
            <DistanceMeters>44553.162658741</DistanceMeters>
          </Trackpoint>
          <Trackpoint>
            <Time>2018-08-26T07:25:25.000Z</Time>
            <Position>
              <LatitudeDegrees>43.00371967256069183349609375</LatitudeDegrees>
              <LongitudeDegrees>-1.79378829896450042724609375</LongitudeDegrees>
            </Position>
            <AltitudeMeters>546.5999755859375</AltitudeMeters>
            <DistanceMeters>44561.411393553</DistanceMeters>
          </Trackpoint>
          <Trackpoint>
            <Time>2018-08-26T07:25:26.000Z</Time>
            <Position>
              <LatitudeDegrees>43.00376954488456249237060546875</LatitudeDegrees>
              <LongitudeDegrees>-1.79370774887502193450927734375</LongitudeDegrees>
            </Position>
            <AltitudeMeters>546.5999755859375</AltitudeMeters>
            <DistanceMeters>44570.001724437</DistanceMeters>
          </Trackpoint>
          <Trackpoint>
            <Time>2018-08-26T07:25:27.000Z</Time>
            <Position>
              <LatitudeDegrees>43.00381732173264026641845703125</LatitudeDegrees>
              <LongitudeDegrees>-1.79362409748136997222900390625</LongitudeDegrees>
            </Position>
            <AltitudeMeters>546.5999755859375</AltitudeMeters>
            <DistanceMeters>44578.641320023</DistanceMeters>
          </Trackpoint>
          <Trackpoint>
            <Time>2018-08-26T07:25:28.000Z</Time>
            <Position>
              <LatitudeDegrees>43.00386744551360607147216796875</LatitudeDegrees>
              <LongitudeDegrees>-1.79353675805032253265380859375</LongitudeDegrees>
            </Position>
            <AltitudeMeters>546.5999755859375</AltitudeMeters>
            <DistanceMeters>44587.678355563</DistanceMeters>
          </Trackpoint>
          <Trackpoint>
            <Time>2018-08-26T07:25:29.000Z</Time>
            <Position>
              <LatitudeDegrees>43.0039215087890625</LatitudeDegrees>
              <LongitudeDegrees>-1.79344765841960906982421875</LongitudeDegrees>
            </Position>
            <AltitudeMeters>546.5999755859375</AltitudeMeters>
            <DistanceMeters>44597.102303877</DistanceMeters>
          </Trackpoint>
          <Trackpoint>
            <Time>2018-08-26T07:25:30.000Z</Time>
            <Position>
              <LatitudeDegrees>43.0039773322641849517822265625</LatitudeDegrees>
              <LongitudeDegrees>-1.7933552898466587066650390625</LongitudeDegrees>
            </Position>
            <AltitudeMeters>546.5999755859375</AltitudeMeters>
            <DistanceMeters>44606.856322814</DistanceMeters>
          </Trackpoint>
          <Trackpoint>
            <Time>2018-08-26T07:25:31.000Z</Time>
            <Position>
              <LatitudeDegrees>43.0040329881012439727783203125</LatitudeDegrees>
              <LongitudeDegrees>-1.7932619154453277587890625</LongitudeDegrees>
            </Position>
            <AltitudeMeters>546.5999755859375</AltitudeMeters>
            <DistanceMeters>44616.661127443</DistanceMeters>
          </Trackpoint>
          <Trackpoint>
            <Time>2018-08-26T07:25:32.000Z</Time>
            <Position>
              <LatitudeDegrees>43.00408956594765186309814453125</LatitudeDegrees>
              <LongitudeDegrees>-1.7931675352156162261962890625</LongitudeDegrees>
            </Position>
            <AltitudeMeters>546.5999755859375</AltitudeMeters>
            <DistanceMeters>44626.594487666</DistanceMeters>
          </Trackpoint>
          <Trackpoint>
            <Time>2018-08-26T07:25:33.000Z</Time>
            <Position>
              <LatitudeDegrees>43.004147149622440338134765625</LatitudeDegrees>
              <LongitudeDegrees>-1.7930733226239681243896484375</LongitudeDegrees>
            </Position>
            <AltitudeMeters>546.4000244140625</AltitudeMeters>
            <DistanceMeters>44636.589021453</DistanceMeters>
          </Trackpoint>
          <Trackpoint>
            <Time>2018-08-26T07:25:34.000Z</Time>
            <Position>
              <LatitudeDegrees>43.0042086727917194366455078125</LatitudeDegrees>
              <LongitudeDegrees>-1.79298237897455692291259765625</LongitudeDegrees>
            </Position>
            <AltitudeMeters>546.20001220703125</AltitudeMeters>
            <DistanceMeters>44646.673500662</DistanceMeters>
          </Trackpoint>
          <Trackpoint>
            <Time>2018-08-26T07:25:35.000Z</Time>
            <Position>
              <LatitudeDegrees>43.00427195616066455841064453125</LatitudeDegrees>
              <LongitudeDegrees>-1.79288984276354312896728515625</LongitudeDegrees>
            </Position>
            <AltitudeMeters>546</AltitudeMeters>
            <DistanceMeters>44656.985541207</DistanceMeters>
          </Trackpoint>
          <Trackpoint>
            <Time>2018-08-26T07:25:36.000Z</Time>
            <Position>
              <LatitudeDegrees>43.0043374188244342803955078125</LatitudeDegrees>
              <LongitudeDegrees>-1.7927953787147998809814453125</LongitudeDegrees>
            </Position>
            <AltitudeMeters>545.5999755859375</AltitudeMeters>
            <DistanceMeters>44667.578356219</DistanceMeters>
          </Trackpoint>
          <Trackpoint>
            <Time>2018-08-26T07:25:37.000Z</Time>
            <Position>
              <LatitudeDegrees>43.0044007860124111175537109375</LatitudeDegrees>
              <LongitudeDegrees>-1.7926974780857563018798828125</LongitudeDegrees>
            </Position>
            <AltitudeMeters>545.4000244140625</AltitudeMeters>
            <DistanceMeters>44678.220075473</DistanceMeters>
          </Trackpoint>
          <Trackpoint>
            <Time>2018-08-26T07:25:38.000Z</Time>
            <Position>
              <LatitudeDegrees>43.0044638179242610931396484375</LatitudeDegrees>
              <LongitudeDegrees>-1.7925994098186492919921875</LongitudeDegrees>
            </Position>
            <AltitudeMeters>545.20001220703125</AltitudeMeters>
            <DistanceMeters>44688.846934652</DistanceMeters>
          </Trackpoint>
          <Trackpoint>
            <Time>2018-08-26T07:25:39.000Z</Time>
            <Position>
              <LatitudeDegrees>43.0045278556644916534423828125</LatitudeDegrees>
              <LongitudeDegrees>-1.79250092245638370513916015625</LongitudeDegrees>
            </Position>
            <AltitudeMeters>545</AltitudeMeters>
            <DistanceMeters>44699.574436421</DistanceMeters>
          </Trackpoint>
          <Trackpoint>
            <Time>2018-08-26T07:25:40.000Z</Time>
            <Position>
              <LatitudeDegrees>43.0045928992331027984619140625</LatitudeDegrees>
              <LongitudeDegrees>-1.792402602732181549072265625</LongitudeDegrees>
            </Position>
            <AltitudeMeters>545</AltitudeMeters>
            <DistanceMeters>44710.366141379</DistanceMeters>
          </Trackpoint>
          <Trackpoint>
            <Time>2018-08-26T07:25:41.000Z</Time>
            <Position>
              <LatitudeDegrees>43.00466020591557025909423828125</LatitudeDegrees>
              <LongitudeDegrees>-1.79230193607509136199951171875</LongitudeDegrees>
            </Position>
            <AltitudeMeters>544.79998779296875</AltitudeMeters>
            <DistanceMeters>44721.468417878</DistanceMeters>
          </Trackpoint>
          <Trackpoint>
            <Time>2018-08-26T07:25:42.000Z</Time>
            <Position>
              <LatitudeDegrees>43.00473354756832122802734375</LatitudeDegrees>
              <LongitudeDegrees>-1.7922002635896205902099609375</LongitudeDegrees>
            </Position>
            <AltitudeMeters>544.79998779296875</AltitudeMeters>
            <DistanceMeters>44733.092791578</DistanceMeters>
          </Trackpoint>
          <Trackpoint>
            <Time>2018-08-26T07:25:43.000Z</Time>
            <Position>
              <LatitudeDegrees>43.00480823032557964324951171875</LatitudeDegrees>
              <LongitudeDegrees>-1.79209372960031032562255859375</LongitudeDegrees>
            </Position>
            <AltitudeMeters>544.4000244140625</AltitudeMeters>
            <DistanceMeters>44745.105310946</DistanceMeters>
          </Trackpoint>
          <Trackpoint>
            <Time>2018-08-26T07:25:44.000Z</Time>
            <Position>
              <LatitudeDegrees>43.00488031469285488128662109375</LatitudeDegrees>
              <LongitudeDegrees>-1.7919803224503993988037109375</LongitudeDegrees>
            </Position>
            <AltitudeMeters>544</AltitudeMeters>
            <DistanceMeters>44757.33536353</DistanceMeters>
          </Trackpoint>
          <Trackpoint>
            <Time>2018-08-26T07:25:45.000Z</Time>
            <Position>
              <LatitudeDegrees>43.00494770519435405731201171875</LatitudeDegrees>
              <LongitudeDegrees>-1.79185886867344379425048828125</LongitudeDegrees>
            </Position>
            <AltitudeMeters>543.5999755859375</AltitudeMeters>
            <DistanceMeters>44769.744629971</DistanceMeters>
          </Trackpoint>
          <Trackpoint>
            <Time>2018-08-26T07:25:46.000Z</Time>
            <Position>
              <LatitudeDegrees>43.00500822253525257110595703125</LatitudeDegrees>
              <LongitudeDegrees>-1.7917318828403949737548828125</LongitudeDegrees>
            </Position>
            <AltitudeMeters>543.20001220703125</AltitudeMeters>
            <DistanceMeters>44782.081278965</DistanceMeters>
          </Trackpoint>
          <Trackpoint>
            <Time>2018-08-26T07:25:47.000Z</Time>
            <Position>
              <LatitudeDegrees>43.00506421364843845367431640625</LatitudeDegrees>
              <LongitudeDegrees>-1.79160070605576038360595703125</LongitudeDegrees>
            </Position>
            <AltitudeMeters>543</AltitudeMeters>
            <DistanceMeters>44794.443520417</DistanceMeters>
          </Trackpoint>
          <Trackpoint>
            <Time>2018-08-26T07:25:48.000Z</Time>
            <Position>
              <LatitudeDegrees>43.00511416979134082794189453125</LatitudeDegrees>
              <LongitudeDegrees>-1.79146550595760345458984375</LongitudeDegrees>
            </Position>
            <AltitudeMeters>542.79998779296875</AltitudeMeters>
            <DistanceMeters>44806.77321372</DistanceMeters>
          </Trackpoint>
          <Trackpoint>
            <Time>2018-08-26T07:25:49.000Z</Time>
            <Position>
              <LatitudeDegrees>43.0051621980965137481689453125</LatitudeDegrees>
              <LongitudeDegrees>-1.79133231751620769500732421875</LongitudeDegrees>
            </Position>
            <AltitudeMeters>542.5999755859375</AltitudeMeters>
            <DistanceMeters>44818.860671553</DistanceMeters>
          </Trackpoint>
          <Trackpoint>
            <Time>2018-08-26T07:25:50.000Z</Time>
            <Position>
              <LatitudeDegrees>43.00520989112555980682373046875</LatitudeDegrees>
              <LongitudeDegrees>-1.79119862616062164306640625</LongitudeDegrees>
            </Position>
            <AltitudeMeters>542</AltitudeMeters>
            <DistanceMeters>44830.968283249</DistanceMeters>
          </Trackpoint>
          <Trackpoint>
            <Time>2018-08-26T07:25:51.000Z</Time>
            <Position>
              <LatitudeDegrees>43.00525523722171783447265625</LatitudeDegrees>
              <LongitudeDegrees>-1.79106728173792362213134765625</LongitudeDegrees>
            </Position>
            <AltitudeMeters>541.5999755859375</AltitudeMeters>
            <DistanceMeters>44842.790996697</DistanceMeters>
          </Trackpoint>
          <Trackpoint>
            <Time>2018-08-26T07:25:52.000Z</Time>
            <Position>
              <LatitudeDegrees>43.005299158394336700439453125</LatitudeDegrees>
              <LongitudeDegrees>-1.79093820042908191680908203125</LongitudeDegrees>
            </Position>
            <AltitudeMeters>541.20001220703125</AltitudeMeters>
            <DistanceMeters>44854.378802215</DistanceMeters>
          </Trackpoint>
          <Trackpoint>
            <Time>2018-08-26T07:25:53.000Z</Time>
            <Position>
              <LatitudeDegrees>43.005340732634067535400390625</LatitudeDegrees>
              <LongitudeDegrees>-1.79080693982541561126708984375</LongitudeDegrees>
            </Position>
            <AltitudeMeters>540.5999755859375</AltitudeMeters>
            <DistanceMeters>44866.021804731</DistanceMeters>
          </Trackpoint>
          <Trackpoint>
            <Time>2018-08-26T07:25:54.000Z</Time>
            <Position>
              <LatitudeDegrees>43.0053824745118618011474609375</LatitudeDegrees>
              <LongitudeDegrees>-1.79068037308752536773681640625</LongitudeDegrees>
            </Position>
            <AltitudeMeters>540</AltitudeMeters>
            <DistanceMeters>44877.322794561</DistanceMeters>
          </Trackpoint>
          <Trackpoint>
            <Time>2018-08-26T07:25:55.000Z</Time>
            <Position>
              <LatitudeDegrees>43.005423881113529205322265625</LatitudeDegrees>
              <LongitudeDegrees>-1.79055514745414257049560546875</LongitudeDegrees>
            </Position>
            <AltitudeMeters>539.20001220703125</AltitudeMeters>
            <DistanceMeters>44888.508936402</DistanceMeters>
          </Trackpoint>
          <Trackpoint>
            <Time>2018-08-26T07:25:56.000Z</Time>
            <Position>
              <LatitudeDegrees>43.005464114248752593994140625</LatitudeDegrees>
              <LongitudeDegrees>-1.7904316820204257965087890625</LongitudeDegrees>
            </Position>
            <AltitudeMeters>538.79998779296875</AltitudeMeters>
            <DistanceMeters>44899.510715561</DistanceMeters>
          </Trackpoint>
          <Trackpoint>
            <Time>2018-08-26T07:25:57.000Z</Time>
            <Position>
              <LatitudeDegrees>43.00550468266010284423828125</LatitudeDegrees>
              <LongitudeDegrees>-1.79030821658670902252197265625</LongitudeDegrees>
            </Position>
            <AltitudeMeters>538.4000244140625</AltitudeMeters>
            <DistanceMeters>44910.527668746</DistanceMeters>
          </Trackpoint>
          <Trackpoint>
            <Time>2018-08-26T07:25:58.000Z</Time>
            <Position>
              <LatitudeDegrees>43.00554466433823108673095703125</LatitudeDegrees>
              <LongitudeDegrees>-1.790185086429119110107421875</LongitudeDegrees>
            </Position>
            <AltitudeMeters>538</AltitudeMeters>
            <DistanceMeters>44921.49327397</DistanceMeters>
          </Trackpoint>
          <Trackpoint>
            <Time>2018-08-26T07:25:59.000Z</Time>
            <Position>
              <LatitudeDegrees>43.00558439455926418304443359375</LatitudeDegrees>
              <LongitudeDegrees>-1.7900632135570049285888671875</LongitudeDegrees>
            </Position>
            <AltitudeMeters>538</AltitudeMeters>
            <DistanceMeters>44932.354208027</DistanceMeters>
          </Trackpoint>
          <Trackpoint>
            <Time>2018-08-26T07:26:00.000Z</Time>
            <Position>
              <LatitudeDegrees>43.0056238733232021331787109375</LatitudeDegrees>
              <LongitudeDegrees>-1.78994360379874706268310546875</LongitudeDegrees>
            </Position>
            <AltitudeMeters>537.79998779296875</AltitudeMeters>
            <DistanceMeters>44943.035312173</DistanceMeters>
          </Trackpoint>
          <Trackpoint>
            <Time>2018-08-26T07:26:01.000Z</Time>
            <Position>
              <LatitudeDegrees>43.005662262439727783203125</LatitudeDegrees>
              <LongitudeDegrees>-1.78982642479240894317626953125</LongitudeDegrees>
            </Position>
            <AltitudeMeters>537.79998779296875</AltitudeMeters>
            <DistanceMeters>44953.486522853</DistanceMeters>
          </Trackpoint>
          <Trackpoint>
            <Time>2018-08-26T07:26:02.000Z</Time>
            <Position>
              <LatitudeDegrees>43.0057003162801265716552734375</LatitudeDegrees>
              <LongitudeDegrees>-1.78971025161445140838623046875</LongitudeDegrees>
            </Position>
            <AltitudeMeters>537.79998779296875</AltitudeMeters>
            <DistanceMeters>44963.847485586</DistanceMeters>
          </Trackpoint>
          <Trackpoint>
            <Time>2018-08-26T07:26:03.000Z</Time>
            <Position>
              <LatitudeDegrees>43.00573811866343021392822265625</LatitudeDegrees>
              <LongitudeDegrees>-1.7895941622555255889892578125</LongitudeDegrees>
            </Position>
            <AltitudeMeters>537.79998779296875</AltitudeMeters>
            <DistanceMeters>44974.190566154</DistanceMeters>
          </Trackpoint>
          <Trackpoint>
            <Time>2018-08-26T07:26:04.000Z</Time>
            <Position>
              <LatitudeDegrees>43.00577734597027301788330078125</LatitudeDegrees>
              <LongitudeDegrees>-1.78947505541145801544189453125</LongitudeDegrees>
            </Position>
            <AltitudeMeters>537.79998779296875</AltitudeMeters>
            <DistanceMeters>44984.822522556</DistanceMeters>
          </Trackpoint>
          <Trackpoint>
            <Time>2018-08-26T07:26:05.000Z</Time>
            <Position>
              <LatitudeDegrees>43.005816824734210968017578125</LatitudeDegrees>
              <LongitudeDegrees>-1.78935603238642215728759765625</LongitudeDegrees>
            </Position>
            <AltitudeMeters>537.5999755859375</AltitudeMeters>
            <DistanceMeters>44995.459573738</DistanceMeters>
          </Trackpoint>
          <Trackpoint>
            <Time>2018-08-26T07:26:06.000Z</Time>
            <Position>
              <LatitudeDegrees>43.0058565549552440643310546875</LatitudeDegrees>
              <LongitudeDegrees>-1.7892404459416866302490234375</LongitudeDegrees>
            </Position>
            <AltitudeMeters>537.5999755859375</AltitudeMeters>
            <DistanceMeters>45005.854471271</DistanceMeters>
          </Trackpoint>
          <Trackpoint>
            <Time>2018-08-26T07:26:07.000Z</Time>
            <Position>
              <LatitudeDegrees>43.00589519552886486053466796875</LatitudeDegrees>
              <LongitudeDegrees>-1.78912636823952198028564453125</LongitudeDegrees>
            </Position>
            <AltitudeMeters>537.5999755859375</AltitudeMeters>
            <DistanceMeters>45016.086514385</DistanceMeters>
          </Trackpoint>
          <Trackpoint>
            <Time>2018-08-26T07:26:08.000Z</Time>
            <Position>
              <LatitudeDegrees>43.0059326626360416412353515625</LatitudeDegrees>
              <LongitudeDegrees>-1.7890158109366893768310546875</LongitudeDegrees>
            </Position>
            <AltitudeMeters>537.5999755859375</AltitudeMeters>
            <DistanceMeters>45026.003953199</DistanceMeters>
          </Trackpoint>
          <Trackpoint>
            <Time>2018-08-26T07:26:09.000Z</Time>
            <Position>
              <LatitudeDegrees>43.00596761517226696014404296875</LatitudeDegrees>
              <LongitudeDegrees>-1.788907013833522796630859375</LongitudeDegrees>
            </Position>
            <AltitudeMeters>537.5999755859375</AltitudeMeters>
            <DistanceMeters>45035.676160391</DistanceMeters>
          </Trackpoint>
          <Trackpoint>
            <Time>2018-08-26T07:26:10.000Z</Time>
            <Position>
              <LatitudeDegrees>43.0060024000704288482666015625</LatitudeDegrees>
              <LongitudeDegrees>-1.78879964165389537811279296875</LongitudeDegrees>
            </Position>
            <AltitudeMeters>537.5999755859375</AltitudeMeters>
            <DistanceMeters>45045.234733164</DistanceMeters>
          </Trackpoint>
          <Trackpoint>
            <Time>2018-08-26T07:26:11.000Z</Time>
            <Position>
              <LatitudeDegrees>43.00603651441633701324462890625</LatitudeDegrees>
              <LongitudeDegrees>-1.78869453258812427520751953125</LongitudeDegrees>
            </Position>
            <AltitudeMeters>537.5999755859375</AltitudeMeters>
            <DistanceMeters>45054.594743936</DistanceMeters>
          </Trackpoint>
          <Trackpoint>
            <Time>2018-08-26T07:26:12.000Z</Time>
            <Position>
              <LatitudeDegrees>43.006069958209991455078125</LatitudeDegrees>
              <LongitudeDegrees>-1.78858640603721141815185546875</LongitudeDegrees>
            </Position>
            <AltitudeMeters>537.5999755859375</AltitudeMeters>
            <DistanceMeters>45064.15048216</DistanceMeters>
          </Trackpoint>
          <Trackpoint>
            <Time>2018-08-26T07:26:13.000Z</Time>
            <Position>
              <LatitudeDegrees>43.00610407255589962005615234375</LatitudeDegrees>
              <LongitudeDegrees>-1.788477189838886260986328125</LongitudeDegrees>
            </Position>
            <AltitudeMeters>537.5999755859375</AltitudeMeters>
            <DistanceMeters>45073.817086064</DistanceMeters>
          </Trackpoint>
          <Trackpoint>
            <Time>2018-08-26T07:26:14.000Z</Time>
            <Position>
              <LatitudeDegrees>43.006134666502475738525390625</LatitudeDegrees>
              <LongitudeDegrees>-1.788369230926036834716796875</LongitudeDegrees>
            </Position>
            <AltitudeMeters>537.5999755859375</AltitudeMeters>
            <DistanceMeters>45083.240076124</DistanceMeters>
          </Trackpoint>
          <Trackpoint>
            <Time>2018-08-26T07:26:15.000Z</Time>
            <Position>
              <LatitudeDegrees>43.00615754909813404083251953125</LatitudeDegrees>
              <LongitudeDegrees>-1.78825867362320423126220703125</LongitudeDegrees>
            </Position>
            <AltitudeMeters>537.5999755859375</AltitudeMeters>
            <DistanceMeters>45092.592365707</DistanceMeters>
          </Trackpoint>
          <Trackpoint>
            <Time>2018-08-26T07:26:16.000Z</Time>
            <Position>
              <LatitudeDegrees>43.00617163069546222686767578125</LatitudeDegrees>
              <LongitudeDegrees>-1.78814484737813472747802734375</LongitudeDegrees>
            </Position>
            <AltitudeMeters>537.5999755859375</AltitudeMeters>
            <DistanceMeters>45101.988965489</DistanceMeters>
          </Trackpoint>
          <Trackpoint>
            <Time>2018-08-26T07:26:17.000Z</Time>
            <Position>
              <LatitudeDegrees>43.00617749802768230438232421875</LatitudeDegrees>
              <LongitudeDegrees>-1.78802850656211376190185546875</LongitudeDegrees>
            </Position>
            <AltitudeMeters>537.5999755859375</AltitudeMeters>
            <DistanceMeters>45111.480702563</DistanceMeters>
          </Trackpoint>
          <Trackpoint>
            <Time>2018-08-26T07:26:18.000Z</Time>
            <Position>
              <LatitudeDegrees>43.00617255270481109619140625</LatitudeDegrees>
              <LongitudeDegrees>-1.7879130877554416656494140625</LongitudeDegrees>
            </Position>
            <AltitudeMeters>537.5999755859375</AltitudeMeters>
            <DistanceMeters>45120.890746644</DistanceMeters>
          </Trackpoint>
          <Trackpoint>
            <Time>2018-08-26T07:26:19.000Z</Time>
            <Position>
              <LatitudeDegrees>43.006158135831356048583984375</LatitudeDegrees>
              <LongitudeDegrees>-1.78779917769134044647216796875</LongitudeDegrees>
            </Position>
            <AltitudeMeters>537.79998779296875</AltitudeMeters>
            <DistanceMeters>45130.299831056</DistanceMeters>
          </Trackpoint>
          <Trackpoint>
            <Time>2018-08-26T07:26:20.000Z</Time>
            <Position>
              <LatitudeDegrees>43.0061405338346958160400390625</LatitudeDegrees>
              <LongitudeDegrees>-1.78768493235111236572265625</LongitudeDegrees>
            </Position>
            <AltitudeMeters>538</AltitudeMeters>
            <DistanceMeters>45139.802977614</DistanceMeters>
          </Trackpoint>
          <Trackpoint>
            <Time>2018-08-26T07:26:21.000Z</Time>
            <Position>
              <LatitudeDegrees>43.006121255457401275634765625</LatitudeDegrees>
              <LongitudeDegrees>-1.78757001645863056182861328125</LongitudeDegrees>
            </Position>
            <AltitudeMeters>538</AltitudeMeters>
            <DistanceMeters>45149.399264374</DistanceMeters>
          </Trackpoint>
          <Trackpoint>
            <Time>2018-08-26T07:26:22.000Z</Time>
            <Position>
              <LatitudeDegrees>43.0061013065278530120849609375</LatitudeDegrees>
              <LongitudeDegrees>-1.78745585493743419647216796875</LongitudeDegrees>
            </Position>
            <AltitudeMeters>538.20001220703125</AltitudeMeters>
            <DistanceMeters>45158.953112431</DistanceMeters>
          </Trackpoint>
          <Trackpoint>
            <Time>2018-08-26T07:26:23.000Z</Time>
            <Position>
              <LatitudeDegrees>43.006081022322177886962890625</LatitudeDegrees>
              <LongitudeDegrees>-1.78734186105430126190185546875</LongitudeDegrees>
            </Position>
            <AltitudeMeters>538.20001220703125</AltitudeMeters>
            <DistanceMeters>45168.502233434</DistanceMeters>
          </Trackpoint>
          <Trackpoint>
            <Time>2018-08-26T07:26:24.000Z</Time>
            <Position>
              <LatitudeDegrees>43.00606132484972476959228515625</LatitudeDegrees>
              <LongitudeDegrees>-1.78722803480923175811767578125</LongitudeDegrees>
            </Position>
            <AltitudeMeters>538.20001220703125</AltitudeMeters>
            <DistanceMeters>45178.022942827</DistanceMeters>
          </Trackpoint>
          <Trackpoint>
            <Time>2018-08-26T07:26:25.000Z</Time>
            <Position>
              <LatitudeDegrees>43.0060417950153350830078125</LatitudeDegrees>
              <LongitudeDegrees>-1.78711630403995513916015625</LongitudeDegrees>
            </Position>
            <AltitudeMeters>538.20001220703125</AltitudeMeters>
            <DistanceMeters>45187.373301116</DistanceMeters>
          </Trackpoint>
          <Trackpoint>
            <Time>2018-08-26T07:26:26.000Z</Time>
            <Position>
              <LatitudeDegrees>43.00602092407643795013427734375</LatitudeDegrees>
              <LongitudeDegrees>-1.7870051600039005279541015625</LongitudeDegrees>
            </Position>
            <AltitudeMeters>538.20001220703125</AltitudeMeters>
            <DistanceMeters>45196.713030151</DistanceMeters>
          </Trackpoint>
          <Trackpoint>
            <Time>2018-08-26T07:26:27.000Z</Time>
            <Position>
              <LatitudeDegrees>43.006000556051731109619140625</LatitudeDegrees>
              <LongitudeDegrees>-1.78689443506300449371337890625</LongitudeDegrees>
            </Position>
            <AltitudeMeters>538.20001220703125</AltitudeMeters>
            <DistanceMeters>45206.005748862</DistanceMeters>
          </Trackpoint>
          <Trackpoint>
            <Time>2018-08-26T07:26:28.000Z</Time>
            <Position>
              <LatitudeDegrees>43.0059806071221828460693359375</LatitudeDegrees>
              <LongitudeDegrees>-1.7867828719317913055419921875</LongitudeDegrees>
            </Position>
            <AltitudeMeters>538.20001220703125</AltitudeMeters>
            <DistanceMeters>45215.353692472</DistanceMeters>
          </Trackpoint>
          <Trackpoint>
            <Time>2018-08-26T07:26:29.000Z</Time>
            <Position>
              <LatitudeDegrees>43.00596057437360286712646484375</LatitudeDegrees>
              <LongitudeDegrees>-1.7866717278957366943359375</LongitudeDegrees>
            </Position>
            <AltitudeMeters>538.20001220703125</AltitudeMeters>
            <DistanceMeters>45224.67067293</DistanceMeters>
          </Trackpoint>
          <Trackpoint>
            <Time>2018-08-26T07:26:30.000Z</Time>
            <Position>
              <LatitudeDegrees>43.00594096072018146514892578125</LatitudeDegrees>
              <LongitudeDegrees>-1.7865617573261260986328125</LongitudeDegrees>
            </Position>
            <AltitudeMeters>538</AltitudeMeters>
            <DistanceMeters>45233.883854714</DistanceMeters>
          </Trackpoint>
          <Trackpoint>
            <Time>2018-08-26T07:26:31.000Z</Time>
            <Position>
              <LatitudeDegrees>43.0059210956096649169921875</LatitudeDegrees>
              <LongitudeDegrees>-1.78645036183297634124755859375</LongitudeDegrees>
            </Position>
            <AltitudeMeters>538</AltitudeMeters>
            <DistanceMeters>45243.216813375</DistanceMeters>
          </Trackpoint>
          <Trackpoint>
            <Time>2018-08-26T07:26:32.000Z</Time>
            <Position>
              <LatitudeDegrees>43.00590139813721179962158203125</LatitudeDegrees>
              <LongitudeDegrees>-1.7863406427204608917236328125</LongitudeDegrees>
            </Position>
            <AltitudeMeters>538</AltitudeMeters>
            <DistanceMeters>45252.412826962</DistanceMeters>
          </Trackpoint>
          <Trackpoint>
            <Time>2018-08-26T07:26:33.000Z</Time>
            <Position>
              <LatitudeDegrees>43.0058827064931392669677734375</LatitudeDegrees>
              <LongitudeDegrees>-1.786230504512786865234375</LongitudeDegrees>
            </Position>
            <AltitudeMeters>538</AltitudeMeters>
            <DistanceMeters>45261.61620227</DistanceMeters>
          </Trackpoint>
          <Trackpoint>
            <Time>2018-08-26T07:26:34.000Z</Time>
            <Position>
              <LatitudeDegrees>43.00586300902068614959716796875</LatitudeDegrees>
              <LongitudeDegrees>-1.78612254559993743896484375</LongitudeDegrees>
            </Position>
            <AltitudeMeters>538</AltitudeMeters>
            <DistanceMeters>45270.67320036</DistanceMeters>
          </Trackpoint>
          <Trackpoint>
            <Time>2018-08-26T07:26:35.000Z</Time>
            <Position>
              <LatitudeDegrees>43.00584339536726474761962890625</LatitudeDegrees>
              <LongitudeDegrees>-1.78601483814418315887451171875</LongitudeDegrees>
            </Position>
            <AltitudeMeters>538</AltitudeMeters>
            <DistanceMeters>45279.70823722</DistanceMeters>
          </Trackpoint>
          <Trackpoint>
            <Time>2018-08-26T07:26:36.000Z</Time>
            <Position>
              <LatitudeDegrees>43.00582394935190677642822265625</LatitudeDegrees>
              <LongitudeDegrees>-1.78590788505971431732177734375</LongitudeDegrees>
            </Position>
            <AltitudeMeters>538</AltitudeMeters>
            <DistanceMeters>45288.67857786</DistanceMeters>
          </Trackpoint>
          <Trackpoint>
            <Time>2018-08-26T07:26:37.000Z</Time>
            <Position>
              <LatitudeDegrees>43.00580509006977081298828125</LatitudeDegrees>
              <LongitudeDegrees>-1.7858000099658966064453125</LongitudeDegrees>
            </Position>
            <AltitudeMeters>538</AltitudeMeters>
            <DistanceMeters>45297.706615852</DistanceMeters>
          </Trackpoint>
          <Trackpoint>
            <Time>2018-08-26T07:26:38.000Z</Time>
            <Position>
              <LatitudeDegrees>43.0057869851589202880859375</LatitudeDegrees>
              <LongitudeDegrees>-1.78569364361464977264404296875</LongitudeDegrees>
            </Position>
            <AltitudeMeters>538</AltitudeMeters>
            <DistanceMeters>45306.595551046</DistanceMeters>
          </Trackpoint>
          <Trackpoint>
            <Time>2018-08-26T07:26:39.000Z</Time>
            <Position>
              <LatitudeDegrees>43.00576963461935520172119140625</LatitudeDegrees>
              <LongitudeDegrees>-1.78558719344437122344970703125</LongitudeDegrees>
            </Position>
            <AltitudeMeters>538</AltitudeMeters>
            <DistanceMeters>45315.472795952</DistanceMeters>
          </Trackpoint>
          <Trackpoint>
            <Time>2018-08-26T07:26:40.000Z</Time>
            <Position>
              <LatitudeDegrees>43.00575152970850467681884765625</LatitudeDegrees>
              <LongitudeDegrees>-1.78548107855021953582763671875</LongitudeDegrees>
            </Position>
            <AltitudeMeters>538</AltitudeMeters>
            <DistanceMeters>45324.341390307</DistanceMeters>
          </Trackpoint>
          <Trackpoint>
            <Time>2018-08-26T07:26:41.000Z</Time>
            <Position>
              <LatitudeDegrees>43.00573401153087615966796875</LatitudeDegrees>
              <LongitudeDegrees>-1.78537664003670215606689453125</LongitudeDegrees>
            </Position>
            <AltitudeMeters>538</AltitudeMeters>
            <DistanceMeters>45333.063165582</DistanceMeters>
          </Trackpoint>
          <Trackpoint>
            <Time>2018-08-26T07:26:42.000Z</Time>
            <Position>
              <LatitudeDegrees>43.0057167448103427886962890625</LatitudeDegrees>
              <LongitudeDegrees>-1.7852734588086605072021484375</LongitudeDegrees>
            </Position>
            <AltitudeMeters>538</AltitudeMeters>
            <DistanceMeters>45341.678688107</DistanceMeters>
          </Trackpoint>
          <Trackpoint>
            <Time>2018-08-26T07:26:43.000Z</Time>
            <Position>
              <LatitudeDegrees>43.005700148642063140869140625</LatitudeDegrees>
              <LongitudeDegrees>-1.78516960702836513519287109375</LongitudeDegrees>
            </Position>
            <AltitudeMeters>538.20001220703125</AltitudeMeters>
            <DistanceMeters>45350.330816962</DistanceMeters>
          </Trackpoint>
          <Trackpoint>
            <Time>2018-08-26T07:26:44.000Z</Time>
            <Position>
              <LatitudeDegrees>43.0056835524737834930419921875</LatitudeDegrees>
              <LongitudeDegrees>-1.78506718017160892486572265625</LongitudeDegrees>
            </Position>
            <AltitudeMeters>538.20001220703125</AltitudeMeters>
            <DistanceMeters>45358.869484142</DistanceMeters>
          </Trackpoint>
          <Trackpoint>
            <Time>2018-08-26T07:26:45.000Z</Time>
            <Position>
              <LatitudeDegrees>43.0056657828390598297119140625</LatitudeDegrees>
              <LongitudeDegrees>-1.7849660106003284454345703125</LongitudeDegrees>
            </Position>
            <AltitudeMeters>538.4000244140625</AltitudeMeters>
            <DistanceMeters>45367.338065317</DistanceMeters>
          </Trackpoint>
          <Trackpoint>
            <Time>2018-08-26T07:26:46.000Z</Time>
            <Position>
              <LatitudeDegrees>43.005647845566272735595703125</LatitudeDegrees>
              <LongitudeDegrees>-1.78486500866711139678955078125</LongitudeDegrees>
            </Position>
            <AltitudeMeters>538.4000244140625</AltitudeMeters>
            <DistanceMeters>45375.798111764</DistanceMeters>
          </Trackpoint>
          <Trackpoint>
            <Time>2018-08-26T07:26:47.000Z</Time>
            <Position>
              <LatitudeDegrees>43.0056305788457393646240234375</LatitudeDegrees>
              <LongitudeDegrees>-1.7847645096480846405029296875</LongitudeDegrees>
            </Position>
            <AltitudeMeters>538.4000244140625</AltitudeMeters>
            <DistanceMeters>45384.200859393</DistanceMeters>
          </Trackpoint>
          <Trackpoint>
            <Time>2018-08-26T07:26:48.000Z</Time>
            <Position>
              <LatitudeDegrees>43.00561289303004741668701171875</LatitudeDegrees>
              <LongitudeDegrees>-1.78466342389583587646484375</LongitudeDegrees>
            </Position>
            <AltitudeMeters>538.4000244140625</AltitudeMeters>
            <DistanceMeters>45392.660905841</DistanceMeters>
          </Trackpoint>
          <Trackpoint>
            <Time>2018-08-26T07:26:49.000Z</Time>
            <Position>
              <LatitudeDegrees>43.00559361465275287628173828125</LatitudeDegrees>
              <LongitudeDegrees>-1.7845616675913333892822265625</LongitudeDegrees>
            </Position>
            <AltitudeMeters>538.4000244140625</AltitudeMeters>
            <DistanceMeters>45401.216477105</DistanceMeters>
          </Trackpoint>
          <Trackpoint>
            <Time>2018-08-26T07:26:50.000Z</Time>
            <Position>
              <LatitudeDegrees>43.00557576119899749755859375</LatitudeDegrees>
              <LongitudeDegrees>-1.7844614200294017791748046875</LongitudeDegrees>
            </Position>
            <AltitudeMeters>538.5999755859375</AltitudeMeters>
            <DistanceMeters>45409.614387382</DistanceMeters>
          </Trackpoint>
          <Trackpoint>
            <Time>2018-08-26T07:26:51.000Z</Time>
            <Position>
              <LatitudeDegrees>43.0055584944784641265869140625</LatitudeDegrees>
              <LongitudeDegrees>-1.7843611724674701690673828125</LongitudeDegrees>
            </Position>
            <AltitudeMeters>538.5999755859375</AltitudeMeters>
            <DistanceMeters>45417.99723027</DistanceMeters>
          </Trackpoint>
          <Trackpoint>
            <Time>2018-08-26T07:26:52.000Z</Time>
            <Position>
              <LatitudeDegrees>43.005541898310184478759765625</LatitudeDegrees>
              <LongitudeDegrees>-1.78426100872457027435302734375</LongitudeDegrees>
            </Position>
            <AltitudeMeters>538.5999755859375</AltitudeMeters>
            <DistanceMeters>45426.356881076</DistanceMeters>
          </Trackpoint>
          <Trackpoint>
            <Time>2018-08-26T07:26:53.000Z</Time>
            <Position>
              <LatitudeDegrees>43.005524463951587677001953125</LatitudeDegrees>
              <LongitudeDegrees>-1.7841623537242412567138671875</LongitudeDegrees>
            </Position>
            <AltitudeMeters>538.5999755859375</AltitudeMeters>
            <DistanceMeters>45434.618195606</DistanceMeters>
          </Trackpoint>
          <Trackpoint>
            <Time>2018-08-26T07:26:54.000Z</Time>
            <Position>
              <LatitudeDegrees>43.00550661049783229827880859375</LatitudeDegrees>
              <LongitudeDegrees>-1.784063614904880523681640625</LongitudeDegrees>
            </Position>
            <AltitudeMeters>538.5999755859375</AltitudeMeters>
            <DistanceMeters>45442.896980554</DistanceMeters>
          </Trackpoint>
          <Trackpoint>
            <Time>2018-08-26T07:26:55.000Z</Time>
            <Position>
              <LatitudeDegrees>43.00548967905342578887939453125</LatitudeDegrees>
              <LongitudeDegrees>-1.7839652113616466522216796875</LongitudeDegrees>
            </Position>
            <AltitudeMeters>538.79998779296875</AltitudeMeters>
            <DistanceMeters>45451.125438075</DistanceMeters>
          </Trackpoint>
          <Trackpoint>
            <Time>2018-08-26T07:26:56.000Z</Time>
            <Position>
              <LatitudeDegrees>43.00547291524708271026611328125</LatitudeDegrees>
              <LongitudeDegrees>-1.783865801990032196044921875</LongitudeDegrees>
            </Position>
            <AltitudeMeters>539</AltitudeMeters>
            <DistanceMeters>45459.428728607</DistanceMeters>
          </Trackpoint>
          <Trackpoint>
            <Time>2018-08-26T07:26:57.000Z</Time>
            <Position>
              <LatitudeDegrees>43.005454726517200469970703125</LatitudeDegrees>
              <LongitudeDegrees>-1.7837687395513057708740234375</LongitudeDegrees>
            </Position>
            <AltitudeMeters>539.20001220703125</AltitudeMeters>
            <DistanceMeters>45467.584434774</DistanceMeters>
          </Trackpoint>
          <Trackpoint>
            <Time>2018-08-26T07:26:58.000Z</Time>
            <Position>
              <LatitudeDegrees>43.00543628633022308349609375</LatitudeDegrees>
              <LongitudeDegrees>-1.7836715094745159149169921875</LongitudeDegrees>
            </Position>
            <AltitudeMeters>539.4000244140625</AltitudeMeters>
            <DistanceMeters>45475.760046423</DistanceMeters>
          </Trackpoint>
          <Trackpoint>
            <Time>2018-08-26T07:26:59.000Z</Time>
            <Position>
              <LatitudeDegrees>43.00541792996227741241455078125</LatitudeDegrees>
              <LongitudeDegrees>-1.783575452864170074462890625</LongitudeDegrees>
            </Position>
            <AltitudeMeters>539.4000244140625</AltitudeMeters>
            <DistanceMeters>45483.841229062</DistanceMeters>
          </Trackpoint>
          <Trackpoint>
            <Time>2018-08-26T07:27:00.000Z</Time>
            <Position>
              <LatitudeDegrees>43.0054015852510929107666015625</LatitudeDegrees>
              <LongitudeDegrees>-1.78347746841609477996826171875</LongitudeDegrees>
            </Position>
            <AltitudeMeters>539.4000244140625</AltitudeMeters>
            <DistanceMeters>45492.021809513</DistanceMeters>
          </Trackpoint>
          <Trackpoint>
            <Time>2018-08-26T07:27:01.000Z</Time>
            <Position>
              <LatitudeDegrees>43.00538524053990840911865234375</LatitudeDegrees>
              <LongitudeDegrees>-1.78338007070124149322509765625</LongitudeDegrees>
            </Position>
            <AltitudeMeters>539.5999755859375</AltitudeMeters>
            <DistanceMeters>45500.155341343</DistanceMeters>
          </Trackpoint>
          <Trackpoint>
            <Time>2018-08-26T07:27:02.000Z</Time>
            <Position>
              <LatitudeDegrees>43.0053687281906604766845703125</LatitudeDegrees>
              <LongitudeDegrees>-1.78327965550124645233154296875</LongitudeDegrees>
            </Position>
            <AltitudeMeters>539.5999755859375</AltitudeMeters>
            <DistanceMeters>45508.532796454</DistanceMeters>
          </Trackpoint>
          <Trackpoint>
            <Time>2018-08-26T07:27:03.000Z</Time>
            <Position>
              <LatitudeDegrees>43.00535238347947597503662109375</LatitudeDegrees>
              <LongitudeDegrees>-1.7831776477396488189697265625</LongitudeDegrees>
            </Position>
            <AltitudeMeters>539.79998779296875</AltitudeMeters>
            <DistanceMeters>45517.032244174</DistanceMeters>
          </Trackpoint>
          <Trackpoint>
            <Time>2018-08-26T07:27:04.000Z</Time>
            <Position>
              <LatitudeDegrees>43.00533444620668888092041015625</LatitudeDegrees>
              <LongitudeDegrees>-1.78307480178773403167724609375</LongitudeDegrees>
            </Position>
            <AltitudeMeters>540</AltitudeMeters>
            <DistanceMeters>45525.638328475</DistanceMeters>
          </Trackpoint>
          <Trackpoint>
            <Time>2018-08-26T07:27:05.000Z</Time>
            <Position>
              <LatitudeDegrees>43.005315922200679779052734375</LatitudeDegrees>
              <LongitudeDegrees>-1.78297187201678752899169921875</LongitudeDegrees>
            </Position>
            <AltitudeMeters>540.20001220703125</AltitudeMeters>
            <DistanceMeters>45534.266419237</DistanceMeters>
          </Trackpoint>
          <Trackpoint>
            <Time>2018-08-26T07:27:06.000Z</Time>
            <Position>
              <LatitudeDegrees>43.00529756583273410797119140625</LatitudeDegrees>
              <LongitudeDegrees>-1.782868690788745880126953125</LongitudeDegrees>
            </Position>
            <AltitudeMeters>540.20001220703125</AltitudeMeters>
            <DistanceMeters>45542.909672237</DistanceMeters>
          </Trackpoint>
          <Trackpoint>
            <Time>2018-08-26T07:27:07.000Z</Time>
            <Position>
              <LatitudeDegrees>43.005277700722217559814453125</LatitudeDegrees>
              <LongitudeDegrees>-1.78276198916137218475341796875</LongitudeDegrees>
            </Position>
            <AltitudeMeters>540.20001220703125</AltitudeMeters>
            <DistanceMeters>45551.871452188</DistanceMeters>
          </Trackpoint>
          <Trackpoint>
            <Time>2018-08-26T07:27:08.000Z</Time>
            <Position>
              <LatitudeDegrees>43.0052554048597812652587890625</LatitudeDegrees>
              <LongitudeDegrees>-1.78265553899109363555908203125</LongitudeDegrees>
            </Position>
            <AltitudeMeters>540.20001220703125</AltitudeMeters>
            <DistanceMeters>45560.884474306</DistanceMeters>
          </Trackpoint>
          <Trackpoint>
            <Time>2018-08-26T07:27:09.000Z</Time>
            <Position>
              <LatitudeDegrees>43.005230091512203216552734375</LatitudeDegrees>
              <LongitudeDegrees>-1.78255059756338596343994140625</LongitudeDegrees>
            </Position>
            <AltitudeMeters>540.20001220703125</AltitudeMeters>
            <DistanceMeters>45569.878440327</DistanceMeters>
          </Trackpoint>
          <Trackpoint>
            <Time>2018-08-26T07:27:10.000Z</Time>
            <Position>
              <LatitudeDegrees>43.005200587213039398193359375</LatitudeDegrees>
              <LongitudeDegrees>-1.7824457399547100067138671875</LongitudeDegrees>
            </Position>
            <AltitudeMeters>540.20001220703125</AltitudeMeters>
            <DistanceMeters>45579.022755931</DistanceMeters>
          </Trackpoint>
          <Trackpoint>
            <Time>2018-08-26T07:27:11.000Z</Time>
            <Position>
              <LatitudeDegrees>43.00516747869551181793212890625</LatitudeDegrees>
              <LongitudeDegrees>-1.7823424749076366424560546875</LongitudeDegrees>
            </Position>
            <AltitudeMeters>540.20001220703125</AltitudeMeters>
            <DistanceMeters>45588.200585362</DistanceMeters>
          </Trackpoint>
          <Trackpoint>
            <Time>2018-08-26T07:27:12.000Z</Time>
            <Position>
              <LatitudeDegrees>43.00513294525444507598876953125</LatitudeDegrees>
              <LongitudeDegrees>-1.78224214352667331695556640625</LongitudeDegrees>
            </Position>
            <AltitudeMeters>540.20001220703125</AltitudeMeters>
            <DistanceMeters>45597.226622681</DistanceMeters>
          </Trackpoint>
          <Trackpoint>
            <Time>2018-08-26T07:27:13.000Z</Time>
            <Position>
              <LatitudeDegrees>43.005097992718219757080078125</LatitudeDegrees>
              <LongitudeDegrees>-1.78214407525956630706787109375</LongitudeDegrees>
            </Position>
            <AltitudeMeters>540.20001220703125</AltitudeMeters>
            <DistanceMeters>45606.106918711</DistanceMeters>
          </Trackpoint>
          <Trackpoint>
            <Time>2018-08-26T07:27:14.000Z</Time>
            <Position>
              <LatitudeDegrees>43.0050626210868358612060546875</LatitudeDegrees>
              <LongitudeDegrees>-1.7820484377443790435791015625</LongitudeDegrees>
            </Position>
            <AltitudeMeters>540.20001220703125</AltitudeMeters>
            <DistanceMeters>45614.830764438</DistanceMeters>
          </Trackpoint>
          <Trackpoint>
            <Time>2018-08-26T07:27:15.000Z</Time>
            <Position>
              <LatitudeDegrees>43.005027584731578826904296875</LatitudeDegrees>
              <LongitudeDegrees>-1.7819552309811115264892578125</LongitudeDegrees>
            </Position>
            <AltitudeMeters>540.20001220703125</AltitudeMeters>
            <DistanceMeters>45623.360967014</DistanceMeters>
          </Trackpoint>
          <Trackpoint>
            <Time>2018-08-26T07:27:16.000Z</Time>
            <Position>
              <LatitudeDegrees>43.00499196164309978485107421875</LatitudeDegrees>
              <LongitudeDegrees>-1.7818652093410491943359375</LongitudeDegrees>
            </Position>
            <AltitudeMeters>540.20001220703125</AltitudeMeters>
            <DistanceMeters>45631.69248534</DistanceMeters>
          </Trackpoint>
          <Trackpoint>
            <Time>2018-08-26T07:27:17.000Z</Time>
            <Position>
              <LatitudeDegrees>43.0049560032784938812255859375</LatitudeDegrees>
              <LongitudeDegrees>-1.78177644498646259307861328125</LongitudeDegrees>
            </Position>
            <AltitudeMeters>539.79998779296875</AltitudeMeters>
            <DistanceMeters>45639.952706743</DistanceMeters>
          </Trackpoint>
          <Trackpoint>
            <Time>2018-08-26T07:27:18.000Z</Time>
            <Position>
              <LatitudeDegrees>43.0049221403896808624267578125</LatitudeDegrees>
              <LongitudeDegrees>-1.78168793208897113800048828125</LongitudeDegrees>
            </Position>
            <AltitudeMeters>540</AltitudeMeters>
            <DistanceMeters>45648.084017813</DistanceMeters>
          </Trackpoint>
          <Trackpoint>
            <Time>2018-08-26T07:27:19.000Z</Time>
            <Position>
              <LatitudeDegrees>43.0048879422247409820556640625</LatitudeDegrees>
              <LongitudeDegrees>-1.7816001735627651214599609375</LongitudeDegrees>
            </Position>
            <AltitudeMeters>539.79998779296875</AltitudeMeters>
            <DistanceMeters>45656.178598387</DistanceMeters>
          </Trackpoint>
          <Trackpoint>
            <Time>2018-08-26T07:27:20.000Z</Time>
            <Position>
              <LatitudeDegrees>43.0048508942127227783203125</LatitudeDegrees>
              <LongitudeDegrees>-1.78151207976043224334716796875</LongitudeDegrees>
            </Position>
            <AltitudeMeters>539.79998779296875</AltitudeMeters>
            <DistanceMeters>45664.449744568</DistanceMeters>
          </Trackpoint>
          <Trackpoint>
            <Time>2018-08-26T07:27:21.000Z</Time>
            <Position>
              <LatitudeDegrees>43.0048141814768314361572265625</LatitudeDegrees>
              <LongitudeDegrees>-1.7814238183200359344482421875</LongitudeDegrees>
            </Position>
            <AltitudeMeters>539.79998779296875</AltitudeMeters>
            <DistanceMeters>45672.714883907</DistanceMeters>
          </Trackpoint>
          <Trackpoint>
            <Time>2018-08-26T07:27:22.000Z</Time>
            <Position>
              <LatitudeDegrees>43.00477721728384494781494140625</LatitudeDegrees>
              <LongitudeDegrees>-1.78133438341319561004638671875</LongitudeDegrees>
            </Position>
            <AltitudeMeters>539.79998779296875</AltitudeMeters>
            <DistanceMeters>45681.076154853</DistanceMeters>
          </Trackpoint>
          <Trackpoint>
            <Time>2018-08-26T07:27:23.000Z</Time>
            <Position>
              <LatitudeDegrees>43.00474050454795360565185546875</LatitudeDegrees>
              <LongitudeDegrees>-1.78124268539249897003173828125</LongitudeDegrees>
            </Position>
            <AltitudeMeters>539.79998779296875</AltitudeMeters>
            <DistanceMeters>45689.58515908</DistanceMeters>
          </Trackpoint>
          <Trackpoint>
            <Time>2018-08-26T07:27:24.000Z</Time>
            <Position>
              <LatitudeDegrees>43.00470328889787197113037109375</LatitudeDegrees>
              <LongitudeDegrees>-1.78115014918148517608642578125</LongitudeDegrees>
            </Position>
            <AltitudeMeters>539.79998779296875</AltitudeMeters>
            <DistanceMeters>45698.180744311</DistanceMeters>
          </Trackpoint>
          <Trackpoint>
            <Time>2018-08-26T07:27:25.000Z</Time>
            <Position>
              <LatitudeDegrees>43.0046659894287586212158203125</LatitudeDegrees>
              <LongitudeDegrees>-1.7810573615133762359619140625</LongitudeDegrees>
            </Position>
            <AltitudeMeters>539.79998779296875</AltitudeMeters>
            <DistanceMeters>45706.798886729</DistanceMeters>
          </Trackpoint>
          <Trackpoint>
            <Time>2018-08-26T07:27:26.000Z</Time>
            <Position>
              <LatitudeDegrees>43.00462936051189899444580078125</LatitudeDegrees>
              <LongitudeDegrees>-1.7809644900262355804443359375</LongitudeDegrees>
            </Position>
            <AltitudeMeters>539.79998779296875</AltitudeMeters>
            <DistanceMeters>45715.388166359</DistanceMeters>
          </Trackpoint>
          <Trackpoint>
            <Time>2018-08-26T07:27:27.000Z</Time>
            <Position>
              <LatitudeDegrees>43.00459432415664196014404296875</LatitudeDegrees>
              <LongitudeDegrees>-1.7808746360242366790771484375</LongitudeDegrees>
            </Position>
            <AltitudeMeters>540</AltitudeMeters>
            <DistanceMeters>45723.676762234</DistanceMeters>
          </Trackpoint>
          <Trackpoint>
            <Time>2018-08-26T07:27:28.000Z</Time>
            <Position>
              <LatitudeDegrees>43.004559539258480072021484375</LatitudeDegrees>
              <LongitudeDegrees>-1.78078587166965007781982421875</LongitudeDegrees>
            </Position>
            <AltitudeMeters>540</AltitudeMeters>
            <DistanceMeters>45731.873883608</DistanceMeters>
          </Trackpoint>
          <Trackpoint>
            <Time>2018-08-26T07:27:29.000Z</Time>
            <Position>
              <LatitudeDegrees>43.0045255087316036224365234375</LatitudeDegrees>
              <LongitudeDegrees>-1.7806982807815074920654296875</LongitudeDegrees>
            </Position>
            <AltitudeMeters>540.20001220703125</AltitudeMeters>
            <DistanceMeters>45739.947240516</DistanceMeters>
          </Trackpoint>
          <Trackpoint>
            <Time>2018-08-26T07:27:30.000Z</Time>
            <Position>
              <LatitudeDegrees>43.00449214875698089599609375</LatitudeDegrees>
              <LongitudeDegrees>-1.78061194717884063720703125</LongitudeDegrees>
            </Position>
            <AltitudeMeters>540</AltitudeMeters>
            <DistanceMeters>45747.89490588</DistanceMeters>
          </Trackpoint>
          <Trackpoint>
            <Time>2018-08-26T07:27:31.000Z</Time>
            <Position>
              <LatitudeDegrees>43.0044611357152462005615234375</LatitudeDegrees>
              <LongitudeDegrees>-1.78052653558552265167236328125</LongitudeDegrees>
            </Position>
            <AltitudeMeters>540.20001220703125</AltitudeMeters>
            <DistanceMeters>45755.656907557</DistanceMeters>
          </Trackpoint>
          <Trackpoint>
            <Time>2018-08-26T07:27:32.000Z</Time>
            <Position>
              <LatitudeDegrees>43.00443104468286037445068359375</LatitudeDegrees>
              <LongitudeDegrees>-1.7804401181638240814208984375</LongitudeDegrees>
            </Position>
            <AltitudeMeters>540.20001220703125</AltitudeMeters>
            <DistanceMeters>45763.447939186</DistanceMeters>
          </Trackpoint>
          <Trackpoint>
            <Time>2018-08-26T07:27:33.000Z</Time>
            <Position>
              <LatitudeDegrees>43.004400618374347686767578125</LatitudeDegrees>
              <LongitudeDegrees>-1.7803536169230937957763671875</LongitudeDegrees>
            </Position>
            <AltitudeMeters>540.4000244140625</AltitudeMeters>
            <DistanceMeters>45771.260961442</DistanceMeters>
          </Trackpoint>
          <Trackpoint>
            <Time>2018-08-26T07:27:34.000Z</Time>
            <Position>
              <LatitudeDegrees>43.004371114075183868408203125</LatitudeDegrees>
              <LongitudeDegrees>-1.7802681215107440948486328125</LongitudeDegrees>
            </Position>
            <AltitudeMeters>540.5999755859375</AltitudeMeters>
            <DistanceMeters>45778.956365351</DistanceMeters>
          </Trackpoint>
          <Trackpoint>
            <Time>2018-08-26T07:27:35.000Z</Time>
            <Position>
              <LatitudeDegrees>43.00434370525181293487548828125</LatitudeDegrees>
              <LongitudeDegrees>-1.780179440975189208984375</LongitudeDegrees>
            </Position>
            <AltitudeMeters>540.79998779296875</AltitudeMeters>
            <DistanceMeters>45786.792468963</DistanceMeters>
          </Trackpoint>
          <Trackpoint>
            <Time>2018-08-26T07:27:36.000Z</Time>
            <Position>
              <LatitudeDegrees>43.00431914627552032470703125</LatitudeDegrees>
              <LongitudeDegrees>-1.78008933551609516143798828125</LongitudeDegrees>
            </Position>
            <AltitudeMeters>541</AltitudeMeters>
            <DistanceMeters>45794.6193482</DistanceMeters>
          </Trackpoint>
          <Trackpoint>
            <Time>2018-08-26T07:27:37.000Z</Time>
            <Position>
              <LatitudeDegrees>43.00429509021341800689697265625</LatitudeDegrees>
              <LongitudeDegrees>-1.779996715486049652099609375</LongitudeDegrees>
            </Position>
            <AltitudeMeters>541.20001220703125</AltitudeMeters>
            <DistanceMeters>45802.619672058</DistanceMeters>
          </Trackpoint>
          <Trackpoint>
            <Time>2018-08-26T07:27:38.000Z</Time>
            <Position>
              <LatitudeDegrees>43.00427095033228397369384765625</LatitudeDegrees>
              <LongitudeDegrees>-1.779902167618274688720703125</LongitudeDegrees>
            </Position>
            <AltitudeMeters>541.4000244140625</AltitudeMeters>
            <DistanceMeters>45810.77150207</DistanceMeters>
          </Trackpoint>
          <Trackpoint>
            <Time>2018-08-26T07:27:39.000Z</Time>
            <Position>
              <LatitudeDegrees>43.004249744117259979248046875</LatitudeDegrees>
              <LongitudeDegrees>-1.7798057757318019866943359375</LongitudeDegrees>
            </Position>
            <AltitudeMeters>541.4000244140625</AltitudeMeters>
            <DistanceMeters>45818.964766883</DistanceMeters>
          </Trackpoint>
          <Trackpoint>
            <Time>2018-08-26T07:27:40.000Z</Time>
            <Position>
              <LatitudeDegrees>43.0042331479489803314208984375</LatitudeDegrees>
              <LongitudeDegrees>-1.77970846183598041534423828125</LongitudeDegrees>
            </Position>
            <AltitudeMeters>541.5999755859375</AltitudeMeters>
            <DistanceMeters>45827.098298713</DistanceMeters>
          </Trackpoint>
          <Trackpoint>
            <Time>2018-08-26T07:27:41.000Z</Time>
            <Position>
              <LatitudeDegrees>43.00421990454196929931640625</LatitudeDegrees>
              <LongitudeDegrees>-1.7796119861304759979248046875</LongitudeDegrees>
            </Position>
            <AltitudeMeters>541.79998779296875</AltitudeMeters>
            <DistanceMeters>45835.088457688</DistanceMeters>
          </Trackpoint>
          <Trackpoint>
            <Time>2018-08-26T07:27:42.000Z</Time>
            <Position>
              <LatitudeDegrees>43.00421311520040035247802734375</LatitudeDegrees>
              <LongitudeDegrees>-1.77951416932046413421630859375</LongitudeDegrees>
            </Position>
            <AltitudeMeters>542</AltitudeMeters>
            <DistanceMeters>45843.0865238</DistanceMeters>
          </Trackpoint>
          <Trackpoint>
            <Time>2018-08-26T07:27:43.000Z</Time>
            <Position>
              <LatitudeDegrees>43.0042110197246074676513671875</LatitudeDegrees>
              <LongitudeDegrees>-1.77941308356821537017822265625</LongitudeDegrees>
            </Position>
            <AltitudeMeters>542</AltitudeMeters>
            <DistanceMeters>45851.317724415</DistanceMeters>
          </Trackpoint>
          <Trackpoint>
            <Time>2018-08-26T07:27:44.000Z</Time>
            <Position>
              <LatitudeDegrees>43.00421110354363918304443359375</LatitudeDegrees>
              <LongitudeDegrees>-1.77931115962564945220947265625</LongitudeDegrees>
            </Position>
            <AltitudeMeters>542.20001220703125</AltitudeMeters>
            <DistanceMeters>45859.613942991</DistanceMeters>
          </Trackpoint>
          <Trackpoint>
            <Time>2018-08-26T07:27:45.000Z</Time>
            <Position>
              <LatitudeDegrees>43.00421579740941524505615234375</LatitudeDegrees>
              <LongitudeDegrees>-1.779208816587924957275390625</LongitudeDegrees>
            </Position>
            <AltitudeMeters>542.20001220703125</AltitudeMeters>
            <DistanceMeters>45867.961162279</DistanceMeters>
          </Trackpoint>
          <Trackpoint>
            <Time>2018-08-26T07:27:46.000Z</Time>
            <Position>
              <LatitudeDegrees>43.00422417931258678436279296875</LatitudeDegrees>
              <LongitudeDegrees>-1.77910714410245418548583984375</LongitudeDegrees>
            </Position>
            <AltitudeMeters>542.20001220703125</AltitudeMeters>
            <DistanceMeters>45876.289428435</DistanceMeters>
          </Trackpoint>
          <Trackpoint>
            <Time>2018-08-26T07:27:47.000Z</Time>
            <Position>
              <LatitudeDegrees>43.004235662519931793212890625</LatitudeDegrees>
              <LongitudeDegrees>-1.77900974638760089874267578125</LongitudeDegrees>
            </Position>
            <AltitudeMeters>542.4000244140625</AltitudeMeters>
            <DistanceMeters>45884.319607504</DistanceMeters>
          </Trackpoint>
          <Trackpoint>
            <Time>2018-08-26T07:27:48.000Z</Time>
            <Position>
              <LatitudeDegrees>43.00425200723111629486083984375</LatitudeDegrees>
              <LongitudeDegrees>-1.77890874445438385009765625</LongitudeDegrees>
            </Position>
            <AltitudeMeters>542.4000244140625</AltitudeMeters>
            <DistanceMeters>45892.740068313</DistanceMeters>
          </Trackpoint>
          <Trackpoint>
            <Time>2018-08-26T07:27:49.000Z</Time>
            <Position>
              <LatitudeDegrees>43.00427162088453769683837890625</LatitudeDegrees>
              <LongitudeDegrees>-1.77881327457726001739501953125</LongitudeDegrees>
            </Position>
            <AltitudeMeters>542.5999755859375</AltitudeMeters>
            <DistanceMeters>45900.811187905</DistanceMeters>
          </Trackpoint>
          <Trackpoint>
            <Time>2018-08-26T07:27:50.000Z</Time>
            <Position>
              <LatitudeDegrees>43.00429240800440311431884765625</LatitudeDegrees>
              <LongitudeDegrees>-1.778717301785945892333984375</LongitudeDegrees>
            </Position>
            <AltitudeMeters>542.5999755859375</AltitudeMeters>
            <DistanceMeters>45908.95803158</DistanceMeters>
          </Trackpoint>
          <Trackpoint>
            <Time>2018-08-26T07:27:51.000Z</Time>
            <Position>
              <LatitudeDegrees>43.00431520678102970123291015625</LatitudeDegrees>
              <LongitudeDegrees>-1.778622083365917205810546875</LongitudeDegrees>
            </Position>
            <AltitudeMeters>542.5999755859375</AltitudeMeters>
            <DistanceMeters>45917.112630462</DistanceMeters>
          </Trackpoint>
          <Trackpoint>
            <Time>2018-08-26T07:27:52.000Z</Time>
            <Position>
              <LatitudeDegrees>43.0043390952050685882568359375</LatitudeDegrees>
              <LongitudeDegrees>-1.77853113971650600433349609375</LongitudeDegrees>
            </Position>
            <AltitudeMeters>542.79998779296875</AltitudeMeters>
            <DistanceMeters>45924.977490515</DistanceMeters>
          </Trackpoint>
          <Trackpoint>
            <Time>2018-08-26T07:27:53.000Z</Time>
            <Position>
              <LatitudeDegrees>43.00436382181942462921142578125</LatitudeDegrees>
              <LongitudeDegrees>-1.77844346500933170318603515625</LongitudeDegrees>
            </Position>
            <AltitudeMeters>542.79998779296875</AltitudeMeters>
            <DistanceMeters>45932.625812893</DistanceMeters>
          </Trackpoint>
          <Trackpoint>
            <Time>2018-08-26T07:27:54.000Z</Time>
            <Position>
              <LatitudeDegrees>43.0043890513479709625244140625</LatitudeDegrees>
              <LongitudeDegrees>-1.77835495211184024810791015625</LongitudeDegrees>
            </Position>
            <AltitudeMeters>542.79998779296875</AltitudeMeters>
            <DistanceMeters>45940.358675637</DistanceMeters>
          </Trackpoint>
          <Trackpoint>
            <Time>2018-08-26T07:27:55.000Z</Time>
            <Position>
              <LatitudeDegrees>43.00441713072359561920166015625</LatitudeDegrees>
              <LongitudeDegrees>-1.778269372880458831787109375</LongitudeDegrees>
            </Position>
            <AltitudeMeters>543</AltitudeMeters>
            <DistanceMeters>45947.992816935</DistanceMeters>
          </Trackpoint>
          <Trackpoint>
            <Time>2018-08-26T07:27:56.000Z</Time>
            <Position>
              <LatitudeDegrees>43.00444831140339374542236328125</LatitudeDegrees>
              <LongitudeDegrees>-1.7781847156584262847900390625</LongitudeDegrees>
            </Position>
            <AltitudeMeters>543.20001220703125</AltitudeMeters>
            <DistanceMeters>45955.708143495</DistanceMeters>
          </Trackpoint>
          <Trackpoint>
            <Time>2018-08-26T07:27:57.000Z</Time>
            <Position>
              <LatitudeDegrees>43.0044819228351116180419921875</LatitudeDegrees>
              <LongitudeDegrees>-1.778103746473789215087890625</LongitudeDegrees>
            </Position>
            <AltitudeMeters>543.4000244140625</AltitudeMeters>
            <DistanceMeters>45963.28648673</DistanceMeters>
          </Trackpoint>
          <Trackpoint>
            <Time>2018-08-26T07:27:58.000Z</Time>
            <Position>
              <LatitudeDegrees>43.004517965018749237060546875</LatitudeDegrees>
              <LongitudeDegrees>-1.7780234478414058685302734375</LongitudeDegrees>
            </Position>
            <AltitudeMeters>543.4000244140625</AltitudeMeters>
            <DistanceMeters>45970.956031563</DistanceMeters>
          </Trackpoint>
          <Trackpoint>
            <Time>2018-08-26T07:27:59.000Z</Time>
            <Position>
              <LatitudeDegrees>43.00455652177333831787109375</LatitudeDegrees>
              <LongitudeDegrees>-1.77794407121837139129638671875</LongitudeDegrees>
            </Position>
            <AltitudeMeters>543.5999755859375</AltitudeMeters>
            <DistanceMeters>45978.712796311</DistanceMeters>
          </Trackpoint>
          <Trackpoint>
            <Time>2018-08-26T07:28:00.000Z</Time>
            <Position>
              <LatitudeDegrees>43.00459365360438823699951171875</LatitudeDegrees>
              <LongitudeDegrees>-1.77786377258598804473876953125</LongitudeDegrees>
            </Position>
            <AltitudeMeters>543.79998779296875</AltitudeMeters>
            <DistanceMeters>45986.446242909</DistanceMeters>
          </Trackpoint>
          <Trackpoint>
            <Time>2018-08-26T07:28:01.000Z</Time>
            <Position>
              <LatitudeDegrees>43.00462894141674041748046875</LatitudeDegrees>
              <LongitudeDegrees>-1.77778213284909725189208984375</LongitudeDegrees>
            </Position>
            <AltitudeMeters>543.79998779296875</AltitudeMeters>
            <DistanceMeters>45994.166249679</DistanceMeters>
          </Trackpoint>
          <Trackpoint>
            <Time>2018-08-26T07:28:02.000Z</Time>
            <Position>
              <LatitudeDegrees>43.00466171465814113616943359375</LatitudeDegrees>
              <LongitudeDegrees>-1.77769965492188930511474609375</LongitudeDegrees>
            </Position>
            <AltitudeMeters>544</AltitudeMeters>
            <DistanceMeters>46001.80630296</DistanceMeters>
          </Trackpoint>
          <Trackpoint>
            <Time>2018-08-26T07:28:03.000Z</Time>
            <Position>
              <LatitudeDegrees>43.00469138659536838531494140625</LatitudeDegrees>
              <LongitudeDegrees>-1.77761365659534931182861328125</LongitudeDegrees>
            </Position>
            <AltitudeMeters>544.20001220703125</AltitudeMeters>
            <DistanceMeters>46009.546169052</DistanceMeters>
          </Trackpoint>
          <Trackpoint>
            <Time>2018-08-26T07:28:04.000Z</Time>
            <Position>
              <LatitudeDegrees>43.00471787340939044952392578125</LatitudeDegrees>
              <LongitudeDegrees>-1.77752480842173099517822265625</LongitudeDegrees>
            </Position>
            <AltitudeMeters>544.20001220703125</AltitudeMeters>
            <DistanceMeters>46017.35572322</DistanceMeters>
          </Trackpoint>
          <Trackpoint>
            <Time>2018-08-26T07:28:05.000Z</Time>
            <Position>
              <LatitudeDegrees>43.0047417618334293365478515625</LatitudeDegrees>
              <LongitudeDegrees>-1.77743411622941493988037109375</LongitudeDegrees>
            </Position>
            <AltitudeMeters>544.4000244140625</AltitudeMeters>
            <DistanceMeters>46025.202191292</DistanceMeters>
          </Trackpoint>
          <Trackpoint>
            <Time>2018-08-26T07:28:06.000Z</Time>
            <Position>
              <LatitudeDegrees>43.00476380623877048492431640625</LatitudeDegrees>
              <LongitudeDegrees>-1.777343340218067169189453125</LongitudeDegrees>
            </Position>
            <AltitudeMeters>544.4000244140625</AltitudeMeters>
            <DistanceMeters>46032.987425591</DistanceMeters>
          </Trackpoint>
          <Trackpoint>
            <Time>2018-08-26T07:28:07.000Z</Time>
            <Position>
              <LatitudeDegrees>43.004782833158969879150390625</LatitudeDegrees>
              <LongitudeDegrees>-1.777257509529590606689453125</LongitudeDegrees>
            </Position>
            <AltitudeMeters>544.5999755859375</AltitudeMeters>
            <DistanceMeters>46040.287803058</DistanceMeters>
          </Trackpoint>
          <Trackpoint>
            <Time>2018-08-26T07:28:08.000Z</Time>
            <Position>
              <LatitudeDegrees>43.004798926413059234619140625</LatitudeDegrees>
              <LongitudeDegrees>-1.77716606296598911285400390625</LongitudeDegrees>
            </Position>
            <AltitudeMeters>544.5999755859375</AltitudeMeters>
            <DistanceMeters>46047.943206126</DistanceMeters>
          </Trackpoint>
          <Trackpoint>
            <Time>2018-08-26T07:28:09.000Z</Time>
            <Position>
              <LatitudeDegrees>43.00481225363910198211669921875</LatitudeDegrees>
              <LongitudeDegrees>-1.77707419730722904205322265625</LongitudeDegrees>
            </Position>
            <AltitudeMeters>544.5999755859375</AltitudeMeters>
            <DistanceMeters>46055.566694303</DistanceMeters>
          </Trackpoint>
          <Trackpoint>
            <Time>2018-08-26T07:28:10.000Z</Time>
            <Position>
              <LatitudeDegrees>43.0048218928277492523193359375</LatitudeDegrees>
              <LongitudeDegrees>-1.77698501385748386383056640625</LongitudeDegrees>
            </Position>
            <AltitudeMeters>544.5999755859375</AltitudeMeters>
            <DistanceMeters>46062.904701242</DistanceMeters>
          </Trackpoint>
          <Trackpoint>
            <Time>2018-08-26T07:28:11.000Z</Time>
            <Position>
              <LatitudeDegrees>43.004829771816730499267578125</LatitudeDegrees>
              <LongitudeDegrees>-1.776892729103565216064453125</LongitudeDegrees>
            </Position>
            <AltitudeMeters>544.5999755859375</AltitudeMeters>
            <DistanceMeters>46070.467538289</DistanceMeters>
          </Trackpoint>
          <Trackpoint>
            <Time>2018-08-26T07:28:12.000Z</Time>
            <Position>
              <LatitudeDegrees>43.0048363097012042999267578125</LatitudeDegrees>
              <LongitudeDegrees>-1.77679759450256824493408203125</LongitudeDegrees>
            </Position>
            <AltitudeMeters>544.79998779296875</AltitudeMeters>
            <DistanceMeters>46078.245229598</DistanceMeters>
          </Trackpoint>
          <Trackpoint>
            <Time>2018-08-26T07:28:13.000Z</Time>
            <Position>
              <LatitudeDegrees>43.00484024919569492340087890625</LatitudeDegrees>
              <LongitudeDegrees>-1.7767054773867130279541015625</LongitudeDegrees>
            </Position>
            <AltitudeMeters>544.79998779296875</AltitudeMeters>
            <DistanceMeters>46085.755947776</DistanceMeters>
          </Trackpoint>
          <Trackpoint>
            <Time>2018-08-26T07:28:14.000Z</Time>
            <Position>
              <LatitudeDegrees>43.0048428475856781005859375</LatitudeDegrees>
              <LongitudeDegrees>-1.7766152881085872650146484375</LongitudeDegrees>
            </Position>
            <AltitudeMeters>544.79998779296875</AltitudeMeters>
            <DistanceMeters>46093.101949193</DistanceMeters>
          </Trackpoint>
          <Trackpoint>
            <Time>2018-08-26T07:28:15.000Z</Time>
            <Position>
              <LatitudeDegrees>43.0048443563282489776611328125</LatitudeDegrees>
              <LongitudeDegrees>-1.77652233280241489410400390625</LongitudeDegrees>
            </Position>
            <AltitudeMeters>545</AltitudeMeters>
            <DistanceMeters>46100.669560759</DistanceMeters>
          </Trackpoint>
          <Trackpoint>
            <Time>2018-08-26T07:28:16.000Z</Time>
            <Position>
              <LatitudeDegrees>43.0048446916043758392333984375</LatitudeDegrees>
              <LongitudeDegrees>-1.77643365226686000823974609375</LongitudeDegrees>
            </Position>
            <AltitudeMeters>545</AltitudeMeters>
            <DistanceMeters>46107.888464495</DistanceMeters>
          </Trackpoint>
          <Trackpoint>
            <Time>2018-08-26T07:28:17.000Z</Time>
            <Position>
              <LatitudeDegrees>43.004846535623073577880859375</LatitudeDegrees>
              <LongitudeDegrees>-1.77634723484516143798828125</LongitudeDegrees>
            </Position>
            <AltitudeMeters>545</AltitudeMeters>
            <DistanceMeters>46114.925576063</DistanceMeters>
          </Trackpoint>
          <Trackpoint>
            <Time>2018-08-26T07:28:18.000Z</Time>
            <Position>
              <LatitudeDegrees>43.0048477090895175933837890625</LatitudeDegrees>
              <LongitudeDegrees>-1.77626651711761951446533203125</LongitudeDegrees>
            </Position>
            <AltitudeMeters>545</AltitudeMeters>
            <DistanceMeters>46121.496864031</DistanceMeters>
          </Trackpoint>
          <Trackpoint>
            <Time>2018-08-26T07:28:19.000Z</Time>
            <Position>
              <LatitudeDegrees>43.00484620034694671630859375</LatitudeDegrees>
              <LongitudeDegrees>-1.77618588320910930633544921875</LongitudeDegrees>
            </Position>
            <AltitudeMeters>545</AltitudeMeters>
            <DistanceMeters>46128.061965315</DistanceMeters>
          </Trackpoint>
          <Trackpoint>
            <Time>2018-08-26T07:28:20.000Z</Time>
            <Position>
              <LatitudeDegrees>43.00484863109886646270751953125</LatitudeDegrees>
              <LongitudeDegrees>-1.7760942690074443817138671875</LongitudeDegrees>
            </Position>
            <AltitudeMeters>545</AltitudeMeters>
            <DistanceMeters>46135.523831794</DistanceMeters>
          </Trackpoint>
          <Trackpoint>
            <Time>2018-08-26T07:28:21.000Z</Time>
            <Position>
              <LatitudeDegrees>43.0048547498881816864013671875</LatitudeDegrees>
              <LongitudeDegrees>-1.77599661983549594879150390625</LongitudeDegrees>
            </Position>
            <AltitudeMeters>545</AltitudeMeters>
            <DistanceMeters>46143.501549436</DistanceMeters>
          </Trackpoint>
          <Trackpoint>
            <Time>2018-08-26T07:28:22.000Z</Time>
            <Position>
              <LatitudeDegrees>43.004859946668148040771484375</LatitudeDegrees>
              <LongitudeDegrees>-1.77589737810194492340087890625</LongitudeDegrees>
            </Position>
            <AltitudeMeters>545.20001220703125</AltitudeMeters>
            <DistanceMeters>46151.600591064</DistanceMeters>
          </Trackpoint>
          <Trackpoint>
            <Time>2018-08-26T07:28:23.000Z</Time>
            <Position>
              <LatitudeDegrees>43.00486589781939983367919921875</LatitudeDegrees>
              <LongitudeDegrees>-1.77580274641513824462890625</LongitudeDegrees>
            </Position>
            <AltitudeMeters>545.20001220703125</AltitudeMeters>
            <DistanceMeters>46159.331701979</DistanceMeters>
          </Trackpoint>
          <Trackpoint>
            <Time>2018-08-26T07:28:24.000Z</Time>
            <Position>
              <LatitudeDegrees>43.00487377680838108062744140625</LatitudeDegrees>
              <LongitudeDegrees>-1.77570744417607784271240234375</LongitudeDegrees>
            </Position>
            <AltitudeMeters>545.20001220703125</AltitudeMeters>
            <DistanceMeters>46167.138943233</DistanceMeters>
          </Trackpoint>
          <Trackpoint>
            <Time>2018-08-26T07:28:25.000Z</Time>
            <Position>
              <LatitudeDegrees>43.00488375127315521240234375</LatitudeDegrees>
              <LongitudeDegrees>-1.77561230957508087158203125</LongitudeDegrees>
            </Position>
            <AltitudeMeters>545.20001220703125</AltitudeMeters>
            <DistanceMeters>46174.961206204</DistanceMeters>
          </Trackpoint>
          <Trackpoint>
            <Time>2018-08-26T07:28:26.000Z</Time>
            <Position>
              <LatitudeDegrees>43.00489389337599277496337890625</LatitudeDegrees>
              <LongitudeDegrees>-1.77552136592566967010498046875</LongitudeDegrees>
            </Position>
            <AltitudeMeters>545.20001220703125</AltitudeMeters>
            <DistanceMeters>46182.448442982</DistanceMeters>
          </Trackpoint>
          <Trackpoint>
            <Time>2018-08-26T07:28:27.000Z</Time>
            <Position>
              <LatitudeDegrees>43.004902862012386322021484375</LatitudeDegrees>
              <LongitudeDegrees>-1.7754304222762584686279296875</LongitudeDegrees>
            </Position>
            <AltitudeMeters>545.20001220703125</AltitudeMeters>
            <DistanceMeters>46189.917566911</DistanceMeters>
          </Trackpoint>
          <Trackpoint>
            <Time>2018-08-26T07:28:28.000Z</Time>
            <Position>
              <LatitudeDegrees>43.00491325557231903076171875</LatitudeDegrees>
              <LongitudeDegrees>-1.77533964626491069793701171875</LongitudeDegrees>
            </Position>
            <AltitudeMeters>545.20001220703125</AltitudeMeters>
            <DistanceMeters>46197.396356485</DistanceMeters>
          </Trackpoint>
          <Trackpoint>
            <Time>2018-08-26T07:28:29.000Z</Time>
            <Position>
              <LatitudeDegrees>43.0049261637032032012939453125</LatitudeDegrees>
              <LongitudeDegrees>-1.77524928934872150421142578125</LongitudeDegrees>
            </Position>
            <AltitudeMeters>545.20001220703125</AltitudeMeters>
            <DistanceMeters>46204.890223671</DistanceMeters>
          </Trackpoint>
          <Trackpoint>
            <Time>2018-08-26T07:28:30.000Z</Time>
            <Position>
              <LatitudeDegrees>43.00493873655796051025390625</LatitudeDegrees>
              <LongitudeDegrees>-1.775158680975437164306640625</LongitudeDegrees>
            </Position>
            <AltitudeMeters>545.4000244140625</AltitudeMeters>
            <DistanceMeters>46212.396732647</DistanceMeters>
          </Trackpoint>
          <Trackpoint>
            <Time>2018-08-26T07:28:31.000Z</Time>
            <Position>
              <LatitudeDegrees>43.00495323725044727325439453125</LatitudeDegrees>
              <LongitudeDegrees>-1.7750596068799495697021484375</LongitudeDegrees>
            </Position>
            <AltitudeMeters>545.4000244140625</AltitudeMeters>
            <DistanceMeters>46220.6213483</DistanceMeters>
          </Trackpoint>
          <Trackpoint>
            <Time>2018-08-26T07:28:32.000Z</Time>
            <Position>
              <LatitudeDegrees>43.004973269999027252197265625</LatitudeDegrees>
              <LongitudeDegrees>-1.77496748976409435272216796875</LongitudeDegrees>
            </Position>
            <AltitudeMeters>545.4000244140625</AltitudeMeters>
            <DistanceMeters>46228.443611271</DistanceMeters>
          </Trackpoint>
          <Trackpoint>
            <Time>2018-08-26T07:28:33.000Z</Time>
            <Position>
              <LatitudeDegrees>43.00499640405178070068359375</LatitudeDegrees>
              <LongitudeDegrees>-1.77487042732536792755126953125</LongitudeDegrees>
            </Position>
            <AltitudeMeters>545.5999755859375</AltitudeMeters>
            <DistanceMeters>46236.752881064</DistanceMeters>
          </Trackpoint>
          <Trackpoint>
            <Time>2018-08-26T07:28:34.000Z</Time>
            <Position>
              <LatitudeDegrees>43.00501945428550243377685546875</LatitudeDegrees>
              <LongitudeDegrees>-1.77476406097412109375</LongitudeDegrees>
            </Position>
            <AltitudeMeters>545.79998779296875</AltitudeMeters>
            <DistanceMeters>46245.781919226</DistanceMeters>
          </Trackpoint>
          <Trackpoint>
            <Time>2018-08-26T07:28:35.000Z</Time>
            <Position>
              <LatitudeDegrees>43.00504200160503387451171875</LatitudeDegrees>
              <LongitudeDegrees>-1.77466507069766521453857421875</LongitudeDegrees>
            </Position>
            <AltitudeMeters>545.79998779296875</AltitudeMeters>
            <DistanceMeters>46254.221126115</DistanceMeters>
          </Trackpoint>
          <Trackpoint>
            <Time>2018-08-26T07:28:36.000Z</Time>
            <Position>
              <LatitudeDegrees>43.00506211817264556884765625</LatitudeDegrees>
              <LongitudeDegrees>-1.7745633982121944427490234375</LongitudeDegrees>
            </Position>
            <AltitudeMeters>545.79998779296875</AltitudeMeters>
            <DistanceMeters>46262.79462145</DistanceMeters>
          </Trackpoint>
          <Trackpoint>
            <Time>2018-08-26T07:28:37.000Z</Time>
            <Position>
              <LatitudeDegrees>43.005083911120891571044921875</LatitudeDegrees>
              <LongitudeDegrees>-1.7744651623070240020751953125</LongitudeDegrees>
            </Position>
            <AltitudeMeters>546</AltitudeMeters>
            <DistanceMeters>46271.150490708</DistanceMeters>
          </Trackpoint>
          <Trackpoint>
            <Time>2018-08-26T07:28:38.000Z</Time>
            <Position>
              <LatitudeDegrees>43.00510427914559841156005859375</LatitudeDegrees>
              <LongitudeDegrees>-1.77436818368732929229736328125</LongitudeDegrees>
            </Position>
            <AltitudeMeters>546</AltitudeMeters>
            <DistanceMeters>46279.363020219</DistanceMeters>
          </Trackpoint>
          <Trackpoint>
            <Time>2018-08-26T07:28:39.000Z</Time>
            <Position>
              <LatitudeDegrees>43.00512456335127353668212890625</LatitudeDegrees>
              <LongitudeDegrees>-1.774272210896015167236328125</LongitudeDegrees>
            </Position>
            <AltitudeMeters>546</AltitudeMeters>
            <DistanceMeters>46287.494331289</DistanceMeters>
          </Trackpoint>
          <Trackpoint>
            <Time>2018-08-26T07:28:40.000Z</Time>
            <Position>
              <LatitudeDegrees>43.00514451228082180023193359375</LatitudeDegrees>
              <LongitudeDegrees>-1.77418093197047710418701171875</LongitudeDegrees>
            </Position>
            <AltitudeMeters>546</AltitudeMeters>
            <DistanceMeters>46295.248185103</DistanceMeters>
          </Trackpoint>
          <Trackpoint>
            <Time>2018-08-26T07:28:41.000Z</Time>
            <Position>
              <LatitudeDegrees>43.005163371562957763671875</LatitudeDegrees>
              <LongitudeDegrees>-1.77408705465495586395263671875</LongitudeDegrees>
            </Position>
            <AltitudeMeters>546.20001220703125</AltitudeMeters>
            <DistanceMeters>46303.171954504</DistanceMeters>
          </Trackpoint>
          <Trackpoint>
            <Time>2018-08-26T07:28:42.000Z</Time>
            <Position>
              <LatitudeDegrees>43.00518223084509372711181640625</LatitudeDegrees>
              <LongitudeDegrees>-1.77398814819753170013427734375</LongitudeDegrees>
            </Position>
            <AltitudeMeters>546.20001220703125</AltitudeMeters>
            <DistanceMeters>46311.490999272</DistanceMeters>
          </Trackpoint>
          <Trackpoint>
            <Time>2018-08-26T07:28:43.000Z</Time>
            <Position>
              <LatitudeDegrees>43.00520217977464199066162109375</LatitudeDegrees>
              <LongitudeDegrees>-1.77388890646398067474365234375</LongitudeDegrees>
            </Position>
            <AltitudeMeters>546.20001220703125</AltitudeMeters>
            <DistanceMeters>46319.867915414</DistanceMeters>
          </Trackpoint>
          <Trackpoint>
            <Time>2018-08-26T07:28:44.000Z</Time>
            <Position>
              <LatitudeDegrees>43.0052195303142070770263671875</LatitudeDegrees>
              <LongitudeDegrees>-1.773784719407558441162109375</LongitudeDegrees>
            </Position>
            <AltitudeMeters>546.20001220703125</AltitudeMeters>
            <DistanceMeters>46328.56532597</DistanceMeters>
          </Trackpoint>
          <Trackpoint>
            <Time>2018-08-26T07:28:45.000Z</Time>
            <Position>
              <LatitudeDegrees>43.00523788668215274810791015625</LatitudeDegrees>
              <LongitudeDegrees>-1.77368220873177051544189453125</LongitudeDegrees>
            </Position>
            <AltitudeMeters>546.20001220703125</AltitudeMeters>
            <DistanceMeters>46337.155131242</DistanceMeters>
          </Trackpoint>
          <Trackpoint>
            <Time>2018-08-26T07:28:46.000Z</Time>
            <Position>
              <LatitudeDegrees>43.005261607468128204345703125</LatitudeDegrees>
              <LongitudeDegrees>-1.77357743494212627410888671875</LongitudeDegrees>
            </Position>
            <AltitudeMeters>546.20001220703125</AltitudeMeters>
            <DistanceMeters>46346.08258635</DistanceMeters>
          </Trackpoint>
          <Trackpoint>
            <Time>2018-08-26T07:28:47.000Z</Time>
            <Position>
              <LatitudeDegrees>43.0052855797111988067626953125</LatitudeDegrees>
              <LongitudeDegrees>-1.7734717391431331634521484375</LongitudeDegrees>
            </Position>
            <AltitudeMeters>546.20001220703125</AltitudeMeters>
            <DistanceMeters>46355.089595108</DistanceMeters>
          </Trackpoint>
          <Trackpoint>
            <Time>2018-08-26T07:28:48.000Z</Time>
            <Position>
              <LatitudeDegrees>43.0053055286407470703125</LatitudeDegrees>
              <LongitudeDegrees>-1.77337442524731159210205078125</LongitudeDegrees>
            </Position>
            <AltitudeMeters>546.20001220703125</AltitudeMeters>
            <DistanceMeters>46363.315857496</DistanceMeters>
          </Trackpoint>
          <Trackpoint>
            <Time>2018-08-26T07:28:49.000Z</Time>
            <Position>
              <LatitudeDegrees>43.00532757304608821868896484375</LatitudeDegrees>
              <LongitudeDegrees>-1.7732769437134265899658203125</LongitudeDegrees>
            </Position>
            <AltitudeMeters>546.20001220703125</AltitudeMeters>
            <DistanceMeters>46371.620235486</DistanceMeters>
          </Trackpoint>
          <Trackpoint>
            <Time>2018-08-26T07:28:50.000Z</Time>
            <Position>
              <LatitudeDegrees>43.0053549818694591522216796875</LatitudeDegrees>
              <LongitudeDegrees>-1.773183234035968780517578125</LongitudeDegrees>
            </Position>
            <AltitudeMeters>546.20001220703125</AltitudeMeters>
            <DistanceMeters>46379.835513408</DistanceMeters>
          </Trackpoint>
          <Trackpoint>
            <Time>2018-08-26T07:28:51.000Z</Time>
            <Position>
              <LatitudeDegrees>43.00537937320768833160400390625</LatitudeDegrees>
              <LongitudeDegrees>-1.77308843471109867095947265625</LongitudeDegrees>
            </Position>
            <AltitudeMeters>546.20001220703125</AltitudeMeters>
            <DistanceMeters>46388.014989943</DistanceMeters>
          </Trackpoint>
          <Trackpoint>
            <Time>2018-08-26T07:28:52.000Z</Time>
            <Position>
              <LatitudeDegrees>43.005404770374298095703125</LatitudeDegrees>
              <LongitudeDegrees>-1.77299388684332370758056640625</LongitudeDegrees>
            </Position>
            <AltitudeMeters>546.20001220703125</AltitudeMeters>
            <DistanceMeters>46396.213212858</DistanceMeters>
          </Trackpoint>
          <Trackpoint>
            <Time>2018-08-26T07:28:53.000Z</Time>
            <Position>
              <LatitudeDegrees>43.00542647950351238250732421875</LatitudeDegrees>
              <LongitudeDegrees>-1.77289414219558238983154296875</LongitudeDegrees>
            </Position>
            <AltitudeMeters>546.20001220703125</AltitudeMeters>
            <DistanceMeters>46404.682860269</DistanceMeters>
          </Trackpoint>
          <Trackpoint>
            <Time>2018-08-26T07:28:54.000Z</Time>
            <Position>
              <LatitudeDegrees>43.00544542260468006134033203125</LatitudeDegrees>
              <LongitudeDegrees>-1.77279674448072910308837890625</LongitudeDegrees>
            </Position>
            <AltitudeMeters>546.20001220703125</AltitudeMeters>
            <DistanceMeters>46412.886038291</DistanceMeters>
          </Trackpoint>
          <Trackpoint>
            <Time>2018-08-26T07:28:55.000Z</Time>
            <Position>
              <LatitudeDegrees>43.00546755082905292510986328125</LatitudeDegrees>
              <LongitudeDegrees>-1.772698424756526947021484375</LongitudeDegrees>
            </Position>
            <AltitudeMeters>546.20001220703125</AltitudeMeters>
            <DistanceMeters>46421.259180683</DistanceMeters>
          </Trackpoint>
          <Trackpoint>
            <Time>2018-08-26T07:28:56.000Z</Time>
            <Position>
              <LatitudeDegrees>43.00548951141536235809326171875</LatitudeDegrees>
              <LongitudeDegrees>-1.77260044030845165252685546875</LongitudeDegrees>
            </Position>
            <AltitudeMeters>546.20001220703125</AltitudeMeters>
            <DistanceMeters>46429.599906606</DistanceMeters>
          </Trackpoint>
          <Trackpoint>
            <Time>2018-08-26T07:28:57.000Z</Time>
            <Position>
              <LatitudeDegrees>43.0055112205445766448974609375</LatitudeDegrees>
              <LongitudeDegrees>-1.772500611841678619384765625</LongitudeDegrees>
            </Position>
            <AltitudeMeters>546.20001220703125</AltitudeMeters>
            <DistanceMeters>46438.077013916</DistanceMeters>
          </Trackpoint>
          <Trackpoint>
            <Time>2018-08-26T07:28:58.000Z</Time>
            <Position>
              <LatitudeDegrees>43.005536533892154693603515625</LatitudeDegrees>
              <LongitudeDegrees>-1.77240128628909587860107421875</LongitudeDegrees>
            </Position>
            <AltitudeMeters>546.20001220703125</AltitudeMeters>
            <DistanceMeters>46446.63838825</DistanceMeters>
          </Trackpoint>
          <Trackpoint>
            <Time>2018-08-26T07:28:59.000Z</Time>
            <Position>
              <LatitudeDegrees>43.00556092523038387298583984375</LatitudeDegrees>
              <LongitudeDegrees>-1.77230087108910083770751953125</LongitudeDegrees>
            </Position>
            <AltitudeMeters>546.20001220703125</AltitudeMeters>
            <DistanceMeters>46455.250765849</DistanceMeters>
          </Trackpoint>
          <Trackpoint>
            <Time>2018-08-26T07:29:00.000Z</Time>
            <Position>
              <LatitudeDegrees>43.00558380782604217529296875</LatitudeDegrees>
              <LongitudeDegrees>-1.7722043953835964202880859375</LongitudeDegrees>
            </Position>
            <AltitudeMeters>546.20001220703125</AltitudeMeters>
            <DistanceMeters>46463.506613292</DistanceMeters>
          </Trackpoint>
          <Trackpoint>
            <Time>2018-08-26T07:29:01.000Z</Time>
            <Position>
              <LatitudeDegrees>43.00560652278363704681396484375</LatitudeDegrees>
              <LongitudeDegrees>-1.7721073329448699951171875</LongitudeDegrees>
            </Position>
            <AltitudeMeters>546.20001220703125</AltitudeMeters>
            <DistanceMeters>46471.80174334</DistanceMeters>
          </Trackpoint>
          <Trackpoint>
            <Time>2018-08-26T07:29:02.000Z</Time>
            <Position>
              <LatitudeDegrees>43.00562538206577301025390625</LatitudeDegrees>
              <LongitudeDegrees>-1.7720085941255092620849609375</LongitudeDegrees>
            </Position>
            <AltitudeMeters>546.20001220703125</AltitudeMeters>
            <DistanceMeters>46480.107752251</DistanceMeters>
          </Trackpoint>
          <Trackpoint>
            <Time>2018-08-26T07:29:03.000Z</Time>
            <Position>
              <LatitudeDegrees>43.00564549863338470458984375</LatitudeDegrees>
              <LongitudeDegrees>-1.77191060967743396759033203125</LongitudeDegrees>
            </Position>
            <AltitudeMeters>546.20001220703125</AltitudeMeters>
            <DistanceMeters>46488.391989148</DistanceMeters>
          </Trackpoint>
          <Trackpoint>
            <Time>2018-08-26T07:29:04.000Z</Time>
            <Position>
              <LatitudeDegrees>43.00566561520099639892578125</LatitudeDegrees>
              <LongitudeDegrees>-1.7718151398003101348876953125</LongitudeDegrees>
            </Position>
            <AltitudeMeters>546.20001220703125</AltitudeMeters>
            <DistanceMeters>46496.479315263</DistanceMeters>
          </Trackpoint>
          <Trackpoint>
            <Time>2018-08-26T07:29:05.000Z</Time>
            <Position>
              <LatitudeDegrees>43.00568212755024433135986328125</LatitudeDegrees>
              <LongitudeDegrees>-1.77171816118061542510986328125</LongitudeDegrees>
            </Position>
            <AltitudeMeters>546.20001220703125</AltitudeMeters>
            <DistanceMeters>46504.58448683</DistanceMeters>
          </Trackpoint>
          <Trackpoint>
            <Time>2018-08-26T07:29:06.000Z</Time>
            <Position>
              <LatitudeDegrees>43.0056892521679401397705078125</LatitudeDegrees>
              <LongitudeDegrees>-1.771621517837047576904296875</LongitudeDegrees>
            </Position>
            <AltitudeMeters>546.4000244140625</AltitudeMeters>
            <DistanceMeters>46512.490001302</DistanceMeters>
          </Trackpoint>
          <Trackpoint>
            <Time>2018-08-26T07:29:07.000Z</Time>
            <Position>
              <LatitudeDegrees>43.0056931078433990478515625</LatitudeDegrees>
              <LongitudeDegrees>-1.771522276103496551513671875</LongitudeDegrees>
            </Position>
            <AltitudeMeters>546.4000244140625</AltitudeMeters>
            <DistanceMeters>46520.578443911</DistanceMeters>
          </Trackpoint>
          <Trackpoint>
            <Time>2018-08-26T07:29:08.000Z</Time>
            <Position>
              <LatitudeDegrees>43.00569771789014339447021484375</LatitudeDegrees>
              <LongitudeDegrees>-1.7714138142764568328857421875</LongitudeDegrees>
            </Position>
            <AltitudeMeters>546.4000244140625</AltitudeMeters>
            <DistanceMeters>46529.421546421</DistanceMeters>
          </Trackpoint>
          <Trackpoint>
            <Time>2018-08-26T07:29:09.000Z</Time>
            <Position>
              <LatitudeDegrees>43.00569905899465084075927734375</LatitudeDegrees>
              <LongitudeDegrees>-1.77130375988781452178955078125</LongitudeDegrees>
            </Position>
            <AltitudeMeters>546.4000244140625</AltitudeMeters>
            <DistanceMeters>46538.380302999</DistanceMeters>
          </Trackpoint>
          <Trackpoint>
            <Time>2018-08-26T07:29:10.000Z</Time>
            <Position>
              <LatitudeDegrees>43.00569570623338222503662109375</LatitudeDegrees>
              <LongitudeDegrees>-1.77119948901236057281494140625</LongitudeDegrees>
            </Position>
            <AltitudeMeters>546.5999755859375</AltitudeMeters>
            <DistanceMeters>46546.875499933</DistanceMeters>
          </Trackpoint>
          <Trackpoint>
            <Time>2018-08-26T07:29:11.000Z</Time>
            <Position>
              <LatitudeDegrees>43.00569109618663787841796875</LatitudeDegrees>
              <LongitudeDegrees>-1.7710969783365726470947265625</LongitudeDegrees>
            </Position>
            <AltitudeMeters>546.79998779296875</AltitudeMeters>
            <DistanceMeters>46555.234610623</DistanceMeters>
          </Trackpoint>
          <Trackpoint>
            <Time>2018-08-26T07:29:12.000Z</Time>
            <Position>
              <LatitudeDegrees>43.00568573176860809326171875</LatitudeDegrees>
              <LongitudeDegrees>-1.770995892584323883056640625</LongitudeDegrees>
            </Position>
            <AltitudeMeters>546.79998779296875</AltitudeMeters>
            <DistanceMeters>46563.483892778</DistanceMeters>
          </Trackpoint>
          <Trackpoint>
            <Time>2018-08-26T07:29:13.000Z</Time>
            <Position>
              <LatitudeDegrees>43.00568045116961002349853515625</LatitudeDegrees>
              <LongitudeDegrees>-1.77089673466980457305908203125</LongitudeDegrees>
            </Position>
            <AltitudeMeters>547</AltitudeMeters>
            <DistanceMeters>46571.576241904</DistanceMeters>
          </Trackpoint>
          <Trackpoint>
            <Time>2018-08-26T07:29:14.000Z</Time>
            <Position>
              <LatitudeDegrees>43.00567441619932651519775390625</LatitudeDegrees>
              <LongitudeDegrees>-1.77079916931688785552978515625</LongitudeDegrees>
            </Position>
            <AltitudeMeters>547</AltitudeMeters>
            <DistanceMeters>46579.546032222</DistanceMeters>
          </Trackpoint>
          <Trackpoint>
            <Time>2018-08-26T07:29:15.000Z</Time>
            <Position>
              <LatitudeDegrees>43.0056688003242015838623046875</LatitudeDegrees>
              <LongitudeDegrees>-1.77069959230720996856689453125</LongitudeDegrees>
            </Position>
            <AltitudeMeters>547</AltitudeMeters>
            <DistanceMeters>46587.675121926</DistanceMeters>
          </Trackpoint>
          <Trackpoint>
            <Time>2018-08-26T07:29:16.000Z</Time>
            <Position>
              <LatitudeDegrees>43.00566620193421840667724609375</LatitudeDegrees>
              <LongitudeDegrees>-1.77060403861105442047119140625</LongitudeDegrees>
            </Position>
            <AltitudeMeters>547</AltitudeMeters>
            <DistanceMeters>46595.458036083</DistanceMeters>
          </Trackpoint>
          <Trackpoint>
            <Time>2018-08-26T07:29:17.000Z</Time>
            <Position>
              <LatitudeDegrees>43.00566268153488636016845703125</LatitudeDegrees>
              <LongitudeDegrees>-1.7705119214951992034912109375</LongitudeDegrees>
            </Position>
            <AltitudeMeters>547.20001220703125</AltitudeMeters>
            <DistanceMeters>46602.965747929</DistanceMeters>
          </Trackpoint>
          <Trackpoint>
            <Time>2018-08-26T07:29:18.000Z</Time>
            <Position>
              <LatitudeDegrees>43.00565547309815883636474609375</LatitudeDegrees>
              <LongitudeDegrees>-1.770420558750629425048828125</LongitudeDegrees>
            </Position>
            <AltitudeMeters>547.20001220703125</AltitudeMeters>
            <DistanceMeters>46610.445141192</DistanceMeters>
          </Trackpoint>
          <Trackpoint>
            <Time>2018-08-26T07:29:19.000Z</Time>
            <Position>
              <LatitudeDegrees>43.005647175014019012451171875</LatitudeDegrees>
              <LongitudeDegrees>-1.7703261785209178924560546875</LongitudeDegrees>
            </Position>
            <AltitudeMeters>547.4000244140625</AltitudeMeters>
            <DistanceMeters>46618.182673539</DistanceMeters>
          </Trackpoint>
          <Trackpoint>
            <Time>2018-08-26T07:29:20.000Z</Time>
            <Position>
              <LatitudeDegrees>43.005638457834720611572265625</LatitudeDegrees>
              <LongitudeDegrees>-1.770227439701557159423828125</LongitudeDegrees>
            </Position>
            <AltitudeMeters>547.4000244140625</AltitudeMeters>
            <DistanceMeters>46626.277254113</DistanceMeters>
          </Trackpoint>
          <Trackpoint>
            <Time>2018-08-26T07:29:21.000Z</Time>
            <Position>
              <LatitudeDegrees>43.00562764517962932586669921875</LatitudeDegrees>
              <LongitudeDegrees>-1.7701280303299427032470703125</LongitudeDegrees>
            </Position>
            <AltitudeMeters>547.4000244140625</AltitudeMeters>
            <DistanceMeters>46634.456730647</DistanceMeters>
          </Trackpoint>
          <Trackpoint>
            <Time>2018-08-26T07:29:22.000Z</Time>
            <Position>
              <LatitudeDegrees>43.00561641342937946319580078125</LatitudeDegrees>
              <LongitudeDegrees>-1.77002795040607452392578125</LongitudeDegrees>
            </Position>
            <AltitudeMeters>547.4000244140625</AltitudeMeters>
            <DistanceMeters>46642.698346691</DistanceMeters>
          </Trackpoint>
          <Trackpoint>
            <Time>2018-08-26T07:29:23.000Z</Time>
            <Position>
              <LatitudeDegrees>43.00560434348881244659423828125</LatitudeDegrees>
              <LongitudeDegrees>-1.769929043948650360107421875</LongitudeDegrees>
            </Position>
            <AltitudeMeters>547.4000244140625</AltitudeMeters>
            <DistanceMeters>46650.860140239</DistanceMeters>
          </Trackpoint>
          <Trackpoint>
            <Time>2018-08-26T07:29:24.000Z</Time>
            <Position>
              <LatitudeDegrees>43.00559093244373798370361328125</LatitudeDegrees>
              <LongitudeDegrees>-1.7698313109576702117919921875</LongitudeDegrees>
            </Position>
            <AltitudeMeters>547.4000244140625</AltitudeMeters>
            <DistanceMeters>46658.953605166</DistanceMeters>
          </Trackpoint>
          <Trackpoint>
            <Time>2018-08-26T07:29:25.000Z</Time>
            <Position>
              <LatitudeDegrees>43.005576096475124359130859375</LatitudeDegrees>
              <LongitudeDegrees>-1.76973366178572177886962890625</LongitudeDegrees>
            </Position>
            <AltitudeMeters>547.4000244140625</AltitudeMeters>
            <DistanceMeters>46667.071022725</DistanceMeters>
          </Trackpoint>
          <Trackpoint>
            <Time>2018-08-26T07:29:26.000Z</Time>
            <Position>
              <LatitudeDegrees>43.0055588297545909881591796875</LatitudeDegrees>
              <LongitudeDegrees>-1.76963710226118564605712890625</LongitudeDegrees>
            </Position>
            <AltitudeMeters>547.4000244140625</AltitudeMeters>
            <DistanceMeters>46675.162255895</DistanceMeters>
          </Trackpoint>
          <Trackpoint>
            <Time>2018-08-26T07:29:27.000Z</Time>
            <Position>
              <LatitudeDegrees>43.0055410601198673248291015625</LatitudeDegrees>
              <LongitudeDegrees>-1.769540794193744659423828125</LongitudeDegrees>
            </Position>
            <AltitudeMeters>547.5999755859375</AltitudeMeters>
            <DistanceMeters>46683.246790099</DistanceMeters>
          </Trackpoint>
          <Trackpoint>
            <Time>2018-08-26T07:29:28.000Z</Time>
            <Position>
              <LatitudeDegrees>43.00552387721836566925048828125</LatitudeDegrees>
              <LongitudeDegrees>-1.76944591104984283447265625</LongitudeDegrees>
            </Position>
            <AltitudeMeters>547.5999755859375</AltitudeMeters>
            <DistanceMeters>46691.202972342</DistanceMeters>
          </Trackpoint>
          <Trackpoint>
            <Time>2018-08-26T07:29:29.000Z</Time>
            <Position>
              <LatitudeDegrees>43.0055068619549274444580078125</LatitudeDegrees>
              <LongitudeDegrees>-1.7693508602678775787353515625</LongitudeDegrees>
            </Position>
            <AltitudeMeters>547.5999755859375</AltitudeMeters>
            <DistanceMeters>46699.167662356</DistanceMeters>
          </Trackpoint>
          <Trackpoint>
            <Time>2018-08-26T07:29:30.000Z</Time>
            <Position>
              <LatitudeDegrees>43.00549034960567951202392578125</LatitudeDegrees>
              <LongitudeDegrees>-1.76925773732364177703857421875</LongitudeDegrees>
            </Position>
            <AltitudeMeters>547.5999755859375</AltitudeMeters>
            <DistanceMeters>46706.966803009</DistanceMeters>
          </Trackpoint>
          <Trackpoint>
            <Time>2018-08-26T07:29:31.000Z</Time>
            <Position>
              <LatitudeDegrees>43.00547425635159015655517578125</LatitudeDegrees>
              <LongitudeDegrees>-1.769166626036167144775390625</LongitudeDegrees>
            </Position>
            <AltitudeMeters>547.5999755859375</AltitudeMeters>
            <DistanceMeters>46714.596211423</DistanceMeters>
          </Trackpoint>
          <Trackpoint>
            <Time>2018-08-26T07:29:32.000Z</Time>
            <Position>
              <LatitudeDegrees>43.00545799545943737030029296875</LatitudeDegrees>
              <LongitudeDegrees>-1.76907668821513652801513671875</LongitudeDegrees>
            </Position>
            <AltitudeMeters>547.5999755859375</AltitudeMeters>
            <DistanceMeters>46722.136328219</DistanceMeters>
          </Trackpoint>
          <Trackpoint>
            <Time>2018-08-26T07:29:33.000Z</Time>
            <Position>
              <LatitudeDegrees>43.0054418183863162994384765625</LatitudeDegrees>
              <LongitudeDegrees>-1.76898834295570850372314453125</LongitudeDegrees>
            </Position>
            <AltitudeMeters>547.79998779296875</AltitudeMeters>
            <DistanceMeters>46729.549630131</DistanceMeters>
          </Trackpoint>
          <Trackpoint>
            <Time>2018-08-26T07:29:34.000Z</Time>
            <Position>
              <LatitudeDegrees>43.0054263956844806671142578125</LatitudeDegrees>
              <LongitudeDegrees>-1.76890267990529537200927734375</LongitudeDegrees>
            </Position>
            <AltitudeMeters>547.79998779296875</AltitudeMeters>
            <DistanceMeters>46736.730909026</DistanceMeters>
          </Trackpoint>
          <Trackpoint>
            <Time>2018-08-26T07:29:35.000Z</Time>
            <Position>
              <LatitudeDegrees>43.0054116435348987579345703125</LatitudeDegrees>
              <LongitudeDegrees>-1.768816597759723663330078125</LongitudeDegrees>
            </Position>
            <AltitudeMeters>547.79998779296875</AltitudeMeters>
            <DistanceMeters>46743.927888843</DistanceMeters>
          </Trackpoint>
          <Trackpoint>
            <Time>2018-08-26T07:29:36.000Z</Time>
            <Position>
              <LatitudeDegrees>43.0053995735943317413330078125</LatitudeDegrees>
              <LongitudeDegrees>-1.768729425966739654541015625</LongitudeDegrees>
            </Position>
            <AltitudeMeters>547.79998779296875</AltitudeMeters>
            <DistanceMeters>46751.149293932</DistanceMeters>
          </Trackpoint>
          <Trackpoint>
            <Time>2018-08-26T07:29:37.000Z</Time>
            <Position>
              <LatitudeDegrees>43.00539202988147735595703125</LatitudeDegrees>
              <LongitudeDegrees>-1.76864049397408962249755859375</LongitudeDegrees>
            </Position>
            <AltitudeMeters>548</AltitudeMeters>
            <DistanceMeters>46758.436052436</DistanceMeters>
          </Trackpoint>
          <Trackpoint>
            <Time>2018-08-26T07:29:38.000Z</Time>
            <Position>
              <LatitudeDegrees>43.00538356415927410125732421875</LatitudeDegrees>
              <LongitudeDegrees>-1.7685492150485515594482421875</LongitudeDegrees>
            </Position>
            <AltitudeMeters>548</AltitudeMeters>
            <DistanceMeters>46765.92570095</DistanceMeters>
          </Trackpoint>
          <Trackpoint>
            <Time>2018-08-26T07:29:39.000Z</Time>
            <Position>
              <LatitudeDegrees>43.00537551753222942352294921875</LatitudeDegrees>
              <LongitudeDegrees>-1.7684553377330303192138671875</LongitudeDegrees>
            </Position>
            <AltitudeMeters>548.20001220703125</AltitudeMeters>
            <DistanceMeters>46773.618757626</DistanceMeters>
          </Trackpoint>
          <Trackpoint>
            <Time>2018-08-26T07:29:40.000Z</Time>
            <Position>
              <LatitudeDegrees>43.005368225276470184326171875</LatitudeDegrees>
              <LongitudeDegrees>-1.7683607898652553558349609375</LongitudeDegrees>
            </Position>
            <AltitudeMeters>548.4000244140625</AltitudeMeters>
            <DistanceMeters>46781.357456934</DistanceMeters>
          </Trackpoint>
          <Trackpoint>
            <Time>2018-08-26T07:29:41.000Z</Time>
            <Position>
              <LatitudeDegrees>43.005356490612030029296875</LatitudeDegrees>
              <LongitudeDegrees>-1.76826708018779754638671875</LongitudeDegrees>
            </Position>
            <AltitudeMeters>548.4000244140625</AltitudeMeters>
            <DistanceMeters>46789.096156241</DistanceMeters>
          </Trackpoint>
          <Trackpoint>
            <Time>2018-08-26T07:29:42.000Z</Time>
            <Position>
              <LatitudeDegrees>43.0053462646901607513427734375</LatitudeDegrees>
              <LongitudeDegrees>-1.76817462779581546783447265625</LongitudeDegrees>
            </Position>
            <AltitudeMeters>548.5999755859375</AltitudeMeters>
            <DistanceMeters>46796.707196932</DistanceMeters>
          </Trackpoint>
          <Trackpoint>
            <Time>2018-08-26T07:29:43.000Z</Time>
            <Position>
              <LatitudeDegrees>43.00533696077764034271240234375</LatitudeDegrees>
              <LongitudeDegrees>-1.7680838517844676971435546875</LongitudeDegrees>
            </Position>
            <AltitudeMeters>549</AltitudeMeters>
            <DistanceMeters>46804.168458305</DistanceMeters>
          </Trackpoint>
          <Trackpoint>
            <Time>2018-08-26T07:29:44.000Z</Time>
            <Position>
              <LatitudeDegrees>43.0053258128464221954345703125</LatitudeDegrees>
              <LongitudeDegrees>-1.76799793727695941925048828125</LongitudeDegrees>
            </Position>
            <AltitudeMeters>549</AltitudeMeters>
            <DistanceMeters>46811.270711962</DistanceMeters>
          </Trackpoint>
          <Trackpoint>
            <Time>2018-08-26T07:29:45.000Z</Time>
            <Position>
              <LatitudeDegrees>43.00531692802906036376953125</LatitudeDegrees>
              <LongitudeDegrees>-1.76791260950267314910888671875</LongitudeDegrees>
            </Position>
            <AltitudeMeters>549.20001220703125</AltitudeMeters>
            <DistanceMeters>46818.285975081</DistanceMeters>
          </Trackpoint>
          <Trackpoint>
            <Time>2018-08-26T07:29:46.000Z</Time>
            <Position>
              <LatitudeDegrees>43.00531089305877685546875</LatitudeDegrees>
              <LongitudeDegrees>-1.7678263597190380096435546875</LongitudeDegrees>
            </Position>
            <AltitudeMeters>549.20001220703125</AltitudeMeters>
            <DistanceMeters>46825.338468331</DistanceMeters>
          </Trackpoint>
          <Trackpoint>
            <Time>2018-08-26T07:29:47.000Z</Time>
            <Position>
              <LatitudeDegrees>43.00530460663139820098876953125</LatitudeDegrees>
              <LongitudeDegrees>-1.767741702497005462646484375</LongitudeDegrees>
            </Position>
            <AltitudeMeters>549.4000244140625</AltitudeMeters>
            <DistanceMeters>46832.264344887</DistanceMeters>
          </Trackpoint>
          <Trackpoint>
            <Time>2018-08-26T07:29:48.000Z</Time>
            <Position>
              <LatitudeDegrees>43.00529656000435352325439453125</LatitudeDegrees>
              <LongitudeDegrees>-1.767659224569797515869140625</LongitudeDegrees>
            </Position>
            <AltitudeMeters>549.4000244140625</AltitudeMeters>
            <DistanceMeters>46839.03729021</DistanceMeters>
          </Trackpoint>
          <Trackpoint>
            <Time>2018-08-26T07:29:49.000Z</Time>
            <Position>
              <LatitudeDegrees>43.00528968684375286102294921875</LatitudeDegrees>
              <LongitudeDegrees>-1.76757683046162128448486328125</LongitudeDegrees>
            </Position>
            <AltitudeMeters>549.5999755859375</AltitudeMeters>
            <DistanceMeters>46845.786863208</DistanceMeters>
          </Trackpoint>
          <Trackpoint>
            <Time>2018-08-26T07:29:50.000Z</Time>
            <Position>
              <LatitudeDegrees>43.00528750754892826080322265625</LatitudeDegrees>
              <LongitudeDegrees>-1.7674937658011913299560546875</LongitudeDegrees>
            </Position>
            <AltitudeMeters>549.79998779296875</AltitudeMeters>
            <DistanceMeters>46852.552471643</DistanceMeters>
          </Trackpoint>
          <Trackpoint>
            <Time>2018-08-26T07:29:51.000Z</Time>
            <Position>
              <LatitudeDegrees>43.0052865855395793914794921875</LatitudeDegrees>
              <LongitudeDegrees>-1.7674099467694759368896484375</LongitudeDegrees>
            </Position>
            <AltitudeMeters>550</AltitudeMeters>
            <DistanceMeters>46859.37456912</DistanceMeters>
          </Trackpoint>
          <Trackpoint>
            <Time>2018-08-26T07:29:52.000Z</Time>
            <Position>
              <LatitudeDegrees>43.0052827298641204833984375</LatitudeDegrees>
              <LongitudeDegrees>-1.767324618995189666748046875</LongitudeDegrees>
            </Position>
            <AltitudeMeters>550.20001220703125</AltitudeMeters>
            <DistanceMeters>46866.332315869</DistanceMeters>
          </Trackpoint>
          <Trackpoint>
            <Time>2018-08-26T07:29:53.000Z</Time>
            <Position>
              <LatitudeDegrees>43.00528340041637420654296875</LatitudeDegrees>
              <LongitudeDegrees>-1.767233423888683319091796875</LongitudeDegrees>
            </Position>
            <AltitudeMeters>550.4000244140625</AltitudeMeters>
            <DistanceMeters>46873.755356113</DistanceMeters>
          </Trackpoint>
          <Trackpoint>
            <Time>2018-08-26T07:29:54.000Z</Time>
            <Position>
              <LatitudeDegrees>43.00528742372989654541015625</LatitudeDegrees>
              <LongitudeDegrees>-1.76714482717216014862060546875</LongitudeDegrees>
            </Position>
            <AltitudeMeters>550.5999755859375</AltitudeMeters>
            <DistanceMeters>46880.981136486</DistanceMeters>
          </Trackpoint>
          <Trackpoint>
            <Time>2018-08-26T07:29:55.000Z</Time>
            <Position>
              <LatitudeDegrees>43.0052936263382434844970703125</LatitudeDegrees>
              <LongitudeDegrees>-1.767057068645954132080078125</LongitudeDegrees>
            </Position>
            <AltitudeMeters>550.79998779296875</AltitudeMeters>
            <DistanceMeters>46888.158012967</DistanceMeters>
          </Trackpoint>
          <Trackpoint>
            <Time>2018-08-26T07:29:56.000Z</Time>
            <Position>
              <LatitudeDegrees>43.005303181707859039306640625</LatitudeDegrees>
              <LongitudeDegrees>-1.76696863956749439239501953125</LongitudeDegrees>
            </Position>
            <AltitudeMeters>551</AltitudeMeters>
            <DistanceMeters>46895.433609721</DistanceMeters>
          </Trackpoint>
          <Trackpoint>
            <Time>2018-08-26T07:29:57.000Z</Time>
            <Position>
              <LatitudeDegrees>43.005315251648426055908203125</LatitudeDegrees>
              <LongitudeDegrees>-1.76687878556549549102783203125</LongitudeDegrees>
            </Position>
            <AltitudeMeters>551.20001220703125</AltitudeMeters>
            <DistanceMeters>46902.870019348</DistanceMeters>
          </Trackpoint>
          <Trackpoint>
            <Time>2018-08-26T07:29:58.000Z</Time>
            <Position>
              <LatitudeDegrees>43.00532757304608821868896484375</LatitudeDegrees>
              <LongitudeDegrees>-1.7667883448302745819091796875</LongitudeDegrees>
            </Position>
            <AltitudeMeters>551.4000244140625</AltitudeMeters>
            <DistanceMeters>46910.357859132</DistanceMeters>
          </Trackpoint>
          <Trackpoint>
            <Time>2018-08-26T07:29:59.000Z</Time>
            <Position>
              <LatitudeDegrees>43.00534014590084552764892578125</LatitudeDegrees>
              <LongitudeDegrees>-1.76669823937118053436279296875</LongitudeDegrees>
            </Position>
            <AltitudeMeters>551.5999755859375</AltitudeMeters>
            <DistanceMeters>46917.823959981</DistanceMeters>
          </Trackpoint>
          <Trackpoint>
            <Time>2018-08-26T07:30:00.000Z</Time>
            <Position>
              <LatitudeDegrees>43.00535188056528568267822265625</LatitudeDegrees>
              <LongitudeDegrees>-1.76660872064530849456787109375</LongitudeDegrees>
            </Position>
            <AltitudeMeters>551.79998779296875</AltitudeMeters>
            <DistanceMeters>46925.226290956</DistanceMeters>
          </Trackpoint>
          <Trackpoint>
            <Time>2018-08-26T07:30:01.000Z</Time>
            <Position>
              <LatitudeDegrees>43.005362860858440399169921875</LatitudeDegrees>
              <LongitudeDegrees>-1.76651651971042156219482421875</LongitudeDegrees>
            </Position>
            <AltitudeMeters>551.79998779296875</AltitudeMeters>
            <DistanceMeters>46932.829615847</DistanceMeters>
          </Trackpoint>
          <Trackpoint>
            <Time>2018-08-26T07:30:02.000Z</Time>
            <Position>
              <LatitudeDegrees>43.005372248589992523193359375</LatitudeDegrees>
              <LongitudeDegrees>-1.7664235644042491912841796875</LongitudeDegrees>
            </Position>
            <AltitudeMeters>552</AltitudeMeters>
            <DistanceMeters>46940.466713709</DistanceMeters>
          </Trackpoint>
          <Trackpoint>
            <Time>2018-08-26T07:30:03.000Z</Time>
            <Position>
              <LatitudeDegrees>43.00537819974124431610107421875</LatitudeDegrees>
              <LongitudeDegrees>-1.76633195020258426666259765625</LongitudeDegrees>
            </Position>
            <AltitudeMeters>552</AltitudeMeters>
            <DistanceMeters>46947.952744327</DistanceMeters>
          </Trackpoint>
          <Trackpoint>
            <Time>2018-08-26T07:30:04.000Z</Time>
            <Position>
              <LatitudeDegrees>43.00538121722638607025146484375</LatitudeDegrees>
              <LongitudeDegrees>-1.76623974926769733428955078125</LongitudeDegrees>
            </Position>
            <AltitudeMeters>552</AltitudeMeters>
            <DistanceMeters>46955.464063626</DistanceMeters>
          </Trackpoint>
          <Trackpoint>
            <Time>2018-08-26T07:30:05.000Z</Time>
            <Position>
              <LatitudeDegrees>43.00537870265543460845947265625</LatitudeDegrees>
              <LongitudeDegrees>-1.76614536903798580169677734375</LongitudeDegrees>
            </Position>
            <AltitudeMeters>552</AltitudeMeters>
            <DistanceMeters>46963.151249083</DistanceMeters>
          </Trackpoint>
          <Trackpoint>
            <Time>2018-08-26T07:30:06.000Z</Time>
            <Position>
              <LatitudeDegrees>43.00537417642772197723388671875</LatitudeDegrees>
              <LongitudeDegrees>-1.76605165936052799224853515625</LongitudeDegrees>
            </Position>
            <AltitudeMeters>552.20001220703125</AltitudeMeters>
            <DistanceMeters>46970.796028658</DistanceMeters>
          </Trackpoint>
          <Trackpoint>
            <Time>2018-08-26T07:30:07.000Z</Time>
            <Position>
              <LatitudeDegrees>43.005370236933231353759765625</LatitudeDegrees>
              <LongitudeDegrees>-1.76595878787338733673095703125</LongitudeDegrees>
            </Position>
            <AltitudeMeters>552.20001220703125</AltitudeMeters>
            <DistanceMeters>46978.368411732</DistanceMeters>
          </Trackpoint>
          <Trackpoint>
            <Time>2018-08-26T07:30:08.000Z</Time>
            <Position>
              <LatitudeDegrees>43.0053636990487575531005859375</LatitudeDegrees>
              <LongitudeDegrees>-1.76586926914751529693603515625</LongitudeDegrees>
            </Position>
            <AltitudeMeters>552.20001220703125</AltitudeMeters>
            <DistanceMeters>46985.691020142</DistanceMeters>
          </Trackpoint>
          <Trackpoint>
            <Time>2018-08-26T07:30:09.000Z</Time>
            <Position>
              <LatitudeDegrees>43.00536244176328182220458984375</LatitudeDegrees>
              <LongitudeDegrees>-1.76577539183199405670166015625</LongitudeDegrees>
            </Position>
            <AltitudeMeters>552.20001220703125</AltitudeMeters>
            <DistanceMeters>46993.333436935</DistanceMeters>
          </Trackpoint>
          <Trackpoint>
            <Time>2018-08-26T07:30:10.000Z</Time>
            <Position>
              <LatitudeDegrees>43.00537048839032649993896484375</LatitudeDegrees>
              <LongitudeDegrees>-1.76569106988608837127685546875</LongitudeDegrees>
            </Position>
            <AltitudeMeters>552.20001220703125</AltitudeMeters>
            <DistanceMeters>47000.254096258</DistanceMeters>
          </Trackpoint>
          <Trackpoint>
            <Time>2018-08-26T07:30:11.000Z</Time>
            <Position>
              <LatitudeDegrees>43.0053834803402423858642578125</LatitudeDegrees>
              <LongitudeDegrees>-1.765593253076076507568359375</LongitudeDegrees>
            </Position>
            <AltitudeMeters>552.20001220703125</AltitudeMeters>
            <DistanceMeters>47008.345887425</DistanceMeters>
          </Trackpoint>
          <Trackpoint>
            <Time>2018-08-26T07:30:12.000Z</Time>
            <Position>
              <LatitudeDegrees>43.00540099851787090301513671875</LatitudeDegrees>
              <LongitudeDegrees>-1.7655039019882678985595703125</LongitudeDegrees>
            </Position>
            <AltitudeMeters>552.20001220703125</AltitudeMeters>
            <DistanceMeters>47015.875218067</DistanceMeters>
          </Trackpoint>
          <Trackpoint>
            <Time>2018-08-26T07:30:13.000Z</Time>
            <Position>
              <LatitudeDegrees>43.00542212091386318206787109375</LatitudeDegrees>
              <LongitudeDegrees>-1.76541161723434925079345703125</LongitudeDegrees>
            </Position>
            <AltitudeMeters>552.20001220703125</AltitudeMeters>
            <DistanceMeters>47023.745816799</DistanceMeters>
          </Trackpoint>
          <Trackpoint>
            <Time>2018-08-26T07:30:14.000Z</Time>
            <Position>
              <LatitudeDegrees>43.00544491969048976898193359375</LatitudeDegrees>
              <LongitudeDegrees>-1.765320338308811187744140625</LongitudeDegrees>
            </Position>
            <AltitudeMeters>552.20001220703125</AltitudeMeters>
            <DistanceMeters>47031.596886905</DistanceMeters>
          </Trackpoint>
          <Trackpoint>
            <Time>2018-08-26T07:30:15.000Z</Time>
            <Position>
              <LatitudeDegrees>43.00546755082905292510986328125</LatitudeDegrees>
              <LongitudeDegrees>-1.76522537134587764739990234375</LongitudeDegrees>
            </Position>
            <AltitudeMeters>552.20001220703125</AltitudeMeters>
            <DistanceMeters>47039.726532007</DistanceMeters>
          </Trackpoint>
          <Trackpoint>
            <Time>2018-08-26T07:30:16.000Z</Time>
            <Position>
              <LatitudeDegrees>43.005490936338901519775390625</LatitudeDegrees>
              <LongitudeDegrees>-1.76513249985873699188232421875</LongitudeDegrees>
            </Position>
            <AltitudeMeters>552.20001220703125</AltitudeMeters>
            <DistanceMeters>47047.721210304</DistanceMeters>
          </Trackpoint>
          <Trackpoint>
            <Time>2018-08-26T07:30:17.000Z</Time>
            <Position>
              <LatitudeDegrees>43.00551348365843296051025390625</LatitudeDegrees>
              <LongitudeDegrees>-1.76504214294254779815673828125</LongitudeDegrees>
            </Position>
            <AltitudeMeters>552.20001220703125</AltitudeMeters>
            <DistanceMeters>47055.492513365</DistanceMeters>
          </Trackpoint>
          <Trackpoint>
            <Time>2018-08-26T07:30:18.000Z</Time>
            <Position>
              <LatitudeDegrees>43.005533851683139801025390625</LatitudeDegrees>
              <LongitudeDegrees>-1.76494809798896312713623046875</LongitudeDegrees>
            </Position>
            <AltitudeMeters>552</AltitudeMeters>
            <DistanceMeters>47063.476454097</DistanceMeters>
          </Trackpoint>
          <Trackpoint>
            <Time>2018-08-26T07:30:19.000Z</Time>
            <Position>
              <LatitudeDegrees>43.00555489026010036468505859375</LatitudeDegrees>
              <LongitudeDegrees>-1.7648531310260295867919921875</LongitudeDegrees>
            </Position>
            <AltitudeMeters>552</AltitudeMeters>
            <DistanceMeters>47071.55428378</DistanceMeters>
          </Trackpoint>
          <Trackpoint>
            <Time>2018-08-26T07:30:20.000Z</Time>
            <Position>
              <LatitudeDegrees>43.00557534210383892059326171875</LatitudeDegrees>
              <LongitudeDegrees>-1.76475564949214458465576171875</LongitudeDegrees>
            </Position>
            <AltitudeMeters>552</AltitudeMeters>
            <DistanceMeters>47079.807943374</DistanceMeters>
          </Trackpoint>
          <Trackpoint>
            <Time>2018-08-26T07:30:21.000Z</Time>
            <Position>
              <LatitudeDegrees>43.00559394992887973785400390625</LatitudeDegrees>
              <LongitudeDegrees>-1.7646596767008304595947265625</LongitudeDegrees>
            </Position>
            <AltitudeMeters>552</AltitudeMeters>
            <DistanceMeters>47087.889126013</DistanceMeters>
          </Trackpoint>
          <Trackpoint>
            <Time>2018-08-26T07:30:22.000Z</Time>
            <Position>
              <LatitudeDegrees>43.00561071373522281646728515625</LatitudeDegrees>
              <LongitudeDegrees>-1.7645654641091823577880859375</LongitudeDegrees>
            </Position>
            <AltitudeMeters>551.79998779296875</AltitudeMeters>
            <DistanceMeters>47095.780921577</DistanceMeters>
          </Trackpoint>
          <Trackpoint>
            <Time>2018-08-26T07:30:23.000Z</Time>
            <Position>
              <LatitudeDegrees>43.005624711513519287109375</LatitudeDegrees>
              <LongitudeDegrees>-1.76446379162371158599853515625</LongitudeDegrees>
            </Position>
            <AltitudeMeters>551.79998779296875</AltitudeMeters>
            <DistanceMeters>47104.201382386</DistanceMeters>
          </Trackpoint>
          <Trackpoint>
            <Time>2018-08-26T07:30:24.000Z</Time>
            <Position>
              <LatitudeDegrees>43.0056332610547542572021484375</LatitudeDegrees>
              <LongitudeDegrees>-1.7643622867763042449951171875</LongitudeDegrees>
            </Position>
            <AltitudeMeters>551.79998779296875</AltitudeMeters>
            <DistanceMeters>47112.518255931</DistanceMeters>
          </Trackpoint>
          <Trackpoint>
            <Time>2018-08-26T07:30:25.000Z</Time>
            <Position>
              <LatitudeDegrees>43.00563300959765911102294921875</LatitudeDegrees>
              <LongitudeDegrees>-1.7642663978040218353271484375</LongitudeDegrees>
            </Position>
            <AltitudeMeters>551.79998779296875</AltitudeMeters>
            <DistanceMeters>47120.323183586</DistanceMeters>
          </Trackpoint>
          <Trackpoint>
            <Time>2018-08-26T07:30:26.000Z</Time>
            <Position>
              <LatitudeDegrees>43.00562697462737560272216796875</LatitudeDegrees>
              <LongitudeDegrees>-1.76416841335594654083251953125</LongitudeDegrees>
            </Position>
            <AltitudeMeters>551.5999755859375</AltitudeMeters>
            <DistanceMeters>47128.326892869</DistanceMeters>
          </Trackpoint>
          <Trackpoint>
            <Time>2018-08-26T07:30:27.000Z</Time>
            <Position>
              <LatitudeDegrees>43.005614988505840301513671875</LatitudeDegrees>
              <LongitudeDegrees>-1.7640756256878376007080078125</LongitudeDegrees>
            </Position>
            <AltitudeMeters>551.5999755859375</AltitudeMeters>
            <DistanceMeters>47135.995848983</DistanceMeters>
          </Trackpoint>
          <Trackpoint>
            <Time>2018-08-26T07:30:28.000Z</Time>
            <Position>
              <LatitudeDegrees>43.005593530833721160888671875</LatitudeDegrees>
              <LongitudeDegrees>-1.76398367621004581451416015625</LongitudeDegrees>
            </Position>
            <AltitudeMeters>551.5999755859375</AltitudeMeters>
            <DistanceMeters>47143.851518428</DistanceMeters>
          </Trackpoint>
          <Trackpoint>
            <Time>2018-08-26T07:30:29.000Z</Time>
            <Position>
              <LatitudeDegrees>43.00556327216327190399169921875</LatitudeDegrees>
              <LongitudeDegrees>-1.76388594321906566619873046875</LongitudeDegrees>
            </Position>
            <AltitudeMeters>551.5999755859375</AltitudeMeters>
            <DistanceMeters>47152.490068753</DistanceMeters>
          </Trackpoint>
          <Trackpoint>
            <Time>2018-08-26T07:30:30.000Z</Time>
            <Position>
              <LatitudeDegrees>43.00552639178931713104248046875</LatitudeDegrees>
              <LongitudeDegrees>-1.7637923173606395721435546875</LongitudeDegrees>
            </Position>
            <AltitudeMeters>551.5999755859375</AltitudeMeters>
            <DistanceMeters>47161.146371332</DistanceMeters>
          </Trackpoint>
          <Trackpoint>
            <Time>2018-08-26T07:30:31.000Z</Time>
            <Position>
              <LatitudeDegrees>43.0054870806634426116943359375</LatitudeDegrees>
              <LongitudeDegrees>-1.763701625168323516845703125</LongitudeDegrees>
            </Position>
            <AltitudeMeters>551.4000244140625</AltitudeMeters>
            <DistanceMeters>47169.727236284</DistanceMeters>
          </Trackpoint>
          <Trackpoint>
            <Time>2018-08-26T07:30:32.000Z</Time>
            <Position>
              <LatitudeDegrees>43.0054465122520923614501953125</LatitudeDegrees>
              <LongitudeDegrees>-1.76361537538468837738037109375</LongitudeDegrees>
            </Position>
            <AltitudeMeters>551.4000244140625</AltitudeMeters>
            <DistanceMeters>47178.073373695</DistanceMeters>
          </Trackpoint>
          <Trackpoint>
            <Time>2018-08-26T07:30:33.000Z</Time>
            <Position>
              <LatitudeDegrees>43.00540636293590068817138671875</LatitudeDegrees>
              <LongitudeDegrees>-1.7635309696197509765625</LongitudeDegrees>
            </Position>
            <AltitudeMeters>551.5999755859375</AltitudeMeters>
            <DistanceMeters>47186.268842479</DistanceMeters>
          </Trackpoint>
          <Trackpoint>
            <Time>2018-08-26T07:30:34.000Z</Time>
            <Position>
              <LatitudeDegrees>43.00536294467747211456298828125</LatitudeDegrees>
              <LongitudeDegrees>-1.763444133102893829345703125</LongitudeDegrees>
            </Position>
            <AltitudeMeters>551.5999755859375</AltitudeMeters>
            <DistanceMeters>47194.830744171</DistanceMeters>
          </Trackpoint>
          <Trackpoint>
            <Time>2018-08-26T07:30:35.000Z</Time>
            <Position>
              <LatitudeDegrees>43.00532103516161441802978515625</LatitudeDegrees>
              <LongitudeDegrees>-1.7633581347763538360595703125</LongitudeDegrees>
            </Position>
            <AltitudeMeters>551.5999755859375</AltitudeMeters>
            <DistanceMeters>47203.242621429</DistanceMeters>
          </Trackpoint>
          <Trackpoint>
            <Time>2018-08-26T07:30:36.000Z</Time>
            <Position>
              <LatitudeDegrees>43.00527912564575672149658203125</LatitudeDegrees>
              <LongitudeDegrees>-1.76327356137335300445556640625</LongitudeDegrees>
            </Position>
            <AltitudeMeters>551.5999755859375</AltitudeMeters>
            <DistanceMeters>47211.55840915</DistanceMeters>
          </Trackpoint>
          <Trackpoint>
            <Time>2018-08-26T07:30:37.000Z</Time>
            <Position>
              <LatitudeDegrees>43.00523436628282070159912109375</LatitudeDegrees>
              <LongitudeDegrees>-1.7631935141980648040771484375</LongitudeDegrees>
            </Position>
            <AltitudeMeters>551.5999755859375</AltitudeMeters>
            <DistanceMeters>47219.759935802</DistanceMeters>
          </Trackpoint>
          <Trackpoint>
            <Time>2018-08-26T07:30:38.000Z</Time>
            <Position>
              <LatitudeDegrees>43.00518709234893321990966796875</LatitudeDegrees>
              <LongitudeDegrees>-1.7631165683269500732421875</LongitudeDegrees>
            </Position>
            <AltitudeMeters>551.5999755859375</AltitudeMeters>
            <DistanceMeters>47227.939964314</DistanceMeters>
          </Trackpoint>
          <Trackpoint>
            <Time>2018-08-26T07:30:39.000Z</Time>
            <Position>
              <LatitudeDegrees>43.00513747148215770721435546875</LatitudeDegrees>
              <LongitudeDegrees>-1.76304155029356479644775390625</LongitudeDegrees>
            </Position>
            <AltitudeMeters>551.5999755859375</AltitudeMeters>
            <DistanceMeters>47236.173358745</DistanceMeters>
          </Trackpoint>
          <Trackpoint>
            <Time>2018-08-26T07:30:40.000Z</Time>
            <Position>
              <LatitudeDegrees>43.00508449785411357879638671875</LatitudeDegrees>
              <LongitudeDegrees>-1.76297097466886043548583984375</LongitudeDegrees>
            </Position>
            <AltitudeMeters>551.5999755859375</AltitudeMeters>
            <DistanceMeters>47244.405107869</DistanceMeters>
          </Trackpoint>
          <Trackpoint>
            <Time>2018-08-26T07:30:41.000Z</Time>
            <Position>
              <LatitudeDegrees>43.0050267465412616729736328125</LatitudeDegrees>
              <LongitudeDegrees>-1.76290073432028293609619140625</LongitudeDegrees>
            </Position>
            <AltitudeMeters>551.5999755859375</AltitudeMeters>
            <DistanceMeters>47253.006994079</DistanceMeters>
          </Trackpoint>
          <Trackpoint>
            <Time>2018-08-26T07:30:42.000Z</Time>
            <Position>
              <LatitudeDegrees>43.00496782176196575164794921875</LatitudeDegrees>
              <LongitudeDegrees>-1.76284071989357471466064453125</LongitudeDegrees>
            </Position>
            <AltitudeMeters>551.5999755859375</AltitudeMeters>
            <DistanceMeters>47261.184814458</DistanceMeters>
          </Trackpoint>
          <Trackpoint>
            <Time>2018-08-26T07:30:43.000Z</Time>
            <Position>
              <LatitudeDegrees>43.0049073882400989532470703125</LatitudeDegrees>
              <LongitudeDegrees>-1.762786321341991424560546875</LongitudeDegrees>
            </Position>
            <AltitudeMeters>551.5999755859375</AltitudeMeters>
            <DistanceMeters>47269.236891759</DistanceMeters>
          </Trackpoint>
          <Trackpoint>
            <Time>2018-08-26T07:30:44.000Z</Time>
            <Position>
              <LatitudeDegrees>43.004847206175327301025390625</LatitudeDegrees>
              <LongitudeDegrees>-1.7627372033894062042236328125</LongitudeDegrees>
            </Position>
            <AltitudeMeters>551.5999755859375</AltitudeMeters>
            <DistanceMeters>47277.037190156</DistanceMeters>
          </Trackpoint>
          <Trackpoint>
            <Time>2018-08-26T07:30:45.000Z</Time>
            <Position>
              <LatitudeDegrees>43.004787862300872802734375</LatitudeDegrees>
              <LongitudeDegrees>-1.76269219256937503814697265625</LongitudeDegrees>
            </Position>
            <AltitudeMeters>551.79998779296875</AltitudeMeters>
            <DistanceMeters>47284.589273499</DistanceMeters>
          </Trackpoint>
          <Trackpoint>
            <Time>2018-08-26T07:30:46.000Z</Time>
            <Position>
              <LatitudeDegrees>43.0047296918928623199462890625</LatitudeDegrees>
              <LongitudeDegrees>-1.76264391280710697174072265625</LongitudeDegrees>
            </Position>
            <AltitudeMeters>552</AltitudeMeters>
            <DistanceMeters>47292.162848981</DistanceMeters>
          </Trackpoint>
          <Trackpoint>
            <Time>2018-08-26T07:30:47.000Z</Time>
            <Position>
              <LatitudeDegrees>43.00467361696064472198486328125</LatitudeDegrees>
              <LongitudeDegrees>-1.762593202292919158935546875</LongitudeDegrees>
            </Position>
            <AltitudeMeters>552.20001220703125</AltitudeMeters>
            <DistanceMeters>47299.645259953</DistanceMeters>
          </Trackpoint>
          <Trackpoint>
            <Time>2018-08-26T07:30:48.000Z</Time>
            <Position>
              <LatitudeDegrees>43.00462047569453716278076171875</LatitudeDegrees>
              <LongitudeDegrees>-1.76253796555101871490478515625</LongitudeDegrees>
            </Position>
            <AltitudeMeters>552.20001220703125</AltitudeMeters>
            <DistanceMeters>47307.074987895</DistanceMeters>
          </Trackpoint>
          <Trackpoint>
            <Time>2018-08-26T07:30:49.000Z</Time>
            <Position>
              <LatitudeDegrees>43.00457387231290340423583984375</LatitudeDegrees>
              <LongitudeDegrees>-1.762473173439502716064453125</LongitudeDegrees>
            </Position>
            <AltitudeMeters>552.4000244140625</AltitudeMeters>
            <DistanceMeters>47314.472437675</DistanceMeters>
          </Trackpoint>
          <Trackpoint>
            <Time>2018-08-26T07:30:50.000Z</Time>
            <Position>
              <LatitudeDegrees>43.0045362375676631927490234375</LatitudeDegrees>
              <LongitudeDegrees>-1.76239899359643459320068359375</LongitudeDegrees>
            </Position>
            <AltitudeMeters>552.5999755859375</AltitudeMeters>
            <DistanceMeters>47321.820897183</DistanceMeters>
          </Trackpoint>
          <Trackpoint>
            <Time>2018-08-26T07:30:51.000Z</Time>
            <Position>
              <LatitudeDegrees>43.0045097507536411285400390625</LatitudeDegrees>
              <LongitudeDegrees>-1.7623157612979412078857421875</LongitudeDegrees>
            </Position>
            <AltitudeMeters>552.5999755859375</AltitudeMeters>
            <DistanceMeters>47329.209186031</DistanceMeters>
          </Trackpoint>
          <Trackpoint>
            <Time>2018-08-26T07:30:52.000Z</Time>
            <Position>
              <LatitudeDegrees>43.00449474714696407318115234375</LatitudeDegrees>
              <LongitudeDegrees>-1.76222766749560832977294921875</LongitudeDegrees>
            </Position>
            <AltitudeMeters>552.5999755859375</AltitudeMeters>
            <DistanceMeters>47336.571150362</DistanceMeters>
          </Trackpoint>
          <Trackpoint>
            <Time>2018-08-26T07:30:53.000Z</Time>
            <Position>
              <LatitudeDegrees>43.0044869519770145416259765625</LatitudeDegrees>
              <LongitudeDegrees>-1.7621343769133090972900390625</LongitudeDegrees>
            </Position>
            <AltitudeMeters>552.79998779296875</AltitudeMeters>
            <DistanceMeters>47344.213567156</DistanceMeters>
          </Trackpoint>
          <Trackpoint>
            <Time>2018-08-26T07:30:54.000Z</Time>
            <Position>
              <LatitudeDegrees>43.004483766853809356689453125</LatitudeDegrees>
              <LongitudeDegrees>-1.7620391584932804107666015625</LongitudeDegrees>
            </Position>
            <AltitudeMeters>552.79998779296875</AltitudeMeters>
            <DistanceMeters>47351.972077939</DistanceMeters>
          </Trackpoint>
          <Trackpoint>
            <Time>2018-08-26T07:30:55.000Z</Time>
            <Position>
              <LatitudeDegrees>43.00448368303477764129638671875</LatitudeDegrees>
              <LongitudeDegrees>-1.76194285042583942413330078125</LongitudeDegrees>
            </Position>
            <AltitudeMeters>552.79998779296875</AltitudeMeters>
            <DistanceMeters>47359.811061942</DistanceMeters>
          </Trackpoint>
          <Trackpoint>
            <Time>2018-08-26T07:30:56.000Z</Time>
            <Position>
              <LatitudeDegrees>43.00448435358703136444091796875</LatitudeDegrees>
              <LongitudeDegrees>-1.76184578798711299896240234375</LongitudeDegrees>
            </Position>
            <AltitudeMeters>553</AltitudeMeters>
            <DistanceMeters>47367.711434616</DistanceMeters>
          </Trackpoint>
          <Trackpoint>
            <Time>2018-08-26T07:30:57.000Z</Time>
            <Position>
              <LatitudeDegrees>43.00448066554963588714599609375</LatitudeDegrees>
              <LongitudeDegrees>-1.76174922846257686614990234375</LongitudeDegrees>
            </Position>
            <AltitudeMeters>553</AltitudeMeters>
            <DistanceMeters>47375.580885947</DistanceMeters>
          </Trackpoint>
          <Trackpoint>
            <Time>2018-08-26T07:30:58.000Z</Time>
            <Position>
              <LatitudeDegrees>43.004471696913242340087890625</LatitudeDegrees>
              <LongitudeDegrees>-1.761652417480945587158203125</LongitudeDegrees>
            </Position>
            <AltitudeMeters>553</AltitudeMeters>
            <DistanceMeters>47383.523436799</DistanceMeters>
          </Trackpoint>
          <Trackpoint>
            <Time>2018-08-26T07:30:59.000Z</Time>
            <Position>
              <LatitudeDegrees>43.00445753149688243865966796875</LatitudeDegrees>
              <LongitudeDegrees>-1.76155594177544116973876953125</LongitudeDegrees>
            </Position>
            <AltitudeMeters>553</AltitudeMeters>
            <DistanceMeters>47391.532785278</DistanceMeters>
          </Trackpoint>
          <Trackpoint>
            <Time>2018-08-26T07:31:00.000Z</Time>
            <Position>
              <LatitudeDegrees>43.004438839852809906005859375</LatitudeDegrees>
              <LongitudeDegrees>-1.76146172918379306793212890625</LongitudeDegrees>
            </Position>
            <AltitudeMeters>553</AltitudeMeters>
            <DistanceMeters>47399.47874617</DistanceMeters>
          </Trackpoint>
          <Trackpoint>
            <Time>2018-08-26T07:31:01.000Z</Time>
            <Position>
              <LatitudeDegrees>43.00441704690456390380859375</LatitudeDegrees>
              <LongitudeDegrees>-1.76136835478246212005615234375</LongitudeDegrees>
            </Position>
            <AltitudeMeters>553</AltitudeMeters>
            <DistanceMeters>47407.456463812</DistanceMeters>
          </Trackpoint>
          <Trackpoint>
            <Time>2018-08-26T07:31:02.000Z</Time>
            <Position>
              <LatitudeDegrees>43.00439282320439815521240234375</LatitudeDegrees>
              <LongitudeDegrees>-1.76127917133271694183349609375</LongitudeDegrees>
            </Position>
            <AltitudeMeters>553</AltitudeMeters>
            <DistanceMeters>47415.199829203</DistanceMeters>
          </Trackpoint>
          <Trackpoint>
            <Time>2018-08-26T07:31:03.000Z</Time>
            <Position>
              <LatitudeDegrees>43.0043706111609935760498046875</LatitudeDegrees>
              <LongitudeDegrees>-1.7611915804445743560791015625</LongitudeDegrees>
            </Position>
            <AltitudeMeters>553</AltitudeMeters>
            <DistanceMeters>47422.745931645</DistanceMeters>
          </Trackpoint>
          <Trackpoint>
            <Time>2018-08-26T07:31:04.000Z</Time>
            <Position>
              <LatitudeDegrees>43.00436063669621944427490234375</LatitudeDegrees>
              <LongitudeDegrees>-1.76110281608998775482177734375</LongitudeDegrees>
            </Position>
            <AltitudeMeters>553</AltitudeMeters>
            <DistanceMeters>47430.055580222</DistanceMeters>
          </Trackpoint>
          <Trackpoint>
            <Time>2018-08-26T07:31:05.000Z</Time>
            <Position>
              <LatitudeDegrees>43.00436734221875667572021484375</LatitudeDegrees>
              <LongitudeDegrees>-1.76101681776344776153564453125</LongitudeDegrees>
            </Position>
            <AltitudeMeters>553</AltitudeMeters>
            <DistanceMeters>47437.094616338</DistanceMeters>
          </Trackpoint>
          <Trackpoint>
            <Time>2018-08-26T07:31:06.000Z</Time>
            <Position>
              <LatitudeDegrees>43.00438779406249523162841796875</LatitudeDegrees>
              <LongitudeDegrees>-1.7609448172152042388916015625</LongitudeDegrees>
            </Position>
            <AltitudeMeters>553</AltitudeMeters>
            <DistanceMeters>47443.382197325</DistanceMeters>
          </Trackpoint>
          <Trackpoint>
            <Time>2018-08-26T07:31:07.000Z</Time>
            <Position>
              <LatitudeDegrees>43.0044185556471347808837890625</LatitudeDegrees>
              <LongitudeDegrees>-1.76088773645460605621337890625</LongitudeDegrees>
            </Position>
            <AltitudeMeters>553</AltitudeMeters>
            <DistanceMeters>47449.153848043</DistanceMeters>
          </Trackpoint>
          <Trackpoint>
            <Time>2018-08-26T07:31:08.000Z</Time>
            <Position>
              <LatitudeDegrees>43.00444923341274261474609375</LatitudeDegrees>
              <LongitudeDegrees>-1.76084280945360660552978515625</LongitudeDegrees>
            </Position>
            <AltitudeMeters>553.20001220703125</AltitudeMeters>
            <DistanceMeters>47454.156984249</DistanceMeters>
          </Trackpoint>
          <Trackpoint>
            <Time>2018-08-26T07:31:09.000Z</Time>
            <Position>
              <LatitudeDegrees>43.00447815097868442535400390625</LatitudeDegrees>
              <LongitudeDegrees>-1.76081380806863307952880859375</LongitudeDegrees>
            </Position>
            <AltitudeMeters>553.20001220703125</AltitudeMeters>
            <DistanceMeters>47458.148106253</DistanceMeters>
          </Trackpoint>
          <Trackpoint>
            <Time>2018-08-26T07:31:10.000Z</Time>
            <Position>
              <LatitudeDegrees>43.00451369024813175201416015625</LatitudeDegrees>
              <LongitudeDegrees>-1.760787069797515869140625</LongitudeDegrees>
            </Position>
            <AltitudeMeters>553.20001220703125</AltitudeMeters>
            <DistanceMeters>47462.663625338</DistanceMeters>
          </Trackpoint>
          <Trackpoint>
            <Time>2018-08-26T07:31:11.000Z</Time>
            <Position>
              <LatitudeDegrees>43.0045585334300994873046875</LatitudeDegrees>
              <LongitudeDegrees>-1.76076217554509639739990234375</LongitudeDegrees>
            </Position>
            <AltitudeMeters>553.4000244140625</AltitudeMeters>
            <DistanceMeters>47468.050894191</DistanceMeters>
          </Trackpoint>
          <Trackpoint>
            <Time>2018-08-26T07:31:12.000Z</Time>
            <Position>
              <LatitudeDegrees>43.004603795707225799560546875</LatitudeDegrees>
              <LongitudeDegrees>-1.76073736511170864105224609375</LongitudeDegrees>
            </Position>
            <AltitudeMeters>553.4000244140625</AltitudeMeters>
            <DistanceMeters>47473.478242472</DistanceMeters>
          </Trackpoint>
          <Trackpoint>
            <Time>2018-08-26T07:31:13.000Z</Time>
            <Position>
              <LatitudeDegrees>43.00465098582208156585693359375</LatitudeDegrees>
              <LongitudeDegrees>-1.76071993075311183929443359375</LongitudeDegrees>
            </Position>
            <AltitudeMeters>553.5999755859375</AltitudeMeters>
            <DistanceMeters>47478.918884951</DistanceMeters>
          </Trackpoint>
          <Trackpoint>
            <Time>2018-08-26T07:31:14.000Z</Time>
            <Position>
              <LatitudeDegrees>43.004698343575000762939453125</LatitudeDegrees>
              <LongitudeDegrees>-1.7607074417173862457275390625</LongitudeDegrees>
            </Position>
            <AltitudeMeters>553.5999755859375</AltitudeMeters>
            <DistanceMeters>47484.286843029</DistanceMeters>
          </Trackpoint>
          <Trackpoint>
            <Time>2018-08-26T07:31:15.000Z</Time>
            <Position>
              <LatitudeDegrees>43.00474771298468112945556640625</LatitudeDegrees>
              <LongitudeDegrees>-1.76070366986095905303955078125</LongitudeDegrees>
            </Position>
            <AltitudeMeters>553.79998779296875</AltitudeMeters>
            <DistanceMeters>47489.790194407</DistanceMeters>
          </Trackpoint>
          <Trackpoint>
            <Time>2018-08-26T07:31:16.000Z</Time>
            <Position>
              <LatitudeDegrees>43.004798591136932373046875</LatitudeDegrees>
              <LongitudeDegrees>-1.7607084475457668304443359375</LongitudeDegrees>
            </Position>
            <AltitudeMeters>554</AltitudeMeters>
            <DistanceMeters>47495.466400249</DistanceMeters>
          </Trackpoint>
          <Trackpoint>
            <Time>2018-08-26T07:31:17.000Z</Time>
            <Position>
              <LatitudeDegrees>43.004848547279834747314453125</LatitudeDegrees>
              <LongitudeDegrees>-1.76071791909635066986083984375</LongitudeDegrees>
            </Position>
            <AltitudeMeters>554.20001220703125</AltitudeMeters>
            <DistanceMeters>47501.080219518</DistanceMeters>
          </Trackpoint>
          <Trackpoint>
            <Time>2018-08-26T07:31:18.000Z</Time>
            <Position>
              <LatitudeDegrees>43.0048993416130542755126953125</LatitudeDegrees>
              <LongitudeDegrees>-1.760726384818553924560546875</LongitudeDegrees>
            </Position>
            <AltitudeMeters>554.79998779296875</AltitudeMeters>
            <DistanceMeters>47506.774690917</DistanceMeters>
          </Trackpoint>
          <Trackpoint>
            <Time>2018-08-26T07:31:19.000Z</Time>
            <Position>
              <LatitudeDegrees>43.00494812428951263427734375</LatitudeDegrees>
              <LongitudeDegrees>-1.76073434762656688690185546875</LongitudeDegrees>
            </Position>
            <AltitudeMeters>555</AltitudeMeters>
            <DistanceMeters>47512.243476265</DistanceMeters>
          </Trackpoint>
          <Trackpoint>
            <Time>2018-08-26T07:31:20.000Z</Time>
            <Position>
              <LatitudeDegrees>43.0050005950033664703369140625</LatitudeDegrees>
              <LongitudeDegrees>-1.76074876450002193450927734375</LongitudeDegrees>
            </Position>
            <AltitudeMeters>555.20001220703125</AltitudeMeters>
            <DistanceMeters>47518.199157609</DistanceMeters>
          </Trackpoint>
          <Trackpoint>
            <Time>2018-08-26T07:31:21.000Z</Time>
            <Position>
              <LatitudeDegrees>43.00504677928984165191650390625</LatitudeDegrees>
              <LongitudeDegrees>-1.76076225936412811279296875</LongitudeDegrees>
            </Position>
            <AltitudeMeters>555.4000244140625</AltitudeMeters>
            <DistanceMeters>47523.455775715</DistanceMeters>
          </Trackpoint>
          <Trackpoint>
            <Time>2018-08-26T07:31:22.000Z</Time>
            <Position>
              <LatitudeDegrees>43.0050944723188877105712890625</LatitudeDegrees>
              <LongitudeDegrees>-1.760780028998851776123046875</LongitudeDegrees>
            </Position>
            <AltitudeMeters>555.5999755859375</AltitudeMeters>
            <DistanceMeters>47528.958306616</DistanceMeters>
          </Trackpoint>
          <Trackpoint>
            <Time>2018-08-26T07:31:23.000Z</Time>
            <Position>
              <LatitudeDegrees>43.00514317117631435394287109375</LatitudeDegrees>
              <LongitudeDegrees>-1.7607996426522731781005859375</LongitudeDegrees>
            </Position>
            <AltitudeMeters>556</AltitudeMeters>
            <DistanceMeters>47534.609001291</DistanceMeters>
          </Trackpoint>
          <Trackpoint>
            <Time>2018-08-26T07:31:24.000Z</Time>
            <Position>
              <LatitudeDegrees>43.0051893554627895355224609375</LatitudeDegrees>
              <LongitudeDegrees>-1.760824285447597503662109375</LongitudeDegrees>
            </Position>
            <AltitudeMeters>556.20001220703125</AltitudeMeters>
            <DistanceMeters>47540.126282115</DistanceMeters>
          </Trackpoint>
          <Trackpoint>
            <Time>2018-08-26T07:31:25.000Z</Time>
            <Position>
              <LatitudeDegrees>43.00523520447313785552978515625</LatitudeDegrees>
              <LongitudeDegrees>-1.76083962433040142059326171875</LongitudeDegrees>
            </Position>
            <AltitudeMeters>556.20001220703125</AltitudeMeters>
            <DistanceMeters>47545.3794634</DistanceMeters>
          </Trackpoint>
          <Trackpoint>
            <Time>2018-08-26T07:31:26.000Z</Time>
            <Position>
              <LatitudeDegrees>43.00528264604508876800537109375</LatitudeDegrees>
              <LongitudeDegrees>-1.7608539573848247528076171875</LongitudeDegrees>
            </Position>
            <AltitudeMeters>556.4000244140625</AltitudeMeters>
            <DistanceMeters>47550.787644018</DistanceMeters>
          </Trackpoint>
          <Trackpoint>
            <Time>2018-08-26T07:31:27.000Z</Time>
            <Position>
              <LatitudeDegrees>43.0053251422941684722900390625</LatitudeDegrees>
              <LongitudeDegrees>-1.76086862571537494659423828125</LongitudeDegrees>
            </Position>
            <AltitudeMeters>556.4000244140625</AltitudeMeters>
            <DistanceMeters>47555.666504696</DistanceMeters>
          </Trackpoint>
          <Trackpoint>
            <Time>2018-08-26T07:31:28.000Z</Time>
            <Position>
              <LatitudeDegrees>43.00537317059934139251708984375</LatitudeDegrees>
              <LongitudeDegrees>-1.760881282389163970947265625</LongitudeDegrees>
            </Position>
            <AltitudeMeters>556.79998779296875</AltitudeMeters>
            <DistanceMeters>47561.110465651</DistanceMeters>
          </Trackpoint>
          <Trackpoint>
            <Time>2018-08-26T07:31:29.000Z</Time>
            <Position>
              <LatitudeDegrees>43.0054284073412418365478515625</LatitudeDegrees>
              <LongitudeDegrees>-1.76090198568999767303466796875</LongitudeDegrees>
            </Position>
            <AltitudeMeters>557.20001220703125</AltitudeMeters>
            <DistanceMeters>47567.485051442</DistanceMeters>
          </Trackpoint>
          <Trackpoint>
            <Time>2018-08-26T07:31:30.000Z</Time>
            <Position>
              <LatitudeDegrees>43.005480878055095672607421875</LatitudeDegrees>
              <LongitudeDegrees>-1.76092143170535564422607421875</LongitudeDegrees>
            </Position>
            <AltitudeMeters>557.4000244140625</AltitudeMeters>
            <DistanceMeters>47573.535500177</DistanceMeters>
          </Trackpoint>
          <Trackpoint>
            <Time>2018-08-26T07:31:31.000Z</Time>
            <Position>
              <LatitudeDegrees>43.00553292967379093170166015625</LatitudeDegrees>
              <LongitudeDegrees>-1.76093802787363529205322265625</LongitudeDegrees>
            </Position>
            <AltitudeMeters>557.5999755859375</AltitudeMeters>
            <DistanceMeters>47579.484354654</DistanceMeters>
          </Trackpoint>
          <Trackpoint>
            <Time>2018-08-26T07:31:32.000Z</Time>
            <Position>
              <LatitudeDegrees>43.00558791495859622955322265625</LatitudeDegrees>
              <LongitudeDegrees>-1.76095378585159778594970703125</LongitudeDegrees>
            </Position>
            <AltitudeMeters>557.79998779296875</AltitudeMeters>
            <DistanceMeters>47585.737372406</DistanceMeters>
          </Trackpoint>
          <Trackpoint>
            <Time>2018-08-26T07:31:33.000Z</Time>
            <Position>
              <LatitudeDegrees>43.00564357079565525054931640625</LatitudeDegrees>
              <LongitudeDegrees>-1.76097407005727291107177734375</LongitudeDegrees>
            </Position>
            <AltitudeMeters>557.79998779296875</AltitudeMeters>
            <DistanceMeters>47592.147979077</DistanceMeters>
          </Trackpoint>
          <Trackpoint>
            <Time>2018-08-26T07:31:34.000Z</Time>
            <Position>
              <LatitudeDegrees>43.00570316612720489501953125</LatitudeDegrees>
              <LongitudeDegrees>-1.7609967850148677825927734375</LongitudeDegrees>
            </Position>
            <AltitudeMeters>558</AltitudeMeters>
            <DistanceMeters>47599.03463004</DistanceMeters>
          </Trackpoint>
          <Trackpoint>
            <Time>2018-08-26T07:31:35.000Z</Time>
            <Position>
              <LatitudeDegrees>43.00576628185808658599853515625</LatitudeDegrees>
              <LongitudeDegrees>-1.76101983524858951568603515625</LongitudeDegrees>
            </Position>
            <AltitudeMeters>558</AltitudeMeters>
            <DistanceMeters>47606.306502402</DistanceMeters>
          </Trackpoint>
          <Trackpoint>
            <Time>2018-08-26T07:31:36.000Z</Time>
            <Position>
              <LatitudeDegrees>43.005833588540554046630859375</LatitudeDegrees>
              <LongitudeDegrees>-1.76103894598782062530517578125</LongitudeDegrees>
            </Position>
            <AltitudeMeters>558.20001220703125</AltitudeMeters>
            <DistanceMeters>47613.957775864</DistanceMeters>
          </Trackpoint>
          <Trackpoint>
            <Time>2018-08-26T07:31:37.000Z</Time>
            <Position>
              <LatitudeDegrees>43.00590106286108493804931640625</LatitudeDegrees>
              <LongitudeDegrees>-1.76105805672705173492431640625</LongitudeDegrees>
            </Position>
            <AltitudeMeters>558.4000244140625</AltitudeMeters>
            <DistanceMeters>47621.627909372</DistanceMeters>
          </Trackpoint>
          <Trackpoint>
            <Time>2018-08-26T07:31:38.000Z</Time>
            <Position>
              <LatitudeDegrees>43.00597029738128185272216796875</LatitudeDegrees>
              <LongitudeDegrees>-1.76107632927596569061279296875</LongitudeDegrees>
            </Position>
            <AltitudeMeters>558.79998779296875</AltitudeMeters>
            <DistanceMeters>47629.476103523</DistanceMeters>
          </Trackpoint>
          <Trackpoint>
            <Time>2018-08-26T07:31:39.000Z</Time>
            <Position>
              <LatitudeDegrees>43.00604120828211307525634765625</LatitudeDegrees>
              <LongitudeDegrees>-1.76110021770000457763671875</LongitudeDegrees>
            </Position>
            <AltitudeMeters>559</AltitudeMeters>
            <DistanceMeters>47637.604082316</DistanceMeters>
          </Trackpoint>
          <Trackpoint>
            <Time>2018-08-26T07:31:40.000Z</Time>
            <Position>
              <LatitudeDegrees>43.00611329264938831329345703125</LatitudeDegrees>
              <LongitudeDegrees>-1.76112578250467777252197265625</LongitudeDegrees>
            </Position>
            <AltitudeMeters>559.20001220703125</AltitudeMeters>
            <DistanceMeters>47645.892678191</DistanceMeters>
          </Trackpoint>
          <Trackpoint>
            <Time>2018-08-26T07:31:41.000Z</Time>
            <Position>
              <LatitudeDegrees>43.0061893165111541748046875</LatitudeDegrees>
              <LongitudeDegrees>-1.7611540295183658599853515625</LongitudeDegrees>
            </Position>
            <AltitudeMeters>559.4000244140625</AltitudeMeters>
            <DistanceMeters>47654.661950168</DistanceMeters>
          </Trackpoint>
          <Trackpoint>
            <Time>2018-08-26T07:31:42.000Z</Time>
            <Position>
              <LatitudeDegrees>43.00626684911549091339111328125</LatitudeDegrees>
              <LongitudeDegrees>-1.76117640919983386993408203125</LongitudeDegrees>
            </Position>
            <AltitudeMeters>559.4000244140625</AltitudeMeters>
            <DistanceMeters>47663.481535106</DistanceMeters>
          </Trackpoint>
          <Trackpoint>
            <Time>2018-08-26T07:31:43.000Z</Time>
            <Position>
              <LatitudeDegrees>43.00634480081498622894287109375</LatitudeDegrees>
              <LongitudeDegrees>-1.76119677722454071044921875</LongitudeDegrees>
            </Position>
            <AltitudeMeters>559.4000244140625</AltitudeMeters>
            <DistanceMeters>47672.314420279</DistanceMeters>
          </Trackpoint>
          <Trackpoint>
            <Time>2018-08-26T07:31:44.000Z</Time>
            <Position>
              <LatitudeDegrees>43.00641956739127635955810546875</LatitudeDegrees>
              <LongitudeDegrees>-1.76121680997312068939208984375</LongitudeDegrees>
            </Position>
            <AltitudeMeters>559.5999755859375</AltitudeMeters>
            <DistanceMeters>47680.79472268</DistanceMeters>
          </Trackpoint>
          <Trackpoint>
            <Time>2018-08-26T07:31:45.000Z</Time>
            <Position>
              <LatitudeDegrees>43.00649617798626422882080078125</LatitudeDegrees>
              <LongitudeDegrees>-1.76123659126460552215576171875</LongitudeDegrees>
            </Position>
            <AltitudeMeters>559.5999755859375</AltitudeMeters>
            <DistanceMeters>47689.471863763</DistanceMeters>
          </Trackpoint>
          <Trackpoint>
            <Time>2018-08-26T07:31:46.000Z</Time>
            <Position>
              <LatitudeDegrees>43.00657262094318866729736328125</LatitudeDegrees>
              <LongitudeDegrees>-1.76125670783221721649169921875</LongitudeDegrees>
            </Position>
            <AltitudeMeters>559.5999755859375</AltitudeMeters>
            <DistanceMeters>47698.136507758</DistanceMeters>
          </Trackpoint>
          <Trackpoint>
            <Time>2018-08-26T07:31:47.000Z</Time>
            <Position>
              <LatitudeDegrees>43.00665308721363544464111328125</LatitudeDegrees>
              <LongitudeDegrees>-1.76125687547028064727783203125</LongitudeDegrees>
            </Position>
            <AltitudeMeters>559.5999755859375</AltitudeMeters>
            <DistanceMeters>47707.093248188</DistanceMeters>
          </Trackpoint>
          <Trackpoint>
            <Time>2018-08-26T07:31:48.000Z</Time>
            <Position>
              <LatitudeDegrees>43.0067333020269870758056640625</LatitudeDegrees>
              <LongitudeDegrees>-1.76125109195709228515625</LongitudeDegrees>
            </Position>
            <AltitudeMeters>559.5999755859375</AltitudeMeters>
            <DistanceMeters>47716.033843061</DistanceMeters>
          </Trackpoint>
          <Trackpoint>
            <Time>2018-08-26T07:31:49.000Z</Time>
            <Position>
              <LatitudeDegrees>43.0068137682974338531494140625</LatitudeDegrees>
              <LongitudeDegrees>-1.7612412013113498687744140625</LongitudeDegrees>
            </Position>
            <AltitudeMeters>559.5999755859375</AltitudeMeters>
            <DistanceMeters>47725.025800828</DistanceMeters>
          </Trackpoint>
          <Trackpoint>
            <Time>2018-08-26T07:31:50.000Z</Time>
            <Position>
              <LatitudeDegrees>43.00689398311078548431396484375</LatitudeDegrees>
              <LongitudeDegrees>-1.76122720353305339813232421875</LongitudeDegrees>
            </Position>
            <AltitudeMeters>559.5999755859375</AltitudeMeters>
            <DistanceMeters>47734.02629058</DistanceMeters>
          </Trackpoint>
          <Trackpoint>
            <Time>2018-08-26T07:31:51.000Z</Time>
            <Position>
              <LatitudeDegrees>43.00697059370577335357666015625</LatitudeDegrees>
              <LongitudeDegrees>-1.7612110264599323272705078125</LongitudeDegrees>
            </Position>
            <AltitudeMeters>559.5999755859375</AltitudeMeters>
            <DistanceMeters>47742.654381342</DistanceMeters>
          </Trackpoint>
          <Trackpoint>
            <Time>2018-08-26T07:31:52.000Z</Time>
            <Position>
              <LatitudeDegrees>43.00704837776720523834228515625</LatitudeDegrees>
              <LongitudeDegrees>-1.7611922509968280792236328125</LongitudeDegrees>
            </Position>
            <AltitudeMeters>559.5999755859375</AltitudeMeters>
            <DistanceMeters>47751.445764867</DistanceMeters>
          </Trackpoint>
          <Trackpoint>
            <Time>2018-08-26T07:31:53.000Z</Time>
            <Position>
              <LatitudeDegrees>43.00712482072412967681884765625</LatitudeDegrees>
              <LongitudeDegrees>-1.76117263734340667724609375</LongitudeDegrees>
            </Position>
            <AltitudeMeters>559.5999755859375</AltitudeMeters>
            <DistanceMeters>47760.102067446</DistanceMeters>
          </Trackpoint>
          <Trackpoint>
            <Time>2018-08-26T07:31:54.000Z</Time>
            <Position>
              <LatitudeDegrees>43.00720092840492725372314453125</LatitudeDegrees>
              <LongitudeDegrees>-1.76115009002387523651123046875</LongitudeDegrees>
            </Position>
            <AltitudeMeters>559.5999755859375</AltitudeMeters>
            <DistanceMeters>47768.769837402</DistanceMeters>
          </Trackpoint>
          <Trackpoint>
            <Time>2018-08-26T07:31:55.000Z</Time>
            <Position>
              <LatitudeDegrees>43.0072784610092639923095703125</LatitudeDegrees>
              <LongitudeDegrees>-1.76112611778080463409423828125</LongitudeDegrees>
            </Position>
            <AltitudeMeters>559.5999755859375</AltitudeMeters>
            <DistanceMeters>47777.617023543</DistanceMeters>
          </Trackpoint>
          <Trackpoint>
            <Time>2018-08-26T07:31:56.000Z</Time>
            <Position>
              <LatitudeDegrees>43.00735565833747386932373046875</LatitudeDegrees>
              <LongitudeDegrees>-1.76110717467963695526123046875</LongitudeDegrees>
            </Position>
            <AltitudeMeters>559.4000244140625</AltitudeMeters>
            <DistanceMeters>47786.347077677</DistanceMeters>
          </Trackpoint>
          <Trackpoint>
            <Time>2018-08-26T07:31:57.000Z</Time>
            <Position>
              <LatitudeDegrees>43.007429502904415130615234375</LatitudeDegrees>
              <LongitudeDegrees>-1.7610876448452472686767578125</LongitudeDegrees>
            </Position>
            <AltitudeMeters>559.4000244140625</AltitudeMeters>
            <DistanceMeters>47794.718062877</DistanceMeters>
          </Trackpoint>
          <Trackpoint>
            <Time>2018-08-26T07:31:58.000Z</Time>
            <Position>
              <LatitudeDegrees>43.00750686787068843841552734375</LatitudeDegrees>
              <LongitudeDegrees>-1.7610769160091876983642578125</LongitudeDegrees>
            </Position>
            <AltitudeMeters>559.4000244140625</AltitudeMeters>
            <DistanceMeters>47803.372800545</DistanceMeters>
          </Trackpoint>
          <Trackpoint>
            <Time>2018-08-26T07:31:59.000Z</Time>
            <Position>
              <LatitudeDegrees>43.00758582539856433868408203125</LatitudeDegrees>
              <LongitudeDegrees>-1.7610728926956653594970703125</LongitudeDegrees>
            </Position>
            <AltitudeMeters>559.20001220703125</AltitudeMeters>
            <DistanceMeters>47812.167264982</DistanceMeters>
          </Trackpoint>
          <Trackpoint>
            <Time>2018-08-26T07:32:00.000Z</Time>
            <Position>
              <LatitudeDegrees>43.00765849649906158447265625</LatitudeDegrees>
              <LongitudeDegrees>-1.76107314415276050567626953125</LongitudeDegrees>
            </Position>
            <AltitudeMeters>559.20001220703125</AltitudeMeters>
            <DistanceMeters>47820.25626578</DistanceMeters>
          </Trackpoint>
          <Trackpoint>
            <Time>2018-08-26T07:32:01.000Z</Time>
            <Position>
              <LatitudeDegrees>43.0077280662953853607177734375</LatitudeDegrees>
              <LongitudeDegrees>-1.76108119077980518341064453125</LongitudeDegrees>
            </Position>
            <AltitudeMeters>559.20001220703125</AltitudeMeters>
            <DistanceMeters>47828.027568841</DistanceMeters>
          </Trackpoint>
          <Trackpoint>
            <Time>2018-08-26T07:32:02.000Z</Time>
            <Position>
              <LatitudeDegrees>43.00779520533978939056396484375</LatitudeDegrees>
              <LongitudeDegrees>-1.7610990442335605621337890625</LongitudeDegrees>
            </Position>
            <AltitudeMeters>559.20001220703125</AltitudeMeters>
            <DistanceMeters>47835.639795883</DistanceMeters>
          </Trackpoint>
          <Trackpoint>
            <Time>2018-08-26T07:32:03.000Z</Time>
            <Position>
              <LatitudeDegrees>43.00786108709871768951416015625</LatitudeDegrees>
              <LongitudeDegrees>-1.76112527959048748016357421875</LongitudeDegrees>
            </Position>
            <AltitudeMeters>559.20001220703125</AltitudeMeters>
            <DistanceMeters>47843.276893745</DistanceMeters>
          </Trackpoint>
          <Trackpoint>
            <Time>2018-08-26T07:32:04.000Z</Time>
            <Position>
              <LatitudeDegrees>43.0079248733818531036376953125</LatitudeDegrees>
              <LongitudeDegrees>-1.7611570470035076141357421875</LongitudeDegrees>
            </Position>
            <AltitudeMeters>559.20001220703125</AltitudeMeters>
            <DistanceMeters>47850.832563356</DistanceMeters>
          </Trackpoint>
          <Trackpoint>
            <Time>2018-08-26T07:32:05.000Z</Time>
            <Position>
              <LatitudeDegrees>43.0079875700175762176513671875</LatitudeDegrees>
              <LongitudeDegrees>-1.76118998788297176361083984375</LongitudeDegrees>
            </Position>
            <AltitudeMeters>559.20001220703125</AltitudeMeters>
            <DistanceMeters>47858.307729778</DistanceMeters>
          </Trackpoint>
          <Trackpoint>
            <Time>2018-08-26T07:32:06.000Z</Time>
            <Position>
              <LatitudeDegrees>43.008047081530094146728515625</LatitudeDegrees>
              <LongitudeDegrees>-1.7612237669527530670166015625</LongitudeDegrees>
            </Position>
            <AltitudeMeters>559.20001220703125</AltitudeMeters>
            <DistanceMeters>47865.479571621</DistanceMeters>
          </Trackpoint>
          <Trackpoint>
            <Time>2018-08-26T07:32:07.000Z</Time>
            <Position>
              <LatitudeDegrees>43.0081072635948657989501953125</LatitudeDegrees>
              <LongitudeDegrees>-1.7612572945654392242431640625</LongitudeDegrees>
            </Position>
            <AltitudeMeters>559.20001220703125</AltitudeMeters>
            <DistanceMeters>47872.712846324</DistanceMeters>
          </Trackpoint>
          <Trackpoint>
            <Time>2018-08-26T07:32:08.000Z</Time>
            <Position>
              <LatitudeDegrees>43.00816736184060573577880859375</LatitudeDegrees>
              <LongitudeDegrees>-1.7612864635884761810302734375</LongitudeDegrees>
            </Position>
            <AltitudeMeters>559.4000244140625</AltitudeMeters>
            <DistanceMeters>47879.810012406</DistanceMeters>
          </Trackpoint>
          <Trackpoint>
            <Time>2018-08-26T07:32:09.000Z</Time>
            <Position>
              <LatitudeDegrees>43.00822771154344081878662109375</LatitudeDegrees>
              <LongitudeDegrees>-1.76131051965057849884033203125</LongitudeDegrees>
            </Position>
            <AltitudeMeters>559.5999755859375</AltitudeMeters>
            <DistanceMeters>47886.807231459</DistanceMeters>
          </Trackpoint>
          <Trackpoint>
            <Time>2018-08-26T07:32:10.000Z</Time>
            <Position>
              <LatitudeDegrees>43.008291833102703094482421875</LatitudeDegrees>
              <LongitudeDegrees>-1.761327199637889862060546875</LongitudeDegrees>
            </Position>
            <AltitudeMeters>560</AltitudeMeters>
            <DistanceMeters>47894.071649312</DistanceMeters>
          </Trackpoint>
          <Trackpoint>
            <Time>2018-08-26T07:32:11.000Z</Time>
            <Position>
              <LatitudeDegrees>43.00835578702390193939208984375</LatitudeDegrees>
              <LongitudeDegrees>-1.7613340727984905242919921875</LongitudeDegrees>
            </Position>
            <AltitudeMeters>560.4000244140625</AltitudeMeters>
            <DistanceMeters>47901.211944236</DistanceMeters>
          </Trackpoint>
          <Trackpoint>
            <Time>2018-08-26T07:32:12.000Z</Time>
            <Position>
              <LatitudeDegrees>43.0084150470793247222900390625</LatitudeDegrees>
              <LongitudeDegrees>-1.761336587369441986083984375</LongitudeDegrees>
            </Position>
            <AltitudeMeters>560.79998779296875</AltitudeMeters>
            <DistanceMeters>47907.8106584</DistanceMeters>
          </Trackpoint>
          <Trackpoint>
            <Time>2018-08-26T07:32:13.000Z</Time>
            <Position>
              <LatitudeDegrees>43.0084740556776523590087890625</LatitudeDegrees>
              <LongitudeDegrees>-1.7613354139029979705810546875</LongitudeDegrees>
            </Position>
            <AltitudeMeters>561</AltitudeMeters>
            <DistanceMeters>47914.37919745</DistanceMeters>
          </Trackpoint>
          <Trackpoint>
            <Time>2018-08-26T07:32:14.000Z</Time>
            <Position>
              <LatitudeDegrees>43.008531220257282257080078125</LatitudeDegrees>
              <LongitudeDegrees>-1.76132510416209697723388671875</LongitudeDegrees>
            </Position>
            <AltitudeMeters>561.20001220703125</AltitudeMeters>
            <DistanceMeters>47920.797546828</DistanceMeters>
          </Trackpoint>
          <Trackpoint>
            <Time>2018-08-26T07:32:15.000Z</Time>
            <Position>
              <LatitudeDegrees>43.0085845291614532470703125</LatitudeDegrees>
              <LongitudeDegrees>-1.7613052390515804290771484375</LongitudeDegrees>
            </Position>
            <AltitudeMeters>561.5999755859375</AltitudeMeters>
            <DistanceMeters>47926.947177723</DistanceMeters>
          </Trackpoint>
          <Trackpoint>
            <Time>2018-08-26T07:32:16.000Z</Time>
            <Position>
              <LatitudeDegrees>43.0086369998753070831298828125</LatitudeDegrees>
              <LongitudeDegrees>-1.761284954845905303955078125</LongitudeDegrees>
            </Position>
            <AltitudeMeters>562</AltitudeMeters>
            <DistanceMeters>47933.016253584</DistanceMeters>
          </Trackpoint>
          <Trackpoint>
            <Time>2018-08-26T07:32:17.000Z</Time>
            <Position>
              <LatitudeDegrees>43.008690811693668365478515625</LatitudeDegrees>
              <LongitudeDegrees>-1.76126643083989620208740234375</LongitudeDegrees>
            </Position>
            <AltitudeMeters>562.20001220703125</AltitudeMeters>
            <DistanceMeters>47939.19372095</DistanceMeters>
          </Trackpoint>
          <Trackpoint>
            <Time>2018-08-26T07:32:18.000Z</Time>
            <Position>
              <LatitudeDegrees>43.0087442882359027862548828125</LatitudeDegrees>
              <LongitudeDegrees>-1.76124379970133304595947265625</LongitudeDegrees>
            </Position>
            <AltitudeMeters>562.4000244140625</AltitudeMeters>
            <DistanceMeters>47945.425039326</DistanceMeters>
          </Trackpoint>
          <Trackpoint>
            <Time>2018-08-26T07:32:19.000Z</Time>
            <Position>
              <LatitudeDegrees>43.00879986025393009185791015625</LatitudeDegrees>
              <LongitudeDegrees>-1.76121982745826244354248046875</LongitudeDegrees>
            </Position>
            <AltitudeMeters>562.5999755859375</AltitudeMeters>
            <DistanceMeters>47951.910569072</DistanceMeters>
          </Trackpoint>
          <Trackpoint>
            <Time>2018-08-26T07:32:20.000Z</Time>
            <Position>
              <LatitudeDegrees>43.0088545940816402435302734375</LatitudeDegrees>
              <LongitudeDegrees>-1.76119945943355560302734375</LongitudeDegrees>
            </Position>
            <AltitudeMeters>563</AltitudeMeters>
            <DistanceMeters>47958.223948311</DistanceMeters>
          </Trackpoint>
          <Trackpoint>
            <Time>2018-08-26T07:32:21.000Z</Time>
            <Position>
              <LatitudeDegrees>43.0089095793664455413818359375</LatitudeDegrees>
              <LongitudeDegrees>-1.76118244417011737823486328125</LongitudeDegrees>
            </Position>
            <AltitudeMeters>563.4000244140625</AltitudeMeters>
            <DistanceMeters>47964.497870786</DistanceMeters>
          </Trackpoint>
          <Trackpoint>
            <Time>2018-08-26T07:32:22.000Z</Time>
            <Position>
              <LatitudeDegrees>43.00896414555609226226806640625</LatitudeDegrees>
              <LongitudeDegrees>-1.7611627466976642608642578125</LongitudeDegrees>
            </Position>
            <AltitudeMeters>563.79998779296875</AltitudeMeters>
            <DistanceMeters>47970.778266785</DistanceMeters>
          </Trackpoint>
          <Trackpoint>
            <Time>2018-08-26T07:32:23.000Z</Time>
            <Position>
              <LatitudeDegrees>43.00902013666927814483642578125</LatitudeDegrees>
              <LongitudeDegrees>-1.76114254631102085113525390625</LongitudeDegrees>
            </Position>
            <AltitudeMeters>564</AltitudeMeters>
            <DistanceMeters>47977.223292126</DistanceMeters>
          </Trackpoint>
          <Trackpoint>
            <Time>2018-08-26T07:32:24.000Z</Time>
            <Position>
              <LatitudeDegrees>43.0090755410492420196533203125</LatitudeDegrees>
              <LongitudeDegrees>-1.761123351752758026123046875</LongitudeDegrees>
            </Position>
            <AltitudeMeters>564.20001220703125</AltitudeMeters>
            <DistanceMeters>47983.58511597</DistanceMeters>
          </Trackpoint>
          <Trackpoint>
            <Time>2018-08-26T07:32:25.000Z</Time>
            <Position>
              <LatitudeDegrees>43.00913278944790363311767578125</LatitudeDegrees>
              <LongitudeDegrees>-1.7611114494502544403076171875</LongitudeDegrees>
            </Position>
            <AltitudeMeters>564.20001220703125</AltitudeMeters>
            <DistanceMeters>47990.030141311</DistanceMeters>
          </Trackpoint>
          <Trackpoint>
            <Time>2018-08-26T07:32:26.000Z</Time>
            <Position>
              <LatitudeDegrees>43.00918928347527980804443359375</LatitudeDegrees>
              <LongitudeDegrees>-1.761098541319370269775390625</LongitudeDegrees>
            </Position>
            <AltitudeMeters>564.20001220703125</AltitudeMeters>
            <DistanceMeters>47996.404727101</DistanceMeters>
          </Trackpoint>
          <Trackpoint>
            <Time>2018-08-26T07:32:27.000Z</Time>
            <Position>
              <LatitudeDegrees>43.0092470347881317138671875</LatitudeDegrees>
              <LongitudeDegrees>-1.76108278334140777587890625</LongitudeDegrees>
            </Position>
            <AltitudeMeters>564.5999755859375</AltitudeMeters>
            <DistanceMeters>48002.959504269</DistanceMeters>
          </Trackpoint>
          <Trackpoint>
            <Time>2018-08-26T07:32:28.000Z</Time>
            <Position>
              <LatitudeDegrees>43.0093038640916347503662109375</LatitudeDegrees>
              <LongitudeDegrees>-1.76106761209666728973388671875</LongitudeDegrees>
            </Position>
            <AltitudeMeters>564.79998779296875</AltitudeMeters>
            <DistanceMeters>48009.404529609</DistanceMeters>
          </Trackpoint>
          <Trackpoint>
            <Time>2018-08-26T07:32:29.000Z</Time>
            <Position>
              <LatitudeDegrees>43.0093618668615818023681640625</LatitudeDegrees>
              <LongitudeDegrees>-1.76105654798448085784912109375</LongitudeDegrees>
            </Position>
            <AltitudeMeters>565</AltitudeMeters>
            <DistanceMeters>48015.922697271</DistanceMeters>
          </Trackpoint>
          <Trackpoint>
            <Time>2018-08-26T07:32:30.000Z</Time>
            <Position>
              <LatitudeDegrees>43.00942263565957546234130859375</LatitudeDegrees>
              <LongitudeDegrees>-1.7610490880906581878662109375</LongitudeDegrees>
            </Position>
            <AltitudeMeters>565.4000244140625</AltitudeMeters>
            <DistanceMeters>48022.71361771</DistanceMeters>
          </Trackpoint>
          <Trackpoint>
            <Time>2018-08-26T07:32:31.000Z</Time>
            <Position>
              <LatitudeDegrees>43.00948466174304485321044921875</LatitudeDegrees>
              <LongitudeDegrees>-1.76104917190968990325927734375</LongitudeDegrees>
            </Position>
            <AltitudeMeters>565.5999755859375</AltitudeMeters>
            <DistanceMeters>48029.617293794</DistanceMeters>
          </Trackpoint>
          <Trackpoint>
            <Time>2018-08-26T07:32:32.000Z</Time>
            <Position>
              <LatitudeDegrees>43.0095459334552288055419921875</LatitudeDegrees>
              <LongitudeDegrees>-1.76105101592838764190673828125</LongitudeDegrees>
            </Position>
            <AltitudeMeters>566</AltitudeMeters>
            <DistanceMeters>48036.438067492</DistanceMeters>
          </Trackpoint>
          <Trackpoint>
            <Time>2018-08-26T07:32:33.000Z</Time>
            <Position>
              <LatitudeDegrees>43.0096072889864444732666015625</LatitudeDegrees>
              <LongitudeDegrees>-1.76105319522321224212646484375</LongitudeDegrees>
            </Position>
            <AltitudeMeters>566.4000244140625</AltitudeMeters>
            <DistanceMeters>48043.269424243</DistanceMeters>
          </Trackpoint>
          <Trackpoint>
            <Time>2018-08-26T07:32:34.000Z</Time>
            <Position>
              <LatitudeDegrees>43.0096696503460407257080078125</LatitudeDegrees>
              <LongitudeDegrees>-1.7610584758222103118896484375</LongitudeDegrees>
            </Position>
            <AltitudeMeters>566.5999755859375</AltitudeMeters>
            <DistanceMeters>48050.223276366</DistanceMeters>
          </Trackpoint>
          <Trackpoint>
            <Time>2018-08-26T07:32:35.000Z</Time>
            <Position>
              <LatitudeDegrees>43.009730838239192962646484375</LatitudeDegrees>
              <LongitudeDegrees>-1.76106610335409641265869140625</LongitudeDegrees>
            </Position>
            <AltitudeMeters>566.79998779296875</AltitudeMeters>
            <DistanceMeters>48057.061899466</DistanceMeters>
          </Trackpoint>
          <Trackpoint>
            <Time>2018-08-26T07:32:36.000Z</Time>
            <Position>
              <LatitudeDegrees>43.00979294814169406890869140625</LatitudeDegrees>
              <LongitudeDegrees>-1.76107448525726795196533203125</LongitudeDegrees>
            </Position>
            <AltitudeMeters>567</AltitudeMeters>
            <DistanceMeters>48064.007955789</DistanceMeters>
          </Trackpoint>
          <Trackpoint>
            <Time>2018-08-26T07:32:37.000Z</Time>
            <Position>
              <LatitudeDegrees>43.0098545551300048828125</LatitudeDegrees>
              <LongitudeDegrees>-1.761081777513027191162109375</LongitudeDegrees>
            </Position>
            <AltitudeMeters>567.20001220703125</AltitudeMeters>
            <DistanceMeters>48070.89001587</DistanceMeters>
          </Trackpoint>
          <Trackpoint>
            <Time>2018-08-26T07:32:38.000Z</Time>
            <Position>
              <LatitudeDegrees>43.00991482101380825042724609375</LatitudeDegrees>
              <LongitudeDegrees>-1.761089824140071868896484375</LongitudeDegrees>
            </Position>
            <AltitudeMeters>567.4000244140625</AltitudeMeters>
            <DistanceMeters>48077.630217246</DistanceMeters>
          </Trackpoint>
          <Trackpoint>
            <Time>2018-08-26T07:32:39.000Z</Time>
            <Position>
              <LatitudeDegrees>43.00997382961213588714599609375</LatitudeDegrees>
              <LongitudeDegrees>-1.7611017264425754547119140625</LongitudeDegrees>
            </Position>
            <AltitudeMeters>567.5999755859375</AltitudeMeters>
            <DistanceMeters>48084.269178243</DistanceMeters>
          </Trackpoint>
          <Trackpoint>
            <Time>2018-08-26T07:32:40.000Z</Time>
            <Position>
              <LatitudeDegrees>43.01003267057240009307861328125</LatitudeDegrees>
              <LongitudeDegrees>-1.761115305125713348388671875</LongitudeDegrees>
            </Position>
            <AltitudeMeters>567.79998779296875</AltitudeMeters>
            <DistanceMeters>48090.910179173</DistanceMeters>
          </Trackpoint>
          <Trackpoint>
            <Time>2018-08-26T07:32:41.000Z</Time>
            <Position>
              <LatitudeDegrees>43.0100904218852519989013671875</LatitudeDegrees>
              <LongitudeDegrees>-1.76112947054207324981689453125</LongitudeDegrees>
            </Position>
            <AltitudeMeters>567.79998779296875</AltitudeMeters>
            <DistanceMeters>48097.440111865</DistanceMeters>
          </Trackpoint>
          <Trackpoint>
            <Time>2018-08-26T07:32:42.000Z</Time>
            <Position>
              <LatitudeDegrees>43.01015119068324565887451171875</LatitudeDegrees>
              <LongitudeDegrees>-1.76113768480718135833740234375</LongitudeDegrees>
            </Position>
            <AltitudeMeters>568</AltitudeMeters>
            <DistanceMeters>48104.237013445</DistanceMeters>
          </Trackpoint>
          <Trackpoint>
            <Time>2018-08-26T07:32:43.000Z</Time>
            <Position>
              <LatitudeDegrees>43.01021170802414417266845703125</LatitudeDegrees>
              <LongitudeDegrees>-1.76114237867295742034912109375</LongitudeDegrees>
            </Position>
            <AltitudeMeters>568</AltitudeMeters>
            <DistanceMeters>48110.98324093</DistanceMeters>
          </Trackpoint>
          <Trackpoint>
            <Time>2018-08-26T07:32:44.000Z</Time>
            <Position>
              <LatitudeDegrees>43.01027105189859867095947265625</LatitudeDegrees>
              <LongitudeDegrees>-1.76115025766193866729736328125</LongitudeDegrees>
            </Position>
            <AltitudeMeters>568.20001220703125</AltitudeMeters>
            <DistanceMeters>48117.619481042</DistanceMeters>
          </Trackpoint>
          <Trackpoint>
            <Time>2018-08-26T07:32:45.000Z</Time>
            <Position>
              <LatitudeDegrees>43.01033156923949718475341796875</LatitudeDegrees>
              <LongitudeDegrees>-1.76115495152771472930908203125</LongitudeDegrees>
            </Position>
            <AltitudeMeters>568.20001220703125</AltitudeMeters>
            <DistanceMeters>48124.366377762</DistanceMeters>
          </Trackpoint>
          <Trackpoint>
            <Time>2018-08-26T07:32:46.000Z</Time>
            <Position>
              <LatitudeDegrees>43.01039376296103000640869140625</LatitudeDegrees>
              <LongitudeDegrees>-1.7611550353467464447021484375</LongitudeDegrees>
            </Position>
            <AltitudeMeters>568.5999755859375</AltitudeMeters>
            <DistanceMeters>48131.288341761</DistanceMeters>
          </Trackpoint>
          <Trackpoint>
            <Time>2018-08-26T07:32:47.000Z</Time>
            <Position>
              <LatitudeDegrees>43.0104545317590236663818359375</LatitudeDegrees>
              <LongitudeDegrees>-1.76115763373672962188720703125</LongitudeDegrees>
            </Position>
            <AltitudeMeters>568.79998779296875</AltitudeMeters>
            <DistanceMeters>48138.055284767</DistanceMeters>
          </Trackpoint>
          <Trackpoint>
            <Time>2018-08-26T07:32:48.000Z</Time>
            <Position>
              <LatitudeDegrees>43.01051362417638301849365234375</LatitudeDegrees>
              <LongitudeDegrees>-1.76115780137479305267333984375</LongitudeDegrees>
            </Position>
            <AltitudeMeters>569</AltitudeMeters>
            <DistanceMeters>48144.632067124</DistanceMeters>
          </Trackpoint>
          <Trackpoint>
            <Time>2018-08-26T07:32:49.000Z</Time>
            <Position>
              <LatitudeDegrees>43.0105681903660297393798828125</LatitudeDegrees>
              <LongitudeDegrees>-1.761162243783473968505859375</LongitudeDegrees>
            </Position>
            <AltitudeMeters>569.20001220703125</AltitudeMeters>
            <DistanceMeters>48150.715261455</DistanceMeters>
          </Trackpoint>
          <Trackpoint>
            <Time>2018-08-26T07:32:50.000Z</Time>
            <Position>
              <LatitudeDegrees>43.0106111057102680206298828125</LatitudeDegrees>
              <LongitudeDegrees>-1.76117909140884876251220703125</LongitudeDegrees>
            </Position>
            <AltitudeMeters>569.4000244140625</AltitudeMeters>
            <DistanceMeters>48155.683986543</DistanceMeters>
          </Trackpoint>
          <Trackpoint>
            <Time>2018-08-26T07:32:51.000Z</Time>
            <Position>
              <LatitudeDegrees>43.0106536857783794403076171875</LatitudeDegrees>
              <LongitudeDegrees>-1.76119401119649410247802734375</LongitudeDegrees>
            </Position>
            <AltitudeMeters>569.79998779296875</AltitudeMeters>
            <DistanceMeters>48160.575786066</DistanceMeters>
          </Trackpoint>
          <Trackpoint>
            <Time>2018-08-26T07:32:52.000Z</Time>
            <Position>
              <LatitudeDegrees>43.01070146262645721435546875</LatitudeDegrees>
              <LongitudeDegrees>-1.76120591349899768829345703125</LongitudeDegrees>
            </Position>
            <AltitudeMeters>570</AltitudeMeters>
            <DistanceMeters>48165.980626239</DistanceMeters>
          </Trackpoint>
          <Trackpoint>
            <Time>2018-08-26T07:32:53.000Z</Time>
            <Position>
              <LatitudeDegrees>43.010749407112598419189453125</LatitudeDegrees>
              <LongitudeDegrees>-1.7612121999263763427734375</LongitudeDegrees>
            </Position>
            <AltitudeMeters>570.20001220703125</AltitudeMeters>
            <DistanceMeters>48171.341851222</DistanceMeters>
          </Trackpoint>
          <Trackpoint>
            <Time>2018-08-26T07:32:54.000Z</Time>
            <Position>
              <LatitudeDegrees>43.01079844124615192413330078125</LatitudeDegrees>
              <LongitudeDegrees>-1.76122066564857959747314453125</LongitudeDegrees>
            </Position>
            <AltitudeMeters>570.4000244140625</AltitudeMeters>
            <DistanceMeters>48176.842740802</DistanceMeters>
          </Trackpoint>
          <Trackpoint>
            <Time>2018-08-26T07:32:55.000Z</Time>
            <Position>
              <LatitudeDegrees>43.01085040904581546783447265625</LatitudeDegrees>
              <LongitudeDegrees>-1.76122753880918025970458984375</LongitudeDegrees>
            </Position>
            <AltitudeMeters>570.4000244140625</AltitudeMeters>
            <DistanceMeters>48182.653373799</DistanceMeters>
          </Trackpoint>
          <Trackpoint>
            <Time>2018-08-26T07:32:56.000Z</Time>
            <Position>
              <LatitudeDegrees>43.010905645787715911865234375</LatitudeDegrees>
              <LongitudeDegrees>-1.76123206503689289093017578125</LongitudeDegrees>
            </Position>
            <AltitudeMeters>570.5999755859375</AltitudeMeters>
            <DistanceMeters>48188.811808751</DistanceMeters>
          </Trackpoint>
          <Trackpoint>
            <Time>2018-08-26T07:32:57.000Z</Time>
            <Position>
              <LatitudeDegrees>43.0109561048448085784912109375</LatitudeDegrees>
              <LongitudeDegrees>-1.7612309753894805908203125</LongitudeDegrees>
            </Position>
            <AltitudeMeters>570.79998779296875</AltitudeMeters>
            <DistanceMeters>48194.428844188</DistanceMeters>
          </Trackpoint>
          <Trackpoint>
            <Time>2018-08-26T07:32:58.000Z</Time>
            <Position>
              <LatitudeDegrees>43.011009581387042999267578125</LatitudeDegrees>
              <LongitudeDegrees>-1.76121823489665985107421875</LongitudeDegrees>
            </Position>
            <AltitudeMeters>571</AltitudeMeters>
            <DistanceMeters>48200.471825996</DistanceMeters>
          </Trackpoint>
          <Trackpoint>
            <Time>2018-08-26T07:32:59.000Z</Time>
            <Position>
              <LatitudeDegrees>43.01106096245348453521728515625</LatitudeDegrees>
              <LongitudeDegrees>-1.7611952684819698333740234375</LongitudeDegrees>
            </Position>
            <AltitudeMeters>571.20001220703125</AltitudeMeters>
            <DistanceMeters>48206.489350948</DistanceMeters>
          </Trackpoint>
          <Trackpoint>
            <Time>2018-08-26T07:33:00.000Z</Time>
            <Position>
              <LatitudeDegrees>43.011109828948974609375</LatitudeDegrees>
              <LongitudeDegrees>-1.76116526126861572265625</LongitudeDegrees>
            </Position>
            <AltitudeMeters>571.4000244140625</AltitudeMeters>
            <DistanceMeters>48212.451094055</DistanceMeters>
          </Trackpoint>
          <Trackpoint>
            <Time>2018-08-26T07:33:01.000Z</Time>
            <Position>
              <LatitudeDegrees>43.01115618087351322174072265625</LatitudeDegrees>
              <LongitudeDegrees>-1.761130057275295257568359375</LongitudeDegrees>
            </Position>
            <AltitudeMeters>571.79998779296875</AltitudeMeters>
            <DistanceMeters>48218.351939314</DistanceMeters>
          </Trackpoint>
          <Trackpoint>
            <Time>2018-08-26T07:33:02.000Z</Time>
            <Position>
              <LatitudeDegrees>43.01119691692292690277099609375</LatitudeDegrees>
              <LongitudeDegrees>-1.7610889859497547149658203125</LongitudeDegrees>
            </Position>
            <AltitudeMeters>572</AltitudeMeters>
            <DistanceMeters>48223.985028043</DistanceMeters>
          </Trackpoint>
          <Trackpoint>
            <Time>2018-08-26T07:33:03.000Z</Time>
            <Position>
              <LatitudeDegrees>43.0112394131720066070556640625</LatitudeDegrees>
              <LongitudeDegrees>-1.76105462014675140380859375</LongitudeDegrees>
            </Position>
            <AltitudeMeters>572.20001220703125</AltitudeMeters>
            <DistanceMeters>48229.480169135</DistanceMeters>
          </Trackpoint>
          <Trackpoint>
            <Time>2018-08-26T07:33:04.000Z</Time>
            <Position>
              <LatitudeDegrees>43.01127889193594455718994140625</LatitudeDegrees>
              <LongitudeDegrees>-1.7610202543437480926513671875</LongitudeDegrees>
            </Position>
            <AltitudeMeters>572.20001220703125</AltitudeMeters>
            <DistanceMeters>48234.688465367</DistanceMeters>
          </Trackpoint>
          <Trackpoint>
            <Time>2018-08-26T07:33:05.000Z</Time>
            <Position>
              <LatitudeDegrees>43.0113168619573116302490234375</LatitudeDegrees>
              <LongitudeDegrees>-1.76098488271236419677734375</LongitudeDegrees>
            </Position>
            <AltitudeMeters>572.4000244140625</AltitudeMeters>
            <DistanceMeters>48239.802280125</DistanceMeters>
          </Trackpoint>
          <Trackpoint>
            <Time>2018-08-26T07:33:06.000Z</Time>
            <Position>
              <LatitudeDegrees>43.01135231740772724151611328125</LatitudeDegrees>
              <LongitudeDegrees>-1.760948002338409423828125</LongitudeDegrees>
            </Position>
            <AltitudeMeters>572.5999755859375</AltitudeMeters>
            <DistanceMeters>48244.760088924</DistanceMeters>
          </Trackpoint>
          <Trackpoint>
            <Time>2018-08-26T07:33:07.000Z</Time>
            <Position>
              <LatitudeDegrees>43.011387772858142852783203125</LatitudeDegrees>
              <LongitudeDegrees>-1.76090885885059833526611328125</LongitudeDegrees>
            </Position>
            <AltitudeMeters>572.79998779296875</AltitudeMeters>
            <DistanceMeters>48249.831346925</DistanceMeters>
          </Trackpoint>
          <Trackpoint>
            <Time>2018-08-26T07:33:08.000Z</Time>
            <Position>
              <LatitudeDegrees>43.011419288814067840576171875</LatitudeDegrees>
              <LongitudeDegrees>-1.7608687095344066619873046875</LongitudeDegrees>
            </Position>
            <AltitudeMeters>573.20001220703125</AltitudeMeters>
            <DistanceMeters>48254.625253948</DistanceMeters>
          </Trackpoint>
          <Trackpoint>
            <Time>2018-08-26T07:33:09.000Z</Time>
            <Position>
              <LatitudeDegrees>43.01145038567483425140380859375</LatitudeDegrees>
              <LongitudeDegrees>-1.760826297104358673095703125</LongitudeDegrees>
            </Position>
            <AltitudeMeters>573.4000244140625</AltitudeMeters>
            <DistanceMeters>48259.515207161</DistanceMeters>
          </Trackpoint>
          <Trackpoint>
            <Time>2018-08-26T07:33:10.000Z</Time>
            <Position>
              <LatitudeDegrees>43.0114798061549663543701171875</LatitudeDegrees>
              <LongitudeDegrees>-1.76078313030302524566650390625</LongitudeDegrees>
            </Position>
            <AltitudeMeters>573.5999755859375</AltitudeMeters>
            <DistanceMeters>48264.31758316</DistanceMeters>
          </Trackpoint>
          <Trackpoint>
            <Time>2018-08-26T07:33:11.000Z</Time>
            <Position>
              <LatitudeDegrees>43.01150956191122531890869140625</LatitudeDegrees>
              <LongitudeDegrees>-1.7607379518449306488037109375</LongitudeDegrees>
            </Position>
            <AltitudeMeters>574</AltitudeMeters>
            <DistanceMeters>48269.266276656</DistanceMeters>
          </Trackpoint>
          <Trackpoint>
            <Time>2018-08-26T07:33:12.000Z</Time>
            <Position>
              <LatitudeDegrees>43.01153990440070629119873046875</LatitudeDegrees>
              <LongitudeDegrees>-1.76069159992039203643798828125</LongitudeDegrees>
            </Position>
            <AltitudeMeters>574.4000244140625</AltitudeMeters>
            <DistanceMeters>48274.328623636</DistanceMeters>
          </Trackpoint>
          <Trackpoint>
            <Time>2018-08-26T07:33:13.000Z</Time>
            <Position>
              <LatitudeDegrees>43.01156974397599697113037109375</LatitudeDegrees>
              <LongitudeDegrees>-1.76064650528132915496826171875</LongitudeDegrees>
            </Position>
            <AltitudeMeters>574.79998779296875</AltitudeMeters>
            <DistanceMeters>48279.279141535</DistanceMeters>
          </Trackpoint>
          <Trackpoint>
            <Time>2018-08-26T07:33:14.000Z</Time>
            <Position>
              <LatitudeDegrees>43.01160025410354137420654296875</LatitudeDegrees>
              <LongitudeDegrees>-1.760599650442600250244140625</LongitudeDegrees>
            </Position>
            <AltitudeMeters>575.5999755859375</AltitudeMeters>
            <DistanceMeters>48284.385888129</DistanceMeters>
          </Trackpoint>
          <Trackpoint>
            <Time>2018-08-26T07:33:15.000Z</Time>
            <Position>
              <LatitudeDegrees>43.0116293393075466156005859375</LatitudeDegrees>
              <LongitudeDegrees>-1.7605515383183956146240234375</LongitudeDegrees>
            </Position>
            <AltitudeMeters>576</AltitudeMeters>
            <DistanceMeters>48289.466930202</DistanceMeters>
          </Trackpoint>
          <Trackpoint>
            <Time>2018-08-26T07:33:16.000Z</Time>
            <Position>
              <LatitudeDegrees>43.01165658049285411834716796875</LatitudeDegrees>
              <LongitudeDegrees>-1.7605049349367618560791015625</LongitudeDegrees>
            </Position>
            <AltitudeMeters>576.20001220703125</AltitudeMeters>
            <DistanceMeters>48294.323529802</DistanceMeters>
          </Trackpoint>
          <Trackpoint>
            <Time>2018-08-26T07:33:17.000Z</Time>
            <Position>
              <LatitudeDegrees>43.0116836540400981903076171875</LatitudeDegrees>
              <LongitudeDegrees>-1.76045975647866725921630859375</LongitudeDegrees>
            </Position>
            <AltitudeMeters>576.5999755859375</AltitudeMeters>
            <DistanceMeters>48299.076765675</DistanceMeters>
          </Trackpoint>
          <Trackpoint>
            <Time>2018-08-26T07:33:18.000Z</Time>
            <Position>
              <LatitudeDegrees>43.01171206869184970855712890625</LatitudeDegrees>
              <LongitudeDegrees>-1.7604160867631435394287109375</LongitudeDegrees>
            </Position>
            <AltitudeMeters>577</AltitudeMeters>
            <DistanceMeters>48303.833799579</DistanceMeters>
          </Trackpoint>
          <Trackpoint>
            <Time>2018-08-26T07:33:19.000Z</Time>
            <Position>
              <LatitudeDegrees>43.011741824448108673095703125</LatitudeDegrees>
              <LongitudeDegrees>-1.76037333905696868896484375</LongitudeDegrees>
            </Position>
            <AltitudeMeters>577.4000244140625</AltitudeMeters>
            <DistanceMeters>48308.638055546</DistanceMeters>
          </Trackpoint>
          <Trackpoint>
            <Time>2018-08-26T07:33:20.000Z</Time>
            <Position>
              <LatitudeDegrees>43.011772334575653076171875</LatitudeDegrees>
              <LongitudeDegrees>-1.76033042371273040771484375</LongitudeDegrees>
            </Position>
            <AltitudeMeters>577.5999755859375</AltitudeMeters>
            <DistanceMeters>48313.509507167</DistanceMeters>
          </Trackpoint>
          <Trackpoint>
            <Time>2018-08-26T07:33:21.000Z</Time>
            <Position>
              <LatitudeDegrees>43.01180242560803890228271484375</LatitudeDegrees>
              <LongitudeDegrees>-1.7602859996259212493896484375</LongitudeDegrees>
            </Position>
            <AltitudeMeters>577.5999755859375</AltitudeMeters>
            <DistanceMeters>48318.437171477</DistanceMeters>
          </Trackpoint>
          <Trackpoint>
            <Time>2018-08-26T07:33:22.000Z</Time>
            <Position>
              <LatitudeDegrees>43.01183243282139301300048828125</LatitudeDegrees>
              <LongitudeDegrees>-1.7602414079010486602783203125</LongitudeDegrees>
            </Position>
            <AltitudeMeters>577.79998779296875</AltitudeMeters>
            <DistanceMeters>48323.369414977</DistanceMeters>
          </Trackpoint>
          <Trackpoint>
            <Time>2018-08-26T07:33:23.000Z</Time>
            <Position>
              <LatitudeDegrees>43.0118636973202228546142578125</LatitudeDegrees>
              <LongitudeDegrees>-1.76019857637584209442138671875</LongitudeDegrees>
            </Position>
            <AltitudeMeters>578</AltitudeMeters>
            <DistanceMeters>48328.29524642</DistanceMeters>
          </Trackpoint>
          <Trackpoint>
            <Time>2018-08-26T07:33:24.000Z</Time>
            <Position>
              <LatitudeDegrees>43.01189295016229152679443359375</LatitudeDegrees>
              <LongitudeDegrees>-1.760154068470001220703125</LongitudeDegrees>
            </Position>
            <AltitudeMeters>578.4000244140625</AltitudeMeters>
            <DistanceMeters>48333.166698041</DistanceMeters>
          </Trackpoint>
          <Trackpoint>
            <Time>2018-08-26T07:33:25.000Z</Time>
            <Position>
              <LatitudeDegrees>43.01192044280469417572021484375</LatitudeDegrees>
              <LongitudeDegrees>-1.760108135640621185302734375</LongitudeDegrees>
            </Position>
            <AltitudeMeters>578.79998779296875</AltitudeMeters>
            <DistanceMeters>48337.997196724</DistanceMeters>
          </Trackpoint>
          <Trackpoint>
            <Time>2018-08-26T07:33:26.000Z</Time>
            <Position>
              <LatitudeDegrees>43.0119480192661285400390625</LatitudeDegrees>
              <LongitudeDegrees>-1.76006111316382884979248046875</LongitudeDegrees>
            </Position>
            <AltitudeMeters>579</AltitudeMeters>
            <DistanceMeters>48342.903741721</DistanceMeters>
          </Trackpoint>
          <Trackpoint>
            <Time>2018-08-26T07:33:27.000Z</Time>
            <Position>
              <LatitudeDegrees>43.01197551190853118896484375</LatitudeDegrees>
              <LongitudeDegrees>-1.76001333631575107574462890625</LongitudeDegrees>
            </Position>
            <AltitudeMeters>579.4000244140625</AltitudeMeters>
            <DistanceMeters>48347.852435216</DistanceMeters>
          </Trackpoint>
          <Trackpoint>
            <Time>2018-08-26T07:33:28.000Z</Time>
            <Position>
              <LatitudeDegrees>43.012003004550933837890625</LatitudeDegrees>
              <LongitudeDegrees>-1.75996623001992702484130859375</LongitudeDegrees>
            </Position>
            <AltitudeMeters>579.79998779296875</AltitudeMeters>
            <DistanceMeters>48352.758980213</DistanceMeters>
          </Trackpoint>
          <Trackpoint>
            <Time>2018-08-26T07:33:29.000Z</Time>
            <Position>
              <LatitudeDegrees>43.01203108392655849456787109375</LatitudeDegrees>
              <LongitudeDegrees>-1.75991862080991268157958984375</LongitudeDegrees>
            </Position>
            <AltitudeMeters>580</AltitudeMeters>
            <DistanceMeters>48357.736783921</DistanceMeters>
          </Trackpoint>
          <Trackpoint>
            <Time>2018-08-26T07:33:30.000Z</Time>
            <Position>
              <LatitudeDegrees>43.0120581574738025665283203125</LatitudeDegrees>
              <LongitudeDegrees>-1.7598685808479785919189453125</LongitudeDegrees>
            </Position>
            <AltitudeMeters>580.20001220703125</AltitudeMeters>
            <DistanceMeters>48362.804479394</DistanceMeters>
          </Trackpoint>
          <Trackpoint>
            <Time>2018-08-26T07:33:31.000Z</Time>
            <Position>
              <LatitudeDegrees>43.0120869912207126617431640625</LatitudeDegrees>
              <LongitudeDegrees>-1.759818457067012786865234375</LongitudeDegrees>
            </Position>
            <AltitudeMeters>580.79998779296875</AltitudeMeters>
            <DistanceMeters>48367.995408801</DistanceMeters>
          </Trackpoint>
          <Trackpoint>
            <Time>2018-08-26T07:33:32.000Z</Time>
            <Position>
              <LatitudeDegrees>43.01211389712989330291748046875</LatitudeDegrees>
              <LongitudeDegrees>-1.75976724363863468170166015625</LongitudeDegrees>
            </Position>
            <AltitudeMeters>581</AltitudeMeters>
            <DistanceMeters>48373.127731179</DistanceMeters>
          </Trackpoint>
          <Trackpoint>
            <Time>2018-08-26T07:33:33.000Z</Time>
            <Position>
              <LatitudeDegrees>43.0121396295726299285888671875</LatitudeDegrees>
              <LongitudeDegrees>-1.75971443764865398406982421875</LongitudeDegrees>
            </Position>
            <AltitudeMeters>581.4000244140625</AltitudeMeters>
            <DistanceMeters>48378.292500856</DistanceMeters>
          </Trackpoint>
          <Trackpoint>
            <Time>2018-08-26T07:33:34.000Z</Time>
            <Position>
              <LatitudeDegrees>43.01216485910117626190185546875</LatitudeDegrees>
              <LongitudeDegrees>-1.759660206735134124755859375</LongitudeDegrees>
            </Position>
            <AltitudeMeters>581.5999755859375</AltitudeMeters>
            <DistanceMeters>48383.523287759</DistanceMeters>
          </Trackpoint>
          <Trackpoint>
            <Time>2018-08-26T07:33:35.000Z</Time>
            <Position>
              <LatitudeDegrees>43.012189753353595733642578125</LatitudeDegrees>
              <LongitudeDegrees>-1.7596055567264556884765625</LongitudeDegrees>
            </Position>
            <AltitudeMeters>581.79998779296875</AltitudeMeters>
            <DistanceMeters>48388.76442242</DistanceMeters>
          </Trackpoint>
          <Trackpoint>
            <Time>2018-08-26T07:33:36.000Z</Time>
            <Position>
              <LatitudeDegrees>43.01221297122538089752197265625</LatitudeDegrees>
              <LongitudeDegrees>-1.7595507390797138214111328125</LongitudeDegrees>
            </Position>
            <AltitudeMeters>581.79998779296875</AltitudeMeters>
            <DistanceMeters>48393.920442693</DistanceMeters>
          </Trackpoint>
          <Trackpoint>
            <Time>2018-08-26T07:33:37.000Z</Time>
            <Position>
              <LatitudeDegrees>43.0122368596494197845458984375</LatitudeDegrees>
              <LongitudeDegrees>-1.75949868746101856231689453125</LongitudeDegrees>
            </Position>
            <AltitudeMeters>582</AltitudeMeters>
            <DistanceMeters>48398.921773691</DistanceMeters>
          </Trackpoint>
          <Trackpoint>
            <Time>2018-08-26T07:33:38.000Z</Time>
            <Position>
              <LatitudeDegrees>43.012260161340236663818359375</LatitudeDegrees>
              <LongitudeDegrees>-1.75944705493748188018798828125</LongitudeDegrees>
            </Position>
            <AltitudeMeters>582.4000244140625</AltitudeMeters>
            <DistanceMeters>48403.859506612</DistanceMeters>
          </Trackpoint>
          <Trackpoint>
            <Time>2018-08-26T07:33:39.000Z</Time>
            <Position>
              <LatitudeDegrees>43.012282960116863250732421875</LatitudeDegrees>
              <LongitudeDegrees>-1.7593955062329769134521484375</LongitudeDegrees>
            </Position>
            <AltitudeMeters>582.5999755859375</AltitudeMeters>
            <DistanceMeters>48408.762369397</DistanceMeters>
          </Trackpoint>
          <Trackpoint>
            <Time>2018-08-26T07:33:40.000Z</Time>
            <Position>
              <LatitudeDegrees>43.0123042501509189605712890625</LatitudeDegrees>
              <LongitudeDegrees>-1.7593415267765522003173828125</LongitudeDegrees>
            </Position>
            <AltitudeMeters>583</AltitudeMeters>
            <DistanceMeters>48413.752855429</DistanceMeters>
          </Trackpoint>
          <Trackpoint>
            <Time>2018-08-26T07:33:41.000Z</Time>
            <Position>
              <LatitudeDegrees>43.01232545636594295501708984375</LatitudeDegrees>
              <LongitudeDegrees>-1.75928763113915920257568359375</LongitudeDegrees>
            </Position>
            <AltitudeMeters>583.5999755859375</AltitudeMeters>
            <DistanceMeters>48418.734285953</DistanceMeters>
          </Trackpoint>
          <Trackpoint>
            <Time>2018-08-26T07:33:42.000Z</Time>
            <Position>
              <LatitudeDegrees>43.0123464949429035186767578125</LatitudeDegrees>
              <LongitudeDegrees>-1.75923348404467105865478515625</LongitudeDegrees>
            </Position>
            <AltitudeMeters>584</AltitudeMeters>
            <DistanceMeters>48423.724771985</DistanceMeters>
          </Trackpoint>
          <Trackpoint>
            <Time>2018-08-26T07:33:43.000Z</Time>
            <Position>
              <LatitudeDegrees>43.0123672820627689361572265625</LatitudeDegrees>
              <LongitudeDegrees>-1.7591779120266437530517578125</LongitudeDegrees>
            </Position>
            <AltitudeMeters>584.5999755859375</AltitudeMeters>
            <DistanceMeters>48428.804925376</DistanceMeters>
          </Trackpoint>
          <Trackpoint>
            <Time>2018-08-26T07:33:44.000Z</Time>
            <Position>
              <LatitudeDegrees>43.0123890750110149383544921875</LatitudeDegrees>
              <LongitudeDegrees>-1.75912083126604557037353515625</LongitudeDegrees>
            </Position>
            <AltitudeMeters>584.79998779296875</AltitudeMeters>
            <DistanceMeters>48434.046921429</DistanceMeters>
          </Trackpoint>
          <Trackpoint>
            <Time>2018-08-26T07:33:45.000Z</Time>
            <Position>
              <LatitudeDegrees>43.01241111941635608673095703125</LatitudeDegrees>
              <LongitudeDegrees>-1.7590632475912570953369140625</LongitudeDegrees>
            </Position>
            <AltitudeMeters>585.20001220703125</AltitudeMeters>
            <DistanceMeters>48439.336931533</DistanceMeters>
          </Trackpoint>
          <Trackpoint>
            <Time>2018-08-26T07:33:46.000Z</Time>
            <Position>
              <LatitudeDegrees>43.01243391819298267364501953125</LatitudeDegrees>
              <LongitudeDegrees>-1.7590045742690563201904296875</LongitudeDegrees>
            </Position>
            <AltitudeMeters>585.4000244140625</AltitudeMeters>
            <DistanceMeters>48444.744277233</DistanceMeters>
          </Trackpoint>
          <Trackpoint>
            <Time>2018-08-26T07:33:47.000Z</Time>
            <Position>
              <LatitudeDegrees>43.01245654933154582977294921875</LatitudeDegrees>
              <LongitudeDegrees>-1.75894330255687236785888671875</LongitudeDegrees>
            </Position>
            <AltitudeMeters>585.5999755859375</AltitudeMeters>
            <DistanceMeters>48450.330684325</DistanceMeters>
          </Trackpoint>
          <Trackpoint>
            <Time>2018-08-26T07:33:48.000Z</Time>
            <Position>
              <LatitudeDegrees>43.01247968338429927825927734375</LatitudeDegrees>
              <LongitudeDegrees>-1.7588805221021175384521484375</LongitudeDegrees>
            </Position>
            <AltitudeMeters>586</AltitudeMeters>
            <DistanceMeters>48456.051260959</DistanceMeters>
          </Trackpoint>
          <Trackpoint>
            <Time>2018-08-26T07:33:49.000Z</Time>
            <Position>
              <LatitudeDegrees>43.01250365562736988067626953125</LatitudeDegrees>
              <LongitudeDegrees>-1.75881623290479183197021484375</LongitudeDegrees>
            </Position>
            <AltitudeMeters>586.20001220703125</AltitudeMeters>
            <DistanceMeters>48461.924496185</DistanceMeters>
          </Trackpoint>
          <Trackpoint>
            <Time>2018-08-26T07:33:50.000Z</Time>
            <Position>
              <LatitudeDegrees>43.0125282146036624908447265625</LatitudeDegrees>
              <LongitudeDegrees>-1.758749596774578094482421875</LongitudeDegrees>
            </Position>
            <AltitudeMeters>586.4000244140625</AltitudeMeters>
            <DistanceMeters>48467.998034056</DistanceMeters>
          </Trackpoint>
          <Trackpoint>
            <Time>2018-08-26T07:33:51.000Z</Time>
            <Position>
              <LatitudeDegrees>43.0125536955893039703369140625</LatitudeDegrees>
              <LongitudeDegrees>-1.7586817033588886260986328125</LongitudeDegrees>
            </Position>
            <AltitudeMeters>586.79998779296875</AltitudeMeters>
            <DistanceMeters>48474.209031285</DistanceMeters>
          </Trackpoint>
          <Trackpoint>
            <Time>2018-08-26T07:33:52.000Z</Time>
            <Position>
              <LatitudeDegrees>43.0125795118510723114013671875</LatitudeDegrees>
              <LongitudeDegrees>-1.7586129717528820037841796875</LongitudeDegrees>
            </Position>
            <AltitudeMeters>587</AltitudeMeters>
            <DistanceMeters>48480.497330319</DistanceMeters>
          </Trackpoint>
          <Trackpoint>
            <Time>2018-08-26T07:33:53.000Z</Time>
            <Position>
              <LatitudeDegrees>43.012606166303157806396484375</LatitudeDegrees>
              <LongitudeDegrees>-1.75854415632784366607666015625</LongitudeDegrees>
            </Position>
            <AltitudeMeters>587.20001220703125</AltitudeMeters>
            <DistanceMeters>48486.835690525</DistanceMeters>
          </Trackpoint>
          <Trackpoint>
            <Time>2018-08-26T07:33:54.000Z</Time>
            <Position>
              <LatitudeDegrees>43.0126328207552433013916015625</LatitudeDegrees>
              <LongitudeDegrees>-1.7584758438169956207275390625</LongitudeDegrees>
            </Position>
            <AltitudeMeters>587.4000244140625</AltitudeMeters>
            <DistanceMeters>48493.137616913</DistanceMeters>
          </Trackpoint>
          <Trackpoint>
            <Time>2018-08-26T07:33:55.000Z</Time>
            <Position>
              <LatitudeDegrees>43.0126589722931385040283203125</LatitudeDegrees>
              <LongitudeDegrees>-1.75840702839195728302001953125</LongitudeDegrees>
            </Position>
            <AltitudeMeters>587.4000244140625</AltitudeMeters>
            <DistanceMeters>48499.449565683</DistanceMeters>
          </Trackpoint>
          <Trackpoint>
            <Time>2018-08-26T07:33:56.000Z</Time>
            <Position>
              <LatitudeDegrees>43.01268487237393856048583984375</LatitudeDegrees>
              <LongitudeDegrees>-1.7583380453288555145263671875</LongitudeDegrees>
            </Position>
            <AltitudeMeters>587.4000244140625</AltitudeMeters>
            <DistanceMeters>48505.760799096</DistanceMeters>
          </Trackpoint>
          <Trackpoint>
            <Time>2018-08-26T07:33:57.000Z</Time>
            <Position>
              <LatitudeDegrees>43.0127099342644214630126953125</LatitudeDegrees>
              <LongitudeDegrees>-1.7582709901034832000732421875</LongitudeDegrees>
            </Position>
            <AltitudeMeters>587.4000244140625</AltitudeMeters>
            <DistanceMeters>48511.88983801</DistanceMeters>
          </Trackpoint>
          <Trackpoint>
            <Time>2018-08-26T07:33:58.000Z</Time>
            <Position>
              <LatitudeDegrees>43.0127344094216823577880859375</LatitudeDegrees>
              <LongitudeDegrees>-1.75820737145841121673583984375</LongitudeDegrees>
            </Position>
            <AltitudeMeters>587.4000244140625</AltitudeMeters>
            <DistanceMeters>48517.739193499</DistanceMeters>
          </Trackpoint>
          <Trackpoint>
            <Time>2018-08-26T07:33:59.000Z</Time>
            <Position>
              <LatitudeDegrees>43.01275997422635555267333984375</LatitudeDegrees>
              <LongitudeDegrees>-1.75814551301300525665283203125</LongitudeDegrees>
            </Position>
            <AltitudeMeters>587.5999755859375</AltitudeMeters>
            <DistanceMeters>48523.521004893</DistanceMeters>
          </Trackpoint>
          <Trackpoint>
            <Time>2018-08-26T07:34:00.000Z</Time>
            <Position>
              <LatitudeDegrees>43.01278528757393360137939453125</LatitudeDegrees>
              <LongitudeDegrees>-1.75808449275791645050048828125</LongitudeDegrees>
            </Position>
            <AltitudeMeters>587.5999755859375</AltitudeMeters>
            <DistanceMeters>48529.230521157</DistanceMeters>
          </Trackpoint>
          <Trackpoint>
            <Time>2018-08-26T07:34:01.000Z</Time>
            <Position>
              <LatitudeDegrees>43.01280708052217960357666015625</LatitudeDegrees>
              <LongitudeDegrees>-1.75802514888346195220947265625</LongitudeDegrees>
            </Position>
            <AltitudeMeters>587.5999755859375</AltitudeMeters>
            <DistanceMeters>48534.63536133</DistanceMeters>
          </Trackpoint>
          <Trackpoint>
            <Time>2018-08-26T07:34:02.000Z</Time>
            <Position>
              <LatitudeDegrees>43.0128245986998081207275390625</LatitudeDegrees>
              <LongitudeDegrees>-1.7579648829996585845947265625</LongitudeDegrees>
            </Position>
            <AltitudeMeters>587.79998779296875</AltitudeMeters>
            <DistanceMeters>48539.914264237</DistanceMeters>
          </Trackpoint>
          <Trackpoint>
            <Time>2018-08-26T07:34:03.000Z</Time>
            <Position>
              <LatitudeDegrees>43.0128411948680877685546875</LatitudeDegrees>
              <LongitudeDegrees>-1.757903359830379486083984375</LongitudeDegrees>
            </Position>
            <AltitudeMeters>587.79998779296875</AltitudeMeters>
            <DistanceMeters>48545.25101054</DistanceMeters>
          </Trackpoint>
          <Trackpoint>
            <Time>2018-08-26T07:34:04.000Z</Time>
            <Position>
              <LatitudeDegrees>43.0128571204841136932373046875</LatitudeDegrees>
              <LongitudeDegrees>-1.75784192048013210296630859375</LongitudeDegrees>
            </Position>
            <AltitudeMeters>587.79998779296875</AltitudeMeters>
            <DistanceMeters>48550.55636145</DistanceMeters>
          </Trackpoint>
          <Trackpoint>
            <Time>2018-08-26T07:34:05.000Z</Time>
            <Position>
              <LatitudeDegrees>43.012871034443378448486328125</LatitudeDegrees>
              <LongitudeDegrees>-1.75778366625308990478515625</LongitudeDegrees>
            </Position>
            <AltitudeMeters>588</AltitudeMeters>
            <DistanceMeters>48555.544132556</DistanceMeters>
          </Trackpoint>
          <Trackpoint>
            <Time>2018-08-26T07:34:06.000Z</Time>
            <Position>
              <LatitudeDegrees>43.01288536749780178070068359375</LatitudeDegrees>
              <LongitudeDegrees>-1.75772742368280887603759765625</LongitudeDegrees>
            </Position>
            <AltitudeMeters>588.20001220703125</AltitudeMeters>
            <DistanceMeters>48560.391426534</DistanceMeters>
          </Trackpoint>
          <Trackpoint>
            <Time>2018-08-26T07:34:07.000Z</Time>
            <Position>
              <LatitudeDegrees>43.0129047296941280364990234375</LatitudeDegrees>
              <LongitudeDegrees>-1.7576731927692890167236328125</LongitudeDegrees>
            </Position>
            <AltitudeMeters>588.4000244140625</AltitudeMeters>
            <DistanceMeters>48565.302570411</DistanceMeters>
          </Trackpoint>
          <Trackpoint>
            <Time>2018-08-26T07:34:08.000Z</Time>
            <Position>
              <LatitudeDegrees>43.01292962394654750823974609375</LatitudeDegrees>
              <LongitudeDegrees>-1.7576249130070209503173828125</LongitudeDegrees>
            </Position>
            <AltitudeMeters>588.79998779296875</AltitudeMeters>
            <DistanceMeters>48570.110584106</DistanceMeters>
          </Trackpoint>
          <Trackpoint>
            <Time>2018-08-26T07:34:09.000Z</Time>
            <Position>
              <LatitudeDegrees>43.01296055316925048828125</LatitudeDegrees>
              <LongitudeDegrees>-1.7575873620808124542236328125</LongitudeDegrees>
            </Position>
            <AltitudeMeters>589.20001220703125</AltitudeMeters>
            <DistanceMeters>48574.713252825</DistanceMeters>
          </Trackpoint>
          <Trackpoint>
            <Time>2018-08-26T07:34:10.000Z</Time>
            <Position>
              <LatitudeDegrees>43.01300170831382274627685546875</LatitudeDegrees>
              <LongitudeDegrees>-1.75756397657096385955810546875</LongitudeDegrees>
            </Position>
            <AltitudeMeters>589.5999755859375</AltitudeMeters>
            <DistanceMeters>48579.674703056</DistanceMeters>
          </Trackpoint>
          <Trackpoint>
            <Time>2018-08-26T07:34:11.000Z</Time>
            <Position>
              <LatitudeDegrees>43.01304361782968044281005859375</LatitudeDegrees>
              <LongitudeDegrees>-1.7575590312480926513671875</LongitudeDegrees>
            </Position>
            <AltitudeMeters>590</AltitudeMeters>
            <DistanceMeters>48584.355190792</DistanceMeters>
          </Trackpoint>
          <Trackpoint>
            <Time>2018-08-26T07:34:12.000Z</Time>
            <Position>
              <LatitudeDegrees>43.01308502443134784698486328125</LatitudeDegrees>
              <LongitudeDegrees>-1.7575689218938350677490234375</LongitudeDegrees>
            </Position>
            <AltitudeMeters>591.20001220703125</AltitudeMeters>
            <DistanceMeters>48589.033748829</DistanceMeters>
          </Trackpoint>
          <Trackpoint>
            <Time>2018-08-26T07:34:13.000Z</Time>
            <Position>
              <LatitudeDegrees>43.01312659867107868194580078125</LatitudeDegrees>
              <LongitudeDegrees>-1.75758442841470241546630859375</LongitudeDegrees>
            </Position>
            <AltitudeMeters>591.5999755859375</AltitudeMeters>
            <DistanceMeters>48593.829539139</DistanceMeters>
          </Trackpoint>
          <Trackpoint>
            <Time>2018-08-26T07:34:14.000Z</Time>
            <Position>
              <LatitudeDegrees>43.013168759644031524658203125</LatitudeDegrees>
              <LongitudeDegrees>-1.75760353915393352508544921875</LongitudeDegrees>
            </Position>
            <AltitudeMeters>592</AltitudeMeters>
            <DistanceMeters>48598.772755386</DistanceMeters>
          </Trackpoint>
          <Trackpoint>
            <Time>2018-08-26T07:34:15.000Z</Time>
            <Position>
              <LatitudeDegrees>43.01321209408342838287353515625</LatitudeDegrees>
              <LongitudeDegrees>-1.75762432627379894256591796875</LongitudeDegrees>
            </Position>
            <AltitudeMeters>592.4000244140625</AltitudeMeters>
            <DistanceMeters>48603.884804019</DistanceMeters>
          </Trackpoint>
          <Trackpoint>
            <Time>2018-08-26T07:34:16.000Z</Time>
            <Position>
              <LatitudeDegrees>43.01325819455087184906005859375</LatitudeDegrees>
              <LongitudeDegrees>-1.7576446942985057830810546875</LongitudeDegrees>
            </Position>
            <AltitudeMeters>592.79998779296875</AltitudeMeters>
            <DistanceMeters>48609.277099091</DistanceMeters>
          </Trackpoint>
          <Trackpoint>
            <Time>2018-08-26T07:34:17.000Z</Time>
            <Position>
              <LatitudeDegrees>43.01330463029444217681884765625</LatitudeDegrees>
              <LongitudeDegrees>-1.757664978504180908203125</LongitudeDegrees>
            </Position>
            <AltitudeMeters>593.20001220703125</AltitudeMeters>
            <DistanceMeters>48614.702783307</DistanceMeters>
          </Trackpoint>
          <Trackpoint>
            <Time>2018-08-26T07:34:18.000Z</Time>
            <Position>
              <LatitudeDegrees>43.0133503116667270660400390625</LatitudeDegrees>
              <LongitudeDegrees>-1.7576812393963336944580078125</LongitudeDegrees>
            </Position>
            <AltitudeMeters>593.79998779296875</AltitudeMeters>
            <DistanceMeters>48619.955964592</DistanceMeters>
          </Trackpoint>
          <Trackpoint>
            <Time>2018-08-26T07:34:19.000Z</Time>
            <Position>
              <LatitudeDegrees>43.0133979208767414093017578125</LatitudeDegrees>
              <LongitudeDegrees>-1.7576959915459156036376953125</LongitudeDegrees>
            </Position>
            <AltitudeMeters>594</AltitudeMeters>
            <DistanceMeters>48625.389964037</DistanceMeters>
          </Trackpoint>
          <Trackpoint>
            <Time>2018-08-26T07:34:20.000Z</Time>
            <Position>
              <LatitudeDegrees>43.01344846375286579132080078125</LatitudeDegrees>
              <LongitudeDegrees>-1.7577114142477512359619140625</LongitudeDegrees>
            </Position>
            <AltitudeMeters>594.20001220703125</AltitudeMeters>
            <DistanceMeters>48631.153003267</DistanceMeters>
          </Trackpoint>
          <Trackpoint>
            <Time>2018-08-26T07:34:21.000Z</Time>
            <Position>
              <LatitudeDegrees>43.01350168883800506591796875</LatitudeDegrees>
              <LongitudeDegrees>-1.75772859714925289154052734375</LongitudeDegrees>
            </Position>
            <AltitudeMeters>594.5999755859375</AltitudeMeters>
            <DistanceMeters>48637.239907541</DistanceMeters>
          </Trackpoint>
          <Trackpoint>
            <Time>2018-08-26T07:34:22.000Z</Time>
            <Position>
              <LatitudeDegrees>43.01355541683733463287353515625</LatitudeDegrees>
              <LongitudeDegrees>-1.75774854607880115509033203125</LongitudeDegrees>
            </Position>
            <AltitudeMeters>595</AltitudeMeters>
            <DistanceMeters>48643.436348862</DistanceMeters>
          </Trackpoint>
          <Trackpoint>
            <Time>2018-08-26T07:34:23.000Z</Time>
            <Position>
              <LatitudeDegrees>43.01360973156988620758056640625</LatitudeDegrees>
              <LongitudeDegrees>-1.7577720992267131805419921875</LongitudeDegrees>
            </Position>
            <AltitudeMeters>595.4000244140625</AltitudeMeters>
            <DistanceMeters>48649.778269745</DistanceMeters>
          </Trackpoint>
          <Trackpoint>
            <Time>2018-08-26T07:34:24.000Z</Time>
            <Position>
              <LatitudeDegrees>43.01366371102631092071533203125</LatitudeDegrees>
              <LongitudeDegrees>-1.7577999271452426910400390625</LongitudeDegrees>
            </Position>
            <AltitudeMeters>595.5999755859375</AltitudeMeters>
            <DistanceMeters>48656.199432337</DistanceMeters>
          </Trackpoint>
          <Trackpoint>
            <Time>2018-08-26T07:34:25.000Z</Time>
            <Position>
              <LatitudeDegrees>43.0137169361114501953125</LatitudeDegrees>
              <LongitudeDegrees>-1.7578326165676116943359375</LongitudeDegrees>
            </Position>
            <AltitudeMeters>595.79998779296875</AltitudeMeters>
            <DistanceMeters>48662.694701165</DistanceMeters>
          </Trackpoint>
          <Trackpoint>
            <Time>2018-08-26T07:34:26.000Z</Time>
            <Position>
              <LatitudeDegrees>43.013773597776889801025390625</LatitudeDegrees>
              <LongitudeDegrees>-1.7578669823706150054931640625</LongitudeDegrees>
            </Position>
            <AltitudeMeters>596</AltitudeMeters>
            <DistanceMeters>48669.593143226</DistanceMeters>
          </Trackpoint>
          <Trackpoint>
            <Time>2018-08-26T07:34:27.000Z</Time>
            <Position>
              <LatitudeDegrees>43.013827241957187652587890625</LatitudeDegrees>
              <LongitudeDegrees>-1.7579068802297115325927734375</LongitudeDegrees>
            </Position>
            <AltitudeMeters>596.20001220703125</AltitudeMeters>
            <DistanceMeters>48676.390044806</DistanceMeters>
          </Trackpoint>
          <Trackpoint>
            <Time>2018-08-26T07:34:28.000Z</Time>
            <Position>
              <LatitudeDegrees>43.01388046704232692718505859375</LatitudeDegrees>
              <LongitudeDegrees>-1.75794920884072780609130859375</LongitudeDegrees>
            </Position>
            <AltitudeMeters>596.20001220703125</AltitudeMeters>
            <DistanceMeters>48683.24251863</DistanceMeters>
          </Trackpoint>
          <Trackpoint>
            <Time>2018-08-26T07:34:29.000Z</Time>
            <Position>
              <LatitudeDegrees>43.01393293775618076324462890625</LatitudeDegrees>
              <LongitudeDegrees>-1.7579923756420612335205078125</LongitudeDegrees>
            </Position>
            <AltitudeMeters>596.20001220703125</AltitudeMeters>
            <DistanceMeters>48690.057994638</DistanceMeters>
          </Trackpoint>
          <Trackpoint>
            <Time>2018-08-26T07:34:30.000Z</Time>
            <Position>
              <LatitudeDegrees>43.01398582756519317626953125</LatitudeDegrees>
              <LongitudeDegrees>-1.758035458624362945556640625</LongitudeDegrees>
            </Position>
            <AltitudeMeters>596.4000244140625</AltitudeMeters>
            <DistanceMeters>48696.909150552</DistanceMeters>
          </Trackpoint>
          <Trackpoint>
            <Time>2018-08-26T07:34:31.000Z</Time>
            <Position>
              <LatitudeDegrees>43.0140386335551738739013671875</LatitudeDegrees>
              <LongitudeDegrees>-1.7580765299499034881591796875</LongitudeDegrees>
            </Position>
            <AltitudeMeters>596.4000244140625</AltitudeMeters>
            <DistanceMeters>48703.670753693</DistanceMeters>
          </Trackpoint>
          <Trackpoint>
            <Time>2018-08-26T07:34:32.000Z</Time>
            <Position>
              <LatitudeDegrees>43.0140919424593448638916015625</LatitudeDegrees>
              <LongitudeDegrees>-1.7581170983612537384033203125</LongitudeDegrees>
            </Position>
            <AltitudeMeters>596.4000244140625</AltitudeMeters>
            <DistanceMeters>48710.460344273</DistanceMeters>
          </Trackpoint>
          <Trackpoint>
            <Time>2018-08-26T07:34:33.000Z</Time>
            <Position>
              <LatitudeDegrees>43.01414516754448413848876953125</LatitudeDegrees>
              <LongitudeDegrees>-1.75815783441066741943359375</LongitudeDegrees>
            </Position>
            <AltitudeMeters>596.4000244140625</AltitudeMeters>
            <DistanceMeters>48717.249269827</DistanceMeters>
          </Trackpoint>
          <Trackpoint>
            <Time>2018-08-26T07:34:34.000Z</Time>
            <Position>
              <LatitudeDegrees>43.014198057353496551513671875</LatitudeDegrees>
              <LongitudeDegrees>-1.758198402822017669677734375</LongitudeDegrees>
            </Position>
            <AltitudeMeters>596.4000244140625</AltitudeMeters>
            <DistanceMeters>48723.999511729</DistanceMeters>
          </Trackpoint>
          <Trackpoint>
            <Time>2018-08-26T07:34:35.000Z</Time>
            <Position>
              <LatitudeDegrees>43.0142511986196041107177734375</LatitudeDegrees>
              <LongitudeDegrees>-1.75823754630982875823974609375</LongitudeDegrees>
            </Position>
            <AltitudeMeters>596.5999755859375</AltitudeMeters>
            <DistanceMeters>48730.717571126</DistanceMeters>
          </Trackpoint>
          <Trackpoint>
            <Time>2018-08-26T07:34:36.000Z</Time>
            <Position>
              <LatitudeDegrees>43.014306016266345977783203125</LatitudeDegrees>
              <LongitudeDegrees>-1.758272834122180938720703125</LongitudeDegrees>
            </Position>
            <AltitudeMeters>596.5999755859375</AltitudeMeters>
            <DistanceMeters>48737.461121005</DistanceMeters>
          </Trackpoint>
          <Trackpoint>
            <Time>2018-08-26T07:34:37.000Z</Time>
            <Position>
              <LatitudeDegrees>43.0143620073795318603515625</LatitudeDegrees>
              <LongitudeDegrees>-1.758305020630359649658203125</LongitudeDegrees>
            </Position>
            <AltitudeMeters>596.5999755859375</AltitudeMeters>
            <DistanceMeters>48744.221388521</DistanceMeters>
          </Trackpoint>
          <Trackpoint>
            <Time>2018-08-26T07:34:38.000Z</Time>
            <Position>
              <LatitudeDegrees>43.01441858522593975067138671875</LatitudeDegrees>
              <LongitudeDegrees>-1.75833444111049175262451171875</LongitudeDegrees>
            </Position>
            <AltitudeMeters>596.79998779296875</AltitudeMeters>
            <DistanceMeters>48750.95823973</DistanceMeters>
          </Trackpoint>
          <Trackpoint>
            <Time>2018-08-26T07:34:39.000Z</Time>
            <Position>
              <LatitudeDegrees>43.01447457633912563323974609375</LatitudeDegrees>
              <LongitudeDegrees>-1.75836243666708469390869140625</LongitudeDegrees>
            </Position>
            <AltitudeMeters>596.79998779296875</AltitudeMeters>
            <DistanceMeters>48757.59311898</DistanceMeters>
          </Trackpoint>
          <Trackpoint>
            <Time>2018-08-26T07:34:40.000Z</Time>
            <Position>
              <LatitudeDegrees>43.01453090272843837738037109375</LatitudeDegrees>
              <LongitudeDegrees>-1.7583896778523921966552734375</LongitudeDegrees>
            </Position>
            <AltitudeMeters>597</AltitudeMeters>
            <DistanceMeters>48764.242273382</DistanceMeters>
          </Trackpoint>
          <Trackpoint>
            <Time>2018-08-26T07:34:41.000Z</Time>
            <Position>
              <LatitudeDegrees>43.0145874805748462677001953125</LatitudeDegrees>
              <LongitudeDegrees>-1.7584146559238433837890625</LongitudeDegrees>
            </Position>
            <AltitudeMeters>597.20001220703125</AltitudeMeters>
            <DistanceMeters>48770.860118255</DistanceMeters>
          </Trackpoint>
          <Trackpoint>
            <Time>2018-08-26T07:34:42.000Z</Time>
            <Position>
              <LatitudeDegrees>43.014643304049968719482421875</LatitudeDegrees>
              <LongitudeDegrees>-1.7584396339952945709228515625</LongitudeDegrees>
            </Position>
            <AltitudeMeters>597.20001220703125</AltitudeMeters>
            <DistanceMeters>48777.398342929</DistanceMeters>
          </Trackpoint>
          <Trackpoint>
            <Time>2018-08-26T07:34:43.000Z</Time>
            <Position>
              <LatitudeDegrees>43.01470004953444004058837890625</LatitudeDegrees>
              <LongitudeDegrees>-1.758465282618999481201171875</LongitudeDegrees>
            </Position>
            <AltitudeMeters>597.20001220703125</AltitudeMeters>
            <DistanceMeters>48784.050212934</DistanceMeters>
          </Trackpoint>
          <Trackpoint>
            <Time>2018-08-26T07:34:44.000Z</Time>
            <Position>
              <LatitudeDegrees>43.0147581361234188079833984375</LatitudeDegrees>
              <LongitudeDegrees>-1.758492104709148406982421875</LongitudeDegrees>
            </Position>
            <AltitudeMeters>597.4000244140625</AltitudeMeters>
            <DistanceMeters>48790.873633935</DistanceMeters>
          </Trackpoint>
          <Trackpoint>
            <Time>2018-08-26T07:34:45.000Z</Time>
            <Position>
              <LatitudeDegrees>43.0148171447217464447021484375</LatitudeDegrees>
              <LongitudeDegrees>-1.75852253101766109466552734375</LongitudeDegrees>
            </Position>
            <AltitudeMeters>597.5999755859375</AltitudeMeters>
            <DistanceMeters>48797.892757603</DistanceMeters>
          </Trackpoint>
          <Trackpoint>
            <Time>2018-08-26T07:34:46.000Z</Time>
            <Position>
              <LatitudeDegrees>43.01487757824361324310302734375</LatitudeDegrees>
              <LongitudeDegrees>-1.758551783859729766845703125</LongitudeDegrees>
            </Position>
            <AltitudeMeters>598</AltitudeMeters>
            <DistanceMeters>48805.027992077</DistanceMeters>
          </Trackpoint>
          <Trackpoint>
            <Time>2018-08-26T07:34:47.000Z</Time>
            <Position>
              <LatitudeDegrees>43.01493943668901920318603515625</LatitudeDegrees>
              <LongitudeDegrees>-1.7585782706737518310546875</LongitudeDegrees>
            </Position>
            <AltitudeMeters>598.20001220703125</AltitudeMeters>
            <DistanceMeters>48812.241890506</DistanceMeters>
          </Trackpoint>
          <Trackpoint>
            <Time>2018-08-26T07:34:48.000Z</Time>
            <Position>
              <LatitudeDegrees>43.0150018818676471710205078125</LatitudeDegrees>
              <LongitudeDegrees>-1.758604757487773895263671875</LongitudeDegrees>
            </Position>
            <AltitudeMeters>598.4000244140625</AltitudeMeters>
            <DistanceMeters>48819.518107806</DistanceMeters>
          </Trackpoint>
          <Trackpoint>
            <Time>2018-08-26T07:34:49.000Z</Time>
            <Position>
              <LatitudeDegrees>43.015064410865306854248046875</LatitudeDegrees>
              <LongitudeDegrees>-1.758632250130176544189453125</LongitudeDegrees>
            </Position>
            <AltitudeMeters>598.4000244140625</AltitudeMeters>
            <DistanceMeters>48826.828374038</DistanceMeters>
          </Trackpoint>
          <Trackpoint>
            <Time>2018-08-26T07:34:50.000Z</Time>
            <Position>
              <LatitudeDegrees>43.0151276104152202606201171875</LatitudeDegrees>
              <LongitudeDegrees>-1.75865999422967433929443359375</LongitudeDegrees>
            </Position>
            <AltitudeMeters>598.4000244140625</AltitudeMeters>
            <DistanceMeters>48834.216662887</DistanceMeters>
          </Trackpoint>
          <Trackpoint>
            <Time>2018-08-26T07:34:51.000Z</Time>
            <Position>
              <LatitudeDegrees>43.015191145241260528564453125</LatitudeDegrees>
              <LongitudeDegrees>-1.75868899561464786529541015625</LongitudeDegrees>
            </Position>
            <AltitudeMeters>598.4000244140625</AltitudeMeters>
            <DistanceMeters>48841.672476094</DistanceMeters>
          </Trackpoint>
          <Trackpoint>
            <Time>2018-08-26T07:34:52.000Z</Time>
            <Position>
              <LatitudeDegrees>43.0152550153434276580810546875</LatitudeDegrees>
              <LongitudeDegrees>-1.75871732644736766815185546875</LongitudeDegrees>
            </Position>
            <AltitudeMeters>598.5999755859375</AltitudeMeters>
            <DistanceMeters>48849.145226106</DistanceMeters>
          </Trackpoint>
          <Trackpoint>
            <Time>2018-08-26T07:34:53.000Z</Time>
            <Position>
              <LatitudeDegrees>43.0153195559978485107421875</LatitudeDegrees>
              <LongitudeDegrees>-1.75874347798526287078857421875</LongitudeDegrees>
            </Position>
            <AltitudeMeters>598.5999755859375</AltitudeMeters>
            <DistanceMeters>48856.63728558</DistanceMeters>
          </Trackpoint>
          <Trackpoint>
            <Time>2018-08-26T07:34:54.000Z</Time>
            <Position>
              <LatitudeDegrees>43.01538485102355480194091796875</LatitudeDegrees>
              <LongitudeDegrees>-1.75876929424703121185302734375</LongitudeDegrees>
            </Position>
            <AltitudeMeters>598.5999755859375</AltitudeMeters>
            <DistanceMeters>48864.202510263</DistanceMeters>
          </Trackpoint>
          <Trackpoint>
            <Time>2018-08-26T07:34:55.000Z</Time>
            <Position>
              <LatitudeDegrees>43.01544989459216594696044921875</LatitudeDegrees>
              <LongitudeDegrees>-1.75879594869911670684814453125</LongitudeDegrees>
            </Position>
            <AltitudeMeters>598.5999755859375</AltitudeMeters>
            <DistanceMeters>48871.759972371</DistanceMeters>
          </Trackpoint>
          <Trackpoint>
            <Time>2018-08-26T07:34:56.000Z</Time>
            <Position>
              <LatitudeDegrees>43.0155145190656185150146484375</LatitudeDegrees>
              <LongitudeDegrees>-1.758820675313472747802734375</LongitudeDegrees>
            </Position>
            <AltitudeMeters>598.5999755859375</AltitudeMeters>
            <DistanceMeters>48879.2290963</DistanceMeters>
          </Trackpoint>
          <Trackpoint>
            <Time>2018-08-26T07:34:57.000Z</Time>
            <Position>
              <LatitudeDegrees>43.0155798979103565216064453125</LatitudeDegrees>
              <LongitudeDegrees>-1.75883953459560871124267578125</LongitudeDegrees>
            </Position>
            <AltitudeMeters>598.5999755859375</AltitudeMeters>
            <DistanceMeters>48886.666720134</DistanceMeters>
          </Trackpoint>
          <Trackpoint>
            <Time>2018-08-26T07:34:58.000Z</Time>
            <Position>
              <LatitudeDegrees>43.01564619876444339752197265625</LatitudeDegrees>
              <LongitudeDegrees>-1.7588530294597148895263671875</LongitudeDegrees>
            </Position>
            <AltitudeMeters>598.4000244140625</AltitudeMeters>
            <DistanceMeters>48894.127981507</DistanceMeters>
          </Trackpoint>
          <Trackpoint>
            <Time>2018-08-26T07:34:59.000Z</Time>
            <Position>
              <LatitudeDegrees>43.01571317017078399658203125</LatitudeDegrees>
              <LongitudeDegrees>-1.7588625848293304443359375</LongitudeDegrees>
            </Position>
            <AltitudeMeters>598.4000244140625</AltitudeMeters>
            <DistanceMeters>48901.622451167</DistanceMeters>
          </Trackpoint>
          <Trackpoint>
            <Time>2018-08-26T07:35:00.000Z</Time>
            <Position>
              <LatitudeDegrees>43.01578047685325145721435546875</LatitudeDegrees>
              <LongitudeDegrees>-1.758871972560882568359375</LongitudeDegrees>
            </Position>
            <AltitudeMeters>598.20001220703125</AltitudeMeters>
            <DistanceMeters>48909.152981033</DistanceMeters>
          </Trackpoint>
          <Trackpoint>
            <Time>2018-08-26T07:35:01.000Z</Time>
            <Position>
              <LatitudeDegrees>43.0158479511737823486328125</LatitudeDegrees>
              <LongitudeDegrees>-1.75888362340629100799560546875</LongitudeDegrees>
            </Position>
            <AltitudeMeters>598</AltitudeMeters>
            <DistanceMeters>48916.722382267</DistanceMeters>
          </Trackpoint>
          <Trackpoint>
            <Time>2018-08-26T07:35:02.000Z</Time>
            <Position>
              <LatitudeDegrees>43.01591567695140838623046875</LatitudeDegrees>
              <LongitudeDegrees>-1.758898459374904632568359375</LongitudeDegrees>
            </Position>
            <AltitudeMeters>597.79998779296875</AltitudeMeters>
            <DistanceMeters>48924.35534062</DistanceMeters>
          </Trackpoint>
          <Trackpoint>
            <Time>2018-08-26T07:35:03.000Z</Time>
            <Position>
              <LatitudeDegrees>43.01598415710031986236572265625</LatitudeDegrees>
              <LongitudeDegrees>-1.7589157260954380035400390625</LongitudeDegrees>
            </Position>
            <AltitudeMeters>597.5999755859375</AltitudeMeters>
            <DistanceMeters>48932.10569987</DistanceMeters>
          </Trackpoint>
          <Trackpoint>
            <Time>2018-08-26T07:35:04.000Z</Time>
            <Position>
              <LatitudeDegrees>43.016054145991802215576171875</LatitudeDegrees>
              <LongitudeDegrees>-1.75893324427306652069091796875</LongitudeDegrees>
            </Position>
            <AltitudeMeters>597.4000244140625</AltitudeMeters>
            <DistanceMeters>48940.0254796</DistanceMeters>
          </Trackpoint>
          <Trackpoint>
            <Time>2018-08-26T07:35:05.000Z</Time>
            <Position>
              <LatitudeDegrees>43.01612430252134799957275390625</LatitudeDegrees>
              <LongitudeDegrees>-1.7589539475739002227783203125</LongitudeDegrees>
            </Position>
            <AltitudeMeters>597.20001220703125</AltitudeMeters>
            <DistanceMeters>48948.013377957</DistanceMeters>
          </Trackpoint>
          <Trackpoint>
            <Time>2018-08-26T07:35:06.000Z</Time>
            <Position>
              <LatitudeDegrees>43.01619420759379863739013671875</LatitudeDegrees>
              <LongitudeDegrees>-1.7589794285595417022705078125</LongitudeDegrees>
            </Position>
            <AltitudeMeters>597.20001220703125</AltitudeMeters>
            <DistanceMeters>48956.065455258</DistanceMeters>
          </Trackpoint>
          <Trackpoint>
            <Time>2018-08-26T07:35:07.000Z</Time>
            <Position>
              <LatitudeDegrees>43.0162648670375347137451171875</LatitudeDegrees>
              <LongitudeDegrees>-1.7590062506496906280517578125</LongitudeDegrees>
            </Position>
            <AltitudeMeters>597.20001220703125</AltitudeMeters>
            <DistanceMeters>48964.22780198</DistanceMeters>
          </Trackpoint>
          <Trackpoint>
            <Time>2018-08-26T07:35:08.000Z</Time>
            <Position>
              <LatitudeDegrees>43.01633686758577823638916015625</LatitudeDegrees>
              <LongitudeDegrees>-1.759029887616634368896484375</LongitudeDegrees>
            </Position>
            <AltitudeMeters>597</AltitudeMeters>
            <DistanceMeters>48972.468870171</DistanceMeters>
          </Trackpoint>
          <Trackpoint>
            <Time>2018-08-26T07:35:09.000Z</Time>
            <Position>
              <LatitudeDegrees>43.016409538686275482177734375</LatitudeDegrees>
              <LongitudeDegrees>-1.759050674736499786376953125</LongitudeDegrees>
            </Position>
            <AltitudeMeters>597</AltitudeMeters>
            <DistanceMeters>48980.732370523</DistanceMeters>
          </Trackpoint>
          <Trackpoint>
            <Time>2018-08-26T07:35:10.000Z</Time>
            <Position>
              <LatitudeDegrees>43.01648355089128017425537109375</LatitudeDegrees>
              <LongitudeDegrees>-1.7590662650763988494873046875</LongitudeDegrees>
            </Position>
            <AltitudeMeters>596.79998779296875</AltitudeMeters>
            <DistanceMeters>48989.067681445</DistanceMeters>
          </Trackpoint>
          <Trackpoint>
            <Time>2018-08-26T07:35:11.000Z</Time>
            <Position>
              <LatitudeDegrees>43.016557395458221435546875</LatitudeDegrees>
              <LongitudeDegrees>-1.75907975994050502777099609375</LongitudeDegrees>
            </Position>
            <AltitudeMeters>596.5999755859375</AltitudeMeters>
            <DistanceMeters>48997.360089546</DistanceMeters>
          </Trackpoint>
          <Trackpoint>
            <Time>2018-08-26T07:35:12.000Z</Time>
            <Position>
              <LatitudeDegrees>43.016630150377750396728515625</LatitudeDegrees>
              <LongitudeDegrees>-1.75909166224300861358642578125</LongitudeDegrees>
            </Position>
            <AltitudeMeters>596.5999755859375</AltitudeMeters>
            <DistanceMeters>49005.515795714</DistanceMeters>
          </Trackpoint>
          <Trackpoint>
            <Time>2018-08-26T07:35:13.000Z</Time>
            <Position>
              <LatitudeDegrees>43.0167007260024547576904296875</LatitudeDegrees>
              <LongitudeDegrees>-1.759104318916797637939453125</LongitudeDegrees>
            </Position>
            <AltitudeMeters>596.4000244140625</AltitudeMeters>
            <DistanceMeters>49013.437855502</DistanceMeters>
          </Trackpoint>
          <Trackpoint>
            <Time>2018-08-26T07:35:14.000Z</Time>
            <Position>
              <LatitudeDegrees>43.016767613589763641357421875</LatitudeDegrees>
              <LongitudeDegrees>-1.75912032835185527801513671875</LongitudeDegrees>
            </Position>
            <AltitudeMeters>596.4000244140625</AltitudeMeters>
            <DistanceMeters>49020.995317609</DistanceMeters>
          </Trackpoint>
          <Trackpoint>
            <Time>2018-08-26T07:35:15.000Z</Time>
            <Position>
              <LatitudeDegrees>43.01683106459677219390869140625</LatitudeDegrees>
              <LongitudeDegrees>-1.75913625396788120269775390625</LongitudeDegrees>
            </Position>
            <AltitudeMeters>596.4000244140625</AltitudeMeters>
            <DistanceMeters>49028.174710087</DistanceMeters>
          </Trackpoint>
          <Trackpoint>
            <Time>2018-08-26T07:35:16.000Z</Time>
            <Position>
              <LatitudeDegrees>43.01689443178474903106689453125</LatitudeDegrees>
              <LongitudeDegrees>-1.7591561190783977508544921875</LongitudeDegrees>
            </Position>
            <AltitudeMeters>596.4000244140625</AltitudeMeters>
            <DistanceMeters>49035.410481173</DistanceMeters>
          </Trackpoint>
          <Trackpoint>
            <Time>2018-08-26T07:35:17.000Z</Time>
            <Position>
              <LatitudeDegrees>43.01695344038307666778564453125</LatitudeDegrees>
              <LongitudeDegrees>-1.75918352790176868438720703125</LongitudeDegrees>
            </Position>
            <AltitudeMeters>596.4000244140625</AltitudeMeters>
            <DistanceMeters>49042.346780424</DistanceMeters>
          </Trackpoint>
          <Trackpoint>
            <Time>2018-08-26T07:35:18.000Z</Time>
            <Position>
              <LatitudeDegrees>43.01701211370527744293212890625</LatitudeDegrees>
              <LongitudeDegrees>-1.7592097632586956024169921875</LongitudeDegrees>
            </Position>
            <AltitudeMeters>596.4000244140625</AltitudeMeters>
            <DistanceMeters>49049.217678447</DistanceMeters>
          </Trackpoint>
          <Trackpoint>
            <Time>2018-08-26T07:35:19.000Z</Time>
            <Position>
              <LatitudeDegrees>43.01707011647522449493408203125</LatitudeDegrees>
              <LongitudeDegrees>-1.75923147238790988922119140625</LongitudeDegrees>
            </Position>
            <AltitudeMeters>596.4000244140625</AltitudeMeters>
            <DistanceMeters>49055.911499428</DistanceMeters>
          </Trackpoint>
          <Trackpoint>
            <Time>2018-08-26T07:35:20.000Z</Time>
            <Position>
              <LatitudeDegrees>43.01712811924517154693603515625</LatitudeDegrees>
              <LongitudeDegrees>-1.75925485789775848388671875</LongitudeDegrees>
            </Position>
            <AltitudeMeters>596.4000244140625</AltitudeMeters>
            <DistanceMeters>49062.641645299</DistanceMeters>
          </Trackpoint>
          <Trackpoint>
            <Time>2018-08-26T07:35:21.000Z</Time>
            <Position>
              <LatitudeDegrees>43.0171863734722137451171875</LatitudeDegrees>
              <LongitudeDegrees>-1.75928167998790740966796875</LongitudeDegrees>
            </Position>
            <AltitudeMeters>596.4000244140625</AltitudeMeters>
            <DistanceMeters>49069.482908794</DistanceMeters>
          </Trackpoint>
          <Trackpoint>
            <Time>2018-08-26T07:35:22.000Z</Time>
            <Position>
              <LatitudeDegrees>43.0172438733279705047607421875</LatitudeDegrees>
              <LongitudeDegrees>-1.7593083344399929046630859375</LongitudeDegrees>
            </Position>
            <AltitudeMeters>596.4000244140625</AltitudeMeters>
            <DistanceMeters>49076.239836091</DistanceMeters>
          </Trackpoint>
          <Trackpoint>
            <Time>2018-08-26T07:35:23.000Z</Time>
            <Position>
              <LatitudeDegrees>43.01730313338339328765869140625</LatitudeDegrees>
              <LongitudeDegrees>-1.7593274451792240142822265625</LongitudeDegrees>
            </Position>
            <AltitudeMeters>596.5999755859375</AltitudeMeters>
            <DistanceMeters>49083.016780003</DistanceMeters>
          </Trackpoint>
          <Trackpoint>
            <Time>2018-08-26T07:35:24.000Z</Time>
            <Position>
              <LatitudeDegrees>43.0173647403717041015625</LatitudeDegrees>
              <LongitudeDegrees>-1.75934161059558391571044921875</LongitudeDegrees>
            </Position>
            <AltitudeMeters>596.79998779296875</AltitudeMeters>
            <DistanceMeters>49089.969982811</DistanceMeters>
          </Trackpoint>
          <Trackpoint>
            <Time>2018-08-26T07:35:25.000Z</Time>
            <Position>
              <LatitudeDegrees>43.0174272693693637847900390625</LatitudeDegrees>
              <LongitudeDegrees>-1.75935837440192699432373046875</LongitudeDegrees>
            </Position>
            <AltitudeMeters>597.20001220703125</AltitudeMeters>
            <DistanceMeters>49097.062694272</DistanceMeters>
          </Trackpoint>
          <Trackpoint>
            <Time>2018-08-26T07:35:26.000Z</Time>
            <Position>
              <LatitudeDegrees>43.01749055273830890655517578125</LatitudeDegrees>
              <LongitudeDegrees>-1.75937228836119174957275390625</LongitudeDegrees>
            </Position>
            <AltitudeMeters>597.5999755859375</AltitudeMeters>
            <DistanceMeters>49104.196663072</DistanceMeters>
          </Trackpoint>
          <Trackpoint>
            <Time>2018-08-26T07:35:27.000Z</Time>
            <Position>
              <LatitudeDegrees>43.01755425520241260528564453125</LatitudeDegrees>
              <LongitudeDegrees>-1.75938452593982219696044921875</LongitudeDegrees>
            </Position>
            <AltitudeMeters>597.79998779296875</AltitudeMeters>
            <DistanceMeters>49111.35653346</DistanceMeters>
          </Trackpoint>
          <Trackpoint>
            <Time>2018-08-26T07:35:28.000Z</Time>
            <Position>
              <LatitudeDegrees>43.01761963404715061187744140625</LatitudeDegrees>
              <LongitudeDegrees>-1.75939843989908695220947265625</LongitudeDegrees>
            </Position>
            <AltitudeMeters>598.20001220703125</AltitudeMeters>
            <DistanceMeters>49118.720950553</DistanceMeters>
          </Trackpoint>
          <Trackpoint>
            <Time>2018-08-26T07:35:29.000Z</Time>
            <Position>
              <LatitudeDegrees>43.01768719218671321868896484375</LatitudeDegrees>
              <LongitudeDegrees>-1.75941101275384426116943359375</LongitudeDegrees>
            </Position>
            <AltitudeMeters>598.4000244140625</AltitudeMeters>
            <DistanceMeters>49126.310010281</DistanceMeters>
          </Trackpoint>
          <Trackpoint>
            <Time>2018-08-26T07:35:30.000Z</Time>
            <Position>
              <LatitudeDegrees>43.01775835454463958740234375</LatitudeDegrees>
              <LongitudeDegrees>-1.75942249596118927001953125</LongitudeDegrees>
            </Position>
            <AltitudeMeters>598.5999755859375</AltitudeMeters>
            <DistanceMeters>49134.285463777</DistanceMeters>
          </Trackpoint>
          <Trackpoint>
            <Time>2018-08-26T07:35:31.000Z</Time>
            <Position>
              <LatitudeDegrees>43.01783102564513683319091796875</LatitudeDegrees>
              <LongitudeDegrees>-1.75943381153047084808349609375</LongitudeDegrees>
            </Position>
            <AltitudeMeters>598.5999755859375</AltitudeMeters>
            <DistanceMeters>49142.426208892</DistanceMeters>
          </Trackpoint>
          <Trackpoint>
            <Time>2018-08-26T07:35:32.000Z</Time>
            <Position>
              <LatitudeDegrees>43.01790428347885608673095703125</LatitudeDegrees>
              <LongitudeDegrees>-1.75944705493748188018798828125</LongitudeDegrees>
            </Position>
            <AltitudeMeters>598.5999755859375</AltitudeMeters>
            <DistanceMeters>49150.65027556</DistanceMeters>
          </Trackpoint>
          <Trackpoint>
            <Time>2018-08-26T07:35:33.000Z</Time>
            <Position>
              <LatitudeDegrees>43.0179798044264316558837890625</LatitudeDegrees>
              <LongitudeDegrees>-1.75945946015417575836181640625</LongitudeDegrees>
            </Position>
            <AltitudeMeters>598.5999755859375</AltitudeMeters>
            <DistanceMeters>49159.115657221</DistanceMeters>
          </Trackpoint>
          <Trackpoint>
            <Time>2018-08-26T07:35:34.000Z</Time>
            <Position>
              <LatitudeDegrees>43.01805666647851467132568359375</LatitudeDegrees>
              <LongitudeDegrees>-1.7594719491899013519287109375</LongitudeDegrees>
            </Position>
            <AltitudeMeters>598.79998779296875</AltitudeMeters>
            <DistanceMeters>49167.730655671</DistanceMeters>
          </Trackpoint>
          <Trackpoint>
            <Time>2018-08-26T07:35:35.000Z</Time>
            <Position>
              <LatitudeDegrees>43.01813394762575626373291015625</LatitudeDegrees>
              <LongitudeDegrees>-1.75948225893080234527587890625</LongitudeDegrees>
            </Position>
            <AltitudeMeters>598.79998779296875</AltitudeMeters>
            <DistanceMeters>49176.372863853</DistanceMeters>
          </Trackpoint>
          <Trackpoint>
            <Time>2018-08-26T07:35:36.000Z</Time>
            <Position>
              <LatitudeDegrees>43.018213994801044464111328125</LatitudeDegrees>
              <LongitudeDegrees>-1.75948812626302242279052734375</LongitudeDegrees>
            </Position>
            <AltitudeMeters>598.79998779296875</AltitudeMeters>
            <DistanceMeters>49185.294754004</DistanceMeters>
          </Trackpoint>
          <Trackpoint>
            <Time>2018-08-26T07:35:37.000Z</Time>
            <Position>
              <LatitudeDegrees>43.01829555071890354156494140625</LatitudeDegrees>
              <LongitudeDegrees>-1.7594873718917369842529296875</LongitudeDegrees>
            </Position>
            <AltitudeMeters>598.79998779296875</AltitudeMeters>
            <DistanceMeters>49194.372665527</DistanceMeters>
          </Trackpoint>
          <Trackpoint>
            <Time>2018-08-26T07:35:38.000Z</Time>
            <Position>
              <LatitudeDegrees>43.01837685517966747283935546875</LatitudeDegrees>
              <LongitudeDegrees>-1.75948544405400753021240234375</LongitudeDegrees>
            </Position>
            <AltitudeMeters>598.79998779296875</AltitudeMeters>
            <DistanceMeters>49203.423679476</DistanceMeters>
          </Trackpoint>
          <Trackpoint>
            <Time>2018-08-26T07:35:39.000Z</Time>
            <Position>
              <LatitudeDegrees>43.01845849491655826568603515625</LatitudeDegrees>
              <LongitudeDegrees>-1.759482510387897491455078125</LongitudeDegrees>
            </Position>
            <AltitudeMeters>598.5999755859375</AltitudeMeters>
            <DistanceMeters>49212.513023203</DistanceMeters>
          </Trackpoint>
          <Trackpoint>
            <Time>2018-08-26T07:35:40.000Z</Time>
            <Position>
              <LatitudeDegrees>43.018541224300861358642578125</LatitudeDegrees>
              <LongitudeDegrees>-1.7594759725034236907958984375</LongitudeDegrees>
            </Position>
            <AltitudeMeters>597.79998779296875</AltitudeMeters>
            <DistanceMeters>49221.736001035</DistanceMeters>
          </Trackpoint>
          <Trackpoint>
            <Time>2018-08-26T07:35:41.000Z</Time>
            <Position>
              <LatitudeDegrees>43.018623702228069305419921875</LatitudeDegrees>
              <LongitudeDegrees>-1.75946901552379131317138671875</LongitudeDegrees>
            </Position>
            <AltitudeMeters>597.5999755859375</AltitudeMeters>
            <DistanceMeters>49230.932996526</DistanceMeters>
          </Trackpoint>
          <Trackpoint>
            <Time>2018-08-26T07:35:42.000Z</Time>
            <Position>
              <LatitudeDegrees>43.01870517432689666748046875</LatitudeDegrees>
              <LongitudeDegrees>-1.75946180708706378936767578125</LongitudeDegrees>
            </Position>
            <AltitudeMeters>597</AltitudeMeters>
            <DistanceMeters>49240.019856215</DistanceMeters>
          </Trackpoint>
          <Trackpoint>
            <Time>2018-08-26T07:35:43.000Z</Time>
            <Position>
              <LatitudeDegrees>43.01878538914024829864501953125</LatitudeDegrees>
              <LongitudeDegrees>-1.7594528384506702423095703125</LongitudeDegrees>
            </Position>
            <AltitudeMeters>596.79998779296875</AltitudeMeters>
            <DistanceMeters>49248.977604776</DistanceMeters>
          </Trackpoint>
          <Trackpoint>
            <Time>2018-08-26T07:35:44.000Z</Time>
            <Position>
              <LatitudeDegrees>43.0188639275729656219482421875</LatitudeDegrees>
              <LongitudeDegrees>-1.7594427801668643951416015625</LongitudeDegrees>
            </Position>
            <AltitudeMeters>596.4000244140625</AltitudeMeters>
            <DistanceMeters>49257.75716812</DistanceMeters>
          </Trackpoint>
          <Trackpoint>
            <Time>2018-08-26T07:35:45.000Z</Time>
            <Position>
              <LatitudeDegrees>43.01894062198698520660400390625</LatitudeDegrees>
              <LongitudeDegrees>-1.759434901177883148193359375</LongitudeDegrees>
            </Position>
            <AltitudeMeters>596</AltitudeMeters>
            <DistanceMeters>49266.317487644</DistanceMeters>
          </Trackpoint>
          <Trackpoint>
            <Time>2018-08-26T07:35:46.000Z</Time>
            <Position>
              <LatitudeDegrees>43.01901522092521190643310546875</LatitudeDegrees>
              <LongitudeDegrees>-1.759429536759853363037109375</LongitudeDegrees>
            </Position>
            <AltitudeMeters>595.79998779296875</AltitudeMeters>
            <DistanceMeters>49274.632189398</DistanceMeters>
          </Trackpoint>
          <Trackpoint>
            <Time>2018-08-26T07:35:47.000Z</Time>
            <Position>
              <LatitudeDegrees>43.019093088805675506591796875</LatitudeDegrees>
              <LongitudeDegrees>-1.759419143199920654296875</LongitudeDegrees>
            </Position>
            <AltitudeMeters>595.79998779296875</AltitudeMeters>
            <DistanceMeters>49283.340494742</DistanceMeters>
          </Trackpoint>
          <Trackpoint>
            <Time>2018-08-26T07:35:48.000Z</Time>
            <Position>
              <LatitudeDegrees>43.01917062141001224517822265625</LatitudeDegrees>
              <LongitudeDegrees>-1.7594085820019245147705078125</LongitudeDegrees>
            </Position>
            <AltitudeMeters>595.79998779296875</AltitudeMeters>
            <DistanceMeters>49292.012951528</DistanceMeters>
          </Trackpoint>
          <Trackpoint>
            <Time>2018-08-26T07:35:49.000Z</Time>
            <Position>
              <LatitudeDegrees>43.01924689672887325286865234375</LatitudeDegrees>
              <LongitudeDegrees>-1.7594002000987529754638671875</LongitudeDegrees>
            </Position>
            <AltitudeMeters>595.79998779296875</AltitudeMeters>
            <DistanceMeters>49300.529911319</DistanceMeters>
          </Trackpoint>
          <Trackpoint>
            <Time>2018-08-26T07:35:50.000Z</Time>
            <Position>
              <LatitudeDegrees>43.01932099275290966033935546875</LatitudeDegrees>
              <LongitudeDegrees>-1.759391315281391143798828125</LongitudeDegrees>
            </Position>
            <AltitudeMeters>595.79998779296875</AltitudeMeters>
            <DistanceMeters>49308.808696266</DistanceMeters>
          </Trackpoint>
          <Trackpoint>
            <Time>2018-08-26T07:35:51.000Z</Time>
            <Position>
              <LatitudeDegrees>43.0193943344056606292724609375</LatitudeDegrees>
              <LongitudeDegrees>-1.75938150845468044281005859375</LongitudeDegrees>
            </Position>
            <AltitudeMeters>595.79998779296875</AltitudeMeters>
            <DistanceMeters>49317.010773412</DistanceMeters>
          </Trackpoint>
          <Trackpoint>
            <Time>2018-08-26T07:35:52.000Z</Time>
            <Position>
              <LatitudeDegrees>43.019467256963253021240234375</LatitudeDegrees>
              <LongitudeDegrees>-1.75936977379024028778076171875</LongitudeDegrees>
            </Position>
            <AltitudeMeters>595.79998779296875</AltitudeMeters>
            <DistanceMeters>49325.183070848</DistanceMeters>
          </Trackpoint>
          <Trackpoint>
            <Time>2018-08-26T07:35:53.000Z</Time>
            <Position>
              <LatitudeDegrees>43.0195398442447185516357421875</LatitudeDegrees>
              <LongitudeDegrees>-1.75935535691678524017333984375</LongitudeDegrees>
            </Position>
            <AltitudeMeters>595.79998779296875</AltitudeMeters>
            <DistanceMeters>49333.346523804</DistanceMeters>
          </Trackpoint>
          <Trackpoint>
            <Time>2018-08-26T07:35:54.000Z</Time>
            <Position>
              <LatitudeDegrees>43.01961301825940608978271484375</LatitudeDegrees>
              <LongitudeDegrees>-1.75933909602463245391845703125</LongitudeDegrees>
            </Position>
            <AltitudeMeters>595.79998779296875</AltitudeMeters>
            <DistanceMeters>49341.597994969</DistanceMeters>
          </Trackpoint>
          <Trackpoint>
            <Time>2018-08-26T07:35:55.000Z</Time>
            <Position>
              <LatitudeDegrees>43.019685186445713043212890625</LatitudeDegrees>
              <LongitudeDegrees>-1.7593217454850673675537109375</LongitudeDegrees>
            </Position>
            <AltitudeMeters>595.79998779296875</AltitudeMeters>
            <DistanceMeters>49349.753701136</DistanceMeters>
          </Trackpoint>
          <Trackpoint>
            <Time>2018-08-26T07:35:56.000Z</Time>
            <Position>
              <LatitudeDegrees>43.0197567678987979888916015625</LatitudeDegrees>
              <LongitudeDegrees>-1.75930238328874111175537109375</LongitudeDegrees>
            </Position>
            <AltitudeMeters>595.79998779296875</AltitudeMeters>
            <DistanceMeters>49357.875011273</DistanceMeters>
          </Trackpoint>
          <Trackpoint>
            <Time>2018-08-26T07:35:57.000Z</Time>
            <Position>
              <LatitudeDegrees>43.01982767879962921142578125</LatitudeDegrees>
              <LongitudeDegrees>-1.75928344018757343292236328125</LongitudeDegrees>
            </Position>
            <AltitudeMeters>595.79998779296875</AltitudeMeters>
            <DistanceMeters>49365.916989108</DistanceMeters>
          </Trackpoint>
          <Trackpoint>
            <Time>2018-08-26T07:35:58.000Z</Time>
            <Position>
              <LatitudeDegrees>43.01989632658660411834716796875</LatitudeDegrees>
              <LongitudeDegrees>-1.759270615875720977783203125</LongitudeDegrees>
            </Position>
            <AltitudeMeters>596</AltitudeMeters>
            <DistanceMeters>49373.628803645</DistanceMeters>
          </Trackpoint>
          <Trackpoint>
            <Time>2018-08-26T07:35:59.000Z</Time>
            <Position>
              <LatitudeDegrees>43.0199643038213253021240234375</LatitudeDegrees>
              <LongitudeDegrees>-1.7592597194015979766845703125</LongitudeDegrees>
            </Position>
            <AltitudeMeters>596</AltitudeMeters>
            <DistanceMeters>49381.246366984</DistanceMeters>
          </Trackpoint>
          <Trackpoint>
            <Time>2018-08-26T07:36:00.000Z</Time>
            <Position>
              <LatitudeDegrees>43.020031191408634185791015625</LatitudeDegrees>
              <LongitudeDegrees>-1.7592567019164562225341796875</LongitudeDegrees>
            </Position>
            <AltitudeMeters>595.79998779296875</AltitudeMeters>
            <DistanceMeters>49388.694909773</DistanceMeters>
          </Trackpoint>
          <Trackpoint>
            <Time>2018-08-26T07:36:01.000Z</Time>
            <Position>
              <LatitudeDegrees>43.02009564824402332305908203125</LatitudeDegrees>
              <LongitudeDegrees>-1.7592617310583591461181640625</LongitudeDegrees>
            </Position>
            <AltitudeMeters>596</AltitudeMeters>
            <DistanceMeters>49395.880588384</DistanceMeters>
          </Trackpoint>
          <Trackpoint>
            <Time>2018-08-26T07:36:02.000Z</Time>
            <Position>
              <LatitudeDegrees>43.0201582610607147216796875</LatitudeDegrees>
              <LongitudeDegrees>-1.75926558673381805419921875</LongitudeDegrees>
            </Position>
            <AltitudeMeters>596.20001220703125</AltitudeMeters>
            <DistanceMeters>49402.857128503</DistanceMeters>
          </Trackpoint>
          <Trackpoint>
            <Time>2018-08-26T07:36:03.000Z</Time>
            <Position>
              <LatitudeDegrees>43.0202201195061206817626953125</LatitudeDegrees>
              <LongitudeDegrees>-1.75926952622830867767333984375</LongitudeDegrees>
            </Position>
            <AltitudeMeters>596.20001220703125</AltitudeMeters>
            <DistanceMeters>49409.749677536</DistanceMeters>
          </Trackpoint>
          <Trackpoint>
            <Time>2018-08-26T07:36:04.000Z</Time>
            <Position>
              <LatitudeDegrees>43.02028373815119266510009765625</LatitudeDegrees>
              <LongitudeDegrees>-1.75927455537021160125732421875</LongitudeDegrees>
            </Position>
            <AltitudeMeters>596.20001220703125</AltitudeMeters>
            <DistanceMeters>49416.843025543</DistanceMeters>
          </Trackpoint>
          <Trackpoint>
            <Time>2018-08-26T07:36:05.000Z</Time>
            <Position>
              <LatitudeDegrees>43.0203473567962646484375</LatitudeDegrees>
              <LongitudeDegrees>-1.75929031334817409515380859375</LongitudeDegrees>
            </Position>
            <AltitudeMeters>596.4000244140625</AltitudeMeters>
            <DistanceMeters>49424.038750547</DistanceMeters>
          </Trackpoint>
          <Trackpoint>
            <Time>2018-08-26T07:36:06.000Z</Time>
            <Position>
              <LatitudeDegrees>43.02041105926036834716796875</LatitudeDegrees>
              <LongitudeDegrees>-1.75930447876453399658203125</LongitudeDegrees>
            </Position>
            <AltitudeMeters>596.4000244140625</AltitudeMeters>
            <DistanceMeters>49431.221286779</DistanceMeters>
          </Trackpoint>
          <Trackpoint>
            <Time>2018-08-26T07:36:07.000Z</Time>
            <Position>
              <LatitudeDegrees>43.020480461418628692626953125</LatitudeDegrees>
              <LongitudeDegrees>-1.7593163810670375823974609375</LongitudeDegrees>
            </Position>
            <AltitudeMeters>596.5999755859375</AltitudeMeters>
            <DistanceMeters>49439.006521078</DistanceMeters>
          </Trackpoint>
          <Trackpoint>
            <Time>2018-08-26T07:36:08.000Z</Time>
            <Position>
              <LatitudeDegrees>43.02054977975785732269287109375</LatitudeDegrees>
              <LongitudeDegrees>-1.75932325422763824462890625</LongitudeDegrees>
            </Position>
            <AltitudeMeters>597.20001220703125</AltitudeMeters>
            <DistanceMeters>49446.741718976</DistanceMeters>
          </Trackpoint>
          <Trackpoint>
            <Time>2018-08-26T07:36:09.000Z</Time>
            <Position>
              <LatitudeDegrees>43.02061985246837139129638671875</LatitudeDegrees>
              <LongitudeDegrees>-1.7593224160373210906982421875</LongitudeDegrees>
            </Position>
            <AltitudeMeters>597.5999755859375</AltitudeMeters>
            <DistanceMeters>49454.540859629</DistanceMeters>
          </Trackpoint>
          <Trackpoint>
            <Time>2018-08-26T07:36:10.000Z</Time>
            <Position>
              <LatitudeDegrees>43.0206881649792194366455078125</LatitudeDegrees>
              <LongitudeDegrees>-1.7593217454850673675537109375</LongitudeDegrees>
            </Position>
            <AltitudeMeters>597.5999755859375</AltitudeMeters>
            <DistanceMeters>49462.14418452</DistanceMeters>
          </Trackpoint>
          <Trackpoint>
            <Time>2018-08-26T07:36:11.000Z</Time>
            <Position>
              <LatitudeDegrees>43.02075580693781375885009765625</LatitudeDegrees>
              <LongitudeDegrees>-1.75932333804666996002197265625</LongitudeDegrees>
            </Position>
            <AltitudeMeters>597.79998779296875</AltitudeMeters>
            <DistanceMeters>49469.673515162</DistanceMeters>
          </Trackpoint>
          <Trackpoint>
            <Time>2018-08-26T07:36:12.000Z</Time>
            <Position>
              <LatitudeDegrees>43.02082302980124950408935546875</LatitudeDegrees>
              <LongitudeDegrees>-1.75932669080793857574462890625</LongitudeDegrees>
            </Position>
            <AltitudeMeters>597.79998779296875</AltitudeMeters>
            <DistanceMeters>49477.160148884</DistanceMeters>
          </Trackpoint>
          <Trackpoint>
            <Time>2018-08-26T07:36:13.000Z</Time>
            <Position>
              <LatitudeDegrees>43.02089159376919269561767578125</LatitudeDegrees>
              <LongitudeDegrees>-1.7593277804553508758544921875</LongitudeDegrees>
            </Position>
            <AltitudeMeters>597.79998779296875</AltitudeMeters>
            <DistanceMeters>49484.791924107</DistanceMeters>
          </Trackpoint>
          <Trackpoint>
            <Time>2018-08-26T07:36:14.000Z</Time>
            <Position>
              <LatitudeDegrees>43.0209610797464847564697265625</LatitudeDegrees>
              <LongitudeDegrees>-1.75932685844600200653076171875</LongitudeDegrees>
            </Position>
            <AltitudeMeters>597.79998779296875</AltitudeMeters>
            <DistanceMeters>49492.525954516</DistanceMeters>
          </Trackpoint>
          <Trackpoint>
            <Time>2018-08-26T07:36:15.000Z</Time>
            <Position>
              <LatitudeDegrees>43.02103324793279170989990234375</LatitudeDegrees>
              <LongitudeDegrees>-1.7593252658843994140625</LongitudeDegrees>
            </Position>
            <AltitudeMeters>597.79998779296875</AltitudeMeters>
            <DistanceMeters>49500.558944387</DistanceMeters>
          </Trackpoint>
          <Trackpoint>
            <Time>2018-08-26T07:36:16.000Z</Time>
            <Position>
              <LatitudeDegrees>43.02110583521425724029541015625</LatitudeDegrees>
              <LongitudeDegrees>-1.75932216458022594451904296875</LongitudeDegrees>
            </Position>
            <AltitudeMeters>597.79998779296875</AltitudeMeters>
            <DistanceMeters>49508.642361557</DistanceMeters>
          </Trackpoint>
          <Trackpoint>
            <Time>2018-08-26T07:36:17.000Z</Time>
            <Position>
              <LatitudeDegrees>43.02117875777184963226318359375</LatitudeDegrees>
              <LongitudeDegrees>-1.759316213428974151611328125</LongitudeDegrees>
            </Position>
            <AltitudeMeters>597.79998779296875</AltitudeMeters>
            <DistanceMeters>49516.773672628</DistanceMeters>
          </Trackpoint>
          <Trackpoint>
            <Time>2018-08-26T07:36:18.000Z</Time>
            <Position>
              <LatitudeDegrees>43.0212514288723468780517578125</LatitudeDegrees>
              <LongitudeDegrees>-1.75930741243064403533935546875</LongitudeDegrees>
            </Position>
            <AltitudeMeters>597.79998779296875</AltitudeMeters>
            <DistanceMeters>49524.89387079</DistanceMeters>
          </Trackpoint>
          <Trackpoint>
            <Time>2018-08-26T07:36:19.000Z</Time>
            <Position>
              <LatitudeDegrees>43.021326363086700439453125</LatitudeDegrees>
              <LongitudeDegrees>-1.7592945881187915802001953125</LongitudeDegrees>
            </Position>
            <AltitudeMeters>597.79998779296875</AltitudeMeters>
            <DistanceMeters>49533.299304633</DistanceMeters>
          </Trackpoint>
          <Trackpoint>
            <Time>2018-08-26T07:36:20.000Z</Time>
            <Position>
              <LatitudeDegrees>43.0214002914726734161376953125</LatitudeDegrees>
              <LongitudeDegrees>-1.7592758126556873321533203125</LongitudeDegrees>
            </Position>
            <AltitudeMeters>597.5999755859375</AltitudeMeters>
            <DistanceMeters>49541.668132084</DistanceMeters>
          </Trackpoint>
          <Trackpoint>
            <Time>2018-08-26T07:36:21.000Z</Time>
            <Position>
              <LatitudeDegrees>43.0214725434780120849609375</LatitudeDegrees>
              <LongitudeDegrees>-1.75925326533615589141845703125</LongitudeDegrees>
            </Position>
            <AltitudeMeters>597.4000244140625</AltitudeMeters>
            <DistanceMeters>49549.916319517</DistanceMeters>
          </Trackpoint>
          <Trackpoint>
            <Time>2018-08-26T07:36:22.000Z</Time>
            <Position>
              <LatitudeDegrees>43.02154362201690673828125</LatitudeDegrees>
              <LongitudeDegrees>-1.75922937691211700439453125</LongitudeDegrees>
            </Position>
            <AltitudeMeters>597.20001220703125</AltitudeMeters>
            <DistanceMeters>49558.063163192</DistanceMeters>
          </Trackpoint>
          <Trackpoint>
            <Time>2018-08-26T07:36:23.000Z</Time>
            <Position>
              <LatitudeDegrees>43.02161344327032566070556640625</LatitudeDegrees>
              <LongitudeDegrees>-1.75920515321195125579833984375</LongitudeDegrees>
            </Position>
            <AltitudeMeters>597.20001220703125</AltitudeMeters>
            <DistanceMeters>49566.080399881</DistanceMeters>
          </Trackpoint>
          <Trackpoint>
            <Time>2018-08-26T07:36:24.000Z</Time>
            <Position>
              <LatitudeDegrees>43.0216815881431102752685546875</LatitudeDegrees>
              <LongitudeDegrees>-1.75917950458824634552001953125</LongitudeDegrees>
            </Position>
            <AltitudeMeters>597.20001220703125</AltitudeMeters>
            <DistanceMeters>49573.946981977</DistanceMeters>
          </Trackpoint>
          <Trackpoint>
            <Time>2018-08-26T07:36:25.000Z</Time>
            <Position>
              <LatitudeDegrees>43.02174755372107028961181640625</LatitudeDegrees>
              <LongitudeDegrees>-1.75915117375552654266357421875</LongitudeDegrees>
            </Position>
            <AltitudeMeters>597.20001220703125</AltitudeMeters>
            <DistanceMeters>49581.642385886</DistanceMeters>
          </Trackpoint>
          <Trackpoint>
            <Time>2018-08-26T07:36:26.000Z</Time>
            <Position>
              <LatitudeDegrees>43.02181251347064971923828125</LatitudeDegrees>
              <LongitudeDegrees>-1.75912032835185527801513671875</LongitudeDegrees>
            </Position>
            <AltitudeMeters>597.20001220703125</AltitudeMeters>
            <DistanceMeters>49589.296609293</DistanceMeters>
          </Trackpoint>
          <Trackpoint>
            <Time>2018-08-26T07:36:27.000Z</Time>
            <Position>
              <LatitudeDegrees>43.02187663502991199493408203125</LatitudeDegrees>
              <LongitudeDegrees>-1.75908847711980342864990234375</LongitudeDegrees>
            </Position>
            <AltitudeMeters>597.20001220703125</AltitudeMeters>
            <DistanceMeters>49596.889237824</DistanceMeters>
          </Trackpoint>
          <Trackpoint>
            <Time>2018-08-26T07:36:28.000Z</Time>
            <Position>
              <LatitudeDegrees>43.02194000221788883209228515625</LatitudeDegrees>
              <LongitudeDegrees>-1.75905796699225902557373046875</LongitudeDegrees>
            </Position>
            <AltitudeMeters>597.20001220703125</AltitudeMeters>
            <DistanceMeters>49604.366819876</DistanceMeters>
          </Trackpoint>
          <Trackpoint>
            <Time>2018-08-26T07:36:29.000Z</Time>
            <Position>
              <LatitudeDegrees>43.02200253121554851531982421875</LatitudeDegrees>
              <LongitudeDegrees>-1.75902645103633403778076171875</LongitudeDegrees>
            </Position>
            <AltitudeMeters>597.20001220703125</AltitudeMeters>
            <DistanceMeters>49611.784992552</DistanceMeters>
          </Trackpoint>
          <Trackpoint>
            <Time>2018-08-26T07:36:30.000Z</Time>
            <Position>
              <LatitudeDegrees>43.02206506021320819854736328125</LatitudeDegrees>
              <LongitudeDegrees>-1.7589955218136310577392578125</LongitudeDegrees>
            </Position>
            <AltitudeMeters>597.20001220703125</AltitudeMeters>
            <DistanceMeters>49619.184883332</DistanceMeters>
          </Trackpoint>
          <Trackpoint>
            <Time>2018-08-26T07:36:31.000Z</Time>
            <Position>
              <LatitudeDegrees>43.02212691865861415863037109375</LatitudeDegrees>
              <LongitudeDegrees>-1.75896543078124523162841796875</LongitudeDegrees>
            </Position>
            <AltitudeMeters>597.20001220703125</AltitudeMeters>
            <DistanceMeters>49626.492678628</DistanceMeters>
          </Trackpoint>
          <Trackpoint>
            <Time>2018-08-26T07:36:32.000Z</Time>
            <Position>
              <LatitudeDegrees>43.02218911238014698028564453125</LatitudeDegrees>
              <LongitudeDegrees>-1.758934669196605682373046875</LongitudeDegrees>
            </Position>
            <AltitudeMeters>597.20001220703125</AltitudeMeters>
            <DistanceMeters>49633.854029641</DistanceMeters>
          </Trackpoint>
          <Trackpoint>
            <Time>2018-08-26T07:36:33.000Z</Time>
            <Position>
              <LatitudeDegrees>43.02225180901587009429931640625</LatitudeDegrees>
              <LongitudeDegrees>-1.75890424288809299468994140625</LongitudeDegrees>
            </Position>
            <AltitudeMeters>597.20001220703125</AltitudeMeters>
            <DistanceMeters>49641.258800007</DistanceMeters>
          </Trackpoint>
          <Trackpoint>
            <Time>2018-08-26T07:36:34.000Z</Time>
            <Position>
              <LatitudeDegrees>43.022315092384815216064453125</LatitudeDegrees>
              <LongitudeDegrees>-1.758874990046024322509765625</LongitudeDegrees>
            </Position>
            <AltitudeMeters>597.4000244140625</AltitudeMeters>
            <DistanceMeters>49648.693995229</DistanceMeters>
          </Trackpoint>
          <Trackpoint>
            <Time>2018-08-26T07:36:35.000Z</Time>
            <Position>
              <LatitudeDegrees>43.0223799683153629302978515625</LatitudeDegrees>
              <LongitudeDegrees>-1.7588496766984462738037109375</LongitudeDegrees>
            </Position>
            <AltitudeMeters>597.5999755859375</AltitudeMeters>
            <DistanceMeters>49656.202909752</DistanceMeters>
          </Trackpoint>
          <Trackpoint>
            <Time>2018-08-26T07:36:36.000Z</Time>
            <Position>
              <LatitudeDegrees>43.02244392223656177520751953125</LatitudeDegrees>
              <LongitudeDegrees>-1.7588292248547077178955078125</LongitudeDegrees>
            </Position>
            <AltitudeMeters>597.79998779296875</AltitudeMeters>
            <DistanceMeters>49663.513175985</DistanceMeters>
          </Trackpoint>
          <Trackpoint>
            <Time>2018-08-26T07:36:37.000Z</Time>
            <Position>
              <LatitudeDegrees>43.022505529224872589111328125</LatitudeDegrees>
              <LongitudeDegrees>-1.7588116228580474853515625</LongitudeDegrees>
            </Position>
            <AltitudeMeters>598</AltitudeMeters>
            <DistanceMeters>49670.517489322</DistanceMeters>
          </Trackpoint>
          <Trackpoint>
            <Time>2018-08-26T07:36:38.000Z</Time>
            <Position>
              <LatitudeDegrees>43.0225668847560882568359375</LatitudeDegrees>
              <LongitudeDegrees>-1.75879008136689662933349609375</LongitudeDegrees>
            </Position>
            <AltitudeMeters>598.4000244140625</AltitudeMeters>
            <DistanceMeters>49677.567421289</DistanceMeters>
          </Trackpoint>
          <Trackpoint>
            <Time>2018-08-26T07:36:39.000Z</Time>
            <Position>
              <LatitudeDegrees>43.02262966521084308624267578125</LatitudeDegrees>
              <LongitudeDegrees>-1.758765019476413726806640625</LongitudeDegrees>
            </Position>
            <AltitudeMeters>598.20001220703125</AltitudeMeters>
            <DistanceMeters>49684.846740528</DistanceMeters>
          </Trackpoint>
          <Trackpoint>
            <Time>2018-08-26T07:36:40.000Z</Time>
            <Position>
              <LatitudeDegrees>43.02269370295107364654541015625</LatitudeDegrees>
              <LongitudeDegrees>-1.75874414853751659393310546875</LongitudeDegrees>
            </Position>
            <AltitudeMeters>598.4000244140625</AltitudeMeters>
            <DistanceMeters>49692.174279988</DistanceMeters>
          </Trackpoint>
          <Trackpoint>
            <Time>2018-08-26T07:36:41.000Z</Time>
            <Position>
              <LatitudeDegrees>43.02275589667260646820068359375</LatitudeDegrees>
              <LongitudeDegrees>-1.75872587598860263824462890625</LongitudeDegrees>
            </Position>
            <AltitudeMeters>598.4000244140625</AltitudeMeters>
            <DistanceMeters>49699.254886206</DistanceMeters>
          </Trackpoint>
          <Trackpoint>
            <Time>2018-08-26T07:36:42.000Z</Time>
            <Position>
              <LatitudeDegrees>43.02281700074672698974609375</LatitudeDegrees>
              <LongitudeDegrees>-1.75870835781097412109375</LongitudeDegrees>
            </Position>
            <AltitudeMeters>598.5999755859375</AltitudeMeters>
            <DistanceMeters>49706.202892299</DistanceMeters>
          </Trackpoint>
          <Trackpoint>
            <Time>2018-08-26T07:36:43.000Z</Time>
            <Position>
              <LatitudeDegrees>43.02288112230598926544189453125</LatitudeDegrees>
              <LongitudeDegrees>-1.75869201309978961944580078125</LongitudeDegrees>
            </Position>
            <AltitudeMeters>598.5999755859375</AltitudeMeters>
            <DistanceMeters>49713.462336226</DistanceMeters>
          </Trackpoint>
          <Trackpoint>
            <Time>2018-08-26T07:36:44.000Z</Time>
            <Position>
              <LatitudeDegrees>43.02294499240815639495849609375</LatitudeDegrees>
              <LongitudeDegrees>-1.758675165474414825439453125</LongitudeDegrees>
            </Position>
            <AltitudeMeters>598.5999755859375</AltitudeMeters>
            <DistanceMeters>49720.701850276</DistanceMeters>
          </Trackpoint>
          <Trackpoint>
            <Time>2018-08-26T07:36:45.000Z</Time>
            <Position>
              <LatitudeDegrees>43.023010455071926116943359375</LatitudeDegrees>
              <LongitudeDegrees>-1.7586582340300083160400390625</LongitudeDegrees>
            </Position>
            <AltitudeMeters>598.5999755859375</AltitudeMeters>
            <DistanceMeters>49728.116370179</DistanceMeters>
          </Trackpoint>
          <Trackpoint>
            <Time>2018-08-26T07:36:46.000Z</Time>
            <Position>
              <LatitudeDegrees>43.02307373844087123870849609375</LatitudeDegrees>
              <LongitudeDegrees>-1.75864138640463352203369140625</LongitudeDegrees>
            </Position>
            <AltitudeMeters>598.79998779296875</AltitudeMeters>
            <DistanceMeters>49735.291359085</DistanceMeters>
          </Trackpoint>
          <Trackpoint>
            <Time>2018-08-26T07:36:47.000Z</Time>
            <Position>
              <LatitudeDegrees>43.02313827909529209136962890625</LatitudeDegrees>
              <LongitudeDegrees>-1.75862378440797328948974609375</LongitudeDegrees>
            </Position>
            <AltitudeMeters>598.79998779296875</AltitudeMeters>
            <DistanceMeters>49742.616433435</DistanceMeters>
          </Trackpoint>
          <Trackpoint>
            <Time>2018-08-26T07:36:48.000Z</Time>
            <Position>
              <LatitudeDegrees>43.0232054181396961212158203125</LatitudeDegrees>
              <LongitudeDegrees>-1.75860618241131305694580078125</LongitudeDegrees>
            </Position>
            <AltitudeMeters>598.79998779296875</AltitudeMeters>
            <DistanceMeters>49750.224507436</DistanceMeters>
          </Trackpoint>
          <Trackpoint>
            <Time>2018-08-26T07:36:49.000Z</Time>
            <Position>
              <LatitudeDegrees>43.02327306009829044342041015625</LatitudeDegrees>
              <LongitudeDegrees>-1.75858824513852596282958984375</LongitudeDegrees>
            </Position>
            <AltitudeMeters>599</AltitudeMeters>
            <DistanceMeters>49757.892874785</DistanceMeters>
          </Trackpoint>
          <Trackpoint>
            <Time>2018-08-26T07:36:50.000Z</Time>
            <Position>
              <LatitudeDegrees>43.02334028296172618865966796875</LatitudeDegrees>
              <LongitudeDegrees>-1.7585707269608974456787109375</LongitudeDegrees>
            </Position>
            <AltitudeMeters>599</AltitudeMeters>
            <DistanceMeters>49765.509252604</DistanceMeters>
          </Trackpoint>
          <Trackpoint>
            <Time>2018-08-26T07:36:51.000Z</Time>
            <Position>
              <LatitudeDegrees>43.0234075896441936492919921875</LatitudeDegrees>
              <LongitudeDegrees>-1.75855522044003009796142578125</LongitudeDegrees>
            </Position>
            <AltitudeMeters>599.20001220703125</AltitudeMeters>
            <DistanceMeters>49773.105448262</DistanceMeters>
          </Trackpoint>
          <Trackpoint>
            <Time>2018-08-26T07:36:52.000Z</Time>
            <Position>
              <LatitudeDegrees>43.02347389049828052520751953125</LatitudeDegrees>
              <LongitudeDegrees>-1.75854080356657505035400390625</LongitudeDegrees>
            </Position>
            <AltitudeMeters>599.20001220703125</AltitudeMeters>
            <DistanceMeters>49780.576989775</DistanceMeters>
          </Trackpoint>
          <Trackpoint>
            <Time>2018-08-26T07:36:53.000Z</Time>
            <Position>
              <LatitudeDegrees>43.02353725768625736236572265625</LatitudeDegrees>
              <LongitudeDegrees>-1.758529655635356903076171875</LongitudeDegrees>
            </Position>
            <AltitudeMeters>599.4000244140625</AltitudeMeters>
            <DistanceMeters>49787.68813793</DistanceMeters>
          </Trackpoint>
          <Trackpoint>
            <Time>2018-08-26T07:36:54.000Z</Time>
            <Position>
              <LatitudeDegrees>43.02360129542648792266845703125</LatitudeDegrees>
              <LongitudeDegrees>-1.758516244590282440185546875</LongitudeDegrees>
            </Position>
            <AltitudeMeters>599.4000244140625</AltitudeMeters>
            <DistanceMeters>49794.898280098</DistanceMeters>
          </Trackpoint>
          <Trackpoint>
            <Time>2018-08-26T07:36:55.000Z</Time>
            <Position>
              <LatitudeDegrees>43.023665249347686767578125</LatitudeDegrees>
              <LongitudeDegrees>-1.75849906168878078460693359375</LongitudeDegrees>
            </Position>
            <AltitudeMeters>599.4000244140625</AltitudeMeters>
            <DistanceMeters>49802.152746689</DistanceMeters>
          </Trackpoint>
          <Trackpoint>
            <Time>2018-08-26T07:36:56.000Z</Time>
            <Position>
              <LatitudeDegrees>43.02373004145920276641845703125</LatitudeDegrees>
              <LongitudeDegrees>-1.75847860984504222869873046875</LongitudeDegrees>
            </Position>
            <AltitudeMeters>599.5999755859375</AltitudeMeters>
            <DistanceMeters>49809.553857667</DistanceMeters>
          </Trackpoint>
          <Trackpoint>
            <Time>2018-08-26T07:36:57.000Z</Time>
            <Position>
              <LatitudeDegrees>43.02379332482814788818359375</LatitudeDegrees>
              <LongitudeDegrees>-1.758458577096462249755859375</LongitudeDegrees>
            </Position>
            <AltitudeMeters>599.5999755859375</AltitudeMeters>
            <DistanceMeters>49816.784010676</DistanceMeters>
          </Trackpoint>
          <Trackpoint>
            <Time>2018-08-26T07:36:58.000Z</Time>
            <Position>
              <LatitudeDegrees>43.0238558538258075714111328125</LatitudeDegrees>
              <LongitudeDegrees>-1.75844072364270687103271484375</LongitudeDegrees>
            </Position>
            <AltitudeMeters>599.5999755859375</AltitudeMeters>
            <DistanceMeters>49823.89388887</DistanceMeters>
          </Trackpoint>
          <Trackpoint>
            <Time>2018-08-26T07:36:59.000Z</Time>
            <Position>
              <LatitudeDegrees>43.02391813136637210845947265625</LatitudeDegrees>
              <LongitudeDegrees>-1.75842094235122203826904296875</LongitudeDegrees>
            </Position>
            <AltitudeMeters>599.5999755859375</AltitudeMeters>
            <DistanceMeters>49831.010114604</DistanceMeters>
          </Trackpoint>
          <Trackpoint>
            <Time>2018-08-26T07:37:00.000Z</Time>
            <Position>
              <LatitudeDegrees>43.02397973835468292236328125</LatitudeDegrees>
              <LongitudeDegrees>-1.7583985626697540283203125</LongitudeDegrees>
            </Position>
            <AltitudeMeters>599.79998779296875</AltitudeMeters>
            <DistanceMeters>49838.104735531</DistanceMeters>
          </Trackpoint>
          <Trackpoint>
            <Time>2018-08-26T07:37:01.000Z</Time>
            <Position>
              <LatitudeDegrees>43.02404101006686687469482421875</LatitudeDegrees>
              <LongitudeDegrees>-1.75837467424571514129638671875</LongitudeDegrees>
            </Position>
            <AltitudeMeters>599.79998779296875</AltitudeMeters>
            <DistanceMeters>49845.195537012</DistanceMeters>
          </Trackpoint>
          <Trackpoint>
            <Time>2018-08-26T07:37:02.000Z</Time>
            <Position>
              <LatitudeDegrees>43.02410152740776538848876953125</LatitudeDegrees>
              <LongitudeDegrees>-1.7583476006984710693359375</LongitudeDegrees>
            </Position>
            <AltitudeMeters>599.79998779296875</AltitudeMeters>
            <DistanceMeters>49852.28187987</DistanceMeters>
          </Trackpoint>
          <Trackpoint>
            <Time>2018-08-26T07:37:03.000Z</Time>
            <Position>
              <LatitudeDegrees>43.02416422404348850250244140625</LatitudeDegrees>
              <LongitudeDegrees>-1.75831818021833896636962890625</LongitudeDegrees>
            </Position>
            <AltitudeMeters>600</AltitudeMeters>
            <DistanceMeters>49859.658548539</DistanceMeters>
          </Trackpoint>
          <Trackpoint>
            <Time>2018-08-26T07:37:04.000Z</Time>
            <Position>
              <LatitudeDegrees>43.02422658540308475494384765625</LatitudeDegrees>
              <LongitudeDegrees>-1.75828767009079456329345703125</LongitudeDegrees>
            </Position>
            <AltitudeMeters>600</AltitudeMeters>
            <DistanceMeters>49867.030319021</DistanceMeters>
          </Trackpoint>
          <Trackpoint>
            <Time>2018-08-26T07:37:05.000Z</Time>
            <Position>
              <LatitudeDegrees>43.02428877912461757659912109375</LatitudeDegrees>
              <LongitudeDegrees>-1.75826051272451877593994140625</LongitudeDegrees>
            </Position>
            <AltitudeMeters>600.20001220703125</AltitudeMeters>
            <DistanceMeters>49874.29722256</DistanceMeters>
          </Trackpoint>
          <Trackpoint>
            <Time>2018-08-26T07:37:06.000Z</Time>
            <Position>
              <LatitudeDegrees>43.0243510566651821136474609375</LatitudeDegrees>
              <LongitudeDegrees>-1.758234612643718719482421875</LongitudeDegrees>
            </Position>
            <AltitudeMeters>600.4000244140625</AltitudeMeters>
            <DistanceMeters>49881.541724219</DistanceMeters>
          </Trackpoint>
          <Trackpoint>
            <Time>2018-08-26T07:37:07.000Z</Time>
            <Position>
              <LatitudeDegrees>43.02441383711993694305419921875</LatitudeDegrees>
              <LongitudeDegrees>-1.7582136578857898712158203125</LongitudeDegrees>
            </Position>
            <AltitudeMeters>600.79998779296875</AltitudeMeters>
            <DistanceMeters>49888.733683471</DistanceMeters>
          </Trackpoint>
          <Trackpoint>
            <Time>2018-08-26T07:37:08.000Z</Time>
            <Position>
              <LatitudeDegrees>43.024478293955326080322265625</LatitudeDegrees>
              <LongitudeDegrees>-1.7581975646317005157470703125</LongitudeDegrees>
            </Position>
            <AltitudeMeters>601</AltitudeMeters>
            <DistanceMeters>49896.026635565</DistanceMeters>
          </Trackpoint>
          <Trackpoint>
            <Time>2018-08-26T07:37:09.000Z</Time>
            <Position>
              <LatitudeDegrees>43.0245435051620006561279296875</LatitudeDegrees>
              <LongitudeDegrees>-1.7581893503665924072265625</LongitudeDegrees>
            </Position>
            <AltitudeMeters>601.20001220703125</AltitudeMeters>
            <DistanceMeters>49903.315872137</DistanceMeters>
          </Trackpoint>
          <Trackpoint>
            <Time>2018-08-26T07:37:10.000Z</Time>
            <Position>
              <LatitudeDegrees>43.024608381092548370361328125</LatitudeDegrees>
              <LongitudeDegrees>-1.7581947147846221923828125</LongitudeDegrees>
            </Position>
            <AltitudeMeters>601.20001220703125</AltitudeMeters>
            <DistanceMeters>49910.549771016</DistanceMeters>
          </Trackpoint>
          <Trackpoint>
            <Time>2018-08-26T07:37:11.000Z</Time>
            <Position>
              <LatitudeDegrees>43.02467183209955692291259765625</LatitudeDegrees>
              <LongitudeDegrees>-1.7582092992961406707763671875</LongitudeDegrees>
            </Position>
            <AltitudeMeters>601.4000244140625</AltitudeMeters>
            <DistanceMeters>49917.710271979</DistanceMeters>
          </Trackpoint>
          <Trackpoint>
            <Time>2018-08-26T07:37:12.000Z</Time>
            <Position>
              <LatitudeDegrees>43.02473486401140689849853515625</LatitudeDegrees>
              <LongitudeDegrees>-1.7582304216921329498291015625</LongitudeDegrees>
            </Position>
            <AltitudeMeters>601.4000244140625</AltitudeMeters>
            <DistanceMeters>49924.933552515</DistanceMeters>
          </Trackpoint>
          <Trackpoint>
            <Time>2018-08-26T07:37:13.000Z</Time>
            <Position>
              <LatitudeDegrees>43.02479655481874942779541015625</LatitudeDegrees>
              <LongitudeDegrees>-1.75825799815356731414794921875</LongitudeDegrees>
            </Position>
            <AltitudeMeters>601.5999755859375</AltitudeMeters>
            <DistanceMeters>49932.15683305</DistanceMeters>
          </Trackpoint>
          <Trackpoint>
            <Time>2018-08-26T07:37:14.000Z</Time>
            <Position>
              <LatitudeDegrees>43.0248563177883625030517578125</LatitudeDegrees>
              <LongitudeDegrees>-1.75828926265239715576171875</LongitudeDegrees>
            </Position>
            <AltitudeMeters>601.4000244140625</AltitudeMeters>
            <DistanceMeters>49939.279400668</DistanceMeters>
          </Trackpoint>
          <Trackpoint>
            <Time>2018-08-26T07:37:15.000Z</Time>
            <Position>
              <LatitudeDegrees>43.0249159969389438629150390625</LatitudeDegrees>
              <LongitudeDegrees>-1.75832203589379787445068359375</LongitudeDegrees>
            </Position>
            <AltitudeMeters>601.5999755859375</AltitudeMeters>
            <DistanceMeters>49946.437378995</DistanceMeters>
          </Trackpoint>
          <Trackpoint>
            <Time>2018-08-26T07:37:16.000Z</Time>
            <Position>
              <LatitudeDegrees>43.02497508935630321502685546875</LatitudeDegrees>
              <LongitudeDegrees>-1.75835656933486461639404296875</LongitudeDegrees>
            </Position>
            <AltitudeMeters>601.5999755859375</AltitudeMeters>
            <DistanceMeters>49953.589046841</DistanceMeters>
          </Trackpoint>
          <Trackpoint>
            <Time>2018-08-26T07:37:17.000Z</Time>
            <Position>
              <LatitudeDegrees>43.02503359504044055938720703125</LatitudeDegrees>
              <LongitudeDegrees>-1.75839118659496307373046875</LongitudeDegrees>
            </Position>
            <AltitudeMeters>601.79998779296875</AltitudeMeters>
            <DistanceMeters>49960.683667768</DistanceMeters>
          </Trackpoint>
          <Trackpoint>
            <Time>2018-08-26T07:37:18.000Z</Time>
            <Position>
              <LatitudeDegrees>43.02509293891489505767822265625</LatitudeDegrees>
              <LongitudeDegrees>-1.75842395983636379241943359375</LongitudeDegrees>
            </Position>
            <AltitudeMeters>602</AltitudeMeters>
            <DistanceMeters>49967.807503085</DistanceMeters>
          </Trackpoint>
          <Trackpoint>
            <Time>2018-08-26T07:37:19.000Z</Time>
            <Position>
              <LatitudeDegrees>43.02515010349452495574951171875</LatitudeDegrees>
              <LongitudeDegrees>-1.758458912372589111328125</LongitudeDegrees>
            </Position>
            <AltitudeMeters>602.20001220703125</AltitudeMeters>
            <DistanceMeters>49974.77692065</DistanceMeters>
          </Trackpoint>
          <Trackpoint>
            <Time>2018-08-26T07:37:20.000Z</Time>
            <Position>
              <LatitudeDegrees>43.0252039991319179534912109375</LatitudeDegrees>
              <LongitudeDegrees>-1.75849420018494129180908203125</LongitudeDegrees>
            </Position>
            <AltitudeMeters>602.4000244140625</AltitudeMeters>
            <DistanceMeters>49981.428111859</DistanceMeters>
          </Trackpoint>
          <Trackpoint>
            <Time>2018-08-26T07:37:21.000Z</Time>
            <Position>
              <LatitudeDegrees>43.02525621838867664337158203125</LatitudeDegrees>
              <LongitudeDegrees>-1.75852437503635883331298828125</LongitudeDegrees>
            </Position>
            <AltitudeMeters>602.4000244140625</AltitudeMeters>
            <DistanceMeters>49987.738629834</DistanceMeters>
          </Trackpoint>
          <Trackpoint>
            <Time>2018-08-26T07:37:22.000Z</Time>
            <Position>
              <LatitudeDegrees>43.0253102816641330718994140625</LatitudeDegrees>
              <LongitudeDegrees>-1.7585527896881103515625</LongitudeDegrees>
            </Position>
            <AltitudeMeters>602.5999755859375</AltitudeMeters>
            <DistanceMeters>49994.185056115</DistanceMeters>
          </Trackpoint>
          <Trackpoint>
            <Time>2018-08-26T07:37:23.000Z</Time>
            <Position>
              <LatitudeDegrees>43.02536434493958950042724609375</LatitudeDegrees>
              <LongitudeDegrees>-1.7585804499685764312744140625</LongitudeDegrees>
            </Position>
            <AltitudeMeters>602.79998779296875</AltitudeMeters>
            <DistanceMeters>50000.610436221</DistanceMeters>
          </Trackpoint>
          <Trackpoint>
            <Time>2018-08-26T07:37:24.000Z</Time>
            <Position>
              <LatitudeDegrees>43.025417067110538482666015625</LatitudeDegrees>
              <LongitudeDegrees>-1.7586086131632328033447265625</LongitudeDegrees>
            </Position>
            <AltitudeMeters>603</AltitudeMeters>
            <DistanceMeters>50006.909496142</DistanceMeters>
          </Trackpoint>
          <Trackpoint>
            <Time>2018-08-26T07:37:25.000Z</Time>
            <Position>
              <LatitudeDegrees>43.0254698731005191802978515625</LatitudeDegrees>
              <LongitudeDegrees>-1.75863199867308139801025390625</LongitudeDegrees>
            </Position>
            <AltitudeMeters>603.20001220703125</AltitudeMeters>
            <DistanceMeters>50013.086963508</DistanceMeters>
          </Trackpoint>
          <Trackpoint>
            <Time>2018-08-26T07:37:26.000Z</Time>
            <Position>
              <LatitudeDegrees>43.02552402019500732421875</LatitudeDegrees>
              <LongitudeDegrees>-1.75866133533418178558349609375</LongitudeDegrees>
            </Position>
            <AltitudeMeters>603.4000244140625</AltitudeMeters>
            <DistanceMeters>50019.56831488</DistanceMeters>
          </Trackpoint>
          <Trackpoint>
            <Time>2018-08-26T07:37:27.000Z</Time>
            <Position>
              <LatitudeDegrees>43.02557556889951229095458984375</LatitudeDegrees>
              <LongitudeDegrees>-1.758689582347869873046875</LongitudeDegrees>
            </Position>
            <AltitudeMeters>603.5999755859375</AltitudeMeters>
            <DistanceMeters>50025.748705107</DistanceMeters>
          </Trackpoint>
          <Trackpoint>
            <Time>2018-08-26T07:37:28.000Z</Time>
            <Position>
              <LatitudeDegrees>43.02562669850885868072509765625</LatitudeDegrees>
              <LongitudeDegrees>-1.75871682353317737579345703125</LongitudeDegrees>
            </Position>
            <AltitudeMeters>603.79998779296875</AltitudeMeters>
            <DistanceMeters>50031.855604133</DistanceMeters>
          </Trackpoint>
          <Trackpoint>
            <Time>2018-08-26T07:37:29.000Z</Time>
            <Position>
              <LatitudeDegrees>43.02567849867045879364013671875</LatitudeDegrees>
              <LongitudeDegrees>-1.75873987376689910888671875</LongitudeDegrees>
            </Position>
            <AltitudeMeters>604</AltitudeMeters>
            <DistanceMeters>50037.919470167</DistanceMeters>
          </Trackpoint>
          <Trackpoint>
            <Time>2018-08-26T07:37:30.000Z</Time>
            <Position>
              <LatitudeDegrees>43.02572987973690032958984375</LatitudeDegrees>
              <LongitudeDegrees>-1.75876443274319171905517578125</LongitudeDegrees>
            </Position>
            <AltitudeMeters>604.20001220703125</AltitudeMeters>
            <DistanceMeters>50043.977376627</DistanceMeters>
          </Trackpoint>
          <Trackpoint>
            <Time>2018-08-26T07:37:31.000Z</Time>
            <Position>
              <LatitudeDegrees>43.025781176984310150146484375</LatitudeDegrees>
              <LongitudeDegrees>-1.75878681242465972900390625</LongitudeDegrees>
            </Position>
            <AltitudeMeters>604.5999755859375</AltitudeMeters>
            <DistanceMeters>50049.969336568</DistanceMeters>
          </Trackpoint>
          <Trackpoint>
            <Time>2018-08-26T07:37:32.000Z</Time>
            <Position>
              <LatitudeDegrees>43.02583322860300540924072265625</LatitudeDegrees>
              <LongitudeDegrees>-1.75880248658359050750732421875</LongitudeDegrees>
            </Position>
            <AltitudeMeters>604.79998779296875</AltitudeMeters>
            <DistanceMeters>50055.900708907</DistanceMeters>
          </Trackpoint>
          <Trackpoint>
            <Time>2018-08-26T07:37:33.000Z</Time>
            <Position>
              <LatitudeDegrees>43.02588687278330326080322265625</LatitudeDegrees>
              <LongitudeDegrees>-1.75881019793450832366943359375</LongitudeDegrees>
            </Position>
            <AltitudeMeters>605.20001220703125</AltitudeMeters>
            <DistanceMeters>50061.904713002</DistanceMeters>
          </Trackpoint>
          <Trackpoint>
            <Time>2018-08-26T07:37:34.000Z</Time>
            <Position>
              <LatitudeDegrees>43.02594068460166454315185546875</LatitudeDegrees>
              <LongitudeDegrees>-1.7588081024587154388427734375</LongitudeDegrees>
            </Position>
            <AltitudeMeters>605.5999755859375</AltitudeMeters>
            <DistanceMeters>50067.896672943</DistanceMeters>
          </Trackpoint>
          <Trackpoint>
            <Time>2018-08-26T07:37:35.000Z</Time>
            <Position>
              <LatitudeDegrees>43.0259959213435649871826171875</LatitudeDegrees>
              <LongitudeDegrees>-1.75880148075520992279052734375</LongitudeDegrees>
            </Position>
            <AltitudeMeters>605.79998779296875</AltitudeMeters>
            <DistanceMeters>50074.069021971</DistanceMeters>
          </Trackpoint>
          <Trackpoint>
            <Time>2018-08-26T07:37:36.000Z</Time>
            <Position>
              <LatitudeDegrees>43.0260502360761165618896484375</LatitudeDegrees>
              <LongitudeDegrees>-1.75879008136689662933349609375</LongitudeDegrees>
            </Position>
            <AltitudeMeters>606.4000244140625</AltitudeMeters>
            <DistanceMeters>50080.185524787</DistanceMeters>
          </Trackpoint>
          <Trackpoint>
            <Time>2018-08-26T07:37:37.000Z</Time>
            <Position>
              <LatitudeDegrees>43.02610312588512897491455078125</LatitudeDegrees>
              <LongitudeDegrees>-1.75877080298960208892822265625</LongitudeDegrees>
            </Position>
            <AltitudeMeters>606.5999755859375</AltitudeMeters>
            <DistanceMeters>50086.277619188</DistanceMeters>
          </Trackpoint>
          <Trackpoint>
            <Time>2018-08-26T07:37:38.000Z</Time>
            <Position>
              <LatitudeDegrees>43.02615475840866565704345703125</LatitudeDegrees>
              <LongitudeDegrees>-1.75874230451881885528564453125</LongitudeDegrees>
            </Position>
            <AltitudeMeters>607</AltitudeMeters>
            <DistanceMeters>50092.474060509</DistanceMeters>
          </Trackpoint>
          <Trackpoint>
            <Time>2018-08-26T07:37:39.000Z</Time>
            <Position>
              <LatitudeDegrees>43.026203624904155731201171875</LatitudeDegrees>
              <LongitudeDegrees>-1.75870777107775211334228515625</LongitudeDegrees>
            </Position>
            <AltitudeMeters>607.20001220703125</AltitudeMeters>
            <DistanceMeters>50098.595728357</DistanceMeters>
          </Trackpoint>
          <Trackpoint>
            <Time>2018-08-26T07:37:40.000Z</Time>
            <Position>
              <LatitudeDegrees>43.0262495577335357666015625</LatitudeDegrees>
              <LongitudeDegrees>-1.758668124675750732421875</LongitudeDegrees>
            </Position>
            <AltitudeMeters>607.4000244140625</AltitudeMeters>
            <DistanceMeters>50104.640951212</DistanceMeters>
          </Trackpoint>
          <Trackpoint>
            <Time>2018-08-26T07:37:41.000Z</Time>
            <Position>
              <LatitudeDegrees>43.02629507146775722503662109375</LatitudeDegrees>
              <LongitudeDegrees>-1.758622862398624420166015625</LongitudeDegrees>
            </Position>
            <AltitudeMeters>607.4000244140625</AltitudeMeters>
            <DistanceMeters>50110.90406961</DistanceMeters>
          </Trackpoint>
          <Trackpoint>
            <Time>2018-08-26T07:37:42.000Z</Time>
            <Position>
              <LatitudeDegrees>43.0263409204781055450439453125</LatitudeDegrees>
              <LongitudeDegrees>-1.75857466645538806915283203125</LongitudeDegrees>
            </Position>
            <AltitudeMeters>607.79998779296875</AltitudeMeters>
            <DistanceMeters>50117.33927983</DistanceMeters>
          </Trackpoint>
          <Trackpoint>
            <Time>2018-08-26T07:37:43.000Z</Time>
            <Position>
              <LatitudeDegrees>43.02638727240264415740966796875</LatitudeDegrees>
              <LongitudeDegrees>-1.7585257999598979949951171875</LongitudeDegrees>
            </Position>
            <AltitudeMeters>607.79998779296875</AltitudeMeters>
            <DistanceMeters>50123.852596891</DistanceMeters>
          </Trackpoint>
          <Trackpoint>
            <Time>2018-08-26T07:37:44.000Z</Time>
            <Position>
              <LatitudeDegrees>43.02643437869846820831298828125</LatitudeDegrees>
              <LongitudeDegrees>-1.75847408361732959747314453125</LongitudeDegrees>
            </Position>
            <AltitudeMeters>608.20001220703125</AltitudeMeters>
            <DistanceMeters>50130.576030736</DistanceMeters>
          </Trackpoint>
          <Trackpoint>
            <Time>2018-08-26T07:37:45.000Z</Time>
            <Position>
              <LatitudeDegrees>43.0264793895184993743896484375</LatitudeDegrees>
              <LongitudeDegrees>-1.7584225349128246307373046875</LongitudeDegrees>
            </Position>
            <AltitudeMeters>608.4000244140625</AltitudeMeters>
            <DistanceMeters>50137.1094197</DistanceMeters>
          </Trackpoint>
          <Trackpoint>
            <Time>2018-08-26T07:37:46.000Z</Time>
            <Position>
              <LatitudeDegrees>43.02652389742434024810791015625</LatitudeDegrees>
              <LongitudeDegrees>-1.75837132148444652557373046875</LongitudeDegrees>
            </Position>
            <AltitudeMeters>608.4000244140625</AltitudeMeters>
            <DistanceMeters>50143.582406236</DistanceMeters>
          </Trackpoint>
          <Trackpoint>
            <Time>2018-08-26T07:37:47.000Z</Time>
            <Position>
              <LatitudeDegrees>43.02656882442533969879150390625</LatitudeDegrees>
              <LongitudeDegrees>-1.7583185993134975433349609375</LongitudeDegrees>
            </Position>
            <AltitudeMeters>608.5999755859375</AltitudeMeters>
            <DistanceMeters>50150.170848956</DistanceMeters>
          </Trackpoint>
          <Trackpoint>
            <Time>2018-08-26T07:37:48.000Z</Time>
            <Position>
              <LatitudeDegrees>43.02661458961665630340576171875</LatitudeDegrees>
              <LongitudeDegrees>-1.75826604478061199188232421875</LongitudeDegrees>
            </Position>
            <AltitudeMeters>608.5999755859375</AltitudeMeters>
            <DistanceMeters>50156.821361299</DistanceMeters>
          </Trackpoint>
          <Trackpoint>
            <Time>2018-08-26T07:37:49.000Z</Time>
            <Position>
              <LatitudeDegrees>43.02665951661765575408935546875</LatitudeDegrees>
              <LongitudeDegrees>-1.7582133226096630096435546875</LongitudeDegrees>
            </Position>
            <AltitudeMeters>608.79998779296875</AltitudeMeters>
            <DistanceMeters>50163.410489279</DistanceMeters>
          </Trackpoint>
          <Trackpoint>
            <Time>2018-08-26T07:37:50.000Z</Time>
            <Position>
              <LatitudeDegrees>43.02670377306640148162841796875</LatitudeDegrees>
              <LongitudeDegrees>-1.7581603489816188812255859375</LongitudeDegrees>
            </Position>
            <AltitudeMeters>608.79998779296875</AltitudeMeters>
            <DistanceMeters>50169.955615913</DistanceMeters>
          </Trackpoint>
          <Trackpoint>
            <Time>2018-08-26T07:37:51.000Z</Time>
            <Position>
              <LatitudeDegrees>43.02674719132483005523681640625</LatitudeDegrees>
              <LongitudeDegrees>-1.75810712389647960662841796875</LongitudeDegrees>
            </Position>
            <AltitudeMeters>609</AltitudeMeters>
            <DistanceMeters>50176.44532134</DistanceMeters>
          </Trackpoint>
          <Trackpoint>
            <Time>2018-08-26T07:37:52.000Z</Time>
            <Position>
              <LatitudeDegrees>43.02679069340229034423828125</LatitudeDegrees>
              <LongitudeDegrees>-1.75805431790649890899658203125</LongitudeDegrees>
            </Position>
            <AltitudeMeters>609</AltitudeMeters>
            <DistanceMeters>50182.918307876</DistanceMeters>
          </Trackpoint>
          <Trackpoint>
            <Time>2018-08-26T07:37:53.000Z</Time>
            <Position>
              <LatitudeDegrees>43.02683386020362377166748046875</LatitudeDegrees>
              <LongitudeDegrees>-1.75800318829715251922607421875</LongitudeDegrees>
            </Position>
            <AltitudeMeters>609.20001220703125</AltitudeMeters>
            <DistanceMeters>50189.273030676</DistanceMeters>
          </Trackpoint>
          <Trackpoint>
            <Time>2018-08-26T07:37:54.000Z</Time>
            <Position>
              <LatitudeDegrees>43.02687711082398891448974609375</LatitudeDegrees>
              <LongitudeDegrees>-1.7579521425068378448486328125</LongitudeDegrees>
            </Position>
            <AltitudeMeters>609.20001220703125</AltitudeMeters>
            <DistanceMeters>50195.632015054</DistanceMeters>
          </Trackpoint>
          <Trackpoint>
            <Time>2018-08-26T07:37:55.000Z</Time>
            <Position>
              <LatitudeDegrees>43.026921115815639495849609375</LatitudeDegrees>
              <LongitudeDegrees>-1.75790076144039630889892578125</LongitudeDegrees>
            </Position>
            <AltitudeMeters>609.20001220703125</AltitudeMeters>
            <DistanceMeters>50202.072134704</DistanceMeters>
          </Trackpoint>
          <Trackpoint>
            <Time>2018-08-26T07:37:56.000Z</Time>
            <Position>
              <LatitudeDegrees>43.02696428261697292327880859375</LatitudeDegrees>
              <LongitudeDegrees>-1.75784862600266933441162109375</LongitudeDegrees>
            </Position>
            <AltitudeMeters>609.20001220703125</AltitudeMeters>
            <DistanceMeters>50208.482037029</DistanceMeters>
          </Trackpoint>
          <Trackpoint>
            <Time>2018-08-26T07:37:57.000Z</Time>
            <Position>
              <LatitudeDegrees>43.02700736559927463531494140625</LatitudeDegrees>
              <LongitudeDegrees>-1.7577992565929889678955078125</LongitudeDegrees>
            </Position>
            <AltitudeMeters>609.4000244140625</AltitudeMeters>
            <DistanceMeters>50214.737220578</DistanceMeters>
          </Trackpoint>
          <Trackpoint>
            <Time>2018-08-26T07:37:58.000Z</Time>
            <Position>
              <LatitudeDegrees>43.02704994566738605499267578125</LatitudeDegrees>
              <LongitudeDegrees>-1.7577526532113552093505859375</LongitudeDegrees>
            </Position>
            <AltitudeMeters>609.4000244140625</AltitudeMeters>
            <DistanceMeters>50220.807040336</DistanceMeters>
          </Trackpoint>
          <Trackpoint>
            <Time>2018-08-26T07:37:59.000Z</Time>
            <Position>
              <LatitudeDegrees>43.02709101699292659759521484375</LatitudeDegrees>
              <LongitudeDegrees>-1.75770998932421207427978515625</LongitudeDegrees>
            </Position>
            <AltitudeMeters>609.4000244140625</AltitudeMeters>
            <DistanceMeters>50226.545741303</DistanceMeters>
          </Trackpoint>
          <Trackpoint>
            <Time>2018-08-26T07:38:00.000Z</Time>
            <Position>
              <LatitudeDegrees>43.0271331779658794403076171875</LatitudeDegrees>
              <LongitudeDegrees>-1.757672019302845001220703125</LongitudeDegrees>
            </Position>
            <AltitudeMeters>609.5999755859375</AltitudeMeters>
            <DistanceMeters>50232.162776739</DistanceMeters>
          </Trackpoint>
          <Trackpoint>
            <Time>2018-08-26T07:38:01.000Z</Time>
            <Position>
              <LatitudeDegrees>43.02717827260494232177734375</LatitudeDegrees>
              <LongitudeDegrees>-1.7576386593282222747802734375</LongitudeDegrees>
            </Position>
            <AltitudeMeters>609.79998779296875</AltitudeMeters>
            <DistanceMeters>50237.869128959</DistanceMeters>
          </Trackpoint>
          <Trackpoint>
            <Time>2018-08-26T07:38:02.000Z</Time>
            <Position>
              <LatitudeDegrees>43.027224205434322357177734375</LatitudeDegrees>
              <LongitudeDegrees>-1.757611669600009918212890625</LongitudeDegrees>
            </Position>
            <AltitudeMeters>610</AltitudeMeters>
            <DistanceMeters>50243.43367136</DistanceMeters>
          </Trackpoint>
          <Trackpoint>
            <Time>2018-08-26T07:38:03.000Z</Time>
            <Position>
              <LatitudeDegrees>43.02726946771144866943359375</LatitudeDegrees>
              <LongitudeDegrees>-1.75758694298565387725830078125</LongitudeDegrees>
            </Position>
            <AltitudeMeters>610.20001220703125</AltitudeMeters>
            <DistanceMeters>50248.857691</DistanceMeters>
          </Trackpoint>
          <Trackpoint>
            <Time>2018-08-26T07:38:04.000Z</Time>
            <Position>
              <LatitudeDegrees>43.02731640636920928955078125</LatitudeDegrees>
              <LongitudeDegrees>-1.7575675807893276214599609375</LongitudeDegrees>
            </Position>
            <AltitudeMeters>610.20001220703125</AltitudeMeters>
            <DistanceMeters>50254.314078269</DistanceMeters>
          </Trackpoint>
          <Trackpoint>
            <Time>2018-08-26T07:38:05.000Z</Time>
            <Position>
              <LatitudeDegrees>43.02736057899892330169677734375</LatitudeDegrees>
              <LongitudeDegrees>-1.75755701959133148193359375</LongitudeDegrees>
            </Position>
            <AltitudeMeters>610.5999755859375</AltitudeMeters>
            <DistanceMeters>50259.304564301</DistanceMeters>
          </Trackpoint>
          <Trackpoint>
            <Time>2018-08-26T07:38:06.000Z</Time>
            <Position>
              <LatitudeDegrees>43.02740584127604961395263671875</LatitudeDegrees>
              <LongitudeDegrees>-1.7575521580874919891357421875</LongitudeDegrees>
            </Position>
            <AltitudeMeters>610.79998779296875</AltitudeMeters>
            <DistanceMeters>50264.357091006</DistanceMeters>
          </Trackpoint>
          <Trackpoint>
            <Time>2018-08-26T07:38:07.000Z</Time>
            <Position>
              <LatitudeDegrees>43.02745462395250797271728515625</LatitudeDegrees>
              <LongitudeDegrees>-1.75755157135426998138427734375</LongitudeDegrees>
            </Position>
            <AltitudeMeters>611.20001220703125</AltitudeMeters>
            <DistanceMeters>50269.786102842</DistanceMeters>
          </Trackpoint>
          <Trackpoint>
            <Time>2018-08-26T07:38:08.000Z</Time>
            <Position>
              <LatitudeDegrees>43.0275075137615203857421875</LatitudeDegrees>
              <LongitudeDegrees>-1.7575550079345703125</LongitudeDegrees>
            </Position>
            <AltitudeMeters>611.4000244140625</AltitudeMeters>
            <DistanceMeters>50275.679291623</DistanceMeters>
          </Trackpoint>
          <Trackpoint>
            <Time>2018-08-26T07:38:09.000Z</Time>
            <Position>
              <LatitudeDegrees>43.02756191231310367584228515625</LatitudeDegrees>
              <LongitudeDegrees>-1.757558025419712066650390625</LongitudeDegrees>
            </Position>
            <AltitudeMeters>611.5999755859375</AltitudeMeters>
            <DistanceMeters>50281.738688525</DistanceMeters>
          </Trackpoint>
          <Trackpoint>
            <Time>2018-08-26T07:38:10.000Z</Time>
            <Position>
              <LatitudeDegrees>43.02761656232178211212158203125</LatitudeDegrees>
              <LongitudeDegrees>-1.7575692571699619293212890625</LongitudeDegrees>
            </Position>
            <AltitudeMeters>612</AltitudeMeters>
            <DistanceMeters>50287.889053573</DistanceMeters>
          </Trackpoint>
          <Trackpoint>
            <Time>2018-08-26T07:38:11.000Z</Time>
            <Position>
              <LatitudeDegrees>43.02767037414014339447021484375</LatitudeDegrees>
              <LongitudeDegrees>-1.7575858533382415771484375</LongitudeDegrees>
            </Position>
            <AltitudeMeters>612.20001220703125</AltitudeMeters>
            <DistanceMeters>50294.028397111</DistanceMeters>
          </Trackpoint>
          <Trackpoint>
            <Time>2018-08-26T07:38:12.000Z</Time>
            <Position>
              <LatitudeDegrees>43.0277262814342975616455078125</LatitudeDegrees>
              <LongitudeDegrees>-1.75760521553456783294677734375</LongitudeDegrees>
            </Position>
            <AltitudeMeters>612.4000244140625</AltitudeMeters>
            <DistanceMeters>50300.446746489</DistanceMeters>
          </Trackpoint>
          <Trackpoint>
            <Time>2018-08-26T07:38:13.000Z</Time>
            <Position>
              <LatitudeDegrees>43.0277792550623416900634765625</LatitudeDegrees>
              <LongitudeDegrees>-1.75762332044541835784912109375</LongitudeDegrees>
            </Position>
            <AltitudeMeters>612.79998779296875</AltitudeMeters>
            <DistanceMeters>50306.524000199</DistanceMeters>
          </Trackpoint>
          <Trackpoint>
            <Time>2018-08-26T07:38:14.000Z</Time>
            <Position>
              <LatitudeDegrees>43.02783164195716381072998046875</LatitudeDegrees>
              <LongitudeDegrees>-1.75764209590852260589599609375</LongitudeDegrees>
            </Position>
            <AltitudeMeters>613.20001220703125</AltitudeMeters>
            <DistanceMeters>50312.552020405</DistanceMeters>
          </Trackpoint>
          <Trackpoint>
            <Time>2018-08-26T07:38:15.000Z</Time>
            <Position>
              <LatitudeDegrees>43.02788310684263706207275390625</LatitudeDegrees>
              <LongitudeDegrees>-1.75766137428581714630126953125</LongitudeDegrees>
            </Position>
            <AltitudeMeters>613.4000244140625</AltitudeMeters>
            <DistanceMeters>50318.490999997</DistanceMeters>
          </Trackpoint>
          <Trackpoint>
            <Time>2018-08-26T07:38:16.000Z</Time>
            <Position>
              <LatitudeDegrees>43.0279339849948883056640625</LatitudeDegrees>
              <LongitudeDegrees>-1.75768165849149227142333984375</LongitudeDegrees>
            </Position>
            <AltitudeMeters>613.5999755859375</AltitudeMeters>
            <DistanceMeters>50324.388783857</DistanceMeters>
          </Trackpoint>
          <Trackpoint>
            <Time>2018-08-26T07:38:17.000Z</Time>
            <Position>
              <LatitudeDegrees>43.02798352204263210296630859375</LatitudeDegrees>
              <LongitudeDegrees>-1.7577080614864826202392578125</LongitudeDegrees>
            </Position>
            <AltitudeMeters>614</AltitudeMeters>
            <DistanceMeters>50330.305675471</DistanceMeters>
          </Trackpoint>
          <Trackpoint>
            <Time>2018-08-26T07:38:18.000Z</Time>
            <Position>
              <LatitudeDegrees>43.028031550347805023193359375</LatitudeDegrees>
              <LongitudeDegrees>-1.75773672759532928466796875</LongitudeDegrees>
            </Position>
            <AltitudeMeters>614.20001220703125</AltitudeMeters>
            <DistanceMeters>50336.138024738</DistanceMeters>
          </Trackpoint>
          <Trackpoint>
            <Time>2018-08-26T07:38:19.000Z</Time>
            <Position>
              <LatitudeDegrees>43.028078489005565643310546875</LatitudeDegrees>
              <LongitudeDegrees>-1.757767237722873687744140625</LongitudeDegrees>
            </Position>
            <AltitudeMeters>614.4000244140625</AltitudeMeters>
            <DistanceMeters>50341.921397728</DistanceMeters>
          </Trackpoint>
          <Trackpoint>
            <Time>2018-08-26T07:38:20.000Z</Time>
            <Position>
              <LatitudeDegrees>43.02812148816883563995361328125</LatitudeDegrees>
              <LongitudeDegrees>-1.75780034624040126800537109375</LongitudeDegrees>
            </Position>
            <AltitudeMeters>614.5999755859375</AltitudeMeters>
            <DistanceMeters>50347.41325127</DistanceMeters>
          </Trackpoint>
          <Trackpoint>
            <Time>2018-08-26T07:38:21.000Z</Time>
            <Position>
              <LatitudeDegrees>43.02816121838986873626708984375</LatitudeDegrees>
              <LongitudeDegrees>-1.75783865153789520263671875</LongitudeDegrees>
            </Position>
            <AltitudeMeters>614.79998779296875</AltitudeMeters>
            <DistanceMeters>50352.823935869</DistanceMeters>
          </Trackpoint>
          <Trackpoint>
            <Time>2018-08-26T07:38:22.000Z</Time>
            <Position>
              <LatitudeDegrees>43.02820296026766300201416015625</LatitudeDegrees>
              <LongitudeDegrees>-1.75787829793989658355712890625</LongitudeDegrees>
            </Position>
            <AltitudeMeters>615</AltitudeMeters>
            <DistanceMeters>50358.480220943</DistanceMeters>
          </Trackpoint>
          <Trackpoint>
            <Time>2018-08-26T07:38:23.000Z</Time>
            <Position>
              <LatitudeDegrees>43.0282459594309329986572265625</LatitudeDegrees>
              <LongitudeDegrees>-1.75791752524673938751220703125</LongitudeDegrees>
            </Position>
            <AltitudeMeters>615.4000244140625</AltitudeMeters>
            <DistanceMeters>50364.233851123</DistanceMeters>
          </Trackpoint>
          <Trackpoint>
            <Time>2018-08-26T07:38:24.000Z</Time>
            <Position>
              <LatitudeDegrees>43.0282885394990444183349609375</LatitudeDegrees>
              <LongitudeDegrees>-1.75795759074389934539794921875</LongitudeDegrees>
            </Position>
            <AltitudeMeters>615.5999755859375</AltitudeMeters>
            <DistanceMeters>50369.985911631</DistanceMeters>
          </Trackpoint>
          <Trackpoint>
            <Time>2018-08-26T07:38:25.000Z</Time>
            <Position>
              <LatitudeDegrees>43.02832919172942638397216796875</LatitudeDegrees>
              <LongitudeDegrees>-1.7579977400600910186767578125</LongitudeDegrees>
            </Position>
            <AltitudeMeters>615.79998779296875</AltitudeMeters>
            <DistanceMeters>50375.566658325</DistanceMeters>
          </Trackpoint>
          <Trackpoint>
            <Time>2018-08-26T07:38:26.000Z</Time>
            <Position>
              <LatitudeDegrees>43.02836917340755462646484375</LatitudeDegrees>
              <LongitudeDegrees>-1.7580379731953144073486328125</LongitudeDegrees>
            </Position>
            <AltitudeMeters>616.20001220703125</AltitudeMeters>
            <DistanceMeters>50381.091299343</DistanceMeters>
          </Trackpoint>
          <Trackpoint>
            <Time>2018-08-26T07:38:27.000Z</Time>
            <Position>
              <LatitudeDegrees>43.02840781398117542266845703125</LatitudeDegrees>
              <LongitudeDegrees>-1.75808365456759929656982421875</LongitudeDegrees>
            </Position>
            <AltitudeMeters>616.5999755859375</AltitudeMeters>
            <DistanceMeters>50386.775453943</DistanceMeters>
          </Trackpoint>
          <Trackpoint>
            <Time>2018-08-26T07:38:28.000Z</Time>
            <Position>
              <LatitudeDegrees>43.02844829857349395751953125</LatitudeDegrees>
              <LongitudeDegrees>-1.7581308446824550628662109375</LongitudeDegrees>
            </Position>
            <AltitudeMeters>617</AltitudeMeters>
            <DistanceMeters>50392.696159708</DistanceMeters>
          </Trackpoint>
          <Trackpoint>
            <Time>2018-08-26T07:38:29.000Z</Time>
            <Position>
              <LatitudeDegrees>43.028490878641605377197265625</LatitudeDegrees>
              <LongitudeDegrees>-1.758178956806659698486328125</LongitudeDegrees>
            </Position>
            <AltitudeMeters>617.5999755859375</AltitudeMeters>
            <DistanceMeters>50398.842853115</DistanceMeters>
          </Trackpoint>
          <Trackpoint>
            <Time>2018-08-26T07:38:30.000Z</Time>
            <Position>
              <LatitudeDegrees>43.0285312794148921966552734375</LatitudeDegrees>
              <LongitudeDegrees>-1.758228242397308349609375</LongitudeDegrees>
            </Position>
            <AltitudeMeters>618</AltitudeMeters>
            <DistanceMeters>50404.867876543</DistanceMeters>
          </Trackpoint>
          <Trackpoint>
            <Time>2018-08-26T07:38:31.000Z</Time>
            <Position>
              <LatitudeDegrees>43.02856774069368839263916015625</LatitudeDegrees>
              <LongitudeDegrees>-1.7582793720066547393798828125</LongitudeDegrees>
            </Position>
            <AltitudeMeters>618.4000244140625</AltitudeMeters>
            <DistanceMeters>50410.680063392</DistanceMeters>
          </Trackpoint>
          <Trackpoint>
            <Time>2018-08-26T07:38:32.000Z</Time>
            <Position>
              <LatitudeDegrees>43.02860319614410400390625</LatitudeDegrees>
              <LongitudeDegrees>-1.75832957960665225982666015625</LongitudeDegrees>
            </Position>
            <AltitudeMeters>618.79998779296875</AltitudeMeters>
            <DistanceMeters>50416.359450072</DistanceMeters>
          </Trackpoint>
          <Trackpoint>
            <Time>2018-08-26T07:38:33.000Z</Time>
            <Position>
              <LatitudeDegrees>43.0286405794322490692138671875</LatitudeDegrees>
              <LongitudeDegrees>-1.75837785936892032623291015625</LongitudeDegrees>
            </Position>
            <AltitudeMeters>619</AltitudeMeters>
            <DistanceMeters>50422.080815915</DistanceMeters>
          </Trackpoint>
          <Trackpoint>
            <Time>2018-08-26T07:38:34.000Z</Time>
            <Position>
              <LatitudeDegrees>43.02867821417748928070068359375</LatitudeDegrees>
              <LongitudeDegrees>-1.75842471420764923095703125</LongitudeDegrees>
            </Position>
            <AltitudeMeters>619.20001220703125</AltitudeMeters>
            <DistanceMeters>50427.744280538</DistanceMeters>
          </Trackpoint>
          <Trackpoint>
            <Time>2018-08-26T07:38:35.000Z</Time>
            <Position>
              <LatitudeDegrees>43.02871492691338062286376953125</LatitudeDegrees>
              <LongitudeDegrees>-1.7584698088467121124267578125</LongitudeDegrees>
            </Position>
            <AltitudeMeters>619.4000244140625</AltitudeMeters>
            <DistanceMeters>50433.236134079</DistanceMeters>
          </Trackpoint>
          <Trackpoint>
            <Time>2018-08-26T07:38:36.000Z</Time>
            <Position>
              <LatitudeDegrees>43.0287515558302402496337890625</LatitudeDegrees>
              <LongitudeDegrees>-1.75851523876190185546875</LongitudeDegrees>
            </Position>
            <AltitudeMeters>619.4000244140625</AltitudeMeters>
            <DistanceMeters>50438.739485457</DistanceMeters>
          </Trackpoint>
          <Trackpoint>
            <Time>2018-08-26T07:38:37.000Z</Time>
            <Position>
              <LatitudeDegrees>43.02878759801387786865234375</LatitudeDegrees>
              <LongitudeDegrees>-1.75856041721999645233154296875</LongitudeDegrees>
            </Position>
            <AltitudeMeters>619.5999755859375</AltitudeMeters>
            <DistanceMeters>50444.180127936</DistanceMeters>
          </Trackpoint>
          <Trackpoint>
            <Time>2018-08-26T07:38:38.000Z</Time>
            <Position>
              <LatitudeDegrees>43.02882489748299121856689453125</LatitudeDegrees>
              <LongitudeDegrees>-1.7586045898497104644775390625</LongitudeDegrees>
            </Position>
            <AltitudeMeters>619.5999755859375</AltitudeMeters>
            <DistanceMeters>50449.671159283</DistanceMeters>
          </Trackpoint>
          <Trackpoint>
            <Time>2018-08-26T07:38:39.000Z</Time>
            <Position>
              <LatitudeDegrees>43.028864376246929168701171875</LatitudeDegrees>
              <LongitudeDegrees>-1.75864599645137786865234375</LongitudeDegrees>
            </Position>
            <AltitudeMeters>619.79998779296875</AltitudeMeters>
            <DistanceMeters>50455.208045549</DistanceMeters>
          </Trackpoint>
          <Trackpoint>
            <Time>2018-08-26T07:38:40.000Z</Time>
            <Position>
              <LatitudeDegrees>43.02890519611537456512451171875</LatitudeDegrees>
              <LongitudeDegrees>-1.758685894310474395751953125</LongitudeDegrees>
            </Position>
            <AltitudeMeters>620</AltitudeMeters>
            <DistanceMeters>50460.792835969</DistanceMeters>
          </Trackpoint>
          <Trackpoint>
            <Time>2018-08-26T07:38:41.000Z</Time>
            <Position>
              <LatitudeDegrees>43.02894651889801025390625</LatitudeDegrees>
              <LongitudeDegrees>-1.758727468550205230712890625</LongitudeDegrees>
            </Position>
            <AltitudeMeters>620</AltitudeMeters>
            <DistanceMeters>50466.502352233</DistanceMeters>
          </Trackpoint>
          <Trackpoint>
            <Time>2018-08-26T07:38:42.000Z</Time>
            <Position>
              <LatitudeDegrees>43.02898750640451908111572265625</LatitudeDegrees>
              <LongitudeDegrees>-1.758769042789936065673828125</LongitudeDegrees>
            </Position>
            <AltitudeMeters>620.20001220703125</AltitudeMeters>
            <DistanceMeters>50472.181738912</DistanceMeters>
          </Trackpoint>
          <Trackpoint>
            <Time>2018-08-26T07:38:43.000Z</Time>
            <Position>
              <LatitudeDegrees>43.029027990996837615966796875</LatitudeDegrees>
              <LongitudeDegrees>-1.75880667753517627716064453125</LongitudeDegrees>
            </Position>
            <AltitudeMeters>620.5999755859375</AltitudeMeters>
            <DistanceMeters>50477.629016324</DistanceMeters>
          </Trackpoint>
          <Trackpoint>
            <Time>2018-08-26T07:38:44.000Z</Time>
            <Position>
              <LatitudeDegrees>43.0290697328746318817138671875</LatitudeDegrees>
              <LongitudeDegrees>-1.75883735530078411102294921875</LongitudeDegrees>
            </Position>
            <AltitudeMeters>620.79998779296875</AltitudeMeters>
            <DistanceMeters>50482.902784943</DistanceMeters>
          </Trackpoint>
          <Trackpoint>
            <Time>2018-08-26T07:38:45.000Z</Time>
            <Position>
              <LatitudeDegrees>43.0291129834949970245361328125</LatitudeDegrees>
              <LongitudeDegrees>-1.75885864533483982086181640625</LongitudeDegrees>
            </Position>
            <AltitudeMeters>621</AltitudeMeters>
            <DistanceMeters>50488.018365216</DistanceMeters>
          </Trackpoint>
          <Trackpoint>
            <Time>2018-08-26T07:38:46.000Z</Time>
            <Position>
              <LatitudeDegrees>43.02915774285793304443359375</LatitudeDegrees>
              <LongitudeDegrees>-1.75887532532215118408203125</LongitudeDegrees>
            </Position>
            <AltitudeMeters>621.20001220703125</AltitudeMeters>
            <DistanceMeters>50493.181386198</DistanceMeters>
          </Trackpoint>
          <Trackpoint>
            <Time>2018-08-26T07:38:47.000Z</Time>
            <Position>
              <LatitudeDegrees>43.0292071960866451263427734375</LatitudeDegrees>
              <LongitudeDegrees>-1.75889167003333568572998046875</LongitudeDegrees>
            </Position>
            <AltitudeMeters>621.4000244140625</AltitudeMeters>
            <DistanceMeters>50498.844053543</DistanceMeters>
          </Trackpoint>
          <Trackpoint>
            <Time>2018-08-26T07:38:48.000Z</Time>
            <Position>
              <LatitudeDegrees>43.0292601697146892547607421875</LatitudeDegrees>
              <LongitudeDegrees>-1.75890491344034671783447265625</LongitudeDegrees>
            </Position>
            <AltitudeMeters>621.4000244140625</AltitudeMeters>
            <DistanceMeters>50504.837520327</DistanceMeters>
          </Trackpoint>
          <Trackpoint>
            <Time>2018-08-26T07:38:49.000Z</Time>
            <Position>
              <LatitudeDegrees>43.0293175019323825836181640625</LatitudeDegrees>
              <LongitudeDegrees>-1.7589160613715648651123046875</LongitudeDegrees>
            </Position>
            <AltitudeMeters>621.5999755859375</AltitudeMeters>
            <DistanceMeters>50511.282545668</DistanceMeters>
          </Trackpoint>
          <Trackpoint>
            <Time>2018-08-26T07:38:50.000Z</Time>
            <Position>
              <LatitudeDegrees>43.02937491796910762786865234375</LatitudeDegrees>
              <LongitudeDegrees>-1.7589271254837512969970703125</LongitudeDegrees>
            </Position>
            <AltitudeMeters>621.5999755859375</AltitudeMeters>
            <DistanceMeters>50517.735972088</DistanceMeters>
          </Trackpoint>
          <Trackpoint>
            <Time>2018-08-26T07:38:51.000Z</Time>
            <Position>
              <LatitudeDegrees>43.02943459711968898773193359375</LatitudeDegrees>
              <LongitudeDegrees>-1.75893793813884258270263671875</LongitudeDegrees>
            </Position>
            <AltitudeMeters>621.79998779296875</AltitudeMeters>
            <DistanceMeters>50524.435860893</DistanceMeters>
          </Trackpoint>
          <Trackpoint>
            <Time>2018-08-26T07:38:52.000Z</Time>
            <Position>
              <LatitudeDegrees>43.0294941924512386322021484375</LatitudeDegrees>
              <LongitudeDegrees>-1.75894883461296558380126953125</LongitudeDegrees>
            </Position>
            <AltitudeMeters>622</AltitudeMeters>
            <DistanceMeters>50531.128332721</DistanceMeters>
          </Trackpoint>
          <Trackpoint>
            <Time>2018-08-26T07:38:53.000Z</Time>
            <Position>
              <LatitudeDegrees>43.02954976446926593780517578125</LatitudeDegrees>
              <LongitudeDegrees>-1.75896090455353260040283203125</LongitudeDegrees>
            </Position>
            <AltitudeMeters>622.20001220703125</AltitudeMeters>
            <DistanceMeters>50537.391451119</DistanceMeters>
          </Trackpoint>
          <Trackpoint>
            <Time>2018-08-26T07:38:54.000Z</Time>
            <Position>
              <LatitudeDegrees>43.02960340864956378936767578125</LatitudeDegrees>
              <LongitudeDegrees>-1.7589727230370044708251953125</LongitudeDegrees>
            </Position>
            <AltitudeMeters>622.20001220703125</AltitudeMeters>
            <DistanceMeters>50543.440407207</DistanceMeters>
          </Trackpoint>
          <Trackpoint>
            <Time>2018-08-26T07:38:55.000Z</Time>
            <Position>
              <LatitudeDegrees>43.02965755574405193328857421875</LatitudeDegrees>
              <LongitudeDegrees>-1.75897951237857341766357421875</LongitudeDegrees>
            </Position>
            <AltitudeMeters>622.4000244140625</AltitudeMeters>
            <DistanceMeters>50549.492348222</DistanceMeters>
          </Trackpoint>
          <Trackpoint>
            <Time>2018-08-26T07:38:56.000Z</Time>
            <Position>
              <LatitudeDegrees>43.02971203811466693878173828125</LatitudeDegrees>
              <LongitudeDegrees>-1.7589774169027805328369140625</LongitudeDegrees>
            </Position>
            <AltitudeMeters>622.5999755859375</AltitudeMeters>
            <DistanceMeters>50555.558447588</DistanceMeters>
          </Trackpoint>
          <Trackpoint>
            <Time>2018-08-26T07:38:57.000Z</Time>
            <Position>
              <LatitudeDegrees>43.02976484410464763641357421875</LatitudeDegrees>
              <LongitudeDegrees>-1.758967526257038116455078125</LongitudeDegrees>
            </Position>
            <AltitudeMeters>622.5999755859375</AltitudeMeters>
            <DistanceMeters>50561.490581091</DistanceMeters>
          </Trackpoint>
          <Trackpoint>
            <Time>2018-08-26T07:38:58.000Z</Time>
            <Position>
              <LatitudeDegrees>43.02981563843786716461181640625</LatitudeDegrees>
              <LongitudeDegrees>-1.7589516006410121917724609375</LongitudeDegrees>
            </Position>
            <AltitudeMeters>622.79998779296875</AltitudeMeters>
            <DistanceMeters>50567.289546919</DistanceMeters>
          </Trackpoint>
          <Trackpoint>
            <Time>2018-08-26T07:38:59.000Z</Time>
            <Position>
              <LatitudeDegrees>43.02986375056207180023193359375</LatitudeDegrees>
              <LongitudeDegrees>-1.7589314840734004974365234375</LongitudeDegrees>
            </Position>
            <AltitudeMeters>622.79998779296875</AltitudeMeters>
            <DistanceMeters>50572.888870576</DistanceMeters>
          </Trackpoint>
          <Trackpoint>
            <Time>2018-08-26T07:39:00.000Z</Time>
            <Position>
              <LatitudeDegrees>43.0299099348485469818115234375</LatitudeDegrees>
              <LongitudeDegrees>-1.7589056678116321563720703125</LongitudeDegrees>
            </Position>
            <AltitudeMeters>623</AltitudeMeters>
            <DistanceMeters>50578.441228722</DistanceMeters>
          </Trackpoint>
          <Trackpoint>
            <Time>2018-08-26T07:39:01.000Z</Time>
            <Position>
              <LatitudeDegrees>43.02995444275438785552978515625</LatitudeDegrees>
              <LongitudeDegrees>-1.7588788457214832305908203125</LongitudeDegrees>
            </Position>
            <AltitudeMeters>623.20001220703125</AltitudeMeters>
            <DistanceMeters>50583.854416143</DistanceMeters>
          </Trackpoint>
          <Trackpoint>
            <Time>2018-08-26T07:39:02.000Z</Time>
            <Position>
              <LatitudeDegrees>43.02999903447926044464111328125</LatitudeDegrees>
              <LongitudeDegrees>-1.758850850164890289306640625</LongitudeDegrees>
            </Position>
            <AltitudeMeters>623.20001220703125</AltitudeMeters>
            <DistanceMeters>50589.314939234</DistanceMeters>
          </Trackpoint>
          <Trackpoint>
            <Time>2018-08-26T07:39:03.000Z</Time>
            <Position>
              <LatitudeDegrees>43.03004312328994274139404296875</LatitudeDegrees>
              <LongitudeDegrees>-1.75882159732282161712646484375</LongitudeDegrees>
            </Position>
            <AltitudeMeters>623.20001220703125</AltitudeMeters>
            <DistanceMeters>50594.768843505</DistanceMeters>
          </Trackpoint>
          <Trackpoint>
            <Time>2018-08-26T07:39:04.000Z</Time>
            <Position>
              <LatitudeDegrees>43.03008855320513248443603515625</LatitudeDegrees>
              <LongitudeDegrees>-1.75879142247140407562255859375</LongitudeDegrees>
            </Position>
            <AltitudeMeters>623.20001220703125</AltitudeMeters>
            <DistanceMeters>50600.389093269</DistanceMeters>
          </Trackpoint>
          <Trackpoint>
            <Time>2018-08-26T07:39:05.000Z</Time>
            <Position>
              <LatitudeDegrees>43.0301349051296710968017578125</LatitudeDegrees>
              <LongitudeDegrees>-1.75875999033451080322265625</LongitudeDegrees>
            </Position>
            <AltitudeMeters>623.20001220703125</AltitudeMeters>
            <DistanceMeters>50606.147429895</DistanceMeters>
          </Trackpoint>
          <Trackpoint>
            <Time>2018-08-26T07:39:06.000Z</Time>
            <Position>
              <LatitudeDegrees>43.03017974831163883209228515625</LatitudeDegrees>
              <LongitudeDegrees>-1.75872738473117351531982421875</LongitudeDegrees>
            </Position>
            <AltitudeMeters>623.20001220703125</AltitudeMeters>
            <DistanceMeters>50611.799722391</DistanceMeters>
          </Trackpoint>
          <Trackpoint>
            <Time>2018-08-26T07:39:07.000Z</Time>
            <Position>
              <LatitudeDegrees>43.03022216074168682098388671875</LatitudeDegrees>
              <LongitudeDegrees>-1.758694946765899658203125</LongitudeDegrees>
            </Position>
            <AltitudeMeters>623.20001220703125</AltitudeMeters>
            <DistanceMeters>50617.208737798</DistanceMeters>
          </Trackpoint>
          <Trackpoint>
            <Time>2018-08-26T07:39:08.000Z</Time>
            <Position>
              <LatitudeDegrees>43.03026289679110050201416015625</LatitudeDegrees>
              <LongitudeDegrees>-1.758663766086101531982421875</LongitudeDegrees>
            </Position>
            <AltitudeMeters>623.4000244140625</AltitudeMeters>
            <DistanceMeters>50622.404883347</DistanceMeters>
          </Trackpoint>
          <Trackpoint>
            <Time>2018-08-26T07:39:09.000Z</Time>
            <Position>
              <LatitudeDegrees>43.03030413575470447540283203125</LatitudeDegrees>
              <LongitudeDegrees>-1.7586319148540496826171875</LongitudeDegrees>
            </Position>
            <AltitudeMeters>623.5999755859375</AltitudeMeters>
            <DistanceMeters>50627.676082947</DistanceMeters>
          </Trackpoint>
          <Trackpoint>
            <Time>2018-08-26T07:39:10.000Z</Time>
            <Position>
              <LatitudeDegrees>43.03034487180411815643310546875</LatitudeDegrees>
              <LongitudeDegrees>-1.7585985548794269561767578125</LongitudeDegrees>
            </Position>
            <AltitudeMeters>623.79998779296875</AltitudeMeters>
            <DistanceMeters>50632.960115154</DistanceMeters>
          </Trackpoint>
          <Trackpoint>
            <Time>2018-08-26T07:39:11.000Z</Time>
            <Position>
              <LatitudeDegrees>43.0303883738815784454345703125</LatitudeDegrees>
              <LongitudeDegrees>-1.7585675418376922607421875</LongitudeDegrees>
            </Position>
            <AltitudeMeters>624</AltitudeMeters>
            <DistanceMeters>50638.418984292</DistanceMeters>
          </Trackpoint>
          <Trackpoint>
            <Time>2018-08-26T07:39:12.000Z</Time>
            <Position>
              <LatitudeDegrees>43.0304339714348316192626953125</LatitudeDegrees>
              <LongitudeDegrees>-1.7585408873856067657470703125</LongitudeDegrees>
            </Position>
            <AltitudeMeters>624.4000244140625</AltitudeMeters>
            <DistanceMeters>50643.937901563</DistanceMeters>
          </Trackpoint>
          <Trackpoint>
            <Time>2018-08-26T07:39:13.000Z</Time>
            <Position>
              <LatitudeDegrees>43.0304805748164653778076171875</LatitudeDegrees>
              <LongitudeDegrees>-1.75851683132350444793701171875</LongitudeDegrees>
            </Position>
            <AltitudeMeters>624.79998779296875</AltitudeMeters>
            <DistanceMeters>50649.481307568</DistanceMeters>
          </Trackpoint>
          <Trackpoint>
            <Time>2018-08-26T07:39:14.000Z</Time>
            <Position>
              <LatitudeDegrees>43.030528686940670013427734375</LatitudeDegrees>
              <LongitudeDegrees>-1.75849185325205326080322265625</LongitudeDegrees>
            </Position>
            <AltitudeMeters>625</AltitudeMeters>
            <DistanceMeters>50655.208194824</DistanceMeters>
          </Trackpoint>
          <Trackpoint>
            <Time>2018-08-26T07:39:15.000Z</Time>
            <Position>
              <LatitudeDegrees>43.03057529032230377197265625</LatitudeDegrees>
              <LongitudeDegrees>-1.75846762955188751220703125</LongitudeDegrees>
            </Position>
            <AltitudeMeters>625.20001220703125</AltitudeMeters>
            <DistanceMeters>50660.757299317</DistanceMeters>
          </Trackpoint>
          <Trackpoint>
            <Time>2018-08-26T07:39:16.000Z</Time>
            <Position>
              <LatitudeDegrees>43.0306220613420009613037109375</LatitudeDegrees>
              <LongitudeDegrees>-1.7584468424320220947265625</LongitudeDegrees>
            </Position>
            <AltitudeMeters>625.4000244140625</AltitudeMeters>
            <DistanceMeters>50666.231860826</DistanceMeters>
          </Trackpoint>
          <Trackpoint>
            <Time>2018-08-26T07:39:17.000Z</Time>
            <Position>
              <LatitudeDegrees>43.03067176602780818939208984375</LatitudeDegrees>
              <LongitudeDegrees>-1.7584285698831081390380859375</LongitudeDegrees>
            </Position>
            <AltitudeMeters>625.5999755859375</AltitudeMeters>
            <DistanceMeters>50671.960324652</DistanceMeters>
          </Trackpoint>
          <Trackpoint>
            <Time>2018-08-26T07:39:18.000Z</Time>
            <Position>
              <LatitudeDegrees>43.03072339855134487152099609375</LatitudeDegrees>
              <LongitudeDegrees>-1.7584091238677501678466796875</LongitudeDegrees>
            </Position>
            <AltitudeMeters>625.79998779296875</AltitudeMeters>
            <DistanceMeters>50677.920552897</DistanceMeters>
          </Trackpoint>
          <Trackpoint>
            <Time>2018-08-26T07:39:19.000Z</Time>
            <Position>
              <LatitudeDegrees>43.0307776294648647308349609375</LatitudeDegrees>
              <LongitudeDegrees>-1.7583906836807727813720703125</LongitudeDegrees>
            </Position>
            <AltitudeMeters>626</AltitudeMeters>
            <DistanceMeters>50684.140267318</DistanceMeters>
          </Trackpoint>
          <Trackpoint>
            <Time>2018-08-26T07:39:20.000Z</Time>
            <Position>
              <LatitudeDegrees>43.03083471022546291351318359375</LatitudeDegrees>
              <LongitudeDegrees>-1.7583759315311908721923828125</LongitudeDegrees>
            </Position>
            <AltitudeMeters>626.4000244140625</AltitudeMeters>
            <DistanceMeters>50690.606274891</DistanceMeters>
          </Trackpoint>
          <Trackpoint>
            <Time>2018-08-26T07:39:21.000Z</Time>
            <Position>
              <LatitudeDegrees>43.03089422173798084259033203125</LatitudeDegrees>
              <LongitudeDegrees>-1.75836168229579925537109375</LongitudeDegrees>
            </Position>
            <AltitudeMeters>626.5999755859375</AltitudeMeters>
            <DistanceMeters>50697.329708737</DistanceMeters>
          </Trackpoint>
          <Trackpoint>
            <Time>2018-08-26T07:39:22.000Z</Time>
            <Position>
              <LatitudeDegrees>43.0309539847075939178466796875</LatitudeDegrees>
              <LongitudeDegrees>-1.75834701396524906158447265625</LongitudeDegrees>
            </Position>
            <AltitudeMeters>626.5999755859375</AltitudeMeters>
            <DistanceMeters>50704.08797232</DistanceMeters>
          </Trackpoint>
          <Trackpoint>
            <Time>2018-08-26T07:39:23.000Z</Time>
            <Position>
              <LatitudeDegrees>43.03101140074431896209716796875</LatitudeDegrees>
              <LongitudeDegrees>-1.7583330161869525909423828125</LongitudeDegrees>
            </Position>
            <AltitudeMeters>626.79998779296875</AltitudeMeters>
            <DistanceMeters>50710.579069044</DistanceMeters>
          </Trackpoint>
          <Trackpoint>
            <Time>2018-08-26T07:39:24.000Z</Time>
            <Position>
              <LatitudeDegrees>43.0310686491429805755615234375</LatitudeDegrees>
              <LongitudeDegrees>-1.75832019187510013580322265625</LongitudeDegrees>
            </Position>
            <AltitudeMeters>626.79998779296875</AltitudeMeters>
            <DistanceMeters>50717.036691906</DistanceMeters>
          </Trackpoint>
          <Trackpoint>
            <Time>2018-08-26T07:39:25.000Z</Time>
            <Position>
              <LatitudeDegrees>43.03112514317035675048828125</LatitudeDegrees>
              <LongitudeDegrees>-1.7583068646490573883056640625</LongitudeDegrees>
            </Position>
            <AltitudeMeters>626.79998779296875</AltitudeMeters>
            <DistanceMeters>50723.416941478</DistanceMeters>
          </Trackpoint>
          <Trackpoint>
            <Time>2018-08-26T07:39:26.000Z</Time>
            <Position>
              <LatitudeDegrees>43.031181804835796356201171875</LatitudeDegrees>
              <LongitudeDegrees>-1.75829219631850719451904296875</LongitudeDegrees>
            </Position>
            <AltitudeMeters>626.79998779296875</AltitudeMeters>
            <DistanceMeters>50729.835994275</DistanceMeters>
          </Trackpoint>
          <Trackpoint>
            <Time>2018-08-26T07:39:27.000Z</Time>
            <Position>
              <LatitudeDegrees>43.031238801777362823486328125</LatitudeDegrees>
              <LongitudeDegrees>-1.75827677361667156219482421875</LongitudeDegrees>
            </Position>
            <AltitudeMeters>626.79998779296875</AltitudeMeters>
            <DistanceMeters>50736.302001848</DistanceMeters>
          </Trackpoint>
          <Trackpoint>
            <Time>2018-08-26T07:39:28.000Z</Time>
            <Position>
              <LatitudeDegrees>43.031295798718929290771484375</LatitudeDegrees>
              <LongitudeDegrees>-1.7582609318196773529052734375</LongitudeDegrees>
            </Position>
            <AltitudeMeters>626.79998779296875</AltitudeMeters>
            <DistanceMeters>50742.775685867</DistanceMeters>
          </Trackpoint>
          <Trackpoint>
            <Time>2018-08-26T07:39:29.000Z</Time>
            <Position>
              <LatitudeDegrees>43.0313516221940517425537109375</LatitudeDegrees>
              <LongitudeDegrees>-1.7582456767559051513671875</LongitudeDegrees>
            </Position>
            <AltitudeMeters>626.79998779296875</AltitudeMeters>
            <DistanceMeters>50749.111908707</DistanceMeters>
          </Trackpoint>
          <Trackpoint>
            <Time>2018-08-26T07:39:30.000Z</Time>
            <Position>
              <LatitudeDegrees>43.0314079485833644866943359375</LatitudeDegrees>
              <LongitudeDegrees>-1.7582314275205135345458984375</LongitudeDegrees>
            </Position>
            <AltitudeMeters>626.79998779296875</AltitudeMeters>
            <DistanceMeters>50755.487910914</DistanceMeters>
          </Trackpoint>
          <Trackpoint>
            <Time>2018-08-26T07:39:31.000Z</Time>
            <Position>
              <LatitudeDegrees>43.0314646102488040924072265625</LatitudeDegrees>
              <LongitudeDegrees>-1.75821742974221706390380859375</LongitudeDegrees>
            </Position>
            <AltitudeMeters>626.79998779296875</AltitudeMeters>
            <DistanceMeters>50761.897108816</DistanceMeters>
          </Trackpoint>
          <Trackpoint>
            <Time>2018-08-26T07:39:32.000Z</Time>
            <Position>
              <LatitudeDegrees>43.03152152337133884429931640625</LatitudeDegrees>
              <LongitudeDegrees>-1.75820301286876201629638671875</LongitudeDegrees>
            </Position>
            <AltitudeMeters>626.5999755859375</AltitudeMeters>
            <DistanceMeters>50768.339331362</DistanceMeters>
          </Trackpoint>
          <Trackpoint>
            <Time>2018-08-26T07:39:33.000Z</Time>
            <Position>
              <LatitudeDegrees>43.031578101217746734619140625</LatitudeDegrees>
              <LongitudeDegrees>-1.758190356194972991943359375</LongitudeDegrees>
            </Position>
            <AltitudeMeters>626.5999755859375</AltitudeMeters>
            <DistanceMeters>50774.720996095</DistanceMeters>
          </Trackpoint>
          <Trackpoint>
            <Time>2018-08-26T07:39:34.000Z</Time>
            <Position>
              <LatitudeDegrees>43.0316340923309326171875</LatitudeDegrees>
              <LongitudeDegrees>-1.7581781186163425445556640625</LongitudeDegrees>
            </Position>
            <AltitudeMeters>626.5999755859375</AltitudeMeters>
            <DistanceMeters>50781.032229508</DistanceMeters>
          </Trackpoint>
          <Trackpoint>
            <Time>2018-08-26T07:39:35.000Z</Time>
            <Position>
              <LatitudeDegrees>43.0316890776157379150390625</LatitudeDegrees>
              <LongitudeDegrees>-1.75816588103771209716796875</LongitudeDegrees>
            </Position>
            <AltitudeMeters>626.5999755859375</AltitudeMeters>
            <DistanceMeters>50787.232313009</DistanceMeters>
          </Trackpoint>
          <Trackpoint>
            <Time>2018-08-26T07:39:36.000Z</Time>
            <Position>
              <LatitudeDegrees>43.031743727624416351318359375</LatitudeDegrees>
              <LongitudeDegrees>-1.7581543140113353729248046875</LongitudeDegrees>
            </Position>
            <AltitudeMeters>626.5999755859375</AltitudeMeters>
            <DistanceMeters>50793.387081135</DistanceMeters>
          </Trackpoint>
          <Trackpoint>
            <Time>2018-08-26T07:39:37.000Z</Time>
            <Position>
              <LatitudeDegrees>43.031798712909221649169921875</LatitudeDegrees>
              <LongitudeDegrees>-1.75814249552786350250244140625</LongitudeDegrees>
            </Position>
            <AltitudeMeters>626.5999755859375</AltitudeMeters>
            <DistanceMeters>50799.582064984</DistanceMeters>
          </Trackpoint>
          <Trackpoint>
            <Time>2018-08-26T07:39:38.000Z</Time>
            <Position>
              <LatitudeDegrees>43.03185394965112209320068359375</LatitudeDegrees>
              <LongitudeDegrees>-1.75812900066375732421875</LongitudeDegrees>
            </Position>
            <AltitudeMeters>626.5999755859375</AltitudeMeters>
            <DistanceMeters>50805.827857987</DistanceMeters>
          </Trackpoint>
          <Trackpoint>
            <Time>2018-08-26T07:39:39.000Z</Time>
            <Position>
              <LatitudeDegrees>43.03190843202173709869384765625</LatitudeDegrees>
              <LongitudeDegrees>-1.758114583790302276611328125</LongitudeDegrees>
            </Position>
            <AltitudeMeters>626.5999755859375</AltitudeMeters>
            <DistanceMeters>50812.003863403</DistanceMeters>
          </Trackpoint>
          <Trackpoint>
            <Time>2018-08-26T07:39:40.000Z</Time>
            <Position>
              <LatitudeDegrees>43.03196190856397151947021484375</LatitudeDegrees>
              <LongitudeDegrees>-1.75810008309781551361083984375</LongitudeDegrees>
            </Position>
            <AltitudeMeters>626.5999755859375</AltitudeMeters>
            <DistanceMeters>50818.070707029</DistanceMeters>
          </Trackpoint>
          <Trackpoint>
            <Time>2018-08-26T07:39:41.000Z</Time>
            <Position>
              <LatitudeDegrees>43.0320158042013645172119140625</LatitudeDegrees>
              <LongitudeDegrees>-1.7580855824053287506103515625</LongitudeDegrees>
            </Position>
            <AltitudeMeters>626.5999755859375</AltitudeMeters>
            <DistanceMeters>50824.184256441</DistanceMeters>
          </Trackpoint>
          <Trackpoint>
            <Time>2018-08-26T07:39:42.000Z</Time>
            <Position>
              <LatitudeDegrees>43.0320699512958526611328125</LatitudeDegrees>
              <LongitudeDegrees>-1.758072338998317718505859375</LongitudeDegrees>
            </Position>
            <AltitudeMeters>626.5999755859375</AltitudeMeters>
            <DistanceMeters>50830.307399212</DistanceMeters>
          </Trackpoint>
          <Trackpoint>
            <Time>2018-08-26T07:39:43.000Z</Time>
            <Position>
              <LatitudeDegrees>43.03212300874292850494384765625</LatitudeDegrees>
              <LongitudeDegrees>-1.758058257400989532470703125</LongitudeDegrees>
            </Position>
            <AltitudeMeters>626.5999755859375</AltitudeMeters>
            <DistanceMeters>50836.323423346</DistanceMeters>
          </Trackpoint>
          <Trackpoint>
            <Time>2018-08-26T07:39:44.000Z</Time>
            <Position>
              <LatitudeDegrees>43.03217631764709949493408203125</LatitudeDegrees>
              <LongitudeDegrees>-1.75804057158529758453369140625</LongitudeDegrees>
            </Position>
            <AltitudeMeters>626.79998779296875</AltitudeMeters>
            <DistanceMeters>50842.428843525</DistanceMeters>
          </Trackpoint>
          <Trackpoint>
            <Time>2018-08-26T07:39:45.000Z</Time>
            <Position>
              <LatitudeDegrees>43.03222828544676303863525390625</LatitudeDegrees>
              <LongitudeDegrees>-1.7580212093889713287353515625</LongitudeDegrees>
            </Position>
            <AltitudeMeters>627</AltitudeMeters>
            <DistanceMeters>50848.423816773</DistanceMeters>
          </Trackpoint>
          <Trackpoint>
            <Time>2018-08-26T07:39:46.000Z</Time>
            <Position>
              <LatitudeDegrees>43.03228042088449001312255859375</LatitudeDegrees>
              <LongitudeDegrees>-1.7579984106123447418212890625</LongitudeDegrees>
            </Position>
            <AltitudeMeters>627.20001220703125</AltitudeMeters>
            <DistanceMeters>50854.515911174</DistanceMeters>
          </Trackpoint>
          <Trackpoint>
            <Time>2018-08-26T07:39:47.000Z</Time>
            <Position>
              <LatitudeDegrees>43.032331131398677825927734375</LatitudeDegrees>
              <LongitudeDegrees>-1.75797200761735439300537109375</LongitudeDegrees>
            </Position>
            <AltitudeMeters>627.20001220703125</AltitudeMeters>
            <DistanceMeters>50860.555156057</DistanceMeters>
          </Trackpoint>
          <Trackpoint>
            <Time>2018-08-26T07:39:48.000Z</Time>
            <Position>
              <LatitudeDegrees>43.0323789082467555999755859375</LatitudeDegrees>
              <LongitudeDegrees>-1.75794283859431743621826171875</LongitudeDegrees>
            </Position>
            <AltitudeMeters>627.4000244140625</AltitudeMeters>
            <DistanceMeters>50866.378983589</DistanceMeters>
          </Trackpoint>
          <Trackpoint>
            <Time>2018-08-26T07:39:49.000Z</Time>
            <Position>
              <LatitudeDegrees>43.0324258469045162200927734375</LatitudeDegrees>
              <LongitudeDegrees>-1.757910065352916717529296875</LongitudeDegrees>
            </Position>
            <AltitudeMeters>627.4000244140625</AltitudeMeters>
            <DistanceMeters>50872.245296002</DistanceMeters>
          </Trackpoint>
          <Trackpoint>
            <Time>2018-08-26T07:39:50.000Z</Time>
            <Position>
              <LatitudeDegrees>43.032473623752593994140625</LatitudeDegrees>
              <LongitudeDegrees>-1.75787326879799365997314453125</LongitudeDegrees>
            </Position>
            <AltitudeMeters>627.4000244140625</AltitudeMeters>
            <DistanceMeters>50878.347757412</DistanceMeters>
          </Trackpoint>
          <Trackpoint>
            <Time>2018-08-26T07:39:51.000Z</Time>
            <Position>
              <LatitudeDegrees>43.03251989185810089111328125</LatitudeDegrees>
              <LongitudeDegrees>-1.7578331194818019866943359375</LongitudeDegrees>
            </Position>
            <AltitudeMeters>627.5999755859375</AltitudeMeters>
            <DistanceMeters>50884.445777975</DistanceMeters>
          </Trackpoint>
          <Trackpoint>
            <Time>2018-08-26T07:39:52.000Z</Time>
            <Position>
              <LatitudeDegrees>43.03256423212587833404541015625</LatitudeDegrees>
              <LongitudeDegrees>-1.75778877921402454376220703125</LongitudeDegrees>
            </Position>
            <AltitudeMeters>627.79998779296875</AltitudeMeters>
            <DistanceMeters>50890.558588812</DistanceMeters>
          </Trackpoint>
          <Trackpoint>
            <Time>2018-08-26T07:39:53.000Z</Time>
            <Position>
              <LatitudeDegrees>43.03260580636560916900634765625</LatitudeDegrees>
              <LongitudeDegrees>-1.7577419243752956390380859375</LongitudeDegrees>
            </Position>
            <AltitudeMeters>628</AltitudeMeters>
            <DistanceMeters>50896.55356206</DistanceMeters>
          </Trackpoint>
          <Trackpoint>
            <Time>2018-08-26T07:39:54.000Z</Time>
            <Position>
              <LatitudeDegrees>43.03264402784407138824462890625</LatitudeDegrees>
              <LongitudeDegrees>-1.75769322551786899566650390625</LongitudeDegrees>
            </Position>
            <AltitudeMeters>628.20001220703125</AltitudeMeters>
            <DistanceMeters>50902.367302348</DistanceMeters>
          </Trackpoint>
          <Trackpoint>
            <Time>2018-08-26T07:39:55.000Z</Time>
            <Position>
              <LatitudeDegrees>43.03268157877027988433837890625</LatitudeDegrees>
              <LongitudeDegrees>-1.75764159299433231353759765625</LongitudeDegrees>
            </Position>
            <AltitudeMeters>628.4000244140625</AltitudeMeters>
            <DistanceMeters>50908.2933438</DistanceMeters>
          </Trackpoint>
          <Trackpoint>
            <Time>2018-08-26T07:39:56.000Z</Time>
            <Position>
              <LatitudeDegrees>43.03271946497261524200439453125</LatitudeDegrees>
              <LongitudeDegrees>-1.7575883679091930389404296875</LongitudeDegrees>
            </Position>
            <AltitudeMeters>628.79998779296875</AltitudeMeters>
            <DistanceMeters>50914.337819732</DistanceMeters>
          </Trackpoint>
          <Trackpoint>
            <Time>2018-08-26T07:39:57.000Z</Time>
            <Position>
              <LatitudeDegrees>43.032757602632045745849609375</LatitudeDegrees>
              <LongitudeDegrees>-1.75753681920468807220458984375</LongitudeDegrees>
            </Position>
            <AltitudeMeters>629</AltitudeMeters>
            <DistanceMeters>50920.305618446</DistanceMeters>
          </Trackpoint>
          <Trackpoint>
            <Time>2018-08-26T07:39:58.000Z</Time>
            <Position>
              <LatitudeDegrees>43.032795153558254241943359375</LatitudeDegrees>
              <LongitudeDegrees>-1.7574857734143733978271484375</LongitudeDegrees>
            </Position>
            <AltitudeMeters>629</AltitudeMeters>
            <DistanceMeters>50926.197274737</DistanceMeters>
          </Trackpoint>
          <Trackpoint>
            <Time>2018-08-26T07:39:59.000Z</Time>
            <Position>
              <LatitudeDegrees>43.0328251607716083526611328125</LatitudeDegrees>
              <LongitudeDegrees>-1.75743632018566131591796875</LongitudeDegrees>
            </Position>
            <AltitudeMeters>629.20001220703125</AltitudeMeters>
            <DistanceMeters>50931.426335023</DistanceMeters>
          </Trackpoint>
          <Trackpoint>
            <Time>2018-08-26T07:40:00.000Z</Time>
            <Position>
              <LatitudeDegrees>43.03285558708012104034423828125</LatitudeDegrees>
              <LongitudeDegrees>-1.757391057908535003662109375</LongitudeDegrees>
            </Position>
            <AltitudeMeters>629.20001220703125</AltitudeMeters>
            <DistanceMeters>50936.428568706</DistanceMeters>
          </Trackpoint>
          <Trackpoint>
            <Time>2018-08-26T07:40:01.000Z</Time>
            <Position>
              <LatitudeDegrees>43.03288542665541172027587890625</LatitudeDegrees>
              <LongitudeDegrees>-1.7573444545269012451171875</LongitudeDegrees>
            </Position>
            <AltitudeMeters>629.4000244140625</AltitudeMeters>
            <DistanceMeters>50941.468569206</DistanceMeters>
          </Trackpoint>
          <Trackpoint>
            <Time>2018-08-26T07:40:02.000Z</Time>
            <Position>
              <LatitudeDegrees>43.032915182411670684814453125</LatitudeDegrees>
              <LongitudeDegrees>-1.75729508511722087860107421875</LongitudeDegrees>
            </Position>
            <AltitudeMeters>629.5999755859375</AltitudeMeters>
            <DistanceMeters>50946.675998472</DistanceMeters>
          </Trackpoint>
          <Trackpoint>
            <Time>2018-08-26T07:40:03.000Z</Time>
            <Position>
              <LatitudeDegrees>43.0329445190727710723876953125</LatitudeDegrees>
              <LongitudeDegrees>-1.757242865860462188720703125</LongitudeDegrees>
            </Position>
            <AltitudeMeters>629.79998779296875</AltitudeMeters>
            <DistanceMeters>50952.034696364</DistanceMeters>
          </Trackpoint>
          <Trackpoint>
            <Time>2018-08-26T07:40:04.000Z</Time>
            <Position>
              <LatitudeDegrees>43.032969497144222259521484375</LatitudeDegrees>
              <LongitudeDegrees>-1.7571890540421009063720703125</LongitudeDegrees>
            </Position>
            <AltitudeMeters>629.79998779296875</AltitudeMeters>
            <DistanceMeters>50957.221274978</DistanceMeters>
          </Trackpoint>
          <Trackpoint>
            <Time>2018-08-26T07:40:05.000Z</Time>
            <Position>
              <LatitudeDegrees>43.032993972301483154296875</LatitudeDegrees>
              <LongitudeDegrees>-1.757133901119232177734375</LongitudeDegrees>
            </Position>
            <AltitudeMeters>629.5999755859375</AltitudeMeters>
            <DistanceMeters>50962.471017192</DistanceMeters>
          </Trackpoint>
          <Trackpoint>
            <Time>2018-08-26T07:40:06.000Z</Time>
            <Position>
              <LatitudeDegrees>43.0330199562013149261474609375</LatitudeDegrees>
              <LongitudeDegrees>-1.75707732327282428741455078125</LongitudeDegrees>
            </Position>
            <AltitudeMeters>630</AltitudeMeters>
            <DistanceMeters>50967.907508726</DistanceMeters>
          </Trackpoint>
          <Trackpoint>
            <Time>2018-08-26T07:40:07.000Z</Time>
            <Position>
              <LatitudeDegrees>43.03304493427276611328125</LatitudeDegrees>
              <LongitudeDegrees>-1.75701948814094066619873046875</LongitudeDegrees>
            </Position>
            <AltitudeMeters>630.20001220703125</AltitudeMeters>
            <DistanceMeters>50973.372164506</DistanceMeters>
          </Trackpoint>
          <Trackpoint>
            <Time>2018-08-26T07:40:08.000Z</Time>
            <Position>
              <LatitudeDegrees>43.0330717563629150390625</LatitudeDegrees>
              <LongitudeDegrees>-1.756959222257137298583984375</LongitudeDegrees>
            </Position>
            <AltitudeMeters>630.4000244140625</AltitudeMeters>
            <DistanceMeters>50979.11165219</DistanceMeters>
          </Trackpoint>
          <Trackpoint>
            <Time>2018-08-26T07:40:09.000Z</Time>
            <Position>
              <LatitudeDegrees>43.03309849463403224945068359375</LatitudeDegrees>
              <LongitudeDegrees>-1.75689744763076305389404296875</LongitudeDegrees>
            </Position>
            <AltitudeMeters>630.79998779296875</AltitudeMeters>
            <DistanceMeters>50984.952510757</DistanceMeters>
          </Trackpoint>
          <Trackpoint>
            <Time>2018-08-26T07:40:10.000Z</Time>
            <Position>
              <LatitudeDegrees>43.0331240594387054443359375</LatitudeDegrees>
              <LongitudeDegrees>-1.756834499537944793701171875</LongitudeDegrees>
            </Position>
            <AltitudeMeters>631.20001220703125</AltitudeMeters>
            <DistanceMeters>50990.810350844</DistanceMeters>
          </Trackpoint>
          <Trackpoint>
            <Time>2018-08-26T07:40:11.000Z</Time>
            <Position>
              <LatitudeDegrees>43.0331510491669178009033203125</LatitudeDegrees>
              <LongitudeDegrees>-1.7567709647119045257568359375</LongitudeDegrees>
            </Position>
            <AltitudeMeters>631.4000244140625</AltitudeMeters>
            <DistanceMeters>50996.789487291</DistanceMeters>
          </Trackpoint>
          <Trackpoint>
            <Time>2018-08-26T07:40:12.000Z</Time>
            <Position>
              <LatitudeDegrees>43.03317703306674957275390625</LatitudeDegrees>
              <LongitudeDegrees>-1.75670550204813480377197265625</LongitudeDegrees>
            </Position>
            <AltitudeMeters>631.5999755859375</AltitudeMeters>
            <DistanceMeters>51002.85037427</DistanceMeters>
          </Trackpoint>
          <Trackpoint>
            <Time>2018-08-26T07:40:13.000Z</Time>
            <Position>
              <LatitudeDegrees>43.03320586681365966796875</LatitudeDegrees>
              <LongitudeDegrees>-1.7566417157649993896484375</LongitudeDegrees>
            </Position>
            <AltitudeMeters>631.5999755859375</AltitudeMeters>
            <DistanceMeters>51008.951355757</DistanceMeters>
          </Trackpoint>
          <Trackpoint>
            <Time>2018-08-26T07:40:14.000Z</Time>
            <Position>
              <LatitudeDegrees>43.03323361091315746307373046875</LatitudeDegrees>
              <LongitudeDegrees>-1.7565778456628322601318359375</LongitudeDegrees>
            </Position>
            <AltitudeMeters>631.5999755859375</AltitudeMeters>
            <DistanceMeters>51014.995831688</DistanceMeters>
          </Trackpoint>
          <Trackpoint>
            <Time>2018-08-26T07:40:15.000Z</Time>
            <Position>
              <LatitudeDegrees>43.03326361812651157379150390625</LatitudeDegrees>
              <LongitudeDegrees>-1.75651255063712596893310546875</LongitudeDegrees>
            </Position>
            <AltitudeMeters>631.5999755859375</AltitudeMeters>
            <DistanceMeters>51021.270473774</DistanceMeters>
          </Trackpoint>
          <Trackpoint>
            <Time>2018-08-26T07:40:16.000Z</Time>
            <Position>
              <LatitudeDegrees>43.0332968942821025848388671875</LatitudeDegrees>
              <LongitudeDegrees>-1.7564467526972293853759765625</LongitudeDegrees>
            </Position>
            <AltitudeMeters>632</AltitudeMeters>
            <DistanceMeters>51027.779630299</DistanceMeters>
          </Trackpoint>
          <Trackpoint>
            <Time>2018-08-26T07:40:17.000Z</Time>
            <Position>
              <LatitudeDegrees>43.0333267338573932647705078125</LatitudeDegrees>
              <LongitudeDegrees>-1.756381876766681671142578125</LongitudeDegrees>
            </Position>
            <AltitudeMeters>632</AltitudeMeters>
            <DistanceMeters>51034.015294592</DistanceMeters>
          </Trackpoint>
          <Trackpoint>
            <Time>2018-08-26T07:40:18.000Z</Time>
            <Position>
              <LatitudeDegrees>43.03335850127041339874267578125</LatitudeDegrees>
              <LongitudeDegrees>-1.75631691701710224151611328125</LongitudeDegrees>
            </Position>
            <AltitudeMeters>632</AltitudeMeters>
            <DistanceMeters>51040.374278969</DistanceMeters>
          </Trackpoint>
          <Trackpoint>
            <Time>2018-08-26T07:40:19.000Z</Time>
            <Position>
              <LatitudeDegrees>43.03339001722633838653564453125</LatitudeDegrees>
              <LongitudeDegrees>-1.7562559805810451507568359375</LongitudeDegrees>
            </Position>
            <AltitudeMeters>631.79998779296875</AltitudeMeters>
            <DistanceMeters>51046.447816841</DistanceMeters>
          </Trackpoint>
          <Trackpoint>
            <Time>2018-08-26T07:40:20.000Z</Time>
            <Position>
              <LatitudeDegrees>43.033422790467739105224609375</LatitudeDegrees>
              <LongitudeDegrees>-1.75619672052562236785888671875</LongitudeDegrees>
            </Position>
            <AltitudeMeters>631.79998779296875</AltitudeMeters>
            <DistanceMeters>51052.493786527</DistanceMeters>
          </Trackpoint>
          <Trackpoint>
            <Time>2018-08-26T07:40:21.000Z</Time>
            <Position>
              <LatitudeDegrees>43.03345941938459873199462890625</LatitudeDegrees>
              <LongitudeDegrees>-1.75614139996469020843505859375</LongitudeDegrees>
            </Position>
            <AltitudeMeters>632</AltitudeMeters>
            <DistanceMeters>51058.566580957</DistanceMeters>
          </Trackpoint>
          <Trackpoint>
            <Time>2018-08-26T07:40:22.000Z</Time>
            <Position>
              <LatitudeDegrees>43.03349780850112438201904296875</LatitudeDegrees>
              <LongitudeDegrees>-1.75609110854566097259521484375</LongitudeDegrees>
            </Position>
            <AltitudeMeters>632.20001220703125</AltitudeMeters>
            <DistanceMeters>51064.482709446</DistanceMeters>
          </Trackpoint>
          <Trackpoint>
            <Time>2018-08-26T07:40:23.000Z</Time>
            <Position>
              <LatitudeDegrees>43.03353535942733287811279296875</LatitudeDegrees>
              <LongitudeDegrees>-1.7560447566211223602294921875</LongitudeDegrees>
            </Position>
            <AltitudeMeters>632.20001220703125</AltitudeMeters>
            <DistanceMeters>51070.112591178</DistanceMeters>
          </Trackpoint>
          <Trackpoint>
            <Time>2018-08-26T07:40:24.000Z</Time>
            <Position>
              <LatitudeDegrees>43.03357291035354137420654296875</LatitudeDegrees>
              <LongitudeDegrees>-1.75600075162947177886962890625</LongitudeDegrees>
            </Position>
            <AltitudeMeters>632.20001220703125</AltitudeMeters>
            <DistanceMeters>51075.615942557</DistanceMeters>
          </Trackpoint>
          <Trackpoint>
            <Time>2018-08-26T07:40:25.000Z</Time>
            <Position>
              <LatitudeDegrees>43.0336095392704010009765625</LatitudeDegrees>
              <LongitudeDegrees>-1.7559595964848995208740234375</LongitudeDegrees>
            </Position>
            <AltitudeMeters>632.20001220703125</AltitudeMeters>
            <DistanceMeters>51080.89142316</DistanceMeters>
          </Trackpoint>
          <Trackpoint>
            <Time>2018-08-26T07:40:26.000Z</Time>
            <Position>
              <LatitudeDegrees>43.033648431301116943359375</LatitudeDegrees>
              <LongitudeDegrees>-1.75591995008289813995361328125</LongitudeDegrees>
            </Position>
            <AltitudeMeters>632</AltitudeMeters>
            <DistanceMeters>51086.288739772</DistanceMeters>
          </Trackpoint>
          <Trackpoint>
            <Time>2018-08-26T07:40:27.000Z</Time>
            <Position>
              <LatitudeDegrees>43.03368656896054744720458984375</LatitudeDegrees>
              <LongitudeDegrees>-1.7558791302144527435302734375</LongitudeDegrees>
            </Position>
            <AltitudeMeters>632.4000244140625</AltitudeMeters>
            <DistanceMeters>51091.678522321</DistanceMeters>
          </Trackpoint>
          <Trackpoint>
            <Time>2018-08-26T07:40:28.000Z</Time>
            <Position>
              <LatitudeDegrees>43.03372596390545368194580078125</LatitudeDegrees>
              <LongitudeDegrees>-1.75583931617438793182373046875</LongitudeDegrees>
            </Position>
            <AltitudeMeters>632.5999755859375</AltitudeMeters>
            <DistanceMeters>51097.129942464</DistanceMeters>
          </Trackpoint>
          <Trackpoint>
            <Time>2018-08-26T07:40:29.000Z</Time>
            <Position>
              <LatitudeDegrees>43.03376468829810619354248046875</LatitudeDegrees>
              <LongitudeDegrees>-1.7558020167052745819091796875</LongitudeDegrees>
            </Position>
            <AltitudeMeters>632.5999755859375</AltitudeMeters>
            <DistanceMeters>51102.401998542</DistanceMeters>
          </Trackpoint>
          <Trackpoint>
            <Time>2018-08-26T07:40:30.000Z</Time>
            <Position>
              <LatitudeDegrees>43.03379989229142665863037109375</LatitudeDegrees>
              <LongitudeDegrees>-1.75576639361679553985595703125</LongitudeDegrees>
            </Position>
            <AltitudeMeters>632.79998779296875</AltitudeMeters>
            <DistanceMeters>51107.275303483</DistanceMeters>
          </Trackpoint>
          <Trackpoint>
            <Time>2018-08-26T07:40:31.000Z</Time>
            <Position>
              <LatitudeDegrees>43.03383459337055683135986328125</LatitudeDegrees>
              <LongitudeDegrees>-1.7557322792708873748779296875</LongitudeDegrees>
            </Position>
            <AltitudeMeters>633.79998779296875</AltitudeMeters>
            <DistanceMeters>51112.030438751</DistanceMeters>
          </Trackpoint>
          <Trackpoint>
            <Time>2018-08-26T07:40:32.000Z</Time>
            <Position>
              <LatitudeDegrees>43.03386904299259185791015625</LatitudeDegrees>
              <LongitudeDegrees>-1.7556990869343280792236328125</LongitudeDegrees>
            </Position>
            <AltitudeMeters>634</AltitudeMeters>
            <DistanceMeters>51116.72056308</DistanceMeters>
          </Trackpoint>
          <Trackpoint>
            <Time>2018-08-26T07:40:33.000Z</Time>
            <Position>
              <LatitudeDegrees>43.03390382789075374603271484375</LatitudeDegrees>
              <LongitudeDegrees>-1.75566229037940502166748046875</LongitudeDegrees>
            </Position>
            <AltitudeMeters>634.4000244140625</AltitudeMeters>
            <DistanceMeters>51121.614208217</DistanceMeters>
          </Trackpoint>
          <Trackpoint>
            <Time>2018-08-26T07:40:34.000Z</Time>
            <Position>
              <LatitudeDegrees>43.033937774598598480224609375</LatitudeDegrees>
              <LongitudeDegrees>-1.75562708638608455657958984375</LongitudeDegrees>
            </Position>
            <AltitudeMeters>634.79998779296875</AltitudeMeters>
            <DistanceMeters>51126.355079473</DistanceMeters>
          </Trackpoint>
          <Trackpoint>
            <Time>2018-08-26T07:40:35.000Z</Time>
            <Position>
              <LatitudeDegrees>43.03397524170577526092529296875</LatitudeDegrees>
              <LongitudeDegrees>-1.75559121184051036834716796875</LongitudeDegrees>
            </Position>
            <AltitudeMeters>635</AltitudeMeters>
            <DistanceMeters>51131.445886815</DistanceMeters>
          </Trackpoint>
          <Trackpoint>
            <Time>2018-08-26T07:40:36.000Z</Time>
            <Position>
              <LatitudeDegrees>43.03401446901261806488037109375</LatitudeDegrees>
              <LongitudeDegrees>-1.75555785186588764190673828125</LongitudeDegrees>
            </Position>
            <AltitudeMeters>635.4000244140625</AltitudeMeters>
            <DistanceMeters>51136.586998928</DistanceMeters>
          </Trackpoint>
          <Trackpoint>
            <Time>2018-08-26T07:40:37.000Z</Time>
            <Position>
              <LatitudeDegrees>43.03405436687171459197998046875</LatitudeDegrees>
              <LongitudeDegrees>-1.75552700646221637725830078125</LongitudeDegrees>
            </Position>
            <AltitudeMeters>635.79998779296875</AltitudeMeters>
            <DistanceMeters>51141.688437971</DistanceMeters>
          </Trackpoint>
          <Trackpoint>
            <Time>2018-08-26T07:40:38.000Z</Time>
            <Position>
              <LatitudeDegrees>43.03409527055919170379638671875</LatitudeDegrees>
              <LongitudeDegrees>-1.7554935626685619354248046875</LongitudeDegrees>
            </Position>
            <AltitudeMeters>636.20001220703125</AltitudeMeters>
            <DistanceMeters>51146.992937778</DistanceMeters>
          </Trackpoint>
          <Trackpoint>
            <Time>2018-08-26T07:40:39.000Z</Time>
            <Position>
              <LatitudeDegrees>43.03413458168506622314453125</LatitudeDegrees>
              <LongitudeDegrees>-1.75545928068459033966064453125</LongitudeDegrees>
            </Position>
            <AltitudeMeters>636.5999755859375</AltitudeMeters>
            <DistanceMeters>51152.182127305</DistanceMeters>
          </Trackpoint>
          <Trackpoint>
            <Time>2018-08-26T07:40:40.000Z</Time>
            <Position>
              <LatitudeDegrees>43.03417188115417957305908203125</LatitudeDegrees>
              <LongitudeDegrees>-1.755427680909633636474609375</LongitudeDegrees>
            </Position>
            <AltitudeMeters>637</AltitudeMeters>
            <DistanceMeters>51157.065612934</DistanceMeters>
          </Trackpoint>
          <Trackpoint>
            <Time>2018-08-26T07:40:41.000Z</Time>
            <Position>
              <LatitudeDegrees>43.034208677709102630615234375</LatitudeDegrees>
              <LongitudeDegrees>-1.755392141640186309814453125</LongitudeDegrees>
            </Position>
            <AltitudeMeters>637.4000244140625</AltitudeMeters>
            <DistanceMeters>51162.079566746</DistanceMeters>
          </Trackpoint>
          <Trackpoint>
            <Time>2018-08-26T07:40:42.000Z</Time>
            <Position>
              <LatitudeDegrees>43.03424279205501079559326171875</LatitudeDegrees>
              <LongitudeDegrees>-1.75536431372165679931640625</LongitudeDegrees>
            </Position>
            <AltitudeMeters>637.79998779296875</AltitudeMeters>
            <DistanceMeters>51166.500096739</DistanceMeters>
          </Trackpoint>
          <Trackpoint>
            <Time>2018-08-26T07:40:43.000Z</Time>
            <Position>
              <LatitudeDegrees>43.0342782475054264068603515625</LatitudeDegrees>
              <LongitudeDegrees>-1.7553379945456981658935546875</LongitudeDegrees>
            </Position>
            <AltitudeMeters>638</AltitudeMeters>
            <DistanceMeters>51170.99054891</DistanceMeters>
          </Trackpoint>
          <Trackpoint>
            <Time>2018-08-26T07:40:44.000Z</Time>
            <Position>
              <LatitudeDegrees>43.03431303240358829498291015625</LatitudeDegrees>
              <LongitudeDegrees>-1.7553108371794223785400390625</LongitudeDegrees>
            </Position>
            <AltitudeMeters>638.4000244140625</AltitudeMeters>
            <DistanceMeters>51175.44870977</DistanceMeters>
          </Trackpoint>
          <Trackpoint>
            <Time>2018-08-26T07:40:45.000Z</Time>
            <Position>
              <LatitudeDegrees>43.0343486554920673370361328125</LatitudeDegrees>
              <LongitudeDegrees>-1.7552843503654003143310546875</LongitudeDegrees>
            </Position>
            <AltitudeMeters>638.79998779296875</AltitudeMeters>
            <DistanceMeters>51179.962228625</DistanceMeters>
          </Trackpoint>
          <Trackpoint>
            <Time>2018-08-26T07:40:46.000Z</Time>
            <Position>
              <LatitudeDegrees>43.03438310511410236358642578125</LatitudeDegrees>
              <LongitudeDegrees>-1.755259037017822265625</LongitudeDegrees>
            </Position>
            <AltitudeMeters>639.20001220703125</AltitudeMeters>
            <DistanceMeters>51184.314825595</DistanceMeters>
          </Trackpoint>
          <Trackpoint>
            <Time>2018-08-26T07:40:47.000Z</Time>
            <Position>
              <LatitudeDegrees>43.03441998548805713653564453125</LatitudeDegrees>
              <LongitudeDegrees>-1.75523866899311542510986328125</LongitudeDegrees>
            </Position>
            <AltitudeMeters>639.5999755859375</AltitudeMeters>
            <DistanceMeters>51188.741479623</DistanceMeters>
          </Trackpoint>
          <Trackpoint>
            <Time>2018-08-26T07:40:48.000Z</Time>
            <Position>
              <LatitudeDegrees>43.034460134804248809814453125</LatitudeDegrees>
              <LongitudeDegrees>-1.7552246712148189544677734375</LongitudeDegrees>
            </Position>
            <AltitudeMeters>640</AltitudeMeters>
            <DistanceMeters>51193.352968539</DistanceMeters>
          </Trackpoint>
          <Trackpoint>
            <Time>2018-08-26T07:40:49.000Z</Time>
            <Position>
              <LatitudeDegrees>43.03450145758688449859619140625</LatitudeDegrees>
              <LongitudeDegrees>-1.75521888770163059234619140625</LongitudeDegrees>
            </Position>
            <AltitudeMeters>640.20001220703125</AltitudeMeters>
            <DistanceMeters>51197.97716804</DistanceMeters>
          </Trackpoint>
          <Trackpoint>
            <Time>2018-08-26T07:40:50.000Z</Time>
            <Position>
              <LatitudeDegrees>43.0345427803695201873779296875</LatitudeDegrees>
              <LongitudeDegrees>-1.7552166245877742767333984375</LongitudeDegrees>
            </Position>
            <AltitudeMeters>640.5999755859375</AltitudeMeters>
            <DistanceMeters>51202.579836759</DistanceMeters>
          </Trackpoint>
          <Trackpoint>
            <Time>2018-08-26T07:40:51.000Z</Time>
            <Position>
              <LatitudeDegrees>43.034582845866680145263671875</LatitudeDegrees>
              <LongitudeDegrees>-1.75521670840680599212646484375</LongitudeDegrees>
            </Position>
            <AltitudeMeters>641</AltitudeMeters>
            <DistanceMeters>51207.039010262</DistanceMeters>
          </Trackpoint>
          <Trackpoint>
            <Time>2018-08-26T07:40:52.000Z</Time>
            <Position>
              <LatitudeDegrees>43.0346222408115863800048828125</LatitudeDegrees>
              <LongitudeDegrees>-1.7552226595580577850341796875</LongitudeDegrees>
            </Position>
            <AltitudeMeters>641.4000244140625</AltitudeMeters>
            <DistanceMeters>51211.450338263</DistanceMeters>
          </Trackpoint>
          <Trackpoint>
            <Time>2018-08-26T07:40:53.000Z</Time>
            <Position>
              <LatitudeDegrees>43.034659288823604583740234375</LatitudeDegrees>
              <LongitudeDegrees>-1.7552307061851024627685546875</LongitudeDegrees>
            </Position>
            <AltitudeMeters>641.5999755859375</AltitudeMeters>
            <DistanceMeters>51215.625029574</DistanceMeters>
          </Trackpoint>
          <Trackpoint>
            <Time>2018-08-26T07:40:54.000Z</Time>
            <Position>
              <LatitudeDegrees>43.03469843231141567230224609375</LatitudeDegrees>
              <LongitudeDegrees>-1.7552377469837665557861328125</LongitudeDegrees>
            </Position>
            <AltitudeMeters>642</AltitudeMeters>
            <DistanceMeters>51220.018923454</DistanceMeters>
          </Trackpoint>
          <Trackpoint>
            <Time>2018-08-26T07:40:55.000Z</Time>
            <Position>
              <LatitudeDegrees>43.0347395874559879302978515625</LatitudeDegrees>
              <LongitudeDegrees>-1.75524436868727207183837890625</LongitudeDegrees>
            </Position>
            <AltitudeMeters>642.4000244140625</AltitudeMeters>
            <DistanceMeters>51224.631391352</DistanceMeters>
          </Trackpoint>
          <Trackpoint>
            <Time>2018-08-26T07:40:56.000Z</Time>
            <Position>
              <LatitudeDegrees>43.0347828380763530731201171875</LatitudeDegrees>
              <LongitudeDegrees>-1.75525057129561901092529296875</LongitudeDegrees>
            </Position>
            <AltitudeMeters>642.79998779296875</AltitudeMeters>
            <DistanceMeters>51229.47122795</DistanceMeters>
          </Trackpoint>
          <Trackpoint>
            <Time>2018-08-26T07:40:57.000Z</Time>
            <Position>
              <LatitudeDegrees>43.03482583723962306976318359375</LatitudeDegrees>
              <LongitudeDegrees>-1.75525057129561901092529296875</LongitudeDegrees>
            </Position>
            <AltitudeMeters>643.20001220703125</AltitudeMeters>
            <DistanceMeters>51234.25665101</DistanceMeters>
          </Trackpoint>
          <Trackpoint>
            <Time>2018-08-26T07:40:58.000Z</Time>
            <Position>
              <LatitudeDegrees>43.03487084805965423583984375</LatitudeDegrees>
              <LongitudeDegrees>-1.7552598752081394195556640625</LongitudeDegrees>
            </Position>
            <AltitudeMeters>643.4000244140625</AltitudeMeters>
            <DistanceMeters>51239.323455459</DistanceMeters>
          </Trackpoint>
          <Trackpoint>
            <Time>2018-08-26T07:40:59.000Z</Time>
            <Position>
              <LatitudeDegrees>43.03491485305130481719970703125</LatitudeDegrees>
              <LongitudeDegrees>-1.75527043640613555908203125</LongitudeDegrees>
            </Position>
            <AltitudeMeters>643.5999755859375</AltitudeMeters>
            <DistanceMeters>51244.295813984</DistanceMeters>
          </Trackpoint>
          <Trackpoint>
            <Time>2018-08-26T07:41:00.000Z</Time>
            <Position>
              <LatitudeDegrees>43.03495877422392368316650390625</LatitudeDegrees>
              <LongitudeDegrees>-1.75528476946055889129638671875</LongitudeDegrees>
            </Position>
            <AltitudeMeters>644.20001220703125</AltitudeMeters>
            <DistanceMeters>51249.32235891</DistanceMeters>
          </Trackpoint>
          <Trackpoint>
            <Time>2018-08-26T07:41:01.000Z</Time>
            <Position>
              <LatitudeDegrees>43.0350027792155742645263671875</LatitudeDegrees>
              <LongitudeDegrees>-1.755297593772411346435546875</LongitudeDegrees>
            </Position>
            <AltitudeMeters>644.4000244140625</AltitudeMeters>
            <DistanceMeters>51254.330906839</DistanceMeters>
          </Trackpoint>
          <Trackpoint>
            <Time>2018-08-26T07:41:02.000Z</Time>
            <Position>
              <LatitudeDegrees>43.03504594601690769195556640625</LatitudeDegrees>
              <LongitudeDegrees>-1.75531242974102497100830078125</LongitudeDegrees>
            </Position>
            <AltitudeMeters>644.79998779296875</AltitudeMeters>
            <DistanceMeters>51259.284160083</DistanceMeters>
          </Trackpoint>
          <Trackpoint>
            <Time>2018-08-26T07:41:03.000Z</Time>
            <Position>
              <LatitudeDegrees>43.03508953191339969635009765625</LatitudeDegrees>
              <LongitudeDegrees>-1.75532701425254344940185546875</LongitudeDegrees>
            </Position>
            <AltitudeMeters>645</AltitudeMeters>
            <DistanceMeters>51264.27826372</DistanceMeters>
          </Trackpoint>
          <Trackpoint>
            <Time>2018-08-26T07:41:04.000Z</Time>
            <Position>
              <LatitudeDegrees>43.0351321958005428314208984375</LatitudeDegrees>
              <LongitudeDegrees>-1.7553435266017913818359375</LongitudeDegrees>
            </Position>
            <AltitudeMeters>645.4000244140625</AltitudeMeters>
            <DistanceMeters>51269.212337706</DistanceMeters>
          </Trackpoint>
          <Trackpoint>
            <Time>2018-08-26T07:41:05.000Z</Time>
            <Position>
              <LatitudeDegrees>43.0351724289357662200927734375</LatitudeDegrees>
              <LongitudeDegrees>-1.755368001759052276611328125</LongitudeDegrees>
            </Position>
            <AltitudeMeters>645.5999755859375</AltitudeMeters>
            <DistanceMeters>51274.112437018</DistanceMeters>
          </Trackpoint>
          <Trackpoint>
            <Time>2018-08-26T07:41:06.000Z</Time>
            <Position>
              <LatitudeDegrees>43.03520972840487957000732421875</LatitudeDegrees>
              <LongitudeDegrees>-1.75539775751531124114990234375</LongitudeDegrees>
            </Position>
            <AltitudeMeters>645.79998779296875</AltitudeMeters>
            <DistanceMeters>51278.917632692</DistanceMeters>
          </Trackpoint>
          <Trackpoint>
            <Time>2018-08-26T07:41:07.000Z</Time>
            <Position>
              <LatitudeDegrees>43.03524644114077091217041015625</LatitudeDegrees>
              <LongitudeDegrees>-1.75542692653834819793701171875</LongitudeDegrees>
            </Position>
            <AltitudeMeters>646.20001220703125</AltitudeMeters>
            <DistanceMeters>51283.642286009</DistanceMeters>
          </Trackpoint>
          <Trackpoint>
            <Time>2018-08-26T07:41:08.000Z</Time>
            <Position>
              <LatitudeDegrees>43.03528130985796451568603515625</LatitudeDegrees>
              <LongitudeDegrees>-1.75546045415103435516357421875</LongitudeDegrees>
            </Position>
            <AltitudeMeters>646.20001220703125</AltitudeMeters>
            <DistanceMeters>51288.386013499</DistanceMeters>
          </Trackpoint>
          <Trackpoint>
            <Time>2018-08-26T07:41:09.000Z</Time>
            <Position>
              <LatitudeDegrees>43.0353119038045406341552734375</LatitudeDegrees>
              <LongitudeDegrees>-1.75549532286822795867919921875</LongitudeDegrees>
            </Position>
            <AltitudeMeters>646.4000244140625</AltitudeMeters>
            <DistanceMeters>51292.818783101</DistanceMeters>
          </Trackpoint>
          <Trackpoint>
            <Time>2018-08-26T07:41:10.000Z</Time>
            <Position>
              <LatitudeDegrees>43.03534132428467273712158203125</LatitudeDegrees>
              <LongitudeDegrees>-1.75553807057440280914306640625</LongitudeDegrees>
            </Position>
            <AltitudeMeters>646.5999755859375</AltitudeMeters>
            <DistanceMeters>51297.594761859</DistanceMeters>
          </Trackpoint>
          <Trackpoint>
            <Time>2018-08-26T07:41:11.000Z</Time>
            <Position>
              <LatitudeDegrees>43.03536931984126567840576171875</LatitudeDegrees>
              <LongitudeDegrees>-1.755582578480243682861328125</LongitudeDegrees>
            </Position>
            <AltitudeMeters>646.79998779296875</AltitudeMeters>
            <DistanceMeters>51302.372630971</DistanceMeters>
          </Trackpoint>
          <Trackpoint>
            <Time>2018-08-26T07:41:12.000Z</Time>
            <Position>
              <LatitudeDegrees>43.0353980697691440582275390625</LatitudeDegrees>
              <LongitudeDegrees>-1.75562448799610137939453125</LongitudeDegrees>
            </Position>
            <AltitudeMeters>647.20001220703125</AltitudeMeters>
            <DistanceMeters>51307.049258511</DistanceMeters>
          </Trackpoint>
          <Trackpoint>
            <Time>2018-08-26T07:41:13.000Z</Time>
            <Position>
              <LatitudeDegrees>43.0354245565831661224365234375</LatitudeDegrees>
              <LongitudeDegrees>-1.75566949881613254547119140625</LongitudeDegrees>
            </Position>
            <AltitudeMeters>647.4000244140625</AltitudeMeters>
            <DistanceMeters>51311.750920678</DistanceMeters>
          </Trackpoint>
          <Trackpoint>
            <Time>2018-08-26T07:41:14.000Z</Time>
            <Position>
              <LatitudeDegrees>43.03545012138783931732177734375</LatitudeDegrees>
              <LongitudeDegrees>-1.75571593455970287322998046875</LongitudeDegrees>
            </Position>
            <AltitudeMeters>647.79998779296875</AltitudeMeters>
            <DistanceMeters>51316.48034975</DistanceMeters>
          </Trackpoint>
          <Trackpoint>
            <Time>2018-08-26T07:41:15.000Z</Time>
            <Position>
              <LatitudeDegrees>43.03547644056379795074462890625</LatitudeDegrees>
              <LongitudeDegrees>-1.75576723180711269378662109375</LongitudeDegrees>
            </Position>
            <AltitudeMeters>648</AltitudeMeters>
            <DistanceMeters>51321.578247357</DistanceMeters>
          </Trackpoint>
          <Trackpoint>
            <Time>2018-08-26T07:41:16.000Z</Time>
            <Position>
              <LatitudeDegrees>43.03550091572105884552001953125</LatitudeDegrees>
              <LongitudeDegrees>-1.75581869669258594512939453125</LongitudeDegrees>
            </Position>
            <AltitudeMeters>648</AltitudeMeters>
            <DistanceMeters>51326.574158814</DistanceMeters>
          </Trackpoint>
          <Trackpoint>
            <Time>2018-08-26T07:41:17.000Z</Time>
            <Position>
              <LatitudeDegrees>43.03552757017314434051513671875</LatitudeDegrees>
              <LongitudeDegrees>-1.755871586501598358154296875</LongitudeDegrees>
            </Position>
            <AltitudeMeters>648.20001220703125</AltitudeMeters>
            <DistanceMeters>51331.799764154</DistanceMeters>
          </Trackpoint>
          <Trackpoint>
            <Time>2018-08-26T07:41:18.000Z</Time>
            <Position>
              <LatitudeDegrees>43.03555858321487903594970703125</LatitudeDegrees>
              <LongitudeDegrees>-1.75592196173965930938720703125</LongitudeDegrees>
            </Position>
            <AltitudeMeters>648.5999755859375</AltitudeMeters>
            <DistanceMeters>51337.158462045</DistanceMeters>
          </Trackpoint>
          <Trackpoint>
            <Time>2018-08-26T07:41:19.000Z</Time>
            <Position>
              <LatitudeDegrees>43.03558808751404285430908203125</LatitudeDegrees>
              <LongitudeDegrees>-1.75597493536770343780517578125</LongitudeDegrees>
            </Position>
            <AltitudeMeters>648.79998779296875</AltitudeMeters>
            <DistanceMeters>51342.57748489</DistanceMeters>
          </Trackpoint>
          <Trackpoint>
            <Time>2018-08-26T07:41:20.000Z</Time>
            <Position>
              <LatitudeDegrees>43.03561541251838207244873046875</LatitudeDegrees>
              <LongitudeDegrees>-1.7560276575386524200439453125</LongitudeDegrees>
            </Position>
            <AltitudeMeters>649</AltitudeMeters>
            <DistanceMeters>51347.835820566</DistanceMeters>
          </Trackpoint>
          <Trackpoint>
            <Time>2018-08-26T07:41:21.000Z</Time>
            <Position>
              <LatitudeDegrees>43.035642988979816436767578125</LatitudeDegrees>
              <LongitudeDegrees>-1.75608172081410884857177734375</LongitudeDegrees>
            </Position>
            <AltitudeMeters>649.4000244140625</AltitudeMeters>
            <DistanceMeters>51353.19957145</DistanceMeters>
          </Trackpoint>
          <Trackpoint>
            <Time>2018-08-26T07:41:22.000Z</Time>
            <Position>
              <LatitudeDegrees>43.0356723256409168243408203125</LatitudeDegrees>
              <LongitudeDegrees>-1.7561349458992481231689453125</LongitudeDegrees>
            </Position>
            <AltitudeMeters>649.4000244140625</AltitudeMeters>
            <DistanceMeters>51358.622758611</DistanceMeters>
          </Trackpoint>
          <Trackpoint>
            <Time>2018-08-26T07:41:23.000Z</Time>
            <Position>
              <LatitudeDegrees>43.03570509888231754302978515625</LatitudeDegrees>
              <LongitudeDegrees>-1.75618398003280162811279296875</LongitudeDegrees>
            </Position>
            <AltitudeMeters>649.5999755859375</AltitudeMeters>
            <DistanceMeters>51364.027598784</DistanceMeters>
          </Trackpoint>
          <Trackpoint>
            <Time>2018-08-26T07:41:24.000Z</Time>
            <Position>
              <LatitudeDegrees>43.03573879413306713104248046875</LatitudeDegrees>
              <LongitudeDegrees>-1.75623158924281597137451171875</LongitudeDegrees>
            </Position>
            <AltitudeMeters>649.5999755859375</AltitudeMeters>
            <DistanceMeters>51369.419893856</DistanceMeters>
          </Trackpoint>
          <Trackpoint>
            <Time>2018-08-26T07:41:25.000Z</Time>
            <Position>
              <LatitudeDegrees>43.0357749201357364654541015625</LatitudeDegrees>
              <LongitudeDegrees>-1.75627869553864002227783203125</LongitudeDegrees>
            </Position>
            <AltitudeMeters>649.79998779296875</AltitudeMeters>
            <DistanceMeters>51374.974690991</DistanceMeters>
          </Trackpoint>
          <Trackpoint>
            <Time>2018-08-26T07:41:26.000Z</Time>
            <Position>
              <LatitudeDegrees>43.0358138121664524078369140625</LatitudeDegrees>
              <LongitudeDegrees>-1.7563193477690219879150390625</LongitudeDegrees>
            </Position>
            <AltitudeMeters>650</AltitudeMeters>
            <DistanceMeters>51380.421968402</DistanceMeters>
          </Trackpoint>
          <Trackpoint>
            <Time>2018-08-26T07:41:27.000Z</Time>
            <Position>
              <LatitudeDegrees>43.0358572304248809814453125</LatitudeDegrees>
              <LongitudeDegrees>-1.7563533782958984375</LongitudeDegrees>
            </Position>
            <AltitudeMeters>650.20001220703125</AltitudeMeters>
            <DistanceMeters>51385.991377041</DistanceMeters>
          </Trackpoint>
          <Trackpoint>
            <Time>2018-08-26T07:41:28.000Z</Time>
            <Position>
              <LatitudeDegrees>43.0359009839594364166259765625</LatitudeDegrees>
              <LongitudeDegrees>-1.7563850618898868560791015625</LongitudeDegrees>
            </Position>
            <AltitudeMeters>650.4000244140625</AltitudeMeters>
            <DistanceMeters>51391.502107218</DistanceMeters>
          </Trackpoint>
          <Trackpoint>
            <Time>2018-08-26T07:41:29.000Z</Time>
            <Position>
              <LatitudeDegrees>43.03594482131302356719970703125</LatitudeDegrees>
              <LongitudeDegrees>-1.75641263835132122039794921875</LongitudeDegrees>
            </Position>
            <AltitudeMeters>650.79998779296875</AltitudeMeters>
            <DistanceMeters>51396.872588031</DistanceMeters>
          </Trackpoint>
          <Trackpoint>
            <Time>2018-08-26T07:41:30.000Z</Time>
            <Position>
              <LatitudeDegrees>43.03599025122821331024169921875</LatitudeDegrees>
              <LongitudeDegrees>-1.75643409602344036102294921875</LongitudeDegrees>
            </Position>
            <AltitudeMeters>650.79998779296875</AltitudeMeters>
            <DistanceMeters>51402.222009705</DistanceMeters>
          </Trackpoint>
          <Trackpoint>
            <Time>2018-08-26T07:41:31.000Z</Time>
            <Position>
              <LatitudeDegrees>43.03603601641952991485595703125</LatitudeDegrees>
              <LongitudeDegrees>-1.756451614201068878173828125</LongitudeDegrees>
            </Position>
            <AltitudeMeters>650.79998779296875</AltitudeMeters>
            <DistanceMeters>51407.511166237</DistanceMeters>
          </Trackpoint>
          <Trackpoint>
            <Time>2018-08-26T07:41:32.000Z</Time>
            <Position>
              <LatitudeDegrees>43.03608295507729053497314453125</LatitudeDegrees>
              <LongitudeDegrees>-1.75646695308387279510498046875</LongitudeDegrees>
            </Position>
            <AltitudeMeters>651</AltitudeMeters>
            <DistanceMeters>51412.883328215</DistanceMeters>
          </Trackpoint>
          <Trackpoint>
            <Time>2018-08-26T07:41:33.000Z</Time>
            <Position>
              <LatitudeDegrees>43.03613307885825634002685546875</LatitudeDegrees>
              <LongitudeDegrees>-1.75647600553929805755615234375</LongitudeDegrees>
            </Position>
            <AltitudeMeters>651</AltitudeMeters>
            <DistanceMeters>51418.510803501</DistanceMeters>
          </Trackpoint>
          <Trackpoint>
            <Time>2018-08-26T07:41:34.000Z</Time>
            <Position>
              <LatitudeDegrees>43.0361819453537464141845703125</LatitudeDegrees>
              <LongitudeDegrees>-1.756484471261501312255859375</LongitudeDegrees>
            </Position>
            <AltitudeMeters>651</AltitudeMeters>
            <DistanceMeters>51423.99278256</DistanceMeters>
          </Trackpoint>
          <Trackpoint>
            <Time>2018-08-26T07:41:35.000Z</Time>
            <Position>
              <LatitudeDegrees>43.036229722201824188232421875</LatitudeDegrees>
              <LongitudeDegrees>-1.75649478100240230560302734375</LongitudeDegrees>
            </Position>
            <AltitudeMeters>651</AltitudeMeters>
            <DistanceMeters>51429.376697992</DistanceMeters>
          </Trackpoint>
          <Trackpoint>
            <Time>2018-08-26T07:41:36.000Z</Time>
            <Position>
              <LatitudeDegrees>43.03627691231667995452880859375</LatitudeDegrees>
              <LongitudeDegrees>-1.7565071024000644683837890625</LongitudeDegrees>
            </Position>
            <AltitudeMeters>651</AltitudeMeters>
            <DistanceMeters>51434.723586996</DistanceMeters>
          </Trackpoint>
          <Trackpoint>
            <Time>2018-08-26T07:41:37.000Z</Time>
            <Position>
              <LatitudeDegrees>43.036324940621852874755859375</LatitudeDegrees>
              <LongitudeDegrees>-1.75651540048420429229736328125</LongitudeDegrees>
            </Position>
            <AltitudeMeters>651</AltitudeMeters>
            <DistanceMeters>51440.110855849</DistanceMeters>
          </Trackpoint>
          <Trackpoint>
            <Time>2018-08-26T07:41:38.000Z</Time>
            <Position>
              <LatitudeDegrees>43.0363748967647552490234375</LatitudeDegrees>
              <LongitudeDegrees>-1.75652059726417064666748046875</LongitudeDegrees>
            </Position>
            <AltitudeMeters>651.20001220703125</AltitudeMeters>
            <DistanceMeters>51445.687555883</DistanceMeters>
          </Trackpoint>
          <Trackpoint>
            <Time>2018-08-26T07:41:39.000Z</Time>
            <Position>
              <LatitudeDegrees>43.03642476908862590789794921875</LatitudeDegrees>
              <LongitudeDegrees>-1.75652646459639072418212890625</LongitudeDegrees>
            </Position>
            <AltitudeMeters>651.20001220703125</AltitudeMeters>
            <DistanceMeters>51451.258585657</DistanceMeters>
          </Trackpoint>
          <Trackpoint>
            <Time>2018-08-26T07:41:40.000Z</Time>
            <Position>
              <LatitudeDegrees>43.0364741384983062744140625</LatitudeDegrees>
              <LongitudeDegrees>-1.756530739367008209228515625</LongitudeDegrees>
            </Position>
            <AltitudeMeters>651.20001220703125</AltitudeMeters>
            <DistanceMeters>51456.764397733</DistanceMeters>
          </Trackpoint>
          <Trackpoint>
            <Time>2018-08-26T07:41:41.000Z</Time>
            <Position>
              <LatitudeDegrees>43.03652568720281124114990234375</LatitudeDegrees>
              <LongitudeDegrees>-1.7565305717289447784423828125</LongitudeDegrees>
            </Position>
            <AltitudeMeters>651.20001220703125</AltitudeMeters>
            <DistanceMeters>51462.502311877</DistanceMeters>
          </Trackpoint>
          <Trackpoint>
            <Time>2018-08-26T07:41:42.000Z</Time>
            <Position>
              <LatitudeDegrees>43.03657614625990390777587890625</LatitudeDegrees>
              <LongitudeDegrees>-1.75653149373829364776611328125</LongitudeDegrees>
            </Position>
            <AltitudeMeters>651.20001220703125</AltitudeMeters>
            <DistanceMeters>51468.120151067</DistanceMeters>
          </Trackpoint>
          <Trackpoint>
            <Time>2018-08-26T07:41:43.000Z</Time>
            <Position>
              <LatitudeDegrees>43.0366255156695842742919921875</LatitudeDegrees>
              <LongitudeDegrees>-1.75653518177568912506103515625</LongitudeDegrees>
            </Position>
            <AltitudeMeters>651.20001220703125</AltitudeMeters>
            <DistanceMeters>51473.623502446</DistanceMeters>
          </Trackpoint>
          <Trackpoint>
            <Time>2018-08-26T07:41:44.000Z</Time>
            <Position>
              <LatitudeDegrees>43.0366744659841060638427734375</LatitudeDegrees>
              <LongitudeDegrees>-1.75653778016567230224609375</LongitudeDegrees>
            </Position>
            <AltitudeMeters>651.4000244140625</AltitudeMeters>
            <DistanceMeters>51479.0765788</DistanceMeters>
          </Trackpoint>
          <Trackpoint>
            <Time>2018-08-26T07:41:45.000Z</Time>
            <Position>
              <LatitudeDegrees>43.036722578108310699462890625</LatitudeDegrees>
              <LongitudeDegrees>-1.75654004327952861785888671875</LongitudeDegrees>
            </Position>
            <AltitudeMeters>651.5999755859375</AltitudeMeters>
            <DistanceMeters>51484.434434063</DistanceMeters>
          </Trackpoint>
          <Trackpoint>
            <Time>2018-08-26T07:41:46.000Z</Time>
            <Position>
              <LatitudeDegrees>43.0367716960608959197998046875</LatitudeDegrees>
              <LongitudeDegrees>-1.7565399594604969024658203125</LongitudeDegrees>
            </Position>
            <AltitudeMeters>651.79998779296875</AltitudeMeters>
            <DistanceMeters>51489.901567958</DistanceMeters>
          </Trackpoint>
          <Trackpoint>
            <Time>2018-08-26T07:41:47.000Z</Time>
            <Position>
              <LatitudeDegrees>43.036820478737354278564453125</LatitudeDegrees>
              <LongitudeDegrees>-1.756540797650814056396484375</LongitudeDegrees>
            </Position>
            <AltitudeMeters>652</AltitudeMeters>
            <DistanceMeters>51495.332242839</DistanceMeters>
          </Trackpoint>
          <Trackpoint>
            <Time>2018-08-26T07:41:48.000Z</Time>
            <Position>
              <LatitudeDegrees>43.036868087947368621826171875</LatitudeDegrees>
              <LongitudeDegrees>-1.756542138755321502685546875</LongitudeDegrees>
            </Position>
            <AltitudeMeters>652.4000244140625</AltitudeMeters>
            <DistanceMeters>51500.631633157</DistanceMeters>
          </Trackpoint>
          <Trackpoint>
            <Time>2018-08-26T07:41:49.000Z</Time>
            <Position>
              <LatitudeDegrees>43.0369193851947784423828125</LatitudeDegrees>
              <LongitudeDegrees>-1.75653987564146518707275390625</LongitudeDegrees>
            </Position>
            <AltitudeMeters>652.4000244140625</AltitudeMeters>
            <DistanceMeters>51506.344311712</DistanceMeters>
          </Trackpoint>
          <Trackpoint>
            <Time>2018-08-26T07:41:50.000Z</Time>
            <Position>
              <LatitudeDegrees>43.0369681678712368011474609375</LatitudeDegrees>
              <LongitudeDegrees>-1.75653853453695774078369140625</LongitudeDegrees>
            </Position>
            <AltitudeMeters>652.5999755859375</AltitudeMeters>
            <DistanceMeters>51511.774986593</DistanceMeters>
          </Trackpoint>
          <Trackpoint>
            <Time>2018-08-26T07:41:51.000Z</Time>
            <Position>
              <LatitudeDegrees>43.03701527416706085205078125</LatitudeDegrees>
              <LongitudeDegrees>-1.7565389536321163177490234375</LongitudeDegrees>
            </Position>
            <AltitudeMeters>652.5999755859375</AltitudeMeters>
            <DistanceMeters>51517.017843896</DistanceMeters>
          </Trackpoint>
          <Trackpoint>
            <Time>2018-08-26T07:41:52.000Z</Time>
            <Position>
              <LatitudeDegrees>43.03706145845353603363037109375</LatitudeDegrees>
              <LongitudeDegrees>-1.75653467886149883270263671875</LongitudeDegrees>
            </Position>
            <AltitudeMeters>652.79998779296875</AltitudeMeters>
            <DistanceMeters>51522.170360247</DistanceMeters>
          </Trackpoint>
          <Trackpoint>
            <Time>2018-08-26T07:41:53.000Z</Time>
            <Position>
              <LatitudeDegrees>43.0371076427400112152099609375</LatitudeDegrees>
              <LongitudeDegrees>-1.756524033844470977783203125</LongitudeDegrees>
            </Position>
            <AltitudeMeters>652.79998779296875</AltitudeMeters>
            <DistanceMeters>51527.383855245</DistanceMeters>
          </Trackpoint>
          <Trackpoint>
            <Time>2018-08-26T07:41:54.000Z</Time>
            <Position>
              <LatitudeDegrees>43.037147708237171173095703125</LatitudeDegrees>
              <LongitudeDegrees>-1.75651137717068195343017578125</LongitudeDegrees>
            </Position>
            <AltitudeMeters>653</AltitudeMeters>
            <DistanceMeters>51531.960947919</DistanceMeters>
          </Trackpoint>
          <Trackpoint>
            <Time>2018-08-26T07:41:55.000Z</Time>
            <Position>
              <LatitudeDegrees>43.03719095885753631591796875</LatitudeDegrees>
              <LongitudeDegrees>-1.7564786039292812347412109375</LongitudeDegrees>
            </Position>
            <AltitudeMeters>653</AltitudeMeters>
            <DistanceMeters>51537.464299297</DistanceMeters>
          </Trackpoint>
          <Trackpoint>
            <Time>2018-08-26T07:41:56.000Z</Time>
            <Position>
              <LatitudeDegrees>43.0372340418398380279541015625</LatitudeDegrees>
              <LongitudeDegrees>-1.7564427293837070465087890625</LongitudeDegrees>
            </Position>
            <AltitudeMeters>653.20001220703125</AltitudeMeters>
            <DistanceMeters>51543.078118567</DistanceMeters>
          </Trackpoint>
          <Trackpoint>
            <Time>2018-08-26T07:41:57.000Z</Time>
            <Position>
              <LatitudeDegrees>43.0372749455273151397705078125</LatitudeDegrees>
              <LongitudeDegrees>-1.7564021609723567962646484375</LongitudeDegrees>
            </Position>
            <AltitudeMeters>653.20001220703125</AltitudeMeters>
            <DistanceMeters>51548.701580819</DistanceMeters>
          </Trackpoint>
          <Trackpoint>
            <Time>2018-08-26T07:41:58.000Z</Time>
            <Position>
              <LatitudeDegrees>43.0373148433864116668701171875</LatitudeDegrees>
              <LongitudeDegrees>-1.7563656158745288848876953125</LongitudeDegrees>
            </Position>
            <AltitudeMeters>653.5999755859375</AltitudeMeters>
            <DistanceMeters>51554.045935953</DistanceMeters>
          </Trackpoint>
          <Trackpoint>
            <Time>2018-08-26T07:41:59.000Z</Time>
            <Position>
              <LatitudeDegrees>43.0373513884842395782470703125</LatitudeDegrees>
              <LongitudeDegrees>-1.75632454454898834228515625</LongitudeDegrees>
            </Position>
            <AltitudeMeters>653.79998779296875</AltitudeMeters>
            <DistanceMeters>51559.30942097</DistanceMeters>
          </Trackpoint>
          <Trackpoint>
            <Time>2018-08-26T07:42:00.000Z</Time>
            <Position>
              <LatitudeDegrees>43.03738273680210113525390625</LatitudeDegrees>
              <LongitudeDegrees>-1.75627358257770538330078125</LongitudeDegrees>
            </Position>
            <AltitudeMeters>653.79998779296875</AltitudeMeters>
            <DistanceMeters>51564.728443816</DistanceMeters>
          </Trackpoint>
          <Trackpoint>
            <Time>2018-08-26T07:42:01.000Z</Time>
            <Position>
              <LatitudeDegrees>43.03741551004350185394287109375</LatitudeDegrees>
              <LongitudeDegrees>-1.75622639246284961700439453125</LongitudeDegrees>
            </Position>
            <AltitudeMeters>654</AltitudeMeters>
            <DistanceMeters>51570.024425069</DistanceMeters>
          </Trackpoint>
          <Trackpoint>
            <Time>2018-08-26T07:42:02.000Z</Time>
            <Position>
              <LatitudeDegrees>43.03744954057037830352783203125</LatitudeDegrees>
              <LongitudeDegrees>-1.75617911852896213531494140625</LongitudeDegrees>
            </Position>
            <AltitudeMeters>654.20001220703125</AltitudeMeters>
            <DistanceMeters>51575.42257815</DistanceMeters>
          </Trackpoint>
          <Trackpoint>
            <Time>2018-08-26T07:42:03.000Z</Time>
            <Position>
              <LatitudeDegrees>43.0374821461737155914306640625</LatitudeDegrees>
              <LongitudeDegrees>-1.75612798891961574554443359375</LongitudeDegrees>
            </Position>
            <AltitudeMeters>654.20001220703125</AltitudeMeters>
            <DistanceMeters>51580.942313462</DistanceMeters>
          </Trackpoint>
          <Trackpoint>
            <Time>2018-08-26T07:42:04.000Z</Time>
            <Position>
              <LatitudeDegrees>43.03751525469124317169189453125</LatitudeDegrees>
              <LongitudeDegrees>-1.756080128252506256103515625</LongitudeDegrees>
            </Position>
            <AltitudeMeters>654.4000244140625</AltitudeMeters>
            <DistanceMeters>51586.302696214</DistanceMeters>
          </Trackpoint>
          <Trackpoint>
            <Time>2018-08-26T07:42:05.000Z</Time>
            <Position>
              <LatitudeDegrees>43.03755163215100765228271484375</LatitudeDegrees>
              <LongitudeDegrees>-1.7560373805463314056396484375</LongitudeDegrees>
            </Position>
            <AltitudeMeters>654.79998779296875</AltitudeMeters>
            <DistanceMeters>51591.639442517</DistanceMeters>
          </Trackpoint>
          <Trackpoint>
            <Time>2018-08-26T07:42:06.000Z</Time>
            <Position>
              <LatitudeDegrees>43.03758524358272552490234375</LatitudeDegrees>
              <LongitudeDegrees>-1.75599471665918827056884765625</LongitudeDegrees>
            </Position>
            <AltitudeMeters>655</AltitudeMeters>
            <DistanceMeters>51596.742651357</DistanceMeters>
          </Trackpoint>
          <Trackpoint>
            <Time>2018-08-26T07:42:07.000Z</Time>
            <Position>
              <LatitudeDegrees>43.03761877119541168212890625</LatitudeDegrees>
              <LongitudeDegrees>-1.7559481970965862274169921875</LongitudeDegrees>
            </Position>
            <AltitudeMeters>655.20001220703125</AltitudeMeters>
            <DistanceMeters>51602.058204874</DistanceMeters>
          </Trackpoint>
          <Trackpoint>
            <Time>2018-08-26T07:42:08.000Z</Time>
            <Position>
              <LatitudeDegrees>43.0376528017222881317138671875</LatitudeDegrees>
              <LongitudeDegrees>-1.7559072934091091156005859375</LongitudeDegrees>
            </Position>
            <AltitudeMeters>655.4000244140625</AltitudeMeters>
            <DistanceMeters>51607.099101135</DistanceMeters>
          </Trackpoint>
          <Trackpoint>
            <Time>2018-08-26T07:42:09.000Z</Time>
            <Position>
              <LatitudeDegrees>43.03768255747854709625244140625</LatitudeDegrees>
              <LongitudeDegrees>-1.75586110912263393402099609375</LongitudeDegrees>
            </Position>
            <AltitudeMeters>655.20001220703125</AltitudeMeters>
            <DistanceMeters>51612.107649065</DistanceMeters>
          </Trackpoint>
          <Trackpoint>
            <Time>2018-08-26T07:42:10.000Z</Time>
            <Position>
              <LatitudeDegrees>43.03771390579640865325927734375</LatitudeDegrees>
              <LongitudeDegrees>-1.75581702031195163726806640625</LongitudeDegrees>
            </Position>
            <AltitudeMeters>655.4000244140625</AltitudeMeters>
            <DistanceMeters>51617.112589829</DistanceMeters>
          </Trackpoint>
          <Trackpoint>
            <Time>2018-08-26T07:42:11.000Z</Time>
            <Position>
              <LatitudeDegrees>43.037746846675872802734375</LatitudeDegrees>
              <LongitudeDegrees>-1.7557755298912525177001953125</LongitudeDegrees>
            </Position>
            <AltitudeMeters>655.5999755859375</AltitudeMeters>
            <DistanceMeters>51622.095832771</DistanceMeters>
          </Trackpoint>
          <Trackpoint>
            <Time>2018-08-26T07:42:12.000Z</Time>
            <Position>
              <LatitudeDegrees>43.0377802066504955291748046875</LatitudeDegrees>
              <LongitudeDegrees>-1.75573177635669708251953125</LongitudeDegrees>
            </Position>
            <AltitudeMeters>655.79998779296875</AltitudeMeters>
            <DistanceMeters>51627.238701028</DistanceMeters>
          </Trackpoint>
          <Trackpoint>
            <Time>2018-08-26T07:42:13.000Z</Time>
            <Position>
              <LatitudeDegrees>43.037821948528289794921875</LatitudeDegrees>
              <LongitudeDegrees>-1.75569363869726657867431640625</LongitudeDegrees>
            </Position>
            <AltitudeMeters>656.20001220703125</AltitudeMeters>
            <DistanceMeters>51632.825108119</DistanceMeters>
          </Trackpoint>
          <Trackpoint>
            <Time>2018-08-26T07:42:14.000Z</Time>
            <Position>
              <LatitudeDegrees>43.03786193020641803741455078125</LatitudeDegrees>
              <LongitudeDegrees>-1.75564938224852085113525390625</LongitudeDegrees>
            </Position>
            <AltitudeMeters>656.5999755859375</AltitudeMeters>
            <DistanceMeters>51638.548840934</DistanceMeters>
          </Trackpoint>
          <Trackpoint>
            <Time>2018-08-26T07:42:15.000Z</Time>
            <Position>
              <LatitudeDegrees>43.0379012413322925567626953125</LatitudeDegrees>
              <LongitudeDegrees>-1.75560160540044307708740234375</LongitudeDegrees>
            </Position>
            <AltitudeMeters>656.5999755859375</AltitudeMeters>
            <DistanceMeters>51644.402054584</DistanceMeters>
          </Trackpoint>
          <Trackpoint>
            <Time>2018-08-26T07:42:16.000Z</Time>
            <Position>
              <LatitudeDegrees>43.03794331848621368408203125</LatitudeDegrees>
              <LongitudeDegrees>-1.75556003116071224212646484375</LongitudeDegrees>
            </Position>
            <AltitudeMeters>656.79998779296875</AltitudeMeters>
            <DistanceMeters>51650.179178655</DistanceMeters>
          </Trackpoint>
          <Trackpoint>
            <Time>2018-08-26T07:42:17.000Z</Time>
            <Position>
              <LatitudeDegrees>43.03798564709722995758056640625</LatitudeDegrees>
              <LongitudeDegrees>-1.75552097149193286895751953125</LongitudeDegrees>
            </Position>
            <AltitudeMeters>657</AltitudeMeters>
            <DistanceMeters>51655.861744393</DistanceMeters>
          </Trackpoint>
          <Trackpoint>
            <Time>2018-08-26T07:42:18.000Z</Time>
            <Position>
              <LatitudeDegrees>43.0380259640514850616455078125</LatitudeDegrees>
              <LongitudeDegrees>-1.7554803192615509033203125</LongitudeDegrees>
            </Position>
            <AltitudeMeters>657.20001220703125</AltitudeMeters>
            <DistanceMeters>51661.436015022</DistanceMeters>
          </Trackpoint>
          <Trackpoint>
            <Time>2018-08-26T07:42:19.000Z</Time>
            <Position>
              <LatitudeDegrees>43.038058988749980926513671875</LatitudeDegrees>
              <LongitudeDegrees>-1.75543178804218769073486328125</LongitudeDegrees>
            </Position>
            <AltitudeMeters>657.4000244140625</AltitudeMeters>
            <DistanceMeters>51666.82998446</DistanceMeters>
          </Trackpoint>
          <Trackpoint>
            <Time>2018-08-26T07:42:20.000Z</Time>
            <Position>
              <LatitudeDegrees>43.03808975033462047576904296875</LatitudeDegrees>
              <LongitudeDegrees>-1.75537948496639728546142578125</LongitudeDegrees>
            </Position>
            <AltitudeMeters>657.5999755859375</AltitudeMeters>
            <DistanceMeters>51672.292161002</DistanceMeters>
          </Trackpoint>
          <Trackpoint>
            <Time>2018-08-26T07:42:21.000Z</Time>
            <Position>
              <LatitudeDegrees>43.03811632096767425537109375</LatitudeDegrees>
              <LongitudeDegrees>-1.75533640198409557342529296875</LongitudeDegrees>
            </Position>
            <AltitudeMeters>657.5999755859375</AltitudeMeters>
            <DistanceMeters>51676.877138424</DistanceMeters>
          </Trackpoint>
          <Trackpoint>
            <Time>2018-08-26T07:42:22.000Z</Time>
            <Position>
              <LatitudeDegrees>43.0381409637629985809326171875</LatitudeDegrees>
              <LongitudeDegrees>-1.75528929568827152252197265625</LongitudeDegrees>
            </Position>
            <AltitudeMeters>657.79998779296875</AltitudeMeters>
            <DistanceMeters>51681.588393872</DistanceMeters>
          </Trackpoint>
          <Trackpoint>
            <Time>2018-08-26T07:42:23.000Z</Time>
            <Position>
              <LatitudeDegrees>43.0381607450544834136962890625</LatitudeDegrees>
              <LongitudeDegrees>-1.75523866899311542510986328125</LongitudeDegrees>
            </Position>
            <AltitudeMeters>658</AltitudeMeters>
            <DistanceMeters>51686.25825839</DistanceMeters>
          </Trackpoint>
          <Trackpoint>
            <Time>2018-08-26T07:42:24.000Z</Time>
            <Position>
              <LatitudeDegrees>43.038176000118255615234375</LatitudeDegrees>
              <LongitudeDegrees>-1.75518066622316837310791015625</LongitudeDegrees>
            </Position>
            <AltitudeMeters>658.20001220703125</AltitudeMeters>
            <DistanceMeters>51691.272212201</DistanceMeters>
          </Trackpoint>
          <Trackpoint>
            <Time>2018-08-26T07:42:25.000Z</Time>
            <Position>
              <LatitudeDegrees>43.03818966262042522430419921875</LatitudeDegrees>
              <LongitudeDegrees>-1.75511931069195270538330078125</LongitudeDegrees>
            </Position>
            <AltitudeMeters>658.20001220703125</AltitudeMeters>
            <DistanceMeters>51696.489170165</DistanceMeters>
          </Trackpoint>
          <Trackpoint>
            <Time>2018-08-26T07:42:26.000Z</Time>
            <Position>
              <LatitudeDegrees>43.0382026545703411102294921875</LatitudeDegrees>
              <LongitudeDegrees>-1.7550592124462127685546875</LongitudeDegrees>
            </Position>
            <AltitudeMeters>658.5999755859375</AltitudeMeters>
            <DistanceMeters>51701.587067772</DistanceMeters>
          </Trackpoint>
          <Trackpoint>
            <Time>2018-08-26T07:42:27.000Z</Time>
            <Position>
              <LatitudeDegrees>43.03821397013962268829345703125</LatitudeDegrees>
              <LongitudeDegrees>-1.7549960128962993621826171875</LongitudeDegrees>
            </Position>
            <AltitudeMeters>658.79998779296875</AltitudeMeters>
            <DistanceMeters>51706.879637765</DistanceMeters>
          </Trackpoint>
          <Trackpoint>
            <Time>2018-08-26T07:42:28.000Z</Time>
            <Position>
              <LatitudeDegrees>43.03822570480406284332275390625</LatitudeDegrees>
              <LongitudeDegrees>-1.7549333162605762481689453125</LongitudeDegrees>
            </Position>
            <AltitudeMeters>658.79998779296875</AltitudeMeters>
            <DistanceMeters>51712.144838111</DistanceMeters>
          </Trackpoint>
          <Trackpoint>
            <Time>2018-08-26T07:42:29.000Z</Time>
            <Position>
              <LatitudeDegrees>43.03823710419237613677978515625</LatitudeDegrees>
              <LongitudeDegrees>-1.75486952997744083404541015625</LongitudeDegrees>
            </Position>
            <AltitudeMeters>659.20001220703125</AltitudeMeters>
            <DistanceMeters>51717.486658171</DistanceMeters>
          </Trackpoint>
          <Trackpoint>
            <Time>2018-08-26T07:42:30.000Z</Time>
            <Position>
              <LatitudeDegrees>43.03824883885681629180908203125</LatitudeDegrees>
              <LongitudeDegrees>-1.75480431877076625823974609375</LongitudeDegrees>
            </Position>
            <AltitudeMeters>659.5999755859375</AltitudeMeters>
            <DistanceMeters>51722.950487664</DistanceMeters>
          </Trackpoint>
          <Trackpoint>
            <Time>2018-08-26T07:42:31.000Z</Time>
            <Position>
              <LatitudeDegrees>43.03825839422643184661865234375</LatitudeDegrees>
              <LongitudeDegrees>-1.75473776645958423614501953125</LongitudeDegrees>
            </Position>
            <AltitudeMeters>659.79998779296875</AltitudeMeters>
            <DistanceMeters>51728.468586772</DistanceMeters>
          </Trackpoint>
          <Trackpoint>
            <Time>2018-08-26T07:42:32.000Z</Time>
            <Position>
              <LatitudeDegrees>43.0382687039673328399658203125</LatitudeDegrees>
              <LongitudeDegrees>-1.75466601736843585968017578125</LongitudeDegrees>
            </Position>
            <AltitudeMeters>660</AltitudeMeters>
            <DistanceMeters>51734.418200177</DistanceMeters>
          </Trackpoint>
          <Trackpoint>
            <Time>2018-08-26T07:42:33.000Z</Time>
            <Position>
              <LatitudeDegrees>43.0382801033556461334228515625</LatitudeDegrees>
              <LongitudeDegrees>-1.75459477119147777557373046875</LongitudeDegrees>
            </Position>
            <AltitudeMeters>660.20001220703125</AltitudeMeters>
            <DistanceMeters>51740.351094747</DistanceMeters>
          </Trackpoint>
          <Trackpoint>
            <Time>2018-08-26T07:42:34.000Z</Time>
            <Position>
              <LatitudeDegrees>43.03829058073461055755615234375</LatitudeDegrees>
              <LongitudeDegrees>-1.75452888943254947662353515625</LongitudeDegrees>
            </Position>
            <AltitudeMeters>660.4000244140625</AltitudeMeters>
            <DistanceMeters>51745.836367275</DistanceMeters>
          </Trackpoint>
          <Trackpoint>
            <Time>2018-08-26T07:42:35.000Z</Time>
            <Position>
              <LatitudeDegrees>43.03829980082809925079345703125</LatitudeDegrees>
              <LongitudeDegrees>-1.75446149893105030059814453125</LongitudeDegrees>
            </Position>
            <AltitudeMeters>660.4000244140625</AltitudeMeters>
            <DistanceMeters>51751.413067309</DistanceMeters>
          </Trackpoint>
          <Trackpoint>
            <Time>2018-08-26T07:42:36.000Z</Time>
            <Position>
              <LatitudeDegrees>43.03831078112125396728515625</LatitudeDegrees>
              <LongitudeDegrees>-1.7543962039053440093994140625</LongitudeDegrees>
            </Position>
            <AltitudeMeters>660.5999755859375</AltitudeMeters>
            <DistanceMeters>51756.863659158</DistanceMeters>
          </Trackpoint>
          <Trackpoint>
            <Time>2018-08-26T07:42:37.000Z</Time>
            <Position>
              <LatitudeDegrees>43.03832444362342357635498046875</LatitudeDegrees>
              <LongitudeDegrees>-1.75433023832738399505615234375</LongitudeDegrees>
            </Position>
            <AltitudeMeters>660.5999755859375</AltitudeMeters>
            <DistanceMeters>51762.441168759</DistanceMeters>
          </Trackpoint>
          <Trackpoint>
            <Time>2018-08-26T07:42:38.000Z</Time>
            <Position>
              <LatitudeDegrees>43.03834070451557636260986328125</LatitudeDegrees>
              <LongitudeDegrees>-1.754267625510692596435546875</LongitudeDegrees>
            </Position>
            <AltitudeMeters>660.79998779296875</AltitudeMeters>
            <DistanceMeters>51767.846008932</DistanceMeters>
          </Trackpoint>
          <Trackpoint>
            <Time>2018-08-26T07:42:39.000Z</Time>
            <Position>
              <LatitudeDegrees>43.03835629485547542572021484375</LatitudeDegrees>
              <LongitudeDegrees>-1.75420953892171382904052734375</LongitudeDegrees>
            </Position>
            <AltitudeMeters>661</AltitudeMeters>
            <DistanceMeters>51772.87973464</DistanceMeters>
          </Trackpoint>
          <Trackpoint>
            <Time>2018-08-26T07:42:40.000Z</Time>
            <Position>
              <LatitudeDegrees>43.03837121464312076568603515625</LatitudeDegrees>
              <LongitudeDegrees>-1.7541420646011829376220703125</LongitudeDegrees>
            </Position>
            <AltitudeMeters>661.20001220703125</AltitudeMeters>
            <DistanceMeters>51778.614500408</DistanceMeters>
          </Trackpoint>
          <Trackpoint>
            <Time>2018-08-26T07:42:41.000Z</Time>
            <Position>
              <LatitudeDegrees>43.0383890680968761444091796875</LatitudeDegrees>
              <LongitudeDegrees>-1.75407894887030124664306640625</LongitudeDegrees>
            </Position>
            <AltitudeMeters>661.4000244140625</AltitudeMeters>
            <DistanceMeters>51784.120312484</DistanceMeters>
          </Trackpoint>
          <Trackpoint>
            <Time>2018-08-26T07:42:42.000Z</Time>
            <Position>
              <LatitudeDegrees>43.0384044907987117767333984375</LatitudeDegrees>
              <LongitudeDegrees>-1.7540185153484344482421875</LongitudeDegrees>
            </Position>
            <AltitudeMeters>661.5999755859375</AltitudeMeters>
            <DistanceMeters>51789.32687464</DistanceMeters>
          </Trackpoint>
          <Trackpoint>
            <Time>2018-08-26T07:42:43.000Z</Time>
            <Position>
              <LatitudeDegrees>43.03842351771891117095947265625</LatitudeDegrees>
              <LongitudeDegrees>-1.75395975820720195770263671875</LongitudeDegrees>
            </Position>
            <AltitudeMeters>661.5999755859375</AltitudeMeters>
            <DistanceMeters>51794.554207738</DistanceMeters>
          </Trackpoint>
          <Trackpoint>
            <Time>2018-08-26T07:42:44.000Z</Time>
            <Position>
              <LatitudeDegrees>43.038448579609394073486328125</LatitudeDegrees>
              <LongitudeDegrees>-1.75389706157147884368896484375</LongitudeDegrees>
            </Position>
            <AltitudeMeters>661.79998779296875</AltitudeMeters>
            <DistanceMeters>51800.367171359</DistanceMeters>
          </Trackpoint>
          <Trackpoint>
            <Time>2018-08-26T07:42:45.000Z</Time>
            <Position>
              <LatitudeDegrees>43.03847967647016048431396484375</LatitudeDegrees>
              <LongitudeDegrees>-1.75384308211505413055419921875</LongitudeDegrees>
            </Position>
            <AltitudeMeters>662</AltitudeMeters>
            <DistanceMeters>51805.958425659</DistanceMeters>
          </Trackpoint>
          <Trackpoint>
            <Time>2018-08-26T07:42:46.000Z</Time>
            <Position>
              <LatitudeDegrees>43.03851320408284664154052734375</LatitudeDegrees>
              <LongitudeDegrees>-1.75379522144794464111328125</LongitudeDegrees>
            </Position>
            <AltitudeMeters>662.4000244140625</AltitudeMeters>
            <DistanceMeters>51811.350720732</DistanceMeters>
          </Trackpoint>
          <Trackpoint>
            <Time>2018-08-26T07:42:47.000Z</Time>
            <Position>
              <LatitudeDegrees>43.03854815661907196044921875</LatitudeDegrees>
              <LongitudeDegrees>-1.753755323588848114013671875</LongitudeDegrees>
            </Position>
            <AltitudeMeters>662.5999755859375</AltitudeMeters>
            <DistanceMeters>51816.417525181</DistanceMeters>
          </Trackpoint>
          <Trackpoint>
            <Time>2018-08-26T07:42:48.000Z</Time>
            <Position>
              <LatitudeDegrees>43.03858570754528045654296875</LatitudeDegrees>
              <LongitudeDegrees>-1.75372171215713024139404296875</LongitudeDegrees>
            </Position>
            <AltitudeMeters>662.79998779296875</AltitudeMeters>
            <DistanceMeters>51821.411628818</DistanceMeters>
          </Trackpoint>
          <Trackpoint>
            <Time>2018-08-26T07:42:49.000Z</Time>
            <Position>
              <LatitudeDegrees>43.03862191736698150634765625</LatitudeDegrees>
              <LongitudeDegrees>-1.75369329750537872314453125</LongitudeDegrees>
            </Position>
            <AltitudeMeters>663.20001220703125</AltitudeMeters>
            <DistanceMeters>51826.058231101</DistanceMeters>
          </Trackpoint>
          <Trackpoint>
            <Time>2018-08-26T07:42:50.000Z</Time>
            <Position>
              <LatitudeDegrees>43.03866223432123661041259765625</LatitudeDegrees>
              <LongitudeDegrees>-1.75367158837616443634033203125</LongitudeDegrees>
            </Position>
            <AltitudeMeters>663.4000244140625</AltitudeMeters>
            <DistanceMeters>51830.881246436</DistanceMeters>
          </Trackpoint>
          <Trackpoint>
            <Time>2018-08-26T07:42:51.000Z</Time>
            <Position>
              <LatitudeDegrees>43.03870498202741146087646484375</LatitudeDegrees>
              <LongitudeDegrees>-1.75365465693175792694091796875</LongitudeDegrees>
            </Position>
            <AltitudeMeters>663.79998779296875</AltitudeMeters>
            <DistanceMeters>51835.83449968</DistanceMeters>
          </Trackpoint>
          <Trackpoint>
            <Time>2018-08-26T07:42:52.000Z</Time>
            <Position>
              <LatitudeDegrees>43.0387481488287448883056640625</LatitudeDegrees>
              <LongitudeDegrees>-1.75363554619252681732177734375</LongitudeDegrees>
            </Position>
            <AltitudeMeters>664.20001220703125</AltitudeMeters>
            <DistanceMeters>51840.884344814</DistanceMeters>
          </Trackpoint>
          <Trackpoint>
            <Time>2018-08-26T07:42:53.000Z</Time>
            <Position>
              <LatitudeDegrees>43.03879533894360065460205078125</LatitudeDegrees>
              <LongitudeDegrees>-1.7536227218806743621826171875</LongitudeDegrees>
            </Position>
            <AltitudeMeters>664.4000244140625</AltitudeMeters>
            <DistanceMeters>51846.239671395</DistanceMeters>
          </Trackpoint>
          <Trackpoint>
            <Time>2018-08-26T07:42:54.000Z</Time>
            <Position>
              <LatitudeDegrees>43.03884412162005901336669921875</LatitudeDegrees>
              <LongitudeDegrees>-1.75361157394945621490478515625</LongitudeDegrees>
            </Position>
            <AltitudeMeters>664.79998779296875</AltitudeMeters>
            <DistanceMeters>51851.744663361</DistanceMeters>
          </Trackpoint>
          <Trackpoint>
            <Time>2018-08-26T07:42:55.000Z</Time>
            <Position>
              <LatitudeDegrees>43.03888636641204357147216796875</LatitudeDegrees>
              <LongitudeDegrees>-1.75360319204628467559814453125</LongitudeDegrees>
            </Position>
            <AltitudeMeters>665</AltitudeMeters>
            <DistanceMeters>51856.494098165</DistanceMeters>
          </Trackpoint>
          <Trackpoint>
            <Time>2018-08-26T07:42:56.000Z</Time>
            <Position>
              <LatitudeDegrees>43.03893037140369415283203125</LatitudeDegrees>
              <LongitudeDegrees>-1.75359330140054225921630859375</LongitudeDegrees>
            </Position>
            <AltitudeMeters>665.20001220703125</AltitudeMeters>
            <DistanceMeters>51861.457368109</DistanceMeters>
          </Trackpoint>
          <Trackpoint>
            <Time>2018-08-26T07:42:57.000Z</Time>
            <Position>
              <LatitudeDegrees>43.03897454403340816497802734375</LatitudeDegrees>
              <LongitudeDegrees>-1.75358274020254611968994140625</LongitudeDegrees>
            </Position>
            <AltitudeMeters>665.5999755859375</AltitudeMeters>
            <DistanceMeters>51866.448758788</DistanceMeters>
          </Trackpoint>
          <Trackpoint>
            <Time>2018-08-26T07:42:58.000Z</Time>
            <Position>
              <LatitudeDegrees>43.03902089595794677734375</LatitudeDegrees>
              <LongitudeDegrees>-1.7535764537751674652099609375</LongitudeDegrees>
            </Position>
            <AltitudeMeters>665.79998779296875</AltitudeMeters>
            <DistanceMeters>51871.632725174</DistanceMeters>
          </Trackpoint>
          <Trackpoint>
            <Time>2018-08-26T07:42:59.000Z</Time>
            <Position>
              <LatitudeDegrees>43.0390656553208827972412109375</LatitudeDegrees>
              <LongitudeDegrees>-1.75357519648969173431396484375</LongitudeDegrees>
            </Position>
            <AltitudeMeters>666</AltitudeMeters>
            <DistanceMeters>51876.615968117</DistanceMeters>
          </Trackpoint>
          <Trackpoint>
            <Time>2018-08-26T07:43:00.000Z</Time>
            <Position>
              <LatitudeDegrees>43.03910815156996250152587890625</LatitudeDegrees>
              <LongitudeDegrees>-1.75357452593743801116943359375</LongitudeDegrees>
            </Position>
            <AltitudeMeters>666.20001220703125</AltitudeMeters>
            <DistanceMeters>51881.346351761</DistanceMeters>
          </Trackpoint>
          <Trackpoint>
            <Time>2018-08-26T07:43:01.000Z</Time>
            <Position>
              <LatitudeDegrees>43.0391514860093593597412109375</LatitudeDegrees>
              <LongitudeDegrees>-1.75357888452708721160888671875</LongitudeDegrees>
            </Position>
            <AltitudeMeters>666.5999755859375</AltitudeMeters>
            <DistanceMeters>51886.182455357</DistanceMeters>
          </Trackpoint>
          <Trackpoint>
            <Time>2018-08-26T07:43:02.000Z</Time>
            <Position>
              <LatitudeDegrees>43.03919314406812191009521484375</LatitudeDegrees>
              <LongitudeDegrees>-1.7535920441150665283203125</LongitudeDegrees>
            </Position>
            <AltitudeMeters>666.79998779296875</AltitudeMeters>
            <DistanceMeters>51890.941387141</DistanceMeters>
          </Trackpoint>
          <Trackpoint>
            <Time>2018-08-26T07:43:03.000Z</Time>
            <Position>
              <LatitudeDegrees>43.03923455066978931427001953125</LatitudeDegrees>
              <LongitudeDegrees>-1.7536126635968685150146484375</LongitudeDegrees>
            </Position>
            <AltitudeMeters>667</AltitudeMeters>
            <DistanceMeters>51895.845170738</DistanceMeters>
          </Trackpoint>
          <Trackpoint>
            <Time>2018-08-26T07:43:04.000Z</Time>
            <Position>
              <LatitudeDegrees>43.03927293978631496429443359375</LatitudeDegrees>
              <LongitudeDegrees>-1.75363722257316112518310546875</LongitudeDegrees>
            </Position>
            <AltitudeMeters>667.20001220703125</AltitudeMeters>
            <DistanceMeters>51900.56217279</DistanceMeters>
          </Trackpoint>
          <Trackpoint>
            <Time>2018-08-26T07:43:05.000Z</Time>
            <Position>
              <LatitudeDegrees>43.0393127538263797760009765625</LatitudeDegrees>
              <LongitudeDegrees>-1.75366320647299289703369140625</LongitudeDegrees>
            </Position>
            <AltitudeMeters>667.4000244140625</AltitudeMeters>
            <DistanceMeters>51905.472397236</DistanceMeters>
          </Trackpoint>
          <Trackpoint>
            <Time>2018-08-26T07:43:06.000Z</Time>
            <Position>
              <LatitudeDegrees>43.03935457952320575714111328125</LatitudeDegrees>
              <LongitudeDegrees>-1.7536850832402706146240234375</LongitudeDegrees>
            </Position>
            <AltitudeMeters>667.5999755859375</AltitudeMeters>
            <DistanceMeters>51910.455640178</DistanceMeters>
          </Trackpoint>
          <Trackpoint>
            <Time>2018-08-26T07:43:07.000Z</Time>
            <Position>
              <LatitudeDegrees>43.03939715959131717681884765625</LatitudeDegrees>
              <LongitudeDegrees>-1.75371014513075351715087890625</LongitudeDegrees>
            </Position>
            <AltitudeMeters>667.79998779296875</AltitudeMeters>
            <DistanceMeters>51915.613411519</DistanceMeters>
          </Trackpoint>
          <Trackpoint>
            <Time>2018-08-26T07:43:08.000Z</Time>
            <Position>
              <LatitudeDegrees>43.039440326392650604248046875</LatitudeDegrees>
              <LongitudeDegrees>-1.7537360452115535736083984375</LongitudeDegrees>
            </Position>
            <AltitudeMeters>668</AltitudeMeters>
            <DistanceMeters>51920.859712406</DistanceMeters>
          </Trackpoint>
          <Trackpoint>
            <Time>2018-08-26T07:43:09.000Z</Time>
            <Position>
              <LatitudeDegrees>43.03948248736560344696044921875</LatitudeDegrees>
              <LongitudeDegrees>-1.75376345403492450714111328125</LongitudeDegrees>
            </Position>
            <AltitudeMeters>668.20001220703125</AltitudeMeters>
            <DistanceMeters>51926.055857955</DistanceMeters>
          </Trackpoint>
          <Trackpoint>
            <Time>2018-08-26T07:43:10.000Z</Time>
            <Position>
              <LatitudeDegrees>43.03951752372086048126220703125</LatitudeDegrees>
              <LongitudeDegrees>-1.75379463471472263336181640625</LongitudeDegrees>
            </Position>
            <AltitudeMeters>668.4000244140625</AltitudeMeters>
            <DistanceMeters>51930.707316131</DistanceMeters>
          </Trackpoint>
          <Trackpoint>
            <Time>2018-08-26T07:43:11.000Z</Time>
            <Position>
              <LatitudeDegrees>43.03955742157995700836181640625</LatitudeDegrees>
              <LongitudeDegrees>-1.75382413901388645172119140625</LongitudeDegrees>
            </Position>
            <AltitudeMeters>668.79998779296875</AltitudeMeters>
            <DistanceMeters>51935.754478269</DistanceMeters>
          </Trackpoint>
          <Trackpoint>
            <Time>2018-08-26T07:43:12.000Z</Time>
            <Position>
              <LatitudeDegrees>43.039598576724529266357421875</LatitudeDegrees>
              <LongitudeDegrees>-1.75385448150336742401123046875</LongitudeDegrees>
            </Position>
            <AltitudeMeters>669</AltitudeMeters>
            <DistanceMeters>51940.95757054</DistanceMeters>
          </Trackpoint>
          <Trackpoint>
            <Time>2018-08-26T07:43:13.000Z</Time>
            <Position>
              <LatitudeDegrees>43.03964157588779926300048828125</LatitudeDegrees>
              <LongitudeDegrees>-1.75388499163091182708740234375</LongitudeDegrees>
            </Position>
            <AltitudeMeters>669.4000244140625</AltitudeMeters>
            <DistanceMeters>51946.349028235</DistanceMeters>
          </Trackpoint>
          <Trackpoint>
            <Time>2018-08-26T07:43:14.000Z</Time>
            <Position>
              <LatitudeDegrees>43.03968482650816440582275390625</LatitudeDegrees>
              <LongitudeDegrees>-1.75391466356813907623291015625</LongitudeDegrees>
            </Position>
            <AltitudeMeters>669.5999755859375</AltitudeMeters>
            <DistanceMeters>51951.734620638</DistanceMeters>
          </Trackpoint>
          <Trackpoint>
            <Time>2018-08-26T07:43:15.000Z</Time>
            <Position>
              <LatitudeDegrees>43.0397264845669269561767578125</LatitudeDegrees>
              <LongitudeDegrees>-1.75394416786730289459228515625</LongitudeDegrees>
            </Position>
            <AltitudeMeters>669.79998779296875</AltitudeMeters>
            <DistanceMeters>51956.95590408</DistanceMeters>
          </Trackpoint>
          <Trackpoint>
            <Time>2018-08-26T07:43:16.000Z</Time>
            <Position>
              <LatitudeDegrees>43.0397683940827846527099609375</LatitudeDegrees>
              <LongitudeDegrees>-1.75397501327097415924072265625</LongitudeDegrees>
            </Position>
            <AltitudeMeters>670.20001220703125</AltitudeMeters>
            <DistanceMeters>51962.251885334</DistanceMeters>
          </Trackpoint>
          <Trackpoint>
            <Time>2018-08-26T07:43:17.000Z</Time>
            <Position>
              <LatitudeDegrees>43.03981021977961063385009765625</LatitudeDegrees>
              <LongitudeDegrees>-1.75400870852172374725341796875</LongitudeDegrees>
            </Position>
            <AltitudeMeters>670.20001220703125</AltitudeMeters>
            <DistanceMeters>51967.654218817</DistanceMeters>
          </Trackpoint>
          <Trackpoint>
            <Time>2018-08-26T07:43:18.000Z</Time>
            <Position>
              <LatitudeDegrees>43.039852716028690338134765625</LatitudeDegrees>
              <LongitudeDegrees>-1.75404860638082027435302734375</LongitudeDegrees>
            </Position>
            <AltitudeMeters>670.4000244140625</AltitudeMeters>
            <DistanceMeters>51973.390558989</DistanceMeters>
          </Trackpoint>
          <Trackpoint>
            <Time>2018-08-26T07:43:19.000Z</Time>
            <Position>
              <LatitudeDegrees>43.03989588283002376556396484375</LatitudeDegrees>
              <LongitudeDegrees>-1.7540884204208850860595703125</LongitudeDegrees>
            </Position>
            <AltitudeMeters>670.79998779296875</AltitudeMeters>
            <DistanceMeters>51979.184851371</DistanceMeters>
          </Trackpoint>
          <Trackpoint>
            <Time>2018-08-26T07:43:20.000Z</Time>
            <Position>
              <LatitudeDegrees>43.03994466550648212432861328125</LatitudeDegrees>
              <LongitudeDegrees>-1.75411314703524112701416015625</LongitudeDegrees>
            </Position>
            <AltitudeMeters>670.79998779296875</AltitudeMeters>
            <DistanceMeters>51984.974466537</DistanceMeters>
          </Trackpoint>
          <Trackpoint>
            <Time>2018-08-26T07:43:21.000Z</Time>
            <Position>
              <LatitudeDegrees>43.0399916879832744598388671875</LatitudeDegrees>
              <LongitudeDegrees>-1.75414390861988067626953125</LongitudeDegrees>
            </Position>
            <AltitudeMeters>671.20001220703125</AltitudeMeters>
            <DistanceMeters>51990.774989343</DistanceMeters>
          </Trackpoint>
          <Trackpoint>
            <Time>2018-08-26T07:43:22.000Z</Time>
            <Position>
              <LatitudeDegrees>43.04003544151782989501953125</LatitudeDegrees>
              <LongitudeDegrees>-1.7541821300983428955078125</LongitudeDegrees>
            </Position>
            <AltitudeMeters>671.5999755859375</AltitudeMeters>
            <DistanceMeters>51996.553676278</DistanceMeters>
          </Trackpoint>
          <Trackpoint>
            <Time>2018-08-26T07:43:23.000Z</Time>
            <Position>
              <LatitudeDegrees>43.04008162580430507659912109375</LatitudeDegrees>
              <LongitudeDegrees>-1.754217334091663360595703125</LongitudeDegrees>
            </Position>
            <AltitudeMeters>672</AltitudeMeters>
            <DistanceMeters>52002.438431427</DistanceMeters>
          </Trackpoint>
          <Trackpoint>
            <Time>2018-08-26T07:43:24.000Z</Time>
            <Position>
              <LatitudeDegrees>43.04012797772884368896484375</LatitudeDegrees>
              <LongitudeDegrees>-1.7542553879320621490478515625</LongitudeDegrees>
            </Position>
            <AltitudeMeters>672.4000244140625</AltitudeMeters>
            <DistanceMeters>52008.454455561</DistanceMeters>
          </Trackpoint>
          <Trackpoint>
            <Time>2018-08-26T07:43:25.000Z</Time>
            <Position>
              <LatitudeDegrees>43.04017382673919200897216796875</LatitudeDegrees>
              <LongitudeDegrees>-1.75429319031536579132080078125</LongitudeDegrees>
            </Position>
            <AltitudeMeters>672.5999755859375</AltitudeMeters>
            <DistanceMeters>52014.413168558</DistanceMeters>
          </Trackpoint>
          <Trackpoint>
            <Time>2018-08-26T07:43:26.000Z</Time>
            <Position>
              <LatitudeDegrees>43.04022026248276233673095703125</LatitudeDegrees>
              <LongitudeDegrees>-1.754328310489654541015625</LongitudeDegrees>
            </Position>
            <AltitudeMeters>672.79998779296875</AltitudeMeters>
            <DistanceMeters>52020.318602939</DistanceMeters>
          </Trackpoint>
          <Trackpoint>
            <Time>2018-08-26T07:43:27.000Z</Time>
            <Position>
              <LatitudeDegrees>43.04026837460696697235107421875</LatitudeDegrees>
              <LongitudeDegrees>-1.75436058081686496734619140625</LongitudeDegrees>
            </Position>
            <AltitudeMeters>672.79998779296875</AltitudeMeters>
            <DistanceMeters>52026.281860525</DistanceMeters>
          </Trackpoint>
          <Trackpoint>
            <Time>2018-08-26T07:43:28.000Z</Time>
            <Position>
              <LatitudeDegrees>43.040316402912139892578125</LatitudeDegrees>
              <LongitudeDegrees>-1.7543900012969970703125</LongitudeDegrees>
            </Position>
            <AltitudeMeters>673</AltitudeMeters>
            <DistanceMeters>52032.138929793</DistanceMeters>
          </Trackpoint>
          <Trackpoint>
            <Time>2018-08-26T07:43:29.000Z</Time>
            <Position>
              <LatitudeDegrees>43.04036644287407398223876953125</LatitudeDegrees>
              <LongitudeDegrees>-1.75441539846360683441162109375</LongitudeDegrees>
            </Position>
            <AltitudeMeters>673</AltitudeMeters>
            <DistanceMeters>52038.079429666</DistanceMeters>
          </Trackpoint>
          <Trackpoint>
            <Time>2018-08-26T07:43:30.000Z</Time>
            <Position>
              <LatitudeDegrees>43.0404169857501983642578125</LatitudeDegrees>
              <LongitudeDegrees>-1.754440627992153167724609375</LongitudeDegrees>
            </Position>
            <AltitudeMeters>673</AltitudeMeters>
            <DistanceMeters>52044.066866804</DistanceMeters>
          </Trackpoint>
          <Trackpoint>
            <Time>2018-08-26T07:43:31.000Z</Time>
            <Position>
              <LatitudeDegrees>43.04046861827373504638671875</LatitudeDegrees>
              <LongitudeDegrees>-1.75446401350200176239013671875</LongitudeDegrees>
            </Position>
            <AltitudeMeters>673</AltitudeMeters>
            <DistanceMeters>52050.120299732</DistanceMeters>
          </Trackpoint>
          <Trackpoint>
            <Time>2018-08-26T07:43:32.000Z</Time>
            <Position>
              <LatitudeDegrees>43.0405189096927642822265625</LatitudeDegrees>
              <LongitudeDegrees>-1.75448697991669178009033203125</LongitudeDegrees>
            </Position>
            <AltitudeMeters>673.20001220703125</AltitudeMeters>
            <DistanceMeters>52056.022675094</DistanceMeters>
          </Trackpoint>
          <Trackpoint>
            <Time>2018-08-26T07:43:33.000Z</Time>
            <Position>
              <LatitudeDegrees>43.0405697040259838104248046875</LatitudeDegrees>
              <LongitudeDegrees>-1.754511035978794097900390625</LongitudeDegrees>
            </Position>
            <AltitudeMeters>673.20001220703125</AltitudeMeters>
            <DistanceMeters>52062.006340618</DistanceMeters>
          </Trackpoint>
          <Trackpoint>
            <Time>2018-08-26T07:43:34.000Z</Time>
            <Position>
              <LatitudeDegrees>43.04062225855886936187744140625</LatitudeDegrees>
              <LongitudeDegrees>-1.75453341566026210784912109375</LongitudeDegrees>
            </Position>
            <AltitudeMeters>673</AltitudeMeters>
            <DistanceMeters>52068.13243217</DistanceMeters>
          </Trackpoint>
          <Trackpoint>
            <Time>2018-08-26T07:43:35.000Z</Time>
            <Position>
              <LatitudeDegrees>43.04067992605268955230712890625</LatitudeDegrees>
              <LongitudeDegrees>-1.7545470781624317169189453125</LongitudeDegrees>
            </Position>
            <AltitudeMeters>673</AltitudeMeters>
            <DistanceMeters>52074.645749231</DistanceMeters>
          </Trackpoint>
          <Trackpoint>
            <Time>2018-08-26T07:43:36.000Z</Time>
            <Position>
              <LatitudeDegrees>43.040737845003604888916015625</LatitudeDegrees>
              <LongitudeDegrees>-1.75456023775041103363037109375</LongitudeDegrees>
            </Position>
            <AltitudeMeters>673.4000244140625</AltitudeMeters>
            <DistanceMeters>52081.179829229</DistanceMeters>
          </Trackpoint>
          <Trackpoint>
            <Time>2018-08-26T07:43:37.000Z</Time>
            <Position>
              <LatitudeDegrees>43.0407929979264736175537109375</LatitudeDegrees>
              <LongitudeDegrees>-1.75457716919481754302978515625</LongitudeDegrees>
            </Position>
            <AltitudeMeters>673.20001220703125</AltitudeMeters>
            <DistanceMeters>52087.470999633</DistanceMeters>
          </Trackpoint>
          <Trackpoint>
            <Time>2018-08-26T07:43:38.000Z</Time>
            <Position>
              <LatitudeDegrees>43.040845803916454315185546875</LatitudeDegrees>
              <LongitudeDegrees>-1.75459778867661952972412109375</LongitudeDegrees>
            </Position>
            <AltitudeMeters>673.20001220703125</AltitudeMeters>
            <DistanceMeters>52093.583071806</DistanceMeters>
          </Trackpoint>
          <Trackpoint>
            <Time>2018-08-26T07:43:39.000Z</Time>
            <Position>
              <LatitudeDegrees>43.04089819081127643585205078125</LatitudeDegrees>
              <LongitudeDegrees>-1.7546205036342144012451171875</LongitudeDegrees>
            </Position>
            <AltitudeMeters>673.20001220703125</AltitudeMeters>
            <DistanceMeters>52099.698836405</DistanceMeters>
          </Trackpoint>
          <Trackpoint>
            <Time>2018-08-26T07:43:40.000Z</Time>
            <Position>
              <LatitudeDegrees>43.04095007479190826416015625</LatitudeDegrees>
              <LongitudeDegrees>-1.75464548170566558837890625</LongitudeDegrees>
            </Position>
            <AltitudeMeters>673.4000244140625</AltitudeMeters>
            <DistanceMeters>52105.820504254</DistanceMeters>
          </Trackpoint>
          <Trackpoint>
            <Time>2018-08-26T07:43:41.000Z</Time>
            <Position>
              <LatitudeDegrees>43.04100078530609607696533203125</LatitudeDegrees>
              <LongitudeDegrees>-1.75467439927160739898681640625</LongitudeDegrees>
            </Position>
            <AltitudeMeters>673.4000244140625</AltitudeMeters>
            <DistanceMeters>52111.93479215</DistanceMeters>
          </Trackpoint>
          <Trackpoint>
            <Time>2018-08-26T07:43:42.000Z</Time>
            <Position>
              <LatitudeDegrees>43.0410511605441570281982421875</LatitudeDegrees>
              <LongitudeDegrees>-1.7547078430652618408203125</LongitudeDegrees>
            </Position>
            <AltitudeMeters>673.5999755859375</AltitudeMeters>
            <DistanceMeters>52118.166110526</DistanceMeters>
          </Trackpoint>
          <Trackpoint>
            <Time>2018-08-26T07:43:43.000Z</Time>
            <Position>
              <LatitudeDegrees>43.041098602116107940673828125</LatitudeDegrees>
              <LongitudeDegrees>-1.7547479085624217987060546875</LongitudeDegrees>
            </Position>
            <AltitudeMeters>673.5999755859375</AltitudeMeters>
            <DistanceMeters>52124.371289489</DistanceMeters>
          </Trackpoint>
          <Trackpoint>
            <Time>2018-08-26T07:43:44.000Z</Time>
            <Position>
              <LatitudeDegrees>43.0411477200686931610107421875</LatitudeDegrees>
              <LongitudeDegrees>-1.7547908239066600799560546875</LongitudeDegrees>
            </Position>
            <AltitudeMeters>673.5999755859375</AltitudeMeters>
            <DistanceMeters>52130.858211427</DistanceMeters>
          </Trackpoint>
          <Trackpoint>
            <Time>2018-08-26T07:43:45.000Z</Time>
            <Position>
              <LatitudeDegrees>43.04119809530675411224365234375</LatitudeDegrees>
              <LongitudeDegrees>-1.7548339068889617919921875</LongitudeDegrees>
            </Position>
            <AltitudeMeters>673.5999755859375</AltitudeMeters>
            <DistanceMeters>52137.469230258</DistanceMeters>
          </Trackpoint>
          <Trackpoint>
            <Time>2018-08-26T07:43:46.000Z</Time>
            <Position>
              <LatitudeDegrees>43.0412503145635128021240234375</LatitudeDegrees>
              <LongitudeDegrees>-1.75487791188061237335205078125</LongitudeDegrees>
            </Position>
            <AltitudeMeters>673.79998779296875</AltitudeMeters>
            <DistanceMeters>52144.295297534</DistanceMeters>
          </Trackpoint>
          <Trackpoint>
            <Time>2018-08-26T07:43:47.000Z</Time>
            <Position>
              <LatitudeDegrees>43.04130169562995433807373046875</LatitudeDegrees>
              <LongitudeDegrees>-1.75492552109062671661376953125</LongitudeDegrees>
            </Position>
            <AltitudeMeters>673.79998779296875</AltitudeMeters>
            <DistanceMeters>52151.202896533</DistanceMeters>
          </Trackpoint>
          <Trackpoint>
            <Time>2018-08-26T07:43:48.000Z</Time>
            <Position>
              <LatitudeDegrees>43.041351400315761566162109375</LatitudeDegrees>
              <LongitudeDegrees>-1.75497614778578281402587890625</LongitudeDegrees>
            </Position>
            <AltitudeMeters>673.79998779296875</AltitudeMeters>
            <DistanceMeters>52158.09937481</DistanceMeters>
          </Trackpoint>
          <Trackpoint>
            <Time>2018-08-26T07:43:49.000Z</Time>
            <Position>
              <LatitudeDegrees>43.041400350630283355712890625</LatitudeDegrees>
              <LongitudeDegrees>-1.755028702318668365478515625</LongitudeDegrees>
            </Position>
            <AltitudeMeters>673.79998779296875</AltitudeMeters>
            <DistanceMeters>52165.025251366</DistanceMeters>
          </Trackpoint>
          <Trackpoint>
            <Time>2018-08-26T07:43:50.000Z</Time>
            <Position>
              <LatitudeDegrees>43.04144955240190029144287109375</LatitudeDegrees>
              <LongitudeDegrees>-1.75508025102317333221435546875</LongitudeDegrees>
            </Position>
            <AltitudeMeters>673.79998779296875</AltitudeMeters>
            <DistanceMeters>52171.9223843</DistanceMeters>
          </Trackpoint>
          <Trackpoint>
            <Time>2018-08-26T07:43:51.000Z</Time>
            <Position>
              <LatitudeDegrees>43.04149850271642208099365234375</LatitudeDegrees>
              <LongitudeDegrees>-1.75512769259512424468994140625</LongitudeDegrees>
            </Position>
            <AltitudeMeters>673.79998779296875</AltitudeMeters>
            <DistanceMeters>52178.599321278</DistanceMeters>
          </Trackpoint>
          <Trackpoint>
            <Time>2018-08-26T07:43:52.000Z</Time>
            <Position>
              <LatitudeDegrees>43.0415470339357852935791015625</LatitudeDegrees>
              <LongitudeDegrees>-1.7551799118518829345703125</LongitudeDegrees>
            </Position>
            <AltitudeMeters>673.79998779296875</AltitudeMeters>
            <DistanceMeters>52185.471533425</DistanceMeters>
          </Trackpoint>
          <Trackpoint>
            <Time>2018-08-26T07:43:53.000Z</Time>
            <Position>
              <LatitudeDegrees>43.04159690625965595245361328125</LatitudeDegrees>
              <LongitudeDegrees>-1.7552260123193264007568359375</LongitudeDegrees>
            </Position>
            <AltitudeMeters>673.79998779296875</AltitudeMeters>
            <DistanceMeters>52192.17142223</DistanceMeters>
          </Trackpoint>
          <Trackpoint>
            <Time>2018-08-26T07:43:54.000Z</Time>
            <Position>
              <LatitudeDegrees>43.04164853878319263458251953125</LatitudeDegrees>
              <LongitudeDegrees>-1.75526984967291355133056640625</LongitudeDegrees>
            </Position>
            <AltitudeMeters>673.79998779296875</AltitudeMeters>
            <DistanceMeters>52198.935028315</DistanceMeters>
          </Trackpoint>
          <Trackpoint>
            <Time>2018-08-26T07:43:55.000Z</Time>
            <Position>
              <LatitudeDegrees>43.04170000366866588592529296875</LatitudeDegrees>
              <LongitudeDegrees>-1.75531041808426380157470703125</LongitudeDegrees>
            </Position>
            <AltitudeMeters>674</AltitudeMeters>
            <DistanceMeters>52205.544681092</DistanceMeters>
          </Trackpoint>
          <Trackpoint>
            <Time>2018-08-26T07:43:56.000Z</Time>
            <Position>
              <LatitudeDegrees>43.0417565815150737762451171875</LatitudeDegrees>
              <LongitudeDegrees>-1.7553400062024593353271484375</LongitudeDegrees>
            </Position>
            <AltitudeMeters>673.79998779296875</AltitudeMeters>
            <DistanceMeters>52212.286222069</DistanceMeters>
          </Trackpoint>
          <Trackpoint>
            <Time>2018-08-26T07:43:57.000Z</Time>
            <Position>
              <LatitudeDegrees>43.041816093027591705322265625</LatitudeDegrees>
              <LongitudeDegrees>-1.75536439754068851470947265625</LongitudeDegrees>
            </Position>
            <AltitudeMeters>673.79998779296875</AltitudeMeters>
            <DistanceMeters>52219.200354313</DistanceMeters>
          </Trackpoint>
          <Trackpoint>
            <Time>2018-08-26T07:43:58.000Z</Time>
            <Position>
              <LatitudeDegrees>43.04187669418752193450927734375</LatitudeDegrees>
              <LongitudeDegrees>-1.75538401119410991668701171875</LongitudeDegrees>
            </Position>
            <AltitudeMeters>673.79998779296875</AltitudeMeters>
            <DistanceMeters>52226.132095564</DistanceMeters>
          </Trackpoint>
          <Trackpoint>
            <Time>2018-08-26T07:43:59.000Z</Time>
            <Position>
              <LatitudeDegrees>43.04193846881389617919921875</LatitudeDegrees>
              <LongitudeDegrees>-1.7553986795246601104736328125</LongitudeDegrees>
            </Position>
            <AltitudeMeters>673.79998779296875</AltitudeMeters>
            <DistanceMeters>52233.110576936</DistanceMeters>
          </Trackpoint>
          <Trackpoint>
            <Time>2018-08-26T07:44:00.000Z</Time>
            <Position>
              <LatitudeDegrees>43.04200158454477787017822265625</LatitudeDegrees>
              <LongitudeDegrees>-1.7554084025323390960693359375</LongitudeDegrees>
            </Position>
            <AltitudeMeters>673.79998779296875</AltitudeMeters>
            <DistanceMeters>52240.17905718</DistanceMeters>
          </Trackpoint>
          <Trackpoint>
            <Time>2018-08-26T07:44:01.000Z</Time>
            <Position>
              <LatitudeDegrees>43.04206453263759613037109375</LatitudeDegrees>
              <LongitudeDegrees>-1.755416281521320343017578125</LongitudeDegrees>
            </Position>
            <AltitudeMeters>673.79998779296875</AltitudeMeters>
            <DistanceMeters>52247.214243673</DistanceMeters>
          </Trackpoint>
          <Trackpoint>
            <Time>2018-08-26T07:44:02.000Z</Time>
            <Position>
              <LatitudeDegrees>43.0421284027397632598876953125</LatitudeDegrees>
              <LongitudeDegrees>-1.7554213106632232666015625</LongitudeDegrees>
            </Position>
            <AltitudeMeters>673.79998779296875</AltitudeMeters>
            <DistanceMeters>52254.334909318</DistanceMeters>
          </Trackpoint>
          <Trackpoint>
            <Time>2018-08-26T07:44:03.000Z</Time>
            <Position>
              <LatitudeDegrees>43.04219353012740612030029296875</LatitudeDegrees>
              <LongitudeDegrees>-1.75542457960546016693115234375</LongitudeDegrees>
            </Position>
            <AltitudeMeters>673.5999755859375</AltitudeMeters>
            <DistanceMeters>52261.588753502</DistanceMeters>
          </Trackpoint>
          <Trackpoint>
            <Time>2018-08-26T07:44:04.000Z</Time>
            <Position>
              <LatitudeDegrees>43.0422578193247318267822265625</LatitudeDegrees>
              <LongitudeDegrees>-1.75542575307190418243408203125</LongitudeDegrees>
            </Position>
            <AltitudeMeters>673.5999755859375</AltitudeMeters>
            <DistanceMeters>52268.745470178</DistanceMeters>
          </Trackpoint>
          <Trackpoint>
            <Time>2018-08-26T07:44:05.000Z</Time>
            <Position>
              <LatitudeDegrees>43.0423221923410892486572265625</LatitudeDegrees>
              <LongitudeDegrees>-1.7554271779954433441162109375</LongitudeDegrees>
            </Position>
            <AltitudeMeters>673.5999755859375</AltitudeMeters>
            <DistanceMeters>52275.912273846</DistanceMeters>
          </Trackpoint>
          <Trackpoint>
            <Time>2018-08-26T07:44:06.000Z</Time>
            <Position>
              <LatitudeDegrees>43.04238581098616123199462890625</LatitudeDegrees>
              <LongitudeDegrees>-1.755430698394775390625</LongitudeDegrees>
            </Position>
            <AltitudeMeters>673.5999755859375</AltitudeMeters>
            <DistanceMeters>52282.999253822</DistanceMeters>
          </Trackpoint>
          <Trackpoint>
            <Time>2018-08-26T07:44:07.000Z</Time>
            <Position>
              <LatitudeDegrees>43.04244867525994777679443359375</LatitudeDegrees>
              <LongitudeDegrees>-1.75543430261313915252685546875</LongitudeDegrees>
            </Position>
            <AltitudeMeters>673.5999755859375</AltitudeMeters>
            <DistanceMeters>52290.002922521</DistanceMeters>
          </Trackpoint>
          <Trackpoint>
            <Time>2018-08-26T07:44:08.000Z</Time>
            <Position>
              <LatitudeDegrees>43.04251112043857574462890625</LatitudeDegrees>
              <LongitudeDegrees>-1.755437739193439483642578125</LongitudeDegrees>
            </Position>
            <AltitudeMeters>673.79998779296875</AltitudeMeters>
            <DistanceMeters>52296.95872223</DistanceMeters>
          </Trackpoint>
          <Trackpoint>
            <Time>2018-08-26T07:44:09.000Z</Time>
            <Position>
              <LatitudeDegrees>43.0425726436078548431396484375</LatitudeDegrees>
              <LongitudeDegrees>-1.75544285215437412261962890625</LongitudeDegrees>
            </Position>
            <AltitudeMeters>673.79998779296875</AltitudeMeters>
            <DistanceMeters>52303.819098198</DistanceMeters>
          </Trackpoint>
          <Trackpoint>
            <Time>2018-08-26T07:44:10.000Z</Time>
            <Position>
              <LatitudeDegrees>43.0426343344151973724365234375</LatitudeDegrees>
              <LongitudeDegrees>-1.75544553436338901519775390625</LongitudeDegrees>
            </Position>
            <AltitudeMeters>673.79998779296875</AltitudeMeters>
            <DistanceMeters>52310.688681846</DistanceMeters>
          </Trackpoint>
          <Trackpoint>
            <Time>2018-08-26T07:44:11.000Z</Time>
            <Position>
              <LatitudeDegrees>43.042695857584476470947265625</LatitudeDegrees>
              <LongitudeDegrees>-1.75544855184853076934814453125</LongitudeDegrees>
            </Position>
            <AltitudeMeters>673.79998779296875</AltitudeMeters>
            <DistanceMeters>52317.540496747</DistanceMeters>
          </Trackpoint>
          <Trackpoint>
            <Time>2018-08-26T07:44:12.000Z</Time>
            <Position>
              <LatitudeDegrees>43.0427478253841400146484375</LatitudeDegrees>
              <LongitudeDegrees>-1.755461879074573516845703125</LongitudeDegrees>
            </Position>
            <AltitudeMeters>673.79998779296875</AltitudeMeters>
            <DistanceMeters>52323.424484602</DistanceMeters>
          </Trackpoint>
          <Trackpoint>
            <Time>2018-08-26T07:44:13.000Z</Time>
            <Position>
              <LatitudeDegrees>43.04280088283121585845947265625</LatitudeDegrees>
              <LongitudeDegrees>-1.7554788105189800262451171875</LongitudeDegrees>
            </Position>
            <AltitudeMeters>673.79998779296875</AltitudeMeters>
            <DistanceMeters>52329.488350637</DistanceMeters>
          </Trackpoint>
          <Trackpoint>
            <Time>2018-08-26T07:44:14.000Z</Time>
            <Position>
              <LatitudeDegrees>43.04285922087728977203369140625</LatitudeDegrees>
              <LongitudeDegrees>-1.7554895393550395965576171875</LongitudeDegrees>
            </Position>
            <AltitudeMeters>673.79998779296875</AltitudeMeters>
            <DistanceMeters>52336.038993602</DistanceMeters>
          </Trackpoint>
          <Trackpoint>
            <Time>2018-08-26T07:44:15.000Z</Time>
            <Position>
              <LatitudeDegrees>43.04291856475174427032470703125</LatitudeDegrees>
              <LongitudeDegrees>-1.75550269894301891326904296875</LongitudeDegrees>
            </Position>
            <AltitudeMeters>673.79998779296875</AltitudeMeters>
            <DistanceMeters>52342.730116005</DistanceMeters>
          </Trackpoint>
          <Trackpoint>
            <Time>2018-08-26T07:44:16.000Z</Time>
            <Position>
              <LatitudeDegrees>43.0429763160645961761474609375</LatitudeDegrees>
              <LongitudeDegrees>-1.75551359541714191436767578125</LongitudeDegrees>
            </Position>
            <AltitudeMeters>674</AltitudeMeters>
            <DistanceMeters>52349.218429837</DistanceMeters>
          </Trackpoint>
          <Trackpoint>
            <Time>2018-08-26T07:44:17.000Z</Time>
            <Position>
              <LatitudeDegrees>43.043032474815845489501953125</LatitudeDegrees>
              <LongitudeDegrees>-1.7555234022438526153564453125</LongitudeDegrees>
            </Position>
            <AltitudeMeters>674</AltitudeMeters>
            <DistanceMeters>52355.520356225</DistanceMeters>
          </Trackpoint>
          <Trackpoint>
            <Time>2018-08-26T07:44:18.000Z</Time>
            <Position>
              <LatitudeDegrees>43.04308871738612651824951171875</LatitudeDegrees>
              <LongitudeDegrees>-1.75553689710795879364013671875</LongitudeDegrees>
            </Position>
            <AltitudeMeters>674.20001220703125</AltitudeMeters>
            <DistanceMeters>52361.876499868</DistanceMeters>
          </Trackpoint>
          <Trackpoint>
            <Time>2018-08-26T07:44:19.000Z</Time>
            <Position>
              <LatitudeDegrees>43.04314303211867809295654296875</LatitudeDegrees>
              <LongitudeDegrees>-1.75555634312331676483154296875</LongitudeDegrees>
            </Position>
            <AltitudeMeters>674.20001220703125</AltitudeMeters>
            <DistanceMeters>52368.125183773</DistanceMeters>
          </Trackpoint>
          <Trackpoint>
            <Time>2018-08-26T07:44:20.000Z</Time>
            <Position>
              <LatitudeDegrees>43.0431984364986419677734375</LatitudeDegrees>
              <LongitudeDegrees>-1.7555770464241504669189453125</LongitudeDegrees>
            </Position>
            <AltitudeMeters>674.4000244140625</AltitudeMeters>
            <DistanceMeters>52374.516745854</DistanceMeters>
          </Trackpoint>
          <Trackpoint>
            <Time>2018-08-26T07:44:21.000Z</Time>
            <Position>
              <LatitudeDegrees>43.04325543344020843505859375</LatitudeDegrees>
              <LongitudeDegrees>-1.75559221766889095306396484375</LongitudeDegrees>
            </Position>
            <AltitudeMeters>674.5999755859375</AltitudeMeters>
            <DistanceMeters>52380.979959731</DistanceMeters>
          </Trackpoint>
          <Trackpoint>
            <Time>2018-08-26T07:44:22.000Z</Time>
            <Position>
              <LatitudeDegrees>43.043318130075931549072265625</LatitudeDegrees>
              <LongitudeDegrees>-1.755596660077571868896484375</LongitudeDegrees>
            </Position>
            <AltitudeMeters>674.5999755859375</AltitudeMeters>
            <DistanceMeters>52387.966846968</DistanceMeters>
          </Trackpoint>
          <Trackpoint>
            <Time>2018-08-26T07:44:23.000Z</Time>
            <Position>
              <LatitudeDegrees>43.0433783121407032012939453125</LatitudeDegrees>
              <LongitudeDegrees>-1.75560965202748775482177734375</LongitudeDegrees>
            </Position>
            <AltitudeMeters>675</AltitudeMeters>
            <DistanceMeters>52394.748452923</DistanceMeters>
          </Trackpoint>
          <Trackpoint>
            <Time>2018-08-26T07:44:24.000Z</Time>
            <Position>
              <LatitudeDegrees>43.0434339679777622222900390625</LatitudeDegrees>
              <LongitudeDegrees>-1.7556330375373363494873046875</LongitudeDegrees>
            </Position>
            <AltitudeMeters>675.20001220703125</AltitudeMeters>
            <DistanceMeters>52401.229107638</DistanceMeters>
          </Trackpoint>
          <Trackpoint>
            <Time>2018-08-26T07:44:25.000Z</Time>
            <Position>
              <LatitudeDegrees>43.04349071346223354339599609375</LatitudeDegrees>
              <LongitudeDegrees>-1.75565524958074092864990234375</LongitudeDegrees>
            </Position>
            <AltitudeMeters>675.4000244140625</AltitudeMeters>
            <DistanceMeters>52407.799021291</DistanceMeters>
          </Trackpoint>
          <Trackpoint>
            <Time>2018-08-26T07:44:26.000Z</Time>
            <Position>
              <LatitudeDegrees>43.04354703985154628753662109375</LatitudeDegrees>
              <LongitudeDegrees>-1.7556789703667163848876953125</LongitudeDegrees>
            </Position>
            <AltitudeMeters>675.5999755859375</AltitudeMeters>
            <DistanceMeters>52414.358618402</DistanceMeters>
          </Trackpoint>
          <Trackpoint>
            <Time>2018-08-26T07:44:27.000Z</Time>
            <Position>
              <LatitudeDegrees>43.04359900765120983123779296875</LatitudeDegrees>
              <LongitudeDegrees>-1.75570855848491191864013671875</LongitudeDegrees>
            </Position>
            <AltitudeMeters>676</AltitudeMeters>
            <DistanceMeters>52420.62317842</DistanceMeters>
          </Trackpoint>
          <Trackpoint>
            <Time>2018-08-26T07:44:28.000Z</Time>
            <Position>
              <LatitudeDegrees>43.04365013726055622100830078125</LatitudeDegrees>
              <LongitudeDegrees>-1.7557399906218051910400390625</LongitudeDegrees>
            </Position>
            <AltitudeMeters>676.20001220703125</AltitudeMeters>
            <DistanceMeters>52426.862461997</DistanceMeters>
          </Trackpoint>
          <Trackpoint>
            <Time>2018-08-26T07:44:29.000Z</Time>
            <Position>
              <LatitudeDegrees>43.0437035299837589263916015625</LatitudeDegrees>
              <LongitudeDegrees>-1.75577343441545963287353515625</LongitudeDegrees>
            </Position>
            <AltitudeMeters>676.20001220703125</AltitudeMeters>
            <DistanceMeters>52433.397923846</DistanceMeters>
          </Trackpoint>
          <Trackpoint>
            <Time>2018-08-26T07:44:30.000Z</Time>
            <Position>
              <LatitudeDegrees>43.04375809617340564727783203125</LatitudeDegrees>
              <LongitudeDegrees>-1.75580545328557491302490234375</LongitudeDegrees>
            </Position>
            <AltitudeMeters>676.4000244140625</AltitudeMeters>
            <DistanceMeters>52440.006210287</DistanceMeters>
          </Trackpoint>
          <Trackpoint>
            <Time>2018-08-26T07:44:31.000Z</Time>
            <Position>
              <LatitudeDegrees>43.04381333291530609130859375</LatitudeDegrees>
              <LongitudeDegrees>-1.755834706127643585205078125</LongitudeDegrees>
            </Position>
            <AltitudeMeters>676.4000244140625</AltitudeMeters>
            <DistanceMeters>52446.598078599</DistanceMeters>
          </Trackpoint>
          <Trackpoint>
            <Time>2018-08-26T07:44:32.000Z</Time>
            <Position>
              <LatitudeDegrees>43.04387041367590427398681640625</LatitudeDegrees>
              <LongitudeDegrees>-1.755863539874553680419921875</LongitudeDegrees>
            </Position>
            <AltitudeMeters>676.4000244140625</AltitudeMeters>
            <DistanceMeters>52453.37035726</DistanceMeters>
          </Trackpoint>
          <Trackpoint>
            <Time>2018-08-26T07:44:33.000Z</Time>
            <Position>
              <LatitudeDegrees>43.04392590187489986419677734375</LatitudeDegrees>
              <LongitudeDegrees>-1.75589916296303272247314453125</LongitudeDegrees>
            </Position>
            <AltitudeMeters>676.5999755859375</AltitudeMeters>
            <DistanceMeters>52460.192454737</DistanceMeters>
          </Trackpoint>
          <Trackpoint>
            <Time>2018-08-26T07:44:34.000Z</Time>
            <Position>
              <LatitudeDegrees>43.0439811386168003082275390625</LatitudeDegrees>
              <LongitudeDegrees>-1.75593369640409946441650390625</LongitudeDegrees>
            </Position>
            <AltitudeMeters>676.5999755859375</AltitudeMeters>
            <DistanceMeters>52466.951386364</DistanceMeters>
          </Trackpoint>
          <Trackpoint>
            <Time>2018-08-26T07:44:35.000Z</Time>
            <Position>
              <LatitudeDegrees>43.04403637535870075225830078125</LatitudeDegrees>
              <LongitudeDegrees>-1.75596772693097591400146484375</LongitudeDegrees>
            </Position>
            <AltitudeMeters>676.79998779296875</AltitudeMeters>
            <DistanceMeters>52473.693597041</DistanceMeters>
          </Trackpoint>
          <Trackpoint>
            <Time>2018-08-26T07:44:36.000Z</Time>
            <Position>
              <LatitudeDegrees>43.04409387521445751190185546875</LatitudeDegrees>
              <LongitudeDegrees>-1.75600058399140834808349609375</LongitudeDegrees>
            </Position>
            <AltitudeMeters>676.79998779296875</AltitudeMeters>
            <DistanceMeters>52480.628594311</DistanceMeters>
          </Trackpoint>
          <Trackpoint>
            <Time>2018-08-26T07:44:37.000Z</Time>
            <Position>
              <LatitudeDegrees>43.044154644012451171875</LatitudeDegrees>
              <LongitudeDegrees>-1.75602640025317668914794921875</LongitudeDegrees>
            </Position>
            <AltitudeMeters>677.20001220703125</AltitudeMeters>
            <DistanceMeters>52487.71047574</DistanceMeters>
          </Trackpoint>
          <Trackpoint>
            <Time>2018-08-26T07:44:38.000Z</Time>
            <Position>
              <LatitudeDegrees>43.0442168377339839935302734375</LatitudeDegrees>
              <LongitudeDegrees>-1.75604157149791717529296875</LongitudeDegrees>
            </Position>
            <AltitudeMeters>677.20001220703125</AltitudeMeters>
            <DistanceMeters>52494.742452603</DistanceMeters>
          </Trackpoint>
          <Trackpoint>
            <Time>2018-08-26T07:44:39.000Z</Time>
            <Position>
              <LatitudeDegrees>43.0442795343697071075439453125</LatitudeDegrees>
              <LongitudeDegrees>-1.7560501210391521453857421875</LongitudeDegrees>
            </Position>
            <AltitudeMeters>677.4000244140625</AltitudeMeters>
            <DistanceMeters>52501.755140841</DistanceMeters>
          </Trackpoint>
          <Trackpoint>
            <Time>2018-08-26T07:44:40.000Z</Time>
            <Position>
              <LatitudeDegrees>43.044342063367366790771484375</LatitudeDegrees>
              <LongitudeDegrees>-1.7560541443526744842529296875</LongitudeDegrees>
            </Position>
            <AltitudeMeters>677.4000244140625</AltitudeMeters>
            <DistanceMeters>52508.72196658</DistanceMeters>
          </Trackpoint>
          <Trackpoint>
            <Time>2018-08-26T07:44:41.000Z</Time>
            <Position>
              <LatitudeDegrees>43.0444055981934070587158203125</LatitudeDegrees>
              <LongitudeDegrees>-1.75605255179107189178466796875</LongitudeDegrees>
            </Position>
            <AltitudeMeters>677.4000244140625</AltitudeMeters>
            <DistanceMeters>52515.794916707</DistanceMeters>
          </Trackpoint>
          <Trackpoint>
            <Time>2018-08-26T07:44:42.000Z</Time>
            <Position>
              <LatitudeDegrees>43.04446779191493988037109375</LatitudeDegrees>
              <LongitudeDegrees>-1.75604886375367641448974609375</LongitudeDegrees>
            </Position>
            <AltitudeMeters>677.4000244140625</AltitudeMeters>
            <DistanceMeters>52522.72405204</DistanceMeters>
          </Trackpoint>
          <Trackpoint>
            <Time>2018-08-26T07:44:43.000Z</Time>
            <Position>
              <LatitudeDegrees>43.0445283092558383941650390625</LatitudeDegrees>
              <LongitudeDegrees>-1.75604534335434436798095703125</LongitudeDegrees>
            </Position>
            <AltitudeMeters>677.4000244140625</AltitudeMeters>
            <DistanceMeters>52529.466262717</DistanceMeters>
          </Trackpoint>
          <Trackpoint>
            <Time>2018-08-26T07:44:44.000Z</Time>
            <Position>
              <LatitudeDegrees>43.0445883236825466156005859375</LatitudeDegrees>
              <LongitudeDegrees>-1.75604266114532947540283203125</LongitudeDegrees>
            </Position>
            <AltitudeMeters>677.5999755859375</AltitudeMeters>
            <DistanceMeters>52536.14928285</DistanceMeters>
          </Trackpoint>
          <Trackpoint>
            <Time>2018-08-26T07:44:45.000Z</Time>
            <Position>
              <LatitudeDegrees>43.04464657790958881378173828125</LatitudeDegrees>
              <LongitudeDegrees>-1.75604115240275859832763671875</LongitudeDegrees>
            </Position>
            <AltitudeMeters>677.5999755859375</AltitudeMeters>
            <DistanceMeters>52542.634116386</DistanceMeters>
          </Trackpoint>
          <Trackpoint>
            <Time>2018-08-26T07:44:46.000Z</Time>
            <Position>
              <LatitudeDegrees>43.04470106028020381927490234375</LatitudeDegrees>
              <LongitudeDegrees>-1.756039895117282867431640625</LongitudeDegrees>
            </Position>
            <AltitudeMeters>677.5999755859375</AltitudeMeters>
            <DistanceMeters>52548.699471399</DistanceMeters>
          </Trackpoint>
          <Trackpoint>
            <Time>2018-08-26T07:44:47.000Z</Time>
            <Position>
              <LatitudeDegrees>43.044752441346645355224609375</LatitudeDegrees>
              <LongitudeDegrees>-1.756041906774044036865234375</LongitudeDegrees>
            </Position>
            <AltitudeMeters>677.5999755859375</AltitudeMeters>
            <DistanceMeters>52554.420048034</DistanceMeters>
          </Trackpoint>
          <Trackpoint>
            <Time>2018-08-26T07:44:48.000Z</Time>
            <Position>
              <LatitudeDegrees>43.04480030201375484466552734375</LatitudeDegrees>
              <LongitudeDegrees>-1.7560474388301372528076171875</LongitudeDegrees>
            </Position>
            <AltitudeMeters>677.5999755859375</AltitudeMeters>
            <DistanceMeters>52559.766092548</DistanceMeters>
          </Trackpoint>
          <Trackpoint>
            <Time>2018-08-26T07:44:49.000Z</Time>
            <Position>
              <LatitudeDegrees>43.04485025815665721893310546875</LatitudeDegrees>
              <LongitudeDegrees>-1.7560544796288013458251953125</LongitudeDegrees>
            </Position>
            <AltitudeMeters>677.79998779296875</AltitudeMeters>
            <DistanceMeters>52565.356539272</DistanceMeters>
          </Trackpoint>
          <Trackpoint>
            <Time>2018-08-26T07:44:50.000Z</Time>
            <Position>
              <LatitudeDegrees>43.0449018068611621856689453125</LatitudeDegrees>
              <LongitudeDegrees>-1.75606277771294116973876953125</LongitudeDegrees>
            </Position>
            <AltitudeMeters>677.79998779296875</AltitudeMeters>
            <DistanceMeters>52571.133663343</DistanceMeters>
          </Trackpoint>
          <Trackpoint>
            <Time>2018-08-26T07:44:51.000Z</Time>
            <Position>
              <LatitudeDegrees>43.0449520982801914215087890625</LatitudeDegrees>
              <LongitudeDegrees>-1.75607970915734767913818359375</LongitudeDegrees>
            </Position>
            <AltitudeMeters>677.79998779296875</AltitudeMeters>
            <DistanceMeters>52576.898269255</DistanceMeters>
          </Trackpoint>
          <Trackpoint>
            <Time>2018-08-26T07:44:52.000Z</Time>
            <Position>
              <LatitudeDegrees>43.04500046186149120330810546875</LatitudeDegrees>
              <LongitudeDegrees>-1.75609764643013477325439453125</LongitudeDegrees>
            </Position>
            <AltitudeMeters>678</AltitudeMeters>
            <DistanceMeters>52582.474969289</DistanceMeters>
          </Trackpoint>
          <Trackpoint>
            <Time>2018-08-26T07:44:53.000Z</Time>
            <Position>
              <LatitudeDegrees>43.045046813786029815673828125</LatitudeDegrees>
              <LongitudeDegrees>-1.756119690835475921630859375</LongitudeDegrees>
            </Position>
            <AltitudeMeters>678</AltitudeMeters>
            <DistanceMeters>52587.93714583</DistanceMeters>
          </Trackpoint>
          <Trackpoint>
            <Time>2018-08-26T07:44:54.000Z</Time>
            <Position>
              <LatitudeDegrees>43.0450945906341075897216796875</LatitudeDegrees>
              <LongitudeDegrees>-1.75614559091627597808837890625</LongitudeDegrees>
            </Position>
            <AltitudeMeters>678.4000244140625</AltitudeMeters>
            <DistanceMeters>52593.656143722</DistanceMeters>
          </Trackpoint>
          <Trackpoint>
            <Time>2018-08-26T07:44:55.000Z</Time>
            <Position>
              <LatitudeDegrees>43.04513742215931415557861328125</LatitudeDegrees>
              <LongitudeDegrees>-1.75616889260709285736083984375</LongitudeDegrees>
            </Position>
            <AltitudeMeters>679</AltitudeMeters>
            <DistanceMeters>52598.785826242</DistanceMeters>
          </Trackpoint>
          <Trackpoint>
            <Time>2018-08-26T07:44:56.000Z</Time>
            <Position>
              <LatitudeDegrees>43.04517723619937896728515625</LatitudeDegrees>
              <LongitudeDegrees>-1.756203174591064453125</LongitudeDegrees>
            </Position>
            <AltitudeMeters>679.4000244140625</AltitudeMeters>
            <DistanceMeters>52604.021789581</DistanceMeters>
          </Trackpoint>
          <Trackpoint>
            <Time>2018-08-26T07:44:57.000Z</Time>
            <Position>
              <LatitudeDegrees>43.04521520622074604034423828125</LatitudeDegrees>
              <LongitudeDegrees>-1.75625069998204708099365234375</LongitudeDegrees>
            </Position>
            <AltitudeMeters>679.79998779296875</AltitudeMeters>
            <DistanceMeters>52609.750253406</DistanceMeters>
          </Trackpoint>
          <Trackpoint>
            <Time>2018-08-26T07:44:58.000Z</Time>
            <Position>
              <LatitudeDegrees>43.0452541820704936981201171875</LatitudeDegrees>
              <LongitudeDegrees>-1.756295375525951385498046875</LongitudeDegrees>
            </Position>
            <AltitudeMeters>680</AltitudeMeters>
            <DistanceMeters>52615.408932675</DistanceMeters>
          </Trackpoint>
          <Trackpoint>
            <Time>2018-08-26T07:44:59.000Z</Time>
            <Position>
              <LatitudeDegrees>43.04529651068150997161865234375</LatitudeDegrees>
              <LongitudeDegrees>-1.75633116625249385833740234375</LongitudeDegrees>
            </Position>
            <AltitudeMeters>680.4000244140625</AltitudeMeters>
            <DistanceMeters>52620.946634328</DistanceMeters>
          </Trackpoint>
          <Trackpoint>
            <Time>2018-08-26T07:45:00.000Z</Time>
            <Position>
              <LatitudeDegrees>43.04533858783543109893798828125</LatitudeDegrees>
              <LongitudeDegrees>-1.75636368803679943084716796875</LongitudeDegrees>
            </Position>
            <AltitudeMeters>680.5999755859375</AltitudeMeters>
            <DistanceMeters>52626.325515711</DistanceMeters>
          </Trackpoint>
          <Trackpoint>
            <Time>2018-08-26T07:45:01.000Z</Time>
            <Position>
              <LatitudeDegrees>43.0453789047896862030029296875</LatitudeDegrees>
              <LongitudeDegrees>-1.75639520399272441864013671875</LongitudeDegrees>
            </Position>
            <AltitudeMeters>681</AltitudeMeters>
            <DistanceMeters>52631.49290732</DistanceMeters>
          </Trackpoint>
          <Trackpoint>
            <Time>2018-08-26T07:45:02.000Z</Time>
            <Position>
              <LatitudeDegrees>43.04541134275496006011962890625</LatitudeDegrees>
              <LongitudeDegrees>-1.756421439349651336669921875</LongitudeDegrees>
            </Position>
            <AltitudeMeters>681.20001220703125</AltitudeMeters>
            <DistanceMeters>52635.684867334</DistanceMeters>
          </Trackpoint>
          <Trackpoint>
            <Time>2018-08-26T07:45:03.000Z</Time>
            <Position>
              <LatitudeDegrees>43.0454509891569614410400390625</LatitudeDegrees>
              <LongitudeDegrees>-1.75643853843212127685546875</LongitudeDegrees>
            </Position>
            <AltitudeMeters>681.4000244140625</AltitudeMeters>
            <DistanceMeters>52640.31101921</DistanceMeters>
          </Trackpoint>
          <Trackpoint>
            <Time>2018-08-26T07:45:04.000Z</Time>
            <Position>
              <LatitudeDegrees>43.04549633525311946868896484375</LatitudeDegrees>
              <LongitudeDegrees>-1.75645404495298862457275390625</LongitudeDegrees>
            </Position>
            <AltitudeMeters>681.5999755859375</AltitudeMeters>
            <DistanceMeters>52645.51411148</DistanceMeters>
          </Trackpoint>
          <Trackpoint>
            <Time>2018-08-26T07:45:05.000Z</Time>
            <Position>
              <LatitudeDegrees>43.04553824476897716522216796875</LatitudeDegrees>
              <LongitudeDegrees>-1.75647784955799579620361328125</LongitudeDegrees>
            </Position>
            <AltitudeMeters>682</AltitudeMeters>
            <DistanceMeters>52650.56485063</DistanceMeters>
          </Trackpoint>
          <Trackpoint>
            <Time>2018-08-26T07:45:06.000Z</Time>
            <Position>
              <LatitudeDegrees>43.045579902827739715576171875</LatitudeDegrees>
              <LongitudeDegrees>-1.75651120953261852264404296875</LongitudeDegrees>
            </Position>
            <AltitudeMeters>682.4000244140625</AltitudeMeters>
            <DistanceMeters>52655.937012607</DistanceMeters>
          </Trackpoint>
          <Trackpoint>
            <Time>2018-08-26T07:45:07.000Z</Time>
            <Position>
              <LatitudeDegrees>43.04562105797231197357177734375</LatitudeDegrees>
              <LongitudeDegrees>-1.75653987564146518707275390625</LongitudeDegrees>
            </Position>
            <AltitudeMeters>682.79998779296875</AltitudeMeters>
            <DistanceMeters>52661.077246423</DistanceMeters>
          </Trackpoint>
          <Trackpoint>
            <Time>2018-08-26T07:45:08.000Z</Time>
            <Position>
              <LatitudeDegrees>43.045663051307201385498046875</LatitudeDegrees>
              <LongitudeDegrees>-1.75656326115131378173828125</LongitudeDegrees>
            </Position>
            <AltitudeMeters>683.20001220703125</AltitudeMeters>
            <DistanceMeters>52666.123513912</DistanceMeters>
          </Trackpoint>
          <Trackpoint>
            <Time>2018-08-26T07:45:09.000Z</Time>
            <Position>
              <LatitudeDegrees>43.0457041226327419281005859375</LatitudeDegrees>
              <LongitudeDegrees>-1.75658605992794036865234375</LongitudeDegrees>
            </Position>
            <AltitudeMeters>683.79998779296875</AltitudeMeters>
            <DistanceMeters>52671.055757411</DistanceMeters>
          </Trackpoint>
          <Trackpoint>
            <Time>2018-08-26T07:45:10.000Z</Time>
            <Position>
              <LatitudeDegrees>43.04574209265410900115966796875</LatitudeDegrees>
              <LongitudeDegrees>-1.756612546741962432861328125</LongitudeDegrees>
            </Position>
            <AltitudeMeters>684</AltitudeMeters>
            <DistanceMeters>52675.799484901</DistanceMeters>
          </Trackpoint>
          <Trackpoint>
            <Time>2018-08-26T07:45:11.000Z</Time>
            <Position>
              <LatitudeDegrees>43.04577897302806377410888671875</LatitudeDegrees>
              <LongitudeDegrees>-1.7566442303359508514404296875</LongitudeDegrees>
            </Position>
            <AltitudeMeters>684.20001220703125</AltitudeMeters>
            <DistanceMeters>52680.646778879</DistanceMeters>
          </Trackpoint>
          <Trackpoint>
            <Time>2018-08-26T07:45:12.000Z</Time>
            <Position>
              <LatitudeDegrees>43.04581560194492340087890625</LatitudeDegrees>
              <LongitudeDegrees>-1.7566851340234279632568359375</LongitudeDegrees>
            </Position>
            <AltitudeMeters>684.4000244140625</AltitudeMeters>
            <DistanceMeters>52685.909406023</DistanceMeters>
          </Trackpoint>
          <Trackpoint>
            <Time>2018-08-26T07:45:13.000Z</Time>
            <Position>
              <LatitudeDegrees>43.0458539910614490509033203125</LatitudeDegrees>
              <LongitudeDegrees>-1.75672796554863452911376953125</LongitudeDegrees>
            </Position>
            <AltitudeMeters>684.79998779296875</AltitudeMeters>
            <DistanceMeters>52691.422593604</DistanceMeters>
          </Trackpoint>
          <Trackpoint>
            <Time>2018-08-26T07:45:14.000Z</Time>
            <Position>
              <LatitudeDegrees>43.04588642902672290802001953125</LatitudeDegrees>
              <LongitudeDegrees>-1.75677725113928318023681640625</LongitudeDegrees>
            </Position>
            <AltitudeMeters>684.79998779296875</AltitudeMeters>
            <DistanceMeters>52696.818236889</DistanceMeters>
          </Trackpoint>
          <Trackpoint>
            <Time>2018-08-26T07:45:15.000Z</Time>
            <Position>
              <LatitudeDegrees>43.04591618478298187255859375</LatitudeDegrees>
              <LongitudeDegrees>-1.75682804547250270843505859375</LongitudeDegrees>
            </Position>
            <AltitudeMeters>685</AltitudeMeters>
            <DistanceMeters>52702.114218142</DistanceMeters>
          </Trackpoint>
          <Trackpoint>
            <Time>2018-08-26T07:45:16.000Z</Time>
            <Position>
              <LatitudeDegrees>43.0459414981305599212646484375</LatitudeDegrees>
              <LongitudeDegrees>-1.756887137889862060546875</LongitudeDegrees>
            </Position>
            <AltitudeMeters>685.20001220703125</AltitudeMeters>
            <DistanceMeters>52707.685247916</DistanceMeters>
          </Trackpoint>
          <Trackpoint>
            <Time>2018-08-26T07:45:17.000Z</Time>
            <Position>
              <LatitudeDegrees>43.0459664762020111083984375</LatitudeDegrees>
              <LongitudeDegrees>-1.75694757141172885894775390625</LongitudeDegrees>
            </Position>
            <AltitudeMeters>685.5999755859375</AltitudeMeters>
            <DistanceMeters>52713.332745592</DistanceMeters>
          </Trackpoint>
          <Trackpoint>
            <Time>2018-08-26T07:45:18.000Z</Time>
            <Position>
              <LatitudeDegrees>43.0459864251315593719482421875</LatitudeDegrees>
              <LongitudeDegrees>-1.7570026405155658721923828125</LongitudeDegrees>
            </Position>
            <AltitudeMeters>686</AltitudeMeters>
            <DistanceMeters>52718.333173741</DistanceMeters>
          </Trackpoint>
          <Trackpoint>
            <Time>2018-08-26T07:45:19.000Z</Time>
            <Position>
              <LatitudeDegrees>43.04600779898464679718017578125</LatitudeDegrees>
              <LongitudeDegrees>-1.7570582963526248931884765625</LongitudeDegrees>
            </Position>
            <AltitudeMeters>686.20001220703125</AltitudeMeters>
            <DistanceMeters>52723.446988499</DistanceMeters>
          </Trackpoint>
          <Trackpoint>
            <Time>2018-08-26T07:45:20.000Z</Time>
            <Position>
              <LatitudeDegrees>43.0460259877145290374755859375</LatitudeDegrees>
              <LongitudeDegrees>-1.7571250163018703460693359375</LongitudeDegrees>
            </Position>
            <AltitudeMeters>686.4000244140625</AltitudeMeters>
            <DistanceMeters>52729.239722229</DistanceMeters>
          </Trackpoint>
          <Trackpoint>
            <Time>2018-08-26T07:45:21.000Z</Time>
            <Position>
              <LatitudeDegrees>43.0460464395582675933837890625</LatitudeDegrees>
              <LongitudeDegrees>-1.75719492137432098388671875</LongitudeDegrees>
            </Position>
            <AltitudeMeters>686.5999755859375</AltitudeMeters>
            <DistanceMeters>52735.363602328</DistanceMeters>
          </Trackpoint>
          <Trackpoint>
            <Time>2018-08-26T07:45:22.000Z</Time>
            <Position>
              <LatitudeDegrees>43.046066053211688995361328125</LatitudeDegrees>
              <LongitudeDegrees>-1.7572772316634654998779296875</LongitudeDegrees>
            </Position>
            <AltitudeMeters>686.79998779296875</AltitudeMeters>
            <DistanceMeters>52742.405844857</DistanceMeters>
          </Trackpoint>
          <Trackpoint>
            <Time>2018-08-26T07:45:23.000Z</Time>
            <Position>
              <LatitudeDegrees>43.0460871756076812744140625</LatitudeDegrees>
              <LongitudeDegrees>-1.757355518639087677001953125</LongitudeDegrees>
            </Position>
            <AltitudeMeters>687</AltitudeMeters>
            <DistanceMeters>52749.19477041</DistanceMeters>
          </Trackpoint>
          <Trackpoint>
            <Time>2018-08-26T07:45:24.000Z</Time>
            <Position>
              <LatitudeDegrees>43.04610938765108585357666015625</LatitudeDegrees>
              <LongitudeDegrees>-1.7574361525475978851318359375</LongitudeDegrees>
            </Position>
            <AltitudeMeters>687</AltitudeMeters>
            <DistanceMeters>52756.203594552</DistanceMeters>
          </Trackpoint>
          <Trackpoint>
            <Time>2018-08-26T07:45:25.000Z</Time>
            <Position>
              <LatitudeDegrees>43.046133778989315032958984375</LatitudeDegrees>
              <LongitudeDegrees>-1.757509745657444000244140625</LongitudeDegrees>
            </Position>
            <AltitudeMeters>687.4000244140625</AltitudeMeters>
            <DistanceMeters>52762.776256548</DistanceMeters>
          </Trackpoint>
          <Trackpoint>
            <Time>2018-08-26T07:45:26.000Z</Time>
            <Position>
              <LatitudeDegrees>43.04615766741335391998291015625</LatitudeDegrees>
              <LongitudeDegrees>-1.757580824196338653564453125</LongitudeDegrees>
            </Position>
            <AltitudeMeters>687.5999755859375</AltitudeMeters>
            <DistanceMeters>52769.14020916</DistanceMeters>
          </Trackpoint>
          <Trackpoint>
            <Time>2018-08-26T07:45:27.000Z</Time>
            <Position>
              <LatitudeDegrees>43.0461825616657733917236328125</LatitudeDegrees>
              <LongitudeDegrees>-1.7576507292687892913818359375</LongitudeDegrees>
            </Position>
            <AltitudeMeters>687.5999755859375</AltitudeMeters>
            <DistanceMeters>52775.465020513</DistanceMeters>
          </Trackpoint>
          <Trackpoint>
            <Time>2018-08-26T07:45:28.000Z</Time>
            <Position>
              <LatitudeDegrees>43.046211563050746917724609375</LatitudeDegrees>
              <LongitudeDegrees>-1.75772205926477909088134765625</LongitudeDegrees>
            </Position>
            <AltitudeMeters>687.79998779296875</AltitudeMeters>
            <DistanceMeters>52782.105341535</DistanceMeters>
          </Trackpoint>
          <Trackpoint>
            <Time>2018-08-26T07:45:29.000Z</Time>
            <Position>
              <LatitudeDegrees>43.04624383337795734405517578125</LatitudeDegrees>
              <LongitudeDegrees>-1.7577972449362277984619140625</LongitudeDegrees>
            </Position>
            <AltitudeMeters>688</AltitudeMeters>
            <DistanceMeters>52789.198052996</DistanceMeters>
          </Trackpoint>
          <Trackpoint>
            <Time>2018-08-26T07:45:30.000Z</Time>
            <Position>
              <LatitudeDegrees>43.0462771095335483551025390625</LatitudeDegrees>
              <LongitudeDegrees>-1.75787259824573993682861328125</LongitudeDegrees>
            </Position>
            <AltitudeMeters>688</AltitudeMeters>
            <DistanceMeters>52796.35918448</DistanceMeters>
          </Trackpoint>
          <Trackpoint>
            <Time>2018-08-26T07:45:31.000Z</Time>
            <Position>
              <LatitudeDegrees>43.04630770348012447357177734375</LatitudeDegrees>
              <LongitudeDegrees>-1.75794535316526889801025390625</LongitudeDegrees>
            </Position>
            <AltitudeMeters>688.20001220703125</AltitudeMeters>
            <DistanceMeters>52803.187235789</DistanceMeters>
          </Trackpoint>
          <Trackpoint>
            <Time>2018-08-26T07:45:32.000Z</Time>
            <Position>
              <LatitudeDegrees>43.04633704014122486114501953125</LatitudeDegrees>
              <LongitudeDegrees>-1.7580158449709415435791015625</LongitudeDegrees>
            </Position>
            <AltitudeMeters>688.20001220703125</AltitudeMeters>
            <DistanceMeters>52809.785949952</DistanceMeters>
          </Trackpoint>
          <Trackpoint>
            <Time>2018-08-26T07:45:33.000Z</Time>
            <Position>
              <LatitudeDegrees>43.04636822082102298736572265625</LatitudeDegrees>
              <LongitudeDegrees>-1.75808700732886791229248046875</LongitudeDegrees>
            </Position>
            <AltitudeMeters>688.4000244140625</AltitudeMeters>
            <DistanceMeters>52816.534184944</DistanceMeters>
          </Trackpoint>
          <Trackpoint>
            <Time>2018-08-26T07:45:34.000Z</Time>
            <Position>
              <LatitudeDegrees>43.04640032351016998291015625</LatitudeDegrees>
              <LongitudeDegrees>-1.7581526376307010650634765625</LongitudeDegrees>
            </Position>
            <AltitudeMeters>688.4000244140625</AltitudeMeters>
            <DistanceMeters>52822.95815952</DistanceMeters>
          </Trackpoint>
          <Trackpoint>
            <Time>2018-08-26T07:45:35.000Z</Time>
            <Position>
              <LatitudeDegrees>43.046432174742221832275390625</LatitudeDegrees>
              <LongitudeDegrees>-1.7582170106470584869384765625</LongitudeDegrees>
            </Position>
            <AltitudeMeters>688.5999755859375</AltitudeMeters>
            <DistanceMeters>52829.281542989</DistanceMeters>
          </Trackpoint>
          <Trackpoint>
            <Time>2018-08-26T07:45:36.000Z</Time>
            <Position>
              <LatitudeDegrees>43.04646343924105167388916015625</LatitudeDegrees>
              <LongitudeDegrees>-1.7582810483872890472412109375</LongitudeDegrees>
            </Position>
            <AltitudeMeters>688.79998779296875</AltitudeMeters>
            <DistanceMeters>52835.546103007</DistanceMeters>
          </Trackpoint>
          <Trackpoint>
            <Time>2018-08-26T07:45:37.000Z</Time>
            <Position>
              <LatitudeDegrees>43.0464935302734375</LatitudeDegrees>
              <LongitudeDegrees>-1.75834550522267818450927734375</LongitudeDegrees>
            </Position>
            <AltitudeMeters>688.79998779296875</AltitudeMeters>
            <DistanceMeters>52841.767269107</DistanceMeters>
          </Trackpoint>
          <Trackpoint>
            <Time>2018-08-26T07:45:38.000Z</Time>
            <Position>
              <LatitudeDegrees>43.04652429185807704925537109375</LatitudeDegrees>
              <LongitudeDegrees>-1.758408956229686737060546875</LongitudeDegrees>
            </Position>
            <AltitudeMeters>688.79998779296875</AltitudeMeters>
            <DistanceMeters>52847.960795141</DistanceMeters>
          </Trackpoint>
          <Trackpoint>
            <Time>2018-08-26T07:45:39.000Z</Time>
            <Position>
              <LatitudeDegrees>43.046557903289794921875</LatitudeDegrees>
              <LongitudeDegrees>-1.758470647037029266357421875</LongitudeDegrees>
            </Position>
            <AltitudeMeters>689</AltitudeMeters>
            <DistanceMeters>52854.219586687</DistanceMeters>
          </Trackpoint>
          <Trackpoint>
            <Time>2018-08-26T07:45:40.000Z</Time>
            <Position>
              <LatitudeDegrees>43.04659545421600341796875</LatitudeDegrees>
              <LongitudeDegrees>-1.7585247941315174102783203125</LongitudeDegrees>
            </Position>
            <AltitudeMeters>689</AltitudeMeters>
            <DistanceMeters>52860.290893963</DistanceMeters>
          </Trackpoint>
          <Trackpoint>
            <Time>2018-08-26T07:45:41.000Z</Time>
            <Position>
              <LatitudeDegrees>43.04663711227476596832275390625</LatitudeDegrees>
              <LongitudeDegrees>-1.75857416354119777679443359375</LongitudeDegrees>
            </Position>
            <AltitudeMeters>689.20001220703125</AltitudeMeters>
            <DistanceMeters>52866.425087353</DistanceMeters>
          </Trackpoint>
          <Trackpoint>
            <Time>2018-08-26T07:45:42.000Z</Time>
            <Position>
              <LatitudeDegrees>43.04668086580932140350341796875</LatitudeDegrees>
              <LongitudeDegrees>-1.75862177275121212005615234375</LongitudeDegrees>
            </Position>
            <AltitudeMeters>689.4000244140625</AltitudeMeters>
            <DistanceMeters>52872.646979164</DistanceMeters>
          </Trackpoint>
          <Trackpoint>
            <Time>2018-08-26T07:45:43.000Z</Time>
            <Position>
              <LatitudeDegrees>43.04672897793352603912353515625</LatitudeDegrees>
              <LongitudeDegrees>-1.7586562223732471466064453125</LongitudeDegrees>
            </Position>
            <AltitudeMeters>689.79998779296875</AltitudeMeters>
            <DistanceMeters>52878.689960973</DistanceMeters>
          </Trackpoint>
          <Trackpoint>
            <Time>2018-08-26T07:45:44.000Z</Time>
            <Position>
              <LatitudeDegrees>43.04677658714354038238525390625</LatitudeDegrees>
              <LongitudeDegrees>-1.75868966616690158843994140625</LongitudeDegrees>
            </Position>
            <AltitudeMeters>690</AltitudeMeters>
            <DistanceMeters>52884.645642317</DistanceMeters>
          </Trackpoint>
          <Trackpoint>
            <Time>2018-08-26T07:45:45.000Z</Time>
            <Position>
              <LatitudeDegrees>43.04682469926774501800537109375</LatitudeDegrees>
              <LongitudeDegrees>-1.75871782936155796051025390625</LongitudeDegrees>
            </Position>
            <AltitudeMeters>690.20001220703125</AltitudeMeters>
            <DistanceMeters>52890.469469849</DistanceMeters>
          </Trackpoint>
          <Trackpoint>
            <Time>2018-08-26T07:45:46.000Z</Time>
            <Position>
              <LatitudeDegrees>43.04687415249645709991455078125</LatitudeDegrees>
              <LongitudeDegrees>-1.7587323300540447235107421875</LongitudeDegrees>
            </Position>
            <AltitudeMeters>690.5999755859375</AltitudeMeters>
            <DistanceMeters>52896.098549547</DistanceMeters>
          </Trackpoint>
          <Trackpoint>
            <Time>2018-08-26T07:45:47.000Z</Time>
            <Position>
              <LatitudeDegrees>43.04692544974386692047119140625</LatitudeDegrees>
              <LongitudeDegrees>-1.7587440647184848785400390625</LongitudeDegrees>
            </Position>
            <AltitudeMeters>690.5999755859375</AltitudeMeters>
            <DistanceMeters>52901.887384808</DistanceMeters>
          </Trackpoint>
          <Trackpoint>
            <Time>2018-08-26T07:45:48.000Z</Time>
            <Position>
              <LatitudeDegrees>43.04697691462934017181396484375</LatitudeDegrees>
              <LongitudeDegrees>-1.7587671987712383270263671875</LongitudeDegrees>
            </Position>
            <AltitudeMeters>690.79998779296875</AltitudeMeters>
            <DistanceMeters>52907.916153977</DistanceMeters>
          </Trackpoint>
          <Trackpoint>
            <Time>2018-08-26T07:45:49.000Z</Time>
            <Position>
              <LatitudeDegrees>43.0470267869532108306884765625</LatitudeDegrees>
              <LongitudeDegrees>-1.75879511050879955291748046875</LongitudeDegrees>
            </Position>
            <AltitudeMeters>691</AltitudeMeters>
            <DistanceMeters>52913.914139018</DistanceMeters>
          </Trackpoint>
          <Trackpoint>
            <Time>2018-08-26T07:45:50.000Z</Time>
            <Position>
              <LatitudeDegrees>43.04707548581063747406005859375</LatitudeDegrees>
              <LongitudeDegrees>-1.7588225193321704864501953125</LongitudeDegrees>
            </Position>
            <AltitudeMeters>691.4000244140625</AltitudeMeters>
            <DistanceMeters>52919.775061368</DistanceMeters>
          </Trackpoint>
          <Trackpoint>
            <Time>2018-08-26T07:45:51.000Z</Time>
            <Position>
              <LatitudeDegrees>43.0471277050673961639404296875</LatitudeDegrees>
              <LongitudeDegrees>-1.758844144642353057861328125</LongitudeDegrees>
            </Position>
            <AltitudeMeters>691.5999755859375</AltitudeMeters>
            <DistanceMeters>52925.847855798</DistanceMeters>
          </Trackpoint>
          <Trackpoint>
            <Time>2018-08-26T07:45:52.000Z</Time>
            <Position>
              <LatitudeDegrees>43.047180511057376861572265625</LatitudeDegrees>
              <LongitudeDegrees>-1.7588625848293304443359375</LongitudeDegrees>
            </Position>
            <AltitudeMeters>691.79998779296875</AltitudeMeters>
            <DistanceMeters>52931.913210811</DistanceMeters>
          </Trackpoint>
          <Trackpoint>
            <Time>2018-08-26T07:45:53.000Z</Time>
            <Position>
              <LatitudeDegrees>43.04723105393350124359130859375</LatitudeDegrees>
              <LongitudeDegrees>-1.75888395868241786956787109375</LongitudeDegrees>
            </Position>
            <AltitudeMeters>692</AltitudeMeters>
            <DistanceMeters>52937.801800926</DistanceMeters>
          </Trackpoint>
          <Trackpoint>
            <Time>2018-08-26T07:45:54.000Z</Time>
            <Position>
              <LatitudeDegrees>43.0472856201231479644775390625</LatitudeDegrees>
              <LongitudeDegrees>-1.75889954902231693267822265625</LongitudeDegrees>
            </Position>
            <AltitudeMeters>692.4000244140625</AltitudeMeters>
            <DistanceMeters>52944.00552447</DistanceMeters>
          </Trackpoint>
          <Trackpoint>
            <Time>2018-08-26T07:45:55.000Z</Time>
            <Position>
              <LatitudeDegrees>43.04734043776988983154296875</LatitudeDegrees>
              <LongitudeDegrees>-1.758905164897441864013671875</LongitudeDegrees>
            </Position>
            <AltitudeMeters>692.5999755859375</AltitudeMeters>
            <DistanceMeters>52950.123503455</DistanceMeters>
          </Trackpoint>
          <Trackpoint>
            <Time>2018-08-26T07:45:56.000Z</Time>
            <Position>
              <LatitudeDegrees>43.0473949201405048370361328125</LatitudeDegrees>
              <LongitudeDegrees>-1.75889887847006320953369140625</LongitudeDegrees>
            </Position>
            <AltitudeMeters>692.79998779296875</AltitudeMeters>
            <DistanceMeters>52956.208182035</DistanceMeters>
          </Trackpoint>
          <Trackpoint>
            <Time>2018-08-26T07:45:57.000Z</Time>
            <Position>
              <LatitudeDegrees>43.04744546301662921905517578125</LatitudeDegrees>
              <LongitudeDegrees>-1.75888798199594020843505859375</LongitudeDegrees>
            </Position>
            <AltitudeMeters>692.79998779296875</AltitudeMeters>
            <DistanceMeters>52961.903446259</DistanceMeters>
          </Trackpoint>
          <Trackpoint>
            <Time>2018-08-26T07:45:58.000Z</Time>
            <Position>
              <LatitudeDegrees>43.0474938265979290008544921875</LatitudeDegrees>
              <LongitudeDegrees>-1.7588781751692295074462890625</LongitudeDegrees>
            </Position>
            <AltitudeMeters>693</AltitudeMeters>
            <DistanceMeters>52967.344088738</DistanceMeters>
          </Trackpoint>
          <Trackpoint>
            <Time>2018-08-26T07:45:59.000Z</Time>
            <Position>
              <LatitudeDegrees>43.0475451238453388214111328125</LatitudeDegrees>
              <LongitudeDegrees>-1.7588704638183116912841796875</LongitudeDegrees>
            </Position>
            <AltitudeMeters>693.20001220703125</AltitudeMeters>
            <DistanceMeters>52973.087508386</DistanceMeters>
          </Trackpoint>
          <Trackpoint>
            <Time>2018-08-26T07:46:00.000Z</Time>
            <Position>
              <LatitudeDegrees>43.0475960858166217803955078125</LatitudeDegrees>
              <LongitudeDegrees>-1.7588718049228191375732421875</LongitudeDegrees>
            </Position>
            <AltitudeMeters>693.4000244140625</AltitudeMeters>
            <DistanceMeters>52978.760531605</DistanceMeters>
          </Trackpoint>
          <Trackpoint>
            <Time>2018-08-26T07:46:01.000Z</Time>
            <Position>
              <LatitudeDegrees>43.04764528758823871612548828125</LatitudeDegrees>
              <LongitudeDegrees>-1.75888203084468841552734375</LongitudeDegrees>
            </Position>
            <AltitudeMeters>693.5999755859375</AltitudeMeters>
            <DistanceMeters>52984.299863673</DistanceMeters>
          </Trackpoint>
          <Trackpoint>
            <Time>2018-08-26T07:46:02.000Z</Time>
            <Position>
              <LatitudeDegrees>43.04769239388406276702880859375</LatitudeDegrees>
              <LongitudeDegrees>-1.75890457816421985626220703125</LongitudeDegrees>
            </Position>
            <AltitudeMeters>693.5999755859375</AltitudeMeters>
            <DistanceMeters>52989.85384793</DistanceMeters>
          </Trackpoint>
          <Trackpoint>
            <Time>2018-08-26T07:46:03.000Z</Time>
            <Position>
              <LatitudeDegrees>43.0477365665137767791748046875</LatitudeDegrees>
              <LongitudeDegrees>-1.7589398659765720367431640625</LongitudeDegrees>
            </Position>
            <AltitudeMeters>693.79998779296875</AltitudeMeters>
            <DistanceMeters>52995.546733346</DistanceMeters>
          </Trackpoint>
          <Trackpoint>
            <Time>2018-08-26T07:46:04.000Z</Time>
            <Position>
              <LatitudeDegrees>43.04777772165834903717041015625</LatitudeDegrees>
              <LongitudeDegrees>-1.75897649489343166351318359375</LongitudeDegrees>
            </Position>
            <AltitudeMeters>693.79998779296875</AltitudeMeters>
            <DistanceMeters>53001.01221529</DistanceMeters>
          </Trackpoint>
          <Trackpoint>
            <Time>2018-08-26T07:46:05.000Z</Time>
            <Position>
              <LatitudeDegrees>43.04781611077487468719482421875</LatitudeDegrees>
              <LongitudeDegrees>-1.7590156383812427520751953125</LongitudeDegrees>
            </Position>
            <AltitudeMeters>693.79998779296875</AltitudeMeters>
            <DistanceMeters>53006.34218907</DistanceMeters>
          </Trackpoint>
          <Trackpoint>
            <Time>2018-08-26T07:46:06.000Z</Time>
            <Position>
              <LatitudeDegrees>43.047850392758846282958984375</LatitudeDegrees>
              <LongitudeDegrees>-1.75905830226838588714599609375</LongitudeDegrees>
            </Position>
            <AltitudeMeters>694</AltitudeMeters>
            <DistanceMeters>53011.49996041</DistanceMeters>
          </Trackpoint>
          <Trackpoint>
            <Time>2018-08-26T07:46:07.000Z</Time>
            <Position>
              <LatitudeDegrees>43.047884590923786163330078125</LatitudeDegrees>
              <LongitudeDegrees>-1.759109683334827423095703125</LongitudeDegrees>
            </Position>
            <AltitudeMeters>694.20001220703125</AltitudeMeters>
            <DistanceMeters>53017.153850276</DistanceMeters>
          </Trackpoint>
          <Trackpoint>
            <Time>2018-08-26T07:46:08.000Z</Time>
            <Position>
              <LatitudeDegrees>43.04791602306067943572998046875</LatitudeDegrees>
              <LongitudeDegrees>-1.75915704108774662017822265625</LongitudeDegrees>
            </Position>
            <AltitudeMeters>694.4000244140625</AltitudeMeters>
            <DistanceMeters>53022.356942547</DistanceMeters>
          </Trackpoint>
          <Trackpoint>
            <Time>2018-08-26T07:46:09.000Z</Time>
            <Position>
              <LatitudeDegrees>43.04794837720692157745361328125</LatitudeDegrees>
              <LongitudeDegrees>-1.759204231202602386474609375</LongitudeDegrees>
            </Position>
            <AltitudeMeters>694.5999755859375</AltitudeMeters>
            <DistanceMeters>53027.621285298</DistanceMeters>
          </Trackpoint>
          <Trackpoint>
            <Time>2018-08-26T07:46:10.000Z</Time>
            <Position>
              <LatitudeDegrees>43.04798358120024204254150390625</LatitudeDegrees>
              <LongitudeDegrees>-1.75924639217555522918701171875</LongitudeDegrees>
            </Position>
            <AltitudeMeters>694.79998779296875</AltitudeMeters>
            <DistanceMeters>53032.82958153</DistanceMeters>
          </Trackpoint>
          <Trackpoint>
            <Time>2018-08-26T07:46:11.000Z</Time>
            <Position>
              <LatitudeDegrees>43.048017024993896484375</LatitudeDegrees>
              <LongitudeDegrees>-1.75928276963531970977783203125</LongitudeDegrees>
            </Position>
            <AltitudeMeters>695.20001220703125</AltitudeMeters>
            <DistanceMeters>53037.584716798</DistanceMeters>
          </Trackpoint>
          <Trackpoint>
            <Time>2018-08-26T07:46:12.000Z</Time>
            <Position>
              <LatitudeDegrees>43.04805122315883636474609375</LatitudeDegrees>
              <LongitudeDegrees>-1.75931462086737155914306640625</LongitudeDegrees>
            </Position>
            <AltitudeMeters>695.4000244140625</AltitudeMeters>
            <DistanceMeters>53042.189347021</DistanceMeters>
          </Trackpoint>
          <Trackpoint>
            <Time>2018-08-26T07:46:13.000Z</Time>
            <Position>
              <LatitudeDegrees>43.04808181710541248321533203125</LatitudeDegrees>
              <LongitudeDegrees>-1.75935099832713603973388671875</LongitudeDegrees>
            </Position>
            <AltitudeMeters>695.79998779296875</AltitudeMeters>
            <DistanceMeters>53046.700864759</DistanceMeters>
          </Trackpoint>
          <Trackpoint>
            <Time>2018-08-26T07:46:14.000Z</Time>
            <Position>
              <LatitudeDegrees>43.0481150932610034942626953125</LatitudeDegrees>
              <LongitudeDegrees>-1.75938938744366168975830078125</LongitudeDegrees>
            </Position>
            <AltitudeMeters>696</AltitudeMeters>
            <DistanceMeters>53051.545363565</DistanceMeters>
          </Trackpoint>
          <Trackpoint>
            <Time>2018-08-26T07:46:15.000Z</Time>
            <Position>
              <LatitudeDegrees>43.048145435750484466552734375</LatitudeDegrees>
              <LongitudeDegrees>-1.759428866207599639892578125</LongitudeDegrees>
            </Position>
            <AltitudeMeters>696.4000244140625</AltitudeMeters>
            <DistanceMeters>53056.204580642</DistanceMeters>
          </Trackpoint>
          <Trackpoint>
            <Time>2018-08-26T07:46:16.000Z</Time>
            <Position>
              <LatitudeDegrees>43.0481766164302825927734375</LatitudeDegrees>
              <LongitudeDegrees>-1.75946365110576152801513671875</LongitudeDegrees>
            </Position>
            <AltitudeMeters>696.5999755859375</AltitudeMeters>
            <DistanceMeters>53060.682950857</DistanceMeters>
          </Trackpoint>
          <Trackpoint>
            <Time>2018-08-26T07:46:17.000Z</Time>
            <Position>
              <LatitudeDegrees>43.04821081459522247314453125</LatitudeDegrees>
              <LongitudeDegrees>-1.759490557014942169189453125</LongitudeDegrees>
            </Position>
            <AltitudeMeters>697</AltitudeMeters>
            <DistanceMeters>53065.072732529</DistanceMeters>
          </Trackpoint>
          <Trackpoint>
            <Time>2018-08-26T07:46:18.000Z</Time>
            <Position>
              <LatitudeDegrees>43.048245348036289215087890625</LatitudeDegrees>
              <LongitudeDegrees>-1.75952232442796230316162109375</LongitudeDegrees>
            </Position>
            <AltitudeMeters>697.20001220703125</AltitudeMeters>
            <DistanceMeters>53069.702786684</DistanceMeters>
          </Trackpoint>
          <Trackpoint>
            <Time>2018-08-26T07:46:19.000Z</Time>
            <Position>
              <LatitudeDegrees>43.04828080348670482635498046875</LatitudeDegrees>
              <LongitudeDegrees>-1.75954495556652545928955078125</LongitudeDegrees>
            </Position>
            <AltitudeMeters>698</AltitudeMeters>
            <DistanceMeters>53074.056420851</DistanceMeters>
          </Trackpoint>
          <Trackpoint>
            <Time>2018-08-26T07:46:20.000Z</Time>
            <Position>
              <LatitudeDegrees>43.04831449873745441436767578125</LatitudeDegrees>
              <LongitudeDegrees>-1.7595626413822174072265625</LongitudeDegrees>
            </Position>
            <AltitudeMeters>698.4000244140625</AltitudeMeters>
            <DistanceMeters>53078.072353685</DistanceMeters>
          </Trackpoint>
          <Trackpoint>
            <Time>2018-08-26T07:46:21.000Z</Time>
            <Position>
              <LatitudeDegrees>43.04835305549204349517822265625</LatitudeDegrees>
              <LongitudeDegrees>-1.7595782317221164703369140625</LongitudeDegrees>
            </Position>
            <AltitudeMeters>698.5999755859375</AltitudeMeters>
            <DistanceMeters>53082.547698315</DistanceMeters>
          </Trackpoint>
          <Trackpoint>
            <Time>2018-08-26T07:46:22.000Z</Time>
            <Position>
              <LatitudeDegrees>43.04839261807501316070556640625</LatitudeDegrees>
              <LongitudeDegrees>-1.75958753563463687896728515625</LongitudeDegrees>
            </Position>
            <AltitudeMeters>698.79998779296875</AltitudeMeters>
            <DistanceMeters>53087.016985629</DistanceMeters>
          </Trackpoint>
          <Trackpoint>
            <Time>2018-08-26T07:46:23.000Z</Time>
            <Position>
              <LatitudeDegrees>43.04843067191541194915771484375</LatitudeDegrees>
              <LongitudeDegrees>-1.75959683954715728759765625</LongitudeDegrees>
            </Position>
            <AltitudeMeters>699</AltitudeMeters>
            <DistanceMeters>53091.319503114</DistanceMeters>
          </Trackpoint>
          <Trackpoint>
            <Time>2018-08-26T07:46:24.000Z</Time>
            <Position>
              <LatitudeDegrees>43.04846771992743015289306640625</LatitudeDegrees>
              <LongitudeDegrees>-1.7596006952226161956787109375</LongitudeDegrees>
            </Position>
            <AltitudeMeters>699.4000244140625</AltitudeMeters>
            <DistanceMeters>53095.455076204</DistanceMeters>
          </Trackpoint>
          <Trackpoint>
            <Time>2018-08-26T07:46:25.000Z</Time>
            <Position>
              <LatitudeDegrees>43.04850141517817974090576171875</LatitudeDegrees>
              <LongitudeDegrees>-1.759609915316104888916015625</LongitudeDegrees>
            </Position>
            <AltitudeMeters>699.5999755859375</AltitudeMeters>
            <DistanceMeters>53099.279827678</DistanceMeters>
          </Trackpoint>
          <Trackpoint>
            <Time>2018-08-26T07:46:26.000Z</Time>
            <Position>
              <LatitudeDegrees>43.04852756671607494354248046875</LatitudeDegrees>
              <LongitudeDegrees>-1.75962307490408420562744140625</LongitudeDegrees>
            </Position>
            <AltitudeMeters>699.79998779296875</AltitudeMeters>
            <DistanceMeters>53102.382417159</DistanceMeters>
          </Trackpoint>
          <Trackpoint>
            <Time>2018-08-26T07:46:27.000Z</Time>
            <Position>
              <LatitudeDegrees>43.04856612347066402435302734375</LatitudeDegrees>
              <LongitudeDegrees>-1.75963497720658779144287109375</LongitudeDegrees>
            </Position>
            <AltitudeMeters>699.79998779296875</AltitudeMeters>
            <DistanceMeters>53106.782472147</DistanceMeters>
          </Trackpoint>
          <Trackpoint>
            <Time>2018-08-26T07:46:28.000Z</Time>
            <Position>
              <LatitudeDegrees>43.04861180484294891357421875</LatitudeDegrees>
              <LongitudeDegrees>-1.7596429400146007537841796875</LongitudeDegrees>
            </Position>
            <AltitudeMeters>700</AltitudeMeters>
            <DistanceMeters>53111.908632743</DistanceMeters>
          </Trackpoint>
          <Trackpoint>
            <Time>2018-08-26T07:46:29.000Z</Time>
            <Position>
              <LatitudeDegrees>43.048657737672328948974609375</LatitudeDegrees>
              <LongitudeDegrees>-1.75964755006134510040283203125</LongitudeDegrees>
            </Position>
            <AltitudeMeters>700.4000244140625</AltitudeMeters>
            <DistanceMeters>53117.034793338</DistanceMeters>
          </Trackpoint>
          <Trackpoint>
            <Time>2018-08-26T07:46:30.000Z</Time>
            <Position>
              <LatitudeDegrees>43.0486996471881866455078125</LatitudeDegrees>
              <LongitudeDegrees>-1.75964838825166225433349609375</LongitudeDegrees>
            </Position>
            <AltitudeMeters>700.5999755859375</AltitudeMeters>
            <DistanceMeters>53121.699821123</DistanceMeters>
          </Trackpoint>
          <Trackpoint>
            <Time>2018-08-26T07:46:31.000Z</Time>
            <Position>
              <LatitudeDegrees>43.04874180816113948822021484375</LatitudeDegrees>
              <LongitudeDegrees>-1.75965408794581890106201171875</LongitudeDegrees>
            </Position>
            <AltitudeMeters>700.79998779296875</AltitudeMeters>
            <DistanceMeters>53126.414908418</DistanceMeters>
          </Trackpoint>
          <Trackpoint>
            <Time>2018-08-26T07:46:32.000Z</Time>
            <Position>
              <LatitudeDegrees>43.0487866513431072235107421875</LatitudeDegrees>
              <LongitudeDegrees>-1.75966699607670307159423828125</LongitudeDegrees>
            </Position>
            <AltitudeMeters>701</AltitudeMeters>
            <DistanceMeters>53131.514577051</DistanceMeters>
          </Trackpoint>
          <Trackpoint>
            <Time>2018-08-26T07:46:33.000Z</Time>
            <Position>
              <LatitudeDegrees>43.04883367381989955902099609375</LatitudeDegrees>
              <LongitudeDegrees>-1.75967990420758724212646484375</LongitudeDegrees>
            </Position>
            <AltitudeMeters>701</AltitudeMeters>
            <DistanceMeters>53136.852169315</DistanceMeters>
          </Trackpoint>
          <Trackpoint>
            <Time>2018-08-26T07:46:34.000Z</Time>
            <Position>
              <LatitudeDegrees>43.04887809790670871734619140625</LatitudeDegrees>
              <LongitudeDegrees>-1.7596868611872196197509765625</LongitudeDegrees>
            </Position>
            <AltitudeMeters>701.4000244140625</AltitudeMeters>
            <DistanceMeters>53141.828158625</DistanceMeters>
          </Trackpoint>
          <Trackpoint>
            <Time>2018-08-26T07:46:35.000Z</Time>
            <Position>
              <LatitudeDegrees>43.04892101325094699859619140625</LatitudeDegrees>
              <LongitudeDegrees>-1.7596905492246150970458984375</LongitudeDegrees>
            </Position>
            <AltitudeMeters>701.5999755859375</AltitudeMeters>
            <DistanceMeters>53146.613581685</DistanceMeters>
          </Trackpoint>
          <Trackpoint>
            <Time>2018-08-26T07:46:36.000Z</Time>
            <Position>
              <LatitudeDegrees>43.04896325804293155670166015625</LatitudeDegrees>
              <LongitudeDegrees>-1.75970002077519893646240234375</LongitudeDegrees>
            </Position>
            <AltitudeMeters>701.79998779296875</AltitudeMeters>
            <DistanceMeters>53151.379150093</DistanceMeters>
          </Trackpoint>
          <Trackpoint>
            <Time>2018-08-26T07:46:37.000Z</Time>
            <Position>
              <LatitudeDegrees>43.04900432936847209930419921875</LatitudeDegrees>
              <LongitudeDegrees>-1.7597106657922267913818359375</LongitudeDegrees>
            </Position>
            <AltitudeMeters>702</AltitudeMeters>
            <DistanceMeters>53156.032549207</DistanceMeters>
          </Trackpoint>
          <Trackpoint>
            <Time>2018-08-26T07:46:38.000Z</Time>
            <Position>
              <LatitudeDegrees>43.049050681293010711669921875</LatitudeDegrees>
              <LongitudeDegrees>-1.75971711985766887664794921875</LongitudeDegrees>
            </Position>
            <AltitudeMeters>702.20001220703125</AltitudeMeters>
            <DistanceMeters>53161.217386482</DistanceMeters>
          </Trackpoint>
          <Trackpoint>
            <Time>2018-08-26T07:46:39.000Z</Time>
            <Position>
              <LatitudeDegrees>43.0490937642753124237060546875</LatitudeDegrees>
              <LongitudeDegrees>-1.7597274295985698699951171875</LongitudeDegrees>
            </Position>
            <AltitudeMeters>702.4000244140625</AltitudeMeters>
            <DistanceMeters>53166.085129346</DistanceMeters>
          </Trackpoint>
          <Trackpoint>
            <Time>2018-08-26T07:46:40.000Z</Time>
            <Position>
              <LatitudeDegrees>43.04912804625928401947021484375</LatitudeDegrees>
              <LongitudeDegrees>-1.759741343557834625244140625</LongitudeDegrees>
            </Position>
            <AltitudeMeters>702.5999755859375</AltitudeMeters>
            <DistanceMeters>53170.064922567</DistanceMeters>
          </Trackpoint>
          <Trackpoint>
            <Time>2018-08-26T07:46:41.000Z</Time>
            <Position>
              <LatitudeDegrees>43.0491588078439235687255859375</LatitudeDegrees>
              <LongitudeDegrees>-1.75975718535482883453369140625</LongitudeDegrees>
            </Position>
            <AltitudeMeters>702.79998779296875</AltitudeMeters>
            <DistanceMeters>53173.723142529</DistanceMeters>
          </Trackpoint>
          <Trackpoint>
            <Time>2018-08-26T07:46:42.000Z</Time>
            <Position>
              <LatitudeDegrees>43.04918847978115081787109375</LatitudeDegrees>
              <LongitudeDegrees>-1.75977847538888454437255859375</LongitudeDegrees>
            </Position>
            <AltitudeMeters>703</AltitudeMeters>
            <DistanceMeters>53177.452260082</DistanceMeters>
          </Trackpoint>
          <Trackpoint>
            <Time>2018-08-26T07:46:43.000Z</Time>
            <Position>
              <LatitudeDegrees>43.04922292940318584442138671875</LatitudeDegrees>
              <LongitudeDegrees>-1.7597964964807033538818359375</LongitudeDegrees>
            </Position>
            <AltitudeMeters>703.20001220703125</AltitudeMeters>
            <DistanceMeters>53181.557150172</DistanceMeters>
          </Trackpoint>
          <Trackpoint>
            <Time>2018-08-26T07:46:44.000Z</Time>
            <Position>
              <LatitudeDegrees>43.04926433600485324859619140625</LatitudeDegrees>
              <LongitudeDegrees>-1.75981887616217136383056640625</LongitudeDegrees>
            </Position>
            <AltitudeMeters>703.4000244140625</AltitudeMeters>
            <DistanceMeters>53186.51222614</DistanceMeters>
          </Trackpoint>
          <Trackpoint>
            <Time>2018-08-26T07:46:45.000Z</Time>
            <Position>
              <LatitudeDegrees>43.0493143759667873382568359375</LatitudeDegrees>
              <LongitudeDegrees>-1.7598415911197662353515625</LongitudeDegrees>
            </Position>
            <AltitudeMeters>703.5999755859375</AltitudeMeters>
            <DistanceMeters>53192.380847064</DistanceMeters>
          </Trackpoint>
          <Trackpoint>
            <Time>2018-08-26T07:46:46.000Z</Time>
            <Position>
              <LatitudeDegrees>43.04936491884291172027587890625</LatitudeDegrees>
              <LongitudeDegrees>-1.75986430607736110687255859375</LongitudeDegrees>
            </Position>
            <AltitudeMeters>704</AltitudeMeters>
            <DistanceMeters>53198.302315365</DistanceMeters>
          </Trackpoint>
          <Trackpoint>
            <Time>2018-08-26T07:46:47.000Z</Time>
            <Position>
              <LatitudeDegrees>43.04942208342254161834716796875</LatitudeDegrees>
              <LongitudeDegrees>-1.7598819918930530548095703125</LongitudeDegrees>
            </Position>
            <AltitudeMeters>704.20001220703125</AltitudeMeters>
            <DistanceMeters>53204.825330021</DistanceMeters>
          </Trackpoint>
          <Trackpoint>
            <Time>2018-08-26T07:46:48.000Z</Time>
            <Position>
              <LatitudeDegrees>43.04947941564023494720458984375</LatitudeDegrees>
              <LongitudeDegrees>-1.75989297218620777130126953125</LongitudeDegrees>
            </Position>
            <AltitudeMeters>705</AltitudeMeters>
            <DistanceMeters>53211.268954117</DistanceMeters>
          </Trackpoint>
          <Trackpoint>
            <Time>2018-08-26T07:46:49.000Z</Time>
            <Position>
              <LatitudeDegrees>43.04953540675342082977294921875</LatitudeDegrees>
              <LongitudeDegrees>-1.7598987556993961334228515625</LongitudeDegrees>
            </Position>
            <AltitudeMeters>705</AltitudeMeters>
            <DistanceMeters>53217.519082971</DistanceMeters>
          </Trackpoint>
          <Trackpoint>
            <Time>2018-08-26T07:46:50.000Z</Time>
            <Position>
              <LatitudeDegrees>43.04959139786660671234130859375</LatitudeDegrees>
              <LongitudeDegrees>-1.75989783369004726409912109375</LongitudeDegrees>
            </Position>
            <AltitudeMeters>705</AltitudeMeters>
            <DistanceMeters>53223.751850323</DistanceMeters>
          </Trackpoint>
          <Trackpoint>
            <Time>2018-08-26T07:46:51.000Z</Time>
            <Position>
              <LatitudeDegrees>43.04964738897979259490966796875</LatitudeDegrees>
              <LongitudeDegrees>-1.75990034826099872589111328125</LongitudeDegrees>
            </Position>
            <AltitudeMeters>705.20001220703125</AltitudeMeters>
            <DistanceMeters>53229.987514615</DistanceMeters>
          </Trackpoint>
          <Trackpoint>
            <Time>2018-08-26T07:46:52.000Z</Time>
            <Position>
              <LatitudeDegrees>43.0497026257216930389404296875</LatitudeDegrees>
              <LongitudeDegrees>-1.75990202464163303375244140625</LongitudeDegrees>
            </Position>
            <AltitudeMeters>705.20001220703125</AltitudeMeters>
            <DistanceMeters>53236.137145511</DistanceMeters>
          </Trackpoint>
          <Trackpoint>
            <Time>2018-08-26T07:46:53.000Z</Time>
            <Position>
              <LatitudeDegrees>43.04975735954940319061279296875</LatitudeDegrees>
              <LongitudeDegrees>-1.75990051589906215667724609375</LongitudeDegrees>
            </Position>
            <AltitudeMeters>705.4000244140625</AltitudeMeters>
            <DistanceMeters>53242.230721992</DistanceMeters>
          </Trackpoint>
          <Trackpoint>
            <Time>2018-08-26T07:46:54.000Z</Time>
            <Position>
              <LatitudeDegrees>43.049810416996479034423828125</LatitudeDegrees>
              <LongitudeDegrees>-1.75989934243261814117431640625</LongitudeDegrees>
            </Position>
            <AltitudeMeters>705.5999755859375</AltitudeMeters>
            <DistanceMeters>53248.137685288</DistanceMeters>
          </Trackpoint>
          <Trackpoint>
            <Time>2018-08-26T07:46:55.000Z</Time>
            <Position>
              <LatitudeDegrees>43.04986397735774517059326171875</LatitudeDegrees>
              <LongitudeDegrees>-1.75989515148103237152099609375</LongitudeDegrees>
            </Position>
            <AltitudeMeters>705.79998779296875</AltitudeMeters>
            <DistanceMeters>53254.108509503</DistanceMeters>
          </Trackpoint>
          <Trackpoint>
            <Time>2018-08-26T07:46:56.000Z</Time>
            <Position>
              <LatitudeDegrees>43.0499175377190113067626953125</LatitudeDegrees>
              <LongitudeDegrees>-1.75989129580557346343994140625</LongitudeDegrees>
            </Position>
            <AltitudeMeters>706</AltitudeMeters>
            <DistanceMeters>53260.078577486</DistanceMeters>
          </Trackpoint>
          <Trackpoint>
            <Time>2018-08-26T07:46:57.000Z</Time>
            <Position>
              <LatitudeDegrees>43.0499701760709285736083984375</LatitudeDegrees>
              <LongitudeDegrees>-1.75988827832043170928955078125</LongitudeDegrees>
            </Position>
            <AltitudeMeters>706.20001220703125</AltitudeMeters>
            <DistanceMeters>53265.942580479</DistanceMeters>
          </Trackpoint>
          <Trackpoint>
            <Time>2018-08-26T07:46:58.000Z</Time>
            <Position>
              <LatitudeDegrees>43.05002423934638500213623046875</LatitudeDegrees>
              <LongitudeDegrees>-1.7598846741020679473876953125</LongitudeDegrees>
            </Position>
            <AltitudeMeters>706.20001220703125</AltitudeMeters>
            <DistanceMeters>53271.968353241</DistanceMeters>
          </Trackpoint>
          <Trackpoint>
            <Time>2018-08-26T07:46:59.000Z</Time>
            <Position>
              <LatitudeDegrees>43.0500764586031436920166015625</LatitudeDegrees>
              <LongitudeDegrees>-1.75987604074180126190185546875</LongitudeDegrees>
            </Position>
            <AltitudeMeters>706.4000244140625</AltitudeMeters>
            <DistanceMeters>53277.823109442</DistanceMeters>
          </Trackpoint>
          <Trackpoint>
            <Time>2018-08-26T07:47:00.000Z</Time>
            <Position>
              <LatitudeDegrees>43.0501280911266803741455078125</LatitudeDegrees>
              <LongitudeDegrees>-1.75985969603061676025390625</LongitudeDegrees>
            </Position>
            <AltitudeMeters>706.79998779296875</AltitudeMeters>
            <DistanceMeters>53283.720893303</DistanceMeters>
          </Trackpoint>
          <Trackpoint>
            <Time>2018-08-26T07:47:01.000Z</Time>
            <Position>
              <LatitudeDegrees>43.05017813108861446380615234375</LatitudeDegrees>
              <LongitudeDegrees>-1.75982776097953319549560546875</LongitudeDegrees>
            </Position>
            <AltitudeMeters>707</AltitudeMeters>
            <DistanceMeters>53289.866117439</DistanceMeters>
          </Trackpoint>
          <Trackpoint>
            <Time>2018-08-26T07:47:02.000Z</Time>
            <Position>
              <LatitudeDegrees>43.050222806632518768310546875</LatitudeDegrees>
              <LongitudeDegrees>-1.7597897909581661224365234375</LongitudeDegrees>
            </Position>
            <AltitudeMeters>707.20001220703125</AltitudeMeters>
            <DistanceMeters>53295.719331089</DistanceMeters>
          </Trackpoint>
          <Trackpoint>
            <Time>2018-08-26T07:47:03.000Z</Time>
            <Position>
              <LatitudeDegrees>43.05026178248226642608642578125</LatitudeDegrees>
              <LongitudeDegrees>-1.75975450314581394195556640625</LongitudeDegrees>
            </Position>
            <AltitudeMeters>707.4000244140625</AltitudeMeters>
            <DistanceMeters>53300.921555527</DistanceMeters>
          </Trackpoint>
          <Trackpoint>
            <Time>2018-08-26T07:47:04.000Z</Time>
            <Position>
              <LatitudeDegrees>43.0503036081790924072265625</LatitudeDegrees>
              <LongitudeDegrees>-1.759717874228954315185546875</LongitudeDegrees>
            </Position>
            <AltitudeMeters>707.5999755859375</AltitudeMeters>
            <DistanceMeters>53306.449464597</DistanceMeters>
          </Trackpoint>
          <Trackpoint>
            <Time>2018-08-26T07:47:05.000Z</Time>
            <Position>
              <LatitudeDegrees>43.0503476969897747039794921875</LatitudeDegrees>
              <LongitudeDegrees>-1.75968308933079242706298828125</LongitudeDegrees>
            </Position>
            <AltitudeMeters>707.5999755859375</AltitudeMeters>
            <DistanceMeters>53312.112929219</DistanceMeters>
          </Trackpoint>
          <Trackpoint>
            <Time>2018-08-26T07:47:06.000Z</Time>
            <Position>
              <LatitudeDegrees>43.05039354600012302398681640625</LatitudeDegrees>
              <LongitudeDegrees>-1.75965945236384868621826171875</LongitudeDegrees>
            </Position>
            <AltitudeMeters>708</AltitudeMeters>
            <DistanceMeters>53317.565177531</DistanceMeters>
          </Trackpoint>
          <Trackpoint>
            <Time>2018-08-26T07:47:07.000Z</Time>
            <Position>
              <LatitudeDegrees>43.05044333450496196746826171875</LatitudeDegrees>
              <LongitudeDegrees>-1.75965174101293087005615234375</LongitudeDegrees>
            </Position>
            <AltitudeMeters>708.20001220703125</AltitudeMeters>
            <DistanceMeters>53323.142687132</DistanceMeters>
          </Trackpoint>
          <Trackpoint>
            <Time>2018-08-26T07:47:08.000Z</Time>
            <Position>
              <LatitudeDegrees>43.05049245245754718780517578125</LatitudeDegrees>
              <LongitudeDegrees>-1.7596496455371379852294921875</LongitudeDegrees>
            </Position>
            <AltitudeMeters>708.20001220703125</AltitudeMeters>
            <DistanceMeters>53328.61147248</DistanceMeters>
          </Trackpoint>
          <Trackpoint>
            <Time>2018-08-26T07:47:09.000Z</Time>
            <Position>
              <LatitudeDegrees>43.05054374970495700836181640625</LatitudeDegrees>
              <LongitudeDegrees>-1.75965760834515094757080078125</LongitudeDegrees>
            </Position>
            <AltitudeMeters>708.4000244140625</AltitudeMeters>
            <DistanceMeters>53334.357250015</DistanceMeters>
          </Trackpoint>
          <Trackpoint>
            <Time>2018-08-26T07:47:10.000Z</Time>
            <Position>
              <LatitudeDegrees>43.0505944602191448211669921875</LatitudeDegrees>
              <LongitudeDegrees>-1.75967319868505001068115234375</LongitudeDegrees>
            </Position>
            <AltitudeMeters>708.4000244140625</AltitudeMeters>
            <DistanceMeters>53340.142184181</DistanceMeters>
          </Trackpoint>
          <Trackpoint>
            <Time>2018-08-26T07:47:11.000Z</Time>
            <Position>
              <LatitudeDegrees>43.05064483545720577239990234375</LatitudeDegrees>
              <LongitudeDegrees>-1.75969063304364681243896484375</LongitudeDegrees>
            </Position>
            <AltitudeMeters>708.79998779296875</AltitudeMeters>
            <DistanceMeters>53345.925557171</DistanceMeters>
          </Trackpoint>
          <Trackpoint>
            <Time>2018-08-26T07:47:12.000Z</Time>
            <Position>
              <LatitudeDegrees>43.05069445632398128509521484375</LatitudeDegrees>
              <LongitudeDegrees>-1.759703457355499267578125</LongitudeDegrees>
            </Position>
            <AltitudeMeters>708.79998779296875</AltitudeMeters>
            <DistanceMeters>53351.545806934</DistanceMeters>
          </Trackpoint>
          <Trackpoint>
            <Time>2018-08-26T07:47:13.000Z</Time>
            <Position>
              <LatitudeDegrees>43.0507453344762325286865234375</LatitudeDegrees>
              <LongitudeDegrees>-1.7597183771431446075439453125</LongitudeDegrees>
            </Position>
            <AltitudeMeters>709</AltitudeMeters>
            <DistanceMeters>53357.336981592</DistanceMeters>
          </Trackpoint>
          <Trackpoint>
            <Time>2018-08-26T07:47:14.000Z</Time>
            <Position>
              <LatitudeDegrees>43.05079554207623004913330078125</LatitudeDegrees>
              <LongitudeDegrees>-1.7597364820539951324462890625</LongitudeDegrees>
            </Position>
            <AltitudeMeters>709</AltitudeMeters>
            <DistanceMeters>53363.115668527</DistanceMeters>
          </Trackpoint>
          <Trackpoint>
            <Time>2018-08-26T07:47:15.000Z</Time>
            <Position>
              <LatitudeDegrees>43.05084516294300556182861328125</LatitudeDegrees>
              <LongitudeDegrees>-1.759755425155162811279296875</LongitudeDegrees>
            </Position>
            <AltitudeMeters>709.20001220703125</AltitudeMeters>
            <DistanceMeters>53368.850434294</DistanceMeters>
          </Trackpoint>
          <Trackpoint>
            <Time>2018-08-26T07:47:16.000Z</Time>
            <Position>
              <LatitudeDegrees>43.0508928559720516204833984375</LatitudeDegrees>
              <LongitudeDegrees>-1.759778559207916259765625</LongitudeDegrees>
            </Position>
            <AltitudeMeters>709.5999755859375</AltitudeMeters>
            <DistanceMeters>53374.483523023</DistanceMeters>
          </Trackpoint>
          <Trackpoint>
            <Time>2018-08-26T07:47:17.000Z</Time>
            <Position>
              <LatitudeDegrees>43.0509397946298122406005859375</LatitudeDegrees>
              <LongitudeDegrees>-1.759796999394893646240234375</LongitudeDegrees>
            </Position>
            <AltitudeMeters>710</AltitudeMeters>
            <DistanceMeters>53379.919183987</DistanceMeters>
          </Trackpoint>
          <Trackpoint>
            <Time>2018-08-26T07:47:18.000Z</Time>
            <Position>
              <LatitudeDegrees>43.0509853921830654144287109375</LatitudeDegrees>
              <LongitudeDegrees>-1.7598075605928897857666015625</LongitudeDegrees>
            </Position>
            <AltitudeMeters>710.4000244140625</AltitudeMeters>
            <DistanceMeters>53385.067317082</DistanceMeters>
          </Trackpoint>
          <Trackpoint>
            <Time>2018-08-26T07:47:19.000Z</Time>
            <Position>
              <LatitudeDegrees>43.0510330013930797576904296875</LatitudeDegrees>
              <LongitudeDegrees>-1.7598216421902179718017578125</LongitudeDegrees>
            </Position>
            <AltitudeMeters>710.79998779296875</AltitudeMeters>
            <DistanceMeters>53390.489671636</DistanceMeters>
          </Trackpoint>
          <Trackpoint>
            <Time>2018-08-26T07:47:20.000Z</Time>
            <Position>
              <LatitudeDegrees>43.0510826222598552703857421875</LatitudeDegrees>
              <LongitudeDegrees>-1.7598380707204341888427734375</LongitudeDegrees>
            </Position>
            <AltitudeMeters>711.20001220703125</AltitudeMeters>
            <DistanceMeters>53396.172237373</DistanceMeters>
          </Trackpoint>
          <Trackpoint>
            <Time>2018-08-26T07:47:21.000Z</Time>
            <Position>
              <LatitudeDegrees>43.051133416593074798583984375</LatitudeDegrees>
              <LongitudeDegrees>-1.7598524875938892364501953125</LongitudeDegrees>
            </Position>
            <AltitudeMeters>711.5999755859375</AltitudeMeters>
            <DistanceMeters>53401.946234449</DistanceMeters>
          </Trackpoint>
          <Trackpoint>
            <Time>2018-08-26T07:47:22.000Z</Time>
            <Position>
              <LatitudeDegrees>43.0511771701276302337646484375</LatitudeDegrees>
              <LongitudeDegrees>-1.7598684132099151611328125</LongitudeDegrees>
            </Position>
            <AltitudeMeters>711.79998779296875</AltitudeMeters>
            <DistanceMeters>53406.985339028</DistanceMeters>
          </Trackpoint>
          <Trackpoint>
            <Time>2018-08-26T07:47:23.000Z</Time>
            <Position>
              <LatitudeDegrees>43.05121933110058307647705078125</LatitudeDegrees>
              <LongitudeDegrees>-1.759885847568511962890625</LongitudeDegrees>
            </Position>
            <AltitudeMeters>712</AltitudeMeters>
            <DistanceMeters>53411.887280829</DistanceMeters>
          </Trackpoint>
          <Trackpoint>
            <Time>2018-08-26T07:47:24.000Z</Time>
            <Position>
              <LatitudeDegrees>43.05126341991126537322998046875</LatitudeDegrees>
              <LongitudeDegrees>-1.759902276098728179931640625</LongitudeDegrees>
            </Position>
            <AltitudeMeters>712.4000244140625</AltitudeMeters>
            <DistanceMeters>53416.972763986</DistanceMeters>
          </Trackpoint>
          <Trackpoint>
            <Time>2018-08-26T07:47:25.000Z</Time>
            <Position>
              <LatitudeDegrees>43.05130532942712306976318359375</LatitudeDegrees>
              <LongitudeDegrees>-1.75991945900022983551025390625</LongitudeDegrees>
            </Position>
            <AltitudeMeters>712.5999755859375</AltitudeMeters>
            <DistanceMeters>53421.842361581</DistanceMeters>
          </Trackpoint>
          <Trackpoint>
            <Time>2018-08-26T07:47:26.000Z</Time>
            <Position>
              <LatitudeDegrees>43.05134790949523448944091796875</LatitudeDegrees>
              <LongitudeDegrees>-1.759941168129444122314453125</LongitudeDegrees>
            </Position>
            <AltitudeMeters>712.5999755859375</AltitudeMeters>
            <DistanceMeters>53426.899354412</DistanceMeters>
          </Trackpoint>
          <Trackpoint>
            <Time>2018-08-26T07:47:27.000Z</Time>
            <Position>
              <LatitudeDegrees>43.0513907410204410552978515625</LatitudeDegrees>
              <LongitudeDegrees>-1.75995969213545322418212890625</LongitudeDegrees>
            </Position>
            <AltitudeMeters>712.79998779296875</AltitudeMeters>
            <DistanceMeters>53431.898879549</DistanceMeters>
          </Trackpoint>
          <Trackpoint>
            <Time>2018-08-26T07:47:28.000Z</Time>
            <Position>
              <LatitudeDegrees>43.05143441073596477508544921875</LatitudeDegrees>
              <LongitudeDegrees>-1.7599778808653354644775390625</LongitudeDegrees>
            </Position>
            <AltitudeMeters>713</AltitudeMeters>
            <DistanceMeters>53436.979921622</DistanceMeters>
          </Trackpoint>
          <Trackpoint>
            <Time>2018-08-26T07:47:29.000Z</Time>
            <Position>
              <LatitudeDegrees>43.05148067884147167205810546875</LatitudeDegrees>
              <LongitudeDegrees>-1.759990788996219635009765625</LongitudeDegrees>
            </Position>
            <AltitudeMeters>713</AltitudeMeters>
            <DistanceMeters>53442.236539729</DistanceMeters>
          </Trackpoint>
          <Trackpoint>
            <Time>2018-08-26T07:47:30.000Z</Time>
            <Position>
              <LatitudeDegrees>43.0515282042324542999267578125</LatitudeDegrees>
              <LongitudeDegrees>-1.76000277511775493621826171875</LongitudeDegrees>
            </Position>
            <AltitudeMeters>713</AltitudeMeters>
            <DistanceMeters>53447.615421112</DistanceMeters>
          </Trackpoint>
          <Trackpoint>
            <Time>2018-08-26T07:47:31.000Z</Time>
            <Position>
              <LatitudeDegrees>43.05157623253762722015380859375</LatitudeDegrees>
              <LongitudeDegrees>-1.76001266576349735260009765625</LongitudeDegrees>
            </Position>
            <AltitudeMeters>713.4000244140625</AltitudeMeters>
            <DistanceMeters>53453.021096589</DistanceMeters>
          </Trackpoint>
          <Trackpoint>
            <Time>2018-08-26T07:47:32.000Z</Time>
            <Position>
              <LatitudeDegrees>43.0516237579286098480224609375</LatitudeDegrees>
              <LongitudeDegrees>-1.7600221373140811920166015625</LongitudeDegrees>
            </Position>
            <AltitudeMeters>713.5999755859375</AltitudeMeters>
            <DistanceMeters>53458.36629648</DistanceMeters>
          </Trackpoint>
          <Trackpoint>
            <Time>2018-08-26T07:47:33.000Z</Time>
            <Position>
              <LatitudeDegrees>43.0516690202057361602783203125</LatitudeDegrees>
              <LongitudeDegrees>-1.7600271664559841156005859375</LongitudeDegrees>
            </Position>
            <AltitudeMeters>713.79998779296875</AltitudeMeters>
            <DistanceMeters>53463.420610109</DistanceMeters>
          </Trackpoint>
          <Trackpoint>
            <Time>2018-08-26T07:47:34.000Z</Time>
            <Position>
              <LatitudeDegrees>43.0517176352441310882568359375</LatitudeDegrees>
              <LongitudeDegrees>-1.76003596745431423187255859375</LongitudeDegrees>
            </Position>
            <AltitudeMeters>714.20001220703125</AltitudeMeters>
            <DistanceMeters>53468.879479247</DistanceMeters>
          </Trackpoint>
          <Trackpoint>
            <Time>2018-08-26T07:47:35.000Z</Time>
            <Position>
              <LatitudeDegrees>43.05176851339638233184814453125</LatitudeDegrees>
              <LongitudeDegrees>-1.76003814674913883209228515625</LongitudeDegrees>
            </Position>
            <AltitudeMeters>714.4000244140625</AltitudeMeters>
            <DistanceMeters>53474.54613186</DistanceMeters>
          </Trackpoint>
          <Trackpoint>
            <Time>2018-08-26T07:47:36.000Z</Time>
            <Position>
              <LatitudeDegrees>43.05182014591991901397705078125</LatitudeDegrees>
              <LongitudeDegrees>-1.76004501990973949432373046875</LongitudeDegrees>
            </Position>
            <AltitudeMeters>714.79998779296875</AltitudeMeters>
            <DistanceMeters>53480.320128935</DistanceMeters>
          </Trackpoint>
          <Trackpoint>
            <Time>2018-08-26T07:47:37.000Z</Time>
            <Position>
              <LatitudeDegrees>43.05187211371958255767822265625</LatitudeDegrees>
              <LongitudeDegrees>-1.7600553296506404876708984375</LongitudeDegrees>
            </Position>
            <AltitudeMeters>715.20001220703125</AltitudeMeters>
            <DistanceMeters>53486.165623719</DistanceMeters>
          </Trackpoint>
          <Trackpoint>
            <Time>2018-08-26T07:47:38.000Z</Time>
            <Position>
              <LatitudeDegrees>43.051926009356975555419921875</LatitudeDegrees>
              <LongitudeDegrees>-1.76006614230573177337646484375</LongitudeDegrees>
            </Position>
            <AltitudeMeters>715.5999755859375</AltitudeMeters>
            <DistanceMeters>53492.228000409</DistanceMeters>
          </Trackpoint>
          <Trackpoint>
            <Time>2018-08-26T07:47:39.000Z</Time>
            <Position>
              <LatitudeDegrees>43.05197956971824169158935546875</LatitudeDegrees>
              <LongitudeDegrees>-1.76008290611207485198974609375</LongitudeDegrees>
            </Position>
            <AltitudeMeters>715.79998779296875</AltitudeMeters>
            <DistanceMeters>53498.343765008</DistanceMeters>
          </Trackpoint>
          <Trackpoint>
            <Time>2018-08-26T07:47:40.000Z</Time>
            <Position>
              <LatitudeDegrees>43.052031956613063812255859375</LatitudeDegrees>
              <LongitudeDegrees>-1.760115511715412139892578125</LongitudeDegrees>
            </Position>
            <AltitudeMeters>716</AltitudeMeters>
            <DistanceMeters>53504.749439629</DistanceMeters>
          </Trackpoint>
          <Trackpoint>
            <Time>2018-08-26T07:47:41.000Z</Time>
            <Position>
              <LatitudeDegrees>43.05208216421306133270263671875</LatitudeDegrees>
              <LongitudeDegrees>-1.76015431992709636688232421875</LongitudeDegrees>
            </Position>
            <AltitudeMeters>716.4000244140625</AltitudeMeters>
            <DistanceMeters>53511.167789007</DistanceMeters>
          </Trackpoint>
          <Trackpoint>
            <Time>2018-08-26T07:47:42.000Z</Time>
            <Position>
              <LatitudeDegrees>43.0521301925182342529296875</LatitudeDegrees>
              <LongitudeDegrees>-1.76019488833844661712646484375</LongitudeDegrees>
            </Position>
            <AltitudeMeters>716.4000244140625</AltitudeMeters>
            <DistanceMeters>53517.450341366</DistanceMeters>
          </Trackpoint>
          <Trackpoint>
            <Time>2018-08-26T07:47:43.000Z</Time>
            <Position>
              <LatitudeDegrees>43.05217771790921688079833984375</LatitudeDegrees>
              <LongitudeDegrees>-1.7602269910275936126708984375</LongitudeDegrees>
            </Position>
            <AltitudeMeters>716.5999755859375</AltitudeMeters>
            <DistanceMeters>53523.349656124</DistanceMeters>
          </Trackpoint>
          <Trackpoint>
            <Time>2018-08-26T07:47:44.000Z</Time>
            <Position>
              <LatitudeDegrees>43.05222264491021633148193359375</LatitudeDegrees>
              <LongitudeDegrees>-1.76026563160121440887451171875</LongitudeDegrees>
            </Position>
            <AltitudeMeters>716.79998779296875</AltitudeMeters>
            <DistanceMeters>53529.25661942</DistanceMeters>
          </Trackpoint>
          <Trackpoint>
            <Time>2018-08-26T07:47:45.000Z</Time>
            <Position>
              <LatitudeDegrees>43.0522654764354228973388671875</LatitudeDegrees>
              <LongitudeDegrees>-1.76030435599386692047119140625</LongitudeDegrees>
            </Position>
            <AltitudeMeters>716.79998779296875</AltitudeMeters>
            <DistanceMeters>53534.970088274</DistanceMeters>
          </Trackpoint>
          <Trackpoint>
            <Time>2018-08-26T07:47:46.000Z</Time>
            <Position>
              <LatitudeDegrees>43.05230847559869289398193359375</LatitudeDegrees>
              <LongitudeDegrees>-1.760341823101043701171875</LongitudeDegrees>
            </Position>
            <AltitudeMeters>716.79998779296875</AltitudeMeters>
            <DistanceMeters>53540.643111493</DistanceMeters>
          </Trackpoint>
          <Trackpoint>
            <Time>2018-08-26T07:47:47.000Z</Time>
            <Position>
              <LatitudeDegrees>43.05235072039067745208740234375</LatitudeDegrees>
              <LongitudeDegrees>-1.76038130186498165130615234375</LongitudeDegrees>
            </Position>
            <AltitudeMeters>717</AltitudeMeters>
            <DistanceMeters>53546.337582892</DistanceMeters>
          </Trackpoint>
          <Trackpoint>
            <Time>2018-08-26T07:47:48.000Z</Time>
            <Position>
              <LatitudeDegrees>43.05239296518266201019287109375</LatitudeDegrees>
              <LongitudeDegrees>-1.7604150809347629547119140625</LongitudeDegrees>
            </Position>
            <AltitudeMeters>717</AltitudeMeters>
            <DistanceMeters>53551.784860303</DistanceMeters>
          </Trackpoint>
          <Trackpoint>
            <Time>2018-08-26T07:47:49.000Z</Time>
            <Position>
              <LatitudeDegrees>43.05243420414626598358154296875</LatitudeDegrees>
              <LongitudeDegrees>-1.76045187748968601226806640625</LongitudeDegrees>
            </Position>
            <AltitudeMeters>717.20001220703125</AltitudeMeters>
            <DistanceMeters>53557.264367961</DistanceMeters>
          </Trackpoint>
          <Trackpoint>
            <Time>2018-08-26T07:47:50.000Z</Time>
            <Position>
              <LatitudeDegrees>43.0524735152721405029296875</LatitudeDegrees>
              <LongitudeDegrees>-1.760491020977497100830078125</LongitudeDegrees>
            </Position>
            <AltitudeMeters>717.20001220703125</AltitudeMeters>
            <DistanceMeters>53562.674218029</DistanceMeters>
          </Trackpoint>
          <Trackpoint>
            <Time>2018-08-26T07:47:51.000Z</Time>
            <Position>
              <LatitudeDegrees>43.05251265875995159149169921875</LatitudeDegrees>
              <LongitudeDegrees>-1.76052832044661045074462890625</LongitudeDegrees>
            </Position>
            <AltitudeMeters>717.20001220703125</AltitudeMeters>
            <DistanceMeters>53567.982971986</DistanceMeters>
          </Trackpoint>
          <Trackpoint>
            <Time>2018-08-26T07:47:52.000Z</Time>
            <Position>
              <LatitudeDegrees>43.05255155079066753387451171875</LatitudeDegrees>
              <LongitudeDegrees>-1.7605631053447723388671875</LongitudeDegrees>
            </Position>
            <AltitudeMeters>717.4000244140625</AltitudeMeters>
            <DistanceMeters>53573.154730529</DistanceMeters>
          </Trackpoint>
          <Trackpoint>
            <Time>2018-08-26T07:47:53.000Z</Time>
            <Position>
              <LatitudeDegrees>43.052591197192668914794921875</LatitudeDegrees>
              <LongitudeDegrees>-1.76059755496680736541748046875</LongitudeDegrees>
            </Position>
            <AltitudeMeters>717.5999755859375</AltitudeMeters>
            <DistanceMeters>53578.38119982</DistanceMeters>
          </Trackpoint>
          <Trackpoint>
            <Time>2018-08-26T07:47:54.000Z</Time>
            <Position>
              <LatitudeDegrees>43.05263042449951171875</LatitudeDegrees>
              <LongitudeDegrees>-1.76063292659819126129150390625</LongitudeDegrees>
            </Position>
            <AltitudeMeters>717.79998779296875</AltitudeMeters>
            <DistanceMeters>53583.609396583</DistanceMeters>
          </Trackpoint>
          <Trackpoint>
            <Time>2018-08-26T07:47:55.000Z</Time>
            <Position>
              <LatitudeDegrees>43.0526694841682910919189453125</LatitudeDegrees>
              <LongitudeDegrees>-1.76066712476313114166259765625</LongitudeDegrees>
            </Position>
            <AltitudeMeters>718</AltitudeMeters>
            <DistanceMeters>53588.768918398</DistanceMeters>
          </Trackpoint>
          <Trackpoint>
            <Time>2018-08-26T07:47:56.000Z</Time>
            <Position>
              <LatitudeDegrees>43.05270619690418243408203125</LatitudeDegrees>
              <LongitudeDegrees>-1.7607057653367519378662109375</LongitudeDegrees>
            </Position>
            <AltitudeMeters>718.4000244140625</AltitudeMeters>
            <DistanceMeters>53593.924062913</DistanceMeters>
          </Trackpoint>
          <Trackpoint>
            <Time>2018-08-26T07:47:57.000Z</Time>
            <Position>
              <LatitudeDegrees>43.05274282582104206085205078125</LatitudeDegrees>
              <LongitudeDegrees>-1.76073702983558177947998046875</LongitudeDegrees>
            </Position>
            <AltitudeMeters>718.79998779296875</AltitudeMeters>
            <DistanceMeters>53598.728318879</DistanceMeters>
          </Trackpoint>
          <Trackpoint>
            <Time>2018-08-26T07:47:58.000Z</Time>
            <Position>
              <LatitudeDegrees>43.05277886800467967987060546875</LatitudeDegrees>
              <LongitudeDegrees>-1.7607657797634601593017578125</LongitudeDegrees>
            </Position>
            <AltitudeMeters>719.20001220703125</AltitudeMeters>
            <DistanceMeters>53603.37200519</DistanceMeters>
          </Trackpoint>
          <Trackpoint>
            <Time>2018-08-26T07:47:59.000Z</Time>
            <Position>
              <LatitudeDegrees>43.052813820540904998779296875</LatitudeDegrees>
              <LongitudeDegrees>-1.7607937753200531005859375</LongitudeDegrees>
            </Position>
            <AltitudeMeters>719.4000244140625</AltitudeMeters>
            <DistanceMeters>53607.879518029</DistanceMeters>
          </Trackpoint>
          <Trackpoint>
            <Time>2018-08-26T07:48:00.000Z</Time>
            <Position>
              <LatitudeDegrees>43.05284759961068630218505859375</LatitudeDegrees>
              <LongitudeDegrees>-1.76081732846796512603759765625</LongitudeDegrees>
            </Position>
            <AltitudeMeters>719.79998779296875</AltitudeMeters>
            <DistanceMeters>53612.099388969</DistanceMeters>
          </Trackpoint>
          <Trackpoint>
            <Time>2018-08-26T07:48:01.000Z</Time>
            <Position>
              <LatitudeDegrees>43.052879534661769866943359375</LatitudeDegrees>
              <LongitudeDegrees>-1.76084331236779689788818359375</LongitudeDegrees>
            </Position>
            <AltitudeMeters>720.20001220703125</AltitudeMeters>
            <DistanceMeters>53616.234962059</DistanceMeters>
          </Trackpoint>
          <Trackpoint>
            <Time>2018-08-26T07:48:02.000Z</Time>
            <Position>
              <LatitudeDegrees>43.052910380065441131591796875</LatitudeDegrees>
              <LongitudeDegrees>-1.76087264902889728546142578125</LongitudeDegrees>
            </Position>
            <AltitudeMeters>720.5999755859375</AltitudeMeters>
            <DistanceMeters>53620.416137492</DistanceMeters>
          </Trackpoint>
          <Trackpoint>
            <Time>2018-08-26T07:48:03.000Z</Time>
            <Position>
              <LatitudeDegrees>43.0529403872787952423095703125</LatitudeDegrees>
              <LongitudeDegrees>-1.760903410613536834716796875</LongitudeDegrees>
            </Position>
            <AltitudeMeters>721</AltitudeMeters>
            <DistanceMeters>53624.588665189</DistanceMeters>
          </Trackpoint>
          <Trackpoint>
            <Time>2018-08-26T07:48:04.000Z</Time>
            <Position>
              <LatitudeDegrees>43.052970059216022491455078125</LatitudeDegrees>
              <LongitudeDegrees>-1.76093526184558868408203125</LongitudeDegrees>
            </Position>
            <AltitudeMeters>721.4000244140625</AltitudeMeters>
            <DistanceMeters>53628.784931275</DistanceMeters>
          </Trackpoint>
          <Trackpoint>
            <Time>2018-08-26T07:48:05.000Z</Time>
            <Position>
              <LatitudeDegrees>43.05299964733421802520751953125</LatitudeDegrees>
              <LongitudeDegrees>-1.7609666101634502410888671875</LongitudeDegrees>
            </Position>
            <AltitudeMeters>721.79998779296875</AltitudeMeters>
            <DistanceMeters>53632.950961391</DistanceMeters>
          </Trackpoint>
          <Trackpoint>
            <Time>2018-08-26T07:48:06.000Z</Time>
            <Position>
              <LatitudeDegrees>43.0530282296240329742431640625</LatitudeDegrees>
              <LongitudeDegrees>-1.76099837757647037506103515625</LongitudeDegrees>
            </Position>
            <AltitudeMeters>722.20001220703125</AltitudeMeters>
            <DistanceMeters>53637.049246664</DistanceMeters>
          </Trackpoint>
          <Trackpoint>
            <Time>2018-08-26T07:48:07.000Z</Time>
            <Position>
              <LatitudeDegrees>43.05305513553321361541748046875</LatitudeDegrees>
              <LongitudeDegrees>-1.76102905534207820892333984375</LongitudeDegrees>
            </Position>
            <AltitudeMeters>722.5999755859375</AltitudeMeters>
            <DistanceMeters>53640.946500644</DistanceMeters>
          </Trackpoint>
          <Trackpoint>
            <Time>2018-08-26T07:48:08.000Z</Time>
            <Position>
              <LatitudeDegrees>43.0530808679759502410888671875</LatitudeDegrees>
              <LongitudeDegrees>-1.761059649288654327392578125</LongitudeDegrees>
            </Position>
            <AltitudeMeters>723</AltitudeMeters>
            <DistanceMeters>53644.741625402</DistanceMeters>
          </Trackpoint>
          <Trackpoint>
            <Time>2018-08-26T07:48:09.000Z</Time>
            <Position>
              <LatitudeDegrees>43.053107522428035736083984375</LatitudeDegrees>
              <LongitudeDegrees>-1.761089153587818145751953125</LongitudeDegrees>
            </Position>
            <AltitudeMeters>723.20001220703125</AltitudeMeters>
            <DistanceMeters>53648.556921357</DistanceMeters>
          </Trackpoint>
          <Trackpoint>
            <Time>2018-08-26T07:48:10.000Z</Time>
            <Position>
              <LatitudeDegrees>43.05313400924205780029296875</LatitudeDegrees>
              <LongitudeDegrees>-1.76111773587763309478759765625</LongitudeDegrees>
            </Position>
            <AltitudeMeters>723.5999755859375</AltitudeMeters>
            <DistanceMeters>53652.312581007</DistanceMeters>
          </Trackpoint>
          <Trackpoint>
            <Time>2018-08-26T07:48:11.000Z</Time>
            <Position>
              <LatitudeDegrees>43.053161166608333587646484375</LatitudeDegrees>
              <LongitudeDegrees>-1.76114874891936779022216796875</LongitudeDegrees>
            </Position>
            <AltitudeMeters>724</AltitudeMeters>
            <DistanceMeters>53656.249027523</DistanceMeters>
          </Trackpoint>
          <Trackpoint>
            <Time>2018-08-26T07:48:12.000Z</Time>
            <Position>
              <LatitudeDegrees>43.0531894974410533905029296875</LatitudeDegrees>
              <LongitudeDegrees>-1.7611805163323879241943359375</LongitudeDegrees>
            </Position>
            <AltitudeMeters>724.20001220703125</AltitudeMeters>
            <DistanceMeters>53660.325219454</DistanceMeters>
          </Trackpoint>
          <Trackpoint>
            <Time>2018-08-26T07:48:13.000Z</Time>
            <Position>
              <LatitudeDegrees>43.05321908555924892425537109375</LatitudeDegrees>
              <LongitudeDegrees>-1.7612073384225368499755859375</LongitudeDegrees>
            </Position>
            <AltitudeMeters>724.4000244140625</AltitudeMeters>
            <DistanceMeters>53664.275405791</DistanceMeters>
          </Trackpoint>
          <Trackpoint>
            <Time>2018-08-26T07:48:14.000Z</Time>
            <Position>
              <LatitudeDegrees>43.053250014781951904296875</LatitudeDegrees>
              <LongitudeDegrees>-1.7612294666469097137451171875</LongitudeDegrees>
            </Position>
            <AltitudeMeters>724.79998779296875</AltitudeMeters>
            <DistanceMeters>53668.158732672</DistanceMeters>
          </Trackpoint>
          <Trackpoint>
            <Time>2018-08-26T07:48:15.000Z</Time>
            <Position>
              <LatitudeDegrees>43.0532820336520671844482421875</LatitudeDegrees>
              <LongitudeDegrees>-1.761244721710681915283203125</LongitudeDegrees>
            </Position>
            <AltitudeMeters>725.4000244140625</AltitudeMeters>
            <DistanceMeters>53671.931185518</DistanceMeters>
          </Trackpoint>
          <Trackpoint>
            <Time>2018-08-26T07:48:16.000Z</Time>
            <Position>
              <LatitudeDegrees>43.05331598035991191864013671875</LatitudeDegrees>
              <LongitudeDegrees>-1.76125578582286834716796875</LongitudeDegrees>
            </Position>
            <AltitudeMeters>725.79998779296875</AltitudeMeters>
            <DistanceMeters>53675.815674897</DistanceMeters>
          </Trackpoint>
          <Trackpoint>
            <Time>2018-08-26T07:48:17.000Z</Time>
            <Position>
              <LatitudeDegrees>43.05335051380097866058349609375</LatitudeDegrees>
              <LongitudeDegrees>-1.7612658441066741943359375</LongitudeDegrees>
            </Position>
            <AltitudeMeters>726.20001220703125</AltitudeMeters>
            <DistanceMeters>53679.745233488</DistanceMeters>
          </Trackpoint>
          <Trackpoint>
            <Time>2018-08-26T07:48:18.000Z</Time>
            <Position>
              <LatitudeDegrees>43.05338353849947452545166015625</LatitudeDegrees>
              <LongitudeDegrees>-1.76127254962921142578125</LongitudeDegrees>
            </Position>
            <AltitudeMeters>726.4000244140625</AltitudeMeters>
            <DistanceMeters>53683.461008896</DistanceMeters>
          </Trackpoint>
          <Trackpoint>
            <Time>2018-08-26T07:48:19.000Z</Time>
            <Position>
              <LatitudeDegrees>43.05341773666441440582275390625</LatitudeDegrees>
              <LongitudeDegrees>-1.76127724349498748779296875</LongitudeDegrees>
            </Position>
            <AltitudeMeters>726.79998779296875</AltitudeMeters>
            <DistanceMeters>53687.28576037</DistanceMeters>
          </Trackpoint>
          <Trackpoint>
            <Time>2018-08-26T07:48:20.000Z</Time>
            <Position>
              <LatitudeDegrees>43.0534525215625762939453125</LatitudeDegrees>
              <LongitudeDegrees>-1.7612792551517486572265625</LongitudeDegrees>
            </Position>
            <AltitudeMeters>727</AltitudeMeters>
            <DistanceMeters>53691.159774703</DistanceMeters>
          </Trackpoint>
          <Trackpoint>
            <Time>2018-08-26T07:48:21.000Z</Time>
            <Position>
              <LatitudeDegrees>43.05348529480397701263427734375</LatitudeDegrees>
              <LongitudeDegrees>-1.761278249323368072509765625</LongitudeDegrees>
            </Position>
            <AltitudeMeters>727.20001220703125</AltitudeMeters>
            <DistanceMeters>53694.808107566</DistanceMeters>
          </Trackpoint>
          <Trackpoint>
            <Time>2018-08-26T07:48:22.000Z</Time>
            <Position>
              <LatitudeDegrees>43.0535168945789337158203125</LatitudeDegrees>
              <LongitudeDegrees>-1.76127430982887744903564453125</LongitudeDegrees>
            </Position>
            <AltitudeMeters>727.4000244140625</AltitudeMeters>
            <DistanceMeters>53698.340750435</DistanceMeters>
          </Trackpoint>
          <Trackpoint>
            <Time>2018-08-26T07:48:23.000Z</Time>
            <Position>
              <LatitudeDegrees>43.05354916490614414215087890625</LatitudeDegrees>
              <LongitudeDegrees>-1.761269867420196533203125</LongitudeDegrees>
            </Position>
            <AltitudeMeters>727.5999755859375</AltitudeMeters>
            <DistanceMeters>53701.949264012</DistanceMeters>
          </Trackpoint>
          <Trackpoint>
            <Time>2018-08-26T07:48:24.000Z</Time>
            <Position>
              <LatitudeDegrees>43.0535814352333545684814453125</LatitudeDegrees>
              <LongitudeDegrees>-1.7612707056105136871337890625</LongitudeDegrees>
            </Position>
            <AltitudeMeters>727.79998779296875</AltitudeMeters>
            <DistanceMeters>53705.542731601</DistanceMeters>
          </Trackpoint>
          <Trackpoint>
            <Time>2018-08-26T07:48:25.000Z</Time>
            <Position>
              <LatitudeDegrees>43.05361186154186725616455078125</LatitudeDegrees>
              <LongitudeDegrees>-1.761268861591815948486328125</LongitudeDegrees>
            </Position>
            <AltitudeMeters>728</AltitudeMeters>
            <DistanceMeters>53708.934533097</DistanceMeters>
          </Trackpoint>
          <Trackpoint>
            <Time>2018-08-26T07:48:26.000Z</Time>
            <Position>
              <LatitudeDegrees>43.05363935418426990509033203125</LatitudeDegrees>
              <LongitudeDegrees>-1.761275231838226318359375</LongitudeDegrees>
            </Position>
            <AltitudeMeters>728.20001220703125</AltitudeMeters>
            <DistanceMeters>53712.040031712</DistanceMeters>
          </Trackpoint>
          <Trackpoint>
            <Time>2018-08-26T07:48:27.000Z</Time>
            <Position>
              <LatitudeDegrees>43.0536709539592266082763671875</LatitudeDegrees>
              <LongitudeDegrees>-1.7612807638943195343017578125</LongitudeDegrees>
            </Position>
            <AltitudeMeters>728.5999755859375</AltitudeMeters>
            <DistanceMeters>53715.585432452</DistanceMeters>
          </Trackpoint>
          <Trackpoint>
            <Time>2018-08-26T07:48:28.000Z</Time>
            <Position>
              <LatitudeDegrees>43.05370003916323184967041015625</LatitudeDegrees>
              <LongitudeDegrees>-1.7612945102155208587646484375</LongitudeDegrees>
            </Position>
            <AltitudeMeters>728.79998779296875</AltitudeMeters>
            <DistanceMeters>53719.009032783</DistanceMeters>
          </Trackpoint>
          <Trackpoint>
            <Time>2018-08-26T07:48:29.000Z</Time>
            <Position>
              <LatitudeDegrees>43.05372769944369792938232421875</LatitudeDegrees>
              <LongitudeDegrees>-1.76132158376276493072509765625</LongitudeDegrees>
            </Position>
            <AltitudeMeters>729.20001220703125</AltitudeMeters>
            <DistanceMeters>53722.794628022</DistanceMeters>
          </Trackpoint>
          <Trackpoint>
            <Time>2018-08-26T07:48:30.000Z</Time>
            <Position>
              <LatitudeDegrees>43.053759634494781494140625</LatitudeDegrees>
              <LongitudeDegrees>-1.76133985631167888641357421875</LongitudeDegrees>
            </Position>
            <AltitudeMeters>729.4000244140625</AltitudeMeters>
            <DistanceMeters>53726.647606827</DistanceMeters>
          </Trackpoint>
          <Trackpoint>
            <Time>2018-08-26T07:48:31.000Z</Time>
            <Position>
              <LatitudeDegrees>43.05379475466907024383544921875</LatitudeDegrees>
              <LongitudeDegrees>-1.761343963444232940673828125</LongitudeDegrees>
            </Position>
            <AltitudeMeters>729.5999755859375</AltitudeMeters>
            <DistanceMeters>53730.570265398</DistanceMeters>
          </Trackpoint>
          <Trackpoint>
            <Time>2018-08-26T07:48:32.000Z</Time>
            <Position>
              <LatitudeDegrees>43.05383004248142242431640625</LatitudeDegrees>
              <LongitudeDegrees>-1.76135024987161159515380859375</LongitudeDegrees>
            </Position>
            <AltitudeMeters>729.79998779296875</AltitudeMeters>
            <DistanceMeters>53734.530725318</DistanceMeters>
          </Trackpoint>
          <Trackpoint>
            <Time>2018-08-26T07:48:33.000Z</Time>
            <Position>
              <LatitudeDegrees>43.05386398918926715850830078125</LatitudeDegrees>
              <LongitudeDegrees>-1.7613649182021617889404296875</LongitudeDegrees>
            </Position>
            <AltitudeMeters>730</AltitudeMeters>
            <DistanceMeters>53738.493464641</DistanceMeters>
          </Trackpoint>
          <Trackpoint>
            <Time>2018-08-26T07:48:34.000Z</Time>
            <Position>
              <LatitudeDegrees>43.05389852263033390045166015625</LatitudeDegrees>
              <LongitudeDegrees>-1.7613759823143482208251953125</LongitudeDegrees>
            </Position>
            <AltitudeMeters>730.4000244140625</AltitudeMeters>
            <DistanceMeters>53742.441364328</DistanceMeters>
          </Trackpoint>
          <Trackpoint>
            <Time>2018-08-26T07:48:35.000Z</Time>
            <Position>
              <LatitudeDegrees>43.05393037386238574981689453125</LatitudeDegrees>
              <LongitudeDegrees>-1.761378161609172821044921875</LongitudeDegrees>
            </Position>
            <AltitudeMeters>730.5999755859375</AltitudeMeters>
            <DistanceMeters>53745.991855381</DistanceMeters>
          </Trackpoint>
          <Trackpoint>
            <Time>2018-08-26T07:48:36.000Z</Time>
            <Position>
              <LatitudeDegrees>43.0539608001708984375</LatitudeDegrees>
              <LongitudeDegrees>-1.761384867131710052490234375</LongitudeDegrees>
            </Position>
            <AltitudeMeters>731</AltitudeMeters>
            <DistanceMeters>53749.420726847</DistanceMeters>
          </Trackpoint>
          <Trackpoint>
            <Time>2018-08-26T07:48:37.000Z</Time>
            <Position>
              <LatitudeDegrees>43.05399072356522083282470703125</LatitudeDegrees>
              <LongitudeDegrees>-1.7613977752625942230224609375</LongitudeDegrees>
            </Position>
            <AltitudeMeters>731.4000244140625</AltitudeMeters>
            <DistanceMeters>53752.912231279</DistanceMeters>
          </Trackpoint>
          <Trackpoint>
            <Time>2018-08-26T07:48:38.000Z</Time>
            <Position>
              <LatitudeDegrees>43.05402223952114582061767578125</LatitudeDegrees>
              <LongitudeDegrees>-1.76142753101885318756103515625</LongitudeDegrees>
            </Position>
            <AltitudeMeters>731.79998779296875</AltitudeMeters>
            <DistanceMeters>53757.174685244</DistanceMeters>
          </Trackpoint>
          <Trackpoint>
            <Time>2018-08-26T07:48:39.000Z</Time>
            <Position>
              <LatitudeDegrees>43.0540585331618785858154296875</LatitudeDegrees>
              <LongitudeDegrees>-1.7614447139203548431396484375</LongitudeDegrees>
            </Position>
            <AltitudeMeters>732.20001220703125</AltitudeMeters>
            <DistanceMeters>53761.449831408</DistanceMeters>
          </Trackpoint>
          <Trackpoint>
            <Time>2018-08-26T07:48:40.000Z</Time>
            <Position>
              <LatitudeDegrees>43.0540964193642139434814453125</LatitudeDegrees>
              <LongitudeDegrees>-1.76145963370800018310546875</LongitudeDegrees>
            </Position>
            <AltitudeMeters>732.4000244140625</AltitudeMeters>
            <DistanceMeters>53765.838584426</DistanceMeters>
          </Trackpoint>
          <Trackpoint>
            <Time>2018-08-26T07:48:41.000Z</Time>
            <Position>
              <LatitudeDegrees>43.05413304828107357025146484375</LatitudeDegrees>
              <LongitudeDegrees>-1.76147849299013614654541015625</LongitudeDegrees>
            </Position>
            <AltitudeMeters>732.5999755859375</AltitudeMeters>
            <DistanceMeters>53770.193255543</DistanceMeters>
          </Trackpoint>
          <Trackpoint>
            <Time>2018-08-26T07:48:42.000Z</Time>
            <Position>
              <LatitudeDegrees>43.05417026393115520477294921875</LatitudeDegrees>
              <LongitudeDegrees>-1.76149559207260608673095703125</LongitudeDegrees>
            </Position>
            <AltitudeMeters>733</AltitudeMeters>
            <DistanceMeters>53774.562418117</DistanceMeters>
          </Trackpoint>
          <Trackpoint>
            <Time>2018-08-26T07:48:43.000Z</Time>
            <Position>
              <LatitudeDegrees>43.05420823395252227783203125</LatitudeDegrees>
              <LongitudeDegrees>-1.7615141160786151885986328125</LongitudeDegrees>
            </Position>
            <AltitudeMeters>733.20001220703125</AltitudeMeters>
            <DistanceMeters>53779.049852849</DistanceMeters>
          </Trackpoint>
          <Trackpoint>
            <Time>2018-08-26T07:48:44.000Z</Time>
            <Position>
              <LatitudeDegrees>43.05424838326871395111083984375</LatitudeDegrees>
              <LongitudeDegrees>-1.76153331063687801361083984375</LongitudeDegrees>
            </Position>
            <AltitudeMeters>733.5999755859375</AltitudeMeters>
            <DistanceMeters>53783.784052859</DistanceMeters>
          </Trackpoint>
          <Trackpoint>
            <Time>2018-08-26T07:48:45.000Z</Time>
            <Position>
              <LatitudeDegrees>43.0542868562042713165283203125</LatitudeDegrees>
              <LongitudeDegrees>-1.76155082881450653076171875</LongitudeDegrees>
            </Position>
            <AltitudeMeters>733.79998779296875</AltitudeMeters>
            <DistanceMeters>53788.297571714</DistanceMeters>
          </Trackpoint>
          <Trackpoint>
            <Time>2018-08-26T07:48:46.000Z</Time>
            <Position>
              <LatitudeDegrees>43.0543234013020992279052734375</LatitudeDegrees>
              <LongitudeDegrees>-1.76157019101083278656005859375</LongitudeDegrees>
            </Position>
            <AltitudeMeters>734</AltitudeMeters>
            <DistanceMeters>53792.659494577</DistanceMeters>
          </Trackpoint>
          <Trackpoint>
            <Time>2018-08-26T07:48:47.000Z</Time>
            <Position>
              <LatitudeDegrees>43.054358772933483123779296875</LatitudeDegrees>
              <LongitudeDegrees>-1.7615919001400470733642578125</LongitudeDegrees>
            </Position>
            <AltitudeMeters>734.4000244140625</AltitudeMeters>
            <DistanceMeters>53796.974586422</DistanceMeters>
          </Trackpoint>
          <Trackpoint>
            <Time>2018-08-26T07:48:48.000Z</Time>
            <Position>
              <LatitudeDegrees>43.0543978326022624969482421875</LatitudeDegrees>
              <LongitudeDegrees>-1.7616187222301959991455078125</LongitudeDegrees>
            </Position>
            <AltitudeMeters>734.5999755859375</AltitudeMeters>
            <DistanceMeters>53801.839545863</DistanceMeters>
          </Trackpoint>
          <Trackpoint>
            <Time>2018-08-26T07:48:49.000Z</Time>
            <Position>
              <LatitudeDegrees>43.0544363893568515777587890625</LatitudeDegrees>
              <LongitudeDegrees>-1.76164763979613780975341796875</LongitudeDegrees>
            </Position>
            <AltitudeMeters>735</AltitudeMeters>
            <DistanceMeters>53806.733191</DistanceMeters>
          </Trackpoint>
          <Trackpoint>
            <Time>2018-08-26T07:48:50.000Z</Time>
            <Position>
              <LatitudeDegrees>43.05447301827371120452880859375</LatitudeDegrees>
              <LongitudeDegrees>-1.76167328841984272003173828125</LongitudeDegrees>
            </Position>
            <AltitudeMeters>735.20001220703125</AltitudeMeters>
            <DistanceMeters>53811.313242046</DistanceMeters>
          </Trackpoint>
          <Trackpoint>
            <Time>2018-08-26T07:48:51.000Z</Time>
            <Position>
              <LatitudeDegrees>43.05451107211410999298095703125</LatitudeDegrees>
              <LongitudeDegrees>-1.76169759593904018402099609375</LongitudeDegrees>
            </Position>
            <AltitudeMeters>735.5999755859375</AltitudeMeters>
            <DistanceMeters>53815.987938292</DistanceMeters>
          </Trackpoint>
          <Trackpoint>
            <Time>2018-08-26T07:48:52.000Z</Time>
            <Position>
              <LatitudeDegrees>43.05454895831644535064697265625</LatitudeDegrees>
              <LongitudeDegrees>-1.7617236636579036712646484375</LongitudeDegrees>
            </Position>
            <AltitudeMeters>736</AltitudeMeters>
            <DistanceMeters>53820.706854323</DistanceMeters>
          </Trackpoint>
          <Trackpoint>
            <Time>2018-08-26T07:48:53.000Z</Time>
            <Position>
              <LatitudeDegrees>43.05458701215684413909912109375</LatitudeDegrees>
              <LongitudeDegrees>-1.7617524974048137664794921875</LongitudeDegrees>
            </Position>
            <AltitudeMeters>736.20001220703125</AltitudeMeters>
            <DistanceMeters>53825.548556343</DistanceMeters>
          </Trackpoint>
          <Trackpoint>
            <Time>2018-08-26T07:48:54.000Z</Time>
            <Position>
              <LatitudeDegrees>43.05462439544498920440673828125</LatitudeDegrees>
              <LongitudeDegrees>-1.76178141497075557708740234375</LongitudeDegrees>
            </Position>
            <AltitudeMeters>736.4000244140625</AltitudeMeters>
            <DistanceMeters>53830.328315061</DistanceMeters>
          </Trackpoint>
          <Trackpoint>
            <Time>2018-08-26T07:48:55.000Z</Time>
            <Position>
              <LatitudeDegrees>43.05466043762862682342529296875</LatitudeDegrees>
              <LongitudeDegrees>-1.76181024871766567230224609375</LongitudeDegrees>
            </Position>
            <AltitudeMeters>736.5999755859375</AltitudeMeters>
            <DistanceMeters>53834.975888928</DistanceMeters>
          </Trackpoint>
          <Trackpoint>
            <Time>2018-08-26T07:48:56.000Z</Time>
            <Position>
              <LatitudeDegrees>43.05469639599323272705078125</LatitudeDegrees>
              <LongitudeDegrees>-1.7618332989513874053955078125</LongitudeDegrees>
            </Position>
            <AltitudeMeters>737</AltitudeMeters>
            <DistanceMeters>53839.396418922</DistanceMeters>
          </Trackpoint>
          <Trackpoint>
            <Time>2018-08-26T07:48:57.000Z</Time>
            <Position>
              <LatitudeDegrees>43.05473084561526775360107421875</LatitudeDegrees>
              <LongitudeDegrees>-1.76185869611799716949462890625</LongitudeDegrees>
            </Position>
            <AltitudeMeters>737.20001220703125</AltitudeMeters>
            <DistanceMeters>53843.753163198</DistanceMeters>
          </Trackpoint>
          <Trackpoint>
            <Time>2018-08-26T07:48:58.000Z</Time>
            <Position>
              <LatitudeDegrees>43.05476537905633449554443359375</LatitudeDegrees>
              <LongitudeDegrees>-1.76188878715038299560546875</LongitudeDegrees>
            </Position>
            <AltitudeMeters>737.5999755859375</AltitudeMeters>
            <DistanceMeters>53848.310484321</DistanceMeters>
          </Trackpoint>
          <Trackpoint>
            <Time>2018-08-26T07:48:59.000Z</Time>
            <Position>
              <LatitudeDegrees>43.05479940958321094512939453125</LatitudeDegrees>
              <LongitudeDegrees>-1.76191703416407108306884765625</LongitudeDegrees>
            </Position>
            <AltitudeMeters>737.79998779296875</AltitudeMeters>
            <DistanceMeters>53852.741216336</DistanceMeters>
          </Trackpoint>
          <Trackpoint>
            <Time>2018-08-26T07:49:00.000Z</Time>
            <Position>
              <LatitudeDegrees>43.054833523929119110107421875</LatitudeDegrees>
              <LongitudeDegrees>-1.76194167695939540863037109375</LongitudeDegrees>
            </Position>
            <AltitudeMeters>738.20001220703125</AltitudeMeters>
            <DistanceMeters>53857.035330459</DistanceMeters>
          </Trackpoint>
          <Trackpoint>
            <Time>2018-08-26T07:49:01.000Z</Time>
            <Position>
              <LatitudeDegrees>43.0548665486276149749755859375</LatitudeDegrees>
              <LongitudeDegrees>-1.7619667388498783111572265625</LongitudeDegrees>
            </Position>
            <AltitudeMeters>738.4000244140625</AltitudeMeters>
            <DistanceMeters>53861.238047381</DistanceMeters>
          </Trackpoint>
          <Trackpoint>
            <Time>2018-08-26T07:49:02.000Z</Time>
            <Position>
              <LatitudeDegrees>43.05489881895482540130615234375</LatitudeDegrees>
              <LongitudeDegrees>-1.7619905434548854827880859375</LongitudeDegrees>
            </Position>
            <AltitudeMeters>738.79998779296875</AltitudeMeters>
            <DistanceMeters>53865.31866755</DistanceMeters>
          </Trackpoint>
          <Trackpoint>
            <Time>2018-08-26T07:49:03.000Z</Time>
            <Position>
              <LatitudeDegrees>43.05493050254881381988525390625</LatitudeDegrees>
              <LongitudeDegrees>-1.76201342605054378509521484375</LongitudeDegrees>
            </Position>
            <AltitudeMeters>739.20001220703125</AltitudeMeters>
            <DistanceMeters>53869.304129187</DistanceMeters>
          </Trackpoint>
          <Trackpoint>
            <Time>2018-08-26T07:49:04.000Z</Time>
            <Position>
              <LatitudeDegrees>43.05496134795248508453369140625</LatitudeDegrees>
              <LongitudeDegrees>-1.7620421759784221649169921875</LongitudeDegrees>
            </Position>
            <AltitudeMeters>739.5999755859375</AltitudeMeters>
            <DistanceMeters>53873.457133643</DistanceMeters>
          </Trackpoint>
          <Trackpoint>
            <Time>2018-08-26T07:49:05.000Z</Time>
            <Position>
              <LatitudeDegrees>43.0549909360706806182861328125</LatitudeDegrees>
              <LongitudeDegrees>-1.7620720155537128448486328125</LongitudeDegrees>
            </Position>
            <AltitudeMeters>739.79998779296875</AltitudeMeters>
            <DistanceMeters>53877.54769982</DistanceMeters>
          </Trackpoint>
          <Trackpoint>
            <Time>2018-08-26T07:49:06.000Z</Time>
            <Position>
              <LatitudeDegrees>43.0550189316272735595703125</LatitudeDegrees>
              <LongitudeDegrees>-1.76209992729127407073974609375</LongitudeDegrees>
            </Position>
            <AltitudeMeters>740.20001220703125</AltitudeMeters>
            <DistanceMeters>53881.403021574</DistanceMeters>
          </Trackpoint>
          <Trackpoint>
            <Time>2018-08-26T07:49:07.000Z</Time>
            <Position>
              <LatitudeDegrees>43.0550489388406276702880859375</LatitudeDegrees>
              <LongitudeDegrees>-1.762125827372074127197265625</LongitudeDegrees>
            </Position>
            <AltitudeMeters>740.4000244140625</AltitudeMeters>
            <DistanceMeters>53885.352064752</DistanceMeters>
          </Trackpoint>
          <Trackpoint>
            <Time>2018-08-26T07:49:08.000Z</Time>
            <Position>
              <LatitudeDegrees>43.0550806224346160888671875</LatitudeDegrees>
              <LongitudeDegrees>-1.76215256564319133758544921875</LongitudeDegrees>
            </Position>
            <AltitudeMeters>740.5999755859375</AltitudeMeters>
            <DistanceMeters>53889.495273088</DistanceMeters>
          </Trackpoint>
          <Trackpoint>
            <Time>2018-08-26T07:49:09.000Z</Time>
            <Position>
              <LatitudeDegrees>43.05511222220957279205322265625</LatitudeDegrees>
              <LongitudeDegrees>-1.76218089647591114044189453125</LongitudeDegrees>
            </Position>
            <AltitudeMeters>740.79998779296875</AltitudeMeters>
            <DistanceMeters>53893.700138089</DistanceMeters>
          </Trackpoint>
          <Trackpoint>
            <Time>2018-08-26T07:49:10.000Z</Time>
            <Position>
              <LatitudeDegrees>43.05514189414680004119873046875</LatitudeDegrees>
              <LongitudeDegrees>-1.762211658060550689697265625</LongitudeDegrees>
            </Position>
            <AltitudeMeters>741.20001220703125</AltitudeMeters>
            <DistanceMeters>53897.842256538</DistanceMeters>
          </Trackpoint>
          <Trackpoint>
            <Time>2018-08-26T07:49:11.000Z</Time>
            <Position>
              <LatitudeDegrees>43.0551691353321075439453125</LatitudeDegrees>
              <LongitudeDegrees>-1.7622436769306659698486328125</LongitudeDegrees>
            </Position>
            <AltitudeMeters>741.4000244140625</AltitudeMeters>
            <DistanceMeters>53901.840160402</DistanceMeters>
          </Trackpoint>
          <Trackpoint>
            <Time>2018-08-26T07:49:12.000Z</Time>
            <Position>
              <LatitudeDegrees>43.055197298526763916015625</LatitudeDegrees>
              <LongitudeDegrees>-1.7622743546962738037109375</LongitudeDegrees>
            </Position>
            <AltitudeMeters>741.4000244140625</AltitudeMeters>
            <DistanceMeters>53905.845961925</DistanceMeters>
          </Trackpoint>
          <Trackpoint>
            <Time>2018-08-26T07:49:13.000Z</Time>
            <Position>
              <LatitudeDegrees>43.05522613227367401123046875</LatitudeDegrees>
              <LongitudeDegrees>-1.76230880431830883026123046875</LongitudeDegrees>
            </Position>
            <AltitudeMeters>742</AltitudeMeters>
            <DistanceMeters>53910.105236931</DistanceMeters>
          </Trackpoint>
          <Trackpoint>
            <Time>2018-08-26T07:49:14.000Z</Time>
            <Position>
              <LatitudeDegrees>43.0552551336586475372314453125</LatitudeDegrees>
              <LongitudeDegrees>-1.76234249956905841827392578125</LongitudeDegrees>
            </Position>
            <AltitudeMeters>742.20001220703125</AltitudeMeters>
            <DistanceMeters>53914.340060637</DistanceMeters>
          </Trackpoint>
          <Trackpoint>
            <Time>2018-08-26T07:49:15.000Z</Time>
            <Position>
              <LatitudeDegrees>43.05528623051941394805908203125</LatitudeDegrees>
              <LongitudeDegrees>-1.76237267442047595977783203125</LongitudeDegrees>
            </Position>
            <AltitudeMeters>742.79998779296875</AltitudeMeters>
            <DistanceMeters>53918.583405123</DistanceMeters>
          </Trackpoint>
          <Trackpoint>
            <Time>2018-08-26T07:49:16.000Z</Time>
            <Position>
              <LatitudeDegrees>43.05531724356114864349365234375</LatitudeDegrees>
              <LongitudeDegrees>-1.7624056152999401092529296875</LongitudeDegrees>
            </Position>
            <AltitudeMeters>743</AltitudeMeters>
            <DistanceMeters>53922.952567697</DistanceMeters>
          </Trackpoint>
          <Trackpoint>
            <Time>2018-08-26T07:49:17.000Z</Time>
            <Position>
              <LatitudeDegrees>43.05534708313643932342529296875</LatitudeDegrees>
              <LongitudeDegrees>-1.7624381370842456817626953125</LongitudeDegrees>
            </Position>
            <AltitudeMeters>743.4000244140625</AltitudeMeters>
            <DistanceMeters>53927.198039707</DistanceMeters>
          </Trackpoint>
          <Trackpoint>
            <Time>2018-08-26T07:49:18.000Z</Time>
            <Position>
              <LatitudeDegrees>43.05537424050271511077880859375</LatitudeDegrees>
              <LongitudeDegrees>-1.7624709941446781158447265625</LongitudeDegrees>
            </Position>
            <AltitudeMeters>743.79998779296875</AltitudeMeters>
            <DistanceMeters>53931.231920933</DistanceMeters>
          </Trackpoint>
          <Trackpoint>
            <Time>2018-08-26T07:49:19.000Z</Time>
            <Position>
              <LatitudeDegrees>43.055400140583515167236328125</LatitudeDegrees>
              <LongitudeDegrees>-1.7625072039663791656494140625</LongitudeDegrees>
            </Position>
            <AltitudeMeters>744</AltitudeMeters>
            <DistanceMeters>53935.35437213</DistanceMeters>
          </Trackpoint>
          <Trackpoint>
            <Time>2018-08-26T07:49:20.000Z</Time>
            <Position>
              <LatitudeDegrees>43.0554257892072200775146484375</LatitudeDegrees>
              <LongitudeDegrees>-1.76254324615001678466796875</LongitudeDegrees>
            </Position>
            <AltitudeMeters>744.4000244140625</AltitudeMeters>
            <DistanceMeters>53939.446041927</DistanceMeters>
          </Trackpoint>
          <Trackpoint>
            <Time>2018-08-26T07:49:21.000Z</Time>
            <Position>
              <LatitudeDegrees>43.05545252747833728790283203125</LatitudeDegrees>
              <LongitudeDegrees>-1.762573756277561187744140625</LongitudeDegrees>
            </Position>
            <AltitudeMeters>744.79998779296875</AltitudeMeters>
            <DistanceMeters>53943.321221552</DistanceMeters>
          </Trackpoint>
          <Trackpoint>
            <Time>2018-08-26T07:49:22.000Z</Time>
            <Position>
              <LatitudeDegrees>43.0554790981113910675048828125</LatitudeDegrees>
              <LongitudeDegrees>-1.762606613337993621826171875</LongitudeDegrees>
            </Position>
            <AltitudeMeters>745</AltitudeMeters>
            <DistanceMeters>53947.305550151</DistanceMeters>
          </Trackpoint>
          <Trackpoint>
            <Time>2018-08-26T07:49:23.000Z</Time>
            <Position>
              <LatitudeDegrees>43.0555025674402713775634765625</LatitudeDegrees>
              <LongitudeDegrees>-1.76264517009258270263671875</LongitudeDegrees>
            </Position>
            <AltitudeMeters>745.4000244140625</AltitudeMeters>
            <DistanceMeters>53951.38617032</DistanceMeters>
          </Trackpoint>
          <Trackpoint>
            <Time>2018-08-26T07:49:24.000Z</Time>
            <Position>
              <LatitudeDegrees>43.055526874959468841552734375</LatitudeDegrees>
              <LongitudeDegrees>-1.76268280483782291412353515625</LongitudeDegrees>
            </Position>
            <AltitudeMeters>745.79998779296875</AltitudeMeters>
            <DistanceMeters>53955.471213927</DistanceMeters>
          </Trackpoint>
          <Trackpoint>
            <Time>2018-08-26T07:49:25.000Z</Time>
            <Position>
              <LatitudeDegrees>43.055551350116729736328125</LatitudeDegrees>
              <LongitudeDegrees>-1.76272253505885601043701171875</LongitudeDegrees>
            </Position>
            <AltitudeMeters>746</AltitudeMeters>
            <DistanceMeters>53959.697499673</DistanceMeters>
          </Trackpoint>
          <Trackpoint>
            <Time>2018-08-26T07:49:26.000Z</Time>
            <Position>
              <LatitudeDegrees>43.05557389743626117706298828125</LatitudeDegrees>
              <LongitudeDegrees>-1.76277148537337779998779296875</LongitudeDegrees>
            </Position>
            <AltitudeMeters>746.4000244140625</AltitudeMeters>
            <DistanceMeters>53964.4030015</DistanceMeters>
          </Trackpoint>
          <Trackpoint>
            <Time>2018-08-26T07:49:27.000Z</Time>
            <Position>
              <LatitudeDegrees>43.05559468455612659454345703125</LatitudeDegrees>
              <LongitudeDegrees>-1.76281725056469440460205078125</LongitudeDegrees>
            </Position>
            <AltitudeMeters>746.5999755859375</AltitudeMeters>
            <DistanceMeters>53968.784547177</DistanceMeters>
          </Trackpoint>
          <Trackpoint>
            <Time>2018-08-26T07:49:28.000Z</Time>
            <Position>
              <LatitudeDegrees>43.0556155554950237274169921875</LatitudeDegrees>
              <LongitudeDegrees>-1.76286385394632816314697265625</LongitudeDegrees>
            </Position>
            <AltitudeMeters>746.79998779296875</AltitudeMeters>
            <DistanceMeters>53973.229522684</DistanceMeters>
          </Trackpoint>
          <Trackpoint>
            <Time>2018-08-26T07:49:29.000Z</Time>
            <Position>
              <LatitudeDegrees>43.05563692934811115264892578125</LatitudeDegrees>
              <LongitudeDegrees>-1.76290626637637615203857421875</LongitudeDegrees>
            </Position>
            <AltitudeMeters>747</AltitudeMeters>
            <DistanceMeters>53977.419328002</DistanceMeters>
          </Trackpoint>
          <Trackpoint>
            <Time>2018-08-26T07:49:30.000Z</Time>
            <Position>
              <LatitudeDegrees>43.05565855465829372406005859375</LatitudeDegrees>
              <LongitudeDegrees>-1.76294700242578983306884765625</LongitudeDegrees>
            </Position>
            <AltitudeMeters>747.20001220703125</AltitudeMeters>
            <DistanceMeters>53981.515409304</DistanceMeters>
          </Trackpoint>
          <Trackpoint>
            <Time>2018-08-26T07:49:31.000Z</Time>
            <Position>
              <LatitudeDegrees>43.055681772530078887939453125</LatitudeDegrees>
              <LongitudeDegrees>-1.76298807375133037567138671875</LongitudeDegrees>
            </Position>
            <AltitudeMeters>747.4000244140625</AltitudeMeters>
            <DistanceMeters>53985.738488865</DistanceMeters>
          </Trackpoint>
          <Trackpoint>
            <Time>2018-08-26T07:49:32.000Z</Time>
            <Position>
              <LatitudeDegrees>43.055706918239593505859375</LatitudeDegrees>
              <LongitudeDegrees>-1.76302880980074405670166015625</LongitudeDegrees>
            </Position>
            <AltitudeMeters>747.5999755859375</AltitudeMeters>
            <DistanceMeters>53990.076539039</DistanceMeters>
          </Trackpoint>
          <Trackpoint>
            <Time>2018-08-26T07:49:33.000Z</Time>
            <Position>
              <LatitudeDegrees>43.05573449470102787017822265625</LatitudeDegrees>
              <LongitudeDegrees>-1.76306317560374736785888671875</LongitudeDegrees>
            </Position>
            <AltitudeMeters>748</AltitudeMeters>
            <DistanceMeters>53994.227368577</DistanceMeters>
          </Trackpoint>
          <Trackpoint>
            <Time>2018-08-26T07:49:34.000Z</Time>
            <Position>
              <LatitudeDegrees>43.05576433427631855010986328125</LatitudeDegrees>
              <LongitudeDegrees>-1.7630951106548309326171875</LongitudeDegrees>
            </Position>
            <AltitudeMeters>748.20001220703125</AltitudeMeters>
            <DistanceMeters>53998.444028454</DistanceMeters>
          </Trackpoint>
          <Trackpoint>
            <Time>2018-08-26T07:49:35.000Z</Time>
            <Position>
              <LatitudeDegrees>43.05579568259418010711669921875</LatitudeDegrees>
              <LongitudeDegrees>-1.76312260329723358154296875</LongitudeDegrees>
            </Position>
            <AltitudeMeters>748.5999755859375</AltitudeMeters>
            <DistanceMeters>54002.588326392</DistanceMeters>
          </Trackpoint>
          <Trackpoint>
            <Time>2018-08-26T07:49:36.000Z</Time>
            <Position>
              <LatitudeDegrees>43.0558284558355808258056640625</LatitudeDegrees>
              <LongitudeDegrees>-1.76314766518771648406982421875</LongitudeDegrees>
            </Position>
            <AltitudeMeters>748.79998779296875</AltitudeMeters>
            <DistanceMeters>54006.767341568</DistanceMeters>
          </Trackpoint>
          <Trackpoint>
            <Time>2018-08-26T07:49:37.000Z</Time>
            <Position>
              <LatitudeDegrees>43.055862151086330413818359375</LatitudeDegrees>
              <LongitudeDegrees>-1.7631690390408039093017578125</LongitudeDegrees>
            </Position>
            <AltitudeMeters>749.20001220703125</AltitudeMeters>
            <DistanceMeters>54010.900730569</DistanceMeters>
          </Trackpoint>
          <Trackpoint>
            <Time>2018-08-26T07:49:38.000Z</Time>
            <Position>
              <LatitudeDegrees>43.05589660070836544036865234375</LatitudeDegrees>
              <LongitudeDegrees>-1.76318488083779811859130859375</LongitudeDegrees>
            </Position>
            <AltitudeMeters>749.20001220703125</AltitudeMeters>
            <DistanceMeters>54014.945789099</DistanceMeters>
          </Trackpoint>
          <Trackpoint>
            <Time>2018-08-26T07:49:39.000Z</Time>
            <Position>
              <LatitudeDegrees>43.0559310503304004669189453125</LatitudeDegrees>
              <LongitudeDegrees>-1.76319946534931659698486328125</LongitudeDegrees>
            </Position>
            <AltitudeMeters>749.4000244140625</AltitudeMeters>
            <DistanceMeters>54018.959472741</DistanceMeters>
          </Trackpoint>
          <Trackpoint>
            <Time>2018-08-26T07:49:40.000Z</Time>
            <Position>
              <LatitudeDegrees>43.05596499703824520111083984375</LatitudeDegrees>
              <LongitudeDegrees>-1.7632136307656764984130859375</LongitudeDegrees>
            </Position>
            <AltitudeMeters>749.5999755859375</AltitudeMeters>
            <DistanceMeters>54022.909659078</DistanceMeters>
          </Trackpoint>
          <Trackpoint>
            <Time>2018-08-26T07:49:41.000Z</Time>
            <Position>
              <LatitudeDegrees>43.05599919520318508148193359375</LatitudeDegrees>
              <LongitudeDegrees>-1.76322444342076778411865234375</LongitudeDegrees>
            </Position>
            <AltitudeMeters>750</AltitudeMeters>
            <DistanceMeters>54026.816170205</DistanceMeters>
          </Trackpoint>
          <Trackpoint>
            <Time>2018-08-26T07:49:42.000Z</Time>
            <Position>
              <LatitudeDegrees>43.0560328066349029541015625</LatitudeDegrees>
              <LongitudeDegrees>-1.763232909142971038818359375</LongitudeDegrees>
            </Position>
            <AltitudeMeters>750.20001220703125</AltitudeMeters>
            <DistanceMeters>54030.619613706</DistanceMeters>
          </Trackpoint>
          <Trackpoint>
            <Time>2018-08-26T07:49:43.000Z</Time>
            <Position>
              <LatitudeDegrees>43.05606507696211338043212890625</LatitudeDegrees>
              <LongitudeDegrees>-1.7632399499416351318359375</LongitudeDegrees>
            </Position>
            <AltitudeMeters>750.5999755859375</AltitudeMeters>
            <DistanceMeters>54034.256791457</DistanceMeters>
          </Trackpoint>
          <Trackpoint>
            <Time>2018-08-26T07:49:44.000Z</Time>
            <Position>
              <LatitudeDegrees>43.0560919828712940216064453125</LatitudeDegrees>
              <LongitudeDegrees>-1.76325000822544097900390625</LongitudeDegrees>
            </Position>
            <AltitudeMeters>751</AltitudeMeters>
            <DistanceMeters>54037.362290071</DistanceMeters>
          </Trackpoint>
          <Trackpoint>
            <Time>2018-08-26T07:49:45.000Z</Time>
            <Position>
              <LatitudeDegrees>43.05611402727663516998291015625</LatitudeDegrees>
              <LongitudeDegrees>-1.76325947977602481842041015625</LongitudeDegrees>
            </Position>
            <AltitudeMeters>751.20001220703125</AltitudeMeters>
            <DistanceMeters>54039.935040745</DistanceMeters>
          </Trackpoint>
          <Trackpoint>
            <Time>2018-08-26T07:49:46.000Z</Time>
            <Position>
              <LatitudeDegrees>43.05613330565392971038818359375</LatitudeDegrees>
              <LongitudeDegrees>-1.7632639221847057342529296875</LongitudeDegrees>
            </Position>
            <AltitudeMeters>751.4000244140625</AltitudeMeters>
            <DistanceMeters>54042.110301662</DistanceMeters>
          </Trackpoint>
          <Trackpoint>
            <Time>2018-08-26T07:49:47.000Z</Time>
            <Position>
              <LatitudeDegrees>43.05616029538214206695556640625</LatitudeDegrees>
              <LongitudeDegrees>-1.76326920278370380401611328125</LongitudeDegrees>
            </Position>
            <AltitudeMeters>751.79998779296875</AltitudeMeters>
            <DistanceMeters>54045.143723475</DistanceMeters>
          </Trackpoint>
          <Trackpoint>
            <Time>2018-08-26T07:49:48.000Z</Time>
            <Position>
              <LatitudeDegrees>43.0561932362616062164306640625</LatitudeDegrees>
              <LongitudeDegrees>-1.76326970569789409637451171875</LongitudeDegrees>
            </Position>
            <AltitudeMeters>752.20001220703125</AltitudeMeters>
            <DistanceMeters>54048.81057278</DistanceMeters>
          </Trackpoint>
          <Trackpoint>
            <Time>2018-08-26T07:49:49.000Z</Time>
            <Position>
              <LatitudeDegrees>43.05622600950300693511962890625</LatitudeDegrees>
              <LongitudeDegrees>-1.7632716335356235504150390625</LongitudeDegrees>
            </Position>
            <AltitudeMeters>752.4000244140625</AltitudeMeters>
            <DistanceMeters>54052.461379928</DistanceMeters>
          </Trackpoint>
          <Trackpoint>
            <Time>2018-08-26T07:49:50.000Z</Time>
            <Position>
              <LatitudeDegrees>43.05625534616410732269287109375</LatitudeDegrees>
              <LongitudeDegrees>-1.76326819695532321929931640625</LongitudeDegrees>
            </Position>
            <AltitudeMeters>752.5999755859375</AltitudeMeters>
            <DistanceMeters>54055.739457256</DistanceMeters>
          </Trackpoint>
          <Trackpoint>
            <Time>2018-08-26T07:49:51.000Z</Time>
            <Position>
              <LatitudeDegrees>43.05628300644457340240478515625</LatitudeDegrees>
              <LongitudeDegrees>-1.76326534710824489593505859375</LongitudeDegrees>
            </Position>
            <AltitudeMeters>753</AltitudeMeters>
            <DistanceMeters>54058.827459964</DistanceMeters>
          </Trackpoint>
          <Trackpoint>
            <Time>2018-08-26T07:49:52.000Z</Time>
            <Position>
              <LatitudeDegrees>43.056313432753086090087890625</LatitudeDegrees>
              <LongitudeDegrees>-1.7632629163563251495361328125</LongitudeDegrees>
            </Position>
            <AltitudeMeters>753.4000244140625</AltitudeMeters>
            <DistanceMeters>54062.219261461</DistanceMeters>
          </Trackpoint>
          <Trackpoint>
            <Time>2018-08-26T07:49:53.000Z</Time>
            <Position>
              <LatitudeDegrees>43.05634302087128162384033203125</LatitudeDegrees>
              <LongitudeDegrees>-1.7632582224905490875244140625</LongitudeDegrees>
            </Position>
            <AltitudeMeters>753.79998779296875</AltitudeMeters>
            <DistanceMeters>54065.534318478</DistanceMeters>
          </Trackpoint>
          <Trackpoint>
            <Time>2018-08-26T07:49:54.000Z</Time>
            <Position>
              <LatitudeDegrees>43.0563707649707794189453125</LatitudeDegrees>
              <LongitudeDegrees>-1.7632541991770267486572265625</LongitudeDegrees>
            </Position>
            <AltitudeMeters>754.20001220703125</AltitudeMeters>
            <DistanceMeters>54068.639817093</DistanceMeters>
          </Trackpoint>
          <Trackpoint>
            <Time>2018-08-26T07:49:55.000Z</Time>
            <Position>
              <LatitudeDegrees>43.05639867670834064483642578125</LatitudeDegrees>
              <LongitudeDegrees>-1.763248331844806671142578125</LongitudeDegrees>
            </Position>
            <AltitudeMeters>754.4000244140625</AltitudeMeters>
            <DistanceMeters>54071.782889416</DistanceMeters>
          </Trackpoint>
          <Trackpoint>
            <Time>2018-08-26T07:49:56.000Z</Time>
            <Position>
              <LatitudeDegrees>43.0564272589981555938720703125</LatitudeDegrees>
              <LongitudeDegrees>-1.7632391117513179779052734375</LongitudeDegrees>
            </Position>
            <AltitudeMeters>754.5999755859375</AltitudeMeters>
            <DistanceMeters>54075.049929415</DistanceMeters>
          </Trackpoint>
          <Trackpoint>
            <Time>2018-08-26T07:49:57.000Z</Time>
            <Position>
              <LatitudeDegrees>43.05645860731601715087890625</LatitudeDegrees>
              <LongitudeDegrees>-1.76322913728654384613037109375</LongitudeDegrees>
            </Position>
            <AltitudeMeters>754.79998779296875</AltitudeMeters>
            <DistanceMeters>54078.630810389</DistanceMeters>
          </Trackpoint>
          <Trackpoint>
            <Time>2018-08-26T07:49:58.000Z</Time>
            <Position>
              <LatitudeDegrees>43.05649305693805217742919921875</LatitudeDegrees>
              <LongitudeDegrees>-1.7632186599075794219970703125</LongitudeDegrees>
            </Position>
            <AltitudeMeters>755.20001220703125</AltitudeMeters>
            <DistanceMeters>54082.559219818</DistanceMeters>
          </Trackpoint>
          <Trackpoint>
            <Time>2018-08-26T07:49:59.000Z</Time>
            <Position>
              <LatitudeDegrees>43.0565298534929752349853515625</LatitudeDegrees>
              <LongitudeDegrees>-1.7632075957953929901123046875</LongitudeDegrees>
            </Position>
            <AltitudeMeters>755.4000244140625</AltitudeMeters>
            <DistanceMeters>54086.753333421</DistanceMeters>
          </Trackpoint>
          <Trackpoint>
            <Time>2018-08-26T07:50:00.000Z</Time>
            <Position>
              <LatitudeDegrees>43.05657402612268924713134765625</LatitudeDegrees>
              <LongitudeDegrees>-1.76319502294063568115234375</LongitudeDegrees>
            </Position>
            <AltitudeMeters>755.5999755859375</AltitudeMeters>
            <DistanceMeters>54091.774486021</DistanceMeters>
          </Trackpoint>
          <Trackpoint>
            <Time>2018-08-26T07:50:01.000Z</Time>
            <Position>
              <LatitudeDegrees>43.0566143430769443511962890625</LatitudeDegrees>
              <LongitudeDegrees>-1.76318471319973468780517578125</LongitudeDegrees>
            </Position>
            <AltitudeMeters>755.79998779296875</AltitudeMeters>
            <DistanceMeters>54096.33972604</DistanceMeters>
          </Trackpoint>
          <Trackpoint>
            <Time>2018-08-26T07:50:02.000Z</Time>
            <Position>
              <LatitudeDegrees>43.0566542409360408782958984375</LatitudeDegrees>
              <LongitudeDegrees>-1.76317465491592884063720703125</LongitudeDegrees>
            </Position>
            <AltitudeMeters>756.20001220703125</AltitudeMeters>
            <DistanceMeters>54100.855245126</DistanceMeters>
          </Trackpoint>
          <Trackpoint>
            <Time>2018-08-26T07:50:03.000Z</Time>
            <Position>
              <LatitudeDegrees>43.0566926300525665283203125</LatitudeDegrees>
              <LongitudeDegrees>-1.76316417753696441650390625</LongitudeDegrees>
            </Position>
            <AltitudeMeters>756.4000244140625</AltitudeMeters>
            <DistanceMeters>54105.211989401</DistanceMeters>
          </Trackpoint>
          <Trackpoint>
            <Time>2018-08-26T07:50:04.000Z</Time>
            <Position>
              <LatitudeDegrees>43.056731857359409332275390625</LatitudeDegrees>
              <LongitudeDegrees>-1.76315504126250743865966796875</LongitudeDegrees>
            </Position>
            <AltitudeMeters>756.79998779296875</AltitudeMeters>
            <DistanceMeters>54109.640682892</DistanceMeters>
          </Trackpoint>
          <Trackpoint>
            <Time>2018-08-26T07:50:05.000Z</Time>
            <Position>
              <LatitudeDegrees>43.05677401833236217498779296875</LatitudeDegrees>
              <LongitudeDegrees>-1.7631459049880504608154296875</LongitudeDegrees>
            </Position>
            <AltitudeMeters>757</AltitudeMeters>
            <DistanceMeters>54114.392018611</DistanceMeters>
          </Trackpoint>
          <Trackpoint>
            <Time>2018-08-26T07:50:06.000Z</Time>
            <Position>
              <LatitudeDegrees>43.056812994182109832763671875</LatitudeDegrees>
              <LongitudeDegrees>-1.7631395347416400909423828125</LongitudeDegrees>
            </Position>
            <AltitudeMeters>757.20001220703125</AltitudeMeters>
            <DistanceMeters>54118.762214451</DistanceMeters>
          </Trackpoint>
          <Trackpoint>
            <Time>2018-08-26T07:50:07.000Z</Time>
            <Position>
              <LatitudeDegrees>43.05685532279312610626220703125</LatitudeDegrees>
              <LongitudeDegrees>-1.76312939263880252838134765625</LongitudeDegrees>
            </Position>
            <AltitudeMeters>757.4000244140625</AltitudeMeters>
            <DistanceMeters>54123.544806178</DistanceMeters>
          </Trackpoint>
          <Trackpoint>
            <Time>2018-08-26T07:50:08.000Z</Time>
            <Position>
              <LatitudeDegrees>43.05689706467092037200927734375</LatitudeDegrees>
              <LongitudeDegrees>-1.76311933435499668121337890625</LongitudeDegrees>
            </Position>
            <AltitudeMeters>757.5999755859375</AltitudeMeters>
            <DistanceMeters>54128.26180823</DistanceMeters>
          </Trackpoint>
          <Trackpoint>
            <Time>2018-08-26T07:50:09.000Z</Time>
            <Position>
              <LatitudeDegrees>43.0569385550916194915771484375</LatitudeDegrees>
              <LongitudeDegrees>-1.763108186423778533935546875</LongitudeDegrees>
            </Position>
            <AltitudeMeters>757.79998779296875</AltitudeMeters>
            <DistanceMeters>54132.968269482</DistanceMeters>
          </Trackpoint>
          <Trackpoint>
            <Time>2018-08-26T07:50:10.000Z</Time>
            <Position>
              <LatitudeDegrees>43.056976608932018280029296875</LatitudeDegrees>
              <LongitudeDegrees>-1.76309620030224323272705078125</LongitudeDegrees>
            </Position>
            <AltitudeMeters>758</AltitudeMeters>
            <DistanceMeters>54137.314638072</DistanceMeters>
          </Trackpoint>
          <Trackpoint>
            <Time>2018-08-26T07:50:11.000Z</Time>
            <Position>
              <LatitudeDegrees>43.05701407603919506072998046875</LatitudeDegrees>
              <LongitudeDegrees>-1.76308983005583286285400390625</LongitudeDegrees>
            </Position>
            <AltitudeMeters>758.20001220703125</AltitudeMeters>
            <DistanceMeters>54141.517354994</DistanceMeters>
          </Trackpoint>
          <Trackpoint>
            <Time>2018-08-26T07:50:12.000Z</Time>
            <Position>
              <LatitudeDegrees>43.0570538900792598724365234375</LatitudeDegrees>
              <LongitudeDegrees>-1.76308396272361278533935546875</LongitudeDegrees>
            </Position>
            <AltitudeMeters>758.5999755859375</AltitudeMeters>
            <DistanceMeters>54145.973489878</DistanceMeters>
          </Trackpoint>
          <Trackpoint>
            <Time>2018-08-26T07:50:13.000Z</Time>
            <Position>
              <LatitudeDegrees>43.0570904351770877838134765625</LatitudeDegrees>
              <LongitudeDegrees>-1.76307725720107555389404296875</LongitudeDegrees>
            </Position>
            <AltitudeMeters>758.5999755859375</AltitudeMeters>
            <DistanceMeters>54150.076179543</DistanceMeters>
          </Trackpoint>
          <Trackpoint>
            <Time>2018-08-26T07:50:14.000Z</Time>
            <Position>
              <LatitudeDegrees>43.057119436562061309814453125</LatitudeDegrees>
              <LongitudeDegrees>-1.76307004876434803009033203125</LongitudeDegrees>
            </Position>
            <AltitudeMeters>758.79998779296875</AltitudeMeters>
            <DistanceMeters>54153.357010401</DistanceMeters>
          </Trackpoint>
          <Trackpoint>
            <Time>2018-08-26T07:50:15.000Z</Time>
            <Position>
              <LatitudeDegrees>43.05715036578476428985595703125</LatitudeDegrees>
              <LongitudeDegrees>-1.76306267268955707550048828125</LongitudeDegrees>
            </Position>
            <AltitudeMeters>759</AltitudeMeters>
            <DistanceMeters>54156.851100176</DistanceMeters>
          </Trackpoint>
          <Trackpoint>
            <Time>2018-08-26T07:50:16.000Z</Time>
            <Position>
              <LatitudeDegrees>43.0571829713881015777587890625</LatitudeDegrees>
              <LongitudeDegrees>-1.76305630244314670562744140625</LongitudeDegrees>
            </Position>
            <AltitudeMeters>759.20001220703125</AltitudeMeters>
            <DistanceMeters>54160.516717961</DistanceMeters>
          </Trackpoint>
          <Trackpoint>
            <Time>2018-08-26T07:50:17.000Z</Time>
            <Position>
              <LatitudeDegrees>43.0572178401052951812744140625</LatitudeDegrees>
              <LongitudeDegrees>-1.763043813407421112060546875</LongitudeDegrees>
            </Position>
            <AltitudeMeters>759.5999755859375</AltitudeMeters>
            <DistanceMeters>54164.52815115</DistanceMeters>
          </Trackpoint>
          <Trackpoint>
            <Time>2018-08-26T07:50:18.000Z</Time>
            <Position>
              <LatitudeDegrees>43.0572557263076305389404296875</LatitudeDegrees>
              <LongitudeDegrees>-1.7630366049706935882568359375</LongitudeDegrees>
            </Position>
            <AltitudeMeters>759.79998779296875</AltitudeMeters>
            <DistanceMeters>54168.78530553</DistanceMeters>
          </Trackpoint>
          <Trackpoint>
            <Time>2018-08-26T07:50:19.000Z</Time>
            <Position>
              <LatitudeDegrees>43.05729436688125133514404296875</LatitudeDegrees>
              <LongitudeDegrees>-1.7630302347242832183837890625</LongitudeDegrees>
            </Position>
            <AltitudeMeters>760.20001220703125</AltitudeMeters>
            <DistanceMeters>54173.117106409</DistanceMeters>
          </Trackpoint>
          <Trackpoint>
            <Time>2018-08-26T07:50:20.000Z</Time>
            <Position>
              <LatitudeDegrees>43.05733225308358669281005859375</LatitudeDegrees>
              <LongitudeDegrees>-1.76302880980074405670166015625</LongitudeDegrees>
            </Position>
            <AltitudeMeters>760.5999755859375</AltitudeMeters>
            <DistanceMeters>54177.335907266</DistanceMeters>
          </Trackpoint>
          <Trackpoint>
            <Time>2018-08-26T07:50:21.000Z</Time>
            <Position>
              <LatitudeDegrees>43.0573690496385097503662109375</LatitudeDegrees>
              <LongitudeDegrees>-1.76302797161042690277099609375</LongitudeDegrees>
            </Position>
            <AltitudeMeters>760.79998779296875</AltitudeMeters>
            <DistanceMeters>54181.431988568</DistanceMeters>
          </Trackpoint>
          <Trackpoint>
            <Time>2018-08-26T07:50:22.000Z</Time>
            <Position>
              <LatitudeDegrees>43.05741012096405029296875</LatitudeDegrees>
              <LongitudeDegrees>-1.76302361302077770233154296875</LongitudeDegrees>
            </Position>
            <AltitudeMeters>761.20001220703125</AltitudeMeters>
            <DistanceMeters>54186.01696599</DistanceMeters>
          </Trackpoint>
          <Trackpoint>
            <Time>2018-08-26T07:50:23.000Z</Time>
            <Position>
              <LatitudeDegrees>43.057450354099273681640625</LatitudeDegrees>
              <LongitudeDegrees>-1.76301355473697185516357421875</LongitudeDegrees>
            </Position>
            <AltitudeMeters>761.4000244140625</AltitudeMeters>
            <DistanceMeters>54190.570322501</DistanceMeters>
          </Trackpoint>
          <Trackpoint>
            <Time>2018-08-26T07:50:24.000Z</Time>
            <Position>
              <LatitudeDegrees>43.05748882703483104705810546875</LatitudeDegrees>
              <LongitudeDegrees>-1.76300249062478542327880859375</LongitudeDegrees>
            </Position>
            <AltitudeMeters>761.5999755859375</AltitudeMeters>
            <DistanceMeters>54194.94671281</DistanceMeters>
          </Trackpoint>
          <Trackpoint>
            <Time>2018-08-26T07:50:25.000Z</Time>
            <Position>
              <LatitudeDegrees>43.05752453394234180450439453125</LatitudeDegrees>
              <LongitudeDegrees>-1.7629893310368061065673828125</LongitudeDegrees>
            </Position>
            <AltitudeMeters>762</AltitudeMeters>
            <DistanceMeters>54199.062587372</DistanceMeters>
          </Trackpoint>
          <Trackpoint>
            <Time>2018-08-26T07:50:26.000Z</Time>
            <Position>
              <LatitudeDegrees>43.057562001049518585205078125</LatitudeDegrees>
              <LongitudeDegrees>-1.762972734868526458740234375</LongitudeDegrees>
            </Position>
            <AltitudeMeters>762.20001220703125</AltitudeMeters>
            <DistanceMeters>54203.446193498</DistanceMeters>
          </Trackpoint>
          <Trackpoint>
            <Time>2018-08-26T07:50:27.000Z</Time>
            <Position>
              <LatitudeDegrees>43.0575997196137905120849609375</LatitudeDegrees>
              <LongitudeDegrees>-1.7629604972898960113525390625</LongitudeDegrees>
            </Position>
            <AltitudeMeters>762.5999755859375</AltitudeMeters>
            <DistanceMeters>54207.759192162</DistanceMeters>
          </Trackpoint>
          <Trackpoint>
            <Time>2018-08-26T07:50:28.000Z</Time>
            <Position>
              <LatitudeDegrees>43.05763877928256988525390625</LatitudeDegrees>
              <LongitudeDegrees>-1.76294784061610698699951171875</LongitudeDegrees>
            </Position>
            <AltitudeMeters>762.79998779296875</AltitudeMeters>
            <DistanceMeters>54212.226458546</DistanceMeters>
          </Trackpoint>
          <Trackpoint>
            <Time>2018-08-26T07:50:29.000Z</Time>
            <Position>
              <LatitudeDegrees>43.05767901241779327392578125</LatitudeDegrees>
              <LongitudeDegrees>-1.762935183942317962646484375</LongitudeDegrees>
            </Position>
            <AltitudeMeters>763</AltitudeMeters>
            <DistanceMeters>54216.821272876</DistanceMeters>
          </Trackpoint>
          <Trackpoint>
            <Time>2018-08-26T07:50:30.000Z</Time>
            <Position>
              <LatitudeDegrees>43.05772083811461925506591796875</LatitudeDegrees>
              <LongitudeDegrees>-1.76291934214532375335693359375</LongitudeDegrees>
            </Position>
            <AltitudeMeters>763.4000244140625</AltitudeMeters>
            <DistanceMeters>54221.650836775</DistanceMeters>
          </Trackpoint>
          <Trackpoint>
            <Time>2018-08-26T07:50:31.000Z</Time>
            <Position>
              <LatitudeDegrees>43.05775889195501804351806640625</LatitudeDegrees>
              <LongitudeDegrees>-1.76289788447320461273193359375</LongitudeDegrees>
            </Position>
            <AltitudeMeters>763.79998779296875</AltitudeMeters>
            <DistanceMeters>54226.231873519</DistanceMeters>
          </Trackpoint>
          <Trackpoint>
            <Time>2018-08-26T07:50:32.000Z</Time>
            <Position>
              <LatitudeDegrees>43.05779225192964076995849609375</LatitudeDegrees>
              <LongitudeDegrees>-1.7628810368478298187255859375</LongitudeDegrees>
            </Position>
            <AltitudeMeters>764</AltitudeMeters>
            <DistanceMeters>54230.191193247</DistanceMeters>
          </Trackpoint>
          <Trackpoint>
            <Time>2018-08-26T07:50:33.000Z</Time>
            <Position>
              <LatitudeDegrees>43.0578233487904071807861328125</LatitudeDegrees>
              <LongitudeDegrees>-1.7628669552505016326904296875</LongitudeDegrees>
            </Position>
            <AltitudeMeters>764.4000244140625</AltitudeMeters>
            <DistanceMeters>54233.837050146</DistanceMeters>
          </Trackpoint>
          <Trackpoint>
            <Time>2018-08-26T07:50:34.000Z</Time>
            <Position>
              <LatitudeDegrees>43.05785813368856906890869140625</LatitudeDegrees>
              <LongitudeDegrees>-1.76284843124449253082275390625</LongitudeDegrees>
            </Position>
            <AltitudeMeters>764.5999755859375</AltitudeMeters>
            <DistanceMeters>54237.991141633</DistanceMeters>
          </Trackpoint>
          <Trackpoint>
            <Time>2018-08-26T07:50:35.000Z</Time>
            <Position>
              <LatitudeDegrees>43.05789166130125522613525390625</LatitudeDegrees>
              <LongitudeDegrees>-1.762827895581722259521484375</LongitudeDegrees>
            </Position>
            <AltitudeMeters>765</AltitudeMeters>
            <DistanceMeters>54242.079499677</DistanceMeters>
          </Trackpoint>
          <Trackpoint>
            <Time>2018-08-26T07:50:36.000Z</Time>
            <Position>
              <LatitudeDegrees>43.05792468599975109100341796875</LatitudeDegrees>
              <LongitudeDegrees>-1.7628082819283008575439453125</LongitudeDegrees>
            </Position>
            <AltitudeMeters>765.4000244140625</AltitudeMeters>
            <DistanceMeters>54246.086428166</DistanceMeters>
          </Trackpoint>
          <Trackpoint>
            <Time>2018-08-26T07:50:37.000Z</Time>
            <Position>
              <LatitudeDegrees>43.0579658411443233489990234375</LatitudeDegrees>
              <LongitudeDegrees>-1.76278791390359401702880859375</LongitudeDegrees>
            </Position>
            <AltitudeMeters>765.5999755859375</AltitudeMeters>
            <DistanceMeters>54250.957879787</DistanceMeters>
          </Trackpoint>
          <Trackpoint>
            <Time>2018-08-26T07:50:38.000Z</Time>
            <Position>
              <LatitudeDegrees>43.0580057390034198760986328125</LatitudeDegrees>
              <LongitudeDegrees>-1.76277131773531436920166015625</LongitudeDegrees>
            </Position>
            <AltitudeMeters>766</AltitudeMeters>
            <DistanceMeters>54255.599621098</DistanceMeters>
          </Trackpoint>
          <Trackpoint>
            <Time>2018-08-26T07:50:39.000Z</Time>
            <Position>
              <LatitudeDegrees>43.05804739706218242645263671875</LatitudeDegrees>
              <LongitudeDegrees>-1.76275916397571563720703125</LongitudeDegrees>
            </Position>
            <AltitudeMeters>766.20001220703125</AltitudeMeters>
            <DistanceMeters>54260.339539894</DistanceMeters>
          </Trackpoint>
          <Trackpoint>
            <Time>2018-08-26T07:50:40.000Z</Time>
            <Position>
              <LatitudeDegrees>43.0580878816545009613037109375</LatitudeDegrees>
              <LongitudeDegrees>-1.76275354810059070587158203125</LongitudeDegrees>
            </Position>
            <AltitudeMeters>766.5999755859375</AltitudeMeters>
            <DistanceMeters>54264.868038939</DistanceMeters>
          </Trackpoint>
          <Trackpoint>
            <Time>2018-08-26T07:50:41.000Z</Time>
            <Position>
              <LatitudeDegrees>43.0581277795135974884033203125</LatitudeDegrees>
              <LongitudeDegrees>-1.76275287754833698272705078125</LongitudeDegrees>
            </Position>
            <AltitudeMeters>766.79998779296875</AltitudeMeters>
            <DistanceMeters>54269.308949539</DistanceMeters>
          </Trackpoint>
          <Trackpoint>
            <Time>2018-08-26T07:50:42.000Z</Time>
            <Position>
              <LatitudeDegrees>43.0581653304398059844970703125</LatitudeDegrees>
              <LongitudeDegrees>-1.7627584934234619140625</LongitudeDegrees>
            </Position>
            <AltitudeMeters>767</AltitudeMeters>
            <DistanceMeters>54273.511666461</DistanceMeters>
          </Trackpoint>
          <Trackpoint>
            <Time>2018-08-26T07:50:43.000Z</Time>
            <Position>
              <LatitudeDegrees>43.0582058988511562347412109375</LatitudeDegrees>
              <LongitudeDegrees>-1.76276184618473052978515625</LongitudeDegrees>
            </Position>
            <AltitudeMeters>767.20001220703125</AltitudeMeters>
            <DistanceMeters>54278.034179385</DistanceMeters>
          </Trackpoint>
          <Trackpoint>
            <Time>2018-08-26T07:50:44.000Z</Time>
            <Position>
              <LatitudeDegrees>43.0582447908818721771240234375</LatitudeDegrees>
              <LongitudeDegrees>-1.762769557535648345947265625</LongitudeDegrees>
            </Position>
            <AltitudeMeters>767.4000244140625</AltitudeMeters>
            <DistanceMeters>54282.409537891</DistanceMeters>
          </Trackpoint>
          <Trackpoint>
            <Time>2018-08-26T07:50:45.000Z</Time>
            <Position>
              <LatitudeDegrees>43.05828745476901531219482421875</LatitudeDegrees>
              <LongitudeDegrees>-1.76278062164783477783203125</LongitudeDegrees>
            </Position>
            <AltitudeMeters>767.79998779296875</AltitudeMeters>
            <DistanceMeters>54287.243773905</DistanceMeters>
          </Trackpoint>
          <Trackpoint>
            <Time>2018-08-26T07:50:46.000Z</Time>
            <Position>
              <LatitudeDegrees>43.05833070538938045501708984375</LatitudeDegrees>
              <LongitudeDegrees>-1.7628015764057636260986328125</LongitudeDegrees>
            </Position>
            <AltitudeMeters>768</AltitudeMeters>
            <DistanceMeters>54292.350520498</DistanceMeters>
          </Trackpoint>
          <Trackpoint>
            <Time>2018-08-26T07:50:47.000Z</Time>
            <Position>
              <LatitudeDegrees>43.05836741812527179718017578125</LatitudeDegrees>
              <LongitudeDegrees>-1.76283292472362518310546875</LongitudeDegrees>
            </Position>
            <AltitudeMeters>768.20001220703125</AltitudeMeters>
            <DistanceMeters>54297.167915693</DistanceMeters>
          </Trackpoint>
          <Trackpoint>
            <Time>2018-08-26T07:50:48.000Z</Time>
            <Position>
              <LatitudeDegrees>43.058399856090545654296875</LatitudeDegrees>
              <LongitudeDegrees>-1.7628726549446582794189453125</LongitudeDegrees>
            </Position>
            <AltitudeMeters>768.5999755859375</AltitudeMeters>
            <DistanceMeters>54302.013346402</DistanceMeters>
          </Trackpoint>
          <Trackpoint>
            <Time>2018-08-26T07:50:49.000Z</Time>
            <Position>
              <LatitudeDegrees>43.0584248341619968414306640625</LatitudeDegrees>
              <LongitudeDegrees>-1.76291548646986484527587890625</LongitudeDegrees>
            </Position>
            <AltitudeMeters>769</AltitudeMeters>
            <DistanceMeters>54306.471507262</DistanceMeters>
          </Trackpoint>
          <Trackpoint>
            <Time>2018-08-26T07:50:50.000Z</Time>
            <Position>
              <LatitudeDegrees>43.058444447815418243408203125</LatitudeDegrees>
              <LongitudeDegrees>-1.762962006032466888427734375</LongitudeDegrees>
            </Position>
            <AltitudeMeters>769.4000244140625</AltitudeMeters>
            <DistanceMeters>54310.840669836</DistanceMeters>
          </Trackpoint>
          <Trackpoint>
            <Time>2018-08-26T07:50:51.000Z</Time>
            <Position>
              <LatitudeDegrees>43.0584590323269367218017578125</LatitudeDegrees>
              <LongitudeDegrees>-1.76301539875566959381103515625</LongitudeDegrees>
            </Position>
            <AltitudeMeters>769.79998779296875</AltitudeMeters>
            <DistanceMeters>54315.477545079</DistanceMeters>
          </Trackpoint>
          <Trackpoint>
            <Time>2018-08-26T07:50:52.000Z</Time>
            <Position>
              <LatitudeDegrees>43.05847118608653545379638671875</LatitudeDegrees>
              <LongitudeDegrees>-1.76306116394698619842529296875</LongitudeDegrees>
            </Position>
            <AltitudeMeters>770</AltitudeMeters>
            <DistanceMeters>54319.438004999</DistanceMeters>
          </Trackpoint>
          <Trackpoint>
            <Time>2018-08-26T07:50:53.000Z</Time>
            <Position>
              <LatitudeDegrees>43.05848241783678531646728515625</LatitudeDegrees>
              <LongitudeDegrees>-1.763110198080539703369140625</LongitudeDegrees>
            </Position>
            <AltitudeMeters>770.20001220703125</AltitudeMeters>
            <DistanceMeters>54323.617020175</DistanceMeters>
          </Trackpoint>
          <Trackpoint>
            <Time>2018-08-26T07:50:54.000Z</Time>
            <Position>
              <LatitudeDegrees>43.05849247612059116363525390625</LatitudeDegrees>
              <LongitudeDegrees>-1.76315210759639739990234375</LongitudeDegrees>
            </Position>
            <AltitudeMeters>770.4000244140625</AltitudeMeters>
            <DistanceMeters>54327.205458416</DistanceMeters>
          </Trackpoint>
          <Trackpoint>
            <Time>2018-08-26T07:50:55.000Z</Time>
            <Position>
              <LatitudeDegrees>43.05850387550890445709228515625</LatitudeDegrees>
              <LongitudeDegrees>-1.7631955258548259735107421875</LongitudeDegrees>
            </Position>
            <AltitudeMeters>770.5999755859375</AltitudeMeters>
            <DistanceMeters>54330.957509746</DistanceMeters>
          </Trackpoint>
          <Trackpoint>
            <Time>2018-08-26T07:50:56.000Z</Time>
            <Position>
              <LatitudeDegrees>43.05851862765848636627197265625</LatitudeDegrees>
              <LongitudeDegrees>-1.76323517225682735443115234375</LongitudeDegrees>
            </Position>
            <AltitudeMeters>770.79998779296875</AltitudeMeters>
            <DistanceMeters>54334.576019224</DistanceMeters>
          </Trackpoint>
          <Trackpoint>
            <Time>2018-08-26T07:50:57.000Z</Time>
            <Position>
              <LatitudeDegrees>43.058532290160655975341796875</LatitudeDegrees>
              <LongitudeDegrees>-1.76327691413462162017822265625</LongitudeDegrees>
            </Position>
            <AltitudeMeters>771.20001220703125</AltitudeMeters>
            <DistanceMeters>54338.295438145</DistanceMeters>
          </Trackpoint>
          <Trackpoint>
            <Time>2018-08-26T07:50:58.000Z</Time>
            <Position>
              <LatitudeDegrees>43.058549724519252777099609375</LatitudeDegrees>
              <LongitudeDegrees>-1.76331480033695697784423828125</LongitudeDegrees>
            </Position>
            <AltitudeMeters>771.4000244140625</AltitudeMeters>
            <DistanceMeters>54341.936338064</DistanceMeters>
          </Trackpoint>
          <Trackpoint>
            <Time>2018-08-26T07:50:59.000Z</Time>
            <Position>
              <LatitudeDegrees>43.05857830680906772613525390625</LatitudeDegrees>
              <LongitudeDegrees>-1.76333173178136348724365234375</LongitudeDegrees>
            </Position>
            <AltitudeMeters>771.79998779296875</AltitudeMeters>
            <DistanceMeters>54345.403185587</DistanceMeters>
          </Trackpoint>
          <Trackpoint>
            <Time>2018-08-26T07:51:00.000Z</Time>
            <Position>
              <LatitudeDegrees>43.05860797874629497528076171875</LatitudeDegrees>
              <LongitudeDegrees>-1.76335318945348262786865234375</LongitudeDegrees>
            </Position>
            <AltitudeMeters>772</AltitudeMeters>
            <DistanceMeters>54349.139560592</DistanceMeters>
          </Trackpoint>
          <Trackpoint>
            <Time>2018-08-26T07:51:01.000Z</Time>
            <Position>
              <LatitudeDegrees>43.05863731540739536285400390625</LatitudeDegrees>
              <LongitudeDegrees>-1.7633816041052341461181640625</LongitudeDegrees>
            </Position>
            <AltitudeMeters>772.4000244140625</AltitudeMeters>
            <DistanceMeters>54353.141979313</DistanceMeters>
          </Trackpoint>
          <Trackpoint>
            <Time>2018-08-26T07:51:02.000Z</Time>
            <Position>
              <LatitudeDegrees>43.0586672388017177581787109375</LatitudeDegrees>
              <LongitudeDegrees>-1.7634050734341144561767578125</LongitudeDegrees>
            </Position>
            <AltitudeMeters>772.5999755859375</AltitudeMeters>
            <DistanceMeters>54356.980870397</DistanceMeters>
          </Trackpoint>
          <Trackpoint>
            <Time>2018-08-26T07:51:03.000Z</Time>
            <Position>
              <LatitudeDegrees>43.05869598872959613800048828125</LatitudeDegrees>
              <LongitudeDegrees>-1.7634218372404575347900390625</LongitudeDegrees>
            </Position>
            <AltitudeMeters>773</AltitudeMeters>
            <DistanceMeters>54360.459419295</DistanceMeters>
          </Trackpoint>
          <Trackpoint>
            <Time>2018-08-26T07:51:04.000Z</Time>
            <Position>
              <LatitudeDegrees>43.0587252415716648101806640625</LatitudeDegrees>
              <LongitudeDegrees>-1.763440109789371490478515625</LongitudeDegrees>
            </Position>
            <AltitudeMeters>773.4000244140625</AltitudeMeters>
            <DistanceMeters>54364.040300269</DistanceMeters>
          </Trackpoint>
          <Trackpoint>
            <Time>2018-08-26T07:51:05.000Z</Time>
            <Position>
              <LatitudeDegrees>43.058756254613399505615234375</LatitudeDegrees>
              <LongitudeDegrees>-1.76345544867217540740966796875</LongitudeDegrees>
            </Position>
            <AltitudeMeters>773.79998779296875</AltitudeMeters>
            <DistanceMeters>54367.709611373</DistanceMeters>
          </Trackpoint>
          <Trackpoint>
            <Time>2018-08-26T07:51:06.000Z</Time>
            <Position>
              <LatitudeDegrees>43.0587916262447834014892578125</LatitudeDegrees>
              <LongitudeDegrees>-1.7634741403162479400634765625</LongitudeDegrees>
            </Position>
            <AltitudeMeters>774</AltitudeMeters>
            <DistanceMeters>54371.929482312</DistanceMeters>
          </Trackpoint>
          <Trackpoint>
            <Time>2018-08-26T07:51:07.000Z</Time>
            <Position>
              <LatitudeDegrees>43.05882557295262813568115234375</LatitudeDegrees>
              <LongitudeDegrees>-1.76349408924579620361328125</LongitudeDegrees>
            </Position>
            <AltitudeMeters>774.4000244140625</AltitudeMeters>
            <DistanceMeters>54376.040966607</DistanceMeters>
          </Trackpoint>
          <Trackpoint>
            <Time>2018-08-26T07:51:08.000Z</Time>
            <Position>
              <LatitudeDegrees>43.05885558016598224639892578125</LatitudeDegrees>
              <LongitudeDegrees>-1.7635116912424564361572265625</LongitudeDegrees>
            </Position>
            <AltitudeMeters>774.79998779296875</AltitudeMeters>
            <DistanceMeters>54379.674418376</DistanceMeters>
          </Trackpoint>
          <Trackpoint>
            <Time>2018-08-26T07:51:09.000Z</Time>
            <Position>
              <LatitudeDegrees>43.05888273753225803375244140625</LatitudeDegrees>
              <LongitudeDegrees>-1.7635244317352771759033203125</LongitudeDegrees>
            </Position>
            <AltitudeMeters>775.4000244140625</AltitudeMeters>
            <DistanceMeters>54382.868786292</DistanceMeters>
          </Trackpoint>
          <Trackpoint>
            <Time>2018-08-26T07:51:10.000Z</Time>
            <Position>
              <LatitudeDegrees>43.0589170195162296295166015625</LatitudeDegrees>
              <LongitudeDegrees>-1.7635408602654933929443359375</LongitudeDegrees>
            </Position>
            <AltitudeMeters>775.5999755859375</AltitudeMeters>
            <DistanceMeters>54386.912728483</DistanceMeters>
          </Trackpoint>
          <Trackpoint>
            <Time>2018-08-26T07:51:11.000Z</Time>
            <Position>
              <LatitudeDegrees>43.05895440280437469482421875</LatitudeDegrees>
              <LongitudeDegrees>-1.7635582946240901947021484375</LongitudeDegrees>
            </Position>
            <AltitudeMeters>776</AltitudeMeters>
            <DistanceMeters>54391.309703996</DistanceMeters>
          </Trackpoint>
          <Trackpoint>
            <Time>2018-08-26T07:51:12.000Z</Time>
            <Position>
              <LatitudeDegrees>43.0589948035776615142822265625</LatitudeDegrees>
              <LongitudeDegrees>-1.76357011310756206512451171875</LongitudeDegrees>
            </Position>
            <AltitudeMeters>776.20001220703125</AltitudeMeters>
            <DistanceMeters>54395.907465294</DistanceMeters>
          </Trackpoint>
          <Trackpoint>
            <Time>2018-08-26T07:51:13.000Z</Time>
            <Position>
              <LatitudeDegrees>43.0590333603322505950927734375</LatitudeDegrees>
              <LongitudeDegrees>-1.76357983611524105072021484375</LongitudeDegrees>
            </Position>
            <AltitudeMeters>776.5999755859375</AltitudeMeters>
            <DistanceMeters>54400.270423138</DistanceMeters>
          </Trackpoint>
          <Trackpoint>
            <Time>2018-08-26T07:51:14.000Z</Time>
            <Position>
              <LatitudeDegrees>43.05906982161104679107666015625</LatitudeDegrees>
              <LongitudeDegrees>-1.76358536817133426666259765625</LongitudeDegrees>
            </Position>
            <AltitudeMeters>776.79998779296875</AltitudeMeters>
            <DistanceMeters>54404.353255625</DistanceMeters>
          </Trackpoint>
          <Trackpoint>
            <Time>2018-08-26T07:51:15.000Z</Time>
            <Position>
              <LatitudeDegrees>43.05910636670887470245361328125</LatitudeDegrees>
              <LongitudeDegrees>-1.76358821801841259002685546875</LongitudeDegrees>
            </Position>
            <AltitudeMeters>777</AltitudeMeters>
            <DistanceMeters>54408.427231631</DistanceMeters>
          </Trackpoint>
          <Trackpoint>
            <Time>2018-08-26T07:51:16.000Z</Time>
            <Position>
              <LatitudeDegrees>43.0591423250734806060791015625</LatitudeDegrees>
              <LongitudeDegrees>-1.7635898105800151824951171875</LongitudeDegrees>
            </Position>
            <AltitudeMeters>777.20001220703125</AltitudeMeters>
            <DistanceMeters>54412.431905871</DistanceMeters>
          </Trackpoint>
          <Trackpoint>
            <Time>2018-08-26T07:51:17.000Z</Time>
            <Position>
              <LatitudeDegrees>43.0591808818280696868896484375</LatitudeDegrees>
              <LongitudeDegrees>-1.7635886371135711669921875</LongitudeDegrees>
            </Position>
            <AltitudeMeters>777.4000244140625</AltitudeMeters>
            <DistanceMeters>54416.723916582</DistanceMeters>
          </Trackpoint>
          <Trackpoint>
            <Time>2018-08-26T07:51:18.000Z</Time>
            <Position>
              <LatitudeDegrees>43.05921684019267559051513671875</LatitudeDegrees>
              <LongitudeDegrees>-1.76358771510422229766845703125</LongitudeDegrees>
            </Position>
            <AltitudeMeters>777.5999755859375</AltitudeMeters>
            <DistanceMeters>54420.726335302</DistanceMeters>
          </Trackpoint>
          <Trackpoint>
            <Time>2018-08-26T07:51:19.000Z</Time>
            <Position>
              <LatitudeDegrees>43.05925288237631320953369140625</LatitudeDegrees>
              <LongitudeDegrees>-1.76358662545680999755859375</LongitudeDegrees>
            </Position>
            <AltitudeMeters>777.5999755859375</AltitudeMeters>
            <DistanceMeters>54424.738893875</DistanceMeters>
          </Trackpoint>
          <Trackpoint>
            <Time>2018-08-26T07:51:20.000Z</Time>
            <Position>
              <LatitudeDegrees>43.0592911876738071441650390625</LatitudeDegrees>
              <LongitudeDegrees>-1.76358201541006565093994140625</LongitudeDegrees>
            </Position>
            <AltitudeMeters>778</AltitudeMeters>
            <DistanceMeters>54429.018262407</DistanceMeters>
          </Trackpoint>
          <Trackpoint>
            <Time>2018-08-26T07:51:21.000Z</Time>
            <Position>
              <LatitudeDegrees>43.059328906238079071044921875</LatitudeDegrees>
              <LongitudeDegrees>-1.76357924938201904296875</LongitudeDegrees>
            </Position>
            <AltitudeMeters>778</AltitudeMeters>
            <DistanceMeters>54433.223127408</DistanceMeters>
          </Trackpoint>
          <Trackpoint>
            <Time>2018-08-26T07:51:22.000Z</Time>
            <Position>
              <LatitudeDegrees>43.0593696422874927520751953125</LatitudeDegrees>
              <LongitudeDegrees>-1.7635753937065601348876953125</LongitudeDegrees>
            </Position>
            <AltitudeMeters>778.20001220703125</AltitudeMeters>
            <DistanceMeters>54437.76854432</DistanceMeters>
          </Trackpoint>
          <Trackpoint>
            <Time>2018-08-26T07:51:23.000Z</Time>
            <Position>
              <LatitudeDegrees>43.05940903723239898681640625</LatitudeDegrees>
              <LongitudeDegrees>-1.763568855822086334228515625</LongitudeDegrees>
            </Position>
            <AltitudeMeters>778.4000244140625</AltitudeMeters>
            <DistanceMeters>54442.184986906</DistanceMeters>
          </Trackpoint>
          <Trackpoint>
            <Time>2018-08-26T07:51:24.000Z</Time>
            <Position>
              <LatitudeDegrees>43.05944792926311492919921875</LatitudeDegrees>
              <LongitudeDegrees>-1.7635603062808513641357421875</LongitudeDegrees>
            </Position>
            <AltitudeMeters>778.5999755859375</AltitudeMeters>
            <DistanceMeters>54446.568593033</DistanceMeters>
          </Trackpoint>
          <Trackpoint>
            <Time>2018-08-26T07:51:25.000Z</Time>
            <Position>
              <LatitudeDegrees>43.0594856478273868560791015625</LatitudeDegrees>
              <LongitudeDegrees>-1.7635452188551425933837890625</LongitudeDegrees>
            </Position>
            <AltitudeMeters>778.79998779296875</AltitudeMeters>
            <DistanceMeters>54450.941887204</DistanceMeters>
          </Trackpoint>
          <Trackpoint>
            <Time>2018-08-26T07:51:26.000Z</Time>
            <Position>
              <LatitudeDegrees>43.0595228634774684906005859375</LatitudeDegrees>
              <LongitudeDegrees>-1.76352518610656261444091796875</LongitudeDegrees>
            </Position>
            <AltitudeMeters>779.20001220703125</AltitudeMeters>
            <DistanceMeters>54455.392953112</DistanceMeters>
          </Trackpoint>
          <Trackpoint>
            <Time>2018-08-26T07:51:27.000Z</Time>
            <Position>
              <LatitudeDegrees>43.05956234224140644073486328125</LatitudeDegrees>
              <LongitudeDegrees>-1.76350523717701435089111328125</LongitudeDegrees>
            </Position>
            <AltitudeMeters>779.20001220703125</AltitudeMeters>
            <DistanceMeters>54460.077297864</DistanceMeters>
          </Trackpoint>
          <Trackpoint>
            <Time>2018-08-26T07:51:28.000Z</Time>
            <Position>
              <LatitudeDegrees>43.0596016533672809600830078125</LatitudeDegrees>
              <LongitudeDegrees>-1.76348612643778324127197265625</LongitudeDegrees>
            </Position>
            <AltitudeMeters>779.5999755859375</AltitudeMeters>
            <DistanceMeters>54464.719039175</DistanceMeters>
          </Trackpoint>
          <Trackpoint>
            <Time>2018-08-26T07:51:29.000Z</Time>
            <Position>
              <LatitudeDegrees>43.059637360274791717529296875</LatitudeDegrees>
              <LongitudeDegrees>-1.763463914394378662109375</LongitudeDegrees>
            </Position>
            <AltitudeMeters>779.5999755859375</AltitudeMeters>
            <DistanceMeters>54469.083031753</DistanceMeters>
          </Trackpoint>
          <Trackpoint>
            <Time>2018-08-26T07:51:30.000Z</Time>
            <Position>
              <LatitudeDegrees>43.05967465974390506744384765625</LatitudeDegrees>
              <LongitudeDegrees>-1.7634409479796886444091796875</LongitudeDegrees>
            </Position>
            <AltitudeMeters>779.79998779296875</AltitudeMeters>
            <DistanceMeters>54473.634404662</DistanceMeters>
          </Trackpoint>
          <Trackpoint>
            <Time>2018-08-26T07:51:31.000Z</Time>
            <Position>
              <LatitudeDegrees>43.05971271358430385589599609375</LatitudeDegrees>
              <LongitudeDegrees>-1.763420663774013519287109375</LongitudeDegrees>
            </Position>
            <AltitudeMeters>780</AltitudeMeters>
            <DistanceMeters>54478.179821574</DistanceMeters>
          </Trackpoint>
          <Trackpoint>
            <Time>2018-08-26T07:51:32.000Z</Time>
            <Position>
              <LatitudeDegrees>43.05974967777729034423828125</LatitudeDegrees>
              <LongitudeDegrees>-1.76340331323444843292236328125</LongitudeDegrees>
            </Position>
            <AltitudeMeters>780.4000244140625</AltitudeMeters>
            <DistanceMeters>54482.528267282</DistanceMeters>
          </Trackpoint>
          <Trackpoint>
            <Time>2018-08-26T07:51:33.000Z</Time>
            <Position>
              <LatitudeDegrees>43.05978563614189624786376953125</LatitudeDegrees>
              <LongitudeDegrees>-1.76338411867618560791015625</LongitudeDegrees>
            </Position>
            <AltitudeMeters>780.5999755859375</AltitudeMeters>
            <DistanceMeters>54486.824483787</DistanceMeters>
          </Trackpoint>
          <Trackpoint>
            <Time>2018-08-26T07:51:34.000Z</Time>
            <Position>
              <LatitudeDegrees>43.0598192475736141204833984375</LatitudeDegrees>
              <LongitudeDegrees>-1.7633634991943836212158203125</LongitudeDegrees>
            </Position>
            <AltitudeMeters>780.79998779296875</AltitudeMeters>
            <DistanceMeters>54490.92276906</DistanceMeters>
          </Trackpoint>
          <Trackpoint>
            <Time>2018-08-26T07:51:35.000Z</Time>
            <Position>
              <LatitudeDegrees>43.05985637940466403961181640625</LatitudeDegrees>
              <LongitudeDegrees>-1.7633418738842010498046875</LongitudeDegrees>
            </Position>
            <AltitudeMeters>781</AltitudeMeters>
            <DistanceMeters>54495.414226594</DistanceMeters>
          </Trackpoint>
          <Trackpoint>
            <Time>2018-08-26T07:51:36.000Z</Time>
            <Position>
              <LatitudeDegrees>43.059892840683460235595703125</LatitudeDegrees>
              <LongitudeDegrees>-1.76332234404981136322021484375</LongitudeDegrees>
            </Position>
            <AltitudeMeters>781.20001220703125</AltitudeMeters>
            <DistanceMeters>54499.77097087</DistanceMeters>
          </Trackpoint>
          <Trackpoint>
            <Time>2018-08-26T07:51:37.000Z</Time>
            <Position>
              <LatitudeDegrees>43.059929050505161285400390625</LatitudeDegrees>
              <LongitudeDegrees>-1.763302646577358245849609375</LongitudeDegrees>
            </Position>
            <AltitudeMeters>781.4000244140625</AltitudeMeters>
            <DistanceMeters>54504.10798012</DistanceMeters>
          </Trackpoint>
          <Trackpoint>
            <Time>2018-08-26T07:51:38.000Z</Time>
            <Position>
              <LatitudeDegrees>43.0599654279649257659912109375</LatitudeDegrees>
              <LongitudeDegrees>-1.76328211091458797454833984375</LongitudeDegrees>
            </Position>
            <AltitudeMeters>781.79998779296875</AltitudeMeters>
            <DistanceMeters>54508.487464378</DistanceMeters>
          </Trackpoint>
          <Trackpoint>
            <Time>2018-08-26T07:51:39.000Z</Time>
            <Position>
              <LatitudeDegrees>43.0600059963762760162353515625</LatitudeDegrees>
              <LongitudeDegrees>-1.7632632516324520111083984375</LongitudeDegrees>
            </Position>
            <AltitudeMeters>782.20001220703125</AltitudeMeters>
            <DistanceMeters>54513.255874226</DistanceMeters>
          </Trackpoint>
          <Trackpoint>
            <Time>2018-08-26T07:51:40.000Z</Time>
            <Position>
              <LatitudeDegrees>43.0600458942353725433349609375</LatitudeDegrees>
              <LongitudeDegrees>-1.763246320188045501708984375</LongitudeDegrees>
            </Position>
            <AltitudeMeters>782.5999755859375</AltitudeMeters>
            <DistanceMeters>54517.905390654</DistanceMeters>
          </Trackpoint>
          <Trackpoint>
            <Time>2018-08-26T07:51:41.000Z</Time>
            <Position>
              <LatitudeDegrees>43.060084618628025054931640625</LatitudeDegrees>
              <LongitudeDegrees>-1.76322679035365581512451171875</LongitudeDegrees>
            </Position>
            <AltitudeMeters>782.79998779296875</AltitudeMeters>
            <DistanceMeters>54522.498239287</DistanceMeters>
          </Trackpoint>
          <Trackpoint>
            <Time>2018-08-26T07:51:42.000Z</Time>
            <Position>
              <LatitudeDegrees>43.060121499001979827880859375</LatitudeDegrees>
              <LongitudeDegrees>-1.7632035724818706512451171875</LongitudeDegrees>
            </Position>
            <AltitudeMeters>783</AltitudeMeters>
            <DistanceMeters>54527.015757717</DistanceMeters>
          </Trackpoint>
          <Trackpoint>
            <Time>2018-08-26T07:51:43.000Z</Time>
            <Position>
              <LatitudeDegrees>43.06015670299530029296875</LatitudeDegrees>
              <LongitudeDegrees>-1.7631782591342926025390625</LongitudeDegrees>
            </Position>
            <AltitudeMeters>783.20001220703125</AltitudeMeters>
            <DistanceMeters>54531.440371342</DistanceMeters>
          </Trackpoint>
          <Trackpoint>
            <Time>2018-08-26T07:51:44.000Z</Time>
            <Position>
              <LatitudeDegrees>43.06019349955022335052490234375</LatitudeDegrees>
              <LongitudeDegrees>-1.76315235905349254608154296875</LongitudeDegrees>
            </Position>
            <AltitudeMeters>783.20001220703125</AltitudeMeters>
            <DistanceMeters>54536.045001565</DistanceMeters>
          </Trackpoint>
          <Trackpoint>
            <Time>2018-08-26T07:51:45.000Z</Time>
            <Position>
              <LatitudeDegrees>43.060230799019336700439453125</LatitudeDegrees>
              <LongitudeDegrees>-1.7631267942488193511962890625</LongitudeDegrees>
            </Position>
            <AltitudeMeters>783.4000244140625</AltitudeMeters>
            <DistanceMeters>54540.688687875</DistanceMeters>
          </Trackpoint>
          <Trackpoint>
            <Time>2018-08-26T07:51:46.000Z</Time>
            <Position>
              <LatitudeDegrees>43.06026541627943515777587890625</LatitudeDegrees>
              <LongitudeDegrees>-1.76309980452060699462890625</LongitudeDegrees>
            </Position>
            <AltitudeMeters>783.5999755859375</AltitudeMeters>
            <DistanceMeters>54545.123494128</DistanceMeters>
          </Trackpoint>
          <Trackpoint>
            <Time>2018-08-26T07:51:47.000Z</Time>
            <Position>
              <LatitudeDegrees>43.0602996982634067535400390625</LatitudeDegrees>
              <LongitudeDegrees>-1.763072647154331207275390625</LongitudeDegrees>
            </Position>
            <AltitudeMeters>784</AltitudeMeters>
            <DistanceMeters>54549.53175053</DistanceMeters>
          </Trackpoint>
          <Trackpoint>
            <Time>2018-08-26T07:51:48.000Z</Time>
            <Position>
              <LatitudeDegrees>43.0603345669806003570556640625</LatitudeDegrees>
              <LongitudeDegrees>-1.76304372958838939666748046875</LongitudeDegrees>
            </Position>
            <AltitudeMeters>784.4000244140625</AltitudeMeters>
            <DistanceMeters>54554.06921395</DistanceMeters>
          </Trackpoint>
          <Trackpoint>
            <Time>2018-08-26T07:51:49.000Z</Time>
            <Position>
              <LatitudeDegrees>43.06036792695522308349609375</LatitudeDegrees>
              <LongitudeDegrees>-1.7630173265933990478515625</LongitudeDegrees>
            </Position>
            <AltitudeMeters>784.5999755859375</AltitudeMeters>
            <DistanceMeters>54558.359120219</DistanceMeters>
          </Trackpoint>
          <Trackpoint>
            <Time>2018-08-26T07:51:50.000Z</Time>
            <Position>
              <LatitudeDegrees>43.060401119291782379150390625</LatitudeDegrees>
              <LongitudeDegrees>-1.762992180883884429931640625</LongitudeDegrees>
            </Position>
            <AltitudeMeters>785</AltitudeMeters>
            <DistanceMeters>54562.58219978</DistanceMeters>
          </Trackpoint>
          <Trackpoint>
            <Time>2018-08-26T07:51:51.000Z</Time>
            <Position>
              <LatitudeDegrees>43.060439340770244598388671875</LatitudeDegrees>
              <LongitudeDegrees>-1.76296728663146495819091796875</LongitudeDegrees>
            </Position>
            <AltitudeMeters>785.20001220703125</AltitudeMeters>
            <DistanceMeters>54567.293455228</DistanceMeters>
          </Trackpoint>
          <Trackpoint>
            <Time>2018-08-26T07:51:52.000Z</Time>
            <Position>
              <LatitudeDegrees>43.060477562248706817626953125</LatitudeDegrees>
              <LongitudeDegrees>-1.76293945871293544769287109375</LongitudeDegrees>
            </Position>
            <AltitudeMeters>785.4000244140625</AltitudeMeters>
            <DistanceMeters>54572.112724531</DistanceMeters>
          </Trackpoint>
          <Trackpoint>
            <Time>2018-08-26T07:51:53.000Z</Time>
            <Position>
              <LatitudeDegrees>43.06051544845104217529296875</LatitudeDegrees>
              <LongitudeDegrees>-1.76291598938405513763427734375</LongitudeDegrees>
            </Position>
            <AltitudeMeters>785.5999755859375</AltitudeMeters>
            <DistanceMeters>54576.742778686</DistanceMeters>
          </Trackpoint>
          <Trackpoint>
            <Time>2018-08-26T07:51:54.000Z</Time>
            <Position>
              <LatitudeDegrees>43.06055442430078983306884765625</LatitudeDegrees>
              <LongitudeDegrees>-1.7628939449787139892578125</LongitudeDegrees>
            </Position>
            <AltitudeMeters>785.79998779296875</AltitudeMeters>
            <DistanceMeters>54581.435790133</DistanceMeters>
          </Trackpoint>
          <Trackpoint>
            <Time>2018-08-26T07:51:55.000Z</Time>
            <Position>
              <LatitudeDegrees>43.0605937354266643524169921875</LatitudeDegrees>
              <LongitudeDegrees>-1.762874834239482879638671875</LongitudeDegrees>
            </Position>
            <AltitudeMeters>786.20001220703125</AltitudeMeters>
            <DistanceMeters>54586.078504046</DistanceMeters>
          </Trackpoint>
          <Trackpoint>
            <Time>2018-08-26T07:51:56.000Z</Time>
            <Position>
              <LatitudeDegrees>43.06063623167574405670166015625</LatitudeDegrees>
              <LongitudeDegrees>-1.762857735157012939453125</LongitudeDegrees>
            </Position>
            <AltitudeMeters>786.4000244140625</AltitudeMeters>
            <DistanceMeters>54591.00891638</DistanceMeters>
          </Trackpoint>
          <Trackpoint>
            <Time>2018-08-26T07:51:57.000Z</Time>
            <Position>
              <LatitudeDegrees>43.06067797355353832244873046875</LatitudeDegrees>
              <LongitudeDegrees>-1.76284004934132099151611328125</LongitudeDegrees>
            </Position>
            <AltitudeMeters>786.5999755859375</AltitudeMeters>
            <DistanceMeters>54595.872947659</DistanceMeters>
          </Trackpoint>
          <Trackpoint>
            <Time>2018-08-26T07:51:58.000Z</Time>
            <Position>
              <LatitudeDegrees>43.06071954779326915740966796875</LatitudeDegrees>
              <LongitudeDegrees>-1.76281792111694812774658203125</LongitudeDegrees>
            </Position>
            <AltitudeMeters>786.79998779296875</AltitudeMeters>
            <DistanceMeters>54600.838036651</DistanceMeters>
          </Trackpoint>
          <Trackpoint>
            <Time>2018-08-26T07:51:59.000Z</Time>
            <Position>
              <LatitudeDegrees>43.06075952947139739990234375</LatitudeDegrees>
              <LongitudeDegrees>-1.76279361359775066375732421875</LongitudeDegrees>
            </Position>
            <AltitudeMeters>787</AltitudeMeters>
            <DistanceMeters>54605.707634246</DistanceMeters>
          </Trackpoint>
          <Trackpoint>
            <Time>2018-08-26T07:52:00.000Z</Time>
            <Position>
              <LatitudeDegrees>43.0608006007969379425048828125</LatitudeDegrees>
              <LongitudeDegrees>-1.76276813261210918426513671875</LongitudeDegrees>
            </Position>
            <AltitudeMeters>787</AltitudeMeters>
            <DistanceMeters>54610.728786846</DistanceMeters>
          </Trackpoint>
          <Trackpoint>
            <Time>2018-08-26T07:52:01.000Z</Time>
            <Position>
              <LatitudeDegrees>43.06083790026605129241943359375</LatitudeDegrees>
              <LongitudeDegrees>-1.76274835132062435150146484375</LongitudeDegrees>
            </Position>
            <AltitudeMeters>787.20001220703125</AltitudeMeters>
            <DistanceMeters>54615.181881037</DistanceMeters>
          </Trackpoint>
          <Trackpoint>
            <Time>2018-08-26T07:52:02.000Z</Time>
            <Position>
              <LatitudeDegrees>43.060871846973896026611328125</LatitudeDegrees>
              <LongitudeDegrees>-1.762730665504932403564453125</LongitudeDegrees>
            </Position>
            <AltitudeMeters>787.4000244140625</AltitudeMeters>
            <DistanceMeters>54619.224706579</DistanceMeters>
          </Trackpoint>
          <Trackpoint>
            <Time>2018-08-26T07:52:03.000Z</Time>
            <Position>
              <LatitudeDegrees>43.0609055422246456146240234375</LatitudeDegrees>
              <LongitudeDegrees>-1.76270954310894012451171875</LongitudeDegrees>
            </Position>
            <AltitudeMeters>787.4000244140625</AltitudeMeters>
            <DistanceMeters>54623.349347656</DistanceMeters>
          </Trackpoint>
          <Trackpoint>
            <Time>2018-08-26T07:52:04.000Z</Time>
            <Position>
              <LatitudeDegrees>43.0609457753598690032958984375</LatitudeDegrees>
              <LongitudeDegrees>-1.7626882530748844146728515625</LongitudeDegrees>
            </Position>
            <AltitudeMeters>787.5999755859375</AltitudeMeters>
            <DistanceMeters>54628.149842952</DistanceMeters>
          </Trackpoint>
          <Trackpoint>
            <Time>2018-08-26T07:52:05.000Z</Time>
            <Position>
              <LatitudeDegrees>43.06098877452313899993896484375</LatitudeDegrees>
              <LongitudeDegrees>-1.7626740038394927978515625</LongitudeDegrees>
            </Position>
            <AltitudeMeters>788</AltitudeMeters>
            <DistanceMeters>54633.074757706</DistanceMeters>
          </Trackpoint>
          <Trackpoint>
            <Time>2018-08-26T07:52:06.000Z</Time>
            <Position>
              <LatitudeDegrees>43.06103487499058246612548828125</LatitudeDegrees>
              <LongitudeDegrees>-1.7626644484698772430419921875</LongitudeDegrees>
            </Position>
            <AltitudeMeters>788.20001220703125</AltitudeMeters>
            <DistanceMeters>54638.263947233</DistanceMeters>
          </Trackpoint>
          <Trackpoint>
            <Time>2018-08-26T07:52:07.000Z</Time>
            <Position>
              <LatitudeDegrees>43.0610835738480091094970703125</LatitudeDegrees>
              <LongitudeDegrees>-1.76266520284116268157958984375</LongitudeDegrees>
            </Position>
            <AltitudeMeters>788.4000244140625</AltitudeMeters>
            <DistanceMeters>54643.684636189</DistanceMeters>
          </Trackpoint>
          <Trackpoint>
            <Time>2018-08-26T07:52:08.000Z</Time>
            <Position>
              <LatitudeDegrees>43.06112757883965969085693359375</LatitudeDegrees>
              <LongitudeDegrees>-1.76268364302814006805419921875</LongitudeDegrees>
            </Position>
            <AltitudeMeters>788.5999755859375</AltitudeMeters>
            <DistanceMeters>54648.807272438</DistanceMeters>
          </Trackpoint>
          <Trackpoint>
            <Time>2018-08-26T07:52:09.000Z</Time>
            <Position>
              <LatitudeDegrees>43.06116613559424877166748046875</LatitudeDegrees>
              <LongitudeDegrees>-1.7627088725566864013671875</LongitudeDegrees>
            </Position>
            <AltitudeMeters>788.79998779296875</AltitudeMeters>
            <DistanceMeters>54653.564306343</DistanceMeters>
          </Trackpoint>
          <Trackpoint>
            <Time>2018-08-26T07:52:10.000Z</Time>
            <Position>
              <LatitudeDegrees>43.0611987411975860595703125</LatitudeDegrees>
              <LongitudeDegrees>-1.76274164579808712005615234375</LongitudeDegrees>
            </Position>
            <AltitudeMeters>789</AltitudeMeters>
            <DistanceMeters>54658.066808049</DistanceMeters>
          </Trackpoint>
          <Trackpoint>
            <Time>2018-08-26T07:52:11.000Z</Time>
            <Position>
              <LatitudeDegrees>43.06121441535651683807373046875</LatitudeDegrees>
              <LongitudeDegrees>-1.762787997722625732421875</LongitudeDegrees>
            </Position>
            <AltitudeMeters>789.20001220703125</AltitudeMeters>
            <DistanceMeters>54662.219812505</DistanceMeters>
          </Trackpoint>
          <Trackpoint>
            <Time>2018-08-26T07:52:12.000Z</Time>
            <Position>
              <LatitudeDegrees>43.061217181384563446044921875</LatitudeDegrees>
              <LongitudeDegrees>-1.76283988170325756072998046875</LongitudeDegrees>
            </Position>
            <AltitudeMeters>789.5999755859375</AltitudeMeters>
            <DistanceMeters>54666.449302005</DistanceMeters>
          </Trackpoint>
          <Trackpoint>
            <Time>2018-08-26T07:52:13.000Z</Time>
            <Position>
              <LatitudeDegrees>43.06121005676686763763427734375</LatitudeDegrees>
              <LongitudeDegrees>-1.762891598045825958251953125</LongitudeDegrees>
            </Position>
            <AltitudeMeters>789.79998779296875</AltitudeMeters>
            <DistanceMeters>54670.728670537</DistanceMeters>
          </Trackpoint>
          <Trackpoint>
            <Time>2018-08-26T07:52:14.000Z</Time>
            <Position>
              <LatitudeDegrees>43.061195723712444305419921875</LatitudeDegrees>
              <LongitudeDegrees>-1.76294423639774322509765625</LongitudeDegrees>
            </Position>
            <AltitudeMeters>790</AltitudeMeters>
            <DistanceMeters>54675.295888135</DistanceMeters>
          </Trackpoint>
          <Trackpoint>
            <Time>2018-08-26T07:52:15.000Z</Time>
            <Position>
              <LatitudeDegrees>43.0611751042306423187255859375</LatitudeDegrees>
              <LongitudeDegrees>-1.7629933543503284454345703125</LongitudeDegrees>
            </Position>
            <AltitudeMeters>790.20001220703125</AltitudeMeters>
            <DistanceMeters>54679.902479026</DistanceMeters>
          </Trackpoint>
          <Trackpoint>
            <Time>2018-08-26T07:52:16.000Z</Time>
            <Position>
              <LatitudeDegrees>43.06115272454917430877685546875</LatitudeDegrees>
              <LongitudeDegrees>-1.763043142855167388916015625</LongitudeDegrees>
            </Position>
            <AltitudeMeters>790.4000244140625</AltitudeMeters>
            <DistanceMeters>54684.655714899</DistanceMeters>
          </Trackpoint>
          <Trackpoint>
            <Time>2018-08-26T07:52:17.000Z</Time>
            <Position>
              <LatitudeDegrees>43.0611335299909114837646484375</LatitudeDegrees>
              <LongitudeDegrees>-1.7631004750728607177734375</LongitudeDegrees>
            </Position>
            <AltitudeMeters>790.5999755859375</AltitudeMeters>
            <DistanceMeters>54689.783636759</DistanceMeters>
          </Trackpoint>
          <Trackpoint>
            <Time>2018-08-26T07:52:18.000Z</Time>
            <Position>
              <LatitudeDegrees>43.06111969985067844390869140625</LatitudeDegrees>
              <LongitudeDegrees>-1.7631606571376323699951171875</LongitudeDegrees>
            </Position>
            <AltitudeMeters>790.79998779296875</AltitudeMeters>
            <DistanceMeters>54694.915079335</DistanceMeters>
          </Trackpoint>
          <Trackpoint>
            <Time>2018-08-26T07:52:19.000Z</Time>
            <Position>
              <LatitudeDegrees>43.06110964156687259674072265625</LatitudeDegrees>
              <LongitudeDegrees>-1.76322394050657749176025390625</LongitudeDegrees>
            </Position>
            <AltitudeMeters>791.20001220703125</AltitudeMeters>
            <DistanceMeters>54700.181994451</DistanceMeters>
          </Trackpoint>
          <Trackpoint>
            <Time>2018-08-26T07:52:20.000Z</Time>
            <Position>
              <LatitudeDegrees>43.06110092438757419586181640625</LatitudeDegrees>
              <LongitudeDegrees>-1.7632882297039031982421875</LongitudeDegrees>
            </Position>
            <AltitudeMeters>791.4000244140625</AltitudeMeters>
            <DistanceMeters>54705.498397302</DistanceMeters>
          </Trackpoint>
          <Trackpoint>
            <Time>2018-08-26T07:52:21.000Z</Time>
            <Position>
              <LatitudeDegrees>43.0610926263034343719482421875</LatitudeDegrees>
              <LongitudeDegrees>-1.76335251890122890472412109375</LongitudeDegrees>
            </Position>
            <AltitudeMeters>791.79998779296875</AltitudeMeters>
            <DistanceMeters>54710.80800168</DistanceMeters>
          </Trackpoint>
          <Trackpoint>
            <Time>2018-08-26T07:52:22.000Z</Time>
            <Position>
              <LatitudeDegrees>43.06108499877154827117919921875</LatitudeDegrees>
              <LongitudeDegrees>-1.76341454498469829559326171875</LongitudeDegrees>
            </Position>
            <AltitudeMeters>792</AltitudeMeters>
            <DistanceMeters>54715.923581954</DistanceMeters>
          </Trackpoint>
          <Trackpoint>
            <Time>2018-08-26T07:52:23.000Z</Time>
            <Position>
              <LatitudeDegrees>43.06107829324901103973388671875</LatitudeDegrees>
              <LongitudeDegrees>-1.7634768225252628326416015625</LongitudeDegrees>
            </Position>
            <AltitudeMeters>792.20001220703125</AltitudeMeters>
            <DistanceMeters>54721.042691431</DistanceMeters>
          </Trackpoint>
          <Trackpoint>
            <Time>2018-08-26T07:52:24.000Z</Time>
            <Position>
              <LatitudeDegrees>43.061072342097759246826171875</LatitudeDegrees>
              <LongitudeDegrees>-1.7635341547429561614990234375</LongitudeDegrees>
            </Position>
            <AltitudeMeters>792.5999755859375</AltitudeMeters>
            <DistanceMeters>54725.752029787</DistanceMeters>
          </Trackpoint>
          <Trackpoint>
            <Time>2018-08-26T07:52:25.000Z</Time>
            <Position>
              <LatitudeDegrees>43.061066977679729461669921875</LatitudeDegrees>
              <LongitudeDegrees>-1.76359090022742748260498046875</LongitudeDegrees>
            </Position>
            <AltitudeMeters>792.79998779296875</AltitudeMeters>
            <DistanceMeters>54730.4054289</DistanceMeters>
          </Trackpoint>
          <Trackpoint>
            <Time>2018-08-26T07:52:26.000Z</Time>
            <Position>
              <LatitudeDegrees>43.06106069125235080718994140625</LatitudeDegrees>
              <LongitudeDegrees>-1.76364588551223278045654296875</LongitudeDegrees>
            </Position>
            <AltitudeMeters>793</AltitudeMeters>
            <DistanceMeters>54734.931933451</DistanceMeters>
          </Trackpoint>
          <Trackpoint>
            <Time>2018-08-26T07:52:27.000Z</Time>
            <Position>
              <LatitudeDegrees>43.0610525608062744140625</LatitudeDegrees>
              <LongitudeDegrees>-1.76370187662541866302490234375</LongitudeDegrees>
            </Position>
            <AltitudeMeters>793.20001220703125</AltitudeMeters>
            <DistanceMeters>54739.575619762</DistanceMeters>
          </Trackpoint>
          <Trackpoint>
            <Time>2018-08-26T07:52:28.000Z</Time>
            <Position>
              <LatitudeDegrees>43.06104409508407115936279296875</LatitudeDegrees>
              <LongitudeDegrees>-1.7637577839195728302001953125</LongitudeDegrees>
            </Position>
            <AltitudeMeters>793.4000244140625</AltitudeMeters>
            <DistanceMeters>54744.219306072</DistanceMeters>
          </Trackpoint>
          <Trackpoint>
            <Time>2018-08-26T07:52:29.000Z</Time>
            <Position>
              <LatitudeDegrees>43.06103437207639217376708984375</LatitudeDegrees>
              <LongitudeDegrees>-1.76381167955696582794189453125</LongitudeDegrees>
            </Position>
            <AltitudeMeters>793.5999755859375</AltitudeMeters>
            <DistanceMeters>54748.732824927</DistanceMeters>
          </Trackpoint>
          <Trackpoint>
            <Time>2018-08-26T07:52:30.000Z</Time>
            <Position>
              <LatitudeDegrees>43.06102372705936431884765625</LatitudeDegrees>
              <LongitudeDegrees>-1.76386582665145397186279296875</LongitudeDegrees>
            </Position>
            <AltitudeMeters>793.5999755859375</AltitudeMeters>
            <DistanceMeters>54753.292127064</DistanceMeters>
          </Trackpoint>
          <Trackpoint>
            <Time>2018-08-26T07:52:31.000Z</Time>
            <Position>
              <LatitudeDegrees>43.0610098131000995635986328125</LatitudeDegrees>
              <LongitudeDegrees>-1.76392014138400554656982421875</LongitudeDegrees>
            </Position>
            <AltitudeMeters>793.79998779296875</AltitudeMeters>
            <DistanceMeters>54757.972614801</DistanceMeters>
          </Trackpoint>
          <Trackpoint>
            <Time>2018-08-26T07:52:32.000Z</Time>
            <Position>
              <LatitudeDegrees>43.0609943903982639312744140625</LatitudeDegrees>
              <LongitudeDegrees>-1.76397345028817653656005859375</LongitudeDegrees>
            </Position>
            <AltitudeMeters>794</AltitudeMeters>
            <DistanceMeters>54762.635706487</DistanceMeters>
          </Trackpoint>
          <Trackpoint>
            <Time>2018-08-26T07:52:33.000Z</Time>
            <Position>
              <LatitudeDegrees>43.060980141162872314453125</LatitudeDegrees>
              <LongitudeDegrees>-1.7640286870300769805908203125</LongitudeDegrees>
            </Position>
            <AltitudeMeters>794.4000244140625</AltitudeMeters>
            <DistanceMeters>54767.399379661</DistanceMeters>
          </Trackpoint>
          <Trackpoint>
            <Time>2018-08-26T07:52:34.000Z</Time>
            <Position>
              <LatitudeDegrees>43.06096513755619525909423828125</LatitudeDegrees>
              <LongitudeDegrees>-1.76408476196229457855224609375</LongitudeDegrees>
            </Position>
            <AltitudeMeters>794.5999755859375</AltitudeMeters>
            <DistanceMeters>54772.25597926</DistanceMeters>
          </Trackpoint>
          <Trackpoint>
            <Time>2018-08-26T07:52:35.000Z</Time>
            <Position>
              <LatitudeDegrees>43.06094937957823276519775390625</LatitudeDegrees>
              <LongitudeDegrees>-1.76414075307548046112060546875</LongitudeDegrees>
            </Position>
            <AltitudeMeters>794.79998779296875</AltitudeMeters>
            <DistanceMeters>54777.136690444</DistanceMeters>
          </Trackpoint>
          <Trackpoint>
            <Time>2018-08-26T07:52:36.000Z</Time>
            <Position>
              <LatitudeDegrees>43.06093211285769939422607421875</LatitudeDegrees>
              <LongitudeDegrees>-1.7641973309218883514404296875</LongitudeDegrees>
            </Position>
            <AltitudeMeters>795</AltitudeMeters>
            <DistanceMeters>54782.123556246</DistanceMeters>
          </Trackpoint>
          <Trackpoint>
            <Time>2018-08-26T07:52:37.000Z</Time>
            <Position>
              <LatitudeDegrees>43.06091031990945339202880859375</LatitudeDegrees>
              <LongitudeDegrees>-1.76425449550151824951171875</LongitudeDegrees>
            </Position>
            <AltitudeMeters>795.4000244140625</AltitudeMeters>
            <DistanceMeters>54787.366413549</DistanceMeters>
          </Trackpoint>
          <Trackpoint>
            <Time>2018-08-26T07:52:38.000Z</Time>
            <Position>
              <LatitudeDegrees>43.0608854256570339202880859375</LatitudeDegrees>
              <LongitudeDegrees>-1.76430839113891124725341796875</LongitudeDegrees>
            </Position>
            <AltitudeMeters>795.79998779296875</AltitudeMeters>
            <DistanceMeters>54792.552121567</DistanceMeters>
          </Trackpoint>
          <Trackpoint>
            <Time>2018-08-26T07:52:39.000Z</Time>
            <Position>
              <LatitudeDegrees>43.06085717864334583282470703125</LatitudeDegrees>
              <LongitudeDegrees>-1.7643575929105281829833984375</LongitudeDegrees>
            </Position>
            <AltitudeMeters>796</AltitudeMeters>
            <DistanceMeters>54797.641154799</DistanceMeters>
          </Trackpoint>
          <Trackpoint>
            <Time>2018-08-26T07:52:40.000Z</Time>
            <Position>
              <LatitudeDegrees>43.06082717142999172210693359375</LatitudeDegrees>
              <LongitudeDegrees>-1.76440394483506679534912109375</LongitudeDegrees>
            </Position>
            <AltitudeMeters>796.20001220703125</AltitudeMeters>
            <DistanceMeters>54802.677570661</DistanceMeters>
          </Trackpoint>
          <Trackpoint>
            <Time>2018-08-26T07:52:41.000Z</Time>
            <Position>
              <LatitudeDegrees>43.06079431436955928802490234375</LatitudeDegrees>
              <LongitudeDegrees>-1.764447949826717376708984375</LongitudeDegrees>
            </Position>
            <AltitudeMeters>796.5999755859375</AltitudeMeters>
            <DistanceMeters>54807.794915841</DistanceMeters>
          </Trackpoint>
          <Trackpoint>
            <Time>2018-08-26T07:52:42.000Z</Time>
            <Position>
              <LatitudeDegrees>43.060761205852031707763671875</LatitudeDegrees>
              <LongitudeDegrees>-1.76448977552354335784912109375</LongitudeDegrees>
            </Position>
            <AltitudeMeters>797</AltitudeMeters>
            <DistanceMeters>54812.809770065</DistanceMeters>
          </Trackpoint>
          <Trackpoint>
            <Time>2018-08-26T07:52:43.000Z</Time>
            <Position>
              <LatitudeDegrees>43.0607275106012821197509765625</LatitudeDegrees>
              <LongitudeDegrees>-1.764529757201671600341796875</LongitudeDegrees>
            </Position>
            <AltitudeMeters>797.20001220703125</AltitudeMeters>
            <DistanceMeters>54817.77304001</DistanceMeters>
          </Trackpoint>
          <Trackpoint>
            <Time>2018-08-26T07:52:44.000Z</Time>
            <Position>
              <LatitudeDegrees>43.060694821178913116455078125</LatitudeDegrees>
              <LongitudeDegrees>-1.7645684815943241119384765625</LongitudeDegrees>
            </Position>
            <AltitudeMeters>797.5999755859375</AltitudeMeters>
            <DistanceMeters>54822.5848085</DistanceMeters>
          </Trackpoint>
          <Trackpoint>
            <Time>2018-08-26T07:52:45.000Z</Time>
            <Position>
              <LatitudeDegrees>43.06066296994686126708984375</LatitudeDegrees>
              <LongitudeDegrees>-1.76460578106343746185302734375</LongitudeDegrees>
            </Position>
            <AltitudeMeters>798</AltitudeMeters>
            <DistanceMeters>54827.249836284</DistanceMeters>
          </Trackpoint>
          <Trackpoint>
            <Time>2018-08-26T07:52:46.000Z</Time>
            <Position>
              <LatitudeDegrees>43.06063078343868255615234375</LatitudeDegrees>
              <LongitudeDegrees>-1.76464266143739223480224609375</LongitudeDegrees>
            </Position>
            <AltitudeMeters>798.20001220703125</AltitudeMeters>
            <DistanceMeters>54831.920667547</DistanceMeters>
          </Trackpoint>
          <Trackpoint>
            <Time>2018-08-26T07:52:47.000Z</Time>
            <Position>
              <LatitudeDegrees>43.06059968657791614532470703125</LatitudeDegrees>
              <LongitudeDegrees>-1.76467920653522014617919921875</LongitudeDegrees>
            </Position>
            <AltitudeMeters>798.4000244140625</AltitudeMeters>
            <DistanceMeters>54836.481949837</DistanceMeters>
          </Trackpoint>
          <Trackpoint>
            <Time>2018-08-26T07:52:48.000Z</Time>
            <Position>
              <LatitudeDegrees>43.0605682544410228729248046875</LatitudeDegrees>
              <LongitudeDegrees>-1.76471491344273090362548828125</LongitudeDegrees>
            </Position>
            <AltitudeMeters>798.5999755859375</AltitudeMeters>
            <DistanceMeters>54841.028359957</DistanceMeters>
          </Trackpoint>
          <Trackpoint>
            <Time>2018-08-26T07:52:49.000Z</Time>
            <Position>
              <LatitudeDegrees>43.0605374090373516082763671875</LatitudeDegrees>
              <LongitudeDegrees>-1.7647498659789562225341796875</LongitudeDegrees>
            </Position>
            <AltitudeMeters>799</AltitudeMeters>
            <DistanceMeters>54845.485507944</DistanceMeters>
          </Trackpoint>
          <Trackpoint>
            <Time>2018-08-26T07:52:50.000Z</Time>
            <Position>
              <LatitudeDegrees>43.06050782091915607452392578125</LatitudeDegrees>
              <LongitudeDegrees>-1.76478649489581584930419921875</LongitudeDegrees>
            </Position>
            <AltitudeMeters>799.4000244140625</AltitudeMeters>
            <DistanceMeters>54849.926418544</DistanceMeters>
          </Trackpoint>
          <Trackpoint>
            <Time>2018-08-26T07:52:51.000Z</Time>
            <Position>
              <LatitudeDegrees>43.060481585562229156494140625</LatitudeDegrees>
              <LongitudeDegrees>-1.76482580602169036865234375</LongitudeDegrees>
            </Position>
            <AltitudeMeters>799.5999755859375</AltitudeMeters>
            <DistanceMeters>54854.256134319</DistanceMeters>
          </Trackpoint>
          <Trackpoint>
            <Time>2018-08-26T07:52:52.000Z</Time>
            <Position>
              <LatitudeDegrees>43.0604579485952854156494140625</LatitudeDegrees>
              <LongitudeDegrees>-1.76486679352819919586181640625</LongitudeDegrees>
            </Position>
            <AltitudeMeters>800</AltitudeMeters>
            <DistanceMeters>54858.502669691</DistanceMeters>
          </Trackpoint>
          <Trackpoint>
            <Time>2018-08-26T07:52:53.000Z</Time>
            <Position>
              <LatitudeDegrees>43.06043741293251514434814453125</LatitudeDegrees>
              <LongitudeDegrees>-1.76490987651050090789794921875</LongitudeDegrees>
            </Position>
            <AltitudeMeters>800.20001220703125</AltitudeMeters>
            <DistanceMeters>54862.686004263</DistanceMeters>
          </Trackpoint>
          <Trackpoint>
            <Time>2018-08-26T07:52:54.000Z</Time>
            <Position>
              <LatitudeDegrees>43.0604182183742523193359375</LatitudeDegrees>
              <LongitudeDegrees>-1.76495681516826152801513671875</LongitudeDegrees>
            </Position>
            <AltitudeMeters>800.4000244140625</AltitudeMeters>
            <DistanceMeters>54867.06136277</DistanceMeters>
          </Trackpoint>
          <Trackpoint>
            <Time>2018-08-26T07:52:55.000Z</Time>
            <Position>
              <LatitudeDegrees>43.06040170602500438690185546875</LatitudeDegrees>
              <LongitudeDegrees>-1.7650053463876247406005859375</LongitudeDegrees>
            </Position>
            <AltitudeMeters>800.79998779296875</AltitudeMeters>
            <DistanceMeters>54871.416033886</DistanceMeters>
          </Trackpoint>
          <Trackpoint>
            <Time>2018-08-26T07:52:56.000Z</Time>
            <Position>
              <LatitudeDegrees>43.0603887140750885009765625</LatitudeDegrees>
              <LongitudeDegrees>-1.765057481825351715087890625</LongitudeDegrees>
            </Position>
            <AltitudeMeters>801</AltitudeMeters>
            <DistanceMeters>54875.897427644</DistanceMeters>
          </Trackpoint>
          <Trackpoint>
            <Time>2018-08-26T07:52:57.000Z</Time>
            <Position>
              <LatitudeDegrees>43.06037865579128265380859375</LatitudeDegrees>
              <LongitudeDegrees>-1.765110790729522705078125</LongitudeDegrees>
            </Position>
            <AltitudeMeters>801.4000244140625</AltitudeMeters>
            <DistanceMeters>54880.374789558</DistanceMeters>
          </Trackpoint>
          <Trackpoint>
            <Time>2018-08-26T07:52:58.000Z</Time>
            <Position>
              <LatitudeDegrees>43.06037203408777713775634765625</LatitudeDegrees>
              <LongitudeDegrees>-1.76516535691916942596435546875</LongitudeDegrees>
            </Position>
            <AltitudeMeters>801.5999755859375</AltitudeMeters>
            <DistanceMeters>54884.873278338</DistanceMeters>
          </Trackpoint>
          <Trackpoint>
            <Time>2018-08-26T07:52:59.000Z</Time>
            <Position>
              <LatitudeDegrees>43.0603691004216670989990234375</LatitudeDegrees>
              <LongitudeDegrees>-1.76522277295589447021484375</LongitudeDegrees>
            </Position>
            <AltitudeMeters>802</AltitudeMeters>
            <DistanceMeters>54889.553766075</DistanceMeters>
          </Trackpoint>
          <Trackpoint>
            <Time>2018-08-26T07:53:00.000Z</Time>
            <Position>
              <LatitudeDegrees>43.0603707768023014068603515625</LatitudeDegrees>
              <LongitudeDegrees>-1.76527935080230236053466796875</LongitudeDegrees>
            </Position>
            <AltitudeMeters>802.20001220703125</AltitudeMeters>
            <DistanceMeters>54894.157415651</DistanceMeters>
          </Trackpoint>
          <Trackpoint>
            <Time>2018-08-26T07:53:01.000Z</Time>
            <Position>
              <LatitudeDegrees>43.0603737942874431610107421875</LatitudeDegrees>
              <LongitudeDegrees>-1.765334419906139373779296875</LongitudeDegrees>
            </Position>
            <AltitudeMeters>802.20001220703125</AltitudeMeters>
            <DistanceMeters>54898.646862234</DistanceMeters>
          </Trackpoint>
          <Trackpoint>
            <Time>2018-08-26T07:53:02.000Z</Time>
            <Position>
              <LatitudeDegrees>43.06037857197225093841552734375</LatitudeDegrees>
              <LongitudeDegrees>-1.76538831554353237152099609375</LongitudeDegrees>
            </Position>
            <AltitudeMeters>802.5999755859375</AltitudeMeters>
            <DistanceMeters>54903.061259697</DistanceMeters>
          </Trackpoint>
          <Trackpoint>
            <Time>2018-08-26T07:53:03.000Z</Time>
            <Position>
              <LatitudeDegrees>43.0603861995041370391845703125</LatitudeDegrees>
              <LongitudeDegrees>-1.76544195972383022308349609375</LongitudeDegrees>
            </Position>
            <AltitudeMeters>802.79998779296875</AltitudeMeters>
            <DistanceMeters>54907.506235204</DistanceMeters>
          </Trackpoint>
          <Trackpoint>
            <Time>2018-08-26T07:53:04.000Z</Time>
            <Position>
              <LatitudeDegrees>43.0603942461311817169189453125</LatitudeDegrees>
              <LongitudeDegrees>-1.76549367606639862060546875</LongitudeDegrees>
            </Position>
            <AltitudeMeters>803.20001220703125</AltitudeMeters>
            <DistanceMeters>54911.806653388</DistanceMeters>
          </Trackpoint>
          <Trackpoint>
            <Time>2018-08-26T07:53:05.000Z</Time>
            <Position>
              <LatitudeDegrees>43.060401789844036102294921875</LatitudeDegrees>
              <LongitudeDegrees>-1.76554488949477672576904296875</LongitudeDegrees>
            </Position>
            <AltitudeMeters>803.79998779296875</AltitudeMeters>
            <DistanceMeters>54916.054251855</DistanceMeters>
          </Trackpoint>
          <Trackpoint>
            <Time>2018-08-26T07:53:06.000Z</Time>
            <Position>
              <LatitudeDegrees>43.06040958501398563385009765625</LatitudeDegrees>
              <LongitudeDegrees>-1.76559786312282085418701171875</LongitudeDegrees>
            </Position>
            <AltitudeMeters>804</AltitudeMeters>
            <DistanceMeters>54920.448145736</DistanceMeters>
          </Trackpoint>
          <Trackpoint>
            <Time>2018-08-26T07:53:07.000Z</Time>
            <Position>
              <LatitudeDegrees>43.060416877269744873046875</LatitudeDegrees>
              <LongitudeDegrees>-1.765648908913135528564453125</LongitudeDegrees>
            </Position>
            <AltitudeMeters>804.20001220703125</AltitudeMeters>
            <DistanceMeters>54924.678702616</DistanceMeters>
          </Trackpoint>
          <Trackpoint>
            <Time>2018-08-26T07:53:08.000Z</Time>
            <Position>
              <LatitudeDegrees>43.06042517535388469696044921875</LatitudeDegrees>
              <LongitudeDegrees>-1.76569308154284954071044921875</LongitudeDegrees>
            </Position>
            <AltitudeMeters>804.4000244140625</AltitudeMeters>
            <DistanceMeters>54928.38839755</DistanceMeters>
          </Trackpoint>
          <Trackpoint>
            <Time>2018-08-26T07:53:09.000Z</Time>
            <Position>
              <LatitudeDegrees>43.0604331381618976593017578125</LatitudeDegrees>
              <LongitudeDegrees>-1.7657369188964366912841796875</LongitudeDegrees>
            </Position>
            <AltitudeMeters>804.5999755859375</AltitudeMeters>
            <DistanceMeters>54932.061398258</DistanceMeters>
          </Trackpoint>
          <Trackpoint>
            <Time>2018-08-26T07:53:10.000Z</Time>
            <Position>
              <LatitudeDegrees>43.0604385025799274444580078125</LatitudeDegrees>
              <LongitudeDegrees>-1.765783019363880157470703125</LongitudeDegrees>
            </Position>
            <AltitudeMeters>804.79998779296875</AltitudeMeters>
            <DistanceMeters>54935.857712524</DistanceMeters>
          </Trackpoint>
          <Trackpoint>
            <Time>2018-08-26T07:53:11.000Z</Time>
            <Position>
              <LatitudeDegrees>43.06044076569378376007080078125</LatitudeDegrees>
              <LongitudeDegrees>-1.7658274434506893157958984375</LongitudeDegrees>
            </Position>
            <AltitudeMeters>805</AltitudeMeters>
            <DistanceMeters>54939.478716666</DistanceMeters>
          </Trackpoint>
          <Trackpoint>
            <Time>2018-08-26T07:53:12.000Z</Time>
            <Position>
              <LatitudeDegrees>43.06044059805572032928466796875</LatitudeDegrees>
              <LongitudeDegrees>-1.76587396301329135894775390625</LongitudeDegrees>
            </Position>
            <AltitudeMeters>805.20001220703125</AltitudeMeters>
            <DistanceMeters>54943.260732146</DistanceMeters>
          </Trackpoint>
          <Trackpoint>
            <Time>2018-08-26T07:53:13.000Z</Time>
            <Position>
              <LatitudeDegrees>43.06043992750346660614013671875</LatitudeDegrees>
              <LongitudeDegrees>-1.7659226618707180023193359375</LongitudeDegrees>
            </Position>
            <AltitudeMeters>805.4000244140625</AltitudeMeters>
            <DistanceMeters>54947.222331931</DistanceMeters>
          </Trackpoint>
          <Trackpoint>
            <Time>2018-08-26T07:53:14.000Z</Time>
            <Position>
              <LatitudeDegrees>43.060437999665737152099609375</LatitudeDegrees>
              <LongitudeDegrees>-1.7659732885658740997314453125</LongitudeDegrees>
            </Position>
            <AltitudeMeters>805.4000244140625</AltitudeMeters>
            <DistanceMeters>54951.343687751</DistanceMeters>
          </Trackpoint>
          <Trackpoint>
            <Time>2018-08-26T07:53:15.000Z</Time>
            <Position>
              <LatitudeDegrees>43.060433976352214813232421875</LatitudeDegrees>
              <LongitudeDegrees>-1.7660235799849033355712890625</LongitudeDegrees>
            </Position>
            <AltitudeMeters>805.5999755859375</AltitudeMeters>
            <DistanceMeters>54955.457367764</DistanceMeters>
          </Trackpoint>
          <Trackpoint>
            <Time>2018-08-26T07:53:16.000Z</Time>
            <Position>
              <LatitudeDegrees>43.0604297854006290435791015625</LatitudeDegrees>
              <LongitudeDegrees>-1.76607328467071056365966796875</LongitudeDegrees>
            </Position>
            <AltitudeMeters>805.79998779296875</AltitudeMeters>
            <DistanceMeters>54959.526908303</DistanceMeters>
          </Trackpoint>
          <Trackpoint>
            <Time>2018-08-26T07:53:17.000Z</Time>
            <Position>
              <LatitudeDegrees>43.0604260973632335662841796875</LatitudeDegrees>
              <LongitudeDegrees>-1.76612759940326213836669921875</LongitudeDegrees>
            </Position>
            <AltitudeMeters>806.20001220703125</AltitudeMeters>
            <DistanceMeters>54963.96273253</DistanceMeters>
          </Trackpoint>
          <Trackpoint>
            <Time>2018-08-26T07:53:18.000Z</Time>
            <Position>
              <LatitudeDegrees>43.060422241687774658203125</LatitudeDegrees>
              <LongitudeDegrees>-1.76618509925901889801025390625</LongitudeDegrees>
            </Position>
            <AltitudeMeters>806.4000244140625</AltitudeMeters>
            <DistanceMeters>54968.658629322</DistanceMeters>
          </Trackpoint>
          <Trackpoint>
            <Time>2018-08-26T07:53:19.000Z</Time>
            <Position>
              <LatitudeDegrees>43.06041779927909374237060546875</LatitudeDegrees>
              <LongitudeDegrees>-1.76623891107738018035888671875</LongitudeDegrees>
            </Position>
            <AltitudeMeters>806.79998779296875</AltitudeMeters>
            <DistanceMeters>54973.062786926</DistanceMeters>
          </Trackpoint>
          <Trackpoint>
            <Time>2018-08-26T07:53:20.000Z</Time>
            <Position>
              <LatitudeDegrees>43.06041344068944454193115234375</LatitudeDegrees>
              <LongitudeDegrees>-1.76629322580993175506591796875</LongitudeDegrees>
            </Position>
            <AltitudeMeters>807</AltitudeMeters>
            <DistanceMeters>54977.505730444</DistanceMeters>
          </Trackpoint>
          <Trackpoint>
            <Time>2018-08-26T07:53:21.000Z</Time>
            <Position>
              <LatitudeDegrees>43.060407824814319610595703125</LatitudeDegrees>
              <LongitudeDegrees>-1.76634385250508785247802734375</LongitudeDegrees>
            </Position>
            <AltitudeMeters>807</AltitudeMeters>
            <DistanceMeters>54981.669592446</DistanceMeters>
          </Trackpoint>
          <Trackpoint>
            <Time>2018-08-26T07:53:22.000Z</Time>
            <Position>
              <LatitudeDegrees>43.06040623225271701812744140625</LatitudeDegrees>
              <LongitudeDegrees>-1.76639380864799022674560546875</LongitudeDegrees>
            </Position>
            <AltitudeMeters>807.4000244140625</AltitudeMeters>
            <DistanceMeters>54985.736913437</DistanceMeters>
          </Trackpoint>
          <Trackpoint>
            <Time>2018-08-26T07:53:23.000Z</Time>
            <Position>
              <LatitudeDegrees>43.0604053102433681488037109375</LatitudeDegrees>
              <LongitudeDegrees>-1.76644678227603435516357421875</LongitudeDegrees>
            </Position>
            <AltitudeMeters>807.79998779296875</AltitudeMeters>
            <DistanceMeters>54990.045722689</DistanceMeters>
          </Trackpoint>
          <Trackpoint>
            <Time>2018-08-26T07:53:24.000Z</Time>
            <Position>
              <LatitudeDegrees>43.06040170602500438690185546875</LatitudeDegrees>
              <LongitudeDegrees>-1.7664983309805393218994140625</LongitudeDegrees>
            </Position>
            <AltitudeMeters>808</AltitudeMeters>
            <DistanceMeters>54994.257025354</DistanceMeters>
          </Trackpoint>
          <Trackpoint>
            <Time>2018-08-26T07:53:25.000Z</Time>
            <Position>
              <LatitudeDegrees>43.06039550341665744781494140625</LatitudeDegrees>
              <LongitudeDegrees>-1.766550801694393157958984375</LongitudeDegrees>
            </Position>
            <AltitudeMeters>808.20001220703125</AltitudeMeters>
            <DistanceMeters>54998.580479788</DistanceMeters>
          </Trackpoint>
          <Trackpoint>
            <Time>2018-08-26T07:53:26.000Z</Time>
            <Position>
              <LatitudeDegrees>43.06038804352283477783203125</LatitudeDegrees>
              <LongitudeDegrees>-1.7666002549231052398681640625</LongitudeDegrees>
            </Position>
            <AltitudeMeters>808.4000244140625</AltitudeMeters>
            <DistanceMeters>55002.687569122</DistanceMeters>
          </Trackpoint>
          <Trackpoint>
            <Time>2018-08-26T07:53:27.000Z</Time>
            <Position>
              <LatitudeDegrees>43.060380332171916961669921875</LatitudeDegrees>
              <LongitudeDegrees>-1.76665465347468852996826171875</LongitudeDegrees>
            </Position>
            <AltitudeMeters>808.79998779296875</AltitudeMeters>
            <DistanceMeters>55007.193078177</DistanceMeters>
          </Trackpoint>
          <Trackpoint>
            <Time>2018-08-26T07:53:28.000Z</Time>
            <Position>
              <LatitudeDegrees>43.06037672795355319976806640625</LatitudeDegrees>
              <LongitudeDegrees>-1.76670276559889316558837890625</LongitudeDegrees>
            </Position>
            <AltitudeMeters>809</AltitudeMeters>
            <DistanceMeters>55011.124934084</DistanceMeters>
          </Trackpoint>
          <Trackpoint>
            <Time>2018-08-26T07:53:29.000Z</Time>
            <Position>
              <LatitudeDegrees>43.060373626649379730224609375</LatitudeDegrees>
              <LongitudeDegrees>-1.76674886606633663177490234375</LongitudeDegrees>
            </Position>
            <AltitudeMeters>809.20001220703125</AltitudeMeters>
            <DistanceMeters>55014.890199017</DistanceMeters>
          </Trackpoint>
          <Trackpoint>
            <Time>2018-08-26T07:53:30.000Z</Time>
            <Position>
              <LatitudeDegrees>43.06036767549812793731689453125</LatitudeDegrees>
              <LongitudeDegrees>-1.7667970620095729827880859375</LongitudeDegrees>
            </Position>
            <AltitudeMeters>809.4000244140625</AltitudeMeters>
            <DistanceMeters>55018.865451685</DistanceMeters>
          </Trackpoint>
          <Trackpoint>
            <Time>2018-08-26T07:53:31.000Z</Time>
            <Position>
              <LatitudeDegrees>43.0603590421378612518310546875</LatitudeDegrees>
              <LongitudeDegrees>-1.7668433301150798797607421875</LongitudeDegrees>
            </Position>
            <AltitudeMeters>809.79998779296875</AltitudeMeters>
            <DistanceMeters>55022.748778566</DistanceMeters>
          </Trackpoint>
          <Trackpoint>
            <Time>2018-08-26T07:53:32.000Z</Time>
            <Position>
              <LatitudeDegrees>43.06034906767308712005615234375</LatitudeDegrees>
              <LongitudeDegrees>-1.766884736716747283935546875</LongitudeDegrees>
            </Position>
            <AltitudeMeters>810</AltitudeMeters>
            <DistanceMeters>55026.294179306</DistanceMeters>
          </Trackpoint>
          <Trackpoint>
            <Time>2018-08-26T07:53:33.000Z</Time>
            <Position>
              <LatitudeDegrees>43.0603338964283466339111328125</LatitudeDegrees>
              <LongitudeDegrees>-1.7669251374900341033935546875</LongitudeDegrees>
            </Position>
            <AltitudeMeters>810.20001220703125</AltitudeMeters>
            <DistanceMeters>55029.986795646</DistanceMeters>
          </Trackpoint>
          <Trackpoint>
            <Time>2018-08-26T07:53:34.000Z</Time>
            <Position>
              <LatitudeDegrees>43.06031637825071811676025390625</LatitudeDegrees>
              <LongitudeDegrees>-1.76697031594812870025634765625</LongitudeDegrees>
            </Position>
            <AltitudeMeters>810.5999755859375</AltitudeMeters>
            <DistanceMeters>55034.14631803</DistanceMeters>
          </Trackpoint>
          <Trackpoint>
            <Time>2018-08-26T07:53:35.000Z</Time>
            <Position>
              <LatitudeDegrees>43.06029642932116985321044921875</LatitudeDegrees>
              <LongitudeDegrees>-1.76702144555747509002685546875</LongitudeDegrees>
            </Position>
            <AltitudeMeters>811.20001220703125</AltitudeMeters>
            <DistanceMeters>55038.859489791</DistanceMeters>
          </Trackpoint>
          <Trackpoint>
            <Time>2018-08-26T07:53:36.000Z</Time>
            <Position>
              <LatitudeDegrees>43.0602752231061458587646484375</LatitudeDegrees>
              <LongitudeDegrees>-1.76707022823393344879150390625</LongitudeDegrees>
            </Position>
            <AltitudeMeters>811.4000244140625</AltitudeMeters>
            <DistanceMeters>55043.475871535</DistanceMeters>
          </Trackpoint>
          <Trackpoint>
            <Time>2018-08-26T07:53:37.000Z</Time>
            <Position>
              <LatitudeDegrees>43.0602544359862804412841796875</LatitudeDegrees>
              <LongitudeDegrees>-1.767120100557804107666015625</LongitudeDegrees>
            </Position>
            <AltitudeMeters>811.5999755859375</AltitudeMeters>
            <DistanceMeters>55048.144769107</DistanceMeters>
          </Trackpoint>
          <Trackpoint>
            <Time>2018-08-26T07:53:38.000Z</Time>
            <Position>
              <LatitudeDegrees>43.060231469571590423583984375</LatitudeDegrees>
              <LongitudeDegrees>-1.767162345349788665771484375</LongitudeDegrees>
            </Position>
            <AltitudeMeters>811.79998779296875</AltitudeMeters>
            <DistanceMeters>55052.426247261</DistanceMeters>
          </Trackpoint>
          <Trackpoint>
            <Time>2018-08-26T07:53:39.000Z</Time>
            <Position>
              <LatitudeDegrees>43.060210682451725006103515625</LatitudeDegrees>
              <LongitudeDegrees>-1.76720735616981983184814453125</LongitudeDegrees>
            </Position>
            <AltitudeMeters>812.20001220703125</AltitudeMeters>
            <DistanceMeters>55056.755963037</DistanceMeters>
          </Trackpoint>
          <Trackpoint>
            <Time>2018-08-26T07:53:40.000Z</Time>
            <Position>
              <LatitudeDegrees>43.06019014678895473480224609375</LatitudeDegrees>
              <LongitudeDegrees>-1.767251528799533843994140625</LongitudeDegrees>
            </Position>
            <AltitudeMeters>812.4000244140625</AltitudeMeters>
            <DistanceMeters>55061.014177862</DistanceMeters>
          </Trackpoint>
          <Trackpoint>
            <Time>2018-08-26T07:53:41.000Z</Time>
            <Position>
              <LatitudeDegrees>43.0601766519248485565185546875</LatitudeDegrees>
              <LongitudeDegrees>-1.76730073057115077972412109375</LongitudeDegrees>
            </Position>
            <AltitudeMeters>812.4000244140625</AltitudeMeters>
            <DistanceMeters>55065.289324026</DistanceMeters>
          </Trackpoint>
          <Trackpoint>
            <Time>2018-08-26T07:53:42.000Z</Time>
            <Position>
              <LatitudeDegrees>43.06017053313553333282470703125</LatitudeDegrees>
              <LongitudeDegrees>-1.7673465795814990997314453125</LongitudeDegrees>
            </Position>
            <AltitudeMeters>812.5999755859375</AltitudeMeters>
            <DistanceMeters>55069.080878021</DistanceMeters>
          </Trackpoint>
          <Trackpoint>
            <Time>2018-08-26T07:53:43.000Z</Time>
            <Position>
              <LatitudeDegrees>43.0601706169545650482177734375</LatitudeDegrees>
              <LongitudeDegrees>-1.76738639362156391143798828125</LongitudeDegrees>
            </Position>
            <AltitudeMeters>812.79998779296875</AltitudeMeters>
            <DistanceMeters>55072.320160168</DistanceMeters>
          </Trackpoint>
          <Trackpoint>
            <Time>2018-08-26T07:53:44.000Z</Time>
            <Position>
              <LatitudeDegrees>43.0601743049919605255126953125</LatitudeDegrees>
              <LongitudeDegrees>-1.76742595620453357696533203125</LongitudeDegrees>
            </Position>
            <AltitudeMeters>813.20001220703125</AltitudeMeters>
            <DistanceMeters>55075.563621137</DistanceMeters>
          </Trackpoint>
          <Trackpoint>
            <Time>2018-08-26T07:53:45.000Z</Time>
            <Position>
              <LatitudeDegrees>43.06017941795289516448974609375</LatitudeDegrees>
              <LongitudeDegrees>-1.7674656026065349578857421875</LongitudeDegrees>
            </Position>
            <AltitudeMeters>813.4000244140625</AltitudeMeters>
            <DistanceMeters>55078.837563827</DistanceMeters>
          </Trackpoint>
          <Trackpoint>
            <Time>2018-08-26T07:53:46.000Z</Time>
            <Position>
              <LatitudeDegrees>43.06018595583736896514892578125</LatitudeDegrees>
              <LongitudeDegrees>-1.76750105805695056915283203125</LongitudeDegrees>
            </Position>
            <AltitudeMeters>813.79998779296875</AltitudeMeters>
            <DistanceMeters>55081.81237053</DistanceMeters>
          </Trackpoint>
          <Trackpoint>
            <Time>2018-08-26T07:53:47.000Z</Time>
            <Position>
              <LatitudeDegrees>43.0601942539215087890625</LatitudeDegrees>
              <LongitudeDegrees>-1.76753290928900241851806640625</LongitudeDegrees>
            </Position>
            <AltitudeMeters>814.20001220703125</AltitudeMeters>
            <DistanceMeters>55084.56322568</DistanceMeters>
          </Trackpoint>
          <Trackpoint>
            <Time>2018-08-26T07:53:48.000Z</Time>
            <Position>
              <LatitudeDegrees>43.060203306376934051513671875</LatitudeDegrees>
              <LongitudeDegrees>-1.76756341941654682159423828125</LongitudeDegrees>
            </Position>
            <AltitudeMeters>814.5999755859375</AltitudeMeters>
            <DistanceMeters>55087.242574626</DistanceMeters>
          </Trackpoint>
          <Trackpoint>
            <Time>2018-08-26T07:53:49.000Z</Time>
            <Position>
              <LatitudeDegrees>43.06021210737526416778564453125</LatitudeDegrees>
              <LongitudeDegrees>-1.7675923369824886322021484375</LongitudeDegrees>
            </Position>
            <AltitudeMeters>814.79998779296875</AltitudeMeters>
            <DistanceMeters>55089.788865043</DistanceMeters>
          </Trackpoint>
          <Trackpoint>
            <Time>2018-08-26T07:53:50.000Z</Time>
            <Position>
              <LatitudeDegrees>43.06021981872618198394775390625</LatitudeDegrees>
              <LongitudeDegrees>-1.767618991434574127197265625</LongitudeDegrees>
            </Position>
            <AltitudeMeters>815.4000244140625</AltitudeMeters>
            <DistanceMeters>55092.120410886</DistanceMeters>
          </Trackpoint>
          <Trackpoint>
            <Time>2018-08-26T07:53:51.000Z</Time>
            <Position>
              <LatitudeDegrees>43.0602259375154972076416015625</LatitudeDegrees>
              <LongitudeDegrees>-1.767647825181484222412109375</LongitudeDegrees>
            </Position>
            <AltitudeMeters>815.5999755859375</AltitudeMeters>
            <DistanceMeters>55094.563540135</DistanceMeters>
          </Trackpoint>
          <Trackpoint>
            <Time>2018-08-26T07:53:52.000Z</Time>
            <Position>
              <LatitudeDegrees>43.0602309666574001312255859375</LatitudeDegrees>
              <LongitudeDegrees>-1.76767691038548946380615234375</LongitudeDegrees>
            </Position>
            <AltitudeMeters>815.79998779296875</AltitudeMeters>
            <DistanceMeters>55096.993698565</DistanceMeters>
          </Trackpoint>
          <Trackpoint>
            <Time>2018-08-26T07:53:53.000Z</Time>
            <Position>
              <LatitudeDegrees>43.06024043820798397064208984375</LatitudeDegrees>
              <LongitudeDegrees>-1.7677093483507633209228515625</LongitudeDegrees>
            </Position>
            <AltitudeMeters>816.4000244140625</AltitudeMeters>
            <DistanceMeters>55099.833391905</DistanceMeters>
          </Trackpoint>
          <Trackpoint>
            <Time>2018-08-26T07:53:54.000Z</Time>
            <Position>
              <LatitudeDegrees>43.06025384925305843353271484375</LatitudeDegrees>
              <LongitudeDegrees>-1.76773709245026111602783203125</LongitudeDegrees>
            </Position>
            <AltitudeMeters>816.5999755859375</AltitudeMeters>
            <DistanceMeters>55102.537899609</DistanceMeters>
          </Trackpoint>
          <Trackpoint>
            <Time>2018-08-26T07:53:55.000Z</Time>
            <Position>
              <LatitudeDegrees>43.06026575155556201934814453125</LatitudeDegrees>
              <LongitudeDegrees>-1.7677703686058521270751953125</LongitudeDegrees>
            </Position>
            <AltitudeMeters>816.79998779296875</AltitudeMeters>
            <DistanceMeters>55105.551909712</DistanceMeters>
          </Trackpoint>
          <Trackpoint>
            <Time>2018-08-26T07:53:56.000Z</Time>
            <Position>
              <LatitudeDegrees>43.060278408229351043701171875</LatitudeDegrees>
              <LongitudeDegrees>-1.767802722752094268798828125</LongitudeDegrees>
            </Position>
            <AltitudeMeters>817</AltitudeMeters>
            <DistanceMeters>55108.538833803</DistanceMeters>
          </Trackpoint>
          <Trackpoint>
            <Time>2018-08-26T07:53:57.000Z</Time>
            <Position>
              <LatitudeDegrees>43.06029089726507663726806640625</LatitudeDegrees>
              <LongitudeDegrees>-1.76782811991870403289794921875</LongitudeDegrees>
            </Position>
            <AltitudeMeters>817</AltitudeMeters>
            <DistanceMeters>55111.031361154</DistanceMeters>
          </Trackpoint>
          <Trackpoint>
            <Time>2018-08-26T07:53:58.000Z</Time>
            <Position>
              <LatitudeDegrees>43.0603055655956268310546875</LatitudeDegrees>
              <LongitudeDegrees>-1.767847649753093719482421875</LongitudeDegrees>
            </Position>
            <AltitudeMeters>817.20001220703125</AltitudeMeters>
            <DistanceMeters>55113.310021716</DistanceMeters>
          </Trackpoint>
          <Trackpoint>
            <Time>2018-08-26T07:53:59.000Z</Time>
            <Position>
              <LatitudeDegrees>43.060318641364574432373046875</LatitudeDegrees>
              <LongitudeDegrees>-1.7678665928542613983154296875</LongitudeDegrees>
            </Position>
            <AltitudeMeters>817.20001220703125</AltitudeMeters>
            <DistanceMeters>55115.428499469</DistanceMeters>
          </Trackpoint>
          <Trackpoint>
            <Time>2018-08-26T07:54:00.000Z</Time>
            <Position>
              <LatitudeDegrees>43.06032593362033367156982421875</LatitudeDegrees>
              <LongitudeDegrees>-1.76788796670734882354736328125</LongitudeDegrees>
            </Position>
            <AltitudeMeters>817.20001220703125</AltitudeMeters>
            <DistanceMeters>55117.347945011</DistanceMeters>
          </Trackpoint>
          <Trackpoint>
            <Time>2018-08-26T07:54:01.000Z</Time>
            <Position>
              <LatitudeDegrees>43.06032341904938220977783203125</LatitudeDegrees>
              <LongitudeDegrees>-1.76791797392070293426513671875</LongitudeDegrees>
            </Position>
            <AltitudeMeters>817.20001220703125</AltitudeMeters>
            <DistanceMeters>55119.80397658</DistanceMeters>
          </Trackpoint>
          <Trackpoint>
            <Time>2018-08-26T07:54:02.000Z</Time>
            <Position>
              <LatitudeDegrees>43.06031285785138607025146484375</LatitudeDegrees>
              <LongitudeDegrees>-1.76794119179248809814453125</LongitudeDegrees>
            </Position>
            <AltitudeMeters>817.20001220703125</AltitudeMeters>
            <DistanceMeters>55122.026464333</DistanceMeters>
          </Trackpoint>
          <Trackpoint>
            <Time>2018-08-26T07:54:03.000Z</Time>
            <Position>
              <LatitudeDegrees>43.0603082478046417236328125</LatitudeDegrees>
              <LongitudeDegrees>-1.76794915460050106048583984375</LongitudeDegrees>
            </Position>
            <AltitudeMeters>817.20001220703125</AltitudeMeters>
            <DistanceMeters>55122.84941982</DistanceMeters>
          </Trackpoint>
          <Trackpoint>
            <Time>2018-08-26T07:54:04.000Z</Time>
            <Position>
              <LatitudeDegrees>43.060303889214992523193359375</LatitudeDegrees>
              <LongitudeDegrees>-1.76795267499983310699462890625</LongitudeDegrees>
            </Position>
            <AltitudeMeters>817.20001220703125</AltitudeMeters>
            <DistanceMeters>55123.40351602</DistanceMeters>
          </Trackpoint>
          <Trackpoint>
            <Time>2018-08-26T07:54:05.000Z</Time>
            <Position>
              <LatitudeDegrees>43.060303889214992523193359375</LatitudeDegrees>
              <LongitudeDegrees>-1.76795619539916515350341796875</LongitudeDegrees>
            </Position>
            <AltitudeMeters>817.20001220703125</AltitudeMeters>
            <DistanceMeters>55123.672292157</DistanceMeters>
          </Trackpoint>
          <Trackpoint>
            <Time>2018-08-26T07:54:06.000Z</Time>
            <Position>
              <LatitudeDegrees>43.06030330248177051544189453125</LatitudeDegrees>
              <LongitudeDegrees>-1.76795552484691143035888671875</LongitudeDegrees>
            </Position>
            <AltitudeMeters>817.20001220703125</AltitudeMeters>
            <DistanceMeters>55123.672292157</DistanceMeters>
          </Trackpoint>
          <Trackpoint>
            <Time>2018-08-26T07:54:07.000Z</Time>
            <Position>
              <LatitudeDegrees>43.060302548110485076904296875</LatitudeDegrees>
              <LongitudeDegrees>-1.7679552733898162841796875</LongitudeDegrees>
            </Position>
            <AltitudeMeters>817.20001220703125</AltitudeMeters>
            <DistanceMeters>55123.767318871</DistanceMeters>
          </Trackpoint>
          <Trackpoint>
            <Time>2018-08-26T07:54:08.000Z</Time>
            <Position>
              <LatitudeDegrees>43.060300536453723907470703125</LatitudeDegrees>
              <LongitudeDegrees>-1.7679510824382305145263671875</LongitudeDegrees>
            </Position>
            <AltitudeMeters>817.20001220703125</AltitudeMeters>
            <DistanceMeters>55124.192291257</DistanceMeters>
          </Trackpoint>
          <Trackpoint>
            <Time>2018-08-26T07:54:28.000Z</Time>
            <Position>
              <LatitudeDegrees>43.06027513928711414337158203125</LatitudeDegrees>
              <LongitudeDegrees>-1.76789886318147182464599609375</LongitudeDegrees>
            </Position>
            <AltitudeMeters>817.4000244140625</AltitudeMeters>
            <DistanceMeters>55129.2937303</DistanceMeters>
          </Trackpoint>
          <Trackpoint>
            <Time>2018-08-26T07:54:29.000Z</Time>
            <Position>
              <LatitudeDegrees>43.06026910431683063507080078125</LatitudeDegrees>
              <LongitudeDegrees>-1.76787053234875202178955078125</LongitudeDegrees>
            </Position>
            <AltitudeMeters>817.4000244140625</AltitudeMeters>
            <DistanceMeters>55131.693977948</DistanceMeters>
          </Trackpoint>
          <Trackpoint>
            <Time>2018-08-26T07:54:30.000Z</Time>
            <Position>
              <LatitudeDegrees>43.06026223115622997283935546875</LatitudeDegrees>
              <LongitudeDegrees>-1.76783298142254352569580078125</LongitudeDegrees>
            </Position>
            <AltitudeMeters>817.4000244140625</AltitudeMeters>
            <DistanceMeters>55134.839921969</DistanceMeters>
          </Trackpoint>
          <Trackpoint>
            <Time>2018-08-26T07:54:31.000Z</Time>
            <Position>
              <LatitudeDegrees>43.0602507479488849639892578125</LatitudeDegrees>
              <LongitudeDegrees>-1.76779207773506641387939453125</LongitudeDegrees>
            </Position>
            <AltitudeMeters>817.4000244140625</AltitudeMeters>
            <DistanceMeters>55138.403106988</DistanceMeters>
          </Trackpoint>
          <Trackpoint>
            <Time>2018-08-26T07:54:32.000Z</Time>
            <Position>
              <LatitudeDegrees>43.06023390032351016998291015625</LatitudeDegrees>
              <LongitudeDegrees>-1.767749749124050140380859375</LongitudeDegrees>
            </Position>
            <AltitudeMeters>817.4000244140625</AltitudeMeters>
            <DistanceMeters>55142.323462853</DistanceMeters>
          </Trackpoint>
          <Trackpoint>
            <Time>2018-08-26T07:54:33.000Z</Time>
            <Position>
              <LatitudeDegrees>43.06021646596491336822509765625</LatitudeDegrees>
              <LongitudeDegrees>-1.76771228201687335968017578125</LongitudeDegrees>
            </Position>
            <AltitudeMeters>817.4000244140625</AltitudeMeters>
            <DistanceMeters>55145.934477999</DistanceMeters>
          </Trackpoint>
          <Trackpoint>
            <Time>2018-08-26T07:54:34.000Z</Time>
            <Position>
              <LatitudeDegrees>43.060201965272426605224609375</LatitudeDegrees>
              <LongitudeDegrees>-1.76765394397079944610595703125</LongitudeDegrees>
            </Position>
            <AltitudeMeters>817.4000244140625</AltitudeMeters>
            <DistanceMeters>55150.945729598</DistanceMeters>
          </Trackpoint>
          <Trackpoint>
            <Time>2018-08-26T07:54:35.000Z</Time>
            <Position>
              <LatitudeDegrees>43.0601960979402065277099609375</LatitudeDegrees>
              <LongitudeDegrees>-1.7675869725644588470458984375</LongitudeDegrees>
            </Position>
            <AltitudeMeters>817.4000244140625</AltitudeMeters>
            <DistanceMeters>55156.431002127</DistanceMeters>
          </Trackpoint>
          <Trackpoint>
            <Time>2018-08-26T07:54:36.000Z</Time>
            <Position>
              <LatitudeDegrees>43.06020054034888744354248046875</LatitudeDegrees>
              <LongitudeDegrees>-1.76752301864326000213623046875</LongitudeDegrees>
            </Position>
            <AltitudeMeters>817.20001220703125</AltitudeMeters>
            <DistanceMeters>55161.654879137</DistanceMeters>
          </Trackpoint>
          <Trackpoint>
            <Time>2018-08-26T07:54:37.000Z</Time>
            <Position>
              <LatitudeDegrees>43.06020238436758518218994140625</LatitudeDegrees>
              <LongitudeDegrees>-1.7674739845097064971923828125</LongitudeDegrees>
            </Position>
            <AltitudeMeters>817.20001220703125</AltitudeMeters>
            <DistanceMeters>55165.64713225</DistanceMeters>
          </Trackpoint>
          <Trackpoint>
            <Time>2018-08-26T07:54:38.000Z</Time>
            <Position>
              <LatitudeDegrees>43.06019953452050685882568359375</LatitudeDegrees>
              <LongitudeDegrees>-1.76744230091571807861328125</LongitudeDegrees>
            </Position>
            <AltitudeMeters>817.20001220703125</AltitudeMeters>
            <DistanceMeters>55168.242596954</DistanceMeters>
          </Trackpoint>
          <Trackpoint>
            <Time>2018-08-26T07:54:39.000Z</Time>
            <Position>
              <LatitudeDegrees>43.06019785813987255096435546875</LatitudeDegrees>
              <LongitudeDegrees>-1.7674196697771549224853515625</LongitudeDegrees>
            </Position>
            <AltitudeMeters>817.4000244140625</AltitudeMeters>
            <DistanceMeters>55170.09012744</DistanceMeters>
          </Trackpoint>
          <Trackpoint>
            <Time>2018-08-26T07:54:40.000Z</Time>
            <Position>
              <LatitudeDegrees>43.06019936688244342803955078125</LatitudeDegrees>
              <LongitudeDegrees>-1.7674019001424312591552734375</LongitudeDegrees>
            </Position>
            <AltitudeMeters>817</AltitudeMeters>
            <DistanceMeters>55171.543756652</DistanceMeters>
          </Trackpoint>
          <Trackpoint>
            <Time>2018-08-26T07:54:41.000Z</Time>
            <Position>
              <LatitudeDegrees>43.0601987801492214202880859375</LatitudeDegrees>
              <LongitudeDegrees>-1.7673951946198940277099609375</LongitudeDegrees>
            </Position>
            <AltitudeMeters>817</AltitudeMeters>
            <DistanceMeters>55172.089643566</DistanceMeters>
          </Trackpoint>
          <Trackpoint>
            <Time>2018-08-26T07:55:44.000Z</Time>
            <Position>
              <LatitudeDegrees>43.06020791642367839813232421875</LatitudeDegrees>
              <LongitudeDegrees>-1.76734046079218387603759765625</LongitudeDegrees>
            </Position>
            <AltitudeMeters>815.20001220703125</AltitudeMeters>
            <DistanceMeters>55176.654883585</DistanceMeters>
          </Trackpoint>
          <Trackpoint>
            <Time>2018-08-26T07:55:45.000Z</Time>
            <Position>
              <LatitudeDegrees>43.0602158792316913604736328125</LatitudeDegrees>
              <LongitudeDegrees>-1.76733023487031459808349609375</LongitudeDegrees>
            </Position>
            <AltitudeMeters>815.20001220703125</AltitudeMeters>
            <DistanceMeters>55177.871819301</DistanceMeters>
          </Trackpoint>
          <Trackpoint>
            <Time>2018-08-26T07:55:46.000Z</Time>
            <Position>
              <LatitudeDegrees>43.06023121811449527740478515625</LatitudeDegrees>
              <LongitudeDegrees>-1.7673177458345890045166015625</LongitudeDegrees>
            </Position>
            <AltitudeMeters>815.20001220703125</AltitudeMeters>
            <DistanceMeters>55179.85603535</DistanceMeters>
          </Trackpoint>
          <Trackpoint>
            <Time>2018-08-26T07:55:47.000Z</Time>
            <Position>
              <LatitudeDegrees>43.0602473951876163482666015625</LatitudeDegrees>
              <LongitudeDegrees>-1.7672954499721527099609375</LongitudeDegrees>
            </Position>
            <AltitudeMeters>815.20001220703125</AltitudeMeters>
            <DistanceMeters>55182.411176299</DistanceMeters>
          </Trackpoint>
          <Trackpoint>
            <Time>2018-08-26T07:55:48.000Z</Time>
            <Position>
              <LatitudeDegrees>43.06026575155556201934814453125</LatitudeDegrees>
              <LongitudeDegrees>-1.76725965924561023712158203125</LongitudeDegrees>
            </Position>
            <AltitudeMeters>815.20001220703125</AltitudeMeters>
            <DistanceMeters>55185.966750377</DistanceMeters>
          </Trackpoint>
          <Trackpoint>
            <Time>2018-08-26T07:55:49.000Z</Time>
            <Position>
              <LatitudeDegrees>43.06028653867542743682861328125</LatitudeDegrees>
              <LongitudeDegrees>-1.7672148160636425018310546875</LongitudeDegrees>
            </Position>
            <AltitudeMeters>815.20001220703125</AltitudeMeters>
            <DistanceMeters>55190.28602554</DistanceMeters>
          </Trackpoint>
          <Trackpoint>
            <Time>2018-08-26T07:55:50.000Z</Time>
            <Position>
              <LatitudeDegrees>43.060309924185276031494140625</LatitudeDegrees>
              <LongitudeDegrees>-1.7671638540923595428466796875</LongitudeDegrees>
            </Position>
            <AltitudeMeters>815.20001220703125</AltitudeMeters>
            <DistanceMeters>55195.179670677</DistanceMeters>
          </Trackpoint>
          <Trackpoint>
            <Time>2018-08-26T07:55:51.000Z</Time>
            <Position>
              <LatitudeDegrees>43.0603297054767608642578125</LatitudeDegrees>
              <LongitudeDegrees>-1.76710434257984161376953125</LongitudeDegrees>
            </Position>
            <AltitudeMeters>815</AltitudeMeters>
            <DistanceMeters>55200.497771788</DistanceMeters>
          </Trackpoint>
          <Trackpoint>
            <Time>2018-08-26T07:55:52.000Z</Time>
            <Position>
              <LatitudeDegrees>43.06034588254988193511962890625</LatitudeDegrees>
              <LongitudeDegrees>-1.7670344375073909759521484375</LongitudeDegrees>
            </Position>
            <AltitudeMeters>815</AltitudeMeters>
            <DistanceMeters>55206.461029374</DistanceMeters>
          </Trackpoint>
          <Trackpoint>
            <Time>2018-08-26T07:55:53.000Z</Time>
            <Position>
              <LatitudeDegrees>43.06035518646240234375</LatitudeDegrees>
              <LongitudeDegrees>-1.766953803598880767822265625</LongitudeDegrees>
            </Position>
            <AltitudeMeters>814.79998779296875</AltitudeMeters>
            <DistanceMeters>55213.099310254</DistanceMeters>
          </Trackpoint>
          <Trackpoint>
            <Time>2018-08-26T07:55:54.000Z</Time>
            <Position>
              <LatitudeDegrees>43.0603613890707492828369140625</LatitudeDegrees>
              <LongitudeDegrees>-1.76686688326299190521240234375</LongitudeDegrees>
            </Position>
            <AltitudeMeters>814.79998779296875</AltitudeMeters>
            <DistanceMeters>55220.201563912</DistanceMeters>
          </Trackpoint>
          <Trackpoint>
            <Time>2018-08-26T07:55:55.000Z</Time>
            <Position>
              <LatitudeDegrees>43.06036951951682567596435546875</LatitudeDegrees>
              <LongitudeDegrees>-1.76677501760423183441162109375</LongitudeDegrees>
            </Position>
            <AltitudeMeters>814.5999755859375</AltitudeMeters>
            <DistanceMeters>55227.727295734</DistanceMeters>
          </Trackpoint>
          <Trackpoint>
            <Time>2018-08-26T07:55:56.000Z</Time>
            <Position>
              <LatitudeDegrees>43.0603781528770923614501953125</LatitudeDegrees>
              <LongitudeDegrees>-1.76667778752744197845458984375</LongitudeDegrees>
            </Position>
            <AltitudeMeters>814.4000244140625</AltitudeMeters>
            <DistanceMeters>55235.692552609</DistanceMeters>
          </Trackpoint>
          <Trackpoint>
            <Time>2018-08-26T07:55:57.000Z</Time>
            <Position>
              <LatitudeDegrees>43.06038645096123218536376953125</LatitudeDegrees>
              <LongitudeDegrees>-1.76658223383128643035888671875</LongitudeDegrees>
            </Position>
            <AltitudeMeters>814.20001220703125</AltitudeMeters>
            <DistanceMeters>55243.518278035</DistanceMeters>
          </Trackpoint>
          <Trackpoint>
            <Time>2018-08-26T07:55:58.000Z</Time>
            <Position>
              <LatitudeDegrees>43.06039533577859401702880859375</LatitudeDegrees>
              <LongitudeDegrees>-1.76647670567035675048828125</LongitudeDegrees>
            </Position>
            <AltitudeMeters>813.79998779296875</AltitudeMeters>
            <DistanceMeters>55252.156828361</DistanceMeters>
          </Trackpoint>
          <Trackpoint>
            <Time>2018-08-26T07:55:59.000Z</Time>
            <Position>
              <LatitudeDegrees>43.06040505878627300262451171875</LatitudeDegrees>
              <LongitudeDegrees>-1.7663632147014141082763671875</LongitudeDegrees>
            </Position>
            <AltitudeMeters>813.4000244140625</AltitudeMeters>
            <DistanceMeters>55261.449061191</DistanceMeters>
          </Trackpoint>
          <Trackpoint>
            <Time>2018-08-26T07:56:00.000Z</Time>
            <Position>
              <LatitudeDegrees>43.0604160390794277191162109375</LatitudeDegrees>
              <LongitudeDegrees>-1.76624544896185398101806640625</LongitudeDegrees>
            </Position>
            <AltitudeMeters>812.79998779296875</AltitudeMeters>
            <DistanceMeters>55271.103513482</DistanceMeters>
          </Trackpoint>
          <Trackpoint>
            <Time>2018-08-26T07:56:01.000Z</Time>
            <Position>
              <LatitudeDegrees>43.06042467243969440460205078125</LatitudeDegrees>
              <LongitudeDegrees>-1.76612240262329578399658203125</LongitudeDegrees>
            </Position>
            <AltitudeMeters>811.4000244140625</AltitudeMeters>
            <DistanceMeters>55281.155705055</DistanceMeters>
          </Trackpoint>
          <Trackpoint>
            <Time>2018-08-26T07:56:02.000Z</Time>
            <Position>
              <LatitudeDegrees>43.060427606105804443359375</LatitudeDegrees>
              <LongitudeDegrees>-1.76599935628473758697509765625</LongitudeDegrees>
            </Position>
            <AltitudeMeters>810.79998779296875</AltitudeMeters>
            <DistanceMeters>55291.166939666</DistanceMeters>
          </Trackpoint>
          <Trackpoint>
            <Time>2018-08-26T07:56:03.000Z</Time>
            <Position>
              <LatitudeDegrees>43.06042433716356754302978515625</LatitudeDegrees>
              <LongitudeDegrees>-1.7658698558807373046875</LongitudeDegrees>
            </Position>
            <AltitudeMeters>810.20001220703125</AltitudeMeters>
            <DistanceMeters>55301.704198321</DistanceMeters>
          </Trackpoint>
          <Trackpoint>
            <Time>2018-08-26T07:56:04.000Z</Time>
            <Position>
              <LatitudeDegrees>43.0604113452136516571044921875</LatitudeDegrees>
              <LongitudeDegrees>-1.7657344043254852294921875</LongitudeDegrees>
            </Position>
            <AltitudeMeters>809.79998779296875</AltitudeMeters>
            <DistanceMeters>55312.813792591</DistanceMeters>
          </Trackpoint>
          <Trackpoint>
            <Time>2018-08-26T07:56:05.000Z</Time>
            <Position>
              <LatitudeDegrees>43.06039609014987945556640625</LatitudeDegrees>
              <LongitudeDegrees>-1.76560230553150177001953125</LongitudeDegrees>
            </Position>
            <AltitudeMeters>809.20001220703125</AltitudeMeters>
            <DistanceMeters>55323.689266891</DistanceMeters>
          </Trackpoint>
          <Trackpoint>
            <Time>2018-08-26T07:56:06.000Z</Time>
            <Position>
              <LatitudeDegrees>43.06038427166640758514404296875</LatitudeDegrees>
              <LongitudeDegrees>-1.7654730565845966339111328125</LongitudeDegrees>
            </Position>
            <AltitudeMeters>808.5999755859375</AltitudeMeters>
            <DistanceMeters>55334.282081904</DistanceMeters>
          </Trackpoint>
          <Trackpoint>
            <Time>2018-08-26T07:56:07.000Z</Time>
            <Position>
              <LatitudeDegrees>43.06037873961031436920166015625</LatitudeDegrees>
              <LongitudeDegrees>-1.7653433047235012054443359375</LongitudeDegrees>
            </Position>
            <AltitudeMeters>808</AltitudeMeters>
            <DistanceMeters>55344.851000752</DistanceMeters>
          </Trackpoint>
          <Trackpoint>
            <Time>2018-08-26T07:56:08.000Z</Time>
            <Position>
              <LatitudeDegrees>43.06038443930447101593017578125</LatitudeDegrees>
              <LongitudeDegrees>-1.765208356082439422607421875</LongitudeDegrees>
            </Position>
            <AltitudeMeters>807.20001220703125</AltitudeMeters>
            <DistanceMeters>55355.843747587</DistanceMeters>
          </Trackpoint>
          <Trackpoint>
            <Time>2018-08-26T07:56:09.000Z</Time>
            <Position>
              <LatitudeDegrees>43.060401789844036102294921875</LatitudeDegrees>
              <LongitudeDegrees>-1.76507793366909027099609375</LongitudeDegrees>
            </Position>
            <AltitudeMeters>806.79998779296875</AltitudeMeters>
            <DistanceMeters>55366.624150354</DistanceMeters>
          </Trackpoint>
          <Trackpoint>
            <Time>2018-08-26T07:56:10.000Z</Time>
            <Position>
              <LatitudeDegrees>43.0604368261992931365966796875</LatitudeDegrees>
              <LongitudeDegrees>-1.76495681516826152801513671875</LongitudeDegrees>
            </Position>
            <AltitudeMeters>806.20001220703125</AltitudeMeters>
            <DistanceMeters>55377.217817805</DistanceMeters>
          </Trackpoint>
          <Trackpoint>
            <Time>2018-08-26T07:56:11.000Z</Time>
            <Position>
              <LatitudeDegrees>43.060490973293781280517578125</LatitudeDegrees>
              <LongitudeDegrees>-1.7648491077125072479248046875</LongitudeDegrees>
            </Position>
            <AltitudeMeters>805.5999755859375</AltitudeMeters>
            <DistanceMeters>55387.849774206</DistanceMeters>
          </Trackpoint>
          <Trackpoint>
            <Time>2018-08-26T07:56:12.000Z</Time>
            <Position>
              <LatitudeDegrees>43.0605588667094707489013671875</LatitudeDegrees>
              <LongitudeDegrees>-1.76474994979798793792724609375</LongitudeDegrees>
            </Position>
            <AltitudeMeters>804.79998779296875</AltitudeMeters>
            <DistanceMeters>55398.900690631</DistanceMeters>
          </Trackpoint>
          <Trackpoint>
            <Time>2018-08-26T07:56:13.000Z</Time>
            <Position>
              <LatitudeDegrees>43.0606336332857608795166015625</LatitudeDegrees>
              <LongitudeDegrees>-1.7646539770066738128662109375</LongitudeDegrees>
            </Position>
            <AltitudeMeters>804.20001220703125</AltitudeMeters>
            <DistanceMeters>55410.309438234</DistanceMeters>
          </Trackpoint>
          <Trackpoint>
            <Time>2018-08-26T07:56:14.000Z</Time>
            <Position>
              <LatitudeDegrees>43.0607137642800807952880859375</LatitudeDegrees>
              <LongitudeDegrees>-1.764562614262104034423828125</LongitudeDegrees>
            </Position>
            <AltitudeMeters>803.79998779296875</AltitudeMeters>
            <DistanceMeters>55421.917487195</DistanceMeters>
          </Trackpoint>
          <Trackpoint>
            <Time>2018-08-26T07:56:15.000Z</Time>
            <Position>
              <LatitudeDegrees>43.06079666130244731903076171875</LatitudeDegrees>
              <LongitudeDegrees>-1.76447083242237567901611328125</LongitudeDegrees>
            </Position>
            <AltitudeMeters>803.4000244140625</AltitudeMeters>
            <DistanceMeters>55433.785178727</DistanceMeters>
          </Trackpoint>
          <Trackpoint>
            <Time>2018-08-26T07:56:16.000Z</Time>
            <Position>
              <LatitudeDegrees>43.06087343953549861907958984375</LatitudeDegrees>
              <LongitudeDegrees>-1.764366142451763153076171875</LongitudeDegrees>
            </Position>
            <AltitudeMeters>803</AltitudeMeters>
            <DistanceMeters>55445.847958333</DistanceMeters>
          </Trackpoint>
          <Trackpoint>
            <Time>2018-08-26T07:56:17.000Z</Time>
            <Position>
              <LatitudeDegrees>43.06093898601830005645751953125</LatitudeDegrees>
              <LongitudeDegrees>-1.76424485631287097930908203125</LongitudeDegrees>
            </Position>
            <AltitudeMeters>802.4000244140625</AltitudeMeters>
            <DistanceMeters>55458.115609046</DistanceMeters>
          </Trackpoint>
          <Trackpoint>
            <Time>2018-08-26T07:56:18.000Z</Time>
            <Position>
              <LatitudeDegrees>43.06099363602697849273681640625</LatitudeDegrees>
              <LongitudeDegrees>-1.7641103267669677734375</LongitudeDegrees>
            </Position>
            <AltitudeMeters>802</AltitudeMeters>
            <DistanceMeters>55470.632470725</DistanceMeters>
          </Trackpoint>
          <Trackpoint>
            <Time>2018-08-26T07:56:19.000Z</Time>
            <Position>
              <LatitudeDegrees>43.06103445589542388916015625</LatitudeDegrees>
              <LongitudeDegrees>-1.76396481692790985107421875</LongitudeDegrees>
            </Position>
            <AltitudeMeters>801.4000244140625</AltitudeMeters>
            <DistanceMeters>55483.307766386</DistanceMeters>
          </Trackpoint>
          <Trackpoint>
            <Time>2018-08-26T07:56:20.000Z</Time>
            <Position>
              <LatitudeDegrees>43.06106421165168285369873046875</LatitudeDegrees>
              <LongitudeDegrees>-1.76380966790020465850830078125</LongitudeDegrees>
            </Position>
            <AltitudeMeters>800.20001220703125</AltitudeMeters>
            <DistanceMeters>55496.352065158</DistanceMeters>
          </Trackpoint>
          <Trackpoint>
            <Time>2018-08-26T07:56:21.000Z</Time>
            <Position>
              <LatitudeDegrees>43.0610872618854045867919921875</LatitudeDegrees>
              <LongitudeDegrees>-1.763655357062816619873046875</LongitudeDegrees>
            </Position>
            <AltitudeMeters>799</AltitudeMeters>
            <DistanceMeters>55509.160242185</DistanceMeters>
          </Trackpoint>
          <Trackpoint>
            <Time>2018-08-26T07:56:22.000Z</Time>
            <Position>
              <LatitudeDegrees>43.06110897101461887359619140625</LatitudeDegrees>
              <LongitudeDegrees>-1.7635002918541431427001953125</LongitudeDegrees>
            </Position>
            <AltitudeMeters>798</AltitudeMeters>
            <DistanceMeters>55521.999402807</DistanceMeters>
          </Trackpoint>
          <Trackpoint>
            <Time>2018-08-26T07:56:23.000Z</Time>
            <Position>
              <LatitudeDegrees>43.06113059632480144500732421875</LatitudeDegrees>
              <LongitudeDegrees>-1.76335033960640430450439453125</LongitudeDegrees>
            </Position>
            <AltitudeMeters>797.20001220703125</AltitudeMeters>
            <DistanceMeters>55534.428664563</DistanceMeters>
          </Trackpoint>
          <Trackpoint>
            <Time>2018-08-26T07:56:24.000Z</Time>
            <Position>
              <LatitudeDegrees>43.06115741841495037078857421875</LatitudeDegrees>
              <LongitudeDegrees>-1.76321388222277164459228515625</LongitudeDegrees>
            </Position>
            <AltitudeMeters>796.5999755859375</AltitudeMeters>
            <DistanceMeters>55545.919826725</DistanceMeters>
          </Trackpoint>
          <Trackpoint>
            <Time>2018-08-26T07:56:25.000Z</Time>
            <Position>
              <LatitudeDegrees>43.06119027547538280487060546875</LatitudeDegrees>
              <LongitudeDegrees>-1.76309100352227687835693359375</LongitudeDegrees>
            </Position>
            <AltitudeMeters>796.20001220703125</AltitudeMeters>
            <DistanceMeters>55556.561121694</DistanceMeters>
          </Trackpoint>
          <Trackpoint>
            <Time>2018-08-26T07:56:26.000Z</Time>
            <Position>
              <LatitudeDegrees>43.06122430600225925445556640625</LatitudeDegrees>
              <LongitudeDegrees>-1.762982793152332305908203125</LongitudeDegrees>
            </Position>
            <AltitudeMeters>795.5999755859375</AltitudeMeters>
            <DistanceMeters>55566.14139815</DistanceMeters>
          </Trackpoint>
          <Trackpoint>
            <Time>2018-08-26T07:56:27.000Z</Time>
            <Position>
              <LatitudeDegrees>43.0612502060830593109130859375</LatitudeDegrees>
              <LongitudeDegrees>-1.76288631744682788848876953125</LongitudeDegrees>
            </Position>
            <AltitudeMeters>795.20001220703125</AltitudeMeters>
            <DistanceMeters>55574.499968689</DistanceMeters>
          </Trackpoint>
          <Trackpoint>
            <Time>2018-08-26T07:56:28.000Z</Time>
            <Position>
              <LatitudeDegrees>43.0612485297024250030517578125</LatitudeDegrees>
              <LongitudeDegrees>-1.76279763691127300262451171875</LongitudeDegrees>
            </Position>
            <AltitudeMeters>794.20001220703125</AltitudeMeters>
            <DistanceMeters>55581.714492971</DistanceMeters>
          </Trackpoint>
          <Trackpoint>
            <Time>2018-08-26T07:56:29.000Z</Time>
            <Position>
              <LatitudeDegrees>43.06121106259524822235107421875</LatitudeDegrees>
              <LongitudeDegrees>-1.76272789947688579559326171875</LongitudeDegrees>
            </Position>
            <AltitudeMeters>793</AltitudeMeters>
            <DistanceMeters>55588.754170487</DistanceMeters>
          </Trackpoint>
          <Trackpoint>
            <Time>2018-08-26T07:56:30.000Z</Time>
            <Position>
              <LatitudeDegrees>43.0611482821404933929443359375</LatitudeDegrees>
              <LongitudeDegrees>-1.762690432369709014892578125</LongitudeDegrees>
            </Position>
            <AltitudeMeters>791.20001220703125</AltitudeMeters>
            <DistanceMeters>55596.377658664</DistanceMeters>
          </Trackpoint>
          <Trackpoint>
            <Time>2018-08-26T07:56:31.000Z</Time>
            <Position>
              <LatitudeDegrees>43.06107678450644016265869140625</LatitudeDegrees>
              <LongitudeDegrees>-1.76268632523715496063232421875</LongitudeDegrees>
            </Position>
            <AltitudeMeters>790.79998779296875</AltitudeMeters>
            <DistanceMeters>55604.341781776</DistanceMeters>
          </Trackpoint>
          <Trackpoint>
            <Time>2018-08-26T07:56:32.000Z</Time>
            <Position>
              <LatitudeDegrees>43.06100117973983287811279296875</LatitudeDegrees>
              <LongitudeDegrees>-1.76270929165184497833251953125</LongitudeDegrees>
            </Position>
            <AltitudeMeters>790.4000244140625</AltitudeMeters>
            <DistanceMeters>55612.961495749</DistanceMeters>
          </Trackpoint>
          <Trackpoint>
            <Time>2018-08-26T07:56:33.000Z</Time>
            <Position>
              <LatitudeDegrees>43.0609290115535259246826171875</LatitudeDegrees>
              <LongitudeDegrees>-1.7627388797700405120849609375</LongitudeDegrees>
            </Position>
            <AltitudeMeters>790.20001220703125</AltitudeMeters>
            <DistanceMeters>55621.346492779</DistanceMeters>
          </Trackpoint>
          <Trackpoint>
            <Time>2018-08-26T07:56:34.000Z</Time>
            <Position>
              <LatitudeDegrees>43.06086103431880474090576171875</LatitudeDegrees>
              <LongitudeDegrees>-1.76278204657137393951416015625</LongitudeDegrees>
            </Position>
            <AltitudeMeters>790.20001220703125</AltitudeMeters>
            <DistanceMeters>55629.687218703</DistanceMeters>
          </Trackpoint>
          <Trackpoint>
            <Time>2018-08-26T07:56:35.000Z</Time>
            <Position>
              <LatitudeDegrees>43.06078995577991008758544921875</LatitudeDegrees>
              <LongitudeDegrees>-1.7628280632197856903076171875</LongitudeDegrees>
            </Position>
            <AltitudeMeters>790</AltitudeMeters>
            <DistanceMeters>55638.438967579</DistanceMeters>
          </Trackpoint>
          <Trackpoint>
            <Time>2018-08-26T07:56:36.000Z</Time>
            <Position>
              <LatitudeDegrees>43.06072189472615718841552734375</LatitudeDegrees>
              <LongitudeDegrees>-1.76288078539073467254638671875</LongitudeDegrees>
            </Position>
            <AltitudeMeters>789.79998779296875</AltitudeMeters>
            <DistanceMeters>55647.143124136</DistanceMeters>
          </Trackpoint>
          <Trackpoint>
            <Time>2018-08-26T07:56:37.000Z</Time>
            <Position>
              <LatitudeDegrees>43.0606500618159770965576171875</LatitudeDegrees>
              <LongitudeDegrees>-1.762931831181049346923828125</LongitudeDegrees>
            </Position>
            <AltitudeMeters>789.79998779296875</AltitudeMeters>
            <DistanceMeters>55656.151135399</DistanceMeters>
          </Trackpoint>
          <Trackpoint>
            <Time>2018-08-26T07:56:38.000Z</Time>
            <Position>
              <LatitudeDegrees>43.0605791509151458740234375</LatitudeDegrees>
              <LongitudeDegrees>-1.76299293525516986846923828125</LongitudeDegrees>
            </Position>
            <AltitudeMeters>789.4000244140625</AltitudeMeters>
            <DistanceMeters>55665.477318773</DistanceMeters>
          </Trackpoint>
          <Trackpoint>
            <Time>2018-08-26T07:56:39.000Z</Time>
            <Position>
              <LatitudeDegrees>43.06050698272883892059326171875</LatitudeDegrees>
              <LongitudeDegrees>-1.76305194385349750518798828125</LongitudeDegrees>
            </Position>
            <AltitudeMeters>789</AltitudeMeters>
            <DistanceMeters>55674.833469747</DistanceMeters>
          </Trackpoint>
          <Trackpoint>
            <Time>2018-08-26T07:56:40.000Z</Time>
            <Position>
              <LatitudeDegrees>43.0604321323335170745849609375</LatitudeDegrees>
              <LongitudeDegrees>-1.763108856976032257080078125</LongitudeDegrees>
            </Position>
            <AltitudeMeters>788.5999755859375</AltitudeMeters>
            <DistanceMeters>55684.363659087</DistanceMeters>
          </Trackpoint>
          <Trackpoint>
            <Time>2018-08-26T07:56:41.000Z</Time>
            <Position>
              <LatitudeDegrees>43.06036096997559070587158203125</LatitudeDegrees>
              <LongitudeDegrees>-1.763170547783374786376953125</LongitudeDegrees>
            </Position>
            <AltitudeMeters>788.20001220703125</AltitudeMeters>
            <DistanceMeters>55693.739093163</DistanceMeters>
          </Trackpoint>
          <Trackpoint>
            <Time>2018-08-26T07:56:42.000Z</Time>
            <Position>
              <LatitudeDegrees>43.0602856166660785675048828125</LatitudeDegrees>
              <LongitudeDegrees>-1.76322829909622669219970703125</LongitudeDegrees>
            </Position>
            <AltitudeMeters>787.79998779296875</AltitudeMeters>
            <DistanceMeters>55703.351363559</DistanceMeters>
          </Trackpoint>
          <Trackpoint>
            <Time>2018-08-26T07:56:43.000Z</Time>
            <Position>
              <LatitudeDegrees>43.0602001212537288665771484375</LatitudeDegrees>
              <LongitudeDegrees>-1.76327289082109928131103515625</LongitudeDegrees>
            </Position>
            <AltitudeMeters>787.5999755859375</AltitudeMeters>
            <DistanceMeters>55713.53475189</DistanceMeters>
          </Trackpoint>
          <Trackpoint>
            <Time>2018-08-26T07:56:44.000Z</Time>
            <Position>
              <LatitudeDegrees>43.06011035107076168060302734375</LatitudeDegrees>
              <LongitudeDegrees>-1.7633128724992275238037109375</LongitudeDegrees>
            </Position>
            <AltitudeMeters>787</AltitudeMeters>
            <DistanceMeters>55724.041973911</DistanceMeters>
          </Trackpoint>
          <Trackpoint>
            <Time>2018-08-26T07:56:45.000Z</Time>
            <Position>
              <LatitudeDegrees>43.060021586716175079345703125</LatitudeDegrees>
              <LongitudeDegrees>-1.76335402764379978179931640625</LongitudeDegrees>
            </Position>
            <AltitudeMeters>786.4000244140625</AltitudeMeters>
            <DistanceMeters>55734.473293154</DistanceMeters>
          </Trackpoint>
          <Trackpoint>
            <Time>2018-08-26T07:56:46.000Z</Time>
            <Position>
              <LatitudeDegrees>43.0599300563335418701171875</LatitudeDegrees>
              <LongitudeDegrees>-1.763391159474849700927734375</LongitudeDegrees>
            </Position>
            <AltitudeMeters>786</AltitudeMeters>
            <DistanceMeters>55745.098452715</DistanceMeters>
          </Trackpoint>
          <Trackpoint>
            <Time>2018-08-26T07:56:47.000Z</Time>
            <Position>
              <LatitudeDegrees>43.05983542464673519134521484375</LatitudeDegrees>
              <LongitudeDegrees>-1.7634345777332782745361328125</LongitudeDegrees>
            </Position>
            <AltitudeMeters>785.20001220703125</AltitudeMeters>
            <DistanceMeters>55756.206827691</DistanceMeters>
          </Trackpoint>
          <Trackpoint>
            <Time>2018-08-26T07:56:48.000Z</Time>
            <Position>
              <LatitudeDegrees>43.05974590592086315155029296875</LatitudeDegrees>
              <LongitudeDegrees>-1.76347707398235797882080078125</LongitudeDegrees>
            </Position>
            <AltitudeMeters>784.4000244140625</AltitudeMeters>
            <DistanceMeters>55766.752652528</DistanceMeters>
          </Trackpoint>
          <Trackpoint>
            <Time>2018-08-26T07:56:49.000Z</Time>
            <Position>
              <LatitudeDegrees>43.05965387262403964996337890625</LatitudeDegrees>
              <LongitudeDegrees>-1.76352334208786487579345703125</LongitudeDegrees>
            </Position>
            <AltitudeMeters>784</AltitudeMeters>
            <DistanceMeters>55777.665427067</DistanceMeters>
          </Trackpoint>
          <Trackpoint>
            <Time>2018-08-26T07:56:50.000Z</Time>
            <Position>
              <LatitudeDegrees>43.05954859592020511627197265625</LatitudeDegrees>
              <LongitudeDegrees>-1.76356525160372257232666015625</LongitudeDegrees>
            </Position>
            <AltitudeMeters>783.79998779296875</AltitudeMeters>
            <DistanceMeters>55789.868870053</DistanceMeters>
          </Trackpoint>
          <Trackpoint>
            <Time>2018-08-26T07:56:51.000Z</Time>
            <Position>
              <LatitudeDegrees>43.05944734252989292144775390625</LatitudeDegrees>
              <LongitudeDegrees>-1.76360095851123332977294921875</LongitudeDegrees>
            </Position>
            <AltitudeMeters>783.20001220703125</AltitudeMeters>
            <DistanceMeters>55801.50721816</DistanceMeters>
          </Trackpoint>
          <Trackpoint>
            <Time>2018-08-26T07:56:52.000Z</Time>
            <Position>
              <LatitudeDegrees>43.05934055708348751068115234375</LatitudeDegrees>
              <LongitudeDegrees>-1.76362778060138225555419921875</LongitudeDegrees>
            </Position>
            <AltitudeMeters>782.79998779296875</AltitudeMeters>
            <DistanceMeters>55813.591313748</DistanceMeters>
          </Trackpoint>
          <Trackpoint>
            <Time>2018-08-26T07:56:53.000Z</Time>
            <Position>
              <LatitudeDegrees>43.05923075415194034576416015625</LatitudeDegrees>
              <LongitudeDegrees>-1.76363314501941204071044921875</LongitudeDegrees>
            </Position>
            <AltitudeMeters>782.4000244140625</AltitudeMeters>
            <DistanceMeters>55825.820258755</DistanceMeters>
          </Trackpoint>
          <Trackpoint>
            <Time>2018-08-26T07:56:54.000Z</Time>
            <Position>
              <LatitudeDegrees>43.05911994539201259613037109375</LatitudeDegrees>
              <LongitudeDegrees>-1.7636240087449550628662109375</LongitudeDegrees>
            </Position>
            <AltitudeMeters>782</AltitudeMeters>
            <DistanceMeters>55838.175924352</DistanceMeters>
          </Trackpoint>
          <Trackpoint>
            <Time>2018-08-26T07:56:55.000Z</Time>
            <Position>
              <LatitudeDegrees>43.05900896899402141571044921875</LatitudeDegrees>
              <LongitudeDegrees>-1.763598024845123291015625</LongitudeDegrees>
            </Position>
            <AltitudeMeters>781.20001220703125</AltitudeMeters>
            <DistanceMeters>55850.707206384</DistanceMeters>
          </Trackpoint>
          <Trackpoint>
            <Time>2018-08-26T07:56:56.000Z</Time>
            <Position>
              <LatitudeDegrees>43.058901764452457427978515625</LatitudeDegrees>
              <LongitudeDegrees>-1.7635606415569782257080078125</LongitudeDegrees>
            </Position>
            <AltitudeMeters>780.5999755859375</AltitudeMeters>
            <DistanceMeters>55863.020410009</DistanceMeters>
          </Trackpoint>
          <Trackpoint>
            <Time>2018-08-26T07:56:57.000Z</Time>
            <Position>
              <LatitudeDegrees>43.05880378000438213348388671875</LatitudeDegrees>
              <LongitudeDegrees>-1.76351345144212245941162109375</LongitudeDegrees>
            </Position>
            <AltitudeMeters>779.79998779296875</AltitudeMeters>
            <DistanceMeters>55874.581689848</DistanceMeters>
          </Trackpoint>
          <Trackpoint>
            <Time>2018-08-26T07:56:58.000Z</Time>
            <Position>
              <LatitudeDegrees>43.05870554409921169281005859375</LatitudeDegrees>
              <LongitudeDegrees>-1.76346617750823497772216796875</LongitudeDegrees>
            </Position>
            <AltitudeMeters>779</AltitudeMeters>
            <DistanceMeters>55886.171832952</DistanceMeters>
          </Trackpoint>
          <Trackpoint>
            <Time>2018-08-26T07:56:59.000Z</Time>
            <Position>
              <LatitudeDegrees>43.0586350522935390472412109375</LatitudeDegrees>
              <LongitudeDegrees>-1.76336810924112796783447265625</LongitudeDegrees>
            </Position>
            <AltitudeMeters>778.4000244140625</AltitudeMeters>
            <DistanceMeters>55897.359185611</DistanceMeters>
          </Trackpoint>
          <Trackpoint>
            <Time>2018-08-26T07:57:00.000Z</Time>
            <Position>
              <LatitudeDegrees>43.05858333595097064971923828125</LatitudeDegrees>
              <LongitudeDegrees>-1.76325528882443904876708984375</LongitudeDegrees>
            </Position>
            <AltitudeMeters>777</AltitudeMeters>
            <DistanceMeters>55908.190563786</DistanceMeters>
          </Trackpoint>
          <Trackpoint>
            <Time>2018-08-26T07:57:01.000Z</Time>
            <Position>
              <LatitudeDegrees>43.05854662321507930755615234375</LatitudeDegrees>
              <LongitudeDegrees>-1.763144396245479583740234375</LongitudeDegrees>
            </Position>
            <AltitudeMeters>776.4000244140625</AltitudeMeters>
            <DistanceMeters>55918.091599584</DistanceMeters>
          </Trackpoint>
          <Trackpoint>
            <Time>2018-08-26T07:57:02.000Z</Time>
            <Position>
              <LatitudeDegrees>43.058504797518253326416015625</LatitudeDegrees>
              <LongitudeDegrees>-1.76303618587553501129150390625</LongitudeDegrees>
            </Position>
            <AltitudeMeters>775.79998779296875</AltitudeMeters>
            <DistanceMeters>55928.047207001</DistanceMeters>
          </Trackpoint>
          <Trackpoint>
            <Time>2018-08-26T07:57:03.000Z</Time>
            <Position>
              <LatitudeDegrees>43.0584607087075710296630859375</LatitudeDegrees>
              <LongitudeDegrees>-1.76293074153363704681396484375</LongitudeDegrees>
            </Position>
            <AltitudeMeters>775.20001220703125</AltitudeMeters>
            <DistanceMeters>55937.92724376</DistanceMeters>
          </Trackpoint>
          <Trackpoint>
            <Time>2018-08-26T07:57:04.000Z</Time>
            <Position>
              <LatitudeDegrees>43.05839809589087963104248046875</LatitudeDegrees>
              <LongitudeDegrees>-1.7628465034067630767822265625</LongitudeDegrees>
            </Position>
            <AltitudeMeters>774.79998779296875</AltitudeMeters>
            <DistanceMeters>55947.699760758</DistanceMeters>
          </Trackpoint>
          <Trackpoint>
            <Time>2018-08-26T07:57:05.000Z</Time>
            <Position>
              <LatitudeDegrees>43.05832140147686004638671875</LatitudeDegrees>
              <LongitudeDegrees>-1.76279109902679920196533203125</LongitudeDegrees>
            </Position>
            <AltitudeMeters>774.4000244140625</AltitudeMeters>
            <DistanceMeters>55957.352342213</DistanceMeters>
          </Trackpoint>
          <Trackpoint>
            <Time>2018-08-26T07:57:06.000Z</Time>
            <Position>
              <LatitudeDegrees>43.058233559131622314453125</LatitudeDegrees>
              <LongitudeDegrees>-1.7627625167369842529296875</LongitudeDegrees>
            </Position>
            <AltitudeMeters>773.5999755859375</AltitudeMeters>
            <DistanceMeters>55967.401838467</DistanceMeters>
          </Trackpoint>
          <Trackpoint>
            <Time>2018-08-26T07:57:07.000Z</Time>
            <Position>
              <LatitudeDegrees>43.0581383407115936279296875</LatitudeDegrees>
              <LongitudeDegrees>-1.762776263058185577392578125</LongitudeDegrees>
            </Position>
            <AltitudeMeters>772.5999755859375</AltitudeMeters>
            <DistanceMeters>55978.058397074</DistanceMeters>
          </Trackpoint>
          <Trackpoint>
            <Time>2018-08-26T07:57:08.000Z</Time>
            <Position>
              <LatitudeDegrees>43.05804689414799213409423828125</LatitudeDegrees>
              <LongitudeDegrees>-1.762814819812774658203125</LongitudeDegrees>
            </Position>
            <AltitudeMeters>771.5999755859375</AltitudeMeters>
            <DistanceMeters>55988.709022422</DistanceMeters>
          </Trackpoint>
          <Trackpoint>
            <Time>2018-08-26T07:57:09.000Z</Time>
            <Position>
              <LatitudeDegrees>43.057959638535976409912109375</LatitudeDegrees>
              <LongitudeDegrees>-1.762872822582721710205078125</LongitudeDegrees>
            </Position>
            <AltitudeMeters>770.79998779296875</AltitudeMeters>
            <DistanceMeters>55999.505328583</DistanceMeters>
          </Trackpoint>
          <Trackpoint>
            <Time>2018-08-26T07:57:10.000Z</Time>
            <Position>
              <LatitudeDegrees>43.05786886252462863922119140625</LatitudeDegrees>
              <LongitudeDegrees>-1.76292554475367069244384765625</LongitudeDegrees>
            </Position>
            <AltitudeMeters>770</AltitudeMeters>
            <DistanceMeters>56010.48081125</DistanceMeters>
          </Trackpoint>
          <Trackpoint>
            <Time>2018-08-26T07:57:11.000Z</Time>
            <Position>
              <LatitudeDegrees>43.05777180008590221405029296875</LatitudeDegrees>
              <LongitudeDegrees>-1.7629638500511646270751953125</LongitudeDegrees>
            </Position>
            <AltitudeMeters>769.5999755859375</AltitudeMeters>
            <DistanceMeters>56021.724523725</DistanceMeters>
          </Trackpoint>
          <Trackpoint>
            <Time>2018-08-26T07:57:12.000Z</Time>
            <Position>
              <LatitudeDegrees>43.05766962468624114990234375</LatitudeDegrees>
              <LongitudeDegrees>-1.7629910074174404144287109375</LongitudeDegrees>
            </Position>
            <AltitudeMeters>769</AltitudeMeters>
            <DistanceMeters>56033.309211727</DistanceMeters>
          </Trackpoint>
          <Trackpoint>
            <Time>2018-08-26T07:57:13.000Z</Time>
            <Position>
              <LatitudeDegrees>43.05756711401045322418212890625</LatitudeDegrees>
              <LongitudeDegrees>-1.7630221880972385406494140625</LongitudeDegrees>
            </Position>
            <AltitudeMeters>768.5999755859375</AltitudeMeters>
            <DistanceMeters>56044.997111301</DistanceMeters>
          </Trackpoint>
          <Trackpoint>
            <Time>2018-08-26T07:57:14.000Z</Time>
            <Position>
              <LatitudeDegrees>43.05746150203049182891845703125</LatitudeDegrees>
              <LongitudeDegrees>-1.7630463279783725738525390625</LongitudeDegrees>
            </Position>
            <AltitudeMeters>768</AltitudeMeters>
            <DistanceMeters>56056.914916148</DistanceMeters>
          </Trackpoint>
          <Trackpoint>
            <Time>2018-08-26T07:57:15.000Z</Time>
            <Position>
              <LatitudeDegrees>43.05735052563250064849853515625</LatitudeDegrees>
              <LongitudeDegrees>-1.763077676296234130859375</LongitudeDegrees>
            </Position>
            <AltitudeMeters>767</AltitudeMeters>
            <DistanceMeters>56069.527363438</DistanceMeters>
          </Trackpoint>
          <Trackpoint>
            <Time>2018-08-26T07:57:16.000Z</Time>
            <Position>
              <LatitudeDegrees>43.05723569355905055999755859375</LatitudeDegrees>
              <LongitudeDegrees>-1.76309167407453060150146484375</LongitudeDegrees>
            </Position>
            <AltitudeMeters>766</AltitudeMeters>
            <DistanceMeters>56082.358785175</DistanceMeters>
          </Trackpoint>
          <Trackpoint>
            <Time>2018-08-26T07:57:17.000Z</Time>
            <Position>
              <LatitudeDegrees>43.05711901746690273284912109375</LatitudeDegrees>
              <LongitudeDegrees>-1.7631113715469837188720703125</LongitudeDegrees>
            </Position>
            <AltitudeMeters>765.4000244140625</AltitudeMeters>
            <DistanceMeters>56095.442828481</DistanceMeters>
          </Trackpoint>
          <Trackpoint>
            <Time>2018-08-26T07:57:18.000Z</Time>
            <Position>
              <LatitudeDegrees>43.05700980126857757568359375</LatitudeDegrees>
              <LongitudeDegrees>-1.76314137876033782958984375</LongitudeDegrees>
            </Position>
            <AltitudeMeters>765</AltitudeMeters>
            <DistanceMeters>56107.840810625</DistanceMeters>
          </Trackpoint>
          <Trackpoint>
            <Time>2018-08-26T07:57:19.000Z</Time>
            <Position>
              <LatitudeDegrees>43.056892454624176025390625</LatitudeDegrees>
              <LongitudeDegrees>-1.7631730623543262481689453125</LongitudeDegrees>
            </Position>
            <AltitudeMeters>764.5999755859375</AltitudeMeters>
            <DistanceMeters>56121.153371621</DistanceMeters>
          </Trackpoint>
          <Trackpoint>
            <Time>2018-08-26T07:57:20.000Z</Time>
            <Position>
              <LatitudeDegrees>43.0567803047597408294677734375</LatitudeDegrees>
              <LongitudeDegrees>-1.7632069252431392669677734375</LongitudeDegrees>
            </Position>
            <AltitudeMeters>764.20001220703125</AltitudeMeters>
            <DistanceMeters>56133.935789357</DistanceMeters>
          </Trackpoint>
          <Trackpoint>
            <Time>2018-08-26T07:57:21.000Z</Time>
            <Position>
              <LatitudeDegrees>43.05666790343821048736572265625</LatitudeDegrees>
              <LongitudeDegrees>-1.76323533989489078521728515625</LongitudeDegrees>
            </Position>
            <AltitudeMeters>763.4000244140625</AltitudeMeters>
            <DistanceMeters>56146.65801755</DistanceMeters>
          </Trackpoint>
          <Trackpoint>
            <Time>2018-08-26T07:57:22.000Z</Time>
            <Position>
              <LatitudeDegrees>43.05655105970799922943115234375</LatitudeDegrees>
              <LongitudeDegrees>-1.76326031796634197235107421875</LongitudeDegrees>
            </Position>
            <AltitudeMeters>762.4000244140625</AltitudeMeters>
            <DistanceMeters>56159.820846908</DistanceMeters>
          </Trackpoint>
          <Trackpoint>
            <Time>2018-08-26T07:57:23.000Z</Time>
            <Position>
              <LatitudeDegrees>43.0564309470355510711669921875</LatitudeDegrees>
              <LongitudeDegrees>-1.76328076981008052825927734375</LongitudeDegrees>
            </Position>
            <AltitudeMeters>761.4000244140625</AltitudeMeters>
            <DistanceMeters>56173.292873721</DistanceMeters>
          </Trackpoint>
          <Trackpoint>
            <Time>2018-08-26T07:57:24.000Z</Time>
            <Position>
              <LatitudeDegrees>43.0563092418015003204345703125</LatitudeDegrees>
              <LongitudeDegrees>-1.76329560577869415283203125</LongitudeDegrees>
            </Position>
            <AltitudeMeters>760.20001220703125</AltitudeMeters>
            <DistanceMeters>56186.892654077</DistanceMeters>
          </Trackpoint>
          <Trackpoint>
            <Time>2018-08-26T07:57:25.000Z</Time>
            <Position>
              <LatitudeDegrees>43.05619097314774990081787109375</LatitudeDegrees>
              <LongitudeDegrees>-1.7633048258721828460693359375</LongitudeDegrees>
            </Position>
            <AltitudeMeters>759</AltitudeMeters>
            <DistanceMeters>56200.077760512</DistanceMeters>
          </Trackpoint>
          <Trackpoint>
            <Time>2018-08-26T07:57:26.000Z</Time>
            <Position>
              <LatitudeDegrees>43.0560685135424137115478515625</LatitudeDegrees>
              <LongitudeDegrees>-1.76329292356967926025390625</LongitudeDegrees>
            </Position>
            <AltitudeMeters>757.79998779296875</AltitudeMeters>
            <DistanceMeters>56213.742456656</DistanceMeters>
          </Trackpoint>
          <Trackpoint>
            <Time>2018-08-26T07:57:27.000Z</Time>
            <Position>
              <LatitudeDegrees>43.0559488199651241302490234375</LatitudeDegrees>
              <LongitudeDegrees>-1.76326920278370380401611328125</LongitudeDegrees>
            </Position>
            <AltitudeMeters>756.79998779296875</AltitudeMeters>
            <DistanceMeters>56227.203419249</DistanceMeters>
          </Trackpoint>
          <Trackpoint>
            <Time>2018-08-26T07:57:28.000Z</Time>
            <Position>
              <LatitudeDegrees>43.05582837201654911041259765625</LatitudeDegrees>
              <LongitudeDegrees>-1.7632357589900493621826171875</LongitudeDegrees>
            </Position>
            <AltitudeMeters>755.79998779296875</AltitudeMeters>
            <DistanceMeters>56240.882645984</DistanceMeters>
          </Trackpoint>
          <Trackpoint>
            <Time>2018-08-26T07:57:29.000Z</Time>
            <Position>
              <LatitudeDegrees>43.05572309531271457672119140625</LatitudeDegrees>
              <LongitudeDegrees>-1.76315973512828350067138671875</LongitudeDegrees>
            </Position>
            <AltitudeMeters>754</AltitudeMeters>
            <DistanceMeters>56254.131292176</DistanceMeters>
          </Trackpoint>
          <Trackpoint>
            <Time>2018-08-26T07:57:30.000Z</Time>
            <Position>
              <LatitudeDegrees>43.0556452274322509765625</LatitudeDegrees>
              <LongitudeDegrees>-1.7630530335009098052978515625</LongitudeDegrees>
            </Position>
            <AltitudeMeters>753.20001220703125</AltitudeMeters>
            <DistanceMeters>56266.395261894</DistanceMeters>
          </Trackpoint>
          <Trackpoint>
            <Time>2018-08-26T07:57:31.000Z</Time>
            <Position>
              <LatitudeDegrees>43.055580519139766693115234375</LatitudeDegrees>
              <LongitudeDegrees>-1.7629289813339710235595703125</LongitudeDegrees>
            </Position>
            <AltitudeMeters>752.20001220703125</AltitudeMeters>
            <DistanceMeters>56278.791058793</DistanceMeters>
          </Trackpoint>
          <Trackpoint>
            <Time>2018-08-26T07:57:32.000Z</Time>
            <Position>
              <LatitudeDegrees>43.05550348944962024688720703125</LatitudeDegrees>
              <LongitudeDegrees>-1.76279780454933643341064453125</LongitudeDegrees>
            </Position>
            <AltitudeMeters>751.4000244140625</AltitudeMeters>
            <DistanceMeters>56292.477545039</DistanceMeters>
          </Trackpoint>
          <Trackpoint>
            <Time>2018-08-26T07:57:33.000Z</Time>
            <Position>
              <LatitudeDegrees>43.05542193353176116943359375</LatitudeDegrees>
              <LongitudeDegrees>-1.7626726627349853515625</LongitudeDegrees>
            </Position>
            <AltitudeMeters>750.4000244140625</AltitudeMeters>
            <DistanceMeters>56306.115120133</DistanceMeters>
          </Trackpoint>
          <Trackpoint>
            <Time>2018-08-26T07:57:34.000Z</Time>
            <Position>
              <LatitudeDegrees>43.0553433112800121307373046875</LatitudeDegrees>
              <LongitudeDegrees>-1.762548945844173431396484375</LongitudeDegrees>
            </Position>
            <AltitudeMeters>749.79998779296875</AltitudeMeters>
            <DistanceMeters>56319.450046654</DistanceMeters>
          </Trackpoint>
          <Trackpoint>
            <Time>2018-08-26T07:57:35.000Z</Time>
            <Position>
              <LatitudeDegrees>43.0552618391811847686767578125</LatitudeDegrees>
              <LongitudeDegrees>-1.7624341137707233428955078125</LongitudeDegrees>
            </Position>
            <AltitudeMeters>749.4000244140625</AltitudeMeters>
            <DistanceMeters>56332.467319198</DistanceMeters>
          </Trackpoint>
          <Trackpoint>
            <Time>2018-08-26T07:57:36.000Z</Time>
            <Position>
              <LatitudeDegrees>43.05518011562526226043701171875</LatitudeDegrees>
              <LongitudeDegrees>-1.76232858560979366302490234375</LongitudeDegrees>
            </Position>
            <AltitudeMeters>748.5999755859375</AltitudeMeters>
            <DistanceMeters>56344.973354701</DistanceMeters>
          </Trackpoint>
          <Trackpoint>
            <Time>2018-08-26T07:57:37.000Z</Time>
            <Position>
              <LatitudeDegrees>43.05509336292743682861328125</LatitudeDegrees>
              <LongitudeDegrees>-1.76223487593233585357666015625</LongitudeDegrees>
            </Position>
            <AltitudeMeters>747.79998779296875</AltitudeMeters>
            <DistanceMeters>56357.274084797</DistanceMeters>
          </Trackpoint>
          <Trackpoint>
            <Time>2018-08-26T07:57:38.000Z</Time>
            <Position>
              <LatitudeDegrees>43.05500778369605541229248046875</LatitudeDegrees>
              <LongitudeDegrees>-1.762146614491939544677734375</LongitudeDegrees>
            </Position>
            <AltitudeMeters>747</AltitudeMeters>
            <DistanceMeters>56369.201357088</DistanceMeters>
          </Trackpoint>
          <Trackpoint>
            <Time>2018-08-26T07:57:39.000Z</Time>
            <Position>
              <LatitudeDegrees>43.05491893552243709564208984375</LatitudeDegrees>
              <LongitudeDegrees>-1.76206254400312900543212890625</LongitudeDegrees>
            </Position>
            <AltitudeMeters>746.20001220703125</AltitudeMeters>
            <DistanceMeters>56381.223644872</DistanceMeters>
          </Trackpoint>
          <Trackpoint>
            <Time>2018-08-26T07:57:40.000Z</Time>
            <Position>
              <LatitudeDegrees>43.05482304655015468597412109375</LatitudeDegrees>
              <LongitudeDegrees>-1.7619814909994602203369140625</LongitudeDegrees>
            </Position>
            <AltitudeMeters>745.20001220703125</AltitudeMeters>
            <DistanceMeters>56393.767891048</DistanceMeters>
          </Trackpoint>
          <Trackpoint>
            <Time>2018-08-26T07:57:41.000Z</Time>
            <Position>
              <LatitudeDegrees>43.05472430773079395294189453125</LatitudeDegrees>
              <LongitudeDegrees>-1.761898510158061981201171875</LongitudeDegrees>
            </Position>
            <AltitudeMeters>744.5999755859375</AltitudeMeters>
            <DistanceMeters>56406.664245104</DistanceMeters>
          </Trackpoint>
          <Trackpoint>
            <Time>2018-08-26T07:57:42.000Z</Time>
            <Position>
              <LatitudeDegrees>43.05462322197854518890380859375</LatitudeDegrees>
              <LongitudeDegrees>-1.76181930117309093475341796875</LongitudeDegrees>
            </Position>
            <AltitudeMeters>743.4000244140625</AltitudeMeters>
            <DistanceMeters>56419.629037541</DistanceMeters>
          </Trackpoint>
          <Trackpoint>
            <Time>2018-08-26T07:57:43.000Z</Time>
            <Position>
              <LatitudeDegrees>43.05451878346502780914306640625</LatitudeDegrees>
              <LongitudeDegrees>-1.76174336113035678863525390625</LongitudeDegrees>
            </Position>
            <AltitudeMeters>742.20001220703125</AltitudeMeters>
            <DistanceMeters>56432.792209909</DistanceMeters>
          </Trackpoint>
          <Trackpoint>
            <Time>2018-08-26T07:57:44.000Z</Time>
            <Position>
              <LatitudeDegrees>43.05441065691411495208740234375</LatitudeDegrees>
              <LongitudeDegrees>-1.7616773955523967742919921875</LongitudeDegrees>
            </Position>
            <AltitudeMeters>741.4000244140625</AltitudeMeters>
            <DistanceMeters>56445.969095348</DistanceMeters>
          </Trackpoint>
          <Trackpoint>
            <Time>2018-08-26T07:57:45.000Z</Time>
            <Position>
              <LatitudeDegrees>43.05429808795452117919921875</LatitudeDegrees>
              <LongitudeDegrees>-1.76161645911633968353271484375</LongitudeDegrees>
            </Position>
            <AltitudeMeters>741</AltitudeMeters>
            <DistanceMeters>56459.442797765</DistanceMeters>
          </Trackpoint>
          <Trackpoint>
            <Time>2018-08-26T07:57:46.000Z</Time>
            <Position>
              <LatitudeDegrees>43.05418141186237335205078125</LatitudeDegrees>
              <LongitudeDegrees>-1.76157102920114994049072265625</LongitudeDegrees>
            </Position>
            <AltitudeMeters>740.4000244140625</AltitudeMeters>
            <DistanceMeters>56472.944953642</DistanceMeters>
          </Trackpoint>
          <Trackpoint>
            <Time>2018-08-26T07:57:47.000Z</Time>
            <Position>
              <LatitudeDegrees>43.05406079627573490142822265625</LatitudeDegrees>
              <LongitudeDegrees>-1.76154806278645992279052734375</LongitudeDegrees>
            </Position>
            <AltitudeMeters>739.5999755859375</AltitudeMeters>
            <DistanceMeters>56486.499507686</DistanceMeters>
          </Trackpoint>
          <Trackpoint>
            <Time>2018-08-26T07:57:48.000Z</Time>
            <Position>
              <LatitudeDegrees>43.053936660289764404296875</LatitudeDegrees>
              <LongitudeDegrees>-1.76153875887393951416015625</LongitudeDegrees>
            </Position>
            <AltitudeMeters>738.4000244140625</AltitudeMeters>
            <DistanceMeters>56500.336911377</DistanceMeters>
          </Trackpoint>
          <Trackpoint>
            <Time>2018-08-26T07:57:49.000Z</Time>
            <Position>
              <LatitudeDegrees>43.05380950681865215301513671875</LatitudeDegrees>
              <LongitudeDegrees>-1.7615359090268611907958984375</LongitudeDegrees>
            </Position>
            <AltitudeMeters>737.4000244140625</AltitudeMeters>
            <DistanceMeters>56514.491107787</DistanceMeters>
          </Trackpoint>
          <Trackpoint>
            <Time>2018-08-26T07:57:50.000Z</Time>
            <Position>
              <LatitudeDegrees>43.0536813475191593170166015625</LatitudeDegrees>
              <LongitudeDegrees>-1.76154085434973239898681640625</LongitudeDegrees>
            </Position>
            <AltitudeMeters>736.4000244140625</AltitudeMeters>
            <DistanceMeters>56528.76126034</DistanceMeters>
          </Trackpoint>
          <Trackpoint>
            <Time>2018-08-26T07:57:51.000Z</Time>
            <Position>
              <LatitudeDegrees>43.05355511605739593505859375</LatitudeDegrees>
              <LongitudeDegrees>-1.76153917796909809112548828125</LongitudeDegrees>
            </Position>
            <AltitudeMeters>735.5999755859375</AltitudeMeters>
            <DistanceMeters>56542.811724076</DistanceMeters>
          </Trackpoint>
          <Trackpoint>
            <Time>2018-08-26T07:57:52.000Z</Time>
            <Position>
              <LatitudeDegrees>43.0534248612821102142333984375</LatitudeDegrees>
              <LongitudeDegrees>-1.761518977582454681396484375</LongitudeDegrees>
            </Position>
            <AltitudeMeters>734.4000244140625</AltitudeMeters>
            <DistanceMeters>56557.402270748</DistanceMeters>
          </Trackpoint>
          <Trackpoint>
            <Time>2018-08-26T07:57:53.000Z</Time>
            <Position>
              <LatitudeDegrees>43.05329485796391963958740234375</LatitudeDegrees>
              <LongitudeDegrees>-1.76147799007594585418701171875</LongitudeDegrees>
            </Position>
            <AltitudeMeters>733.20001220703125</AltitudeMeters>
            <DistanceMeters>56572.250784022</DistanceMeters>
          </Trackpoint>
          <Trackpoint>
            <Time>2018-08-26T07:57:54.000Z</Time>
            <Position>
              <LatitudeDegrees>43.05317281745374202728271484375</LatitudeDegrees>
              <LongitudeDegrees>-1.76140791736543178558349609375</LongitudeDegrees>
            </Position>
            <AltitudeMeters>732.4000244140625</AltitudeMeters>
            <DistanceMeters>56586.981457358</DistanceMeters>
          </Trackpoint>
          <Trackpoint>
            <Time>2018-08-26T07:57:55.000Z</Time>
            <Position>
              <LatitudeDegrees>43.05305949412286281585693359375</LatitudeDegrees>
              <LongitudeDegrees>-1.76130750216543674468994140625</LongitudeDegrees>
            </Position>
            <AltitudeMeters>731.79998779296875</AltitudeMeters>
            <DistanceMeters>56602.007702112</DistanceMeters>
          </Trackpoint>
          <Trackpoint>
            <Time>2018-08-26T07:57:56.000Z</Time>
            <Position>
              <LatitudeDegrees>43.0529645271599292755126953125</LatitudeDegrees>
              <LongitudeDegrees>-1.7611781693994998931884765625</LongitudeDegrees>
            </Position>
            <AltitudeMeters>730.5999755859375</AltitudeMeters>
            <DistanceMeters>56616.919934088</DistanceMeters>
          </Trackpoint>
          <Trackpoint>
            <Time>2018-08-26T07:57:57.000Z</Time>
            <Position>
              <LatitudeDegrees>43.05287157185375690460205078125</LatitudeDegrees>
              <LongitudeDegrees>-1.7610460706055164337158203125</LongitudeDegrees>
            </Position>
            <AltitudeMeters>729.5999755859375</AltitudeMeters>
            <DistanceMeters>56631.835193499</DistanceMeters>
          </Trackpoint>
          <Trackpoint>
            <Time>2018-08-26T07:57:58.000Z</Time>
            <Position>
              <LatitudeDegrees>43.05277484469115734100341796875</LatitudeDegrees>
              <LongitudeDegrees>-1.76092042587697505950927734375</LongitudeDegrees>
            </Position>
            <AltitudeMeters>728.4000244140625</AltitudeMeters>
            <DistanceMeters>56646.678840801</DistanceMeters>
          </Trackpoint>
          <Trackpoint>
            <Time>2018-08-26T07:57:59.000Z</Time>
            <Position>
              <LatitudeDegrees>43.05266864597797393798828125</LatitudeDegrees>
              <LongitudeDegrees>-1.7608070187270641326904296875</LongitudeDegrees>
            </Position>
            <AltitudeMeters>726</AltitudeMeters>
            <DistanceMeters>56661.67169553</DistanceMeters>
          </Trackpoint>
          <Trackpoint>
            <Time>2018-08-26T07:58:00.000Z</Time>
            <Position>
              <LatitudeDegrees>43.05256806313991546630859375</LatitudeDegrees>
              <LongitudeDegrees>-1.7606960423290729522705078125</LongitudeDegrees>
            </Position>
            <AltitudeMeters>725</AltitudeMeters>
            <DistanceMeters>56676.052474741</DistanceMeters>
          </Trackpoint>
          <Trackpoint>
            <Time>2018-08-26T07:58:01.000Z</Time>
            <Position>
              <LatitudeDegrees>43.0524654686450958251953125</LatitudeDegrees>
              <LongitudeDegrees>-1.76058682613074779510498046875</LongitudeDegrees>
            </Position>
            <AltitudeMeters>724.20001220703125</AltitudeMeters>
            <DistanceMeters>56690.519648335</DistanceMeters>
          </Trackpoint>
          <Trackpoint>
            <Time>2018-08-26T07:58:02.000Z</Time>
            <Position>
              <LatitudeDegrees>43.05236957967281341552734375</LatitudeDegrees>
              <LongitudeDegrees>-1.7604747600853443145751953125</LongitudeDegrees>
            </Position>
            <AltitudeMeters>723.5999755859375</AltitudeMeters>
            <DistanceMeters>56704.554679064</DistanceMeters>
          </Trackpoint>
          <Trackpoint>
            <Time>2018-08-26T07:58:03.000Z</Time>
            <Position>
              <LatitudeDegrees>43.052263967692852020263671875</LatitudeDegrees>
              <LongitudeDegrees>-1.76037476398050785064697265625</LongitudeDegrees>
            </Position>
            <AltitudeMeters>722.79998779296875</AltitudeMeters>
            <DistanceMeters>56718.848857589</DistanceMeters>
          </Trackpoint>
          <Trackpoint>
            <Time>2018-08-26T07:58:04.000Z</Time>
            <Position>
              <LatitudeDegrees>43.05216615088284015655517578125</LatitudeDegrees>
              <LongitudeDegrees>-1.76026999019086360931396484375</LongitudeDegrees>
            </Position>
            <AltitudeMeters>721.5999755859375</AltitudeMeters>
            <DistanceMeters>56732.674509767</DistanceMeters>
          </Trackpoint>
          <Trackpoint>
            <Time>2018-08-26T07:58:05.000Z</Time>
            <Position>
              <LatitudeDegrees>43.05206104181706905364990234375</LatitudeDegrees>
              <LongitudeDegrees>-1.7601827345788478851318359375</LongitudeDegrees>
            </Position>
            <AltitudeMeters>720.20001220703125</AltitudeMeters>
            <DistanceMeters>56746.357366739</DistanceMeters>
          </Trackpoint>
          <Trackpoint>
            <Time>2018-08-26T07:58:06.000Z</Time>
            <Position>
              <LatitudeDegrees>43.05195459164679050445556640625</LatitudeDegrees>
              <LongitudeDegrees>-1.7601213790476322174072265625</LongitudeDegrees>
            </Position>
            <AltitudeMeters>718.5999755859375</AltitudeMeters>
            <DistanceMeters>56759.213396031</DistanceMeters>
          </Trackpoint>
          <Trackpoint>
            <Time>2018-08-26T07:58:07.000Z</Time>
            <Position>
              <LatitudeDegrees>43.0518473871052265167236328125</LatitudeDegrees>
              <LongitudeDegrees>-1.7600834928452968597412109375</LongitudeDegrees>
            </Position>
            <AltitudeMeters>717.20001220703125</AltitudeMeters>
            <DistanceMeters>56771.536862493</DistanceMeters>
          </Trackpoint>
          <Trackpoint>
            <Time>2018-08-26T07:58:08.000Z</Time>
            <Position>
              <LatitudeDegrees>43.05172878317534923553466796875</LatitudeDegrees>
              <LongitudeDegrees>-1.76004971377551555633544921875</LongitudeDegrees>
            </Position>
            <AltitudeMeters>716.20001220703125</AltitudeMeters>
            <DistanceMeters>56785.020614164</DistanceMeters>
          </Trackpoint>
          <Trackpoint>
            <Time>2018-08-26T07:58:09.000Z</Time>
            <Position>
              <LatitudeDegrees>43.051615543663501739501953125</LatitudeDegrees>
              <LongitudeDegrees>-1.760019622743129730224609375</LongitudeDegrees>
            </Position>
            <AltitudeMeters>715.4000244140625</AltitudeMeters>
            <DistanceMeters>56797.85942312</DistanceMeters>
          </Trackpoint>
          <Trackpoint>
            <Time>2018-08-26T07:58:10.000Z</Time>
            <Position>
              <LatitudeDegrees>43.051502220332622528076171875</LatitudeDegrees>
              <LongitudeDegrees>-1.75999305211007595062255859375</LongitudeDegrees>
            </Position>
            <AltitudeMeters>714.20001220703125</AltitudeMeters>
            <DistanceMeters>56810.656314786</DistanceMeters>
          </Trackpoint>
          <Trackpoint>
            <Time>2018-08-26T07:58:11.000Z</Time>
            <Position>
              <LatitudeDegrees>43.0513877235352993011474609375</LatitudeDegrees>
              <LongitudeDegrees>-1.75995935685932636260986328125</LongitudeDegrees>
            </Position>
            <AltitudeMeters>713.5999755859375</AltitudeMeters>
            <DistanceMeters>56823.691264666</DistanceMeters>
          </Trackpoint>
          <Trackpoint>
            <Time>2018-08-26T07:58:12.000Z</Time>
            <Position>
              <LatitudeDegrees>43.05127934552729129791259765625</LatitudeDegrees>
              <LongitudeDegrees>-1.7599202133715152740478515625</LongitudeDegrees>
            </Position>
            <AltitudeMeters>713.4000244140625</AltitudeMeters>
            <DistanceMeters>56836.166936895</DistanceMeters>
          </Trackpoint>
          <Trackpoint>
            <Time>2018-08-26T07:58:13.000Z</Time>
            <Position>
              <LatitudeDegrees>43.05116702802479267120361328125</LatitudeDegrees>
              <LongitudeDegrees>-1.75987352617084980010986328125</LongitudeDegrees>
            </Position>
            <AltitudeMeters>713.20001220703125</AltitudeMeters>
            <DistanceMeters>56849.232332607</DistanceMeters>
          </Trackpoint>
          <Trackpoint>
            <Time>2018-08-26T07:58:14.000Z</Time>
            <Position>
              <LatitudeDegrees>43.0510537885129451751708984375</LatitudeDegrees>
              <LongitudeDegrees>-1.7598310299217700958251953125</LongitudeDegrees>
            </Position>
            <AltitudeMeters>713</AltitudeMeters>
            <DistanceMeters>56862.30152906</DistanceMeters>
          </Trackpoint>
          <Trackpoint>
            <Time>2018-08-26T07:58:15.000Z</Time>
            <Position>
              <LatitudeDegrees>43.0509434826672077178955078125</LatitudeDegrees>
              <LongitudeDegrees>-1.75978300161659717559814453125</LongitudeDegrees>
            </Position>
            <AltitudeMeters>712.79998779296875</AltitudeMeters>
            <DistanceMeters>56875.185273283</DistanceMeters>
          </Trackpoint>
          <Trackpoint>
            <Time>2018-08-26T07:58:16.000Z</Time>
            <Position>
              <LatitudeDegrees>43.05083326064050197601318359375</LatitudeDegrees>
              <LongitudeDegrees>-1.759733296930789947509765625</LongitudeDegrees>
            </Position>
            <AltitudeMeters>712.5999755859375</AltitudeMeters>
            <DistanceMeters>56888.101917289</DistanceMeters>
          </Trackpoint>
          <Trackpoint>
            <Time>2018-08-26T07:58:17.000Z</Time>
            <Position>
              <LatitudeDegrees>43.05071893148124217987060546875</LatitudeDegrees>
              <LongitudeDegrees>-1.75968728028237819671630859375</LongitudeDegrees>
            </Position>
            <AltitudeMeters>712.5999755859375</AltitudeMeters>
            <DistanceMeters>56901.365549871</DistanceMeters>
          </Trackpoint>
          <Trackpoint>
            <Time>2018-08-26T07:58:18.000Z</Time>
            <Position>
              <LatitudeDegrees>43.050603680312633514404296875</LatitudeDegrees>
              <LongitudeDegrees>-1.759659536182880401611328125</LongitudeDegrees>
            </Position>
            <AltitudeMeters>712.4000244140625</AltitudeMeters>
            <DistanceMeters>56914.390104224</DistanceMeters>
          </Trackpoint>
          <Trackpoint>
            <Time>2018-08-26T07:58:19.000Z</Time>
            <Position>
              <LatitudeDegrees>43.0504945479333400726318359375</LatitudeDegrees>
              <LongitudeDegrees>-1.75966297276318073272705078125</LongitudeDegrees>
            </Position>
            <AltitudeMeters>712.20001220703125</AltitudeMeters>
            <DistanceMeters>56926.540153183</DistanceMeters>
          </Trackpoint>
          <Trackpoint>
            <Time>2018-08-26T07:58:20.000Z</Time>
            <Position>
              <LatitudeDegrees>43.05039170198142528533935546875</LatitudeDegrees>
              <LongitudeDegrees>-1.75969784148037433624267578125</LongitudeDegrees>
            </Position>
            <AltitudeMeters>712</AltitudeMeters>
            <DistanceMeters>56938.33304118</DistanceMeters>
          </Trackpoint>
          <Trackpoint>
            <Time>2018-08-26T07:58:21.000Z</Time>
            <Position>
              <LatitudeDegrees>43.05030184797942638397216796875</LatitudeDegrees>
              <LongitudeDegrees>-1.7597542516887187957763671875</LongitudeDegrees>
            </Position>
            <AltitudeMeters>712</AltitudeMeters>
            <DistanceMeters>56949.336051444</DistanceMeters>
          </Trackpoint>
          <Trackpoint>
            <Time>2018-08-26T07:58:22.000Z</Time>
            <Position>
              <LatitudeDegrees>43.050217442214488983154296875</LatitudeDegrees>
              <LongitudeDegrees>-1.75982692278921604156494140625</LongitudeDegrees>
            </Position>
            <AltitudeMeters>711.4000244140625</AltitudeMeters>
            <DistanceMeters>56960.435074052</DistanceMeters>
          </Trackpoint>
          <Trackpoint>
            <Time>2018-08-26T07:58:23.000Z</Time>
            <Position>
              <LatitudeDegrees>43.0501337908208370208740234375</LatitudeDegrees>
              <LongitudeDegrees>-1.7598829977214336395263671875</LongitudeDegrees>
            </Position>
            <AltitudeMeters>710.5999755859375</AltitudeMeters>
            <DistanceMeters>56970.803006825</DistanceMeters>
          </Trackpoint>
          <Trackpoint>
            <Time>2018-08-26T07:58:24.000Z</Time>
            <Position>
              <LatitudeDegrees>43.0500439368188381195068359375</LatitudeDegrees>
              <LongitudeDegrees>-1.759914346039295196533203125</LongitudeDegrees>
            </Position>
            <AltitudeMeters>709.79998779296875</AltitudeMeters>
            <DistanceMeters>56981.123800483</DistanceMeters>
          </Trackpoint>
          <Trackpoint>
            <Time>2018-08-26T07:58:25.000Z</Time>
            <Position>
              <LatitudeDegrees>43.04995265789330005645751953125</LatitudeDegrees>
              <LongitudeDegrees>-1.75992549397051334381103515625</LongitudeDegrees>
            </Position>
            <AltitudeMeters>708.79998779296875</AltitudeMeters>
            <DistanceMeters>56991.323580418</DistanceMeters>
          </Trackpoint>
          <Trackpoint>
            <Time>2018-08-26T07:58:26.000Z</Time>
            <Position>
              <LatitudeDegrees>43.04985995404422283172607421875</LatitudeDegrees>
              <LongitudeDegrees>-1.7599265836179256439208984375</LongitudeDegrees>
            </Position>
            <AltitudeMeters>708</AltitudeMeters>
            <DistanceMeters>57001.642624047</DistanceMeters>
          </Trackpoint>
          <Trackpoint>
            <Time>2018-08-26T07:58:27.000Z</Time>
            <Position>
              <LatitudeDegrees>43.049765489995479583740234375</LatitudeDegrees>
              <LongitudeDegrees>-1.75992633216083049774169921875</LongitudeDegrees>
            </Position>
            <AltitudeMeters>707.79998779296875</AltitudeMeters>
            <DistanceMeters>57012.15671915</DistanceMeters>
          </Trackpoint>
          <Trackpoint>
            <Time>2018-08-26T07:58:28.000Z</Time>
            <Position>
              <LatitudeDegrees>43.04967085830867290496826171875</LatitudeDegrees>
              <LongitudeDegrees>-1.759925745427608489990234375</LongitudeDegrees>
            </Position>
            <AltitudeMeters>707.4000244140625</AltitudeMeters>
            <DistanceMeters>57022.688834751</DistanceMeters>
          </Trackpoint>
          <Trackpoint>
            <Time>2018-08-26T07:58:29.000Z</Time>
            <Position>
              <LatitudeDegrees>43.04958603344857692718505859375</LatitudeDegrees>
              <LongitudeDegrees>-1.759913004934787750244140625</LongitudeDegrees>
            </Position>
            <AltitudeMeters>707.20001220703125</AltitudeMeters>
            <DistanceMeters>57032.186753664</DistanceMeters>
          </Trackpoint>
          <Trackpoint>
            <Time>2018-08-26T07:58:30.000Z</Time>
            <Position>
              <LatitudeDegrees>43.04950489662587642669677734375</LatitudeDegrees>
              <LongitudeDegrees>-1.7598913796246051788330078125</LongitudeDegrees>
            </Position>
            <AltitudeMeters>707</AltitudeMeters>
            <DistanceMeters>57041.38718499</DistanceMeters>
          </Trackpoint>
          <Trackpoint>
            <Time>2018-08-26T07:58:31.000Z</Time>
            <Position>
              <LatitudeDegrees>43.04942660965025424957275390625</LatitudeDegrees>
              <LongitudeDegrees>-1.7598498053848743438720703125</LongitudeDegrees>
            </Position>
            <AltitudeMeters>707</AltitudeMeters>
            <DistanceMeters>57050.733679494</DistanceMeters>
          </Trackpoint>
          <Trackpoint>
            <Time>2018-08-26T07:58:32.000Z</Time>
            <Position>
              <LatitudeDegrees>43.04934882558882236480712890625</LatitudeDegrees>
              <LongitudeDegrees>-1.7598094046115875244140625</LongitudeDegrees>
            </Position>
            <AltitudeMeters>706.5999755859375</AltitudeMeters>
            <DistanceMeters>57059.993787804</DistanceMeters>
          </Trackpoint>
          <Trackpoint>
            <Time>2018-08-26T07:58:33.000Z</Time>
            <Position>
              <LatitudeDegrees>43.04927305318415164947509765625</LatitudeDegrees>
              <LongitudeDegrees>-1.7597636394202709197998046875</LongitudeDegrees>
            </Position>
            <AltitudeMeters>706.20001220703125</AltitudeMeters>
            <DistanceMeters>57069.211868914</DistanceMeters>
          </Trackpoint>
          <Trackpoint>
            <Time>2018-08-26T07:58:34.000Z</Time>
            <Position>
              <LatitudeDegrees>43.04919007234275341033935546875</LatitudeDegrees>
              <LongitudeDegrees>-1.75972558557987213134765625</LongitudeDegrees>
            </Position>
            <AltitudeMeters>705.5999755859375</AltitudeMeters>
            <DistanceMeters>57078.952454789</DistanceMeters>
          </Trackpoint>
          <Trackpoint>
            <Time>2018-08-26T07:58:35.000Z</Time>
            <Position>
              <LatitudeDegrees>43.049107678234577178955078125</LatitudeDegrees>
              <LongitudeDegrees>-1.75969147123396396636962890625</LongitudeDegrees>
            </Position>
            <AltitudeMeters>705.20001220703125</AltitudeMeters>
            <DistanceMeters>57088.533673768</DistanceMeters>
          </Trackpoint>
          <Trackpoint>
            <Time>2018-08-26T07:58:36.000Z</Time>
            <Position>
              <LatitudeDegrees>43.04901623167097568511962890625</LatitudeDegrees>
              <LongitudeDegrees>-1.759659536182880401611328125</LongitudeDegrees>
            </Position>
            <AltitudeMeters>705</AltitudeMeters>
            <DistanceMeters>57099.038317225</DistanceMeters>
          </Trackpoint>
          <Trackpoint>
            <Time>2018-08-26T07:58:37.000Z</Time>
            <Position>
              <LatitudeDegrees>43.04892453365027904510498046875</LatitudeDegrees>
              <LongitudeDegrees>-1.75963983871042728424072265625</LongitudeDegrees>
            </Position>
            <AltitudeMeters>704.79998779296875</AltitudeMeters>
            <DistanceMeters>57109.369604829</DistanceMeters>
          </Trackpoint>
          <Trackpoint>
            <Time>2018-08-26T07:58:38.000Z</Time>
            <Position>
              <LatitudeDegrees>43.0488272197544574737548828125</LatitudeDegrees>
              <LongitudeDegrees>-1.7596234939992427825927734375</LongitudeDegrees>
            </Position>
            <AltitudeMeters>704.4000244140625</AltitudeMeters>
            <DistanceMeters>57120.281965622</DistanceMeters>
          </Trackpoint>
          <Trackpoint>
            <Time>2018-08-26T07:58:39.000Z</Time>
            <Position>
              <LatitudeDegrees>43.0487343482673168182373046875</LatitudeDegrees>
              <LongitudeDegrees>-1.75960798747837543487548828125</LongitudeDegrees>
            </Position>
            <AltitudeMeters>704</AltitudeMeters>
            <DistanceMeters>57130.695523516</DistanceMeters>
          </Trackpoint>
          <Trackpoint>
            <Time>2018-08-26T07:58:40.000Z</Time>
            <Position>
              <LatitudeDegrees>43.04863535799086093902587890625</LatitudeDegrees>
              <LongitudeDegrees>-1.75959843210875988006591796875</LongitudeDegrees>
            </Position>
            <AltitudeMeters>703.5999755859375</AltitudeMeters>
            <DistanceMeters>57141.740718524</DistanceMeters>
          </Trackpoint>
          <Trackpoint>
            <Time>2018-08-26T07:58:41.000Z</Time>
            <Position>
              <LatitudeDegrees>43.04853477515280246734619140625</LatitudeDegrees>
              <LongitudeDegrees>-1.75958233885467052459716796875</LongitudeDegrees>
            </Position>
            <AltitudeMeters>703.20001220703125</AltitudeMeters>
            <DistanceMeters>57153.012104662</DistanceMeters>
          </Trackpoint>
          <Trackpoint>
            <Time>2018-08-26T07:58:42.000Z</Time>
            <Position>
              <LatitudeDegrees>43.0484349466860294342041015625</LatitudeDegrees>
              <LongitudeDegrees>-1.7595718614757061004638671875</LongitudeDegrees>
            </Position>
            <AltitudeMeters>703</AltitudeMeters>
            <DistanceMeters>57164.155784991</DistanceMeters>
          </Trackpoint>
          <Trackpoint>
            <Time>2018-08-26T07:58:43.000Z</Time>
            <Position>
              <LatitudeDegrees>43.04835028946399688720703125</LatitudeDegrees>
              <LongitudeDegrees>-1.75955618731677532196044921875</LongitudeDegrees>
            </Position>
            <AltitudeMeters>702.5999755859375</AltitudeMeters>
            <DistanceMeters>57173.664156321</DistanceMeters>
          </Trackpoint>
          <Trackpoint>
            <Time>2018-08-26T07:58:44.000Z</Time>
            <Position>
              <LatitudeDegrees>43.0482565797865390777587890625</LatitudeDegrees>
              <LongitudeDegrees>-1.75952115096151828765869140625</LongitudeDegrees>
            </Position>
            <AltitudeMeters>702.20001220703125</AltitudeMeters>
            <DistanceMeters>57184.476342485</DistanceMeters>
          </Trackpoint>
          <Trackpoint>
            <Time>2018-08-26T07:58:45.000Z</Time>
            <Position>
              <LatitudeDegrees>43.04816295392811298370361328125</LatitudeDegrees>
              <LongitudeDegrees>-1.75945862196385860443115234375</LongitudeDegrees>
            </Position>
            <AltitudeMeters>701.79998779296875</AltitudeMeters>
            <DistanceMeters>57196.071938125</DistanceMeters>
          </Trackpoint>
          <Trackpoint>
            <Time>2018-08-26T07:58:46.000Z</Time>
            <Position>
              <LatitudeDegrees>43.048076368868350982666015625</LatitudeDegrees>
              <LongitudeDegrees>-1.7593797482550144195556640625</LongitudeDegrees>
            </Position>
            <AltitudeMeters>701.20001220703125</AltitudeMeters>
            <DistanceMeters>57207.649218663</DistanceMeters>
          </Trackpoint>
          <Trackpoint>
            <Time>2018-08-26T07:58:47.000Z</Time>
            <Position>
              <LatitudeDegrees>43.04799028672277927398681640625</LatitudeDegrees>
              <LongitudeDegrees>-1.7592905648052692413330078125</LongitudeDegrees>
            </Position>
            <AltitudeMeters>700.79998779296875</AltitudeMeters>
            <DistanceMeters>57219.666247518</DistanceMeters>
          </Trackpoint>
          <Trackpoint>
            <Time>2018-08-26T07:58:48.000Z</Time>
            <Position>
              <LatitudeDegrees>43.04791686125099658966064453125</LatitudeDegrees>
              <LongitudeDegrees>-1.75918805412948131561279296875</LongitudeDegrees>
            </Position>
            <AltitudeMeters>700.20001220703125</AltitudeMeters>
            <DistanceMeters>57231.341005496</DistanceMeters>
          </Trackpoint>
          <Trackpoint>
            <Time>2018-08-26T07:58:49.000Z</Time>
            <Position>
              <LatitudeDegrees>43.04783907718956470489501953125</LatitudeDegrees>
              <LongitudeDegrees>-1.75907674245536327362060546875</LongitudeDegrees>
            </Position>
            <AltitudeMeters>699.5999755859375</AltitudeMeters>
            <DistanceMeters>57243.867963165</DistanceMeters>
          </Trackpoint>
          <Trackpoint>
            <Time>2018-08-26T07:58:50.000Z</Time>
            <Position>
              <LatitudeDegrees>43.04775056429207324981689453125</LatitudeDegrees>
              <LongitudeDegrees>-1.75898001529276371002197265625</LongitudeDegrees>
            </Position>
            <AltitudeMeters>699.20001220703125</AltitudeMeters>
            <DistanceMeters>57256.4753977</DistanceMeters>
          </Trackpoint>
          <Trackpoint>
            <Time>2018-08-26T07:58:51.000Z</Time>
            <Position>
              <LatitudeDegrees>43.0476428568363189697265625</LatitudeDegrees>
              <LongitudeDegrees>-1.75891849212348461151123046875</LongitudeDegrees>
            </Position>
            <AltitudeMeters>698.5999755859375</AltitudeMeters>
            <DistanceMeters>57269.465935356</DistanceMeters>
          </Trackpoint>
          <Trackpoint>
            <Time>2018-08-26T07:58:52.000Z</Time>
            <Position>
              <LatitudeDegrees>43.04752207361161708831787109375</LatitudeDegrees>
              <LongitudeDegrees>-1.75891681574285030364990234375</LongitudeDegrees>
            </Position>
            <AltitudeMeters>698</AltitudeMeters>
            <DistanceMeters>57282.910116629</DistanceMeters>
          </Trackpoint>
          <Trackpoint>
            <Time>2018-08-26T07:58:53.000Z</Time>
            <Position>
              <LatitudeDegrees>43.0474039725959300994873046875</LatitudeDegrees>
              <LongitudeDegrees>-1.75893609412014484405517578125</LongitudeDegrees>
            </Position>
            <AltitudeMeters>697.20001220703125</AltitudeMeters>
            <DistanceMeters>57296.148194041</DistanceMeters>
          </Trackpoint>
          <Trackpoint>
            <Time>2018-08-26T07:58:54.000Z</Time>
            <Position>
              <LatitudeDegrees>43.0472913198173046112060546875</LatitudeDegrees>
              <LongitudeDegrees>-1.75894347019493579864501953125</LongitudeDegrees>
            </Position>
            <AltitudeMeters>696.4000244140625</AltitudeMeters>
            <DistanceMeters>57308.70107554</DistanceMeters>
          </Trackpoint>
          <Trackpoint>
            <Time>2018-08-26T07:58:55.000Z</Time>
            <Position>
              <LatitudeDegrees>43.0471788346767425537109375</LatitudeDegrees>
              <LongitudeDegrees>-1.758923940360546112060546875</LongitudeDegrees>
            </Position>
            <AltitudeMeters>695.79998779296875</AltitudeMeters>
            <DistanceMeters>57321.321395993</DistanceMeters>
          </Trackpoint>
          <Trackpoint>
            <Time>2018-08-26T07:58:56.000Z</Time>
            <Position>
              <LatitudeDegrees>43.04707716219127178192138671875</LatitudeDegrees>
              <LongitudeDegrees>-1.75889317877590656280517578125</LongitudeDegrees>
            </Position>
            <AltitudeMeters>695.4000244140625</AltitudeMeters>
            <DistanceMeters>57332.911149532</DistanceMeters>
          </Trackpoint>
          <Trackpoint>
            <Time>2018-08-26T07:58:57.000Z</Time>
            <Position>
              <LatitudeDegrees>43.04697557352483272552490234375</LatitudeDegrees>
              <LongitudeDegrees>-1.7588464915752410888671875</LongitudeDegrees>
            </Position>
            <AltitudeMeters>693.79998779296875</AltitudeMeters>
            <DistanceMeters>57344.839178894</DistanceMeters>
          </Trackpoint>
          <Trackpoint>
            <Time>2018-08-26T07:58:58.000Z</Time>
            <Position>
              <LatitudeDegrees>43.04687649942934513092041015625</LatitudeDegrees>
              <LongitudeDegrees>-1.7588000558316707611083984375</LongitudeDegrees>
            </Position>
            <AltitudeMeters>693</AltitudeMeters>
            <DistanceMeters>57356.495358807</DistanceMeters>
          </Trackpoint>
          <Trackpoint>
            <Time>2018-08-26T07:58:59.000Z</Time>
            <Position>
              <LatitudeDegrees>43.04677910171449184417724609375</LatitudeDegrees>
              <LongitudeDegrees>-1.75875521264970302581787109375</LongitudeDegrees>
            </Position>
            <AltitudeMeters>692</AltitudeMeters>
            <DistanceMeters>57367.93335459</DistanceMeters>
          </Trackpoint>
          <Trackpoint>
            <Time>2018-08-26T07:59:00.000Z</Time>
            <Position>
              <LatitudeDegrees>43.0466854758560657501220703125</LatitudeDegrees>
              <LongitudeDegrees>-1.7586962878704071044921875</LongitudeDegrees>
            </Position>
            <AltitudeMeters>691.4000244140625</AltitudeMeters>
            <DistanceMeters>57379.403673408</DistanceMeters>
          </Trackpoint>
          <Trackpoint>
            <Time>2018-08-26T07:59:01.000Z</Time>
            <Position>
              <LatitudeDegrees>43.04659520275890827178955078125</LatitudeDegrees>
              <LongitudeDegrees>-1.7586213536560535430908203125</LongitudeDegrees>
            </Position>
            <AltitudeMeters>691</AltitudeMeters>
            <DistanceMeters>57391.155139659</DistanceMeters>
          </Trackpoint>
          <Trackpoint>
            <Time>2018-08-26T07:59:02.000Z</Time>
            <Position>
              <LatitudeDegrees>43.046513982117176055908203125</LatitudeDegrees>
              <LongitudeDegrees>-1.75853728316724300384521484375</LongitudeDegrees>
            </Position>
            <AltitudeMeters>690.79998779296875</AltitudeMeters>
            <DistanceMeters>57402.49003832</DistanceMeters>
          </Trackpoint>
          <Trackpoint>
            <Time>2018-08-26T07:59:03.000Z</Time>
            <Position>
              <LatitudeDegrees>43.04644935764372348785400390625</LatitudeDegrees>
              <LongitudeDegrees>-1.75843401812016963958740234375</LongitudeDegrees>
            </Position>
            <AltitudeMeters>690.5999755859375</AltitudeMeters>
            <DistanceMeters>57413.548306502</DistanceMeters>
          </Trackpoint>
          <Trackpoint>
            <Time>2018-08-26T07:59:04.000Z</Time>
            <Position>
              <LatitudeDegrees>43.04638951085507869720458984375</LatitudeDegrees>
              <LongitudeDegrees>-1.75832605920732021331787109375</LongitudeDegrees>
            </Position>
            <AltitudeMeters>690.4000244140625</AltitudeMeters>
            <DistanceMeters>57424.570176507</DistanceMeters>
          </Trackpoint>
          <Trackpoint>
            <Time>2018-08-26T07:59:05.000Z</Time>
            <Position>
              <LatitudeDegrees>43.0463314242660999298095703125</LatitudeDegrees>
              <LongitudeDegrees>-1.75821357406675815582275390625</LongitudeDegrees>
            </Position>
            <AltitudeMeters>690.20001220703125</AltitudeMeters>
            <DistanceMeters>57435.773660901</DistanceMeters>
          </Trackpoint>
          <Trackpoint>
            <Time>2018-08-26T07:59:06.000Z</Time>
            <Position>
              <LatitudeDegrees>43.046271912753582000732421875</LatitudeDegrees>
              <LongitudeDegrees>-1.75809874199330806732177734375</LongitudeDegrees>
            </Position>
            <AltitudeMeters>690.20001220703125</AltitudeMeters>
            <DistanceMeters>57447.224281407</DistanceMeters>
          </Trackpoint>
          <Trackpoint>
            <Time>2018-08-26T07:59:07.000Z</Time>
            <Position>
              <LatitudeDegrees>43.04621919058263301849365234375</LatitudeDegrees>
              <LongitudeDegrees>-1.75798189826309680938720703125</LongitudeDegrees>
            </Position>
            <AltitudeMeters>689.79998779296875</AltitudeMeters>
            <DistanceMeters>57458.394266466</DistanceMeters>
          </Trackpoint>
          <Trackpoint>
            <Time>2018-08-26T07:59:08.000Z</Time>
            <Position>
              <LatitudeDegrees>43.04617241956293582916259765625</LatitudeDegrees>
              <LongitudeDegrees>-1.7578626237809658050537109375</LongitudeDegrees>
            </Position>
            <AltitudeMeters>689.4000244140625</AltitudeMeters>
            <DistanceMeters>57469.404660477</DistanceMeters>
          </Trackpoint>
          <Trackpoint>
            <Time>2018-08-26T07:59:09.000Z</Time>
            <Position>
              <LatitudeDegrees>43.04612732492387294769287109375</LatitudeDegrees>
              <LongitudeDegrees>-1.7577429302036762237548828125</LongitudeDegrees>
            </Position>
            <AltitudeMeters>689</AltitudeMeters>
            <DistanceMeters>57480.358318574</DistanceMeters>
          </Trackpoint>
          <Trackpoint>
            <Time>2018-08-26T07:59:10.000Z</Time>
            <Position>
              <LatitudeDegrees>43.0460849963128566741943359375</LatitudeDegrees>
              <LongitudeDegrees>-1.75761242397129535675048828125</LongitudeDegrees>
            </Position>
            <AltitudeMeters>688.5999755859375</AltitudeMeters>
            <DistanceMeters>57491.972200433</DistanceMeters>
          </Trackpoint>
          <Trackpoint>
            <Time>2018-08-26T07:59:11.000Z</Time>
            <Position>
              <LatitudeDegrees>43.0460481159389019012451171875</LatitudeDegrees>
              <LongitudeDegrees>-1.757484935224056243896484375</LongitudeDegrees>
            </Position>
            <AltitudeMeters>688</AltitudeMeters>
            <DistanceMeters>57503.125600502</DistanceMeters>
          </Trackpoint>
          <Trackpoint>
            <Time>2018-08-26T07:59:12.000Z</Time>
            <Position>
              <LatitudeDegrees>43.04601534269750118255615234375</LatitudeDegrees>
              <LongitudeDegrees>-1.757356859743595123291015625</LongitudeDegrees>
            </Position>
            <AltitudeMeters>687.79998779296875</AltitudeMeters>
            <DistanceMeters>57514.163435044</DistanceMeters>
          </Trackpoint>
          <Trackpoint>
            <Time>2018-08-26T07:59:13.000Z</Time>
            <Position>
              <LatitudeDegrees>43.04598592221736907958984375</LatitudeDegrees>
              <LongitudeDegrees>-1.757228784263134002685546875</LongitudeDegrees>
            </Position>
            <AltitudeMeters>687.4000244140625</AltitudeMeters>
            <DistanceMeters>57525.083654342</DistanceMeters>
          </Trackpoint>
          <Trackpoint>
            <Time>2018-08-26T07:59:14.000Z</Time>
            <Position>
              <LatitudeDegrees>43.0459575913846492767333984375</LatitudeDegrees>
              <LongitudeDegrees>-1.75711168907582759857177734375</LongitudeDegrees>
            </Position>
            <AltitudeMeters>687.20001220703125</AltitudeMeters>
            <DistanceMeters>57535.116963477</DistanceMeters>
          </Trackpoint>
          <Trackpoint>
            <Time>2018-08-26T07:59:15.000Z</Time>
            <Position>
              <LatitudeDegrees>43.045923225581645965576171875</LatitudeDegrees>
              <LongitudeDegrees>-1.7569919116795063018798828125</LongitudeDegrees>
            </Position>
            <AltitudeMeters>686.79998779296875</AltitudeMeters>
            <DistanceMeters>57545.583714999</DistanceMeters>
          </Trackpoint>
          <Trackpoint>
            <Time>2018-08-26T07:59:16.000Z</Time>
            <Position>
              <LatitudeDegrees>43.0458764545619487762451171875</LatitudeDegrees>
              <LongitudeDegrees>-1.75687967799603939056396484375</LongitudeDegrees>
            </Position>
            <AltitudeMeters>686.4000244140625</AltitudeMeters>
            <DistanceMeters>57556.092655712</DistanceMeters>
          </Trackpoint>
          <Trackpoint>
            <Time>2018-08-26T07:59:17.000Z</Time>
            <Position>
              <LatitudeDegrees>43.0458197928965091705322265625</LatitudeDegrees>
              <LongitudeDegrees>-1.75679418258368968963623046875</LongitudeDegrees>
            </Position>
            <AltitudeMeters>686.20001220703125</AltitudeMeters>
            <DistanceMeters>57565.480602564</DistanceMeters>
          </Trackpoint>
          <Trackpoint>
            <Time>2018-08-26T07:59:18.000Z</Time>
            <Position>
              <LatitudeDegrees>43.04574158973991870880126953125</LatitudeDegrees>
              <LongitudeDegrees>-1.75671220757067203521728515625</LongitudeDegrees>
            </Position>
            <AltitudeMeters>685.5999755859375</AltitudeMeters>
            <DistanceMeters>57576.445384266</DistanceMeters>
          </Trackpoint>
          <Trackpoint>
            <Time>2018-08-26T07:59:19.000Z</Time>
            <Position>
              <LatitudeDegrees>43.04565575905144214630126953125</LatitudeDegrees>
              <LongitudeDegrees>-1.7566459067165851593017578125</LongitudeDegrees>
            </Position>
            <AltitudeMeters>685.20001220703125</AltitudeMeters>
            <DistanceMeters>57587.415929323</DistanceMeters>
          </Trackpoint>
          <Trackpoint>
            <Time>2018-08-26T07:59:20.000Z</Time>
            <Position>
              <LatitudeDegrees>43.04556607268750667572021484375</LatitudeDegrees>
              <LongitudeDegrees>-1.7565786838531494140625</LongitudeDegrees>
            </Position>
            <AltitudeMeters>685</AltitudeMeters>
            <DistanceMeters>57598.798130636</DistanceMeters>
          </Trackpoint>
          <Trackpoint>
            <Time>2018-08-26T07:59:21.000Z</Time>
            <Position>
              <LatitudeDegrees>43.04547890089452266693115234375</LatitudeDegrees>
              <LongitudeDegrees>-1.75650936551392078399658203125</LongitudeDegrees>
            </Position>
            <AltitudeMeters>684.79998779296875</AltitudeMeters>
            <DistanceMeters>57610.019735513</DistanceMeters>
          </Trackpoint>
          <Trackpoint>
            <Time>2018-08-26T07:59:22.000Z</Time>
            <Position>
              <LatitudeDegrees>43.04538988508284091949462890625</LatitudeDegrees>
              <LongitudeDegrees>-1.75643761642277240753173828125</LongitudeDegrees>
            </Position>
            <AltitudeMeters>684.5999755859375</AltitudeMeters>
            <DistanceMeters>57621.518360617</DistanceMeters>
          </Trackpoint>
          <Trackpoint>
            <Time>2018-08-26T07:59:23.000Z</Time>
            <Position>
              <LatitudeDegrees>43.04530036635696887969970703125</LatitudeDegrees>
              <LongitudeDegrees>-1.75636502914130687713623046875</LongitudeDegrees>
            </Position>
            <AltitudeMeters>684.4000244140625</AltitudeMeters>
            <DistanceMeters>57633.099930265</DistanceMeters>
          </Trackpoint>
          <Trackpoint>
            <Time>2018-08-26T07:59:24.000Z</Time>
            <Position>
              <LatitudeDegrees>43.0452100932598114013671875</LatitudeDegrees>
              <LongitudeDegrees>-1.75629780627787113189697265625</LongitudeDegrees>
            </Position>
            <AltitudeMeters>684</AltitudeMeters>
            <DistanceMeters>57644.538715501</DistanceMeters>
          </Trackpoint>
          <Trackpoint>
            <Time>2018-08-26T07:59:25.000Z</Time>
            <Position>
              <LatitudeDegrees>43.0451190657913684844970703125</LatitudeDegrees>
              <LongitudeDegrees>-1.7562341876327991485595703125</LongitudeDegrees>
            </Position>
            <AltitudeMeters>683.79998779296875</AltitudeMeters>
            <DistanceMeters>57655.914965129</DistanceMeters>
          </Trackpoint>
          <Trackpoint>
            <Time>2018-08-26T07:59:26.000Z</Time>
            <Position>
              <LatitudeDegrees>43.0450241826474666595458984375</LatitudeDegrees>
              <LongitudeDegrees>-1.7561808787286281585693359375</LongitudeDegrees>
            </Position>
            <AltitudeMeters>683</AltitudeMeters>
            <DistanceMeters>57667.331229549</DistanceMeters>
          </Trackpoint>
          <Trackpoint>
            <Time>2018-08-26T07:59:27.000Z</Time>
            <Position>
              <LatitudeDegrees>43.04492368362843990325927734375</LatitudeDegrees>
              <LongitudeDegrees>-1.75614072941243648529052734375</LongitudeDegrees>
            </Position>
            <AltitudeMeters>682.5999755859375</AltitudeMeters>
            <DistanceMeters>57678.984310239</DistanceMeters>
          </Trackpoint>
          <Trackpoint>
            <Time>2018-08-26T07:59:28.000Z</Time>
            <Position>
              <LatitudeDegrees>43.0448166467249393463134765625</LatitudeDegrees>
              <LongitudeDegrees>-1.7561178468167781829833984375</LongitudeDegrees>
            </Position>
            <AltitudeMeters>682.20001220703125</AltitudeMeters>
            <DistanceMeters>57691.042597468</DistanceMeters>
          </Trackpoint>
          <Trackpoint>
            <Time>2018-08-26T07:59:29.000Z</Time>
            <Position>
              <LatitudeDegrees>43.0447063408792018890380859375</LatitudeDegrees>
              <LongitudeDegrees>-1.75611122511327266693115234375</LongitudeDegrees>
            </Position>
            <AltitudeMeters>681.5999755859375</AltitudeMeters>
            <DistanceMeters>57703.331576207</DistanceMeters>
          </Trackpoint>
          <Trackpoint>
            <Time>2018-08-26T07:59:30.000Z</Time>
            <Position>
              <LatitudeDegrees>43.0445940233767032623291015625</LatitudeDegrees>
              <LongitudeDegrees>-1.75610954873263835906982421875</LongitudeDegrees>
            </Position>
            <AltitudeMeters>681.20001220703125</AltitudeMeters>
            <DistanceMeters>57715.833639763</DistanceMeters>
          </Trackpoint>
          <Trackpoint>
            <Time>2018-08-26T07:59:31.000Z</Time>
            <Position>
              <LatitudeDegrees>43.04448078386485576629638671875</LatitudeDegrees>
              <LongitudeDegrees>-1.75611357204616069793701171875</LongitudeDegrees>
            </Position>
            <AltitudeMeters>680.5999755859375</AltitudeMeters>
            <DistanceMeters>57728.441790529</DistanceMeters>
          </Trackpoint>
          <Trackpoint>
            <Time>2018-08-26T07:59:32.000Z</Time>
            <Position>
              <LatitudeDegrees>43.04436896927654743194580078125</LatitudeDegrees>
              <LongitudeDegrees>-1.75611575134098529815673828125</LongitudeDegrees>
            </Position>
            <AltitudeMeters>680.20001220703125</AltitudeMeters>
            <DistanceMeters>57740.888476492</DistanceMeters>
          </Trackpoint>
          <Trackpoint>
            <Time>2018-08-26T07:59:33.000Z</Time>
            <Position>
              <LatitudeDegrees>43.04425799287855625152587890625</LatitudeDegrees>
              <LongitudeDegrees>-1.756111644208431243896484375</LongitudeDegrees>
            </Position>
            <AltitudeMeters>679.4000244140625</AltitudeMeters>
            <DistanceMeters>57753.244872913</DistanceMeters>
          </Trackpoint>
          <Trackpoint>
            <Time>2018-08-26T07:59:34.000Z</Time>
            <Position>
              <LatitudeDegrees>43.04415187798440456390380859375</LatitudeDegrees>
              <LongitudeDegrees>-1.75609261728823184967041015625</LongitudeDegrees>
            </Position>
            <AltitudeMeters>678.79998779296875</AltitudeMeters>
            <DistanceMeters>57765.156235601</DistanceMeters>
          </Trackpoint>
          <Trackpoint>
            <Time>2018-08-26T07:59:35.000Z</Time>
            <Position>
              <LatitudeDegrees>43.0440491996705532073974609375</LatitudeDegrees>
              <LongitudeDegrees>-1.75605422817170619964599609375</LongitudeDegrees>
            </Position>
            <AltitudeMeters>678</AltitudeMeters>
            <DistanceMeters>57777.003746236</DistanceMeters>
          </Trackpoint>
          <Trackpoint>
            <Time>2018-08-26T07:59:36.000Z</Time>
            <Position>
              <LatitudeDegrees>43.04395188577473163604736328125</LatitudeDegrees>
              <LongitudeDegrees>-1.7560065351426601409912109375</LongitudeDegrees>
            </Position>
            <AltitudeMeters>677.20001220703125</AltitudeMeters>
            <DistanceMeters>57788.509044607</DistanceMeters>
          </Trackpoint>
          <Trackpoint>
            <Time>2018-08-26T07:59:37.000Z</Time>
            <Position>
              <LatitudeDegrees>43.0438564158976078033447265625</LatitudeDegrees>
              <LongitudeDegrees>-1.7559545673429965972900390625</LongitudeDegrees>
            </Position>
            <AltitudeMeters>676.5999755859375</AltitudeMeters>
            <DistanceMeters>57799.944671702</DistanceMeters>
          </Trackpoint>
          <Trackpoint>
            <Time>2018-08-26T07:59:38.000Z</Time>
            <Position>
              <LatitudeDegrees>43.04376413114368915557861328125</LatitudeDegrees>
              <LongitudeDegrees>-1.7559009231626987457275390625</LongitudeDegrees>
            </Position>
            <AltitudeMeters>676</AltitudeMeters>
            <DistanceMeters>57811.104951465</DistanceMeters>
          </Trackpoint>
          <Trackpoint>
            <Time>2018-08-26T07:59:39.000Z</Time>
            <Position>
              <LatitudeDegrees>43.043675534427165985107421875</LatitudeDegrees>
              <LongitudeDegrees>-1.755847446620464324951171875</LongitudeDegrees>
            </Position>
            <AltitudeMeters>675.5999755859375</AltitudeMeters>
            <DistanceMeters>57821.882841025</DistanceMeters>
          </Trackpoint>
          <Trackpoint>
            <Time>2018-08-26T07:59:40.000Z</Time>
            <Position>
              <LatitudeDegrees>43.0435892008244991302490234375</LatitudeDegrees>
              <LongitudeDegrees>-1.75579707138240337371826171875</LongitudeDegrees>
            </Position>
            <AltitudeMeters>675.20001220703125</AltitudeMeters>
            <DistanceMeters>57832.328866286</DistanceMeters>
          </Trackpoint>
          <Trackpoint>
            <Time>2018-08-26T07:59:41.000Z</Time>
            <Position>
              <LatitudeDegrees>43.0435013584792613983154296875</LatitudeDegrees>
              <LongitudeDegrees>-1.7557500489056110382080078125</LongitudeDegrees>
            </Position>
            <AltitudeMeters>675</AltitudeMeters>
            <DistanceMeters>57842.827490628</DistanceMeters>
          </Trackpoint>
          <Trackpoint>
            <Time>2018-08-26T07:59:42.000Z</Time>
            <Position>
              <LatitudeDegrees>43.04340739734470844268798828125</LatitudeDegrees>
              <LongitudeDegrees>-1.75570721738040447235107421875</LongitudeDegrees>
            </Position>
            <AltitudeMeters>674.79998779296875</AltitudeMeters>
            <DistanceMeters>57853.850589495</DistanceMeters>
          </Trackpoint>
          <Trackpoint>
            <Time>2018-08-26T07:59:43.000Z</Time>
            <Position>
              <LatitudeDegrees>43.043310754001140594482421875</LatitudeDegrees>
              <LongitudeDegrees>-1.7556645534932613372802734375</LongitudeDegrees>
            </Position>
            <AltitudeMeters>674.79998779296875</AltitudeMeters>
            <DistanceMeters>57865.153576779</DistanceMeters>
          </Trackpoint>
          <Trackpoint>
            <Time>2018-08-26T07:59:44.000Z</Time>
            <Position>
              <LatitudeDegrees>43.0432106740772724151611328125</LatitudeDegrees>
              <LongitudeDegrees>-1.7556286789476871490478515625</LongitudeDegrees>
            </Position>
            <AltitudeMeters>674.5999755859375</AltitudeMeters>
            <DistanceMeters>57876.66868175</DistanceMeters>
          </Trackpoint>
          <Trackpoint>
            <Time>2018-08-26T07:59:45.000Z</Time>
            <Position>
              <LatitudeDegrees>43.043118305504322052001953125</LatitudeDegrees>
              <LongitudeDegrees>-1.755587942898273468017578125</LongitudeDegrees>
            </Position>
            <AltitudeMeters>674.5999755859375</AltitudeMeters>
            <DistanceMeters>57887.470841155</DistanceMeters>
          </Trackpoint>
          <Trackpoint>
            <Time>2018-08-26T07:59:46.000Z</Time>
            <Position>
              <LatitudeDegrees>43.043023087084293365478515625</LatitudeDegrees>
              <LongitudeDegrees>-1.75555952824652194976806640625</LongitudeDegrees>
            </Position>
            <AltitudeMeters>674.4000244140625</AltitudeMeters>
            <DistanceMeters>57898.318047987</DistanceMeters>
          </Trackpoint>
          <Trackpoint>
            <Time>2018-08-26T07:59:47.000Z</Time>
            <Position>
              <LatitudeDegrees>43.04292342625558376312255859375</LatitudeDegrees>
              <LongitudeDegrees>-1.75553488545119762420654296875</LongitudeDegrees>
            </Position>
            <AltitudeMeters>674.4000244140625</AltitudeMeters>
            <DistanceMeters>57909.589834694</DistanceMeters>
          </Trackpoint>
          <Trackpoint>
            <Time>2018-08-26T07:59:48.000Z</Time>
            <Position>
              <LatitudeDegrees>43.04282468743622303009033203125</LatitudeDegrees>
              <LongitudeDegrees>-1.75551141612231731414794921875</LongitudeDegrees>
            </Position>
            <AltitudeMeters>674.20001220703125</AltitudeMeters>
            <DistanceMeters>57920.744449135</DistanceMeters>
          </Trackpoint>
          <Trackpoint>
            <Time>2018-08-26T07:59:49.000Z</Time>
            <Position>
              <LatitudeDegrees>43.04272645153105258941650390625</LatitudeDegrees>
              <LongitudeDegrees>-1.755494736135005950927734375</LongitudeDegrees>
            </Position>
            <AltitudeMeters>674.20001220703125</AltitudeMeters>
            <DistanceMeters>57931.762221942</DistanceMeters>
          </Trackpoint>
          <Trackpoint>
            <Time>2018-08-26T07:59:50.000Z</Time>
            <Position>
              <LatitudeDegrees>43.042622767388820648193359375</LatitudeDegrees>
              <LongitudeDegrees>-1.7554861865937709808349609375</LongitudeDegrees>
            </Position>
            <AltitudeMeters>674</AltitudeMeters>
            <DistanceMeters>57943.323111244</DistanceMeters>
          </Trackpoint>
          <Trackpoint>
            <Time>2018-08-26T07:59:51.000Z</Time>
            <Position>
              <LatitudeDegrees>43.042518161237239837646484375</LatitudeDegrees>
              <LongitudeDegrees>-1.75547872669994831085205078125</LongitudeDegrees>
            </Position>
            <AltitudeMeters>674</AltitudeMeters>
            <DistanceMeters>57954.982002302</DistanceMeters>
          </Trackpoint>
          <Trackpoint>
            <Time>2018-08-26T07:59:52.000Z</Time>
            <Position>
              <LatitudeDegrees>43.0424187518656253814697265625</LatitudeDegrees>
              <LongitudeDegrees>-1.75547269172966480255126953125</LongitudeDegrees>
            </Position>
            <AltitudeMeters>673.79998779296875</AltitudeMeters>
            <DistanceMeters>57966.05740561</DistanceMeters>
          </Trackpoint>
          <Trackpoint>
            <Time>2018-08-26T07:59:53.000Z</Time>
            <Position>
              <LatitudeDegrees>43.0423252098262310028076171875</LatitudeDegrees>
              <LongitudeDegrees>-1.75546598620712757110595703125</LongitudeDegrees>
            </Position>
            <AltitudeMeters>673.5999755859375</AltitudeMeters>
            <DistanceMeters>57976.482663404</DistanceMeters>
          </Trackpoint>
          <Trackpoint>
            <Time>2018-08-26T07:59:54.000Z</Time>
            <Position>
              <LatitudeDegrees>43.042231500148773193359375</LatitudeDegrees>
              <LongitudeDegrees>-1.75545961596071720123291015625</LongitudeDegrees>
            </Position>
            <AltitudeMeters>673.4000244140625</AltitudeMeters>
            <DistanceMeters>57986.925662648</DistanceMeters>
          </Trackpoint>
          <Trackpoint>
            <Time>2018-08-26T07:59:55.000Z</Time>
            <Position>
              <LatitudeDegrees>43.04213963449001312255859375</LatitudeDegrees>
              <LongitudeDegrees>-1.75544754602015018463134765625</LongitudeDegrees>
            </Position>
            <AltitudeMeters>672.79998779296875</AltitudeMeters>
            <DistanceMeters>57997.197342801</DistanceMeters>
          </Trackpoint>
          <Trackpoint>
            <Time>2018-08-26T07:59:56.000Z</Time>
            <Position>
              <LatitudeDegrees>43.04205321706831455230712890625</LatitudeDegrees>
              <LongitudeDegrees>-1.7554312013089656829833984375</LongitudeDegrees>
            </Position>
            <AltitudeMeters>672.20001220703125</AltitudeMeters>
            <DistanceMeters>58006.906822606</DistanceMeters>
          </Trackpoint>
          <Trackpoint>
            <Time>2018-08-26T07:59:57.000Z</Time>
            <Position>
              <LatitudeDegrees>43.0419646203517913818359375</LatitudeDegrees>
              <LongitudeDegrees>-1.7554070614278316497802734375</LongitudeDegrees>
            </Position>
            <AltitudeMeters>672</AltitudeMeters>
            <DistanceMeters>58016.961708775</DistanceMeters>
          </Trackpoint>
          <Trackpoint>
            <Time>2018-08-26T07:59:58.000Z</Time>
            <Position>
              <LatitudeDegrees>43.0418796278536319732666015625</LatitudeDegrees>
              <LongitudeDegrees>-1.75537378527224063873291015625</LongitudeDegrees>
            </Position>
            <AltitudeMeters>671.79998779296875</AltitudeMeters>
            <DistanceMeters>58026.800989722</DistanceMeters>
          </Trackpoint>
          <Trackpoint>
            <Time>2018-08-26T07:59:59.000Z</Time>
            <Position>
              <LatitudeDegrees>43.041786588728427886962890625</LatitudeDegrees>
              <LongitudeDegrees>-1.75533883273601531982421875</LongitudeDegrees>
            </Position>
            <AltitudeMeters>671.79998779296875</AltitudeMeters>
            <DistanceMeters>58037.53942891</DistanceMeters>
          </Trackpoint>
          <Trackpoint>
            <Time>2018-08-26T08:00:00.000Z</Time>
            <Position>
              <LatitudeDegrees>43.04170369170606136322021484375</LatitudeDegrees>
              <LongitudeDegrees>-1.75528761930763721466064453125</LongitudeDegrees>
            </Position>
            <AltitudeMeters>671.5999755859375</AltitudeMeters>
            <DistanceMeters>58047.662784952</DistanceMeters>
          </Trackpoint>
          <Trackpoint>
            <Time>2018-08-26T08:00:01.000Z</Time>
            <Position>
              <LatitudeDegrees>43.04162406362593173980712890625</LatitudeDegrees>
              <LongitudeDegrees>-1.75523011945188045501708984375</LongitudeDegrees>
            </Position>
            <AltitudeMeters>671.5999755859375</AltitudeMeters>
            <DistanceMeters>58057.683936589</DistanceMeters>
          </Trackpoint>
          <Trackpoint>
            <Time>2018-08-26T08:00:02.000Z</Time>
            <Position>
              <LatitudeDegrees>43.04155700840055942535400390625</LatitudeDegrees>
              <LongitudeDegrees>-1.75515778362751007080078125</LongitudeDegrees>
            </Position>
            <AltitudeMeters>671.5999755859375</AltitudeMeters>
            <DistanceMeters>58067.187558246</DistanceMeters>
          </Trackpoint>
          <Trackpoint>
            <Time>2018-08-26T08:00:03.000Z</Time>
            <Position>
              <LatitudeDegrees>43.0414845049381256103515625</LatitudeDegrees>
              <LongitudeDegrees>-1.75508678890764713287353515625</LongitudeDegrees>
            </Position>
            <AltitudeMeters>671.5999755859375</AltitudeMeters>
            <DistanceMeters>58077.110913707</DistanceMeters>
          </Trackpoint>
          <Trackpoint>
            <Time>2018-08-26T08:00:04.000Z</Time>
            <Position>
              <LatitudeDegrees>43.04140261374413967132568359375</LatitudeDegrees>
              <LongitudeDegrees>-1.75502325408160686492919921875</LongitudeDegrees>
            </Position>
            <AltitudeMeters>671.5999755859375</AltitudeMeters>
            <DistanceMeters>58087.588443919</DistanceMeters>
          </Trackpoint>
          <Trackpoint>
            <Time>2018-08-26T08:00:05.000Z</Time>
            <Position>
              <LatitudeDegrees>43.041325248777866363525390625</LatitudeDegrees>
              <LongitudeDegrees>-1.7549537681043148040771484375</LongitudeDegrees>
            </Position>
            <AltitudeMeters>671.5999755859375</AltitudeMeters>
            <DistanceMeters>58097.888217609</DistanceMeters>
          </Trackpoint>
          <Trackpoint>
            <Time>2018-08-26T08:00:06.000Z</Time>
            <Position>
              <LatitudeDegrees>43.04124754853546619415283203125</LatitudeDegrees>
              <LongitudeDegrees>-1.75488528795540332794189453125</LongitudeDegrees>
            </Position>
            <AltitudeMeters>671.5999755859375</AltitudeMeters>
            <DistanceMeters>58108.174832007</DistanceMeters>
          </Trackpoint>
          <Trackpoint>
            <Time>2018-08-26T08:00:07.000Z</Time>
            <Position>
              <LatitudeDegrees>43.041169680655002593994140625</LatitudeDegrees>
              <LongitudeDegrees>-1.75482041202485561370849609375</LongitudeDegrees>
            </Position>
            <AltitudeMeters>671.79998779296875</AltitudeMeters>
            <DistanceMeters>58118.321798628</DistanceMeters>
          </Trackpoint>
          <Trackpoint>
            <Time>2018-08-26T08:00:08.000Z</Time>
            <Position>
              <LatitudeDegrees>43.0410903878509998321533203125</LatitudeDegrees>
              <LongitudeDegrees>-1.7547613196074962615966796875</LongitudeDegrees>
            </Position>
            <AltitudeMeters>671.79998779296875</AltitudeMeters>
            <DistanceMeters>58128.371294881</DistanceMeters>
          </Trackpoint>
          <Trackpoint>
            <Time>2018-08-26T08:00:09.000Z</Time>
            <Position>
              <LatitudeDegrees>43.04101251997053623199462890625</LatitudeDegrees>
              <LongitudeDegrees>-1.75469820387661457061767578125</LongitudeDegrees>
            </Position>
            <AltitudeMeters>672</AltitudeMeters>
            <DistanceMeters>58138.444126605</DistanceMeters>
          </Trackpoint>
          <Trackpoint>
            <Time>2018-08-26T08:00:10.000Z</Time>
            <Position>
              <LatitudeDegrees>43.0409331433475017547607421875</LatitudeDegrees>
              <LongitudeDegrees>-1.75464690662920475006103515625</LongitudeDegrees>
            </Position>
            <AltitudeMeters>672.20001220703125</AltitudeMeters>
            <DistanceMeters>58148.21433326</DistanceMeters>
          </Trackpoint>
          <Trackpoint>
            <Time>2018-08-26T08:00:11.000Z</Time>
            <Position>
              <LatitudeDegrees>43.04084957577288150787353515625</LatitudeDegrees>
              <LongitudeDegrees>-1.7546124570071697235107421875</LongitudeDegrees>
            </Position>
            <AltitudeMeters>672</AltitudeMeters>
            <DistanceMeters>58157.928462086</DistanceMeters>
          </Trackpoint>
          <Trackpoint>
            <Time>2018-08-26T08:00:12.000Z</Time>
            <Position>
              <LatitudeDegrees>43.04076676256954669952392578125</LatitudeDegrees>
              <LongitudeDegrees>-1.75457381643354892730712890625</LongitudeDegrees>
            </Position>
            <AltitudeMeters>672</AltitudeMeters>
            <DistanceMeters>58167.666730043</DistanceMeters>
          </Trackpoint>
          <Trackpoint>
            <Time>2018-08-26T08:00:13.000Z</Time>
            <Position>
              <LatitudeDegrees>43.04067757911980152130126953125</LatitudeDegrees>
              <LongitudeDegrees>-1.75453274510800838470458984375</LongitudeDegrees>
            </Position>
            <AltitudeMeters>672</AltitudeMeters>
            <DistanceMeters>58178.140381204</DistanceMeters>
          </Trackpoint>
          <Trackpoint>
            <Time>2018-08-26T08:00:14.000Z</Time>
            <Position>
              <LatitudeDegrees>43.04059225134551525115966796875</LatitudeDegrees>
              <LongitudeDegrees>-1.75449234433472156524658203125</LongitudeDegrees>
            </Position>
            <AltitudeMeters>672</AltitudeMeters>
            <DistanceMeters>58188.189877458</DistanceMeters>
          </Trackpoint>
          <Trackpoint>
            <Time>2018-08-26T08:00:15.000Z</Time>
            <Position>
              <LatitudeDegrees>43.04050927050411701202392578125</LatitudeDegrees>
              <LongitudeDegrees>-1.7544542066752910614013671875</LongitudeDegrees>
            </Position>
            <AltitudeMeters>672</AltitudeMeters>
            <DistanceMeters>58197.932780699</DistanceMeters>
          </Trackpoint>
          <Trackpoint>
            <Time>2018-08-26T08:00:16.000Z</Time>
            <Position>
              <LatitudeDegrees>43.0404272116720676422119140625</LatitudeDegrees>
              <LongitudeDegrees>-1.75441573373973369598388671875</LongitudeDegrees>
            </Position>
            <AltitudeMeters>672</AltitudeMeters>
            <DistanceMeters>58207.587232991</DistanceMeters>
          </Trackpoint>
          <Trackpoint>
            <Time>2018-08-26T08:00:17.000Z</Time>
            <Position>
              <LatitudeDegrees>43.04034029133617877960205078125</LatitudeDegrees>
              <LongitudeDegrees>-1.7543754167854785919189453125</LongitudeDegrees>
            </Position>
            <AltitudeMeters>672</AltitudeMeters>
            <DistanceMeters>58217.802494289</DistanceMeters>
          </Trackpoint>
          <Trackpoint>
            <Time>2018-08-26T08:00:18.000Z</Time>
            <Position>
              <LatitudeDegrees>43.04025999270379543304443359375</LatitudeDegrees>
              <LongitudeDegrees>-1.7543294839560985565185546875</LongitudeDegrees>
            </Position>
            <AltitudeMeters>672</AltitudeMeters>
            <DistanceMeters>58227.489627735</DistanceMeters>
          </Trackpoint>
          <Trackpoint>
            <Time>2018-08-26T08:00:19.000Z</Time>
            <Position>
              <LatitudeDegrees>43.04017969407141208648681640625</LatitudeDegrees>
              <LongitudeDegrees>-1.75427458249032497406005859375</LongitudeDegrees>
            </Position>
            <AltitudeMeters>672</AltitudeMeters>
            <DistanceMeters>58237.480546863</DistanceMeters>
          </Trackpoint>
          <Trackpoint>
            <Time>2018-08-26T08:00:20.000Z</Time>
            <Position>
              <LatitudeDegrees>43.040104843676090240478515625</LatitudeDegrees>
              <LongitudeDegrees>-1.754213981330394744873046875</LongitudeDegrees>
            </Position>
            <AltitudeMeters>672</AltitudeMeters>
            <DistanceMeters>58247.160686493</DistanceMeters>
          </Trackpoint>
          <Trackpoint>
            <Time>2018-08-26T08:00:21.000Z</Time>
            <Position>
              <LatitudeDegrees>43.04002915509045124053955078125</LatitudeDegrees>
              <LongitudeDegrees>-1.7541534639894962310791015625</LongitudeDegrees>
            </Position>
            <AltitudeMeters>671.79998779296875</AltitudeMeters>
            <DistanceMeters>58256.917945122</DistanceMeters>
          </Trackpoint>
          <Trackpoint>
            <Time>2018-08-26T08:00:22.000Z</Time>
            <Position>
              <LatitudeDegrees>43.03995229303836822509765625</LatitudeDegrees>
              <LongitudeDegrees>-1.754089929163455963134765625</LongitudeDegrees>
            </Position>
            <AltitudeMeters>671.5999755859375</AltitudeMeters>
            <DistanceMeters>58266.912478909</DistanceMeters>
          </Trackpoint>
          <Trackpoint>
            <Time>2018-08-26T08:00:23.000Z</Time>
            <Position>
              <LatitudeDegrees>43.03987853229045867919921875</LatitudeDegrees>
              <LongitudeDegrees>-1.754023544490337371826171875</LongitudeDegrees>
            </Position>
            <AltitudeMeters>671.4000244140625</AltitudeMeters>
            <DistanceMeters>58276.739362316</DistanceMeters>
          </Trackpoint>
          <Trackpoint>
            <Time>2018-08-26T08:00:24.000Z</Time>
            <Position>
              <LatitudeDegrees>43.0398015864193439483642578125</LatitudeDegrees>
              <LongitudeDegrees>-1.75396294333040714263916015625</LongitudeDegrees>
            </Position>
            <AltitudeMeters>671.20001220703125</AltitudeMeters>
            <DistanceMeters>58286.62122685</DistanceMeters>
          </Trackpoint>
          <Trackpoint>
            <Time>2018-08-26T08:00:25.000Z</Time>
            <Position>
              <LatitudeDegrees>43.03972271271049976348876953125</LatitudeDegrees>
              <LongitudeDegrees>-1.7538939602673053741455078125</LongitudeDegrees>
            </Position>
            <AltitudeMeters>671.20001220703125</AltitudeMeters>
            <DistanceMeters>58297.040419669</DistanceMeters>
          </Trackpoint>
          <Trackpoint>
            <Time>2018-08-26T08:00:26.000Z</Time>
            <Position>
              <LatitudeDegrees>43.03964325226843357086181640625</LatitudeDegrees>
              <LongitudeDegrees>-1.75382849760353565216064453125</LongitudeDegrees>
            </Position>
            <AltitudeMeters>671</AltitudeMeters>
            <DistanceMeters>58307.363837814</DistanceMeters>
          </Trackpoint>
          <Trackpoint>
            <Time>2018-08-26T08:00:27.000Z</Time>
            <Position>
              <LatitudeDegrees>43.0395605228841304779052734375</LatitudeDegrees>
              <LongitudeDegrees>-1.75376127474009990692138671875</LongitudeDegrees>
            </Position>
            <AltitudeMeters>671</AltitudeMeters>
            <DistanceMeters>58318.072804657</DistanceMeters>
          </Trackpoint>
          <Trackpoint>
            <Time>2018-08-26T08:00:28.000Z</Time>
            <Position>
              <LatitudeDegrees>43.0394782125949859619140625</LatitudeDegrees>
              <LongitudeDegrees>-1.753693632781505584716796875</LongitudeDegrees>
            </Position>
            <AltitudeMeters>671</AltitudeMeters>
            <DistanceMeters>58328.758980152</DistanceMeters>
          </Trackpoint>
          <Trackpoint>
            <Time>2018-08-26T08:00:29.000Z</Time>
            <Position>
              <LatitudeDegrees>43.03939263336360454559326171875</LatitudeDegrees>
              <LongitudeDegrees>-1.7536337859928607940673828125</LongitudeDegrees>
            </Position>
            <AltitudeMeters>670.79998779296875</AltitudeMeters>
            <DistanceMeters>58339.45655739</DistanceMeters>
          </Trackpoint>
          <Trackpoint>
            <Time>2018-08-26T08:00:30.000Z</Time>
            <Position>
              <LatitudeDegrees>43.03929909132421016693115234375</LatitudeDegrees>
              <LongitudeDegrees>-1.75358005799353122711181640625</LongitudeDegrees>
            </Position>
            <AltitudeMeters>670.79998779296875</AltitudeMeters>
            <DistanceMeters>58350.748354386</DistanceMeters>
          </Trackpoint>
          <Trackpoint>
            <Time>2018-08-26T08:00:31.000Z</Time>
            <Position>
              <LatitudeDegrees>43.0392007716000080108642578125</LatitudeDegrees>
              <LongitudeDegrees>-1.7535352148115634918212890625</LongitudeDegrees>
            </Position>
            <AltitudeMeters>670.79998779296875</AltitudeMeters>
            <DistanceMeters>58362.283830383</DistanceMeters>
          </Trackpoint>
          <Trackpoint>
            <Time>2018-08-26T08:00:32.000Z</Time>
            <Position>
              <LatitudeDegrees>43.0391032062470912933349609375</LatitudeDegrees>
              <LongitudeDegrees>-1.7535097338259220123291015625</LongitudeDegrees>
            </Position>
            <AltitudeMeters>670.79998779296875</AltitudeMeters>
            <DistanceMeters>58373.33924013</DistanceMeters>
          </Trackpoint>
          <Trackpoint>
            <Time>2018-08-26T08:00:33.000Z</Time>
            <Position>
              <LatitudeDegrees>43.038999773561954498291015625</LatitudeDegrees>
              <LongitudeDegrees>-1.75351115874946117401123046875</LongitudeDegrees>
            </Position>
            <AltitudeMeters>670.5999755859375</AltitudeMeters>
            <DistanceMeters>58384.851992279</DistanceMeters>
          </Trackpoint>
          <Trackpoint>
            <Time>2018-08-26T08:00:34.000Z</Time>
            <Position>
              <LatitudeDegrees>43.0388923175632953643798828125</LatitudeDegrees>
              <LongitudeDegrees>-1.75353026948869228363037109375</LongitudeDegrees>
            </Position>
            <AltitudeMeters>670.4000244140625</AltitudeMeters>
            <DistanceMeters>58396.912525905</DistanceMeters>
          </Trackpoint>
          <Trackpoint>
            <Time>2018-08-26T08:00:35.000Z</Time>
            <Position>
              <LatitudeDegrees>43.0387800000607967376708984375</LatitudeDegrees>
              <LongitudeDegrees>-1.75356262363493442535400390625</LongitudeDegrees>
            </Position>
            <AltitudeMeters>670</AltitudeMeters>
            <DistanceMeters>58409.687523814</DistanceMeters>
          </Trackpoint>
          <Trackpoint>
            <Time>2018-08-26T08:00:36.000Z</Time>
            <Position>
              <LatitudeDegrees>43.03867422044277191162109375</LatitudeDegrees>
              <LongitudeDegrees>-1.75361819565296173095703125</LongitudeDegrees>
            </Position>
            <AltitudeMeters>669.5999755859375</AltitudeMeters>
            <DistanceMeters>58422.29889711</DistanceMeters>
          </Trackpoint>
          <Trackpoint>
            <Time>2018-08-26T08:00:37.000Z</Time>
            <Position>
              <LatitudeDegrees>43.038578666746616363525390625</LatitudeDegrees>
              <LongitudeDegrees>-1.753692962229251861572265625</LongitudeDegrees>
            </Position>
            <AltitudeMeters>669</AltitudeMeters>
            <DistanceMeters>58434.551080214</DistanceMeters>
          </Trackpoint>
          <Trackpoint>
            <Time>2018-08-26T08:00:38.000Z</Time>
            <Position>
              <LatitudeDegrees>43.03849107585847377777099609375</LatitudeDegrees>
              <LongitudeDegrees>-1.75378357060253620147705078125</LongitudeDegrees>
            </Position>
            <AltitudeMeters>668.4000244140625</AltitudeMeters>
            <DistanceMeters>58446.773008234</DistanceMeters>
          </Trackpoint>
          <Trackpoint>
            <Time>2018-08-26T08:00:39.000Z</Time>
            <Position>
              <LatitudeDegrees>43.03841982968151569366455078125</LatitudeDegrees>
              <LongitudeDegrees>-1.7538959719240665435791015625</LongitudeDegrees>
            </Position>
            <AltitudeMeters>667.5999755859375</AltitudeMeters>
            <DistanceMeters>58458.876144194</DistanceMeters>
          </Trackpoint>
          <Trackpoint>
            <Time>2018-08-26T08:00:40.000Z</Time>
            <Position>
              <LatitudeDegrees>43.038364090025424957275390625</LatitudeDegrees>
              <LongitudeDegrees>-1.7540267296135425567626953125</LongitudeDegrees>
            </Position>
            <AltitudeMeters>666.79998779296875</AltitudeMeters>
            <DistanceMeters>58471.190081162</DistanceMeters>
          </Trackpoint>
          <Trackpoint>
            <Time>2018-08-26T08:00:41.000Z</Time>
            <Position>
              <LatitudeDegrees>43.0383248627185821533203125</LatitudeDegrees>
              <LongitudeDegrees>-1.75416410900652408599853515625</LongitudeDegrees>
            </Position>
            <AltitudeMeters>666.20001220703125</AltitudeMeters>
            <DistanceMeters>58483.188309309</DistanceMeters>
          </Trackpoint>
          <Trackpoint>
            <Time>2018-08-26T08:00:42.000Z</Time>
            <Position>
              <LatitudeDegrees>43.03831153549253940582275390625</LatitudeDegrees>
              <LongitudeDegrees>-1.7543216049671173095703125</LongitudeDegrees>
            </Position>
            <AltitudeMeters>665.5999755859375</AltitudeMeters>
            <DistanceMeters>58496.086063697</DistanceMeters>
          </Trackpoint>
          <Trackpoint>
            <Time>2018-08-26T08:00:43.000Z</Time>
            <Position>
              <LatitudeDegrees>43.0382965318858623504638671875</LatitudeDegrees>
              <LongitudeDegrees>-1.75447440706193447113037109375</LongitudeDegrees>
            </Position>
            <AltitudeMeters>664.79998779296875</AltitudeMeters>
            <DistanceMeters>58508.628150113</DistanceMeters>
          </Trackpoint>
          <Trackpoint>
            <Time>2018-08-26T08:00:44.000Z</Time>
            <Position>
              <LatitudeDegrees>43.03827784024178981781005859375</LatitudeDegrees>
              <LongitudeDegrees>-1.7546178214251995086669921875</LongitudeDegrees>
            </Position>
            <AltitudeMeters>664.4000244140625</AltitudeMeters>
            <DistanceMeters>58520.478709123</DistanceMeters>
          </Trackpoint>
          <Trackpoint>
            <Time>2018-08-26T08:00:45.000Z</Time>
            <Position>
              <LatitudeDegrees>43.0382589809596538543701171875</LatitudeDegrees>
              <LongitudeDegrees>-1.75476458854973316192626953125</LongitudeDegrees>
            </Position>
            <AltitudeMeters>663.5999755859375</AltitudeMeters>
            <DistanceMeters>58532.601228005</DistanceMeters>
          </Trackpoint>
          <Trackpoint>
            <Time>2018-08-26T08:00:46.000Z</Time>
            <Position>
              <LatitudeDegrees>43.03824246861040592193603515625</LatitudeDegrees>
              <LongitudeDegrees>-1.75491127185523509979248046875</LongitudeDegrees>
            </Position>
            <AltitudeMeters>663</AltitudeMeters>
            <DistanceMeters>58544.674483322</DistanceMeters>
          </Trackpoint>
          <Trackpoint>
            <Time>2018-08-26T08:00:47.000Z</Time>
            <Position>
              <LatitudeDegrees>43.03821950219571590423583984375</LatitudeDegrees>
              <LongitudeDegrees>-1.75505091436207294464111328125</LongitudeDegrees>
            </Position>
            <AltitudeMeters>662.5999755859375</AltitudeMeters>
            <DistanceMeters>58556.318261392</DistanceMeters>
          </Trackpoint>
          <Trackpoint>
            <Time>2018-08-26T08:00:48.000Z</Time>
            <Position>
              <LatitudeDegrees>43.0381899140775203704833984375</LatitudeDegrees>
              <LongitudeDegrees>-1.75518468953669071197509765625</LongitudeDegrees>
            </Position>
            <AltitudeMeters>662.20001220703125</AltitudeMeters>
            <DistanceMeters>58567.687762009</DistanceMeters>
          </Trackpoint>
          <Trackpoint>
            <Time>2018-08-26T08:00:49.000Z</Time>
            <Position>
              <LatitudeDegrees>43.0381466634571552276611328125</LatitudeDegrees>
              <LongitudeDegrees>-1.75531343556940555572509765625</LongitudeDegrees>
            </Position>
            <AltitudeMeters>661.79998779296875</AltitudeMeters>
            <DistanceMeters>58579.214623889</DistanceMeters>
          </Trackpoint>
          <Trackpoint>
            <Time>2018-08-26T08:00:50.000Z</Time>
            <Position>
              <LatitudeDegrees>43.03808203898370265960693359375</LatitudeDegrees>
              <LongitudeDegrees>-1.75542826764285564422607421875</LongitudeDegrees>
            </Position>
            <AltitudeMeters>661.4000244140625</AltitudeMeters>
            <DistanceMeters>58591.004065633</DistanceMeters>
          </Trackpoint>
          <Trackpoint>
            <Time>2018-08-26T08:00:51.000Z</Time>
            <Position>
              <LatitudeDegrees>43.0380078591406345367431640625</LatitudeDegrees>
              <LongitudeDegrees>-1.7555301077663898468017578125</LongitudeDegrees>
            </Position>
            <AltitudeMeters>660.79998779296875</AltitudeMeters>
            <DistanceMeters>58602.700460724</DistanceMeters>
          </Trackpoint>
          <Trackpoint>
            <Time>2018-08-26T08:00:52.000Z</Time>
            <Position>
              <LatitudeDegrees>43.03792781196534633636474609375</LatitudeDegrees>
              <LongitudeDegrees>-1.75561987794935703277587890625</LongitudeDegrees>
            </Position>
            <AltitudeMeters>660.20001220703125</AltitudeMeters>
            <DistanceMeters>58614.220269899</DistanceMeters>
          </Trackpoint>
          <Trackpoint>
            <Time>2018-08-26T08:00:53.000Z</Time>
            <Position>
              <LatitudeDegrees>43.0378449149429798126220703125</LatitudeDegrees>
              <LongitudeDegrees>-1.75570822320878505706787109375</LongitudeDegrees>
            </Position>
            <AltitudeMeters>659.5999755859375</AltitudeMeters>
            <DistanceMeters>58625.915892925</DistanceMeters>
          </Trackpoint>
          <Trackpoint>
            <Time>2018-08-26T08:00:54.000Z</Time>
            <Position>
              <LatitudeDegrees>43.037768304347991943359375</LatitudeDegrees>
              <LongitudeDegrees>-1.75580394454300403594970703125</LongitudeDegrees>
            </Position>
            <AltitudeMeters>658.5999755859375</AltitudeMeters>
            <DistanceMeters>58637.463105089</DistanceMeters>
          </Trackpoint>
          <Trackpoint>
            <Time>2018-08-26T08:00:55.000Z</Time>
            <Position>
              <LatitudeDegrees>43.03769647143781185150146484375</LatitudeDegrees>
              <LongitudeDegrees>-1.7559025995433330535888671875</LongitudeDegrees>
            </Position>
            <AltitudeMeters>658</AltitudeMeters>
            <DistanceMeters>58648.791628666</DistanceMeters>
          </Trackpoint>
          <Trackpoint>
            <Time>2018-08-26T08:00:56.000Z</Time>
            <Position>
              <LatitudeDegrees>43.03762103430926799774169921875</LatitudeDegrees>
              <LongitudeDegrees>-1.75599857233464717864990234375</LongitudeDegrees>
            </Position>
            <AltitudeMeters>657.5999755859375</AltitudeMeters>
            <DistanceMeters>58660.257222975</DistanceMeters>
          </Trackpoint>
          <Trackpoint>
            <Time>2018-08-26T08:00:57.000Z</Time>
            <Position>
              <LatitudeDegrees>43.03754978813230991363525390625</LatitudeDegrees>
              <LongitudeDegrees>-1.7560980655252933502197265625</LongitudeDegrees>
            </Position>
            <AltitudeMeters>657.20001220703125</AltitudeMeters>
            <DistanceMeters>58671.588137629</DistanceMeters>
          </Trackpoint>
          <Trackpoint>
            <Time>2018-08-26T08:00:58.000Z</Time>
            <Position>
              <LatitudeDegrees>43.0374761112034320831298828125</LatitudeDegrees>
              <LongitudeDegrees>-1.75619185902178287506103515625</LongitudeDegrees>
            </Position>
            <AltitudeMeters>657</AltitudeMeters>
            <DistanceMeters>58682.789606826</DistanceMeters>
          </Trackpoint>
          <Trackpoint>
            <Time>2018-08-26T08:00:59.000Z</Time>
            <Position>
              <LatitudeDegrees>43.0373158492147922515869140625</LatitudeDegrees>
              <LongitudeDegrees>-1.7563600838184356689453125</LongitudeDegrees>
            </Position>
            <AltitudeMeters>656.79998779296875</AltitudeMeters>
            <DistanceMeters>58705.271810875</DistanceMeters>
          </Trackpoint>
          <Trackpoint>
            <Time>2018-08-26T08:01:00.000Z</Time>
            <Position>
              <LatitudeDegrees>43.0372075550258159637451171875</LatitudeDegrees>
              <LongitudeDegrees>-1.756411381065845489501953125</LongitudeDegrees>
            </Position>
            <AltitudeMeters>656.5999755859375</AltitudeMeters>
            <DistanceMeters>58718.026647495</DistanceMeters>
          </Trackpoint>
          <Trackpoint>
            <Time>2018-08-26T08:01:01.000Z</Time>
            <Position>
              <LatitudeDegrees>43.0372075550258159637451171875</LatitudeDegrees>
              <LongitudeDegrees>-1.756411381065845489501953125</LongitudeDegrees>
            </Position>
            <AltitudeMeters>656.4000244140625</AltitudeMeters>
            <DistanceMeters>58718.026647495</DistanceMeters>
          </Trackpoint>
          <Trackpoint>
            <Time>2018-08-26T08:01:02.000Z</Time>
            <Position>
              <LatitudeDegrees>43.03710051812231540679931640625</LatitudeDegrees>
              <LongitudeDegrees>-1.75644834525883197784423828125</LongitudeDegrees>
            </Position>
            <AltitudeMeters>656</AltitudeMeters>
            <DistanceMeters>58730.313421604</DistanceMeters>
          </Trackpoint>
          <Trackpoint>
            <Time>2018-08-26T08:01:03.000Z</Time>
            <Position>
              <LatitudeDegrees>43.03698618896305561065673828125</LatitudeDegrees>
              <LongitudeDegrees>-1.75647751428186893463134765625</LongitudeDegrees>
            </Position>
            <AltitudeMeters>655.79998779296875</AltitudeMeters>
            <DistanceMeters>58743.257301947</DistanceMeters>
          </Trackpoint>
          <Trackpoint>
            <Time>2018-08-26T08:01:04.000Z</Time>
            <Position>
              <LatitudeDegrees>43.03686850704252719879150390625</LatitudeDegrees>
              <LongitudeDegrees>-1.756501235067844390869140625</LongitudeDegrees>
            </Position>
            <AltitudeMeters>655.4000244140625</AltitudeMeters>
            <DistanceMeters>58756.496402512</DistanceMeters>
          </Trackpoint>
          <Trackpoint>
            <Time>2018-08-26T08:01:05.000Z</Time>
            <Position>
              <LatitudeDegrees>43.03675048984587192535400390625</LatitudeDegrees>
              <LongitudeDegrees>-1.75652143545448780059814453125</LongitudeDegrees>
            </Position>
            <AltitudeMeters>654.79998779296875</AltitudeMeters>
            <DistanceMeters>58769.734138855</DistanceMeters>
          </Trackpoint>
          <Trackpoint>
            <Time>2018-08-26T08:01:06.000Z</Time>
            <Position>
              <LatitudeDegrees>43.0366216599941253662109375</LatitudeDegrees>
              <LongitudeDegrees>-1.75653803162276744842529296875</LongitudeDegrees>
            </Position>
            <AltitudeMeters>654.20001220703125</AltitudeMeters>
            <DistanceMeters>58784.136565247</DistanceMeters>
          </Trackpoint>
          <Trackpoint>
            <Time>2018-08-26T08:01:07.000Z</Time>
            <Position>
              <LatitudeDegrees>43.03651546128094196319580078125</LatitudeDegrees>
              <LongitudeDegrees>-1.756534762680530548095703125</LongitudeDegrees>
            </Position>
            <AltitudeMeters>653.4000244140625</AltitudeMeters>
            <DistanceMeters>58795.960042461</DistanceMeters>
          </Trackpoint>
          <Trackpoint>
            <Time>2018-08-26T08:01:08.000Z</Time>
            <Position>
              <LatitudeDegrees>43.03640482015907764434814453125</LatitudeDegrees>
              <LongitudeDegrees>-1.756515987217426300048828125</LongitudeDegrees>
            </Position>
            <AltitudeMeters>652.5999755859375</AltitudeMeters>
            <DistanceMeters>58808.369308902</DistanceMeters>
          </Trackpoint>
          <Trackpoint>
            <Time>2018-08-26T08:01:09.000Z</Time>
            <Position>
              <LatitudeDegrees>43.03618169389665126800537109375</LatitudeDegrees>
              <LongitudeDegrees>-1.75648388452827930450439453125</LongitudeDegrees>
            </Position>
            <AltitudeMeters>652</AltitudeMeters>
            <DistanceMeters>58833.340731145</DistanceMeters>
          </Trackpoint>
          <Trackpoint>
            <Time>2018-08-26T08:01:10.000Z</Time>
            <Position>
              <LatitudeDegrees>43.03618169389665126800537109375</LatitudeDegrees>
              <LongitudeDegrees>-1.75648388452827930450439453125</LongitudeDegrees>
            </Position>
            <AltitudeMeters>651.5999755859375</AltitudeMeters>
            <DistanceMeters>58833.340731145</DistanceMeters>
          </Trackpoint>
          <Trackpoint>
            <Time>2018-08-26T08:01:11.000Z</Time>
            <Position>
              <LatitudeDegrees>43.0359779298305511474609375</LatitudeDegrees>
              <LongitudeDegrees>-1.756426803767681121826171875</LongitudeDegrees>
            </Position>
            <AltitudeMeters>651.20001220703125</AltitudeMeters>
            <DistanceMeters>58856.490611853</DistanceMeters>
          </Trackpoint>
          <Trackpoint>
            <Time>2018-08-26T08:01:12.000Z</Time>
            <Position>
              <LatitudeDegrees>43.0358768440783023834228515625</LatitudeDegrees>
              <LongitudeDegrees>-1.75638221204280853271484375</LongitudeDegrees>
            </Position>
            <AltitudeMeters>651</AltitudeMeters>
            <DistanceMeters>58868.311797621</DistanceMeters>
          </Trackpoint>
          <Trackpoint>
            <Time>2018-08-26T08:01:13.000Z</Time>
            <Position>
              <LatitudeDegrees>43.03578204475343227386474609375</LatitudeDegrees>
              <LongitudeDegrees>-1.75632211379706859588623046875</LongitudeDegrees>
            </Position>
            <AltitudeMeters>650.5999755859375</AltitudeMeters>
            <DistanceMeters>58879.940831323</DistanceMeters>
          </Trackpoint>
          <Trackpoint>
            <Time>2018-08-26T08:01:14.000Z</Time>
            <Position>
              <LatitudeDegrees>43.03578204475343227386474609375</LatitudeDegrees>
              <LongitudeDegrees>-1.75632211379706859588623046875</LongitudeDegrees>
            </Position>
            <AltitudeMeters>650.20001220703125</AltitudeMeters>
            <DistanceMeters>58879.940831323</DistanceMeters>
          </Trackpoint>
          <Trackpoint>
            <Time>2018-08-26T08:01:15.000Z</Time>
            <Position>
              <LatitudeDegrees>43.0356994830071926116943359375</LatitudeDegrees>
              <LongitudeDegrees>-1.75623661838471889495849609375</LongitudeDegrees>
            </Position>
            <AltitudeMeters>650.20001220703125</AltitudeMeters>
            <DistanceMeters>58891.466126308</DistanceMeters>
          </Trackpoint>
          <Trackpoint>
            <Time>2018-08-26T08:01:16.000Z</Time>
            <Position>
              <LatitudeDegrees>43.0356247164309024810791015625</LatitudeDegrees>
              <LongitudeDegrees>-1.75614978186786174774169921875</LongitudeDegrees>
            </Position>
            <AltitudeMeters>650</AltitudeMeters>
            <DistanceMeters>58902.382210255</DistanceMeters>
          </Trackpoint>
          <Trackpoint>
            <Time>2018-08-26T08:01:17.000Z</Time>
            <Position>
              <LatitudeDegrees>43.03555372171103954315185546875</LatitudeDegrees>
              <LongitudeDegrees>-1.75605389289557933807373046875</LongitudeDegrees>
            </Position>
            <AltitudeMeters>650</AltitudeMeters>
            <DistanceMeters>58913.486113342</DistanceMeters>
          </Trackpoint>
          <Trackpoint>
            <Time>2018-08-26T08:01:18.000Z</Time>
            <Position>
              <LatitudeDegrees>43.03549177944660186767578125</LatitudeDegrees>
              <LongitudeDegrees>-1.75594903528690338134765625</LongitudeDegrees>
            </Position>
            <AltitudeMeters>649.79998779296875</AltitudeMeters>
            <DistanceMeters>58924.455012035</DistanceMeters>
          </Trackpoint>
          <Trackpoint>
            <Time>2018-08-26T08:01:19.000Z</Time>
            <Position>
              <LatitudeDegrees>43.03546202369034290313720703125</LatitudeDegrees>
              <LongitudeDegrees>-1.75582607276737689971923828125</LongitudeDegrees>
            </Position>
            <AltitudeMeters>649.5999755859375</AltitudeMeters>
            <DistanceMeters>58934.99227069</DistanceMeters>
          </Trackpoint>
          <Trackpoint>
            <Time>2018-08-26T08:01:20.000Z</Time>
            <Position>
              <LatitudeDegrees>43.0354289151728153228759765625</LatitudeDegrees>
              <LongitudeDegrees>-1.75570570863783359527587890625</LongitudeDegrees>
            </Position>
            <AltitudeMeters>649.4000244140625</AltitudeMeters>
            <DistanceMeters>58945.454707627</DistanceMeters>
          </Trackpoint>
          <Trackpoint>
            <Time>2018-08-26T08:01:21.000Z</Time>
            <Position>
              <LatitudeDegrees>43.03537501953542232513427734375</LatitudeDegrees>
              <LongitudeDegrees>-1.75560093484818935394287109375</LongitudeDegrees>
            </Position>
            <AltitudeMeters>649.20001220703125</AltitudeMeters>
            <DistanceMeters>58955.877799764</DistanceMeters>
          </Trackpoint>
          <Trackpoint>
            <Time>2018-08-26T08:01:22.000Z</Time>
            <Position>
              <LatitudeDegrees>43.0353046953678131103515625</LatitudeDegrees>
              <LongitudeDegrees>-1.75550957210361957550048828125</LongitudeDegrees>
            </Position>
            <AltitudeMeters>648.79998779296875</AltitudeMeters>
            <DistanceMeters>58966.672432987</DistanceMeters>
          </Trackpoint>
          <Trackpoint>
            <Time>2018-08-26T08:01:23.000Z</Time>
            <Position>
              <LatitudeDegrees>43.03523303009569644927978515625</LatitudeDegrees>
              <LongitudeDegrees>-1.755421645939350128173828125</LongitudeDegrees>
            </Position>
            <AltitudeMeters>648.20001220703125</AltitudeMeters>
            <DistanceMeters>58977.38645799</DistanceMeters>
          </Trackpoint>
          <Trackpoint>
            <Time>2018-08-26T08:01:24.000Z</Time>
            <Position>
              <LatitudeDegrees>43.0351355485618114471435546875</LatitudeDegrees>
              <LongitudeDegrees>-1.75534310750663280487060546875</LongitudeDegrees>
            </Position>
            <AltitudeMeters>648</AltitudeMeters>
            <DistanceMeters>58989.978125163</DistanceMeters>
          </Trackpoint>
          <Trackpoint>
            <Time>2018-08-26T08:01:25.000Z</Time>
            <Position>
              <LatitudeDegrees>43.0350363068282604217529296875</LatitudeDegrees>
              <LongitudeDegrees>-1.7552872002124786376953125</LongitudeDegrees>
            </Position>
            <AltitudeMeters>648</AltitudeMeters>
            <DistanceMeters>59001.923553911</DistanceMeters>
          </Trackpoint>
          <Trackpoint>
            <Time>2018-08-26T08:01:26.000Z</Time>
            <Position>
              <LatitudeDegrees>43.03492407314479351043701171875</LatitudeDegrees>
              <LongitudeDegrees>-1.7552501522004604339599609375</LongitudeDegrees>
            </Position>
            <AltitudeMeters>647.79998779296875</AltitudeMeters>
            <DistanceMeters>59014.773962773</DistanceMeters>
          </Trackpoint>
          <Trackpoint>
            <Time>2018-08-26T08:01:27.000Z</Time>
            <Position>
              <LatitudeDegrees>43.03480991162359714508056640625</LatitudeDegrees>
              <LongitudeDegrees>-1.75522257573902606964111328125</LongitudeDegrees>
            </Position>
            <AltitudeMeters>647.5999755859375</AltitudeMeters>
            <DistanceMeters>59027.676617125</DistanceMeters>
          </Trackpoint>
          <Trackpoint>
            <Time>2018-08-26T08:01:28.000Z</Time>
            <Position>
              <LatitudeDegrees>43.03469591774046421051025390625</LatitudeDegrees>
              <LongitudeDegrees>-1.75520346499979496002197265625</LongitudeDegrees>
            </Position>
            <AltitudeMeters>647.5999755859375</AltitudeMeters>
            <DistanceMeters>59040.459034861</DistanceMeters>
          </Trackpoint>
          <Trackpoint>
            <Time>2018-08-26T08:01:29.000Z</Time>
            <Position>
              <LatitudeDegrees>43.03457924164831638336181640625</LatitudeDegrees>
              <LongitudeDegrees>-1.75520329736173152923583984375</LongitudeDegrees>
            </Position>
            <AltitudeMeters>647.20001220703125</AltitudeMeters>
            <DistanceMeters>59053.445053404</DistanceMeters>
          </Trackpoint>
          <Trackpoint>
            <Time>2018-08-26T08:01:30.000Z</Time>
            <Position>
              <LatitudeDegrees>43.0344653315842151641845703125</LatitudeDegrees>
              <LongitudeDegrees>-1.75523850135505199432373046875</LongitudeDegrees>
            </Position>
            <AltitudeMeters>646.79998779296875</AltitudeMeters>
            <DistanceMeters>59066.442887846</DistanceMeters>
          </Trackpoint>
          <Trackpoint>
            <Time>2018-08-26T08:01:31.000Z</Time>
            <Position>
              <LatitudeDegrees>43.03435075096786022186279296875</LatitudeDegrees>
              <LongitudeDegrees>-1.75528921186923980712890625</LongitudeDegrees>
            </Position>
            <AltitudeMeters>646.4000244140625</AltitudeMeters>
            <DistanceMeters>59079.846708232</DistanceMeters>
          </Trackpoint>
          <Trackpoint>
            <Time>2018-08-26T08:01:32.000Z</Time>
            <Position>
              <LatitudeDegrees>43.034240193665027618408203125</LatitudeDegrees>
              <LongitudeDegrees>-1.755363978445529937744140625</LongitudeDegrees>
            </Position>
            <AltitudeMeters>645.79998779296875</AltitudeMeters>
            <DistanceMeters>59093.573382085</DistanceMeters>
          </Trackpoint>
          <Trackpoint>
            <Time>2018-08-26T08:01:33.000Z</Time>
            <Position>
              <LatitudeDegrees>43.03413324058055877685546875</LatitudeDegrees>
              <LongitudeDegrees>-1.7554556764662265777587890625</LongitudeDegrees>
            </Position>
            <AltitudeMeters>645.20001220703125</AltitudeMeters>
            <DistanceMeters>59107.621917623</DistanceMeters>
          </Trackpoint>
          <Trackpoint>
            <Time>2018-08-26T08:01:34.000Z</Time>
            <Position>
              <LatitudeDegrees>43.03402838297188282012939453125</LatitudeDegrees>
              <LongitudeDegrees>-1.75555584020912647247314453125</LongitudeDegrees>
            </Position>
            <AltitudeMeters>644.4000244140625</AltitudeMeters>
            <DistanceMeters>59121.856272377</DistanceMeters>
          </Trackpoint>
          <Trackpoint>
            <Time>2018-08-26T08:01:35.000Z</Time>
            <Position>
              <LatitudeDegrees>43.033922016620635986328125</LatitudeDegrees>
              <LongitudeDegrees>-1.75566111691296100616455078125</LongitudeDegrees>
            </Position>
            <AltitudeMeters>643.79998779296875</AltitudeMeters>
            <DistanceMeters>59136.468773449</DistanceMeters>
          </Trackpoint>
          <Trackpoint>
            <Time>2018-08-26T08:01:36.000Z</Time>
            <Position>
              <LatitudeDegrees>43.03381363861262798309326171875</LatitudeDegrees>
              <LongitudeDegrees>-1.75576798617839813232421875</LongitudeDegrees>
            </Position>
            <AltitudeMeters>643.4000244140625</AltitudeMeters>
            <DistanceMeters>59151.338252987</DistanceMeters>
          </Trackpoint>
          <Trackpoint>
            <Time>2018-08-26T08:01:37.000Z</Time>
            <Position>
              <LatitudeDegrees>43.033706434071063995361328125</LatitudeDegrees>
              <LongitudeDegrees>-1.75587837584316730499267578125</LongitudeDegrees>
            </Position>
            <AltitudeMeters>642.79998779296875</AltitudeMeters>
            <DistanceMeters>59166.27257112</DistanceMeters>
          </Trackpoint>
          <Trackpoint>
            <Time>2018-08-26T08:01:38.000Z</Time>
            <Position>
              <LatitudeDegrees>43.03360844962298870086669921875</LatitudeDegrees>
              <LongitudeDegrees>-1.756008379161357879638671875</LongitudeDegrees>
            </Position>
            <AltitudeMeters>641.79998779296875</AltitudeMeters>
            <DistanceMeters>59181.464665242</DistanceMeters>
          </Trackpoint>
          <Trackpoint>
            <Time>2018-08-26T08:01:39.000Z</Time>
            <Position>
              <LatitudeDegrees>43.03352060727775096893310546875</LatitudeDegrees>
              <LongitudeDegrees>-1.75615615211427211761474609375</LongitudeDegrees>
            </Position>
            <AltitudeMeters>640.79998779296875</AltitudeMeters>
            <DistanceMeters>59196.960722573</DistanceMeters>
          </Trackpoint>
          <Trackpoint>
            <Time>2018-08-26T08:01:40.000Z</Time>
            <Position>
              <LatitudeDegrees>43.03344332613050937652587890625</LatitudeDegrees>
              <LongitudeDegrees>-1.7563166655600070953369140625</LongitudeDegrees>
            </Position>
            <AltitudeMeters>639.4000244140625</AltitudeMeters>
            <DistanceMeters>59212.598320538</DistanceMeters>
          </Trackpoint>
          <Trackpoint>
            <Time>2018-08-26T08:01:41.000Z</Time>
            <Position>
              <LatitudeDegrees>43.033370487391948699951171875</LatitudeDegrees>
              <LongitudeDegrees>-1.75647608935832977294921875</LongitudeDegrees>
            </Position>
            <AltitudeMeters>638</AltitudeMeters>
            <DistanceMeters>59227.893784588</DistanceMeters>
          </Trackpoint>
          <Trackpoint>
            <Time>2018-08-26T08:01:42.000Z</Time>
            <Position>
              <LatitudeDegrees>43.033315837383270263671875</LatitudeDegrees>
              <LongitudeDegrees>-1.75664842128753662109375</LongitudeDegrees>
            </Position>
            <AltitudeMeters>636.5999755859375</AltitudeMeters>
            <DistanceMeters>59243.176845711</DistanceMeters>
          </Trackpoint>
          <Trackpoint>
            <Time>2018-08-26T08:01:43.000Z</Time>
            <Position>
              <LatitudeDegrees>43.0332489497959613800048828125</LatitudeDegrees>
              <LongitudeDegrees>-1.7568018101155757904052734375</LongitudeDegrees>
            </Position>
            <AltitudeMeters>635</AltitudeMeters>
            <DistanceMeters>59257.708167315</DistanceMeters>
          </Trackpoint>
          <Trackpoint>
            <Time>2018-08-26T08:01:44.000Z</Time>
            <Position>
              <LatitudeDegrees>43.03318851627409458160400390625</LatitudeDegrees>
              <LongitudeDegrees>-1.756953857839107513427734375</LongitudeDegrees>
            </Position>
            <AltitudeMeters>633.5999755859375</AltitudeMeters>
            <DistanceMeters>59271.789125681</DistanceMeters>
          </Trackpoint>
          <Trackpoint>
            <Time>2018-08-26T08:01:45.000Z</Time>
            <Position>
              <LatitudeDegrees>43.03312380798161029815673828125</LatitudeDegrees>
              <LongitudeDegrees>-1.75709224306046962738037109375</LongitudeDegrees>
            </Position>
            <AltitudeMeters>632.4000244140625</AltitudeMeters>
            <DistanceMeters>59285.15381468</DistanceMeters>
          </Trackpoint>
          <Trackpoint>
            <Time>2018-08-26T08:01:46.000Z</Time>
            <Position>
              <LatitudeDegrees>43.03305692039430141448974609375</LatitudeDegrees>
              <LongitudeDegrees>-1.75722031854093074798583984375</LongitudeDegrees>
            </Position>
            <AltitudeMeters>631.4000244140625</AltitudeMeters>
            <DistanceMeters>59297.959523885</DistanceMeters>
          </Trackpoint>
          <Trackpoint>
            <Time>2018-08-26T08:01:47.000Z</Time>
            <Position>
              <LatitudeDegrees>43.03298349492251873016357421875</LatitudeDegrees>
              <LongitudeDegrees>-1.75734168849885463714599609375</LongitudeDegrees>
            </Position>
            <AltitudeMeters>630</AltitudeMeters>
            <DistanceMeters>59310.777215206</DistanceMeters>
          </Trackpoint>
          <Trackpoint>
            <Time>2018-08-26T08:01:48.000Z</Time>
            <Position>
              <LatitudeDegrees>43.0329032801091670989990234375</LatitudeDegrees>
              <LongitudeDegrees>-1.7574539221823215484619140625</LongitudeDegrees>
            </Position>
            <AltitudeMeters>629.4000244140625</AltitudeMeters>
            <DistanceMeters>59323.547617729</DistanceMeters>
          </Trackpoint>
          <Trackpoint>
            <Time>2018-08-26T08:01:49.000Z</Time>
            <Position>
              <LatitudeDegrees>43.032819963991641998291015625</LatitudeDegrees>
              <LongitudeDegrees>-1.75756347365677356719970703125</LongitudeDegrees>
            </Position>
            <AltitudeMeters>629</AltitudeMeters>
            <DistanceMeters>59336.409616036</DistanceMeters>
          </Trackpoint>
          <Trackpoint>
            <Time>2018-08-26T08:01:50.000Z</Time>
            <Position>
              <LatitudeDegrees>43.03273539058864116668701171875</LatitudeDegrees>
              <LongitudeDegrees>-1.7576691694557666778564453125</LongitudeDegrees>
            </Position>
            <AltitudeMeters>628.79998779296875</AltitudeMeters>
            <DistanceMeters>59349.159495884</DistanceMeters>
          </Trackpoint>
          <Trackpoint>
            <Time>2018-08-26T08:01:51.000Z</Time>
            <Position>
              <LatitudeDegrees>43.03265023045241832733154296875</LatitudeDegrees>
              <LongitudeDegrees>-1.7577720992267131805419921875</LongitudeDegrees>
            </Position>
            <AltitudeMeters>628.4000244140625</AltitudeMeters>
            <DistanceMeters>59361.806976824</DistanceMeters>
          </Trackpoint>
          <Trackpoint>
            <Time>2018-08-26T08:01:52.000Z</Time>
            <Position>
              <LatitudeDegrees>43.032559789717197418212890625</LatitudeDegrees>
              <LongitudeDegrees>-1.7578676529228687286376953125</LongitudeDegrees>
            </Position>
            <AltitudeMeters>628</AltitudeMeters>
            <DistanceMeters>59374.525655585</DistanceMeters>
          </Trackpoint>
          <Trackpoint>
            <Time>2018-08-26T08:01:53.000Z</Time>
            <Position>
              <LatitudeDegrees>43.03246448747813701629638671875</LatitudeDegrees>
              <LongitudeDegrees>-1.75794954411685466766357421875</LongitudeDegrees>
            </Position>
            <AltitudeMeters>628</AltitudeMeters>
            <DistanceMeters>59387.051892381</DistanceMeters>
          </Trackpoint>
          <Trackpoint>
            <Time>2018-08-26T08:01:54.000Z</Time>
            <Position>
              <LatitudeDegrees>43.0323644913733005523681640625</LatitudeDegrees>
              <LongitudeDegrees>-1.75801726989448070526123046875</LongitudeDegrees>
            </Position>
            <AltitudeMeters>627.79998779296875</AltitudeMeters>
            <DistanceMeters>59399.470978727</DistanceMeters>
          </Trackpoint>
          <Trackpoint>
            <Time>2018-08-26T08:01:55.000Z</Time>
            <Position>
              <LatitudeDegrees>43.0322603881359100341796875</LatitudeDegrees>
              <LongitudeDegrees>-1.758068315684795379638671875</LongitudeDegrees>
            </Position>
            <AltitudeMeters>627.79998779296875</AltitudeMeters>
            <DistanceMeters>59411.779047724</DistanceMeters>
          </Trackpoint>
          <Trackpoint>
            <Time>2018-08-26T08:01:56.000Z</Time>
            <Position>
              <LatitudeDegrees>43.03215418942272663116455078125</LatitudeDegrees>
              <LongitudeDegrees>-1.7581036873161792755126953125</LongitudeDegrees>
            </Position>
            <AltitudeMeters>627.5999755859375</AltitudeMeters>
            <DistanceMeters>59423.944323012</DistanceMeters>
          </Trackpoint>
          <Trackpoint>
            <Time>2018-08-26T08:01:57.000Z</Time>
            <Position>
              <LatitudeDegrees>43.03204656578600406646728515625</LatitudeDegrees>
              <LongitudeDegrees>-1.75812900066375732421875</LongitudeDegrees>
            </Position>
            <AltitudeMeters>627.5999755859375</AltitudeMeters>
            <DistanceMeters>59436.099201897</DistanceMeters>
          </Trackpoint>
          <Trackpoint>
            <Time>2018-08-26T08:01:58.000Z</Time>
            <Position>
              <LatitudeDegrees>43.03193919360637664794921875</LatitudeDegrees>
              <LongitudeDegrees>-1.75815087743103504180908203125</LongitudeDegrees>
            </Position>
            <AltitudeMeters>627.5999755859375</AltitudeMeters>
            <DistanceMeters>59448.181429166</DistanceMeters>
          </Trackpoint>
          <Trackpoint>
            <Time>2018-08-26T08:01:59.000Z</Time>
            <Position>
              <LatitudeDegrees>43.03183182142674922943115234375</LatitudeDegrees>
              <LongitudeDegrees>-1.7581727541983127593994140625</LongitudeDegrees>
            </Position>
            <AltitudeMeters>627.4000244140625</AltitudeMeters>
            <DistanceMeters>59460.264030122</DistanceMeters>
          </Trackpoint>
          <Trackpoint>
            <Time>2018-08-26T08:02:00.000Z</Time>
            <Position>
              <LatitudeDegrees>43.0317241139709949493408203125</LatitudeDegrees>
              <LongitudeDegrees>-1.75819396041333675384521484375</LongitudeDegrees>
            </Position>
            <AltitudeMeters>627</AltitudeMeters>
            <DistanceMeters>59472.376115901</DistanceMeters>
          </Trackpoint>
          <Trackpoint>
            <Time>2018-08-26T08:02:01.000Z</Time>
            <Position>
              <LatitudeDegrees>43.031611628830432891845703125</LatitudeDegrees>
              <LongitudeDegrees>-1.7582200281322002410888671875</LongitudeDegrees>
            </Position>
            <AltitudeMeters>626.79998779296875</AltitudeMeters>
            <DistanceMeters>59485.074188392</DistanceMeters>
          </Trackpoint>
          <Trackpoint>
            <Time>2018-08-26T08:02:02.000Z</Time>
            <Position>
              <LatitudeDegrees>43.03150325082242488861083984375</LatitudeDegrees>
              <LongitudeDegrees>-1.7582434974610805511474609375</LongitudeDegrees>
            </Position>
            <AltitudeMeters>626.79998779296875</AltitudeMeters>
            <DistanceMeters>59497.287247088</DistanceMeters>
          </Trackpoint>
          <Trackpoint>
            <Time>2018-08-26T08:02:03.000Z</Time>
            <Position>
              <LatitudeDegrees>43.03139604628086090087890625</LatitudeDegrees>
              <LongitudeDegrees>-1.75826822407543659210205078125</LongitudeDegrees>
            </Position>
            <AltitudeMeters>626.5999755859375</AltitudeMeters>
            <DistanceMeters>59509.387398304</DistanceMeters>
          </Trackpoint>
          <Trackpoint>
            <Time>2018-08-26T08:02:04.000Z</Time>
            <Position>
              <LatitudeDegrees>43.0312902666628360748291015625</LatitudeDegrees>
              <LongitudeDegrees>-1.7582927830517292022705078125</LongitudeDegrees>
            </Position>
            <AltitudeMeters>626.4000244140625</AltitudeMeters>
            <DistanceMeters>59521.329046733</DistanceMeters>
          </Trackpoint>
          <Trackpoint>
            <Time>2018-08-26T08:02:05.000Z</Time>
            <Position>
              <LatitudeDegrees>43.03118574433028697967529296875</LatitudeDegrees>
              <LongitudeDegrees>-1.758317090570926666259765625</LongitudeDegrees>
            </Position>
            <AltitudeMeters>626.20001220703125</AltitudeMeters>
            <DistanceMeters>59533.129589468</DistanceMeters>
          </Trackpoint>
          <Trackpoint>
            <Time>2018-08-26T08:02:06.000Z</Time>
            <Position>
              <LatitudeDegrees>43.03108164109289646148681640625</LatitudeDegrees>
              <LongitudeDegrees>-1.7583424039185047149658203125</LongitudeDegrees>
            </Position>
            <AltitudeMeters>626.20001220703125</AltitudeMeters>
            <DistanceMeters>59544.898332498</DistanceMeters>
          </Trackpoint>
          <Trackpoint>
            <Time>2018-08-26T08:02:07.000Z</Time>
            <Position>
              <LatitudeDegrees>43.03097770549356937408447265625</LatitudeDegrees>
              <LongitudeDegrees>-1.75836998037993907928466796875</LongitudeDegrees>
            </Position>
            <AltitudeMeters>626</AltitudeMeters>
            <DistanceMeters>59556.682411399</DistanceMeters>
          </Trackpoint>
          <Trackpoint>
            <Time>2018-08-26T08:02:08.000Z</Time>
            <Position>
              <LatitudeDegrees>43.03087460808455944061279296875</LatitudeDegrees>
              <LongitudeDegrees>-1.75839898176491260528564453125</LongitudeDegrees>
            </Position>
            <AltitudeMeters>625.79998779296875</AltitudeMeters>
            <DistanceMeters>59568.398091574</DistanceMeters>
          </Trackpoint>
          <Trackpoint>
            <Time>2018-08-26T08:02:09.000Z</Time>
            <Position>
              <LatitudeDegrees>43.03077251650393009185791015625</LatitudeDegrees>
              <LongitudeDegrees>-1.75843200646340847015380859375</LongitudeDegrees>
            </Position>
            <AltitudeMeters>625.4000244140625</AltitudeMeters>
            <DistanceMeters>59580.074009699</DistanceMeters>
          </Trackpoint>
          <Trackpoint>
            <Time>2018-08-26T08:02:10.000Z</Time>
            <Position>
              <LatitudeDegrees>43.03067059256136417388916015625</LatitudeDegrees>
              <LongitudeDegrees>-1.7584736645221710205078125</LongitudeDegrees>
            </Position>
            <AltitudeMeters>625.20001220703125</AltitudeMeters>
            <DistanceMeters>59591.913895962</DistanceMeters>
          </Trackpoint>
          <Trackpoint>
            <Time>2018-08-26T08:02:11.000Z</Time>
            <Position>
              <LatitudeDegrees>43.03057126700878143310546875</LatitudeDegrees>
              <LongitudeDegrees>-1.758518926799297332763671875</LongitudeDegrees>
            </Position>
            <AltitudeMeters>625</AltitudeMeters>
            <DistanceMeters>59603.566201717</DistanceMeters>
          </Trackpoint>
          <Trackpoint>
            <Time>2018-08-26T08:02:12.000Z</Time>
            <Position>
              <LatitudeDegrees>43.030474372208118438720703125</LatitudeDegrees>
              <LongitudeDegrees>-1.75857223570346832275390625</LongitudeDegrees>
            </Position>
            <AltitudeMeters>625</AltitudeMeters>
            <DistanceMeters>59615.189798568</DistanceMeters>
          </Trackpoint>
          <Trackpoint>
            <Time>2018-08-26T08:02:13.000Z</Time>
            <Position>
              <LatitudeDegrees>43.030378818511962890625</LatitudeDegrees>
              <LongitudeDegrees>-1.75862797535955905914306640625</LongitudeDegrees>
            </Position>
            <AltitudeMeters>625</AltitudeMeters>
            <DistanceMeters>59626.751468932</DistanceMeters>
          </Trackpoint>
          <Trackpoint>
            <Time>2018-08-26T08:02:14.000Z</Time>
            <Position>
              <LatitudeDegrees>43.03028502501547336578369140625</LatitudeDegrees>
              <LongitudeDegrees>-1.75868622958660125732421875</LongitudeDegrees>
            </Position>
            <AltitudeMeters>624.79998779296875</AltitudeMeters>
            <DistanceMeters>59638.216669444</DistanceMeters>
          </Trackpoint>
          <Trackpoint>
            <Time>2018-08-26T08:02:15.000Z</Time>
            <Position>
              <LatitudeDegrees>43.03019098006188869476318359375</LatitudeDegrees>
              <LongitudeDegrees>-1.75874951295554637908935546875</LongitudeDegrees>
            </Position>
            <AltitudeMeters>624.79998779296875</AltitudeMeters>
            <DistanceMeters>59649.881755039</DistanceMeters>
          </Trackpoint>
          <Trackpoint>
            <Time>2018-08-26T08:02:16.000Z</Time>
            <Position>
              <LatitudeDegrees>43.03009676747024059295654296875</LatitudeDegrees>
              <LongitudeDegrees>-1.7588178254663944244384765625</LongitudeDegrees>
            </Position>
            <AltitudeMeters>624.5999755859375</AltitudeMeters>
            <DistanceMeters>59661.749066117</DistanceMeters>
          </Trackpoint>
          <Trackpoint>
            <Time>2018-08-26T08:02:17.000Z</Time>
            <Position>
              <LatitudeDegrees>43.0300041474401950836181640625</LatitudeDegrees>
              <LongitudeDegrees>-1.75888312049210071563720703125</LongitudeDegrees>
            </Position>
            <AltitudeMeters>624.5999755859375</AltitudeMeters>
            <DistanceMeters>59673.345440482</DistanceMeters>
          </Trackpoint>
          <Trackpoint>
            <Time>2018-08-26T08:02:18.000Z</Time>
            <Position>
              <LatitudeDegrees>43.02990683354437351226806640625</LatitudeDegrees>
              <LongitudeDegrees>-1.75894506275653839111328125</LongitudeDegrees>
            </Position>
            <AltitudeMeters>624.5999755859375</AltitudeMeters>
            <DistanceMeters>59685.29162515</DistanceMeters>
          </Trackpoint>
          <Trackpoint>
            <Time>2018-08-26T08:02:19.000Z</Time>
            <Position>
              <LatitudeDegrees>43.02980440668761730194091796875</LatitudeDegrees>
              <LongitudeDegrees>-1.758994348347187042236328125</LongitudeDegrees>
            </Position>
            <AltitudeMeters>624.4000244140625</AltitudeMeters>
            <DistanceMeters>59697.376094366</DistanceMeters>
          </Trackpoint>
          <Trackpoint>
            <Time>2018-08-26T08:02:20.000Z</Time>
            <Position>
              <LatitudeDegrees>43.02969778887927532196044921875</LatitudeDegrees>
              <LongitudeDegrees>-1.75902142189443111419677734375</LongitudeDegrees>
            </Position>
            <AltitudeMeters>624.4000244140625</AltitudeMeters>
            <DistanceMeters>59709.445609402</DistanceMeters>
          </Trackpoint>
          <Trackpoint>
            <Time>2018-08-26T08:02:21.000Z</Time>
            <Position>
              <LatitudeDegrees>43.0295890755951404571533203125</LatitudeDegrees>
              <LongitudeDegrees>-1.75902209244668483734130859375</LongitudeDegrees>
            </Position>
            <AltitudeMeters>624.4000244140625</AltitudeMeters>
            <DistanceMeters>59721.546133752</DistanceMeters>
          </Trackpoint>
          <Trackpoint>
            <Time>2018-08-26T08:02:22.000Z</Time>
            <Position>
              <LatitudeDegrees>43.0294797755777835845947265625</LatitudeDegrees>
              <LongitudeDegrees>-1.7590069212019443511962890625</LongitudeDegrees>
            </Position>
            <AltitudeMeters>624.4000244140625</AltitudeMeters>
            <DistanceMeters>59733.773971081</DistanceMeters>
          </Trackpoint>
          <Trackpoint>
            <Time>2018-08-26T08:02:23.000Z</Time>
            <Position>
              <LatitudeDegrees>43.02937231957912445068359375</LatitudeDegrees>
              <LongitudeDegrees>-1.75898772664368152618408203125</LongitudeDegrees>
            </Position>
            <AltitudeMeters>624.20001220703125</AltitudeMeters>
            <DistanceMeters>59745.836002074</DistanceMeters>
          </Trackpoint>
          <Trackpoint>
            <Time>2018-08-26T08:02:24.000Z</Time>
            <Position>
              <LatitudeDegrees>43.02926863543689250946044921875</LatitudeDegrees>
              <LongitudeDegrees>-1.7589671909809112548828125</LongitudeDegrees>
            </Position>
            <AltitudeMeters>624</AltitudeMeters>
            <DistanceMeters>59757.496829278</DistanceMeters>
          </Trackpoint>
          <Trackpoint>
            <Time>2018-08-26T08:02:25.000Z</Time>
            <Position>
              <LatitudeDegrees>43.02916989661753177642822265625</LatitudeDegrees>
              <LongitudeDegrees>-1.758941374719142913818359375</LongitudeDegrees>
            </Position>
            <AltitudeMeters>623.5999755859375</AltitudeMeters>
            <DistanceMeters>59768.684989076</DistanceMeters>
          </Trackpoint>
          <Trackpoint>
            <Time>2018-08-26T08:02:26.000Z</Time>
            <Position>
              <LatitudeDegrees>43.0290757678449153900146484375</LatitudeDegrees>
              <LongitudeDegrees>-1.7589081823825836181640625</LongitudeDegrees>
            </Position>
            <AltitudeMeters>623.20001220703125</AltitudeMeters>
            <DistanceMeters>59779.503854584</DistanceMeters>
          </Trackpoint>
          <Trackpoint>
            <Time>2018-08-26T08:02:27.000Z</Time>
            <Position>
              <LatitudeDegrees>43.0289849080145359039306640625</LatitudeDegrees>
              <LongitudeDegrees>-1.7588599026203155517578125</LongitudeDegrees>
            </Position>
            <AltitudeMeters>622.5999755859375</AltitudeMeters>
            <DistanceMeters>59790.352726247</DistanceMeters>
          </Trackpoint>
          <Trackpoint>
            <Time>2018-08-26T08:02:28.000Z</Time>
            <Position>
              <LatitudeDegrees>43.02890050224959850311279296875</LatitudeDegrees>
              <LongitudeDegrees>-1.7587910033762454986572265625</LongitudeDegrees>
            </Position>
            <AltitudeMeters>622.20001220703125</AltitudeMeters>
            <DistanceMeters>59801.292773468</DistanceMeters>
          </Trackpoint>
          <Trackpoint>
            <Time>2018-08-26T08:02:29.000Z</Time>
            <Position>
              <LatitudeDegrees>43.02882104180753231048583984375</LatitudeDegrees>
              <LongitudeDegrees>-1.75870860926806926727294921875</LongitudeDegrees>
            </Position>
            <AltitudeMeters>622</AltitudeMeters>
            <DistanceMeters>59812.390982454</DistanceMeters>
          </Trackpoint>
          <Trackpoint>
            <Time>2018-08-26T08:02:30.000Z</Time>
            <Position>
              <LatitudeDegrees>43.02874459885060787200927734375</LatitudeDegrees>
              <LongitudeDegrees>-1.7586190067231655120849609375</LongitudeDegrees>
            </Position>
            <AltitudeMeters>621.79998779296875</AltitudeMeters>
            <DistanceMeters>59823.595272825</DistanceMeters>
          </Trackpoint>
          <Trackpoint>
            <Time>2018-08-26T08:02:31.000Z</Time>
            <Position>
              <LatitudeDegrees>43.028669245541095733642578125</LatitudeDegrees>
              <LongitudeDegrees>-1.75852529704570770263671875</LongitudeDegrees>
            </Position>
            <AltitudeMeters>621.79998779296875</AltitudeMeters>
            <DistanceMeters>59834.929773148</DistanceMeters>
          </Trackpoint>
          <Trackpoint>
            <Time>2018-08-26T08:02:32.000Z</Time>
            <Position>
              <LatitudeDegrees>43.0285938084125518798828125</LatitudeDegrees>
              <LongitudeDegrees>-1.7584292404353618621826171875</LongitudeDegrees>
            </Position>
            <AltitudeMeters>621.5999755859375</AltitudeMeters>
            <DistanceMeters>59846.400091966</DistanceMeters>
          </Trackpoint>
          <Trackpoint>
            <Time>2018-08-26T08:02:33.000Z</Time>
            <Position>
              <LatitudeDegrees>43.02851811982691287994384765625</LatitudeDegrees>
              <LongitudeDegrees>-1.75833293236792087554931640625</LongitudeDegrees>
            </Position>
            <AltitudeMeters>621.4000244140625</AltitudeMeters>
            <DistanceMeters>59857.904997898</DistanceMeters>
          </Trackpoint>
          <Trackpoint>
            <Time>2018-08-26T08:02:34.000Z</Time>
            <Position>
              <LatitudeDegrees>43.02844083867967128753662109375</LatitudeDegrees>
              <LongitudeDegrees>-1.75823721103370189666748046875</LongitudeDegrees>
            </Position>
            <AltitudeMeters>621.20001220703125</AltitudeMeters>
            <DistanceMeters>59869.508378431</DistanceMeters>
          </Trackpoint>
          <Trackpoint>
            <Time>2018-08-26T08:02:35.000Z</Time>
            <Position>
              <LatitudeDegrees>43.02836087532341480255126953125</LatitudeDegrees>
              <LongitudeDegrees>-1.7581442557275295257568359375</LongitudeDegrees>
            </Position>
            <AltitudeMeters>621</AltitudeMeters>
            <DistanceMeters>59881.188162883</DistanceMeters>
          </Trackpoint>
          <Trackpoint>
            <Time>2018-08-26T08:02:36.000Z</Time>
            <Position>
              <LatitudeDegrees>43.028277643024921417236328125</LatitudeDegrees>
              <LongitudeDegrees>-1.75805582664906978607177734375</LongitudeDegrees>
            </Position>
            <AltitudeMeters>620.79998779296875</AltitudeMeters>
            <DistanceMeters>59892.918478516</DistanceMeters>
          </Trackpoint>
          <Trackpoint>
            <Time>2018-08-26T08:02:37.000Z</Time>
            <Position>
              <LatitudeDegrees>43.02819055505096912384033203125</LatitudeDegrees>
              <LongitudeDegrees>-1.757973767817020416259765625</LongitudeDegrees>
            </Position>
            <AltitudeMeters>620.5999755859375</AltitudeMeters>
            <DistanceMeters>59904.688756032</DistanceMeters>
          </Trackpoint>
          <Trackpoint>
            <Time>2018-08-26T08:02:38.000Z</Time>
            <Position>
              <LatitudeDegrees>43.0280991084873676300048828125</LatitudeDegrees>
              <LongitudeDegrees>-1.7578968219459056854248046875</LongitudeDegrees>
            </Position>
            <AltitudeMeters>620.20001220703125</AltitudeMeters>
            <DistanceMeters>59916.637963902</DistanceMeters>
          </Trackpoint>
          <Trackpoint>
            <Time>2018-08-26T08:02:39.000Z</Time>
            <Position>
              <LatitudeDegrees>43.0280028842389583587646484375</LatitudeDegrees>
              <LongitudeDegrees>-1.75782549194991588592529296875</LongitudeDegrees>
            </Position>
            <AltitudeMeters>619.79998779296875</AltitudeMeters>
            <DistanceMeters>59928.81955847</DistanceMeters>
          </Trackpoint>
          <Trackpoint>
            <Time>2018-08-26T08:02:40.000Z</Time>
            <Position>
              <LatitudeDegrees>43.02789987064898014068603515625</LatitudeDegrees>
              <LongitudeDegrees>-1.75776430405676364898681640625</LongitudeDegrees>
            </Position>
            <AltitudeMeters>619.4000244140625</AltitudeMeters>
            <DistanceMeters>59941.319454977</DistanceMeters>
          </Trackpoint>
          <Trackpoint>
            <Time>2018-08-26T08:02:41.000Z</Time>
            <Position>
              <LatitudeDegrees>43.02779107354581356048583984375</LatitudeDegrees>
              <LongitudeDegrees>-1.757714264094829559326171875</LongitudeDegrees>
            </Position>
            <AltitudeMeters>618.79998779296875</AltitudeMeters>
            <DistanceMeters>59954.095513125</DistanceMeters>
          </Trackpoint>
          <Trackpoint>
            <Time>2018-08-26T08:02:42.000Z</Time>
            <Position>
              <LatitudeDegrees>43.0276796780526638031005859375</LatitudeDegrees>
              <LongitudeDegrees>-1.75768065266311168670654296875</LongitudeDegrees>
            </Position>
            <AltitudeMeters>618.5999755859375</AltitudeMeters>
            <DistanceMeters>59966.792163262</DistanceMeters>
          </Trackpoint>
          <Trackpoint>
            <Time>2018-08-26T08:02:43.000Z</Time>
            <Position>
              <LatitudeDegrees>43.02756794728338718414306640625</LatitudeDegrees>
              <LongitudeDegrees>-1.75766489468514919281005859375</LongitudeDegrees>
            </Position>
            <AltitudeMeters>617.79998779296875</AltitudeMeters>
            <DistanceMeters>59979.293865669</DistanceMeters>
          </Trackpoint>
          <Trackpoint>
            <Time>2018-08-26T08:02:44.000Z</Time>
            <Position>
              <LatitudeDegrees>43.0274553783237934112548828125</LatitudeDegrees>
              <LongitudeDegrees>-1.7576631344854831695556640625</LongitudeDegrees>
            </Position>
            <AltitudeMeters>617.20001220703125</AltitudeMeters>
            <DistanceMeters>59991.823706413</DistanceMeters>
          </Trackpoint>
          <Trackpoint>
            <Time>2018-08-26T08:02:45.000Z</Time>
            <Position>
              <LatitudeDegrees>43.0273444019258022308349609375</LatitudeDegrees>
              <LongitudeDegrees>-1.7576765455305576324462890625</LongitudeDegrees>
            </Position>
            <AltitudeMeters>616.79998779296875</AltitudeMeters>
            <DistanceMeters>60004.223873415</DistanceMeters>
          </Trackpoint>
          <Trackpoint>
            <Time>2018-08-26T08:02:46.000Z</Time>
            <Position>
              <LatitudeDegrees>43.02723887376487255096435546875</LatitudeDegrees>
              <LongitudeDegrees>-1.757705546915531158447265625</LongitudeDegrees>
            </Position>
            <AltitudeMeters>616.4000244140625</AltitudeMeters>
            <DistanceMeters>60016.204025125</DistanceMeters>
          </Trackpoint>
          <Trackpoint>
            <Time>2018-08-26T08:02:47.000Z</Time>
            <Position>
              <LatitudeDegrees>43.02713871002197265625</LatitudeDegrees>
              <LongitudeDegrees>-1.75776631571352481842041015625</LongitudeDegrees>
            </Position>
            <AltitudeMeters>615.5999755859375</AltitudeMeters>
            <DistanceMeters>60028.39932582</DistanceMeters>
          </Trackpoint>
          <Trackpoint>
            <Time>2018-08-26T08:02:48.000Z</Time>
            <Position>
              <LatitudeDegrees>43.0270429886877536773681640625</LatitudeDegrees>
              <LongitudeDegrees>-1.757842339575290679931640625</LongitudeDegrees>
            </Position>
            <AltitudeMeters>615</AltitudeMeters>
            <DistanceMeters>60040.71839497</DistanceMeters>
          </Trackpoint>
          <Trackpoint>
            <Time>2018-08-26T08:02:49.000Z</Time>
            <Position>
              <LatitudeDegrees>43.02695388905704021453857421875</LatitudeDegrees>
              <LongitudeDegrees>-1.75793194212019443511962890625</LongitudeDegrees>
            </Position>
            <AltitudeMeters>614.20001220703125</AltitudeMeters>
            <DistanceMeters>60053.026830796</DistanceMeters>
          </Trackpoint>
          <Trackpoint>
            <Time>2018-08-26T08:02:50.000Z</Time>
            <Position>
              <LatitudeDegrees>43.02686554379761219024658203125</LatitudeDegrees>
              <LongitudeDegrees>-1.75802296958863735198974609375</LongitudeDegrees>
            </Position>
            <AltitudeMeters>612.79998779296875</AltitudeMeters>
            <DistanceMeters>60065.33710061</DistanceMeters>
          </Trackpoint>
          <Trackpoint>
            <Time>2018-08-26T08:02:51.000Z</Time>
            <Position>
              <LatitudeDegrees>43.02678256295621395111083984375</LatitudeDegrees>
              <LongitudeDegrees>-1.75811818800866603851318359375</LongitudeDegrees>
            </Position>
            <AltitudeMeters>612.20001220703125</AltitudeMeters>
            <DistanceMeters>60077.392017458</DistanceMeters>
          </Trackpoint>
          <Trackpoint>
            <Time>2018-08-26T08:02:52.000Z</Time>
            <Position>
              <LatitudeDegrees>43.026698492467403411865234375</LatitudeDegrees>
              <LongitudeDegrees>-1.75821483135223388671875</LongitudeDegrees>
            </Position>
            <AltitudeMeters>611.5999755859375</AltitudeMeters>
            <DistanceMeters>60089.614314894</DistanceMeters>
          </Trackpoint>
          <Trackpoint>
            <Time>2018-08-26T08:02:53.000Z</Time>
            <Position>
              <LatitudeDegrees>43.02661626599729061126708984375</LatitudeDegrees>
              <LongitudeDegrees>-1.7583128996193408966064453125</LongitudeDegrees>
            </Position>
            <AltitudeMeters>611.20001220703125</AltitudeMeters>
            <DistanceMeters>60101.756185756</DistanceMeters>
          </Trackpoint>
          <Trackpoint>
            <Time>2018-08-26T08:02:54.000Z</Time>
            <Position>
              <LatitudeDegrees>43.026533536612987518310546875</LatitudeDegrees>
              <LongitudeDegrees>-1.7584047652781009674072265625</LongitudeDegrees>
            </Position>
            <AltitudeMeters>610.5999755859375</AltitudeMeters>
            <DistanceMeters>60113.615885191</DistanceMeters>
          </Trackpoint>
          <Trackpoint>
            <Time>2018-08-26T08:02:55.000Z</Time>
            <Position>
              <LatitudeDegrees>43.0264502204954624176025390625</LatitudeDegrees>
              <LongitudeDegrees>-1.75849520601332187652587890625</LongitudeDegrees>
            </Position>
            <AltitudeMeters>610</AltitudeMeters>
            <DistanceMeters>60125.45424599</DistanceMeters>
          </Trackpoint>
          <Trackpoint>
            <Time>2018-08-26T08:02:56.000Z</Time>
            <Position>
              <LatitudeDegrees>43.02636564709246158599853515625</LatitudeDegrees>
              <LongitudeDegrees>-1.7585814557969570159912109375</LongitudeDegrees>
            </Position>
            <AltitudeMeters>609.5999755859375</AltitudeMeters>
            <DistanceMeters>60137.195718516</DistanceMeters>
          </Trackpoint>
          <Trackpoint>
            <Time>2018-08-26T08:02:57.000Z</Time>
            <Position>
              <LatitudeDegrees>43.0262805707752704620361328125</LatitudeDegrees>
              <LongitudeDegrees>-1.75866183824837207794189453125</LongitudeDegrees>
            </Position>
            <AltitudeMeters>609.20001220703125</AltitudeMeters>
            <DistanceMeters>60148.704548225</DistanceMeters>
          </Trackpoint>
          <Trackpoint>
            <Time>2018-08-26T08:02:58.000Z</Time>
            <Position>
              <LatitudeDegrees>43.02619247697293758392333984375</LatitudeDegrees>
              <LongitudeDegrees>-1.758728809654712677001953125</LongitudeDegrees>
            </Position>
            <AltitudeMeters>609</AltitudeMeters>
            <DistanceMeters>60159.921726354</DistanceMeters>
          </Trackpoint>
          <Trackpoint>
            <Time>2018-08-26T08:02:59.000Z</Time>
            <Position>
              <LatitudeDegrees>43.02609742619097232818603515625</LatitudeDegrees>
              <LongitudeDegrees>-1.75877868197858333587646484375</LongitudeDegrees>
            </Position>
            <AltitudeMeters>608.5999755859375</AltitudeMeters>
            <DistanceMeters>60171.252641007</DistanceMeters>
          </Trackpoint>
          <Trackpoint>
            <Time>2018-08-26T08:03:00.000Z</Time>
            <Position>
              <LatitudeDegrees>43.025997765362262725830078125</LatitudeDegrees>
              <LongitudeDegrees>-1.7588148079812526702880859375</LongitudeDegrees>
            </Position>
            <AltitudeMeters>608.20001220703125</AltitudeMeters>
            <DistanceMeters>60182.727682388</DistanceMeters>
          </Trackpoint>
          <Trackpoint>
            <Time>2018-08-26T08:03:01.000Z</Time>
            <Position>
              <LatitudeDegrees>43.02589341066777706146240234375</LatitudeDegrees>
              <LongitudeDegrees>-1.7588330805301666259765625</LongitudeDegrees>
            </Position>
            <AltitudeMeters>607.79998779296875</AltitudeMeters>
            <DistanceMeters>60194.437194792</DistanceMeters>
          </Trackpoint>
          <Trackpoint>
            <Time>2018-08-26T08:03:02.000Z</Time>
            <Position>
              <LatitudeDegrees>43.02578779868781566619873046875</LatitudeDegrees>
              <LongitudeDegrees>-1.7588325776159763336181640625</LongitudeDegrees>
            </Position>
            <AltitudeMeters>607.79998779296875</AltitudeMeters>
            <DistanceMeters>60206.19211843</DistanceMeters>
          </Trackpoint>
          <Trackpoint>
            <Time>2018-08-26T08:03:03.000Z</Time>
            <Position>
              <LatitudeDegrees>43.0256827734410762786865234375</LatitudeDegrees>
              <LongitudeDegrees>-1.7588044144213199615478515625</LongitudeDegrees>
            </Position>
            <AltitudeMeters>607.5999755859375</AltitudeMeters>
            <DistanceMeters>60218.1042392</DistanceMeters>
          </Trackpoint>
          <Trackpoint>
            <Time>2018-08-26T08:03:04.000Z</Time>
            <Position>
              <LatitudeDegrees>43.02558260969817638397216796875</LatitudeDegrees>
              <LongitudeDegrees>-1.75875739194452762603759765625</LongitudeDegrees>
            </Position>
            <AltitudeMeters>607.5999755859375</AltitudeMeters>
            <DistanceMeters>60229.891382882</DistanceMeters>
          </Trackpoint>
          <Trackpoint>
            <Time>2018-08-26T08:03:05.000Z</Time>
            <Position>
              <LatitudeDegrees>43.02548353560268878936767578125</LatitudeDegrees>
              <LongitudeDegrees>-1.7587028257548809051513671875</LongitudeDegrees>
            </Position>
            <AltitudeMeters>607.4000244140625</AltitudeMeters>
            <DistanceMeters>60241.779221051</DistanceMeters>
          </Trackpoint>
          <Trackpoint>
            <Time>2018-08-26T08:03:06.000Z</Time>
            <Position>
              <LatitudeDegrees>43.02538429386913776397705078125</LatitudeDegrees>
              <LongitudeDegrees>-1.758646331727504730224609375</LongitudeDegrees>
            </Position>
            <AltitudeMeters>607.4000244140625</AltitudeMeters>
            <DistanceMeters>60253.743533476</DistanceMeters>
          </Trackpoint>
          <Trackpoint>
            <Time>2018-08-26T08:03:07.000Z</Time>
            <Position>
              <LatitudeDegrees>43.0252839624881744384765625</LatitudeDegrees>
              <LongitudeDegrees>-1.7585901729762554168701171875</LongitudeDegrees>
            </Position>
            <AltitudeMeters>607</AltitudeMeters>
            <DistanceMeters>60265.809681266</DistanceMeters>
          </Trackpoint>
          <Trackpoint>
            <Time>2018-08-26T08:03:08.000Z</Time>
            <Position>
              <LatitudeDegrees>43.0251835472881793975830078125</LatitudeDegrees>
              <LongitudeDegrees>-1.75853610970079898834228515625</LongitudeDegrees>
            </Position>
            <AltitudeMeters>606.79998779296875</AltitudeMeters>
            <DistanceMeters>60277.820697096</DistanceMeters>
          </Trackpoint>
          <Trackpoint>
            <Time>2018-08-26T08:03:09.000Z</Time>
            <Position>
              <LatitudeDegrees>43.02508505992591381072998046875</LatitudeDegrees>
              <LongitudeDegrees>-1.75848372280597686767578125</LongitudeDegrees>
            </Position>
            <AltitudeMeters>606.5999755859375</AltitudeMeters>
            <DistanceMeters>60289.581764691</DistanceMeters>
          </Trackpoint>
          <Trackpoint>
            <Time>2018-08-26T08:03:10.000Z</Time>
            <Position>
              <LatitudeDegrees>43.0249840579926967620849609375</LatitudeDegrees>
              <LongitudeDegrees>-1.7584325931966304779052734375</LongitudeDegrees>
            </Position>
            <AltitudeMeters>606.20001220703125</AltitudeMeters>
            <DistanceMeters>60301.56869826</DistanceMeters>
          </Trackpoint>
          <Trackpoint>
            <Time>2018-08-26T08:03:11.000Z</Time>
            <Position>
              <LatitudeDegrees>43.02488506771624088287353515625</LatitudeDegrees>
              <LongitudeDegrees>-1.75838422961533069610595703125</LongitudeDegrees>
            </Position>
            <AltitudeMeters>606</AltitudeMeters>
            <DistanceMeters>60313.2681811</DistanceMeters>
          </Trackpoint>
          <Trackpoint>
            <Time>2018-08-26T08:03:12.000Z</Time>
            <Position>
              <LatitudeDegrees>43.0247869156301021575927734375</LatitudeDegrees>
              <LongitudeDegrees>-1.75833293236792087554931640625</LongitudeDegrees>
            </Position>
            <AltitudeMeters>605.5999755859375</AltitudeMeters>
            <DistanceMeters>60324.962645934</DistanceMeters>
          </Trackpoint>
          <Trackpoint>
            <Time>2018-08-26T08:03:13.000Z</Time>
            <Position>
              <LatitudeDegrees>43.02468725480139255523681640625</LatitudeDegrees>
              <LongitudeDegrees>-1.7582877539098262786865234375</LongitudeDegrees>
            </Position>
            <AltitudeMeters>605.20001220703125</AltitudeMeters>
            <DistanceMeters>60336.648227476</DistanceMeters>
          </Trackpoint>
          <Trackpoint>
            <Time>2018-08-26T08:03:14.000Z</Time>
            <Position>
              <LatitudeDegrees>43.02458181045949459075927734375</LatitudeDegrees>
              <LongitudeDegrees>-1.75825229845941066741943359375</LongitudeDegrees>
            </Position>
            <AltitudeMeters>604.5999755859375</AltitudeMeters>
            <DistanceMeters>60348.734191094</DistanceMeters>
          </Trackpoint>
          <Trackpoint>
            <Time>2018-08-26T08:03:15.000Z</Time>
            <Position>
              <LatitudeDegrees>43.02447368390858173370361328125</LatitudeDegrees>
              <LongitudeDegrees>-1.758236624300479888916015625</LongitudeDegrees>
            </Position>
            <AltitudeMeters>604.20001220703125</AltitudeMeters>
            <DistanceMeters>60360.836580937</DistanceMeters>
          </Trackpoint>
          <Trackpoint>
            <Time>2018-08-26T08:03:16.000Z</Time>
            <Position>
              <LatitudeDegrees>43.02436740137636661529541015625</LatitudeDegrees>
              <LongitudeDegrees>-1.75824659876525402069091796875</LongitudeDegrees>
            </Position>
            <AltitudeMeters>603.5999755859375</AltitudeMeters>
            <DistanceMeters>60372.693995926</DistanceMeters>
          </Trackpoint>
          <Trackpoint>
            <Time>2018-08-26T08:03:17.000Z</Time>
            <Position>
              <LatitudeDegrees>43.02426497451961040496826171875</LatitudeDegrees>
              <LongitudeDegrees>-1.7582738399505615234375</LongitudeDegrees>
            </Position>
            <AltitudeMeters>603.20001220703125</AltitudeMeters>
            <DistanceMeters>60384.307489017</DistanceMeters>
          </Trackpoint>
          <Trackpoint>
            <Time>2018-08-26T08:03:18.000Z</Time>
            <Position>
              <LatitudeDegrees>43.0241643078625202178955078125</LatitudeDegrees>
              <LongitudeDegrees>-1.75831080414354801177978515625</LongitudeDegrees>
            </Position>
            <AltitudeMeters>602.79998779296875</AltitudeMeters>
            <DistanceMeters>60395.90853463</DistanceMeters>
          </Trackpoint>
          <Trackpoint>
            <Time>2018-08-26T08:03:19.000Z</Time>
            <Position>
              <LatitudeDegrees>43.02406716160476207733154296875</LatitudeDegrees>
              <LongitudeDegrees>-1.7583534680306911468505859375</LongitudeDegrees>
            </Position>
            <AltitudeMeters>602.4000244140625</AltitudeMeters>
            <DistanceMeters>60407.264922779</DistanceMeters>
          </Trackpoint>
          <Trackpoint>
            <Time>2018-08-26T08:03:20.000Z</Time>
            <Position>
              <LatitudeDegrees>43.0239732004702091217041015625</LatitudeDegrees>
              <LongitudeDegrees>-1.7584010772407054901123046875</LongitudeDegrees>
            </Position>
            <AltitudeMeters>602</AltitudeMeters>
            <DistanceMeters>60418.417513192</DistanceMeters>
          </Trackpoint>
          <Trackpoint>
            <Time>2018-08-26T08:03:21.000Z</Time>
            <Position>
              <LatitudeDegrees>43.023874126374721527099609375</LatitudeDegrees>
              <LongitudeDegrees>-1.7584396339952945709228515625</LongitudeDegrees>
            </Position>
            <AltitudeMeters>601.79998779296875</AltitudeMeters>
            <DistanceMeters>60429.882319895</DistanceMeters>
          </Trackpoint>
          <Trackpoint>
            <Time>2018-08-26T08:03:22.000Z</Time>
            <Position>
              <LatitudeDegrees>43.02377731539309024810791015625</LatitudeDegrees>
              <LongitudeDegrees>-1.75848095677793025970458984375</LongitudeDegrees>
            </Position>
            <AltitudeMeters>601.5999755859375</AltitudeMeters>
            <DistanceMeters>60441.16971767</DistanceMeters>
          </Trackpoint>
          <Trackpoint>
            <Time>2018-08-26T08:03:23.000Z</Time>
            <Position>
              <LatitudeDegrees>43.02367991767823696136474609375</LatitudeDegrees>
              <LongitudeDegrees>-1.758521609008312225341796875</LongitudeDegrees>
            </Position>
            <AltitudeMeters>601.4000244140625</AltitudeMeters>
            <DistanceMeters>60452.503421276</DistanceMeters>
          </Trackpoint>
          <Trackpoint>
            <Time>2018-08-26T08:03:24.000Z</Time>
            <Position>
              <LatitudeDegrees>43.02358268760144710540771484375</LatitudeDegrees>
              <LongitudeDegrees>-1.75855614244937896728515625</LongitudeDegrees>
            </Position>
            <AltitudeMeters>601.4000244140625</AltitudeMeters>
            <DistanceMeters>60463.68350706</DistanceMeters>
          </Trackpoint>
          <Trackpoint>
            <Time>2018-08-26T08:03:25.000Z</Time>
            <Position>
              <LatitudeDegrees>43.02347808144986629486083984375</LatitudeDegrees>
              <LongitudeDegrees>-1.75858422182500362396240234375</LongitudeDegrees>
            </Position>
            <AltitudeMeters>601.20001220703125</AltitudeMeters>
            <DistanceMeters>60475.548535157</DistanceMeters>
          </Trackpoint>
          <Trackpoint>
            <Time>2018-08-26T08:03:26.000Z</Time>
            <Position>
              <LatitudeDegrees>43.02337624132633209228515625</LatitudeDegrees>
              <LongitudeDegrees>-1.75861020572483539581298828125</LongitudeDegrees>
            </Position>
            <AltitudeMeters>601</AltitudeMeters>
            <DistanceMeters>60487.079313343</DistanceMeters>
          </Trackpoint>
          <Trackpoint>
            <Time>2018-08-26T08:03:27.000Z</Time>
            <Position>
              <LatitudeDegrees>43.02327456884086132049560546875</LatitudeDegrees>
              <LongitudeDegrees>-1.75863417796790599822998046875</LongitudeDegrees>
            </Position>
            <AltitudeMeters>601</AltitudeMeters>
            <DistanceMeters>60498.562614537</DistanceMeters>
          </Trackpoint>
          <Trackpoint>
            <Time>2018-08-26T08:03:28.000Z</Time>
            <Position>
              <LatitudeDegrees>43.02317247726023197174072265625</LatitudeDegrees>
              <LongitudeDegrees>-1.758657395839691162109375</LongitudeDegrees>
            </Position>
            <AltitudeMeters>600.79998779296875</AltitudeMeters>
            <DistanceMeters>60510.081639811</DistanceMeters>
          </Trackpoint>
          <Trackpoint>
            <Time>2018-08-26T08:03:29.000Z</Time>
            <Position>
              <LatitudeDegrees>43.0230711400508880615234375</LatitudeDegrees>
              <LongitudeDegrees>-1.7586813680827617645263671875</LongitudeDegrees>
            </Position>
            <AltitudeMeters>600.5999755859375</AltitudeMeters>
            <DistanceMeters>60521.527922139</DistanceMeters>
          </Trackpoint>
          <Trackpoint>
            <Time>2018-08-26T08:03:30.000Z</Time>
            <Position>
              <LatitudeDegrees>43.0229720659554004669189453125</LatitudeDegrees>
              <LongitudeDegrees>-1.7587098665535449981689453125</LongitudeDegrees>
            </Position>
            <AltitudeMeters>600.4000244140625</AltitudeMeters>
            <DistanceMeters>60532.79610322</DistanceMeters>
          </Trackpoint>
          <Trackpoint>
            <Time>2018-08-26T08:03:31.000Z</Time>
            <Position>
              <LatitudeDegrees>43.02287609316408634185791015625</LatitudeDegrees>
              <LongitudeDegrees>-1.75873710773885250091552734375</LongitudeDegrees>
            </Position>
            <AltitudeMeters>600.20001220703125</AltitudeMeters>
            <DistanceMeters>60543.705567347</DistanceMeters>
          </Trackpoint>
          <Trackpoint>
            <Time>2018-08-26T08:03:32.000Z</Time>
            <Position>
              <LatitudeDegrees>43.0227796174585819244384765625</LatitudeDegrees>
              <LongitudeDegrees>-1.75876761786639690399169921875</LongitudeDegrees>
            </Position>
            <AltitudeMeters>600</AltitudeMeters>
            <DistanceMeters>60554.7270277</DistanceMeters>
          </Trackpoint>
          <Trackpoint>
            <Time>2018-08-26T08:03:33.000Z</Time>
            <Position>
              <LatitudeDegrees>43.02268423140048980712890625</LatitudeDegrees>
              <LongitudeDegrees>-1.758796535432338714599609375</LongitudeDegrees>
            </Position>
            <AltitudeMeters>599.79998779296875</AltitudeMeters>
            <DistanceMeters>60565.601256456</DistanceMeters>
          </Trackpoint>
          <Trackpoint>
            <Time>2018-08-26T08:03:34.000Z</Time>
            <Position>
              <LatitudeDegrees>43.022591359913349151611328125</LatitudeDegrees>
              <LongitudeDegrees>-1.75882310606539249420166015625</LongitudeDegrees>
            </Position>
            <AltitudeMeters>599.5999755859375</AltitudeMeters>
            <DistanceMeters>60576.161627855</DistanceMeters>
          </Trackpoint>
          <Trackpoint>
            <Time>2018-08-26T08:03:35.000Z</Time>
            <Position>
              <LatitudeDegrees>43.0225003324449062347412109375</LatitudeDegrees>
              <LongitudeDegrees>-1.75885428674519062042236328125</LongitudeDegrees>
            </Position>
            <AltitudeMeters>599.4000244140625</AltitudeMeters>
            <DistanceMeters>60586.605924071</DistanceMeters>
          </Trackpoint>
          <Trackpoint>
            <Time>2018-08-26T08:03:36.000Z</Time>
            <Position>
              <LatitudeDegrees>43.022408299148082733154296875</LatitudeDegrees>
              <LongitudeDegrees>-1.75888965837657451629638671875</LongitudeDegrees>
            </Position>
            <AltitudeMeters>599.4000244140625</AltitudeMeters>
            <DistanceMeters>60597.245521728</DistanceMeters>
          </Trackpoint>
          <Trackpoint>
            <Time>2018-08-26T08:03:37.000Z</Time>
            <Position>
              <LatitudeDegrees>43.02231601439416408538818359375</LatitudeDegrees>
              <LongitudeDegrees>-1.75892771221697330474853515625</LongitudeDegrees>
            </Position>
            <AltitudeMeters>599.4000244140625</AltitudeMeters>
            <DistanceMeters>60607.973444373</DistanceMeters>
          </Trackpoint>
          <Trackpoint>
            <Time>2018-08-26T08:03:38.000Z</Time>
            <Position>
              <LatitudeDegrees>43.022222556173801422119140625</LatitudeDegrees>
              <LongitudeDegrees>-1.758966855704784393310546875</LongitudeDegrees>
            </Position>
            <AltitudeMeters>599.20001220703125</AltitudeMeters>
            <DistanceMeters>60618.852239429</DistanceMeters>
          </Trackpoint>
          <Trackpoint>
            <Time>2018-08-26T08:03:39.000Z</Time>
            <Position>
              <LatitudeDegrees>43.0221308581531047821044921875</LatitudeDegrees>
              <LongitudeDegrees>-1.75901220180094242095947265625</LongitudeDegrees>
            </Position>
            <AltitudeMeters>599.20001220703125</AltitudeMeters>
            <DistanceMeters>60629.705272053</DistanceMeters>
          </Trackpoint>
          <Trackpoint>
            <Time>2018-08-26T08:03:40.000Z</Time>
            <Position>
              <LatitudeDegrees>43.02204175852239131927490234375</LatitudeDegrees>
              <LongitudeDegrees>-1.7590612359344959259033203125</LongitudeDegrees>
            </Position>
            <AltitudeMeters>599.20001220703125</AltitudeMeters>
            <DistanceMeters>60640.39482711</DistanceMeters>
          </Trackpoint>
          <Trackpoint>
            <Time>2018-08-26T08:03:41.000Z</Time>
            <Position>
              <LatitudeDegrees>43.02195467054843902587890625</LatitudeDegrees>
              <LongitudeDegrees>-1.75911278463900089263916015625</LongitudeDegrees>
            </Position>
            <AltitudeMeters>599.20001220703125</AltitudeMeters>
            <DistanceMeters>60650.956053565</DistanceMeters>
          </Trackpoint>
          <Trackpoint>
            <Time>2018-08-26T08:03:42.000Z</Time>
            <Position>
              <LatitudeDegrees>43.02187194116413593292236328125</LatitudeDegrees>
              <LongitudeDegrees>-1.75917045213282108306884765625</LongitudeDegrees>
            </Position>
            <AltitudeMeters>599</AltitudeMeters>
            <DistanceMeters>60661.290399897</DistanceMeters>
          </Trackpoint>
          <Trackpoint>
            <Time>2018-08-26T08:03:43.000Z</Time>
            <Position>
              <LatitudeDegrees>43.02179231308400630950927734375</LatitudeDegrees>
              <LongitudeDegrees>-1.75922627560794353485107421875</LongitudeDegrees>
            </Position>
            <AltitudeMeters>599</AltitudeMeters>
            <DistanceMeters>60671.24963479</DistanceMeters>
          </Trackpoint>
          <Trackpoint>
            <Time>2018-08-26T08:03:44.000Z</Time>
            <Position>
              <LatitudeDegrees>43.02170849405229091644287109375</LatitudeDegrees>
              <LongitudeDegrees>-1.759274303913116455078125</LongitudeDegrees>
            </Position>
            <AltitudeMeters>599</AltitudeMeters>
            <DistanceMeters>60681.364513243</DistanceMeters>
          </Trackpoint>
          <Trackpoint>
            <Time>2018-08-26T08:03:45.000Z</Time>
            <Position>
              <LatitudeDegrees>43.02161880768835544586181640625</LatitudeDegrees>
              <LongitudeDegrees>-1.75931529141962528228759765625</LongitudeDegrees>
            </Position>
            <AltitudeMeters>599</AltitudeMeters>
            <DistanceMeters>60691.889338549</DistanceMeters>
          </Trackpoint>
          <Trackpoint>
            <Time>2018-08-26T08:03:46.000Z</Time>
            <Position>
              <LatitudeDegrees>43.0215310491621494293212890625</LatitudeDegrees>
              <LongitudeDegrees>-1.75935502164065837860107421875</LongitudeDegrees>
            </Position>
            <AltitudeMeters>599</AltitudeMeters>
            <DistanceMeters>60702.177708492</DistanceMeters>
          </Trackpoint>
          <Trackpoint>
            <Time>2018-08-26T08:03:47.000Z</Time>
            <Position>
              <LatitudeDegrees>43.02144370973110198974609375</LatitudeDegrees>
              <LongitudeDegrees>-1.75939022563397884368896484375</LongitudeDegrees>
            </Position>
            <AltitudeMeters>599</AltitudeMeters>
            <DistanceMeters>60712.312208454</DistanceMeters>
          </Trackpoint>
          <Trackpoint>
            <Time>2018-08-26T08:03:48.000Z</Time>
            <Position>
              <LatitudeDegrees>43.02135611884295940399169921875</LatitudeDegrees>
              <LongitudeDegrees>-1.7594189755618572235107421875</LongitudeDegrees>
            </Position>
            <AltitudeMeters>599</AltitudeMeters>
            <DistanceMeters>60722.337864587</DistanceMeters>
          </Trackpoint>
          <Trackpoint>
            <Time>2018-08-26T08:03:49.000Z</Time>
            <Position>
              <LatitudeDegrees>43.02126877941191196441650390625</LatitudeDegrees>
              <LongitudeDegrees>-1.75944319926202297210693359375</LongitudeDegrees>
            </Position>
            <AltitudeMeters>598.79998779296875</AltitudeMeters>
            <DistanceMeters>60732.257124283</DistanceMeters>
          </Trackpoint>
          <Trackpoint>
            <Time>2018-08-26T08:03:50.000Z</Time>
            <Position>
              <LatitudeDegrees>43.02117808721959590911865234375</LatitudeDegrees>
              <LongitudeDegrees>-1.7594538442790508270263671875</LongitudeDegrees>
            </Position>
            <AltitudeMeters>598.79998779296875</AltitudeMeters>
            <DistanceMeters>60742.388505183</DistanceMeters>
          </Trackpoint>
          <Trackpoint>
            <Time>2018-08-26T08:03:51.000Z</Time>
            <Position>
              <LatitudeDegrees>43.02108990959823131561279296875</LatitudeDegrees>
              <LongitudeDegrees>-1.7594605498015880584716796875</LongitudeDegrees>
            </Position>
            <AltitudeMeters>598.79998779296875</AltitudeMeters>
            <DistanceMeters>60752.21814495</DistanceMeters>
          </Trackpoint>
          <Trackpoint>
            <Time>2018-08-26T08:03:52.000Z</Time>
            <Position>
              <LatitudeDegrees>43.0210019834339618682861328125</LatitudeDegrees>
              <LongitudeDegrees>-1.7594625614583492279052734375</LongitudeDegrees>
            </Position>
            <AltitudeMeters>598.79998779296875</AltitudeMeters>
            <DistanceMeters>60762.006357814</DistanceMeters>
          </Trackpoint>
          <Trackpoint>
            <Time>2018-08-26T08:03:53.000Z</Time>
            <Position>
              <LatitudeDegrees>43.02091531455516815185546875</LatitudeDegrees>
              <LongitudeDegrees>-1.75946465693414211273193359375</LongitudeDegrees>
            </Position>
            <AltitudeMeters>598.5999755859375</AltitudeMeters>
            <DistanceMeters>60771.654260591</DistanceMeters>
          </Trackpoint>
          <Trackpoint>
            <Time>2018-08-26T08:03:54.000Z</Time>
            <Position>
              <LatitudeDegrees>43.0208343453705310821533203125</LatitudeDegrees>
              <LongitudeDegrees>-1.7594699375331401824951171875</LongitudeDegrees>
            </Position>
            <AltitudeMeters>598.5999755859375</AltitudeMeters>
            <DistanceMeters>60780.675794772</DistanceMeters>
          </Trackpoint>
          <Trackpoint>
            <Time>2018-08-26T08:03:55.000Z</Time>
            <Position>
              <LatitudeDegrees>43.02075463347136974334716796875</LatitudeDegrees>
              <LongitudeDegrees>-1.759475804865360260009765625</LongitudeDegrees>
            </Position>
            <AltitudeMeters>598.5999755859375</AltitudeMeters>
            <DistanceMeters>60789.560665524</DistanceMeters>
          </Trackpoint>
          <Trackpoint>
            <Time>2018-08-26T08:03:56.000Z</Time>
            <Position>
              <LatitudeDegrees>43.0206714011728763580322265625</LatitudeDegrees>
              <LongitudeDegrees>-1.7594803310930728912353515625</LongitudeDegrees>
            </Position>
            <AltitudeMeters>598.5999755859375</AltitudeMeters>
            <DistanceMeters>60798.832468356</DistanceMeters>
          </Trackpoint>
          <Trackpoint>
            <Time>2018-08-26T08:03:57.000Z</Time>
            <Position>
              <LatitudeDegrees>43.02059235982596874237060546875</LatitudeDegrees>
              <LongitudeDegrees>-1.75948410294950008392333984375</LongitudeDegrees>
            </Position>
            <AltitudeMeters>598.5999755859375</AltitudeMeters>
            <DistanceMeters>60807.636169061</DistanceMeters>
          </Trackpoint>
          <Trackpoint>
            <Time>2018-08-26T08:03:58.000Z</Time>
            <Position>
              <LatitudeDegrees>43.0205118097364902496337890625</LatitudeDegrees>
              <LongitudeDegrees>-1.75947639159858226776123046875</LongitudeDegrees>
            </Position>
            <AltitudeMeters>598.5999755859375</AltitudeMeters>
            <DistanceMeters>60816.624108974</DistanceMeters>
          </Trackpoint>
          <Trackpoint>
            <Time>2018-08-26T08:03:59.000Z</Time>
            <Position>
              <LatitudeDegrees>43.02043243311345577239990234375</LatitudeDegrees>
              <LongitudeDegrees>-1.75946264527738094329833984375</LongitudeDegrees>
            </Position>
            <AltitudeMeters>598.5999755859375</AltitudeMeters>
            <DistanceMeters>60825.529283387</DistanceMeters>
          </Trackpoint>
          <Trackpoint>
            <Time>2018-08-26T08:04:00.000Z</Time>
            <Position>
              <LatitudeDegrees>43.0203508771955966949462890625</LatitudeDegrees>
              <LongitudeDegrees>-1.7594392597675323486328125</LongitudeDegrees>
            </Position>
            <AltitudeMeters>598.5999755859375</AltitudeMeters>
            <DistanceMeters>60834.803520721</DistanceMeters>
          </Trackpoint>
          <Trackpoint>
            <Time>2018-08-26T08:04:01.000Z</Time>
            <Position>
              <LatitudeDegrees>43.0202724225819110870361328125</LatitudeDegrees>
              <LongitudeDegrees>-1.75941771827638149261474609375</LongitudeDegrees>
            </Position>
            <AltitudeMeters>598.5999755859375</AltitudeMeters>
            <DistanceMeters>60843.709202133</DistanceMeters>
          </Trackpoint>
          <Trackpoint>
            <Time>2018-08-26T08:04:02.000Z</Time>
            <Position>
              <LatitudeDegrees>43.02019245922565460205078125</LatitudeDegrees>
              <LongitudeDegrees>-1.75939969718456268310546875</LongitudeDegrees>
            </Position>
            <AltitudeMeters>598.79998779296875</AltitudeMeters>
            <DistanceMeters>60852.729234769</DistanceMeters>
          </Trackpoint>
          <Trackpoint>
            <Time>2018-08-26T08:04:03.000Z</Time>
            <Position>
              <LatitudeDegrees>43.0201051197946071624755859375</LatitudeDegrees>
              <LongitudeDegrees>-1.7593804188072681427001953125</LongitudeDegrees>
            </Position>
            <AltitudeMeters>599</AltitudeMeters>
            <DistanceMeters>60862.576313567</DistanceMeters>
          </Trackpoint>
          <Trackpoint>
            <Time>2018-08-26T08:04:04.000Z</Time>
            <Position>
              <LatitudeDegrees>43.02001954056322574615478515625</LatitudeDegrees>
              <LongitudeDegrees>-1.7593748867511749267578125</LongitudeDegrees>
            </Position>
            <AltitudeMeters>599.20001220703125</AltitudeMeters>
            <DistanceMeters>60872.111712862</DistanceMeters>
          </Trackpoint>
          <Trackpoint>
            <Time>2018-08-26T08:04:05.000Z</Time>
            <Position>
              <LatitudeDegrees>43.01992960274219512939453125</LatitudeDegrees>
              <LongitudeDegrees>-1.75937882624566555023193359375</LongitudeDegrees>
            </Position>
            <AltitudeMeters>599.20001220703125</AltitudeMeters>
            <DistanceMeters>60882.127005626</DistanceMeters>
          </Trackpoint>
          <Trackpoint>
            <Time>2018-08-26T08:04:06.000Z</Time>
            <Position>
              <LatitudeDegrees>43.01983882673084735870361328125</LatitudeDegrees>
              <LongitudeDegrees>-1.75939290784299373626708984375</LongitudeDegrees>
            </Position>
            <AltitudeMeters>599.20001220703125</AltitudeMeters>
            <DistanceMeters>60892.295308104</DistanceMeters>
          </Trackpoint>
          <Trackpoint>
            <Time>2018-08-26T08:04:07.000Z</Time>
            <Position>
              <LatitudeDegrees>43.0197477154433727264404296875</LatitudeDegrees>
              <LongitudeDegrees>-1.759414114058017730712890625</LongitudeDegrees>
            </Position>
            <AltitudeMeters>599.20001220703125</AltitudeMeters>
            <DistanceMeters>60902.581922502</DistanceMeters>
          </Trackpoint>
          <Trackpoint>
            <Time>2018-08-26T08:04:08.000Z</Time>
            <Position>
              <LatitudeDegrees>43.01965677179396152496337890625</LatitudeDegrees>
              <LongitudeDegrees>-1.75943884067237377166748046875</LongitudeDegrees>
            </Position>
            <AltitudeMeters>599.20001220703125</AltitudeMeters>
            <DistanceMeters>60912.901841182</DistanceMeters>
          </Trackpoint>
          <Trackpoint>
            <Time>2018-08-26T08:04:09.000Z</Time>
            <Position>
              <LatitudeDegrees>43.019566498696804046630859375</LatitudeDegrees>
              <LongitudeDegrees>-1.75946281291544437408447265625</LongitudeDegrees>
            </Position>
            <AltitudeMeters>599.20001220703125</AltitudeMeters>
            <DistanceMeters>60923.136972683</DistanceMeters>
          </Trackpoint>
          <Trackpoint>
            <Time>2018-08-26T08:04:10.000Z</Time>
            <Position>
              <LatitudeDegrees>43.0194751359522342681884765625</LatitudeDegrees>
              <LongitudeDegrees>-1.75948007963597774505615234375</LongitudeDegrees>
            </Position>
            <AltitudeMeters>599.20001220703125</AltitudeMeters>
            <DistanceMeters>60933.402497126</DistanceMeters>
          </Trackpoint>
          <Trackpoint>
            <Time>2018-08-26T08:04:11.000Z</Time>
            <Position>
              <LatitudeDegrees>43.0193856172263622283935546875</LatitudeDegrees>
              <LongitudeDegrees>-1.75949516706168651580810546875</LongitudeDegrees>
            </Position>
            <AltitudeMeters>599.20001220703125</AltitudeMeters>
            <DistanceMeters>60943.441204867</DistanceMeters>
          </Trackpoint>
          <Trackpoint>
            <Time>2018-08-26T08:04:12.000Z</Time>
            <Position>
              <LatitudeDegrees>43.01929484121501445770263671875</LatitudeDegrees>
              <LongitudeDegrees>-1.7595051415264606475830078125</LongitudeDegrees>
            </Position>
            <AltitudeMeters>599.20001220703125</AltitudeMeters>
            <DistanceMeters>60953.577486719</DistanceMeters>
          </Trackpoint>
          <Trackpoint>
            <Time>2018-08-26T08:04:13.000Z</Time>
            <Position>
              <LatitudeDegrees>43.01920264028012752532958984375</LatitudeDegrees>
              <LongitudeDegrees>-1.75951276905834674835205078125</LongitudeDegrees>
            </Position>
            <AltitudeMeters>599</AltitudeMeters>
            <DistanceMeters>60963.858393526</DistanceMeters>
          </Trackpoint>
          <Trackpoint>
            <Time>2018-08-26T08:04:14.000Z</Time>
            <Position>
              <LatitudeDegrees>43.019110523164272308349609375</LatitudeDegrees>
              <LongitudeDegrees>-1.7595215700566768646240234375</LongitudeDegrees>
            </Position>
            <AltitudeMeters>598.5999755859375</AltitudeMeters>
            <DistanceMeters>60974.136225702</DistanceMeters>
          </Trackpoint>
          <Trackpoint>
            <Time>2018-08-26T08:04:15.000Z</Time>
            <Position>
              <LatitudeDegrees>43.019017986953258514404296875</LatitudeDegrees>
              <LongitudeDegrees>-1.75952886231243610382080078125</LongitudeDegrees>
            </Position>
            <AltitudeMeters>598.20001220703125</AltitudeMeters>
            <DistanceMeters>60984.452643732</DistanceMeters>
          </Trackpoint>
          <Trackpoint>
            <Time>2018-08-26T08:04:16.000Z</Time>
            <Position>
              <LatitudeDegrees>43.0189266242086887359619140625</LatitudeDegrees>
              <LongitudeDegrees>-1.7595356516540050506591796875</LongitudeDegrees>
            </Position>
            <AltitudeMeters>598</AltitudeMeters>
            <DistanceMeters>60994.63691877</DistanceMeters>
          </Trackpoint>
          <Trackpoint>
            <Time>2018-08-26T08:04:17.000Z</Time>
            <Position>
              <LatitudeDegrees>43.01883526146411895751953125</LatitudeDegrees>
              <LongitudeDegrees>-1.7595420219004154205322265625</LongitudeDegrees>
            </Position>
            <AltitudeMeters>597.79998779296875</AltitudeMeters>
            <DistanceMeters>61004.819420315</DistanceMeters>
          </Trackpoint>
          <Trackpoint>
            <Time>2018-08-26T08:04:18.000Z</Time>
            <Position>
              <LatitudeDegrees>43.01874381490051746368408203125</LatitudeDegrees>
              <LongitudeDegrees>-1.7595493979752063751220703125</LongitudeDegrees>
            </Position>
            <AltitudeMeters>597.5999755859375</AltitudeMeters>
            <DistanceMeters>61015.015215528</DistanceMeters>
          </Trackpoint>
          <Trackpoint>
            <Time>2018-08-26T08:04:19.000Z</Time>
            <Position>
              <LatitudeDegrees>43.01865295507013797760009765625</LatitudeDegrees>
              <LongitudeDegrees>-1.75955702550709247589111328125</LongitudeDegrees>
            </Position>
            <AltitudeMeters>597.5999755859375</AltitudeMeters>
            <DistanceMeters>61025.147042067</DistanceMeters>
          </Trackpoint>
          <Trackpoint>
            <Time>2018-08-26T08:04:20.000Z</Time>
            <Position>
              <LatitudeDegrees>43.01856276579201221466064453125</LatitudeDegrees>
              <LongitudeDegrees>-1.75956331193447113037109375</LongitudeDegrees>
            </Position>
            <AltitudeMeters>597.5999755859375</AltitudeMeters>
            <DistanceMeters>61035.19833528</DistanceMeters>
          </Trackpoint>
          <Trackpoint>
            <Time>2018-08-26T08:04:21.000Z</Time>
            <Position>
              <LatitudeDegrees>43.01847458817064762115478515625</LatitudeDegrees>
              <LongitudeDegrees>-1.7595706880092620849609375</LongitudeDegrees>
            </Position>
            <AltitudeMeters>597.4000244140625</AltitudeMeters>
            <DistanceMeters>61045.030730635</DistanceMeters>
          </Trackpoint>
          <Trackpoint>
            <Time>2018-08-26T08:04:22.000Z</Time>
            <Position>
              <LatitudeDegrees>43.01838590763509273529052734375</LatitudeDegrees>
              <LongitudeDegrees>-1.75957479514181613922119140625</LongitudeDegrees>
            </Position>
            <AltitudeMeters>597.4000244140625</AltitudeMeters>
            <DistanceMeters>61054.906196477</DistanceMeters>
          </Trackpoint>
          <Trackpoint>
            <Time>2018-08-26T08:04:23.000Z</Time>
            <Position>
              <LatitudeDegrees>43.0183009989559650421142578125</LatitudeDegrees>
              <LongitudeDegrees>-1.75957781262695789337158203125</LongitudeDegrees>
            </Position>
            <AltitudeMeters>597.4000244140625</AltitudeMeters>
            <DistanceMeters>61064.359324874</DistanceMeters>
          </Trackpoint>
          <Trackpoint>
            <Time>2018-08-26T08:04:24.000Z</Time>
            <Position>
              <LatitudeDegrees>43.01822061650454998016357421875</LatitudeDegrees>
              <LongitudeDegrees>-1.75957814790308475494384765625</LongitudeDegrees>
            </Position>
            <AltitudeMeters>597.4000244140625</AltitudeMeters>
            <DistanceMeters>61073.306482393</DistanceMeters>
          </Trackpoint>
          <Trackpoint>
            <Time>2018-08-26T08:04:25.000Z</Time>
            <Position>
              <LatitudeDegrees>43.01814149133861064910888671875</LatitudeDegrees>
              <LongitudeDegrees>-1.75957177765667438507080078125</LongitudeDegrees>
            </Position>
            <AltitudeMeters>597.4000244140625</AltitudeMeters>
            <DistanceMeters>61082.129138396</DistanceMeters>
          </Trackpoint>
          <Trackpoint>
            <Time>2018-08-26T08:04:26.000Z</Time>
            <Position>
              <LatitudeDegrees>43.018060438334941864013671875</LatitudeDegrees>
              <LongitudeDegrees>-1.7595599591732025146484375</LongitudeDegrees>
            </Position>
            <AltitudeMeters>597.4000244140625</AltitudeMeters>
            <DistanceMeters>61091.202074903</DistanceMeters>
          </Trackpoint>
          <Trackpoint>
            <Time>2018-08-26T08:04:27.000Z</Time>
            <Position>
              <LatitudeDegrees>43.01798039115965366363525390625</LatitudeDegrees>
              <LongitudeDegrees>-1.75954529084265232086181640625</LongitudeDegrees>
            </Position>
            <AltitudeMeters>597.4000244140625</AltitudeMeters>
            <DistanceMeters>61100.192023967</DistanceMeters>
          </Trackpoint>
          <Trackpoint>
            <Time>2018-08-26T08:04:28.000Z</Time>
            <Position>
              <LatitudeDegrees>43.017901517450809478759765625</LatitudeDegrees>
              <LongitudeDegrees>-1.75953204743564128875732421875</LongitudeDegrees>
            </Position>
            <AltitudeMeters>597.4000244140625</AltitudeMeters>
            <DistanceMeters>61109.037168529</DistanceMeters>
          </Trackpoint>
          <Trackpoint>
            <Time>2018-08-26T08:04:29.000Z</Time>
            <Position>
              <LatitudeDegrees>43.0178208835422992706298828125</LatitudeDegrees>
              <LongitudeDegrees>-1.759519390761852264404296875</LongitudeDegrees>
            </Position>
            <AltitudeMeters>597.5999755859375</AltitudeMeters>
            <DistanceMeters>61118.071205882</DistanceMeters>
          </Trackpoint>
          <Trackpoint>
            <Time>2018-08-26T08:04:30.000Z</Time>
            <Position>
              <LatitudeDegrees>43.01774418912827968597412109375</LatitudeDegrees>
              <LongitudeDegrees>-1.759505309164524078369140625</LongitudeDegrees>
            </Position>
            <AltitudeMeters>597.5999755859375</AltitudeMeters>
            <DistanceMeters>61126.683583481</DistanceMeters>
          </Trackpoint>
          <Trackpoint>
            <Time>2018-08-26T08:04:31.000Z</Time>
            <Position>
              <LatitudeDegrees>43.0176716856658458709716796875</LatitudeDegrees>
              <LongitudeDegrees>-1.75949265249073505401611328125</LongitudeDegrees>
            </Position>
            <AltitudeMeters>597.5999755859375</AltitudeMeters>
            <DistanceMeters>61134.819335464</DistanceMeters>
          </Trackpoint>
          <Trackpoint>
            <Time>2018-08-26T08:04:32.000Z</Time>
            <Position>
              <LatitudeDegrees>43.01759750582277774810791015625</LatitudeDegrees>
              <LongitudeDegrees>-1.759477816522121429443359375</LongitudeDegrees>
            </Position>
            <AltitudeMeters>597.5999755859375</AltitudeMeters>
            <DistanceMeters>61143.163308702</DistanceMeters>
          </Trackpoint>
          <Trackpoint>
            <Time>2018-08-26T08:04:33.000Z</Time>
            <Position>
              <LatitudeDegrees>43.0175228230655193328857421875</LatitudeDegrees>
              <LongitudeDegrees>-1.75946314819157123565673828125</LongitudeDegrees>
            </Position>
            <AltitudeMeters>597.79998779296875</AltitudeMeters>
            <DistanceMeters>61151.561218979</DistanceMeters>
          </Trackpoint>
          <Trackpoint>
            <Time>2018-08-26T08:04:34.000Z</Time>
            <Position>
              <LatitudeDegrees>43.017448224127292633056640625</LatitudeDegrees>
              <LongitudeDegrees>-1.75944856368005275726318359375</LongitudeDegrees>
            </Position>
            <AltitudeMeters>598</AltitudeMeters>
            <DistanceMeters>61159.948369598</DistanceMeters>
          </Trackpoint>
          <Trackpoint>
            <Time>2018-08-26T08:04:35.000Z</Time>
            <Position>
              <LatitudeDegrees>43.01737119443714618682861328125</LatitudeDegrees>
              <LongitudeDegrees>-1.75943054258823394775390625</LongitudeDegrees>
            </Position>
            <AltitudeMeters>598.4000244140625</AltitudeMeters>
            <DistanceMeters>61168.646299262</DistanceMeters>
          </Trackpoint>
          <Trackpoint>
            <Time>2018-08-26T08:04:36.000Z</Time>
            <Position>
              <LatitudeDegrees>43.0172921530902385711669921875</LatitudeDegrees>
              <LongitudeDegrees>-1.7594058997929096221923828125</LongitudeDegrees>
            </Position>
            <AltitudeMeters>598.5999755859375</AltitudeMeters>
            <DistanceMeters>61177.669334739</DistanceMeters>
          </Trackpoint>
          <Trackpoint>
            <Time>2018-08-26T08:04:37.000Z</Time>
            <Position>
              <LatitudeDegrees>43.017214871942996978759765625</LatitudeDegrees>
              <LongitudeDegrees>-1.75937899388372898101806640625</LongitudeDegrees>
            </Position>
            <AltitudeMeters>598.79998779296875</AltitudeMeters>
            <DistanceMeters>61186.54505369</DistanceMeters>
          </Trackpoint>
          <Trackpoint>
            <Time>2018-08-26T08:04:38.000Z</Time>
            <Position>
              <LatitudeDegrees>43.0171375907957553863525390625</LatitudeDegrees>
              <LongitudeDegrees>-1.75934378989040851593017578125</LongitudeDegrees>
            </Position>
            <AltitudeMeters>599</AltitudeMeters>
            <DistanceMeters>61195.611020588</DistanceMeters>
          </Trackpoint>
          <Trackpoint>
            <Time>2018-08-26T08:04:39.000Z</Time>
            <Position>
              <LatitudeDegrees>43.0170584656298160552978515625</LatitudeDegrees>
              <LongitudeDegrees>-1.7593043111264705657958984375</LongitudeDegrees>
            </Position>
            <AltitudeMeters>599.20001220703125</AltitudeMeters>
            <DistanceMeters>61204.98549145</DistanceMeters>
          </Trackpoint>
          <Trackpoint>
            <Time>2018-08-26T08:04:40.000Z</Time>
            <Position>
              <LatitudeDegrees>43.01697690971195697784423828125</LatitudeDegrees>
              <LongitudeDegrees>-1.75926533527672290802001953125</LongitudeDegrees>
            </Position>
            <AltitudeMeters>599.4000244140625</AltitudeMeters>
            <DistanceMeters>61214.60057973</DistanceMeters>
          </Trackpoint>
          <Trackpoint>
            <Time>2018-08-26T08:04:41.000Z</Time>
            <Position>
              <LatitudeDegrees>43.01689275540411472320556640625</LatitudeDegrees>
              <LongitudeDegrees>-1.75922912545502185821533203125</LongitudeDegrees>
            </Position>
            <AltitudeMeters>599.4000244140625</AltitudeMeters>
            <DistanceMeters>61224.419649248</DistanceMeters>
          </Trackpoint>
          <Trackpoint>
            <Time>2018-08-26T08:04:42.000Z</Time>
            <Position>
              <LatitudeDegrees>43.01680608652532100677490234375</LatitudeDegrees>
              <LongitudeDegrees>-1.7592000402510166168212890625</LongitudeDegrees>
            </Position>
            <AltitudeMeters>599.4000244140625</AltitudeMeters>
            <DistanceMeters>61234.352554927</DistanceMeters>
          </Trackpoint>
          <Trackpoint>
            <Time>2018-08-26T08:04:43.000Z</Time>
            <Position>
              <LatitudeDegrees>43.016717992722988128662109375</LatitudeDegrees>
              <LongitudeDegrees>-1.75917732529342174530029296875</LongitudeDegrees>
            </Position>
            <AltitudeMeters>599.4000244140625</AltitudeMeters>
            <DistanceMeters>61244.329907417</DistanceMeters>
          </Trackpoint>
          <Trackpoint>
            <Time>2018-08-26T08:04:44.000Z</Time>
            <Position>
              <LatitudeDegrees>43.01662788726389408111572265625</LatitudeDegrees>
              <LongitudeDegrees>-1.7591598071157932281494140625</LongitudeDegrees>
            </Position>
            <AltitudeMeters>599.4000244140625</AltitudeMeters>
            <DistanceMeters>61254.459059828</DistanceMeters>
          </Trackpoint>
          <Trackpoint>
            <Time>2018-08-26T08:04:45.000Z</Time>
            <Position>
              <LatitudeDegrees>43.01653836853802204132080078125</LatitudeDegrees>
              <LongitudeDegrees>-1.759142540395259857177734375</LongitudeDegrees>
            </Position>
            <AltitudeMeters>599.4000244140625</AltitudeMeters>
            <DistanceMeters>61264.521128059</DistanceMeters>
          </Trackpoint>
          <Trackpoint>
            <Time>2018-08-26T08:04:46.000Z</Time>
            <Position>
              <LatitudeDegrees>43.01644943654537200927734375</LatitudeDegrees>
              <LongitudeDegrees>-1.7591229267418384552001953125</LongitudeDegrees>
            </Position>
            <AltitudeMeters>599.4000244140625</AltitudeMeters>
            <DistanceMeters>61274.54723453</DistanceMeters>
          </Trackpoint>
          <Trackpoint>
            <Time>2018-08-26T08:04:47.000Z</Time>
            <Position>
              <LatitudeDegrees>43.01635782234370708465576171875</LatitudeDegrees>
              <LongitudeDegrees>-1.75910339690744876861572265625</LongitudeDegrees>
            </Position>
            <AltitudeMeters>599.4000244140625</AltitudeMeters>
            <DistanceMeters>61284.867153211</DistanceMeters>
          </Trackpoint>
          <Trackpoint>
            <Time>2018-08-26T08:04:48.000Z</Time>
            <Position>
              <LatitudeDegrees>43.01627132110297679901123046875</LatitudeDegrees>
              <LongitudeDegrees>-1.7590759880840778350830078125</LongitudeDegrees>
            </Position>
            <AltitudeMeters>599.4000244140625</AltitudeMeters>
            <DistanceMeters>61294.749931506</DistanceMeters>
          </Trackpoint>
          <Trackpoint>
            <Time>2018-08-26T08:04:49.000Z</Time>
            <Position>
              <LatitudeDegrees>43.0161867476999759674072265625</LatitudeDegrees>
              <LongitudeDegrees>-1.759043633937835693359375</LongitudeDegrees>
            </Position>
            <AltitudeMeters>599</AltitudeMeters>
            <DistanceMeters>61304.525220194</DistanceMeters>
          </Trackpoint>
          <Trackpoint>
            <Time>2018-08-26T08:04:50.000Z</Time>
            <Position>
              <LatitudeDegrees>43.01610301248729228973388671875</LatitudeDegrees>
              <LongitudeDegrees>-1.7590109445154666900634765625</LongitudeDegrees>
            </Position>
            <AltitudeMeters>598.4000244140625</AltitudeMeters>
            <DistanceMeters>61314.217479231</DistanceMeters>
          </Trackpoint>
          <Trackpoint>
            <Time>2018-08-26T08:04:51.000Z</Time>
            <Position>
              <LatitudeDegrees>43.01602003164589405059814453125</LatitudeDegrees>
              <LongitudeDegrees>-1.7589824460446834564208984375</LongitudeDegrees>
            </Position>
            <AltitudeMeters>598</AltitudeMeters>
            <DistanceMeters>61323.740085368</DistanceMeters>
          </Trackpoint>
          <Trackpoint>
            <Time>2018-08-26T08:04:52.000Z</Time>
            <Position>
              <LatitudeDegrees>43.01593713462352752685546875</LatitudeDegrees>
              <LongitudeDegrees>-1.75895981490612030029296875</LongitudeDegrees>
            </Position>
            <AltitudeMeters>597.79998779296875</AltitudeMeters>
            <DistanceMeters>61333.148210012</DistanceMeters>
          </Trackpoint>
          <Trackpoint>
            <Time>2018-08-26T08:04:53.000Z</Time>
            <Position>
              <LatitudeDegrees>43.01585532724857330322265625</LatitudeDegrees>
              <LongitudeDegrees>-1.75894246436655521392822265625</LongitudeDegrees>
            </Position>
            <AltitudeMeters>597.79998779296875</AltitudeMeters>
            <DistanceMeters>61342.362371869</DistanceMeters>
          </Trackpoint>
          <Trackpoint>
            <Time>2018-08-26T08:04:54.000Z</Time>
            <Position>
              <LatitudeDegrees>43.015774190425872802734375</LatitudeDegrees>
              <LongitudeDegrees>-1.75892871804535388946533203125</LongitudeDegrees>
            </Position>
            <AltitudeMeters>597.5999755859375</AltitudeMeters>
            <DistanceMeters>61351.461644967</DistanceMeters>
          </Trackpoint>
          <Trackpoint>
            <Time>2018-08-26T08:04:55.000Z</Time>
            <Position>
              <LatitudeDegrees>43.0156925506889820098876953125</LatitudeDegrees>
              <LongitudeDegrees>-1.758915893733501434326171875</LongitudeDegrees>
            </Position>
            <AltitudeMeters>597.5999755859375</AltitudeMeters>
            <DistanceMeters>61360.607935372</DistanceMeters>
          </Trackpoint>
          <Trackpoint>
            <Time>2018-08-26T08:04:56.000Z</Time>
            <Position>
              <LatitudeDegrees>43.01561082713305950164794921875</LatitudeDegrees>
              <LongitudeDegrees>-1.7589028179645538330078125</LongitudeDegrees>
            </Position>
            <AltitudeMeters>597.5999755859375</AltitudeMeters>
            <DistanceMeters>61369.76606564</DistanceMeters>
          </Trackpoint>
          <Trackpoint>
            <Time>2018-08-26T08:04:57.000Z</Time>
            <Position>
              <LatitudeDegrees>43.01552784629166126251220703125</LatitudeDegrees>
              <LongitudeDegrees>-1.75888379104435443878173828125</LongitudeDegrees>
            </Position>
            <AltitudeMeters>597.5999755859375</AltitudeMeters>
            <DistanceMeters>61379.130898924</DistanceMeters>
          </Trackpoint>
          <Trackpoint>
            <Time>2018-08-26T08:04:58.000Z</Time>
            <Position>
              <LatitudeDegrees>43.01544654183089733123779296875</LatitudeDegrees>
              <LongitudeDegrees>-1.75886132754385471343994140625</LongitudeDegrees>
            </Position>
            <AltitudeMeters>597.5999755859375</AltitudeMeters>
            <DistanceMeters>61388.363173376</DistanceMeters>
          </Trackpoint>
          <Trackpoint>
            <Time>2018-08-26T08:04:59.000Z</Time>
            <Position>
              <LatitudeDegrees>43.01536708138883113861083984375</LatitudeDegrees>
              <LongitudeDegrees>-1.7588389478623867034912109375</LongitudeDegrees>
            </Position>
            <AltitudeMeters>597.5999755859375</AltitudeMeters>
            <DistanceMeters>61397.393211597</DistanceMeters>
          </Trackpoint>
          <Trackpoint>
            <Time>2018-08-26T08:05:00.000Z</Time>
            <Position>
              <LatitudeDegrees>43.01528460346162319183349609375</LatitudeDegrees>
              <LongitudeDegrees>-1.7588081024587154388427734375</LongitudeDegrees>
            </Position>
            <AltitudeMeters>597.79998779296875</AltitudeMeters>
            <DistanceMeters>61406.910126367</DistanceMeters>
          </Trackpoint>
          <Trackpoint>
            <Time>2018-08-26T08:05:01.000Z</Time>
            <Position>
              <LatitudeDegrees>43.01520480774343013763427734375</LatitudeDegrees>
              <LongitudeDegrees>-1.75877465866506099700927734375</LongitudeDegrees>
            </Position>
            <AltitudeMeters>598</AltitudeMeters>
            <DistanceMeters>61416.198471233</DistanceMeters>
          </Trackpoint>
          <Trackpoint>
            <Time>2018-08-26T08:05:02.000Z</Time>
            <Position>
              <LatitudeDegrees>43.01512601785361766815185546875</LatitudeDegrees>
              <LongitudeDegrees>-1.75873878411948680877685546875</LongitudeDegrees>
            </Position>
            <AltitudeMeters>598</AltitudeMeters>
            <DistanceMeters>61425.441010016</DistanceMeters>
          </Trackpoint>
          <Trackpoint>
            <Time>2018-08-26T08:05:03.000Z</Time>
            <Position>
              <LatitudeDegrees>43.01504789851605892181396484375</LatitudeDegrees>
              <LongitudeDegrees>-1.75870307721197605133056640625</LongitudeDegrees>
            </Position>
            <AltitudeMeters>598.20001220703125</AltitudeMeters>
            <DistanceMeters>61434.608010146</DistanceMeters>
          </Trackpoint>
          <Trackpoint>
            <Time>2018-08-26T08:05:04.000Z</Time>
            <Position>
              <LatitudeDegrees>43.0149708688259124755859375</LatitudeDegrees>
              <LongitudeDegrees>-1.7586669512093067169189453125</LongitudeDegrees>
            </Position>
            <AltitudeMeters>598.20001220703125</AltitudeMeters>
            <DistanceMeters>61443.670988428</DistanceMeters>
          </Trackpoint>
          <Trackpoint>
            <Time>2018-08-26T08:05:05.000Z</Time>
            <Position>
              <LatitudeDegrees>43.0148955993354320526123046875</LatitudeDegrees>
              <LongitudeDegrees>-1.7586300708353519439697265625</LongitudeDegrees>
            </Position>
            <AltitudeMeters>598.4000244140625</AltitudeMeters>
            <DistanceMeters>61452.570076607</DistanceMeters>
          </Trackpoint>
          <Trackpoint>
            <Time>2018-08-26T08:05:06.000Z</Time>
            <Position>
              <LatitudeDegrees>43.014821000397205352783203125</LatitudeDegrees>
              <LongitudeDegrees>-1.75859369337558746337890625</LongitudeDegrees>
            </Position>
            <AltitudeMeters>598.4000244140625</AltitudeMeters>
            <DistanceMeters>61461.384540727</DistanceMeters>
          </Trackpoint>
          <Trackpoint>
            <Time>2018-08-26T08:05:07.000Z</Time>
            <Position>
              <LatitudeDegrees>43.0147474072873592376708984375</LatitudeDegrees>
              <LongitudeDegrees>-1.75855974666774272918701171875</LongitudeDegrees>
            </Position>
            <AltitudeMeters>598.4000244140625</AltitudeMeters>
            <DistanceMeters>61470.028316088</DistanceMeters>
          </Trackpoint>
          <Trackpoint>
            <Time>2018-08-26T08:05:08.000Z</Time>
            <Position>
              <LatitudeDegrees>43.014674820005893707275390625</LatitudeDegrees>
              <LongitudeDegrees>-1.7585264705121517181396484375</LongitudeDegrees>
            </Position>
            <AltitudeMeters>598.4000244140625</AltitudeMeters>
            <DistanceMeters>61478.548985933</DistanceMeters>
          </Trackpoint>
          <Trackpoint>
            <Time>2018-08-26T08:05:09.000Z</Time>
            <Position>
              <LatitudeDegrees>43.014603070914745330810546875</LatitudeDegrees>
              <LongitudeDegrees>-1.7584952898323535919189453125</LongitudeDegrees>
            </Position>
            <AltitudeMeters>598.5999755859375</AltitudeMeters>
            <DistanceMeters>61486.92859657</DistanceMeters>
          </Trackpoint>
          <Trackpoint>
            <Time>2018-08-26T08:05:10.000Z</Time>
            <Position>
              <LatitudeDegrees>43.0145308189094066619873046875</LatitudeDegrees>
              <LongitudeDegrees>-1.75846385769546031951904296875</LongitudeDegrees>
            </Position>
            <AltitudeMeters>598.5999755859375</AltitudeMeters>
            <DistanceMeters>61495.367268435</DistanceMeters>
          </Trackpoint>
          <Trackpoint>
            <Time>2018-08-26T08:05:11.000Z</Time>
            <Position>
              <LatitudeDegrees>43.0144580639898777008056640625</LatitudeDegrees>
              <LongitudeDegrees>-1.758431084454059600830078125</LongitudeDegrees>
            </Position>
            <AltitudeMeters>598.5999755859375</AltitudeMeters>
            <DistanceMeters>61503.892705978</DistanceMeters>
          </Trackpoint>
          <Trackpoint>
            <Time>2018-08-26T08:05:12.000Z</Time>
            <Position>
              <LatitudeDegrees>43.01438547670841217041015625</LatitudeDegrees>
              <LongitudeDegrees>-1.7583920247852802276611328125</LongitudeDegrees>
            </Position>
            <AltitudeMeters>598.5999755859375</AltitudeMeters>
            <DistanceMeters>61512.57400876</DistanceMeters>
          </Trackpoint>
          <Trackpoint>
            <Time>2018-08-26T08:05:13.000Z</Time>
            <Position>
              <LatitudeDegrees>43.01431247033178806304931640625</LatitudeDegrees>
              <LongitudeDegrees>-1.7583501152694225311279296875</LongitudeDegrees>
            </Position>
            <AltitudeMeters>598.5999755859375</AltitudeMeters>
            <DistanceMeters>61521.385911355</DistanceMeters>
          </Trackpoint>
          <Trackpoint>
            <Time>2018-08-26T08:05:14.000Z</Time>
            <Position>
              <LatitudeDegrees>43.0142384581267833709716796875</LatitudeDegrees>
              <LongitudeDegrees>-1.75830711610615253448486328125</LongitudeDegrees>
            </Position>
            <AltitudeMeters>598.5999755859375</AltitudeMeters>
            <DistanceMeters>61530.336096165</DistanceMeters>
          </Trackpoint>
          <Trackpoint>
            <Time>2018-08-26T08:05:15.000Z</Time>
            <Position>
              <LatitudeDegrees>43.01416545175015926361083984375</LatitudeDegrees>
              <LongitudeDegrees>-1.75826017744839191436767578125</LongitudeDegrees>
            </Position>
            <AltitudeMeters>598.5999755859375</AltitudeMeters>
            <DistanceMeters>61539.314989331</DistanceMeters>
          </Trackpoint>
          <Trackpoint>
            <Time>2018-08-26T08:05:16.000Z</Time>
            <Position>
              <LatitudeDegrees>43.014094121754169464111328125</LatitudeDegrees>
              <LongitudeDegrees>-1.75820737145841121673583984375</LongitudeDegrees>
            </Position>
            <AltitudeMeters>598.5999755859375</AltitudeMeters>
            <DistanceMeters>61548.343027323</DistanceMeters>
          </Trackpoint>
          <Trackpoint>
            <Time>2018-08-26T08:05:17.000Z</Time>
            <Position>
              <LatitudeDegrees>43.01402262412011623382568359375</LatitudeDegrees>
              <LongitudeDegrees>-1.75814970396459102630615234375</LongitudeDegrees>
            </Position>
            <AltitudeMeters>598.5999755859375</AltitudeMeters>
            <DistanceMeters>61557.58165723</DistanceMeters>
          </Trackpoint>
          <Trackpoint>
            <Time>2018-08-26T08:05:18.000Z</Time>
            <Position>
              <LatitudeDegrees>43.01395171321928501129150390625</LatitudeDegrees>
              <LongitudeDegrees>-1.75808985717594623565673828125</LongitudeDegrees>
            </Position>
            <AltitudeMeters>598.5999755859375</AltitudeMeters>
            <DistanceMeters>61566.855894564</DistanceMeters>
          </Trackpoint>
          <Trackpoint>
            <Time>2018-08-26T08:05:19.000Z</Time>
            <Position>
              <LatitudeDegrees>43.013880215585231781005859375</LatitudeDegrees>
              <LongitudeDegrees>-1.75803084857761859893798828125</LongitudeDegrees>
            </Position>
            <AltitudeMeters>598.4000244140625</AltitudeMeters>
            <DistanceMeters>61576.151042299</DistanceMeters>
          </Trackpoint>
          <Trackpoint>
            <Time>2018-08-26T08:05:20.000Z</Time>
            <Position>
              <LatitudeDegrees>43.0138079635798931121826171875</LatitudeDegrees>
              <LongitudeDegrees>-1.7579734325408935546875</LongitudeDegrees>
            </Position>
            <AltitudeMeters>598.4000244140625</AltitudeMeters>
            <DistanceMeters>61585.452017104</DistanceMeters>
          </Trackpoint>
          <Trackpoint>
            <Time>2018-08-26T08:05:21.000Z</Time>
            <Position>
              <LatitudeDegrees>43.01373546011745929718017578125</LatitudeDegrees>
              <LongitudeDegrees>-1.7579176090657711029052734375</LongitudeDegrees>
            </Position>
            <AltitudeMeters>598.20001220703125</AltitudeMeters>
            <DistanceMeters>61594.713100522</DistanceMeters>
          </Trackpoint>
          <Trackpoint>
            <Time>2018-08-26T08:05:22.000Z</Time>
            <Position>
              <LatitudeDegrees>43.0136617831885814666748046875</LatitudeDegrees>
              <LongitudeDegrees>-1.75786622799932956695556640625</LongitudeDegrees>
            </Position>
            <AltitudeMeters>598</AltitudeMeters>
            <DistanceMeters>61603.91843796</DistanceMeters>
          </Trackpoint>
          <Trackpoint>
            <Time>2018-08-26T08:05:23.000Z</Time>
            <Position>
              <LatitudeDegrees>43.01358751952648162841796875</LatitudeDegrees>
              <LongitudeDegrees>-1.75782264210283756256103515625</LongitudeDegrees>
            </Position>
            <AltitudeMeters>597.79998779296875</AltitudeMeters>
            <DistanceMeters>61612.91340794</DistanceMeters>
          </Trackpoint>
          <Trackpoint>
            <Time>2018-08-26T08:05:24.000Z</Time>
            <Position>
              <LatitudeDegrees>43.01351266913115978240966796875</LatitudeDegrees>
              <LongitudeDegrees>-1.75778894685208797454833984375</LongitudeDegrees>
            </Position>
            <AltitudeMeters>597.79998779296875</AltitudeMeters>
            <DistanceMeters>61621.684224391</DistanceMeters>
          </Trackpoint>
          <Trackpoint>
            <Time>2018-08-26T08:05:25.000Z</Time>
            <Position>
              <LatitudeDegrees>43.0134379863739013671875</LatitudeDegrees>
              <LongitudeDegrees>-1.75776061601936817169189453125</LongitudeDegrees>
            </Position>
            <AltitudeMeters>597.5999755859375</AltitudeMeters>
            <DistanceMeters>61630.310221719</DistanceMeters>
          </Trackpoint>
          <Trackpoint>
            <Time>2018-08-26T08:05:26.000Z</Time>
            <Position>
              <LatitudeDegrees>43.013363219797611236572265625</LatitudeDegrees>
              <LongitudeDegrees>-1.75773538649082183837890625</LongitudeDegrees>
            </Position>
            <AltitudeMeters>597.4000244140625</AltitudeMeters>
            <DistanceMeters>61638.881610285</DistanceMeters>
          </Trackpoint>
          <Trackpoint>
            <Time>2018-08-26T08:05:27.000Z</Time>
            <Position>
              <LatitudeDegrees>43.01328786648809909820556640625</LatitudeDegrees>
              <LongitudeDegrees>-1.7577100731432437896728515625</LongitudeDegrees>
            </Position>
            <AltitudeMeters>597.20001220703125</AltitudeMeters>
            <DistanceMeters>61647.518069712</DistanceMeters>
          </Trackpoint>
          <Trackpoint>
            <Time>2018-08-26T08:05:28.000Z</Time>
            <Position>
              <LatitudeDegrees>43.01321377046406269073486328125</LatitudeDegrees>
              <LongitudeDegrees>-1.7576845921576023101806640625</LongitudeDegrees>
            </Position>
            <AltitudeMeters>597.20001220703125</AltitudeMeters>
            <DistanceMeters>61656.021766094</DistanceMeters>
          </Trackpoint>
          <Trackpoint>
            <Time>2018-08-26T08:05:29.000Z</Time>
            <Position>
              <LatitudeDegrees>43.0131387524306774139404296875</LatitudeDegrees>
              <LongitudeDegrees>-1.7576584406197071075439453125</LongitudeDegrees>
            </Position>
            <AltitudeMeters>596.79998779296875</AltitudeMeters>
            <DistanceMeters>61664.639384598</DistanceMeters>
          </Trackpoint>
          <Trackpoint>
            <Time>2018-08-26T08:05:30.000Z</Time>
            <Position>
              <LatitudeDegrees>43.01306272856891155242919921875</LatitudeDegrees>
              <LongitudeDegrees>-1.75763388164341449737548828125</LongitudeDegrees>
            </Position>
            <AltitudeMeters>597</AltitudeMeters>
            <DistanceMeters>61673.333679849</DistanceMeters>
          </Trackpoint>
          <Trackpoint>
            <Time>2018-08-26T08:05:31.000Z</Time>
            <Position>
              <LatitudeDegrees>43.012989051640033721923828125</LatitudeDegrees>
              <LongitudeDegrees>-1.75762273371219635009765625</LongitudeDegrees>
            </Position>
            <AltitudeMeters>597</AltitudeMeters>
            <DistanceMeters>61681.584056581</DistanceMeters>
          </Trackpoint>
          <Trackpoint>
            <Time>2018-08-26T08:05:32.000Z</Time>
            <Position>
              <LatitudeDegrees>43.01292040385305881500244140625</LatitudeDegrees>
              <LongitudeDegrees>-1.75764561630785465240478515625</LongitudeDegrees>
            </Position>
            <AltitudeMeters>596.79998779296875</AltitudeMeters>
            <DistanceMeters>61689.448916634</DistanceMeters>
          </Trackpoint>
          <Trackpoint>
            <Time>2018-08-26T08:05:33.000Z</Time>
            <Position>
              <LatitudeDegrees>43.01287279464304447174072265625</LatitudeDegrees>
              <LongitudeDegrees>-1.75771057605743408203125</LongitudeDegrees>
            </Position>
            <AltitudeMeters>596.79998779296875</AltitudeMeters>
            <DistanceMeters>61696.933740897</DistanceMeters>
          </Trackpoint>
          <Trackpoint>
            <Time>2018-08-26T08:05:34.000Z</Time>
            <Position>
              <LatitudeDegrees>43.0128416977822780609130859375</LatitudeDegrees>
              <LongitudeDegrees>-1.75780520774424076080322265625</LongitudeDegrees>
            </Position>
            <AltitudeMeters>596.5999755859375</AltitudeMeters>
            <DistanceMeters>61705.376692008</DistanceMeters>
          </Trackpoint>
          <Trackpoint>
            <Time>2018-08-26T08:05:35.000Z</Time>
            <Position>
              <LatitudeDegrees>43.0128135345876216888427734375</LatitudeDegrees>
              <LongitudeDegrees>-1.757910065352916717529296875</LongitudeDegrees>
            </Position>
            <AltitudeMeters>596.4000244140625</AltitudeMeters>
            <DistanceMeters>61714.468022476</DistanceMeters>
          </Trackpoint>
          <Trackpoint>
            <Time>2018-08-26T08:05:36.000Z</Time>
            <Position>
              <LatitudeDegrees>43.01278025843203067779541015625</LatitudeDegrees>
              <LongitudeDegrees>-1.75802062265574932098388671875</LongitudeDegrees>
            </Position>
            <AltitudeMeters>596</AltitudeMeters>
            <DistanceMeters>61724.197941358</DistanceMeters>
          </Trackpoint>
          <Trackpoint>
            <Time>2018-08-26T08:05:37.000Z</Time>
            <Position>
              <LatitudeDegrees>43.01274103112518787384033203125</LatitudeDegrees>
              <LongitudeDegrees>-1.75813637673854827880859375</LongitudeDegrees>
            </Position>
            <AltitudeMeters>595.79998779296875</AltitudeMeters>
            <DistanceMeters>61734.58110478</DistanceMeters>
          </Trackpoint>
          <Trackpoint>
            <Time>2018-08-26T08:05:38.000Z</Time>
            <Position>
              <LatitudeDegrees>43.0126978643238544464111328125</LatitudeDegrees>
              <LongitudeDegrees>-1.75825414247810840606689453125</LongitudeDegrees>
            </Position>
            <AltitudeMeters>595.5999755859375</AltitudeMeters>
            <DistanceMeters>61745.301870284</DistanceMeters>
          </Trackpoint>
          <Trackpoint>
            <Time>2018-08-26T08:05:39.000Z</Time>
            <Position>
              <LatitudeDegrees>43.01265385933220386505126953125</LatitudeDegrees>
              <LongitudeDegrees>-1.75837375223636627197265625</LongitudeDegrees>
            </Position>
            <AltitudeMeters>595.20001220703125</AltitudeMeters>
            <DistanceMeters>61756.198911407</DistanceMeters>
          </Trackpoint>
          <Trackpoint>
            <Time>2018-08-26T08:05:40.000Z</Time>
            <Position>
              <LatitudeDegrees>43.01260926760733127593994140625</LatitudeDegrees>
              <LongitudeDegrees>-1.75849554128944873809814453125</LongitudeDegrees>
            </Position>
            <AltitudeMeters>594.5999755859375</AltitudeMeters>
            <DistanceMeters>61767.28368701</DistanceMeters>
          </Trackpoint>
          <Trackpoint>
            <Time>2018-08-26T08:05:41.000Z</Time>
            <Position>
              <LatitudeDegrees>43.012563921511173248291015625</LatitudeDegrees>
              <LongitudeDegrees>-1.75861724652349948883056640625</LongitudeDegrees>
            </Position>
            <AltitudeMeters>593.79998779296875</AltitudeMeters>
            <DistanceMeters>61778.399781921</DistanceMeters>
          </Trackpoint>
          <Trackpoint>
            <Time>2018-08-26T08:05:42.000Z</Time>
            <Position>
              <LatitudeDegrees>43.01251891069114208221435546875</LatitudeDegrees>
              <LongitudeDegrees>-1.7587356828153133392333984375</LongitudeDegrees>
            </Position>
            <AltitudeMeters>593</AltitudeMeters>
            <DistanceMeters>61789.262794347</DistanceMeters>
          </Trackpoint>
          <Trackpoint>
            <Time>2018-08-26T08:05:43.000Z</Time>
            <Position>
              <LatitudeDegrees>43.01247331313788890838623046875</LatitudeDegrees>
              <LongitudeDegrees>-1.75885361619293689727783203125</LongitudeDegrees>
            </Position>
            <AltitudeMeters>591.79998779296875</AltitudeMeters>
            <DistanceMeters>61800.119570471</DistanceMeters>
          </Trackpoint>
          <Trackpoint>
            <Time>2018-08-26T08:05:44.000Z</Time>
            <Position>
              <LatitudeDegrees>43.0124296434223651885986328125</LatitudeDegrees>
              <LongitudeDegrees>-1.75896626897156238555908203125</LongitudeDegrees>
            </Position>
            <AltitudeMeters>590.79998779296875</AltitudeMeters>
            <DistanceMeters>61810.49620921</DistanceMeters>
          </Trackpoint>
          <Trackpoint>
            <Time>2018-08-26T08:05:45.000Z</Time>
            <Position>
              <LatitudeDegrees>43.0123873986303806304931640625</LatitudeDegrees>
              <LongitudeDegrees>-1.7590769939124584197998046875</LongitudeDegrees>
            </Position>
            <AltitudeMeters>589</AltitudeMeters>
            <DistanceMeters>61820.660070412</DistanceMeters>
          </Trackpoint>
          <Trackpoint>
            <Time>2018-08-26T08:05:46.000Z</Time>
            <Position>
              <LatitudeDegrees>43.01234523765742778778076171875</LatitudeDegrees>
              <LongitudeDegrees>-1.75918822176754474639892578125</LongitudeDegrees>
            </Position>
            <AltitudeMeters>588.20001220703125</AltitudeMeters>
            <DistanceMeters>61830.855865625</DistanceMeters>
          </Trackpoint>
          <Trackpoint>
            <Time>2018-08-26T08:05:47.000Z</Time>
            <Position>
              <LatitudeDegrees>43.01230248995125293731689453125</LatitudeDegrees>
              <LongitudeDegrees>-1.75929953344166278839111328125</LongitudeDegrees>
            </Position>
            <AltitudeMeters>587.5999755859375</AltitudeMeters>
            <DistanceMeters>61841.08879123</DistanceMeters>
          </Trackpoint>
          <Trackpoint>
            <Time>2018-08-26T08:05:48.000Z</Time>
            <Position>
              <LatitudeDegrees>43.01225840114057064056396484375</LatitudeDegrees>
              <LongitudeDegrees>-1.75941268913447856903076171875</LongitudeDegrees>
            </Position>
            <AltitudeMeters>587.20001220703125</AltitudeMeters>
            <DistanceMeters>61851.523572577</DistanceMeters>
          </Trackpoint>
          <Trackpoint>
            <Time>2018-08-26T08:05:49.000Z</Time>
            <Position>
              <LatitudeDegrees>43.0122120492160320281982421875</LatitudeDegrees>
              <LongitudeDegrees>-1.75952802412211894989013671875</LongitudeDegrees>
            </Position>
            <AltitudeMeters>586.5999755859375</AltitudeMeters>
            <DistanceMeters>61862.234225738</DistanceMeters>
          </Trackpoint>
          <Trackpoint>
            <Time>2018-08-26T08:05:50.000Z</Time>
            <Position>
              <LatitudeDegrees>43.01216192543506622314453125</LatitudeDegrees>
              <LongitudeDegrees>-1.7596459574997425079345703125</LongitudeDegrees>
            </Position>
            <AltitudeMeters>586.4000244140625</AltitudeMeters>
            <DistanceMeters>61873.335688854</DistanceMeters>
          </Trackpoint>
          <Trackpoint>
            <Time>2018-08-26T08:05:51.000Z</Time>
            <Position>
              <LatitudeDegrees>43.01210802979767322540283203125</LatitudeDegrees>
              <LongitudeDegrees>-1.7597649805247783660888671875</LongitudeDegrees>
            </Position>
            <AltitudeMeters>586.20001220703125</AltitudeMeters>
            <DistanceMeters>61884.729387944</DistanceMeters>
          </Trackpoint>
          <Trackpoint>
            <Time>2018-08-26T08:05:52.000Z</Time>
            <Position>
              <LatitudeDegrees>43.01205203868448734283447265625</LatitudeDegrees>
              <LongitudeDegrees>-1.75988257862627506256103515625</LongitudeDegrees>
            </Position>
            <AltitudeMeters>586</AltitudeMeters>
            <DistanceMeters>61896.150001945</DistanceMeters>
          </Trackpoint>
          <Trackpoint>
            <Time>2018-08-26T08:05:53.000Z</Time>
            <Position>
              <LatitudeDegrees>43.01199026405811309814453125</LatitudeDegrees>
              <LongitudeDegrees>-1.76000294275581836700439453125</LongitudeDegrees>
            </Position>
            <AltitudeMeters>586</AltitudeMeters>
            <DistanceMeters>61908.118087529</DistanceMeters>
          </Trackpoint>
          <Trackpoint>
            <Time>2018-08-26T08:05:54.000Z</Time>
            <Position>
              <LatitudeDegrees>43.0119230411946773529052734375</LatitudeDegrees>
              <LongitudeDegrees>-1.760123558342456817626953125</LongitudeDegrees>
            </Position>
            <AltitudeMeters>585.79998779296875</AltitudeMeters>
            <DistanceMeters>61920.460590906</DistanceMeters>
          </Trackpoint>
          <Trackpoint>
            <Time>2018-08-26T08:05:55.000Z</Time>
            <Position>
              <LatitudeDegrees>43.01185104064643383026123046875</LatitudeDegrees>
              <LongitudeDegrees>-1.76024191081523895263671875</LongitudeDegrees>
            </Position>
            <AltitudeMeters>585.5999755859375</AltitudeMeters>
            <DistanceMeters>61932.99043165</DistanceMeters>
          </Trackpoint>
          <Trackpoint>
            <Time>2018-08-26T08:05:56.000Z</Time>
            <Position>
              <LatitudeDegrees>43.01177543587982654571533203125</LatitudeDegrees>
              <LongitudeDegrees>-1.76036118529736995697021484375</LongitudeDegrees>
            </Position>
            <AltitudeMeters>585.20001220703125</AltitudeMeters>
            <DistanceMeters>61945.837326495</DistanceMeters>
          </Trackpoint>
          <Trackpoint>
            <Time>2018-08-26T08:05:57.000Z</Time>
            <Position>
              <LatitudeDegrees>43.0116990767419338226318359375</LatitudeDegrees>
              <LongitudeDegrees>-1.760481633245944976806640625</LongitudeDegrees>
            </Position>
            <AltitudeMeters>584.5999755859375</AltitudeMeters>
            <DistanceMeters>61958.811518377</DistanceMeters>
          </Trackpoint>
          <Trackpoint>
            <Time>2018-08-26T08:05:58.000Z</Time>
            <Position>
              <LatitudeDegrees>43.01162104122340679168701171875</LatitudeDegrees>
              <LongitudeDegrees>-1.7606028355658054351806640625</LongitudeDegrees>
            </Position>
            <AltitudeMeters>583.79998779296875</AltitudeMeters>
            <DistanceMeters>61971.95478138</DistanceMeters>
          </Trackpoint>
          <Trackpoint>
            <Time>2018-08-26T08:05:59.000Z</Time>
            <Position>
              <LatitudeDegrees>43.01154091022908687591552734375</LatitudeDegrees>
              <LongitudeDegrees>-1.760725714266300201416015625</LongitudeDegrees>
            </Position>
            <AltitudeMeters>583.20001220703125</AltitudeMeters>
            <DistanceMeters>61985.354558991</DistanceMeters>
          </Trackpoint>
          <Trackpoint>
            <Time>2018-08-26T08:06:00.000Z</Time>
            <Position>
              <LatitudeDegrees>43.01145994104444980621337890625</LatitudeDegrees>
              <LongitudeDegrees>-1.760851107537746429443359375</LongitudeDegrees>
            </Position>
            <AltitudeMeters>582.5999755859375</AltitudeMeters>
            <DistanceMeters>61998.969602481</DistanceMeters>
          </Trackpoint>
          <Trackpoint>
            <Time>2018-08-26T08:06:01.000Z</Time>
            <Position>
              <LatitudeDegrees>43.0113772116601467132568359375</LatitudeDegrees>
              <LongitudeDegrees>-1.76097775809466838836669921875</LongitudeDegrees>
            </Position>
            <AltitudeMeters>581.79998779296875</AltitudeMeters>
            <DistanceMeters>62012.791008602</DistanceMeters>
          </Trackpoint>
          <Trackpoint>
            <Time>2018-08-26T08:06:02.000Z</Time>
            <Position>
              <LatitudeDegrees>43.01128677092492580413818359375</LatitudeDegrees>
              <LongitudeDegrees>-1.76109896041452884674072265625</LongitudeDegrees>
            </Position>
            <AltitudeMeters>581.20001220703125</AltitudeMeters>
            <DistanceMeters>62026.884787072</DistanceMeters>
          </Trackpoint>
          <Trackpoint>
            <Time>2018-08-26T08:06:03.000Z</Time>
            <Position>
              <LatitudeDegrees>43.01118585281074047088623046875</LatitudeDegrees>
              <LongitudeDegrees>-1.7612059973180294036865234375</LongitudeDegrees>
            </Position>
            <AltitudeMeters>581</AltitudeMeters>
            <DistanceMeters>62041.099462253</DistanceMeters>
          </Trackpoint>
          <Trackpoint>
            <Time>2018-08-26T08:06:04.000Z</Time>
            <Position>
              <LatitudeDegrees>43.01107470877468585968017578125</LatitudeDegrees>
              <LongitudeDegrees>-1.76128797233104705810546875</LongitudeDegrees>
            </Position>
            <AltitudeMeters>580.5999755859375</AltitudeMeters>
            <DistanceMeters>62055.154424092</DistanceMeters>
          </Trackpoint>
          <Trackpoint>
            <Time>2018-08-26T08:06:05.000Z</Time>
            <Position>
              <LatitudeDegrees>43.01095820032060146331787109375</LatitudeDegrees>
              <LongitudeDegrees>-1.76133382134139537811279296875</LongitudeDegrees>
            </Position>
            <AltitudeMeters>580.20001220703125</AltitudeMeters>
            <DistanceMeters>62068.648217532</DistanceMeters>
          </Trackpoint>
          <Trackpoint>
            <Time>2018-08-26T08:06:06.000Z</Time>
            <Position>
              <LatitudeDegrees>43.0108330585062503814697265625</LatitudeDegrees>
              <LongitudeDegrees>-1.7613355815410614013671875</LongitudeDegrees>
            </Position>
            <AltitudeMeters>579.4000244140625</AltitudeMeters>
            <DistanceMeters>62082.577331735</DistanceMeters>
          </Trackpoint>
          <Trackpoint>
            <Time>2018-08-26T08:06:07.000Z</Time>
            <Position>
              <LatitudeDegrees>43.01070791669189929962158203125</LatitudeDegrees>
              <LongitudeDegrees>-1.76132149994373321533203125</LongitudeDegrees>
            </Position>
            <AltitudeMeters>578.5999755859375</AltitudeMeters>
            <DistanceMeters>62096.552721655</DistanceMeters>
          </Trackpoint>
          <Trackpoint>
            <Time>2018-08-26T08:06:08.000Z</Time>
            <Position>
              <LatitudeDegrees>43.0105862952768802642822265625</LatitudeDegrees>
              <LongitudeDegrees>-1.76130197010934352874755859375</LongitudeDegrees>
            </Position>
            <AltitudeMeters>578</AltitudeMeters>
            <DistanceMeters>62110.182348671</DistanceMeters>
          </Trackpoint>
          <Trackpoint>
            <Time>2018-08-26T08:06:09.000Z</Time>
            <Position>
              <LatitudeDegrees>43.010466434061527252197265625</LatitudeDegrees>
              <LongitudeDegrees>-1.76127749495208263397216796875</LongitudeDegrees>
            </Position>
            <AltitudeMeters>577.20001220703125</AltitudeMeters>
            <DistanceMeters>62123.671456883</DistanceMeters>
          </Trackpoint>
          <Trackpoint>
            <Time>2018-08-26T08:06:10.000Z</Time>
            <Position>
              <LatitudeDegrees>43.0103467404842376708984375</LatitudeDegrees>
              <LongitudeDegrees>-1.761253774166107177734375</LongitudeDegrees>
            </Position>
            <AltitudeMeters>576.4000244140625</AltitudeMeters>
            <DistanceMeters>62137.132419475</DistanceMeters>
          </Trackpoint>
          <Trackpoint>
            <Time>2018-08-26T08:06:11.000Z</Time>
            <Position>
              <LatitudeDegrees>43.01022931002080440521240234375</LatitudeDegrees>
              <LongitudeDegrees>-1.76123172976076602935791015625</LongitudeDegrees>
            </Position>
            <AltitudeMeters>575.5999755859375</AltitudeMeters>
            <DistanceMeters>62150.325741784</DistanceMeters>
          </Trackpoint>
          <Trackpoint>
            <Time>2018-08-26T08:06:12.000Z</Time>
            <Position>
              <LatitudeDegrees>43.01011330448091030120849609375</LatitudeDegrees>
              <LongitudeDegrees>-1.7612160556018352508544921875</LongitudeDegrees>
            </Position>
            <AltitudeMeters>574.4000244140625</AltitudeMeters>
            <DistanceMeters>62163.299933666</DistanceMeters>
          </Trackpoint>
          <Trackpoint>
            <Time>2018-08-26T08:06:13.000Z</Time>
            <Position>
              <LatitudeDegrees>43.009999059140682220458984375</LatitudeDegrees>
              <LongitudeDegrees>-1.76120021380484104156494140625</LongitudeDegrees>
            </Position>
            <AltitudeMeters>572.4000244140625</AltitudeMeters>
            <DistanceMeters>62176.080938434</DistanceMeters>
          </Trackpoint>
          <Trackpoint>
            <Time>2018-08-26T08:06:14.000Z</Time>
            <Position>
              <LatitudeDegrees>43.00988615490496158599853515625</LatitudeDegrees>
              <LongitudeDegrees>-1.76118311472237110137939453125</LongitudeDegrees>
            </Position>
            <AltitudeMeters>569</AltitudeMeters>
            <DistanceMeters>62188.724134754</DistanceMeters>
          </Trackpoint>
          <Trackpoint>
            <Time>2018-08-26T08:06:15.000Z</Time>
            <Position>
              <LatitudeDegrees>43.00977467559278011322021484375</LatitudeDegrees>
              <LongitudeDegrees>-1.76116953603923320770263671875</LongitudeDegrees>
            </Position>
            <AltitudeMeters>568.4000244140625</AltitudeMeters>
            <DistanceMeters>62201.180973584</DistanceMeters>
          </Trackpoint>
          <Trackpoint>
            <Time>2018-08-26T08:06:16.000Z</Time>
            <Position>
              <LatitudeDegrees>43.00966386683285236358642578125</LatitudeDegrees>
              <LongitudeDegrees>-1.76116165705025196075439453125</LongitudeDegrees>
            </Position>
            <AltitudeMeters>568</AltitudeMeters>
            <DistanceMeters>62213.530791037</DistanceMeters>
          </Trackpoint>
          <Trackpoint>
            <Time>2018-08-26T08:06:17.000Z</Time>
            <Position>
              <LatitudeDegrees>43.00955272279679775238037109375</LatitudeDegrees>
              <LongitudeDegrees>-1.76115796901285648345947265625</LongitudeDegrees>
            </Position>
            <AltitudeMeters>567.79998779296875</AltitudeMeters>
            <DistanceMeters>62225.905079148</DistanceMeters>
          </Trackpoint>
          <Trackpoint>
            <Time>2018-08-26T08:06:18.000Z</Time>
            <Position>
              <LatitudeDegrees>43.00944007001817226409912109375</LatitudeDegrees>
              <LongitudeDegrees>-1.7611630819737911224365234375</LongitudeDegrees>
            </Position>
            <AltitudeMeters>567.4000244140625</AltitudeMeters>
            <DistanceMeters>62238.450764957</DistanceMeters>
          </Trackpoint>
          <Trackpoint>
            <Time>2018-08-26T08:06:19.000Z</Time>
            <Position>
              <LatitudeDegrees>43.0093266628682613372802734375</LatitudeDegrees>
              <LongitudeDegrees>-1.76117624156177043914794921875</LongitudeDegrees>
            </Position>
            <AltitudeMeters>567.20001220703125</AltitudeMeters>
            <DistanceMeters>62251.118578048</DistanceMeters>
          </Trackpoint>
          <Trackpoint>
            <Time>2018-08-26T08:06:20.000Z</Time>
            <Position>
              <LatitudeDegrees>43.00921426154673099517822265625</LatitudeDegrees>
              <LongitudeDegrees>-1.76119719631969928741455078125</LongitudeDegrees>
            </Position>
            <AltitudeMeters>567</AltitudeMeters>
            <DistanceMeters>62263.744621353</DistanceMeters>
          </Trackpoint>
          <Trackpoint>
            <Time>2018-08-26T08:06:21.000Z</Time>
            <Position>
              <LatitudeDegrees>43.00910554826259613037109375</LatitudeDegrees>
              <LongitudeDegrees>-1.7612284608185291290283203125</LongitudeDegrees>
            </Position>
            <AltitudeMeters>566.5999755859375</AltitudeMeters>
            <DistanceMeters>62276.109419138</DistanceMeters>
          </Trackpoint>
          <Trackpoint>
            <Time>2018-08-26T08:06:22.000Z</Time>
            <Position>
              <LatitudeDegrees>43.00899691879749298095703125</LatitudeDegrees>
              <LongitudeDegrees>-1.76126441918313503265380859375</LongitudeDegrees>
            </Position>
            <AltitudeMeters>566</AltitudeMeters>
            <DistanceMeters>62288.549573884</DistanceMeters>
          </Trackpoint>
          <Trackpoint>
            <Time>2018-08-26T08:06:23.000Z</Time>
            <Position>
              <LatitudeDegrees>43.0088877864181995391845703125</LatitudeDegrees>
              <LongitudeDegrees>-1.761302053928375244140625</LongitudeDegrees>
            </Position>
            <AltitudeMeters>565.4000244140625</AltitudeMeters>
            <DistanceMeters>62301.076171122</DistanceMeters>
          </Trackpoint>
          <Trackpoint>
            <Time>2018-08-26T08:06:24.000Z</Time>
            <Position>
              <LatitudeDegrees>43.0087781511247158050537109375</LatitudeDegrees>
              <LongitudeDegrees>-1.7613414488732814788818359375</LongitudeDegrees>
            </Position>
            <AltitudeMeters>564.79998779296875</AltitudeMeters>
            <DistanceMeters>62313.692555607</DistanceMeters>
          </Trackpoint>
          <Trackpoint>
            <Time>2018-08-26T08:06:25.000Z</Time>
            <Position>
              <LatitudeDegrees>43.0086688511073589324951171875</LatitudeDegrees>
              <LongitudeDegrees>-1.76138050854206085205078125</LongitudeDegrees>
            </Position>
            <AltitudeMeters>564.4000244140625</AltitudeMeters>
            <DistanceMeters>62326.266281323</DistanceMeters>
          </Trackpoint>
          <Trackpoint>
            <Time>2018-08-26T08:06:26.000Z</Time>
            <Position>
              <LatitudeDegrees>43.00855862908065319061279296875</LatitudeDegrees>
              <LongitudeDegrees>-1.7614106833934783935546875</LongitudeDegrees>
            </Position>
            <AltitudeMeters>564</AltitudeMeters>
            <DistanceMeters>62338.778091953</DistanceMeters>
          </Trackpoint>
          <Trackpoint>
            <Time>2018-08-26T08:06:27.000Z</Time>
            <Position>
              <LatitudeDegrees>43.00844681449234485626220703125</LatitudeDegrees>
              <LongitudeDegrees>-1.76142275333404541015625</LongitudeDegrees>
            </Position>
            <AltitudeMeters>563.5999755859375</AltitudeMeters>
            <DistanceMeters>62351.262446939</DistanceMeters>
          </Trackpoint>
          <Trackpoint>
            <Time>2018-08-26T08:06:28.000Z</Time>
            <Position>
              <LatitudeDegrees>43.0083342455327510833740234375</LatitudeDegrees>
              <LongitudeDegrees>-1.76141076721251010894775390625</LongitudeDegrees>
            </Position>
            <AltitudeMeters>563.4000244140625</AltitudeMeters>
            <DistanceMeters>62363.8289889</DistanceMeters>
          </Trackpoint>
          <Trackpoint>
            <Time>2018-08-26T08:06:29.000Z</Time>
            <Position>
              <LatitudeDegrees>43.00822385586798191070556640625</LatitudeDegrees>
              <LongitudeDegrees>-1.761378161609172821044921875</LongitudeDegrees>
            </Position>
            <AltitudeMeters>563.20001220703125</AltitudeMeters>
            <DistanceMeters>62376.398764058</DistanceMeters>
          </Trackpoint>
          <Trackpoint>
            <Time>2018-08-26T08:06:30.000Z</Time>
            <Position>
              <LatitudeDegrees>43.008116818964481353759765625</LatitudeDegrees>
              <LongitudeDegrees>-1.761329211294651031494140625</LongitudeDegrees>
            </Position>
            <AltitudeMeters>562.79998779296875</AltitudeMeters>
            <DistanceMeters>62388.960634375</DistanceMeters>
          </Trackpoint>
          <Trackpoint>
            <Time>2018-08-26T08:06:31.000Z</Time>
            <Position>
              <LatitudeDegrees>43.00801028497517108917236328125</LatitudeDegrees>
              <LongitudeDegrees>-1.76127347163856029510498046875</LongitudeDegrees>
            </Position>
            <AltitudeMeters>562.5999755859375</AltitudeMeters>
            <DistanceMeters>62401.655861997</DistanceMeters>
          </Trackpoint>
          <Trackpoint>
            <Time>2018-08-26T08:06:32.000Z</Time>
            <Position>
              <LatitudeDegrees>43.00790651701390743255615234375</LatitudeDegrees>
              <LongitudeDegrees>-1.76121882162988185882568359375</LongitudeDegrees>
            </Position>
            <AltitudeMeters>562</AltitudeMeters>
            <DistanceMeters>62414.03233915</DistanceMeters>
          </Trackpoint>
          <Trackpoint>
            <Time>2018-08-26T08:06:33.000Z</Time>
            <Position>
              <LatitudeDegrees>43.00780358724296092987060546875</LatitudeDegrees>
              <LongitudeDegrees>-1.7611746490001678466796875</LongitudeDegrees>
            </Position>
            <AltitudeMeters>561.79998779296875</AltitudeMeters>
            <DistanceMeters>62426.039971331</DistanceMeters>
          </Trackpoint>
          <Trackpoint>
            <Time>2018-08-26T08:06:34.000Z</Time>
            <Position>
              <LatitudeDegrees>43.00769847817718982696533203125</LatitudeDegrees>
              <LongitudeDegrees>-1.76115545444190502166748046875</LongitudeDegrees>
            </Position>
            <AltitudeMeters>561.20001220703125</AltitudeMeters>
            <DistanceMeters>62437.842426974</DistanceMeters>
          </Trackpoint>
          <Trackpoint>
            <Time>2018-08-26T08:06:35.000Z</Time>
            <Position>
              <LatitudeDegrees>43.007591776549816131591796875</LatitudeDegrees>
              <LongitudeDegrees>-1.76115863956511020660400390625</LongitudeDegrees>
            </Position>
            <AltitudeMeters>560.5999755859375</AltitudeMeters>
            <DistanceMeters>62449.721146371</DistanceMeters>
          </Trackpoint>
          <Trackpoint>
            <Time>2018-08-26T08:06:36.000Z</Time>
            <Position>
              <LatitudeDegrees>43.0074866674840450286865234375</LatitudeDegrees>
              <LongitudeDegrees>-1.76118043251335620880126953125</LongitudeDegrees>
            </Position>
            <AltitudeMeters>560.20001220703125</AltitudeMeters>
            <DistanceMeters>62461.554166499</DistanceMeters>
          </Trackpoint>
          <Trackpoint>
            <Time>2018-08-26T08:06:37.000Z</Time>
            <Position>
              <LatitudeDegrees>43.00738432444632053375244140625</LatitudeDegrees>
              <LongitudeDegrees>-1.7612106911838054656982421875</LongitudeDegrees>
            </Position>
            <AltitudeMeters>559.79998779296875</AltitudeMeters>
            <DistanceMeters>62473.208409494</DistanceMeters>
          </Trackpoint>
          <Trackpoint>
            <Time>2018-08-26T08:06:38.000Z</Time>
            <Position>
              <LatitudeDegrees>43.007279969751834869384765625</LatitudeDegrees>
              <LongitudeDegrees>-1.76123960874974727630615234375</LongitudeDegrees>
            </Position>
            <AltitudeMeters>559.79998779296875</AltitudeMeters>
            <DistanceMeters>62485.059349496</DistanceMeters>
          </Trackpoint>
          <Trackpoint>
            <Time>2018-08-26T08:06:39.000Z</Time>
            <Position>
              <LatitudeDegrees>43.007179386913776397705078125</LatitudeDegrees>
              <LongitudeDegrees>-1.76126726903021335601806640625</LongitudeDegrees>
            </Position>
            <AltitudeMeters>559.5999755859375</AltitudeMeters>
            <DistanceMeters>62496.478382023</DistanceMeters>
          </Trackpoint>
          <Trackpoint>
            <Time>2018-08-26T08:06:40.000Z</Time>
            <Position>
              <LatitudeDegrees>43.0070813186466693878173828125</LatitudeDegrees>
              <LongitudeDegrees>-1.76129157654941082000732421875</LongitudeDegrees>
            </Position>
            <AltitudeMeters>559.4000244140625</AltitudeMeters>
            <DistanceMeters>62507.571708025</DistanceMeters>
          </Trackpoint>
          <Trackpoint>
            <Time>2018-08-26T08:06:41.000Z</Time>
            <Position>
              <LatitudeDegrees>43.0069850943982601165771484375</LatitudeDegrees>
              <LongitudeDegrees>-1.76131035201251506805419921875</LongitudeDegrees>
            </Position>
            <AltitudeMeters>559.20001220703125</AltitudeMeters>
            <DistanceMeters>62518.390573532</DistanceMeters>
          </Trackpoint>
          <Trackpoint>
            <Time>2018-08-26T08:06:42.000Z</Time>
            <Position>
              <LatitudeDegrees>43.0068920552730560302734375</LatitudeDegrees>
              <LongitudeDegrees>-1.76132560707628726959228515625</LongitudeDegrees>
            </Position>
            <AltitudeMeters>558.79998779296875</AltitudeMeters>
            <DistanceMeters>62528.82059419</DistanceMeters>
          </Trackpoint>
          <Trackpoint>
            <Time>2018-08-26T08:06:43.000Z</Time>
            <Position>
              <LatitudeDegrees>43.00680211745202541351318359375</LatitudeDegrees>
              <LongitudeDegrees>-1.76132845692336559295654296875</LongitudeDegrees>
            </Position>
            <AltitudeMeters>558.4000244140625</AltitudeMeters>
            <DistanceMeters>62538.834083534</DistanceMeters>
          </Trackpoint>
          <Trackpoint>
            <Time>2018-08-26T08:06:44.000Z</Time>
            <Position>
              <LatitudeDegrees>43.006714694201946258544921875</LatitudeDegrees>
              <LongitudeDegrees>-1.76132015883922576904296875</LongitudeDegrees>
            </Position>
            <AltitudeMeters>558.20001220703125</AltitudeMeters>
            <DistanceMeters>62548.587639569</DistanceMeters>
          </Trackpoint>
          <Trackpoint>
            <Time>2018-08-26T08:06:45.000Z</Time>
            <Position>
              <LatitudeDegrees>43.006627522408962249755859375</LatitudeDegrees>
              <LongitudeDegrees>-1.7613055743277072906494140625</LongitudeDegrees>
            </Position>
            <AltitudeMeters>558.20001220703125</AltitudeMeters>
            <DistanceMeters>62558.362004447</DistanceMeters>
          </Trackpoint>
          <Trackpoint>
            <Time>2018-08-26T08:06:46.000Z</Time>
            <Position>
              <LatitudeDegrees>43.00654395483434200286865234375</LatitudeDegrees>
              <LongitudeDegrees>-1.76128721795976161956787109375</LongitudeDegrees>
            </Position>
            <AltitudeMeters>558.20001220703125</AltitudeMeters>
            <DistanceMeters>62567.782598446</DistanceMeters>
          </Trackpoint>
          <Trackpoint>
            <Time>2018-08-26T08:06:47.000Z</Time>
            <Position>
              <LatitudeDegrees>43.0064667575061321258544921875</LatitudeDegrees>
              <LongitudeDegrees>-1.76126877777278423309326171875</LongitudeDegrees>
            </Position>
            <AltitudeMeters>558.20001220703125</AltitudeMeters>
            <DistanceMeters>62576.504373722</DistanceMeters>
          </Trackpoint>
          <Trackpoint>
            <Time>2018-08-26T08:06:48.000Z</Time>
            <Position>
              <LatitudeDegrees>43.0063916556537151336669921875</LatitudeDegrees>
              <LongitudeDegrees>-1.76124614663422107696533203125</LongitudeDegrees>
            </Position>
            <AltitudeMeters>558.20001220703125</AltitudeMeters>
            <DistanceMeters>62585.064165791</DistanceMeters>
          </Trackpoint>
          <Trackpoint>
            <Time>2018-08-26T08:06:49.000Z</Time>
            <Position>
              <LatitudeDegrees>43.006314374506473541259765625</LatitudeDegrees>
              <LongitudeDegrees>-1.76122091710567474365234375</LongitudeDegrees>
            </Position>
            <AltitudeMeters>558.20001220703125</AltitudeMeters>
            <DistanceMeters>62593.907778858</DistanceMeters>
          </Trackpoint>
          <Trackpoint>
            <Time>2018-08-26T08:06:50.000Z</Time>
            <Position>
              <LatitudeDegrees>43.00624254159629344940185546875</LatitudeDegrees>
              <LongitudeDegrees>-1.7611979506909847259521484375</LongitudeDegrees>
            </Position>
            <AltitudeMeters>558.20001220703125</AltitudeMeters>
            <DistanceMeters>62602.11865888</DistanceMeters>
          </Trackpoint>
          <Trackpoint>
            <Time>2018-08-26T08:06:51.000Z</Time>
            <Position>
              <LatitudeDegrees>43.0061732232570648193359375</LatitudeDegrees>
              <LongitudeDegrees>-1.76117775030434131622314453125</LongitudeDegrees>
            </Position>
            <AltitudeMeters>558.20001220703125</AltitudeMeters>
            <DistanceMeters>62610.006448602</DistanceMeters>
          </Trackpoint>
          <Trackpoint>
            <Time>2018-08-26T08:06:52.000Z</Time>
            <Position>
              <LatitudeDegrees>43.00611019134521484375</LatitudeDegrees>
              <LongitudeDegrees>-1.7611583881080150604248046875</LongitudeDegrees>
            </Position>
            <AltitudeMeters>558.4000244140625</AltitudeMeters>
            <DistanceMeters>62617.196524238</DistanceMeters>
          </Trackpoint>
          <Trackpoint>
            <Time>2018-08-26T08:06:53.000Z</Time>
            <Position>
              <LatitudeDegrees>43.0060453154146671295166015625</LatitudeDegrees>
              <LongitudeDegrees>-1.76114221103489398956298828125</LongitudeDegrees>
            </Position>
            <AltitudeMeters>558.4000244140625</AltitudeMeters>
            <DistanceMeters>62624.536376829</DistanceMeters>
          </Trackpoint>
          <Trackpoint>
            <Time>2018-08-26T08:06:54.000Z</Time>
            <Position>
              <LatitudeDegrees>43.0059782601892948150634765625</LatitudeDegrees>
              <LongitudeDegrees>-1.76112561486661434173583984375</LongitudeDegrees>
            </Position>
            <AltitudeMeters>558.5999755859375</AltitudeMeters>
            <DistanceMeters>62632.120675541</DistanceMeters>
          </Trackpoint>
          <Trackpoint>
            <Time>2018-08-26T08:06:55.000Z</Time>
            <Position>
              <LatitudeDegrees>43.00590994767844676971435546875</LatitudeDegrees>
              <LongitudeDegrees>-1.7611084319651126861572265625</LongitudeDegrees>
            </Position>
            <AltitudeMeters>558.79998779296875</AltitudeMeters>
            <DistanceMeters>62639.852370443</DistanceMeters>
          </Trackpoint>
          <Trackpoint>
            <Time>2018-08-26T08:06:56.000Z</Time>
            <Position>
              <LatitudeDegrees>43.0058381147682666778564453125</LatitudeDegrees>
              <LongitudeDegrees>-1.76108756102621555328369140625</LongitudeDegrees>
            </Position>
            <AltitudeMeters>559</AltitudeMeters>
            <DistanceMeters>62648.026325153</DistanceMeters>
          </Trackpoint>
          <Trackpoint>
            <Time>2018-08-26T08:06:57.000Z</Time>
            <Position>
              <LatitudeDegrees>43.00576158799231052398681640625</LatitudeDegrees>
              <LongitudeDegrees>-1.7610614933073520660400390625</LongitudeDegrees>
            </Position>
            <AltitudeMeters>559.4000244140625</AltitudeMeters>
            <DistanceMeters>62656.804345562</DistanceMeters>
          </Trackpoint>
          <Trackpoint>
            <Time>2018-08-26T08:06:58.000Z</Time>
            <Position>
              <LatitudeDegrees>43.0056872405111789703369140625</LatitudeDegrees>
              <LongitudeDegrees>-1.761040873825550079345703125</LongitudeDegrees>
            </Position>
            <AltitudeMeters>559.5999755859375</AltitudeMeters>
            <DistanceMeters>62665.247831425</DistanceMeters>
          </Trackpoint>
          <Trackpoint>
            <Time>2018-08-26T08:06:59.000Z</Time>
            <Position>
              <LatitudeDegrees>43.0056087858974933624267578125</LatitudeDegrees>
              <LongitudeDegrees>-1.7610219307243824005126953125</LongitudeDegrees>
            </Position>
            <AltitudeMeters>559.79998779296875</AltitudeMeters>
            <DistanceMeters>62674.114898336</DistanceMeters>
          </Trackpoint>
          <Trackpoint>
            <Time>2018-08-26T08:07:00.000Z</Time>
            <Position>
              <LatitudeDegrees>43.0055286549031734466552734375</LatitudeDegrees>
              <LongitudeDegrees>-1.7609954439103603363037109375</LongitudeDegrees>
            </Position>
            <AltitudeMeters>559.79998779296875</AltitudeMeters>
            <DistanceMeters>62683.290267685</DistanceMeters>
          </Trackpoint>
          <Trackpoint>
            <Time>2018-08-26T08:07:01.000Z</Time>
            <Position>
              <LatitudeDegrees>43.00544475205242633819580078125</LatitudeDegrees>
              <LongitudeDegrees>-1.7609560489654541015625</LongitudeDegrees>
            </Position>
            <AltitudeMeters>559.79998779296875</AltitudeMeters>
            <DistanceMeters>62693.163904567</DistanceMeters>
          </Trackpoint>
          <Trackpoint>
            <Time>2018-08-26T08:07:02.000Z</Time>
            <Position>
              <LatitudeDegrees>43.00536713562905788421630859375</LatitudeDegrees>
              <LongitudeDegrees>-1.760920174419879913330078125</LongitudeDegrees>
            </Position>
            <AltitudeMeters>560</AltitudeMeters>
            <DistanceMeters>62702.282508841</DistanceMeters>
          </Trackpoint>
          <Trackpoint>
            <Time>2018-08-26T08:07:03.000Z</Time>
            <Position>
              <LatitudeDegrees>43.00528750754892826080322265625</LatitudeDegrees>
              <LongitudeDegrees>-1.76088890992105007171630859375</LongitudeDegrees>
            </Position>
            <AltitudeMeters>560</AltitudeMeters>
            <DistanceMeters>62711.503038637</DistanceMeters>
          </Trackpoint>
          <Trackpoint>
            <Time>2018-08-26T08:07:04.000Z</Time>
            <Position>
              <LatitudeDegrees>43.00520754419267177581787109375</LatitudeDegrees>
              <LongitudeDegrees>-1.7608666978776454925537109375</LongitudeDegrees>
            </Position>
            <AltitudeMeters>560</AltitudeMeters>
            <DistanceMeters>62720.584928211</DistanceMeters>
          </Trackpoint>
          <Trackpoint>
            <Time>2018-08-26T08:07:05.000Z</Time>
            <Position>
              <LatitudeDegrees>43.0051196180284023284912109375</LatitudeDegrees>
              <LongitudeDegrees>-1.7608519457280635833740234375</LongitudeDegrees>
            </Position>
            <AltitudeMeters>560</AltitudeMeters>
            <DistanceMeters>62730.444837085</DistanceMeters>
          </Trackpoint>
          <Trackpoint>
            <Time>2018-08-26T08:07:06.000Z</Time>
            <Position>
              <LatitudeDegrees>43.00503051839768886566162109375</LatitudeDegrees>
              <LongitudeDegrees>-1.7608314938843250274658203125</LongitudeDegrees>
            </Position>
            <AltitudeMeters>560</AltitudeMeters>
            <DistanceMeters>62740.500621292</DistanceMeters>
          </Trackpoint>
          <Trackpoint>
            <Time>2018-08-26T08:07:07.000Z</Time>
            <Position>
              <LatitudeDegrees>43.00494301132857799530029296875</LatitudeDegrees>
              <LongitudeDegrees>-1.76082386635243892669677734375</LongitudeDegrees>
            </Position>
            <AltitudeMeters>560</AltitudeMeters>
            <DistanceMeters>62750.260193328</DistanceMeters>
          </Trackpoint>
          <Trackpoint>
            <Time>2018-08-26T08:07:08.000Z</Time>
            <Position>
              <LatitudeDegrees>43.00485332496464252471923828125</LatitudeDegrees>
              <LongitudeDegrees>-1.76082537509500980377197265625</LongitudeDegrees>
            </Position>
            <AltitudeMeters>559.79998779296875</AltitudeMeters>
            <DistanceMeters>62760.24387921</DistanceMeters>
          </Trackpoint>
          <Trackpoint>
            <Time>2018-08-26T08:07:09.000Z</Time>
            <Position>
              <LatitudeDegrees>43.00477336160838603973388671875</LatitudeDegrees>
              <LongitudeDegrees>-1.7608447372913360595703125</LongitudeDegrees>
            </Position>
            <AltitudeMeters>559.5999755859375</AltitudeMeters>
            <DistanceMeters>62769.282413471</DistanceMeters>
          </Trackpoint>
          <Trackpoint>
            <Time>2018-08-26T08:07:10.000Z</Time>
            <Position>
              <LatitudeDegrees>43.0046958290040493011474609375</LatitudeDegrees>
              <LongitudeDegrees>-1.7608680389821529388427734375</LongitudeDegrees>
            </Position>
            <AltitudeMeters>559.20001220703125</AltitudeMeters>
            <DistanceMeters>62778.117343057</DistanceMeters>
          </Trackpoint>
          <Trackpoint>
            <Time>2018-08-26T08:07:11.000Z</Time>
            <Position>
              <LatitudeDegrees>43.0046301148831844329833984375</LatitudeDegrees>
              <LongitudeDegrees>-1.76089175976812839508056640625</LongitudeDegrees>
            </Position>
            <AltitudeMeters>558.79998779296875</AltitudeMeters>
            <DistanceMeters>62785.682567739</DistanceMeters>
          </Trackpoint>
          <Trackpoint>
            <Time>2018-08-26T08:07:12.000Z</Time>
            <Position>
              <LatitudeDegrees>43.004579655826091766357421875</LatitudeDegrees>
              <LongitudeDegrees>-1.760922856628894805908203125</LongitudeDegrees>
            </Position>
            <AltitudeMeters>557.79998779296875</AltitudeMeters>
            <DistanceMeters>62791.84320174</DistanceMeters>
          </Trackpoint>
          <Trackpoint>
            <Time>2018-08-26T08:07:13.000Z</Time>
            <Position>
              <LatitudeDegrees>43.00454403273761272430419921875</LatitudeDegrees>
              <LongitudeDegrees>-1.7609495110809803009033203125</LongitudeDegrees>
            </Position>
            <AltitudeMeters>557.5999755859375</AltitudeMeters>
            <DistanceMeters>62796.36271863</DistanceMeters>
          </Trackpoint>
          <Trackpoint>
            <Time>2018-08-26T08:07:14.000Z</Time>
            <Position>
              <LatitudeDegrees>43.00452165305614471435546875</LatitudeDegrees>
              <LongitudeDegrees>-1.76097239367663860321044921875</LongitudeDegrees>
            </Position>
            <AltitudeMeters>557.4000244140625</AltitudeMeters>
            <DistanceMeters>62799.472575841</DistanceMeters>
          </Trackpoint>
          <Trackpoint>
            <Time>2018-08-26T08:07:15.000Z</Time>
            <Position>
              <LatitudeDegrees>43.00450597889721393585205078125</LatitudeDegrees>
              <LongitudeDegrees>-1.7609847150743007659912109375</LongitudeDegrees>
            </Position>
            <AltitudeMeters>557.4000244140625</AltitudeMeters>
            <DistanceMeters>62801.481666225</DistanceMeters>
          </Trackpoint>
          <Trackpoint>
            <Time>2018-08-26T08:07:16.000Z</Time>
            <Position>
              <LatitudeDegrees>43.00449256785213947296142578125</LatitudeDegrees>
              <LongitudeDegrees>-1.7609900794923305511474609375</LongitudeDegrees>
            </Position>
            <AltitudeMeters>557.4000244140625</AltitudeMeters>
            <DistanceMeters>62803.037320584</DistanceMeters>
          </Trackpoint>
          <Trackpoint>
            <Time>2018-08-26T08:07:17.000Z</Time>
            <Position>
              <LatitudeDegrees>43.0044842697679996490478515625</LatitudeDegrees>
              <LongitudeDegrees>-1.7609987966716289520263671875</LongitudeDegrees>
            </Position>
            <AltitudeMeters>557.20001220703125</AltitudeMeters>
            <DistanceMeters>62804.201155395</DistanceMeters>
          </Trackpoint>
          <Trackpoint>
            <Time>2018-08-26T08:07:18.000Z</Time>
            <Position>
              <LatitudeDegrees>43.00447010435163974761962890625</LatitudeDegrees>
              <LongitudeDegrees>-1.7609971202909946441650390625</LongitudeDegrees>
            </Position>
            <AltitudeMeters>557.20001220703125</AltitudeMeters>
            <DistanceMeters>62805.779857742</DistanceMeters>
          </Trackpoint>
          <Trackpoint>
            <Time>2018-08-26T08:07:19.000Z</Time>
            <Position>
              <LatitudeDegrees>43.00445325672626495361328125</LatitudeDegrees>
              <LongitudeDegrees>-1.7609954439103603363037109375</LongitudeDegrees>
            </Position>
            <AltitudeMeters>557.20001220703125</AltitudeMeters>
            <DistanceMeters>62807.661290697</DistanceMeters>
          </Trackpoint>
          <Trackpoint>
            <Time>2018-08-26T08:07:20.000Z</Time>
            <Position>
              <LatitudeDegrees>43.0044369958341121673583984375</LatitudeDegrees>
              <LongitudeDegrees>-1.76099183969199657440185546875</LongitudeDegrees>
            </Position>
            <AltitudeMeters>557.20001220703125</AltitudeMeters>
            <DistanceMeters>62809.496561389</DistanceMeters>
          </Trackpoint>
          <Trackpoint>
            <Time>2018-08-26T08:07:21.000Z</Time>
            <Position>
              <LatitudeDegrees>43.00442643463611602783203125</LatitudeDegrees>
              <LongitudeDegrees>-1.76099234260618686676025390625</LongitudeDegrees>
            </Position>
            <AltitudeMeters>557.20001220703125</AltitudeMeters>
            <DistanceMeters>62810.671976931</DistanceMeters>
          </Trackpoint>
          <Trackpoint>
            <Time>2018-08-26T08:07:22.000Z</Time>
            <Position>
              <LatitudeDegrees>43.0044163763523101806640625</LatitudeDegrees>
              <LongitudeDegrees>-1.76099619828164577484130859375</LongitudeDegrees>
            </Position>
            <AltitudeMeters>557.20001220703125</AltitudeMeters>
            <DistanceMeters>62811.835811742</DistanceMeters>
          </Trackpoint>
          <Trackpoint>
            <Time>2018-08-26T08:07:23.000Z</Time>
            <Position>
              <LatitudeDegrees>43.0044027976691722869873046875</LatitudeDegrees>
              <LongitudeDegrees>-1.7610051669180393218994140625</LongitudeDegrees>
            </Position>
            <AltitudeMeters>557</AltitudeMeters>
            <DistanceMeters>62813.514318176</DistanceMeters>
          </Trackpoint>
          <Trackpoint>
            <Time>2018-08-26T08:07:24.000Z</Time>
            <Position>
              <LatitudeDegrees>43.0043870396912097930908203125</LatitudeDegrees>
              <LongitudeDegrees>-1.761022098362445831298828125</LongitudeDegrees>
            </Position>
            <AltitudeMeters>557</AltitudeMeters>
            <DistanceMeters>62815.746940445</DistanceMeters>
          </Trackpoint>
          <Trackpoint>
            <Time>2018-08-26T08:07:25.000Z</Time>
            <Position>
              <LatitudeDegrees>43.00436952151358127593994140625</LatitudeDegrees>
              <LongitudeDegrees>-1.761042214930057525634765625</LongitudeDegrees>
            </Position>
            <AltitudeMeters>557</AltitudeMeters>
            <DistanceMeters>62818.293230862</DistanceMeters>
          </Trackpoint>
          <Trackpoint>
            <Time>2018-08-26T08:07:26.000Z</Time>
            <Position>
              <LatitudeDegrees>43.00434236414730548858642578125</LatitudeDegrees>
              <LongitudeDegrees>-1.76103240810334682464599609375</LongitudeDegrees>
            </Position>
            <AltitudeMeters>557</AltitudeMeters>
            <DistanceMeters>62821.420461712</DistanceMeters>
          </Trackpoint>
          <Trackpoint>
            <Time>2018-08-26T08:07:27.000Z</Time>
            <Position>
              <LatitudeDegrees>43.00432409159839153289794921875</LatitudeDegrees>
              <LongitudeDegrees>-1.76100977696478366851806640625</LongitudeDegrees>
            </Position>
            <AltitudeMeters>557</AltitudeMeters>
            <DistanceMeters>62824.164743723</DistanceMeters>
          </Trackpoint>
          <Trackpoint>
            <Time>2018-08-26T08:07:28.000Z</Time>
            <Position>
              <LatitudeDegrees>43.0043075792491436004638671875</LatitudeDegrees>
              <LongitudeDegrees>-1.7609746567904949188232421875</LongitudeDegrees>
            </Position>
            <AltitudeMeters>557</AltitudeMeters>
            <DistanceMeters>62827.563194513</DistanceMeters>
          </Trackpoint>
          <Trackpoint>
            <Time>2018-08-26T08:07:29.000Z</Time>
            <Position>
              <LatitudeDegrees>43.004284612834453582763671875</LatitudeDegrees>
              <LongitudeDegrees>-1.7609280534088611602783203125</LongitudeDegrees>
            </Position>
            <AltitudeMeters>557</AltitudeMeters>
            <DistanceMeters>62832.137326903</DistanceMeters>
          </Trackpoint>
          <Trackpoint>
            <Time>2018-08-26T08:07:30.000Z</Time>
            <Position>
              <LatitudeDegrees>43.00426147878170013427734375</LatitudeDegrees>
              <LongitudeDegrees>-1.76087968982756137847900390625</LongitudeDegrees>
            </Position>
            <AltitudeMeters>557</AltitudeMeters>
            <DistanceMeters>62836.840909292</DistanceMeters>
          </Trackpoint>
          <Trackpoint>
            <Time>2018-08-26T08:07:31.000Z</Time>
            <Position>
              <LatitudeDegrees>43.0042378418147563934326171875</LatitudeDegrees>
              <LongitudeDegrees>-1.76082889549434185028076171875</LongitudeDegrees>
            </Position>
            <AltitudeMeters>557</AltitudeMeters>
            <DistanceMeters>62841.741929934</DistanceMeters>
          </Trackpoint>
          <Trackpoint>
            <Time>2018-08-26T08:07:32.000Z</Time>
            <Position>
              <LatitudeDegrees>43.0042125284671783447265625</LatitudeDegrees>
              <LongitudeDegrees>-1.76077307201921939849853515625</LongitudeDegrees>
            </Position>
            <AltitudeMeters>557</AltitudeMeters>
            <DistanceMeters>62847.087974448</DistanceMeters>
          </Trackpoint>
          <Trackpoint>
            <Time>2018-08-26T08:07:33.000Z</Time>
            <Position>
              <LatitudeDegrees>43.0041828565299510955810546875</LatitudeDegrees>
              <LongitudeDegrees>-1.7607084475457668304443359375</LongitudeDegrees>
            </Position>
            <AltitudeMeters>556.79998779296875</AltitudeMeters>
            <DistanceMeters>62853.297517621</DistanceMeters>
          </Trackpoint>
          <Trackpoint>
            <Time>2018-08-26T08:07:34.000Z</Time>
            <Position>
              <LatitudeDegrees>43.004152514040470123291015625</LatitudeDegrees>
              <LongitudeDegrees>-1.7606497742235660552978515625</LongitudeDegrees>
            </Position>
            <AltitudeMeters>556.79998779296875</AltitudeMeters>
            <DistanceMeters>62859.146101174</DistanceMeters>
          </Trackpoint>
          <Trackpoint>
            <Time>2018-08-26T08:07:35.000Z</Time>
            <Position>
              <LatitudeDegrees>43.00411940552294254302978515625</LatitudeDegrees>
              <LongitudeDegrees>-1.7605845630168914794921875</LongitudeDegrees>
            </Position>
            <AltitudeMeters>556.5999755859375</AltitudeMeters>
            <DistanceMeters>62865.607218987</DistanceMeters>
          </Trackpoint>
          <Trackpoint>
            <Time>2018-08-26T08:07:36.000Z</Time>
            <Position>
              <LatitudeDegrees>43.004086129367351531982421875</LatitudeDegrees>
              <LongitudeDegrees>-1.76051490940153598785400390625</LongitudeDegrees>
            </Position>
            <AltitudeMeters>556.5999755859375</AltitudeMeters>
            <DistanceMeters>62872.378830921</DistanceMeters>
          </Trackpoint>
          <Trackpoint>
            <Time>2018-08-26T08:07:37.000Z</Time>
            <Position>
              <LatitudeDegrees>43.00405167974531650543212890625</LatitudeDegrees>
              <LongitudeDegrees>-1.76043896935880184173583984375</LongitudeDegrees>
            </Position>
            <AltitudeMeters>556.5999755859375</AltitudeMeters>
            <DistanceMeters>62879.651944959</DistanceMeters>
          </Trackpoint>
          <Trackpoint>
            <Time>2018-08-26T08:07:38.000Z</Time>
            <Position>
              <LatitudeDegrees>43.00401882268488407135009765625</LatitudeDegrees>
              <LongitudeDegrees>-1.7603590898215770721435546875</LongitudeDegrees>
            </Position>
            <AltitudeMeters>556.4000244140625</AltitudeMeters>
            <DistanceMeters>62887.111390719</DistanceMeters>
          </Trackpoint>
          <Trackpoint>
            <Time>2018-08-26T08:07:39.000Z</Time>
            <Position>
              <LatitudeDegrees>43.00399216823279857635498046875</LatitudeDegrees>
              <LongitudeDegrees>-1.76027954556047916412353515625</LongitudeDegrees>
            </Position>
            <AltitudeMeters>556.4000244140625</AltitudeMeters>
            <DistanceMeters>62894.232690411</DistanceMeters>
          </Trackpoint>
          <Trackpoint>
            <Time>2018-08-26T08:07:40.000Z</Time>
            <Position>
              <LatitudeDegrees>43.00397188402712345123291015625</LatitudeDegrees>
              <LongitudeDegrees>-1.760194301605224609375</LongitudeDegrees>
            </Position>
            <AltitudeMeters>556.4000244140625</AltitudeMeters>
            <DistanceMeters>62901.529356137</DistanceMeters>
          </Trackpoint>
          <Trackpoint>
            <Time>2018-08-26T08:07:41.000Z</Time>
            <Position>
              <LatitudeDegrees>43.0039598979055881500244140625</LatitudeDegrees>
              <LongitudeDegrees>-1.760104112327098846435546875</LongitudeDegrees>
            </Position>
            <AltitudeMeters>556.4000244140625</AltitudeMeters>
            <DistanceMeters>62908.990012355</DistanceMeters>
          </Trackpoint>
          <Trackpoint>
            <Time>2018-08-26T08:07:42.000Z</Time>
            <Position>
              <LatitudeDegrees>43.0039538629353046417236328125</LatitudeDegrees>
              <LongitudeDegrees>-1.76001065410673618316650390625</LongitudeDegrees>
            </Position>
            <AltitudeMeters>556.4000244140625</AltitudeMeters>
            <DistanceMeters>62916.627701392</DistanceMeters>
          </Trackpoint>
          <Trackpoint>
            <Time>2018-08-26T08:07:43.000Z</Time>
            <Position>
              <LatitudeDegrees>43.00395176745951175689697265625</LatitudeDegrees>
              <LongitudeDegrees>-1.75991610623896121978759765625</LongitudeDegrees>
            </Position>
            <AltitudeMeters>556.4000244140625</AltitudeMeters>
            <DistanceMeters>62924.327797621</DistanceMeters>
          </Trackpoint>
          <Trackpoint>
            <Time>2018-08-26T08:07:44.000Z</Time>
            <Position>
              <LatitudeDegrees>43.00395009107887744903564453125</LatitudeDegrees>
              <LongitudeDegrees>-1.75982139073312282562255859375</LongitudeDegrees>
            </Position>
            <AltitudeMeters>556.4000244140625</AltitudeMeters>
            <DistanceMeters>62932.039612158</DistanceMeters>
          </Trackpoint>
          <Trackpoint>
            <Time>2018-08-26T08:07:45.000Z</Time>
            <Position>
              <LatitudeDegrees>43.00394707359373569488525390625</LatitudeDegrees>
              <LongitudeDegrees>-1.75972181372344493865966796875</LongitudeDegrees>
            </Position>
            <AltitudeMeters>556.4000244140625</AltitudeMeters>
            <DistanceMeters>62940.152022227</DistanceMeters>
          </Trackpoint>
          <Trackpoint>
            <Time>2018-08-26T08:07:46.000Z</Time>
            <Position>
              <LatitudeDegrees>43.00394338555634021759033203125</LatitudeDegrees>
              <LongitudeDegrees>-1.759623996913433074951171875</LongitudeDegrees>
            </Position>
            <AltitudeMeters>556.4000244140625</AltitudeMeters>
            <DistanceMeters>62948.124644637</DistanceMeters>
          </Trackpoint>
          <Trackpoint>
            <Time>2018-08-26T08:07:47.000Z</Time>
            <Position>
              <LatitudeDegrees>43.00393567420542240142822265625</LatitudeDegrees>
              <LongitudeDegrees>-1.75952651537954807281494140625</LongitudeDegrees>
            </Position>
            <AltitudeMeters>556.4000244140625</AltitudeMeters>
            <DistanceMeters>62956.105757293</DistanceMeters>
          </Trackpoint>
          <Trackpoint>
            <Time>2018-08-26T08:07:48.000Z</Time>
            <Position>
              <LatitudeDegrees>43.00392461009323596954345703125</LatitudeDegrees>
              <LongitudeDegrees>-1.7594310455024242401123046875</LongitudeDegrees>
            </Position>
            <AltitudeMeters>556.5999755859375</AltitudeMeters>
            <DistanceMeters>62963.973487209</DistanceMeters>
          </Trackpoint>
          <Trackpoint>
            <Time>2018-08-26T08:07:49.000Z</Time>
            <Position>
              <LatitudeDegrees>43.00391052849590778350830078125</LatitudeDegrees>
              <LongitudeDegrees>-1.75933708436787128448486328125</LongitudeDegrees>
            </Position>
            <AltitudeMeters>556.5999755859375</AltitudeMeters>
            <DistanceMeters>62971.780728463</DistanceMeters>
          </Trackpoint>
          <Trackpoint>
            <Time>2018-08-26T08:07:50.000Z</Time>
            <Position>
              <LatitudeDegrees>43.0038961954414844512939453125</LatitudeDegrees>
              <LongitudeDegrees>-1.7592449672520160675048828125</LongitudeDegrees>
            </Position>
            <AltitudeMeters>556.5999755859375</AltitudeMeters>
            <DistanceMeters>62979.4467403</DistanceMeters>
          </Trackpoint>
          <Trackpoint>
            <Time>2018-08-26T08:07:51.000Z</Time>
            <Position>
              <LatitudeDegrees>43.003880269825458526611328125</LatitudeDegrees>
              <LongitudeDegrees>-1.7591536045074462890625</LongitudeDegrees>
            </Position>
            <AltitudeMeters>556.79998779296875</AltitudeMeters>
            <DistanceMeters>62987.091519875</DistanceMeters>
          </Trackpoint>
          <Trackpoint>
            <Time>2018-08-26T08:07:52.000Z</Time>
            <Position>
              <LatitudeDegrees>43.00385956652462482452392578125</LatitudeDegrees>
              <LongitudeDegrees>-1.75906668417155742645263671875</LongitudeDegrees>
            </Position>
            <AltitudeMeters>556.79998779296875</AltitudeMeters>
            <DistanceMeters>62994.531571528</DistanceMeters>
          </Trackpoint>
          <Trackpoint>
            <Time>2018-08-26T08:07:53.000Z</Time>
            <Position>
              <LatitudeDegrees>43.00383559428155422210693359375</LatitudeDegrees>
              <LongitudeDegrees>-1.75898068584501743316650390625</LongitudeDegrees>
            </Position>
            <AltitudeMeters>556.79998779296875</AltitudeMeters>
            <DistanceMeters>63002.02242562</DistanceMeters>
          </Trackpoint>
          <Trackpoint>
            <Time>2018-08-26T08:07:54.000Z</Time>
            <Position>
              <LatitudeDegrees>43.00381162203848361968994140625</LatitudeDegrees>
              <LongitudeDegrees>-1.75889669917523860931396484375</LongitudeDegrees>
            </Position>
            <AltitudeMeters>556.79998779296875</AltitudeMeters>
            <DistanceMeters>63009.361047828</DistanceMeters>
          </Trackpoint>
          <Trackpoint>
            <Time>2018-08-26T08:07:55.000Z</Time>
            <Position>
              <LatitudeDegrees>43.00378329120576381683349609375</LatitudeDegrees>
              <LongitudeDegrees>-1.75881673581898212432861328125</LongitudeDegrees>
            </Position>
            <AltitudeMeters>556.79998779296875</AltitudeMeters>
            <DistanceMeters>63016.593074014</DistanceMeters>
          </Trackpoint>
          <Trackpoint>
            <Time>2018-08-26T08:07:56.000Z</Time>
            <Position>
              <LatitudeDegrees>43.00375311635434627532958984375</LatitudeDegrees>
              <LongitudeDegrees>-1.75874012522399425506591796875</LongitudeDegrees>
            </Position>
            <AltitudeMeters>556.79998779296875</AltitudeMeters>
            <DistanceMeters>63023.675592962</DistanceMeters>
          </Trackpoint>
          <Trackpoint>
            <Time>2018-08-26T08:07:57.000Z</Time>
            <Position>
              <LatitudeDegrees>43.0037201754748821258544921875</LatitudeDegrees>
              <LongitudeDegrees>-1.758667789399623870849609375</LongitudeDegrees>
            </Position>
            <AltitudeMeters>556.79998779296875</AltitudeMeters>
            <DistanceMeters>63030.611892213</DistanceMeters>
          </Trackpoint>
          <Trackpoint>
            <Time>2018-08-26T08:07:58.000Z</Time>
            <Position>
              <LatitudeDegrees>43.00368321128189563751220703125</LatitudeDegrees>
              <LongitudeDegrees>-1.758598051965236663818359375</LongitudeDegrees>
            </Position>
            <AltitudeMeters>556.79998779296875</AltitudeMeters>
            <DistanceMeters>63037.622648669</DistanceMeters>
          </Trackpoint>
          <Trackpoint>
            <Time>2018-08-26T08:07:59.000Z</Time>
            <Position>
              <LatitudeDegrees>43.003644235432147979736328125</LatitudeDegrees>
              <LongitudeDegrees>-1.758531667292118072509765625</LongitudeDegrees>
            </Position>
            <AltitudeMeters>557</AltitudeMeters>
            <DistanceMeters>63044.551784001</DistanceMeters>
          </Trackpoint>
          <Trackpoint>
            <Time>2018-08-26T08:08:00.000Z</Time>
            <Position>
              <LatitudeDegrees>43.00360391847789287567138671875</LatitudeDegrees>
              <LongitudeDegrees>-1.75846519879996776580810546875</LongitudeDegrees>
            </Position>
            <AltitudeMeters>557</AltitudeMeters>
            <DistanceMeters>63051.581192106</DistanceMeters>
          </Trackpoint>
          <Trackpoint>
            <Time>2018-08-26T08:08:01.000Z</Time>
            <Position>
              <LatitudeDegrees>43.0035605840384960174560546875</LatitudeDegrees>
              <LongitudeDegrees>-1.7584037594497203826904296875</LongitudeDegrees>
            </Position>
            <AltitudeMeters>557</AltitudeMeters>
            <DistanceMeters>63058.529198199</DistanceMeters>
          </Trackpoint>
          <Trackpoint>
            <Time>2018-08-26T08:08:02.000Z</Time>
            <Position>
              <LatitudeDegrees>43.00351741723716259002685546875</LatitudeDegrees>
              <LongitudeDegrees>-1.75834198482334613800048828125</LongitudeDegrees>
            </Position>
            <AltitudeMeters>557.20001220703125</AltitudeMeters>
            <DistanceMeters>63065.483699578</DistanceMeters>
          </Trackpoint>
          <Trackpoint>
            <Time>2018-08-26T08:08:03.000Z</Time>
            <Position>
              <LatitudeDegrees>43.003476597368717193603515625</LatitudeDegrees>
              <LongitudeDegrees>-1.75828079693019390106201171875</LongitudeDegrees>
            </Position>
            <AltitudeMeters>557.4000244140625</AltitudeMeters>
            <DistanceMeters>63072.225240555</DistanceMeters>
          </Trackpoint>
          <Trackpoint>
            <Time>2018-08-26T08:08:04.000Z</Time>
            <Position>
              <LatitudeDegrees>43.003435023128986358642578125</LatitudeDegrees>
              <LongitudeDegrees>-1.75822379998862743377685546875</LongitudeDegrees>
            </Position>
            <AltitudeMeters>557.5999755859375</AltitudeMeters>
            <DistanceMeters>63078.777950948</DistanceMeters>
          </Trackpoint>
          <Trackpoint>
            <Time>2018-08-26T08:08:05.000Z</Time>
            <Position>
              <LatitudeDegrees>43.00339269451797008514404296875</LatitudeDegrees>
              <LongitudeDegrees>-1.75816361792385578155517578125</LongitudeDegrees>
            </Position>
            <AltitudeMeters>557.79998779296875</AltitudeMeters>
            <DistanceMeters>63085.574852527</DistanceMeters>
          </Trackpoint>
          <Trackpoint>
            <Time>2018-08-26T08:08:06.000Z</Time>
            <Position>
              <LatitudeDegrees>43.00334818661212921142578125</LatitudeDegrees>
              <LongitudeDegrees>-1.758098490536212921142578125</LongitudeDegrees>
            </Position>
            <AltitudeMeters>558</AltitudeMeters>
            <DistanceMeters>63092.830563772</DistanceMeters>
          </Trackpoint>
          <Trackpoint>
            <Time>2018-08-26T08:08:07.000Z</Time>
            <Position>
              <LatitudeDegrees>43.00330527126789093017578125</LatitudeDegrees>
              <LongitudeDegrees>-1.75803218968212604522705078125</LongitudeDegrees>
            </Position>
            <AltitudeMeters>558.20001220703125</AltitudeMeters>
            <DistanceMeters>63100.037574228</DistanceMeters>
          </Trackpoint>
          <Trackpoint>
            <Time>2018-08-26T08:08:08.000Z</Time>
            <Position>
              <LatitudeDegrees>43.00326612778007984161376953125</LatitudeDegrees>
              <LongitudeDegrees>-1.75796144641935825347900390625</LongitudeDegrees>
            </Position>
            <AltitudeMeters>558.5999755859375</AltitudeMeters>
            <DistanceMeters>63107.25835406</DistanceMeters>
          </Trackpoint>
          <Trackpoint>
            <Time>2018-08-26T08:08:09.000Z</Time>
            <Position>
              <LatitudeDegrees>43.0032320134341716766357421875</LatitudeDegrees>
              <LongitudeDegrees>-1.75788827240467071533203125</LongitudeDegrees>
            </Position>
            <AltitudeMeters>558.79998779296875</AltitudeMeters>
            <DistanceMeters>63114.321722403</DistanceMeters>
          </Trackpoint>
          <Trackpoint>
            <Time>2018-08-26T08:08:10.000Z</Time>
            <Position>
              <LatitudeDegrees>43.00319806672632694244384765625</LatitudeDegrees>
              <LongitudeDegrees>-1.75781191326677799224853515625</LongitudeDegrees>
            </Position>
            <AltitudeMeters>559.20001220703125</AltitudeMeters>
            <DistanceMeters>63121.5954572</DistanceMeters>
          </Trackpoint>
          <Trackpoint>
            <Time>2018-08-26T08:08:11.000Z</Time>
            <Position>
              <LatitudeDegrees>43.00316219218075275421142578125</LatitudeDegrees>
              <LongitudeDegrees>-1.75773362629115581512451171875</LongitudeDegrees>
            </Position>
            <AltitudeMeters>559.5999755859375</AltitudeMeters>
            <DistanceMeters>63129.115187161</DistanceMeters>
          </Trackpoint>
          <Trackpoint>
            <Time>2018-08-26T08:08:12.000Z</Time>
            <Position>
              <LatitudeDegrees>43.003125898540019989013671875</LatitudeDegrees>
              <LongitudeDegrees>-1.75765232183039188385009765625</LongitudeDegrees>
            </Position>
            <AltitudeMeters>560</AltitudeMeters>
            <DistanceMeters>63136.868458657</DistanceMeters>
          </Trackpoint>
          <Trackpoint>
            <Time>2018-08-26T08:08:13.000Z</Time>
            <Position>
              <LatitudeDegrees>43.00309111364185810089111328125</LatitudeDegrees>
              <LongitudeDegrees>-1.757569424808025360107421875</LongitudeDegrees>
            </Position>
            <AltitudeMeters>560.20001220703125</AltitudeMeters>
            <DistanceMeters>63144.648471665</DistanceMeters>
          </Trackpoint>
          <Trackpoint>
            <Time>2018-08-26T08:08:14.000Z</Time>
            <Position>
              <LatitudeDegrees>43.0030563287436962127685546875</LatitudeDegrees>
              <LongitudeDegrees>-1.75748719833791255950927734375</LongitudeDegrees>
            </Position>
            <AltitudeMeters>560.20001220703125</AltitudeMeters>
            <DistanceMeters>63152.381334408</DistanceMeters>
          </Trackpoint>
          <Trackpoint>
            <Time>2018-08-26T08:08:15.000Z</Time>
            <Position>
              <LatitudeDegrees>43.00302489660680294036865234375</LatitudeDegrees>
              <LongitudeDegrees>-1.75740019418299198150634765625</LongitudeDegrees>
            </Position>
            <AltitudeMeters>560.20001220703125</AltitudeMeters>
            <DistanceMeters>63160.280564005</DistanceMeters>
          </Trackpoint>
          <Trackpoint>
            <Time>2018-08-26T08:08:16.000Z</Time>
            <Position>
              <LatitudeDegrees>43.0029966495931148529052734375</LatitudeDegrees>
              <LongitudeDegrees>-1.75731050781905651092529296875</LongitudeDegrees>
            </Position>
            <AltitudeMeters>560.4000244140625</AltitudeMeters>
            <DistanceMeters>63168.228797445</DistanceMeters>
          </Trackpoint>
          <Trackpoint>
            <Time>2018-08-26T08:08:17.000Z</Time>
            <Position>
              <LatitudeDegrees>43.0029711686074733734130859375</LatitudeDegrees>
              <LongitudeDegrees>-1.757221408188343048095703125</LongitudeDegrees>
            </Position>
            <AltitudeMeters>560.4000244140625</AltitudeMeters>
            <DistanceMeters>63176.016351194</DistanceMeters>
          </Trackpoint>
          <Trackpoint>
            <Time>2018-08-26T08:08:18.000Z</Time>
            <Position>
              <LatitudeDegrees>43.0029483698308467864990234375</LatitudeDegrees>
              <LongitudeDegrees>-1.75712920725345611572265625</LongitudeDegrees>
            </Position>
            <AltitudeMeters>560.4000244140625</AltitudeMeters>
            <DistanceMeters>63183.938410982</DistanceMeters>
          </Trackpoint>
          <Trackpoint>
            <Time>2018-08-26T08:08:19.000Z</Time>
            <Position>
              <LatitudeDegrees>43.00292649306356906890869140625</LatitudeDegrees>
              <LongitudeDegrees>-1.757037006318569183349609375</LongitudeDegrees>
            </Position>
            <AltitudeMeters>560.4000244140625</AltitudeMeters>
            <DistanceMeters>63191.828490006</DistanceMeters>
          </Trackpoint>
          <Trackpoint>
            <Time>2018-08-26T08:08:20.000Z</Time>
            <Position>
              <LatitudeDegrees>43.0029037781059741973876953125</LatitudeDegrees>
              <LongitudeDegrees>-1.756940782070159912109375</LongitudeDegrees>
            </Position>
            <AltitudeMeters>560.4000244140625</AltitudeMeters>
            <DistanceMeters>63200.059142075</DistanceMeters>
          </Trackpoint>
          <Trackpoint>
            <Time>2018-08-26T08:08:21.000Z</Time>
            <Position>
              <LatitudeDegrees>43.00288206897675991058349609375</LatitudeDegrees>
              <LongitudeDegrees>-1.75684212706983089447021484375</LongitudeDegrees>
            </Position>
            <AltitudeMeters>560.4000244140625</AltitudeMeters>
            <DistanceMeters>63208.445215968</DistanceMeters>
          </Trackpoint>
          <Trackpoint>
            <Time>2018-08-26T08:08:22.000Z</Time>
            <Position>
              <LatitudeDegrees>43.00285943783819675445556640625</LatitudeDegrees>
              <LongitudeDegrees>-1.75674422644078731536865234375</LongitudeDegrees>
            </Position>
            <AltitudeMeters>560.4000244140625</AltitudeMeters>
            <DistanceMeters>63216.8027061</DistanceMeters>
          </Trackpoint>
          <Trackpoint>
            <Time>2018-08-26T08:08:23.000Z</Time>
            <Position>
              <LatitudeDegrees>43.002833537757396697998046875</LatitudeDegrees>
              <LongitudeDegrees>-1.75664842128753662109375</LongitudeDegrees>
            </Position>
            <AltitudeMeters>560.4000244140625</AltitudeMeters>
            <DistanceMeters>63225.117407853</DistanceMeters>
          </Trackpoint>
          <Trackpoint>
            <Time>2018-08-26T08:08:24.000Z</Time>
            <Position>
              <LatitudeDegrees>43.0028062127530574798583984375</LatitudeDegrees>
              <LongitudeDegrees>-1.75655387341976165771484375</LongitudeDegrees>
            </Position>
            <AltitudeMeters>560.4000244140625</AltitudeMeters>
            <DistanceMeters>63233.392919907</DistanceMeters>
          </Trackpoint>
          <Trackpoint>
            <Time>2018-08-26T08:08:25.000Z</Time>
            <Position>
              <LatitudeDegrees>43.0027775466442108154296875</LatitudeDegrees>
              <LongitudeDegrees>-1.7564615048468112945556640625</LongitudeDegrees>
            </Position>
            <AltitudeMeters>560.4000244140625</AltitudeMeters>
            <DistanceMeters>63241.5607963</DistanceMeters>
          </Trackpoint>
          <Trackpoint>
            <Time>2018-08-26T08:08:26.000Z</Time>
            <Position>
              <LatitudeDegrees>43.00274510867893695831298828125</LatitudeDegrees>
              <LongitudeDegrees>-1.75637072883546352386474609375</LongitudeDegrees>
            </Position>
            <AltitudeMeters>560.4000244140625</AltitudeMeters>
            <DistanceMeters>63249.784862968</DistanceMeters>
          </Trackpoint>
          <Trackpoint>
            <Time>2018-08-26T08:08:27.000Z</Time>
            <Position>
              <LatitudeDegrees>43.00271057523787021636962890625</LatitudeDegrees>
              <LongitudeDegrees>-1.75628162920475006103515625</LongitudeDegrees>
            </Position>
            <AltitudeMeters>560.4000244140625</AltitudeMeters>
            <DistanceMeters>63257.992443018</DistanceMeters>
          </Trackpoint>
          <Trackpoint>
            <Time>2018-08-26T08:08:28.000Z</Time>
            <Position>
              <LatitudeDegrees>43.0026756227016448974609375</LatitudeDegrees>
              <LongitudeDegrees>-1.75619177520275115966796875</LongitudeDegrees>
            </Position>
            <AltitudeMeters>560.5999755859375</AltitudeMeters>
            <DistanceMeters>63266.276679915</DistanceMeters>
          </Trackpoint>
          <Trackpoint>
            <Time>2018-08-26T08:08:29.000Z</Time>
            <Position>
              <LatitudeDegrees>43.002639748156070709228515625</LatitudeDegrees>
              <LongitudeDegrees>-1.75610317848622798919677734375</LongitudeDegrees>
            </Position>
            <AltitudeMeters>560.5999755859375</AltitudeMeters>
            <DistanceMeters>63274.519391554</DistanceMeters>
          </Trackpoint>
          <Trackpoint>
            <Time>2018-08-26T08:08:30.000Z</Time>
            <Position>
              <LatitudeDegrees>43.00260278396308422088623046875</LatitudeDegrees>
              <LongitudeDegrees>-1.7560165934264659881591796875</LongitudeDegrees>
            </Position>
            <AltitudeMeters>560.5999755859375</AltitudeMeters>
            <DistanceMeters>63282.680631892</DistanceMeters>
          </Trackpoint>
          <Trackpoint>
            <Time>2018-08-26T08:08:31.000Z</Time>
            <Position>
              <LatitudeDegrees>43.0025648139417171478271484375</LatitudeDegrees>
              <LongitudeDegrees>-1.7559336125850677490234375</LongitudeDegrees>
            </Position>
            <AltitudeMeters>560.5999755859375</AltitudeMeters>
            <DistanceMeters>63290.648155811</DistanceMeters>
          </Trackpoint>
          <Trackpoint>
            <Time>2018-08-26T08:08:32.000Z</Time>
            <Position>
              <LatitudeDegrees>43.002527095377445220947265625</LatitudeDegrees>
              <LongitudeDegrees>-1.755850799381732940673828125</LongitudeDegrees>
            </Position>
            <AltitudeMeters>560.5999755859375</AltitudeMeters>
            <DistanceMeters>63298.589569658</DistanceMeters>
          </Trackpoint>
          <Trackpoint>
            <Time>2018-08-26T08:08:33.000Z</Time>
            <Position>
              <LatitudeDegrees>43.002488203346729278564453125</LatitudeDegrees>
              <LongitudeDegrees>-1.7557708360254764556884765625</LongitudeDegrees>
            </Position>
            <AltitudeMeters>560.5999755859375</AltitudeMeters>
            <DistanceMeters>63306.40663607</DistanceMeters>
          </Trackpoint>
          <Trackpoint>
            <Time>2018-08-26T08:08:34.000Z</Time>
            <Position>
              <LatitudeDegrees>43.0024504847824573516845703125</LatitudeDegrees>
              <LongitudeDegrees>-1.75569028593599796295166015625</LongitudeDegrees>
            </Position>
            <AltitudeMeters>560.5999755859375</AltitudeMeters>
            <DistanceMeters>63314.193030181</DistanceMeters>
          </Trackpoint>
          <Trackpoint>
            <Time>2018-08-26T08:08:35.000Z</Time>
            <Position>
              <LatitudeDegrees>43.002413101494312286376953125</LatitudeDegrees>
              <LongitudeDegrees>-1.7556095682084560394287109375</LongitudeDegrees>
            </Position>
            <AltitudeMeters>560.5999755859375</AltitudeMeters>
            <DistanceMeters>63321.968979761</DistanceMeters>
          </Trackpoint>
          <Trackpoint>
            <Time>2018-08-26T08:08:36.000Z</Time>
            <Position>
              <LatitudeDegrees>43.00237546674907207489013671875</LatitudeDegrees>
              <LongitudeDegrees>-1.755529604852199554443359375</LongitudeDegrees>
            </Position>
            <AltitudeMeters>560.79998779296875</AltitudeMeters>
            <DistanceMeters>63329.70942918</DistanceMeters>
          </Trackpoint>
          <Trackpoint>
            <Time>2018-08-26T08:08:37.000Z</Time>
            <Position>
              <LatitudeDegrees>43.0023374967277050018310546875</LatitudeDegrees>
              <LongitudeDegrees>-1.75545006059110164642333984375</LongitudeDegrees>
            </Position>
            <AltitudeMeters>561</AltitudeMeters>
            <DistanceMeters>63337.441124082</DistanceMeters>
          </Trackpoint>
          <Trackpoint>
            <Time>2018-08-26T08:08:38.000Z</Time>
            <Position>
              <LatitudeDegrees>43.002300448715686798095703125</LatitudeDegrees>
              <LongitudeDegrees>-1.75537026487290859222412109375</LongitudeDegrees>
            </Position>
            <AltitudeMeters>561</AltitudeMeters>
            <DistanceMeters>63345.134767633</DistanceMeters>
          </Trackpoint>
          <Trackpoint>
            <Time>2018-08-26T08:08:39.000Z</Time>
            <Position>
              <LatitudeDegrees>43.00226314924657344818115234375</LatitudeDegrees>
              <LongitudeDegrees>-1.75528946332633495330810546875</LongitudeDegrees>
            </Position>
            <AltitudeMeters>561.4000244140625</AltitudeMeters>
            <DistanceMeters>63352.913039431</DistanceMeters>
          </Trackpoint>
          <Trackpoint>
            <Time>2018-08-26T08:08:40.000Z</Time>
            <Position>
              <LatitudeDegrees>43.0022265203297138214111328125</LatitudeDegrees>
              <LongitudeDegrees>-1.7552085779607295989990234375</LongitudeDegrees>
            </Position>
            <AltitudeMeters>561.5999755859375</AltitudeMeters>
            <DistanceMeters>63360.656404823</DistanceMeters>
          </Trackpoint>
          <Trackpoint>
            <Time>2018-08-26T08:08:41.000Z</Time>
            <Position>
              <LatitudeDegrees>43.0021889694035053253173828125</LatitudeDegrees>
              <LongitudeDegrees>-1.75512920133769512176513671875</LongitudeDegrees>
            </Position>
            <AltitudeMeters>562</AltitudeMeters>
            <DistanceMeters>63368.351808732</DistanceMeters>
          </Trackpoint>
          <Trackpoint>
            <Time>2018-08-26T08:08:42.000Z</Time>
            <Position>
              <LatitudeDegrees>43.00215200521051883697509765625</LatitudeDegrees>
              <LongitudeDegrees>-1.75504974089562892913818359375</LongitudeDegrees>
            </Position>
            <AltitudeMeters>562</AltitudeMeters>
            <DistanceMeters>63376.01782057</DistanceMeters>
          </Trackpoint>
          <Trackpoint>
            <Time>2018-08-26T08:08:43.000Z</Time>
            <Position>
              <LatitudeDegrees>43.00211613066494464874267578125</LatitudeDegrees>
              <LongitudeDegrees>-1.75496994517743587493896484375</LongitudeDegrees>
            </Position>
            <AltitudeMeters>562.20001220703125</AltitudeMeters>
            <DistanceMeters>63383.642493162</DistanceMeters>
          </Trackpoint>
          <Trackpoint>
            <Time>2018-08-26T08:08:44.000Z</Time>
            <Position>
              <LatitudeDegrees>43.00207950174808502197265625</LatitudeDegrees>
              <LongitudeDegrees>-1.75489065237343311309814453125</LongitudeDegrees>
            </Position>
            <AltitudeMeters>562.4000244140625</AltitudeMeters>
            <DistanceMeters>63391.276634461</DistanceMeters>
          </Trackpoint>
          <Trackpoint>
            <Time>2018-08-26T08:08:45.000Z</Time>
            <Position>
              <LatitudeDegrees>43.0020427890121936798095703125</LatitudeDegrees>
              <LongitudeDegrees>-1.7548116110265254974365234375</LongitudeDegrees>
            </Position>
            <AltitudeMeters>562.5999755859375</AltitudeMeters>
            <DistanceMeters>63398.897753256</DistanceMeters>
          </Trackpoint>
          <Trackpoint>
            <Time>2018-08-26T08:08:46.000Z</Time>
            <Position>
              <LatitudeDegrees>43.00200716592371463775634765625</LatitudeDegrees>
              <LongitudeDegrees>-1.75473189912736415863037109375</LongitudeDegrees>
            </Position>
            <AltitudeMeters>562.5999755859375</AltitudeMeters>
            <DistanceMeters>63406.501078147</DistanceMeters>
          </Trackpoint>
          <Trackpoint>
            <Time>2018-08-26T08:08:47.000Z</Time>
            <Position>
              <LatitudeDegrees>43.00197246484458446502685546875</LatitudeDegrees>
              <LongitudeDegrees>-1.75465227104723453521728515625</LongitudeDegrees>
            </Position>
            <AltitudeMeters>562.79998779296875</AltitudeMeters>
            <DistanceMeters>63414.047180588</DistanceMeters>
          </Trackpoint>
          <Trackpoint>
            <Time>2018-08-26T08:08:48.000Z</Time>
            <Position>
              <LatitudeDegrees>43.00194027833640575408935546875</LatitudeDegrees>
              <LongitudeDegrees>-1.7545728944242000579833984375</LongitudeDegrees>
            </Position>
            <AltitudeMeters>562.79998779296875</AltitudeMeters>
            <DistanceMeters>63421.434858304</DistanceMeters>
          </Trackpoint>
          <Trackpoint>
            <Time>2018-08-26T08:08:49.000Z</Time>
            <Position>
              <LatitudeDegrees>43.00190960057079792022705078125</LatitudeDegrees>
              <LongitudeDegrees>-1.75449217669665813446044921875</LongitudeDegrees>
            </Position>
            <AltitudeMeters>562.79998779296875</AltitudeMeters>
            <DistanceMeters>63428.838409074</DistanceMeters>
          </Trackpoint>
          <Trackpoint>
            <Time>2018-08-26T08:08:50.000Z</Time>
            <Position>
              <LatitudeDegrees>43.00187976099550724029541015625</LatitudeDegrees>
              <LongitudeDegrees>-1.75441053695976734161376953125</LongitudeDegrees>
            </Position>
            <AltitudeMeters>563</AltitudeMeters>
            <DistanceMeters>63436.268137017</DistanceMeters>
          </Trackpoint>
          <Trackpoint>
            <Time>2018-08-26T08:08:51.000Z</Time>
            <Position>
              <LatitudeDegrees>43.0018536932766437530517578125</LatitudeDegrees>
              <LongitudeDegrees>-1.7543278075754642486572265625</LongitudeDegrees>
            </Position>
            <AltitudeMeters>563</AltitudeMeters>
            <DistanceMeters>63443.600604211</DistanceMeters>
          </Trackpoint>
          <Trackpoint>
            <Time>2018-08-26T08:08:52.000Z</Time>
            <Position>
              <LatitudeDegrees>43.00183265469968318939208984375</LatitudeDegrees>
              <LongitudeDegrees>-1.7542416416108608245849609375</LongitudeDegrees>
            </Position>
            <AltitudeMeters>563.20001220703125</AltitudeMeters>
            <DistanceMeters>63450.995001608</DistanceMeters>
          </Trackpoint>
          <Trackpoint>
            <Time>2018-08-26T08:08:53.000Z</Time>
            <Position>
              <LatitudeDegrees>43.00181354396045207977294921875</LatitudeDegrees>
              <LongitudeDegrees>-1.75415120087563991546630859375</LongitudeDegrees>
            </Position>
            <AltitudeMeters>563.20001220703125</AltitudeMeters>
            <DistanceMeters>63458.65865721</DistanceMeters>
          </Trackpoint>
          <Trackpoint>
            <Time>2018-08-26T08:08:54.000Z</Time>
            <Position>
              <LatitudeDegrees>43.001798875629901885986328125</LatitudeDegrees>
              <LongitudeDegrees>-1.75405732356011867523193359375</LongitudeDegrees>
            </Position>
            <AltitudeMeters>563.4000244140625</AltitudeMeters>
            <DistanceMeters>63466.472835153</DistanceMeters>
          </Trackpoint>
          <Trackpoint>
            <Time>2018-08-26T08:08:55.000Z</Time>
            <Position>
              <LatitudeDegrees>43.00178957171738147735595703125</LatitudeDegrees>
              <LongitudeDegrees>-1.75396093167364597320556640625</LongitudeDegrees>
            </Position>
            <AltitudeMeters>563.4000244140625</AltitudeMeters>
            <DistanceMeters>63474.386911865</DistanceMeters>
          </Trackpoint>
          <Trackpoint>
            <Time>2018-08-26T08:08:56.000Z</Time>
            <Position>
              <LatitudeDegrees>43.0017851293087005615234375</LatitudeDegrees>
              <LongitudeDegrees>-1.75386236049234867095947265625</LongitudeDegrees>
            </Position>
            <AltitudeMeters>563.5999755859375</AltitudeMeters>
            <DistanceMeters>63482.425520391</DistanceMeters>
          </Trackpoint>
          <Trackpoint>
            <Time>2018-08-26T08:08:57.000Z</Time>
            <Position>
              <LatitudeDegrees>43.00178554840385913848876953125</LatitudeDegrees>
              <LongitudeDegrees>-1.7537610232830047607421875</LongitudeDegrees>
            </Position>
            <AltitudeMeters>563.5999755859375</AltitudeMeters>
            <DistanceMeters>63490.673707824</DistanceMeters>
          </Trackpoint>
          <Trackpoint>
            <Time>2018-08-26T08:08:58.000Z</Time>
            <Position>
              <LatitudeDegrees>43.00178856588900089263916015625</LatitudeDegrees>
              <LongitudeDegrees>-1.7536602728068828582763671875</LongitudeDegrees>
            </Position>
            <AltitudeMeters>563.5999755859375</AltitudeMeters>
            <DistanceMeters>63498.881287874</DistanceMeters>
          </Trackpoint>
          <Trackpoint>
            <Time>2018-08-26T08:08:59.000Z</Time>
            <Position>
              <LatitudeDegrees>43.00179309211671352386474609375</LatitudeDegrees>
              <LongitudeDegrees>-1.75355759449303150177001953125</LongitudeDegrees>
            </Position>
            <AltitudeMeters>563.5999755859375</AltitudeMeters>
            <DistanceMeters>63507.253351739</DistanceMeters>
          </Trackpoint>
          <Trackpoint>
            <Time>2018-08-26T08:09:00.000Z</Time>
            <Position>
              <LatitudeDegrees>43.00179795362055301666259765625</LatitudeDegrees>
              <LongitudeDegrees>-1.7534552514553070068359375</LongitudeDegrees>
            </Position>
            <AltitudeMeters>563.79998779296875</AltitudeMeters>
            <DistanceMeters>63515.601111913</DistanceMeters>
          </Trackpoint>
          <Trackpoint>
            <Time>2018-08-26T08:09:01.000Z</Time>
            <Position>
              <LatitudeDegrees>43.0018050782382488250732421875</LatitudeDegrees>
              <LongitudeDegrees>-1.753349639475345611572265625</LongitudeDegrees>
            </Position>
            <AltitudeMeters>563.79998779296875</AltitudeMeters>
            <DistanceMeters>63524.234434041</DistanceMeters>
          </Trackpoint>
          <Trackpoint>
            <Time>2018-08-26T08:09:02.000Z</Time>
            <Position>
              <LatitudeDegrees>43.0018111132085323333740234375</LatitudeDegrees>
              <LongitudeDegrees>-1.7532455362379550933837890625</LongitudeDegrees>
            </Position>
            <AltitudeMeters>563.79998779296875</AltitudeMeters>
            <DistanceMeters>63532.734944126</DistanceMeters>
          </Trackpoint>
          <Trackpoint>
            <Time>2018-08-26T08:09:03.000Z</Time>
            <Position>
              <LatitudeDegrees>43.0018158070743083953857421875</LatitudeDegrees>
              <LongitudeDegrees>-1.7531422711908817291259765625</LongitudeDegrees>
            </Position>
            <AltitudeMeters>563.79998779296875</AltitudeMeters>
            <DistanceMeters>63541.155941116</DistanceMeters>
          </Trackpoint>
          <Trackpoint>
            <Time>2018-08-26T08:09:04.000Z</Time>
            <Position>
              <LatitudeDegrees>43.001821339130401611328125</LatitudeDegrees>
              <LongitudeDegrees>-1.7530390061438083648681640625</LongitudeDegrees>
            </Position>
            <AltitudeMeters>563.79998779296875</AltitudeMeters>
            <DistanceMeters>63549.583905361</DistanceMeters>
          </Trackpoint>
          <Trackpoint>
            <Time>2018-08-26T08:09:05.000Z</Time>
            <Position>
              <LatitudeDegrees>43.0018282122910022735595703125</LatitudeDegrees>
              <LongitudeDegrees>-1.75293381325900554656982421875</LongitudeDegrees>
            </Position>
            <AltitudeMeters>563.79998779296875</AltitudeMeters>
            <DistanceMeters>63558.18106627</DistanceMeters>
          </Trackpoint>
          <Trackpoint>
            <Time>2018-08-26T08:09:06.000Z</Time>
            <Position>
              <LatitudeDegrees>43.0018329061567783355712890625</LatitudeDegrees>
              <LongitudeDegrees>-1.75283155404031276702880859375</LongitudeDegrees>
            </Position>
            <AltitudeMeters>564</AltitudeMeters>
            <DistanceMeters>63566.521250851</DistanceMeters>
          </Trackpoint>
          <Trackpoint>
            <Time>2018-08-26T08:09:07.000Z</Time>
            <Position>
              <LatitudeDegrees>43.00183676183223724365234375</LatitudeDegrees>
              <LongitudeDegrees>-1.75272862426936626434326171875</LongitudeDegrees>
            </Position>
            <AltitudeMeters>564</AltitudeMeters>
            <DistanceMeters>63574.910016298</DistanceMeters>
          </Trackpoint>
          <Trackpoint>
            <Time>2018-08-26T08:09:08.000Z</Time>
            <Position>
              <LatitudeDegrees>43.00184170715510845184326171875</LatitudeDegrees>
              <LongitudeDegrees>-1.75262443721294403076171875</LongitudeDegrees>
            </Position>
            <AltitudeMeters>563.79998779296875</AltitudeMeters>
            <DistanceMeters>63583.409464018</DistanceMeters>
          </Trackpoint>
          <Trackpoint>
            <Time>2018-08-26T08:09:09.000Z</Time>
            <Position>
              <LatitudeDegrees>43.0018459819257259368896484375</LatitudeDegrees>
              <LongitudeDegrees>-1.752520166337490081787109375</LongitudeDegrees>
            </Position>
            <AltitudeMeters>563.79998779296875</AltitudeMeters>
            <DistanceMeters>63591.911036335</DistanceMeters>
          </Trackpoint>
          <Trackpoint>
            <Time>2018-08-26T08:09:10.000Z</Time>
            <Position>
              <LatitudeDegrees>43.00184958614408969879150390625</LatitudeDegrees>
              <LongitudeDegrees>-1.75241581164300441741943359375</LongitudeDegrees>
            </Position>
            <AltitudeMeters>563.79998779296875</AltitudeMeters>
            <DistanceMeters>63600.414732718</DistanceMeters>
          </Trackpoint>
          <Trackpoint>
            <Time>2018-08-26T08:09:11.000Z</Time>
            <Position>
              <LatitudeDegrees>43.00185411237180233001708984375</LatitudeDegrees>
              <LongitudeDegrees>-1.75231170840561389923095703125</LongitudeDegrees>
            </Position>
            <AltitudeMeters>563.79998779296875</AltitudeMeters>
            <DistanceMeters>63608.90354948</DistanceMeters>
          </Trackpoint>
          <Trackpoint>
            <Time>2018-08-26T08:09:12.000Z</Time>
            <Position>
              <LatitudeDegrees>43.0018580518662929534912109375</LatitudeDegrees>
              <LongitudeDegrees>-1.75220844335854053497314453125</LongitudeDegrees>
            </Position>
            <AltitudeMeters>563.79998779296875</AltitudeMeters>
            <DistanceMeters>63617.320256063</DistanceMeters>
          </Trackpoint>
          <Trackpoint>
            <Time>2018-08-26T08:09:13.000Z</Time>
            <Position>
              <LatitudeDegrees>43.00186224281787872314453125</LatitudeDegrees>
              <LongitudeDegrees>-1.752106435596942901611328125</LongitudeDegrees>
            </Position>
            <AltitudeMeters>563.79998779296875</AltitudeMeters>
            <DistanceMeters>63625.637129608</DistanceMeters>
          </Trackpoint>
          <Trackpoint>
            <Time>2018-08-26T08:09:14.000Z</Time>
            <Position>
              <LatitudeDegrees>43.00186702050268650054931640625</LatitudeDegrees>
              <LongitudeDegrees>-1.75200560130178928375244140625</LongitudeDegrees>
            </Position>
            <AltitudeMeters>563.79998779296875</AltitudeMeters>
            <DistanceMeters>63633.862294209</DistanceMeters>
          </Trackpoint>
          <Trackpoint>
            <Time>2018-08-26T08:09:15.000Z</Time>
            <Position>
              <LatitudeDegrees>43.00187154673039913177490234375</LatitudeDegrees>
              <LongitudeDegrees>-1.7519051022827625274658203125</LongitudeDegrees>
            </Position>
            <AltitudeMeters>563.79998779296875</AltitudeMeters>
            <DistanceMeters>63642.057762993</DistanceMeters>
          </Trackpoint>
          <Trackpoint>
            <Time>2018-08-26T08:09:16.000Z</Time>
            <Position>
              <LatitudeDegrees>43.00187523476779460906982421875</LatitudeDegrees>
              <LongitudeDegrees>-1.75180510617792606353759765625</LongitudeDegrees>
            </Position>
            <AltitudeMeters>563.79998779296875</AltitudeMeters>
            <DistanceMeters>63650.207377232</DistanceMeters>
          </Trackpoint>
          <Trackpoint>
            <Time>2018-08-26T08:09:17.000Z</Time>
            <Position>
              <LatitudeDegrees>43.0018790066242218017578125</LatitudeDegrees>
              <LongitudeDegrees>-1.7517064511775970458984375</LongitudeDegrees>
            </Position>
            <AltitudeMeters>563.79998779296875</AltitudeMeters>
            <DistanceMeters>63658.24823212</DistanceMeters>
          </Trackpoint>
          <Trackpoint>
            <Time>2018-08-26T08:09:18.000Z</Time>
            <Position>
              <LatitudeDegrees>43.001883365213871002197265625</LatitudeDegrees>
              <LongitudeDegrees>-1.75160896964371204376220703125</LongitudeDegrees>
            </Position>
            <AltitudeMeters>563.79998779296875</AltitudeMeters>
            <DistanceMeters>63666.197601589</DistanceMeters>
          </Trackpoint>
          <Trackpoint>
            <Time>2018-08-26T08:09:19.000Z</Time>
            <Position>
              <LatitudeDegrees>43.0018885619938373565673828125</LatitudeDegrees>
              <LongitudeDegrees>-1.75151132047176361083984375</LongitudeDegrees>
            </Position>
            <AltitudeMeters>563.79998779296875</AltitudeMeters>
            <DistanceMeters>63674.166258788</DistanceMeters>
          </Trackpoint>
          <Trackpoint>
            <Time>2018-08-26T08:09:20.000Z</Time>
            <Position>
              <LatitudeDegrees>43.0018942616879940032958984375</LatitudeDegrees>
              <LongitudeDegrees>-1.75141383893787860870361328125</LongitudeDegrees>
            </Position>
            <AltitudeMeters>563.79998779296875</AltitudeMeters>
            <DistanceMeters>63682.12697964</DistanceMeters>
          </Trackpoint>
          <Trackpoint>
            <Time>2018-08-26T08:09:21.000Z</Time>
            <Position>
              <LatitudeDegrees>43.0019019730389118194580078125</LatitudeDegrees>
              <LongitudeDegrees>-1.75131694413721561431884765625</LongitudeDegrees>
            </Position>
            <AltitudeMeters>563.79998779296875</AltitudeMeters>
            <DistanceMeters>63690.061568033</DistanceMeters>
          </Trackpoint>
          <Trackpoint>
            <Time>2018-08-26T08:09:22.000Z</Time>
            <Position>
              <LatitudeDegrees>43.0019120313227176666259765625</LatitudeDegrees>
              <LongitudeDegrees>-1.75122038461267948150634765625</LongitudeDegrees>
            </Position>
            <AltitudeMeters>563.79998779296875</AltitudeMeters>
            <DistanceMeters>63698.001276067</DistanceMeters>
          </Trackpoint>
          <Trackpoint>
            <Time>2018-08-26T08:09:23.000Z</Time>
            <Position>
              <LatitudeDegrees>43.00192418508231639862060546875</LatitudeDegrees>
              <LongitudeDegrees>-1.75112348981201648712158203125</LongitudeDegrees>
            </Position>
            <AltitudeMeters>563.79998779296875</AltitudeMeters>
            <DistanceMeters>63706.003857034</DistanceMeters>
          </Trackpoint>
          <Trackpoint>
            <Time>2018-08-26T08:09:24.000Z</Time>
            <Position>
              <LatitudeDegrees>43.00194027833640575408935546875</LatitudeDegrees>
              <LongitudeDegrees>-1.7510263435542583465576171875</LongitudeDegrees>
            </Position>
            <AltitudeMeters>564</AltitudeMeters>
            <DistanceMeters>63714.111813405</DistanceMeters>
          </Trackpoint>
          <Trackpoint>
            <Time>2018-08-26T08:09:25.000Z</Time>
            <Position>
              <LatitudeDegrees>43.00196240656077861785888671875</LatitudeDegrees>
              <LongitudeDegrees>-1.75093062222003936767578125</LongitudeDegrees>
            </Position>
            <AltitudeMeters>564</AltitudeMeters>
            <DistanceMeters>63722.283005804</DistanceMeters>
          </Trackpoint>
          <Trackpoint>
            <Time>2018-08-26T08:09:26.000Z</Time>
            <Position>
              <LatitudeDegrees>43.0019916594028472900390625</LatitudeDegrees>
              <LongitudeDegrees>-1.75083733163774013519287109375</LongitudeDegrees>
            </Position>
            <AltitudeMeters>564.20001220703125</AltitudeMeters>
            <DistanceMeters>63730.545413318</DistanceMeters>
          </Trackpoint>
          <Trackpoint>
            <Time>2018-08-26T08:09:27.000Z</Time>
            <Position>
              <LatitudeDegrees>43.00202594138681888580322265625</LatitudeDegrees>
              <LongitudeDegrees>-1.75074563361704349517822265625</LongitudeDegrees>
            </Position>
            <AltitudeMeters>564.4000244140625</AltitudeMeters>
            <DistanceMeters>63738.927178927</DistanceMeters>
          </Trackpoint>
          <Trackpoint>
            <Time>2018-08-26T08:09:28.000Z</Time>
            <Position>
              <LatitudeDegrees>43.00206282176077365875244140625</LatitudeDegrees>
              <LongitudeDegrees>-1.7506548576056957244873046875</LongitudeDegrees>
            </Position>
            <AltitudeMeters>564.5999755859375</AltitudeMeters>
            <DistanceMeters>63747.379750419</DistanceMeters>
          </Trackpoint>
          <Trackpoint>
            <Time>2018-08-26T08:09:29.000Z</Time>
            <Position>
              <LatitudeDegrees>43.00210070796310901641845703125</LatitudeDegrees>
              <LongitudeDegrees>-1.75056441687047481536865234375</LongitudeDegrees>
            </Position>
            <AltitudeMeters>564.5999755859375</AltitudeMeters>
            <DistanceMeters>63755.863246707</DistanceMeters>
          </Trackpoint>
          <Trackpoint>
            <Time>2018-08-26T08:09:30.000Z</Time>
            <Position>
              <LatitudeDegrees>43.0021380074322223663330078125</LatitudeDegrees>
              <LongitudeDegrees>-1.75047397613525390625</LongitudeDegrees>
            </Position>
            <AltitudeMeters>564.5999755859375</AltitudeMeters>
            <DistanceMeters>63764.314749808</DistanceMeters>
          </Trackpoint>
          <Trackpoint>
            <Time>2018-08-26T08:09:31.000Z</Time>
            <Position>
              <LatitudeDegrees>43.00217262469232082366943359375</LatitudeDegrees>
              <LongitudeDegrees>-1.7503814399242401123046875</LongitudeDegrees>
            </Position>
            <AltitudeMeters>564.5999755859375</AltitudeMeters>
            <DistanceMeters>63772.775329928</DistanceMeters>
          </Trackpoint>
          <Trackpoint>
            <Time>2018-08-26T08:09:32.000Z</Time>
            <Position>
              <LatitudeDegrees>43.0022007040679454803466796875</LatitudeDegrees>
              <LongitudeDegrees>-1.7502850480377674102783203125</LongitudeDegrees>
            </Position>
            <AltitudeMeters>564.5999755859375</AltitudeMeters>
            <DistanceMeters>63781.22148905</DistanceMeters>
          </Trackpoint>
          <Trackpoint>
            <Time>2018-08-26T08:09:33.000Z</Time>
            <Position>
              <LatitudeDegrees>43.0022161267697811126708984375</LatitudeDegrees>
              <LongitudeDegrees>-1.7501842975616455078125</LongitudeDegrees>
            </Position>
            <AltitudeMeters>564.79998779296875</AltitudeMeters>
            <DistanceMeters>63789.600021993</DistanceMeters>
          </Trackpoint>
          <Trackpoint>
            <Time>2018-08-26T08:09:34.000Z</Time>
            <Position>
              <LatitudeDegrees>43.00221470184624195098876953125</LatitudeDegrees>
              <LongitudeDegrees>-1.7500822059810161590576171875</LongitudeDegrees>
            </Position>
            <AltitudeMeters>564.79998779296875</AltitudeMeters>
            <DistanceMeters>63797.91200821</DistanceMeters>
          </Trackpoint>
          <Trackpoint>
            <Time>2018-08-26T08:09:35.000Z</Time>
            <Position>
              <LatitudeDegrees>43.00219994969666004180908203125</LatitudeDegrees>
              <LongitudeDegrees>-1.74998237751424312591552734375</LongitudeDegrees>
            </Position>
            <AltitudeMeters>564.79998779296875</AltitudeMeters>
            <DistanceMeters>63806.202238111</DistanceMeters>
          </Trackpoint>
          <Trackpoint>
            <Time>2018-08-26T08:09:36.000Z</Time>
            <Position>
              <LatitudeDegrees>43.00217614509165287017822265625</LatitudeDegrees>
              <LongitudeDegrees>-1.74988632090389728546142578125</LongitudeDegrees>
            </Position>
            <AltitudeMeters>564.79998779296875</AltitudeMeters>
            <DistanceMeters>63814.458085554</DistanceMeters>
          </Trackpoint>
          <Trackpoint>
            <Time>2018-08-26T08:09:37.000Z</Time>
            <Position>
              <LatitudeDegrees>43.002148903906345367431640625</LatitudeDegrees>
              <LongitudeDegrees>-1.74979294650256633758544921875</LongitudeDegrees>
            </Position>
            <AltitudeMeters>565</AltitudeMeters>
            <DistanceMeters>63822.641425148</DistanceMeters>
          </Trackpoint>
          <Trackpoint>
            <Time>2018-08-26T08:09:38.000Z</Time>
            <Position>
              <LatitudeDegrees>43.0021202377974987030029296875</LatitudeDegrees>
              <LongitudeDegrees>-1.74970108084380626678466796875</LongitudeDegrees>
            </Position>
            <AltitudeMeters>565</AltitudeMeters>
            <DistanceMeters>63830.771625611</DistanceMeters>
          </Trackpoint>
          <Trackpoint>
            <Time>2018-08-26T08:09:39.000Z</Time>
            <Position>
              <LatitudeDegrees>43.00209048204123973846435546875</LatitudeDegrees>
              <LongitudeDegrees>-1.7496111430227756500244140625</LongitudeDegrees>
            </Position>
            <AltitudeMeters>565</AltitudeMeters>
            <DistanceMeters>63838.806863415</DistanceMeters>
          </Trackpoint>
          <Trackpoint>
            <Time>2018-08-26T08:09:40.000Z</Time>
            <Position>
              <LatitudeDegrees>43.00206047482788562774658203125</LatitudeDegrees>
              <LongitudeDegrees>-1.74952254630625247955322265625</LongitudeDegrees>
            </Position>
            <AltitudeMeters>565</AltitudeMeters>
            <DistanceMeters>63846.753960662</DistanceMeters>
          </Trackpoint>
          <Trackpoint>
            <Time>2018-08-26T08:09:41.000Z</Time>
            <Position>
              <LatitudeDegrees>43.0020310543477535247802734375</LatitudeDegrees>
              <LongitudeDegrees>-1.749434284865856170654296875</LongitudeDegrees>
            </Position>
            <AltitudeMeters>565</AltitudeMeters>
            <DistanceMeters>63854.649760037</DistanceMeters>
          </Trackpoint>
          <Trackpoint>
            <Time>2018-08-26T08:09:42.000Z</Time>
            <Position>
              <LatitudeDegrees>43.00200096331536769866943359375</LatitudeDegrees>
              <LongitudeDegrees>-1.749346442520618438720703125</LongitudeDegrees>
            </Position>
            <AltitudeMeters>565</AltitudeMeters>
            <DistanceMeters>63862.546131219</DistanceMeters>
          </Trackpoint>
          <Trackpoint>
            <Time>2018-08-26T08:09:43.000Z</Time>
            <Position>
              <LatitudeDegrees>43.00197179429233074188232421875</LatitudeDegrees>
              <LongitudeDegrees>-1.74925968982279300689697265625</LongitudeDegrees>
            </Position>
            <AltitudeMeters>565.20001220703125</AltitudeMeters>
            <DistanceMeters>63870.318015246</DistanceMeters>
          </Trackpoint>
          <Trackpoint>
            <Time>2018-08-26T08:09:44.000Z</Time>
            <Position>
              <LatitudeDegrees>43.001944720745086669921875</LatitudeDegrees>
              <LongitudeDegrees>-1.74917285330593585968017578125</LongitudeDegrees>
            </Position>
            <AltitudeMeters>565.4000244140625</AltitudeMeters>
            <DistanceMeters>63878.002263412</DistanceMeters>
          </Trackpoint>
          <Trackpoint>
            <Time>2018-08-26T08:09:45.000Z</Time>
            <Position>
              <LatitudeDegrees>43.00191882066428661346435546875</LatitudeDegrees>
              <LongitudeDegrees>-1.74908584915101528167724609375</LongitudeDegrees>
            </Position>
            <AltitudeMeters>565.5999755859375</AltitudeMeters>
            <DistanceMeters>63885.648224103</DistanceMeters>
          </Trackpoint>
          <Trackpoint>
            <Time>2018-08-26T08:09:46.000Z</Time>
            <Position>
              <LatitudeDegrees>43.0018962733447551727294921875</LatitudeDegrees>
              <LongitudeDegrees>-1.7489992640912532806396484375</LongitudeDegrees>
            </Position>
            <AltitudeMeters>565.79998779296875</AltitudeMeters>
            <DistanceMeters>63893.129428137</DistanceMeters>
          </Trackpoint>
          <Trackpoint>
            <Time>2018-08-26T08:09:47.000Z</Time>
            <Position>
              <LatitudeDegrees>43.00187707878649234771728515625</LatitudeDegrees>
              <LongitudeDegrees>-1.74891184084117412567138671875</LongitudeDegrees>
            </Position>
            <AltitudeMeters>565.79998779296875</AltitudeMeters>
            <DistanceMeters>63900.55915608</DistanceMeters>
          </Trackpoint>
          <Trackpoint>
            <Time>2018-08-26T08:09:48.000Z</Time>
            <Position>
              <LatitudeDegrees>43.00186199136078357696533203125</LatitudeDegrees>
              <LongitudeDegrees>-1.7488225735723972320556640625</LongitudeDegrees>
            </Position>
            <AltitudeMeters>566</AltitudeMeters>
            <DistanceMeters>63908.017391186</DistanceMeters>
          </Trackpoint>
          <Trackpoint>
            <Time>2018-08-26T08:09:49.000Z</Time>
            <Position>
              <LatitudeDegrees>43.0018533580005168914794921875</LatitudeDegrees>
              <LongitudeDegrees>-1.74873230047523975372314453125</LongitudeDegrees>
            </Position>
            <AltitudeMeters>566</AltitudeMeters>
            <DistanceMeters>63915.428256515</DistanceMeters>
          </Trackpoint>
          <Trackpoint>
            <Time>2018-08-26T08:09:50.000Z</Time>
            <Position>
              <LatitudeDegrees>43.00184874795377254486083984375</LatitudeDegrees>
              <LongitudeDegrees>-1.7486398480832576751708984375</LongitudeDegrees>
            </Position>
            <AltitudeMeters>566</AltitudeMeters>
            <DistanceMeters>63922.971366728</DistanceMeters>
          </Trackpoint>
          <Trackpoint>
            <Time>2018-08-26T08:09:51.000Z</Time>
            <Position>
              <LatitudeDegrees>43.0018483288586139678955078125</LatitudeDegrees>
              <LongitudeDegrees>-1.7485441267490386962890625</LongitudeDegrees>
            </Position>
            <AltitudeMeters>566.20001220703125</AltitudeMeters>
            <DistanceMeters>63930.763557306</DistanceMeters>
          </Trackpoint>
          <Trackpoint>
            <Time>2018-08-26T08:09:52.000Z</Time>
            <Position>
              <LatitudeDegrees>43.00185377709567546844482421875</LatitudeDegrees>
              <LongitudeDegrees>-1.74844530411064624786376953125</LongitudeDegrees>
            </Position>
            <AltitudeMeters>566.20001220703125</AltitudeMeters>
            <DistanceMeters>63938.830760101</DistanceMeters>
          </Trackpoint>
          <Trackpoint>
            <Time>2018-08-26T08:09:53.000Z</Time>
            <Position>
              <LatitudeDegrees>43.001860566437244415283203125</LatitudeDegrees>
              <LongitudeDegrees>-1.74834388308227062225341796875</LongitudeDegrees>
            </Position>
            <AltitudeMeters>566.4000244140625</AltitudeMeters>
            <DistanceMeters>63947.120445362</DistanceMeters>
          </Trackpoint>
          <Trackpoint>
            <Time>2018-08-26T08:09:54.000Z</Time>
            <Position>
              <LatitudeDegrees>43.001865260303020477294921875</LatitudeDegrees>
              <LongitudeDegrees>-1.74824145622551441192626953125</LongitudeDegrees>
            </Position>
            <AltitudeMeters>566.5999755859375</AltitudeMeters>
            <DistanceMeters>63955.474152968</DistanceMeters>
          </Trackpoint>
          <Trackpoint>
            <Time>2018-08-26T08:09:55.000Z</Time>
            <Position>
              <LatitudeDegrees>43.001865260303020477294921875</LatitudeDegrees>
              <LongitudeDegrees>-1.74813651479780673980712890625</LongitudeDegrees>
            </Position>
            <AltitudeMeters>566.79998779296875</AltitudeMeters>
            <DistanceMeters>63964.015992212</DistanceMeters>
          </Trackpoint>
          <Trackpoint>
            <Time>2018-08-26T08:09:56.000Z</Time>
            <Position>
              <LatitudeDegrees>43.00185495056211948394775390625</LatitudeDegrees>
              <LongitudeDegrees>-1.74803291447460651397705078125</LongitudeDegrees>
            </Position>
            <AltitudeMeters>567.20001220703125</AltitudeMeters>
            <DistanceMeters>63972.526588146</DistanceMeters>
          </Trackpoint>
          <Trackpoint>
            <Time>2018-08-26T08:09:57.000Z</Time>
            <Position>
              <LatitudeDegrees>43.00183433108031749725341796875</LatitudeDegrees>
              <LongitudeDegrees>-1.747932247817516326904296875</LongitudeDegrees>
            </Position>
            <AltitudeMeters>567.20001220703125</AltitudeMeters>
            <DistanceMeters>63981.035592373</DistanceMeters>
          </Trackpoint>
          <Trackpoint>
            <Time>2018-08-26T08:09:58.000Z</Time>
            <Position>
              <LatitudeDegrees>43.00180767662823200225830078125</LatitudeDegrees>
              <LongitudeDegrees>-1.7478351853787899017333984375</LongitudeDegrees>
            </Position>
            <AltitudeMeters>567.20001220703125</AltitudeMeters>
            <DistanceMeters>63989.474799262</DistanceMeters>
          </Trackpoint>
          <Trackpoint>
            <Time>2018-08-26T08:09:59.000Z</Time>
            <Position>
              <LatitudeDegrees>43.00177833996713161468505859375</LatitudeDegrees>
              <LongitudeDegrees>-1.74774139188230037689208984375</LongitudeDegrees>
            </Position>
            <AltitudeMeters>567.20001220703125</AltitudeMeters>
            <DistanceMeters>63997.77863354</DistanceMeters>
          </Trackpoint>
          <Trackpoint>
            <Time>2018-08-26T08:10:00.000Z</Time>
            <Position>
              <LatitudeDegrees>43.00174833275377750396728515625</LatitudeDegrees>
              <LongitudeDegrees>-1.747647933661937713623046875</LongitudeDegrees>
            </Position>
            <AltitudeMeters>567.20001220703125</AltitudeMeters>
            <DistanceMeters>64006.086816515</DistanceMeters>
          </Trackpoint>
          <Trackpoint>
            <Time>2018-08-26T08:10:01.000Z</Time>
            <Position>
              <LatitudeDegrees>43.0017158947885036468505859375</LatitudeDegrees>
              <LongitudeDegrees>-1.74755782820284366607666015625</LongitudeDegrees>
            </Position>
            <AltitudeMeters>567.4000244140625</AltitudeMeters>
            <DistanceMeters>64014.261323575</DistanceMeters>
          </Trackpoint>
          <Trackpoint>
            <Time>2018-08-26T08:10:02.000Z</Time>
            <Position>
              <LatitudeDegrees>43.0016832053661346435546875</LatitudeDegrees>
              <LongitudeDegrees>-1.74746814183890819549560546875</LongitudeDegrees>
            </Position>
            <AltitudeMeters>567.4000244140625</AltitudeMeters>
            <DistanceMeters>64022.418136877</DistanceMeters>
          </Trackpoint>
          <Trackpoint>
            <Time>2018-08-26T08:10:03.000Z</Time>
            <Position>
              <LatitudeDegrees>43.0016495101153850555419921875</LatitudeDegrees>
              <LongitudeDegrees>-1.7473795451223850250244140625</LongitudeDegrees>
            </Position>
            <AltitudeMeters>567.4000244140625</AltitudeMeters>
            <DistanceMeters>64030.54611567</DistanceMeters>
          </Trackpoint>
          <Trackpoint>
            <Time>2018-08-26T08:10:04.000Z</Time>
            <Position>
              <LatitudeDegrees>43.00161455757915973663330078125</LatitudeDegrees>
              <LongitudeDegrees>-1.74729195423424243927001953125</LongitudeDegrees>
            </Position>
            <AltitudeMeters>567.4000244140625</AltitudeMeters>
            <DistanceMeters>64038.667425808</DistanceMeters>
          </Trackpoint>
          <Trackpoint>
            <Time>2018-08-26T08:10:05.000Z</Time>
            <Position>
              <LatitudeDegrees>43.00157985650002956390380859375</LatitudeDegrees>
              <LongitudeDegrees>-1.74720511771738529205322265625</LongitudeDegrees>
            </Position>
            <AltitudeMeters>567.4000244140625</AltitudeMeters>
            <DistanceMeters>64046.721745715</DistanceMeters>
          </Trackpoint>
          <Trackpoint>
            <Time>2018-08-26T08:10:06.000Z</Time>
            <Position>
              <LatitudeDegrees>43.00154507160186767578125</LatitudeDegrees>
              <LongitudeDegrees>-1.747118532657623291015625</LongitudeDegrees>
            </Position>
            <AltitudeMeters>567.4000244140625</AltitudeMeters>
            <DistanceMeters>64054.763162096</DistanceMeters>
          </Trackpoint>
          <Trackpoint>
            <Time>2018-08-26T08:10:07.000Z</Time>
            <Position>
              <LatitudeDegrees>43.0015107057988643646240234375</LatitudeDegrees>
              <LongitudeDegrees>-1.7470332048833370208740234375</LongitudeDegrees>
            </Position>
            <AltitudeMeters>567.4000244140625</AltitudeMeters>
            <DistanceMeters>64062.693196923</DistanceMeters>
          </Trackpoint>
          <Trackpoint>
            <Time>2018-08-26T08:10:08.000Z</Time>
            <Position>
              <LatitudeDegrees>43.00147675909101963043212890625</LatitudeDegrees>
              <LongitudeDegrees>-1.7469497211277484893798828125</LongitudeDegrees>
            </Position>
            <AltitudeMeters>567.4000244140625</AltitudeMeters>
            <DistanceMeters>64070.469146503</DistanceMeters>
          </Trackpoint>
          <Trackpoint>
            <Time>2018-08-26T08:10:09.000Z</Time>
            <Position>
              <LatitudeDegrees>43.001442141830921173095703125</LatitudeDegrees>
              <LongitudeDegrees>-1.74686799757182598114013671875</LongitudeDegrees>
            </Position>
            <AltitudeMeters>567.4000244140625</AltitudeMeters>
            <DistanceMeters>64078.15633196</DistanceMeters>
          </Trackpoint>
          <Trackpoint>
            <Time>2018-08-26T08:10:10.000Z</Time>
            <Position>
              <LatitudeDegrees>43.001408614218235015869140625</LatitudeDegrees>
              <LongitudeDegrees>-1.7467857711017131805419921875</LongitudeDegrees>
            </Position>
            <AltitudeMeters>567.4000244140625</AltitudeMeters>
            <DistanceMeters>64085.819987562</DistanceMeters>
          </Trackpoint>
          <Trackpoint>
            <Time>2018-08-26T08:10:11.000Z</Time>
            <Position>
              <LatitudeDegrees>43.00137567333877086639404296875</LatitudeDegrees>
              <LongitudeDegrees>-1.74670421518385410308837890625</LongitudeDegrees>
            </Position>
            <AltitudeMeters>567.4000244140625</AltitudeMeters>
            <DistanceMeters>64093.404286274</DistanceMeters>
          </Trackpoint>
          <Trackpoint>
            <Time>2018-08-26T08:10:12.000Z</Time>
            <Position>
              <LatitudeDegrees>43.0013437382876873016357421875</LatitudeDegrees>
              <LongitudeDegrees>-1.74662257544696331024169921875</LongitudeDegrees>
            </Position>
            <AltitudeMeters>567.4000244140625</AltitudeMeters>
            <DistanceMeters>64100.9408094</DistanceMeters>
          </Trackpoint>
          <Trackpoint>
            <Time>2018-08-26T08:10:13.000Z</Time>
            <Position>
              <LatitudeDegrees>43.00131297670304775238037109375</LatitudeDegrees>
              <LongitudeDegrees>-1.7465430311858654022216796875</LongitudeDegrees>
            </Position>
            <AltitudeMeters>567.4000244140625</AltitudeMeters>
            <DistanceMeters>64108.26588375</DistanceMeters>
          </Trackpoint>
          <Trackpoint>
            <Time>2018-08-26T08:10:14.000Z</Time>
            <Position>
              <LatitudeDegrees>43.00128422677516937255859375</LatitudeDegrees>
              <LongitudeDegrees>-1.74646164290606975555419921875</LongitudeDegrees>
            </Position>
            <AltitudeMeters>567.5999755859375</AltitudeMeters>
            <DistanceMeters>64115.622326377</DistanceMeters>
          </Trackpoint>
          <Trackpoint>
            <Time>2018-08-26T08:10:15.000Z</Time>
            <Position>
              <LatitudeDegrees>43.00125882960855960845947265625</LatitudeDegrees>
              <LongitudeDegrees>-1.7463777400553226470947265625</LongitudeDegrees>
            </Position>
            <AltitudeMeters>567.5999755859375</AltitudeMeters>
            <DistanceMeters>64123.013670131</DistanceMeters>
          </Trackpoint>
          <Trackpoint>
            <Time>2018-08-26T08:10:16.000Z</Time>
            <Position>
              <LatitudeDegrees>43.0012379586696624755859375</LatitudeDegrees>
              <LongitudeDegrees>-1.74629040062427520751953125</LongitudeDegrees>
            </Position>
            <AltitudeMeters>567.5999755859375</AltitudeMeters>
            <DistanceMeters>64130.492459705</DistanceMeters>
          </Trackpoint>
          <Trackpoint>
            <Time>2018-08-26T08:10:17.000Z</Time>
            <Position>
              <LatitudeDegrees>43.0012220330536365509033203125</LatitudeDegrees>
              <LongitudeDegrees>-1.74619861878454685211181640625</LongitudeDegrees>
            </Position>
            <AltitudeMeters>568</AltitudeMeters>
            <DistanceMeters>64138.170241874</DistanceMeters>
          </Trackpoint>
          <Trackpoint>
            <Time>2018-08-26T08:10:18.000Z</Time>
            <Position>
              <LatitudeDegrees>43.00121155567467212677001953125</LatitudeDegrees>
              <LongitudeDegrees>-1.74610507674515247344970703125</LongitudeDegrees>
            </Position>
            <AltitudeMeters>568.20001220703125</AltitudeMeters>
            <DistanceMeters>64145.87268319</DistanceMeters>
          </Trackpoint>
          <Trackpoint>
            <Time>2018-08-26T08:10:19.000Z</Time>
            <Position>
              <LatitudeDegrees>43.0012052692472934722900390625</LatitudeDegrees>
              <LongitudeDegrees>-1.74600851722061634063720703125</LongitudeDegrees>
            </Position>
            <AltitudeMeters>568.5999755859375</AltitudeMeters>
            <DistanceMeters>64153.763906616</DistanceMeters>
          </Trackpoint>
          <Trackpoint>
            <Time>2018-08-26T08:10:20.000Z</Time>
            <Position>
              <LatitudeDegrees>43.00120317377150058746337890625</LatitudeDegrees>
              <LongitudeDegrees>-1.74591095186769962310791015625</LongitudeDegrees>
            </Position>
            <AltitudeMeters>568.79998779296875</AltitudeMeters>
            <DistanceMeters>64161.70929927</DistanceMeters>
          </Trackpoint>
          <Trackpoint>
            <Time>2018-08-26T08:10:21.000Z</Time>
            <Position>
              <LatitudeDegrees>43.001205436885356903076171875</LatitudeDegrees>
              <LongitudeDegrees>-1.74581338651478290557861328125</LongitudeDegrees>
            </Position>
            <AltitudeMeters>569.20001220703125</AltitudeMeters>
            <DistanceMeters>64169.655260162</DistanceMeters>
          </Trackpoint>
          <Trackpoint>
            <Time>2018-08-26T08:10:22.000Z</Time>
            <Position>
              <LatitudeDegrees>43.00121071748435497283935546875</LatitudeDegrees>
              <LongitudeDegrees>-1.74571615643799304962158203125</LongitudeDegrees>
            </Position>
            <AltitudeMeters>569.4000244140625</AltitudeMeters>
            <DistanceMeters>64177.591555469</DistanceMeters>
          </Trackpoint>
          <Trackpoint>
            <Time>2018-08-26T08:10:23.000Z</Time>
            <Position>
              <LatitudeDegrees>43.001217506825923919677734375</LatitudeDegrees>
              <LongitudeDegrees>-1.74561942927539348602294921875</LongitudeDegrees>
            </Position>
            <AltitudeMeters>569.5999755859375</AltitudeMeters>
            <DistanceMeters>64185.501066806</DistanceMeters>
          </Trackpoint>
          <Trackpoint>
            <Time>2018-08-26T08:10:24.000Z</Time>
            <Position>
              <LatitudeDegrees>43.001226224005222320556640625</LatitudeDegrees>
              <LongitudeDegrees>-1.74552303738892078399658203125</LongitudeDegrees>
            </Position>
            <AltitudeMeters>569.79998779296875</AltitudeMeters>
            <DistanceMeters>64193.407152383</DistanceMeters>
          </Trackpoint>
          <Trackpoint>
            <Time>2018-08-26T08:10:25.000Z</Time>
            <Position>
              <LatitudeDegrees>43.00123686902225017547607421875</LatitudeDegrees>
              <LongitudeDegrees>-1.7454273998737335205078125</LongitudeDegrees>
            </Position>
            <AltitudeMeters>570</AltitudeMeters>
            <DistanceMeters>64201.281192316</DistanceMeters>
          </Trackpoint>
          <Trackpoint>
            <Time>2018-08-26T08:10:26.000Z</Time>
            <Position>
              <LatitudeDegrees>43.00124826841056346893310546875</LatitudeDegrees>
              <LongitudeDegrees>-1.74533209763467311859130859375</LongitudeDegrees>
            </Position>
            <AltitudeMeters>570</AltitudeMeters>
            <DistanceMeters>64209.140883974</DistanceMeters>
          </Trackpoint>
          <Trackpoint>
            <Time>2018-08-26T08:10:27.000Z</Time>
            <Position>
              <LatitudeDegrees>43.0012615956366062164306640625</LatitudeDegrees>
              <LongitudeDegrees>-1.7452369630336761474609375</LongitudeDegrees>
            </Position>
            <AltitudeMeters>570</AltitudeMeters>
            <DistanceMeters>64217.025238496</DistanceMeters>
          </Trackpoint>
          <Trackpoint>
            <Time>2018-08-26T08:10:28.000Z</Time>
            <Position>
              <LatitudeDegrees>43.00127576105296611785888671875</LatitudeDegrees>
              <LongitudeDegrees>-1.745142079889774322509765625</LongitudeDegrees>
            </Position>
            <AltitudeMeters>570</AltitudeMeters>
            <DistanceMeters>64224.90844762</DistanceMeters>
          </Trackpoint>
          <Trackpoint>
            <Time>2018-08-26T08:10:29.000Z</Time>
            <Position>
              <LatitudeDegrees>43.0012894235551357269287109375</LatitudeDegrees>
              <LongitudeDegrees>-1.7450470291078090667724609375</LongitudeDegrees>
            </Position>
            <AltitudeMeters>570</AltitudeMeters>
            <DistanceMeters>64232.79337478</DistanceMeters>
          </Trackpoint>
          <Trackpoint>
            <Time>2018-08-26T08:10:30.000Z</Time>
            <Position>
              <LatitudeDegrees>43.00130291841924190521240234375</LatitudeDegrees>
              <LongitudeDegrees>-1.744952313601970672607421875</LongitudeDegrees>
            </Position>
            <AltitudeMeters>570</AltitudeMeters>
            <DistanceMeters>64240.647319788</DistanceMeters>
          </Trackpoint>
          <Trackpoint>
            <Time>2018-08-26T08:10:31.000Z</Time>
            <Position>
              <LatitudeDegrees>43.00131767056882381439208984375</LatitudeDegrees>
              <LongitudeDegrees>-1.74485751427710056304931640625</LongitudeDegrees>
            </Position>
            <AltitudeMeters>570.20001220703125</AltitudeMeters>
            <DistanceMeters>64248.536254244</DistanceMeters>
          </Trackpoint>
          <Trackpoint>
            <Time>2018-08-26T08:10:32.000Z</Time>
            <Position>
              <LatitudeDegrees>43.00133376382291316986083984375</LatitudeDegrees>
              <LongitudeDegrees>-1.7447640560567378997802734375</LongitudeDegrees>
            </Position>
            <AltitudeMeters>570.20001220703125</AltitudeMeters>
            <DistanceMeters>64256.351587702</DistanceMeters>
          </Trackpoint>
          <Trackpoint>
            <Time>2018-08-26T08:10:33.000Z</Time>
            <Position>
              <LatitudeDegrees>43.001350946724414825439453125</LatitudeDegrees>
              <LongitudeDegrees>-1.74467126838862895965576171875</LongitudeDegrees>
            </Position>
            <AltitudeMeters>570.20001220703125</AltitudeMeters>
            <DistanceMeters>64264.142619332</DistanceMeters>
          </Trackpoint>
          <Trackpoint>
            <Time>2018-08-26T08:10:34.000Z</Time>
            <Position>
              <LatitudeDegrees>43.00136796198785305023193359375</LatitudeDegrees>
              <LongitudeDegrees>-1.7445779778063297271728515625</LongitudeDegrees>
            </Position>
            <AltitudeMeters>570.20001220703125</AltitudeMeters>
            <DistanceMeters>64271.968344758</DistanceMeters>
          </Trackpoint>
          <Trackpoint>
            <Time>2018-08-26T08:10:35.000Z</Time>
            <Position>
              <LatitudeDegrees>43.00138413906097412109375</LatitudeDegrees>
              <LongitudeDegrees>-1.74448485486209392547607421875</LongitudeDegrees>
            </Position>
            <AltitudeMeters>570.20001220703125</AltitudeMeters>
            <DistanceMeters>64279.759376388</DistanceMeters>
          </Trackpoint>
          <Trackpoint>
            <Time>2018-08-26T08:10:36.000Z</Time>
            <Position>
              <LatitudeDegrees>43.00139947794377803802490234375</LatitudeDegrees>
              <LongitudeDegrees>-1.7443912290036678314208984375</LongitudeDegrees>
            </Position>
            <AltitudeMeters>570.20001220703125</AltitudeMeters>
            <DistanceMeters>64287.570086756</DistanceMeters>
          </Trackpoint>
          <Trackpoint>
            <Time>2018-08-26T08:10:37.000Z</Time>
            <Position>
              <LatitudeDegrees>43.00141288898885250091552734375</LatitudeDegrees>
              <LongitudeDegrees>-1.74429961480200290679931640625</LongitudeDegrees>
            </Position>
            <AltitudeMeters>570.20001220703125</AltitudeMeters>
            <DistanceMeters>64295.175786573</DistanceMeters>
          </Trackpoint>
          <Trackpoint>
            <Time>2018-08-26T08:10:38.000Z</Time>
            <Position>
              <LatitudeDegrees>43.00142579711973667144775390625</LatitudeDegrees>
              <LongitudeDegrees>-1.74420590512454509735107421875</LongitudeDegrees>
            </Position>
            <AltitudeMeters>570.4000244140625</AltitudeMeters>
            <DistanceMeters>64302.93778825</DistanceMeters>
          </Trackpoint>
          <Trackpoint>
            <Time>2018-08-26T08:10:39.000Z</Time>
            <Position>
              <LatitudeDegrees>43.00143753178417682647705078125</LatitudeDegrees>
              <LongitudeDegrees>-1.74411169253289699554443359375</LongitudeDegrees>
            </Position>
            <AltitudeMeters>570.5999755859375</AltitudeMeters>
            <DistanceMeters>64310.717220898</DistanceMeters>
          </Trackpoint>
          <Trackpoint>
            <Time>2018-08-26T08:10:40.000Z</Time>
            <Position>
              <LatitudeDegrees>43.0014463327825069427490234375</LatitudeDegrees>
              <LongitudeDegrees>-1.74401798285543918609619140625</LongitudeDegrees>
            </Position>
            <AltitudeMeters>570.5999755859375</AltitudeMeters>
            <DistanceMeters>64318.407929624</DistanceMeters>
          </Trackpoint>
          <Trackpoint>
            <Time>2018-08-26T08:10:41.000Z</Time>
            <Position>
              <LatitudeDegrees>43.00145144574344158172607421875</LatitudeDegrees>
              <LongitudeDegrees>-1.7439231835305690765380859375</LongitudeDegrees>
            </Position>
            <AltitudeMeters>570.79998779296875</AltitudeMeters>
            <DistanceMeters>64326.145461971</DistanceMeters>
          </Trackpoint>
          <Trackpoint>
            <Time>2018-08-26T08:10:42.000Z</Time>
            <Position>
              <LatitudeDegrees>43.00145278684794902801513671875</LatitudeDegrees>
              <LongitudeDegrees>-1.74382754601538181304931640625</LongitudeDegrees>
            </Position>
            <AltitudeMeters>571</AltitudeMeters>
            <DistanceMeters>64333.931276197</DistanceMeters>
          </Trackpoint>
          <Trackpoint>
            <Time>2018-08-26T08:10:43.000Z</Time>
            <Position>
              <LatitudeDegrees>43.001451529562473297119140625</LatitudeDegrees>
              <LongitudeDegrees>-1.7437307350337505340576171875</LongitudeDegrees>
            </Position>
            <AltitudeMeters>571</AltitudeMeters>
            <DistanceMeters>64341.81276691</DistanceMeters>
          </Trackpoint>
          <Trackpoint>
            <Time>2018-08-26T08:10:44.000Z</Time>
            <Position>
              <LatitudeDegrees>43.00144490785896778106689453125</LatitudeDegrees>
              <LongitudeDegrees>-1.74363660626113414764404296875</LongitudeDegrees>
            </Position>
            <AltitudeMeters>571.20001220703125</AltitudeMeters>
            <DistanceMeters>64349.509930774</DistanceMeters>
          </Trackpoint>
          <Trackpoint>
            <Time>2018-08-26T08:10:45.000Z</Time>
            <Position>
              <LatitudeDegrees>43.001434095203876495361328125</LatitudeDegrees>
              <LongitudeDegrees>-1.74354423768818378448486328125</LongitudeDegrees>
            </Position>
            <AltitudeMeters>571.20001220703125</AltitudeMeters>
            <DistanceMeters>64357.123936998</DistanceMeters>
          </Trackpoint>
          <Trackpoint>
            <Time>2018-08-26T08:10:46.000Z</Time>
            <Position>
              <LatitudeDegrees>43.00142009742558002471923828125</LatitudeDegrees>
              <LongitudeDegrees>-1.74345371313393115997314453125</LongitudeDegrees>
            </Position>
            <AltitudeMeters>571.4000244140625</AltitudeMeters>
            <DistanceMeters>64364.655665898</DistanceMeters>
          </Trackpoint>
          <Trackpoint>
            <Time>2018-08-26T08:10:47.000Z</Time>
            <Position>
              <LatitudeDegrees>43.00140450708568096160888671875</LatitudeDegrees>
              <LongitudeDegrees>-1.74336545169353485107421875</LongitudeDegrees>
            </Position>
            <AltitudeMeters>572</AltitudeMeters>
            <DistanceMeters>64372.047009651</DistanceMeters>
          </Trackpoint>
          <Trackpoint>
            <Time>2018-08-26T08:10:48.000Z</Time>
            <Position>
              <LatitudeDegrees>43.00138824619352817535400390625</LatitudeDegrees>
              <LongitudeDegrees>-1.74327735789120197296142578125</LongitudeDegrees>
            </Position>
            <AltitudeMeters>572.20001220703125</AltitudeMeters>
            <DistanceMeters>64379.442017626</DistanceMeters>
          </Trackpoint>
          <Trackpoint>
            <Time>2018-08-26T08:10:49.000Z</Time>
            <Position>
              <LatitudeDegrees>43.00137139856815338134765625</LatitudeDegrees>
              <LongitudeDegrees>-1.74318976700305938720703125</LongitudeDegrees>
            </Position>
            <AltitudeMeters>572.4000244140625</AltitudeMeters>
            <DistanceMeters>64386.813788108</DistanceMeters>
          </Trackpoint>
          <Trackpoint>
            <Time>2018-08-26T08:10:50.000Z</Time>
            <Position>
              <LatitudeDegrees>43.0013534612953662872314453125</LatitudeDegrees>
              <LongitudeDegrees>-1.74310385249555110931396484375</LongitudeDegrees>
            </Position>
            <AltitudeMeters>572.5999755859375</AltitudeMeters>
            <DistanceMeters>64394.086902146</DistanceMeters>
          </Trackpoint>
          <Trackpoint>
            <Time>2018-08-26T08:10:51.000Z</Time>
            <Position>
              <LatitudeDegrees>43.00133518874645233154296875</LatitudeDegrees>
              <LongitudeDegrees>-1.74301902763545513153076171875</LongitudeDegrees>
            </Position>
            <AltitudeMeters>572.79998779296875</AltitudeMeters>
            <DistanceMeters>64401.285136557</DistanceMeters>
          </Trackpoint>
          <Trackpoint>
            <Time>2018-08-26T08:10:52.000Z</Time>
            <Position>
              <LatitudeDegrees>43.0013162456452846527099609375</LatitudeDegrees>
              <LongitudeDegrees>-1.7429347895085811614990234375</LongitudeDegrees>
            </Position>
            <AltitudeMeters>572.79998779296875</AltitudeMeters>
            <DistanceMeters>64408.459496161</DistanceMeters>
          </Trackpoint>
          <Trackpoint>
            <Time>2018-08-26T08:10:53.000Z</Time>
            <Position>
              <LatitudeDegrees>43.0012984760105609893798828125</LatitudeDegrees>
              <LongitudeDegrees>-1.74285138957202434539794921875</LongitudeDegrees>
            </Position>
            <AltitudeMeters>573</AltitudeMeters>
            <DistanceMeters>64415.53053097</DistanceMeters>
          </Trackpoint>
          <Trackpoint>
            <Time>2018-08-26T08:10:54.000Z</Time>
            <Position>
              <LatitudeDegrees>43.00128020346164703369140625</LatitudeDegrees>
              <LongitudeDegrees>-1.74276907928287982940673828125</LongitudeDegrees>
            </Position>
            <AltitudeMeters>573</AltitudeMeters>
            <DistanceMeters>64422.531620524</DistanceMeters>
          </Trackpoint>
          <Trackpoint>
            <Time>2018-08-26T08:10:55.000Z</Time>
            <Position>
              <LatitudeDegrees>43.00126033835113048553466796875</LatitudeDegrees>
              <LongitudeDegrees>-1.74268760718405246734619140625</LongitudeDegrees>
            </Position>
            <AltitudeMeters>573</AltitudeMeters>
            <DistanceMeters>64429.522383981</DistanceMeters>
          </Trackpoint>
          <Trackpoint>
            <Time>2018-08-26T08:10:56.000Z</Time>
            <Position>
              <LatitudeDegrees>43.00124072469770908355712890625</LatitudeDegrees>
              <LongitudeDegrees>-1.74260730855166912078857421875</LongitudeDegrees>
            </Position>
            <AltitudeMeters>573</AltitudeMeters>
            <DistanceMeters>64436.414277922</DistanceMeters>
          </Trackpoint>
          <Trackpoint>
            <Time>2018-08-26T08:10:57.000Z</Time>
            <Position>
              <LatitudeDegrees>43.00122362561523914337158203125</LatitudeDegrees>
              <LongitudeDegrees>-1.74252533353865146636962890625</LongitudeDegrees>
            </Position>
            <AltitudeMeters>573.20001220703125</AltitudeMeters>
            <DistanceMeters>64443.3531804</DistanceMeters>
          </Trackpoint>
          <Trackpoint>
            <Time>2018-08-26T08:10:58.000Z</Time>
            <Position>
              <LatitudeDegrees>43.0012089572846889495849609375</LatitudeDegrees>
              <LongitudeDegrees>-1.742446459829807281494140625</LongitudeDegrees>
            </Position>
            <AltitudeMeters>573.4000244140625</AltitudeMeters>
            <DistanceMeters>64449.97784428</DistanceMeters>
          </Trackpoint>
          <Trackpoint>
            <Time>2018-08-26T08:10:59.000Z</Time>
            <Position>
              <LatitudeDegrees>43.0011952109634876251220703125</LatitudeDegrees>
              <LongitudeDegrees>-1.7423688434064388275146484375</LongitudeDegrees>
            </Position>
            <AltitudeMeters>573.5999755859375</AltitudeMeters>
            <DistanceMeters>64456.478671747</DistanceMeters>
          </Trackpoint>
          <Trackpoint>
            <Time>2018-08-26T08:11:00.000Z</Time>
            <Position>
              <LatitudeDegrees>43.0011828057467937469482421875</LatitudeDegrees>
              <LongitudeDegrees>-1.7422918975353240966796875</LongitudeDegrees>
            </Position>
            <AltitudeMeters>573.79998779296875</AltitudeMeters>
            <DistanceMeters>64462.892095029</DistanceMeters>
          </Trackpoint>
          <Trackpoint>
            <Time>2018-08-26T08:11:01.000Z</Time>
            <Position>
              <LatitudeDegrees>43.00117299892008304595947265625</LatitudeDegrees>
              <LongitudeDegrees>-1.74221285618841648101806640625</LongitudeDegrees>
            </Position>
            <AltitudeMeters>574</AltitudeMeters>
            <DistanceMeters>64469.41787778</DistanceMeters>
          </Trackpoint>
          <Trackpoint>
            <Time>2018-08-26T08:11:02.000Z</Time>
            <Position>
              <LatitudeDegrees>43.00116662867367267608642578125</LatitudeDegrees>
              <LongitudeDegrees>-1.74213272519409656524658203125</LongitudeDegrees>
            </Position>
            <AltitudeMeters>574.20001220703125</AltitudeMeters>
            <DistanceMeters>64475.979539497</DistanceMeters>
          </Trackpoint>
          <Trackpoint>
            <Time>2018-08-26T08:11:03.000Z</Time>
            <Position>
              <LatitudeDegrees>43.00116025842726230621337890625</LatitudeDegrees>
              <LongitudeDegrees>-1.74204991199076175689697265625</LongitudeDegrees>
            </Position>
            <AltitudeMeters>574.4000244140625</AltitudeMeters>
            <DistanceMeters>64482.757815749</DistanceMeters>
          </Trackpoint>
          <Trackpoint>
            <Time>2018-08-26T08:11:04.000Z</Time>
            <Position>
              <LatitudeDegrees>43.00115304999053478240966796875</LatitudeDegrees>
              <LongitudeDegrees>-1.7419646680355072021484375</LongitudeDegrees>
            </Position>
            <AltitudeMeters>574.5999755859375</AltitudeMeters>
            <DistanceMeters>64489.742764068</DistanceMeters>
          </Trackpoint>
          <Trackpoint>
            <Time>2018-08-26T08:11:05.000Z</Time>
            <Position>
              <LatitudeDegrees>43.00114735029637813568115234375</LatitudeDegrees>
              <LongitudeDegrees>-1.7418786697089672088623046875</LongitudeDegrees>
            </Position>
            <AltitudeMeters>575</AltitudeMeters>
            <DistanceMeters>64496.771529836</DistanceMeters>
          </Trackpoint>
          <Trackpoint>
            <Time>2018-08-26T08:11:06.000Z</Time>
            <Position>
              <LatitudeDegrees>43.0011440813541412353515625</LatitudeDegrees>
              <LongitudeDegrees>-1.74179107882082462310791015625</LongitudeDegrees>
            </Position>
            <AltitudeMeters>575.4000244140625</AltitudeMeters>
            <DistanceMeters>64503.909927512</DistanceMeters>
          </Trackpoint>
          <Trackpoint>
            <Time>2018-08-26T08:11:07.000Z</Time>
            <Position>
              <LatitudeDegrees>43.0011392198503017425537109375</LatitudeDegrees>
              <LongitudeDegrees>-1.74170072190463542938232421875</LongitudeDegrees>
            </Position>
            <AltitudeMeters>575.79998779296875</AltitudeMeters>
            <DistanceMeters>64511.284759742</DistanceMeters>
          </Trackpoint>
          <Trackpoint>
            <Time>2018-08-26T08:11:08.000Z</Time>
            <Position>
              <LatitudeDegrees>43.0011335201561450958251953125</LatitudeDegrees>
              <LongitudeDegrees>-1.741609275341033935546875</LongitudeDegrees>
            </Position>
            <AltitudeMeters>576.20001220703125</AltitudeMeters>
            <DistanceMeters>64518.755696932</DistanceMeters>
          </Trackpoint>
          <Trackpoint>
            <Time>2018-08-26T08:11:09.000Z</Time>
            <Position>
              <LatitudeDegrees>43.00112891010940074920654296875</LatitudeDegrees>
              <LongitudeDegrees>-1.74151514656841754913330078125</LongitudeDegrees>
            </Position>
            <AltitudeMeters>576.4000244140625</AltitudeMeters>
            <DistanceMeters>64526.435243094</DistanceMeters>
          </Trackpoint>
          <Trackpoint>
            <Time>2018-08-26T08:11:10.000Z</Time>
            <Position>
              <LatitudeDegrees>43.001123629510402679443359375</LatitudeDegrees>
              <LongitudeDegrees>-1.7414223589003086090087890625</LongitudeDegrees>
            </Position>
            <AltitudeMeters>576.79998779296875</AltitudeMeters>
            <DistanceMeters>64534.010010795</DistanceMeters>
          </Trackpoint>
          <Trackpoint>
            <Time>2018-08-26T08:11:11.000Z</Time>
            <Position>
              <LatitudeDegrees>43.00111927092075347900390625</LatitudeDegrees>
              <LongitudeDegrees>-1.7413304932415485382080078125</LongitudeDegrees>
            </Position>
            <AltitudeMeters>577.20001220703125</AltitudeMeters>
            <DistanceMeters>64541.503877982</DistanceMeters>
          </Trackpoint>
          <Trackpoint>
            <Time>2018-08-26T08:11:12.000Z</Time>
            <Position>
              <LatitudeDegrees>43.00111499615013599395751953125</LatitudeDegrees>
              <LongitudeDegrees>-1.74123980104923248291015625</LongitudeDegrees>
            </Position>
            <AltitudeMeters>577.4000244140625</AltitudeMeters>
            <DistanceMeters>64548.901327762</DistanceMeters>
          </Trackpoint>
          <Trackpoint>
            <Time>2018-08-26T08:11:13.000Z</Time>
            <Position>
              <LatitudeDegrees>43.00111013464629650115966796875</LatitudeDegrees>
              <LongitudeDegrees>-1.7411507852375507354736328125</LongitudeDegrees>
            </Position>
            <AltitudeMeters>577.5999755859375</AltitudeMeters>
            <DistanceMeters>64556.167609959</DistanceMeters>
          </Trackpoint>
          <Trackpoint>
            <Time>2018-08-26T08:11:14.000Z</Time>
            <Position>
              <LatitudeDegrees>43.001106865704059600830078125</LatitudeDegrees>
              <LongitudeDegrees>-1.741062439978122711181640625</LongitudeDegrees>
            </Position>
            <AltitudeMeters>577.79998779296875</AltitudeMeters>
            <DistanceMeters>64563.367725851</DistanceMeters>
          </Trackpoint>
          <Trackpoint>
            <Time>2018-08-26T08:11:15.000Z</Time>
            <Position>
              <LatitudeDegrees>43.001102507114410400390625</LatitudeDegrees>
              <LongitudeDegrees>-1.7409747652709484100341796875</LongitudeDegrees>
            </Position>
            <AltitudeMeters>577.79998779296875</AltitudeMeters>
            <DistanceMeters>64570.520656239</DistanceMeters>
          </Trackpoint>
          <Trackpoint>
            <Time>2018-08-26T08:11:16.000Z</Time>
            <Position>
              <LatitudeDegrees>43.00109756179153919219970703125</LatitudeDegrees>
              <LongitudeDegrees>-1.74088700674474239349365234375</LongitudeDegrees>
            </Position>
            <AltitudeMeters>578</AltitudeMeters>
            <DistanceMeters>64577.684939491</DistanceMeters>
          </Trackpoint>
          <Trackpoint>
            <Time>2018-08-26T08:11:17.000Z</Time>
            <Position>
              <LatitudeDegrees>43.00109286792576313018798828125</LatitudeDegrees>
              <LongitudeDegrees>-1.74079949967563152313232421875</LongitudeDegrees>
            </Position>
            <AltitudeMeters>578.20001220703125</AltitudeMeters>
            <DistanceMeters>64584.827131159</DistanceMeters>
          </Trackpoint>
          <Trackpoint>
            <Time>2018-08-26T08:11:18.000Z</Time>
            <Position>
              <LatitudeDegrees>43.001089431345462799072265625</LatitudeDegrees>
              <LongitudeDegrees>-1.740712411701679229736328125</LongitudeDegrees>
            </Position>
            <AltitudeMeters>578.4000244140625</AltitudeMeters>
            <DistanceMeters>64591.926841485</DistanceMeters>
          </Trackpoint>
          <Trackpoint>
            <Time>2018-08-26T08:11:19.000Z</Time>
            <Position>
              <LatitudeDegrees>43.00108582712709903717041015625</LatitudeDegrees>
              <LongitudeDegrees>-1.74062515608966350555419921875</LongitudeDegrees>
            </Position>
            <AltitudeMeters>578.4000244140625</AltitudeMeters>
            <DistanceMeters>64599.040528883</DistanceMeters>
          </Trackpoint>
          <Trackpoint>
            <Time>2018-08-26T08:11:20.000Z</Time>
            <Position>
              <LatitudeDegrees>43.0010822229087352752685546875</LatitudeDegrees>
              <LongitudeDegrees>-1.740537397563457489013671875</LongitudeDegrees>
            </Position>
            <AltitudeMeters>578.5999755859375</AltitudeMeters>
            <DistanceMeters>64606.194721589</DistanceMeters>
          </Trackpoint>
          <Trackpoint>
            <Time>2018-08-26T08:11:21.000Z</Time>
            <Position>
              <LatitudeDegrees>43.0010781995952129364013671875</LatitudeDegrees>
              <LongitudeDegrees>-1.74045014195144176483154296875</LongitudeDegrees>
            </Position>
            <AltitudeMeters>578.5999755859375</AltitudeMeters>
            <DistanceMeters>64613.312216152</DistanceMeters>
          </Trackpoint>
          <Trackpoint>
            <Time>2018-08-26T08:11:22.000Z</Time>
            <Position>
              <LatitudeDegrees>43.00107459537684917449951171875</LatitudeDegrees>
              <LongitudeDegrees>-1.74036179669201374053955078125</LongitudeDegrees>
            </Position>
            <AltitudeMeters>578.79998779296875</AltitudeMeters>
            <DistanceMeters>64620.515466755</DistanceMeters>
          </Trackpoint>
          <Trackpoint>
            <Time>2018-08-26T08:11:23.000Z</Time>
            <Position>
              <LatitudeDegrees>43.00107124261558055877685546875</LatitudeDegrees>
              <LongitudeDegrees>-1.7402723617851734161376953125</LongitudeDegrees>
            </Position>
            <AltitudeMeters>579</AltitudeMeters>
            <DistanceMeters>64627.804703326</DistanceMeters>
          </Trackpoint>
          <Trackpoint>
            <Time>2018-08-26T08:11:24.000Z</Time>
            <Position>
              <LatitudeDegrees>43.0010674707591533660888671875</LatitudeDegrees>
              <LongitudeDegrees>-1.740182340145111083984375</LongitudeDegrees>
            </Position>
            <AltitudeMeters>579.20001220703125</AltitudeMeters>
            <DistanceMeters>64635.144555918</DistanceMeters>
          </Trackpoint>
          <Trackpoint>
            <Time>2018-08-26T08:11:25.000Z</Time>
            <Position>
              <LatitudeDegrees>43.00106353126466274261474609375</LatitudeDegrees>
              <LongitudeDegrees>-1.740091145038604736328125</LongitudeDegrees>
            </Position>
            <AltitudeMeters>579.4000244140625</AltitudeMeters>
            <DistanceMeters>64642.580965545</DistanceMeters>
          </Trackpoint>
          <Trackpoint>
            <Time>2018-08-26T08:11:26.000Z</Time>
            <Position>
              <LatitudeDegrees>43.00105917267501354217529296875</LatitudeDegrees>
              <LongitudeDegrees>-1.74000020138919353485107421875</LongitudeDegrees>
            </Position>
            <AltitudeMeters>579.5999755859375</AltitudeMeters>
            <DistanceMeters>64649.999746842</DistanceMeters>
          </Trackpoint>
          <Trackpoint>
            <Time>2018-08-26T08:11:27.000Z</Time>
            <Position>
              <LatitudeDegrees>43.00105548463761806488037109375</LatitudeDegrees>
              <LongitudeDegrees>-1.73990934155881404876708984375</LongitudeDegrees>
            </Position>
            <AltitudeMeters>579.79998779296875</AltitudeMeters>
            <DistanceMeters>64657.406955795</DistanceMeters>
          </Trackpoint>
          <Trackpoint>
            <Time>2018-08-26T08:11:28.000Z</Time>
            <Position>
              <LatitudeDegrees>43.00105196423828601837158203125</LatitudeDegrees>
              <LongitudeDegrees>-1.739819236099720001220703125</LongitudeDegrees>
            </Position>
            <AltitudeMeters>579.79998779296875</AltitudeMeters>
            <DistanceMeters>64664.751727859</DistanceMeters>
          </Trackpoint>
          <Trackpoint>
            <Time>2018-08-26T08:11:29.000Z</Time>
            <Position>
              <LatitudeDegrees>43.00104743801057338714599609375</LatitudeDegrees>
              <LongitudeDegrees>-1.73972913064062595367431640625</LongitudeDegrees>
            </Position>
            <AltitudeMeters>580</AltitudeMeters>
            <DistanceMeters>64672.103258823</DistanceMeters>
          </Trackpoint>
          <Trackpoint>
            <Time>2018-08-26T08:11:30.000Z</Time>
            <Position>
              <LatitudeDegrees>43.0010433308780193328857421875</LatitudeDegrees>
              <LongitudeDegrees>-1.739639528095722198486328125</LongitudeDegrees>
            </Position>
            <AltitudeMeters>580.20001220703125</AltitudeMeters>
            <DistanceMeters>64679.411054119</DistanceMeters>
          </Trackpoint>
          <Trackpoint>
            <Time>2018-08-26T08:11:31.000Z</Time>
            <Position>
              <LatitudeDegrees>43.0010393075644969940185546875</LatitudeDegrees>
              <LongitudeDegrees>-1.73954992555081844329833984375</LongitudeDegrees>
            </Position>
            <AltitudeMeters>580.4000244140625</AltitudeMeters>
            <DistanceMeters>64686.71823155</DistanceMeters>
          </Trackpoint>
          <Trackpoint>
            <Time>2018-08-26T08:11:32.000Z</Time>
            <Position>
              <LatitudeDegrees>43.0010352842509746551513671875</LatitudeDegrees>
              <LongitudeDegrees>-1.73946107737720012664794921875</LongitudeDegrees>
            </Position>
            <AltitudeMeters>580.5999755859375</AltitudeMeters>
            <DistanceMeters>64693.964602678</DistanceMeters>
          </Trackpoint>
          <Trackpoint>
            <Time>2018-08-26T08:11:33.000Z</Time>
            <Position>
              <LatitudeDegrees>43.0010315962135791778564453125</LatitudeDegrees>
              <LongitudeDegrees>-1.73937273211777210235595703125</LongitudeDegrees>
            </Position>
            <AltitudeMeters>580.79998779296875</AltitudeMeters>
            <DistanceMeters>64701.167853281</DistanceMeters>
          </Trackpoint>
          <Trackpoint>
            <Time>2018-08-26T08:11:34.000Z</Time>
            <Position>
              <LatitudeDegrees>43.00102883018553256988525390625</LatitudeDegrees>
              <LongitudeDegrees>-1.73928304575383663177490234375</LongitudeDegrees>
            </Position>
            <AltitudeMeters>581</AltitudeMeters>
            <DistanceMeters>64708.474412795</DistanceMeters>
          </Trackpoint>
          <Trackpoint>
            <Time>2018-08-26T08:11:35.000Z</Time>
            <Position>
              <LatitudeDegrees>43.00102715380489826202392578125</LatitudeDegrees>
              <LongitudeDegrees>-1.7391931079328060150146484375</LongitudeDegrees>
            </Position>
            <AltitudeMeters>581.20001220703125</AltitudeMeters>
            <DistanceMeters>64715.797021205</DistanceMeters>
          </Trackpoint>
          <Trackpoint>
            <Time>2018-08-26T08:11:36.000Z</Time>
            <Position>
              <LatitudeDegrees>43.001027405261993408203125</LatitudeDegrees>
              <LongitudeDegrees>-1.7391022481024265289306640625</LongitudeDegrees>
            </Position>
            <AltitudeMeters>581.4000244140625</AltitudeMeters>
            <DistanceMeters>64723.193250183</DistanceMeters>
          </Trackpoint>
          <Trackpoint>
            <Time>2018-08-26T08:11:37.000Z</Time>
            <Position>
              <LatitudeDegrees>43.00103033892810344696044921875</LatitudeDegrees>
              <LongitudeDegrees>-1.739011891186237335205078125</LongitudeDegrees>
            </Position>
            <AltitudeMeters>581.79998779296875</AltitudeMeters>
            <DistanceMeters>64730.555214515</DistanceMeters>
          </Trackpoint>
          <Trackpoint>
            <Time>2018-08-26T08:11:38.000Z</Time>
            <Position>
              <LatitudeDegrees>43.00103788264095783233642578125</LatitudeDegrees>
              <LongitudeDegrees>-1.73892103135585784912109375</LongitudeDegrees>
            </Position>
            <AltitudeMeters>582</AltitudeMeters>
            <DistanceMeters>64737.998906412</DistanceMeters>
          </Trackpoint>
          <Trackpoint>
            <Time>2018-08-26T08:11:39.000Z</Time>
            <Position>
              <LatitudeDegrees>43.00105162896215915679931640625</LatitudeDegrees>
              <LongitudeDegrees>-1.7388318479061126708984375</LongitudeDegrees>
            </Position>
            <AltitudeMeters>582.20001220703125</AltitudeMeters>
            <DistanceMeters>64745.418296279</DistanceMeters>
          </Trackpoint>
          <Trackpoint>
            <Time>2018-08-26T08:11:40.000Z</Time>
            <Position>
              <LatitudeDegrees>43.00107141025364398956298828125</LatitudeDegrees>
              <LongitudeDegrees>-1.7387441731989383697509765625</LongitudeDegrees>
            </Position>
            <AltitudeMeters>582.4000244140625</AltitudeMeters>
            <DistanceMeters>64752.886211123</DistanceMeters>
          </Trackpoint>
          <Trackpoint>
            <Time>2018-08-26T08:11:41.000Z</Time>
            <Position>
              <LatitudeDegrees>43.0010966397821903228759765625</LatitudeDegrees>
              <LongitudeDegrees>-1.73865892924368381500244140625</LongitudeDegrees>
            </Position>
            <AltitudeMeters>582.5999755859375</AltitudeMeters>
            <DistanceMeters>64760.372241741</DistanceMeters>
          </Trackpoint>
          <Trackpoint>
            <Time>2018-08-26T08:11:42.000Z</Time>
            <Position>
              <LatitudeDegrees>43.0011278204619884490966796875</LatitudeDegrees>
              <LongitudeDegrees>-1.7385788820683956146240234375</LongitudeDegrees>
            </Position>
            <AltitudeMeters>582.79998779296875</AltitudeMeters>
            <DistanceMeters>64767.753805347</DistanceMeters>
          </Trackpoint>
          <Trackpoint>
            <Time>2018-08-26T08:11:43.000Z</Time>
            <Position>
              <LatitudeDegrees>43.0011653713881969451904296875</LatitudeDegrees>
              <LongitudeDegrees>-1.73850386403501033782958984375</LongitudeDegrees>
            </Position>
            <AltitudeMeters>583</AltitudeMeters>
            <DistanceMeters>64775.153696127</DistanceMeters>
          </Trackpoint>
          <Trackpoint>
            <Time>2018-08-26T08:11:44.000Z</Time>
            <Position>
              <LatitudeDegrees>43.00120769999921321868896484375</LatitudeDegrees>
              <LongitudeDegrees>-1.73843379132449626922607421875</LongitudeDegrees>
            </Position>
            <AltitudeMeters>583</AltitudeMeters>
            <DistanceMeters>64782.551756232</DistanceMeters>
          </Trackpoint>
          <Trackpoint>
            <Time>2018-08-26T08:11:45.000Z</Time>
            <Position>
              <LatitudeDegrees>43.0012542195618152618408203125</LatitudeDegrees>
              <LongitudeDegrees>-1.73836807720363140106201171875</LongitudeDegrees>
            </Position>
            <AltitudeMeters>583.20001220703125</AltitudeMeters>
            <DistanceMeters>64789.99544813</DistanceMeters>
          </Trackpoint>
          <Trackpoint>
            <Time>2018-08-26T08:11:46.000Z</Time>
            <Position>
              <LatitudeDegrees>43.00130643881857395172119140625</LatitudeDegrees>
              <LongitudeDegrees>-1.7383036203682422637939453125</LongitudeDegrees>
            </Position>
            <AltitudeMeters>583.4000244140625</AltitudeMeters>
            <DistanceMeters>64797.825787781</DistanceMeters>
          </Trackpoint>
          <Trackpoint>
            <Time>2018-08-26T08:11:47.000Z</Time>
            <Position>
              <LatitudeDegrees>43.00136242993175983428955078125</LatitudeDegrees>
              <LongitudeDegrees>-1.7382395826280117034912109375</LongitudeDegrees>
            </Position>
            <AltitudeMeters>583.4000244140625</AltitudeMeters>
            <DistanceMeters>64805.95043293</DistanceMeters>
          </Trackpoint>
          <Trackpoint>
            <Time>2018-08-26T08:11:48.000Z</Time>
            <Position>
              <LatitudeDegrees>43.00141833722591400146484375</LatitudeDegrees>
              <LongitudeDegrees>-1.738175712525844573974609375</LongitudeDegrees>
            </Position>
            <AltitudeMeters>583.4000244140625</AltitudeMeters>
            <DistanceMeters>64814.058389301</DistanceMeters>
          </Trackpoint>
          <Trackpoint>
            <Time>2018-08-26T08:11:49.000Z</Time>
            <Position>
              <LatitudeDegrees>43.00147457979619503021240234375</LatitudeDegrees>
              <LongitudeDegrees>-1.7381103336811065673828125</LongitudeDegrees>
            </Position>
            <AltitudeMeters>583.4000244140625</AltitudeMeters>
            <DistanceMeters>64822.274766331</DistanceMeters>
          </Trackpoint>
          <Trackpoint>
            <Time>2018-08-26T08:11:50.000Z</Time>
            <Position>
              <LatitudeDegrees>43.00153157673776149749755859375</LatitudeDegrees>
              <LongitudeDegrees>-1.73804461956024169921875</LongitudeDegrees>
            </Position>
            <AltitudeMeters>583.5999755859375</AltitudeMeters>
            <DistanceMeters>64830.573161535</DistanceMeters>
          </Trackpoint>
          <Trackpoint>
            <Time>2018-08-26T08:11:51.000Z</Time>
            <Position>
              <LatitudeDegrees>43.00158957950770854949951171875</LatitudeDegrees>
              <LongitudeDegrees>-1.737977899610996246337890625</LongitudeDegrees>
            </Position>
            <AltitudeMeters>583.5999755859375</AltitudeMeters>
            <DistanceMeters>64839.010228123</DistanceMeters>
          </Trackpoint>
          <Trackpoint>
            <Time>2018-08-26T08:11:52.000Z</Time>
            <Position>
              <LatitudeDegrees>43.0016464926302433013916015625</LatitudeDegrees>
              <LongitudeDegrees>-1.7379123531281948089599609375</LongitudeDegrees>
            </Position>
            <AltitudeMeters>583.5999755859375</AltitudeMeters>
            <DistanceMeters>64847.292284671</DistanceMeters>
          </Trackpoint>
          <Trackpoint>
            <Time>2018-08-26T08:11:53.000Z</Time>
            <Position>
              <LatitudeDegrees>43.001704327762126922607421875</LatitudeDegrees>
              <LongitudeDegrees>-1.73784571699798107147216796875</LongitudeDegrees>
            </Position>
            <AltitudeMeters>583.5999755859375</AltitudeMeters>
            <DistanceMeters>64855.709527674</DistanceMeters>
          </Trackpoint>
          <Trackpoint>
            <Time>2018-08-26T08:11:54.000Z</Time>
            <Position>
              <LatitudeDegrees>43.00176207907497882843017578125</LatitudeDegrees>
              <LongitudeDegrees>-1.73778017051517963409423828125</LongitudeDegrees>
            </Position>
            <AltitudeMeters>583.5999755859375</AltitudeMeters>
            <DistanceMeters>64864.062694779</DistanceMeters>
          </Trackpoint>
          <Trackpoint>
            <Time>2018-08-26T08:11:55.000Z</Time>
            <Position>
              <LatitudeDegrees>43.0018205009400844573974609375</LatitudeDegrees>
              <LongitudeDegrees>-1.73771479167044162750244140625</LongitudeDegrees>
            </Position>
            <AltitudeMeters>583.5999755859375</AltitudeMeters>
            <DistanceMeters>64872.464905062</DistanceMeters>
          </Trackpoint>
          <Trackpoint>
            <Time>2018-08-26T08:11:56.000Z</Time>
            <Position>
              <LatitudeDegrees>43.00187841989099979400634765625</LatitudeDegrees>
              <LongitudeDegrees>-1.7376498319208621978759765625</LongitudeDegrees>
            </Position>
            <AltitudeMeters>583.5999755859375</AltitudeMeters>
            <DistanceMeters>64880.802382407</DistanceMeters>
          </Trackpoint>
          <Trackpoint>
            <Time>2018-08-26T08:11:57.000Z</Time>
            <Position>
              <LatitudeDegrees>43.0019361712038516998291015625</LatitudeDegrees>
              <LongitudeDegrees>-1.73758453689515590667724609375</LongitudeDegrees>
            </Position>
            <AltitudeMeters>583.20001220703125</AltitudeMeters>
            <DistanceMeters>64889.14310833</DistanceMeters>
          </Trackpoint>
          <Trackpoint>
            <Time>2018-08-26T08:11:58.000Z</Time>
            <Position>
              <LatitudeDegrees>43.00199258141219615936279296875</LatitudeDegrees>
              <LongitudeDegrees>-1.73751957714557647705078125</LongitudeDegrees>
            </Position>
            <AltitudeMeters>583.20001220703125</AltitudeMeters>
            <DistanceMeters>64897.351788517</DistanceMeters>
          </Trackpoint>
          <Trackpoint>
            <Time>2018-08-26T08:11:59.000Z</Time>
            <Position>
              <LatitudeDegrees>43.00204890780150890350341796875</LatitudeDegrees>
              <LongitudeDegrees>-1.73745495267212390899658203125</LongitudeDegrees>
            </Position>
            <AltitudeMeters>583</AltitudeMeters>
            <DistanceMeters>64905.535128111</DistanceMeters>
          </Trackpoint>
          <Trackpoint>
            <Time>2018-08-26T08:12:00.000Z</Time>
            <Position>
              <LatitudeDegrees>43.00210422836244106292724609375</LatitudeDegrees>
              <LongitudeDegrees>-1.737390495836734771728515625</LongitudeDegrees>
            </Position>
            <AltitudeMeters>583</AltitudeMeters>
            <DistanceMeters>64913.625245173</DistanceMeters>
          </Trackpoint>
          <Trackpoint>
            <Time>2018-08-26T08:12:01.000Z</Time>
            <Position>
              <LatitudeDegrees>43.0021577887237071990966796875</LatitudeDegrees>
              <LongitudeDegrees>-1.7373276315629482269287109375</LongitudeDegrees>
            </Position>
            <AltitudeMeters>582.79998779296875</AltitudeMeters>
            <DistanceMeters>64921.482064031</DistanceMeters>
          </Trackpoint>
          <Trackpoint>
            <Time>2018-08-26T08:12:02.000Z</Time>
            <Position>
              <LatitudeDegrees>43.00221134908497333526611328125</LatitudeDegrees>
              <LongitudeDegrees>-1.737264432013034820556640625</LongitudeDegrees>
            </Position>
            <AltitudeMeters>582.79998779296875</AltitudeMeters>
            <DistanceMeters>64929.357250696</DistanceMeters>
          </Trackpoint>
          <Trackpoint>
            <Time>2018-08-26T08:12:03.000Z</Time>
            <Position>
              <LatitudeDegrees>43.00226381979882717132568359375</LatitudeDegrees>
              <LongitudeDegrees>-1.7372019030153751373291015625</LongitudeDegrees>
            </Position>
            <AltitudeMeters>582.79998779296875</AltitudeMeters>
            <DistanceMeters>64937.104113806</DistanceMeters>
          </Trackpoint>
          <Trackpoint>
            <Time>2018-08-26T08:12:04.000Z</Time>
            <Position>
              <LatitudeDegrees>43.0023167096078395843505859375</LatitudeDegrees>
              <LongitudeDegrees>-1.7371385358273983001708984375</LongitudeDegrees>
            </Position>
            <AltitudeMeters>582.79998779296875</AltitudeMeters>
            <DistanceMeters>64944.930993044</DistanceMeters>
          </Trackpoint>
          <Trackpoint>
            <Time>2018-08-26T08:12:05.000Z</Time>
            <Position>
              <LatitudeDegrees>43.002368174493312835693359375</LatitudeDegrees>
              <LongitudeDegrees>-1.73707659356296062469482421875</LongitudeDegrees>
            </Position>
            <AltitudeMeters>582.79998779296875</AltitudeMeters>
            <DistanceMeters>64952.561584955</DistanceMeters>
          </Trackpoint>
          <Trackpoint>
            <Time>2018-08-26T08:12:06.000Z</Time>
            <Position>
              <LatitudeDegrees>43.0024199746549129486083984375</LatitudeDegrees>
              <LongitudeDegrees>-1.73701389692723751068115234375</LongitudeDegrees>
            </Position>
            <AltitudeMeters>582.79998779296875</AltitudeMeters>
            <DistanceMeters>64960.261681183</DistanceMeters>
          </Trackpoint>
          <Trackpoint>
            <Time>2018-08-26T08:12:07.000Z</Time>
            <Position>
              <LatitudeDegrees>43.0024719424545764923095703125</LatitudeDegrees>
              <LongitudeDegrees>-1.73695052973926067352294921875</LongitudeDegrees>
            </Position>
            <AltitudeMeters>582.79998779296875</AltitudeMeters>
            <DistanceMeters>64968.011457853</DistanceMeters>
          </Trackpoint>
          <Trackpoint>
            <Time>2018-08-26T08:12:08.000Z</Time>
            <Position>
              <LatitudeDegrees>43.00252474844455718994140625</LatitudeDegrees>
              <LongitudeDegrees>-1.73688590526580810546875</LongitudeDegrees>
            </Position>
            <AltitudeMeters>582.79998779296875</AltitudeMeters>
            <DistanceMeters>64975.899247575</DistanceMeters>
          </Trackpoint>
          <Trackpoint>
            <Time>2018-08-26T08:12:09.000Z</Time>
            <Position>
              <LatitudeDegrees>43.00257763825356960296630859375</LatitudeDegrees>
              <LongitudeDegrees>-1.736821867525577545166015625</LongitudeDegrees>
            </Position>
            <AltitudeMeters>582.79998779296875</AltitudeMeters>
            <DistanceMeters>64983.761810982</DistanceMeters>
          </Trackpoint>
          <Trackpoint>
            <Time>2018-08-26T08:12:10.000Z</Time>
            <Position>
              <LatitudeDegrees>43.00263329409062862396240234375</LatitudeDegrees>
              <LongitudeDegrees>-1.73675556667149066925048828125</LongitudeDegrees>
            </Position>
            <AltitudeMeters>582.79998779296875</AltitudeMeters>
            <DistanceMeters>64991.977088905</DistanceMeters>
          </Trackpoint>
          <Trackpoint>
            <Time>2018-08-26T08:12:11.000Z</Time>
            <Position>
              <LatitudeDegrees>43.00268894992768764495849609375</LatitudeDegrees>
              <LongitudeDegrees>-1.73668700270354747772216796875</LongitudeDegrees>
            </Position>
            <AltitudeMeters>582.79998779296875</AltitudeMeters>
            <DistanceMeters>65000.314566249</DistanceMeters>
          </Trackpoint>
          <Trackpoint>
            <Time>2018-08-26T08:12:12.000Z</Time>
            <Position>
              <LatitudeDegrees>43.00274393521249294281005859375</LatitudeDegrees>
              <LongitudeDegrees>-1.736613996326923370361328125</LongitudeDegrees>
            </Position>
            <AltitudeMeters>582.79998779296875</AltitudeMeters>
            <DistanceMeters>65008.844768825</DistanceMeters>
          </Trackpoint>
          <Trackpoint>
            <Time>2018-08-26T08:12:13.000Z</Time>
            <Position>
              <LatitudeDegrees>43.0027964897453784942626953125</LatitudeDegrees>
              <LongitudeDegrees>-1.73653646372258663177490234375</LongitudeDegrees>
            </Position>
            <AltitudeMeters>583</AltitudeMeters>
            <DistanceMeters>65017.449803795</DistanceMeters>
          </Trackpoint>
          <Trackpoint>
            <Time>2018-08-26T08:12:14.000Z</Time>
            <Position>
              <LatitudeDegrees>43.0028447695076465606689453125</LatitudeDegrees>
              <LongitudeDegrees>-1.73645339906215667724609375</LongitudeDegrees>
            </Position>
            <AltitudeMeters>583</AltitudeMeters>
            <DistanceMeters>65026.086263222</DistanceMeters>
          </Trackpoint>
          <Trackpoint>
            <Time>2018-08-26T08:12:15.000Z</Time>
            <Position>
              <LatitudeDegrees>43.00288910977542400360107421875</LatitudeDegrees>
              <LongitudeDegrees>-1.73636212013661861419677734375</LongitudeDegrees>
            </Position>
            <AltitudeMeters>583</AltitudeMeters>
            <DistanceMeters>65035.005116477</DistanceMeters>
          </Trackpoint>
          <Trackpoint>
            <Time>2018-08-26T08:12:16.000Z</Time>
            <Position>
              <LatitudeDegrees>43.00292498432099819183349609375</LatitudeDegrees>
              <LongitudeDegrees>-1.7362649738788604736328125</LongitudeDegrees>
            </Position>
            <AltitudeMeters>583</AltitudeMeters>
            <DistanceMeters>65043.862503459</DistanceMeters>
          </Trackpoint>
          <Trackpoint>
            <Time>2018-08-26T08:12:17.000Z</Time>
            <Position>
              <LatitudeDegrees>43.00295331515371799468994140625</LatitudeDegrees>
              <LongitudeDegrees>-1.73616229556500911712646484375</LongitudeDegrees>
            </Position>
            <AltitudeMeters>583</AltitudeMeters>
            <DistanceMeters>65052.79501461</DistanceMeters>
          </Trackpoint>
          <Trackpoint>
            <Time>2018-08-26T08:12:18.000Z</Time>
            <Position>
              <LatitudeDegrees>43.00297326408326625823974609375</LatitudeDegrees>
              <LongitudeDegrees>-1.736055426299571990966796875</LongitudeDegrees>
            </Position>
            <AltitudeMeters>583</AltitudeMeters>
            <DistanceMeters>65061.772902019</DistanceMeters>
          </Trackpoint>
          <Trackpoint>
            <Time>2018-08-26T08:12:19.000Z</Time>
            <Position>
              <LatitudeDegrees>43.0029855854809284210205078125</LatitudeDegrees>
              <LongitudeDegrees>-1.7359459586441516876220703125</LongitudeDegrees>
            </Position>
            <AltitudeMeters>583</AltitudeMeters>
            <DistanceMeters>65070.787927699</DistanceMeters>
          </Trackpoint>
          <Trackpoint>
            <Time>2018-08-26T08:12:20.000Z</Time>
            <Position>
              <LatitudeDegrees>43.00299321301281452178955078125</LatitudeDegrees>
              <LongitudeDegrees>-1.73583447933197021484375</LongitudeDegrees>
            </Position>
            <AltitudeMeters>582.79998779296875</AltitudeMeters>
            <DistanceMeters>65079.902074571</DistanceMeters>
          </Trackpoint>
          <Trackpoint>
            <Time>2018-08-26T08:12:21.000Z</Time>
            <Position>
              <LatitudeDegrees>43.0029976554214954376220703125</LatitudeDegrees>
              <LongitudeDegrees>-1.73572291620075702667236328125</LongitudeDegrees>
            </Position>
            <AltitudeMeters>582.79998779296875</AltitudeMeters>
            <DistanceMeters>65088.996880793</DistanceMeters>
          </Trackpoint>
          <Trackpoint>
            <Time>2018-08-26T08:12:22.000Z</Time>
            <Position>
              <LatitudeDegrees>43.00300042144954204559326171875</LatitudeDegrees>
              <LongitudeDegrees>-1.73561244271695613861083984375</LongitudeDegrees>
            </Position>
            <AltitudeMeters>582.5999755859375</AltitudeMeters>
            <DistanceMeters>65097.994861978</DistanceMeters>
          </Trackpoint>
          <Trackpoint>
            <Time>2018-08-26T08:12:23.000Z</Time>
            <Position>
              <LatitudeDegrees>43.00300276838243007659912109375</LatitudeDegrees>
              <LongitudeDegrees>-1.735500879585742950439453125</LongitudeDegrees>
            </Position>
            <AltitudeMeters>582.4000244140625</AltitudeMeters>
            <DistanceMeters>65107.079236949</DistanceMeters>
          </Trackpoint>
          <Trackpoint>
            <Time>2018-08-26T08:12:24.000Z</Time>
            <Position>
              <LatitudeDegrees>43.0030053667724132537841796875</LatitudeDegrees>
              <LongitudeDegrees>-1.73538613133132457733154296875</LongitudeDegrees>
            </Position>
            <AltitudeMeters>582</AltitudeMeters>
            <DistanceMeters>65116.423315777</DistanceMeters>
          </Trackpoint>
          <Trackpoint>
            <Time>2018-08-26T08:12:25.000Z</Time>
            <Position>
              <LatitudeDegrees>43.0030073784291744232177734375</LatitudeDegrees>
              <LongitudeDegrees>-1.73527046106755733489990234375</LongitudeDegrees>
            </Position>
            <AltitudeMeters>581.5999755859375</AltitudeMeters>
            <DistanceMeters>65125.841992488</DistanceMeters>
          </Trackpoint>
          <Trackpoint>
            <Time>2018-08-26T08:12:26.000Z</Time>
            <Position>
              <LatitudeDegrees>43.0030082166194915771484375</LatitudeDegrees>
              <LongitudeDegrees>-1.73515386879444122314453125</LongitudeDegrees>
            </Position>
            <AltitudeMeters>581.20001220703125</AltitudeMeters>
            <DistanceMeters>65135.332778152</DistanceMeters>
          </Trackpoint>
          <Trackpoint>
            <Time>2018-08-26T08:12:27.000Z</Time>
            <Position>
              <LatitudeDegrees>43.003009222447872161865234375</LatitudeDegrees>
              <LongitudeDegrees>-1.7350356839597225189208984375</LongitudeDegrees>
            </Position>
            <AltitudeMeters>580.79998779296875</AltitudeMeters>
            <DistanceMeters>65144.953499724</DistanceMeters>
          </Trackpoint>
          <Trackpoint>
            <Time>2018-08-26T08:12:28.000Z</Time>
            <Position>
              <LatitudeDegrees>43.00300880335271358489990234375</LatitudeDegrees>
              <LongitudeDegrees>-1.7349156551063060760498046875</LongitudeDegrees>
            </Position>
            <AltitudeMeters>580.4000244140625</AltitudeMeters>
            <DistanceMeters>65154.723706379</DistanceMeters>
          </Trackpoint>
          <Trackpoint>
            <Time>2018-08-26T08:12:29.000Z</Time>
            <Position>
              <LatitudeDegrees>43.003007210791110992431640625</LatitudeDegrees>
              <LongitudeDegrees>-1.73479420132935047149658203125</LongitudeDegrees>
            </Position>
            <AltitudeMeters>580</AltitudeMeters>
            <DistanceMeters>65164.611965464</DistanceMeters>
          </Trackpoint>
          <Trackpoint>
            <Time>2018-08-26T08:12:30.000Z</Time>
            <Position>
              <LatitudeDegrees>43.0030080489814281463623046875</LatitudeDegrees>
              <LongitudeDegrees>-1.734672077000141143798828125</LongitudeDegrees>
            </Position>
            <AltitudeMeters>579.79998779296875</AltitudeMeters>
            <DistanceMeters>65174.553049741</DistanceMeters>
          </Trackpoint>
          <Trackpoint>
            <Time>2018-08-26T08:12:31.000Z</Time>
            <Position>
              <LatitudeDegrees>43.0030144192278385162353515625</LatitudeDegrees>
              <LongitudeDegrees>-1.73454442061483860015869140625</LongitudeDegrees>
            </Position>
            <AltitudeMeters>579.5999755859375</AltitudeMeters>
            <DistanceMeters>65184.968341783</DistanceMeters>
          </Trackpoint>
          <Trackpoint>
            <Time>2018-08-26T08:12:32.000Z</Time>
            <Position>
              <LatitudeDegrees>43.0030140839517116546630859375</LatitudeDegrees>
              <LongitudeDegrees>-1.73441852442920207977294921875</LongitudeDegrees>
            </Position>
            <AltitudeMeters>579.4000244140625</AltitudeMeters>
            <DistanceMeters>65195.21625811</DistanceMeters>
          </Trackpoint>
          <Trackpoint>
            <Time>2018-08-26T08:12:33.000Z</Time>
            <Position>
              <LatitudeDegrees>43.00300964154303073883056640625</LatitudeDegrees>
              <LongitudeDegrees>-1.734289862215518951416015625</LongitudeDegrees>
            </Position>
            <AltitudeMeters>579.4000244140625</AltitudeMeters>
            <DistanceMeters>65205.700250216</DistanceMeters>
          </Trackpoint>
          <Trackpoint>
            <Time>2018-08-26T08:12:34.000Z</Time>
            <Position>
              <LatitudeDegrees>43.00300494767725467681884765625</LatitudeDegrees>
              <LongitudeDegrees>-1.734159775078296661376953125</LongitudeDegrees>
            </Position>
            <AltitudeMeters>579.20001220703125</AltitudeMeters>
            <DistanceMeters>65216.302438272</DistanceMeters>
          </Trackpoint>
          <Trackpoint>
            <Time>2018-08-26T08:12:35.000Z</Time>
            <Position>
              <LatitudeDegrees>43.0030003376305103302001953125</LatitudeDegrees>
              <LongitudeDegrees>-1.73403077758848667144775390625</LongitudeDegrees>
            </Position>
            <AltitudeMeters>579.20001220703125</AltitudeMeters>
            <DistanceMeters>65226.815674485</DistanceMeters>
          </Trackpoint>
          <Trackpoint>
            <Time>2018-08-26T08:12:36.000Z</Time>
            <Position>
              <LatitudeDegrees>43.00299740396440029144287109375</LatitudeDegrees>
              <LongitudeDegrees>-1.7339004389941692352294921875</LongitudeDegrees>
            </Position>
            <AltitudeMeters>579.20001220703125</AltitudeMeters>
            <DistanceMeters>65237.43020527</DistanceMeters>
          </Trackpoint>
          <Trackpoint>
            <Time>2018-08-26T08:12:37.000Z</Time>
            <Position>
              <LatitudeDegrees>43.002996481955051422119140625</LatitudeDegrees>
              <LongitudeDegrees>-1.73376741819083690643310546875</LongitudeDegrees>
            </Position>
            <AltitudeMeters>579</AltitudeMeters>
            <DistanceMeters>65248.258665116</DistanceMeters>
          </Trackpoint>
          <Trackpoint>
            <Time>2018-08-26T08:12:38.000Z</Time>
            <Position>
              <LatitudeDegrees>43.00299438647925853729248046875</LatitudeDegrees>
              <LongitudeDegrees>-1.73363439738750457763671875</LongitudeDegrees>
            </Position>
            <AltitudeMeters>579</AltitudeMeters>
            <DistanceMeters>65259.088792674</DistanceMeters>
          </Trackpoint>
          <Trackpoint>
            <Time>2018-08-26T08:12:39.000Z</Time>
            <Position>
              <LatitudeDegrees>43.00299153663218021392822265625</LatitudeDegrees>
              <LongitudeDegrees>-1.73350120894610881805419921875</LongitudeDegrees>
            </Position>
            <AltitudeMeters>578.79998779296875</AltitudeMeters>
            <DistanceMeters>65269.935166995</DistanceMeters>
          </Trackpoint>
          <Trackpoint>
            <Time>2018-08-26T08:12:40.000Z</Time>
            <Position>
              <LatitudeDegrees>43.00298952497541904449462890625</LatitudeDegrees>
              <LongitudeDegrees>-1.73336626030504703521728515625</LongitudeDegrees>
            </Position>
            <AltitudeMeters>578.5999755859375</AltitudeMeters>
            <DistanceMeters>65280.922162121</DistanceMeters>
          </Trackpoint>
          <Trackpoint>
            <Time>2018-08-26T08:12:41.000Z</Time>
            <Position>
              <LatitudeDegrees>43.002987764775753021240234375</LatitudeDegrees>
              <LongitudeDegrees>-1.733230389654636383056640625</LongitudeDegrees>
            </Position>
            <AltitudeMeters>578.4000244140625</AltitudeMeters>
            <DistanceMeters>65291.983288002</DistanceMeters>
          </Trackpoint>
          <Trackpoint>
            <Time>2018-08-26T08:12:42.000Z</Time>
            <Position>
              <LatitudeDegrees>43.00298566929996013641357421875</LatitudeDegrees>
              <LongitudeDegrees>-1.73309535719454288482666015625</LongitudeDegrees>
            </Position>
            <AltitudeMeters>578.20001220703125</AltitudeMeters>
            <DistanceMeters>65302.976856263</DistanceMeters>
          </Trackpoint>
          <Trackpoint>
            <Time>2018-08-26T08:12:43.000Z</Time>
            <Position>
              <LatitudeDegrees>43.00298466347157955169677734375</LatitudeDegrees>
              <LongitudeDegrees>-1.73296074382960796356201171875</LongitudeDegrees>
            </Position>
            <AltitudeMeters>577.79998779296875</AltitudeMeters>
            <DistanceMeters>65313.934635531</DistanceMeters>
          </Trackpoint>
          <Trackpoint>
            <Time>2018-08-26T08:12:44.000Z</Time>
            <Position>
              <LatitudeDegrees>43.00298583693802356719970703125</LatitudeDegrees>
              <LongitudeDegrees>-1.73282428644597530364990234375</LongitudeDegrees>
            </Position>
            <AltitudeMeters>577.5999755859375</AltitudeMeters>
            <DistanceMeters>65325.042604046</DistanceMeters>
          </Trackpoint>
          <Trackpoint>
            <Time>2018-08-26T08:12:45.000Z</Time>
            <Position>
              <LatitudeDegrees>43.002985753118991851806640625</LatitudeDegrees>
              <LongitudeDegrees>-1.73268984071910381317138671875</LongitudeDegrees>
            </Position>
            <AltitudeMeters>577.20001220703125</AltitudeMeters>
            <DistanceMeters>65335.986777562</DistanceMeters>
          </Trackpoint>
          <Trackpoint>
            <Time>2018-08-26T08:12:46.000Z</Time>
            <Position>
              <LatitudeDegrees>43.00298550166189670562744140625</LatitudeDegrees>
              <LongitudeDegrees>-1.73255489207804203033447265625</LongitudeDegrees>
            </Position>
            <AltitudeMeters>576.79998779296875</AltitudeMeters>
            <DistanceMeters>65346.971717777</DistanceMeters>
          </Trackpoint>
          <Trackpoint>
            <Time>2018-08-26T08:12:47.000Z</Time>
            <Position>
              <LatitudeDegrees>43.0029835738241672515869140625</LatitudeDegrees>
              <LongitudeDegrees>-1.7324198596179485321044921875</LongitudeDegrees>
            </Position>
            <AltitudeMeters>576.20001220703125</AltitudeMeters>
            <DistanceMeters>65357.965286039</DistanceMeters>
          </Trackpoint>
          <Trackpoint>
            <Time>2018-08-26T08:12:48.000Z</Time>
            <Position>
              <LatitudeDegrees>43.00298030488193035125732421875</LatitudeDegrees>
              <LongitudeDegrees>-1.732286252081394195556640625</LongitudeDegrees>
            </Position>
            <AltitudeMeters>575.79998779296875</AltitudeMeters>
            <DistanceMeters>65368.846570996</DistanceMeters>
          </Trackpoint>
          <Trackpoint>
            <Time>2018-08-26T08:12:49.000Z</Time>
            <Position>
              <LatitudeDegrees>43.0029773712158203125</LatitudeDegrees>
              <LongitudeDegrees>-1.73215247690677642822265625</LongitudeDegrees>
            </Position>
            <AltitudeMeters>575.20001220703125</AltitudeMeters>
            <DistanceMeters>65379.740296926</DistanceMeters>
          </Trackpoint>
          <Trackpoint>
            <Time>2018-08-26T08:12:50.000Z</Time>
            <Position>
              <LatitudeDegrees>43.0029738508164882659912109375</LatitudeDegrees>
              <LongitudeDegrees>-1.73201970756053924560546875</LongitudeDegrees>
            </Position>
            <AltitudeMeters>574.79998779296875</AltitudeMeters>
            <DistanceMeters>65390.554570828</DistanceMeters>
          </Trackpoint>
          <Trackpoint>
            <Time>2018-08-26T08:12:51.000Z</Time>
            <Position>
              <LatitudeDegrees>43.00297267735004425048828125</LatitudeDegrees>
              <LongitudeDegrees>-1.73188668675720691680908203125</LongitudeDegrees>
            </Position>
            <AltitudeMeters>574.5999755859375</AltitudeMeters>
            <DistanceMeters>65401.382613705</DistanceMeters>
          </Trackpoint>
          <Trackpoint>
            <Time>2018-08-26T08:12:52.000Z</Time>
            <Position>
              <LatitudeDegrees>43.00297125242650508880615234375</LatitudeDegrees>
              <LongitudeDegrees>-1.7317526601254940032958984375</LongitudeDegrees>
            </Position>
            <AltitudeMeters>574.4000244140625</AltitudeMeters>
            <DistanceMeters>65412.292905529</DistanceMeters>
          </Trackpoint>
          <Trackpoint>
            <Time>2018-08-26T08:12:53.000Z</Time>
            <Position>
              <LatitudeDegrees>43.00296731293201446533203125</LatitudeDegrees>
              <LongitudeDegrees>-1.7316188849508762359619140625</LongitudeDegrees>
            </Position>
            <AltitudeMeters>574.20001220703125</AltitudeMeters>
            <DistanceMeters>65423.190775293</DistanceMeters>
          </Trackpoint>
          <Trackpoint>
            <Time>2018-08-26T08:12:54.000Z</Time>
            <Position>
              <LatitudeDegrees>43.00296572037041187286376953125</LatitudeDegrees>
              <LongitudeDegrees>-1.73148284666240215301513671875</LongitudeDegrees>
            </Position>
            <AltitudeMeters>574</AltitudeMeters>
            <DistanceMeters>65434.264955542</DistanceMeters>
          </Trackpoint>
          <Trackpoint>
            <Time>2018-08-26T08:12:55.000Z</Time>
            <Position>
              <LatitudeDegrees>43.002965636551380157470703125</LatitudeDegrees>
              <LongitudeDegrees>-1.73134705983102321624755859375</LongitudeDegrees>
            </Position>
            <AltitudeMeters>573.5999755859375</AltitudeMeters>
            <DistanceMeters>65445.317506113</DistanceMeters>
          </Trackpoint>
          <Trackpoint>
            <Time>2018-08-26T08:12:56.000Z</Time>
            <Position>
              <LatitudeDegrees>43.00296370871365070343017578125</LatitudeDegrees>
              <LongitudeDegrees>-1.73121227882802486419677734375</LongitudeDegrees>
            </Position>
            <AltitudeMeters>573.4000244140625</AltitudeMeters>
            <DistanceMeters>65456.290520252</DistanceMeters>
          </Trackpoint>
          <Trackpoint>
            <Time>2018-08-26T08:12:57.000Z</Time>
            <Position>
              <LatitudeDegrees>43.00295935012400150299072265625</LatitudeDegrees>
              <LongitudeDegrees>-1.7310790903866291046142578125</LongitudeDegrees>
            </Position>
            <AltitudeMeters>573.20001220703125</AltitudeMeters>
            <DistanceMeters>65467.143136852</DistanceMeters>
          </Trackpoint>
          <Trackpoint>
            <Time>2018-08-26T08:12:58.000Z</Time>
            <Position>
              <LatitudeDegrees>43.002953231334686279296875</LatitudeDegrees>
              <LongitudeDegrees>-1.73094590194523334503173828125</LongitudeDegrees>
            </Position>
            <AltitudeMeters>573.20001220703125</AltitudeMeters>
            <DistanceMeters>65478.006149278</DistanceMeters>
          </Trackpoint>
          <Trackpoint>
            <Time>2018-08-26T08:12:59.000Z</Time>
            <Position>
              <LatitudeDegrees>43.00294317305088043212890625</LatitudeDegrees>
              <LongitudeDegrees>-1.73081313259899616241455078125</LongitudeDegrees>
            </Position>
            <AltitudeMeters>573.20001220703125</AltitudeMeters>
            <DistanceMeters>65488.871239676</DistanceMeters>
          </Trackpoint>
          <Trackpoint>
            <Time>2018-08-26T08:13:00.000Z</Time>
            <Position>
              <LatitudeDegrees>43.002927415072917938232421875</LatitudeDegrees>
              <LongitudeDegrees>-1.73068203963339328765869140625</LongitudeDegrees>
            </Position>
            <AltitudeMeters>573</AltitudeMeters>
            <DistanceMeters>65499.685096063</DistanceMeters>
          </Trackpoint>
          <Trackpoint>
            <Time>2018-08-26T08:13:01.000Z</Time>
            <Position>
              <LatitudeDegrees>43.0029057897627353668212890625</LatitudeDegrees>
              <LongitudeDegrees>-1.73055429942905902862548828125</LongitudeDegrees>
            </Position>
            <AltitudeMeters>572.79998779296875</AltitudeMeters>
            <DistanceMeters>65510.358588669</DistanceMeters>
          </Trackpoint>
          <Trackpoint>
            <Time>2018-08-26T08:13:02.000Z</Time>
            <Position>
              <LatitudeDegrees>43.00288039259612560272216796875</LatitudeDegrees>
              <LongitudeDegrees>-1.73042739741504192352294921875</LongitudeDegrees>
            </Position>
            <AltitudeMeters>572.79998779296875</AltitudeMeters>
            <DistanceMeters>65521.067977116</DistanceMeters>
          </Trackpoint>
          <Trackpoint>
            <Time>2018-08-26T08:13:03.000Z</Time>
            <Position>
              <LatitudeDegrees>43.0028518103063106536865234375</LatitudeDegrees>
              <LongitudeDegrees>-1.73030200414359569549560546875</LongitudeDegrees>
            </Position>
            <AltitudeMeters>572.5999755859375</AltitudeMeters>
            <DistanceMeters>65531.759221554</DistanceMeters>
          </Trackpoint>
          <Trackpoint>
            <Time>2018-08-26T08:13:04.000Z</Time>
            <Position>
              <LatitudeDegrees>43.002819456160068511962890625</LatitudeDegrees>
              <LongitudeDegrees>-1.73017811961472034454345703125</LongitudeDegrees>
            </Position>
            <AltitudeMeters>571.5999755859375</AltitudeMeters>
            <DistanceMeters>65542.466501812</DistanceMeters>
          </Trackpoint>
          <Trackpoint>
            <Time>2018-08-26T08:13:05.000Z</Time>
            <Position>
              <LatitudeDegrees>43.00278131850063800811767578125</LatitudeDegrees>
              <LongitudeDegrees>-1.730056665837764739990234375</LongitudeDegrees>
            </Position>
            <AltitudeMeters>571.20001220703125</AltitudeMeters>
            <DistanceMeters>65553.225103945</DistanceMeters>
          </Trackpoint>
          <Trackpoint>
            <Time>2018-08-26T08:13:06.000Z</Time>
            <Position>
              <LatitudeDegrees>43.002743683755397796630859375</LatitudeDegrees>
              <LongitudeDegrees>-1.72993387095630168914794921875</LongitudeDegrees>
            </Position>
            <AltitudeMeters>570.79998779296875</AltitudeMeters>
            <DistanceMeters>65564.062733036</DistanceMeters>
          </Trackpoint>
          <Trackpoint>
            <Time>2018-08-26T08:13:07.000Z</Time>
            <Position>
              <LatitudeDegrees>43.00270806066691875457763671875</LatitudeDegrees>
              <LongitudeDegrees>-1.72980847768485546112060546875</LongitudeDegrees>
            </Position>
            <AltitudeMeters>570.4000244140625</AltitudeMeters>
            <DistanceMeters>65575.012680754</DistanceMeters>
          </Trackpoint>
          <Trackpoint>
            <Time>2018-08-26T08:13:08.000Z</Time>
            <Position>
              <LatitudeDegrees>43.00266849808394908905029296875</LatitudeDegrees>
              <LongitudeDegrees>-1.72968744300305843353271484375</LongitudeDegrees>
            </Position>
            <AltitudeMeters>570.20001220703125</AltitudeMeters>
            <DistanceMeters>65585.804385712</DistanceMeters>
          </Trackpoint>
          <Trackpoint>
            <Time>2018-08-26T08:13:09.000Z</Time>
            <Position>
              <LatitudeDegrees>43.0026268400251865386962890625</LatitudeDegrees>
              <LongitudeDegrees>-1.72956825233995914459228515625</LongitudeDegrees>
            </Position>
            <AltitudeMeters>569.79998779296875</AltitudeMeters>
            <DistanceMeters>65596.557110891</DistanceMeters>
          </Trackpoint>
          <Trackpoint>
            <Time>2018-08-26T08:13:10.000Z</Time>
            <Position>
              <LatitudeDegrees>43.0025852657854557037353515625</LatitudeDegrees>
              <LongitudeDegrees>-1.72944939695298671722412109375</LongitudeDegrees>
            </Position>
            <AltitudeMeters>569.79998779296875</AltitudeMeters>
            <DistanceMeters>65607.281245056</DistanceMeters>
          </Trackpoint>
          <Trackpoint>
            <Time>2018-08-26T08:13:11.000Z</Time>
            <Position>
              <LatitudeDegrees>43.00254628993570804595947265625</LatitudeDegrees>
              <LongitudeDegrees>-1.7293299548327922821044921875</LongitudeDegrees>
            </Position>
            <AltitudeMeters>569.4000244140625</AltitudeMeters>
            <DistanceMeters>65617.927630336</DistanceMeters>
          </Trackpoint>
          <Trackpoint>
            <Time>2018-08-26T08:13:12.000Z</Time>
            <Position>
              <LatitudeDegrees>43.00250203348696231842041015625</LatitudeDegrees>
              <LongitudeDegrees>-1.7292152903974056243896484375</LongitudeDegrees>
            </Position>
            <AltitudeMeters>569.20001220703125</AltitudeMeters>
            <DistanceMeters>65628.481158792</DistanceMeters>
          </Trackpoint>
          <Trackpoint>
            <Time>2018-08-26T08:13:13.000Z</Time>
            <Position>
              <LatitudeDegrees>43.00245576538145542144775390625</LatitudeDegrees>
              <LongitudeDegrees>-1.72910255379974842071533203125</LongitudeDegrees>
            </Position>
            <AltitudeMeters>569.20001220703125</AltitudeMeters>
            <DistanceMeters>65639.003838933</DistanceMeters>
          </Trackpoint>
          <Trackpoint>
            <Time>2018-08-26T08:13:14.000Z</Time>
            <Position>
              <LatitudeDegrees>43.00240698270499706268310546875</LatitudeDegrees>
              <LongitudeDegrees>-1.72898939810693264007568359375</LongitudeDegrees>
            </Position>
            <AltitudeMeters>568.79998779296875</AltitudeMeters>
            <DistanceMeters>65649.695927961</DistanceMeters>
          </Trackpoint>
          <Trackpoint>
            <Time>2018-08-26T08:13:15.000Z</Time>
            <Position>
              <LatitudeDegrees>43.00236389972269535064697265625</LatitudeDegrees>
              <LongitudeDegrees>-1.728867776691913604736328125</LongitudeDegrees>
            </Position>
            <AltitudeMeters>568.79998779296875</AltitudeMeters>
            <DistanceMeters>65660.69606543</DistanceMeters>
          </Trackpoint>
          <Trackpoint>
            <Time>2018-08-26T08:13:16.000Z</Time>
            <Position>
              <LatitudeDegrees>43.0023220740258693695068359375</LatitudeDegrees>
              <LongitudeDegrees>-1.72874615527689456939697265625</LongitudeDegrees>
            </Position>
            <AltitudeMeters>568.4000244140625</AltitudeMeters>
            <DistanceMeters>65671.635699936</DistanceMeters>
          </Trackpoint>
          <Trackpoint>
            <Time>2018-08-26T08:13:17.000Z</Time>
            <Position>
              <LatitudeDegrees>43.00227798521518707275390625</LatitudeDegrees>
              <LongitudeDegrees>-1.72862528823316097259521484375</LongitudeDegrees>
            </Position>
            <AltitudeMeters>568.20001220703125</AltitudeMeters>
            <DistanceMeters>65682.630089563</DistanceMeters>
          </Trackpoint>
          <Trackpoint>
            <Time>2018-08-26T08:13:18.000Z</Time>
            <Position>
              <LatitudeDegrees>43.0022362433373928070068359375</LatitudeDegrees>
              <LongitudeDegrees>-1.72850601375102996826171875</LongitudeDegrees>
            </Position>
            <AltitudeMeters>568</AltitudeMeters>
            <DistanceMeters>65693.392887555</DistanceMeters>
          </Trackpoint>
          <Trackpoint>
            <Time>2018-08-26T08:13:19.000Z</Time>
            <Position>
              <LatitudeDegrees>43.0021970160305500030517578125</LatitudeDegrees>
              <LongitudeDegrees>-1.728389672935009002685546875</LongitudeDegrees>
            </Position>
            <AltitudeMeters>567.79998779296875</AltitudeMeters>
            <DistanceMeters>65703.820743545</DistanceMeters>
          </Trackpoint>
          <Trackpoint>
            <Time>2018-08-26T08:13:20.000Z</Time>
            <Position>
              <LatitudeDegrees>43.00215502269566059112548828125</LatitudeDegrees>
              <LongitudeDegrees>-1.72827224247157573699951171875</LongitudeDegrees>
            </Position>
            <AltitudeMeters>567.79998779296875</AltitudeMeters>
            <DistanceMeters>65714.461189891</DistanceMeters>
          </Trackpoint>
          <Trackpoint>
            <Time>2018-08-26T08:13:21.000Z</Time>
            <Position>
              <LatitudeDegrees>43.00209701992571353912353515625</LatitudeDegrees>
              <LongitudeDegrees>-1.72816411592066287994384765625</LongitudeDegrees>
            </Position>
            <AltitudeMeters>567.79998779296875</AltitudeMeters>
            <DistanceMeters>65725.376446581</DistanceMeters>
          </Trackpoint>
          <Trackpoint>
            <Time>2018-08-26T08:13:22.000Z</Time>
            <Position>
              <LatitudeDegrees>43.0020488239824771881103515625</LatitudeDegrees>
              <LongitudeDegrees>-1.7280466854572296142578125</LongitudeDegrees>
            </Position>
            <AltitudeMeters>567.5999755859375</AltitudeMeters>
            <DistanceMeters>65736.337109746</DistanceMeters>
          </Trackpoint>
          <Trackpoint>
            <Time>2018-08-26T08:13:23.000Z</Time>
            <Position>
              <LatitudeDegrees>43.002010099589824676513671875</LatitudeDegrees>
              <LongitudeDegrees>-1.7279251478612422943115234375</LongitudeDegrees>
            </Position>
            <AltitudeMeters>567.4000244140625</AltitudeMeters>
            <DistanceMeters>65747.128396315</DistanceMeters>
          </Trackpoint>
          <Trackpoint>
            <Time>2018-08-26T08:13:24.000Z</Time>
            <Position>
              <LatitudeDegrees>43.00197682343423366546630859375</LatitudeDegrees>
              <LongitudeDegrees>-1.7278014309704303741455078125</LongitudeDegrees>
            </Position>
            <AltitudeMeters>567.20001220703125</AltitudeMeters>
            <DistanceMeters>65757.858423093</DistanceMeters>
          </Trackpoint>
          <Trackpoint>
            <Time>2018-08-26T08:13:25.000Z</Time>
            <Position>
              <LatitudeDegrees>43.0019438825547695159912109375</LatitudeDegrees>
              <LongitudeDegrees>-1.72767880372703075408935546875</LongitudeDegrees>
            </Position>
            <AltitudeMeters>567</AltitudeMeters>
            <DistanceMeters>65768.491653419</DistanceMeters>
          </Trackpoint>
          <Trackpoint>
            <Time>2018-08-26T08:13:26.000Z</Time>
            <Position>
              <LatitudeDegrees>43.001912198960781097412109375</LatitudeDegrees>
              <LongitudeDegrees>-1.72755743376910686492919921875</LongitudeDegrees>
            </Position>
            <AltitudeMeters>566.5999755859375</AltitudeMeters>
            <DistanceMeters>65778.981673035</DistanceMeters>
          </Trackpoint>
          <Trackpoint>
            <Time>2018-08-26T08:13:27.000Z</Time>
            <Position>
              <LatitudeDegrees>43.0018912442028522491455078125</LatitudeDegrees>
              <LongitudeDegrees>-1.7274329625070095062255859375</LongitudeDegrees>
            </Position>
            <AltitudeMeters>566.5999755859375</AltitudeMeters>
            <DistanceMeters>65789.378307829</DistanceMeters>
          </Trackpoint>
          <Trackpoint>
            <Time>2018-08-26T08:13:28.000Z</Time>
            <Position>
              <LatitudeDegrees>43.00187322311103343963623046875</LatitudeDegrees>
              <LongitudeDegrees>-1.72730748541653156280517578125</LongitudeDegrees>
            </Position>
            <AltitudeMeters>566.4000244140625</AltitudeMeters>
            <DistanceMeters>65799.787095327</DistanceMeters>
          </Trackpoint>
          <Trackpoint>
            <Time>2018-08-26T08:13:29.000Z</Time>
            <Position>
              <LatitudeDegrees>43.00186014734208583831787109375</LatitudeDegrees>
              <LongitudeDegrees>-1.7271784879267215728759765625</LongitudeDegrees>
            </Position>
            <AltitudeMeters>566</AltitudeMeters>
            <DistanceMeters>65810.387153873</DistanceMeters>
          </Trackpoint>
          <Trackpoint>
            <Time>2018-08-26T08:13:30.000Z</Time>
            <Position>
              <LatitudeDegrees>43.0018557049334049224853515625</LatitudeDegrees>
              <LongitudeDegrees>-1.72704814933240413665771484375</LongitudeDegrees>
            </Position>
            <AltitudeMeters>565.79998779296875</AltitudeMeters>
            <DistanceMeters>65821.0080632</DistanceMeters>
          </Trackpoint>
          <Trackpoint>
            <Time>2018-08-26T08:13:31.000Z</Time>
            <Position>
              <LatitudeDegrees>43.001857884228229522705078125</LatitudeDegrees>
              <LongitudeDegrees>-1.726913116872310638427734375</LongitudeDegrees>
            </Position>
            <AltitudeMeters>565.79998779296875</AltitudeMeters>
            <DistanceMeters>65832.002452828</DistanceMeters>
          </Trackpoint>
          <Trackpoint>
            <Time>2018-08-26T08:13:32.000Z</Time>
            <Position>
              <LatitudeDegrees>43.0018573813140392303466796875</LatitudeDegrees>
              <LongitudeDegrees>-1.7267726361751556396484375</LongitudeDegrees>
            </Position>
            <AltitudeMeters>565.5999755859375</AltitudeMeters>
            <DistanceMeters>65843.437290252</DistanceMeters>
          </Trackpoint>
          <Trackpoint>
            <Time>2018-08-26T08:13:33.000Z</Time>
            <Position>
              <LatitudeDegrees>43.00185059197247028350830078125</LatitudeDegrees>
              <LongitudeDegrees>-1.72663559205830097198486328125</LongitudeDegrees>
            </Position>
            <AltitudeMeters>565.4000244140625</AltitudeMeters>
            <DistanceMeters>65854.617779875</DistanceMeters>
          </Trackpoint>
          <Trackpoint>
            <Time>2018-08-26T08:13:34.000Z</Time>
            <Position>
              <LatitudeDegrees>43.001835756003856658935546875</LatitudeDegrees>
              <LongitudeDegrees>-1.7264985479414463043212890625</LongitudeDegrees>
            </Position>
            <AltitudeMeters>565.20001220703125</AltitudeMeters>
            <DistanceMeters>65865.894372289</DistanceMeters>
          </Trackpoint>
          <Trackpoint>
            <Time>2018-08-26T08:13:35.000Z</Time>
            <Position>
              <LatitudeDegrees>43.0018107779324054718017578125</LatitudeDegrees>
              <LongitudeDegrees>-1.7263662815093994140625</LongitudeDegrees>
            </Position>
            <AltitudeMeters>565</AltitudeMeters>
            <DistanceMeters>65877.013310035</DistanceMeters>
          </Trackpoint>
          <Trackpoint>
            <Time>2018-08-26T08:13:36.000Z</Time>
            <Position>
              <LatitudeDegrees>43.001778759062290191650390625</LatitudeDegrees>
              <LongitudeDegrees>-1.72623745165765285491943359375</LongitudeDegrees>
            </Position>
            <AltitudeMeters>564.79998779296875</AltitudeMeters>
            <DistanceMeters>65888.088713342</DistanceMeters>
          </Trackpoint>
          <Trackpoint>
            <Time>2018-08-26T08:13:37.000Z</Time>
            <Position>
              <LatitudeDegrees>43.0017427168786525726318359375</LatitudeDegrees>
              <LongitudeDegrees>-1.726116500794887542724609375</LongitudeDegrees>
            </Position>
            <AltitudeMeters>564.79998779296875</AltitudeMeters>
            <DistanceMeters>65898.720245069</DistanceMeters>
          </Trackpoint>
          <Trackpoint>
            <Time>2018-08-26T08:13:38.000Z</Time>
            <Position>
              <LatitudeDegrees>43.001702986657619476318359375</LatitudeDegrees>
              <LongitudeDegrees>-1.7260020039975643157958984375</LongitudeDegrees>
            </Position>
            <AltitudeMeters>564.5999755859375</AltitudeMeters>
            <DistanceMeters>65909.03578775</DistanceMeters>
          </Trackpoint>
          <Trackpoint>
            <Time>2018-08-26T08:13:39.000Z</Time>
            <Position>
              <LatitudeDegrees>43.0016562156379222869873046875</LatitudeDegrees>
              <LongitudeDegrees>-1.72589278779923915863037109375</LongitudeDegrees>
            </Position>
            <AltitudeMeters>564.20001220703125</AltitudeMeters>
            <DistanceMeters>65919.338191281</DistanceMeters>
          </Trackpoint>
          <Trackpoint>
            <Time>2018-08-26T08:13:40.000Z</Time>
            <Position>
              <LatitudeDegrees>43.001603744924068450927734375</LatitudeDegrees>
              <LongitudeDegrees>-1.72578684054315090179443359375</LongitudeDegrees>
            </Position>
            <AltitudeMeters>564</AltitudeMeters>
            <DistanceMeters>65929.753916815</DistanceMeters>
          </Trackpoint>
          <Trackpoint>
            <Time>2018-08-26T08:13:41.000Z</Time>
            <Position>
              <LatitudeDegrees>43.00154574215412139892578125</LatitudeDegrees>
              <LongitudeDegrees>-1.72568508423864841461181640625</LongitudeDegrees>
            </Position>
            <AltitudeMeters>563.79998779296875</AltitudeMeters>
            <DistanceMeters>65940.2551212</DistanceMeters>
          </Trackpoint>
          <Trackpoint>
            <Time>2018-08-26T08:13:42.000Z</Time>
            <Position>
              <LatitudeDegrees>43.00148564390838146209716796875</LatitudeDegrees>
              <LongitudeDegrees>-1.72558299265801906585693359375</LongitudeDegrees>
            </Position>
            <AltitudeMeters>563.4000244140625</AltitudeMeters>
            <DistanceMeters>65950.923536429</DistanceMeters>
          </Trackpoint>
          <Trackpoint>
            <Time>2018-08-26T08:13:43.000Z</Time>
            <Position>
              <LatitudeDegrees>43.00142512656748294830322265625</LatitudeDegrees>
              <LongitudeDegrees>-1.72547922469675540924072265625</LongitudeDegrees>
            </Position>
            <AltitudeMeters>563.20001220703125</AltitudeMeters>
            <DistanceMeters>65961.727367607</DistanceMeters>
          </Trackpoint>
          <Trackpoint>
            <Time>2018-08-26T08:13:44.000Z</Time>
            <Position>
              <LatitudeDegrees>43.0013628490269184112548828125</LatitudeDegrees>
              <LongitudeDegrees>-1.7253740318119525909423828125</LongitudeDegrees>
            </Position>
            <AltitudeMeters>563</AltitudeMeters>
            <DistanceMeters>65972.743910958</DistanceMeters>
          </Trackpoint>
          <Trackpoint>
            <Time>2018-08-26T08:13:45.000Z</Time>
            <Position>
              <LatitudeDegrees>43.00130040384829044342041015625</LatitudeDegrees>
              <LongitudeDegrees>-1.72526984475553035736083984375</LongitudeDegrees>
            </Position>
            <AltitudeMeters>563</AltitudeMeters>
            <DistanceMeters>65983.709104429</DistanceMeters>
          </Trackpoint>
          <Trackpoint>
            <Time>2018-08-26T08:13:46.000Z</Time>
            <Position>
              <LatitudeDegrees>43.0012384615838527679443359375</LatitudeDegrees>
              <LongitudeDegrees>-1.72516557388007640838623046875</LongitudeDegrees>
            </Position>
            <AltitudeMeters>563</AltitudeMeters>
            <DistanceMeters>65994.644198039</DistanceMeters>
          </Trackpoint>
          <Trackpoint>
            <Time>2018-08-26T08:13:47.000Z</Time>
            <Position>
              <LatitudeDegrees>43.0011761002242565155029296875</LatitudeDegrees>
              <LongitudeDegrees>-1.72506331466138362884521484375</LongitudeDegrees>
            </Position>
            <AltitudeMeters>562.79998779296875</AltitudeMeters>
            <DistanceMeters>66005.48224373</DistanceMeters>
          </Trackpoint>
          <Trackpoint>
            <Time>2018-08-26T08:13:48.000Z</Time>
            <Position>
              <LatitudeDegrees>43.00111432559788227081298828125</LatitudeDegrees>
              <LongitudeDegrees>-1.72495988197624683380126953125</LongitudeDegrees>
            </Position>
            <AltitudeMeters>562.79998779296875</AltitudeMeters>
            <DistanceMeters>66016.351904267</DistanceMeters>
          </Trackpoint>
          <Trackpoint>
            <Time>2018-08-26T08:13:49.000Z</Time>
            <Position>
              <LatitudeDegrees>43.0010537244379520416259765625</LatitudeDegrees>
              <LongitudeDegrees>-1.7248567007482051849365234375</LongitudeDegrees>
            </Position>
            <AltitudeMeters>562.79998779296875</AltitudeMeters>
            <DistanceMeters>66027.123927396</DistanceMeters>
          </Trackpoint>
          <Trackpoint>
            <Time>2018-08-26T08:13:50.000Z</Time>
            <Position>
              <LatitudeDegrees>43.000992871820926666259765625</LatitudeDegrees>
              <LongitudeDegrees>-1.7247541062533855438232421875</LongitudeDegrees>
            </Position>
            <AltitudeMeters>562.79998779296875</AltitudeMeters>
            <DistanceMeters>66037.876232671</DistanceMeters>
          </Trackpoint>
          <Trackpoint>
            <Time>2018-08-26T08:13:51.000Z</Time>
            <Position>
              <LatitudeDegrees>43.00093210302293300628662109375</LatitudeDegrees>
              <LongitudeDegrees>-1.7246528528630733489990234375</LongitudeDegrees>
            </Position>
            <AltitudeMeters>562.79998779296875</AltitudeMeters>
            <DistanceMeters>66048.538297778</DistanceMeters>
          </Trackpoint>
          <Trackpoint>
            <Time>2018-08-26T08:13:52.000Z</Time>
            <Position>
              <LatitudeDegrees>43.00087091512978076934814453125</LatitudeDegrees>
              <LongitudeDegrees>-1.72455252148211002349853515625</LongitudeDegrees>
            </Position>
            <AltitudeMeters>562.5999755859375</AltitudeMeters>
            <DistanceMeters>66059.171952711</DistanceMeters>
          </Trackpoint>
          <Trackpoint>
            <Time>2018-08-26T08:13:53.000Z</Time>
            <Position>
              <LatitudeDegrees>43.00080905668437480926513671875</LatitudeDegrees>
              <LongitudeDegrees>-1.72445277683436870574951171875</LongitudeDegrees>
            </Position>
            <AltitudeMeters>562.5999755859375</AltitudeMeters>
            <DistanceMeters>66069.817489774</DistanceMeters>
          </Trackpoint>
          <Trackpoint>
            <Time>2018-08-26T08:13:54.000Z</Time>
            <Position>
              <LatitudeDegrees>43.0007476173341274261474609375</LatitudeDegrees>
              <LongitudeDegrees>-1.72435303218662738800048828125</LongitudeDegrees>
            </Position>
            <AltitudeMeters>562.20001220703125</AltitudeMeters>
            <DistanceMeters>66080.432871253</DistanceMeters>
          </Trackpoint>
          <Trackpoint>
            <Time>2018-08-26T08:13:55.000Z</Time>
            <Position>
              <LatitudeDegrees>43.00068601034581661224365234375</LatitudeDegrees>
              <LongitudeDegrees>-1.72425110824406147003173828125</LongitudeDegrees>
            </Position>
            <AltitudeMeters>561.79998779296875</AltitudeMeters>
            <DistanceMeters>66091.196088742</DistanceMeters>
          </Trackpoint>
          <Trackpoint>
            <Time>2018-08-26T08:13:56.000Z</Time>
            <Position>
              <LatitudeDegrees>43.0006237328052520751953125</LatitudeDegrees>
              <LongitudeDegrees>-1.7241479270160198211669921875</LongitudeDegrees>
            </Position>
            <AltitudeMeters>561.4000244140625</AltitudeMeters>
            <DistanceMeters>66102.08566926</DistanceMeters>
          </Trackpoint>
          <Trackpoint>
            <Time>2018-08-26T08:13:57.000Z</Time>
            <Position>
              <LatitudeDegrees>43.00056078471243381500244140625</LatitudeDegrees>
              <LongitudeDegrees>-1.724043823778629302978515625</LongitudeDegrees>
            </Position>
            <AltitudeMeters>561</AltitudeMeters>
            <DistanceMeters>66113.080880191</DistanceMeters>
          </Trackpoint>
          <Trackpoint>
            <Time>2018-08-26T08:13:58.000Z</Time>
            <Position>
              <LatitudeDegrees>43.00049842335283756256103515625</LatitudeDegrees>
              <LongitudeDegrees>-1.7239397205412387847900390625</LongitudeDegrees>
            </Position>
            <AltitudeMeters>560.79998779296875</AltitudeMeters>
            <DistanceMeters>66124.034538289</DistanceMeters>
          </Trackpoint>
          <Trackpoint>
            <Time>2018-08-26T08:13:59.000Z</Time>
            <Position>
              <LatitudeDegrees>43.00043488852679729461669921875</LatitudeDegrees>
              <LongitudeDegrees>-1.72383788041770458221435546875</LongitudeDegrees>
            </Position>
            <AltitudeMeters>560.79998779296875</AltitudeMeters>
            <DistanceMeters>66134.930750708</DistanceMeters>
          </Trackpoint>
          <Trackpoint>
            <Time>2018-08-26T08:14:00.000Z</Time>
            <Position>
              <LatitudeDegrees>43.00037168897688388824462890625</LatitudeDegrees>
              <LongitudeDegrees>-1.72373528592288494110107421875</LongitudeDegrees>
            </Position>
            <AltitudeMeters>560.5999755859375</AltitudeMeters>
            <DistanceMeters>66145.849729565</DistanceMeters>
          </Trackpoint>
          <Trackpoint>
            <Time>2018-08-26T08:14:01.000Z</Time>
            <Position>
              <LatitudeDegrees>43.0003067292273044586181640625</LatitudeDegrees>
              <LongitudeDegrees>-1.72363470308482646942138671875</LongitudeDegrees>
            </Position>
            <AltitudeMeters>560.5999755859375</AltitudeMeters>
            <DistanceMeters>66156.772429322</DistanceMeters>
          </Trackpoint>
          <Trackpoint>
            <Time>2018-08-26T08:14:02.000Z</Time>
            <Position>
              <LatitudeDegrees>43.00023975782096385955810546875</LatitudeDegrees>
              <LongitudeDegrees>-1.723536215722560882568359375</LongitudeDegrees>
            </Position>
            <AltitudeMeters>560.5999755859375</AltitudeMeters>
            <DistanceMeters>66167.719902755</DistanceMeters>
          </Trackpoint>
          <Trackpoint>
            <Time>2018-08-26T08:14:03.000Z</Time>
            <Position>
              <LatitudeDegrees>43.00017169676721096038818359375</LatitudeDegrees>
              <LongitudeDegrees>-1.72343856655061244964599609375</LongitudeDegrees>
            </Position>
            <AltitudeMeters>560.4000244140625</AltitudeMeters>
            <DistanceMeters>66178.700320811</DistanceMeters>
          </Trackpoint>
          <Trackpoint>
            <Time>2018-08-26T08:14:04.000Z</Time>
            <Position>
              <LatitudeDegrees>43.00010204315185546875</LatitudeDegrees>
              <LongitudeDegrees>-1.72334284521639347076416015625</LongitudeDegrees>
            </Position>
            <AltitudeMeters>560.20001220703125</AltitudeMeters>
            <DistanceMeters>66189.69183539</DistanceMeters>
          </Trackpoint>
          <Trackpoint>
            <Time>2018-08-26T08:14:05.000Z</Time>
            <Position>
              <LatitudeDegrees>43.00004194490611553192138671875</LatitudeDegrees>
              <LongitudeDegrees>-1.723245866596698760986328125</LongitudeDegrees>
            </Position>
            <AltitudeMeters>560</AltitudeMeters>
            <DistanceMeters>66200.038843959</DistanceMeters>
          </Trackpoint>
          <Trackpoint>
            <Time>2018-08-26T08:14:06.000Z</Time>
            <Position>
              <LatitudeDegrees>42.99997874535620212554931640625</LatitudeDegrees>
              <LongitudeDegrees>-1.723149307072162628173828125</LongitudeDegrees>
            </Position>
            <AltitudeMeters>559.79998779296875</AltitudeMeters>
            <DistanceMeters>66210.587237293</DistanceMeters>
          </Trackpoint>
          <Trackpoint>
            <Time>2018-08-26T08:14:07.000Z</Time>
            <Position>
              <LatitudeDegrees>42.9999060742557048797607421875</LatitudeDegrees>
              <LongitudeDegrees>-1.72305568121373653411865234375</LongitudeDegrees>
            </Position>
            <AltitudeMeters>559.4000244140625</AltitudeMeters>
            <DistanceMeters>66221.700894909</DistanceMeters>
          </Trackpoint>
          <Trackpoint>
            <Time>2018-08-26T08:14:08.000Z</Time>
            <Position>
              <LatitudeDegrees>42.99983826465904712677001953125</LatitudeDegrees>
              <LongitudeDegrees>-1.72295979224145412445068359375</LongitudeDegrees>
            </Position>
            <AltitudeMeters>559.20001220703125</AltitudeMeters>
            <DistanceMeters>66232.558502748</DistanceMeters>
          </Trackpoint>
          <Trackpoint>
            <Time>2018-08-26T08:14:09.000Z</Time>
            <Position>
              <LatitudeDegrees>42.9997699521481990814208984375</LatitudeDegrees>
              <LongitudeDegrees>-1.72286331653594970703125</LongitudeDegrees>
            </Position>
            <AltitudeMeters>559</AltitudeMeters>
            <DistanceMeters>66243.489466635</DistanceMeters>
          </Trackpoint>
          <Trackpoint>
            <Time>2018-08-26T08:14:10.000Z</Time>
            <Position>
              <LatitudeDegrees>42.99969627521932125091552734375</LatitudeDegrees>
              <LongitudeDegrees>-1.7227679304778575897216796875</LongitudeDegrees>
            </Position>
            <AltitudeMeters>559</AltitudeMeters>
            <DistanceMeters>66254.782063305</DistanceMeters>
          </Trackpoint>
          <Trackpoint>
            <Time>2018-08-26T08:14:11.000Z</Time>
            <Position>
              <LatitudeDegrees>42.99962125718593597412109375</LatitudeDegrees>
              <LongitudeDegrees>-1.7226723767817020416259765625</LongitudeDegrees>
            </Position>
            <AltitudeMeters>558.79998779296875</AltitudeMeters>
            <DistanceMeters>66266.193185174</DistanceMeters>
          </Trackpoint>
          <Trackpoint>
            <Time>2018-08-26T08:14:12.000Z</Time>
            <Position>
              <LatitudeDegrees>42.9995453171432018280029296875</LatitudeDegrees>
              <LongitudeDegrees>-1.722577996551990509033203125</LongitudeDegrees>
            </Position>
            <AltitudeMeters>558.79998779296875</AltitudeMeters>
            <DistanceMeters>66277.61458983</DistanceMeters>
          </Trackpoint>
          <Trackpoint>
            <Time>2018-08-26T08:14:13.000Z</Time>
            <Position>
              <LatitudeDegrees>42.99947063438594341278076171875</LatitudeDegrees>
              <LongitudeDegrees>-1.72248470596969127655029296875</LongitudeDegrees>
            </Position>
            <AltitudeMeters>558.5999755859375</AltitudeMeters>
            <DistanceMeters>66288.873551288</DistanceMeters>
          </Trackpoint>
          <Trackpoint>
            <Time>2018-08-26T08:14:14.000Z</Time>
            <Position>
              <LatitudeDegrees>42.99939653836190700531005859375</LatitudeDegrees>
              <LongitudeDegrees>-1.72239191830158233642578125</LongitudeDegrees>
            </Position>
            <AltitudeMeters>558.5999755859375</AltitudeMeters>
            <DistanceMeters>66300.056867377</DistanceMeters>
          </Trackpoint>
          <Trackpoint>
            <Time>2018-08-26T08:14:15.000Z</Time>
            <Position>
              <LatitudeDegrees>42.9993240348994731903076171875</LatitudeDegrees>
              <LongitudeDegrees>-1.72229745425283908843994140625</LongitudeDegrees>
            </Position>
            <AltitudeMeters>558.4000244140625</AltitudeMeters>
            <DistanceMeters>66311.203383505</DistanceMeters>
          </Trackpoint>
          <Trackpoint>
            <Time>2018-08-26T08:14:16.000Z</Time>
            <Position>
              <LatitudeDegrees>42.99925245344638824462890625</LatitudeDegrees>
              <LongitudeDegrees>-1.7222033254802227020263671875</LongitudeDegrees>
            </Position>
            <AltitudeMeters>558.20001220703125</AltitudeMeters>
            <DistanceMeters>66322.256751059</DistanceMeters>
          </Trackpoint>
          <Trackpoint>
            <Time>2018-08-26T08:14:17.000Z</Time>
            <Position>
              <LatitudeDegrees>42.99918497912585735321044921875</LatitudeDegrees>
              <LongitudeDegrees>-1.72210601158440113067626953125</LongitudeDegrees>
            </Position>
            <AltitudeMeters>558</AltitudeMeters>
            <DistanceMeters>66333.172007749</DistanceMeters>
          </Trackpoint>
          <Trackpoint>
            <Time>2018-08-26T08:14:18.000Z</Time>
            <Position>
              <LatitudeDegrees>42.99912010319530963897705078125</LatitudeDegrees>
              <LongitudeDegrees>-1.72200609929859638214111328125</LongitudeDegrees>
            </Position>
            <AltitudeMeters>558</AltitudeMeters>
            <DistanceMeters>66344.048312334</DistanceMeters>
          </Trackpoint>
          <Trackpoint>
            <Time>2018-08-26T08:14:19.000Z</Time>
            <Position>
              <LatitudeDegrees>42.99906210042536258697509765625</LatitudeDegrees>
              <LongitudeDegrees>-1.72190501354634761810302734375</LongitudeDegrees>
            </Position>
            <AltitudeMeters>557.79998779296875</AltitudeMeters>
            <DistanceMeters>66354.507296321</DistanceMeters>
          </Trackpoint>
          <Trackpoint>
            <Time>2018-08-26T08:14:20.000Z</Time>
            <Position>
              <LatitudeDegrees>42.999010048806667327880859375</LatitudeDegrees>
              <LongitudeDegrees>-1.7218016646802425384521484375</LongitudeDegrees>
            </Position>
            <AltitudeMeters>557.79998779296875</AltitudeMeters>
            <DistanceMeters>66364.722557619</DistanceMeters>
          </Trackpoint>
          <Trackpoint>
            <Time>2018-08-26T08:14:21.000Z</Time>
            <Position>
              <LatitudeDegrees>42.9989619366824626922607421875</LatitudeDegrees>
              <LongitudeDegrees>-1.7216923646628856658935546875</LongitudeDegrees>
            </Position>
            <AltitudeMeters>557.5999755859375</AltitudeMeters>
            <DistanceMeters>66375.107025486</DistanceMeters>
          </Trackpoint>
          <Trackpoint>
            <Time>2018-08-26T08:14:22.000Z</Time>
            <Position>
              <LatitudeDegrees>42.9989163391292095184326171875</LatitudeDegrees>
              <LongitudeDegrees>-1.72158725559711456298828125</LongitudeDegrees>
            </Position>
            <AltitudeMeters>557.5999755859375</AltitudeMeters>
            <DistanceMeters>66385.055373984</DistanceMeters>
          </Trackpoint>
          <Trackpoint>
            <Time>2018-08-26T08:14:23.000Z</Time>
            <Position>
              <LatitudeDegrees>42.9988704062998294830322265625</LatitudeDegrees>
              <LongitudeDegrees>-1.721480302512645721435546875</LongitudeDegrees>
            </Position>
            <AltitudeMeters>557.5999755859375</AltitudeMeters>
            <DistanceMeters>66395.151487241</DistanceMeters>
          </Trackpoint>
          <Trackpoint>
            <Time>2018-08-26T08:14:24.000Z</Time>
            <Position>
              <LatitudeDegrees>42.9988253116607666015625</LatitudeDegrees>
              <LongitudeDegrees>-1.721373014152050018310546875</LongitudeDegrees>
            </Position>
            <AltitudeMeters>557.5999755859375</AltitudeMeters>
            <DistanceMeters>66405.224767193</DistanceMeters>
          </Trackpoint>
          <Trackpoint>
            <Time>2018-08-26T08:14:25.000Z</Time>
            <Position>
              <LatitudeDegrees>42.998776696622371673583984375</LatitudeDegrees>
              <LongitudeDegrees>-1.72126865945756435394287109375</LongitudeDegrees>
            </Position>
            <AltitudeMeters>557.5999755859375</AltitudeMeters>
            <DistanceMeters>66415.296702398</DistanceMeters>
          </Trackpoint>
          <Trackpoint>
            <Time>2018-08-26T08:14:26.000Z</Time>
            <Position>
              <LatitudeDegrees>42.99872380681335926055908203125</LatitudeDegrees>
              <LongitudeDegrees>-1.72116841189563274383544921875</LongitudeDegrees>
            </Position>
            <AltitudeMeters>557.5999755859375</AltitudeMeters>
            <DistanceMeters>66425.359668027</DistanceMeters>
          </Trackpoint>
          <Trackpoint>
            <Time>2018-08-26T08:14:27.000Z</Time>
            <Position>
              <LatitudeDegrees>42.998667396605014801025390625</LatitudeDegrees>
              <LongitudeDegrees>-1.72107352875173091888427734375</LongitudeDegrees>
            </Position>
            <AltitudeMeters>557.5999755859375</AltitudeMeters>
            <DistanceMeters>66435.314368369</DistanceMeters>
          </Trackpoint>
          <Trackpoint>
            <Time>2018-08-26T08:14:28.000Z</Time>
            <Position>
              <LatitudeDegrees>42.9986058734357357025146484375</LatitudeDegrees>
              <LongitudeDegrees>-1.72098266892135143280029296875</LongitudeDegrees>
            </Position>
            <AltitudeMeters>557.5999755859375</AltitudeMeters>
            <DistanceMeters>66445.393921438</DistanceMeters>
          </Trackpoint>
          <Trackpoint>
            <Time>2018-08-26T08:14:29.000Z</Time>
            <Position>
              <LatitudeDegrees>42.99854141660034656524658203125</LatitudeDegrees>
              <LongitudeDegrees>-1.7208930663764476776123046875</LongitudeDegrees>
            </Position>
            <AltitudeMeters>557.79998779296875</AltitudeMeters>
            <DistanceMeters>66455.624640672</DistanceMeters>
          </Trackpoint>
          <Trackpoint>
            <Time>2018-08-26T08:14:30.000Z</Time>
            <Position>
              <LatitudeDegrees>42.9984744451940059661865234375</LatitudeDegrees>
              <LongitudeDegrees>-1.720806062221527099609375</LongitudeDegrees>
            </Position>
            <AltitudeMeters>557.79998779296875</AltitudeMeters>
            <DistanceMeters>66465.906864897</DistanceMeters>
          </Trackpoint>
          <Trackpoint>
            <Time>2018-08-26T08:14:31.000Z</Time>
            <Position>
              <LatitudeDegrees>42.9984124191105365753173828125</LatitudeDegrees>
              <LongitudeDegrees>-1.72071327455341815948486328125</LongitudeDegrees>
            </Position>
            <AltitudeMeters>557.79998779296875</AltitudeMeters>
            <DistanceMeters>66476.139790502</DistanceMeters>
          </Trackpoint>
          <Trackpoint>
            <Time>2018-08-26T08:14:32.000Z</Time>
            <Position>
              <LatitudeDegrees>42.99835064448416233062744140625</LatitudeDegrees>
              <LongitudeDegrees>-1.7206198163330554962158203125</LongitudeDegrees>
            </Position>
            <AltitudeMeters>558.20001220703125</AltitudeMeters>
            <DistanceMeters>66486.394313416</DistanceMeters>
          </Trackpoint>
          <Trackpoint>
            <Time>2018-08-26T08:14:33.000Z</Time>
            <Position>
              <LatitudeDegrees>42.99829113297164440155029296875</LatitudeDegrees>
              <LongitudeDegrees>-1.7205232568085193634033203125</LongitudeDegrees>
            </Position>
            <AltitudeMeters>558.4000244140625</AltitudeMeters>
            <DistanceMeters>66496.673024152</DistanceMeters>
          </Trackpoint>
          <Trackpoint>
            <Time>2018-08-26T08:14:34.000Z</Time>
            <Position>
              <LatitudeDegrees>42.99823430366814136505126953125</LatitudeDegrees>
              <LongitudeDegrees>-1.72042493708431720733642578125</LongitudeDegrees>
            </Position>
            <AltitudeMeters>558.5999755859375</AltitudeMeters>
            <DistanceMeters>66506.874131981</DistanceMeters>
          </Trackpoint>
          <Trackpoint>
            <Time>2018-08-26T08:14:35.000Z</Time>
            <Position>
              <LatitudeDegrees>42.99817780964076519012451171875</LatitudeDegrees>
              <LongitudeDegrees>-1.72032737173140048980712890625</LongitudeDegrees>
            </Position>
            <AltitudeMeters>558.79998779296875</AltitudeMeters>
            <DistanceMeters>66517.003284392</DistanceMeters>
          </Trackpoint>
          <Trackpoint>
            <Time>2018-08-26T08:14:36.000Z</Time>
            <Position>
              <LatitudeDegrees>42.9981212317943572998046875</LatitudeDegrees>
              <LongitudeDegrees>-1.72023047693073749542236328125</LongitudeDegrees>
            </Position>
            <AltitudeMeters>558.79998779296875</AltitudeMeters>
            <DistanceMeters>66527.096714059</DistanceMeters>
          </Trackpoint>
          <Trackpoint>
            <Time>2018-08-26T08:14:37.000Z</Time>
            <Position>
              <LatitudeDegrees>42.99806398339569568634033203125</LatitudeDegrees>
              <LongitudeDegrees>-1.720135174691677093505859375</LongitudeDegrees>
            </Position>
            <AltitudeMeters>559</AltitudeMeters>
            <DistanceMeters>66537.135871553</DistanceMeters>
          </Trackpoint>
          <Trackpoint>
            <Time>2018-08-26T08:14:38.000Z</Time>
            <Position>
              <LatitudeDegrees>42.9980060644447803497314453125</LatitudeDegrees>
              <LongitudeDegrees>-1.7200421355664730072021484375</LongitudeDegrees>
            </Position>
            <AltitudeMeters>559</AltitudeMeters>
            <DistanceMeters>66547.081496589</DistanceMeters>
          </Trackpoint>
          <Trackpoint>
            <Time>2018-08-26T08:14:39.000Z</Time>
            <Position>
              <LatitudeDegrees>42.99794680438935756683349609375</LatitudeDegrees>
              <LongitudeDegrees>-1.71994884498417377471923828125</LongitudeDegrees>
            </Position>
            <AltitudeMeters>559</AltitudeMeters>
            <DistanceMeters>66557.140872148</DistanceMeters>
          </Trackpoint>
          <Trackpoint>
            <Time>2018-08-26T08:14:40.000Z</Time>
            <Position>
              <LatitudeDegrees>42.99788855016231536865234375</LatitudeDegrees>
              <LongitudeDegrees>-1.71985480003058910369873046875</LongitudeDegrees>
            </Position>
            <AltitudeMeters>559</AltitudeMeters>
            <DistanceMeters>66567.173281233</DistanceMeters>
          </Trackpoint>
          <Trackpoint>
            <Time>2018-08-26T08:14:41.000Z</Time>
            <Position>
              <LatitudeDegrees>42.9978310503065586090087890625</LatitudeDegrees>
              <LongitudeDegrees>-1.71976142562925815582275390625</LongitudeDegrees>
            </Position>
            <AltitudeMeters>559</AltitudeMeters>
            <DistanceMeters>66577.109368278</DistanceMeters>
          </Trackpoint>
          <Trackpoint>
            <Time>2018-08-26T08:14:42.000Z</Time>
            <Position>
              <LatitudeDegrees>42.99777321517467498779296875</LatitudeDegrees>
              <LongitudeDegrees>-1.719668470323085784912109375</LongitudeDegrees>
            </Position>
            <AltitudeMeters>559</AltitudeMeters>
            <DistanceMeters>66587.043637524</DistanceMeters>
          </Trackpoint>
          <Trackpoint>
            <Time>2018-08-26T08:14:43.000Z</Time>
            <Position>
              <LatitudeDegrees>42.99771529622375965118408203125</LatitudeDegrees>
              <LongitudeDegrees>-1.71957635320723056793212890625</LongitudeDegrees>
            </Position>
            <AltitudeMeters>559</AltitudeMeters>
            <DistanceMeters>66596.932353204</DistanceMeters>
          </Trackpoint>
          <Trackpoint>
            <Time>2018-08-26T08:14:44.000Z</Time>
            <Position>
              <LatitudeDegrees>42.99765930511057376861572265625</LatitudeDegrees>
              <LongitudeDegrees>-1.7194822244346141815185546875</LongitudeDegrees>
            </Position>
            <AltitudeMeters>559</AltitudeMeters>
            <DistanceMeters>66606.808733399</DistanceMeters>
          </Trackpoint>
          <Trackpoint>
            <Time>2018-08-26T08:14:45.000Z</Time>
            <Position>
              <LatitudeDegrees>42.9976035654544830322265625</LatitudeDegrees>
              <LongitudeDegrees>-1.719388179481029510498046875</LongitudeDegrees>
            </Position>
            <AltitudeMeters>559</AltitudeMeters>
            <DistanceMeters>66616.662229323</DistanceMeters>
          </Trackpoint>
          <Trackpoint>
            <Time>2018-08-26T08:14:46.000Z</Time>
            <Position>
              <LatitudeDegrees>42.99754883162677288055419921875</LatitudeDegrees>
              <LongitudeDegrees>-1.71929438598453998565673828125</LongitudeDegrees>
            </Position>
            <AltitudeMeters>559</AltitudeMeters>
            <DistanceMeters>66626.43012509</DistanceMeters>
          </Trackpoint>
          <Trackpoint>
            <Time>2018-08-26T08:14:47.000Z</Time>
            <Position>
              <LatitudeDegrees>42.99749200232326984405517578125</LatitudeDegrees>
              <LongitudeDegrees>-1.71920117922127246856689453125</LongitudeDegrees>
            </Position>
            <AltitudeMeters>559</AltitudeMeters>
            <DistanceMeters>66636.307876654</DistanceMeters>
          </Trackpoint>
          <Trackpoint>
            <Time>2018-08-26T08:14:48.000Z</Time>
            <Position>
              <LatitudeDegrees>42.99743416719138622283935546875</LatitudeDegrees>
              <LongitudeDegrees>-1.71910931356251239776611328125</LongitudeDegrees>
            </Position>
            <AltitudeMeters>559</AltitudeMeters>
            <DistanceMeters>66646.17510951</DistanceMeters>
          </Trackpoint>
          <Trackpoint>
            <Time>2018-08-26T08:14:49.000Z</Time>
            <Position>
              <LatitudeDegrees>42.9973750747740268707275390625</LatitudeDegrees>
              <LongitudeDegrees>-1.719020046293735504150390625</LongitudeDegrees>
            </Position>
            <AltitudeMeters>559</AltitudeMeters>
            <DistanceMeters>66655.977150795</DistanceMeters>
          </Trackpoint>
          <Trackpoint>
            <Time>2018-08-26T08:14:50.000Z</Time>
            <Position>
              <LatitudeDegrees>42.99731430597603321075439453125</LatitudeDegrees>
              <LongitudeDegrees>-1.7189320363104343414306640625</LongitudeDegrees>
            </Position>
            <AltitudeMeters>559</AltitudeMeters>
            <DistanceMeters>66665.829730243</DistanceMeters>
          </Trackpoint>
          <Trackpoint>
            <Time>2018-08-26T08:14:51.000Z</Time>
            <Position>
              <LatitudeDegrees>42.99725295044481754302978515625</LatitudeDegrees>
              <LongitudeDegrees>-1.71884478069841861724853515625</LongitudeDegrees>
            </Position>
            <AltitudeMeters>559</AltitudeMeters>
            <DistanceMeters>66675.683226167</DistanceMeters>
          </Trackpoint>
          <Trackpoint>
            <Time>2018-08-26T08:14:52.000Z</Time>
            <Position>
              <LatitudeDegrees>42.99719058908522129058837890625</LatitudeDegrees>
              <LongitudeDegrees>-1.71875861473381519317626953125</LongitudeDegrees>
            </Position>
            <AltitudeMeters>559</AltitudeMeters>
            <DistanceMeters>66685.551374138</DistanceMeters>
          </Trackpoint>
          <Trackpoint>
            <Time>2018-08-26T08:14:53.000Z</Time>
            <Position>
              <LatitudeDegrees>42.9971269704401493072509765625</LatitudeDegrees>
              <LongitudeDegrees>-1.71867395751178264617919921875</LongitudeDegrees>
            </Position>
            <AltitudeMeters>559</AltitudeMeters>
            <DistanceMeters>66695.431867872</DistanceMeters>
          </Trackpoint>
          <Trackpoint>
            <Time>2018-08-26T08:14:54.000Z</Time>
            <Position>
              <LatitudeDegrees>42.9970644414424896240234375</LatitudeDegrees>
              <LongitudeDegrees>-1.7185870371758937835693359375</LongitudeDegrees>
            </Position>
            <AltitudeMeters>558.79998779296875</AltitudeMeters>
            <DistanceMeters>66705.356588213</DistanceMeters>
          </Trackpoint>
          <Trackpoint>
            <Time>2018-08-26T08:14:55.000Z</Time>
            <Position>
              <LatitudeDegrees>42.99699931405484676361083984375</LatitudeDegrees>
              <LongitudeDegrees>-1.7185007035732269287109375</LongitudeDegrees>
            </Position>
            <AltitudeMeters>558.79998779296875</AltitudeMeters>
            <DistanceMeters>66715.453148666</DistanceMeters>
          </Trackpoint>
          <Trackpoint>
            <Time>2018-08-26T08:14:56.000Z</Time>
            <Position>
              <LatitudeDegrees>42.9969351924955844879150390625</LatitudeDegrees>
              <LongitudeDegrees>-1.71841328032314777374267578125</LongitudeDegrees>
            </Position>
            <AltitudeMeters>558.79998779296875</AltitudeMeters>
            <DistanceMeters>66725.532253785</DistanceMeters>
          </Trackpoint>
          <Trackpoint>
            <Time>2018-08-26T08:14:57.000Z</Time>
            <Position>
              <LatitudeDegrees>42.996869981288909912109375</LatitudeDegrees>
              <LongitudeDegrees>-1.71832610853016376495361328125</LongitudeDegrees>
            </Position>
            <AltitudeMeters>558.79998779296875</AltitudeMeters>
            <DistanceMeters>66735.683224295</DistanceMeters>
          </Trackpoint>
          <Trackpoint>
            <Time>2018-08-26T08:14:58.000Z</Time>
            <Position>
              <LatitudeDegrees>42.99680686555802822113037109375</LatitudeDegrees>
              <LongitudeDegrees>-1.718236505985260009765625</LongitudeDegrees>
            </Position>
            <AltitudeMeters>558.79998779296875</AltitudeMeters>
            <DistanceMeters>66745.810147726</DistanceMeters>
          </Trackpoint>
          <Trackpoint>
            <Time>2018-08-26T08:14:59.000Z</Time>
            <Position>
              <LatitudeDegrees>42.9967439174652099609375</LatitudeDegrees>
              <LongitudeDegrees>-1.71814623288810253143310546875</LongitudeDegrees>
            </Position>
            <AltitudeMeters>558.79998779296875</AltitudeMeters>
            <DistanceMeters>66755.963341937</DistanceMeters>
          </Trackpoint>
          <Trackpoint>
            <Time>2018-08-26T08:15:00.000Z</Time>
            <Position>
              <LatitudeDegrees>42.99668155610561370849609375</LatitudeDegrees>
              <LongitudeDegrees>-1.71805612742900848388671875</LongitudeDegrees>
            </Position>
            <AltitudeMeters>558.79998779296875</AltitudeMeters>
            <DistanceMeters>66766.061690974</DistanceMeters>
          </Trackpoint>
          <Trackpoint>
            <Time>2018-08-26T08:15:01.000Z</Time>
            <Position>
              <LatitudeDegrees>42.9966200329363346099853515625</LatitudeDegrees>
              <LongitudeDegrees>-1.71796300448477268218994140625</LongitudeDegrees>
            </Position>
            <AltitudeMeters>558.79998779296875</AltitudeMeters>
            <DistanceMeters>66776.276952272</DistanceMeters>
          </Trackpoint>
          <Trackpoint>
            <Time>2018-08-26T08:15:02.000Z</Time>
            <Position>
              <LatitudeDegrees>42.9965556599199771881103515625</LatitudeDegrees>
              <LongitudeDegrees>-1.71787105500698089599609375</LongitudeDegrees>
            </Position>
            <AltitudeMeters>558.79998779296875</AltitudeMeters>
            <DistanceMeters>66786.638786517</DistanceMeters>
          </Trackpoint>
          <Trackpoint>
            <Time>2018-08-26T08:15:03.000Z</Time>
            <Position>
              <LatitudeDegrees>42.9964916221797466278076171875</LatitudeDegrees>
              <LongitudeDegrees>-1.71777776442468166351318359375</LongitudeDegrees>
            </Position>
            <AltitudeMeters>558.5999755859375</AltitudeMeters>
            <DistanceMeters>66797.054078559</DistanceMeters>
          </Trackpoint>
          <Trackpoint>
            <Time>2018-08-26T08:15:04.000Z</Time>
            <Position>
              <LatitudeDegrees>42.99642808735370635986328125</LatitudeDegrees>
              <LongitudeDegrees>-1.7176827974617481231689453125</LongitudeDegrees>
            </Position>
            <AltitudeMeters>558.4000244140625</AltitudeMeters>
            <DistanceMeters>66807.53160877</DistanceMeters>
          </Trackpoint>
          <Trackpoint>
            <Time>2018-08-26T08:15:05.000Z</Time>
            <Position>
              <LatitudeDegrees>42.99636639654636383056640625</LatitudeDegrees>
              <LongitudeDegrees>-1.71758674085140228271484375</LongitudeDegrees>
            </Position>
            <AltitudeMeters>558.20001220703125</AltitudeMeters>
            <DistanceMeters>66817.937793312</DistanceMeters>
          </Trackpoint>
          <Trackpoint>
            <Time>2018-08-26T08:15:06.000Z</Time>
            <Position>
              <LatitudeDegrees>42.99630202353000640869140625</LatitudeDegrees>
              <LongitudeDegrees>-1.71749227680265903472900390625</LongitudeDegrees>
            </Position>
            <AltitudeMeters>557.79998779296875</AltitudeMeters>
            <DistanceMeters>66828.448452436</DistanceMeters>
          </Trackpoint>
          <Trackpoint>
            <Time>2018-08-26T08:15:07.000Z</Time>
            <Position>
              <LatitudeDegrees>42.99623756669461727142333984375</LatitudeDegrees>
              <LongitudeDegrees>-1.71739764511585235595703125</LongitudeDegrees>
            </Position>
            <AltitudeMeters>557.5999755859375</AltitudeMeters>
            <DistanceMeters>66838.975422471</DistanceMeters>
          </Trackpoint>
          <Trackpoint>
            <Time>2018-08-26T08:15:08.000Z</Time>
            <Position>
              <LatitudeDegrees>42.9961764626204967498779296875</LatitudeDegrees>
              <LongitudeDegrees>-1.71730150468647480010986328125</LongitudeDegrees>
            </Position>
            <AltitudeMeters>557.4000244140625</AltitudeMeters>
            <DistanceMeters>66849.34422617</DistanceMeters>
          </Trackpoint>
          <Trackpoint>
            <Time>2018-08-26T08:15:09.000Z</Time>
            <Position>
              <LatitudeDegrees>42.996113933622837066650390625</LatitudeDegrees>
              <LongitudeDegrees>-1.7172051966190338134765625</LongitudeDegrees>
            </Position>
            <AltitudeMeters>557.20001220703125</AltitudeMeters>
            <DistanceMeters>66859.828218275</DistanceMeters>
          </Trackpoint>
          <Trackpoint>
            <Time>2018-08-26T08:15:10.000Z</Time>
            <Position>
              <LatitudeDegrees>42.99605391919612884521484375</LatitudeDegrees>
              <LongitudeDegrees>-1.71710821799933910369873046875</LongitudeDegrees>
            </Position>
            <AltitudeMeters>557</AltitudeMeters>
            <DistanceMeters>66870.169989178</DistanceMeters>
          </Trackpoint>
          <Trackpoint>
            <Time>2018-08-26T08:15:11.000Z</Time>
            <Position>
              <LatitudeDegrees>42.99599080346524715423583984375</LatitudeDegrees>
              <LongitudeDegrees>-1.71701266430318355560302734375</LongitudeDegrees>
            </Position>
            <AltitudeMeters>556.79998779296875</AltitudeMeters>
            <DistanceMeters>66880.651397004</DistanceMeters>
          </Trackpoint>
          <Trackpoint>
            <Time>2018-08-26T08:15:12.000Z</Time>
            <Position>
              <LatitudeDegrees>42.99592609517276287078857421875</LatitudeDegrees>
              <LongitudeDegrees>-1.71691761352121829986572265625</LongitudeDegrees>
            </Position>
            <AltitudeMeters>556.5999755859375</AltitudeMeters>
            <DistanceMeters>66891.222024512</DistanceMeters>
          </Trackpoint>
          <Trackpoint>
            <Time>2018-08-26T08:15:13.000Z</Time>
            <Position>
              <LatitudeDegrees>42.99586088396608829498291015625</LatitudeDegrees>
              <LongitudeDegrees>-1.7168216407299041748046875</LongitudeDegrees>
            </Position>
            <AltitudeMeters>556.4000244140625</AltitudeMeters>
            <DistanceMeters>66901.886206747</DistanceMeters>
          </Trackpoint>
          <Trackpoint>
            <Time>2018-08-26T08:15:14.000Z</Time>
            <Position>
              <LatitudeDegrees>42.99579441547393798828125</LatitudeDegrees>
              <LongitudeDegrees>-1.71672566793859004974365234375</LongitudeDegrees>
            </Position>
            <AltitudeMeters>556.20001220703125</AltitudeMeters>
            <DistanceMeters>66912.64648742</DistanceMeters>
          </Trackpoint>
          <Trackpoint>
            <Time>2018-08-26T08:15:15.000Z</Time>
            <Position>
              <LatitudeDegrees>42.99572945572435855865478515625</LatitudeDegrees>
              <LongitudeDegrees>-1.71662994660437107086181640625</LongitudeDegrees>
            </Position>
            <AltitudeMeters>555.79998779296875</AltitudeMeters>
            <DistanceMeters>66923.276745019</DistanceMeters>
          </Trackpoint>
          <Trackpoint>
            <Time>2018-08-26T08:15:16.000Z</Time>
            <Position>
              <LatitudeDegrees>42.9956631548702716827392578125</LatitudeDegrees>
              <LongitudeDegrees>-1.7165348120033740997314453125</LongitudeDegrees>
            </Position>
            <AltitudeMeters>555.4000244140625</AltitudeMeters>
            <DistanceMeters>66933.974322258</DistanceMeters>
          </Trackpoint>
          <Trackpoint>
            <Time>2018-08-26T08:15:17.000Z</Time>
            <Position>
              <LatitudeDegrees>42.9955940879881381988525390625</LatitudeDegrees>
              <LongitudeDegrees>-1.71644219197332859039306640625</LongitudeDegrees>
            </Position>
            <AltitudeMeters>555.20001220703125</AltitudeMeters>
            <DistanceMeters>66944.742153123</DistanceMeters>
          </Trackpoint>
          <Trackpoint>
            <Time>2018-08-26T08:15:18.000Z</Time>
            <Position>
              <LatitudeDegrees>42.99552644602954387664794921875</LatitudeDegrees>
              <LongitudeDegrees>-1.716349907219409942626953125</LongitudeDegrees>
            </Position>
            <AltitudeMeters>555</AltitudeMeters>
            <DistanceMeters>66955.377506316</DistanceMeters>
          </Trackpoint>
          <Trackpoint>
            <Time>2018-08-26T08:15:19.000Z</Time>
            <Position>
              <LatitudeDegrees>42.99545570276677608489990234375</LatitudeDegrees>
              <LongitudeDegrees>-1.71625929884612560272216796875</LongitudeDegrees>
            </Position>
            <AltitudeMeters>554.5999755859375</AltitudeMeters>
            <DistanceMeters>66966.167119169</DistanceMeters>
          </Trackpoint>
          <Trackpoint>
            <Time>2018-08-26T08:15:20.000Z</Time>
            <Position>
              <LatitudeDegrees>42.99538529478013515472412109375</LatitudeDegrees>
              <LongitudeDegrees>-1.71616877429187297821044921875</LongitudeDegrees>
            </Position>
            <AltitudeMeters>554.4000244140625</AltitudeMeters>
            <DistanceMeters>66976.924881934</DistanceMeters>
          </Trackpoint>
          <Trackpoint>
            <Time>2018-08-26T08:15:21.000Z</Time>
            <Position>
              <LatitudeDegrees>42.99531228840351104736328125</LatitudeDegrees>
              <LongitudeDegrees>-1.716080345213413238525390625</LongitudeDegrees>
            </Position>
            <AltitudeMeters>554.4000244140625</AltitudeMeters>
            <DistanceMeters>66987.780826281</DistanceMeters>
          </Trackpoint>
          <Trackpoint>
            <Time>2018-08-26T08:15:22.000Z</Time>
            <Position>
              <LatitudeDegrees>42.9952390305697917938232421875</LatitudeDegrees>
              <LongitudeDegrees>-1.71599359251558780670166015625</LongitudeDegrees>
            </Position>
            <AltitudeMeters>554.20001220703125</AltitudeMeters>
            <DistanceMeters>66998.567928072</DistanceMeters>
          </Trackpoint>
          <Trackpoint>
            <Time>2018-08-26T08:15:23.000Z</Time>
            <Position>
              <LatitudeDegrees>42.99516585655510425567626953125</LatitudeDegrees>
              <LongitudeDegrees>-1.7159070074558258056640625</LongitudeDegrees>
            </Position>
            <AltitudeMeters>553.79998779296875</AltitudeMeters>
            <DistanceMeters>67009.338693694</DistanceMeters>
          </Trackpoint>
          <Trackpoint>
            <Time>2018-08-26T08:15:24.000Z</Time>
            <Position>
              <LatitudeDegrees>42.99509444274008274078369140625</LatitudeDegrees>
              <LongitudeDegrees>-1.71582050621509552001953125</LongitudeDegrees>
            </Position>
            <AltitudeMeters>553.5999755859375</AltitudeMeters>
            <DistanceMeters>67019.957052064</DistanceMeters>
          </Trackpoint>
          <Trackpoint>
            <Time>2018-08-26T08:15:25.000Z</Time>
            <Position>
              <LatitudeDegrees>42.9950237832963466644287109375</LatitudeDegrees>
              <LongitudeDegrees>-1.71573392115533351898193359375</LongitudeDegrees>
            </Position>
            <AltitudeMeters>553.5999755859375</AltitudeMeters>
            <DistanceMeters>67030.517423463</DistanceMeters>
          </Trackpoint>
          <Trackpoint>
            <Time>2018-08-26T08:15:26.000Z</Time>
            <Position>
              <LatitudeDegrees>42.9949537105858325958251953125</LatitudeDegrees>
              <LongitudeDegrees>-1.71564658172428607940673828125</LongitudeDegrees>
            </Position>
            <AltitudeMeters>553.4000244140625</AltitudeMeters>
            <DistanceMeters>67041.070951918</DistanceMeters>
          </Trackpoint>
          <Trackpoint>
            <Time>2018-08-26T08:15:27.000Z</Time>
            <Position>
              <LatitudeDegrees>42.9948853142559528350830078125</LatitudeDegrees>
              <LongitudeDegrees>-1.71555840410292148590087890625</LongitudeDegrees>
            </Position>
            <AltitudeMeters>553.4000244140625</AltitudeMeters>
            <DistanceMeters>67051.534251914</DistanceMeters>
          </Trackpoint>
          <Trackpoint>
            <Time>2018-08-26T08:15:28.000Z</Time>
            <Position>
              <LatitudeDegrees>42.9948192648589611053466796875</LatitudeDegrees>
              <LongitudeDegrees>-1.7154679633677005767822265625</LongitudeDegrees>
            </Position>
            <AltitudeMeters>553.20001220703125</AltitudeMeters>
            <DistanceMeters>67061.93870079</DistanceMeters>
          </Trackpoint>
          <Trackpoint>
            <Time>2018-08-26T08:15:29.000Z</Time>
            <Position>
              <LatitudeDegrees>42.994754053652286529541015625</LatitudeDegrees>
              <LongitudeDegrees>-1.7153767682611942291259765625</LongitudeDegrees>
            </Position>
            <AltitudeMeters>553</AltitudeMeters>
            <DistanceMeters>67072.320559604</DistanceMeters>
          </Trackpoint>
          <Trackpoint>
            <Time>2018-08-26T08:15:30.000Z</Time>
            <Position>
              <LatitudeDegrees>42.99469001591205596923828125</LatitudeDegrees>
              <LongitudeDegrees>-1.71528540551662445068359375</LongitudeDegrees>
            </Position>
            <AltitudeMeters>552.79998779296875</AltitudeMeters>
            <DistanceMeters>67082.622086596</DistanceMeters>
          </Trackpoint>
          <Trackpoint>
            <Time>2018-08-26T08:15:31.000Z</Time>
            <Position>
              <LatitudeDegrees>42.994626648724079132080078125</LatitudeDegrees>
              <LongitudeDegrees>-1.7151937074959278106689453125</LongitudeDegrees>
            </Position>
            <AltitudeMeters>552.4000244140625</AltitudeMeters>
            <DistanceMeters>67092.892008352</DistanceMeters>
          </Trackpoint>
          <Trackpoint>
            <Time>2018-08-26T08:15:32.000Z</Time>
            <Position>
              <LatitudeDegrees>42.99456403590738773345947265625</LatitudeDegrees>
              <LongitudeDegrees>-1.715101338922977447509765625</LongitudeDegrees>
            </Position>
            <AltitudeMeters>552.20001220703125</AltitudeMeters>
            <DistanceMeters>67103.145210289</DistanceMeters>
          </Trackpoint>
          <Trackpoint>
            <Time>2018-08-26T08:15:33.000Z</Time>
            <Position>
              <LatitudeDegrees>42.99450133927166461944580078125</LatitudeDegrees>
              <LongitudeDegrees>-1.71500972472131252288818359375</LongitudeDegrees>
            </Position>
            <AltitudeMeters>552</AltitudeMeters>
            <DistanceMeters>67113.359145532</DistanceMeters>
          </Trackpoint>
          <Trackpoint>
            <Time>2018-08-26T08:15:34.000Z</Time>
            <Position>
              <LatitudeDegrees>42.99443948082625865936279296875</LatitudeDegrees>
              <LongitudeDegrees>-1.71491819433867931365966796875</LongitudeDegrees>
            </Position>
            <AltitudeMeters>551.79998779296875</AltitudeMeters>
            <DistanceMeters>67123.50433214</DistanceMeters>
          </Trackpoint>
          <Trackpoint>
            <Time>2018-08-26T08:15:35.000Z</Time>
            <Position>
              <LatitudeDegrees>42.99437695182859897613525390625</LatitudeDegrees>
              <LongitudeDegrees>-1.71482699923217296600341796875</LongitudeDegrees>
            </Position>
            <AltitudeMeters>551.5999755859375</AltitudeMeters>
            <DistanceMeters>67133.680624032</DistanceMeters>
          </Trackpoint>
          <Trackpoint>
            <Time>2018-08-26T08:15:36.000Z</Time>
            <Position>
              <LatitudeDegrees>42.99431576393544673919677734375</LatitudeDegrees>
              <LongitudeDegrees>-1.71473513357341289520263671875</LongitudeDegrees>
            </Position>
            <AltitudeMeters>551.5999755859375</AltitudeMeters>
            <DistanceMeters>67143.795502484</DistanceMeters>
          </Trackpoint>
          <Trackpoint>
            <Time>2018-08-26T08:15:37.000Z</Time>
            <Position>
              <LatitudeDegrees>42.994255162775516510009765625</LatitudeDegrees>
              <LongitudeDegrees>-1.71464209444820880889892578125</LongitudeDegrees>
            </Position>
            <AltitudeMeters>551.5999755859375</AltitudeMeters>
            <DistanceMeters>67153.937573317</DistanceMeters>
          </Trackpoint>
          <Trackpoint>
            <Time>2018-08-26T08:15:38.000Z</Time>
            <Position>
              <LatitudeDegrees>42.99419514834880828857421875</LatitudeDegrees>
              <LongitudeDegrees>-1.71454779803752899169921875</LongitudeDegrees>
            </Position>
            <AltitudeMeters>551.5999755859375</AltitudeMeters>
            <DistanceMeters>67164.113421516</DistanceMeters>
          </Trackpoint>
          <Trackpoint>
            <Time>2018-08-26T08:15:39.000Z</Time>
            <Position>
              <LatitudeDegrees>42.9941363073885440826416015625</LatitudeDegrees>
              <LongitudeDegrees>-1.71445283107459545135498046875</LongitudeDegrees>
            </Position>
            <AltitudeMeters>551.4000244140625</AltitudeMeters>
            <DistanceMeters>67174.246139275</DistanceMeters>
          </Trackpoint>
          <Trackpoint>
            <Time>2018-08-26T08:15:40.000Z</Time>
            <Position>
              <LatitudeDegrees>42.99407771788537502288818359375</LatitudeDegrees>
              <LongitudeDegrees>-1.71435526572167873382568359375</LongitudeDegrees>
            </Position>
            <AltitudeMeters>551.4000244140625</AltitudeMeters>
            <DistanceMeters>67184.52265347</DistanceMeters>
          </Trackpoint>
          <Trackpoint>
            <Time>2018-08-26T08:15:41.000Z</Time>
            <Position>
              <LatitudeDegrees>42.99402021802961826324462890625</LatitudeDegrees>
              <LongitudeDegrees>-1.714257113635540008544921875</LongitudeDegrees>
            </Position>
            <AltitudeMeters>551.20001220703125</AltitudeMeters>
            <DistanceMeters>67194.75999039</DistanceMeters>
          </Trackpoint>
          <Trackpoint>
            <Time>2018-08-26T08:15:42.000Z</Time>
            <Position>
              <LatitudeDegrees>42.9939629696309566497802734375</LatitudeDegrees>
              <LongitudeDegrees>-1.7141600511968135833740234375</LongitudeDegrees>
            </Position>
            <AltitudeMeters>551.20001220703125</AltitudeMeters>
            <DistanceMeters>67204.911405679</DistanceMeters>
          </Trackpoint>
          <Trackpoint>
            <Time>2018-08-26T08:15:43.000Z</Time>
            <Position>
              <LatitudeDegrees>42.99390555359423160552978515625</LatitudeDegrees>
              <LongitudeDegrees>-1.7140621505677700042724609375</LongitudeDegrees>
            </Position>
            <AltitudeMeters>551.20001220703125</AltitudeMeters>
            <DistanceMeters>67215.127108957</DistanceMeters>
          </Trackpoint>
          <Trackpoint>
            <Time>2018-08-26T08:15:44.000Z</Time>
            <Position>
              <LatitudeDegrees>42.99385475926101207733154296875</LatitudeDegrees>
              <LongitudeDegrees>-1.7139642499387264251708984375</LongitudeDegrees>
            </Position>
            <AltitudeMeters>551.20001220703125</AltitudeMeters>
            <DistanceMeters>67224.898701884</DistanceMeters>
          </Trackpoint>
          <Trackpoint>
            <Time>2018-08-26T08:15:45.000Z</Time>
            <Position>
              <LatitudeDegrees>42.99380010925233364105224609375</LatitudeDegrees>
              <LongitudeDegrees>-1.71386651694774627685546875</LongitudeDegrees>
            </Position>
            <AltitudeMeters>551</AltitudeMeters>
            <DistanceMeters>67234.913092978</DistanceMeters>
          </Trackpoint>
          <Trackpoint>
            <Time>2018-08-26T08:15:46.000Z</Time>
            <Position>
              <LatitudeDegrees>42.99374193884432315826416015625</LatitudeDegrees>
              <LongitudeDegrees>-1.71377037651836872100830078125</LongitudeDegrees>
            </Position>
            <AltitudeMeters>551</AltitudeMeters>
            <DistanceMeters>67245.070733129</DistanceMeters>
          </Trackpoint>
          <Trackpoint>
            <Time>2018-08-26T08:15:47.000Z</Time>
            <Position>
              <LatitudeDegrees>42.99368075095117092132568359375</LatitudeDegrees>
              <LongitudeDegrees>-1.71367666684091091156005859375</LongitudeDegrees>
            </Position>
            <AltitudeMeters>551</AltitudeMeters>
            <DistanceMeters>67255.297479698</DistanceMeters>
          </Trackpoint>
          <Trackpoint>
            <Time>2018-08-26T08:15:48.000Z</Time>
            <Position>
              <LatitudeDegrees>42.9936176352202892303466796875</LatitudeDegrees>
              <LongitudeDegrees>-1.713583879172801971435546875</LongitudeDegrees>
            </Position>
            <AltitudeMeters>551</AltitudeMeters>
            <DistanceMeters>67265.613022379</DistanceMeters>
          </Trackpoint>
          <Trackpoint>
            <Time>2018-08-26T08:15:49.000Z</Time>
            <Position>
              <LatitudeDegrees>42.99355384893715381622314453125</LatitudeDegrees>
              <LongitudeDegrees>-1.71349327079951763153076171875</LongitudeDegrees>
            </Position>
            <AltitudeMeters>551</AltitudeMeters>
            <DistanceMeters>67275.851241334</DistanceMeters>
          </Trackpoint>
          <Trackpoint>
            <Time>2018-08-26T08:15:50.000Z</Time>
            <Position>
              <LatitudeDegrees>42.99348813481628894805908203125</LatitudeDegrees>
              <LongitudeDegrees>-1.7134043388068675994873046875</LongitudeDegrees>
            </Position>
            <AltitudeMeters>551</AltitudeMeters>
            <DistanceMeters>67286.142682759</DistanceMeters>
          </Trackpoint>
          <Trackpoint>
            <Time>2018-08-26T08:15:51.000Z</Time>
            <Position>
              <LatitudeDegrees>42.993420995771884918212890625</LatitudeDegrees>
              <LongitudeDegrees>-1.71331741847097873687744140625</LongitudeDegrees>
            </Position>
            <AltitudeMeters>551</AltitudeMeters>
            <DistanceMeters>67296.434124185</DistanceMeters>
          </Trackpoint>
          <Trackpoint>
            <Time>2018-08-26T08:15:52.000Z</Time>
            <Position>
              <LatitudeDegrees>42.993353269994258880615234375</LatitudeDegrees>
              <LongitudeDegrees>-1.71323074959218502044677734375</LongitudeDegrees>
            </Position>
            <AltitudeMeters>550.79998779296875</AltitudeMeters>
            <DistanceMeters>67306.759291617</DistanceMeters>
          </Trackpoint>
          <Trackpoint>
            <Time>2018-08-26T08:15:53.000Z</Time>
            <Position>
              <LatitudeDegrees>42.993285544216632843017578125</LatitudeDegrees>
              <LongitudeDegrees>-1.7131455056369304656982421875</LongitudeDegrees>
            </Position>
            <AltitudeMeters>550.79998779296875</AltitudeMeters>
            <DistanceMeters>67317.005445467</DistanceMeters>
          </Trackpoint>
          <Trackpoint>
            <Time>2018-08-26T08:15:54.000Z</Time>
            <Position>
              <LatitudeDegrees>42.99321941100060939788818359375</LatitudeDegrees>
              <LongitudeDegrees>-1.7130583338439464569091796875</LongitudeDegrees>
            </Position>
            <AltitudeMeters>550.79998779296875</AltitudeMeters>
            <DistanceMeters>67327.229984332</DistanceMeters>
          </Trackpoint>
          <Trackpoint>
            <Time>2018-08-26T08:15:55.000Z</Time>
            <Position>
              <LatitudeDegrees>42.99315587617456912994384765625</LatitudeDegrees>
              <LongitudeDegrees>-1.71296755783259868621826171875</LongitudeDegrees>
            </Position>
            <AltitudeMeters>550.79998779296875</AltitudeMeters>
            <DistanceMeters>67337.45849672</DistanceMeters>
          </Trackpoint>
          <Trackpoint>
            <Time>2018-08-26T08:15:56.000Z</Time>
            <Position>
              <LatitudeDegrees>42.993093430995941162109375</LatitudeDegrees>
              <LongitudeDegrees>-1.71287678182125091552734375</LongitudeDegrees>
            </Position>
            <AltitudeMeters>550.79998779296875</AltitudeMeters>
            <DistanceMeters>67347.602793204</DistanceMeters>
          </Trackpoint>
          <Trackpoint>
            <Time>2018-08-26T08:15:57.000Z</Time>
            <Position>
              <LatitudeDegrees>42.99303299747407436370849609375</LatitudeDegrees>
              <LongitudeDegrees>-1.7127834074199199676513671875</LongitudeDegrees>
            </Position>
            <AltitudeMeters>550.5999755859375</AltitudeMeters>
            <DistanceMeters>67357.752429261</DistanceMeters>
          </Trackpoint>
          <Trackpoint>
            <Time>2018-08-26T08:15:58.000Z</Time>
            <Position>
              <LatitudeDegrees>42.992973066866397857666015625</LatitudeDegrees>
              <LongitudeDegrees>-1.71268902719020843505859375</LongitudeDegrees>
            </Position>
            <AltitudeMeters>550.5999755859375</AltitudeMeters>
            <DistanceMeters>67367.927833749</DistanceMeters>
          </Trackpoint>
          <Trackpoint>
            <Time>2018-08-26T08:15:59.000Z</Time>
            <Position>
              <LatitudeDegrees>42.992914058268070220947265625</LatitudeDegrees>
              <LongitudeDegrees>-1.71259456314146518707275390625</LongitudeDegrees>
            </Position>
            <AltitudeMeters>550.4000244140625</AltitudeMeters>
            <DistanceMeters>67378.04092654</DistanceMeters>
          </Trackpoint>
          <Trackpoint>
            <Time>2018-08-26T08:16:00.000Z</Time>
            <Position>
              <LatitudeDegrees>42.99285806715488433837890625</LatitudeDegrees>
              <LongitudeDegrees>-1.7124979197978973388671875</LongitudeDegrees>
            </Position>
            <AltitudeMeters>550.4000244140625</AltitudeMeters>
            <DistanceMeters>67388.078284902</DistanceMeters>
          </Trackpoint>
          <Trackpoint>
            <Time>2018-08-26T08:16:01.000Z</Time>
            <Position>
              <LatitudeDegrees>42.99280442297458648681640625</LatitudeDegrees>
              <LongitudeDegrees>-1.71239960007369518280029296875</LongitudeDegrees>
            </Position>
            <AltitudeMeters>550.20001220703125</AltitudeMeters>
            <DistanceMeters>67398.064231736</DistanceMeters>
          </Trackpoint>
          <Trackpoint>
            <Time>2018-08-26T08:16:02.000Z</Time>
            <Position>
              <LatitudeDegrees>42.99275035969913005828857421875</LatitudeDegrees>
              <LongitudeDegrees>-1.712304465472698211669921875</LongitudeDegrees>
            </Position>
            <AltitudeMeters>550.20001220703125</AltitudeMeters>
            <DistanceMeters>67407.872719613</DistanceMeters>
          </Trackpoint>
          <Trackpoint>
            <Time>2018-08-26T08:16:03.000Z</Time>
            <Position>
              <LatitudeDegrees>42.99269579350948333740234375</LatitudeDegrees>
              <LongitudeDegrees>-1.71221117489039897918701171875</LongitudeDegrees>
            </Position>
            <AltitudeMeters>550</AltitudeMeters>
            <DistanceMeters>67417.597532753</DistanceMeters>
          </Trackpoint>
          <Trackpoint>
            <Time>2018-08-26T08:16:04.000Z</Time>
            <Position>
              <LatitudeDegrees>42.99264214932918548583984375</LatitudeDegrees>
              <LongitudeDegrees>-1.7121183872222900390625</LongitudeDegrees>
            </Position>
            <AltitudeMeters>549.79998779296875</AltitudeMeters>
            <DistanceMeters>67427.226229178</DistanceMeters>
          </Trackpoint>
          <Trackpoint>
            <Time>2018-08-26T08:16:05.000Z</Time>
            <Position>
              <LatitudeDegrees>42.99258942715823650360107421875</LatitudeDegrees>
              <LongitudeDegrees>-1.71202786266803741455078125</LongitudeDegrees>
            </Position>
            <AltitudeMeters>549.79998779296875</AltitudeMeters>
            <DistanceMeters>67436.646823177</DistanceMeters>
          </Trackpoint>
          <Trackpoint>
            <Time>2018-08-26T08:16:06.000Z</Time>
            <Position>
              <LatitudeDegrees>42.9925363697111606597900390625</LatitudeDegrees>
              <LongitudeDegrees>-1.711939014494419097900390625</LongitudeDegrees>
            </Position>
            <AltitudeMeters>549.5999755859375</AltitudeMeters>
            <DistanceMeters>67445.98461832</DistanceMeters>
          </Trackpoint>
          <Trackpoint>
            <Time>2018-08-26T08:16:07.000Z</Time>
            <Position>
              <LatitudeDegrees>42.99248163588345050811767578125</LatitudeDegrees>
              <LongitudeDegrees>-1.71185041777789592742919921875</LongitudeDegrees>
            </Position>
            <AltitudeMeters>549.5999755859375</AltitudeMeters>
            <DistanceMeters>67455.425320334</DistanceMeters>
          </Trackpoint>
          <Trackpoint>
            <Time>2018-08-26T08:16:08.000Z</Time>
            <Position>
              <LatitudeDegrees>42.9924247227609157562255859375</LatitudeDegrees>
              <LongitudeDegrees>-1.71176207251846790313720703125</LongitudeDegrees>
            </Position>
            <AltitudeMeters>549.4000244140625</AltitudeMeters>
            <DistanceMeters>67465.009366326</DistanceMeters>
          </Trackpoint>
          <Trackpoint>
            <Time>2018-08-26T08:16:09.000Z</Time>
            <Position>
              <LatitudeDegrees>42.9923647083342075347900390625</LatitudeDegrees>
              <LongitudeDegrees>-1.71167406253516674041748046875</LongitudeDegrees>
            </Position>
            <AltitudeMeters>549.4000244140625</AltitudeMeters>
            <DistanceMeters>67474.805878585</DistanceMeters>
          </Trackpoint>
          <Trackpoint>
            <Time>2018-08-26T08:16:10.000Z</Time>
            <Position>
              <LatitudeDegrees>42.99230108968913555145263671875</LatitudeDegrees>
              <LongitudeDegrees>-1.71158638782799243927001953125</LongitudeDegrees>
            </Position>
            <AltitudeMeters>549.4000244140625</AltitudeMeters>
            <DistanceMeters>67484.859866636</DistanceMeters>
          </Trackpoint>
          <Trackpoint>
            <Time>2018-08-26T08:16:11.000Z</Time>
            <Position>
              <LatitudeDegrees>42.992236129939556121826171875</LatitudeDegrees>
              <LongitudeDegrees>-1.7114974558353424072265625</LongitudeDegrees>
            </Position>
            <AltitudeMeters>549.20001220703125</AltitudeMeters>
            <DistanceMeters>67495.09190975</DistanceMeters>
          </Trackpoint>
          <Trackpoint>
            <Time>2018-08-26T08:16:12.000Z</Time>
            <Position>
              <LatitudeDegrees>42.992169074714183807373046875</LatitudeDegrees>
              <LongitudeDegrees>-1.71140919439494609832763671875</LongitudeDegrees>
            </Position>
            <AltitudeMeters>549.20001220703125</AltitudeMeters>
            <DistanceMeters>67505.452000899</DistanceMeters>
          </Trackpoint>
          <Trackpoint>
            <Time>2018-08-26T08:16:13.000Z</Time>
            <Position>
              <LatitudeDegrees>42.9921005107462406158447265625</LatitudeDegrees>
              <LongitudeDegrees>-1.71132118441164493560791015625</LongitudeDegrees>
            </Position>
            <AltitudeMeters>549</AltitudeMeters>
            <DistanceMeters>67515.919615124</DistanceMeters>
          </Trackpoint>
          <Trackpoint>
            <Time>2018-08-26T08:16:14.000Z</Time>
            <Position>
              <LatitudeDegrees>42.992031611502170562744140625</LatitudeDegrees>
              <LongitudeDegrees>-1.71123283915221691131591796875</LongitudeDegrees>
            </Position>
            <AltitudeMeters>549</AltitudeMeters>
            <DistanceMeters>67526.433710227</DistanceMeters>
          </Trackpoint>
          <Trackpoint>
            <Time>2018-08-26T08:16:15.000Z</Time>
            <Position>
              <LatitudeDegrees>42.9919620417058467864990234375</LatitudeDegrees>
              <LongitudeDegrees>-1.7111434042453765869140625</LongitudeDegrees>
            </Position>
            <AltitudeMeters>548.79998779296875</AltitudeMeters>
            <DistanceMeters>67537.062693546</DistanceMeters>
          </Trackpoint>
          <Trackpoint>
            <Time>2018-08-26T08:16:16.000Z</Time>
            <Position>
              <LatitudeDegrees>42.99189272336661815643310546875</LatitudeDegrees>
              <LongitudeDegrees>-1.7110520415008068084716796875</LongitudeDegrees>
            </Position>
            <AltitudeMeters>548.79998779296875</AltitudeMeters>
            <DistanceMeters>67547.780089328</DistanceMeters>
          </Trackpoint>
          <Trackpoint>
            <Time>2018-08-26T08:16:17.000Z</Time>
            <Position>
              <LatitudeDegrees>42.9918234050273895263671875</LatitudeDegrees>
              <LongitudeDegrees>-1.7109591700136661529541015625</LongitudeDegrees>
            </Position>
            <AltitudeMeters>548.5999755859375</AltitudeMeters>
            <DistanceMeters>67558.582248733</DistanceMeters>
          </Trackpoint>
          <Trackpoint>
            <Time>2018-08-26T08:16:18.000Z</Time>
            <Position>
              <LatitudeDegrees>42.9917531646788120269775390625</LatitudeDegrees>
              <LongitudeDegrees>-1.710866801440715789794921875</LongitudeDegrees>
            </Position>
            <AltitudeMeters>548.4000244140625</AltitudeMeters>
            <DistanceMeters>67569.429455566</DistanceMeters>
          </Trackpoint>
          <Trackpoint>
            <Time>2018-08-26T08:16:19.000Z</Time>
            <Position>
              <LatitudeDegrees>42.99168300814926624298095703125</LatitudeDegrees>
              <LongitudeDegrees>-1.71077585779130458831787109375</LongitudeDegrees>
            </Position>
            <AltitudeMeters>548</AltitudeMeters>
            <DistanceMeters>67580.190155833</DistanceMeters>
          </Trackpoint>
          <Trackpoint>
            <Time>2018-08-26T08:16:20.000Z</Time>
            <Position>
              <LatitudeDegrees>42.9916136898100376129150390625</LatitudeDegrees>
              <LongitudeDegrees>-1.71068499796092510223388671875</LongitudeDegrees>
            </Position>
            <AltitudeMeters>547.5999755859375</AltitudeMeters>
            <DistanceMeters>67590.8788661</DistanceMeters>
          </Trackpoint>
          <Trackpoint>
            <Time>2018-08-26T08:16:21.000Z</Time>
            <Position>
              <LatitudeDegrees>42.99154487438499927520751953125</LatitudeDegrees>
              <LongitudeDegrees>-1.71059430576860904693603515625</LongitudeDegrees>
            </Position>
            <AltitudeMeters>547.20001220703125</AltitudeMeters>
            <DistanceMeters>67601.517614999</DistanceMeters>
          </Trackpoint>
          <Trackpoint>
            <Time>2018-08-26T08:16:22.000Z</Time>
            <Position>
              <LatitudeDegrees>42.9914779029786586761474609375</LatitudeDegrees>
              <LongitudeDegrees>-1.71050445176661014556884765625</LongitudeDegrees>
            </Position>
            <AltitudeMeters>546.5999755859375</AltitudeMeters>
            <DistanceMeters>67611.961911215</DistanceMeters>
          </Trackpoint>
          <Trackpoint>
            <Time>2018-08-26T08:16:23.000Z</Time>
            <Position>
              <LatitudeDegrees>42.9914125241339206695556640625</LatitudeDegrees>
              <LongitudeDegrees>-1.710416190326213836669921875</LongitudeDegrees>
            </Position>
            <AltitudeMeters>546</AltitudeMeters>
            <DistanceMeters>67622.188657784</DistanceMeters>
          </Trackpoint>
          <Trackpoint>
            <Time>2018-08-26T08:16:24.000Z</Time>
            <Position>
              <LatitudeDegrees>42.99134823493659496307373046875</LatitudeDegrees>
              <LongitudeDegrees>-1.71033010818064212799072265625</LongitudeDegrees>
            </Position>
            <AltitudeMeters>545.5999755859375</AltitudeMeters>
            <DistanceMeters>67632.204852135</DistanceMeters>
          </Trackpoint>
          <Trackpoint>
            <Time>2018-08-26T08:16:25.000Z</Time>
            <Position>
              <LatitudeDegrees>42.99128419719636440277099609375</LatitudeDegrees>
              <LongitudeDegrees>-1.7102448642253875732421875</LongitudeDegrees>
            </Position>
            <AltitudeMeters>545.20001220703125</AltitudeMeters>
            <DistanceMeters>67642.153200633</DistanceMeters>
          </Trackpoint>
          <Trackpoint>
            <Time>2018-08-26T08:16:26.000Z</Time>
            <Position>
              <LatitudeDegrees>42.9912204109132289886474609375</LatitudeDegrees>
              <LongitudeDegrees>-1.71016012318432331085205078125</LongitudeDegrees>
            </Position>
            <AltitudeMeters>545.20001220703125</AltitudeMeters>
            <DistanceMeters>67652.052868286</DistanceMeters>
          </Trackpoint>
          <Trackpoint>
            <Time>2018-08-26T08:16:27.000Z</Time>
            <Position>
              <LatitudeDegrees>42.99115763045847415924072265625</LatitudeDegrees>
              <LongitudeDegrees>-1.71007747761905193328857421875</LongitudeDegrees>
            </Position>
            <AltitudeMeters>545</AltitudeMeters>
            <DistanceMeters>67661.753508812</DistanceMeters>
          </Trackpoint>
          <Trackpoint>
            <Time>2018-08-26T08:16:28.000Z</Time>
            <Position>
              <LatitudeDegrees>42.99109644256532192230224609375</LatitudeDegrees>
              <LongitudeDegrees>-1.7099955864250659942626953125</LongitudeDegrees>
            </Position>
            <AltitudeMeters>545</AltitudeMeters>
            <DistanceMeters>67671.283698153</DistanceMeters>
          </Trackpoint>
          <Trackpoint>
            <Time>2018-08-26T08:16:29.000Z</Time>
            <Position>
              <LatitudeDegrees>42.9910380207002162933349609375</LatitudeDegrees>
              <LongitudeDegrees>-1.70991470105946063995361328125</LongitudeDegrees>
            </Position>
            <AltitudeMeters>545</AltitudeMeters>
            <DistanceMeters>67680.538441536</DistanceMeters>
          </Trackpoint>
          <Trackpoint>
            <Time>2018-08-26T08:16:30.000Z</Time>
            <Position>
              <LatitudeDegrees>42.99097917973995208740234375</LatitudeDegrees>
              <LongitudeDegrees>-1.709835827350616455078125</LongitudeDegrees>
            </Position>
            <AltitudeMeters>545</AltitudeMeters>
            <DistanceMeters>67689.711350142</DistanceMeters>
          </Trackpoint>
          <Trackpoint>
            <Time>2018-08-26T08:16:31.000Z</Time>
            <Position>
              <LatitudeDegrees>42.99092092551290988922119140625</LatitudeDegrees>
              <LongitudeDegrees>-1.70975871384143829345703125</LongitudeDegrees>
            </Position>
            <AltitudeMeters>545</AltitudeMeters>
            <DistanceMeters>67698.736887223</DistanceMeters>
          </Trackpoint>
          <Trackpoint>
            <Time>2018-08-26T08:16:32.000Z</Time>
            <Position>
              <LatitudeDegrees>42.9908636771142482757568359375</LatitudeDegrees>
              <LongitudeDegrees>-1.709682941436767578125</LongitudeDegrees>
            </Position>
            <AltitudeMeters>545</AltitudeMeters>
            <DistanceMeters>67707.605481578</DistanceMeters>
          </Trackpoint>
          <Trackpoint>
            <Time>2018-08-26T08:16:33.000Z</Time>
            <Position>
              <LatitudeDegrees>42.99080894328653812408447265625</LatitudeDegrees>
              <LongitudeDegrees>-1.7096070013940334320068359375</LongitudeDegrees>
            </Position>
            <AltitudeMeters>545</AltitudeMeters>
            <DistanceMeters>67716.28470376</DistanceMeters>
          </Trackpoint>
          <Trackpoint>
            <Time>2018-08-26T08:16:34.000Z</Time>
            <Position>
              <LatitudeDegrees>42.9907547123730182647705078125</LatitudeDegrees>
              <LongitudeDegrees>-1.70953206717967987060546875</LongitudeDegrees>
            </Position>
            <AltitudeMeters>544.79998779296875</AltitudeMeters>
            <DistanceMeters>67724.866620998</DistanceMeters>
          </Trackpoint>
          <Trackpoint>
            <Time>2018-08-26T08:16:35.000Z</Time>
            <Position>
              <LatitudeDegrees>42.9907050915062427520751953125</LatitudeDegrees>
              <LongitudeDegrees>-1.709455288946628570556640625</LongitudeDegrees>
            </Position>
            <AltitudeMeters>545</AltitudeMeters>
            <DistanceMeters>67733.207888228</DistanceMeters>
          </Trackpoint>
          <Trackpoint>
            <Time>2018-08-26T08:16:36.000Z</Time>
            <Position>
              <LatitudeDegrees>42.99066343344748020172119140625</LatitudeDegrees>
              <LongitudeDegrees>-1.7093729786574840545654296875</LongitudeDegrees>
            </Position>
            <AltitudeMeters>545.20001220703125</AltitudeMeters>
            <DistanceMeters>67741.35694843</DistanceMeters>
          </Trackpoint>
          <Trackpoint>
            <Time>2018-08-26T08:16:37.000Z</Time>
            <Position>
              <LatitudeDegrees>42.990632168948650360107421875</LatitudeDegrees>
              <LongitudeDegrees>-1.70928438194096088409423828125</LongitudeDegrees>
            </Position>
            <AltitudeMeters>545.20001220703125</AltitudeMeters>
            <DistanceMeters>67749.365169387</DistanceMeters>
          </Trackpoint>
          <Trackpoint>
            <Time>2018-08-26T08:16:38.000Z</Time>
            <Position>
              <LatitudeDegrees>42.99060710705816745758056640625</LatitudeDegrees>
              <LongitudeDegrees>-1.7091946117579936981201171875</LongitudeDegrees>
            </Position>
            <AltitudeMeters>545.20001220703125</AltitudeMeters>
            <DistanceMeters>67757.187432358</DistanceMeters>
          </Trackpoint>
          <Trackpoint>
            <Time>2018-08-26T08:16:39.000Z</Time>
            <Position>
              <LatitudeDegrees>42.990585230290889739990234375</LatitudeDegrees>
              <LongitudeDegrees>-1.7091076076030731201171875</LongitudeDegrees>
            </Position>
            <AltitudeMeters>545</AltitudeMeters>
            <DistanceMeters>67764.677683685</DistanceMeters>
          </Trackpoint>
          <Trackpoint>
            <Time>2018-08-26T08:16:40.000Z</Time>
            <Position>
              <LatitudeDegrees>42.99056469462811946868896484375</LatitudeDegrees>
              <LongitudeDegrees>-1.709032170474529266357421875</LongitudeDegrees>
            </Position>
            <AltitudeMeters>545</AltitudeMeters>
            <DistanceMeters>67771.231083076</DistanceMeters>
          </Trackpoint>
          <Trackpoint>
            <Time>2018-08-26T08:16:41.000Z</Time>
            <Position>
              <LatitudeDegrees>42.99053686670958995819091796875</LatitudeDegrees>
              <LongitudeDegrees>-1.7089807055890560150146484375</LongitudeDegrees>
            </Position>
            <AltitudeMeters>545.4000244140625</AltitudeMeters>
            <DistanceMeters>67776.441112806</DistanceMeters>
          </Trackpoint>
          <Trackpoint>
            <Time>2018-08-26T08:16:42.000Z</Time>
            <Position>
              <LatitudeDegrees>42.99049747176468372344970703125</LatitudeDegrees>
              <LongitudeDegrees>-1.70897014439105987548828125</LongitudeDegrees>
            </Position>
            <AltitudeMeters>545.20001220703125</AltitudeMeters>
            <DistanceMeters>67780.909389769</DistanceMeters>
          </Trackpoint>
          <Trackpoint>
            <Time>2018-08-26T08:16:43.000Z</Time>
            <Position>
              <LatitudeDegrees>42.99046075902879238128662109375</LatitudeDegrees>
              <LongitudeDegrees>-1.7090004868805408477783203125</LongitudeDegrees>
            </Position>
            <AltitudeMeters>545.5999755859375</AltitudeMeters>
            <DistanceMeters>67785.685368527</DistanceMeters>
          </Trackpoint>
          <Trackpoint>
            <Time>2018-08-26T08:16:44.000Z</Time>
            <Position>
              <LatitudeDegrees>42.99043041653931140899658203125</LatitudeDegrees>
              <LongitudeDegrees>-1.70904784463346004486083984375</LongitudeDegrees>
            </Position>
            <AltitudeMeters>545.5999755859375</AltitudeMeters>
            <DistanceMeters>67790.809767253</DistanceMeters>
          </Trackpoint>
          <Trackpoint>
            <Time>2018-08-26T08:16:45.000Z</Time>
            <Position>
              <LatitudeDegrees>42.990396805107593536376953125</LatitudeDegrees>
              <LongitudeDegrees>-1.70908858068287372589111328125</LongitudeDegrees>
            </Position>
            <AltitudeMeters>545.5999755859375</AltitudeMeters>
            <DistanceMeters>67795.808389215</DistanceMeters>
          </Trackpoint>
          <Trackpoint>
            <Time>2018-08-26T08:16:46.000Z</Time>
            <Position>
              <LatitudeDegrees>42.99035766161978244781494140625</LatitudeDegrees>
              <LongitudeDegrees>-1.70911305584013462066650390625</LongitudeDegrees>
            </Position>
            <AltitudeMeters>545.5999755859375</AltitudeMeters>
            <DistanceMeters>67800.599469919</DistanceMeters>
          </Trackpoint>
          <Trackpoint>
            <Time>2018-08-26T08:16:47.000Z</Time>
            <Position>
              <LatitudeDegrees>42.99031793139874935150146484375</LatitudeDegrees>
              <LongitudeDegrees>-1.70913250185549259185791015625</LongitudeDegrees>
            </Position>
            <AltitudeMeters>545.79998779296875</AltitudeMeters>
            <DistanceMeters>67805.297289289</DistanceMeters>
          </Trackpoint>
          <Trackpoint>
            <Time>2018-08-26T08:16:48.000Z</Time>
            <Position>
              <LatitudeDegrees>42.9902806319296360015869140625</LatitudeDegrees>
              <LongitudeDegrees>-1.7091543786227703094482421875</LongitudeDegrees>
            </Position>
            <AltitudeMeters>545.79998779296875</AltitudeMeters>
            <DistanceMeters>67809.814807719</DistanceMeters>
          </Trackpoint>
          <Trackpoint>
            <Time>2018-08-26T08:16:49.000Z</Time>
            <Position>
              <LatitudeDegrees>42.99024500884115695953369140625</LatitudeDegrees>
              <LongitudeDegrees>-1.70917642302811145782470703125</LongitudeDegrees>
            </Position>
            <AltitudeMeters>545.79998779296875</AltitudeMeters>
            <DistanceMeters>67814.167404688</DistanceMeters>
          </Trackpoint>
          <Trackpoint>
            <Time>2018-08-26T08:16:50.000Z</Time>
            <Position>
              <LatitudeDegrees>42.99020863138139247894287109375</LatitudeDegrees>
              <LongitudeDegrees>-1.70917860232293605804443359375</LongitudeDegrees>
            </Position>
            <AltitudeMeters>545.79998779296875</AltitudeMeters>
            <DistanceMeters>67818.221382874</DistanceMeters>
          </Trackpoint>
          <Trackpoint>
            <Time>2018-08-26T08:16:51.000Z</Time>
            <Position>
              <LatitudeDegrees>42.99017594195902347564697265625</LatitudeDegrees>
              <LongitudeDegrees>-1.70915563590824604034423828125</LongitudeDegrees>
            </Position>
            <AltitudeMeters>545.79998779296875</AltitudeMeters>
            <DistanceMeters>67822.311949051</DistanceMeters>
          </Trackpoint>
          <Trackpoint>
            <Time>2018-08-26T08:16:52.000Z</Time>
            <Position>
              <LatitudeDegrees>42.990150712430477142333984375</LatitudeDegrees>
              <LongitudeDegrees>-1.70912143774330615997314453125</LongitudeDegrees>
            </Position>
            <AltitudeMeters>546</AltitudeMeters>
            <DistanceMeters>67826.265562882</DistanceMeters>
          </Trackpoint>
          <Trackpoint>
            <Time>2018-08-26T08:16:53.000Z</Time>
            <Position>
              <LatitudeDegrees>42.99013319425284862518310546875</LatitudeDegrees>
              <LongitudeDegrees>-1.70908086933195590972900390625</LongitudeDegrees>
            </Position>
            <AltitudeMeters>546</AltitudeMeters>
            <DistanceMeters>67830.100923951</DistanceMeters>
          </Trackpoint>
          <Trackpoint>
            <Time>2018-08-26T08:16:54.000Z</Time>
            <Position>
              <LatitudeDegrees>42.99011492170393466949462890625</LatitudeDegrees>
              <LongitudeDegrees>-1.70904281549155712127685546875</LongitudeDegrees>
            </Position>
            <AltitudeMeters>546</AltitudeMeters>
            <DistanceMeters>67833.808183902</DistanceMeters>
          </Trackpoint>
          <Trackpoint>
            <Time>2018-08-26T08:16:55.000Z</Time>
            <Position>
              <LatitudeDegrees>42.99009296111762523651123046875</LatitudeDegrees>
              <LongitudeDegrees>-1.7090179212391376495361328125</LongitudeDegrees>
            </Position>
            <AltitudeMeters>546</AltitudeMeters>
            <DistanceMeters>67836.984123982</DistanceMeters>
          </Trackpoint>
          <Trackpoint>
            <Time>2018-08-26T08:16:56.000Z</Time>
            <Position>
              <LatitudeDegrees>42.99007083289325237274169921875</LatitudeDegrees>
              <LongitudeDegrees>-1.7090075276792049407958984375</LongitudeDegrees>
            </Position>
            <AltitudeMeters>546</AltitudeMeters>
            <DistanceMeters>67839.588272097</DistanceMeters>
          </Trackpoint>
          <Trackpoint>
            <Time>2018-08-26T08:16:57.000Z</Time>
            <Position>
              <LatitudeDegrees>42.9900549910962581634521484375</LatitudeDegrees>
              <LongitudeDegrees>-1.7090018279850482940673828125</LongitudeDegrees>
            </Position>
            <AltitudeMeters>546</AltitudeMeters>
            <DistanceMeters>67841.411200547</DistanceMeters>
          </Trackpoint>
          <Trackpoint>
            <Time>2018-08-26T08:16:58.000Z</Time>
            <Position>
              <LatitudeDegrees>42.99004451371729373931884765625</LatitudeDegrees>
              <LongitudeDegrees>-1.70900090597569942474365234375</LongitudeDegrees>
            </Position>
            <AltitudeMeters>546.20001220703125</AltitudeMeters>
            <DistanceMeters>67842.582768564</DistanceMeters>
          </Trackpoint>
          <Trackpoint>
            <Time>2018-08-26T08:16:59.000Z</Time>
            <Position>
              <LatitudeDegrees>42.9900362156331539154052734375</LatitudeDegrees>
              <LongitudeDegrees>-1.70900492928922176361083984375</LongitudeDegrees>
            </Position>
            <AltitudeMeters>546.20001220703125</AltitudeMeters>
            <DistanceMeters>67843.561128469</DistanceMeters>
          </Trackpoint>
          <Trackpoint>
            <Time>2018-08-26T08:17:00.000Z</Time>
            <Position>
              <LatitudeDegrees>42.9900301806628704071044921875</LatitudeDegrees>
              <LongitudeDegrees>-1.709010712802410125732421875</LongitudeDegrees>
            </Position>
            <AltitudeMeters>546.4000244140625</AltitudeMeters>
            <DistanceMeters>67844.384083956</DistanceMeters>
          </Trackpoint>
          <Trackpoint>
            <Time>2018-08-26T08:17:01.000Z</Time>
            <Position>
              <LatitudeDegrees>42.99002707935869693756103515625</LatitudeDegrees>
              <LongitudeDegrees>-1.7090137302875518798828125</LongitudeDegrees>
            </Position>
            <AltitudeMeters>546.4000244140625</AltitudeMeters>
            <DistanceMeters>67844.809056342</DistanceMeters>
          </Trackpoint>
          <Trackpoint>
            <Time>2018-08-26T09:33:11.000Z</Time>
            <Position>
              <LatitudeDegrees>42.99004065804183483123779296875</LatitudeDegrees>
              <LongitudeDegrees>-1.70893753878772258758544921875</LongitudeDegrees>
            </Position>
            <AltitudeMeters>561.20001220703125</AltitudeMeters>
            <DistanceMeters>67851.193550454</DistanceMeters>
          </Trackpoint>
          <Trackpoint>
            <Time>2018-08-26T09:33:12.000Z</Time>
            <Position>
              <LatitudeDegrees>42.9900395683944225311279296875</LatitudeDegrees>
              <LongitudeDegrees>-1.70894005335867404937744140625</LongitudeDegrees>
            </Position>
            <AltitudeMeters>561.20001220703125</AltitudeMeters>
            <DistanceMeters>67851.426317416</DistanceMeters>
          </Trackpoint>
          <Trackpoint>
            <Time>2018-08-26T09:33:18.000Z</Time>
            <Position>
              <LatitudeDegrees>42.99007795751094818115234375</LatitudeDegrees>
              <LongitudeDegrees>-1.70894608832895755767822265625</LongitudeDegrees>
            </Position>
            <AltitudeMeters>561.5999755859375</AltitudeMeters>
            <DistanceMeters>67855.728834901</DistanceMeters>
          </Trackpoint>
          <Trackpoint>
            <Time>2018-08-26T09:33:19.000Z</Time>
            <Position>
              <LatitudeDegrees>42.99008977599442005157470703125</LatitudeDegrees>
              <LongitudeDegrees>-1.70894868671894073486328125</LongitudeDegrees>
            </Position>
            <AltitudeMeters>561.5999755859375</AltitudeMeters>
            <DistanceMeters>67857.065979297</DistanceMeters>
          </Trackpoint>
          <Trackpoint>
            <Time>2018-08-26T09:33:20.000Z</Time>
            <Position>
              <LatitudeDegrees>42.99010503105819225311279296875</LatitudeDegrees>
              <LongitudeDegrees>-1.7089602537453174591064453125</LongitudeDegrees>
            </Position>
            <AltitudeMeters>561.5999755859375</AltitudeMeters>
            <DistanceMeters>67859.008805062</DistanceMeters>
          </Trackpoint>
          <Trackpoint>
            <Time>2018-08-26T09:33:21.000Z</Time>
            <Position>
              <LatitudeDegrees>42.99012581817805767059326171875</LatitudeDegrees>
              <LongitudeDegrees>-1.70898095704615116119384765625</LongitudeDegrees>
            </Position>
            <AltitudeMeters>561.5999755859375</AltitudeMeters>
            <DistanceMeters>67861.87224869</DistanceMeters>
          </Trackpoint>
          <Trackpoint>
            <Time>2018-08-26T09:33:22.000Z</Time>
            <Position>
              <LatitudeDegrees>42.99014610238373279571533203125</LatitudeDegrees>
              <LongitudeDegrees>-1.70900912024080753326416015625</LongitudeDegrees>
            </Position>
            <AltitudeMeters>561.5999755859375</AltitudeMeters>
            <DistanceMeters>67865.089152109</DistanceMeters>
          </Trackpoint>
          <Trackpoint>
            <Time>2018-08-26T09:33:23.000Z</Time>
            <Position>
              <LatitudeDegrees>42.99016378819942474365234375</LatitudeDegrees>
              <LongitudeDegrees>-1.70904214493930339813232421875</LongitudeDegrees>
            </Position>
            <AltitudeMeters>561.5999755859375</AltitudeMeters>
            <DistanceMeters>67868.419157195</DistanceMeters>
          </Trackpoint>
          <Trackpoint>
            <Time>2018-08-26T09:33:24.000Z</Time>
            <Position>
              <LatitudeDegrees>42.99016378819942474365234375</LatitudeDegrees>
              <LongitudeDegrees>-1.70904214493930339813232421875</LongitudeDegrees>
            </Position>
            <AltitudeMeters>561.5999755859375</AltitudeMeters>
            <DistanceMeters>67868.419157195</DistanceMeters>
          </Trackpoint>
          <Trackpoint>
            <Time>2018-08-26T09:33:25.000Z</Time>
            <Position>
              <LatitudeDegrees>42.99020536243915557861328125</LatitudeDegrees>
              <LongitudeDegrees>-1.709107942879199981689453125</LongitudeDegrees>
            </Position>
            <AltitudeMeters>561.4000244140625</AltitudeMeters>
            <DistanceMeters>67875.498487973</DistanceMeters>
          </Trackpoint>
          <Trackpoint>
            <Time>2018-08-26T09:33:26.000Z</Time>
            <Position>
              <LatitudeDegrees>42.990232519805431365966796875</LatitudeDegrees>
              <LongitudeDegrees>-1.70912244357168674468994140625</LongitudeDegrees>
            </Position>
            <AltitudeMeters>561.4000244140625</AltitudeMeters>
            <DistanceMeters>67878.743340687</DistanceMeters>
          </Trackpoint>
          <Trackpoint>
            <Time>2018-08-26T09:33:27.000Z</Time>
            <Position>
              <LatitudeDegrees>42.9902625270187854766845703125</LatitudeDegrees>
              <LongitudeDegrees>-1.709124036133289337158203125</LongitudeDegrees>
            </Position>
            <AltitudeMeters>561.20001220703125</AltitudeMeters>
            <DistanceMeters>67882.086876934</DistanceMeters>
          </Trackpoint>
          <Trackpoint>
            <Time>2018-08-26T09:33:28.000Z</Time>
            <Position>
              <LatitudeDegrees>42.9902953840792179107666015625</LatitudeDegrees>
              <LongitudeDegrees>-1.70911171473562717437744140625</LongitudeDegrees>
            </Position>
            <AltitudeMeters>561</AltitudeMeters>
            <DistanceMeters>67885.878430929</DistanceMeters>
          </Trackpoint>
          <Trackpoint>
            <Time>2018-08-26T09:33:29.000Z</Time>
            <Position>
              <LatitudeDegrees>42.9903302527964115142822265625</LatitudeDegrees>
              <LongitudeDegrees>-1.70909394510090351104736328125</LongitudeDegrees>
            </Position>
            <AltitudeMeters>561</AltitudeMeters>
            <DistanceMeters>67890.020549378</DistanceMeters>
          </Trackpoint>
          <Trackpoint>
            <Time>2018-08-26T09:33:30.000Z</Time>
            <Position>
              <LatitudeDegrees>42.99036570824682712554931640625</LatitudeDegrees>
              <LongitudeDegrees>-1.70907751657068729400634765625</LongitudeDegrees>
            </Position>
            <AltitudeMeters>561</AltitudeMeters>
            <DistanceMeters>67894.186579494</DistanceMeters>
          </Trackpoint>
          <Trackpoint>
            <Time>2018-08-26T09:33:31.000Z</Time>
            <Position>
              <LatitudeDegrees>42.990400828421115875244140625</LatitudeDegrees>
              <LongitudeDegrees>-1.7090638540685176849365234375</LongitudeDegrees>
            </Position>
            <AltitudeMeters>560.79998779296875</AltitudeMeters>
            <DistanceMeters>67898.250568891</DistanceMeters>
          </Trackpoint>
          <Trackpoint>
            <Time>2018-08-26T09:33:32.000Z</Time>
            <Position>
              <LatitudeDegrees>42.99043779261410236358642578125</LatitudeDegrees>
              <LongitudeDegrees>-1.7090430669486522674560546875</LongitudeDegrees>
            </Position>
            <AltitudeMeters>560.79998779296875</AltitudeMeters>
            <DistanceMeters>67902.698590641</DistanceMeters>
          </Trackpoint>
          <Trackpoint>
            <Time>2018-08-26T09:33:33.000Z</Time>
            <Position>
              <LatitudeDegrees>42.99046997912228107452392578125</LatitudeDegrees>
              <LongitudeDegrees>-1.70901314355432987213134765625</LongitudeDegrees>
            </Position>
            <AltitudeMeters>560.5999755859375</AltitudeMeters>
            <DistanceMeters>67907.030391519</DistanceMeters>
          </Trackpoint>
          <Trackpoint>
            <Time>2018-08-26T09:33:34.000Z</Time>
            <Position>
              <LatitudeDegrees>42.99049931578338146209716796875</LatitudeDegrees>
              <LongitudeDegrees>-1.708975844085216522216796875</LongitudeDegrees>
            </Position>
            <AltitudeMeters>560.5999755859375</AltitudeMeters>
            <DistanceMeters>67911.489565022</DistanceMeters>
          </Trackpoint>
          <Trackpoint>
            <Time>2018-08-26T09:33:35.000Z</Time>
            <Position>
              <LatitudeDegrees>42.99049931578338146209716796875</LatitudeDegrees>
              <LongitudeDegrees>-1.708975844085216522216796875</LongitudeDegrees>
            </Position>
            <AltitudeMeters>560.5999755859375</AltitudeMeters>
            <DistanceMeters>67911.489565022</DistanceMeters>
          </Trackpoint>
          <Trackpoint>
            <Time>2018-08-26T09:33:36.000Z</Time>
            <Position>
              <LatitudeDegrees>42.9905377887189388275146484375</LatitudeDegrees>
              <LongitudeDegrees>-1.70889562927186489105224609375</LongitudeDegrees>
            </Position>
            <AltitudeMeters>560.4000244140625</AltitudeMeters>
            <DistanceMeters>67919.29911919</DistanceMeters>
          </Trackpoint>
          <Trackpoint>
            <Time>2018-08-26T09:33:37.000Z</Time>
            <Position>
              <LatitudeDegrees>42.9905408062040805816650390625</LatitudeDegrees>
              <LongitudeDegrees>-1.7088559828698635101318359375</LongitudeDegrees>
            </Position>
            <AltitudeMeters>560.20001220703125</AltitudeMeters>
            <DistanceMeters>67922.543971904</DistanceMeters>
          </Trackpoint>
          <Trackpoint>
            <Time>2018-08-26T09:33:38.000Z</Time>
            <Position>
              <LatitudeDegrees>42.990534268319606781005859375</LatitudeDegrees>
              <LongitudeDegrees>-1.70881315134465694427490234375</LongitudeDegrees>
            </Position>
            <AltitudeMeters>560.20001220703125</AltitudeMeters>
            <DistanceMeters>67926.105889562</DistanceMeters>
          </Trackpoint>
          <Trackpoint>
            <Time>2018-08-26T09:33:39.000Z</Time>
            <Position>
              <LatitudeDegrees>42.99052320420742034912109375</LatitudeDegrees>
              <LongitudeDegrees>-1.70876889489591121673583984375</LongitudeDegrees>
            </Position>
            <AltitudeMeters>560.20001220703125</AltitudeMeters>
            <DistanceMeters>67929.914078471</DistanceMeters>
          </Trackpoint>
          <Trackpoint>
            <Time>2018-08-26T09:33:40.000Z</Time>
            <Position>
              <LatitudeDegrees>42.99052320420742034912109375</LatitudeDegrees>
              <LongitudeDegrees>-1.70876889489591121673583984375</LongitudeDegrees>
            </Position>
            <AltitudeMeters>560.20001220703125</AltitudeMeters>
            <DistanceMeters>67929.914078471</DistanceMeters>
          </Trackpoint>
          <Trackpoint>
            <Time>2018-08-26T09:33:41.000Z</Time>
            <Position>
              <LatitudeDegrees>42.99051138572394847869873046875</LatitudeDegrees>
              <LongitudeDegrees>-1.70872480608522891998291015625</LongitudeDegrees>
            </Position>
            <AltitudeMeters>560.20001220703125</AltitudeMeters>
            <DistanceMeters>67933.736468259</DistanceMeters>
          </Trackpoint>
          <Trackpoint>
            <Time>2018-08-26T09:33:42.000Z</Time>
            <Position>
              <LatitudeDegrees>42.9904983937740325927734375</LatitudeDegrees>
              <LongitudeDegrees>-1.70867367647588253021240234375</LongitudeDegrees>
            </Position>
            <AltitudeMeters>560.20001220703125</AltitudeMeters>
            <DistanceMeters>67938.142675738</DistanceMeters>
          </Trackpoint>
          <Trackpoint>
            <Time>2018-08-26T09:33:43.000Z</Time>
            <Position>
              <LatitudeDegrees>42.9904653690755367279052734375</LatitudeDegrees>
              <LongitudeDegrees>-1.70856554992496967315673828125</LongitudeDegrees>
            </Position>
            <AltitudeMeters>560.20001220703125</AltitudeMeters>
            <DistanceMeters>67947.682335606</DistanceMeters>
          </Trackpoint>
          <Trackpoint>
            <Time>2018-08-26T09:33:44.000Z</Time>
            <Position>
              <LatitudeDegrees>42.99044516868889331817626953125</LatitudeDegrees>
              <LongitudeDegrees>-1.70850872062146663665771484375</LongitudeDegrees>
            </Position>
            <AltitudeMeters>560</AltitudeMeters>
            <DistanceMeters>67952.82608171</DistanceMeters>
          </Trackpoint>
          <Trackpoint>
            <Time>2018-08-26T09:33:45.000Z</Time>
            <Position>
              <LatitudeDegrees>42.99044516868889331817626953125</LatitudeDegrees>
              <LongitudeDegrees>-1.70850872062146663665771484375</LongitudeDegrees>
            </Position>
            <AltitudeMeters>560</AltitudeMeters>
            <DistanceMeters>67952.82608171</DistanceMeters>
          </Trackpoint>
          <Trackpoint>
            <Time>2018-08-26T09:33:46.000Z</Time>
            <Position>
              <LatitudeDegrees>42.9904234595596790313720703125</LatitudeDegrees>
              <LongitudeDegrees>-1.7084506340324878692626953125</LongitudeDegrees>
            </Position>
            <AltitudeMeters>560</AltitudeMeters>
            <DistanceMeters>67958.135686089</DistanceMeters>
          </Trackpoint>
          <Trackpoint>
            <Time>2018-08-26T09:33:47.000Z</Time>
            <Position>
              <LatitudeDegrees>42.99040040932595729827880859375</LatitudeDegrees>
              <LongitudeDegrees>-1.70839288271963596343994140625</LongitudeDegrees>
            </Position>
            <AltitudeMeters>560</AltitudeMeters>
            <DistanceMeters>67963.49101267</DistanceMeters>
          </Trackpoint>
          <Trackpoint>
            <Time>2018-08-26T09:33:48.000Z</Time>
            <Position>
              <LatitudeDegrees>42.9903741739690303802490234375</LatitudeDegrees>
              <LongitudeDegrees>-1.70833387412130832672119140625</LongitudeDegrees>
            </Position>
            <AltitudeMeters>560</AltitudeMeters>
            <DistanceMeters>67969.112868907</DistanceMeters>
          </Trackpoint>
          <Trackpoint>
            <Time>2018-08-26T09:33:49.000Z</Time>
            <Position>
              <LatitudeDegrees>42.9903453402221202850341796875</LatitudeDegrees>
              <LongitudeDegrees>-1.70827335678040981292724609375</LongitudeDegrees>
            </Position>
            <AltitudeMeters>560</AltitudeMeters>
            <DistanceMeters>67974.992250901</DistanceMeters>
          </Trackpoint>
          <Trackpoint>
            <Time>2018-08-26T09:33:50.000Z</Time>
            <Position>
              <LatitudeDegrees>42.99031357280910015106201171875</LatitudeDegrees>
              <LongitudeDegrees>-1.708213426172733306884765625</LongitudeDegrees>
            </Position>
            <AltitudeMeters>560</AltitudeMeters>
            <DistanceMeters>67981.017274328</DistanceMeters>
          </Trackpoint>
          <Trackpoint>
            <Time>2018-08-26T09:33:51.000Z</Time>
            <Position>
              <LatitudeDegrees>42.990279458463191986083984375</LatitudeDegrees>
              <LongitudeDegrees>-1.70815408229827880859375</LongitudeDegrees>
            </Position>
            <AltitudeMeters>560</AltitudeMeters>
            <DistanceMeters>67987.162498465</DistanceMeters>
          </Trackpoint>
          <Trackpoint>
            <Time>2018-08-26T09:33:52.000Z</Time>
            <Position>
              <LatitudeDegrees>42.9902440868318080902099609375</LatitudeDegrees>
              <LongitudeDegrees>-1.70809532515704631805419921875</LongitudeDegrees>
            </Position>
            <AltitudeMeters>560</AltitudeMeters>
            <DistanceMeters>67993.357482314</DistanceMeters>
          </Trackpoint>
          <Trackpoint>
            <Time>2018-08-26T09:33:53.000Z</Time>
            <Position>
              <LatitudeDegrees>42.99020863138139247894287109375</LatitudeDegrees>
              <LongitudeDegrees>-1.7080375738441944122314453125</LongitudeDegrees>
            </Position>
            <AltitudeMeters>559.79998779296875</AltitudeMeters>
            <DistanceMeters>67999.496090381</DistanceMeters>
          </Trackpoint>
          <Trackpoint>
            <Time>2018-08-26T09:33:54.000Z</Time>
            <Position>
              <LatitudeDegrees>42.9901726730167865753173828125</LatitudeDegrees>
              <LongitudeDegrees>-1.70798267237842082977294921875</LongitudeDegrees>
            </Position>
            <AltitudeMeters>559.79998779296875</AltitudeMeters>
            <DistanceMeters>68005.495580751</DistanceMeters>
          </Trackpoint>
          <Trackpoint>
            <Time>2018-08-26T09:33:55.000Z</Time>
            <Position>
              <LatitudeDegrees>42.9900960624217987060546875</LatitudeDegrees>
              <LongitudeDegrees>-1.70788024552166461944580078125</LongitudeDegrees>
            </Position>
            <AltitudeMeters>559.79998779296875</AltitudeMeters>
            <DistanceMeters>68017.422095923</DistanceMeters>
          </Trackpoint>
          <Trackpoint>
            <Time>2018-08-26T09:33:56.000Z</Time>
            <Position>
              <LatitudeDegrees>42.9900960624217987060546875</LatitudeDegrees>
              <LongitudeDegrees>-1.70788024552166461944580078125</LongitudeDegrees>
            </Position>
            <AltitudeMeters>559.79998779296875</AltitudeMeters>
            <DistanceMeters>68017.422095923</DistanceMeters>
          </Trackpoint>
          <Trackpoint>
            <Time>2018-08-26T09:33:57.000Z</Time>
            <Position>
              <LatitudeDegrees>42.99005524255335330963134765625</LatitudeDegrees>
              <LongitudeDegrees>-1.70783079229295253753662109375</LongitudeDegrees>
            </Position>
            <AltitudeMeters>559.79998779296875</AltitudeMeters>
            <DistanceMeters>68023.492659486</DistanceMeters>
          </Trackpoint>
          <Trackpoint>
            <Time>2018-08-26T09:33:58.000Z</Time>
            <Position>
              <LatitudeDegrees>42.990012578666210174560546875</LatitudeDegrees>
              <LongitudeDegrees>-1.7077824287116527557373046875</LongitudeDegrees>
            </Position>
            <AltitudeMeters>559.79998779296875</AltitudeMeters>
            <DistanceMeters>68029.661349957</DistanceMeters>
          </Trackpoint>
          <Trackpoint>
            <Time>2018-08-26T09:33:59.000Z</Time>
            <Position>
              <LatitudeDegrees>42.98992616124451160430908203125</LatitudeDegrees>
              <LongitudeDegrees>-1.70768209733068943023681640625</LongitudeDegrees>
            </Position>
            <AltitudeMeters>559.5999755859375</AltitudeMeters>
            <DistanceMeters>68042.280239291</DistanceMeters>
          </Trackpoint>
          <Trackpoint>
            <Time>2018-08-26T09:34:00.000Z</Time>
            <Position>
              <LatitudeDegrees>42.98988207243382930755615234375</LatitudeDegrees>
              <LongitudeDegrees>-1.70763172209262847900390625</LongitudeDegrees>
            </Position>
            <AltitudeMeters>559.5999755859375</AltitudeMeters>
            <DistanceMeters>68048.676038404</DistanceMeters>
          </Trackpoint>
          <Trackpoint>
            <Time>2018-08-26T09:34:01.000Z</Time>
            <Position>
              <LatitudeDegrees>42.98988207243382930755615234375</LatitudeDegrees>
              <LongitudeDegrees>-1.70763172209262847900390625</LongitudeDegrees>
            </Position>
            <AltitudeMeters>559.5999755859375</AltitudeMeters>
            <DistanceMeters>68048.676038404</DistanceMeters>
          </Trackpoint>
          <Trackpoint>
            <Time>2018-08-26T09:34:02.000Z</Time>
            <Position>
              <LatitudeDegrees>42.98983831889927387237548828125</LatitudeDegrees>
              <LongitudeDegrees>-1.7075805924832820892333984375</LongitudeDegrees>
            </Position>
            <AltitudeMeters>559.5999755859375</AltitudeMeters>
            <DistanceMeters>68055.082417837</DistanceMeters>
          </Trackpoint>
          <Trackpoint>
            <Time>2018-08-26T09:34:03.000Z</Time>
            <Position>
              <LatitudeDegrees>42.9897951520979404449462890625</LatitudeDegrees>
              <LongitudeDegrees>-1.707527451217174530029296875</LongitudeDegrees>
            </Position>
            <AltitudeMeters>559.4000244140625</AltitudeMeters>
            <DistanceMeters>68061.54842541</DistanceMeters>
          </Trackpoint>
          <Trackpoint>
            <Time>2018-08-26T09:34:04.000Z</Time>
            <Position>
              <LatitudeDegrees>42.98975198529660701751708984375</LatitudeDegrees>
              <LongitudeDegrees>-1.70747338794171810150146484375</LongitudeDegrees>
            </Position>
            <AltitudeMeters>559.4000244140625</AltitudeMeters>
            <DistanceMeters>68068.065207554</DistanceMeters>
          </Trackpoint>
          <Trackpoint>
            <Time>2018-08-26T09:34:05.000Z</Time>
            <Position>
              <LatitudeDegrees>42.98966498114168643951416015625</LatitudeDegrees>
              <LongitudeDegrees>-1.7073643393814563751220703125</LongitudeDegrees>
            </Position>
            <AltitudeMeters>559.20001220703125</AltitudeMeters>
            <DistanceMeters>68081.202973009</DistanceMeters>
          </Trackpoint>
          <Trackpoint>
            <Time>2018-08-26T09:34:06.000Z</Time>
            <Position>
              <LatitudeDegrees>42.9896218143403530120849609375</LatitudeDegrees>
              <LongitudeDegrees>-1.70730943791568279266357421875</LongitudeDegrees>
            </Position>
            <AltitudeMeters>559</AltitudeMeters>
            <DistanceMeters>68087.764634726</DistanceMeters>
          </Trackpoint>
          <Trackpoint>
            <Time>2018-08-26T09:34:07.000Z</Time>
            <Position>
              <LatitudeDegrees>42.98957898281514644622802734375</LatitudeDegrees>
              <LongitudeDegrees>-1.70725353062152862548828125</LongitudeDegrees>
            </Position>
            <AltitudeMeters>558.79998779296875</AltitudeMeters>
            <DistanceMeters>68094.355133015</DistanceMeters>
          </Trackpoint>
          <Trackpoint>
            <Time>2018-08-26T09:34:08.000Z</Time>
            <Position>
              <LatitudeDegrees>42.98957898281514644622802734375</LatitudeDegrees>
              <LongitudeDegrees>-1.70725353062152862548828125</LongitudeDegrees>
            </Position>
            <AltitudeMeters>558.79998779296875</AltitudeMeters>
            <DistanceMeters>68094.355133015</DistanceMeters>
          </Trackpoint>
          <Trackpoint>
            <Time>2018-08-26T09:34:09.000Z</Time>
            <Position>
              <LatitudeDegrees>42.98949323594570159912109375</LatitudeDegrees>
              <LongitudeDegrees>-1.70714062638580799102783203125</LongitudeDegrees>
            </Position>
            <AltitudeMeters>558.79998779296875</AltitudeMeters>
            <DistanceMeters>68107.605823803</DistanceMeters>
          </Trackpoint>
          <Trackpoint>
            <Time>2018-08-26T09:34:10.000Z</Time>
            <Position>
              <LatitudeDegrees>42.98949323594570159912109375</LatitudeDegrees>
              <LongitudeDegrees>-1.70714062638580799102783203125</LongitudeDegrees>
            </Position>
            <AltitudeMeters>558.79998779296875</AltitudeMeters>
            <DistanceMeters>68107.605823803</DistanceMeters>
          </Trackpoint>
          <Trackpoint>
            <Time>2018-08-26T09:34:11.000Z</Time>
            <Position>
              <LatitudeDegrees>42.9894484765827655792236328125</LatitudeDegrees>
              <LongitudeDegrees>-1.70708631165325641632080078125</LongitudeDegrees>
            </Position>
            <AltitudeMeters>558.79998779296875</AltitudeMeters>
            <DistanceMeters>68114.266511874</DistanceMeters>
          </Trackpoint>
          <Trackpoint>
            <Time>2018-08-26T09:34:12.000Z</Time>
            <Position>
              <LatitudeDegrees>42.9894025437533855438232421875</LatitudeDegrees>
              <LongitudeDegrees>-1.7070317454636096954345703125</LongitudeDegrees>
            </Position>
            <AltitudeMeters>558.79998779296875</AltitudeMeters>
            <DistanceMeters>68121.039457196</DistanceMeters>
          </Trackpoint>
          <Trackpoint>
            <Time>2018-08-26T09:34:13.000Z</Time>
            <Position>
              <LatitudeDegrees>42.98935585655272006988525390625</LatitudeDegrees>
              <LongitudeDegrees>-1.70697550289332866668701171875</LongitudeDegrees>
            </Position>
            <AltitudeMeters>558.5999755859375</AltitudeMeters>
            <DistanceMeters>68127.966637446</DistanceMeters>
          </Trackpoint>
          <Trackpoint>
            <Time>2018-08-26T09:34:14.000Z</Time>
            <Position>
              <LatitudeDegrees>42.989308834075927734375</LatitudeDegrees>
              <LongitudeDegrees>-1.7069187574088573455810546875</LongitudeDegrees>
            </Position>
            <AltitudeMeters>558.5999755859375</AltitudeMeters>
            <DistanceMeters>68134.948353041</DistanceMeters>
          </Trackpoint>
          <Trackpoint>
            <Time>2018-08-26T09:34:15.000Z</Time>
            <Position>
              <LatitudeDegrees>42.98926130868494510650634765625</LatitudeDegrees>
              <LongitudeDegrees>-1.706860922276973724365234375</LongitudeDegrees>
            </Position>
            <AltitudeMeters>558.4000244140625</AltitudeMeters>
            <DistanceMeters>68142.030234469</DistanceMeters>
          </Trackpoint>
          <Trackpoint>
            <Time>2018-08-26T09:34:16.000Z</Time>
            <Position>
              <LatitudeDegrees>42.98921319656074047088623046875</LatitudeDegrees>
              <LongitudeDegrees>-1.706801913678646087646484375</LongitudeDegrees>
            </Position>
            <AltitudeMeters>558.4000244140625</AltitudeMeters>
            <DistanceMeters>68149.224704441</DistanceMeters>
          </Trackpoint>
          <Trackpoint>
            <Time>2018-08-26T09:34:17.000Z</Time>
            <Position>
              <LatitudeDegrees>42.9891638271510601043701171875</LatitudeDegrees>
              <LongitudeDegrees>-1.70674231834709644317626953125</LongitudeDegrees>
            </Position>
            <AltitudeMeters>558.20001220703125</AltitudeMeters>
            <DistanceMeters>68156.555940012</DistanceMeters>
          </Trackpoint>
          <Trackpoint>
            <Time>2018-08-26T09:34:18.000Z</Time>
            <Position>
              <LatitudeDegrees>42.9891125299036502838134765625</LatitudeDegrees>
              <LongitudeDegrees>-1.70668364502489566802978515625</LongitudeDegrees>
            </Position>
            <AltitudeMeters>558.20001220703125</AltitudeMeters>
            <DistanceMeters>68164.000844928</DistanceMeters>
          </Trackpoint>
          <Trackpoint>
            <Time>2018-08-26T09:34:19.000Z</Time>
            <Position>
              <LatitudeDegrees>42.98906098119914531707763671875</LatitudeDegrees>
              <LongitudeDegrees>-1.70662396587431430816650390625</LongitudeDegrees>
            </Position>
            <AltitudeMeters>558</AltitudeMeters>
            <DistanceMeters>68171.519373943</DistanceMeters>
          </Trackpoint>
          <Trackpoint>
            <Time>2018-08-26T09:34:20.000Z</Time>
            <Position>
              <LatitudeDegrees>42.98900985158979892730712890625</LatitudeDegrees>
              <LongitudeDegrees>-1.706562526524066925048828125</LongitudeDegrees>
            </Position>
            <AltitudeMeters>558</AltitudeMeters>
            <DistanceMeters>68179.09652552</DistanceMeters>
          </Trackpoint>
          <Trackpoint>
            <Time>2018-08-26T09:34:21.000Z</Time>
            <Position>
              <LatitudeDegrees>42.98895738087594509124755859375</LatitudeDegrees>
              <LongitudeDegrees>-1.706501506268978118896484375</LongitudeDegrees>
            </Position>
            <AltitudeMeters>557.79998779296875</AltitudeMeters>
            <DistanceMeters>68186.763715204</DistanceMeters>
          </Trackpoint>
          <Trackpoint>
            <Time>2018-08-26T09:34:22.000Z</Time>
            <Position>
              <LatitudeDegrees>42.98890390433371067047119140625</LatitudeDegrees>
              <LongitudeDegrees>-1.7064413242042064666748046875</LongitudeDegrees>
            </Position>
            <AltitudeMeters>557.79998779296875</AltitudeMeters>
            <DistanceMeters>68194.473187505</DistanceMeters>
          </Trackpoint>
          <Trackpoint>
            <Time>2018-08-26T09:34:23.000Z</Time>
            <Position>
              <LatitudeDegrees>42.98885084688663482666015625</LatitudeDegrees>
              <LongitudeDegrees>-1.70637913048267364501953125</LongitudeDegrees>
            </Position>
            <AltitudeMeters>557.5999755859375</AltitudeMeters>
            <DistanceMeters>68202.252620153</DistanceMeters>
          </Trackpoint>
          <Trackpoint>
            <Time>2018-08-26T09:34:24.000Z</Time>
            <Position>
              <LatitudeDegrees>42.9887980408966541290283203125</LatitudeDegrees>
              <LongitudeDegrees>-1.70631567947566509246826171875</LongitudeDegrees>
            </Position>
            <AltitudeMeters>557.4000244140625</AltitudeMeters>
            <DistanceMeters>68210.077191598</DistanceMeters>
          </Trackpoint>
          <Trackpoint>
            <Time>2018-08-26T09:34:25.000Z</Time>
            <Position>
              <LatitudeDegrees>42.9887443967163562774658203125</LatitudeDegrees>
              <LongitudeDegrees>-1.70625231228768825531005859375</LongitudeDegrees>
            </Position>
            <AltitudeMeters>557.20001220703125</AltitudeMeters>
            <DistanceMeters>68217.968415024</DistanceMeters>
          </Trackpoint>
          <Trackpoint>
            <Time>2018-08-26T09:34:26.000Z</Time>
            <Position>
              <LatitudeDegrees>42.9886900819838047027587890625</LatitudeDegrees>
              <LongitudeDegrees>-1.70618844218552112579345703125</LongitudeDegrees>
            </Position>
            <AltitudeMeters>557.20001220703125</AltitudeMeters>
            <DistanceMeters>68225.941603731</DistanceMeters>
          </Trackpoint>
          <Trackpoint>
            <Time>2018-08-26T09:34:27.000Z</Time>
            <Position>
              <LatitudeDegrees>42.98863518051803112030029296875</LatitudeDegrees>
              <LongitudeDegrees>-1.706123314797878265380859375</LongitudeDegrees>
            </Position>
            <AltitudeMeters>557</AltitudeMeters>
            <DistanceMeters>68234.032836902</DistanceMeters>
          </Trackpoint>
          <Trackpoint>
            <Time>2018-08-26T09:34:28.000Z</Time>
            <Position>
              <LatitudeDegrees>42.9885794408619403839111328125</LatitudeDegrees>
              <LongitudeDegrees>-1.70605860650539398193359375</LongitudeDegrees>
            </Position>
            <AltitudeMeters>556.79998779296875</AltitudeMeters>
            <DistanceMeters>68242.171917979</DistanceMeters>
          </Trackpoint>
          <Trackpoint>
            <Time>2018-08-26T09:34:29.000Z</Time>
            <Position>
              <LatitudeDegrees>42.98852319829165935516357421875</LatitudeDegrees>
              <LongitudeDegrees>-1.7059940658509731292724609375</LongitudeDegrees>
            </Position>
            <AltitudeMeters>556.79998779296875</AltitudeMeters>
            <DistanceMeters>68250.345320302</DistanceMeters>
          </Trackpoint>
          <Trackpoint>
            <Time>2018-08-26T09:34:30.000Z</Time>
            <Position>
              <LatitudeDegrees>42.98846703954041004180908203125</LatitudeDegrees>
              <LongitudeDegrees>-1.705927513539791107177734375</LongitudeDegrees>
            </Position>
            <AltitudeMeters>556.5999755859375</AltitudeMeters>
            <DistanceMeters>68258.617558167</DistanceMeters>
          </Trackpoint>
          <Trackpoint>
            <Time>2018-08-26T09:34:31.000Z</Time>
            <Position>
              <LatitudeDegrees>42.9884107969701290130615234375</LatitudeDegrees>
              <LongitudeDegrees>-1.7058606259524822235107421875</LongitudeDegrees>
            </Position>
            <AltitudeMeters>556.5999755859375</AltitudeMeters>
            <DistanceMeters>68266.914865128</DistanceMeters>
          </Trackpoint>
          <Trackpoint>
            <Time>2018-08-26T09:34:32.000Z</Time>
            <Position>
              <LatitudeDegrees>42.98835354857146739959716796875</LatitudeDegrees>
              <LongitudeDegrees>-1.70579516328871250152587890625</LongitudeDegrees>
            </Position>
            <AltitudeMeters>556.5999755859375</AltitudeMeters>
            <DistanceMeters>68275.221961142</DistanceMeters>
          </Trackpoint>
          <Trackpoint>
            <Time>2018-08-26T09:34:33.000Z</Time>
            <Position>
              <LatitudeDegrees>42.98829638399183750152587890625</LatitudeDegrees>
              <LongitudeDegrees>-1.70572944916784763336181640625</LongitudeDegrees>
            </Position>
            <AltitudeMeters>556.4000244140625</AltitudeMeters>
            <DistanceMeters>68283.535033681</DistanceMeters>
          </Trackpoint>
          <Trackpoint>
            <Time>2018-08-26T09:34:34.000Z</Time>
            <Position>
              <LatitudeDegrees>42.98824039287865161895751953125</LatitudeDegrees>
              <LongitudeDegrees>-1.70566289685666561126708984375</LongitudeDegrees>
            </Position>
            <AltitudeMeters>556.20001220703125</AltitudeMeters>
            <DistanceMeters>68291.793068393</DistanceMeters>
          </Trackpoint>
          <Trackpoint>
            <Time>2018-08-26T09:34:35.000Z</Time>
            <Position>
              <LatitudeDegrees>42.98818523995578289031982421875</LatitudeDegrees>
              <LongitudeDegrees>-1.70559584163129329681396484375</LongitudeDegrees>
            </Position>
            <AltitudeMeters>555.79998779296875</AltitudeMeters>
            <DistanceMeters>68300.008895887</DistanceMeters>
          </Trackpoint>
          <Trackpoint>
            <Time>2018-08-26T09:34:36.000Z</Time>
            <Position>
              <LatitudeDegrees>42.98813067376613616943359375</LatitudeDegrees>
              <LongitudeDegrees>-1.70552895404398441314697265625</LongitudeDegrees>
            </Position>
            <AltitudeMeters>555.5999755859375</AltitudeMeters>
            <DistanceMeters>68308.165709189</DistanceMeters>
          </Trackpoint>
          <Trackpoint>
            <Time>2018-08-26T09:34:37.000Z</Time>
            <Position>
              <LatitudeDegrees>42.98807627521455287933349609375</LatitudeDegrees>
              <LongitudeDegrees>-1.7054619826376438140869140625</LongitudeDegrees>
            </Position>
            <AltitudeMeters>555.4000244140625</AltitudeMeters>
            <DistanceMeters>68316.313107052</DistanceMeters>
          </Trackpoint>
          <Trackpoint>
            <Time>2018-08-26T09:34:38.000Z</Time>
            <Position>
              <LatitudeDegrees>42.98802204430103302001953125</LatitudeDegrees>
              <LongitudeDegrees>-1.70539668761193752288818359375</LongitudeDegrees>
            </Position>
            <AltitudeMeters>555.20001220703125</AltitudeMeters>
            <DistanceMeters>68324.356207676</DistanceMeters>
          </Trackpoint>
          <Trackpoint>
            <Time>2018-08-26T09:34:39.000Z</Time>
            <Position>
              <LatitudeDegrees>42.9879677295684814453125</LatitudeDegrees>
              <LongitudeDegrees>-1.70533214695751667022705078125</LongitudeDegrees>
            </Position>
            <AltitudeMeters>554.79998779296875</AltitudeMeters>
            <DistanceMeters>68332.366119856</DistanceMeters>
          </Trackpoint>
          <Trackpoint>
            <Time>2018-08-26T09:34:40.000Z</Time>
            <Position>
              <LatitudeDegrees>42.987913079559803009033203125</LatitudeDegrees>
              <LongitudeDegrees>-1.70526660047471523284912109375</LongitudeDegrees>
            </Position>
            <AltitudeMeters>554.5999755859375</AltitudeMeters>
            <DistanceMeters>68340.457911023</DistanceMeters>
          </Trackpoint>
          <Trackpoint>
            <Time>2018-08-26T09:34:41.000Z</Time>
            <Position>
              <LatitudeDegrees>42.98785817809402942657470703125</LatitudeDegrees>
              <LongitudeDegrees>-1.70520256273448467254638671875</LongitudeDegrees>
            </Position>
            <AltitudeMeters>554.5999755859375</AltitudeMeters>
            <DistanceMeters>68348.490900894</DistanceMeters>
          </Trackpoint>
          <Trackpoint>
            <Time>2018-08-26T09:34:42.000Z</Time>
            <Position>
              <LatitudeDegrees>42.98780369572341442108154296875</LatitudeDegrees>
              <LongitudeDegrees>-1.70513860881328582763671875</LongitudeDegrees>
            </Position>
            <AltitudeMeters>554.4000244140625</AltitudeMeters>
            <DistanceMeters>68356.48331985</DistanceMeters>
          </Trackpoint>
          <Trackpoint>
            <Time>2018-08-26T09:34:43.000Z</Time>
            <Position>
              <LatitudeDegrees>42.987749464809894561767578125</LatitudeDegrees>
              <LongitudeDegrees>-1.70507465489208698272705078125</LongitudeDegrees>
            </Position>
            <AltitudeMeters>554.20001220703125</AltitudeMeters>
            <DistanceMeters>68364.454243125</DistanceMeters>
          </Trackpoint>
          <Trackpoint>
            <Time>2018-08-26T09:34:44.000Z</Time>
            <Position>
              <LatitudeDegrees>42.98769540153443813323974609375</LatitudeDegrees>
              <LongitudeDegrees>-1.70501078478991985321044921875</LongitudeDegrees>
            </Position>
            <AltitudeMeters>554.20001220703125</AltitudeMeters>
            <DistanceMeters>68372.40701971</DistanceMeters>
          </Trackpoint>
          <Trackpoint>
            <Time>2018-08-26T09:34:45.000Z</Time>
            <Position>
              <LatitudeDegrees>42.987641505897045135498046875</LatitudeDegrees>
              <LongitudeDegrees>-1.70494683086872100830078125</LongitudeDegrees>
            </Position>
            <AltitudeMeters>554.20001220703125</AltitudeMeters>
            <DistanceMeters>68380.350139004</DistanceMeters>
          </Trackpoint>
          <Trackpoint>
            <Time>2018-08-26T09:34:46.000Z</Time>
            <Position>
              <LatitudeDegrees>42.98758752644062042236328125</LatitudeDegrees>
              <LongitudeDegrees>-1.7048832960426807403564453125</LongitudeDegrees>
            </Position>
            <AltitudeMeters>554</AltitudeMeters>
            <DistanceMeters>68388.277896067</DistanceMeters>
          </Trackpoint>
          <Trackpoint>
            <Time>2018-08-26T09:34:47.000Z</Time>
            <Position>
              <LatitudeDegrees>42.98753312788903713226318359375</LatitudeDegrees>
              <LongitudeDegrees>-1.704820096492767333984375</LongitudeDegrees>
            </Position>
            <AltitudeMeters>554</AltitudeMeters>
            <DistanceMeters>68396.223856959</DistanceMeters>
          </Trackpoint>
          <Trackpoint>
            <Time>2018-08-26T09:34:48.000Z</Time>
            <Position>
              <LatitudeDegrees>42.98747914843261241912841796875</LatitudeDegrees>
              <LongitudeDegrees>-1.70475580729544162750244140625</LongitudeDegrees>
            </Position>
            <AltitudeMeters>554</AltitudeMeters>
            <DistanceMeters>68404.192514158</DistanceMeters>
          </Trackpoint>
          <Trackpoint>
            <Time>2018-08-26T09:34:49.000Z</Time>
            <Position>
              <LatitudeDegrees>42.987425588071346282958984375</LatitudeDegrees>
              <LongitudeDegrees>-1.70469143427908420562744140625</LongitudeDegrees>
            </Position>
            <AltitudeMeters>554</AltitudeMeters>
            <DistanceMeters>68412.129378354</DistanceMeters>
          </Trackpoint>
          <Trackpoint>
            <Time>2018-08-26T09:34:50.000Z</Time>
            <Position>
              <LatitudeDegrees>42.987371943891048431396484375</LatitudeDegrees>
              <LongitudeDegrees>-1.70462840236723423004150390625</LongitudeDegrees>
            </Position>
            <AltitudeMeters>553.79998779296875</AltitudeMeters>
            <DistanceMeters>68420.002271387</DistanceMeters>
          </Trackpoint>
          <Trackpoint>
            <Time>2018-08-26T09:34:51.000Z</Time>
            <Position>
              <LatitudeDegrees>42.9873184673488140106201171875</LatitudeDegrees>
              <LongitudeDegrees>-1.70456520281732082366943359375</LongitudeDegrees>
            </Position>
            <AltitudeMeters>553.79998779296875</AltitudeMeters>
            <DistanceMeters>68427.870001303</DistanceMeters>
          </Trackpoint>
          <Trackpoint>
            <Time>2018-08-26T09:34:52.000Z</Time>
            <Position>
              <LatitudeDegrees>42.9872644878923892974853515625</LatitudeDegrees>
              <LongitudeDegrees>-1.70450200326740741729736328125</LongitudeDegrees>
            </Position>
            <AltitudeMeters>553.79998779296875</AltitudeMeters>
            <DistanceMeters>68435.780083457</DistanceMeters>
          </Trackpoint>
          <Trackpoint>
            <Time>2018-08-26T09:34:53.000Z</Time>
            <Position>
              <LatitudeDegrees>42.98721134662628173828125</LatitudeDegrees>
              <LongitudeDegrees>-1.704437546432018280029296875</LongitudeDegrees>
            </Position>
            <AltitudeMeters>553.79998779296875</AltitudeMeters>
            <DistanceMeters>68443.687311119</DistanceMeters>
          </Trackpoint>
          <Trackpoint>
            <Time>2018-08-26T09:34:54.000Z</Time>
            <Position>
              <LatitudeDegrees>42.98715845681726932525634765625</LatitudeDegrees>
              <LongitudeDegrees>-1.704373173415660858154296875</LongitudeDegrees>
            </Position>
            <AltitudeMeters>553.79998779296875</AltitudeMeters>
            <DistanceMeters>68451.569374677</DistanceMeters>
          </Trackpoint>
          <Trackpoint>
            <Time>2018-08-26T09:34:55.000Z</Time>
            <Position>
              <LatitudeDegrees>42.98710531555116176605224609375</LatitudeDegrees>
              <LongitudeDegrees>-1.704309470951557159423828125</LongitudeDegrees>
            </Position>
            <AltitudeMeters>553.79998779296875</AltitudeMeters>
            <DistanceMeters>68459.435956773</DistanceMeters>
          </Trackpoint>
          <Trackpoint>
            <Time>2018-08-26T09:34:56.000Z</Time>
            <Position>
              <LatitudeDegrees>42.98705242574214935302734375</LatitudeDegrees>
              <LongitudeDegrees>-1.704247109591960906982421875</LongitudeDegrees>
            </Position>
            <AltitudeMeters>553.79998779296875</AltitudeMeters>
            <DistanceMeters>68467.210744983</DistanceMeters>
          </Trackpoint>
          <Trackpoint>
            <Time>2018-08-26T09:34:57.000Z</Time>
            <Position>
              <LatitudeDegrees>42.98700003884732723236083984375</LatitudeDegrees>
              <LongitudeDegrees>-1.70418499968945980072021484375</LongitudeDegrees>
            </Position>
            <AltitudeMeters>553.79998779296875</AltitudeMeters>
            <DistanceMeters>68474.928997007</DistanceMeters>
          </Trackpoint>
          <Trackpoint>
            <Time>2018-08-26T09:34:58.000Z</Time>
            <Position>
              <LatitudeDegrees>42.9869479872286319732666015625</LatitudeDegrees>
              <LongitudeDegrees>-1.7041232250630855560302734375</LongitudeDegrees>
            </Position>
            <AltitudeMeters>553.79998779296875</AltitudeMeters>
            <DistanceMeters>68482.600896267</DistanceMeters>
          </Trackpoint>
          <Trackpoint>
            <Time>2018-08-26T09:34:59.000Z</Time>
            <Position>
              <LatitudeDegrees>42.986895851790904998779296875</LatitudeDegrees>
              <LongitudeDegrees>-1.7040618695318698883056640625</LongitudeDegrees>
            </Position>
            <AltitudeMeters>553.5999755859375</AltitudeMeters>
            <DistanceMeters>68490.258068483</DistanceMeters>
          </Trackpoint>
          <Trackpoint>
            <Time>2018-08-26T09:35:00.000Z</Time>
            <Position>
              <LatitudeDegrees>42.9868437163531780242919921875</LatitudeDegrees>
              <LongitudeDegrees>-1.7040005140006542205810546875</LongitudeDegrees>
            </Position>
            <AltitudeMeters>553.5999755859375</AltitudeMeters>
            <DistanceMeters>68497.914651029</DistanceMeters>
          </Trackpoint>
          <Trackpoint>
            <Time>2018-08-26T09:35:01.000Z</Time>
            <Position>
              <LatitudeDegrees>42.986791245639324188232421875</LatitudeDegrees>
              <LongitudeDegrees>-1.70393924228847026824951171875</LongitudeDegrees>
            </Position>
            <AltitudeMeters>553.5999755859375</AltitudeMeters>
            <DistanceMeters>68505.594785099</DistanceMeters>
          </Trackpoint>
          <Trackpoint>
            <Time>2018-08-26T09:35:02.000Z</Time>
            <Position>
              <LatitudeDegrees>42.9867387749254703521728515625</LatitudeDegrees>
              <LongitudeDegrees>-1.7038774676620960235595703125</LongitudeDegrees>
            </Position>
            <AltitudeMeters>553.5999755859375</AltitudeMeters>
            <DistanceMeters>68513.301914451</DistanceMeters>
          </Trackpoint>
          <Trackpoint>
            <Time>2018-08-26T09:35:03.000Z</Time>
            <Position>
              <LatitudeDegrees>42.9866861365735530853271484375</LatitudeDegrees>
              <LongitudeDegrees>-1.7038151063024997711181640625</LongitudeDegrees>
            </Position>
            <AltitudeMeters>553.5999755859375</AltitudeMeters>
            <DistanceMeters>68521.054603585</DistanceMeters>
          </Trackpoint>
          <Trackpoint>
            <Time>2018-08-26T09:35:04.000Z</Time>
            <Position>
              <LatitudeDegrees>42.986633665859699249267578125</LatitudeDegrees>
              <LongitudeDegrees>-1.70375165529549121856689453125</LongitudeDegrees>
            </Position>
            <AltitudeMeters>553.5999755859375</AltitudeMeters>
            <DistanceMeters>68528.851428235</DistanceMeters>
          </Trackpoint>
          <Trackpoint>
            <Time>2018-08-26T09:35:05.000Z</Time>
            <Position>
              <LatitudeDegrees>42.98658060841262340545654296875</LatitudeDegrees>
              <LongitudeDegrees>-1.7036868631839752197265625</LongitudeDegrees>
            </Position>
            <AltitudeMeters>553.5999755859375</AltitudeMeters>
            <DistanceMeters>68536.77006769</DistanceMeters>
          </Trackpoint>
          <Trackpoint>
            <Time>2018-08-26T09:35:06.000Z</Time>
            <Position>
              <LatitudeDegrees>42.9865268804132938385009765625</LatitudeDegrees>
              <LongitudeDegrees>-1.7036216519773006439208984375</LongitudeDegrees>
            </Position>
            <AltitudeMeters>553.5999755859375</AltitudeMeters>
            <DistanceMeters>68544.767569266</DistanceMeters>
          </Trackpoint>
          <Trackpoint>
            <Time>2018-08-26T09:35:07.000Z</Time>
            <Position>
              <LatitudeDegrees>42.98647181130945682525634765625</LatitudeDegrees>
              <LongitudeDegrees>-1.70355719514191150665283203125</LongitudeDegrees>
            </Position>
            <AltitudeMeters>553.4000244140625</AltitudeMeters>
            <DistanceMeters>68552.836450921</DistanceMeters>
          </Trackpoint>
          <Trackpoint>
            <Time>2018-08-26T09:35:08.000Z</Time>
            <Position>
              <LatitudeDegrees>42.9864160716533660888671875</LatitudeDegrees>
              <LongitudeDegrees>-1.7034922353923320770263671875</LongitudeDegrees>
            </Position>
            <AltitudeMeters>553.4000244140625</AltitudeMeters>
            <DistanceMeters>68560.988834782</DistanceMeters>
          </Trackpoint>
          <Trackpoint>
            <Time>2018-08-26T09:35:09.000Z</Time>
            <Position>
              <LatitudeDegrees>42.98636016435921192169189453125</LatitudeDegrees>
              <LongitudeDegrees>-1.7034265212714672088623046875</LongitudeDegrees>
            </Position>
            <AltitudeMeters>553.20001220703125</AltitudeMeters>
            <DistanceMeters>68569.195314547</DistanceMeters>
          </Trackpoint>
          <Trackpoint>
            <Time>2018-08-26T09:35:10.000Z</Time>
            <Position>
              <LatitudeDegrees>42.9863039217889308929443359375</LatitudeDegrees>
              <LongitudeDegrees>-1.70335954986512660980224609375</LongitudeDegrees>
            </Position>
            <AltitudeMeters>553.20001220703125</AltitudeMeters>
            <DistanceMeters>68577.497517477</DistanceMeters>
          </Trackpoint>
          <Trackpoint>
            <Time>2018-08-26T09:35:11.000Z</Time>
            <Position>
              <LatitudeDegrees>42.9862475953996181488037109375</LatitudeDegrees>
              <LongitudeDegrees>-1.703291572630405426025390625</LongitudeDegrees>
            </Position>
            <AltitudeMeters>553.20001220703125</AltitudeMeters>
            <DistanceMeters>68585.860408249</DistanceMeters>
          </Trackpoint>
          <Trackpoint>
            <Time>2018-08-26T09:35:12.000Z</Time>
            <Position>
              <LatitudeDegrees>42.98619101755321025848388671875</LatitudeDegrees>
              <LongitudeDegrees>-1.70322351157665252685546875</LongitudeDegrees>
            </Position>
            <AltitudeMeters>553.20001220703125</AltitudeMeters>
            <DistanceMeters>68594.248635454</DistanceMeters>
          </Trackpoint>
          <Trackpoint>
            <Time>2018-08-26T09:35:13.000Z</Time>
            <Position>
              <LatitudeDegrees>42.98613376915454864501953125</LatitudeDegrees>
              <LongitudeDegrees>-1.70315519906580448150634765625</LongitudeDegrees>
            </Position>
            <AltitudeMeters>553.20001220703125</AltitudeMeters>
            <DistanceMeters>68602.706546874</DistanceMeters>
          </Trackpoint>
          <Trackpoint>
            <Time>2018-08-26T09:35:14.000Z</Time>
            <Position>
              <LatitudeDegrees>42.986076436936855316162109375</LatitudeDegrees>
              <LongitudeDegrees>-1.703087054193019866943359375</LongitudeDegrees>
            </Position>
            <AltitudeMeters>553.20001220703125</AltitudeMeters>
            <DistanceMeters>68611.162322728</DistanceMeters>
          </Trackpoint>
          <Trackpoint>
            <Time>2018-08-26T09:35:15.000Z</Time>
            <Position>
              <LatitudeDegrees>42.9860182665288448333740234375</LatitudeDegrees>
              <LongitudeDegrees>-1.70301907695829868316650390625</LongitudeDegrees>
            </Position>
            <AltitudeMeters>553</AltitudeMeters>
            <DistanceMeters>68619.679812625</DistanceMeters>
          </Trackpoint>
          <Trackpoint>
            <Time>2018-08-26T09:35:16.000Z</Time>
            <Position>
              <LatitudeDegrees>42.98596001230180263519287109375</LatitudeDegrees>
              <LongitudeDegrees>-1.70294992625713348388671875</LongitudeDegrees>
            </Position>
            <AltitudeMeters>553</AltitudeMeters>
            <DistanceMeters>68628.266989358</DistanceMeters>
          </Trackpoint>
          <Trackpoint>
            <Time>2018-08-26T09:35:17.000Z</Time>
            <Position>
              <LatitudeDegrees>42.9859015904366970062255859375</LatitudeDegrees>
              <LongitudeDegrees>-1.70288060791790485382080078125</LongitudeDegrees>
            </Position>
            <AltitudeMeters>552.79998779296875</AltitudeMeters>
            <DistanceMeters>68636.877269702</DistanceMeters>
          </Trackpoint>
          <Trackpoint>
            <Time>2018-08-26T09:35:18.000Z</Time>
            <Position>
              <LatitudeDegrees>42.9858435876667499542236328125</LatitudeDegrees>
              <LongitudeDegrees>-1.70281053520739078521728515625</LongitudeDegrees>
            </Position>
            <AltitudeMeters>552.4000244140625</AltitudeMeters>
            <DistanceMeters>68645.492792226</DistanceMeters>
          </Trackpoint>
          <Trackpoint>
            <Time>2018-08-26T09:35:19.000Z</Time>
            <Position>
              <LatitudeDegrees>42.9857857525348663330078125</LatitudeDegrees>
              <LongitudeDegrees>-1.7027392052114009857177734375</LongitudeDegrees>
            </Position>
            <AltitudeMeters>552</AltitudeMeters>
            <DistanceMeters>68654.162645531</DistanceMeters>
          </Trackpoint>
          <Trackpoint>
            <Time>2018-08-26T09:35:20.000Z</Time>
            <Position>
              <LatitudeDegrees>42.98572766594588756561279296875</LatitudeDegrees>
              <LongitudeDegrees>-1.70266837812960147857666015625</LongitudeDegrees>
            </Position>
            <AltitudeMeters>551.79998779296875</AltitudeMeters>
            <DistanceMeters>68662.825726122</DistanceMeters>
          </Trackpoint>
          <Trackpoint>
            <Time>2018-08-26T09:35:21.000Z</Time>
            <Position>
              <LatitudeDegrees>42.98566899262368679046630859375</LatitudeDegrees>
              <LongitudeDegrees>-1.7025987245142459869384765625</LongitudeDegrees>
            </Position>
            <AltitudeMeters>551.79998779296875</AltitudeMeters>
            <DistanceMeters>68671.474723362</DistanceMeters>
          </Trackpoint>
          <Trackpoint>
            <Time>2018-08-26T09:35:22.000Z</Time>
            <Position>
              <LatitudeDegrees>42.9856095649302005767822265625</LatitudeDegrees>
              <LongitudeDegrees>-1.7025299929082393646240234375</LongitudeDegrees>
            </Position>
            <AltitudeMeters>551.5999755859375</AltitudeMeters>
            <DistanceMeters>68680.139367357</DistanceMeters>
          </Trackpoint>
          <Trackpoint>
            <Time>2018-08-26T09:35:23.000Z</Time>
            <Position>
              <LatitudeDegrees>42.98555080778896808624267578125</LatitudeDegrees>
              <LongitudeDegrees>-1.7024602554738521575927734375</LongitudeDegrees>
            </Position>
            <AltitudeMeters>551.5999755859375</AltitudeMeters>
            <DistanceMeters>68688.80036297</DistanceMeters>
          </Trackpoint>
          <Trackpoint>
            <Time>2018-08-26T09:35:24.000Z</Time>
            <Position>
              <LatitudeDegrees>42.9854928888380527496337890625</LatitudeDegrees>
              <LongitudeDegrees>-1.70238976366817951202392578125</LongitudeDegrees>
            </Position>
            <AltitudeMeters>551.4000244140625</AltitudeMeters>
            <DistanceMeters>68697.431592933</DistanceMeters>
          </Trackpoint>
          <Trackpoint>
            <Time>2018-08-26T09:35:25.000Z</Time>
            <Position>
              <LatitudeDegrees>42.9854348860681056976318359375</LatitudeDegrees>
              <LongitudeDegrees>-1.70231935568153858184814453125</LongitudeDegrees>
            </Position>
            <AltitudeMeters>551.20001220703125</AltitudeMeters>
            <DistanceMeters>68706.065438023</DistanceMeters>
          </Trackpoint>
          <Trackpoint>
            <Time>2018-08-26T09:35:26.000Z</Time>
            <Position>
              <LatitudeDegrees>42.98537696711719036102294921875</LatitudeDegrees>
              <LongitudeDegrees>-1.70224861241877079010009765625</LongitudeDegrees>
            </Position>
            <AltitudeMeters>551</AltitudeMeters>
            <DistanceMeters>68714.710258013</DistanceMeters>
          </Trackpoint>
          <Trackpoint>
            <Time>2018-08-26T09:35:27.000Z</Time>
            <Position>
              <LatitudeDegrees>42.98531837761402130126953125</LatitudeDegrees>
              <LongitudeDegrees>-1.7021782882511615753173828125</LongitudeDegrees>
            </Position>
            <AltitudeMeters>551</AltitudeMeters>
            <DistanceMeters>68723.388439708</DistanceMeters>
          </Trackpoint>
          <Trackpoint>
            <Time>2018-08-26T09:35:28.000Z</Time>
            <Position>
              <LatitudeDegrees>42.98525945283472537994384765625</LatitudeDegrees>
              <LongitudeDegrees>-1.70210896991193294525146484375</LongitudeDegrees>
            </Position>
            <AltitudeMeters>550.79998779296875</AltitudeMeters>
            <DistanceMeters>68732.040568563</DistanceMeters>
          </Trackpoint>
          <Trackpoint>
            <Time>2018-08-26T09:35:29.000Z</Time>
            <Position>
              <LatitudeDegrees>42.9852008633315563201904296875</LatitudeDegrees>
              <LongitudeDegrees>-1.7020401544868946075439453125</LongitudeDegrees>
            </Position>
            <AltitudeMeters>550.5999755859375</AltitudeMeters>
            <DistanceMeters>68740.638254634</DistanceMeters>
          </Trackpoint>
          <Trackpoint>
            <Time>2018-08-26T09:35:30.000Z</Time>
            <Position>
              <LatitudeDegrees>42.98514327965676784515380859375</LatitudeDegrees>
              <LongitudeDegrees>-1.7019720934331417083740234375</LongitudeDegrees>
            </Position>
            <AltitudeMeters>550.5999755859375</AltitudeMeters>
            <DistanceMeters>68749.110567048</DistanceMeters>
          </Trackpoint>
          <Trackpoint>
            <Time>2018-08-26T09:35:31.000Z</Time>
            <Position>
              <LatitudeDegrees>42.98508678562939167022705078125</LatitudeDegrees>
              <LongitudeDegrees>-1.70190428383648395538330078125</LongitudeDegrees>
            </Position>
            <AltitudeMeters>550.4000244140625</AltitudeMeters>
            <DistanceMeters>68757.478315416</DistanceMeters>
          </Trackpoint>
          <Trackpoint>
            <Time>2018-08-26T09:35:32.000Z</Time>
            <Position>
              <LatitudeDegrees>42.9850305430591106414794921875</LatitudeDegrees>
              <LongitudeDegrees>-1.70183689333498477935791015625</LongitudeDegrees>
            </Position>
            <AltitudeMeters>550.4000244140625</AltitudeMeters>
            <DistanceMeters>68765.802243368</DistanceMeters>
          </Trackpoint>
          <Trackpoint>
            <Time>2018-08-26T09:35:33.000Z</Time>
            <Position>
              <LatitudeDegrees>42.984974719583988189697265625</LatitudeDegrees>
              <LongitudeDegrees>-1.70177042484283447265625</LongitudeDegrees>
            </Position>
            <AltitudeMeters>550.20001220703125</AltitudeMeters>
            <DistanceMeters>68774.041667784</DistanceMeters>
          </Trackpoint>
          <Trackpoint>
            <Time>2018-08-26T09:35:34.000Z</Time>
            <Position>
              <LatitudeDegrees>42.98491914756596088409423828125</LatitudeDegrees>
              <LongitudeDegrees>-1.7017048783600330352783203125</LongitudeDegrees>
            </Position>
            <AltitudeMeters>550.20001220703125</AltitudeMeters>
            <DistanceMeters>68782.210649662</DistanceMeters>
          </Trackpoint>
          <Trackpoint>
            <Time>2018-08-26T09:35:35.000Z</Time>
            <Position>
              <LatitudeDegrees>42.984864078462123870849609375</LatitudeDegrees>
              <LongitudeDegrees>-1.7016394995152950286865234375</LongitudeDegrees>
            </Position>
            <AltitudeMeters>550.20001220703125</AltitudeMeters>
            <DistanceMeters>68790.328623417</DistanceMeters>
          </Trackpoint>
          <Trackpoint>
            <Time>2018-08-26T09:35:36.000Z</Time>
            <Position>
              <LatitudeDegrees>42.9848102666437625885009765625</LatitudeDegrees>
              <LongitudeDegrees>-1.7015741206705570220947265625</LongitudeDegrees>
            </Position>
            <AltitudeMeters>550.20001220703125</AltitudeMeters>
            <DistanceMeters>68798.341353509</DistanceMeters>
          </Trackpoint>
          <Trackpoint>
            <Time>2018-08-26T09:35:37.000Z</Time>
            <Position>
              <LatitudeDegrees>42.9847576282918453216552734375</LatitudeDegrees>
              <LongitudeDegrees>-1.70150966383516788482666015625</LongitudeDegrees>
            </Position>
            <AltitudeMeters>550.20001220703125</AltitudeMeters>
            <DistanceMeters>68806.207361632</DistanceMeters>
          </Trackpoint>
          <Trackpoint>
            <Time>2018-08-26T09:35:38.000Z</Time>
            <Position>
              <LatitudeDegrees>42.9847049899399280548095703125</LatitudeDegrees>
              <LongitudeDegrees>-1.701446883380413055419921875</LongitudeDegrees>
            </Position>
            <AltitudeMeters>550.4000244140625</AltitudeMeters>
            <DistanceMeters>68813.983311212</DistanceMeters>
          </Trackpoint>
          <Trackpoint>
            <Time>2018-08-26T09:35:39.000Z</Time>
            <Position>
              <LatitudeDegrees>42.98465184867382049560546875</LatitudeDegrees>
              <LongitudeDegrees>-1.7013856954872608184814453125</LongitudeDegrees>
            </Position>
            <AltitudeMeters>550.4000244140625</AltitudeMeters>
            <DistanceMeters>68821.71675781</DistanceMeters>
          </Trackpoint>
          <Trackpoint>
            <Time>2018-08-26T09:35:40.000Z</Time>
            <Position>
              <LatitudeDegrees>42.984599210321903228759765625</LatitudeDegrees>
              <LongitudeDegrees>-1.701324842870235443115234375</LongitudeDegrees>
            </Position>
            <AltitudeMeters>550.4000244140625</AltitudeMeters>
            <DistanceMeters>68829.389834013</DistanceMeters>
          </Trackpoint>
          <Trackpoint>
            <Time>2018-08-26T09:35:41.000Z</Time>
            <Position>
              <LatitudeDegrees>42.9845474101603031158447265625</LatitudeDegrees>
              <LongitudeDegrees>-1.7012626491487026214599609375</LongitudeDegrees>
            </Position>
            <AltitudeMeters>550.4000244140625</AltitudeMeters>
            <DistanceMeters>68837.063498619</DistanceMeters>
          </Trackpoint>
          <Trackpoint>
            <Time>2018-08-26T09:35:42.000Z</Time>
            <Position>
              <LatitudeDegrees>42.98449535854160785675048828125</LatitudeDegrees>
              <LongitudeDegrees>-1.70119978487491607666015625</LongitudeDegrees>
            </Position>
            <AltitudeMeters>550.4000244140625</AltitudeMeters>
            <DistanceMeters>68844.794025503</DistanceMeters>
          </Trackpoint>
          <Trackpoint>
            <Time>2018-08-26T09:35:43.000Z</Time>
            <Position>
              <LatitudeDegrees>42.98444272018969058990478515625</LatitudeDegrees>
              <LongitudeDegrees>-1.70113633386790752410888671875</LongitudeDegrees>
            </Position>
            <AltitudeMeters>550.4000244140625</AltitudeMeters>
            <DistanceMeters>68852.604735871</DistanceMeters>
          </Trackpoint>
          <Trackpoint>
            <Time>2018-08-26T09:35:44.000Z</Time>
            <Position>
              <LatitudeDegrees>42.98438907600939273834228515625</LatitudeDegrees>
              <LongitudeDegrees>-1.7010722123086452484130859375</LongitudeDegrees>
            </Position>
            <AltitudeMeters>550.4000244140625</AltitudeMeters>
            <DistanceMeters>68860.537047808</DistanceMeters>
          </Trackpoint>
          <Trackpoint>
            <Time>2018-08-26T09:35:45.000Z</Time>
            <Position>
              <LatitudeDegrees>42.9843348450958728790283203125</LatitudeDegrees>
              <LongitudeDegrees>-1.7010078392922878265380859375</LongitudeDegrees>
            </Position>
            <AltitudeMeters>550.4000244140625</AltitudeMeters>
            <DistanceMeters>68868.530596514</DistanceMeters>
          </Trackpoint>
          <Trackpoint>
            <Time>2018-08-26T09:35:46.000Z</Time>
            <Position>
              <LatitudeDegrees>42.98427977599203586578369140625</LatitudeDegrees>
              <LongitudeDegrees>-1.70094338245689868927001953125</LongitudeDegrees>
            </Position>
            <AltitudeMeters>550.4000244140625</AltitudeMeters>
            <DistanceMeters>68876.599478169</DistanceMeters>
          </Trackpoint>
          <Trackpoint>
            <Time>2018-08-26T09:35:47.000Z</Time>
            <Position>
              <LatitudeDegrees>42.98422412015497684478759765625</LatitudeDegrees>
              <LongitudeDegrees>-1.70087783597409725189208984375</LongitudeDegrees>
            </Position>
            <AltitudeMeters>550.4000244140625</AltitudeMeters>
            <DistanceMeters>68884.776194258</DistanceMeters>
          </Trackpoint>
          <Trackpoint>
            <Time>2018-08-26T09:35:48.000Z</Time>
            <Position>
              <LatitudeDegrees>42.98416829667985439300537109375</LatitudeDegrees>
              <LongitudeDegrees>-1.70081111602485179901123046875</LongitudeDegrees>
            </Position>
            <AltitudeMeters>550.4000244140625</AltitudeMeters>
            <DistanceMeters>68893.029853852</DistanceMeters>
          </Trackpoint>
          <Trackpoint>
            <Time>2018-08-26T09:35:49.000Z</Time>
            <Position>
              <LatitudeDegrees>42.98411230556666851043701171875</LatitudeDegrees>
              <LongitudeDegrees>-1.700742803514003753662109375</LongitudeDegrees>
            </Position>
            <AltitudeMeters>550.4000244140625</AltitudeMeters>
            <DistanceMeters>68901.383020957</DistanceMeters>
          </Trackpoint>
          <Trackpoint>
            <Time>2018-08-26T09:35:50.000Z</Time>
            <Position>
              <LatitudeDegrees>42.98405581153929233551025390625</LatitudeDegrees>
              <LongitudeDegrees>-1.70067365281283855438232421875</LongitudeDegrees>
            </Position>
            <AltitudeMeters>550.4000244140625</AltitudeMeters>
            <DistanceMeters>68909.823832715</DistanceMeters>
          </Trackpoint>
          <Trackpoint>
            <Time>2018-08-26T09:35:51.000Z</Time>
            <Position>
              <LatitudeDegrees>42.98399814404547214508056640625</LatitudeDegrees>
              <LongitudeDegrees>-1.70060441829264163970947265625</LongitudeDegrees>
            </Position>
            <AltitudeMeters>550.20001220703125</AltitudeMeters>
            <DistanceMeters>68918.365671959</DistanceMeters>
          </Trackpoint>
          <Trackpoint>
            <Time>2018-08-26T09:35:52.000Z</Time>
            <Position>
              <LatitudeDegrees>42.98393997363746166229248046875</LatitudeDegrees>
              <LongitudeDegrees>-1.70053484849631786346435546875</LongitudeDegrees>
            </Position>
            <AltitudeMeters>550.20001220703125</AltitudeMeters>
            <DistanceMeters>68926.96755817</DistanceMeters>
          </Trackpoint>
          <Trackpoint>
            <Time>2018-08-26T09:35:53.000Z</Time>
            <Position>
              <LatitudeDegrees>42.98388130031526088714599609375</LatitudeDegrees>
              <LongitudeDegrees>-1.70046444050967693328857421875</LongitudeDegrees>
            </Position>
            <AltitudeMeters>550.20001220703125</AltitudeMeters>
            <DistanceMeters>68935.65717837</DistanceMeters>
          </Trackpoint>
          <Trackpoint>
            <Time>2018-08-26T09:35:54.000Z</Time>
            <Position>
              <LatitudeDegrees>42.98382245935499668121337890625</LatitudeDegrees>
              <LongitudeDegrees>-1.700394116342067718505859375</LongitudeDegrees>
            </Position>
            <AltitudeMeters>549.79998779296875</AltitudeMeters>
            <DistanceMeters>68944.356146159</DistanceMeters>
          </Trackpoint>
          <Trackpoint>
            <Time>2018-08-26T09:35:55.000Z</Time>
            <Position>
              <LatitudeDegrees>42.9837631992995738983154296875</LatitudeDegrees>
              <LongitudeDegrees>-1.70032270252704620361328125</LongitudeDegrees>
            </Position>
            <AltitudeMeters>549.5999755859375</AltitudeMeters>
            <DistanceMeters>68953.149070275</DistanceMeters>
          </Trackpoint>
          <Trackpoint>
            <Time>2018-08-26T09:35:56.000Z</Time>
            <Position>
              <LatitudeDegrees>42.9837031848728656768798828125</LatitudeDegrees>
              <LongitudeDegrees>-1.70025187544524669647216796875</LongitudeDegrees>
            </Position>
            <AltitudeMeters>549.5999755859375</AltitudeMeters>
            <DistanceMeters>68961.97326141</DistanceMeters>
          </Trackpoint>
          <Trackpoint>
            <Time>2018-08-26T09:35:57.000Z</Time>
            <Position>
              <LatitudeDegrees>42.983642332255840301513671875</LatitudeDegrees>
              <LongitudeDegrees>-1.70018113218247890472412109375</LongitudeDegrees>
            </Position>
            <AltitudeMeters>549.4000244140625</AltitudeMeters>
            <DistanceMeters>68970.864228128</DistanceMeters>
          </Trackpoint>
          <Trackpoint>
            <Time>2018-08-26T09:35:58.000Z</Time>
            <Position>
              <LatitudeDegrees>42.9835818149149417877197265625</LatitudeDegrees>
              <LongitudeDegrees>-1.7001099698245525360107421875</LongitudeDegrees>
            </Position>
            <AltitudeMeters>549.20001220703125</AltitudeMeters>
            <DistanceMeters>68979.74909888</DistanceMeters>
          </Trackpoint>
          <Trackpoint>
            <Time>2018-08-26T09:35:59.000Z</Time>
            <Position>
              <LatitudeDegrees>42.9835219681262969970703125</LatitudeDegrees>
              <LongitudeDegrees>-1.70003796927630901336669921875</LongitudeDegrees>
            </Position>
            <AltitudeMeters>549.20001220703125</AltitudeMeters>
            <DistanceMeters>68988.622782816</DistanceMeters>
          </Trackpoint>
          <Trackpoint>
            <Time>2018-08-26T09:36:00.000Z</Time>
            <Position>
              <LatitudeDegrees>42.98346270807087421417236328125</LatitudeDegrees>
              <LongitudeDegrees>-1.69996521435678005218505859375</LongitudeDegrees>
            </Position>
            <AltitudeMeters>549</AltitudeMeters>
            <DistanceMeters>68997.488322019</DistanceMeters>
          </Trackpoint>
          <Trackpoint>
            <Time>2018-08-26T09:36:01.000Z</Time>
            <Position>
              <LatitudeDegrees>42.983403615653514862060546875</LatitudeDegrees>
              <LongitudeDegrees>-1.69989354908466339111328125</LongitudeDegrees>
            </Position>
            <AltitudeMeters>549</AltitudeMeters>
            <DistanceMeters>69006.280732635</DistanceMeters>
          </Trackpoint>
          <Trackpoint>
            <Time>2018-08-26T09:36:02.000Z</Time>
            <Position>
              <LatitudeDegrees>42.98334427177906036376953125</LatitudeDegrees>
              <LongitudeDegrees>-1.6998226381838321685791015625</LongitudeDegrees>
            </Position>
            <AltitudeMeters>548.4000244140625</AltitudeMeters>
            <DistanceMeters>69015.054122607</DistanceMeters>
          </Trackpoint>
          <Trackpoint>
            <Time>2018-08-26T09:36:03.000Z</Time>
            <Position>
              <LatitudeDegrees>42.98328517936170101165771484375</LatitudeDegrees>
              <LongitudeDegrees>-1.69975273311138153076171875</LongitudeDegrees>
            </Position>
            <AltitudeMeters>548.20001220703125</AltitudeMeters>
            <DistanceMeters>69023.75257135</DistanceMeters>
          </Trackpoint>
          <Trackpoint>
            <Time>2018-08-26T09:36:04.000Z</Time>
            <Position>
              <LatitudeDegrees>42.98322751186788082122802734375</LatitudeDegrees>
              <LongitudeDegrees>-1.69968207366764545440673828125</LongitudeDegrees>
            </Position>
            <AltitudeMeters>548</AltitudeMeters>
            <DistanceMeters>69032.371761503</DistanceMeters>
          </Trackpoint>
          <Trackpoint>
            <Time>2018-08-26T09:36:05.000Z</Time>
            <Position>
              <LatitudeDegrees>42.9831707663834095001220703125</LatitudeDegrees>
              <LongitudeDegrees>-1.69961082749068737030029296875</LongitudeDegrees>
            </Position>
            <AltitudeMeters>548</AltitudeMeters>
            <DistanceMeters>69040.947363089</DistanceMeters>
          </Trackpoint>
          <Trackpoint>
            <Time>2018-08-26T09:36:06.000Z</Time>
            <Position>
              <LatitudeDegrees>42.9831142723560333251953125</LatitudeDegrees>
              <LongitudeDegrees>-1.6995403356850147247314453125</LongitudeDegrees>
            </Position>
            <AltitudeMeters>547.79998779296875</AltitudeMeters>
            <DistanceMeters>69049.460611208</DistanceMeters>
          </Trackpoint>
          <Trackpoint>
            <Time>2018-08-26T09:36:07.000Z</Time>
            <Position>
              <LatitudeDegrees>42.98305752687156200408935546875</LatitudeDegrees>
              <LongitudeDegrees>-1.69947017915546894073486328125</LongitudeDegrees>
            </Position>
            <AltitudeMeters>547.5999755859375</AltitudeMeters>
            <DistanceMeters>69057.975980481</DistanceMeters>
          </Trackpoint>
          <Trackpoint>
            <Time>2018-08-26T09:36:08.000Z</Time>
            <Position>
              <LatitudeDegrees>42.98300086520612239837646484375</LatitudeDegrees>
              <LongitudeDegrees>-1.69940094463527202606201171875</LongitudeDegrees>
            </Position>
            <AltitudeMeters>547.5999755859375</AltitudeMeters>
            <DistanceMeters>69066.434959482</DistanceMeters>
          </Trackpoint>
          <Trackpoint>
            <Time>2018-08-26T09:36:09.000Z</Time>
            <Position>
              <LatitudeDegrees>42.9829437844455242156982421875</LatitudeDegrees>
              <LongitudeDegrees>-1.69933238066732883453369140625</LongitudeDegrees>
            </Position>
            <AltitudeMeters>547.4000244140625</AltitudeMeters>
            <DistanceMeters>69074.891803186</DistanceMeters>
          </Trackpoint>
          <Trackpoint>
            <Time>2018-08-26T09:36:10.000Z</Time>
            <Position>
              <LatitudeDegrees>42.98288670368492603302001953125</LatitudeDegrees>
              <LongitudeDegrees>-1.69926431961357593536376953125</LongitudeDegrees>
            </Position>
            <AltitudeMeters>547.4000244140625</AltitudeMeters>
            <DistanceMeters>69083.322445611</DistanceMeters>
          </Trackpoint>
          <Trackpoint>
            <Time>2018-08-26T09:36:11.000Z</Time>
            <Position>
              <LatitudeDegrees>42.98282970674335956573486328125</LatitudeDegrees>
              <LongitudeDegrees>-1.69919592328369617462158203125</LongitudeDegrees>
            </Position>
            <AltitudeMeters>547.20001220703125</AltitudeMeters>
            <DistanceMeters>69091.764327113</DistanceMeters>
          </Trackpoint>
          <Trackpoint>
            <Time>2018-08-26T09:36:12.000Z</Time>
            <Position>
              <LatitudeDegrees>42.98277321271598339080810546875</LatitudeDegrees>
              <LongitudeDegrees>-1.69912735931575298309326171875</LongitudeDegrees>
            </Position>
            <AltitudeMeters>547.20001220703125</AltitudeMeters>
            <DistanceMeters>69100.172983281</DistanceMeters>
          </Trackpoint>
          <Trackpoint>
            <Time>2018-08-26T09:36:13.000Z</Time>
            <Position>
              <LatitudeDegrees>42.98271663486957550048828125</LatitudeDegrees>
              <LongitudeDegrees>-1.699059046804904937744140625</LongitudeDegrees>
            </Position>
            <AltitudeMeters>547</AltitudeMeters>
            <DistanceMeters>69108.574118769</DistanceMeters>
          </Trackpoint>
          <Trackpoint>
            <Time>2018-08-26T09:36:14.000Z</Time>
            <Position>
              <LatitudeDegrees>42.98265955410897731781005859375</LatitudeDegrees>
              <LongitudeDegrees>-1.6989911533892154693603515625</LongitudeDegrees>
            </Position>
            <AltitudeMeters>547</AltitudeMeters>
            <DistanceMeters>69116.995651907</DistanceMeters>
          </Trackpoint>
          <Trackpoint>
            <Time>2018-08-26T09:36:15.000Z</Time>
            <Position>
              <LatitudeDegrees>42.9826024733483791351318359375</LatitudeDegrees>
              <LongitudeDegrees>-1.69892334379255771636962890625</LongitudeDegrees>
            </Position>
            <AltitudeMeters>547</AltitudeMeters>
            <DistanceMeters>69125.41289491</DistanceMeters>
          </Trackpoint>
          <Trackpoint>
            <Time>2018-08-26T09:36:16.000Z</Time>
            <Position>
              <LatitudeDegrees>42.982545979321002960205078125</LatitudeDegrees>
              <LongitudeDegrees>-1.69885545037686824798583984375</LongitudeDegrees>
            </Position>
            <AltitudeMeters>547</AltitudeMeters>
            <DistanceMeters>69133.784958775</DistanceMeters>
          </Trackpoint>
          <Trackpoint>
            <Time>2018-08-26T09:36:17.000Z</Time>
            <Position>
              <LatitudeDegrees>42.982489652931690216064453125</LatitudeDegrees>
              <LongitudeDegrees>-1.69878772459924221038818359375</LongitudeDegrees>
            </Position>
            <AltitudeMeters>546.79998779296875</AltitudeMeters>
            <DistanceMeters>69142.134341396</DistanceMeters>
          </Trackpoint>
          <Trackpoint>
            <Time>2018-08-26T09:36:18.000Z</Time>
            <Position>
              <LatitudeDegrees>42.982433326542377471923828125</LatitudeDegrees>
              <LongitudeDegrees>-1.69872016645967960357666015625</LongitudeDegrees>
            </Position>
            <AltitudeMeters>546.79998779296875</AltitudeMeters>
            <DistanceMeters>69150.475608626</DistanceMeters>
          </Trackpoint>
          <Trackpoint>
            <Time>2018-08-26T09:36:19.000Z</Time>
            <Position>
              <LatitudeDegrees>42.9823768325150012969970703125</LatitudeDegrees>
              <LongitudeDegrees>-1.69865327887237071990966796875</LongitudeDegrees>
            </Position>
            <AltitudeMeters>546.79998779296875</AltitudeMeters>
            <DistanceMeters>69158.794653395</DistanceMeters>
          </Trackpoint>
          <Trackpoint>
            <Time>2018-08-26T09:36:20.000Z</Time>
            <Position>
              <LatitudeDegrees>42.98232058994472026824951171875</LatitudeDegrees>
              <LongitudeDegrees>-1.6985864751040935516357421875</LongitudeDegrees>
            </Position>
            <AltitudeMeters>546.79998779296875</AltitudeMeters>
            <DistanceMeters>69167.087605957</DistanceMeters>
          </Trackpoint>
          <Trackpoint>
            <Time>2018-08-26T09:36:21.000Z</Time>
            <Position>
              <LatitudeDegrees>42.9822645150125026702880859375</LatitudeDegrees>
              <LongitudeDegrees>-1.69851983897387981414794921875</LongitudeDegrees>
            </Position>
            <AltitudeMeters>546.79998779296875</AltitudeMeters>
            <DistanceMeters>69175.357660309</DistanceMeters>
          </Trackpoint>
          <Trackpoint>
            <Time>2018-08-26T09:36:22.000Z</Time>
            <Position>
              <LatitudeDegrees>42.98220894299447536468505859375</LatitudeDegrees>
              <LongitudeDegrees>-1.69845378957688808441162109375</LongitudeDegrees>
            </Position>
            <AltitudeMeters>546.79998779296875</AltitudeMeters>
            <DistanceMeters>69183.554230856</DistanceMeters>
          </Trackpoint>
          <Trackpoint>
            <Time>2018-08-26T09:36:23.000Z</Time>
            <Position>
              <LatitudeDegrees>42.98215362243354320526123046875</LatitudeDegrees>
              <LongitudeDegrees>-1.698387823998928070068359375</LongitudeDegrees>
            </Position>
            <AltitudeMeters>546.79998779296875</AltitudeMeters>
            <DistanceMeters>69191.724870681</DistanceMeters>
          </Trackpoint>
          <Trackpoint>
            <Time>2018-08-26T09:36:24.000Z</Time>
            <Position>
              <LatitudeDegrees>42.982098050415515899658203125</LatitudeDegrees>
              <LongitudeDegrees>-1.698322780430316925048828125</LongitudeDegrees>
            </Position>
            <AltitudeMeters>546.79998779296875</AltitudeMeters>
            <DistanceMeters>69199.867279493</DistanceMeters>
          </Trackpoint>
          <Trackpoint>
            <Time>2018-08-26T09:36:25.000Z</Time>
            <Position>
              <LatitudeDegrees>42.98204231075942516326904296875</LatitudeDegrees>
              <LongitudeDegrees>-1.6982589103281497955322265625</LongitudeDegrees>
            </Position>
            <AltitudeMeters>546.79998779296875</AltitudeMeters>
            <DistanceMeters>69207.961860067</DistanceMeters>
          </Trackpoint>
          <Trackpoint>
            <Time>2018-08-26T09:36:26.000Z</Time>
            <Position>
              <LatitudeDegrees>42.98198699019849300384521484375</LatitudeDegrees>
              <LongitudeDegrees>-1.69819545932114124298095703125</LongitudeDegrees>
            </Position>
            <AltitudeMeters>546.79998779296875</AltitudeMeters>
            <DistanceMeters>69215.999345177</DistanceMeters>
          </Trackpoint>
          <Trackpoint>
            <Time>2018-08-26T09:36:27.000Z</Time>
            <Position>
              <LatitudeDegrees>42.98193166963756084442138671875</LatitudeDegrees>
              <LongitudeDegrees>-1.6981325112283229827880859375</LongitudeDegrees>
            </Position>
            <AltitudeMeters>546.79998779296875</AltitudeMeters>
            <DistanceMeters>69224.009821018</DistanceMeters>
          </Trackpoint>
          <Trackpoint>
            <Time>2018-08-26T09:36:28.000Z</Time>
            <Position>
              <LatitudeDegrees>42.981875427067279815673828125</LatitudeDegrees>
              <LongitudeDegrees>-1.6980704851448535919189453125</LongitudeDegrees>
            </Position>
            <AltitudeMeters>546.79998779296875</AltitudeMeters>
            <DistanceMeters>69232.052921642</DistanceMeters>
          </Trackpoint>
          <Trackpoint>
            <Time>2018-08-26T09:36:29.000Z</Time>
            <Position>
              <LatitudeDegrees>42.9818179272115230560302734375</LatitudeDegrees>
              <LongitudeDegrees>-1.69801038689911365509033203125</LongitudeDegrees>
            </Position>
            <AltitudeMeters>547</AltitudeMeters>
            <DistanceMeters>69240.109483532</DistanceMeters>
          </Trackpoint>
          <Trackpoint>
            <Time>2018-08-26T09:36:30.000Z</Time>
            <Position>
              <LatitudeDegrees>42.98175950534641742706298828125</LatitudeDegrees>
              <LongitudeDegrees>-1.69795087538659572601318359375</LongitudeDegrees>
            </Position>
            <AltitudeMeters>547</AltitudeMeters>
            <DistanceMeters>69248.219667057</DistanceMeters>
          </Trackpoint>
          <Trackpoint>
            <Time>2018-08-26T09:36:31.000Z</Time>
            <Position>
              <LatitudeDegrees>42.9817002452909946441650390625</LatitudeDegrees>
              <LongitudeDegrees>-1.69789203442633152008056640625</LongitudeDegrees>
            </Position>
            <AltitudeMeters>547.4000244140625</AltitudeMeters>
            <DistanceMeters>69256.372050919</DistanceMeters>
          </Trackpoint>
          <Trackpoint>
            <Time>2018-08-26T09:36:32.000Z</Time>
            <Position>
              <LatitudeDegrees>42.981640063226222991943359375</LatitudeDegrees>
              <LongitudeDegrees>-1.69783352874219417572021484375</LongitudeDegrees>
            </Position>
            <AltitudeMeters>547.5999755859375</AltitudeMeters>
            <DistanceMeters>69264.591724389</DistanceMeters>
          </Trackpoint>
          <Trackpoint>
            <Time>2018-08-26T09:36:33.000Z</Time>
            <Position>
              <LatitudeDegrees>42.981579042971134185791015625</LatitudeDegrees>
              <LongitudeDegrees>-1.69777519069612026214599609375</LongitudeDegrees>
            </Position>
            <AltitudeMeters>547.5999755859375</AltitudeMeters>
            <DistanceMeters>69272.879775517</DistanceMeters>
          </Trackpoint>
          <Trackpoint>
            <Time>2018-08-26T09:36:34.000Z</Time>
            <Position>
              <LatitudeDegrees>42.98151743598282337188720703125</LatitudeDegrees>
              <LongitudeDegrees>-1.69771693646907806396484375</LongitudeDegrees>
            </Position>
            <AltitudeMeters>547.5999755859375</AltitudeMeters>
            <DistanceMeters>69281.217252861</DistanceMeters>
          </Trackpoint>
          <Trackpoint>
            <Time>2018-08-26T09:36:35.000Z</Time>
            <Position>
              <LatitudeDegrees>42.98145599663257598876953125</LatitudeDegrees>
              <LongitudeDegrees>-1.69765801168978214263916015625</LongitudeDegrees>
            </Position>
            <AltitudeMeters>547.5999755859375</AltitudeMeters>
            <DistanceMeters>69289.570960467</DistanceMeters>
          </Trackpoint>
          <Trackpoint>
            <Time>2018-08-26T09:36:36.000Z</Time>
            <Position>
              <LatitudeDegrees>42.98139522783458232879638671875</LatitudeDegrees>
              <LongitudeDegrees>-1.6975982487201690673828125</LongitudeDegrees>
            </Position>
            <AltitudeMeters>547.5999755859375</AltitudeMeters>
            <DistanceMeters>69297.903020698</DistanceMeters>
          </Trackpoint>
          <Trackpoint>
            <Time>2018-08-26T09:36:37.000Z</Time>
            <Position>
              <LatitudeDegrees>42.9813351295888423919677734375</LatitudeDegrees>
              <LongitudeDegrees>-1.69753898866474628448486328125</LongitudeDegrees>
            </Position>
            <AltitudeMeters>547.5999755859375</AltitudeMeters>
            <DistanceMeters>69306.151208131</DistanceMeters>
          </Trackpoint>
          <Trackpoint>
            <Time>2018-08-26T09:36:38.000Z</Time>
            <Position>
              <LatitudeDegrees>42.981274612247943878173828125</LatitudeDegrees>
              <LongitudeDegrees>-1.697480566799640655517578125</LongitudeDegrees>
            </Position>
            <AltitudeMeters>547.5999755859375</AltitudeMeters>
            <DistanceMeters>69314.397205683</DistanceMeters>
          </Trackpoint>
          <Trackpoint>
            <Time>2018-08-26T09:36:39.000Z</Time>
            <Position>
              <LatitudeDegrees>42.98121300525963306427001953125</LatitudeDegrees>
              <LongitudeDegrees>-1.69742315076291561126708984375</LongitudeDegrees>
            </Position>
            <AltitudeMeters>547.5999755859375</AltitudeMeters>
            <DistanceMeters>69322.696688987</DistanceMeters>
          </Trackpoint>
          <Trackpoint>
            <Time>2018-08-26T09:36:40.000Z</Time>
            <Position>
              <LatitudeDegrees>42.9811517335474491119384765625</LatitudeDegrees>
              <LongitudeDegrees>-1.69736422598361968994140625</LongitudeDegrees>
            </Position>
            <AltitudeMeters>547.5999755859375</AltitudeMeters>
            <DistanceMeters>69331.035249332</DistanceMeters>
          </Trackpoint>
          <Trackpoint>
            <Time>2018-08-26T09:36:41.000Z</Time>
            <Position>
              <LatitudeDegrees>42.98109079711139202117919921875</LatitudeDegrees>
              <LongitudeDegrees>-1.69730496592819690704345703125</LongitudeDegrees>
            </Position>
            <AltitudeMeters>547.5999755859375</AltitudeMeters>
            <DistanceMeters>69339.359719683</DistanceMeters>
          </Trackpoint>
          <Trackpoint>
            <Time>2018-08-26T09:36:42.000Z</Time>
            <Position>
              <LatitudeDegrees>42.98102977685630321502685546875</LatitudeDegrees>
              <LongitudeDegrees>-1.697245202958583831787109375</LongitudeDegrees>
            </Position>
            <AltitudeMeters>547.4000244140625</AltitudeMeters>
            <DistanceMeters>69347.714508185</DistanceMeters>
          </Trackpoint>
          <Trackpoint>
            <Time>2018-08-26T09:36:43.000Z</Time>
            <Position>
              <LatitudeDegrees>42.98096892423927783966064453125</LatitudeDegrees>
              <LongitudeDegrees>-1.69718594290316104888916015625</LongitudeDegrees>
            </Position>
            <AltitudeMeters>547.20001220703125</AltitudeMeters>
            <DistanceMeters>69356.030295905</DistanceMeters>
          </Trackpoint>
          <Trackpoint>
            <Time>2018-08-26T09:36:44.000Z</Time>
            <Position>
              <LatitudeDegrees>42.98090773634612560272216796875</LatitudeDegrees>
              <LongitudeDegrees>-1.69712777249515056610107421875</LongitudeDegrees>
            </Position>
            <AltitudeMeters>547</AltitudeMeters>
            <DistanceMeters>69364.325425953</DistanceMeters>
          </Trackpoint>
          <Trackpoint>
            <Time>2018-08-26T09:36:45.000Z</Time>
            <Position>
              <LatitudeDegrees>42.9808469675481319427490234375</LatitudeDegrees>
              <LongitudeDegrees>-1.697070859372615814208984375</LongitudeDegrees>
            </Position>
            <AltitudeMeters>546.79998779296875</AltitudeMeters>
            <DistanceMeters>69372.524199583</DistanceMeters>
          </Trackpoint>
          <Trackpoint>
            <Time>2018-08-26T09:36:46.000Z</Time>
            <Position>
              <LatitudeDegrees>42.98078703694045543670654296875</LatitudeDegrees>
              <LongitudeDegrees>-1.6970140300691127777099609375</LongitudeDegrees>
            </Position>
            <AltitudeMeters>546.79998779296875</AltitudeMeters>
            <DistanceMeters>69380.642729497</DistanceMeters>
          </Trackpoint>
          <Trackpoint>
            <Time>2018-08-26T09:36:47.000Z</Time>
            <Position>
              <LatitudeDegrees>42.98072635196149349212646484375</LatitudeDegrees>
              <LongitudeDegrees>-1.69695477001368999481201171875</LongitudeDegrees>
            </Position>
            <AltitudeMeters>546.5999755859375</AltitudeMeters>
            <DistanceMeters>69388.944388574</DistanceMeters>
          </Trackpoint>
          <Trackpoint>
            <Time>2018-08-26T09:36:48.000Z</Time>
            <Position>
              <LatitudeDegrees>42.98066499643027782440185546875</LatitudeDegrees>
              <LongitudeDegrees>-1.69689542613923549652099609375</LongitudeDegrees>
            </Position>
            <AltitudeMeters>546.4000244140625</AltitudeMeters>
            <DistanceMeters>69397.309978358</DistanceMeters>
          </Trackpoint>
          <Trackpoint>
            <Time>2018-08-26T09:36:49.000Z</Time>
            <Position>
              <LatitudeDegrees>42.9806028865277767181396484375</LatitudeDegrees>
              <LongitudeDegrees>-1.69683591462671756744384765625</LongitudeDegrees>
            </Position>
            <AltitudeMeters>546.4000244140625</AltitudeMeters>
            <DistanceMeters>69405.752929468</DistanceMeters>
          </Trackpoint>
          <Trackpoint>
            <Time>2018-08-26T09:36:50.000Z</Time>
            <Position>
              <LatitudeDegrees>42.98054060898721218109130859375</LatitudeDegrees>
              <LongitudeDegrees>-1.69677590020000934600830078125</LongitudeDegrees>
            </Position>
            <AltitudeMeters>546.4000244140625</AltitudeMeters>
            <DistanceMeters>69414.234296631</DistanceMeters>
          </Trackpoint>
          <Trackpoint>
            <Time>2018-08-26T09:36:51.000Z</Time>
            <Position>
              <LatitudeDegrees>42.98047891817986965179443359375</LatitudeDegrees>
              <LongitudeDegrees>-1.69671513140201568603515625</LongitudeDegrees>
            </Position>
            <AltitudeMeters>546.4000244140625</AltitudeMeters>
            <DistanceMeters>69422.69754461</DistanceMeters>
          </Trackpoint>
          <Trackpoint>
            <Time>2018-08-26T09:36:52.000Z</Time>
            <Position>
              <LatitudeDegrees>42.98041840083897113800048828125</LatitudeDegrees>
              <LongitudeDegrees>-1.6966539435088634490966796875</LongitudeDegrees>
            </Position>
            <AltitudeMeters>546.20001220703125</AltitudeMeters>
            <DistanceMeters>69431.076077553</DistanceMeters>
          </Trackpoint>
          <Trackpoint>
            <Time>2018-08-26T09:36:53.000Z</Time>
            <Position>
              <LatitudeDegrees>42.98035754822194576263427734375</LatitudeDegrees>
              <LongitudeDegrees>-1.6965945996344089508056640625</LongitudeDegrees>
            </Position>
            <AltitudeMeters>546.20001220703125</AltitudeMeters>
            <DistanceMeters>69439.396207721</DistanceMeters>
          </Trackpoint>
          <Trackpoint>
            <Time>2018-08-26T09:36:54.000Z</Time>
            <Position>
              <LatitudeDegrees>42.9802964441478252410888671875</LatitudeDegrees>
              <LongitudeDegrees>-1.696535758674144744873046875</LongitudeDegrees>
            </Position>
            <AltitudeMeters>546.20001220703125</AltitudeMeters>
            <DistanceMeters>69447.71525249</DistanceMeters>
          </Trackpoint>
          <Trackpoint>
            <Time>2018-08-26T09:36:55.000Z</Time>
            <Position>
              <LatitudeDegrees>42.98023617826402187347412109375</LatitudeDegrees>
              <LongitudeDegrees>-1.69647683389484882354736328125</LongitudeDegrees>
            </Position>
            <AltitudeMeters>546.20001220703125</AltitudeMeters>
            <DistanceMeters>69455.962345055</DistanceMeters>
          </Trackpoint>
          <Trackpoint>
            <Time>2018-08-26T09:36:56.000Z</Time>
            <Position>
              <LatitudeDegrees>42.98017599619925022125244140625</LatitudeDegrees>
              <LongitudeDegrees>-1.69641782529652118682861328125</LongitudeDegrees>
            </Position>
            <AltitudeMeters>546.20001220703125</AltitudeMeters>
            <DistanceMeters>69464.206152144</DistanceMeters>
          </Trackpoint>
          <Trackpoint>
            <Time>2018-08-26T09:36:57.000Z</Time>
            <Position>
              <LatitudeDegrees>42.9801157303154468536376953125</LatitudeDegrees>
              <LongitudeDegrees>-1.6963582299649715423583984375</LongitudeDegrees>
            </Position>
            <AltitudeMeters>546.20001220703125</AltitudeMeters>
            <DistanceMeters>69472.484937092</DistanceMeters>
          </Trackpoint>
          <Trackpoint>
            <Time>2018-08-26T09:36:58.000Z</Time>
            <Position>
              <LatitudeDegrees>42.9800547100603580474853515625</LatitudeDegrees>
              <LongitudeDegrees>-1.6962992213666439056396484375</LongitudeDegrees>
            </Position>
            <AltitudeMeters>546.20001220703125</AltitudeMeters>
            <DistanceMeters>69480.804524578</DistanceMeters>
          </Trackpoint>
          <Trackpoint>
            <Time>2018-08-26T09:36:59.000Z</Time>
            <Position>
              <LatitudeDegrees>42.9799933545291423797607421875</LatitudeDegrees>
              <LongitudeDegrees>-1.69624096713960170745849609375</LongitudeDegrees>
            </Position>
            <AltitudeMeters>546.20001220703125</AltitudeMeters>
            <DistanceMeters>69489.119226332</DistanceMeters>
          </Trackpoint>
          <Trackpoint>
            <Time>2018-08-26T09:37:00.000Z</Time>
            <Position>
              <LatitudeDegrees>42.9799323342740535736083984375</LatitudeDegrees>
              <LongitudeDegrees>-1.69618313200771808624267578125</LongitudeDegrees>
            </Position>
            <AltitudeMeters>546.20001220703125</AltitudeMeters>
            <DistanceMeters>69497.383819378</DistanceMeters>
          </Trackpoint>
          <Trackpoint>
            <Time>2018-08-26T09:37:01.000Z</Time>
            <Position>
              <LatitudeDegrees>42.9798719845712184906005859375</LatitudeDegrees>
              <LongitudeDegrees>-1.69612504541873931884765625</LongitudeDegrees>
            </Position>
            <AltitudeMeters>546.4000244140625</AltitudeMeters>
            <DistanceMeters>69505.599097301</DistanceMeters>
          </Trackpoint>
          <Trackpoint>
            <Time>2018-08-26T09:37:02.000Z</Time>
            <Position>
              <LatitudeDegrees>42.97981121577322483062744140625</LatitudeDegrees>
              <LongitudeDegrees>-1.6960672102868556976318359375</LongitudeDegrees>
            </Position>
            <AltitudeMeters>546.4000244140625</AltitudeMeters>
            <DistanceMeters>69513.840713344</DistanceMeters>
          </Trackpoint>
          <Trackpoint>
            <Time>2018-08-26T09:37:03.000Z</Time>
            <Position>
              <LatitudeDegrees>42.97974935732781887054443359375</LatitudeDegrees>
              <LongitudeDegrees>-1.69601080007851123809814453125</LongitudeDegrees>
            </Position>
            <AltitudeMeters>546.5999755859375</AltitudeMeters>
            <DistanceMeters>69522.117316507</DistanceMeters>
          </Trackpoint>
          <Trackpoint>
            <Time>2018-08-26T09:37:04.000Z</Time>
            <Position>
              <LatitudeDegrees>42.97968666069209575653076171875</LatitudeDegrees>
              <LongitudeDegrees>-1.69595606625080108642578125</LongitudeDegrees>
            </Position>
            <AltitudeMeters>546.79998779296875</AltitudeMeters>
            <DistanceMeters>69530.397737416</DistanceMeters>
          </Trackpoint>
          <Trackpoint>
            <Time>2018-08-26T09:37:05.000Z</Time>
            <Position>
              <LatitudeDegrees>42.9796235449612140655517578125</LatitudeDegrees>
              <LongitudeDegrees>-1.6959032602608203887939453125</LongitudeDegrees>
            </Position>
            <AltitudeMeters>546.79998779296875</AltitudeMeters>
            <DistanceMeters>69538.633873297</DistanceMeters>
          </Trackpoint>
          <Trackpoint>
            <Time>2018-08-26T09:37:06.000Z</Time>
            <Position>
              <LatitudeDegrees>42.979559339582920074462890625</LatitudeDegrees>
              <LongitudeDegrees>-1.69585271738469600677490234375</LongitudeDegrees>
            </Position>
            <AltitudeMeters>546.79998779296875</AltitudeMeters>
            <DistanceMeters>69546.880965862</DistanceMeters>
          </Trackpoint>
          <Trackpoint>
            <Time>2018-08-26T09:37:07.000Z</Time>
            <Position>
              <LatitudeDegrees>42.9794947989284992218017578125</LatitudeDegrees>
              <LongitudeDegrees>-1.69580494053661823272705078125</LongitudeDegrees>
            </Position>
            <AltitudeMeters>546.79998779296875</AltitudeMeters>
            <DistanceMeters>69555.04994774</DistanceMeters>
          </Trackpoint>
          <Trackpoint>
            <Time>2018-08-26T09:37:08.000Z</Time>
            <Position>
              <LatitudeDegrees>42.97943084500730037689208984375</LatitudeDegrees>
              <LongitudeDegrees>-1.69575632549822330474853515625</LongitudeDegrees>
            </Position>
            <AltitudeMeters>546.79998779296875</AltitudeMeters>
            <DistanceMeters>69563.194574285</DistanceMeters>
          </Trackpoint>
          <Trackpoint>
            <Time>2018-08-26T09:37:09.000Z</Time>
            <Position>
              <LatitudeDegrees>42.97936781309545040130615234375</LatitudeDegrees>
              <LongitudeDegrees>-1.695705950260162353515625</LongitudeDegrees>
            </Position>
            <AltitudeMeters>546.79998779296875</AltitudeMeters>
            <DistanceMeters>69571.321442015</DistanceMeters>
          </Trackpoint>
          <Trackpoint>
            <Time>2018-08-26T09:37:10.000Z</Time>
            <Position>
              <LatitudeDegrees>42.979305200278759002685546875</LatitudeDegrees>
              <LongitudeDegrees>-1.6956561617553234100341796875</LongitudeDegrees>
            </Position>
            <AltitudeMeters>546.79998779296875</AltitudeMeters>
            <DistanceMeters>69579.383606132</DistanceMeters>
          </Trackpoint>
          <Trackpoint>
            <Time>2018-08-26T09:37:11.000Z</Time>
            <Position>
              <LatitudeDegrees>42.97924225218594074249267578125</LatitudeDegrees>
              <LongitudeDegrees>-1.69560737907886505126953125</LongitudeDegrees>
            </Position>
            <AltitudeMeters>546.79998779296875</AltitudeMeters>
            <DistanceMeters>69587.43792604</DistanceMeters>
          </Trackpoint>
          <Trackpoint>
            <Time>2018-08-26T09:37:12.000Z</Time>
            <Position>
              <LatitudeDegrees>42.9791794717311859130859375</LatitudeDegrees>
              <LongitudeDegrees>-1.69556002132594585418701171875</LongitudeDegrees>
            </Position>
            <AltitudeMeters>546.79998779296875</AltitudeMeters>
            <DistanceMeters>69595.419038696</DistanceMeters>
          </Trackpoint>
          <Trackpoint>
            <Time>2018-08-26T09:37:13.000Z</Time>
            <Position>
              <LatitudeDegrees>42.97911711037158966064453125</LatitudeDegrees>
              <LongitudeDegrees>-1.695513837039470672607421875</LongitudeDegrees>
            </Position>
            <AltitudeMeters>546.79998779296875</AltitudeMeters>
            <DistanceMeters>69603.313122401</DistanceMeters>
          </Trackpoint>
          <Trackpoint>
            <Time>2018-08-26T09:37:14.000Z</Time>
            <Position>
              <LatitudeDegrees>42.979055084288120269775390625</LatitudeDegrees>
              <LongitudeDegrees>-1.69546790421009063720703125</LongitudeDegrees>
            </Position>
            <AltitudeMeters>546.79998779296875</AltitudeMeters>
            <DistanceMeters>69611.164767571</DistanceMeters>
          </Trackpoint>
          <Trackpoint>
            <Time>2018-08-26T09:37:15.000Z</Time>
            <Position>
              <LatitudeDegrees>42.97899263910949230194091796875</LatitudeDegrees>
              <LongitudeDegrees>-1.6954229772090911865234375</LongitudeDegrees>
            </Position>
            <AltitudeMeters>546.5999755859375</AltitudeMeters>
            <DistanceMeters>69619.019287434</DistanceMeters>
          </Trackpoint>
          <Trackpoint>
            <Time>2018-08-26T09:37:16.000Z</Time>
            <Position>
              <LatitudeDegrees>42.97893078066408634185791015625</LatitudeDegrees>
              <LongitudeDegrees>-1.6953773796558380126953125</LongitudeDegrees>
            </Position>
            <AltitudeMeters>546.5999755859375</AltitudeMeters>
            <DistanceMeters>69626.841550404</DistanceMeters>
          </Trackpoint>
          <Trackpoint>
            <Time>2018-08-26T09:37:17.000Z</Time>
            <Position>
              <LatitudeDegrees>42.9788698442280292510986328125</LatitudeDegrees>
              <LongitudeDegrees>-1.695331446826457977294921875</LongitudeDegrees>
            </Position>
            <AltitudeMeters>546.5999755859375</AltitudeMeters>
            <DistanceMeters>69634.587247784</DistanceMeters>
          </Trackpoint>
          <Trackpoint>
            <Time>2018-08-26T09:37:18.000Z</Time>
            <Position>
              <LatitudeDegrees>42.97880999743938446044921875</LatitudeDegrees>
              <LongitudeDegrees>-1.6952866874635219573974609375</LongitudeDegrees>
            </Position>
            <AltitudeMeters>546.4000244140625</AltitudeMeters>
            <DistanceMeters>69642.180470953</DistanceMeters>
          </Trackpoint>
          <Trackpoint>
            <Time>2018-08-26T09:37:19.000Z</Time>
            <Position>
              <LatitudeDegrees>42.9787508212029933929443359375</LatitudeDegrees>
              <LongitudeDegrees>-1.69524268247187137603759765625</LongitudeDegrees>
            </Position>
            <AltitudeMeters>546.4000244140625</AltitudeMeters>
            <DistanceMeters>69649.678554437</DistanceMeters>
          </Trackpoint>
          <Trackpoint>
            <Time>2018-08-26T09:37:20.000Z</Time>
            <Position>
              <LatitudeDegrees>42.97869198024272918701171875</LatitudeDegrees>
              <LongitudeDegrees>-1.69519876129925251007080078125</LongitudeDegrees>
            </Position>
            <AltitudeMeters>546.4000244140625</AltitudeMeters>
            <DistanceMeters>69657.140420916</DistanceMeters>
          </Trackpoint>
          <Trackpoint>
            <Time>2018-08-26T09:37:21.000Z</Time>
            <Position>
              <LatitudeDegrees>42.9786331392824649810791015625</LatitudeDegrees>
              <LongitudeDegrees>-1.69515517540276050567626953125</LongitudeDegrees>
            </Position>
            <AltitudeMeters>546.4000244140625</AltitudeMeters>
            <DistanceMeters>69664.590175934</DistanceMeters>
          </Trackpoint>
          <Trackpoint>
            <Time>2018-08-26T09:37:22.000Z</Time>
            <Position>
              <LatitudeDegrees>42.97857454977929592132568359375</LatitudeDegrees>
              <LongitudeDegrees>-1.69511259533464908599853515625</LongitudeDegrees>
            </Position>
            <AltitudeMeters>546.20001220703125</AltitudeMeters>
            <DistanceMeters>69671.976019948</DistanceMeters>
          </Trackpoint>
          <Trackpoint>
            <Time>2018-08-26T09:37:23.000Z</Time>
            <Position>
              <LatitudeDegrees>42.97851654700934886932373046875</LatitudeDegrees>
              <LongitudeDegrees>-1.6950697638094425201416015625</LongitudeDegrees>
            </Position>
            <AltitudeMeters>546.20001220703125</AltitudeMeters>
            <DistanceMeters>69679.313411566</DistanceMeters>
          </Trackpoint>
          <Trackpoint>
            <Time>2018-08-26T09:37:24.000Z</Time>
            <Position>
              <LatitudeDegrees>42.978460304439067840576171875</LatitudeDegrees>
              <LongitudeDegrees>-1.69502475298941135406494140625</LongitudeDegrees>
            </Position>
            <AltitudeMeters>546.20001220703125</AltitudeMeters>
            <DistanceMeters>69686.566633289</DistanceMeters>
          </Trackpoint>
          <Trackpoint>
            <Time>2018-08-26T09:37:25.000Z</Time>
            <Position>
              <LatitudeDegrees>42.9784061573445796966552734375</LatitudeDegrees>
              <LongitudeDegrees>-1.694977395236492156982421875</LongitudeDegrees>
            </Position>
            <AltitudeMeters>546</AltitudeMeters>
            <DistanceMeters>69693.721457072</DistanceMeters>
          </Trackpoint>
          <Trackpoint>
            <Time>2018-08-26T09:37:26.000Z</Time>
            <Position>
              <LatitudeDegrees>42.9783508367836475372314453125</LatitudeDegrees>
              <LongitudeDegrees>-1.694932468235492706298828125</LongitudeDegrees>
            </Position>
            <AltitudeMeters>546</AltitudeMeters>
            <DistanceMeters>69700.88321902</DistanceMeters>
          </Trackpoint>
          <Trackpoint>
            <Time>2018-08-26T09:37:27.000Z</Time>
            <Position>
              <LatitudeDegrees>42.978293336927890777587890625</LatitudeDegrees>
              <LongitudeDegrees>-1.6948897205293178558349609375</LongitudeDegrees>
            </Position>
            <AltitudeMeters>546</AltitudeMeters>
            <DistanceMeters>69708.168738174</DistanceMeters>
          </Trackpoint>
          <Trackpoint>
            <Time>2018-08-26T09:37:28.000Z</Time>
            <Position>
              <LatitudeDegrees>42.97823441214859485626220703125</LatitudeDegrees>
              <LongitudeDegrees>-1.69484563171863555908203125</LongitudeDegrees>
            </Position>
            <AltitudeMeters>546</AltitudeMeters>
            <DistanceMeters>69715.646320225</DistanceMeters>
          </Trackpoint>
          <Trackpoint>
            <Time>2018-08-26T09:37:29.000Z</Time>
            <Position>
              <LatitudeDegrees>42.97817523591220378875732421875</LatitudeDegrees>
              <LongitudeDegrees>-1.6948002018034458160400390625</LongitudeDegrees>
            </Position>
            <AltitudeMeters>546</AltitudeMeters>
            <DistanceMeters>69723.200196916</DistanceMeters>
          </Trackpoint>
          <Trackpoint>
            <Time>2018-08-26T09:37:30.000Z</Time>
            <Position>
              <LatitudeDegrees>42.97811639495193958282470703125</LatitudeDegrees>
              <LongitudeDegrees>-1.694752760231494903564453125</LongitudeDegrees>
            </Position>
            <AltitudeMeters>545.79998779296875</AltitudeMeters>
            <DistanceMeters>69730.803521806</DistanceMeters>
          </Trackpoint>
          <Trackpoint>
            <Time>2018-08-26T09:37:31.000Z</Time>
            <Position>
              <LatitudeDegrees>42.978062331676483154296875</LatitudeDegrees>
              <LongitudeDegrees>-1.69469685293734073638916015625</LongitudeDegrees>
            </Position>
            <AltitudeMeters>545.79998779296875</AltitudeMeters>
            <DistanceMeters>69738.348427498</DistanceMeters>
          </Trackpoint>
          <Trackpoint>
            <Time>2018-08-26T09:37:32.000Z</Time>
            <Position>
              <LatitudeDegrees>42.97802151180803775787353515625</LatitudeDegrees>
              <LongitudeDegrees>-1.69462426565587520599365234375</LongitudeDegrees>
            </Position>
            <AltitudeMeters>545.79998779296875</AltitudeMeters>
            <DistanceMeters>69745.804240706</DistanceMeters>
          </Trackpoint>
          <Trackpoint>
            <Time>2018-08-26T09:37:33.000Z</Time>
            <Position>
              <LatitudeDegrees>42.9780034907162189483642578125</LatitudeDegrees>
              <LongitudeDegrees>-1.6945343278348445892333984375</LongitudeDegrees>
            </Position>
            <AltitudeMeters>545.79998779296875</AltitudeMeters>
            <DistanceMeters>69753.397463875</DistanceMeters>
          </Trackpoint>
          <Trackpoint>
            <Time>2018-08-26T09:37:34.000Z</Time>
            <Position>
              <LatitudeDegrees>42.9780108667910099029541015625</LatitudeDegrees>
              <LongitudeDegrees>-1.6944340802729129791259765625</LongitudeDegrees>
            </Position>
            <AltitudeMeters>545.79998779296875</AltitudeMeters>
            <DistanceMeters>69761.602292934</DistanceMeters>
          </Trackpoint>
          <Trackpoint>
            <Time>2018-08-26T09:37:35.000Z</Time>
            <Position>
              <LatitudeDegrees>42.9780336655676364898681640625</LatitudeDegrees>
              <LongitudeDegrees>-1.69432804919779300689697265625</LongitudeDegrees>
            </Position>
            <AltitudeMeters>545.79998779296875</AltitudeMeters>
            <DistanceMeters>69770.60127763</DistanceMeters>
          </Trackpoint>
          <Trackpoint>
            <Time>2018-08-26T09:37:36.000Z</Time>
            <Position>
              <LatitudeDegrees>42.9780618287622928619384765625</LatitudeDegrees>
              <LongitudeDegrees>-1.6942148096859455108642578125</LongitudeDegrees>
            </Position>
            <AltitudeMeters>545.79998779296875</AltitudeMeters>
            <DistanceMeters>69780.340472821</DistanceMeters>
          </Trackpoint>
          <Trackpoint>
            <Time>2018-08-26T09:37:37.000Z</Time>
            <Position>
              <LatitudeDegrees>42.9780906625092029571533203125</LatitudeDegrees>
              <LongitudeDegrees>-1.69409553520381450653076171875</LongitudeDegrees>
            </Position>
            <AltitudeMeters>545.79998779296875</AltitudeMeters>
            <DistanceMeters>69790.569868005</DistanceMeters>
          </Trackpoint>
          <Trackpoint>
            <Time>2018-08-26T09:37:38.000Z</Time>
            <Position>
              <LatitudeDegrees>42.9781201668083667755126953125</LatitudeDegrees>
              <LongitudeDegrees>-1.69397382996976375579833984375</LongitudeDegrees>
            </Position>
            <AltitudeMeters>545.79998779296875</AltitudeMeters>
            <DistanceMeters>69801.009840355</DistanceMeters>
          </Trackpoint>
          <Trackpoint>
            <Time>2018-08-26T09:37:39.000Z</Time>
            <Position>
              <LatitudeDegrees>42.978150844573974609375</LatitudeDegrees>
              <LongitudeDegrees>-1.693852208554744720458984375</LongitudeDegrees>
            </Position>
            <AltitudeMeters>545.79998779296875</AltitudeMeters>
            <DistanceMeters>69811.485215716</DistanceMeters>
          </Trackpoint>
          <Trackpoint>
            <Time>2018-08-26T09:37:40.000Z</Time>
            <Position>
              <LatitudeDegrees>42.978183366358280181884765625</LatitudeDegrees>
              <LongitudeDegrees>-1.6937326826155185699462890625</LongitudeDegrees>
            </Position>
            <AltitudeMeters>545.5999755859375</AltitudeMeters>
            <DistanceMeters>69821.869683584</DistanceMeters>
          </Trackpoint>
          <Trackpoint>
            <Time>2018-08-26T09:37:41.000Z</Time>
            <Position>
              <LatitudeDegrees>42.97821815125644207000732421875</LatitudeDegrees>
              <LongitudeDegrees>-1.69361575506627559661865234375</LongitudeDegrees>
            </Position>
            <AltitudeMeters>545.5999755859375</AltitudeMeters>
            <DistanceMeters>69832.14751576</DistanceMeters>
          </Trackpoint>
          <Trackpoint>
            <Time>2018-08-26T09:37:42.000Z</Time>
            <Position>
              <LatitudeDegrees>42.978255115449428558349609375</LatitudeDegrees>
              <LongitudeDegrees>-1.69350042007863521575927734375</LongitudeDegrees>
            </Position>
            <AltitudeMeters>545.4000244140625</AltitudeMeters>
            <DistanceMeters>69842.400717697</DistanceMeters>
          </Trackpoint>
          <Trackpoint>
            <Time>2018-08-26T09:37:43.000Z</Time>
            <Position>
              <LatitudeDegrees>42.97829325310885906219482421875</LatitudeDegrees>
              <LongitudeDegrees>-1.6933873482048511505126953125</LongitudeDegrees>
            </Position>
            <AltitudeMeters>545</AltitudeMeters>
            <DistanceMeters>69852.539671797</DistanceMeters>
          </Trackpoint>
          <Trackpoint>
            <Time>2018-08-26T09:37:44.000Z</Time>
            <Position>
              <LatitudeDegrees>42.978332228958606719970703125</LatitudeDegrees>
              <LongitudeDegrees>-1.6932760365307331085205078125</LongitudeDegrees>
            </Position>
            <AltitudeMeters>544.4000244140625</AltitudeMeters>
            <DistanceMeters>69862.58826945</DistanceMeters>
          </Trackpoint>
          <Trackpoint>
            <Time>2018-08-26T09:37:45.000Z</Time>
            <Position>
              <LatitudeDegrees>42.97837204299867153167724609375</LatitudeDegrees>
              <LongitudeDegrees>-1.693166904151439666748046875</LongitudeDegrees>
            </Position>
            <AltitudeMeters>543.4000244140625</AltitudeMeters>
            <DistanceMeters>69872.518447433</DistanceMeters>
          </Trackpoint>
          <Trackpoint>
            <Time>2018-08-26T09:37:46.000Z</Time>
            <Position>
              <LatitudeDegrees>42.97841194085776805877685546875</LatitudeDegrees>
              <LongitudeDegrees>-1.69306020252406597137451171875</LongitudeDegrees>
            </Position>
            <AltitudeMeters>542.5999755859375</AltitudeMeters>
            <DistanceMeters>69882.276168787</DistanceMeters>
          </Trackpoint>
          <Trackpoint>
            <Time>2018-08-26T09:37:47.000Z</Time>
            <Position>
              <LatitudeDegrees>42.97845049761235713958740234375</LatitudeDegrees>
              <LongitudeDegrees>-1.69295609928667545318603515625</LongitudeDegrees>
            </Position>
            <AltitudeMeters>542.20001220703125</AltitudeMeters>
            <DistanceMeters>69891.777889909</DistanceMeters>
          </Trackpoint>
          <Trackpoint>
            <Time>2018-08-26T09:37:48.000Z</Time>
            <Position>
              <LatitudeDegrees>42.97848637215793132781982421875</LatitudeDegrees>
              <LongitudeDegrees>-1.69285417534410953521728515625</LongitudeDegrees>
            </Position>
            <AltitudeMeters>541.79998779296875</AltitudeMeters>
            <DistanceMeters>69900.988130846</DistanceMeters>
          </Trackpoint>
          <Trackpoint>
            <Time>2018-08-26T09:37:49.000Z</Time>
            <Position>
              <LatitudeDegrees>42.97852140851318836212158203125</LatitudeDegrees>
              <LongitudeDegrees>-1.69275325722992420196533203125</LongitudeDegrees>
            </Position>
            <AltitudeMeters>541.79998779296875</AltitudeMeters>
            <DistanceMeters>69910.084426271</DistanceMeters>
          </Trackpoint>
          <Trackpoint>
            <Time>2018-08-26T09:37:50.000Z</Time>
            <Position>
              <LatitudeDegrees>42.9785580374300479888916015625</LatitudeDegrees>
              <LongitudeDegrees>-1.69265250675380229949951171875</LongitudeDegrees>
            </Position>
            <AltitudeMeters>541.5999755859375</AltitudeMeters>
            <DistanceMeters>69919.245514114</DistanceMeters>
          </Trackpoint>
          <Trackpoint>
            <Time>2018-08-26T09:37:51.000Z</Time>
            <Position>
              <LatitudeDegrees>42.97859952785074710845947265625</LatitudeDegrees>
              <LongitudeDegrees>-1.692553348839282989501953125</LongitudeDegrees>
            </Position>
            <AltitudeMeters>541.5999755859375</AltitudeMeters>
            <DistanceMeters>69928.547459743</DistanceMeters>
          </Trackpoint>
          <Trackpoint>
            <Time>2018-08-26T09:37:52.000Z</Time>
            <Position>
              <LatitudeDegrees>42.978646717965602874755859375</LatitudeDegrees>
              <LongitudeDegrees>-1.6924589686095714569091796875</LongitudeDegrees>
            </Position>
            <AltitudeMeters>541.4000244140625</AltitudeMeters>
            <DistanceMeters>69937.856198302</DistanceMeters>
          </Trackpoint>
          <Trackpoint>
            <Time>2018-08-26T09:37:53.000Z</Time>
            <Position>
              <LatitudeDegrees>42.9786993563175201416015625</LatitudeDegrees>
              <LongitudeDegrees>-1.69236953370273113250732421875</LongitudeDegrees>
            </Position>
            <AltitudeMeters>541.4000244140625</AltitudeMeters>
            <DistanceMeters>69947.202692806</DistanceMeters>
          </Trackpoint>
          <Trackpoint>
            <Time>2018-08-26T09:37:54.000Z</Time>
            <Position>
              <LatitudeDegrees>42.978755347430706024169921875</LatitudeDegrees>
              <LongitudeDegrees>-1.6922839544713497161865234375</LongitudeDegrees>
            </Position>
            <AltitudeMeters>541.4000244140625</AltitudeMeters>
            <DistanceMeters>69956.551602363</DistanceMeters>
          </Trackpoint>
          <Trackpoint>
            <Time>2018-08-26T09:37:55.000Z</Time>
            <Position>
              <LatitudeDegrees>42.97881209291517734527587890625</LatitudeDegrees>
              <LongitudeDegrees>-1.69220088981091976165771484375</LongitudeDegrees>
            </Position>
            <AltitudeMeters>541.20001220703125</AltitudeMeters>
            <DistanceMeters>69965.806345745</DistanceMeters>
          </Trackpoint>
          <Trackpoint>
            <Time>2018-08-26T09:37:56.000Z</Time>
            <Position>
              <LatitudeDegrees>42.97886758111417293548583984375</LatitudeDegrees>
              <LongitudeDegrees>-1.6921189986169338226318359375</LongitudeDegrees>
            </Position>
            <AltitudeMeters>541.20001220703125</AltitudeMeters>
            <DistanceMeters>69974.895192719</DistanceMeters>
          </Trackpoint>
          <Trackpoint>
            <Time>2018-08-26T09:37:57.000Z</Time>
            <Position>
              <LatitudeDegrees>42.97892156057059764862060546875</LatitudeDegrees>
              <LongitudeDegrees>-1.69203744269907474517822265625</LongitudeDegrees>
            </Position>
            <AltitudeMeters>541</AltitudeMeters>
            <DistanceMeters>69983.850924904</DistanceMeters>
          </Trackpoint>
          <Trackpoint>
            <Time>2018-08-26T09:37:58.000Z</Time>
            <Position>
              <LatitudeDegrees>42.9789731092751026153564453125</LatitudeDegrees>
              <LongitudeDegrees>-1.69195647351443767547607421875</LongitudeDegrees>
            </Position>
            <AltitudeMeters>541</AltitudeMeters>
            <DistanceMeters>69992.591316584</DistanceMeters>
          </Trackpoint>
          <Trackpoint>
            <Time>2018-08-26T09:37:59.000Z</Time>
            <Position>
              <LatitudeDegrees>42.9790213890373706817626953125</LatitudeDegrees>
              <LongitudeDegrees>-1.6918744146823883056640625</LongitudeDegrees>
            </Position>
            <AltitudeMeters>541</AltitudeMeters>
            <DistanceMeters>70001.166391655</DistanceMeters>
          </Trackpoint>
          <Trackpoint>
            <Time>2018-08-26T09:38:00.000Z</Time>
            <Position>
              <LatitudeDegrees>42.97906522639095783233642578125</LatitudeDegrees>
              <LongitudeDegrees>-1.6917910985648632049560546875</LongitudeDegrees>
            </Position>
            <AltitudeMeters>541</AltitudeMeters>
            <DistanceMeters>70009.52280124</DistanceMeters>
          </Trackpoint>
          <Trackpoint>
            <Time>2018-08-26T09:38:01.000Z</Time>
            <Position>
              <LatitudeDegrees>42.9791048727929592132568359375</LatitudeDegrees>
              <LongitudeDegrees>-1.69170518405735492706298828125</LongitudeDegrees>
            </Position>
            <AltitudeMeters>541</AltitudeMeters>
            <DistanceMeters>70017.79394742</DistanceMeters>
          </Trackpoint>
          <Trackpoint>
            <Time>2018-08-26T09:38:02.000Z</Time>
            <Position>
              <LatitudeDegrees>42.97914217226207256317138671875</LatitudeDegrees>
              <LongitudeDegrees>-1.69161968864500522613525390625</LongitudeDegrees>
            </Position>
            <AltitudeMeters>541</AltitudeMeters>
            <DistanceMeters>70025.898561911</DistanceMeters>
          </Trackpoint>
          <Trackpoint>
            <Time>2018-08-26T09:38:03.000Z</Time>
            <Position>
              <LatitudeDegrees>42.97917787916958332061767578125</LatitudeDegrees>
              <LongitudeDegrees>-1.69153436087071895599365234375</LongitudeDegrees>
            </Position>
            <AltitudeMeters>541.20001220703125</AltitudeMeters>
            <DistanceMeters>70033.902835293</DistanceMeters>
          </Trackpoint>
          <Trackpoint>
            <Time>2018-08-26T09:38:04.000Z</Time>
            <Position>
              <LatitudeDegrees>42.9792116582393646240234375</LatitudeDegrees>
              <LongitudeDegrees>-1.691450290381908416748046875</LongitudeDegrees>
            </Position>
            <AltitudeMeters>541.4000244140625</AltitudeMeters>
            <DistanceMeters>70041.712967583</DistanceMeters>
          </Trackpoint>
          <Trackpoint>
            <Time>2018-08-26T09:38:05.000Z</Time>
            <Position>
              <LatitudeDegrees>42.9792436771094799041748046875</LatitudeDegrees>
              <LongitudeDegrees>-1.6913673095405101776123046875</LongitudeDegrees>
            </Position>
            <AltitudeMeters>541.4000244140625</AltitudeMeters>
            <DistanceMeters>70049.351838833</DistanceMeters>
          </Trackpoint>
          <Trackpoint>
            <Time>2018-08-26T09:38:06.000Z</Time>
            <Position>
              <LatitudeDegrees>42.97927494160830974578857421875</LatitudeDegrees>
              <LongitudeDegrees>-1.6912865079939365386962890625</LongitudeDegrees>
            </Position>
            <AltitudeMeters>541.5999755859375</AltitudeMeters>
            <DistanceMeters>70056.794924147</DistanceMeters>
          </Trackpoint>
          <Trackpoint>
            <Time>2018-08-26T09:38:07.000Z</Time>
            <Position>
              <LatitudeDegrees>42.9793055355548858642578125</LatitudeDegrees>
              <LongitudeDegrees>-1.6912077181041240692138671875</LongitudeDegrees>
            </Position>
            <AltitudeMeters>541.5999755859375</AltitudeMeters>
            <DistanceMeters>70064.058098837</DistanceMeters>
          </Trackpoint>
          <Trackpoint>
            <Time>2018-08-26T09:38:08.000Z</Time>
            <Position>
              <LatitudeDegrees>42.9793345369398593902587890625</LatitudeDegrees>
              <LongitudeDegrees>-1.69113052077591419219970703125</LongitudeDegrees>
            </Position>
            <AltitudeMeters>541.5999755859375</AltitudeMeters>
            <DistanceMeters>70071.124662552</DistanceMeters>
          </Trackpoint>
          <Trackpoint>
            <Time>2018-08-26T09:38:09.000Z</Time>
            <Position>
              <LatitudeDegrees>42.979362867772579193115234375</LatitudeDegrees>
              <LongitudeDegrees>-1.69105541892349720001220703125</LongitudeDegrees>
            </Position>
            <AltitudeMeters>541.79998779296875</AltitudeMeters>
            <DistanceMeters>70078.005410389</DistanceMeters>
          </Trackpoint>
          <Trackpoint>
            <Time>2018-08-26T09:38:10.000Z</Time>
            <Position>
              <LatitudeDegrees>42.97939228825271129608154296875</LatitudeDegrees>
              <LongitudeDegrees>-1.69098065234720706939697265625</LongitudeDegrees>
            </Position>
            <AltitudeMeters>542</AltitudeMeters>
            <DistanceMeters>70084.918889587</DistanceMeters>
          </Trackpoint>
          <Trackpoint>
            <Time>2018-08-26T09:38:11.000Z</Time>
            <Position>
              <LatitudeDegrees>42.9794203676283359527587890625</LatitudeDegrees>
              <LongitudeDegrees>-1.6909061372280120849609375</LongitudeDegrees>
            </Position>
            <AltitudeMeters>542.20001220703125</AltitudeMeters>
            <DistanceMeters>70091.743633853</DistanceMeters>
          </Trackpoint>
          <Trackpoint>
            <Time>2018-08-26T09:38:12.000Z</Time>
            <Position>
              <LatitudeDegrees>42.9794476926326751708984375</LatitudeDegrees>
              <LongitudeDegrees>-1.69083111919462680816650390625</LongitudeDegrees>
            </Position>
            <AltitudeMeters>542.4000244140625</AltitudeMeters>
            <DistanceMeters>70098.568378119</DistanceMeters>
          </Trackpoint>
          <Trackpoint>
            <Time>2018-08-26T09:38:13.000Z</Time>
            <Position>
              <LatitudeDegrees>42.9794753529131412506103515625</LatitudeDegrees>
              <LongitudeDegrees>-1.6907559335231781005859375</LongitudeDegrees>
            </Position>
            <AltitudeMeters>542.5999755859375</AltitudeMeters>
            <DistanceMeters>70105.420851943</DistanceMeters>
          </Trackpoint>
          <Trackpoint>
            <Time>2018-08-26T09:38:14.000Z</Time>
            <Position>
              <LatitudeDegrees>42.97950326465070247650146484375</LatitudeDegrees>
              <LongitudeDegrees>-1.69068125076591968536376953125</LongitudeDegrees>
            </Position>
            <AltitudeMeters>543</AltitudeMeters>
            <DistanceMeters>70112.249564468</DistanceMeters>
          </Trackpoint>
          <Trackpoint>
            <Time>2018-08-26T09:38:15.000Z</Time>
            <Position>
              <LatitudeDegrees>42.97953126020729541778564453125</LatitudeDegrees>
              <LongitudeDegrees>-1.690607406198978424072265625</LongitudeDegrees>
            </Position>
            <AltitudeMeters>543.20001220703125</AltitudeMeters>
            <DistanceMeters>70119.02250979</DistanceMeters>
          </Trackpoint>
          <Trackpoint>
            <Time>2018-08-26T09:38:16.000Z</Time>
            <Position>
              <LatitudeDegrees>42.979559004306793212890625</LatitudeDegrees>
              <LongitudeDegrees>-1.69053473509848117828369140625</LongitudeDegrees>
            </Position>
            <AltitudeMeters>543.4000244140625</AltitudeMeters>
            <DistanceMeters>70125.697417818</DistanceMeters>
          </Trackpoint>
          <Trackpoint>
            <Time>2018-08-26T09:38:17.000Z</Time>
            <Position>
              <LatitudeDegrees>42.97958674840629100799560546875</LatitudeDegrees>
              <LongitudeDegrees>-1.69046348892152309417724609375</LongitudeDegrees>
            </Position>
            <AltitudeMeters>543.5999755859375</AltitudeMeters>
            <DistanceMeters>70132.268705786</DistanceMeters>
          </Trackpoint>
          <Trackpoint>
            <Time>2018-08-26T09:38:18.000Z</Time>
            <Position>
              <LatitudeDegrees>42.9796134866774082183837890625</LatitudeDegrees>
              <LongitudeDegrees>-1.690393500030040740966796875</LongitudeDegrees>
            </Position>
            <AltitudeMeters>543.79998779296875</AltitudeMeters>
            <DistanceMeters>70138.697598372</DistanceMeters>
          </Trackpoint>
          <Trackpoint>
            <Time>2018-08-26T09:38:19.000Z</Time>
            <Position>
              <LatitudeDegrees>42.97964005731046199798583984375</LatitudeDegrees>
              <LongitudeDegrees>-1.6903252713382244110107421875</LongitudeDegrees>
            </Position>
            <AltitudeMeters>544</AltitudeMeters>
            <DistanceMeters>70144.990921443</DistanceMeters>
          </Trackpoint>
          <Trackpoint>
            <Time>2018-08-26T09:38:20.000Z</Time>
            <Position>
              <LatitudeDegrees>42.9796661250293254852294921875</LatitudeDegrees>
              <LongitudeDegrees>-1.69025947339832782745361328125</LongitudeDegrees>
            </Position>
            <AltitudeMeters>544.20001220703125</AltitudeMeters>
            <DistanceMeters>70151.083756929</DistanceMeters>
          </Trackpoint>
          <Trackpoint>
            <Time>2018-08-26T09:38:21.000Z</Time>
            <Position>
              <LatitudeDegrees>42.9796909354627132415771484375</LatitudeDegrees>
              <LongitudeDegrees>-1.6901955194771289825439453125</LongitudeDegrees>
            </Position>
            <AltitudeMeters>544.5999755859375</AltitudeMeters>
            <DistanceMeters>70156.978477801</DistanceMeters>
          </Trackpoint>
          <Trackpoint>
            <Time>2018-08-26T09:38:22.000Z</Time>
            <Position>
              <LatitudeDegrees>42.97971566207706928253173828125</LatitudeDegrees>
              <LongitudeDegrees>-1.6901341639459133148193359375</LongitudeDegrees>
            </Position>
            <AltitudeMeters>544.5999755859375</AltitudeMeters>
            <DistanceMeters>70162.683247341</DistanceMeters>
          </Trackpoint>
          <Trackpoint>
            <Time>2018-08-26T09:38:23.000Z</Time>
            <Position>
              <LatitudeDegrees>42.9797402210533618927001953125</LatitudeDegrees>
              <LongitudeDegrees>-1.69007423333823680877685546875</LongitudeDegrees>
            </Position>
            <AltitudeMeters>544.79998779296875</AltitudeMeters>
            <DistanceMeters>70168.276116444</DistanceMeters>
          </Trackpoint>
          <Trackpoint>
            <Time>2018-08-26T09:38:24.000Z</Time>
            <Position>
              <LatitudeDegrees>42.9797641932964324951171875</LatitudeDegrees>
              <LongitudeDegrees>-1.69001522473990917205810546875</LongitudeDegrees>
            </Position>
            <AltitudeMeters>544.79998779296875</AltitudeMeters>
            <DistanceMeters>70173.772079117</DistanceMeters>
          </Trackpoint>
          <Trackpoint>
            <Time>2018-08-26T09:38:25.000Z</Time>
            <Position>
              <LatitudeDegrees>42.9797888360917568206787109375</LatitudeDegrees>
              <LongitudeDegrees>-1.68995554558932781219482421875</LongitudeDegrees>
            </Position>
            <AltitudeMeters>545</AltitudeMeters>
            <DistanceMeters>70179.352016714</DistanceMeters>
          </Trackpoint>
          <Trackpoint>
            <Time>2018-08-26T09:38:26.000Z</Time>
            <Position>
              <LatitudeDegrees>42.97981448471546173095703125</LatitudeDegrees>
              <LongitudeDegrees>-1.68989670462906360626220703125</LongitudeDegrees>
            </Position>
            <AltitudeMeters>545</AltitudeMeters>
            <DistanceMeters>70184.928716748</DistanceMeters>
          </Trackpoint>
          <Trackpoint>
            <Time>2018-08-26T09:38:27.000Z</Time>
            <Position>
              <LatitudeDegrees>42.97984063625335693359375</LatitudeDegrees>
              <LongitudeDegrees>-1.68983970768749713897705078125</LongitudeDegrees>
            </Position>
            <AltitudeMeters>545.20001220703125</AltitudeMeters>
            <DistanceMeters>70190.407400358</DistanceMeters>
          </Trackpoint>
          <Trackpoint>
            <Time>2018-08-26T09:38:28.000Z</Time>
            <Position>
              <LatitudeDegrees>42.97986812889575958251953125</LatitudeDegrees>
              <LongitudeDegrees>-1.68978371657431125640869140625</LongitudeDegrees>
            </Position>
            <AltitudeMeters>545.5999755859375</AltitudeMeters>
            <DistanceMeters>70195.8992539</DistanceMeters>
          </Trackpoint>
          <Trackpoint>
            <Time>2018-08-26T09:38:29.000Z</Time>
            <Position>
              <LatitudeDegrees>42.97989763319492340087890625</LatitudeDegrees>
              <LongitudeDegrees>-1.68973057530820369720458984375</LongitudeDegrees>
            </Position>
            <AltitudeMeters>546.20001220703125</AltitudeMeters>
            <DistanceMeters>70201.330760113</DistanceMeters>
          </Trackpoint>
          <Trackpoint>
            <Time>2018-08-26T09:38:30.000Z</Time>
            <Position>
              <LatitudeDegrees>42.979929149150848388671875</LatitudeDegrees>
              <LongitudeDegrees>-1.6896808706223964691162109375</LongitudeDegrees>
            </Position>
            <AltitudeMeters>546.4000244140625</AltitudeMeters>
            <DistanceMeters>70206.686086693</DistanceMeters>
          </Trackpoint>
          <Trackpoint>
            <Time>2018-08-26T09:38:31.000Z</Time>
            <Position>
              <LatitudeDegrees>42.9799645207822322845458984375</LatitudeDegrees>
              <LongitudeDegrees>-1.689635775983333587646484375</LongitudeDegrees>
            </Position>
            <AltitudeMeters>546.79998779296875</AltitudeMeters>
            <DistanceMeters>70212.070002126</DistanceMeters>
          </Trackpoint>
          <Trackpoint>
            <Time>2018-08-26T09:38:32.000Z</Time>
            <Position>
              <LatitudeDegrees>42.980002574622631072998046875</LatitudeDegrees>
              <LongitudeDegrees>-1.68959311209619045257568359375</LongitudeDegrees>
            </Position>
            <AltitudeMeters>547.20001220703125</AltitudeMeters>
            <DistanceMeters>70217.547861564</DistanceMeters>
          </Trackpoint>
          <Trackpoint>
            <Time>2018-08-26T09:38:33.000Z</Time>
            <Position>
              <LatitudeDegrees>42.98004305921494960784912109375</LatitudeDegrees>
              <LongitudeDegrees>-1.68955229222774505615234375</LongitudeDegrees>
            </Position>
            <AltitudeMeters>547.5999755859375</AltitudeMeters>
            <DistanceMeters>70223.147185221</DistanceMeters>
          </Trackpoint>
          <Trackpoint>
            <Time>2018-08-26T09:38:34.000Z</Time>
            <Position>
              <LatitudeDegrees>42.980087064206600189208984375</LatitudeDegrees>
              <LongitudeDegrees>-1.68951733969151973724365234375</LongitudeDegrees>
            </Position>
            <AltitudeMeters>548</AltitudeMeters>
            <DistanceMeters>70228.811447009</DistanceMeters>
          </Trackpoint>
          <Trackpoint>
            <Time>2018-08-26T09:38:35.000Z</Time>
            <Position>
              <LatitudeDegrees>42.98013710416853427886962890625</LatitudeDegrees>
              <LongitudeDegrees>-1.6894917748868465423583984375</LongitudeDegrees>
            </Position>
            <AltitudeMeters>548.20001220703125</AltitudeMeters>
            <DistanceMeters>70234.757264806</DistanceMeters>
          </Trackpoint>
          <Trackpoint>
            <Time>2018-08-26T09:38:36.000Z</Time>
            <Position>
              <LatitudeDegrees>42.98019141890108585357666015625</LatitudeDegrees>
              <LongitudeDegrees>-1.68948062695562839508056640625</LongitudeDegrees>
            </Position>
            <AltitudeMeters>548.4000244140625</AltitudeMeters>
            <DistanceMeters>70240.870075643</DistanceMeters>
          </Trackpoint>
          <Trackpoint>
            <Time>2018-08-26T09:38:37.000Z</Time>
            <Position>
              <LatitudeDegrees>42.98024824820458889007568359375</LatitudeDegrees>
              <LongitudeDegrees>-1.6894805431365966796875</LongitudeDegrees>
            </Position>
            <AltitudeMeters>548.79998779296875</AltitudeMeters>
            <DistanceMeters>70247.195600817</DistanceMeters>
          </Trackpoint>
          <Trackpoint>
            <Time>2018-08-26T09:38:38.000Z</Time>
            <Position>
              <LatitudeDegrees>42.98030667006969451904296875</LatitudeDegrees>
              <LongitudeDegrees>-1.6894850693643093109130859375</LongitudeDegrees>
            </Position>
            <AltitudeMeters>549.20001220703125</AltitudeMeters>
            <DistanceMeters>70253.707531328</DistanceMeters>
          </Trackpoint>
          <Trackpoint>
            <Time>2018-08-26T09:38:39.000Z</Time>
            <Position>
              <LatitudeDegrees>42.98036643303930759429931640625</LatitudeDegrees>
              <LongitudeDegrees>-1.68949403800070285797119140625</LongitudeDegrees>
            </Position>
            <AltitudeMeters>549.4000244140625</AltitudeMeters>
            <DistanceMeters>70260.399328477</DistanceMeters>
          </Trackpoint>
          <Trackpoint>
            <Time>2018-08-26T09:38:40.000Z</Time>
            <Position>
              <LatitudeDegrees>42.98042644746601581573486328125</LatitudeDegrees>
              <LongitudeDegrees>-1.6895061917603015899658203125</LongitudeDegrees>
            </Position>
            <AltitudeMeters>549.5999755859375</AltitudeMeters>
            <DistanceMeters>70267.152245331</DistanceMeters>
          </Trackpoint>
          <Trackpoint>
            <Time>2018-08-26T09:38:41.000Z</Time>
            <Position>
              <LatitudeDegrees>42.980486713349819183349609375</LatitudeDegrees>
              <LongitudeDegrees>-1.689518429338932037353515625</LongitudeDegrees>
            </Position>
            <AltitudeMeters>549.5999755859375</AltitudeMeters>
            <DistanceMeters>70273.933185477</DistanceMeters>
          </Trackpoint>
          <Trackpoint>
            <Time>2018-08-26T09:38:42.000Z</Time>
            <Position>
              <LatitudeDegrees>42.9805475659668445587158203125</LatitudeDegrees>
              <LongitudeDegrees>-1.68952974490821361541748046875</LongitudeDegrees>
            </Position>
            <AltitudeMeters>549.79998779296875</AltitudeMeters>
            <DistanceMeters>70280.768506648</DistanceMeters>
          </Trackpoint>
          <Trackpoint>
            <Time>2018-08-26T09:38:43.000Z</Time>
            <Position>
              <LatitudeDegrees>42.98060850240290164947509765625</LatitudeDegrees>
              <LongitudeDegrees>-1.68954181484878063201904296875</LongitudeDegrees>
            </Position>
            <AltitudeMeters>549.79998779296875</AltitudeMeters>
            <DistanceMeters>70287.620980472</DistanceMeters>
          </Trackpoint>
          <Trackpoint>
            <Time>2018-08-26T09:38:44.000Z</Time>
            <Position>
              <LatitudeDegrees>42.98066935501992702484130859375</LatitudeDegrees>
              <LongitudeDegrees>-1.68955489061772823333740234375</LongitudeDegrees>
            </Position>
            <AltitudeMeters>549.79998779296875</AltitudeMeters>
            <DistanceMeters>70294.477406507</DistanceMeters>
          </Trackpoint>
          <Trackpoint>
            <Time>2018-08-26T09:38:45.000Z</Time>
            <Position>
              <LatitudeDegrees>42.98073045909404754638671875</LatitudeDegrees>
              <LongitudeDegrees>-1.6895668767392635345458984375</LongitudeDegrees>
            </Position>
            <AltitudeMeters>549.79998779296875</AltitudeMeters>
            <DistanceMeters>70301.34830453</DistanceMeters>
          </Trackpoint>
          <Trackpoint>
            <Time>2018-08-26T09:38:46.000Z</Time>
            <Position>
              <LatitudeDegrees>42.98079139553010463714599609375</LatitudeDegrees>
              <LongitudeDegrees>-1.68957701884210109710693359375</LongitudeDegrees>
            </Position>
            <AltitudeMeters>549.79998779296875</AltitudeMeters>
            <DistanceMeters>70308.180322178</DistanceMeters>
          </Trackpoint>
          <Trackpoint>
            <Time>2018-08-26T09:38:47.000Z</Time>
            <Position>
              <LatitudeDegrees>42.9808523319661617279052734375</LatitudeDegrees>
              <LongitudeDegrees>-1.68958389200270175933837890625</LongitudeDegrees>
            </Position>
            <AltitudeMeters>549.79998779296875</AltitudeMeters>
            <DistanceMeters>70314.985190436</DistanceMeters>
          </Trackpoint>
          <Trackpoint>
            <Time>2018-08-26T09:38:48.000Z</Time>
            <Position>
              <LatitudeDegrees>42.980913855135440826416015625</LatitudeDegrees>
              <LongitudeDegrees>-1.68958875350654125213623046875</LongitudeDegrees>
            </Position>
            <AltitudeMeters>549.79998779296875</AltitudeMeters>
            <DistanceMeters>70321.844250012</DistanceMeters>
          </Trackpoint>
          <Trackpoint>
            <Time>2018-08-26T09:38:49.000Z</Time>
            <Position>
              <LatitudeDegrees>42.98097579739987850189208984375</LatitudeDegrees>
              <LongitudeDegrees>-1.68959277682006359100341796875</LongitudeDegrees>
            </Position>
            <AltitudeMeters>549.79998779296875</AltitudeMeters>
            <DistanceMeters>70328.746617962</DistanceMeters>
          </Trackpoint>
          <Trackpoint>
            <Time>2018-08-26T09:38:50.000Z</Time>
            <Position>
              <LatitudeDegrees>42.9810382425785064697265625</LatitudeDegrees>
              <LongitudeDegrees>-1.6895943693816661834716796875</LongitudeDegrees>
            </Position>
            <AltitudeMeters>549.79998779296875</AltitudeMeters>
            <DistanceMeters>70335.698521955</DistanceMeters>
          </Trackpoint>
          <Trackpoint>
            <Time>2018-08-26T09:38:51.000Z</Time>
            <Position>
              <LatitudeDegrees>42.98110052011907100677490234375</LatitudeDegrees>
              <LongitudeDegrees>-1.6895916871726512908935546875</LongitudeDegrees>
            </Position>
            <AltitudeMeters>549.79998779296875</AltitudeMeters>
            <DistanceMeters>70342.633519226</DistanceMeters>
          </Trackpoint>
          <Trackpoint>
            <Time>2018-08-26T09:38:52.000Z</Time>
            <Position>
              <LatitudeDegrees>42.98116137273609638214111328125</LatitudeDegrees>
              <LongitudeDegrees>-1.6895863227546215057373046875</LongitudeDegrees>
            </Position>
            <AltitudeMeters>549.79998779296875</AltitudeMeters>
            <DistanceMeters>70349.420449308</DistanceMeters>
          </Trackpoint>
          <Trackpoint>
            <Time>2018-08-26T09:38:53.000Z</Time>
            <Position>
              <LatitudeDegrees>42.9812206327915191650390625</LatitudeDegrees>
              <LongitudeDegrees>-1.68957903049886226654052734375</LongitudeDegrees>
            </Position>
            <AltitudeMeters>549.79998779296875</AltitudeMeters>
            <DistanceMeters>70356.042386427</DistanceMeters>
          </Trackpoint>
          <Trackpoint>
            <Time>2018-08-26T09:38:54.000Z</Time>
            <Position>
              <LatitudeDegrees>42.9812788031995296478271484375</LatitudeDegrees>
              <LongitudeDegrees>-1.689570061862468719482421875</LongitudeDegrees>
            </Position>
            <AltitudeMeters>549.79998779296875</AltitudeMeters>
            <DistanceMeters>70362.557089742</DistanceMeters>
          </Trackpoint>
          <Trackpoint>
            <Time>2018-08-26T09:38:55.000Z</Time>
            <Position>
              <LatitudeDegrees>42.98133638687431812286376953125</LatitudeDegrees>
              <LongitudeDegrees>-1.6895618475973606109619140625</LongitudeDegrees>
            </Position>
            <AltitudeMeters>549.79998779296875</AltitudeMeters>
            <DistanceMeters>70369.000713838</DistanceMeters>
          </Trackpoint>
          <Trackpoint>
            <Time>2018-08-26T09:38:56.000Z</Time>
            <Position>
              <LatitudeDegrees>42.9813927970826625823974609375</LatitudeDegrees>
              <LongitudeDegrees>-1.6895543038845062255859375</LongitudeDegrees>
            </Position>
            <AltitudeMeters>549.79998779296875</AltitudeMeters>
            <DistanceMeters>70375.309085014</DistanceMeters>
          </Trackpoint>
          <Trackpoint>
            <Time>2018-08-26T09:38:57.000Z</Time>
            <Position>
              <LatitudeDegrees>42.98144753091037273406982421875</LatitudeDegrees>
              <LongitudeDegrees>-1.6895462572574615478515625</LongitudeDegrees>
            </Position>
            <AltitudeMeters>549.79998779296875</AltitudeMeters>
            <DistanceMeters>70381.43738722</DistanceMeters>
          </Trackpoint>
          <Trackpoint>
            <Time>2018-08-26T09:38:58.000Z</Time>
            <Position>
              <LatitudeDegrees>42.98150025308132171630859375</LatitudeDegrees>
              <LongitudeDegrees>-1.68953846208751201629638671875</LongitudeDegrees>
            </Position>
            <AltitudeMeters>549.79998779296875</AltitudeMeters>
            <DistanceMeters>70387.339762583</DistanceMeters>
          </Trackpoint>
          <Trackpoint>
            <Time>2018-08-26T09:38:59.000Z</Time>
            <Position>
              <LatitudeDegrees>42.9815518856048583984375</LatitudeDegrees>
              <LongitudeDegrees>-1.689531840384006500244140625</LongitudeDegrees>
            </Position>
            <AltitudeMeters>549.79998779296875</AltitudeMeters>
            <DistanceMeters>70393.112195525</DistanceMeters>
          </Trackpoint>
          <Trackpoint>
            <Time>2018-08-26T09:39:00.000Z</Time>
            <Position>
              <LatitudeDegrees>42.98160410486161708831787109375</LatitudeDegrees>
              <LongitudeDegrees>-1.68952505104243755340576171875</LongitudeDegrees>
            </Position>
            <AltitudeMeters>550</AltitudeMeters>
            <DistanceMeters>70398.949961237</DistanceMeters>
          </Trackpoint>
          <Trackpoint>
            <Time>2018-08-26T09:39:01.000Z</Time>
            <Position>
              <LatitudeDegrees>42.98165758140385150909423828125</LatitudeDegrees>
              <LongitudeDegrees>-1.689517758786678314208984375</LongitudeDegrees>
            </Position>
            <AltitudeMeters>550.20001220703125</AltitudeMeters>
            <DistanceMeters>70404.932117449</DistanceMeters>
          </Trackpoint>
          <Trackpoint>
            <Time>2018-08-26T09:39:02.000Z</Time>
            <Position>
              <LatitudeDegrees>42.98171139322221279144287109375</LatitudeDegrees>
              <LongitudeDegrees>-1.68951080180704593658447265625</LongitudeDegrees>
            </Position>
            <AltitudeMeters>550.5999755859375</AltitudeMeters>
            <DistanceMeters>70410.948141583</DistanceMeters>
          </Trackpoint>
          <Trackpoint>
            <Time>2018-08-26T09:39:03.000Z</Time>
            <Position>
              <LatitudeDegrees>42.98176554031670093536376953125</LatitudeDegrees>
              <LongitudeDegrees>-1.689504347741603851318359375</LongitudeDegrees>
            </Position>
            <AltitudeMeters>550.79998779296875</AltitudeMeters>
            <DistanceMeters>70416.997844041</DistanceMeters>
          </Trackpoint>
          <Trackpoint>
            <Time>2018-08-26T09:39:04.000Z</Time>
            <Position>
              <LatitudeDegrees>42.98181918449699878692626953125</LatitudeDegrees>
              <LongitudeDegrees>-1.68949856422841548919677734375</LongitudeDegrees>
            </Position>
            <AltitudeMeters>551</AltitudeMeters>
            <DistanceMeters>70422.987543008</DistanceMeters>
          </Trackpoint>
          <Trackpoint>
            <Time>2018-08-26T09:39:05.000Z</Time>
            <Position>
              <LatitudeDegrees>42.98187450505793094635009765625</LatitudeDegrees>
              <LongitudeDegrees>-1.68949387036263942718505859375</LongitudeDegrees>
            </Position>
            <AltitudeMeters>551</AltitudeMeters>
            <DistanceMeters>70429.15623348</DistanceMeters>
          </Trackpoint>
          <Trackpoint>
            <Time>2018-08-26T09:39:06.000Z</Time>
            <Position>
              <LatitudeDegrees>42.9819289036095142364501953125</LatitudeDegrees>
              <LongitudeDegrees>-1.68948967941105365753173828125</LongitudeDegrees>
            </Position>
            <AltitudeMeters>551.4000244140625</AltitudeMeters>
            <DistanceMeters>70435.220844049</DistanceMeters>
          </Trackpoint>
          <Trackpoint>
            <Time>2018-08-26T09:39:07.000Z</Time>
            <Position>
              <LatitudeDegrees>42.98198397271335124969482421875</LatitudeDegrees>
              <LongitudeDegrees>-1.689483225345611572265625</LongitudeDegrees>
            </Position>
            <AltitudeMeters>551.79998779296875</AltitudeMeters>
            <DistanceMeters>70441.37341103</DistanceMeters>
          </Trackpoint>
          <Trackpoint>
            <Time>2018-08-26T09:39:08.000Z</Time>
            <Position>
              <LatitudeDegrees>42.98204071819782257080078125</LatitudeDegrees>
              <LongitudeDegrees>-1.68947517871856689453125</LongitudeDegrees>
            </Position>
            <AltitudeMeters>552.20001220703125</AltitudeMeters>
            <DistanceMeters>70447.723869391</DistanceMeters>
          </Trackpoint>
          <Trackpoint>
            <Time>2018-08-26T09:39:09.000Z</Time>
            <Position>
              <LatitudeDegrees>42.9820992238819599151611328125</LatitudeDegrees>
              <LongitudeDegrees>-1.68946788646280765533447265625</LongitudeDegrees>
            </Position>
            <AltitudeMeters>552.20001220703125</AltitudeMeters>
            <DistanceMeters>70454.262784588</DistanceMeters>
          </Trackpoint>
          <Trackpoint>
            <Time>2018-08-26T09:39:10.000Z</Time>
            <Position>
              <LatitudeDegrees>42.982158400118350982666015625</LatitudeDegrees>
              <LongitudeDegrees>-1.6894609294831752777099609375</LongitudeDegrees>
            </Position>
            <AltitudeMeters>552.4000244140625</AltitudeMeters>
            <DistanceMeters>70460.87380342</DistanceMeters>
          </Trackpoint>
          <Trackpoint>
            <Time>2018-08-26T09:39:11.000Z</Time>
            <Position>
              <LatitudeDegrees>42.98221883364021778106689453125</LatitudeDegrees>
              <LongitudeDegrees>-1.68945229612290859222412109375</LongitudeDegrees>
            </Position>
            <AltitudeMeters>552.5999755859375</AltitudeMeters>
            <DistanceMeters>70467.637409504</DistanceMeters>
          </Trackpoint>
          <Trackpoint>
            <Time>2018-08-26T09:39:12.000Z</Time>
            <Position>
              <LatitudeDegrees>42.9822799377143383026123046875</LatitudeDegrees>
              <LongitudeDegrees>-1.68944290839135646820068359375</LongitudeDegrees>
            </Position>
            <AltitudeMeters>552.5999755859375</AltitudeMeters>
            <DistanceMeters>70474.481972061</DistanceMeters>
          </Trackpoint>
          <Trackpoint>
            <Time>2018-08-26T09:39:13.000Z</Time>
            <Position>
              <LatitudeDegrees>42.982343472540378570556640625</LatitudeDegrees>
              <LongitudeDegrees>-1.68943217955529689788818359375</LongitudeDegrees>
            </Position>
            <AltitudeMeters>552.79998779296875</AltitudeMeters>
            <DistanceMeters>70481.608342099</DistanceMeters>
          </Trackpoint>
          <Trackpoint>
            <Time>2018-08-26T09:39:14.000Z</Time>
            <Position>
              <LatitudeDegrees>42.98240843228995800018310546875</LatitudeDegrees>
              <LongitudeDegrees>-1.68942061252892017364501953125</LongitudeDegrees>
            </Position>
            <AltitudeMeters>552.79998779296875</AltitudeMeters>
            <DistanceMeters>70488.899436669</DistanceMeters>
          </Trackpoint>
          <Trackpoint>
            <Time>2018-08-26T09:39:15.000Z</Time>
            <Position>
              <LatitudeDegrees>42.98247389495372772216796875</LatitudeDegrees>
              <LongitudeDegrees>-1.689408458769321441650390625</LongitudeDegrees>
            </Position>
            <AltitudeMeters>552.79998779296875</AltitudeMeters>
            <DistanceMeters>70496.252809891</DistanceMeters>
          </Trackpoint>
          <Trackpoint>
            <Time>2018-08-26T09:39:16.000Z</Time>
            <Position>
              <LatitudeDegrees>42.98253986053168773651123046875</LatitudeDegrees>
              <LongitudeDegrees>-1.68939680792391300201416015625</LongitudeDegrees>
            </Position>
            <AltitudeMeters>552.79998779296875</AltitudeMeters>
            <DistanceMeters>70503.656360662</DistanceMeters>
          </Trackpoint>
          <Trackpoint>
            <Time>2018-08-26T09:39:17.000Z</Time>
            <Position>
              <LatitudeDegrees>42.9826073348522186279296875</LatitudeDegrees>
              <LongitudeDegrees>-1.68938406743109226226806640625</LongitudeDegrees>
            </Position>
            <AltitudeMeters>552.79998779296875</AltitudeMeters>
            <DistanceMeters>70511.237086649</DistanceMeters>
          </Trackpoint>
          <Trackpoint>
            <Time>2018-08-26T09:39:18.000Z</Time>
            <Position>
              <LatitudeDegrees>42.9826752282679080963134765625</LatitudeDegrees>
              <LongitudeDegrees>-1.68936965055763721466064453125</LongitudeDegrees>
            </Position>
            <AltitudeMeters>552.79998779296875</AltitudeMeters>
            <DistanceMeters>70518.884228275</DistanceMeters>
          </Trackpoint>
          <Trackpoint>
            <Time>2018-08-26T09:39:19.000Z</Time>
            <Position>
              <LatitudeDegrees>42.9827453009784221649169921875</LatitudeDegrees>
              <LongitudeDegrees>-1.689354144036769866943359375</LongitudeDegrees>
            </Position>
            <AltitudeMeters>552.5999755859375</AltitudeMeters>
            <DistanceMeters>70526.784600949</DistanceMeters>
          </Trackpoint>
          <Trackpoint>
            <Time>2018-08-26T09:39:20.000Z</Time>
            <Position>
              <LatitudeDegrees>42.98281612806022167205810546875</LatitudeDegrees>
              <LongitudeDegrees>-1.689337380230426788330078125</LongitudeDegrees>
            </Position>
            <AltitudeMeters>552.5999755859375</AltitudeMeters>
            <DistanceMeters>70534.785489144</DistanceMeters>
          </Trackpoint>
          <Trackpoint>
            <Time>2018-08-26T09:39:21.000Z</Time>
            <Position>
              <LatitudeDegrees>42.98288695514202117919921875</LatitudeDegrees>
              <LongitudeDegrees>-1.68931919150054454803466796875</LongitudeDegrees>
            </Position>
            <AltitudeMeters>552.5999755859375</AltitudeMeters>
            <DistanceMeters>70542.806104119</DistanceMeters>
          </Trackpoint>
          <Trackpoint>
            <Time>2018-08-26T09:39:22.000Z</Time>
            <Position>
              <LatitudeDegrees>42.9829575307667255401611328125</LatitudeDegrees>
              <LongitudeDegrees>-1.68929806910455226898193359375</LongitudeDegrees>
            </Position>
            <AltitudeMeters>552.5999755859375</AltitudeMeters>
            <DistanceMeters>70550.848081954</DistanceMeters>
          </Trackpoint>
          <Trackpoint>
            <Time>2018-08-26T09:39:23.000Z</Time>
            <Position>
              <LatitudeDegrees>42.9830282740294933319091796875</LatitudeDegrees>
              <LongitudeDegrees>-1.689274348318576812744140625</LongitudeDegrees>
            </Position>
            <AltitudeMeters>552.4000244140625</AltitudeMeters>
            <DistanceMeters>70558.954924518</DistanceMeters>
          </Trackpoint>
          <Trackpoint>
            <Time>2018-08-26T09:39:24.000Z</Time>
            <Position>
              <LatitudeDegrees>42.983098514378070831298828125</LatitudeDegrees>
              <LongitudeDegrees>-1.6892497055232524871826171875</LongitudeDegrees>
            </Position>
            <AltitudeMeters>552.4000244140625</AltitudeMeters>
            <DistanceMeters>70567.02604411</DistanceMeters>
          </Trackpoint>
          <Trackpoint>
            <Time>2018-08-26T09:39:25.000Z</Time>
            <Position>
              <LatitudeDegrees>42.9831677488982677459716796875</LatitudeDegrees>
              <LongitudeDegrees>-1.6892228834331035614013671875</LongitudeDegrees>
            </Position>
            <AltitudeMeters>552</AltitudeMeters>
            <DistanceMeters>70575.035392589</DistanceMeters>
          </Trackpoint>
          <Trackpoint>
            <Time>2018-08-26T09:39:26.000Z</Time>
            <Position>
              <LatitudeDegrees>42.983235977590084075927734375</LatitudeDegrees>
              <LongitudeDegrees>-1.6891933791339397430419921875</LongitudeDegrees>
            </Position>
            <AltitudeMeters>551.79998779296875</AltitudeMeters>
            <DistanceMeters>70583.000082603</DistanceMeters>
          </Trackpoint>
          <Trackpoint>
            <Time>2018-08-26T09:39:27.000Z</Time>
            <Position>
              <LatitudeDegrees>42.98330345191061496734619140625</LatitudeDegrees>
              <LongitudeDegrees>-1.68916244991123676300048828125</LongitudeDegrees>
            </Position>
            <AltitudeMeters>551.4000244140625</AltitudeMeters>
            <DistanceMeters>70590.921002444</DistanceMeters>
          </Trackpoint>
          <Trackpoint>
            <Time>2018-08-26T09:39:28.000Z</Time>
            <Position>
              <LatitudeDegrees>42.9833699204027652740478515625</LatitudeDegrees>
              <LongitudeDegrees>-1.6891276650130748748779296875</LongitudeDegrees>
            </Position>
            <AltitudeMeters>550.79998779296875</AltitudeMeters>
            <DistanceMeters>70598.841922285</DistanceMeters>
          </Trackpoint>
          <Trackpoint>
            <Time>2018-08-26T09:39:29.000Z</Time>
            <Position>
              <LatitudeDegrees>42.9834342934191226959228515625</LatitudeDegrees>
              <LongitudeDegrees>-1.68908617459237575531005859375</LongitudeDegrees>
            </Position>
            <AltitudeMeters>550.79998779296875</AltitudeMeters>
            <DistanceMeters>70606.763982073</DistanceMeters>
          </Trackpoint>
          <Trackpoint>
            <Time>2018-08-26T09:39:30.000Z</Time>
            <Position>
              <LatitudeDegrees>42.98349657095968723297119140625</LatitudeDegrees>
              <LongitudeDegrees>-1.68903672136366367340087890625</LongitudeDegrees>
            </Position>
            <AltitudeMeters>550.5999755859375</AltitudeMeters>
            <DistanceMeters>70614.780092351</DistanceMeters>
          </Trackpoint>
          <Trackpoint>
            <Time>2018-08-26T09:39:31.000Z</Time>
            <Position>
              <LatitudeDegrees>42.98355440609157085418701171875</LatitudeDegrees>
              <LongitudeDegrees>-1.68897804804146289825439453125</LongitudeDegrees>
            </Position>
            <AltitudeMeters>550.4000244140625</AltitudeMeters>
            <DistanceMeters>70622.796765853</DistanceMeters>
          </Trackpoint>
          <Trackpoint>
            <Time>2018-08-26T09:39:32.000Z</Time>
            <Position>
              <LatitudeDegrees>42.9836052842438220977783203125</LatitudeDegrees>
              <LongitudeDegrees>-1.688908897340297698974609375</LongitudeDegrees>
            </Position>
            <AltitudeMeters>550.4000244140625</AltitudeMeters>
            <DistanceMeters>70630.782968325</DistanceMeters>
          </Trackpoint>
          <Trackpoint>
            <Time>2018-08-26T09:39:33.000Z</Time>
            <Position>
              <LatitudeDegrees>42.98364710994064807891845703125</LatitudeDegrees>
              <LongitudeDegrees>-1.6888301074504852294921875</LongitudeDegrees>
            </Position>
            <AltitudeMeters>550.4000244140625</AltitudeMeters>
            <DistanceMeters>70638.709016636</DistanceMeters>
          </Trackpoint>
          <Trackpoint>
            <Time>2018-08-26T09:39:34.000Z</Time>
            <Position>
              <LatitudeDegrees>42.983676530420780181884765625</LatitudeDegrees>
              <LongitudeDegrees>-1.68874419294297695159912109375</LongitudeDegrees>
            </Position>
            <AltitudeMeters>550.4000244140625</AltitudeMeters>
            <DistanceMeters>70646.432531703</DistanceMeters>
          </Trackpoint>
          <Trackpoint>
            <Time>2018-08-26T09:39:35.000Z</Time>
            <Position>
              <LatitudeDegrees>42.983693294227123260498046875</LatitudeDegrees>
              <LongitudeDegrees>-1.68865618295967578887939453125</LongitudeDegrees>
            </Position>
            <AltitudeMeters>550.4000244140625</AltitudeMeters>
            <DistanceMeters>70653.837302069</DistanceMeters>
          </Trackpoint>
          <Trackpoint>
            <Time>2018-08-26T09:39:36.000Z</Time>
            <Position>
              <LatitudeDegrees>42.98370460979640483856201171875</LatitudeDegrees>
              <LongitudeDegrees>-1.6885697655379772186279296875</LongitudeDegrees>
            </Position>
            <AltitudeMeters>550.4000244140625</AltitudeMeters>
            <DistanceMeters>70660.985180951</DistanceMeters>
          </Trackpoint>
          <Trackpoint>
            <Time>2018-08-26T09:39:37.000Z</Time>
            <Position>
              <LatitudeDegrees>42.98371751792728900909423828125</LatitudeDegrees>
              <LongitudeDegrees>-1.68848737142980098724365234375</LongitudeDegrees>
            </Position>
            <AltitudeMeters>550.4000244140625</AltitudeMeters>
            <DistanceMeters>70667.846873059</DistanceMeters>
          </Trackpoint>
          <Trackpoint>
            <Time>2018-08-26T09:39:38.000Z</Time>
            <Position>
              <LatitudeDegrees>42.9837333597242832183837890625</LatitudeDegrees>
              <LongitudeDegrees>-1.6884076595306396484375</LongitudeDegrees>
            </Position>
            <AltitudeMeters>550.4000244140625</AltitudeMeters>
            <DistanceMeters>70674.572992518</DistanceMeters>
          </Trackpoint>
          <Trackpoint>
            <Time>2018-08-26T09:39:39.000Z</Time>
            <Position>
              <LatitudeDegrees>42.98375423066318035125732421875</LatitudeDegrees>
              <LongitudeDegrees>-1.68833096511662006378173828125</LongitudeDegrees>
            </Position>
            <AltitudeMeters>550.4000244140625</AltitudeMeters>
            <DistanceMeters>70681.235713869</DistanceMeters>
          </Trackpoint>
          <Trackpoint>
            <Time>2018-08-26T09:39:40.000Z</Time>
            <Position>
              <LatitudeDegrees>42.9837813042104244232177734375</LatitudeDegrees>
              <LongitudeDegrees>-1.68825703673064708709716796875</LongitudeDegrees>
            </Position>
            <AltitudeMeters>550.5999755859375</AltitudeMeters>
            <DistanceMeters>70687.967201342</DistanceMeters>
          </Trackpoint>
          <Trackpoint>
            <Time>2018-08-26T09:39:41.000Z</Time>
            <Position>
              <LatitudeDegrees>42.98381407745182514190673828125</LatitudeDegrees>
              <LongitudeDegrees>-1.68818662874400615692138671875</LongitudeDegrees>
            </Position>
            <AltitudeMeters>550.5999755859375</AltitudeMeters>
            <DistanceMeters>70694.762774234</DistanceMeters>
          </Trackpoint>
          <Trackpoint>
            <Time>2018-08-26T09:39:42.000Z</Time>
            <Position>
              <LatitudeDegrees>42.98385079018771648406982421875</LatitudeDegrees>
              <LongitudeDegrees>-1.6881184838712215423583984375</LongitudeDegrees>
            </Position>
            <AltitudeMeters>550.79998779296875</AltitudeMeters>
            <DistanceMeters>70701.654668175</DistanceMeters>
          </Trackpoint>
          <Trackpoint>
            <Time>2018-08-26T09:39:43.000Z</Time>
            <Position>
              <LatitudeDegrees>42.9838899336755275726318359375</LatitudeDegrees>
              <LongitudeDegrees>-1.68805084191262722015380859375</LongitudeDegrees>
            </Position>
            <AltitudeMeters>550.79998779296875</AltitudeMeters>
            <DistanceMeters>70708.677650272</DistanceMeters>
          </Trackpoint>
          <Trackpoint>
            <Time>2018-08-26T09:39:44.000Z</Time>
            <Position>
              <LatitudeDegrees>42.98393075354397296905517578125</LatitudeDegrees>
              <LongitudeDegrees>-1.68798345141112804412841796875</LongitudeDegrees>
            </Position>
            <AltitudeMeters>551</AltitudeMeters>
            <DistanceMeters>70715.801485589</DistanceMeters>
          </Trackpoint>
          <Trackpoint>
            <Time>2018-08-26T09:39:45.000Z</Time>
            <Position>
              <LatitudeDegrees>42.983972914516925811767578125</LatitudeDegrees>
              <LongitudeDegrees>-1.68791639618575572967529296875</LongitudeDegrees>
            </Position>
            <AltitudeMeters>551.20001220703125</AltitudeMeters>
            <DistanceMeters>70723.000974375</DistanceMeters>
          </Trackpoint>
          <Trackpoint>
            <Time>2018-08-26T09:39:46.000Z</Time>
            <Position>
              <LatitudeDegrees>42.984017841517925262451171875</LatitudeDegrees>
              <LongitudeDegrees>-1.68784934096038341522216796875</LongitudeDegrees>
            </Position>
            <AltitudeMeters>551.4000244140625</AltitudeMeters>
            <DistanceMeters>70730.404525146</DistanceMeters>
          </Trackpoint>
          <Trackpoint>
            <Time>2018-08-26T09:39:47.000Z</Time>
            <Position>
              <LatitudeDegrees>42.98406553454697132110595703125</LatitudeDegrees>
              <LongitudeDegrees>-1.687781699001789093017578125</LongitudeDegrees>
            </Position>
            <AltitudeMeters>551.5999755859375</AltitudeMeters>
            <DistanceMeters>70738.054028094</DistanceMeters>
          </Trackpoint>
          <Trackpoint>
            <Time>2018-08-26T09:39:48.000Z</Time>
            <Position>
              <LatitudeDegrees>42.98411482013761997222900390625</LatitudeDegrees>
              <LongitudeDegrees>-1.6877134703099727630615234375</LongitudeDegrees>
            </Position>
            <AltitudeMeters>551.5999755859375</AltitudeMeters>
            <DistanceMeters>70745.861269348</DistanceMeters>
          </Trackpoint>
          <Trackpoint>
            <Time>2018-08-26T09:39:49.000Z</Time>
            <Position>
              <LatitudeDegrees>42.98416662029922008514404296875</LatitudeDegrees>
              <LongitudeDegrees>-1.68764582835137844085693359375</LongitudeDegrees>
            </Position>
            <AltitudeMeters>551.5999755859375</AltitudeMeters>
            <DistanceMeters>70753.833891758</DistanceMeters>
          </Trackpoint>
          <Trackpoint>
            <Time>2018-08-26T09:39:50.000Z</Time>
            <Position>
              <LatitudeDegrees>42.98422110266983509063720703125</LatitudeDegrees>
              <LongitudeDegrees>-1.6875786893069744110107421875</LongitudeDegrees>
            </Position>
            <AltitudeMeters>551.5999755859375</AltitudeMeters>
            <DistanceMeters>70761.997897774</DistanceMeters>
          </Trackpoint>
          <Trackpoint>
            <Time>2018-08-26T09:39:51.000Z</Time>
            <Position>
              <LatitudeDegrees>42.98427776433527469635009765625</LatitudeDegrees>
              <LongitudeDegrees>-1.68751289136707782745361328125</LongitudeDegrees>
            </Position>
            <AltitudeMeters>551.5999755859375</AltitudeMeters>
            <DistanceMeters>70770.272318576</DistanceMeters>
          </Trackpoint>
          <Trackpoint>
            <Time>2018-08-26T09:39:52.000Z</Time>
            <Position>
              <LatitudeDegrees>42.9843365214765071868896484375</LatitudeDegrees>
              <LongitudeDegrees>-1.687447093427181243896484375</LongitudeDegrees>
            </Position>
            <AltitudeMeters>551.5999755859375</AltitudeMeters>
            <DistanceMeters>70778.725958323</DistanceMeters>
          </Trackpoint>
          <Trackpoint>
            <Time>2018-08-26T09:39:53.000Z</Time>
            <Position>
              <LatitudeDegrees>42.9843972064554691314697265625</LatitudeDegrees>
              <LongitudeDegrees>-1.68738028965890407562255859375</LongitudeDegrees>
            </Position>
            <AltitudeMeters>551.5999755859375</AltitudeMeters>
            <DistanceMeters>70787.397894475</DistanceMeters>
          </Trackpoint>
          <Trackpoint>
            <Time>2018-08-26T09:39:54.000Z</Time>
            <Position>
              <LatitudeDegrees>42.9844605736434459686279296875</LatitudeDegrees>
              <LongitudeDegrees>-1.68731264770030975341796875</LongitudeDegrees>
            </Position>
            <AltitudeMeters>551.5999755859375</AltitudeMeters>
            <DistanceMeters>70796.346061205</DistanceMeters>
          </Trackpoint>
          <Trackpoint>
            <Time>2018-08-26T09:39:55.000Z</Time>
            <Position>
              <LatitudeDegrees>42.984526455402374267578125</LatitudeDegrees>
              <LongitudeDegrees>-1.6872430779039859771728515625</LongitudeDegrees>
            </Position>
            <AltitudeMeters>551.5999755859375</AltitudeMeters>
            <DistanceMeters>70805.611531336</DistanceMeters>
          </Trackpoint>
          <Trackpoint>
            <Time>2018-08-26T09:39:56.000Z</Time>
            <Position>
              <LatitudeDegrees>42.98459359444677829742431640625</LatitudeDegrees>
              <LongitudeDegrees>-1.68717074207961559295654296875</LongitudeDegrees>
            </Position>
            <AltitudeMeters>551.20001220703125</AltitudeMeters>
            <DistanceMeters>70815.126073698</DistanceMeters>
          </Trackpoint>
          <Trackpoint>
            <Time>2018-08-26T09:39:57.000Z</Time>
            <Position>
              <LatitudeDegrees>42.984662242233753204345703125</LatitudeDegrees>
              <LongitudeDegrees>-1.68709538877010345458984375</LongitudeDegrees>
            </Position>
            <AltitudeMeters>551</AltitudeMeters>
            <DistanceMeters>70824.92535086</DistanceMeters>
          </Trackpoint>
          <Trackpoint>
            <Time>2018-08-26T09:39:58.000Z</Time>
            <Position>
              <LatitudeDegrees>42.98473373986780643463134765625</LatitudeDegrees>
              <LongitudeDegrees>-1.68701760470867156982421875</LongitudeDegrees>
            </Position>
            <AltitudeMeters>550.5999755859375</AltitudeMeters>
            <DistanceMeters>70835.095873249</DistanceMeters>
          </Trackpoint>
          <Trackpoint>
            <Time>2018-08-26T09:39:59.000Z</Time>
            <Position>
              <LatitudeDegrees>42.98480750061571598052978515625</LatitudeDegrees>
              <LongitudeDegrees>-1.686937473714351654052734375</LongitudeDegrees>
            </Position>
            <AltitudeMeters>550.4000244140625</AltitudeMeters>
            <DistanceMeters>70845.582448998</DistanceMeters>
          </Trackpoint>
          <Trackpoint>
            <Time>2018-08-26T09:40:00.000Z</Time>
            <Position>
              <LatitudeDegrees>42.98488494940102100372314453125</LatitudeDegrees>
              <LongitudeDegrees>-1.68685608543455600738525390625</LongitudeDegrees>
            </Position>
            <AltitudeMeters>550.20001220703125</AltitudeMeters>
            <DistanceMeters>70856.455432066</DistanceMeters>
          </Trackpoint>
          <Trackpoint>
            <Time>2018-08-26T09:40:01.000Z</Time>
            <Position>
              <LatitudeDegrees>42.98496675677597522735595703125</LatitudeDegrees>
              <LongitudeDegrees>-1.6867746971547603607177734375</LongitudeDegrees>
            </Position>
            <AltitudeMeters>549.79998779296875</AltitudeMeters>
            <DistanceMeters>70867.716799371</DistanceMeters>
          </Trackpoint>
          <Trackpoint>
            <Time>2018-08-26T09:40:02.000Z</Time>
            <Position>
              <LatitudeDegrees>42.98505325801670551300048828125</LatitudeDegrees>
              <LongitudeDegrees>-1.68669171631336212158203125</LongitudeDegrees>
            </Position>
            <AltitudeMeters>549.20001220703125</AltitudeMeters>
            <DistanceMeters>70879.478634735</DistanceMeters>
          </Trackpoint>
          <Trackpoint>
            <Time>2018-08-26T09:40:03.000Z</Time>
            <Position>
              <LatitudeDegrees>42.98514327965676784515380859375</LatitudeDegrees>
              <LongitudeDegrees>-1.68660580180585384368896484375</LongitudeDegrees>
            </Position>
            <AltitudeMeters>548.4000244140625</AltitudeMeters>
            <DistanceMeters>70891.698346028</DistanceMeters>
          </Trackpoint>
          <Trackpoint>
            <Time>2018-08-26T09:40:04.000Z</Time>
            <Position>
              <LatitudeDegrees>42.98523581586778163909912109375</LatitudeDegrees>
              <LongitudeDegrees>-1.68651779182255268096923828125</LongitudeDegrees>
            </Position>
            <AltitudeMeters>547.20001220703125</AltitudeMeters>
            <DistanceMeters>70904.245111453</DistanceMeters>
          </Trackpoint>
          <Trackpoint>
            <Time>2018-08-26T09:40:05.000Z</Time>
            <Position>
              <LatitudeDegrees>42.98533019609749317169189453125</LatitudeDegrees>
              <LongitudeDegrees>-1.68642894364893436431884765625</LongitudeDegrees>
            </Position>
            <AltitudeMeters>546.4000244140625</AltitudeMeters>
            <DistanceMeters>70916.999948074</DistanceMeters>
          </Trackpoint>
          <Trackpoint>
            <Time>2018-08-26T09:40:06.000Z</Time>
            <Position>
              <LatitudeDegrees>42.98542524687945842742919921875</LatitudeDegrees>
              <LongitudeDegrees>-1.68634227477014064788818359375</LongitudeDegrees>
            </Position>
            <AltitudeMeters>545.5999755859375</AltitudeMeters>
            <DistanceMeters>70929.717206784</DistanceMeters>
          </Trackpoint>
          <Trackpoint>
            <Time>2018-08-26T09:40:07.000Z</Time>
            <Position>
              <LatitudeDegrees>42.9855200462043285369873046875</LatitudeDegrees>
              <LongitudeDegrees>-1.68625979684293270111083984375</LongitudeDegrees>
            </Position>
            <AltitudeMeters>544.79998779296875</AltitudeMeters>
            <DistanceMeters>70942.224325327</DistanceMeters>
          </Trackpoint>
          <Trackpoint>
            <Time>2018-08-26T09:40:08.000Z</Time>
            <Position>
              <LatitudeDegrees>42.98560998402535915374755859375</LatitudeDegrees>
              <LongitudeDegrees>-1.68618000112473964691162109375</LongitudeDegrees>
            </Position>
            <AltitudeMeters>543.79998779296875</AltitudeMeters>
            <DistanceMeters>70954.15765284</DistanceMeters>
          </Trackpoint>
          <Trackpoint>
            <Time>2018-08-26T09:40:09.000Z</Time>
            <Position>
              <LatitudeDegrees>42.98570000566542148590087890625</LatitudeDegrees>
              <LongitudeDegrees>-1.68610271997749805450439453125</LongitudeDegrees>
            </Position>
            <AltitudeMeters>543.20001220703125</AltitudeMeters>
            <DistanceMeters>70965.989146618</DistanceMeters>
          </Trackpoint>
          <Trackpoint>
            <Time>2018-08-26T09:40:10.000Z</Time>
            <Position>
              <LatitudeDegrees>42.9857884347438812255859375</LatitudeDegrees>
              <LongitudeDegrees>-1.6860271990299224853515625</LongitudeDegrees>
            </Position>
            <AltitudeMeters>542.4000244140625</AltitudeMeters>
            <DistanceMeters>70977.594083502</DistanceMeters>
          </Trackpoint>
          <Trackpoint>
            <Time>2018-08-26T09:40:11.000Z</Time>
            <Position>
              <LatitudeDegrees>42.98587401397526264190673828125</LatitudeDegrees>
              <LongitudeDegrees>-1.68595301918685436248779296875</LongitudeDegrees>
            </Position>
            <AltitudeMeters>541.4000244140625</AltitudeMeters>
            <DistanceMeters>70988.873078003</DistanceMeters>
          </Trackpoint>
          <Trackpoint>
            <Time>2018-08-26T09:40:12.000Z</Time>
            <Position>
              <LatitudeDegrees>42.98595883883535861968994140625</LatitudeDegrees>
              <LongitudeDegrees>-1.68588059954345226287841796875</LongitudeDegrees>
            </Position>
            <AltitudeMeters>540.5999755859375</AltitudeMeters>
            <DistanceMeters>71000.003785474</DistanceMeters>
          </Trackpoint>
          <Trackpoint>
            <Time>2018-08-26T09:40:13.000Z</Time>
            <Position>
              <LatitudeDegrees>42.98604081384837627410888671875</LatitudeDegrees>
              <LongitudeDegrees>-1.6858104430139064788818359375</LongitudeDegrees>
            </Position>
            <AltitudeMeters>539.5999755859375</AltitudeMeters>
            <DistanceMeters>71010.768261352</DistanceMeters>
          </Trackpoint>
          <Trackpoint>
            <Time>2018-08-26T09:40:14.000Z</Time>
            <Position>
              <LatitudeDegrees>42.98612228594720363616943359375</LatitudeDegrees>
              <LongitudeDegrees>-1.68574263341724872589111328125</LongitudeDegrees>
            </Position>
            <AltitudeMeters>539</AltitudeMeters>
            <DistanceMeters>71021.384918744</DistanceMeters>
          </Trackpoint>
          <Trackpoint>
            <Time>2018-08-26T09:40:15.000Z</Time>
            <Position>
              <LatitudeDegrees>42.98620208166539669036865234375</LatitudeDegrees>
              <LongitudeDegrees>-1.6856763325631618499755859375</LongitudeDegrees>
            </Position>
            <AltitudeMeters>538.79998779296875</AltitudeMeters>
            <DistanceMeters>71031.778078726</DistanceMeters>
          </Trackpoint>
          <Trackpoint>
            <Time>2018-08-26T09:40:16.000Z</Time>
            <Position>
              <LatitudeDegrees>42.98628036864101886749267578125</LatitudeDegrees>
              <LongitudeDegrees>-1.6856122948229312896728515625</LongitudeDegrees>
            </Position>
            <AltitudeMeters>538.5999755859375</AltitudeMeters>
            <DistanceMeters>71041.932606924</DistanceMeters>
          </Trackpoint>
          <Trackpoint>
            <Time>2018-08-26T09:40:17.000Z</Time>
            <Position>
              <LatitudeDegrees>42.98635681159794330596923828125</LatitudeDegrees>
              <LongitudeDegrees>-1.685550101101398468017578125</LongitudeDegrees>
            </Position>
            <AltitudeMeters>538.5999755859375</AltitudeMeters>
            <DistanceMeters>71051.833642722</DistanceMeters>
          </Trackpoint>
          <Trackpoint>
            <Time>2018-08-26T09:40:18.000Z</Time>
            <Position>
              <LatitudeDegrees>42.9864330030977725982666015625</LatitudeDegrees>
              <LongitudeDegrees>-1.68548933230340480804443359375</LongitudeDegrees>
            </Position>
            <AltitudeMeters>538.5999755859375</AltitudeMeters>
            <DistanceMeters>71061.651332672</DistanceMeters>
          </Trackpoint>
          <Trackpoint>
            <Time>2018-08-26T09:40:19.000Z</Time>
            <Position>
              <LatitudeDegrees>42.98650718294084072113037109375</LatitudeDegrees>
              <LongitudeDegrees>-1.68542965315282344818115234375</LongitudeDegrees>
            </Position>
            <AltitudeMeters>538.5999755859375</AltitudeMeters>
            <DistanceMeters>71071.231609129</DistanceMeters>
          </Trackpoint>
          <Trackpoint>
            <Time>2018-08-26T09:40:20.000Z</Time>
            <Position>
              <LatitudeDegrees>42.98658228479325771331787109375</LatitudeDegrees>
              <LongitudeDegrees>-1.6853719018399715423583984375</LongitudeDegrees>
            </Position>
            <AltitudeMeters>538.5999755859375</AltitudeMeters>
            <DistanceMeters>71080.822248245</DistanceMeters>
          </Trackpoint>
          <Trackpoint>
            <Time>2018-08-26T09:40:21.000Z</Time>
            <Position>
              <LatitudeDegrees>42.9866519384086132049560546875</LatitudeDegrees>
              <LongitudeDegrees>-1.68531448580324649810791015625</LongitudeDegrees>
            </Position>
            <AltitudeMeters>538.5999755859375</AltitudeMeters>
            <DistanceMeters>71089.875257347</DistanceMeters>
          </Trackpoint>
          <Trackpoint>
            <Time>2018-08-26T09:40:22.000Z</Time>
            <Position>
              <LatitudeDegrees>42.98671941272914409637451171875</LatitudeDegrees>
              <LongitudeDegrees>-1.68525673449039459228515625</LongitudeDegrees>
            </Position>
            <AltitudeMeters>538.5999755859375</AltitudeMeters>
            <DistanceMeters>71098.735702291</DistanceMeters>
          </Trackpoint>
          <Trackpoint>
            <Time>2018-08-26T09:40:23.000Z</Time>
            <Position>
              <LatitudeDegrees>42.986787222325801849365234375</LatitudeDegrees>
              <LongitudeDegrees>-1.6852002404630184173583984375</LongitudeDegrees>
            </Position>
            <AltitudeMeters>538.5999755859375</AltitudeMeters>
            <DistanceMeters>71107.573697609</DistanceMeters>
          </Trackpoint>
          <Trackpoint>
            <Time>2018-08-26T09:40:24.000Z</Time>
            <Position>
              <LatitudeDegrees>42.98685251735150814056396484375</LatitudeDegrees>
              <LongitudeDegrees>-1.6851496137678623199462890625</LongitudeDegrees>
            </Position>
            <AltitudeMeters>538.5999755859375</AltitudeMeters>
            <DistanceMeters>71115.928486111</DistanceMeters>
          </Trackpoint>
          <Trackpoint>
            <Time>2018-08-26T09:40:25.000Z</Time>
            <Position>
              <LatitudeDegrees>42.9869154654443264007568359375</LatitudeDegrees>
              <LongitudeDegrees>-1.68510778807103633880615234375</LongitudeDegrees>
            </Position>
            <AltitudeMeters>538.79998779296875</AltitudeMeters>
            <DistanceMeters>71123.71835862</DistanceMeters>
          </Trackpoint>
          <Trackpoint>
            <Time>2018-08-26T09:40:26.000Z</Time>
            <Position>
              <LatitudeDegrees>42.986976988613605499267578125</LatitudeDegrees>
              <LongitudeDegrees>-1.68506219051778316497802734375</LongitudeDegrees>
            </Position>
            <AltitudeMeters>539</AltitudeMeters>
            <DistanceMeters>71131.507071835</DistanceMeters>
          </Trackpoint>
          <Trackpoint>
            <Time>2018-08-26T09:40:27.000Z</Time>
            <Position>
              <LatitudeDegrees>42.98703608103096485137939453125</LatitudeDegrees>
              <LongitudeDegrees>-1.68501541949808597564697265625</LongitudeDegrees>
            </Position>
            <AltitudeMeters>539</AltitudeMeters>
            <DistanceMeters>71139.108021058</DistanceMeters>
          </Trackpoint>
          <Trackpoint>
            <Time>2018-08-26T09:40:28.000Z</Time>
            <Position>
              <LatitudeDegrees>42.98709508962929248809814453125</LatitudeDegrees>
              <LongitudeDegrees>-1.68496982194483280181884765625</LongitudeDegrees>
            </Position>
            <AltitudeMeters>539.5999755859375</AltitudeMeters>
            <DistanceMeters>71146.65292675</DistanceMeters>
          </Trackpoint>
          <Trackpoint>
            <Time>2018-08-26T09:40:29.000Z</Time>
            <Position>
              <LatitudeDegrees>42.98715191893279552459716796875</LatitudeDegrees>
              <LongitudeDegrees>-1.68492472730576992034912109375</LongitudeDegrees>
            </Position>
            <AltitudeMeters>539.5999755859375</AltitudeMeters>
            <DistanceMeters>71153.966897823</DistanceMeters>
          </Trackpoint>
          <Trackpoint>
            <Time>2018-08-26T09:40:30.000Z</Time>
            <Position>
              <LatitudeDegrees>42.98720707185566425323486328125</LatitudeDegrees>
              <LongitudeDegrees>-1.6848797164857387542724609375</LongitudeDegrees>
            </Position>
            <AltitudeMeters>539.79998779296875</AltitudeMeters>
            <DistanceMeters>71161.116039916</DistanceMeters>
          </Trackpoint>
          <Trackpoint>
            <Time>2018-08-26T09:40:31.000Z</Time>
            <Position>
              <LatitudeDegrees>42.987264655530452728271484375</LatitudeDegrees>
              <LongitudeDegrees>-1.68483294546604156494140625</LongitudeDegrees>
            </Position>
            <AltitudeMeters>540</AltitudeMeters>
            <DistanceMeters>71168.571247527</DistanceMeters>
          </Trackpoint>
          <Trackpoint>
            <Time>2018-08-26T09:40:32.000Z</Time>
            <Position>
              <LatitudeDegrees>42.98731796443462371826171875</LatitudeDegrees>
              <LongitudeDegrees>-1.68479003012180328369140625</LongitudeDegrees>
            </Position>
            <AltitudeMeters>540.20001220703125</AltitudeMeters>
            <DistanceMeters>71175.456587121</DistanceMeters>
          </Trackpoint>
          <Trackpoint>
            <Time>2018-08-26T09:40:33.000Z</Time>
            <Position>
              <LatitudeDegrees>42.98737102188169956207275390625</LatitudeDegrees>
              <LongitudeDegrees>-1.6847486235201358795166015625</LongitudeDegrees>
            </Position>
            <AltitudeMeters>540.5999755859375</AltitudeMeters>
            <DistanceMeters>71182.256145297</DistanceMeters>
          </Trackpoint>
          <Trackpoint>
            <Time>2018-08-26T09:40:34.000Z</Time>
            <Position>
              <LatitudeDegrees>42.98742550425231456756591796875</LatitudeDegrees>
              <LongitudeDegrees>-1.684703864157199859619140625</LongitudeDegrees>
            </Position>
            <AltitudeMeters>541</AltitudeMeters>
            <DistanceMeters>71189.330372015</DistanceMeters>
          </Trackpoint>
          <Trackpoint>
            <Time>2018-08-26T09:40:35.000Z</Time>
            <Position>
              <LatitudeDegrees>42.9874773882329463958740234375</LatitudeDegrees>
              <LongitudeDegrees>-1.6846570931375026702880859375</LongitudeDegrees>
            </Position>
            <AltitudeMeters>541.4000244140625</AltitudeMeters>
            <DistanceMeters>71196.24711583</DistanceMeters>
          </Trackpoint>
          <Trackpoint>
            <Time>2018-08-26T09:40:36.000Z</Time>
            <Position>
              <LatitudeDegrees>42.98753430135548114776611328125</LatitudeDegrees>
              <LongitudeDegrees>-1.68461308814585208892822265625</LongitudeDegrees>
            </Position>
            <AltitudeMeters>541.79998779296875</AltitudeMeters>
            <DistanceMeters>71203.525194451</DistanceMeters>
          </Trackpoint>
          <Trackpoint>
            <Time>2018-08-26T09:40:37.000Z</Time>
            <Position>
              <LatitudeDegrees>42.98759146593511104583740234375</LatitudeDegrees>
              <LongitudeDegrees>-1.68457117862999439239501953125</LongitudeDegrees>
            </Position>
            <AltitudeMeters>542.20001220703125</AltitudeMeters>
            <DistanceMeters>71210.744723607</DistanceMeters>
          </Trackpoint>
          <Trackpoint>
            <Time>2018-08-26T09:40:38.000Z</Time>
            <Position>
              <LatitudeDegrees>42.98764494247734546661376953125</LatitudeDegrees>
              <LongitudeDegrees>-1.68452725745737552642822265625</LongitudeDegrees>
            </Position>
            <AltitudeMeters>542.4000244140625</AltitudeMeters>
            <DistanceMeters>71217.687529096</DistanceMeters>
          </Trackpoint>
          <Trackpoint>
            <Time>2018-08-26T09:40:39.000Z</Time>
            <Position>
              <LatitudeDegrees>42.9876969940960407257080078125</LatitudeDegrees>
              <LongitudeDegrees>-1.6844807378947734832763671875</LongitudeDegrees>
            </Position>
            <AltitudeMeters>542.5999755859375</AltitudeMeters>
            <DistanceMeters>71224.609493096</DistanceMeters>
          </Trackpoint>
          <Trackpoint>
            <Time>2018-08-26T09:40:40.000Z</Time>
            <Position>
              <LatitudeDegrees>42.98774711787700653076171875</LatitudeDegrees>
              <LongitudeDegrees>-1.68442801572382450103759765625</LongitudeDegrees>
            </Position>
            <AltitudeMeters>542.79998779296875</AltitudeMeters>
            <DistanceMeters>71231.647887755</DistanceMeters>
          </Trackpoint>
          <Trackpoint>
            <Time>2018-08-26T09:40:41.000Z</Time>
            <Position>
              <LatitudeDegrees>42.98779807984828948974609375</LatitudeDegrees>
              <LongitudeDegrees>-1.68437168933451175689697265625</LongitudeDegrees>
            </Position>
            <AltitudeMeters>543</AltitudeMeters>
            <DistanceMeters>71238.942077936</DistanceMeters>
          </Trackpoint>
          <Trackpoint>
            <Time>2018-08-26T09:40:42.000Z</Time>
            <Position>
              <LatitudeDegrees>42.9878488741815090179443359375</LatitudeDegrees>
              <LongitudeDegrees>-1.684312932193279266357421875</LongitudeDegrees>
            </Position>
            <AltitudeMeters>543</AltitudeMeters>
            <DistanceMeters>71246.348067696</DistanceMeters>
          </Trackpoint>
          <Trackpoint>
            <Time>2018-08-26T09:40:43.000Z</Time>
            <Position>
              <LatitudeDegrees>42.9879020154476165771484375</LatitudeDegrees>
              <LongitudeDegrees>-1.684253253042697906494140625</LongitudeDegrees>
            </Position>
            <AltitudeMeters>543.20001220703125</AltitudeMeters>
            <DistanceMeters>71254.003470763</DistanceMeters>
          </Trackpoint>
          <Trackpoint>
            <Time>2018-08-26T09:40:44.000Z</Time>
            <Position>
              <LatitudeDegrees>42.9879564978182315826416015625</LatitudeDegrees>
              <LongitudeDegrees>-1.68419189751148223876953125</LongitudeDegrees>
            </Position>
            <AltitudeMeters>543.20001220703125</AltitudeMeters>
            <DistanceMeters>71261.859714935</DistanceMeters>
          </Trackpoint>
          <Trackpoint>
            <Time>2018-08-26T09:40:45.000Z</Time>
            <Position>
              <LatitudeDegrees>42.9880131594836711883544921875</LatitudeDegrees>
              <LongitudeDegrees>-1.68412827886641025543212890625</LongitudeDegrees>
            </Position>
            <AltitudeMeters>543.20001220703125</AltitudeMeters>
            <DistanceMeters>71270.020955273</DistanceMeters>
          </Trackpoint>
          <Trackpoint>
            <Time>2018-08-26T09:40:46.000Z</Time>
            <Position>
              <LatitudeDegrees>42.98807107843458652496337890625</LatitudeDegrees>
              <LongitudeDegrees>-1.68406574986875057220458984375</LongitudeDegrees>
            </Position>
            <AltitudeMeters>543.20001220703125</AltitudeMeters>
            <DistanceMeters>71278.235133941</DistanceMeters>
          </Trackpoint>
          <Trackpoint>
            <Time>2018-08-26T09:40:47.000Z</Time>
            <Position>
              <LatitudeDegrees>42.9881254769861698150634765625</LatitudeDegrees>
              <LongitudeDegrees>-1.68400372378528118133544921875</LongitudeDegrees>
            </Position>
            <AltitudeMeters>543.20001220703125</AltitudeMeters>
            <DistanceMeters>71286.118915785</DistanceMeters>
          </Trackpoint>
          <Trackpoint>
            <Time>2018-08-26T09:40:48.000Z</Time>
            <Position>
              <LatitudeDegrees>42.9881824739277362823486328125</LatitudeDegrees>
              <LongitudeDegrees>-1.683940105140209197998046875</LongitudeDegrees>
            </Position>
            <AltitudeMeters>543.4000244140625</AltitudeMeters>
            <DistanceMeters>71294.308873528</DistanceMeters>
          </Trackpoint>
          <Trackpoint>
            <Time>2018-08-26T09:40:49.000Z</Time>
            <Position>
              <LatitudeDegrees>42.98823988996446132659912109375</LatitudeDegrees>
              <LongitudeDegrees>-1.68387648649513721466064453125</LongitudeDegrees>
            </Position>
            <AltitudeMeters>543.4000244140625</AltitudeMeters>
            <DistanceMeters>71302.535135916</DistanceMeters>
          </Trackpoint>
          <Trackpoint>
            <Time>2018-08-26T09:40:50.000Z</Time>
            <Position>
              <LatitudeDegrees>42.98829562962055206298828125</LatitudeDegrees>
              <LongitudeDegrees>-1.6838135384023189544677734375</LongitudeDegrees>
            </Position>
            <AltitudeMeters>543.4000244140625</AltitudeMeters>
            <DistanceMeters>71310.58272613</DistanceMeters>
          </Trackpoint>
          <Trackpoint>
            <Time>2018-08-26T09:40:51.000Z</Time>
            <Position>
              <LatitudeDegrees>42.9883521236479282379150390625</LatitudeDegrees>
              <LongitudeDegrees>-1.6837498359382152557373046875</LongitudeDegrees>
            </Position>
            <AltitudeMeters>543.4000244140625</AltitudeMeters>
            <DistanceMeters>71318.733448331</DistanceMeters>
          </Trackpoint>
          <Trackpoint>
            <Time>2018-08-26T09:40:52.000Z</Time>
            <Position>
              <LatitudeDegrees>42.988409958779811859130859375</LatitudeDegrees>
              <LongitudeDegrees>-1.6836874745786190032958984375</LongitudeDegrees>
            </Position>
            <AltitudeMeters>543.4000244140625</AltitudeMeters>
            <DistanceMeters>71326.931671246</DistanceMeters>
          </Trackpoint>
          <Trackpoint>
            <Time>2018-08-26T09:40:53.000Z</Time>
            <Position>
              <LatitudeDegrees>42.9884661175310611724853515625</LatitudeDegrees>
              <LongitudeDegrees>-1.68362402357161045074462890625</LongitudeDegrees>
            </Position>
            <AltitudeMeters>543.4000244140625</AltitudeMeters>
            <DistanceMeters>71335.040184463</DistanceMeters>
          </Trackpoint>
          <Trackpoint>
            <Time>2018-08-26T09:40:54.000Z</Time>
            <Position>
              <LatitudeDegrees>42.9885189235210418701171875</LatitudeDegrees>
              <LongitudeDegrees>-1.683559902012348175048828125</LongitudeDegrees>
            </Position>
            <AltitudeMeters>543.4000244140625</AltitudeMeters>
            <DistanceMeters>71342.901599297</DistanceMeters>
          </Trackpoint>
          <Trackpoint>
            <Time>2018-08-26T09:40:55.000Z</Time>
            <Position>
              <LatitudeDegrees>42.98857399262487888336181640625</LatitudeDegrees>
              <LongitudeDegrees>-1.68349527753889560699462890625</LongitudeDegrees>
            </Position>
            <AltitudeMeters>543.4000244140625</AltitudeMeters>
            <DistanceMeters>71350.979428979</DistanceMeters>
          </Trackpoint>
          <Trackpoint>
            <Time>2018-08-26T09:40:56.000Z</Time>
            <Position>
              <LatitudeDegrees>42.98862746916711330413818359375</LatitudeDegrees>
              <LongitudeDegrees>-1.6834326647222042083740234375</LongitudeDegrees>
            </Position>
            <AltitudeMeters>543.4000244140625</AltitudeMeters>
            <DistanceMeters>71358.816684875</DistanceMeters>
          </Trackpoint>
          <Trackpoint>
            <Time>2018-08-26T09:40:57.000Z</Time>
            <Position>
              <LatitudeDegrees>42.98868128098547458648681640625</LatitudeDegrees>
              <LongitudeDegrees>-1.683370806276798248291015625</LongitudeDegrees>
            </Position>
            <AltitudeMeters>543.4000244140625</AltitudeMeters>
            <DistanceMeters>71366.642410301</DistanceMeters>
          </Trackpoint>
          <Trackpoint>
            <Time>2018-08-26T09:40:58.000Z</Time>
            <Position>
              <LatitudeDegrees>42.9887366853654384613037109375</LatitudeDegrees>
              <LongitudeDegrees>-1.68330785818397998809814453125</LongitudeDegrees>
            </Position>
            <AltitudeMeters>543.4000244140625</AltitudeMeters>
            <DistanceMeters>71374.660773243</DistanceMeters>
          </Trackpoint>
          <Trackpoint>
            <Time>2018-08-26T09:40:59.000Z</Time>
            <Position>
              <LatitudeDegrees>42.98879192210733890533447265625</LatitudeDegrees>
              <LongitudeDegrees>-1.683246083557605743408203125</LongitudeDegrees>
            </Position>
            <AltitudeMeters>543.4000244140625</AltitudeMeters>
            <DistanceMeters>71382.603324096</DistanceMeters>
          </Trackpoint>
          <Trackpoint>
            <Time>2018-08-26T09:41:00.000Z</Time>
            <Position>
              <LatitudeDegrees>42.98884640447795391082763671875</LatitudeDegrees>
              <LongitudeDegrees>-1.6831842251121997833251953125</LongitudeDegrees>
            </Position>
            <AltitudeMeters>543.4000244140625</AltitudeMeters>
            <DistanceMeters>71390.485387654</DistanceMeters>
          </Trackpoint>
          <Trackpoint>
            <Time>2018-08-26T09:41:02.000Z</Time>
            <Position>
              <LatitudeDegrees>42.9889583028852939605712890625</LatitudeDegrees>
              <LongitudeDegrees>-1.68306411243975162506103515625</LongitudeDegrees>
            </Position>
            <AltitudeMeters>543.4000244140625</AltitudeMeters>
            <DistanceMeters>71406.320385686</DistanceMeters>
          </Trackpoint>
          <Trackpoint>
            <Time>2018-08-26T09:41:03.000Z</Time>
            <Position>
              <LatitudeDegrees>42.989014796912670135498046875</LatitudeDegrees>
              <LongitudeDegrees>-1.683004684746265411376953125</LongitudeDegrees>
            </Position>
            <AltitudeMeters>543.4000244140625</AltitudeMeters>
            <DistanceMeters>71414.253835933</DistanceMeters>
          </Trackpoint>
          <Trackpoint>
            <Time>2018-08-26T09:41:04.000Z</Time>
            <Position>
              <LatitudeDegrees>42.989071123301982879638671875</LatitudeDegrees>
              <LongitudeDegrees>-1.68294676579535007476806640625</LongitudeDegrees>
            </Position>
            <AltitudeMeters>543.4000244140625</AltitudeMeters>
            <DistanceMeters>71422.098001975</DistanceMeters>
          </Trackpoint>
          <Trackpoint>
            <Time>2018-08-26T09:41:05.000Z</Time>
            <Position>
              <LatitudeDegrees>42.9891279526054859161376953125</LatitudeDegrees>
              <LongitudeDegrees>-1.68289043940603733062744140625</LongitudeDegrees>
            </Position>
            <AltitudeMeters>543.4000244140625</AltitudeMeters>
            <DistanceMeters>71429.91102423</DistanceMeters>
          </Trackpoint>
          <Trackpoint>
            <Time>2018-08-26T09:41:06.000Z</Time>
            <Position>
              <LatitudeDegrees>42.98918184824287891387939453125</LatitudeDegrees>
              <LongitudeDegrees>-1.6828338615596294403076171875</LongitudeDegrees>
            </Position>
            <AltitudeMeters>543.4000244140625</AltitudeMeters>
            <DistanceMeters>71437.473861277</DistanceMeters>
          </Trackpoint>
          <Trackpoint>
            <Time>2018-08-26T09:41:07.000Z</Time>
            <Position>
              <LatitudeDegrees>42.9892372526228427886962890625</LatitudeDegrees>
              <LongitudeDegrees>-1.682776696979999542236328125</LongitudeDegrees>
            </Position>
            <AltitudeMeters>543.5999755859375</AltitudeMeters>
            <DistanceMeters>71445.199714323</DistanceMeters>
          </Trackpoint>
          <Trackpoint>
            <Time>2018-08-26T09:41:08.000Z</Time>
            <Position>
              <LatitudeDegrees>42.98929165117442607879638671875</LatitudeDegrees>
              <LongitudeDegrees>-1.68271802365779876708984375</LongitudeDegrees>
            </Position>
            <AltitudeMeters>543.5999755859375</AltitudeMeters>
            <DistanceMeters>71452.91152886</DistanceMeters>
          </Trackpoint>
          <Trackpoint>
            <Time>2018-08-26T09:41:09.000Z</Time>
            <Position>
              <LatitudeDegrees>42.98934638500213623046875</LatitudeDegrees>
              <LongitudeDegrees>-1.6826578415930271148681640625</LongitudeDegrees>
            </Position>
            <AltitudeMeters>543.4000244140625</AltitudeMeters>
            <DistanceMeters>71460.729750362</DistanceMeters>
          </Trackpoint>
          <Trackpoint>
            <Time>2018-08-26T09:41:10.000Z</Time>
            <Position>
              <LatitudeDegrees>42.98940095119178295135498046875</LatitudeDegrees>
              <LongitudeDegrees>-1.68259724043309688568115234375</LongitudeDegrees>
            </Position>
            <AltitudeMeters>543.5999755859375</AltitudeMeters>
            <DistanceMeters>71468.554898819</DistanceMeters>
          </Trackpoint>
          <Trackpoint>
            <Time>2018-08-26T09:41:11.000Z</Time>
            <Position>
              <LatitudeDegrees>42.98945392481982707977294921875</LatitudeDegrees>
              <LongitudeDegrees>-1.68253420852124691009521484375</LongitudeDegrees>
            </Position>
            <AltitudeMeters>543.79998779296875</AltitudeMeters>
            <DistanceMeters>71476.370809971</DistanceMeters>
          </Trackpoint>
          <Trackpoint>
            <Time>2018-08-26T09:41:12.000Z</Time>
            <Position>
              <LatitudeDegrees>42.989505641162395477294921875</LatitudeDegrees>
              <LongitudeDegrees>-1.6824687458574771881103515625</LongitudeDegrees>
            </Position>
            <AltitudeMeters>543.79998779296875</AltitudeMeters>
            <DistanceMeters>71484.214976013</DistanceMeters>
          </Trackpoint>
          <Trackpoint>
            <Time>2018-08-26T09:41:13.000Z</Time>
            <Position>
              <LatitudeDegrees>42.9895537532866001129150390625</LatitudeDegrees>
              <LongitudeDegrees>-1.6824000142514705657958984375</LongitudeDegrees>
            </Position>
            <AltitudeMeters>544</AltitudeMeters>
            <DistanceMeters>71491.960673392</DistanceMeters>
          </Trackpoint>
          <Trackpoint>
            <Time>2018-08-26T09:41:14.000Z</Time>
            <Position>
              <LatitudeDegrees>42.9895959980785846710205078125</LatitudeDegrees>
              <LongitudeDegrees>-1.6823249123990535736083984375</LongitudeDegrees>
            </Position>
            <AltitudeMeters>544</AltitudeMeters>
            <DistanceMeters>71499.673658781</DistanceMeters>
          </Trackpoint>
          <Trackpoint>
            <Time>2018-08-26T09:41:15.000Z</Time>
            <Position>
              <LatitudeDegrees>42.98963162116706371307373046875</LatitudeDegrees>
              <LongitudeDegrees>-1.6822417639195919036865234375</LongitudeDegrees>
            </Position>
            <AltitudeMeters>544.20001220703125</AltitudeMeters>
            <DistanceMeters>71507.518975922</DistanceMeters>
          </Trackpoint>
          <Trackpoint>
            <Time>2018-08-26T09:41:16.000Z</Time>
            <Position>
              <LatitudeDegrees>42.98965978436172008514404296875</LatitudeDegrees>
              <LongitudeDegrees>-1.6821532510221004486083984375</LongitudeDegrees>
            </Position>
            <AltitudeMeters>544.20001220703125</AltitudeMeters>
            <DistanceMeters>71515.378093104</DistanceMeters>
          </Trackpoint>
          <Trackpoint>
            <Time>2018-08-26T09:41:17.000Z</Time>
            <Position>
              <LatitudeDegrees>42.9896835051476955413818359375</LatitudeDegrees>
              <LongitudeDegrees>-1.68206079863011837005615234375</LongitudeDegrees>
            </Position>
            <AltitudeMeters>544.4000244140625</AltitudeMeters>
            <DistanceMeters>71523.354678754</DistanceMeters>
          </Trackpoint>
          <Trackpoint>
            <Time>2018-08-26T09:41:18.000Z</Time>
            <Position>
              <LatitudeDegrees>42.989702112972736358642578125</LatitudeDegrees>
              <LongitudeDegrees>-1.6819651611149311065673828125</LongitudeDegrees>
            </Position>
            <AltitudeMeters>544.4000244140625</AltitudeMeters>
            <DistanceMeters>71531.411240643</DistanceMeters>
          </Trackpoint>
          <Trackpoint>
            <Time>2018-08-26T09:41:19.000Z</Time>
            <Position>
              <LatitudeDegrees>42.98971342854201793670654296875</LatitudeDegrees>
              <LongitudeDegrees>-1.68186684139072895050048828125</LongitudeDegrees>
            </Position>
            <AltitudeMeters>544.4000244140625</AltitudeMeters>
            <DistanceMeters>71539.514740868</DistanceMeters>
          </Trackpoint>
          <Trackpoint>
            <Time>2018-08-26T09:41:20.000Z</Time>
            <Position>
              <LatitudeDegrees>42.98971854150295257568359375</LatitudeDegrees>
              <LongitudeDegrees>-1.68176718056201934814453125</LongitudeDegrees>
            </Position>
            <AltitudeMeters>544.4000244140625</AltitudeMeters>
            <DistanceMeters>71547.648272698</DistanceMeters>
          </Trackpoint>
          <Trackpoint>
            <Time>2018-08-26T09:41:21.000Z</Time>
            <Position>
              <LatitudeDegrees>42.98972189426422119140625</LatitudeDegrees>
              <LongitudeDegrees>-1.68166584335267543792724609375</LongitudeDegrees>
            </Position>
            <AltitudeMeters>544.4000244140625</AltitudeMeters>
            <DistanceMeters>71555.907400828</DistanceMeters>
          </Trackpoint>
          <Trackpoint>
            <Time>2018-08-26T09:41:22.000Z</Time>
            <Position>
              <LatitudeDegrees>42.98972348682582378387451171875</LatitudeDegrees>
              <LongitudeDegrees>-1.68156333267688751220703125</LongitudeDegrees>
            </Position>
            <AltitudeMeters>544.5999755859375</AltitudeMeters>
            <DistanceMeters>71564.254620116</DistanceMeters>
          </Trackpoint>
          <Trackpoint>
            <Time>2018-08-26T09:41:23.000Z</Time>
            <Position>
              <LatitudeDegrees>42.98972390592098236083984375</LatitudeDegrees>
              <LongitudeDegrees>-1.6814582236111164093017578125</LongitudeDegrees>
            </Position>
            <AltitudeMeters>544.5999755859375</AltitudeMeters>
            <DistanceMeters>71572.812302042</DistanceMeters>
          </Trackpoint>
          <Trackpoint>
            <Time>2018-08-26T09:41:24.000Z</Time>
            <Position>
              <LatitudeDegrees>42.98972415737807750701904296875</LatitudeDegrees>
              <LongitudeDegrees>-1.6813505999743938446044921875</LongitudeDegrees>
            </Position>
            <AltitudeMeters>544.5999755859375</AltitudeMeters>
            <DistanceMeters>71581.574362869</DistanceMeters>
          </Trackpoint>
          <Trackpoint>
            <Time>2018-08-26T09:41:25.000Z</Time>
            <Position>
              <LatitudeDegrees>42.9897232353687286376953125</LatitudeDegrees>
              <LongitudeDegrees>-1.6812459938228130340576171875</LongitudeDegrees>
            </Position>
            <AltitudeMeters>544.5999755859375</AltitudeMeters>
            <DistanceMeters>71590.09079252</DistanceMeters>
          </Trackpoint>
          <Trackpoint>
            <Time>2018-08-26T09:41:26.000Z</Time>
            <Position>
              <LatitudeDegrees>42.9897223971784114837646484375</LatitudeDegrees>
              <LongitudeDegrees>-1.68114080093801021575927734375</LongitudeDegrees>
            </Position>
            <AltitudeMeters>544.5999755859375</AltitudeMeters>
            <DistanceMeters>71598.65585767</DistanceMeters>
          </Trackpoint>
          <Trackpoint>
            <Time>2018-08-26T09:41:27.000Z</Time>
            <Position>
              <LatitudeDegrees>42.98972197808325290679931640625</LatitudeDegrees>
              <LongitudeDegrees>-1.68103627860546112060546875</LongitudeDegrees>
            </Position>
            <AltitudeMeters>544.5999755859375</AltitudeMeters>
            <DistanceMeters>71607.165392499</DistanceMeters>
          </Trackpoint>
          <Trackpoint>
            <Time>2018-08-26T09:41:28.000Z</Time>
            <Position>
              <LatitudeDegrees>42.9897232353687286376953125</LatitudeDegrees>
              <LongitudeDegrees>-1.6809331811964511871337890625</LongitudeDegrees>
            </Position>
            <AltitudeMeters>544.4000244140625</AltitudeMeters>
            <DistanceMeters>71615.559538465</DistanceMeters>
          </Trackpoint>
          <Trackpoint>
            <Time>2018-08-26T09:41:29.000Z</Time>
            <Position>
              <LatitudeDegrees>42.9897270910441875457763671875</LatitudeDegrees>
              <LongitudeDegrees>-1.6808305867016315460205078125</LongitudeDegrees>
            </Position>
            <AltitudeMeters>544.4000244140625</AltitudeMeters>
            <DistanceMeters>71623.922969108</DistanceMeters>
          </Trackpoint>
          <Trackpoint>
            <Time>2018-08-26T09:41:30.000Z</Time>
            <Position>
              <LatitudeDegrees>42.98973706550896167755126953125</LatitudeDegrees>
              <LongitudeDegrees>-1.68072572909295558929443359375</LongitudeDegrees>
            </Position>
            <AltitudeMeters>544.20001220703125</AltitudeMeters>
            <DistanceMeters>71632.532200634</DistanceMeters>
          </Trackpoint>
          <Trackpoint>
            <Time>2018-08-26T09:41:31.000Z</Time>
            <Position>
              <LatitudeDegrees>42.98975433222949504852294921875</LatitudeDegrees>
              <LongitudeDegrees>-1.68062455952167510986328125</LongitudeDegrees>
            </Position>
            <AltitudeMeters>544.20001220703125</AltitudeMeters>
            <DistanceMeters>71640.990112054</DistanceMeters>
          </Trackpoint>
          <Trackpoint>
            <Time>2018-08-26T09:41:32.000Z</Time>
            <Position>
              <LatitudeDegrees>42.989777885377407073974609375</LatitudeDegrees>
              <LongitudeDegrees>-1.6805241443216800689697265625</LongitudeDegrees>
            </Position>
            <AltitudeMeters>544</AltitudeMeters>
            <DistanceMeters>71649.575185375</DistanceMeters>
          </Trackpoint>
          <Trackpoint>
            <Time>2018-08-26T09:41:33.000Z</Time>
            <Position>
              <LatitudeDegrees>42.989806048572063446044921875</LatitudeDegrees>
              <LongitudeDegrees>-1.6804252378642559051513671875</LongitudeDegrees>
            </Position>
            <AltitudeMeters>544</AltitudeMeters>
            <DistanceMeters>71658.215303543</DistanceMeters>
          </Trackpoint>
          <Trackpoint>
            <Time>2018-08-26T09:41:34.000Z</Time>
            <Position>
              <LatitudeDegrees>42.98983898945152759552001953125</LatitudeDegrees>
              <LongitudeDegrees>-1.68032892979681491851806640625</LongitudeDegrees>
            </Position>
            <AltitudeMeters>543.79998779296875</AltitudeMeters>
            <DistanceMeters>71666.87056288</DistanceMeters>
          </Trackpoint>
          <Trackpoint>
            <Time>2018-08-26T09:41:35.000Z</Time>
            <Position>
              <LatitudeDegrees>42.98987721092998981475830078125</LatitudeDegrees>
              <LongitudeDegrees>-1.680236645042896270751953125</LongitudeDegrees>
            </Position>
            <AltitudeMeters>543.79998779296875</AltitudeMeters>
            <DistanceMeters>71675.504930901</DistanceMeters>
          </Trackpoint>
          <Trackpoint>
            <Time>2018-08-26T09:41:36.000Z</Time>
            <Position>
              <LatitudeDegrees>42.9899195395410060882568359375</LatitudeDegrees>
              <LongitudeDegrees>-1.68014771305024623870849609375</LongitudeDegrees>
            </Position>
            <AltitudeMeters>543.5999755859375</AltitudeMeters>
            <DistanceMeters>71684.14243584</DistanceMeters>
          </Trackpoint>
          <Trackpoint>
            <Time>2018-08-26T09:41:37.000Z</Time>
            <Position>
              <LatitudeDegrees>42.989964298903942108154296875</LatitudeDegrees>
              <LongitudeDegrees>-1.68006087653338909149169921875</LongitudeDegrees>
            </Position>
            <AltitudeMeters>543.5999755859375</AltitudeMeters>
            <DistanceMeters>71692.790911034</DistanceMeters>
          </Trackpoint>
          <Trackpoint>
            <Time>2018-08-26T09:41:38.000Z</Time>
            <Position>
              <LatitudeDegrees>42.990008555352687835693359375</LatitudeDegrees>
              <LongitudeDegrees>-1.67997571639716625213623046875</LongitudeDegrees>
            </Position>
            <AltitudeMeters>543.5999755859375</AltitudeMeters>
            <DistanceMeters>71701.29513835</DistanceMeters>
          </Trackpoint>
          <Trackpoint>
            <Time>2018-08-26T09:41:39.000Z</Time>
            <Position>
              <LatitudeDegrees>42.99005272798240184783935546875</LatitudeDegrees>
              <LongitudeDegrees>-1.6798924840986728668212890625</LongitudeDegrees>
            </Position>
            <AltitudeMeters>543.4000244140625</AltitudeMeters>
            <DistanceMeters>71709.6666629</DistanceMeters>
          </Trackpoint>
          <Trackpoint>
            <Time>2018-08-26T09:41:40.000Z</Time>
            <Position>
              <LatitudeDegrees>42.99009681679308414459228515625</LatitudeDegrees>
              <LongitudeDegrees>-1.679810173809528350830078125</LongitudeDegrees>
            </Position>
            <AltitudeMeters>543.20001220703125</AltitudeMeters>
            <DistanceMeters>71717.972128206</DistanceMeters>
          </Trackpoint>
          <Trackpoint>
            <Time>2018-08-26T09:41:41.000Z</Time>
            <Position>
              <LatitudeDegrees>42.99014023505151271820068359375</LatitudeDegrees>
              <LongitudeDegrees>-1.6797293722629547119140625</LongitudeDegrees>
            </Position>
            <AltitudeMeters>543</AltitudeMeters>
            <DistanceMeters>71726.134474928</DistanceMeters>
          </Trackpoint>
          <Trackpoint>
            <Time>2018-08-26T09:41:42.000Z</Time>
            <Position>
              <LatitudeDegrees>42.9901830665767192840576171875</LatitudeDegrees>
              <LongitudeDegrees>-1.679649911820888519287109375</LongitudeDegrees>
            </Position>
            <AltitudeMeters>543</AltitudeMeters>
            <DistanceMeters>71734.170836463</DistanceMeters>
          </Trackpoint>
          <Trackpoint>
            <Time>2018-08-26T09:41:43.000Z</Time>
            <Position>
              <LatitudeDegrees>42.99022589810192584991455078125</LatitudeDegrees>
              <LongitudeDegrees>-1.67957154102623462677001953125</LongitudeDegrees>
            </Position>
            <AltitudeMeters>543</AltitudeMeters>
            <DistanceMeters>71742.135526477</DistanceMeters>
          </Trackpoint>
          <Trackpoint>
            <Time>2018-08-26T09:41:44.000Z</Time>
            <Position>
              <LatitudeDegrees>42.9902678914368152618408203125</LatitudeDegrees>
              <LongitudeDegrees>-1.67949291877448558807373046875</LongitudeDegrees>
            </Position>
            <AltitudeMeters>543</AltitudeMeters>
            <DistanceMeters>71750.061005121</DistanceMeters>
          </Trackpoint>
          <Trackpoint>
            <Time>2018-08-26T09:41:45.000Z</Time>
            <Position>
              <LatitudeDegrees>42.990309633314609527587890625</LatitudeDegrees>
              <LongitudeDegrees>-1.6794140450656414031982421875</LongitudeDegrees>
            </Position>
            <AltitudeMeters>543</AltitudeMeters>
            <DistanceMeters>71757.987623057</DistanceMeters>
          </Trackpoint>
          <Trackpoint>
            <Time>2018-08-26T09:41:46.000Z</Time>
            <Position>
              <LatitudeDegrees>42.9903513751924037933349609375</LatitudeDegrees>
              <LongitudeDegrees>-1.679335422813892364501953125</LongitudeDegrees>
            </Position>
            <AltitudeMeters>543</AltitudeMeters>
            <DistanceMeters>71765.897134395</DistanceMeters>
          </Trackpoint>
          <Trackpoint>
            <Time>2018-08-26T09:41:47.000Z</Time>
            <Position>
              <LatitudeDegrees>42.99039286561310291290283203125</LatitudeDegrees>
              <LongitudeDegrees>-1.67925738729536533355712890625</LongitudeDegrees>
            </Position>
            <AltitudeMeters>543</AltitudeMeters>
            <DistanceMeters>71773.751654257</DistanceMeters>
          </Trackpoint>
          <Trackpoint>
            <Time>2018-08-26T09:41:48.000Z</Time>
            <Position>
              <LatitudeDegrees>42.9904335178434848785400390625</LatitudeDegrees>
              <LongitudeDegrees>-1.67918018996715545654296875</LongitudeDegrees>
            </Position>
            <AltitudeMeters>543</AltitudeMeters>
            <DistanceMeters>71781.49618573</DistanceMeters>
          </Trackpoint>
          <Trackpoint>
            <Time>2018-08-26T09:41:49.000Z</Time>
            <Position>
              <LatitudeDegrees>42.9904742538928985595703125</LatitudeDegrees>
              <LongitudeDegrees>-1.679103411734104156494140625</LongitudeDegrees>
            </Position>
            <AltitudeMeters>542.79998779296875</AltitudeMeters>
            <DistanceMeters>71789.218531542</DistanceMeters>
          </Trackpoint>
          <Trackpoint>
            <Time>2018-08-26T09:41:50.000Z</Time>
            <Position>
              <LatitudeDegrees>42.99051490612328052520751953125</LatitudeDegrees>
              <LongitudeDegrees>-1.67902705259621143341064453125</LongitudeDegrees>
            </Position>
            <AltitudeMeters>543</AltitudeMeters>
            <DistanceMeters>71796.908066024</DistanceMeters>
          </Trackpoint>
          <Trackpoint>
            <Time>2018-08-26T09:41:51.000Z</Time>
            <Position>
              <LatitudeDegrees>42.99055513925850391387939453125</LatitudeDegrees>
              <LongitudeDegrees>-1.67895086109638214111328125</LongitudeDegrees>
            </Position>
            <AltitudeMeters>543</AltitudeMeters>
            <DistanceMeters>71804.558749361</DistanceMeters>
          </Trackpoint>
          <Trackpoint>
            <Time>2018-08-26T09:41:52.000Z</Time>
            <Position>
              <LatitudeDegrees>42.99059520475566387176513671875</LatitudeDegrees>
              <LongitudeDegrees>-1.6788742505013942718505859375</LongitudeDegrees>
            </Position>
            <AltitudeMeters>543</AltitudeMeters>
            <DistanceMeters>71812.22711671</DistanceMeters>
          </Trackpoint>
          <Trackpoint>
            <Time>2018-08-26T09:41:53.000Z</Time>
            <Position>
              <LatitudeDegrees>42.99063560552895069122314453125</LatitudeDegrees>
              <LongitudeDegrees>-1.67879805900156497955322265625</LongitudeDegrees>
            </Position>
            <AltitudeMeters>543</AltitudeMeters>
            <DistanceMeters>71819.88900466</DistanceMeters>
          </Trackpoint>
          <Trackpoint>
            <Time>2018-08-26T09:41:54.000Z</Time>
            <Position>
              <LatitudeDegrees>42.990675754845142364501953125</LatitudeDegrees>
              <LongitudeDegrees>-1.6787227056920528411865234375</LongitudeDegrees>
            </Position>
            <AltitudeMeters>543</AltitudeMeters>
            <DistanceMeters>71827.479254176</DistanceMeters>
          </Trackpoint>
          <Trackpoint>
            <Time>2018-08-26T09:41:55.000Z</Time>
            <Position>
              <LatitudeDegrees>42.99071523360908031463623046875</LatitudeDegrees>
              <LongitudeDegrees>-1.6786476038396358489990234375</LongitudeDegrees>
            </Position>
            <AltitudeMeters>543</AltitudeMeters>
            <DistanceMeters>71835.008584818</DistanceMeters>
          </Trackpoint>
          <Trackpoint>
            <Time>2018-08-26T09:41:56.000Z</Time>
            <Position>
              <LatitudeDegrees>42.990754880011081695556640625</LatitudeDegrees>
              <LongitudeDegrees>-1.6785725019872188568115234375</LongitudeDegrees>
            </Position>
            <AltitudeMeters>543</AltitudeMeters>
            <DistanceMeters>71842.548701613</DistanceMeters>
          </Trackpoint>
          <Trackpoint>
            <Time>2018-08-26T09:41:57.000Z</Time>
            <Position>
              <LatitudeDegrees>42.99079419113695621490478515625</LatitudeDegrees>
              <LongitudeDegrees>-1.67849714867770671844482421875</LongitudeDegrees>
            </Position>
            <AltitudeMeters>543</AltitudeMeters>
            <DistanceMeters>71850.084625628</DistanceMeters>
          </Trackpoint>
          <Trackpoint>
            <Time>2018-08-26T09:41:58.000Z</Time>
            <Position>
              <LatitudeDegrees>42.9908335022628307342529296875</LatitudeDegrees>
              <LongitudeDegrees>-1.6784222982823848724365234375</LongitudeDegrees>
            </Position>
            <AltitudeMeters>543</AltitudeMeters>
            <DistanceMeters>71857.586321196</DistanceMeters>
          </Trackpoint>
          <Trackpoint>
            <Time>2018-08-26T09:41:59.000Z</Time>
            <Position>
              <LatitudeDegrees>42.9908734001219272613525390625</LatitudeDegrees>
              <LongitudeDegrees>-1.6783468611538410186767578125</LongitudeDegrees>
            </Position>
            <AltitudeMeters>543</AltitudeMeters>
            <DistanceMeters>71865.164664431</DistanceMeters>
          </Trackpoint>
          <Trackpoint>
            <Time>2018-08-26T09:42:00.000Z</Time>
            <Position>
              <LatitudeDegrees>42.99091371707618236541748046875</LatitudeDegrees>
              <LongitudeDegrees>-1.67827134020626544952392578125</LongitudeDegrees>
            </Position>
            <AltitudeMeters>543.20001220703125</AltitudeMeters>
            <DistanceMeters>71872.77629832</DistanceMeters>
          </Trackpoint>
          <Trackpoint>
            <Time>2018-08-26T09:42:01.000Z</Time>
            <Position>
              <LatitudeDegrees>42.9909542016685009002685546875</LatitudeDegrees>
              <LongitudeDegrees>-1.67819757945835590362548828125</LongitudeDegrees>
            </Position>
            <AltitudeMeters>543.20001220703125</AltitudeMeters>
            <DistanceMeters>71880.284611529</DistanceMeters>
          </Trackpoint>
          <Trackpoint>
            <Time>2018-08-26T09:42:02.000Z</Time>
            <Position>
              <LatitudeDegrees>42.990994267165660858154296875</LatitudeDegrees>
              <LongitudeDegrees>-1.6781254112720489501953125</LongitudeDegrees>
            </Position>
            <AltitudeMeters>543.20001220703125</AltitudeMeters>
            <DistanceMeters>71887.661280198</DistanceMeters>
          </Trackpoint>
          <Trackpoint>
            <Time>2018-08-26T09:42:03.000Z</Time>
            <Position>
              <LatitudeDegrees>42.99103274010121822357177734375</LatitudeDegrees>
              <LongitudeDegrees>-1.6780531592667102813720703125</LongitudeDegrees>
            </Position>
            <AltitudeMeters>543.4000244140625</AltitudeMeters>
            <DistanceMeters>71894.937497498</DistanceMeters>
          </Trackpoint>
          <Trackpoint>
            <Time>2018-08-26T09:42:04.000Z</Time>
            <Position>
              <LatitudeDegrees>42.991070039570331573486328125</LatitudeDegrees>
              <LongitudeDegrees>-1.67798124253749847412109375</LongitudeDegrees>
            </Position>
            <AltitudeMeters>543.4000244140625</AltitudeMeters>
            <DistanceMeters>71902.115003061</DistanceMeters>
          </Trackpoint>
          <Trackpoint>
            <Time>2018-08-26T09:42:05.000Z</Time>
            <Position>
              <LatitudeDegrees>42.99110750667750835418701171875</LatitudeDegrees>
              <LongitudeDegrees>-1.67790957726538181304931640625</LongitudeDegrees>
            </Position>
            <AltitudeMeters>543.5999755859375</AltitudeMeters>
            <DistanceMeters>71909.286844904</DistanceMeters>
          </Trackpoint>
          <Trackpoint>
            <Time>2018-08-26T09:42:06.000Z</Time>
            <Position>
              <LatitudeDegrees>42.991145141422748565673828125</LatitudeDegrees>
              <LongitudeDegrees>-1.677838079631328582763671875</LongitudeDegrees>
            </Position>
            <AltitudeMeters>543.5999755859375</AltitudeMeters>
            <DistanceMeters>71916.458686748</DistanceMeters>
          </Trackpoint>
          <Trackpoint>
            <Time>2018-08-26T09:42:07.000Z</Time>
            <Position>
              <LatitudeDegrees>42.9911825247108936309814453125</LatitudeDegrees>
              <LongitudeDegrees>-1.6777675040066242218017578125</LongitudeDegrees>
            </Position>
            <AltitudeMeters>543.5999755859375</AltitudeMeters>
            <DistanceMeters>71923.552671243</DistanceMeters>
          </Trackpoint>
          <Trackpoint>
            <Time>2018-08-26T09:42:08.000Z</Time>
            <Position>
              <LatitudeDegrees>42.99121915362775325775146484375</LatitudeDegrees>
              <LongitudeDegrees>-1.677697598934173583984375</LongitudeDegrees>
            </Position>
            <AltitudeMeters>543.79998779296875</AltitudeMeters>
            <DistanceMeters>71930.553760797</DistanceMeters>
          </Trackpoint>
          <Trackpoint>
            <Time>2018-08-26T09:42:09.000Z</Time>
            <Position>
              <LatitudeDegrees>42.99125519581139087677001953125</LatitudeDegrees>
              <LongitudeDegrees>-1.67762794531881809234619140625</LongitudeDegrees>
            </Position>
            <AltitudeMeters>543.79998779296875</AltitudeMeters>
            <DistanceMeters>71937.500467104</DistanceMeters>
          </Trackpoint>
          <Trackpoint>
            <Time>2018-08-26T09:42:10.000Z</Time>
            <Position>
              <LatitudeDegrees>42.9912914894521236419677734375</LatitudeDegrees>
              <LongitudeDegrees>-1.6775586269795894622802734375</LongitudeDegrees>
            </Position>
            <AltitudeMeters>543.79998779296875</AltitudeMeters>
            <DistanceMeters>71944.440670829</DistanceMeters>
          </Trackpoint>
          <Trackpoint>
            <Time>2018-08-26T09:42:11.000Z</Time>
            <Position>
              <LatitudeDegrees>42.991328537464141845703125</LatitudeDegrees>
              <LongitudeDegrees>-1.67748997919261455535888671875</LongitudeDegrees>
            </Position>
            <AltitudeMeters>544</AltitudeMeters>
            <DistanceMeters>71951.385427001</DistanceMeters>
          </Trackpoint>
          <Trackpoint>
            <Time>2018-08-26T09:42:12.000Z</Time>
            <Position>
              <LatitudeDegrees>42.9913655854761600494384765625</LatitudeDegrees>
              <LongitudeDegrees>-1.67742107994854450225830078125</LongitudeDegrees>
            </Position>
            <AltitudeMeters>544</AltitudeMeters>
            <DistanceMeters>71958.346417606</DistanceMeters>
          </Trackpoint>
          <Trackpoint>
            <Time>2018-08-26T09:42:13.000Z</Time>
            <Position>
              <LatitudeDegrees>42.99140305258333683013916015625</LatitudeDegrees>
              <LongitudeDegrees>-1.6773514263331890106201171875</LongitudeDegrees>
            </Position>
            <AltitudeMeters>544</AltitudeMeters>
            <DistanceMeters>71965.384812264</DistanceMeters>
          </Trackpoint>
          <Trackpoint>
            <Time>2018-08-26T09:42:14.000Z</Time>
            <Position>
              <LatitudeDegrees>42.9914398491382598876953125</LatitudeDegrees>
              <LongitudeDegrees>-1.67728126980364322662353515625</LongitudeDegrees>
            </Position>
            <AltitudeMeters>544.20001220703125</AltitudeMeters>
            <DistanceMeters>71972.412935638</DistanceMeters>
          </Trackpoint>
          <Trackpoint>
            <Time>2018-08-26T09:42:15.000Z</Time>
            <Position>
              <LatitudeDegrees>42.9914758913218975067138671875</LatitudeDegrees>
              <LongitudeDegrees>-1.67721136473119258880615234375</LongitudeDegrees>
            </Position>
            <AltitudeMeters>544.20001220703125</AltitudeMeters>
            <DistanceMeters>71979.375871831</DistanceMeters>
          </Trackpoint>
          <Trackpoint>
            <Time>2018-08-26T09:42:16.000Z</Time>
            <Position>
              <LatitudeDegrees>42.99151168204843997955322265625</LatitudeDegrees>
              <LongitudeDegrees>-1.677141375839710235595703125</LongitudeDegrees>
            </Position>
            <AltitudeMeters>544.20001220703125</AltitudeMeters>
            <DistanceMeters>71986.327775824</DistanceMeters>
          </Trackpoint>
          <Trackpoint>
            <Time>2018-08-26T09:42:17.000Z</Time>
            <Position>
              <LatitudeDegrees>42.99154638312757015228271484375</LatitudeDegrees>
              <LongitudeDegrees>-1.67707071639597415924072265625</LongitudeDegrees>
            </Position>
            <AltitudeMeters>544.20001220703125</AltitudeMeters>
            <DistanceMeters>71993.256259523</DistanceMeters>
          </Trackpoint>
          <Trackpoint>
            <Time>2018-08-26T09:42:18.000Z</Time>
            <Position>
              <LatitudeDegrees>42.9915791563689708709716796875</LatitudeDegrees>
              <LongitudeDegrees>-1.67699947021901607513427734375</LongitudeDegrees>
            </Position>
            <AltitudeMeters>544.4000244140625</AltitudeMeters>
            <DistanceMeters>72000.108733347</DistanceMeters>
          </Trackpoint>
          <Trackpoint>
            <Time>2018-08-26T09:42:19.000Z</Time>
            <Position>
              <LatitudeDegrees>42.9916103370487689971923828125</LatitudeDegrees>
              <LongitudeDegrees>-1.67692713439464569091796875</LongitudeDegrees>
            </Position>
            <AltitudeMeters>544.5999755859375</AltitudeMeters>
            <DistanceMeters>72006.944054519</DistanceMeters>
          </Trackpoint>
          <Trackpoint>
            <Time>2018-08-26T09:42:20.000Z</Time>
            <Position>
              <LatitudeDegrees>42.99164026044309139251708984375</LatitudeDegrees>
              <LongitudeDegrees>-1.6768545471131801605224609375</LongitudeDegrees>
            </Position>
            <AltitudeMeters>544.5999755859375</AltitudeMeters>
            <DistanceMeters>72013.727657511</DistanceMeters>
          </Trackpoint>
          <Trackpoint>
            <Time>2018-08-26T09:42:21.000Z</Time>
            <Position>
              <LatitudeDegrees>42.99166909419000148773193359375</LatitudeDegrees>
              <LongitudeDegrees>-1.67678137309849262237548828125</LongitudeDegrees>
            </Position>
            <AltitudeMeters>544.79998779296875</AltitudeMeters>
            <DistanceMeters>72020.494600518</DistanceMeters>
          </Trackpoint>
          <Trackpoint>
            <Time>2018-08-26T09:42:22.000Z</Time>
            <Position>
              <LatitudeDegrees>42.99169524572789669036865234375</LatitudeDegrees>
              <LongitudeDegrees>-1.67670719325542449951171875</LongitudeDegrees>
            </Position>
            <AltitudeMeters>544.79998779296875</AltitudeMeters>
            <DistanceMeters>72027.199204946</DistanceMeters>
          </Trackpoint>
          <Trackpoint>
            <Time>2018-08-26T09:42:23.000Z</Time>
            <Position>
              <LatitudeDegrees>42.99171854741871356964111328125</LatitudeDegrees>
              <LongitudeDegrees>-1.67663209140300750732421875</LongitudeDegrees>
            </Position>
            <AltitudeMeters>545.20001220703125</AltitudeMeters>
            <DistanceMeters>72033.841565483</DistanceMeters>
          </Trackpoint>
          <Trackpoint>
            <Time>2018-08-26T09:42:24.000Z</Time>
            <Position>
              <LatitudeDegrees>42.99173966981470584869384765625</LatitudeDegrees>
              <LongitudeDegrees>-1.676555983722209930419921875</LongitudeDegrees>
            </Position>
            <AltitudeMeters>545.20001220703125</AltitudeMeters>
            <DistanceMeters>72040.468955001</DistanceMeters>
          </Trackpoint>
          <Trackpoint>
            <Time>2018-08-26T09:42:25.000Z</Time>
            <Position>
              <LatitudeDegrees>42.991758696734905242919921875</LatitudeDegrees>
              <LongitudeDegrees>-1.67647928930819034576416015625</LongitudeDegrees>
            </Position>
            <AltitudeMeters>545.4000244140625</AltitudeMeters>
            <DistanceMeters>72047.062193052</DistanceMeters>
          </Trackpoint>
          <Trackpoint>
            <Time>2018-08-26T09:42:26.000Z</Time>
            <Position>
              <LatitudeDegrees>42.991774789988994598388671875</LatitudeDegrees>
              <LongitudeDegrees>-1.6764019243419170379638671875</LongitudeDegrees>
            </Position>
            <AltitudeMeters>545.4000244140625</AltitudeMeters>
            <DistanceMeters>72053.610767938</DistanceMeters>
          </Trackpoint>
          <Trackpoint>
            <Time>2018-08-26T09:42:27.000Z</Time>
            <Position>
              <LatitudeDegrees>42.9917883686721324920654296875</LatitudeDegrees>
              <LongitudeDegrees>-1.67632355354726314544677734375</LongitudeDegrees>
            </Position>
            <AltitudeMeters>545.5999755859375</AltitudeMeters>
            <DistanceMeters>72060.167611229</DistanceMeters>
          </Trackpoint>
          <Trackpoint>
            <Time>2018-08-26T09:42:28.000Z</Time>
            <Position>
              <LatitudeDegrees>42.991800606250762939453125</LatitudeDegrees>
              <LongitudeDegrees>-1.67624543420970439910888671875</LongitudeDegrees>
            </Position>
            <AltitudeMeters>545.5999755859375</AltitudeMeters>
            <DistanceMeters>72066.671216234</DistanceMeters>
          </Trackpoint>
          <Trackpoint>
            <Time>2018-08-26T09:42:29.000Z</Time>
            <Position>
              <LatitudeDegrees>42.9918111674487590789794921875</LatitudeDegrees>
              <LongitudeDegrees>-1.6761692427098751068115234375</LongitudeDegrees>
            </Position>
            <AltitudeMeters>545.5999755859375</AltitudeMeters>
            <DistanceMeters>72072.984595474</DistanceMeters>
          </Trackpoint>
          <Trackpoint>
            <Time>2018-08-26T09:42:30.000Z</Time>
            <Position>
              <LatitudeDegrees>42.9918202199041843414306640625</LatitudeDegrees>
              <LongitudeDegrees>-1.676096655428409576416015625</LongitudeDegrees>
            </Position>
            <AltitudeMeters>545.5999755859375</AltitudeMeters>
            <DistanceMeters>72078.979568722</DistanceMeters>
          </Trackpoint>
          <Trackpoint>
            <Time>2018-08-26T09:42:31.000Z</Time>
            <Position>
              <LatitudeDegrees>42.99182717688381671905517578125</LatitudeDegrees>
              <LongitudeDegrees>-1.67602666653692722320556640625</LongitudeDegrees>
            </Position>
            <AltitudeMeters>545.79998779296875</AltitudeMeters>
            <DistanceMeters>72084.730059131</DistanceMeters>
          </Trackpoint>
          <Trackpoint>
            <Time>2018-08-26T09:42:32.000Z</Time>
            <Position>
              <LatitudeDegrees>42.99183371476829051971435546875</LatitudeDegrees>
              <LongitudeDegrees>-1.6759596951305866241455078125</LongitudeDegrees>
            </Position>
            <AltitudeMeters>545.79998779296875</AltitudeMeters>
            <DistanceMeters>72090.23094871</DistanceMeters>
          </Trackpoint>
          <Trackpoint>
            <Time>2018-08-26T09:42:33.000Z</Time>
            <Position>
              <LatitudeDegrees>42.991839833557605743408203125</LatitudeDegrees>
              <LongitudeDegrees>-1.67589557357132434844970703125</LongitudeDegrees>
            </Position>
            <AltitudeMeters>546.20001220703125</AltitudeMeters>
            <DistanceMeters>72095.494433728</DistanceMeters>
          </Trackpoint>
          <Trackpoint>
            <Time>2018-08-26T09:42:34.000Z</Time>
            <Position>
              <LatitudeDegrees>42.9918448626995086669921875</LatitudeDegrees>
              <LongitudeDegrees>-1.675833128392696380615234375</LongitudeDegrees>
            </Position>
            <AltitudeMeters>546.20001220703125</AltitudeMeters>
            <DistanceMeters>72100.608248486</DistanceMeters>
          </Trackpoint>
          <Trackpoint>
            <Time>2018-08-26T09:42:35.000Z</Time>
            <Position>
              <LatitudeDegrees>42.99184829927980899810791015625</LatitudeDegrees>
              <LongitudeDegrees>-1.67577269487082958221435546875</LongitudeDegrees>
            </Position>
            <AltitudeMeters>546.4000244140625</AltitudeMeters>
            <DistanceMeters>72105.542322471</DistanceMeters>
          </Trackpoint>
          <Trackpoint>
            <Time>2018-08-26T09:42:36.000Z</Time>
            <Position>
              <LatitudeDegrees>42.991847209632396697998046875</LatitudeDegrees>
              <LongitudeDegrees>-1.675715111196041107177734375</LongitudeDegrees>
            </Position>
            <AltitudeMeters>546.4000244140625</AltitudeMeters>
            <DistanceMeters>72110.2324468</DistanceMeters>
          </Trackpoint>
          <Trackpoint>
            <Time>2018-08-26T09:42:37.000Z</Time>
            <Position>
              <LatitudeDegrees>42.9918346367776393890380859375</LatitudeDegrees>
              <LongitudeDegrees>-1.67566389776766300201416015625</LongitudeDegrees>
            </Position>
            <AltitudeMeters>546.4000244140625</AltitudeMeters>
            <DistanceMeters>72114.630449044</DistanceMeters>
          </Trackpoint>
          <Trackpoint>
            <Time>2018-08-26T09:42:38.000Z</Time>
            <Position>
              <LatitudeDegrees>42.99181007780134677886962890625</LatitudeDegrees>
              <LongitudeDegrees>-1.67562265880405902862548828125</LongitudeDegrees>
            </Position>
            <AltitudeMeters>546.79998779296875</AltitudeMeters>
            <DistanceMeters>72118.959121892</DistanceMeters>
          </Trackpoint>
          <Trackpoint>
            <Time>2018-08-26T09:42:39.000Z</Time>
            <Position>
              <LatitudeDegrees>42.99177470616996288299560546875</LatitudeDegrees>
              <LongitudeDegrees>-1.67560053057968616485595703125</LongitudeDegrees>
            </Position>
            <AltitudeMeters>547</AltitudeMeters>
            <DistanceMeters>72123.288837667</DistanceMeters>
          </Trackpoint>
          <Trackpoint>
            <Time>2018-08-26T09:42:40.000Z</Time>
            <Position>
              <LatitudeDegrees>42.9917327128350734710693359375</LatitudeDegrees>
              <LongitudeDegrees>-1.6756014525890350341796875</LongitudeDegrees>
            </Position>
            <AltitudeMeters>547.20001220703125</AltitudeMeters>
            <DistanceMeters>72127.963533914</DistanceMeters>
          </Trackpoint>
          <Trackpoint>
            <Time>2018-08-26T09:42:41.000Z</Time>
            <Position>
              <LatitudeDegrees>42.99168703146278858184814453125</LatitudeDegrees>
              <LongitudeDegrees>-1.6756210662424564361572265625</LongitudeDegrees>
            </Position>
            <AltitudeMeters>547.4000244140625</AltitudeMeters>
            <DistanceMeters>72133.291813218</DistanceMeters>
          </Trackpoint>
          <Trackpoint>
            <Time>2018-08-26T09:42:42.000Z</Time>
            <Position>
              <LatitudeDegrees>42.9916383326053619384765625</LatitudeDegrees>
              <LongitudeDegrees>-1.6756522469222545623779296875</LongitudeDegrees>
            </Position>
            <AltitudeMeters>547.4000244140625</AltitudeMeters>
            <DistanceMeters>72139.277741995</DistanceMeters>
          </Trackpoint>
          <Trackpoint>
            <Time>2018-08-26T09:42:43.000Z</Time>
            <Position>
              <LatitudeDegrees>42.99158628098666667938232421875</LatitudeDegrees>
              <LongitudeDegrees>-1.67568661272525787353515625</LongitudeDegrees>
            </Position>
            <AltitudeMeters>547.5999755859375</AltitudeMeters>
            <DistanceMeters>72145.711548832</DistanceMeters>
          </Trackpoint>
          <Trackpoint>
            <Time>2018-08-26T09:42:44.000Z</Time>
            <Position>
              <LatitudeDegrees>42.99153112806379795074462890625</LatitudeDegrees>
              <LongitudeDegrees>-1.67572005651891231536865234375</LongitudeDegrees>
            </Position>
            <AltitudeMeters>547.5999755859375</AltitudeMeters>
            <DistanceMeters>72152.426919393</DistanceMeters>
          </Trackpoint>
          <Trackpoint>
            <Time>2018-08-26T09:42:45.000Z</Time>
            <Position>
              <LatitudeDegrees>42.99147211946547031402587890625</LatitudeDegrees>
              <LongitudeDegrees>-1.6757541708648204803466796875</LongitudeDegrees>
            </Position>
            <AltitudeMeters>547.5999755859375</AltitudeMeters>
            <DistanceMeters>72159.558356172</DistanceMeters>
          </Trackpoint>
          <Trackpoint>
            <Time>2018-08-26T09:42:46.000Z</Time>
            <Position>
              <LatitudeDegrees>42.99141009338200092315673828125</LatitudeDegrees>
              <LongitudeDegrees>-1.67578778229653835296630859375</LongitudeDegrees>
            </Position>
            <AltitudeMeters>547.5999755859375</AltitudeMeters>
            <DistanceMeters>72166.985044998</DistanceMeters>
          </Trackpoint>
          <Trackpoint>
            <Time>2018-08-26T09:42:47.000Z</Time>
            <Position>
              <LatitudeDegrees>42.991344630718231201171875</LatitudeDegrees>
              <LongitudeDegrees>-1.675820052623748779296875</LongitudeDegrees>
            </Position>
            <AltitudeMeters>547.79998779296875</AltitudeMeters>
            <DistanceMeters>72174.730742377</DistanceMeters>
          </Trackpoint>
          <Trackpoint>
            <Time>2018-08-26T09:42:48.000Z</Time>
            <Position>
              <LatitudeDegrees>42.99127757549285888671875</LatitudeDegrees>
              <LongitudeDegrees>-1.67585517279803752899169921875</LongitudeDegrees>
            </Position>
            <AltitudeMeters>547.5999755859375</AltitudeMeters>
            <DistanceMeters>72182.723161333</DistanceMeters>
          </Trackpoint>
          <Trackpoint>
            <Time>2018-08-26T09:42:49.000Z</Time>
            <Position>
              <LatitudeDegrees>42.9912096820771694183349609375</LatitudeDegrees>
              <LongitudeDegrees>-1.67589389719069004058837890625</LongitudeDegrees>
            </Position>
            <AltitudeMeters>547.79998779296875</AltitudeMeters>
            <DistanceMeters>72190.91146504</DistanceMeters>
          </Trackpoint>
          <Trackpoint>
            <Time>2018-08-26T09:42:50.000Z</Time>
            <Position>
              <LatitudeDegrees>42.99114187248051166534423828125</LatitudeDegrees>
              <LongitudeDegrees>-1.67593329213559627532958984375</LongitudeDegrees>
            </Position>
            <AltitudeMeters>547.79998779296875</AltitudeMeters>
            <DistanceMeters>72199.112441162</DistanceMeters>
          </Trackpoint>
          <Trackpoint>
            <Time>2018-08-26T09:42:51.000Z</Time>
            <Position>
              <LatitudeDegrees>42.991073392331600189208984375</LatitudeDegrees>
              <LongitudeDegrees>-1.675972603261470794677734375</LongitudeDegrees>
            </Position>
            <AltitudeMeters>547.79998779296875</AltitudeMeters>
            <DistanceMeters>72207.379219163</DistanceMeters>
          </Trackpoint>
          <Trackpoint>
            <Time>2018-08-26T09:42:52.000Z</Time>
            <Position>
              <LatitudeDegrees>42.9910038225352764129638671875</LatitudeDegrees>
              <LongitudeDegrees>-1.67601224966347217559814453125</LongitudeDegrees>
            </Position>
            <AltitudeMeters>547.79998779296875</AltitudeMeters>
            <DistanceMeters>72215.768522818</DistanceMeters>
          </Trackpoint>
          <Trackpoint>
            <Time>2018-08-26T09:42:53.000Z</Time>
            <Position>
              <LatitudeDegrees>42.99093400128185749053955078125</LatitudeDegrees>
              <LongitudeDegrees>-1.67605114169418811798095703125</LongitudeDegrees>
            </Position>
            <AltitudeMeters>547.79998779296875</AltitudeMeters>
            <DistanceMeters>72224.159978955</DistanceMeters>
          </Trackpoint>
          <Trackpoint>
            <Time>2018-08-26T09:42:54.000Z</Time>
            <Position>
              <LatitudeDegrees>42.990864180028438568115234375</LatitudeDegrees>
              <LongitudeDegrees>-1.67609036900103092193603515625</LongitudeDegrees>
            </Position>
            <AltitudeMeters>547.79998779296875</AltitudeMeters>
            <DistanceMeters>72232.561651858</DistanceMeters>
          </Trackpoint>
          <Trackpoint>
            <Time>2018-08-26T09:42:55.000Z</Time>
            <Position>
              <LatitudeDegrees>42.9907942749559879302978515625</LatitudeDegrees>
              <LongitudeDegrees>-1.6761313565075397491455078125</LongitudeDegrees>
            </Position>
            <AltitudeMeters>547.5999755859375</AltitudeMeters>
            <DistanceMeters>72241.028100158</DistanceMeters>
          </Trackpoint>
          <Trackpoint>
            <Time>2018-08-26T09:42:56.000Z</Time>
            <Position>
              <LatitudeDegrees>42.99072411842644214630126953125</LatitudeDegrees>
              <LongitudeDegrees>-1.676172427833080291748046875</LongitudeDegrees>
            </Position>
            <AltitudeMeters>547.5999755859375</AltitudeMeters>
            <DistanceMeters>72249.522234062</DistanceMeters>
          </Trackpoint>
          <Trackpoint>
            <Time>2018-08-26T09:42:57.000Z</Time>
            <Position>
              <LatitudeDegrees>42.99065303988754749298095703125</LatitudeDegrees>
              <LongitudeDegrees>-1.6762131638824939727783203125</LongitudeDegrees>
            </Position>
            <AltitudeMeters>547.5999755859375</AltitudeMeters>
            <DistanceMeters>72258.100994055</DistanceMeters>
          </Trackpoint>
          <Trackpoint>
            <Time>2018-08-26T09:42:58.000Z</Time>
            <Position>
              <LatitudeDegrees>42.99058221280574798583984375</LatitudeDegrees>
              <LongitudeDegrees>-1.67625297792255878448486328125</LongitudeDegrees>
            </Position>
            <AltitudeMeters>547.5999755859375</AltitudeMeters>
            <DistanceMeters>72266.624842662</DistanceMeters>
          </Trackpoint>
          <Trackpoint>
            <Time>2018-08-26T09:42:59.000Z</Time>
            <Position>
              <LatitudeDegrees>42.99051172100007534027099609375</LatitudeDegrees>
              <LongitudeDegrees>-1.6762916184961795806884765625</LongitudeDegrees>
            </Position>
            <AltitudeMeters>547.5999755859375</AltitudeMeters>
            <DistanceMeters>72275.077948298</DistanceMeters>
          </Trackpoint>
          <Trackpoint>
            <Time>2018-08-26T09:43:00.000Z</Time>
            <Position>
              <LatitudeDegrees>42.99044114537537097930908203125</LatitudeDegrees>
              <LongitudeDegrees>-1.676330007612705230712890625</LongitudeDegrees>
            </Position>
            <AltitudeMeters>547.4000244140625</AltitudeMeters>
            <DistanceMeters>72283.531588046</DistanceMeters>
          </Trackpoint>
          <Trackpoint>
            <Time>2018-08-26T09:43:01.000Z</Time>
            <Position>
              <LatitudeDegrees>42.9903704859316349029541015625</LatitudeDegrees>
              <LongitudeDegrees>-1.6763694025576114654541015625</LongitudeDegrees>
            </Position>
            <AltitudeMeters>547.4000244140625</AltitudeMeters>
            <DistanceMeters>72292.025190386</DistanceMeters>
          </Trackpoint>
          <Trackpoint>
            <Time>2018-08-26T09:43:02.000Z</Time>
            <Position>
              <LatitudeDegrees>42.99029982648789882659912109375</LatitudeDegrees>
              <LongitudeDegrees>-1.6764093004167079925537109375</LongitudeDegrees>
            </Position>
            <AltitudeMeters>547.20001220703125</AltitudeMeters>
            <DistanceMeters>72300.534725214</DistanceMeters>
          </Trackpoint>
          <Trackpoint>
            <Time>2018-08-26T09:43:03.000Z</Time>
            <Position>
              <LatitudeDegrees>42.99022941850125789642333984375</LatitudeDegrees>
              <LongitudeDegrees>-1.67644961737096309661865234375</LongitudeDegrees>
            </Position>
            <AltitudeMeters>547.20001220703125</AltitudeMeters>
            <DistanceMeters>72309.030985044</DistanceMeters>
          </Trackpoint>
          <Trackpoint>
            <Time>2018-08-26T09:43:04.000Z</Time>
            <Position>
              <LatitudeDegrees>42.99015867523849010467529296875</LatitudeDegrees>
              <LongitudeDegrees>-1.676489599049091339111328125</LongitudeDegrees>
            </Position>
            <AltitudeMeters>547</AltitudeMeters>
            <DistanceMeters>72317.550595039</DistanceMeters>
          </Trackpoint>
          <Trackpoint>
            <Time>2018-08-26T09:43:05.000Z</Time>
            <Position>
              <LatitudeDegrees>42.99008726142346858978271484375</LatitudeDegrees>
              <LongitudeDegrees>-1.6765293292701244354248046875</LongitudeDegrees>
            </Position>
            <AltitudeMeters>547</AltitudeMeters>
            <DistanceMeters>72326.131459991</DistanceMeters>
          </Trackpoint>
          <Trackpoint>
            <Time>2018-08-26T09:43:06.000Z</Time>
            <Position>
              <LatitudeDegrees>42.990015260875225067138671875</LatitudeDegrees>
              <LongitudeDegrees>-1.67656981386244297027587890625</LongitudeDegrees>
            </Position>
            <AltitudeMeters>546.79998779296875</AltitudeMeters>
            <DistanceMeters>72334.797146098</DistanceMeters>
          </Trackpoint>
          <Trackpoint>
            <Time>2018-08-26T09:43:07.000Z</Time>
            <Position>
              <LatitudeDegrees>42.98994225449860095977783203125</LatitudeDegrees>
              <LongitudeDegrees>-1.67661054991185665130615234375</LongitudeDegrees>
            </Position>
            <AltitudeMeters>546.5999755859375</AltitudeMeters>
            <DistanceMeters>72343.573623299</DistanceMeters>
          </Trackpoint>
          <Trackpoint>
            <Time>2018-08-26T09:43:08.000Z</Time>
            <Position>
              <LatitudeDegrees>42.9898685775697231292724609375</LatitudeDegrees>
              <LongitudeDegrees>-1.67665086686611175537109375</LongitudeDegrees>
            </Position>
            <AltitudeMeters>546.5999755859375</AltitudeMeters>
            <DistanceMeters>72352.406508472</DistanceMeters>
          </Trackpoint>
          <Trackpoint>
            <Time>2018-08-26T09:43:09.000Z</Time>
            <Position>
              <LatitudeDegrees>42.9897948168218135833740234375</LatitudeDegrees>
              <LongitudeDegrees>-1.6766912676393985748291015625</LongitudeDegrees>
            </Position>
            <AltitudeMeters>546.5999755859375</AltitudeMeters>
            <DistanceMeters>72361.250632067</DistanceMeters>
          </Trackpoint>
          <Trackpoint>
            <Time>2018-08-26T09:43:10.000Z</Time>
            <Position>
              <LatitudeDegrees>42.98972147516906261444091796875</LatitudeDegrees>
              <LongitudeDegrees>-1.67673108167946338653564453125</LongitudeDegrees>
            </Position>
            <AltitudeMeters>546.4000244140625</AltitudeMeters>
            <DistanceMeters>72370.034308582</DistanceMeters>
          </Trackpoint>
          <Trackpoint>
            <Time>2018-08-26T09:43:11.000Z</Time>
            <Position>
              <LatitudeDegrees>42.9896481335163116455078125</LatitudeDegrees>
              <LongitudeDegrees>-1.6767713986337184906005859375</LongitudeDegrees>
            </Position>
            <AltitudeMeters>546.4000244140625</AltitudeMeters>
            <DistanceMeters>72378.832879225</DistanceMeters>
          </Trackpoint>
          <Trackpoint>
            <Time>2018-08-26T09:43:12.000Z</Time>
            <Position>
              <LatitudeDegrees>42.9895752109587192535400390625</LatitudeDegrees>
              <LongitudeDegrees>-1.6768116317689418792724609375</LongitudeDegrees>
            </Position>
            <AltitudeMeters>546.4000244140625</AltitudeMeters>
            <DistanceMeters>72387.585659843</DistanceMeters>
          </Trackpoint>
          <Trackpoint>
            <Time>2018-08-26T09:43:13.000Z</Time>
            <Position>
              <LatitudeDegrees>42.98950287513434886932373046875</LatitudeDegrees>
              <LongitudeDegrees>-1.67685127817094326019287109375</LongitudeDegrees>
            </Position>
            <AltitudeMeters>546.4000244140625</AltitudeMeters>
            <DistanceMeters>72396.260198852</DistanceMeters>
          </Trackpoint>
          <Trackpoint>
            <Time>2018-08-26T09:43:14.000Z</Time>
            <Position>
              <LatitudeDegrees>42.98943112604320049285888671875</LatitudeDegrees>
              <LongitudeDegrees>-1.6768910922110080718994140625</LongitudeDegrees>
            </Position>
            <AltitudeMeters>546.4000244140625</AltitudeMeters>
            <DistanceMeters>72404.878865154</DistanceMeters>
          </Trackpoint>
          <Trackpoint>
            <Time>2018-08-26T09:43:15.000Z</Time>
            <Position>
              <LatitudeDegrees>42.9893596284091472625732421875</LatitudeDegrees>
              <LongitudeDegrees>-1.67693090625107288360595703125</LongitudeDegrees>
            </Position>
            <AltitudeMeters>546.20001220703125</AltitudeMeters>
            <DistanceMeters>72413.471823613</DistanceMeters>
          </Trackpoint>
          <Trackpoint>
            <Time>2018-08-26T09:43:16.000Z</Time>
            <Position>
              <LatitudeDegrees>42.98928896896541118621826171875</LatitudeDegrees>
              <LongitudeDegrees>-1.6769702173769474029541015625</LongitudeDegrees>
            </Position>
            <AltitudeMeters>546.20001220703125</AltitudeMeters>
            <DistanceMeters>72421.962767632</DistanceMeters>
          </Trackpoint>
          <Trackpoint>
            <Time>2018-08-26T09:43:17.000Z</Time>
            <Position>
              <LatitudeDegrees>42.98921923153102397918701171875</LatitudeDegrees>
              <LongitudeDegrees>-1.67700919322669506072998046875</LongitudeDegrees>
            </Position>
            <AltitudeMeters>546.20001220703125</AltitudeMeters>
            <DistanceMeters>72430.348303111</DistanceMeters>
          </Trackpoint>
          <Trackpoint>
            <Time>2018-08-26T09:43:18.000Z</Time>
            <Position>
              <LatitudeDegrees>42.98915016464889049530029296875</LatitudeDegrees>
              <LongitudeDegrees>-1.67704758234322071075439453125</LongitudeDegrees>
            </Position>
            <AltitudeMeters>546.20001220703125</AltitudeMeters>
            <DistanceMeters>72438.646698315</DistanceMeters>
          </Trackpoint>
          <Trackpoint>
            <Time>2018-08-26T09:43:19.000Z</Time>
            <Position>
              <LatitudeDegrees>42.98908260650932788848876953125</LatitudeDegrees>
              <LongitudeDegrees>-1.67708563618361949920654296875</LongitudeDegrees>
            </Position>
            <AltitudeMeters>546.20001220703125</AltitudeMeters>
            <DistanceMeters>72446.779119841</DistanceMeters>
          </Trackpoint>
          <Trackpoint>
            <Time>2018-08-26T09:43:20.000Z</Time>
            <Position>
              <LatitudeDegrees>42.98901706002652645111083984375</LatitudeDegrees>
              <LongitudeDegrees>-1.67712335474789142608642578125</LongitudeDegrees>
            </Position>
            <AltitudeMeters>546.20001220703125</AltitudeMeters>
            <DistanceMeters>72454.694337486</DistanceMeters>
          </Trackpoint>
          <Trackpoint>
            <Time>2018-08-26T09:43:21.000Z</Time>
            <Position>
              <LatitudeDegrees>42.98895168118178844451904296875</LatitudeDegrees>
              <LongitudeDegrees>-1.6771598160266876220703125</LongitudeDegrees>
            </Position>
            <AltitudeMeters>546.20001220703125</AltitudeMeters>
            <DistanceMeters>72462.553454668</DistanceMeters>
          </Trackpoint>
          <Trackpoint>
            <Time>2018-08-26T09:43:22.000Z</Time>
            <Position>
              <LatitudeDegrees>42.98888613469898700714111328125</LatitudeDegrees>
              <LongitudeDegrees>-1.67719560675323009490966796875</LongitudeDegrees>
            </Position>
            <AltitudeMeters>546.20001220703125</AltitudeMeters>
            <DistanceMeters>72470.409124112</DistanceMeters>
          </Trackpoint>
          <Trackpoint>
            <Time>2018-08-26T09:43:23.000Z</Time>
            <Position>
              <LatitudeDegrees>42.98882209695875644683837890625</LatitudeDegrees>
              <LongitudeDegrees>-1.67723248712718486785888671875</LongitudeDegrees>
            </Position>
            <AltitudeMeters>546.20001220703125</AltitudeMeters>
            <DistanceMeters>72478.143154521</DistanceMeters>
          </Trackpoint>
          <Trackpoint>
            <Time>2018-08-26T09:43:24.000Z</Time>
            <Position>
              <LatitudeDegrees>42.98875805921852588653564453125</LatitudeDegrees>
              <LongitudeDegrees>-1.67726936750113964080810546875</LongitudeDegrees>
            </Position>
            <AltitudeMeters>546.4000244140625</AltitudeMeters>
            <DistanceMeters>72485.876601119</DistanceMeters>
          </Trackpoint>
          <Trackpoint>
            <Time>2018-08-26T09:43:25.000Z</Time>
            <Position>
              <LatitudeDegrees>42.9886937700212001800537109375</LatitudeDegrees>
              <LongitudeDegrees>-1.6773046553134918212890625</LongitudeDegrees>
            </Position>
            <AltitudeMeters>546.4000244140625</AltitudeMeters>
            <DistanceMeters>72493.587244627</DistanceMeters>
          </Trackpoint>
          <Trackpoint>
            <Time>2018-08-26T09:43:26.000Z</Time>
            <Position>
              <LatitudeDegrees>42.988630235195159912109375</LatitudeDegrees>
              <LongitudeDegrees>-1.67733860202133655548095703125</LongitudeDegrees>
            </Position>
            <AltitudeMeters>546.5999755859375</AltitudeMeters>
            <DistanceMeters>72501.179873158</DistanceMeters>
          </Trackpoint>
          <Trackpoint>
            <Time>2018-08-26T09:43:27.000Z</Time>
            <Position>
              <LatitudeDegrees>42.988567538559436798095703125</LatitudeDegrees>
              <LongitudeDegrees>-1.677372716367244720458984375</LongitudeDegrees>
            </Position>
            <AltitudeMeters>546.5999755859375</AltitudeMeters>
            <DistanceMeters>72508.691192458</DistanceMeters>
          </Trackpoint>
          <Trackpoint>
            <Time>2018-08-26T09:43:28.000Z</Time>
            <Position>
              <LatitudeDegrees>42.98850509338080883026123046875</LatitudeDegrees>
              <LongitudeDegrees>-1.67740733362734317779541015625</LongitudeDegrees>
            </Position>
            <AltitudeMeters>547</AltitudeMeters>
            <DistanceMeters>72516.191684192</DistanceMeters>
          </Trackpoint>
          <Trackpoint>
            <Time>2018-08-26T09:43:29.000Z</Time>
            <Position>
              <LatitudeDegrees>42.98844139091670513153076171875</LatitudeDegrees>
              <LongitudeDegrees>-1.67744153179228305816650390625</LongitudeDegrees>
            </Position>
            <AltitudeMeters>547.20001220703125</AltitudeMeters>
            <DistanceMeters>72523.809247531</DistanceMeters>
          </Trackpoint>
          <Trackpoint>
            <Time>2018-08-26T09:43:30.000Z</Time>
            <Position>
              <LatitudeDegrees>42.98837835900485515594482421875</LatitudeDegrees>
              <LongitudeDegrees>-1.67747522704303264617919921875</LongitudeDegrees>
            </Position>
            <AltitudeMeters>547.4000244140625</AltitudeMeters>
            <DistanceMeters>72531.342175274</DistanceMeters>
          </Trackpoint>
          <Trackpoint>
            <Time>2018-08-26T09:43:31.000Z</Time>
            <Position>
              <LatitudeDegrees>42.98831616528332233428955078125</LatitudeDegrees>
              <LongitudeDegrees>-1.6775096766650676727294921875</LongitudeDegrees>
            </Position>
            <AltitudeMeters>547.5999755859375</AltitudeMeters>
            <DistanceMeters>72538.811299203</DistanceMeters>
          </Trackpoint>
          <Trackpoint>
            <Time>2018-08-26T09:43:32.000Z</Time>
            <Position>
              <LatitudeDegrees>42.98825447447597980499267578125</LatitudeDegrees>
              <LongitudeDegrees>-1.67754513211548328399658203125</LongitudeDegrees>
            </Position>
            <AltitudeMeters>547.5999755859375</AltitudeMeters>
            <DistanceMeters>72546.260448131</DistanceMeters>
          </Trackpoint>
          <Trackpoint>
            <Time>2018-08-26T09:43:33.000Z</Time>
            <Position>
              <LatitudeDegrees>42.9881932027637958526611328125</LatitudeDegrees>
              <LongitudeDegrees>-1.6775820963084697723388671875</LongitudeDegrees>
            </Position>
            <AltitudeMeters>547.79998779296875</AltitudeMeters>
            <DistanceMeters>72553.715050094</DistanceMeters>
          </Trackpoint>
          <Trackpoint>
            <Time>2018-08-26T09:43:34.000Z</Time>
            <Position>
              <LatitudeDegrees>42.98813360743224620819091796875</LatitudeDegrees>
              <LongitudeDegrees>-1.677617132663726806640625</LongitudeDegrees>
            </Position>
            <AltitudeMeters>548</AltitudeMeters>
            <DistanceMeters>72560.935204616</DistanceMeters>
          </Trackpoint>
          <Trackpoint>
            <Time>2018-08-26T09:43:35.000Z</Time>
            <Position>
              <LatitudeDegrees>42.98807434737682342529296875</LatitudeDegrees>
              <LongitudeDegrees>-1.6776506602764129638671875</LongitudeDegrees>
            </Position>
            <AltitudeMeters>548.20001220703125</AltitudeMeters>
            <DistanceMeters>72568.072969763</DistanceMeters>
          </Trackpoint>
          <Trackpoint>
            <Time>2018-08-26T09:43:36.000Z</Time>
            <Position>
              <LatitudeDegrees>42.98801575787365436553955078125</LatitudeDegrees>
              <LongitudeDegrees>-1.67768561281263828277587890625</LongitudeDegrees>
            </Position>
            <AltitudeMeters>548.4000244140625</AltitudeMeters>
            <DistanceMeters>72575.187926442</DistanceMeters>
          </Trackpoint>
          <Trackpoint>
            <Time>2018-08-26T09:43:37.000Z</Time>
            <Position>
              <LatitudeDegrees>42.98795674927532672882080078125</LatitudeDegrees>
              <LongitudeDegrees>-1.67772240936756134033203125</LongitudeDegrees>
            </Position>
            <AltitudeMeters>548.5999755859375</AltitudeMeters>
            <DistanceMeters>72582.406830178</DistanceMeters>
          </Trackpoint>
          <Trackpoint>
            <Time>2018-08-26T09:43:38.000Z</Time>
            <Position>
              <LatitudeDegrees>42.98789807595312595367431640625</LatitudeDegrees>
              <LongitudeDegrees>-1.677757613360881805419921875</LongitudeDegrees>
            </Position>
            <AltitudeMeters>548.79998779296875</AltitudeMeters>
            <DistanceMeters>72589.53953308</DistanceMeters>
          </Trackpoint>
          <Trackpoint>
            <Time>2018-08-26T09:43:39.000Z</Time>
            <Position>
              <LatitudeDegrees>42.987839989364147186279296875</LatitudeDegrees>
              <LongitudeDegrees>-1.67779088951647281646728515625</LongitudeDegrees>
            </Position>
            <AltitudeMeters>549</AltitudeMeters>
            <DistanceMeters>72596.549645491</DistanceMeters>
          </Trackpoint>
          <Trackpoint>
            <Time>2018-08-26T09:43:40.000Z</Time>
            <Position>
              <LatitudeDegrees>42.98778290860354900360107421875</LatitudeDegrees>
              <LongitudeDegrees>-1.6778221540153026580810546875</LongitudeDegrees>
            </Position>
            <AltitudeMeters>549</AltitudeMeters>
            <DistanceMeters>72603.394208047</DistanceMeters>
          </Trackpoint>
          <Trackpoint>
            <Time>2018-08-26T09:43:41.000Z</Time>
            <Position>
              <LatitudeDegrees>42.98772641457617282867431640625</LatitudeDegrees>
              <LongitudeDegrees>-1.67785249650478363037109375</LongitudeDegrees>
            </Position>
            <AltitudeMeters>549.20001220703125</AltitudeMeters>
            <DistanceMeters>72610.149798795</DistanceMeters>
          </Trackpoint>
          <Trackpoint>
            <Time>2018-08-26T09:43:42.000Z</Time>
            <Position>
              <LatitudeDegrees>42.9876708425581455230712890625</LatitudeDegrees>
              <LongitudeDegrees>-1.67788560502231121063232421875</LongitudeDegrees>
            </Position>
            <AltitudeMeters>549.4000244140625</AltitudeMeters>
            <DistanceMeters>72616.896695515</DistanceMeters>
          </Trackpoint>
          <Trackpoint>
            <Time>2018-08-26T09:43:43.000Z</Time>
            <Position>
              <LatitudeDegrees>42.98761568963527679443359375</LatitudeDegrees>
              <LongitudeDegrees>-1.67792231775820255279541015625</LongitudeDegrees>
            </Position>
            <AltitudeMeters>549.4000244140625</AltitudeMeters>
            <DistanceMeters>72623.724085544</DistanceMeters>
          </Trackpoint>
          <Trackpoint>
            <Time>2018-08-26T09:43:44.000Z</Time>
            <Position>
              <LatitudeDegrees>42.9875605367124080657958984375</LatitudeDegrees>
              <LongitudeDegrees>-1.6779606230556964874267578125</LongitudeDegrees>
            </Position>
            <AltitudeMeters>549.5999755859375</AltitudeMeters>
            <DistanceMeters>72630.609425138</DistanceMeters>
          </Trackpoint>
          <Trackpoint>
            <Time>2018-08-26T09:43:45.000Z</Time>
            <Position>
              <LatitudeDegrees>42.98750597052276134490966796875</LatitudeDegrees>
              <LongitudeDegrees>-1.67799993418157100677490234375</LongitudeDegrees>
            </Position>
            <AltitudeMeters>550</AltitudeMeters>
            <DistanceMeters>72637.47506415</DistanceMeters>
          </Trackpoint>
          <Trackpoint>
            <Time>2018-08-26T09:43:46.000Z</Time>
            <Position>
              <LatitudeDegrees>42.98745132051408290863037109375</LatitudeDegrees>
              <LongitudeDegrees>-1.678041927516460418701171875</LongitudeDegrees>
            </Position>
            <AltitudeMeters>550.20001220703125</AltitudeMeters>
            <DistanceMeters>72644.452898498</DistanceMeters>
          </Trackpoint>
          <Trackpoint>
            <Time>2018-08-26T09:43:47.000Z</Time>
            <Position>
              <LatitudeDegrees>42.98739633522927761077880859375</LatitudeDegrees>
              <LongitudeDegrees>-1.6780850104987621307373046875</LongitudeDegrees>
            </Position>
            <AltitudeMeters>550.4000244140625</AltitudeMeters>
            <DistanceMeters>72651.506672041</DistanceMeters>
          </Trackpoint>
          <Trackpoint>
            <Time>2018-08-26T09:43:48.000Z</Time>
            <Position>
              <LatitudeDegrees>42.987342439591884613037109375</LatitudeDegrees>
              <LongitudeDegrees>-1.67812683619558811187744140625</LongitudeDegrees>
            </Position>
            <AltitudeMeters>550.79998779296875</AltitudeMeters>
            <DistanceMeters>72658.405114102</DistanceMeters>
          </Trackpoint>
          <Trackpoint>
            <Time>2018-08-26T09:43:49.000Z</Time>
            <Position>
              <LatitudeDegrees>42.987288124859333038330078125</LatitudeDegrees>
              <LongitudeDegrees>-1.6781671531498432159423828125</LongitudeDegrees>
            </Position>
            <AltitudeMeters>551</AltitudeMeters>
            <DistanceMeters>72665.283893104</DistanceMeters>
          </Trackpoint>
          <Trackpoint>
            <Time>2018-08-26T09:43:50.000Z</Time>
            <Position>
              <LatitudeDegrees>42.98723406158387660980224609375</LatitudeDegrees>
              <LongitudeDegrees>-1.67820763774216175079345703125</LongitudeDegrees>
            </Position>
            <AltitudeMeters>551.20001220703125</AltitudeMeters>
            <DistanceMeters>72672.145585212</DistanceMeters>
          </Trackpoint>
          <Trackpoint>
            <Time>2018-08-26T09:43:51.000Z</Time>
            <Position>
              <LatitudeDegrees>42.9871796630322933197021484375</LatitudeDegrees>
              <LongitudeDegrees>-1.67824921198189258575439453125</LongitudeDegrees>
            </Position>
            <AltitudeMeters>551.5999755859375</AltitudeMeters>
            <DistanceMeters>72679.082535361</DistanceMeters>
          </Trackpoint>
          <Trackpoint>
            <Time>2018-08-26T09:43:52.000Z</Time>
            <Position>
              <LatitudeDegrees>42.987124510109424591064453125</LatitudeDegrees>
              <LongitudeDegrees>-1.67828944511711597442626953125</LongitudeDegrees>
            </Position>
            <AltitudeMeters>551.79998779296875</AltitudeMeters>
            <DistanceMeters>72686.040282109</DistanceMeters>
          </Trackpoint>
          <Trackpoint>
            <Time>2018-08-26T09:43:53.000Z</Time>
            <Position>
              <LatitudeDegrees>42.9870680160820484161376953125</LatitudeDegrees>
              <LongitudeDegrees>-1.6783274151384830474853515625</LongitudeDegrees>
            </Position>
            <AltitudeMeters>552.20001220703125</AltitudeMeters>
            <DistanceMeters>72693.046529004</DistanceMeters>
          </Trackpoint>
          <Trackpoint>
            <Time>2018-08-26T09:43:54.000Z</Time>
            <Position>
              <LatitudeDegrees>42.987009175121784210205078125</LatitudeDegrees>
              <LongitudeDegrees>-1.6783614456653594970703125</LongitudeDegrees>
            </Position>
            <AltitudeMeters>552.5999755859375</AltitudeMeters>
            <DistanceMeters>72700.157677159</DistanceMeters>
          </Trackpoint>
          <Trackpoint>
            <Time>2018-08-26T09:43:55.000Z</Time>
            <Position>
              <LatitudeDegrees>42.9869479872286319732666015625</LatitudeDegrees>
              <LongitudeDegrees>-1.67839103378355503082275390625</LongitudeDegrees>
            </Position>
            <AltitudeMeters>552.79998779296875</AltitudeMeters>
            <DistanceMeters>72707.380957695</DistanceMeters>
          </Trackpoint>
          <Trackpoint>
            <Time>2018-08-26T09:43:56.000Z</Time>
            <Position>
              <LatitudeDegrees>42.9868842847645282745361328125</LatitudeDegrees>
              <LongitudeDegrees>-1.67841668240725994110107421875</LongitudeDegrees>
            </Position>
            <AltitudeMeters>553</AltitudeMeters>
            <DistanceMeters>72714.772301448</DistanceMeters>
          </Trackpoint>
          <Trackpoint>
            <Time>2018-08-26T09:43:57.000Z</Time>
            <Position>
              <LatitudeDegrees>42.986819744110107421875</LatitudeDegrees>
              <LongitudeDegrees>-1.67843881063163280487060546875</LongitudeDegrees>
            </Position>
            <AltitudeMeters>553.4000244140625</AltitudeMeters>
            <DistanceMeters>72722.178291208</DistanceMeters>
          </Trackpoint>
          <Trackpoint>
            <Time>2018-08-26T09:43:58.000Z</Time>
            <Position>
              <LatitudeDegrees>42.9867545329034328460693359375</LatitudeDegrees>
              <LongitudeDegrees>-1.67846001684665679931640625</LongitudeDegrees>
            </Position>
            <AltitudeMeters>553.4000244140625</AltitudeMeters>
            <DistanceMeters>72729.638947426</DistanceMeters>
          </Trackpoint>
          <Trackpoint>
            <Time>2018-08-26T09:43:59.000Z</Time>
            <Position>
              <LatitudeDegrees>42.98668823204934597015380859375</LatitudeDegrees>
              <LongitudeDegrees>-1.67848256416618824005126953125</LongitudeDegrees>
            </Position>
            <AltitudeMeters>553.4000244140625</AltitudeMeters>
            <DistanceMeters>72737.243459872</DistanceMeters>
          </Trackpoint>
          <Trackpoint>
            <Time>2018-08-26T09:44:00.000Z</Time>
            <Position>
              <LatitudeDegrees>42.98662318848073482513427734375</LatitudeDegrees>
              <LongitudeDegrees>-1.67850351892411708831787109375</LongitudeDegrees>
            </Position>
            <AltitudeMeters>553.5999755859375</AltitudeMeters>
            <DistanceMeters>72744.681083706</DistanceMeters>
          </Trackpoint>
          <Trackpoint>
            <Time>2018-08-26T09:44:01.000Z</Time>
            <Position>
              <LatitudeDegrees>42.98655630089342594146728515625</LatitudeDegrees>
              <LongitudeDegrees>-1.678521372377872467041015625</LongitudeDegrees>
            </Position>
            <AltitudeMeters>553.5999755859375</AltitudeMeters>
            <DistanceMeters>72752.265977708</DistanceMeters>
          </Trackpoint>
          <Trackpoint>
            <Time>2018-08-26T09:44:02.000Z</Time>
            <Position>
              <LatitudeDegrees>42.9864859767258167266845703125</LatitudeDegrees>
              <LongitudeDegrees>-1.6785342805087566375732421875</LongitudeDegrees>
            </Position>
            <AltitudeMeters>553.5999755859375</AltitudeMeters>
            <DistanceMeters>72760.164064064</DistanceMeters>
          </Trackpoint>
          <Trackpoint>
            <Time>2018-08-26T09:44:03.000Z</Time>
            <Position>
              <LatitudeDegrees>42.98641649074852466583251953125</LatitudeDegrees>
              <LongitudeDegrees>-1.6785433329641819000244140625</LongitudeDegrees>
            </Position>
            <AltitudeMeters>553.5999755859375</AltitudeMeters>
            <DistanceMeters>72767.933042822</DistanceMeters>
          </Trackpoint>
          <Trackpoint>
            <Time>2018-08-26T09:44:04.000Z</Time>
            <Position>
              <LatitudeDegrees>42.98634759150445461273193359375</LatitudeDegrees>
              <LongitudeDegrees>-1.678545512259006500244140625</LongitudeDegrees>
            </Position>
            <AltitudeMeters>553.5999755859375</AltitudeMeters>
            <DistanceMeters>72775.60376496</DistanceMeters>
          </Trackpoint>
          <Trackpoint>
            <Time>2018-08-26T09:44:05.000Z</Time>
            <Position>
              <LatitudeDegrees>42.9862794466316699981689453125</LatitudeDegrees>
              <LongitudeDegrees>-1.678544841706752777099609375</LongitudeDegrees>
            </Position>
            <AltitudeMeters>553.5999755859375</AltitudeMeters>
            <DistanceMeters>72783.188658962</DistanceMeters>
          </Trackpoint>
          <Trackpoint>
            <Time>2018-08-26T09:44:06.000Z</Time>
            <Position>
              <LatitudeDegrees>42.98621180467307567596435546875</LatitudeDegrees>
              <LongitudeDegrees>-1.67853402905166149139404296875</LongitudeDegrees>
            </Position>
            <AltitudeMeters>553.79998779296875</AltitudeMeters>
            <DistanceMeters>72790.768789331</DistanceMeters>
          </Trackpoint>
          <Trackpoint>
            <Time>2018-08-26T09:44:07.000Z</Time>
            <Position>
              <LatitudeDegrees>42.98614558763802051544189453125</LatitudeDegrees>
              <LongitudeDegrees>-1.67850972153246402740478515625</LongitudeDegrees>
            </Position>
            <AltitudeMeters>553.79998779296875</AltitudeMeters>
            <DistanceMeters>72798.399972921</DistanceMeters>
          </Trackpoint>
          <Trackpoint>
            <Time>2018-08-26T09:44:08.000Z</Time>
            <Position>
              <LatitudeDegrees>42.9860819689929485321044921875</LatitudeDegrees>
              <LongitudeDegrees>-1.678473763167858123779296875</LongitudeDegrees>
            </Position>
            <AltitudeMeters>553.79998779296875</AltitudeMeters>
            <DistanceMeters>72806.061271563</DistanceMeters>
          </Trackpoint>
          <Trackpoint>
            <Time>2018-08-26T09:44:09.000Z</Time>
            <Position>
              <LatitudeDegrees>42.98602036200463771820068359375</LatitudeDegrees>
              <LongitudeDegrees>-1.67843009345233440399169921875</LongitudeDegrees>
            </Position>
            <AltitudeMeters>553.79998779296875</AltitudeMeters>
            <DistanceMeters>72813.78478663</DistanceMeters>
          </Trackpoint>
          <Trackpoint>
            <Time>2018-08-26T09:44:10.000Z</Time>
            <Position>
              <LatitudeDegrees>42.985959760844707489013671875</LatitudeDegrees>
              <LongitudeDegrees>-1.6783834062516689300537109375</LongitudeDegrees>
            </Position>
            <AltitudeMeters>554</AltitudeMeters>
            <DistanceMeters>72821.527568915</DistanceMeters>
          </Trackpoint>
          <Trackpoint>
            <Time>2018-08-26T09:44:11.000Z</Time>
            <Position>
              <LatitudeDegrees>42.98589932732284069061279296875</LatitudeDegrees>
              <LongitudeDegrees>-1.67833537794649600982666015625</LongitudeDegrees>
            </Position>
            <AltitudeMeters>554</AltitudeMeters>
            <DistanceMeters>72829.308742513</DistanceMeters>
          </Trackpoint>
          <Trackpoint>
            <Time>2018-08-26T09:44:12.000Z</Time>
            <Position>
              <LatitudeDegrees>42.98583847470581531524658203125</LatitudeDegrees>
              <LongitudeDegrees>-1.67828542180359363555908203125</LongitudeDegrees>
            </Position>
            <AltitudeMeters>554</AltitudeMeters>
            <DistanceMeters>72837.209686663</DistanceMeters>
          </Trackpoint>
          <Trackpoint>
            <Time>2018-08-26T09:44:13.000Z</Time>
            <Position>
              <LatitudeDegrees>42.98577611334621906280517578125</LatitudeDegrees>
              <LongitudeDegrees>-1.67823739349842071533203125</LongitudeDegrees>
            </Position>
            <AltitudeMeters>554</AltitudeMeters>
            <DistanceMeters>72845.176643881</DistanceMeters>
          </Trackpoint>
          <Trackpoint>
            <Time>2018-08-26T09:44:14.000Z</Time>
            <Position>
              <LatitudeDegrees>42.9857106506824493408203125</LatitudeDegrees>
              <LongitudeDegrees>-1.67819741182029247283935546875</LongitudeDegrees>
            </Position>
            <AltitudeMeters>554</AltitudeMeters>
            <DistanceMeters>72853.157190802</DistanceMeters>
          </Trackpoint>
          <Trackpoint>
            <Time>2018-08-26T09:44:15.000Z</Time>
            <Position>
              <LatitudeDegrees>42.9856434278190135955810546875</LatitudeDegrees>
              <LongitudeDegrees>-1.67816103436052799224853515625</LongitudeDegrees>
            </Position>
            <AltitudeMeters>554.20001220703125</AltitudeMeters>
            <DistanceMeters>72861.203658854</DistanceMeters>
          </Trackpoint>
          <Trackpoint>
            <Time>2018-08-26T09:44:16.000Z</Time>
            <Position>
              <LatitudeDegrees>42.98557561822235584259033203125</LatitudeDegrees>
              <LongitudeDegrees>-1.67813421227037906646728515625</LongitudeDegrees>
            </Position>
            <AltitudeMeters>554.20001220703125</AltitudeMeters>
            <DistanceMeters>72869.060477712</DistanceMeters>
          </Trackpoint>
          <Trackpoint>
            <Time>2018-08-26T09:44:17.000Z</Time>
            <Position>
              <LatitudeDegrees>42.98550873063504695892333984375</LatitudeDegrees>
              <LongitudeDegrees>-1.6781208850443363189697265625</LongitudeDegrees>
            </Position>
            <AltitudeMeters>554.20001220703125</AltitudeMeters>
            <DistanceMeters>72876.583809364</DistanceMeters>
          </Trackpoint>
          <Trackpoint>
            <Time>2018-08-26T09:44:18.000Z</Time>
            <Position>
              <LatitudeDegrees>42.98544268123805522918701171875</LatitudeDegrees>
              <LongitudeDegrees>-1.67811543680727481842041015625</LongitudeDegrees>
            </Position>
            <AltitudeMeters>554.20001220703125</AltitudeMeters>
            <DistanceMeters>72883.948226457</DistanceMeters>
          </Trackpoint>
          <Trackpoint>
            <Time>2018-08-26T09:44:19.000Z</Time>
            <Position>
              <LatitudeDegrees>42.985377721488475799560546875</LatitudeDegrees>
              <LongitudeDegrees>-1.67811526916921138763427734375</LongitudeDegrees>
            </Position>
            <AltitudeMeters>554.20001220703125</AltitudeMeters>
            <DistanceMeters>72891.177754966</DistanceMeters>
          </Trackpoint>
          <Trackpoint>
            <Time>2018-08-26T09:44:20.000Z</Time>
            <Position>
              <LatitudeDegrees>42.98531494103372097015380859375</LatitudeDegrees>
              <LongitudeDegrees>-1.67811828665435314178466796875</LongitudeDegrees>
            </Position>
            <AltitudeMeters>554.4000244140625</AltitudeMeters>
            <DistanceMeters>72898.169164251</DistanceMeters>
          </Trackpoint>
          <Trackpoint>
            <Time>2018-08-26T09:44:21.000Z</Time>
            <Position>
              <LatitudeDegrees>42.98525425605475902557373046875</LatitudeDegrees>
              <LongitudeDegrees>-1.67812499217689037322998046875</LongitudeDegrees>
            </Position>
            <AltitudeMeters>554.4000244140625</AltitudeMeters>
            <DistanceMeters>72904.945441896</DistanceMeters>
          </Trackpoint>
          <Trackpoint>
            <Time>2018-08-26T09:44:22.000Z</Time>
            <Position>
              <LatitudeDegrees>42.985193990170955657958984375</LatitudeDegrees>
              <LongitudeDegrees>-1.6781334578990936279296875</LongitudeDegrees>
            </Position>
            <AltitudeMeters>554.4000244140625</AltitudeMeters>
            <DistanceMeters>72911.687652573</DistanceMeters>
          </Trackpoint>
          <Trackpoint>
            <Time>2018-08-26T09:44:23.000Z</Time>
            <Position>
              <LatitudeDegrees>42.98513221554458141326904296875</LatitudeDegrees>
              <LongitudeDegrees>-1.678143851459026336669921875</LongitudeDegrees>
            </Position>
            <AltitudeMeters>554.5999755859375</AltitudeMeters>
            <DistanceMeters>72918.614832824</DistanceMeters>
          </Trackpoint>
          <Trackpoint>
            <Time>2018-08-26T09:44:24.000Z</Time>
            <Position>
              <LatitudeDegrees>42.98506784252822399139404296875</LatitudeDegrees>
              <LongitudeDegrees>-1.678159944713115692138671875</LongitudeDegrees>
            </Position>
            <AltitudeMeters>555</AltitudeMeters>
            <DistanceMeters>72925.898492557</DistanceMeters>
          </Trackpoint>
          <Trackpoint>
            <Time>2018-08-26T09:44:25.000Z</Time>
            <Position>
              <LatitudeDegrees>42.98500481061637401580810546875</LatitudeDegrees>
              <LongitudeDegrees>-1.6781768761575222015380859375</LongitudeDegrees>
            </Position>
            <AltitudeMeters>555.4000244140625</AltitudeMeters>
            <DistanceMeters>72933.048897638</DistanceMeters>
          </Trackpoint>
          <Trackpoint>
            <Time>2018-08-26T09:44:26.000Z</Time>
            <Position>
              <LatitudeDegrees>42.98494295217096805572509765625</LatitudeDegrees>
              <LongitudeDegrees>-1.6781892813742160797119140625</LongitudeDegrees>
            </Position>
            <AltitudeMeters>555.79998779296875</AltitudeMeters>
            <DistanceMeters>72940.007293279</DistanceMeters>
          </Trackpoint>
          <Trackpoint>
            <Time>2018-08-26T09:44:27.000Z</Time>
            <Position>
              <LatitudeDegrees>42.984882853925228118896484375</LatitudeDegrees>
              <LongitudeDegrees>-1.6781973280012607574462890625</LongitudeDegrees>
            </Position>
            <AltitudeMeters>556</AltitudeMeters>
            <DistanceMeters>72946.728040438</DistanceMeters>
          </Trackpoint>
          <Trackpoint>
            <Time>2018-08-26T09:44:28.000Z</Time>
            <Position>
              <LatitudeDegrees>42.98482292331755161285400390625</LatitudeDegrees>
              <LongitudeDegrees>-1.67820596136152744293212890625</LongitudeDegrees>
            </Position>
            <AltitudeMeters>556.4000244140625</AltitudeMeters>
            <DistanceMeters>72953.435338019</DistanceMeters>
          </Trackpoint>
          <Trackpoint>
            <Time>2018-08-26T09:44:29.000Z</Time>
            <Position>
              <LatitudeDegrees>42.98476475290954113006591796875</LatitudeDegrees>
              <LongitudeDegrees>-1.6782147623598575592041015625</LongitudeDegrees>
            </Position>
            <AltitudeMeters>556.79998779296875</AltitudeMeters>
            <DistanceMeters>72959.949348244</DistanceMeters>
          </Trackpoint>
          <Trackpoint>
            <Time>2018-08-26T09:44:30.000Z</Time>
            <Position>
              <LatitudeDegrees>42.9847053252160549163818359375</LatitudeDegrees>
              <LongitudeDegrees>-1.67822658084332942962646484375</LongitudeDegrees>
            </Position>
            <AltitudeMeters>557</AltitudeMeters>
            <DistanceMeters>72966.633719437</DistanceMeters>
          </Trackpoint>
          <Trackpoint>
            <Time>2018-08-26T09:44:31.000Z</Time>
            <Position>
              <LatitudeDegrees>42.98464673571288585662841796875</LatitudeDegrees>
              <LongitudeDegrees>-1.67824518866837024688720703125</LongitudeDegrees>
            </Position>
            <AltitudeMeters>557.20001220703125</AltitudeMeters>
            <DistanceMeters>72973.328889298</DistanceMeters>
          </Trackpoint>
          <Trackpoint>
            <Time>2018-08-26T09:44:32.000Z</Time>
            <Position>
              <LatitudeDegrees>42.9845893196761608123779296875</LatitudeDegrees>
              <LongitudeDegrees>-1.6782657243311405181884765625</LongitudeDegrees>
            </Position>
            <AltitudeMeters>557.4000244140625</AltitudeMeters>
            <DistanceMeters>72979.934442218</DistanceMeters>
          </Trackpoint>
          <Trackpoint>
            <Time>2018-08-26T09:44:33.000Z</Time>
            <Position>
              <LatitudeDegrees>42.984529472887516021728515625</LatitudeDegrees>
              <LongitudeDegrees>-1.6782855056226253509521484375</LongitudeDegrees>
            </Position>
            <AltitudeMeters>557.5999755859375</AltitudeMeters>
            <DistanceMeters>72986.786916042</DistanceMeters>
          </Trackpoint>
          <Trackpoint>
            <Time>2018-08-26T09:44:34.000Z</Time>
            <Position>
              <LatitudeDegrees>42.9844723083078861236572265625</LatitudeDegrees>
              <LongitudeDegrees>-1.67830201797187328338623046875</LongitudeDegrees>
            </Position>
            <AltitudeMeters>557.5999755859375</AltitudeMeters>
            <DistanceMeters>72993.290521047</DistanceMeters>
          </Trackpoint>
          <Trackpoint>
            <Time>2018-08-26T09:44:35.000Z</Time>
            <Position>
              <LatitudeDegrees>42.98441338352859020233154296875</LatitudeDegrees>
              <LongitudeDegrees>-1.6783213801681995391845703125</LongitudeDegrees>
            </Position>
            <AltitudeMeters>557.79998779296875</AltitudeMeters>
            <DistanceMeters>73000.035409862</DistanceMeters>
          </Trackpoint>
          <Trackpoint>
            <Time>2018-08-26T09:44:36.000Z</Time>
            <Position>
              <LatitudeDegrees>42.9843536205589771270751953125</LatitudeDegrees>
              <LongitudeDegrees>-1.67834929190576076507568359375</LongitudeDegrees>
            </Position>
            <AltitudeMeters>558.20001220703125</AltitudeMeters>
            <DistanceMeters>73007.064817966</DistanceMeters>
          </Trackpoint>
          <Trackpoint>
            <Time>2018-08-26T09:44:37.000Z</Time>
            <Position>
              <LatitudeDegrees>42.984294779598712921142578125</LatitudeDegrees>
              <LongitudeDegrees>-1.67838550172746181488037109375</LongitudeDegrees>
            </Position>
            <AltitudeMeters>558.4000244140625</AltitudeMeters>
            <DistanceMeters>73014.247354198</DistanceMeters>
          </Trackpoint>
          <Trackpoint>
            <Time>2018-08-26T09:44:38.000Z</Time>
            <Position>
              <LatitudeDegrees>42.9842376150190830230712890625</LatitudeDegrees>
              <LongitudeDegrees>-1.6784283332526683807373046875</LongitudeDegrees>
            </Position>
            <AltitudeMeters>558.79998779296875</AltitudeMeters>
            <DistanceMeters>73021.503065443</DistanceMeters>
          </Trackpoint>
          <Trackpoint>
            <Time>2018-08-26T09:44:39.000Z</Time>
            <Position>
              <LatitudeDegrees>42.98418019898235797882080078125</LatitudeDegrees>
              <LongitudeDegrees>-1.67847476899623870849609375</LongitudeDegrees>
            </Position>
            <AltitudeMeters>559</AltitudeMeters>
            <DistanceMeters>73028.927930202</DistanceMeters>
          </Trackpoint>
          <Trackpoint>
            <Time>2018-08-26T09:44:40.000Z</Time>
            <Position>
              <LatitudeDegrees>42.9841227829456329345703125</LatitudeDegrees>
              <LongitudeDegrees>-1.67852573096752166748046875</LongitudeDegrees>
            </Position>
            <AltitudeMeters>559.20001220703125</AltitudeMeters>
            <DistanceMeters>73036.54786403</DistanceMeters>
          </Trackpoint>
          <Trackpoint>
            <Time>2018-08-26T09:44:41.000Z</Time>
            <Position>
              <LatitudeDegrees>42.98406788147985935211181640625</LatitudeDegrees>
              <LongitudeDegrees>-1.6785802133381366729736328125</LongitudeDegrees>
            </Position>
            <AltitudeMeters>559.20001220703125</AltitudeMeters>
            <DistanceMeters>73044.098751571</DistanceMeters>
          </Trackpoint>
          <Trackpoint>
            <Time>2018-08-26T09:44:42.000Z</Time>
            <Position>
              <LatitudeDegrees>42.984014488756656646728515625</LatitudeDegrees>
              <LongitudeDegrees>-1.67863226495683193206787109375</LongitudeDegrees>
            </Position>
            <AltitudeMeters>559.4000244140625</AltitudeMeters>
            <DistanceMeters>73051.397892002</DistanceMeters>
          </Trackpoint>
          <Trackpoint>
            <Time>2018-08-26T09:44:43.000Z</Time>
            <Position>
              <LatitudeDegrees>42.983963191509246826171875</LatitudeDegrees>
              <LongitudeDegrees>-1.67868155054748058319091796875</LongitudeDegrees>
            </Position>
            <AltitudeMeters>559.5999755859375</AltitudeMeters>
            <DistanceMeters>73058.377020338</DistanceMeters>
          </Trackpoint>
          <Trackpoint>
            <Time>2018-08-26T09:44:44.000Z</Time>
            <Position>
              <LatitudeDegrees>42.9839107207953929901123046875</LatitudeDegrees>
              <LongitudeDegrees>-1.6787290759384632110595703125</LongitudeDegrees>
            </Position>
            <AltitudeMeters>559.5999755859375</AltitudeMeters>
            <DistanceMeters>73065.383267233</DistanceMeters>
          </Trackpoint>
          <Trackpoint>
            <Time>2018-08-26T09:44:45.000Z</Time>
            <Position>
              <LatitudeDegrees>42.98386059701442718505859375</LatitudeDegrees>
              <LongitudeDegrees>-1.6787771880626678466796875</LongitudeDegrees>
            </Position>
            <AltitudeMeters>559.5999755859375</AltitudeMeters>
            <DistanceMeters>73072.200730358</DistanceMeters>
          </Trackpoint>
          <Trackpoint>
            <Time>2018-08-26T09:44:46.000Z</Time>
            <Position>
              <LatitudeDegrees>42.98381122760474681854248046875</LatitudeDegrees>
              <LongitudeDegrees>-1.67882689274847507476806640625</LongitudeDegrees>
            </Position>
            <AltitudeMeters>559.79998779296875</AltitudeMeters>
            <DistanceMeters>73079.025474624</DistanceMeters>
          </Trackpoint>
          <Trackpoint>
            <Time>2018-08-26T09:44:47.000Z</Time>
            <Position>
              <LatitudeDegrees>42.98376001417636871337890625</LatitudeDegrees>
              <LongitudeDegrees>-1.678875423967838287353515625</LongitudeDegrees>
            </Position>
            <AltitudeMeters>559.79998779296875</AltitudeMeters>
            <DistanceMeters>73085.961773874</DistanceMeters>
          </Trackpoint>
          <Trackpoint>
            <Time>2018-08-26T09:44:48.000Z</Time>
            <Position>
              <LatitudeDegrees>42.98370502889156341552734375</LatitudeDegrees>
              <LongitudeDegrees>-1.67891808785498142242431640625</LongitudeDegrees>
            </Position>
            <AltitudeMeters>559.79998779296875</AltitudeMeters>
            <DistanceMeters>73092.998885442</DistanceMeters>
          </Trackpoint>
          <Trackpoint>
            <Time>2018-08-26T09:44:49.000Z</Time>
            <Position>
              <LatitudeDegrees>42.9836475290358066558837890625</LatitudeDegrees>
              <LongitudeDegrees>-1.6789563931524753570556640625</LongitudeDegrees>
            </Position>
            <AltitudeMeters>560</AltitudeMeters>
            <DistanceMeters>73100.117648607</DistanceMeters>
          </Trackpoint>
          <Trackpoint>
            <Time>2018-08-26T09:44:50.000Z</Time>
            <Position>
              <LatitudeDegrees>42.983587682247161865234375</LatitudeDegrees>
              <LongitudeDegrees>-1.67898899875581264495849609375</LongitudeDegrees>
            </Position>
            <AltitudeMeters>560</AltitudeMeters>
            <DistanceMeters>73107.288231239</DistanceMeters>
          </Trackpoint>
          <Trackpoint>
            <Time>2018-08-26T09:44:51.000Z</Time>
            <Position>
              <LatitudeDegrees>42.98352607525885105133056640625</LatitudeDegrees>
              <LongitudeDegrees>-1.679012887179851531982421875</LongitudeDegrees>
            </Position>
            <AltitudeMeters>560.20001220703125</AltitudeMeters>
            <DistanceMeters>73114.416501727</DistanceMeters>
          </Trackpoint>
          <Trackpoint>
            <Time>2018-08-26T09:44:52.000Z</Time>
            <Position>
              <LatitudeDegrees>42.9834631271660327911376953125</LatitudeDegrees>
              <LongitudeDegrees>-1.679029650986194610595703125</LongitudeDegrees>
            </Position>
            <AltitudeMeters>560.4000244140625</AltitudeMeters>
            <DistanceMeters>73121.555531874</DistanceMeters>
          </Trackpoint>
          <Trackpoint>
            <Time>2018-08-26T09:44:53.000Z</Time>
            <Position>
              <LatitudeDegrees>42.98339883796870708465576171875</LatitudeDegrees>
              <LongitudeDegrees>-1.67904029600322246551513671875</LongitudeDegrees>
            </Position>
            <AltitudeMeters>561.20001220703125</AltitudeMeters>
            <DistanceMeters>73128.76254233</DistanceMeters>
          </Trackpoint>
          <Trackpoint>
            <Time>2018-08-26T09:44:54.000Z</Time>
            <Position>
              <LatitudeDegrees>42.98333496786653995513916015625</LatitudeDegrees>
              <LongitudeDegrees>-1.67904214002192020416259765625</LongitudeDegrees>
            </Position>
            <AltitudeMeters>561.20001220703125</AltitudeMeters>
            <DistanceMeters>73135.873055533</DistanceMeters>
          </Trackpoint>
          <Trackpoint>
            <Time>2018-08-26T09:44:55.000Z</Time>
            <Position>
              <LatitudeDegrees>42.98326808027923107147216796875</LatitudeDegrees>
              <LongitudeDegrees>-1.67903878726065158843994140625</LongitudeDegrees>
            </Position>
            <AltitudeMeters>561.4000244140625</AltitudeMeters>
            <DistanceMeters>73143.322810551</DistanceMeters>
          </Trackpoint>
          <Trackpoint>
            <Time>2018-08-26T09:44:56.000Z</Time>
            <Position>
              <LatitudeDegrees>42.983201779425144195556640625</LatitudeDegrees>
              <LongitudeDegrees>-1.6790234483778476715087890625</LongitudeDegrees>
            </Position>
            <AltitudeMeters>561.4000244140625</AltitudeMeters>
            <DistanceMeters>73150.807634814</DistanceMeters>
          </Trackpoint>
          <Trackpoint>
            <Time>2018-08-26T09:44:57.000Z</Time>
            <Position>
              <LatitudeDegrees>42.9831397533416748046875</LatitudeDegrees>
              <LongitudeDegrees>-1.678997464478015899658203125</LongitudeDegrees>
            </Position>
            <AltitudeMeters>561.4000244140625</AltitudeMeters>
            <DistanceMeters>73158.028414647</DistanceMeters>
          </Trackpoint>
          <Trackpoint>
            <Time>2018-08-26T09:44:58.000Z</Time>
            <Position>
              <LatitudeDegrees>42.9830758832395076751708984375</LatitudeDegrees>
              <LongitudeDegrees>-1.67897290550172328948974609375</LongitudeDegrees>
            </Position>
            <AltitudeMeters>561.4000244140625</AltitudeMeters>
            <DistanceMeters>73165.413647326</DistanceMeters>
          </Trackpoint>
          <Trackpoint>
            <Time>2018-08-26T09:44:59.000Z</Time>
            <Position>
              <LatitudeDegrees>42.98301293514668941497802734375</LatitudeDegrees>
              <LongitudeDegrees>-1.678950525820255279541015625</LongitudeDegrees>
            </Position>
            <AltitudeMeters>561.4000244140625</AltitudeMeters>
            <DistanceMeters>73172.653161376</DistanceMeters>
          </Trackpoint>
          <Trackpoint>
            <Time>2018-08-26T09:45:00.000Z</Time>
            <Position>
              <LatitudeDegrees>42.98294839449226856231689453125</LatitudeDegrees>
              <LongitudeDegrees>-1.67892940342426300048828125</LongitudeDegrees>
            </Position>
            <AltitudeMeters>561.4000244140625</AltitudeMeters>
            <DistanceMeters>73180.039616674</DistanceMeters>
          </Trackpoint>
          <Trackpoint>
            <Time>2018-08-26T09:45:01.000Z</Time>
            <Position>
              <LatitudeDegrees>42.98288469202816486358642578125</LatitudeDegrees>
              <LongitudeDegrees>-1.67890819720923900604248046875</LongitudeDegrees>
            </Position>
            <AltitudeMeters>561.5999755859375</AltitudeMeters>
            <DistanceMeters>73187.336901154</DistanceMeters>
          </Trackpoint>
          <Trackpoint>
            <Time>2018-08-26T09:45:02.000Z</Time>
            <Position>
              <LatitudeDegrees>42.98282132484018802642822265625</LatitudeDegrees>
              <LongitudeDegrees>-1.67888137511909008026123046875</LongitudeDegrees>
            </Position>
            <AltitudeMeters>561.5999755859375</AltitudeMeters>
            <DistanceMeters>73194.719687987</DistanceMeters>
          </Trackpoint>
          <Trackpoint>
            <Time>2018-08-26T09:45:03.000Z</Time>
            <Position>
              <LatitudeDegrees>42.98275762237608432769775390625</LatitudeDegrees>
              <LongitudeDegrees>-1.6788531281054019927978515625</LongitudeDegrees>
            </Position>
            <AltitudeMeters>561.79998779296875</AltitudeMeters>
            <DistanceMeters>73202.174289951</DistanceMeters>
          </Trackpoint>
          <Trackpoint>
            <Time>2018-08-26T09:45:04.000Z</Time>
            <Position>
              <LatitudeDegrees>42.98269526101648807525634765625</LatitudeDegrees>
              <LongitudeDegrees>-1.678823120892047882080078125</LongitudeDegrees>
            </Position>
            <AltitudeMeters>562</AltitudeMeters>
            <DistanceMeters>73209.532573606</DistanceMeters>
          </Trackpoint>
          <Trackpoint>
            <Time>2018-08-26T09:45:05.000Z</Time>
            <Position>
              <LatitudeDegrees>42.98263692297041416168212890625</LatitudeDegrees>
              <LongitudeDegrees>-1.67878448031842708587646484375</LongitudeDegrees>
            </Position>
            <AltitudeMeters>562</AltitudeMeters>
            <DistanceMeters>73216.747097889</DistanceMeters>
          </Trackpoint>
          <Trackpoint>
            <Time>2018-08-26T09:45:06.000Z</Time>
            <Position>
              <LatitudeDegrees>42.98258009366691112518310546875</LatitudeDegrees>
              <LongitudeDegrees>-1.6787505336105823516845703125</LongitudeDegrees>
            </Position>
            <AltitudeMeters>562</AltitudeMeters>
            <DistanceMeters>73223.649465839</DistanceMeters>
          </Trackpoint>
          <Trackpoint>
            <Time>2018-08-26T09:45:07.000Z</Time>
            <Position>
              <LatitudeDegrees>42.98252192325890064239501953125</LatitudeDegrees>
              <LongitudeDegrees>-1.67871977202594280242919921875</LongitudeDegrees>
            </Position>
            <AltitudeMeters>562</AltitudeMeters>
            <DistanceMeters>73230.590970568</DistanceMeters>
          </Trackpoint>
          <Trackpoint>
            <Time>2018-08-26T09:45:08.000Z</Time>
            <Position>
              <LatitudeDegrees>42.9824623279273509979248046875</LatitudeDegrees>
              <LongitudeDegrees>-1.6786913573741912841796875</LongitudeDegrees>
            </Position>
            <AltitudeMeters>562.20001220703125</AltitudeMeters>
            <DistanceMeters>73237.616523774</DistanceMeters>
          </Trackpoint>
          <Trackpoint>
            <Time>2018-08-26T09:45:09.000Z</Time>
            <Position>
              <LatitudeDegrees>42.98240206204354763031005859375</LatitudeDegrees>
              <LongitudeDegrees>-1.67866612784564495086669921875</LongitudeDegrees>
            </Position>
            <AltitudeMeters>562.20001220703125</AltitudeMeters>
            <DistanceMeters>73244.631786892</DistanceMeters>
          </Trackpoint>
          <Trackpoint>
            <Time>2018-08-26T09:45:10.000Z</Time>
            <Position>
              <LatitudeDegrees>42.9823463223874568939208984375</LatitudeDegrees>
              <LongitudeDegrees>-1.67863494716584682464599609375</LongitudeDegrees>
            </Position>
            <AltitudeMeters>562.20001220703125</AltitudeMeters>
            <DistanceMeters>73251.335044338</DistanceMeters>
          </Trackpoint>
          <Trackpoint>
            <Time>2018-08-26T09:45:11.000Z</Time>
            <Position>
              <LatitudeDegrees>42.98229108564555644989013671875</LatitudeDegrees>
              <LongitudeDegrees>-1.67860058136284351348876953125</LongitudeDegrees>
            </Position>
            <AltitudeMeters>562.20001220703125</AltitudeMeters>
            <DistanceMeters>73258.090635085</DistanceMeters>
          </Trackpoint>
          <Trackpoint>
            <Time>2018-08-26T09:45:12.000Z</Time>
            <Position>
              <LatitudeDegrees>42.9822336696088314056396484375</LatitudeDegrees>
              <LongitudeDegrees>-1.6785718314349651336669921875</LongitudeDegrees>
            </Position>
            <AltitudeMeters>562.4000244140625</AltitudeMeters>
            <DistanceMeters>73264.896830216</DistanceMeters>
          </Trackpoint>
          <Trackpoint>
            <Time>2018-08-26T09:45:13.000Z</Time>
            <Position>
              <LatitudeDegrees>42.982171811163425445556640625</LatitudeDegrees>
              <LongitudeDegrees>-1.67854660190641880035400390625</LongitudeDegrees>
            </Position>
            <AltitudeMeters>562.4000244140625</AltitudeMeters>
            <DistanceMeters>73272.081880461</DistanceMeters>
          </Trackpoint>
          <Trackpoint>
            <Time>2018-08-26T09:45:14.000Z</Time>
            <Position>
              <LatitudeDegrees>42.9821089468896389007568359375</LatitudeDegrees>
              <LongitudeDegrees>-1.67851877398788928985595703125</LongitudeDegrees>
            </Position>
            <AltitudeMeters>562.4000244140625</AltitudeMeters>
            <DistanceMeters>73279.4364816</DistanceMeters>
          </Trackpoint>
          <Trackpoint>
            <Time>2018-08-26T09:45:15.000Z</Time>
            <Position>
              <LatitudeDegrees>42.98204449005424976348876953125</LatitudeDegrees>
              <LongitudeDegrees>-1.6784863360226154327392578125</LongitudeDegrees>
            </Position>
            <AltitudeMeters>562.5999755859375</AltitudeMeters>
            <DistanceMeters>73287.081851755</DistanceMeters>
          </Trackpoint>
          <Trackpoint>
            <Time>2018-08-26T09:45:16.000Z</Time>
            <Position>
              <LatitudeDegrees>42.98197760246694087982177734375</LatitudeDegrees>
              <LongitudeDegrees>-1.67845725081861019134521484375</LongitudeDegrees>
            </Position>
            <AltitudeMeters>562.79998779296875</AltitudeMeters>
            <DistanceMeters>73294.894874011</DistanceMeters>
          </Trackpoint>
          <Trackpoint>
            <Time>2018-08-26T09:45:17.000Z</Time>
            <Position>
              <LatitudeDegrees>42.98191205598413944244384765625</LatitudeDegrees>
              <LongitudeDegrees>-1.67843394912779331207275390625</LongitudeDegrees>
            </Position>
            <AltitudeMeters>563</AltitudeMeters>
            <DistanceMeters>73302.433793107</DistanceMeters>
          </Trackpoint>
          <Trackpoint>
            <Time>2018-08-26T09:45:18.000Z</Time>
            <Position>
              <LatitudeDegrees>42.98184550367295742034912109375</LatitudeDegrees>
              <LongitudeDegrees>-1.67841500602662563323974609375</LongitudeDegrees>
            </Position>
            <AltitudeMeters>563</AltitudeMeters>
            <DistanceMeters>73310.000211325</DistanceMeters>
          </Trackpoint>
          <Trackpoint>
            <Time>2018-08-26T09:45:19.000Z</Time>
            <Position>
              <LatitudeDegrees>42.98177626915276050567626953125</LatitudeDegrees>
              <LongitudeDegrees>-1.67839296162128448486328125</LongitudeDegrees>
            </Position>
            <AltitudeMeters>563.20001220703125</AltitudeMeters>
            <DistanceMeters>73317.913146941</DistanceMeters>
          </Trackpoint>
          <Trackpoint>
            <Time>2018-08-26T09:45:20.000Z</Time>
            <Position>
              <LatitudeDegrees>42.98170544207096099853515625</LatitudeDegrees>
              <LongitudeDegrees>-1.678383238613605499267578125</LongitudeDegrees>
            </Position>
            <AltitudeMeters>563.20001220703125</AltitudeMeters>
            <DistanceMeters>73325.836346512</DistanceMeters>
          </Trackpoint>
          <Trackpoint>
            <Time>2018-08-26T09:45:21.000Z</Time>
            <Position>
              <LatitudeDegrees>42.981632687151432037353515625</LatitudeDegrees>
              <LongitudeDegrees>-1.67838030494749546051025390625</LongitudeDegrees>
            </Position>
            <AltitudeMeters>563.4000244140625</AltitudeMeters>
            <DistanceMeters>73333.937617745</DistanceMeters>
          </Trackpoint>
          <Trackpoint>
            <Time>2018-08-26T09:45:22.000Z</Time>
            <Position>
              <LatitudeDegrees>42.9815621115267276763916015625</LatitudeDegrees>
              <LongitudeDegrees>-1.67838835157454013824462890625</LongitudeDegrees>
            </Position>
            <AltitudeMeters>563.4000244140625</AltitudeMeters>
            <DistanceMeters>73341.819681303</DistanceMeters>
          </Trackpoint>
          <Trackpoint>
            <Time>2018-08-26T09:45:23.000Z</Time>
            <Position>
              <LatitudeDegrees>42.98148826695978641510009765625</LatitudeDegrees>
              <LongitudeDegrees>-1.67839421890676021575927734375</LongitudeDegrees>
            </Position>
            <AltitudeMeters>563.5999755859375</AltitudeMeters>
            <DistanceMeters>73350.052527335</DistanceMeters>
          </Trackpoint>
          <Trackpoint>
            <Time>2018-08-26T09:45:24.000Z</Time>
            <Position>
              <LatitudeDegrees>42.98141517676413059234619140625</LatitudeDegrees>
              <LongitudeDegrees>-1.6784048639237880706787109375</LongitudeDegrees>
            </Position>
            <AltitudeMeters>563.5999755859375</AltitudeMeters>
            <DistanceMeters>73358.23365969</DistanceMeters>
          </Trackpoint>
          <Trackpoint>
            <Time>2018-08-26T09:45:25.000Z</Time>
            <Position>
              <LatitudeDegrees>42.98134376294910907745361328125</LatitudeDegrees>
              <LongitudeDegrees>-1.67842187918722629547119140625</LongitudeDegrees>
            </Position>
            <AltitudeMeters>563.5999755859375</AltitudeMeters>
            <DistanceMeters>73366.301422144</DistanceMeters>
          </Trackpoint>
          <Trackpoint>
            <Time>2018-08-26T09:45:26.000Z</Time>
            <Position>
              <LatitudeDegrees>42.98127536661922931671142578125</LatitudeDegrees>
              <LongitudeDegrees>-1.67843914590775966644287109375</LongitudeDegrees>
            </Position>
            <AltitudeMeters>563.79998779296875</AltitudeMeters>
            <DistanceMeters>73374.042454845</DistanceMeters>
          </Trackpoint>
          <Trackpoint>
            <Time>2018-08-26T09:45:27.000Z</Time>
            <Position>
              <LatitudeDegrees>42.9812110774219036102294921875</LatitudeDegrees>
              <LongitudeDegrees>-1.67845004238188266754150390625</LongitudeDegrees>
            </Position>
            <AltitudeMeters>563.79998779296875</AltitudeMeters>
            <DistanceMeters>73381.252597013</DistanceMeters>
          </Trackpoint>
          <Trackpoint>
            <Time>2018-08-26T09:45:28.000Z</Time>
            <Position>
              <LatitudeDegrees>42.98114444129168987274169921875</LatitudeDegrees>
              <LongitudeDegrees>-1.67846647091209888458251953125</LongitudeDegrees>
            </Position>
            <AltitudeMeters>564</AltitudeMeters>
            <DistanceMeters>73388.789120139</DistanceMeters>
          </Trackpoint>
          <Trackpoint>
            <Time>2018-08-26T09:45:29.000Z</Time>
            <Position>
              <LatitudeDegrees>42.98107638023793697357177734375</LatitudeDegrees>
              <LongitudeDegrees>-1.67848742567002773284912109375</LongitudeDegrees>
            </Position>
            <AltitudeMeters>564</AltitudeMeters>
            <DistanceMeters>73396.553448207</DistanceMeters>
          </Trackpoint>
          <Trackpoint>
            <Time>2018-08-26T09:45:30.000Z</Time>
            <Position>
              <LatitudeDegrees>42.9810079000890254974365234375</LatitudeDegrees>
              <LongitudeDegrees>-1.67850720696151256561279296875</LongitudeDegrees>
            </Position>
            <AltitudeMeters>564</AltitudeMeters>
            <DistanceMeters>73404.343320716</DistanceMeters>
          </Trackpoint>
          <Trackpoint>
            <Time>2018-08-26T09:45:31.000Z</Time>
            <Position>
              <LatitudeDegrees>42.98094226978719234466552734375</LatitudeDegrees>
              <LongitudeDegrees>-1.67852564714848995208740234375</LongitudeDegrees>
            </Position>
            <AltitudeMeters>564.20001220703125</AltitudeMeters>
            <DistanceMeters>73411.800344971</DistanceMeters>
          </Trackpoint>
          <Trackpoint>
            <Time>2018-08-26T09:45:32.000Z</Time>
            <Position>
              <LatitudeDegrees>42.9808768071234226226806640625</LatitudeDegrees>
              <LongitudeDegrees>-1.67854316532611846923828125</LongitudeDegrees>
            </Position>
            <AltitudeMeters>564.4000244140625</AltitudeMeters>
            <DistanceMeters>73419.224601608</DistanceMeters>
          </Trackpoint>
          <Trackpoint>
            <Time>2018-08-26T09:45:33.000Z</Time>
            <Position>
              <LatitudeDegrees>42.9808100871741771697998046875</LatitudeDegrees>
              <LongitudeDegrees>-1.6785564087331295013427734375</LongitudeDegrees>
            </Position>
            <AltitudeMeters>564.4000244140625</AltitudeMeters>
            <DistanceMeters>73426.728704266</DistanceMeters>
          </Trackpoint>
          <Trackpoint>
            <Time>2018-08-26T09:45:34.000Z</Time>
            <Position>
              <LatitudeDegrees>42.980740852653980255126953125</LatitudeDegrees>
              <LongitudeDegrees>-1.6785674728453159332275390625</LongitudeDegrees>
            </Position>
            <AltitudeMeters>564.4000244140625</AltitudeMeters>
            <DistanceMeters>73434.48721505</DistanceMeters>
          </Trackpoint>
          <Trackpoint>
            <Time>2018-08-26T09:45:35.000Z</Time>
            <Position>
              <LatitudeDegrees>42.98066985793411731719970703125</LatitudeDegrees>
              <LongitudeDegrees>-1.6785664670169353485107421875</LongitudeDegrees>
            </Position>
            <AltitudeMeters>564.5999755859375</AltitudeMeters>
            <DistanceMeters>73442.389302028</DistanceMeters>
          </Trackpoint>
          <Trackpoint>
            <Time>2018-08-26T09:45:36.000Z</Time>
            <Position>
              <LatitudeDegrees>42.98059894703328609466552734375</LatitudeDegrees>
              <LongitudeDegrees>-1.67855230160057544708251953125</LongitudeDegrees>
            </Position>
            <AltitudeMeters>564.5999755859375</AltitudeMeters>
            <DistanceMeters>73450.365887677</DistanceMeters>
          </Trackpoint>
          <Trackpoint>
            <Time>2018-08-26T09:45:37.000Z</Time>
            <Position>
              <LatitudeDegrees>42.98052795231342315673828125</LatitudeDegrees>
              <LongitudeDegrees>-1.6785315982997417449951171875</LongitudeDegrees>
            </Position>
            <AltitudeMeters>564.79998779296875</AltitudeMeters>
            <DistanceMeters>73458.445952819</DistanceMeters>
          </Trackpoint>
          <Trackpoint>
            <Time>2018-08-26T09:45:38.000Z</Time>
            <Position>
              <LatitudeDegrees>42.98045695759356021881103515625</LatitudeDegrees>
              <LongitudeDegrees>-1.678499914705753326416015625</LongitudeDegrees>
            </Position>
            <AltitudeMeters>564.79998779296875</AltitudeMeters>
            <DistanceMeters>73466.758482214</DistanceMeters>
          </Trackpoint>
          <Trackpoint>
            <Time>2018-08-26T09:45:39.000Z</Time>
            <Position>
              <LatitudeDegrees>42.98038705252110958099365234375</LatitudeDegrees>
              <LongitudeDegrees>-1.6784575022757053375244140625</LongitudeDegrees>
            </Position>
            <AltitudeMeters>565</AltitudeMeters>
            <DistanceMeters>73475.271199962</DistanceMeters>
          </Trackpoint>
          <Trackpoint>
            <Time>2018-08-26T09:45:40.000Z</Time>
            <Position>
              <LatitudeDegrees>42.9803034849464893341064453125</LatitudeDegrees>
              <LongitudeDegrees>-1.67840729467570781707763671875</LongitudeDegrees>
            </Position>
            <AltitudeMeters>565</AltitudeMeters>
            <DistanceMeters>73485.431506744</DistanceMeters>
          </Trackpoint>
          <Trackpoint>
            <Time>2018-08-26T09:45:41.000Z</Time>
            <Position>
              <LatitudeDegrees>42.980221845209598541259765625</LatitudeDegrees>
              <LongitudeDegrees>-1.6783505491912364959716796875</LongitudeDegrees>
            </Position>
            <AltitudeMeters>565</AltitudeMeters>
            <DistanceMeters>73495.62553047</DistanceMeters>
          </Trackpoint>
          <Trackpoint>
            <Time>2018-08-26T09:45:42.000Z</Time>
            <Position>
              <LatitudeDegrees>42.98014498315751552581787109375</LatitudeDegrees>
              <LongitudeDegrees>-1.6782905347645282745361328125</LongitudeDegrees>
            </Position>
            <AltitudeMeters>565</AltitudeMeters>
            <DistanceMeters>73505.478109918</DistanceMeters>
          </Trackpoint>
          <Trackpoint>
            <Time>2018-08-26T09:45:43.000Z</Time>
            <Position>
              <LatitudeDegrees>42.98007407225668430328369140625</LatitudeDegrees>
              <LongitudeDegrees>-1.6782221384346485137939453125</LongitudeDegrees>
            </Position>
            <AltitudeMeters>565</AltitudeMeters>
            <DistanceMeters>73515.137705142</DistanceMeters>
          </Trackpoint>
          <Trackpoint>
            <Time>2018-08-26T09:45:44.000Z</Time>
            <Position>
              <LatitudeDegrees>42.9800094477832317352294921875</LatitudeDegrees>
              <LongitudeDegrees>-1.6781591065227985382080078125</LongitudeDegrees>
            </Position>
            <AltitudeMeters>565</AltitudeMeters>
            <DistanceMeters>73523.973656756</DistanceMeters>
          </Trackpoint>
          <Trackpoint>
            <Time>2018-08-26T09:45:45.000Z</Time>
            <Position>
              <LatitudeDegrees>42.9799439013004302978515625</LatitudeDegrees>
              <LongitudeDegrees>-1.67808945290744304656982421875</LongitudeDegrees>
            </Position>
            <AltitudeMeters>565</AltitudeMeters>
            <DistanceMeters>73533.214241308</DistanceMeters>
          </Trackpoint>
          <Trackpoint>
            <Time>2018-08-26T09:45:46.000Z</Time>
            <Position>
              <LatitudeDegrees>42.97987592406570911407470703125</LatitudeDegrees>
              <LongitudeDegrees>-1.67802357114851474761962890625</LongitudeDegrees>
            </Position>
            <AltitudeMeters>564.79998779296875</AltitudeMeters>
            <DistanceMeters>73542.488965466</DistanceMeters>
          </Trackpoint>
          <Trackpoint>
            <Time>2018-08-26T09:45:47.000Z</Time>
            <Position>
              <LatitudeDegrees>42.979804091155529022216796875</LatitudeDegrees>
              <LongitudeDegrees>-1.6779589466750621795654296875</LongitudeDegrees>
            </Position>
            <AltitudeMeters>564.5999755859375</AltitudeMeters>
            <DistanceMeters>73552.059811586</DistanceMeters>
          </Trackpoint>
          <Trackpoint>
            <Time>2018-08-26T09:45:48.000Z</Time>
            <Position>
              <LatitudeDegrees>42.97973259352147579193115234375</LatitudeDegrees>
              <LongitudeDegrees>-1.67789214290678501129150390625</LongitudeDegrees>
            </Position>
            <AltitudeMeters>564.4000244140625</AltitudeMeters>
            <DistanceMeters>73561.699287018</DistanceMeters>
          </Trackpoint>
          <Trackpoint>
            <Time>2018-08-26T09:45:49.000Z</Time>
            <Position>
              <LatitudeDegrees>42.97966000624001026153564453125</LatitudeDegrees>
              <LongitudeDegrees>-1.67782542295753955841064453125</LongitudeDegrees>
            </Position>
            <AltitudeMeters>563.79998779296875</AltitudeMeters>
            <DistanceMeters>73571.435236506</DistanceMeters>
          </Trackpoint>
          <Trackpoint>
            <Time>2018-08-26T09:45:50.000Z</Time>
            <Position>
              <LatitudeDegrees>42.979585826396942138671875</LatitudeDegrees>
              <LongitudeDegrees>-1.67776490561664104461669921875</LongitudeDegrees>
            </Position>
            <AltitudeMeters>563.4000244140625</AltitudeMeters>
            <DistanceMeters>73581.050324786</DistanceMeters>
          </Trackpoint>
          <Trackpoint>
            <Time>2018-08-26T09:45:51.000Z</Time>
            <Position>
              <LatitudeDegrees>42.97951131127774715423583984375</LatitudeDegrees>
              <LongitudeDegrees>-1.677707992494106292724609375</LongitudeDegrees>
            </Position>
            <AltitudeMeters>563.20001220703125</AltitudeMeters>
            <DistanceMeters>73590.550620258</DistanceMeters>
          </Trackpoint>
          <Trackpoint>
            <Time>2018-08-26T09:45:52.000Z</Time>
            <Position>
              <LatitudeDegrees>42.97943587414920330047607421875</LatitudeDegrees>
              <LongitudeDegrees>-1.67765711434185504913330078125</LongitudeDegrees>
            </Position>
            <AltitudeMeters>563</AltitudeMeters>
            <DistanceMeters>73599.913524835</DistanceMeters>
          </Trackpoint>
          <Trackpoint>
            <Time>2018-08-26T09:45:53.000Z</Time>
            <Position>
              <LatitudeDegrees>42.97936010174453258514404296875</LatitudeDegrees>
              <LongitudeDegrees>-1.67760782875120639801025390625</LongitudeDegrees>
            </Position>
            <AltitudeMeters>562.5999755859375</AltitudeMeters>
            <DistanceMeters>73609.25325387</DistanceMeters>
          </Trackpoint>
          <Trackpoint>
            <Time>2018-08-26T09:45:54.000Z</Time>
            <Position>
              <LatitudeDegrees>42.9792849160730838775634765625</LatitudeDegrees>
              <LongitudeDegrees>-1.67756373994052410125732421875</LongitudeDegrees>
            </Position>
            <AltitudeMeters>562.20001220703125</AltitudeMeters>
            <DistanceMeters>73618.358975253</DistanceMeters>
          </Trackpoint>
          <Trackpoint>
            <Time>2018-08-26T09:45:55.000Z</Time>
            <Position>
              <LatitudeDegrees>42.97921140678226947784423828125</LatitudeDegrees>
              <LongitudeDegrees>-1.67752183042466640472412109375</LongitudeDegrees>
            </Position>
            <AltitudeMeters>561.79998779296875</AltitudeMeters>
            <DistanceMeters>73627.224514457</DistanceMeters>
          </Trackpoint>
          <Trackpoint>
            <Time>2018-08-26T09:45:56.000Z</Time>
            <Position>
              <LatitudeDegrees>42.979138232767581939697265625</LatitudeDegrees>
              <LongitudeDegrees>-1.67748042382299900054931640625</LongitudeDegrees>
            </Position>
            <AltitudeMeters>561.5999755859375</AltitudeMeters>
            <DistanceMeters>73636.038978577</DistanceMeters>
          </Trackpoint>
          <Trackpoint>
            <Time>2018-08-26T09:45:57.000Z</Time>
            <Position>
              <LatitudeDegrees>42.97906606458127498626708984375</LatitudeDegrees>
              <LongitudeDegrees>-1.67744211852550506591796875</LongitudeDegrees>
            </Position>
            <AltitudeMeters>561.4000244140625</AltitudeMeters>
            <DistanceMeters>73644.655549155</DistanceMeters>
          </Trackpoint>
          <Trackpoint>
            <Time>2018-08-26T09:45:58.000Z</Time>
            <Position>
              <LatitudeDegrees>42.97899414785206317901611328125</LatitudeDegrees>
              <LongitudeDegrees>-1.67740012519061565399169921875</LongitudeDegrees>
            </Position>
            <AltitudeMeters>561.4000244140625</AltitudeMeters>
            <DistanceMeters>73653.359705711</DistanceMeters>
          </Trackpoint>
          <Trackpoint>
            <Time>2018-08-26T09:45:59.000Z</Time>
            <Position>
              <LatitudeDegrees>42.97892357222735881805419921875</LatitudeDegrees>
              <LongitudeDegrees>-1.67735720984637737274169921875</LongitudeDegrees>
            </Position>
            <AltitudeMeters>561.4000244140625</AltitudeMeters>
            <DistanceMeters>73661.957391782</DistanceMeters>
          </Trackpoint>
          <Trackpoint>
            <Time>2018-08-26T09:46:00.000Z</Time>
            <Position>
              <LatitudeDegrees>42.9788537509739398956298828125</LatitudeDegrees>
              <LongitudeDegrees>-1.6773152165114879608154296875</LongitudeDegrees>
            </Position>
            <AltitudeMeters>561.20001220703125</AltitudeMeters>
            <DistanceMeters>73670.447804037</DistanceMeters>
          </Trackpoint>
          <Trackpoint>
            <Time>2018-08-26T09:46:01.000Z</Time>
            <Position>
              <LatitudeDegrees>42.97878493554890155792236328125</LatitudeDegrees>
              <LongitudeDegrees>-1.677274145185947418212890625</LongitudeDegrees>
            </Position>
            <AltitudeMeters>561.20001220703125</AltitudeMeters>
            <DistanceMeters>73678.805834389</DistanceMeters>
          </Trackpoint>
          <Trackpoint>
            <Time>2018-08-26T09:46:02.000Z</Time>
            <Position>
              <LatitudeDegrees>42.97871486283838748931884765625</LatitudeDegrees>
              <LongitudeDegrees>-1.6772344149649143218994140625</LongitudeDegrees>
            </Position>
            <AltitudeMeters>561.20001220703125</AltitudeMeters>
            <DistanceMeters>73687.248785499</DistanceMeters>
          </Trackpoint>
          <Trackpoint>
            <Time>2018-08-26T09:46:03.000Z</Time>
            <Position>
              <LatitudeDegrees>42.97864462248980998992919921875</LatitudeDegrees>
              <LongitudeDegrees>-1.67719309218227863311767578125</LongitudeDegrees>
            </Position>
            <AltitudeMeters>561.20001220703125</AltitudeMeters>
            <DistanceMeters>73695.759381433</DistanceMeters>
          </Trackpoint>
          <Trackpoint>
            <Time>2018-08-26T09:46:04.000Z</Time>
            <Position>
              <LatitudeDegrees>42.978574298322200775146484375</LatitudeDegrees>
              <LongitudeDegrees>-1.6771519370377063751220703125</LongitudeDegrees>
            </Position>
            <AltitudeMeters>561.20001220703125</AltitudeMeters>
            <DistanceMeters>73704.273690195</DistanceMeters>
          </Trackpoint>
          <Trackpoint>
            <Time>2018-08-26T09:46:05.000Z</Time>
            <Position>
              <LatitudeDegrees>42.9785030521452426910400390625</LatitudeDegrees>
              <LongitudeDegrees>-1.67711262591183185577392578125</LongitudeDegrees>
            </Position>
            <AltitudeMeters>561</AltitudeMeters>
            <DistanceMeters>73712.825038571</DistanceMeters>
          </Trackpoint>
          <Trackpoint>
            <Time>2018-08-26T09:46:06.000Z</Time>
            <Position>
              <LatitudeDegrees>42.97843180596828460693359375</LatitudeDegrees>
              <LongitudeDegrees>-1.67707339860498905181884765625</LongitudeDegrees>
            </Position>
            <AltitudeMeters>561</AltitudeMeters>
            <DistanceMeters>73721.373746582</DistanceMeters>
          </Trackpoint>
          <Trackpoint>
            <Time>2018-08-26T09:46:07.000Z</Time>
            <Position>
              <LatitudeDegrees>42.97835980542004108428955078125</LatitudeDegrees>
              <LongitudeDegrees>-1.6770339198410511016845703125</LongitudeDegrees>
            </Position>
            <AltitudeMeters>561</AltitudeMeters>
            <DistanceMeters>73730.008114603</DistanceMeters>
          </Trackpoint>
          <Trackpoint>
            <Time>2018-08-26T09:46:08.000Z</Time>
            <Position>
              <LatitudeDegrees>42.97828788869082927703857421875</LatitudeDegrees>
              <LongitudeDegrees>-1.67699410580098628997802734375</LongitudeDegrees>
            </Position>
            <AltitudeMeters>561</AltitudeMeters>
            <DistanceMeters>73738.64457403</DistanceMeters>
          </Trackpoint>
          <Trackpoint>
            <Time>2018-08-26T09:46:09.000Z</Time>
            <Position>
              <LatitudeDegrees>42.97821580432355403900146484375</LatitudeDegrees>
              <LongitudeDegrees>-1.67695219628512859344482421875</LongitudeDegrees>
            </Position>
            <AltitudeMeters>561</AltitudeMeters>
            <DistanceMeters>73747.363242707</DistanceMeters>
          </Trackpoint>
          <Trackpoint>
            <Time>2018-08-26T09:46:10.000Z</Time>
            <Position>
              <LatitudeDegrees>42.97814388759434223175048828125</LatitudeDegrees>
              <LongitudeDegrees>-1.67691045440733432769775390625</LongitudeDegrees>
            </Position>
            <AltitudeMeters>561</AltitudeMeters>
            <DistanceMeters>73756.05909575</DistanceMeters>
          </Trackpoint>
          <Trackpoint>
            <Time>2018-08-26T09:46:11.000Z</Time>
            <Position>
              <LatitudeDegrees>42.978070713579654693603515625</LatitudeDegrees>
              <LongitudeDegrees>-1.6768692992627620697021484375</LongitudeDegrees>
            </Position>
            <AltitudeMeters>561</AltitudeMeters>
            <DistanceMeters>73764.866385722</DistanceMeters>
          </Trackpoint>
          <Trackpoint>
            <Time>2018-08-26T09:46:12.000Z</Time>
            <Position>
              <LatitudeDegrees>42.97799653373658657073974609375</LatitudeDegrees>
              <LongitudeDegrees>-1.67683015577495098114013671875</LongitudeDegrees>
            </Position>
            <AltitudeMeters>560.79998779296875</AltitudeMeters>
            <DistanceMeters>73773.71663335</DistanceMeters>
          </Trackpoint>
          <Trackpoint>
            <Time>2018-08-26T09:46:13.000Z</Time>
            <Position>
              <LatitudeDegrees>42.97792092896997928619384765625</LatitudeDegrees>
              <LongitudeDegrees>-1.67679369449615478515625</LongitudeDegrees>
            </Position>
            <AltitudeMeters>560.5999755859375</AltitudeMeters>
            <DistanceMeters>73782.64004156</DistanceMeters>
          </Trackpoint>
          <Trackpoint>
            <Time>2018-08-26T09:46:14.000Z</Time>
            <Position>
              <LatitudeDegrees>42.97784415073692798614501953125</LatitudeDegrees>
              <LongitudeDegrees>-1.6767610050737857818603515625</LongitudeDegrees>
            </Position>
            <AltitudeMeters>560.4000244140625</AltitudeMeters>
            <DistanceMeters>73791.590730819</DistanceMeters>
          </Trackpoint>
          <Trackpoint>
            <Time>2018-08-26T09:46:15.000Z</Time>
            <Position>
              <LatitudeDegrees>42.97776653431355953216552734375</LatitudeDegrees>
              <LongitudeDegrees>-1.67673527263104915618896484375</LongitudeDegrees>
            </Position>
            <AltitudeMeters>560.20001220703125</AltitudeMeters>
            <DistanceMeters>73800.480173938</DistanceMeters>
          </Trackpoint>
          <Trackpoint>
            <Time>2018-08-26T09:46:16.000Z</Time>
            <Position>
              <LatitudeDegrees>42.9776881635189056396484375</LatitudeDegrees>
              <LongitudeDegrees>-1.67671523988246917724609375</LongitudeDegrees>
            </Position>
            <AltitudeMeters>560</AltitudeMeters>
            <DistanceMeters>73809.354875439</DistanceMeters>
          </Trackpoint>
          <Trackpoint>
            <Time>2018-08-26T09:46:17.000Z</Time>
            <Position>
              <LatitudeDegrees>42.97760996036231517791748046875</LatitudeDegrees>
              <LongitudeDegrees>-1.67670073918998241424560546875</LongitudeDegrees>
            </Position>
            <AltitudeMeters>559.79998779296875</AltitudeMeters>
            <DistanceMeters>73818.138551955</DistanceMeters>
          </Trackpoint>
          <Trackpoint>
            <Time>2018-08-26T09:46:18.000Z</Time>
            <Position>
              <LatitudeDegrees>42.97753234393894672393798828125</LatitudeDegrees>
              <LongitudeDegrees>-1.67669110000133514404296875</LongitudeDegrees>
            </Position>
            <AltitudeMeters>559.79998779296875</AltitudeMeters>
            <DistanceMeters>73826.813090964</DistanceMeters>
          </Trackpoint>
          <Trackpoint>
            <Time>2018-08-26T09:46:19.000Z</Time>
            <Position>
              <LatitudeDegrees>42.97745489515364170074462890625</LatitudeDegrees>
              <LongitudeDegrees>-1.676689088344573974609375</LongitudeDegrees>
            </Position>
            <AltitudeMeters>559.5999755859375</AltitudeMeters>
            <DistanceMeters>73835.434899897</DistanceMeters>
          </Trackpoint>
          <Trackpoint>
            <Time>2018-08-26T09:46:20.000Z</Time>
            <Position>
              <LatitudeDegrees>42.977378368377685546875</LatitudeDegrees>
              <LongitudeDegrees>-1.67669135145843029022216796875</LongitudeDegrees>
            </Position>
            <AltitudeMeters>559.20001220703125</AltitudeMeters>
            <DistanceMeters>73843.954509892</DistanceMeters>
          </Trackpoint>
          <Trackpoint>
            <Time>2018-08-26T09:46:21.000Z</Time>
            <Position>
              <LatitudeDegrees>42.97730234451591968536376953125</LatitudeDegrees>
              <LongitudeDegrees>-1.67669571004807949066162109375</LongitudeDegrees>
            </Position>
            <AltitudeMeters>559</AltitudeMeters>
            <DistanceMeters>73852.423624201</DistanceMeters>
          </Trackpoint>
          <Trackpoint>
            <Time>2018-08-26T09:46:22.000Z</Time>
            <Position>
              <LatitudeDegrees>42.97722724266350269317626953125</LatitudeDegrees>
              <LongitudeDegrees>-1.676699817180633544921875</LongitudeDegrees>
            </Position>
            <AltitudeMeters>559</AltitudeMeters>
            <DistanceMeters>73860.789213986</DistanceMeters>
          </Trackpoint>
          <Trackpoint>
            <Time>2018-08-26T09:46:23.000Z</Time>
            <Position>
              <LatitudeDegrees>42.97715331427752971649169921875</LatitudeDegrees>
              <LongitudeDegrees>-1.67670509777963161468505859375</LongitudeDegrees>
            </Position>
            <AltitudeMeters>559</AltitudeMeters>
            <DistanceMeters>73869.028638402</DistanceMeters>
          </Trackpoint>
          <Trackpoint>
            <Time>2018-08-26T09:46:24.000Z</Time>
            <Position>
              <LatitudeDegrees>42.9770793020725250244140625</LatitudeDegrees>
              <LongitudeDegrees>-1.67671096511185169219970703125</LongitudeDegrees>
            </Position>
            <AltitudeMeters>559</AltitudeMeters>
            <DistanceMeters>73877.280109567</DistanceMeters>
          </Trackpoint>
          <Trackpoint>
            <Time>2018-08-26T09:46:25.000Z</Time>
            <Position>
              <LatitudeDegrees>42.9770043678581714630126953125</LatitudeDegrees>
              <LongitudeDegrees>-1.676718257367610931396484375</LongitudeDegrees>
            </Position>
            <AltitudeMeters>559</AltitudeMeters>
            <DistanceMeters>73885.641380513</DistanceMeters>
          </Trackpoint>
          <Trackpoint>
            <Time>2018-08-26T09:46:26.000Z</Time>
            <Position>
              <LatitudeDegrees>42.97692901454865932464599609375</LatitudeDegrees>
              <LongitudeDegrees>-1.676726639270782470703125</LongitudeDegrees>
            </Position>
            <AltitudeMeters>559</AltitudeMeters>
            <DistanceMeters>73894.05540448</DistanceMeters>
          </Trackpoint>
          <Trackpoint>
            <Time>2018-08-26T09:46:27.000Z</Time>
            <Position>
              <LatitudeDegrees>42.9768526554107666015625</LatitudeDegrees>
              <LongitudeDegrees>-1.6767346858978271484375</LongitudeDegrees>
            </Position>
            <AltitudeMeters>559</AltitudeMeters>
            <DistanceMeters>73902.579253086</DistanceMeters>
          </Trackpoint>
          <Trackpoint>
            <Time>2018-08-26T09:46:28.000Z</Time>
            <Position>
              <LatitudeDegrees>42.97677629627287387847900390625</LatitudeDegrees>
              <LongitudeDegrees>-1.6767408885061740875244140625</LongitudeDegrees>
            </Position>
            <AltitudeMeters>559</AltitudeMeters>
            <DistanceMeters>73911.092501206</DistanceMeters>
          </Trackpoint>
          <Trackpoint>
            <Time>2018-08-26T09:46:29.000Z</Time>
            <Position>
              <LatitudeDegrees>42.9766999371349811553955078125</LatitudeDegrees>
              <LongitudeDegrees>-1.67674751020967960357666015625</LongitudeDegrees>
            </Position>
            <AltitudeMeters>559.20001220703125</AltitudeMeters>
            <DistanceMeters>73919.608930856</DistanceMeters>
          </Trackpoint>
          <Trackpoint>
            <Time>2018-08-26T09:46:30.000Z</Time>
            <Position>
              <LatitudeDegrees>42.976622991263866424560546875</LatitudeDegrees>
              <LongitudeDegrees>-1.6767539642751216888427734375</LongitudeDegrees>
            </Position>
            <AltitudeMeters>559.79998779296875</AltitudeMeters>
            <DistanceMeters>73928.189269617</DistanceMeters>
          </Trackpoint>
          <Trackpoint>
            <Time>2018-08-26T09:46:31.000Z</Time>
            <Position>
              <LatitudeDegrees>42.97654596157371997833251953125</LatitudeDegrees>
              <LongitudeDegrees>-1.6767603345215320587158203125</LongitudeDegrees>
            </Position>
            <AltitudeMeters>560.20001220703125</AltitudeMeters>
            <DistanceMeters>73936.777497862</DistanceMeters>
          </Trackpoint>
          <Trackpoint>
            <Time>2018-08-26T09:46:32.000Z</Time>
            <Position>
              <LatitudeDegrees>42.97646868042647838592529296875</LatitudeDegrees>
              <LongitudeDegrees>-1.67676712386310100555419921875</LongitudeDegrees>
            </Position>
            <AltitudeMeters>560.4000244140625</AltitudeMeters>
            <DistanceMeters>73945.397211836</DistanceMeters>
          </Trackpoint>
          <Trackpoint>
            <Time>2018-08-26T09:46:33.000Z</Time>
            <Position>
              <LatitudeDegrees>42.9763911478221416473388671875</LatitudeDegrees>
              <LongitudeDegrees>-1.67677282355725765228271484375</LongitudeDegrees>
            </Position>
            <AltitudeMeters>560.79998779296875</AltitudeMeters>
            <DistanceMeters>73954.039420018</DistanceMeters>
          </Trackpoint>
          <Trackpoint>
            <Time>2018-08-26T09:46:34.000Z</Time>
            <Position>
              <LatitudeDegrees>42.9763133637607097625732421875</LatitudeDegrees>
              <LongitudeDegrees>-1.676778607070446014404296875</LongitudeDegrees>
            </Position>
            <AltitudeMeters>561</AltitudeMeters>
            <DistanceMeters>73962.709794081</DistanceMeters>
          </Trackpoint>
          <Trackpoint>
            <Time>2018-08-26T09:46:35.000Z</Time>
            <Position>
              <LatitudeDegrees>42.9762355796992778778076171875</LatitudeDegrees>
              <LongitudeDegrees>-1.6767843067646026611328125</LongitudeDegrees>
            </Position>
            <AltitudeMeters>561</AltitudeMeters>
            <DistanceMeters>73971.379647386</DistanceMeters>
          </Trackpoint>
          <Trackpoint>
            <Time>2018-08-26T09:46:36.000Z</Time>
            <Position>
              <LatitudeDegrees>42.97615804709494113922119140625</LatitudeDegrees>
              <LongitudeDegrees>-1.6767901740968227386474609375</LongitudeDegrees>
            </Position>
            <AltitudeMeters>561</AltitudeMeters>
            <DistanceMeters>73980.022377993</DistanceMeters>
          </Trackpoint>
          <Trackpoint>
            <Time>2018-08-26T09:46:37.000Z</Time>
            <Position>
              <LatitudeDegrees>42.976080514490604400634765625</LatitudeDegrees>
              <LongitudeDegrees>-1.6767965443432331085205078125</LongitudeDegrees>
            </Position>
            <AltitudeMeters>561</AltitudeMeters>
            <DistanceMeters>73988.668242484</DistanceMeters>
          </Trackpoint>
          <Trackpoint>
            <Time>2018-08-26T09:46:38.000Z</Time>
            <Position>
              <LatitudeDegrees>42.97600306570529937744140625</LatitudeDegrees>
              <LongitudeDegrees>-1.67680241167545318603515625</LongitudeDegrees>
            </Position>
            <AltitudeMeters>561.20001220703125</AltitudeMeters>
            <DistanceMeters>73997.301564612</DistanceMeters>
          </Trackpoint>
          <Trackpoint>
            <Time>2018-08-26T09:46:39.000Z</Time>
            <Position>
              <LatitudeDegrees>42.97592570073902606964111328125</LatitudeDegrees>
              <LongitudeDegrees>-1.67680777609348297119140625</LongitudeDegrees>
            </Position>
            <AltitudeMeters>561.20001220703125</AltitudeMeters>
            <DistanceMeters>74005.923373546</DistanceMeters>
          </Trackpoint>
          <Trackpoint>
            <Time>2018-08-26T09:46:40.000Z</Time>
            <Position>
              <LatitudeDegrees>42.9758486710488796234130859375</LatitudeDegrees>
              <LongitudeDegrees>-1.6768111288547515869140625</LongitudeDegrees>
            </Position>
            <AltitudeMeters>561.20001220703125</AltitudeMeters>
            <DistanceMeters>74014.501080866</DistanceMeters>
          </Trackpoint>
          <Trackpoint>
            <Time>2018-08-26T09:46:41.000Z</Time>
            <Position>
              <LatitudeDegrees>42.9757715575397014617919921875</LatitudeDegrees>
              <LongitudeDegrees>-1.67681339196860790252685546875</LongitudeDegrees>
            </Position>
            <AltitudeMeters>561.20001220703125</AltitudeMeters>
            <DistanceMeters>74023.086154187</DistanceMeters>
          </Trackpoint>
          <Trackpoint>
            <Time>2018-08-26T09:46:42.000Z</Time>
            <Position>
              <LatitudeDegrees>42.97569385729730129241943359375</LatitudeDegrees>
              <LongitudeDegrees>-1.67681624181568622589111328125</LongitudeDegrees>
            </Position>
            <AltitudeMeters>561.20001220703125</AltitudeMeters>
            <DistanceMeters>74031.737239296</DistanceMeters>
          </Trackpoint>
          <Trackpoint>
            <Time>2018-08-26T09:46:43.000Z</Time>
            <Position>
              <LatitudeDegrees>42.97561506740748882293701171875</LatitudeDegrees>
              <LongitudeDegrees>-1.67681741528213024139404296875</LongitudeDegrees>
            </Position>
            <AltitudeMeters>561.20001220703125</AltitudeMeters>
            <DistanceMeters>74040.507540953</DistanceMeters>
          </Trackpoint>
          <Trackpoint>
            <Time>2018-08-26T09:46:44.000Z</Time>
            <Position>
              <LatitudeDegrees>42.97553560696542263031005859375</LatitudeDegrees>
              <LongitudeDegrees>-1.67681791819632053375244140625</LongitudeDegrees>
            </Position>
            <AltitudeMeters>561.20001220703125</AltitudeMeters>
            <DistanceMeters>74049.351664548</DistanceMeters>
          </Trackpoint>
          <Trackpoint>
            <Time>2018-08-26T09:46:45.000Z</Time>
            <Position>
              <LatitudeDegrees>42.97545514069497585296630859375</LatitudeDegrees>
              <LongitudeDegrees>-1.6768183372914791107177734375</LongitudeDegrees>
            </Position>
            <AltitudeMeters>561.20001220703125</AltitudeMeters>
            <DistanceMeters>74058.307900869</DistanceMeters>
          </Trackpoint>
          <Trackpoint>
            <Time>2018-08-26T09:46:46.000Z</Time>
            <Position>
              <LatitudeDegrees>42.97537366859614849090576171875</LatitudeDegrees>
              <LongitudeDegrees>-1.67681791819632053375244140625</LongitudeDegrees>
            </Position>
            <AltitudeMeters>561.20001220703125</AltitudeMeters>
            <DistanceMeters>74067.376357528</DistanceMeters>
          </Trackpoint>
          <Trackpoint>
            <Time>2018-08-26T09:46:47.000Z</Time>
            <Position>
              <LatitudeDegrees>42.97529202885925769805908203125</LatitudeDegrees>
              <LongitudeDegrees>-1.67681573890149593353271484375</LongitudeDegrees>
            </Position>
            <AltitudeMeters>561</AltitudeMeters>
            <DistanceMeters>74076.465204502</DistanceMeters>
          </Trackpoint>
          <Trackpoint>
            <Time>2018-08-26T09:46:48.000Z</Time>
            <Position>
              <LatitudeDegrees>42.97521022148430347442626953125</LatitudeDegrees>
              <LongitudeDegrees>-1.67681104503571987152099609375</LongitudeDegrees>
            </Position>
            <AltitudeMeters>561</AltitudeMeters>
            <DistanceMeters>74085.578855973</DistanceMeters>
          </Trackpoint>
          <Trackpoint>
            <Time>2018-08-26T09:46:49.000Z</Time>
            <Position>
              <LatitudeDegrees>42.975127659738063812255859375</LatitudeDegrees>
              <LongitudeDegrees>-1.6768022440373897552490234375</LongitudeDegrees>
            </Position>
            <AltitudeMeters>561</AltitudeMeters>
            <DistanceMeters>74094.796447267</DistanceMeters>
          </Trackpoint>
          <Trackpoint>
            <Time>2018-08-26T09:46:50.000Z</Time>
            <Position>
              <LatitudeDegrees>42.975044511258602142333984375</LatitudeDegrees>
              <LongitudeDegrees>-1.676793359220027923583984375</LongitudeDegrees>
            </Position>
            <AltitudeMeters>560.79998779296875</AltitudeMeters>
            <DistanceMeters>74104.078957134</DistanceMeters>
          </Trackpoint>
          <Trackpoint>
            <Time>2018-08-26T09:46:51.000Z</Time>
            <Position>
              <LatitudeDegrees>42.9749615304172039031982421875</LatitudeDegrees>
              <LongitudeDegrees>-1.67678472585976123809814453125</LongitudeDegrees>
            </Position>
            <AltitudeMeters>560.5999755859375</AltitudeMeters>
            <DistanceMeters>74113.341990458</DistanceMeters>
          </Trackpoint>
          <Trackpoint>
            <Time>2018-08-26T09:46:52.000Z</Time>
            <Position>
              <LatitudeDegrees>42.974876873195171356201171875</LatitudeDegrees>
              <LongitudeDegrees>-1.676776595413684844970703125</LongitudeDegrees>
            </Position>
            <AltitudeMeters>560.20001220703125</AltitudeMeters>
            <DistanceMeters>74122.787951782</DistanceMeters>
          </Trackpoint>
          <Trackpoint>
            <Time>2018-08-26T09:46:53.000Z</Time>
            <Position>
              <LatitudeDegrees>42.9747918806970119476318359375</LatitudeDegrees>
              <LongitudeDegrees>-1.67676863260567188262939453125</LongitudeDegrees>
            </Position>
            <AltitudeMeters>559.79998779296875</AltitudeMeters>
            <DistanceMeters>74132.270646612</DistanceMeters>
          </Trackpoint>
          <Trackpoint>
            <Time>2018-08-26T09:46:54.000Z</Time>
            <Position>
              <LatitudeDegrees>42.97470512799918651580810546875</LatitudeDegrees>
              <LongitudeDegrees>-1.6767586581408977508544921875</LongitudeDegrees>
            </Position>
            <AltitudeMeters>559.4000244140625</AltitudeMeters>
            <DistanceMeters>74141.960576171</DistanceMeters>
          </Trackpoint>
          <Trackpoint>
            <Time>2018-08-26T09:46:55.000Z</Time>
            <Position>
              <LatitudeDegrees>42.9746165312826633453369140625</LatitudeDegrees>
              <LongitudeDegrees>-1.67674851603806018829345703125</LongitudeDegrees>
            </Position>
            <AltitudeMeters>559.20001220703125</AltitudeMeters>
            <DistanceMeters>74151.856138255</DistanceMeters>
          </Trackpoint>
          <Trackpoint>
            <Time>2018-08-26T09:46:56.000Z</Time>
            <Position>
              <LatitudeDegrees>42.97452575527131557464599609375</LatitudeDegrees>
              <LongitudeDegrees>-1.67673812247812747955322265625</LongitudeDegrees>
            </Position>
            <AltitudeMeters>559</AltitudeMeters>
            <DistanceMeters>74161.994647029</DistanceMeters>
          </Trackpoint>
          <Trackpoint>
            <Time>2018-08-26T09:46:57.000Z</Time>
            <Position>
              <LatitudeDegrees>42.97443305142223834991455078125</LatitudeDegrees>
              <LongitudeDegrees>-1.6767271421849727630615234375</LongitudeDegrees>
            </Position>
            <AltitudeMeters>558.79998779296875</AltitudeMeters>
            <DistanceMeters>74172.351251106</DistanceMeters>
          </Trackpoint>
          <Trackpoint>
            <Time>2018-08-26T09:46:58.000Z</Time>
            <Position>
              <LatitudeDegrees>42.97433934174478054046630859375</LatitudeDegrees>
              <LongitudeDegrees>-1.67671658098697662353515625</LongitudeDegrees>
            </Position>
            <AltitudeMeters>558.79998779296875</AltitudeMeters>
            <DistanceMeters>74182.817139853</DistanceMeters>
          </Trackpoint>
          <Trackpoint>
            <Time>2018-08-26T09:46:59.000Z</Time>
            <Position>
              <LatitudeDegrees>42.974243871867656707763671875</LatitudeDegrees>
              <LongitudeDegrees>-1.67670451104640960693359375</LongitudeDegrees>
            </Position>
            <AltitudeMeters>558.4000244140625</AltitudeMeters>
            <DistanceMeters>74193.488517179</DistanceMeters>
          </Trackpoint>
          <Trackpoint>
            <Time>2018-08-26T09:47:00.000Z</Time>
            <Position>
              <LatitudeDegrees>42.97414672560989856719970703125</LatitudeDegrees>
              <LongitudeDegrees>-1.67669135145843029022216796875</LongitudeDegrees>
            </Position>
            <AltitudeMeters>558</AltitudeMeters>
            <DistanceMeters>74204.354023123</DistanceMeters>
          </Trackpoint>
          <Trackpoint>
            <Time>2018-08-26T09:47:01.000Z</Time>
            <Position>
              <LatitudeDegrees>42.974048741161823272705078125</LatitudeDegrees>
              <LongitudeDegrees>-1.6766781918704509735107421875</LongitudeDegrees>
            </Position>
            <AltitudeMeters>557.5999755859375</AltitudeMeters>
            <DistanceMeters>74215.312214423</DistanceMeters>
          </Trackpoint>
          <Trackpoint>
            <Time>2018-08-26T09:47:02.000Z</Time>
            <Position>
              <LatitudeDegrees>42.9739503376185894012451171875</LatitudeDegrees>
              <LongitudeDegrees>-1.67666536755859851837158203125</LongitudeDegrees>
            </Position>
            <AltitudeMeters>556.79998779296875</AltitudeMeters>
            <DistanceMeters>74226.314403965</DistanceMeters>
          </Trackpoint>
          <Trackpoint>
            <Time>2018-08-26T09:47:03.000Z</Time>
            <Position>
              <LatitudeDegrees>42.97385218553245067596435546875</LatitudeDegrees>
              <LongitudeDegrees>-1.67665380053222179412841796875</LongitudeDegrees>
            </Position>
            <AltitudeMeters>556.4000244140625</AltitudeMeters>
            <DistanceMeters>74237.279185667</DistanceMeters>
          </Trackpoint>
          <Trackpoint>
            <Time>2018-08-26T09:47:04.000Z</Time>
            <Position>
              <LatitudeDegrees>42.97375462017953395843505859375</LatitudeDegrees>
              <LongitudeDegrees>-1.676643155515193939208984375</LongitudeDegrees>
            </Position>
            <AltitudeMeters>555.5999755859375</AltitudeMeters>
            <DistanceMeters>74248.172911597</DistanceMeters>
          </Trackpoint>
          <Trackpoint>
            <Time>2018-08-26T09:47:05.000Z</Time>
            <Position>
              <LatitudeDegrees>42.9736579768359661102294921875</LatitudeDegrees>
              <LongitudeDegrees>-1.6766312532126903533935546875</LongitudeDegrees>
            </Position>
            <AltitudeMeters>554.79998779296875</AltitudeMeters>
            <DistanceMeters>74258.972980922</DistanceMeters>
          </Trackpoint>
          <Trackpoint>
            <Time>2018-08-26T09:47:06.000Z</Time>
            <Position>
              <LatitudeDegrees>42.97356233932077884674072265625</LatitudeDegrees>
              <LongitudeDegrees>-1.676619350910186767578125</LongitudeDegrees>
            </Position>
            <AltitudeMeters>554.20001220703125</AltitudeMeters>
            <DistanceMeters>74269.661268769</DistanceMeters>
          </Trackpoint>
          <Trackpoint>
            <Time>2018-08-26T09:47:07.000Z</Time>
            <Position>
              <LatitudeDegrees>42.97346712090075016021728515625</LatitudeDegrees>
              <LongitudeDegrees>-1.6766094602644443511962890625</LongitudeDegrees>
            </Position>
            <AltitudeMeters>553.79998779296875</AltitudeMeters>
            <DistanceMeters>74280.289827293</DistanceMeters>
          </Trackpoint>
          <Trackpoint>
            <Time>2018-08-26T09:47:08.000Z</Time>
            <Position>
              <LatitudeDegrees>42.97337207011878490447998046875</LatitudeDegrees>
              <LongitudeDegrees>-1.67659998871386051177978515625</LongitudeDegrees>
            </Position>
            <AltitudeMeters>553.4000244140625</AltitudeMeters>
            <DistanceMeters>74290.897124428</DistanceMeters>
          </Trackpoint>
          <Trackpoint>
            <Time>2018-08-26T09:47:09.000Z</Time>
            <Position>
              <LatitudeDegrees>42.97327668406069278717041015625</LatitudeDegrees>
              <LongitudeDegrees>-1.67659026570618152618408203125</LongitudeDegrees>
            </Position>
            <AltitudeMeters>552.79998779296875</AltitudeMeters>
            <DistanceMeters>74301.543509707</DistanceMeters>
          </Trackpoint>
          <Trackpoint>
            <Time>2018-08-26T09:47:10.000Z</Time>
            <Position>
              <LatitudeDegrees>42.973181717097759246826171875</LatitudeDegrees>
              <LongitudeDegrees>-1.67657886631786823272705078125</LongitudeDegrees>
            </Position>
            <AltitudeMeters>552</AltitudeMeters>
            <DistanceMeters>74312.154211527</DistanceMeters>
          </Trackpoint>
          <Trackpoint>
            <Time>2018-08-26T09:47:11.000Z</Time>
            <Position>
              <LatitudeDegrees>42.97308750450611114501953125</LatitudeDegrees>
              <LongitudeDegrees>-1.67656629346311092376708984375</LongitudeDegrees>
            </Position>
            <AltitudeMeters>551.4000244140625</AltitudeMeters>
            <DistanceMeters>74322.689756109</DistanceMeters>
          </Trackpoint>
          <Trackpoint>
            <Time>2018-08-26T09:47:12.000Z</Time>
            <Position>
              <LatitudeDegrees>42.97299354337155818939208984375</LatitudeDegrees>
              <LongitudeDegrees>-1.676553972065448760986328125</LongitudeDegrees>
            </Position>
            <AltitudeMeters>550.79998779296875</AltitudeMeters>
            <DistanceMeters>74333.195259158</DistanceMeters>
          </Trackpoint>
          <Trackpoint>
            <Time>2018-08-26T09:47:13.000Z</Time>
            <Position>
              <LatitudeDegrees>42.97289974987506866455078125</LatitudeDegrees>
              <LongitudeDegrees>-1.6765420697629451751708984375</LongitudeDegrees>
            </Position>
            <AltitudeMeters>550.5999755859375</AltitudeMeters>
            <DistanceMeters>74343.679251263</DistanceMeters>
          </Trackpoint>
          <Trackpoint>
            <Time>2018-08-26T09:47:14.000Z</Time>
            <Position>
              <LatitudeDegrees>42.97280645929276943206787109375</LatitudeDegrees>
              <LongitudeDegrees>-1.67653075419366359710693359375</LongitudeDegrees>
            </Position>
            <AltitudeMeters>550.4000244140625</AltitudeMeters>
            <DistanceMeters>74354.103642849</DistanceMeters>
          </Trackpoint>
          <Trackpoint>
            <Time>2018-08-26T09:47:15.000Z</Time>
            <Position>
              <LatitudeDegrees>42.9727135039865970611572265625</LatitudeDegrees>
              <LongitudeDegrees>-1.67651918716728687286376953125</LongitudeDegrees>
            </Position>
            <AltitudeMeters>550.20001220703125</AltitudeMeters>
            <DistanceMeters>74364.49289228</DistanceMeters>
          </Trackpoint>
          <Trackpoint>
            <Time>2018-08-26T09:47:16.000Z</Time>
            <Position>
              <LatitudeDegrees>42.97262054868042469024658203125</LatitudeDegrees>
              <LongitudeDegrees>-1.676507703959941864013671875</LongitudeDegrees>
            </Position>
            <AltitudeMeters>550.20001220703125</AltitudeMeters>
            <DistanceMeters>74374.880837866</DistanceMeters>
          </Trackpoint>
          <Trackpoint>
            <Time>2018-08-26T09:47:17.000Z</Time>
            <Position>
              <LatitudeDegrees>42.97252700664103031158447265625</LatitudeDegrees>
              <LongitudeDegrees>-1.6764964722096920013427734375</LongitudeDegrees>
            </Position>
            <AltitudeMeters>550.20001220703125</AltitudeMeters>
            <DistanceMeters>74385.332048545</DistanceMeters>
          </Trackpoint>
          <Trackpoint>
            <Time>2018-08-26T09:47:18.000Z</Time>
            <Position>
              <LatitudeDegrees>42.97243329696357250213623046875</LatitudeDegrees>
              <LongitudeDegrees>-1.67648465372622013092041015625</LongitudeDegrees>
            </Position>
            <AltitudeMeters>550</AltitudeMeters>
            <DistanceMeters>74395.806561842</DistanceMeters>
          </Trackpoint>
          <Trackpoint>
            <Time>2018-08-26T09:47:19.000Z</Time>
            <Position>
              <LatitudeDegrees>42.97233908437192440032958984375</LatitudeDegrees>
              <LongitudeDegrees>-1.676472164690494537353515625</LongitudeDegrees>
            </Position>
            <AltitudeMeters>549.5999755859375</AltitudeMeters>
            <DistanceMeters>74406.342106424</DistanceMeters>
          </Trackpoint>
          <Trackpoint>
            <Time>2018-08-26T09:47:20.000Z</Time>
            <Position>
              <LatitudeDegrees>42.9722447879612445831298828125</LatitudeDegrees>
              <LongitudeDegrees>-1.67646151967346668243408203125</LongitudeDegrees>
            </Position>
            <AltitudeMeters>549</AltitudeMeters>
            <DistanceMeters>74416.873364606</DistanceMeters>
          </Trackpoint>
          <Trackpoint>
            <Time>2018-08-26T09:47:21.000Z</Time>
            <Position>
              <LatitudeDegrees>42.972149737179279327392578125</LatitudeDegrees>
              <LongitudeDegrees>-1.67645062319934368133544921875</LongitudeDegrees>
            </Position>
            <AltitudeMeters>549</AltitudeMeters>
            <DistanceMeters>74427.490021997</DistanceMeters>
          </Trackpoint>
          <Trackpoint>
            <Time>2018-08-26T09:47:22.000Z</Time>
            <Position>
              <LatitudeDegrees>42.9720540158450603485107421875</LatitudeDegrees>
              <LongitudeDegrees>-1.67643964290618896484375</LongitudeDegrees>
            </Position>
            <AltitudeMeters>548.79998779296875</AltitudeMeters>
            <DistanceMeters>74438.181266435</DistanceMeters>
          </Trackpoint>
          <Trackpoint>
            <Time>2018-08-26T09:47:23.000Z</Time>
            <Position>
              <LatitudeDegrees>42.9719577915966510772705078125</LatitudeDegrees>
              <LongitudeDegrees>-1.67642815969884395599365234375</LongitudeDegrees>
            </Position>
            <AltitudeMeters>548.79998779296875</AltitudeMeters>
            <DistanceMeters>74448.932311895</DistanceMeters>
          </Trackpoint>
          <Trackpoint>
            <Time>2018-08-26T09:47:24.000Z</Time>
            <Position>
              <LatitudeDegrees>42.97186098061501979827880859375</LatitudeDegrees>
              <LongitudeDegrees>-1.67641625739634037017822265625</LongitudeDegrees>
            </Position>
            <AltitudeMeters>548.79998779296875</AltitudeMeters>
            <DistanceMeters>74459.751177403</DistanceMeters>
          </Trackpoint>
          <Trackpoint>
            <Time>2018-08-26T09:47:25.000Z</Time>
            <Position>
              <LatitudeDegrees>42.97176358290016651153564453125</LatitudeDegrees>
              <LongitudeDegrees>-1.6764046065509319305419921875</LongitudeDegrees>
            </Position>
            <AltitudeMeters>548.5999755859375</AltitudeMeters>
            <DistanceMeters>74470.633292201</DistanceMeters>
          </Trackpoint>
          <Trackpoint>
            <Time>2018-08-26T09:47:26.000Z</Time>
            <Position>
              <LatitudeDegrees>42.97166534699499607086181640625</LatitudeDegrees>
              <LongitudeDegrees>-1.6763935424387454986572265625</LongitudeDegrees>
            </Position>
            <AltitudeMeters>548.4000244140625</AltitudeMeters>
            <DistanceMeters>74481.60424881</DistanceMeters>
          </Trackpoint>
          <Trackpoint>
            <Time>2018-08-26T09:47:27.000Z</Time>
            <Position>
              <LatitudeDegrees>42.971566356718540191650390625</LatitudeDegrees>
              <LongitudeDegrees>-1.67638155631721019744873046875</LongitudeDegrees>
            </Position>
            <AltitudeMeters>548</AltitudeMeters>
            <DistanceMeters>74492.664966493</DistanceMeters>
          </Trackpoint>
          <Trackpoint>
            <Time>2018-08-26T09:47:28.000Z</Time>
            <Position>
              <LatitudeDegrees>42.97146703116595745086669921875</LatitudeDegrees>
              <LongitudeDegrees>-1.67636848054826259613037109375</LongitudeDegrees>
            </Position>
            <AltitudeMeters>547.5999755859375</AltitudeMeters>
            <DistanceMeters>74503.771309016</DistanceMeters>
          </Trackpoint>
          <Trackpoint>
            <Time>2018-08-26T09:47:29.000Z</Time>
            <Position>
              <LatitudeDegrees>42.97136762179434299468994140625</LatitudeDegrees>
              <LongitudeDegrees>-1.67635557241737842559814453125</LongitudeDegrees>
            </Position>
            <AltitudeMeters>547.20001220703125</AltitudeMeters>
            <DistanceMeters>74514.885779122</DistanceMeters>
          </Trackpoint>
          <Trackpoint>
            <Time>2018-08-26T09:47:30.000Z</Time>
            <Position>
              <LatitudeDegrees>42.9712677933275699615478515625</LatitudeDegrees>
              <LongitudeDegrees>-1.676342748105525970458984375</LongitudeDegrees>
            </Position>
            <AltitudeMeters>547</AltitudeMeters>
            <DistanceMeters>74526.045654315</DistanceMeters>
          </Trackpoint>
          <Trackpoint>
            <Time>2018-08-26T09:47:31.000Z</Time>
            <Position>
              <LatitudeDegrees>42.97116712667047977447509765625</LatitudeDegrees>
              <LongitudeDegrees>-1.67633059434592723846435546875</LongitudeDegrees>
            </Position>
            <AltitudeMeters>546.4000244140625</AltitudeMeters>
            <DistanceMeters>74537.294184491</DistanceMeters>
          </Trackpoint>
          <Trackpoint>
            <Time>2018-08-26T09:47:32.000Z</Time>
            <Position>
              <LatitudeDegrees>42.971066124737262725830078125</LatitudeDegrees>
              <LongitudeDegrees>-1.6763181053102016448974609375</LongitudeDegrees>
            </Position>
            <AltitudeMeters>545.79998779296875</AltitudeMeters>
            <DistanceMeters>74548.581982267</DistanceMeters>
          </Trackpoint>
          <Trackpoint>
            <Time>2018-08-26T09:47:33.000Z</Time>
            <Position>
              <LatitudeDegrees>42.970965206623077392578125</LatitudeDegrees>
              <LongitudeDegrees>-1.67630461044609546661376953125</LongitudeDegrees>
            </Position>
            <AltitudeMeters>545.4000244140625</AltitudeMeters>
            <DistanceMeters>74559.868179958</DistanceMeters>
          </Trackpoint>
          <Trackpoint>
            <Time>2018-08-26T09:47:34.000Z</Time>
            <Position>
              <LatitudeDegrees>42.97086521051824092864990234375</LatitudeDegrees>
              <LongitudeDegrees>-1.6762916184961795806884765625</LongitudeDegrees>
            </Position>
            <AltitudeMeters>545.20001220703125</AltitudeMeters>
            <DistanceMeters>74571.048669581</DistanceMeters>
          </Trackpoint>
          <Trackpoint>
            <Time>2018-08-26T09:47:35.000Z</Time>
            <Position>
              <LatitudeDegrees>42.97076647169888019561767578125</LatitudeDegrees>
              <LongitudeDegrees>-1.67627778835594654083251953125</LongitudeDegrees>
            </Position>
            <AltitudeMeters>544.79998779296875</AltitudeMeters>
            <DistanceMeters>74582.096316988</DistanceMeters>
          </Trackpoint>
          <Trackpoint>
            <Time>2018-08-26T09:47:36.000Z</Time>
            <Position>
              <LatitudeDegrees>42.97066991217434406280517578125</LatitudeDegrees>
              <LongitudeDegrees>-1.67626596987247467041015625</LongitudeDegrees>
            </Position>
            <AltitudeMeters>544.5999755859375</AltitudeMeters>
            <DistanceMeters>74592.886766731</DistanceMeters>
          </Trackpoint>
          <Trackpoint>
            <Time>2018-08-26T09:47:37.000Z</Time>
            <Position>
              <LatitudeDegrees>42.97057419084012508392333984375</LatitudeDegrees>
              <LongitudeDegrees>-1.676253564655780792236328125</LongitudeDegrees>
            </Position>
            <AltitudeMeters>544.20001220703125</AltitudeMeters>
            <DistanceMeters>74603.588563755</DistanceMeters>
          </Trackpoint>
          <Trackpoint>
            <Time>2018-08-26T09:47:38.000Z</Time>
            <Position>
              <LatitudeDegrees>42.97048031352460384368896484375</LatitudeDegrees>
              <LongitudeDegrees>-1.67624048888683319091796875</LongitudeDegrees>
            </Position>
            <AltitudeMeters>544.20001220703125</AltitudeMeters>
            <DistanceMeters>74614.091487816</DistanceMeters>
          </Trackpoint>
          <Trackpoint>
            <Time>2018-08-26T09:47:39.000Z</Time>
            <Position>
              <LatitudeDegrees>42.970388196408748626708984375</LatitudeDegrees>
              <LongitudeDegrees>-1.6762272454798221588134765625</LongitudeDegrees>
            </Position>
            <AltitudeMeters>543.79998779296875</AltitudeMeters>
            <DistanceMeters>74624.400900978</DistanceMeters>
          </Trackpoint>
          <Trackpoint>
            <Time>2018-08-26T09:47:40.000Z</Time>
            <Position>
              <LatitudeDegrees>42.97029666602611541748046875</LatitudeDegrees>
              <LongitudeDegrees>-1.67621492408215999603271484375</LongitudeDegrees>
            </Position>
            <AltitudeMeters>544</AltitudeMeters>
            <DistanceMeters>74634.637355787</DistanceMeters>
          </Trackpoint>
          <Trackpoint>
            <Time>2018-08-26T09:47:41.000Z</Time>
            <Position>
              <LatitudeDegrees>42.97020614147186279296875</LatitudeDegrees>
              <LongitudeDegrees>-1.67620369233191013336181640625</LongitudeDegrees>
            </Position>
            <AltitudeMeters>543.5999755859375</AltitudeMeters>
            <DistanceMeters>74644.754019586</DistanceMeters>
          </Trackpoint>
          <Trackpoint>
            <Time>2018-08-26T09:47:42.000Z</Time>
            <Position>
              <LatitudeDegrees>42.97011553309857845306396484375</LatitudeDegrees>
              <LongitudeDegrees>-1.67619028128683567047119140625</LongitudeDegrees>
            </Position>
            <AltitudeMeters>543.4000244140625</AltitudeMeters>
            <DistanceMeters>74654.897425868</DistanceMeters>
          </Trackpoint>
          <Trackpoint>
            <Time>2018-08-26T09:47:43.000Z</Time>
            <Position>
              <LatitudeDegrees>42.97002584673464298248291015625</LatitudeDegrees>
              <LongitudeDegrees>-1.67618055827915668487548828125</LongitudeDegrees>
            </Position>
            <AltitudeMeters>543.20001220703125</AltitudeMeters>
            <DistanceMeters>74664.910915212</DistanceMeters>
          </Trackpoint>
          <Trackpoint>
            <Time>2018-08-26T09:47:44.000Z</Time>
            <Position>
              <LatitudeDegrees>42.96993532218039035797119140625</LatitudeDegrees>
              <LongitudeDegrees>-1.6761776246130466461181640625</LongitudeDegrees>
            </Position>
            <AltitudeMeters>543</AltitudeMeters>
            <DistanceMeters>74674.98912437</DistanceMeters>
          </Trackpoint>
          <Trackpoint>
            <Time>2018-08-26T09:47:45.000Z</Time>
            <Position>
              <LatitudeDegrees>42.9698438756167888641357421875</LatitudeDegrees>
              <LongitudeDegrees>-1.67618424631655216217041015625</LongitudeDegrees>
            </Position>
            <AltitudeMeters>542.79998779296875</AltitudeMeters>
            <DistanceMeters>74685.1813763</DistanceMeters>
          </Trackpoint>
          <Trackpoint>
            <Time>2018-08-26T09:47:46.000Z</Time>
            <Position>
              <LatitudeDegrees>42.96975108794867992401123046875</LatitudeDegrees>
              <LongitudeDegrees>-1.67620017193257808685302734375</LongitudeDegrees>
            </Position>
            <AltitudeMeters>542.79998779296875</AltitudeMeters>
            <DistanceMeters>74695.590163798</DistanceMeters>
          </Trackpoint>
          <Trackpoint>
            <Time>2018-08-26T09:47:47.000Z</Time>
            <Position>
              <LatitudeDegrees>42.96965804882347583770751953125</LatitudeDegrees>
              <LongitudeDegrees>-1.6762212105095386505126953125</LongitudeDegrees>
            </Position>
            <AltitudeMeters>542.5999755859375</AltitudeMeters>
            <DistanceMeters>74706.086207463</DistanceMeters>
          </Trackpoint>
          <Trackpoint>
            <Time>2018-08-26T09:47:48.000Z</Time>
            <Position>
              <LatitudeDegrees>42.96956400386989116668701171875</LatitudeDegrees>
              <LongitudeDegrees>-1.67624317109584808349609375</LongitudeDegrees>
            </Position>
            <AltitudeMeters>542.5999755859375</AltitudeMeters>
            <DistanceMeters>74716.705416221</DistanceMeters>
          </Trackpoint>
          <Trackpoint>
            <Time>2018-08-26T09:47:49.000Z</Time>
            <Position>
              <LatitudeDegrees>42.969468198716640472412109375</LatitudeDegrees>
              <LongitudeDegrees>-1.6762641258537769317626953125</LongitudeDegrees>
            </Position>
            <AltitudeMeters>542.4000244140625</AltitudeMeters>
            <DistanceMeters>74727.504231304</DistanceMeters>
          </Trackpoint>
          <Trackpoint>
            <Time>2018-08-26T09:47:50.000Z</Time>
            <Position>
              <LatitudeDegrees>42.96936954371631145477294921875</LatitudeDegrees>
              <LongitudeDegrees>-1.67628466151654720306396484375</LongitudeDegrees>
            </Position>
            <AltitudeMeters>542.20001220703125</AltitudeMeters>
            <DistanceMeters>74738.611386852</DistanceMeters>
          </Trackpoint>
          <Trackpoint>
            <Time>2018-08-26T09:47:51.000Z</Time>
            <Position>
              <LatitudeDegrees>42.9692682065069675445556640625</LatitudeDegrees>
              <LongitudeDegrees>-1.67630695737898349761962890625</LongitudeDegrees>
            </Position>
            <AltitudeMeters>542</AltitudeMeters>
            <DistanceMeters>74750.03595358</DistanceMeters>
          </Trackpoint>
          <Trackpoint>
            <Time>2018-08-26T09:47:52.000Z</Time>
            <Position>
              <LatitudeDegrees>42.96916469000279903411865234375</LatitudeDegrees>
              <LongitudeDegrees>-1.67632975615561008453369140625</LongitudeDegrees>
            </Position>
            <AltitudeMeters>542</AltitudeMeters>
            <DistanceMeters>74761.706843567</DistanceMeters>
          </Trackpoint>
          <Trackpoint>
            <Time>2018-08-26T09:47:53.000Z</Time>
            <Position>
              <LatitudeDegrees>42.96905924566090106964111328125</LatitudeDegrees>
              <LongitudeDegrees>-1.67635314166545867919921875</LongitudeDegrees>
            </Position>
            <AltitudeMeters>541.79998779296875</AltitudeMeters>
            <DistanceMeters>74773.596960337</DistanceMeters>
          </Trackpoint>
          <Trackpoint>
            <Time>2018-08-26T09:47:54.000Z</Time>
            <Position>
              <LatitudeDegrees>42.96895329840481281280517578125</LatitudeDegrees>
              <LongitudeDegrees>-1.67637568898499011993408203125</LongitudeDegrees>
            </Position>
            <AltitudeMeters>541.20001220703125</AltitudeMeters>
            <DistanceMeters>74785.531044536</DistanceMeters>
          </Trackpoint>
          <Trackpoint>
            <Time>2018-08-26T09:47:55.000Z</Time>
            <Position>
              <LatitudeDegrees>42.9688467644155025482177734375</LatitudeDegrees>
              <LongitudeDegrees>-1.67639630846679210662841796875</LongitudeDegrees>
            </Position>
            <AltitudeMeters>540.4000244140625</AltitudeMeters>
            <DistanceMeters>74797.506672874</DistanceMeters>
          </Trackpoint>
          <Trackpoint>
            <Time>2018-08-26T09:47:56.000Z</Time>
            <Position>
              <LatitudeDegrees>42.96874039806425571441650390625</LatitudeDegrees>
              <LongitudeDegrees>-1.6764180175960063934326171875</LongitudeDegrees>
            </Position>
            <AltitudeMeters>539.5999755859375</AltitudeMeters>
            <DistanceMeters>74809.476644592</DistanceMeters>
          </Trackpoint>
          <Trackpoint>
            <Time>2018-08-26T09:47:57.000Z</Time>
            <Position>
              <LatitudeDegrees>42.96863495372235774993896484375</LatitudeDegrees>
              <LongitudeDegrees>-1.67643897235393524169921875</LongitudeDegrees>
            </Position>
            <AltitudeMeters>539</AltitudeMeters>
            <DistanceMeters>74821.335963317</DistanceMeters>
          </Trackpoint>
          <Trackpoint>
            <Time>2018-08-26T09:47:58.000Z</Time>
            <Position>
              <LatitudeDegrees>42.968530096113681793212890625</LatitudeDegrees>
              <LongitudeDegrees>-1.6764570772647857666015625</LongitudeDegrees>
            </Position>
            <AltitudeMeters>538.5999755859375</AltitudeMeters>
            <DistanceMeters>74833.100101686</DistanceMeters>
          </Trackpoint>
          <Trackpoint>
            <Time>2018-08-26T09:47:59.000Z</Time>
            <Position>
              <LatitudeDegrees>42.96842716634273529052734375</LatitudeDegrees>
              <LongitudeDegrees>-1.67647442780435085296630859375</LongitudeDegrees>
            </Position>
            <AltitudeMeters>538.20001220703125</AltitudeMeters>
            <DistanceMeters>74844.643403121</DistanceMeters>
          </Trackpoint>
          <Trackpoint>
            <Time>2018-08-26T09:48:00.000Z</Time>
            <Position>
              <LatitudeDegrees>42.96832616440951824188232421875</LatitudeDegrees>
              <LongitudeDegrees>-1.6764927841722965240478515625</LongitudeDegrees>
            </Position>
            <AltitudeMeters>537.5999755859375</AltitudeMeters>
            <DistanceMeters>74855.98387704</DistanceMeters>
          </Trackpoint>
          <Trackpoint>
            <Time>2018-08-26T09:48:01.000Z</Time>
            <Position>
              <LatitudeDegrees>42.968226335942745208740234375</LatitudeDegrees>
              <LongitudeDegrees>-1.676511727273464202880859375</LongitudeDegrees>
            </Position>
            <AltitudeMeters>536.5999755859375</AltitudeMeters>
            <DistanceMeters>74867.201055169</DistanceMeters>
          </Trackpoint>
          <Trackpoint>
            <Time>2018-08-26T09:48:02.000Z</Time>
            <Position>
              <LatitudeDegrees>42.96812768094241619110107421875</LatitudeDegrees>
              <LongitudeDegrees>-1.6765326820313930511474609375</LongitudeDegrees>
            </Position>
            <AltitudeMeters>535.5999755859375</AltitudeMeters>
            <DistanceMeters>74878.313087624</DistanceMeters>
          </Trackpoint>
          <Trackpoint>
            <Time>2018-08-26T09:48:03.000Z</Time>
            <Position>
              <LatitudeDegrees>42.96803019940853118896484375</LatitudeDegrees>
              <LongitudeDegrees>-1.6765548102557659149169921875</LongitudeDegrees>
            </Position>
            <AltitudeMeters>535</AltitudeMeters>
            <DistanceMeters>74889.31158316</DistanceMeters>
          </Trackpoint>
          <Trackpoint>
            <Time>2018-08-26T09:48:04.000Z</Time>
            <Position>
              <LatitudeDegrees>42.96793389134109020233154296875</LatitudeDegrees>
              <LongitudeDegrees>-1.6765752620995044708251953125</LongitudeDegrees>
            </Position>
            <AltitudeMeters>534.4000244140625</AltitudeMeters>
            <DistanceMeters>74900.15962244</DistanceMeters>
          </Trackpoint>
          <Trackpoint>
            <Time>2018-08-26T09:48:05.000Z</Time>
            <Position>
              <LatitudeDegrees>42.9678389243781566619873046875</LatitudeDegrees>
              <LongitudeDegrees>-1.67659479193389415740966796875</LongitudeDegrees>
            </Position>
            <AltitudeMeters>534.20001220703125</AltitudeMeters>
            <DistanceMeters>74910.84875511</DistanceMeters>
          </Trackpoint>
          <Trackpoint>
            <Time>2018-08-26T09:48:06.000Z</Time>
            <Position>
              <LatitudeDegrees>42.9677452147006988525390625</LatitudeDegrees>
              <LongitudeDegrees>-1.676615662872791290283203125</LongitudeDegrees>
            </Position>
            <AltitudeMeters>534</AltitudeMeters>
            <DistanceMeters>74921.416819524</DistanceMeters>
          </Trackpoint>
          <Trackpoint>
            <Time>2018-08-26T09:48:07.000Z</Time>
            <Position>
              <LatitudeDegrees>42.9676525108516216278076171875</LatitudeDegrees>
              <LongitudeDegrees>-1.67663888074457645416259765625</LongitudeDegrees>
            </Position>
            <AltitudeMeters>533.79998779296875</AltitudeMeters>
            <DistanceMeters>74931.907269544</DistanceMeters>
          </Trackpoint>
          <Trackpoint>
            <Time>2018-08-26T09:48:08.000Z</Time>
            <Position>
              <LatitudeDegrees>42.96756089664995670318603515625</LatitudeDegrees>
              <LongitudeDegrees>-1.676667630672454833984375</LongitudeDegrees>
            </Position>
            <AltitudeMeters>533.5999755859375</AltitudeMeters>
            <DistanceMeters>74942.369706481</DistanceMeters>
          </Trackpoint>
          <Trackpoint>
            <Time>2018-08-26T09:48:09.000Z</Time>
            <Position>
              <LatitudeDegrees>42.96747238375246524810791015625</LatitudeDegrees>
              <LongitudeDegrees>-1.6767076961696147918701171875</LongitudeDegrees>
            </Position>
            <AltitudeMeters>533.5999755859375</AltitudeMeters>
            <DistanceMeters>74952.747650485</DistanceMeters>
          </Trackpoint>
          <Trackpoint>
            <Time>2018-08-26T09:48:10.000Z</Time>
            <Position>
              <LatitudeDegrees>42.9673859663307666778564453125</LatitudeDegrees>
              <LongitudeDegrees>-1.67674901895225048065185546875</LongitudeDegrees>
            </Position>
            <AltitudeMeters>533.4000244140625</AltitudeMeters>
            <DistanceMeters>74962.938130312</DistanceMeters>
          </Trackpoint>
          <Trackpoint>
            <Time>2018-08-26T09:48:11.000Z</Time>
            <Position>
              <LatitudeDegrees>42.96729837544262409210205078125</LatitudeDegrees>
              <LongitudeDegrees>-1.67676410637795925140380859375</LongitudeDegrees>
            </Position>
            <AltitudeMeters>533.20001220703125</AltitudeMeters>
            <DistanceMeters>74972.76409476</DistanceMeters>
          </Trackpoint>
          <Trackpoint>
            <Time>2018-08-26T09:48:12.000Z</Time>
            <Position>
              <LatitudeDegrees>42.967213131487369537353515625</LatitudeDegrees>
              <LongitudeDegrees>-1.6767387092113494873046875</LongitudeDegrees>
            </Position>
            <AltitudeMeters>533</AltitudeMeters>
            <DistanceMeters>74982.474504547</DistanceMeters>
          </Trackpoint>
          <Trackpoint>
            <Time>2018-08-26T09:48:13.000Z</Time>
            <Position>
              <LatitudeDegrees>42.96713375486433506011962890625</LatitudeDegrees>
              <LongitudeDegrees>-1.67668414302170276641845703125</LongitudeDegrees>
            </Position>
            <AltitudeMeters>532.5999755859375</AltitudeMeters>
            <DistanceMeters>74992.364133355</DistanceMeters>
          </Trackpoint>
          <Trackpoint>
            <Time>2018-08-26T09:48:14.000Z</Time>
            <Position>
              <LatitudeDegrees>42.96705680899322032928466796875</LatitudeDegrees>
              <LongitudeDegrees>-1.67662546969950199127197265625</LongitudeDegrees>
            </Position>
            <AltitudeMeters>532.5999755859375</AltitudeMeters>
            <DistanceMeters>75002.17170055</DistanceMeters>
          </Trackpoint>
          <Trackpoint>
            <Time>2018-08-26T09:48:15.000Z</Time>
            <Position>
              <LatitudeDegrees>42.96697617508471012115478515625</LatitudeDegrees>
              <LongitudeDegrees>-1.6765782795846462249755859375</LongitudeDegrees>
            </Position>
            <AltitudeMeters>532.4000244140625</AltitudeMeters>
            <DistanceMeters>75011.934972898</DistanceMeters>
          </Trackpoint>
          <Trackpoint>
            <Time>2018-08-26T09:48:16.000Z</Time>
            <Position>
              <LatitudeDegrees>42.966891936957836151123046875</LatitudeDegrees>
              <LongitudeDegrees>-1.676543913781642913818359375</LongitudeDegrees>
            </Position>
            <AltitudeMeters>532.20001220703125</AltitudeMeters>
            <DistanceMeters>75021.719494882</DistanceMeters>
          </Trackpoint>
          <Trackpoint>
            <Time>2018-08-26T09:48:17.000Z</Time>
            <Position>
              <LatitudeDegrees>42.96680635772645473480224609375</LatitudeDegrees>
              <LongitudeDegrees>-1.67651482857763767242431640625</LongitudeDegrees>
            </Position>
            <AltitudeMeters>532</AltitudeMeters>
            <DistanceMeters>75031.535345108</DistanceMeters>
          </Trackpoint>
          <Trackpoint>
            <Time>2018-08-26T09:48:18.000Z</Time>
            <Position>
              <LatitudeDegrees>42.9667206108570098876953125</LatitudeDegrees>
              <LongitudeDegrees>-1.676488257944583892822265625</LongitudeDegrees>
            </Position>
            <AltitudeMeters>531.5999755859375</AltitudeMeters>
            <DistanceMeters>75041.321712706</DistanceMeters>
          </Trackpoint>
          <Trackpoint>
            <Time>2018-08-26T09:48:19.000Z</Time>
            <Position>
              <LatitudeDegrees>42.9666347801685333251953125</LatitudeDegrees>
              <LongitudeDegrees>-1.67645984329283237457275390625</LongitudeDegrees>
            </Position>
            <AltitudeMeters>531.4000244140625</AltitudeMeters>
            <DistanceMeters>75051.151352473</DistanceMeters>
          </Trackpoint>
          <Trackpoint>
            <Time>2018-08-26T09:48:20.000Z</Time>
            <Position>
              <LatitudeDegrees>42.96655037440359592437744140625</LatitudeDegrees>
              <LongitudeDegrees>-1.67643067426979541778564453125</LongitudeDegrees>
            </Position>
            <AltitudeMeters>531.20001220703125</AltitudeMeters>
            <DistanceMeters>75060.842213891</DistanceMeters>
          </Trackpoint>
          <Trackpoint>
            <Time>2018-08-26T09:48:21.000Z</Time>
            <Position>
              <LatitudeDegrees>42.96646638773381710052490234375</LatitudeDegrees>
              <LongitudeDegrees>-1.67639798484742641448974609375</LongitudeDegrees>
            </Position>
            <AltitudeMeters>531.20001220703125</AltitudeMeters>
            <DistanceMeters>75070.561918606</DistanceMeters>
          </Trackpoint>
          <Trackpoint>
            <Time>2018-08-26T09:48:22.000Z</Time>
            <Position>
              <LatitudeDegrees>42.96638256870210170745849609375</LatitudeDegrees>
              <LongitudeDegrees>-1.6763663850724697113037109375</LongitudeDegrees>
            </Position>
            <AltitudeMeters>531</AltitudeMeters>
            <DistanceMeters>75080.239725841</DistanceMeters>
          </Trackpoint>
          <Trackpoint>
            <Time>2018-08-26T09:48:23.000Z</Time>
            <Position>
              <LatitudeDegrees>42.96629958786070346832275390625</LatitudeDegrees>
              <LongitudeDegrees>-1.67633662931621074676513671875</LongitudeDegrees>
            </Position>
            <AltitudeMeters>530.79998779296875</AltitudeMeters>
            <DistanceMeters>75089.78837401</DistanceMeters>
          </Trackpoint>
          <Trackpoint>
            <Time>2018-08-26T09:48:24.000Z</Time>
            <Position>
              <LatitudeDegrees>42.96621702611446380615234375</LatitudeDegrees>
              <LongitudeDegrees>-1.6763057000935077667236328125</LongitudeDegrees>
            </Position>
            <AltitudeMeters>530.79998779296875</AltitudeMeters>
            <DistanceMeters>75099.316668116</DistanceMeters>
          </Trackpoint>
          <Trackpoint>
            <Time>2018-08-26T09:48:25.000Z</Time>
            <Position>
              <LatitudeDegrees>42.96613429673016071319580078125</LatitudeDegrees>
              <LongitudeDegrees>-1.67627627961337566375732421875</LongitudeDegrees>
            </Position>
            <AltitudeMeters>530.79998779296875</AltitudeMeters>
            <DistanceMeters>75108.831210478</DistanceMeters>
          </Trackpoint>
          <Trackpoint>
            <Time>2018-08-26T09:48:26.000Z</Time>
            <Position>
              <LatitudeDegrees>42.966051064431667327880859375</LatitudeDegrees>
              <LongitudeDegrees>-1.6762476973235607147216796875</LongitudeDegrees>
            </Position>
            <AltitudeMeters>530.5999755859375</AltitudeMeters>
            <DistanceMeters>75118.383167994</DistanceMeters>
          </Trackpoint>
          <Trackpoint>
            <Time>2018-08-26T09:48:27.000Z</Time>
            <Position>
              <LatitudeDegrees>42.96596682630479335784912109375</LatitudeDegrees>
              <LongitudeDegrees>-1.6762185283005237579345703125</LongitudeDegrees>
            </Position>
            <AltitudeMeters>530.5999755859375</AltitudeMeters>
            <DistanceMeters>75128.055375185</DistanceMeters>
          </Trackpoint>
          <Trackpoint>
            <Time>2018-08-26T09:48:28.000Z</Time>
            <Position>
              <LatitudeDegrees>42.96588300727307796478271484375</LatitudeDegrees>
              <LongitudeDegrees>-1.676190197467803955078125</LongitudeDegrees>
            </Position>
            <AltitudeMeters>530.4000244140625</AltitudeMeters>
            <DistanceMeters>75137.66623633</DistanceMeters>
          </Trackpoint>
          <Trackpoint>
            <Time>2018-08-26T09:48:29.000Z</Time>
            <Position>
              <LatitudeDegrees>42.96579902060329914093017578125</LatitudeDegrees>
              <LongitudeDegrees>-1.67616044171154499053955078125</LongitudeDegrees>
            </Position>
            <AltitudeMeters>530.4000244140625</AltitudeMeters>
            <DistanceMeters>75147.323494197</DistanceMeters>
          </Trackpoint>
          <Trackpoint>
            <Time>2018-08-26T09:48:30.000Z</Time>
            <Position>
              <LatitudeDegrees>42.96571545302867889404296875</LatitudeDegrees>
              <LongitudeDegrees>-1.676130183041095733642578125</LongitudeDegrees>
            </Position>
            <AltitudeMeters>530.20001220703125</AltitudeMeters>
            <DistanceMeters>75156.945623576</DistanceMeters>
          </Trackpoint>
          <Trackpoint>
            <Time>2018-08-26T09:48:31.000Z</Time>
            <Position>
              <LatitudeDegrees>42.96563230454921722412109375</LatitudeDegrees>
              <LongitudeDegrees>-1.6761011816561222076416015625</LongitudeDegrees>
            </Position>
            <AltitudeMeters>530</AltitudeMeters>
            <DistanceMeters>75166.496635681</DistanceMeters>
          </Trackpoint>
          <Trackpoint>
            <Time>2018-08-26T09:48:32.000Z</Time>
            <Position>
              <LatitudeDegrees>42.96554907225072383880615234375</LatitudeDegrees>
              <LongitudeDegrees>-1.67607276700437068939208984375</LongitudeDegrees>
            </Position>
            <AltitudeMeters>529.79998779296875</AltitudeMeters>
            <DistanceMeters>75176.044810993</DistanceMeters>
          </Trackpoint>
          <Trackpoint>
            <Time>2018-08-26T09:48:33.000Z</Time>
            <Position>
              <LatitudeDegrees>42.96546575613319873809814453125</LatitudeDegrees>
              <LongitudeDegrees>-1.6760418377816677093505859375</LongitudeDegrees>
            </Position>
            <AltitudeMeters>529.79998779296875</AltitudeMeters>
            <DistanceMeters>75185.654262679</DistanceMeters>
          </Trackpoint>
          <Trackpoint>
            <Time>2018-08-26T09:48:34.000Z</Time>
            <Position>
              <LatitudeDegrees>42.9653833620250225067138671875</LatitudeDegrees>
              <LongitudeDegrees>-1.6760099865496158599853515625</LongitudeDegrees>
            </Position>
            <AltitudeMeters>529.79998779296875</AltitudeMeters>
            <DistanceMeters>75195.18445202</DistanceMeters>
          </Trackpoint>
          <Trackpoint>
            <Time>2018-08-26T09:48:35.000Z</Time>
            <Position>
              <LatitudeDegrees>42.96530130319297313690185546875</LatitudeDegrees>
              <LongitudeDegrees>-1.6759841702878475189208984375</LongitudeDegrees>
            </Position>
            <AltitudeMeters>529.5999755859375</AltitudeMeters>
            <DistanceMeters>75204.55603265</DistanceMeters>
          </Trackpoint>
          <Trackpoint>
            <Time>2018-08-26T09:48:36.000Z</Time>
            <Position>
              <LatitudeDegrees>42.96521865762770175933837890625</LatitudeDegrees>
              <LongitudeDegrees>-1.67595692910254001617431640625</LongitudeDegrees>
            </Position>
            <AltitudeMeters>529.5999755859375</AltitudeMeters>
            <DistanceMeters>75214.018708699</DistanceMeters>
          </Trackpoint>
          <Trackpoint>
            <Time>2018-08-26T09:48:37.000Z</Time>
            <Position>
              <LatitudeDegrees>42.9651355929672718048095703125</LatitudeDegrees>
              <LongitudeDegrees>-1.6759298555552959442138671875</LongitudeDegrees>
            </Position>
            <AltitudeMeters>529.5999755859375</AltitudeMeters>
            <DistanceMeters>75223.523755507</DistanceMeters>
          </Trackpoint>
          <Trackpoint>
            <Time>2018-08-26T09:48:38.000Z</Time>
            <Position>
              <LatitudeDegrees>42.96505303122103214263916015625</LatitudeDegrees>
              <LongitudeDegrees>-1.67590395547449588775634765625</LongitudeDegrees>
            </Position>
            <AltitudeMeters>529.4000244140625</AltitudeMeters>
            <DistanceMeters>75232.95249363</DistanceMeters>
          </Trackpoint>
          <Trackpoint>
            <Time>2018-08-26T09:48:39.000Z</Time>
            <Position>
              <LatitudeDegrees>42.96497105620801448822021484375</LatitudeDegrees>
              <LongitudeDegrees>-1.675880737602710723876953125</LongitudeDegrees>
            </Position>
            <AltitudeMeters>529.4000244140625</AltitudeMeters>
            <DistanceMeters>75242.269958679</DistanceMeters>
          </Trackpoint>
          <Trackpoint>
            <Time>2018-08-26T09:48:40.000Z</Time>
            <Position>
              <LatitudeDegrees>42.96488933265209197998046875</LatitudeDegrees>
              <LongitudeDegrees>-1.67585534043610095977783203125</LongitudeDegrees>
            </Position>
            <AltitudeMeters>529.4000244140625</AltitudeMeters>
            <DistanceMeters>75251.597594314</DistanceMeters>
          </Trackpoint>
          <Trackpoint>
            <Time>2018-08-26T09:48:41.000Z</Time>
            <Position>
              <LatitudeDegrees>42.96480895020067691802978515625</LatitudeDegrees>
              <LongitudeDegrees>-1.6758294403553009033203125</LongitudeDegrees>
            </Position>
            <AltitudeMeters>529.20001220703125</AltitudeMeters>
            <DistanceMeters>75260.790170414</DistanceMeters>
          </Trackpoint>
          <Trackpoint>
            <Time>2018-08-26T09:48:42.000Z</Time>
            <Position>
              <LatitudeDegrees>42.96472915448248386383056640625</LatitudeDegrees>
              <LongitudeDegrees>-1.67580286972224712371826171875</LongitudeDegrees>
            </Position>
            <AltitudeMeters>529.20001220703125</AltitudeMeters>
            <DistanceMeters>75269.932016917</DistanceMeters>
          </Trackpoint>
          <Trackpoint>
            <Time>2018-08-26T09:48:43.000Z</Time>
            <Position>
              <LatitudeDegrees>42.964650951325893402099609375</LatitudeDegrees>
              <LongitudeDegrees>-1.67577587999403476715087890625</LongitudeDegrees>
            </Position>
            <AltitudeMeters>529.20001220703125</AltitudeMeters>
            <DistanceMeters>75278.909904327</DistanceMeters>
          </Trackpoint>
          <Trackpoint>
            <Time>2018-08-26T09:48:44.000Z</Time>
            <Position>
              <LatitudeDegrees>42.96457308344542980194091796875</LatitudeDegrees>
              <LongitudeDegrees>-1.67574486695230007171630859375</LongitudeDegrees>
            </Position>
            <AltitudeMeters>529.20001220703125</AltitudeMeters>
            <DistanceMeters>75287.936942038</DistanceMeters>
          </Trackpoint>
          <Trackpoint>
            <Time>2018-08-26T09:48:45.000Z</Time>
            <Position>
              <LatitudeDegrees>42.9644955508410930633544921875</LatitudeDegrees>
              <LongitudeDegrees>-1.67570815421640872955322265625</LongitudeDegrees>
            </Position>
            <AltitudeMeters>529.20001220703125</AltitudeMeters>
            <DistanceMeters>75297.06989425</DistanceMeters>
          </Trackpoint>
          <Trackpoint>
            <Time>2018-08-26T09:48:46.000Z</Time>
            <Position>
              <LatitudeDegrees>42.964419610798358917236328125</LatitudeDegrees>
              <LongitudeDegrees>-1.67566758580505847930908203125</LongitudeDegrees>
            </Position>
            <AltitudeMeters>529.20001220703125</AltitudeMeters>
            <DistanceMeters>75306.144821091</DistanceMeters>
          </Trackpoint>
          <Trackpoint>
            <Time>2018-08-26T09:48:47.000Z</Time>
            <Position>
              <LatitudeDegrees>42.964345514774322509765625</LatitudeDegrees>
              <LongitudeDegrees>-1.6756260953843593597412109375</LongitudeDegrees>
            </Position>
            <AltitudeMeters>529.4000244140625</AltitudeMeters>
            <DistanceMeters>75315.057090858</DistanceMeters>
          </Trackpoint>
          <Trackpoint>
            <Time>2018-08-26T09:48:48.000Z</Time>
            <Position>
              <LatitudeDegrees>42.96427284367382526397705078125</LatitudeDegrees>
              <LongitudeDegrees>-1.67558024637401103973388671875</LongitudeDegrees>
            </Position>
            <AltitudeMeters>529.4000244140625</AltitudeMeters>
            <DistanceMeters>75323.966320451</DistanceMeters>
          </Trackpoint>
          <Trackpoint>
            <Time>2018-08-26T09:48:49.000Z</Time>
            <Position>
              <LatitudeDegrees>42.96420134603977203369140625</LatitudeDegrees>
              <LongitudeDegrees>-1.6755292005836963653564453125</LongitudeDegrees>
            </Position>
            <AltitudeMeters>529.20001220703125</AltitudeMeters>
            <DistanceMeters>75332.945213617</DistanceMeters>
          </Trackpoint>
          <Trackpoint>
            <Time>2018-08-26T09:48:50.000Z</Time>
            <Position>
              <LatitudeDegrees>42.96412984840571880340576171875</LatitudeDegrees>
              <LongitudeDegrees>-1.675478406250476837158203125</LongitudeDegrees>
            </Position>
            <AltitudeMeters>529.20001220703125</AltitudeMeters>
            <DistanceMeters>75341.914547541</DistanceMeters>
          </Trackpoint>
          <Trackpoint>
            <Time>2018-08-26T09:48:51.000Z</Time>
            <Position>
              <LatitudeDegrees>42.96406053006649017333984375</LatitudeDegrees>
              <LongitudeDegrees>-1.6754217445850372314453125</LongitudeDegrees>
            </Position>
            <AltitudeMeters>529.20001220703125</AltitudeMeters>
            <DistanceMeters>75350.904496605</DistanceMeters>
          </Trackpoint>
          <Trackpoint>
            <Time>2018-08-26T09:48:52.000Z</Time>
            <Position>
              <LatitudeDegrees>42.96399523504078388214111328125</LatitudeDegrees>
              <LongitudeDegrees>-1.67536315508186817169189453125</LongitudeDegrees>
            </Position>
            <AltitudeMeters>529.20001220703125</AltitudeMeters>
            <DistanceMeters>75359.599311151</DistanceMeters>
          </Trackpoint>
          <Trackpoint>
            <Time>2018-08-26T09:48:53.000Z</Time>
            <Position>
              <LatitudeDegrees>42.96392901800572872161865234375</LatitudeDegrees>
              <LongitudeDegrees>-1.67529777623713016510009765625</LongitudeDegrees>
            </Position>
            <AltitudeMeters>529.20001220703125</AltitudeMeters>
            <DistanceMeters>75368.691634828</DistanceMeters>
          </Trackpoint>
          <Trackpoint>
            <Time>2018-08-26T09:48:54.000Z</Time>
            <Position>
              <LatitudeDegrees>42.9638612084090709686279296875</LatitudeDegrees>
              <LongitudeDegrees>-1.67523256503045558929443359375</LongitudeDegrees>
            </Position>
            <AltitudeMeters>529</AltitudeMeters>
            <DistanceMeters>75377.920485299</DistanceMeters>
          </Trackpoint>
          <Trackpoint>
            <Time>2018-08-26T09:48:55.000Z</Time>
            <Position>
              <LatitudeDegrees>42.963795326650142669677734375</LatitudeDegrees>
              <LongitudeDegrees>-1.675165258347988128662109375</LongitudeDegrees>
            </Position>
            <AltitudeMeters>529</AltitudeMeters>
            <DistanceMeters>75387.076150192</DistanceMeters>
          </Trackpoint>
          <Trackpoint>
            <Time>2018-08-26T09:48:56.000Z</Time>
            <Position>
              <LatitudeDegrees>42.9637326300144195556640625</LatitudeDegrees>
              <LongitudeDegrees>-1.675086803734302520751953125</LongitudeDegrees>
            </Position>
            <AltitudeMeters>528.79998779296875</AltitudeMeters>
            <DistanceMeters>75396.538349088</DistanceMeters>
          </Trackpoint>
          <Trackpoint>
            <Time>2018-08-26T09:48:57.000Z</Time>
            <Position>
              <LatitudeDegrees>42.9636744596064090728759765625</LatitudeDegrees>
              <LongitudeDegrees>-1.6750028170645236968994140625</LongitudeDegrees>
            </Position>
            <AltitudeMeters>528.79998779296875</AltitudeMeters>
            <DistanceMeters>75405.957025799</DistanceMeters>
          </Trackpoint>
          <Trackpoint>
            <Time>2018-08-26T09:48:58.000Z</Time>
            <Position>
              <LatitudeDegrees>42.96361863613128662109375</LatitudeDegrees>
              <LongitudeDegrees>-1.674915812909603118896484375</LongitudeDegrees>
            </Position>
            <AltitudeMeters>528.5999755859375</AltitudeMeters>
            <DistanceMeters>75415.381453203</DistanceMeters>
          </Trackpoint>
          <Trackpoint>
            <Time>2018-08-26T09:48:59.000Z</Time>
            <Position>
              <LatitudeDegrees>42.96356289647519588470458984375</LatitudeDegrees>
              <LongitudeDegrees>-1.67483023367822170257568359375</LongitudeDegrees>
            </Position>
            <AltitudeMeters>528.5999755859375</AltitudeMeters>
            <DistanceMeters>75424.711992684</DistanceMeters>
          </Trackpoint>
          <Trackpoint>
            <Time>2018-08-26T09:49:00.000Z</Time>
            <Position>
              <LatitudeDegrees>42.96350640244781970977783203125</LatitudeDegrees>
              <LongitudeDegrees>-1.67474188841879367828369140625</LongitudeDegrees>
            </Position>
            <AltitudeMeters>528.5999755859375</AltitudeMeters>
            <DistanceMeters>75434.267730907</DistanceMeters>
          </Trackpoint>
          <Trackpoint>
            <Time>2018-08-26T09:49:01.000Z</Time>
            <Position>
              <LatitudeDegrees>42.96344957314431667327880859375</LatitudeDegrees>
              <LongitudeDegrees>-1.67465471662580966949462890625</LongitudeDegrees>
            </Position>
            <AltitudeMeters>528.4000244140625</AltitudeMeters>
            <DistanceMeters>75443.777051888</DistanceMeters>
          </Trackpoint>
          <Trackpoint>
            <Time>2018-08-26T09:49:02.000Z</Time>
            <Position>
              <LatitudeDegrees>42.9633945040404796600341796875</LatitudeDegrees>
              <LongitudeDegrees>-1.6745674610137939453125</LongitudeDegrees>
            </Position>
            <AltitudeMeters>528.4000244140625</AltitudeMeters>
            <DistanceMeters>75453.162112657</DistanceMeters>
          </Trackpoint>
          <Trackpoint>
            <Time>2018-08-26T09:49:03.000Z</Time>
            <Position>
              <LatitudeDegrees>42.9633395187556743621826171875</LatitudeDegrees>
              <LongitudeDegrees>-1.67447567917406558990478515625</LongitudeDegrees>
            </Position>
            <AltitudeMeters>528.4000244140625</AltitudeMeters>
            <DistanceMeters>75462.824044673</DistanceMeters>
          </Trackpoint>
          <Trackpoint>
            <Time>2018-08-26T09:49:04.000Z</Time>
            <Position>
              <LatitudeDegrees>42.96328444965183734893798828125</LatitudeDegrees>
              <LongitudeDegrees>-1.67437895201146602630615234375</LongitudeDegrees>
            </Position>
            <AltitudeMeters>528.20001220703125</AltitudeMeters>
            <DistanceMeters>75472.805921424</DistanceMeters>
          </Trackpoint>
          <Trackpoint>
            <Time>2018-08-26T09:49:05.000Z</Time>
            <Position>
              <LatitudeDegrees>42.96322979964315891265869140625</LatitudeDegrees>
              <LongitudeDegrees>-1.6742880083620548248291015625</LongitudeDegrees>
            </Position>
            <AltitudeMeters>528.20001220703125</AltitudeMeters>
            <DistanceMeters>75482.390438505</DistanceMeters>
          </Trackpoint>
          <Trackpoint>
            <Time>2018-08-26T09:49:06.000Z</Time>
            <Position>
              <LatitudeDegrees>42.96317531727254390716552734375</LatitudeDegrees>
              <LongitudeDegrees>-1.6741984896361827850341796875</LongitudeDegrees>
            </Position>
            <AltitudeMeters>528.20001220703125</AltitudeMeters>
            <DistanceMeters>75491.873609457</DistanceMeters>
          </Trackpoint>
          <Trackpoint>
            <Time>2018-08-26T09:49:07.000Z</Time>
            <Position>
              <LatitudeDegrees>42.96312133781611919403076171875</LatitudeDegrees>
              <LongitudeDegrees>-1.6741086356341838836669921875</LongitudeDegrees>
            </Position>
            <AltitudeMeters>528.20001220703125</AltitudeMeters>
            <DistanceMeters>75501.342486318</DistanceMeters>
          </Trackpoint>
          <Trackpoint>
            <Time>2018-08-26T09:49:08.000Z</Time>
            <Position>
              <LatitudeDegrees>42.96306853182613849639892578125</LatitudeDegrees>
              <LongitudeDegrees>-1.67402037419378757476806640625</LongitudeDegrees>
            </Position>
            <AltitudeMeters>528.20001220703125</AltitudeMeters>
            <DistanceMeters>75510.627914142</DistanceMeters>
          </Trackpoint>
          <Trackpoint>
            <Time>2018-08-26T09:49:09.000Z</Time>
            <Position>
              <LatitudeDegrees>42.96301472000777721405029296875</LatitudeDegrees>
              <LongitudeDegrees>-1.67393018491566181182861328125</LongitudeDegrees>
            </Position>
            <AltitudeMeters>528.20001220703125</AltitudeMeters>
            <DistanceMeters>75520.105846431</DistanceMeters>
          </Trackpoint>
          <Trackpoint>
            <Time>2018-08-26T09:49:10.000Z</Time>
            <Position>
              <LatitudeDegrees>42.96296090818941593170166015625</LatitudeDegrees>
              <LongitudeDegrees>-1.67383966036140918731689453125</LongitudeDegrees>
            </Position>
            <AltitudeMeters>528</AltitudeMeters>
            <DistanceMeters>75529.605666639</DistanceMeters>
          </Trackpoint>
          <Trackpoint>
            <Time>2018-08-26T09:49:11.000Z</Time>
            <Position>
              <LatitudeDegrees>42.96290575526654720306396484375</LatitudeDegrees>
              <LongitudeDegrees>-1.6737505607306957244873046875</LongitudeDegrees>
            </Position>
            <AltitudeMeters>528</AltitudeMeters>
            <DistanceMeters>75539.11118845</DistanceMeters>
          </Trackpoint>
          <Trackpoint>
            <Time>2018-08-26T09:49:12.000Z</Time>
            <Position>
              <LatitudeDegrees>42.96285110525786876678466796875</LatitudeDegrees>
              <LongitudeDegrees>-1.673666574060916900634765625</LongitudeDegrees>
            </Position>
            <AltitudeMeters>528</AltitudeMeters>
            <DistanceMeters>75548.264880564</DistanceMeters>
          </Trackpoint>
          <Trackpoint>
            <Time>2018-08-26T09:49:13.000Z</Time>
            <Position>
              <LatitudeDegrees>42.9627978801727294921875</LatitudeDegrees>
              <LongitudeDegrees>-1.67358107864856719970703125</LongitudeDegrees>
            </Position>
            <AltitudeMeters>528</AltitudeMeters>
            <DistanceMeters>75557.407220941</DistanceMeters>
          </Trackpoint>
          <Trackpoint>
            <Time>2018-08-26T09:49:14.000Z</Time>
            <Position>
              <LatitudeDegrees>42.96274448744952678680419921875</LatitudeDegrees>
              <LongitudeDegrees>-1.673493571579456329345703125</LongitudeDegrees>
            </Position>
            <AltitudeMeters>527.79998779296875</AltitudeMeters>
            <DistanceMeters>75566.686811932</DistanceMeters>
          </Trackpoint>
          <Trackpoint>
            <Time>2018-08-26T09:49:15.000Z</Time>
            <Position>
              <LatitudeDegrees>42.96269134618341922760009765625</LatitudeDegrees>
              <LongitudeDegrees>-1.67340447194874286651611328125</LongitudeDegrees>
            </Position>
            <AltitudeMeters>527.79998779296875</AltitudeMeters>
            <DistanceMeters>75576.048752007</DistanceMeters>
          </Trackpoint>
          <Trackpoint>
            <Time>2018-08-26T09:49:16.000Z</Time>
            <Position>
              <LatitudeDegrees>42.9626382887363433837890625</LatitudeDegrees>
              <LongitudeDegrees>-1.67331679724156856536865234375</LongitudeDegrees>
            </Position>
            <AltitudeMeters>527.5999755859375</AltitudeMeters>
            <DistanceMeters>75585.315196682</DistanceMeters>
          </Trackpoint>
          <Trackpoint>
            <Time>2018-08-26T09:49:17.000Z</Time>
            <Position>
              <LatitudeDegrees>42.96258338727056980133056640625</LatitudeDegrees>
              <LongitudeDegrees>-1.67322543449699878692626953125</LongitudeDegrees>
            </Position>
            <AltitudeMeters>527.4000244140625</AltitudeMeters>
            <DistanceMeters>75594.943893107</DistanceMeters>
          </Trackpoint>
          <Trackpoint>
            <Time>2018-08-26T09:49:18.000Z</Time>
            <Position>
              <LatitudeDegrees>42.96252974309027194976806640625</LatitudeDegrees>
              <LongitudeDegrees>-1.6731406934559345245361328125</LongitudeDegrees>
            </Position>
            <AltitudeMeters>527.20001220703125</AltitudeMeters>
            <DistanceMeters>75604.070416274</DistanceMeters>
          </Trackpoint>
          <Trackpoint>
            <Time>2018-08-26T09:49:19.000Z</Time>
            <Position>
              <LatitudeDegrees>42.962476350367069244384765625</LatitudeDegrees>
              <LongitudeDegrees>-1.67305595241487026214599609375</LongitudeDegrees>
            </Position>
            <AltitudeMeters>527.20001220703125</AltitudeMeters>
            <DistanceMeters>75613.178120826</DistanceMeters>
          </Trackpoint>
          <Trackpoint>
            <Time>2018-08-26T09:49:20.000Z</Time>
            <Position>
              <LatitudeDegrees>42.9624232091009616851806640625</LatitudeDegrees>
              <LongitudeDegrees>-1.67297062464058399200439453125</LongitudeDegrees>
            </Position>
            <AltitudeMeters>527.20001220703125</AltitudeMeters>
            <DistanceMeters>75622.303654507</DistanceMeters>
          </Trackpoint>
          <Trackpoint>
            <Time>2018-08-26T09:49:21.000Z</Time>
            <Position>
              <LatitudeDegrees>42.96236939728260040283203125</LatitudeDegrees>
              <LongitudeDegrees>-1.672886721789836883544921875</LongitudeDegrees>
            </Position>
            <AltitudeMeters>527.20001220703125</AltitudeMeters>
            <DistanceMeters>75631.390514196</DistanceMeters>
          </Trackpoint>
          <Trackpoint>
            <Time>2018-08-26T09:49:22.000Z</Time>
            <Position>
              <LatitudeDegrees>42.96231550164520740509033203125</LatitudeDegrees>
              <LongitudeDegrees>-1.6728013940155506134033203125</LongitudeDegrees>
            </Position>
            <AltitudeMeters>527.20001220703125</AltitudeMeters>
            <DistanceMeters>75640.571294856</DistanceMeters>
          </Trackpoint>
          <Trackpoint>
            <Time>2018-08-26T09:49:23.000Z</Time>
            <Position>
              <LatitudeDegrees>42.96226202510297298431396484375</LatitudeDegrees>
              <LongitudeDegrees>-1.67271581478416919708251953125</LongitudeDegrees>
            </Position>
            <AltitudeMeters>527.20001220703125</AltitudeMeters>
            <DistanceMeters>75649.73730987</DistanceMeters>
          </Trackpoint>
          <Trackpoint>
            <Time>2018-08-26T09:49:24.000Z</Time>
            <Position>
              <LatitudeDegrees>42.96220787800848484039306640625</LatitudeDegrees>
              <LongitudeDegrees>-1.672629229724407196044921875</LongitudeDegrees>
            </Position>
            <AltitudeMeters>527.20001220703125</AltitudeMeters>
            <DistanceMeters>75659.013981068</DistanceMeters>
          </Trackpoint>
          <Trackpoint>
            <Time>2018-08-26T09:49:25.000Z</Time>
            <Position>
              <LatitudeDegrees>42.962155155837535858154296875</LatitudeDegrees>
              <LongitudeDegrees>-1.67254230938851833343505859375</LongitudeDegrees>
            </Position>
            <AltitudeMeters>527.20001220703125</AltitudeMeters>
            <DistanceMeters>75668.209503664</DistanceMeters>
          </Trackpoint>
          <Trackpoint>
            <Time>2018-08-26T09:49:26.000Z</Time>
            <Position>
              <LatitudeDegrees>42.962103523313999176025390625</LatitudeDegrees>
              <LongitudeDegrees>-1.672454215586185455322265625</LongitudeDegrees>
            </Position>
            <AltitudeMeters>527.20001220703125</AltitudeMeters>
            <DistanceMeters>75677.402079765</DistanceMeters>
          </Trackpoint>
          <Trackpoint>
            <Time>2018-08-26T09:49:27.000Z</Time>
            <Position>
              <LatitudeDegrees>42.96205113641917705535888671875</LatitudeDegrees>
              <LongitudeDegrees>-1.67236679233610630035400390625</LongitudeDegrees>
            </Position>
            <AltitudeMeters>527.20001220703125</AltitudeMeters>
            <DistanceMeters>75686.605455072</DistanceMeters>
          </Trackpoint>
          <Trackpoint>
            <Time>2018-08-26T09:49:28.000Z</Time>
            <Position>
              <LatitudeDegrees>42.96199715696275234222412109375</LatitudeDegrees>
              <LongitudeDegrees>-1.672281213104724884033203125</LongitudeDegrees>
            </Position>
            <AltitudeMeters>527.20001220703125</AltitudeMeters>
            <DistanceMeters>75695.807849157</DistanceMeters>
          </Trackpoint>
          <Trackpoint>
            <Time>2018-08-26T09:49:29.000Z</Time>
            <Position>
              <LatitudeDegrees>42.9619427584111690521240234375</LatitudeDegrees>
              <LongitudeDegrees>-1.67219731025397777557373046875</LongitudeDegrees>
            </Position>
            <AltitudeMeters>527.4000244140625</AltitudeMeters>
            <DistanceMeters>75704.93783468</DistanceMeters>
          </Trackpoint>
          <Trackpoint>
            <Time>2018-08-26T09:49:30.000Z</Time>
            <Position>
              <LatitudeDegrees>42.9618891142308712005615234375</LatitudeDegrees>
              <LongitudeDegrees>-1.67211198247969150543212890625</LongitudeDegrees>
            </Position>
            <AltitudeMeters>527.4000244140625</AltitudeMeters>
            <DistanceMeters>75714.099908169</DistanceMeters>
          </Trackpoint>
          <Trackpoint>
            <Time>2018-08-26T09:49:31.000Z</Time>
            <Position>
              <LatitudeDegrees>42.96183697879314422607421875</LatitudeDegrees>
              <LongitudeDegrees>-1.6720295883715152740478515625</LongitudeDegrees>
            </Position>
            <AltitudeMeters>527.4000244140625</AltitudeMeters>
            <DistanceMeters>75722.971556623</DistanceMeters>
          </Trackpoint>
          <Trackpoint>
            <Time>2018-08-26T09:49:32.000Z</Time>
            <Position>
              <LatitudeDegrees>42.961783669888973236083984375</LatitudeDegrees>
              <LongitudeDegrees>-1.671943925321102142333984375</LongitudeDegrees>
            </Position>
            <AltitudeMeters>527.4000244140625</AltitudeMeters>
            <DistanceMeters>75732.130672856</DistanceMeters>
          </Trackpoint>
          <Trackpoint>
            <Time>2018-08-26T09:49:33.000Z</Time>
            <Position>
              <LatitudeDegrees>42.9617305286228656768798828125</LatitudeDegrees>
              <LongitudeDegrees>-1.671859435737133026123046875</LongitudeDegrees>
            </Position>
            <AltitudeMeters>527.4000244140625</AltitudeMeters>
            <DistanceMeters>75741.205599697</DistanceMeters>
          </Trackpoint>
          <Trackpoint>
            <Time>2018-08-26T09:49:34.000Z</Time>
            <Position>
              <LatitudeDegrees>42.9616780579090118408203125</LatitudeDegrees>
              <LongitudeDegrees>-1.67177326977252960205078125</LongitudeDegrees>
            </Position>
            <AltitudeMeters>527.4000244140625</AltitudeMeters>
            <DistanceMeters>75750.336079735</DistanceMeters>
          </Trackpoint>
          <Trackpoint>
            <Time>2018-08-26T09:49:35.000Z</Time>
            <Position>
              <LatitudeDegrees>42.96162583865225315093994140625</LatitudeDegrees>
              <LongitudeDegrees>-1.67168903164565563201904296875</LongitudeDegrees>
            </Position>
            <AltitudeMeters>527.4000244140625</AltitudeMeters>
            <DistanceMeters>75759.328539607</DistanceMeters>
          </Trackpoint>
          <Trackpoint>
            <Time>2018-08-26T09:49:36.000Z</Time>
            <Position>
              <LatitudeDegrees>42.9615734517574310302734375</LatitudeDegrees>
              <LongitudeDegrees>-1.6716044582426548004150390625</LongitudeDegrees>
            </Position>
            <AltitudeMeters>527.4000244140625</AltitudeMeters>
            <DistanceMeters>75768.353576423</DistanceMeters>
          </Trackpoint>
          <Trackpoint>
            <Time>2018-08-26T09:49:37.000Z</Time>
            <Position>
              <LatitudeDegrees>42.9615203104913234710693359375</LatitudeDegrees>
              <LongitudeDegrees>-1.67151904664933681488037109375</LongitudeDegrees>
            </Position>
            <AltitudeMeters>527.4000244140625</AltitudeMeters>
            <DistanceMeters>75777.485045411</DistanceMeters>
          </Trackpoint>
          <Trackpoint>
            <Time>2018-08-26T09:49:38.000Z</Time>
            <Position>
              <LatitudeDegrees>42.96146725304424762725830078125</LatitudeDegrees>
              <LongitudeDegrees>-1.6714327968657016754150390625</LongitudeDegrees>
            </Position>
            <AltitudeMeters>527.4000244140625</AltitudeMeters>
            <DistanceMeters>75786.662874842</DistanceMeters>
          </Trackpoint>
          <Trackpoint>
            <Time>2018-08-26T09:49:39.000Z</Time>
            <Position>
              <LatitudeDegrees>42.961413860321044921875</LatitudeDegrees>
              <LongitudeDegrees>-1.671347133815288543701171875</LongitudeDegrees>
            </Position>
            <AltitudeMeters>527.5999755859375</AltitudeMeters>
            <DistanceMeters>75795.827904634</DistanceMeters>
          </Trackpoint>
          <Trackpoint>
            <Time>2018-08-26T09:49:40.000Z</Time>
            <Position>
              <LatitudeDegrees>42.9613613896071910858154296875</LatitudeDegrees>
              <LongitudeDegrees>-1.67126088403165340423583984375</LongitudeDegrees>
            </Position>
            <AltitudeMeters>527.5999755859375</AltitudeMeters>
            <DistanceMeters>75804.962834104</DistanceMeters>
          </Trackpoint>
          <Trackpoint>
            <Time>2018-08-26T09:49:41.000Z</Time>
            <Position>
              <LatitudeDegrees>42.9613094218075275421142578125</LatitudeDegrees>
              <LongitudeDegrees>-1.67117488570511341094970703125</LongitudeDegrees>
            </Position>
            <AltitudeMeters>527.5999755859375</AltitudeMeters>
            <DistanceMeters>75814.047209075</DistanceMeters>
          </Trackpoint>
          <Trackpoint>
            <Time>2018-08-26T09:49:42.000Z</Time>
            <Position>
              <LatitudeDegrees>42.9612574540078639984130859375</LatitudeDegrees>
              <LongitudeDegrees>-1.67108939029276371002197265625</LongitudeDegrees>
            </Position>
            <AltitudeMeters>527.5999755859375</AltitudeMeters>
            <DistanceMeters>75823.100218178</DistanceMeters>
          </Trackpoint>
          <Trackpoint>
            <Time>2018-08-26T09:49:43.000Z</Time>
            <Position>
              <LatitudeDegrees>42.96120573766529560089111328125</LatitudeDegrees>
              <LongitudeDegrees>-1.6710053198039531707763671875</LongitudeDegrees>
            </Position>
            <AltitudeMeters>527.4000244140625</AltitudeMeters>
            <DistanceMeters>75832.045861667</DistanceMeters>
          </Trackpoint>
          <Trackpoint>
            <Time>2018-08-26T09:49:44.000Z</Time>
            <Position>
              <LatitudeDegrees>42.9611541889607906341552734375</LatitudeDegrees>
              <LongitudeDegrees>-1.670922674238681793212890625</LongitudeDegrees>
            </Position>
            <AltitudeMeters>527.4000244140625</AltitudeMeters>
            <DistanceMeters>75840.891006229</DistanceMeters>
          </Trackpoint>
          <Trackpoint>
            <Time>2018-08-26T09:49:45.000Z</Time>
            <Position>
              <LatitudeDegrees>42.96110230498015880584716796875</LatitudeDegrees>
              <LongitudeDegrees>-1.6708406992256641387939453125</LongitudeDegrees>
            </Position>
            <AltitudeMeters>527.4000244140625</AltitudeMeters>
            <DistanceMeters>75849.718778298</DistanceMeters>
          </Trackpoint>
          <Trackpoint>
            <Time>2018-08-26T09:49:46.000Z</Time>
            <Position>
              <LatitudeDegrees>42.96104966662824153900146484375</LatitudeDegrees>
              <LongitudeDegrees>-1.6707602329552173614501953125</LongitudeDegrees>
            </Position>
            <AltitudeMeters>527.4000244140625</AltitudeMeters>
            <DistanceMeters>75858.509648233</DistanceMeters>
          </Trackpoint>
          <Trackpoint>
            <Time>2018-08-26T09:49:47.000Z</Time>
            <Position>
              <LatitudeDegrees>42.9609952680766582489013671875</LatitudeDegrees>
              <LongitudeDegrees>-1.6706801019608974456787109375</LongitudeDegrees>
            </Position>
            <AltitudeMeters>527.5999755859375</AltitudeMeters>
            <DistanceMeters>75867.412794363</DistanceMeters>
          </Trackpoint>
          <Trackpoint>
            <Time>2018-08-26T09:49:48.000Z</Time>
            <Position>
              <LatitudeDegrees>42.9609412886202335357666015625</LatitudeDegrees>
              <LongitudeDegrees>-1.67059921659529209136962890625</LongitudeDegrees>
            </Position>
            <AltitudeMeters>527.5999755859375</AltitudeMeters>
            <DistanceMeters>75876.329116083</DistanceMeters>
          </Trackpoint>
          <Trackpoint>
            <Time>2018-08-26T09:49:49.000Z</Time>
            <Position>
              <LatitudeDegrees>42.96089393086731433868408203125</LatitudeDegrees>
              <LongitudeDegrees>-1.6705181635916233062744140625</LongitudeDegrees>
            </Position>
            <AltitudeMeters>527.5999755859375</AltitudeMeters>
            <DistanceMeters>75884.777413203</DistanceMeters>
          </Trackpoint>
          <Trackpoint>
            <Time>2018-08-26T09:49:50.000Z</Time>
            <Position>
              <LatitudeDegrees>42.96084816567599773406982421875</LatitudeDegrees>
              <LongitudeDegrees>-1.67043677531182765960693359375</LongitudeDegrees>
            </Position>
            <AltitudeMeters>527.5999755859375</AltitudeMeters>
            <DistanceMeters>75893.13760409</DistanceMeters>
          </Trackpoint>
          <Trackpoint>
            <Time>2018-08-26T09:49:51.000Z</Time>
            <Position>
              <LatitudeDegrees>42.96080005355179309844970703125</LatitudeDegrees>
              <LongitudeDegrees>-1.6703585721552371978759765625</LongitudeDegrees>
            </Position>
            <AltitudeMeters>527.5999755859375</AltitudeMeters>
            <DistanceMeters>75901.458819516</DistanceMeters>
          </Trackpoint>
          <Trackpoint>
            <Time>2018-08-26T09:49:52.000Z</Time>
            <Position>
              <LatitudeDegrees>42.96075127087533473968505859375</LatitudeDegrees>
              <LongitudeDegrees>-1.67028472758829593658447265625</LongitudeDegrees>
            </Position>
            <AltitudeMeters>527.79998779296875</AltitudeMeters>
            <DistanceMeters>75909.562319742</DistanceMeters>
          </Trackpoint>
          <Trackpoint>
            <Time>2018-08-26T09:49:53.000Z</Time>
            <Position>
              <LatitudeDegrees>42.960700727999210357666015625</LatitudeDegrees>
              <LongitudeDegrees>-1.67021146975457668304443359375</LongitudeDegrees>
            </Position>
            <AltitudeMeters>527.79998779296875</AltitudeMeters>
            <DistanceMeters>75917.763295864</DistanceMeters>
          </Trackpoint>
          <Trackpoint>
            <Time>2018-08-26T09:49:54.000Z</Time>
            <Position>
              <LatitudeDegrees>42.96065144240856170654296875</LatitudeDegrees>
              <LongitudeDegrees>-1.67014273814857006072998046875</LongitudeDegrees>
            </Position>
            <AltitudeMeters>527.79998779296875</AltitudeMeters>
            <DistanceMeters>75925.601703873</DistanceMeters>
          </Trackpoint>
          <Trackpoint>
            <Time>2018-08-26T09:49:55.000Z</Time>
            <Position>
              <LatitudeDegrees>42.960606515407562255859375</LatitudeDegrees>
              <LongitudeDegrees>-1.67006495408713817596435546875</LongitudeDegrees>
            </Position>
            <AltitudeMeters>527.79998779296875</AltitudeMeters>
            <DistanceMeters>75933.672823465</DistanceMeters>
          </Trackpoint>
          <Trackpoint>
            <Time>2018-08-26T09:49:56.000Z</Time>
            <Position>
              <LatitudeDegrees>42.96056116931140422821044921875</LatitudeDegrees>
              <LongitudeDegrees>-1.66998968459665775299072265625</LongitudeDegrees>
            </Position>
            <AltitudeMeters>527.79998779296875</AltitudeMeters>
            <DistanceMeters>75941.613100144</DistanceMeters>
          </Trackpoint>
          <Trackpoint>
            <Time>2018-08-26T09:49:57.000Z</Time>
            <Position>
              <LatitudeDegrees>42.9605128057301044464111328125</LatitudeDegrees>
              <LongitudeDegrees>-1.669920198619365692138671875</LongitudeDegrees>
            </Position>
            <AltitudeMeters>528</AltitudeMeters>
            <DistanceMeters>75949.424966541</DistanceMeters>
          </Trackpoint>
          <Trackpoint>
            <Time>2018-08-26T09:49:58.000Z</Time>
            <Position>
              <LatitudeDegrees>42.9604631848633289337158203125</LatitudeDegrees>
              <LongitudeDegrees>-1.66984467767179012298583984375</LongitudeDegrees>
            </Position>
            <AltitudeMeters>528</AltitudeMeters>
            <DistanceMeters>75957.691744543</DistanceMeters>
          </Trackpoint>
          <Trackpoint>
            <Time>2018-08-26T09:49:59.000Z</Time>
            <Position>
              <LatitudeDegrees>42.96041582711040973663330078125</LatitudeDegrees>
              <LongitudeDegrees>-1.66977359913289546966552734375</LongitudeDegrees>
            </Position>
            <AltitudeMeters>528</AltitudeMeters>
            <DistanceMeters>75965.521507564</DistanceMeters>
          </Trackpoint>
          <Trackpoint>
            <Time>2018-08-26T09:50:00.000Z</Time>
            <Position>
              <LatitudeDegrees>42.9603691399097442626953125</LatitudeDegrees>
              <LongitudeDegrees>-1.66970520280301570892333984375</LongitudeDegrees>
            </Position>
            <AltitudeMeters>528.20001220703125</AltitudeMeters>
            <DistanceMeters>75973.139663595</DistanceMeters>
          </Trackpoint>
          <Trackpoint>
            <Time>2018-08-26T09:50:01.000Z</Time>
            <Position>
              <LatitudeDegrees>42.9603210277855396270751953125</LatitudeDegrees>
              <LongitudeDegrees>-1.66963362134993076324462890625</LongitudeDegrees>
            </Position>
            <AltitudeMeters>528.5999755859375</AltitudeMeters>
            <DistanceMeters>75981.05659233</DistanceMeters>
          </Trackpoint>
          <Trackpoint>
            <Time>2018-08-26T09:50:02.000Z</Time>
            <Position>
              <LatitudeDegrees>42.96027434058487415313720703125</LatitudeDegrees>
              <LongitudeDegrees>-1.6695549152791500091552734375</LongitudeDegrees>
            </Position>
            <AltitudeMeters>528.79998779296875</AltitudeMeters>
            <DistanceMeters>75989.309157782</DistanceMeters>
          </Trackpoint>
          <Trackpoint>
            <Time>2018-08-26T09:50:03.000Z</Time>
            <Position>
              <LatitudeDegrees>42.960228659212589263916015625</LatitudeDegrees>
              <LongitudeDegrees>-1.669472940266132354736328125</LongitudeDegrees>
            </Position>
            <AltitudeMeters>528.79998779296875</AltitudeMeters>
            <DistanceMeters>75997.701689954</DistanceMeters>
          </Trackpoint>
          <Trackpoint>
            <Time>2018-08-26T09:50:04.000Z</Time>
            <Position>
              <LatitudeDegrees>42.9601812176406383514404296875</LatitudeDegrees>
              <LongitudeDegrees>-1.66939524002373218536376953125</LongitudeDegrees>
            </Position>
            <AltitudeMeters>529</AltitudeMeters>
            <DistanceMeters>76005.944401593</DistanceMeters>
          </Trackpoint>
          <Trackpoint>
            <Time>2018-08-26T09:50:05.000Z</Time>
            <Position>
              <LatitudeDegrees>42.9601315967738628387451171875</LatitudeDegrees>
              <LongitudeDegrees>-1.66931569576263427734375</LongitudeDegrees>
            </Position>
            <AltitudeMeters>529</AltitudeMeters>
            <DistanceMeters>76014.457649713</DistanceMeters>
          </Trackpoint>
          <Trackpoint>
            <Time>2018-08-26T09:50:06.000Z</Time>
            <Position>
              <LatitudeDegrees>42.96008306555449962615966796875</LatitudeDegrees>
              <LongitudeDegrees>-1.66923581622540950775146484375</LongitudeDegrees>
            </Position>
            <AltitudeMeters>529.20001220703125</AltitudeMeters>
            <DistanceMeters>76022.914493417</DistanceMeters>
          </Trackpoint>
          <Trackpoint>
            <Time>2018-08-26T09:50:07.000Z</Time>
            <Position>
              <LatitudeDegrees>42.96003520488739013671875</LatitudeDegrees>
              <LongitudeDegrees>-1.66915518231689929962158203125</LongitudeDegrees>
            </Position>
            <AltitudeMeters>529.20001220703125</AltitudeMeters>
            <DistanceMeters>76031.370803212</DistanceMeters>
          </Trackpoint>
          <Trackpoint>
            <Time>2018-08-26T09:50:08.000Z</Time>
            <Position>
              <LatitudeDegrees>42.9599847458302974700927734375</LatitudeDegrees>
              <LongitudeDegrees>-1.669076979160308837890625</LongitudeDegrees>
            </Position>
            <AltitudeMeters>529.20001220703125</AltitudeMeters>
            <DistanceMeters>76039.861747231</DistanceMeters>
          </Trackpoint>
          <Trackpoint>
            <Time>2018-08-26T09:50:09.000Z</Time>
            <Position>
              <LatitudeDegrees>42.9599337838590145111083984375</LatitudeDegrees>
              <LongitudeDegrees>-1.6689951717853546142578125</LongitudeDegrees>
            </Position>
            <AltitudeMeters>529.4000244140625</AltitudeMeters>
            <DistanceMeters>76048.611948267</DistanceMeters>
          </Trackpoint>
          <Trackpoint>
            <Time>2018-08-26T09:50:10.000Z</Time>
            <Position>
              <LatitudeDegrees>42.95988122932612895965576171875</LatitudeDegrees>
              <LongitudeDegrees>-1.66892032139003276824951171875</LongitudeDegrees>
            </Position>
            <AltitudeMeters>529.4000244140625</AltitudeMeters>
            <DistanceMeters>76057.060779801</DistanceMeters>
          </Trackpoint>
          <Trackpoint>
            <Time>2018-08-26T09:50:11.000Z</Time>
            <Position>
              <LatitudeDegrees>42.9598254896700382232666015625</LatitudeDegrees>
              <LongitudeDegrees>-1.66884362697601318359375</LongitudeDegrees>
            </Position>
            <AltitudeMeters>529.4000244140625</AltitudeMeters>
            <DistanceMeters>76065.864993349</DistanceMeters>
          </Trackpoint>
          <Trackpoint>
            <Time>2018-08-26T09:50:12.000Z</Time>
            <Position>
              <LatitudeDegrees>42.95977327041327953338623046875</LatitudeDegrees>
              <LongitudeDegrees>-1.66875989176332950592041015625</LongitudeDegrees>
            </Position>
            <AltitudeMeters>529.4000244140625</AltitudeMeters>
            <DistanceMeters>76074.826269475</DistanceMeters>
          </Trackpoint>
          <Trackpoint>
            <Time>2018-08-26T09:50:13.000Z</Time>
            <Position>
              <LatitudeDegrees>42.95972113497555255889892578125</LatitudeDegrees>
              <LongitudeDegrees>-1.66867724619805812835693359375</LongitudeDegrees>
            </Position>
            <AltitudeMeters>529.4000244140625</AltitudeMeters>
            <DistanceMeters>76083.71317268</DistanceMeters>
          </Trackpoint>
          <Trackpoint>
            <Time>2018-08-26T09:50:14.000Z</Time>
            <Position>
              <LatitudeDegrees>42.9596695862710475921630859375</LatitudeDegrees>
              <LongitudeDegrees>-1.66859158314764499664306640625</LongitudeDegrees>
            </Position>
            <AltitudeMeters>529.4000244140625</AltitudeMeters>
            <DistanceMeters>76092.747210034</DistanceMeters>
          </Trackpoint>
          <Trackpoint>
            <Time>2018-08-26T09:50:15.000Z</Time>
            <Position>
              <LatitudeDegrees>42.95961820520460605621337890625</LatitudeDegrees>
              <LongitudeDegrees>-1.66850474663078784942626953125</LongitudeDegrees>
            </Position>
            <AltitudeMeters>529.4000244140625</AltitudeMeters>
            <DistanceMeters>76101.843505459</DistanceMeters>
          </Trackpoint>
          <Trackpoint>
            <Time>2018-08-26T09:50:16.000Z</Time>
            <Position>
              <LatitudeDegrees>42.9595673270523548126220703125</LatitudeDegrees>
              <LongitudeDegrees>-1.66841807775199413299560546875</LongitudeDegrees>
            </Position>
            <AltitudeMeters>529.4000244140625</AltitudeMeters>
            <DistanceMeters>76110.893521666</DistanceMeters>
          </Trackpoint>
          <Trackpoint>
            <Time>2018-08-26T09:50:17.000Z</Time>
            <Position>
              <LatitudeDegrees>42.95951728709042072296142578125</LatitudeDegrees>
              <LongitudeDegrees>-1.6683234460651874542236328125</LongitudeDegrees>
            </Position>
            <AltitudeMeters>529.4000244140625</AltitudeMeters>
            <DistanceMeters>76120.402842646</DistanceMeters>
          </Trackpoint>
          <Trackpoint>
            <Time>2018-08-26T09:50:18.000Z</Time>
            <Position>
              <LatitudeDegrees>42.95946724712848663330078125</LatitudeDegrees>
              <LongitudeDegrees>-1.668237783014774322509765625</LongitudeDegrees>
            </Position>
            <AltitudeMeters>529.4000244140625</AltitudeMeters>
            <DistanceMeters>76129.330803487</DistanceMeters>
          </Trackpoint>
          <Trackpoint>
            <Time>2018-08-26T09:50:19.000Z</Time>
            <Position>
              <LatitudeDegrees>42.95941469259560108184814453125</LatitudeDegrees>
              <LongitudeDegrees>-1.66815639473497867584228515625</LongitudeDegrees>
            </Position>
            <AltitudeMeters>529.4000244140625</AltitudeMeters>
            <DistanceMeters>76138.171863474</DistanceMeters>
          </Trackpoint>
          <Trackpoint>
            <Time>2018-08-26T09:50:20.000Z</Time>
            <Position>
              <LatitudeDegrees>42.95936306007206439971923828125</LatitudeDegrees>
              <LongitudeDegrees>-1.6680713184177875518798828125</LongitudeDegrees>
            </Position>
            <AltitudeMeters>529.4000244140625</AltitudeMeters>
            <DistanceMeters>76147.174861095</DistanceMeters>
          </Trackpoint>
          <Trackpoint>
            <Time>2018-08-26T09:50:21.000Z</Time>
            <Position>
              <LatitudeDegrees>42.959311343729496002197265625</LatitudeDegrees>
              <LongitudeDegrees>-1.66798573918640613555908203125</LongitudeDegrees>
            </Position>
            <AltitudeMeters>529.4000244140625</AltitudeMeters>
            <DistanceMeters>76156.214893828</DistanceMeters>
          </Trackpoint>
          <Trackpoint>
            <Time>2018-08-26T09:50:22.000Z</Time>
            <Position>
              <LatitudeDegrees>42.9592588730156421661376953125</LatitudeDegrees>
              <LongitudeDegrees>-1.66790292598307132720947265625</LongitudeDegrees>
            </Position>
            <AltitudeMeters>529.20001220703125</AltitudeMeters>
            <DistanceMeters>76165.137290027</DistanceMeters>
          </Trackpoint>
          <Trackpoint>
            <Time>2018-08-26T09:50:23.000Z</Time>
            <Position>
              <LatitudeDegrees>42.95920682139694690704345703125</LatitudeDegrees>
              <LongitudeDegrees>-1.6678178496658802032470703125</LongitudeDegrees>
            </Position>
            <AltitudeMeters>529.20001220703125</AltitudeMeters>
            <DistanceMeters>76174.170327763</DistanceMeters>
          </Trackpoint>
          <Trackpoint>
            <Time>2018-08-26T09:50:24.000Z</Time>
            <Position>
              <LatitudeDegrees>42.95915485359728336334228515625</LatitudeDegrees>
              <LongitudeDegrees>-1.66773512028157711029052734375</LongitudeDegrees>
            </Position>
            <AltitudeMeters>529</AltitudeMeters>
            <DistanceMeters>76183.051132212</DistanceMeters>
          </Trackpoint>
          <Trackpoint>
            <Time>2018-08-26T09:50:25.000Z</Time>
            <Position>
              <LatitudeDegrees>42.95910120941698551177978515625</LatitudeDegrees>
              <LongitudeDegrees>-1.6676522232592105865478515625</LongitudeDegrees>
            </Position>
            <AltitudeMeters>529</AltitudeMeters>
            <DistanceMeters>76192.06415433</DistanceMeters>
          </Trackpoint>
          <Trackpoint>
            <Time>2018-08-26T09:50:26.000Z</Time>
            <Position>
              <LatitudeDegrees>42.95904748141765594482421875</LatitudeDegrees>
              <LongitudeDegrees>-1.6675694100558757781982421875</LongitudeDegrees>
            </Position>
            <AltitudeMeters>529</AltitudeMeters>
            <DistanceMeters>76201.078178284</DistanceMeters>
          </Trackpoint>
          <Trackpoint>
            <Time>2018-08-26T09:50:27.000Z</Time>
            <Position>
              <LatitudeDegrees>42.95899475924670696258544921875</LatitudeDegrees>
              <LongitudeDegrees>-1.66748550720512866973876953125</LongitudeDegrees>
            </Position>
            <AltitudeMeters>528.79998779296875</AltitudeMeters>
            <DistanceMeters>76210.086189547</DistanceMeters>
          </Trackpoint>
          <Trackpoint>
            <Time>2018-08-26T09:50:28.000Z</Time>
            <Position>
              <LatitudeDegrees>42.95894287526607513427734375</LatitudeDegrees>
              <LongitudeDegrees>-1.6674034483730792999267578125</LongitudeDegrees>
            </Position>
            <AltitudeMeters>528.79998779296875</AltitudeMeters>
            <DistanceMeters>76218.920096986</DistanceMeters>
          </Trackpoint>
          <Trackpoint>
            <Time>2018-08-26T09:50:29.000Z</Time>
            <Position>
              <LatitudeDegrees>42.95889166183769702911376953125</LatitudeDegrees>
              <LongitudeDegrees>-1.6673192940652370452880859375</LongitudeDegrees>
            </Position>
            <AltitudeMeters>528.5999755859375</AltitudeMeters>
            <DistanceMeters>76227.83540589</DistanceMeters>
          </Trackpoint>
          <Trackpoint>
            <Time>2018-08-26T09:50:30.000Z</Time>
            <Position>
              <LatitudeDegrees>42.95884002931416034698486328125</LatitudeDegrees>
              <LongitudeDegrees>-1.6672356426715850830078125</LongitudeDegrees>
            </Position>
            <AltitudeMeters>528.5999755859375</AltitudeMeters>
            <DistanceMeters>76236.749195355</DistanceMeters>
          </Trackpoint>
          <Trackpoint>
            <Time>2018-08-26T09:50:31.000Z</Time>
            <Position>
              <LatitudeDegrees>42.95878688804805278778076171875</LatitudeDegrees>
              <LongitudeDegrees>-1.66716079227626323699951171875</LongitudeDegrees>
            </Position>
            <AltitudeMeters>528.5999755859375</AltitudeMeters>
            <DistanceMeters>76245.243860791</DistanceMeters>
          </Trackpoint>
          <Trackpoint>
            <Time>2018-08-26T09:50:32.000Z</Time>
            <Position>
              <LatitudeDegrees>42.9587324894964694976806640625</LatitudeDegrees>
              <LongitudeDegrees>-1.6670829243957996368408203125</LongitudeDegrees>
            </Position>
            <AltitudeMeters>528.4000244140625</AltitudeMeters>
            <DistanceMeters>76254.012102966</DistanceMeters>
          </Trackpoint>
          <Trackpoint>
            <Time>2018-08-26T09:50:33.000Z</Time>
            <Position>
              <LatitudeDegrees>42.958680354058742523193359375</LatitudeDegrees>
              <LongitudeDegrees>-1.66700254194438457489013671875</LongitudeDegrees>
            </Position>
            <AltitudeMeters>528.4000244140625</AltitudeMeters>
            <DistanceMeters>76262.761271956</DistanceMeters>
          </Trackpoint>
          <Trackpoint>
            <Time>2018-08-26T09:50:34.000Z</Time>
            <Position>
              <LatitudeDegrees>42.9586265422403812408447265625</LatitudeDegrees>
              <LongitudeDegrees>-1.66691805236041545867919921875</LongitudeDegrees>
            </Position>
            <AltitudeMeters>528.20001220703125</AltitudeMeters>
            <DistanceMeters>76271.884826344</DistanceMeters>
          </Trackpoint>
          <Trackpoint>
            <Time>2018-08-26T09:50:35.000Z</Time>
            <Position>
              <LatitudeDegrees>42.95857432298362255096435546875</LatitudeDegrees>
              <LongitudeDegrees>-1.666834987699985504150390625</LongitudeDegrees>
            </Position>
            <AltitudeMeters>528.20001220703125</AltitudeMeters>
            <DistanceMeters>76280.804692012</DistanceMeters>
          </Trackpoint>
          <Trackpoint>
            <Time>2018-08-26T09:50:36.000Z</Time>
            <Position>
              <LatitudeDegrees>42.9585232771933078765869140625</LatitudeDegrees>
              <LongitudeDegrees>-1.66675192303955554962158203125</LongitudeDegrees>
            </Position>
            <AltitudeMeters>528.20001220703125</AltitudeMeters>
            <DistanceMeters>76289.639621598</DistanceMeters>
          </Trackpoint>
          <Trackpoint>
            <Time>2018-08-26T09:50:37.000Z</Time>
            <Position>
              <LatitudeDegrees>42.9584723152220249176025390625</LatitudeDegrees>
              <LongitudeDegrees>-1.66667045094072818756103515625</LongitudeDegrees>
            </Position>
            <AltitudeMeters>528.20001220703125</AltitudeMeters>
            <DistanceMeters>76298.369675732</DistanceMeters>
          </Trackpoint>
          <Trackpoint>
            <Time>2018-08-26T09:50:38.000Z</Time>
            <Position>
              <LatitudeDegrees>42.9584243707358837127685546875</LatitudeDegrees>
              <LongitudeDegrees>-1.66658797301352024078369140625</LongitudeDegrees>
            </Position>
            <AltitudeMeters>528.20001220703125</AltitudeMeters>
            <DistanceMeters>76306.949488269</DistanceMeters>
          </Trackpoint>
          <Trackpoint>
            <Time>2018-08-26T09:50:39.000Z</Time>
            <Position>
              <LatitudeDegrees>42.95837692916393280029296875</LatitudeDegrees>
              <LongitudeDegrees>-1.6665112785995006561279296875</LongitudeDegrees>
            </Position>
            <AltitudeMeters>528.20001220703125</AltitudeMeters>
            <DistanceMeters>76315.129516781</DistanceMeters>
          </Trackpoint>
          <Trackpoint>
            <Time>2018-08-26T09:50:40.000Z</Time>
            <Position>
              <LatitudeDegrees>42.9583279788494110107421875</LatitudeDegrees>
              <LongitudeDegrees>-1.6664334945380687713623046875</LongitudeDegrees>
            </Position>
            <AltitudeMeters>528.20001220703125</AltitudeMeters>
            <DistanceMeters>76323.485926365</DistanceMeters>
          </Trackpoint>
          <Trackpoint>
            <Time>2018-08-26T09:50:41.000Z</Time>
            <Position>
              <LatitudeDegrees>42.95827844180166721343994140625</LatitudeDegrees>
              <LongitudeDegrees>-1.666352190077304840087890625</LongitudeDegrees>
            </Position>
            <AltitudeMeters>528.20001220703125</AltitudeMeters>
            <DistanceMeters>76332.103544869</DistanceMeters>
          </Trackpoint>
          <Trackpoint>
            <Time>2018-08-26T09:50:42.000Z</Time>
            <Position>
              <LatitudeDegrees>42.9582289047539234161376953125</LatitudeDegrees>
              <LongitudeDegrees>-1.666267700493335723876953125</LongitudeDegrees>
            </Position>
            <AltitudeMeters>528.20001220703125</AltitudeMeters>
            <DistanceMeters>76340.922105881</DistanceMeters>
          </Trackpoint>
          <Trackpoint>
            <Time>2018-08-26T09:50:43.000Z</Time>
            <Position>
              <LatitudeDegrees>42.95817785896360874176025390625</LatitudeDegrees>
              <LongitudeDegrees>-1.6661857254803180694580078125</LongitudeDegrees>
            </Position>
            <AltitudeMeters>528.20001220703125</AltitudeMeters>
            <DistanceMeters>76349.689318135</DistanceMeters>
          </Trackpoint>
          <Trackpoint>
            <Time>2018-08-26T09:50:44.000Z</Time>
            <Position>
              <LatitudeDegrees>42.95812639407813549041748046875</LatitudeDegrees>
              <LongitudeDegrees>-1.666101403534412384033203125</LongitudeDegrees>
            </Position>
            <AltitudeMeters>528.20001220703125</AltitudeMeters>
            <DistanceMeters>76358.632437672</DistanceMeters>
          </Trackpoint>
          <Trackpoint>
            <Time>2018-08-26T09:50:45.000Z</Time>
            <Position>
              <LatitudeDegrees>42.95807509683072566986083984375</LatitudeDegrees>
              <LongitudeDegrees>-1.66601716540753841400146484375</LongitudeDegrees>
            </Position>
            <AltitudeMeters>528.20001220703125</AltitudeMeters>
            <DistanceMeters>76367.558881227</DistanceMeters>
          </Trackpoint>
          <Trackpoint>
            <Time>2018-08-26T09:50:46.000Z</Time>
            <Position>
              <LatitudeDegrees>42.95802564360201358795166015625</LatitudeDegrees>
              <LongitudeDegrees>-1.6659329272806644439697265625</LongitudeDegrees>
            </Position>
            <AltitudeMeters>528.20001220703125</AltitudeMeters>
            <DistanceMeters>76376.355912268</DistanceMeters>
          </Trackpoint>
          <Trackpoint>
            <Time>2018-08-26T09:50:47.000Z</Time>
            <Position>
              <LatitudeDegrees>42.957977615296840667724609375</LatitudeDegrees>
              <LongitudeDegrees>-1.6658501140773296356201171875</LongitudeDegrees>
            </Position>
            <AltitudeMeters>528.20001220703125</AltitudeMeters>
            <DistanceMeters>76384.963045771</DistanceMeters>
          </Trackpoint>
          <Trackpoint>
            <Time>2018-08-26T09:50:48.000Z</Time>
            <Position>
              <LatitudeDegrees>42.95793034136295318603515625</LatitudeDegrees>
              <LongitudeDegrees>-1.66576839052140712738037109375</LongitudeDegrees>
            </Position>
            <AltitudeMeters>528</AltitudeMeters>
            <DistanceMeters>76393.44760642</DistanceMeters>
          </Trackpoint>
          <Trackpoint>
            <Time>2018-08-26T09:50:49.000Z</Time>
            <Position>
              <LatitudeDegrees>42.95788164250552654266357421875</LatitudeDegrees>
              <LongitudeDegrees>-1.6656891815364360809326171875</LongitudeDegrees>
            </Position>
            <AltitudeMeters>528</AltitudeMeters>
            <DistanceMeters>76401.874499155</DistanceMeters>
          </Trackpoint>
          <Trackpoint>
            <Time>2018-08-26T09:50:50.000Z</Time>
            <Position>
              <LatitudeDegrees>42.957833446562290191650390625</LatitudeDegrees>
              <LongitudeDegrees>-1.66561064310371875762939453125</LongitudeDegrees>
            </Position>
            <AltitudeMeters>528</AltitudeMeters>
            <DistanceMeters>76410.222800179</DistanceMeters>
          </Trackpoint>
          <Trackpoint>
            <Time>2018-08-26T09:50:51.000Z</Time>
            <Position>
              <LatitudeDegrees>42.9577843286097049713134765625</LatitudeDegrees>
              <LongitudeDegrees>-1.665531098842620849609375</LongitudeDegrees>
            </Position>
            <AltitudeMeters>528</AltitudeMeters>
            <DistanceMeters>76418.699907489</DistanceMeters>
          </Trackpoint>
          <Trackpoint>
            <Time>2018-08-26T09:50:52.000Z</Time>
            <Position>
              <LatitudeDegrees>42.9577343724668025970458984375</LatitudeDegrees>
              <LongitudeDegrees>-1.6654481180012226104736328125</LongitudeDegrees>
            </Position>
            <AltitudeMeters>528</AltitudeMeters>
            <DistanceMeters>76427.451656365</DistanceMeters>
          </Trackpoint>
          <Trackpoint>
            <Time>2018-08-26T09:50:53.000Z</Time>
            <Position>
              <LatitudeDegrees>42.957682907581329345703125</LatitudeDegrees>
              <LongitudeDegrees>-1.6653646342456340789794921875</LongitudeDegrees>
            </Position>
            <AltitudeMeters>528</AltitudeMeters>
            <DistanceMeters>76436.343130892</DistanceMeters>
          </Trackpoint>
          <Trackpoint>
            <Time>2018-08-26T09:50:54.000Z</Time>
            <Position>
              <LatitudeDegrees>42.95763236470520496368408203125</LatitudeDegrees>
              <LongitudeDegrees>-1.6652848385274410247802734375</LongitudeDegrees>
            </Position>
            <AltitudeMeters>528</AltitudeMeters>
            <DistanceMeters>76444.939241381</DistanceMeters>
          </Trackpoint>
          <Trackpoint>
            <Time>2018-08-26T09:50:55.000Z</Time>
            <Position>
              <LatitudeDegrees>42.95758257620036602020263671875</LatitudeDegrees>
              <LongitudeDegrees>-1.66520345024764537811279296875</LongitudeDegrees>
            </Position>
            <AltitudeMeters>527.79998779296875</AltitudeMeters>
            <DistanceMeters>76453.578836967</DistanceMeters>
          </Trackpoint>
          <Trackpoint>
            <Time>2018-08-26T09:50:56.000Z</Time>
            <Position>
              <LatitudeDegrees>42.95753312297165393829345703125</LatitudeDegrees>
              <LongitudeDegrees>-1.6651232354342937469482421875</LongitudeDegrees>
            </Position>
            <AltitudeMeters>527.79998779296875</AltitudeMeters>
            <DistanceMeters>76462.122261801</DistanceMeters>
          </Trackpoint>
          <Trackpoint>
            <Time>2018-08-26T09:50:57.000Z</Time>
            <Position>
              <LatitudeDegrees>42.95748283155262470245361328125</LatitudeDegrees>
              <LongitudeDegrees>-1.66504469700157642364501953125</LongitudeDegrees>
            </Position>
            <AltitudeMeters>527.79998779296875</AltitudeMeters>
            <DistanceMeters>76470.622771886</DistanceMeters>
          </Trackpoint>
          <Trackpoint>
            <Time>2018-08-26T09:50:58.000Z</Time>
            <Position>
              <LatitudeDegrees>42.95743287540972232818603515625</LatitudeDegrees>
              <LongitudeDegrees>-1.6649643145501613616943359375</LongitudeDegrees>
            </Position>
            <AltitudeMeters>528</AltitudeMeters>
            <DistanceMeters>76479.213102771</DistanceMeters>
          </Trackpoint>
          <Trackpoint>
            <Time>2018-08-26T09:50:59.000Z</Time>
            <Position>
              <LatitudeDegrees>42.95738182961940765380859375</LatitudeDegrees>
              <LongitudeDegrees>-1.66488342918455600738525390625</LongitudeDegrees>
            </Position>
            <AltitudeMeters>528</AltitudeMeters>
            <DistanceMeters>76487.912589576</DistanceMeters>
          </Trackpoint>
          <Trackpoint>
            <Time>2018-08-26T09:51:00.000Z</Time>
            <Position>
              <LatitudeDegrees>42.95732994563877582550048828125</LatitudeDegrees>
              <LongitudeDegrees>-1.66480514220893383026123046875</LongitudeDegrees>
            </Position>
            <AltitudeMeters>528</AltitudeMeters>
            <DistanceMeters>76496.515525501</DistanceMeters>
          </Trackpoint>
          <Trackpoint>
            <Time>2018-08-26T09:51:01.000Z</Time>
            <Position>
              <LatitudeDegrees>42.9572765529155731201171875</LatitudeDegrees>
              <LongitudeDegrees>-1.6647239215672016143798828125</LongitudeDegrees>
            </Position>
            <AltitudeMeters>527.79998779296875</AltitudeMeters>
            <DistanceMeters>76505.40852328</DistanceMeters>
          </Trackpoint>
          <Trackpoint>
            <Time>2018-08-26T09:51:02.000Z</Time>
            <Position>
              <LatitudeDegrees>42.95722248964011669158935546875</LatitudeDegrees>
              <LongitudeDegrees>-1.66464018635451793670654296875</LongitudeDegrees>
            </Position>
            <AltitudeMeters>527.5999755859375</AltitudeMeters>
            <DistanceMeters>76514.504322331</DistanceMeters>
          </Trackpoint>
          <Trackpoint>
            <Time>2018-08-26T09:51:03.000Z</Time>
            <Position>
              <LatitudeDegrees>42.9571684263646602630615234375</LatitudeDegrees>
              <LongitudeDegrees>-1.6645552776753902435302734375</LongitudeDegrees>
            </Position>
            <AltitudeMeters>527.5999755859375</AltitudeMeters>
            <DistanceMeters>76523.672307472</DistanceMeters>
          </Trackpoint>
          <Trackpoint>
            <Time>2018-08-26T09:51:04.000Z</Time>
            <Position>
              <LatitudeDegrees>42.957113943994045257568359375</LatitudeDegrees>
              <LongitudeDegrees>-1.66446818970143795013427734375</LongitudeDegrees>
            </Position>
            <AltitudeMeters>527.5999755859375</AltitudeMeters>
            <DistanceMeters>76533.005266134</DistanceMeters>
          </Trackpoint>
          <Trackpoint>
            <Time>2018-08-26T09:51:05.000Z</Time>
            <Position>
              <LatitudeDegrees>42.9570597968995571136474609375</LatitudeDegrees>
              <LongitudeDegrees>-1.66438152082264423370361328125</LongitudeDegrees>
            </Position>
            <AltitudeMeters>527.5999755859375</AltitudeMeters>
            <DistanceMeters>76542.287776</DistanceMeters>
          </Trackpoint>
          <Trackpoint>
            <Time>2018-08-26T09:51:06.000Z</Time>
            <Position>
              <LatitudeDegrees>42.9570056498050689697265625</LatitudeDegrees>
              <LongitudeDegrees>-1.664293594658374786376953125</LongitudeDegrees>
            </Position>
            <AltitudeMeters>527.5999755859375</AltitudeMeters>
            <DistanceMeters>76551.648269136</DistanceMeters>
          </Trackpoint>
          <Trackpoint>
            <Time>2018-08-26T09:51:07.000Z</Time>
            <Position>
              <LatitudeDegrees>42.95695024542510509490966796875</LatitudeDegrees>
              <LongitudeDegrees>-1.66420650668442249298095703125</LongitudeDegrees>
            </Position>
            <AltitudeMeters>527.4000244140625</AltitudeMeters>
            <DistanceMeters>76561.047751458</DistanceMeters>
          </Trackpoint>
          <Trackpoint>
            <Time>2018-08-26T09:51:08.000Z</Time>
            <Position>
              <LatitudeDegrees>42.95689358375966548919677734375</LatitudeDegrees>
              <LongitudeDegrees>-1.66412134654819965362548828125</LongitudeDegrees>
            </Position>
            <AltitudeMeters>527.4000244140625</AltitudeMeters>
            <DistanceMeters>76570.423185534</DistanceMeters>
          </Trackpoint>
          <Trackpoint>
            <Time>2018-08-26T09:51:09.000Z</Time>
            <Position>
              <LatitudeDegrees>42.95683725737035274505615234375</LatitudeDegrees>
              <LongitudeDegrees>-1.664034426212310791015625</LongitudeDegrees>
            </Position>
            <AltitudeMeters>527.4000244140625</AltitudeMeters>
            <DistanceMeters>76579.880134148</DistanceMeters>
          </Trackpoint>
          <Trackpoint>
            <Time>2018-08-26T09:51:10.000Z</Time>
            <Position>
              <LatitudeDegrees>42.95678176917135715484619140625</LatitudeDegrees>
              <LongitudeDegrees>-1.6639454104006290435791015625</LongitudeDegrees>
            </Position>
            <AltitudeMeters>527</AltitudeMeters>
            <DistanceMeters>76589.404636653</DistanceMeters>
          </Trackpoint>
          <Trackpoint>
            <Time>2018-08-26T09:51:11.000Z</Time>
            <Position>
              <LatitudeDegrees>42.956726364791393280029296875</LatitudeDegrees>
              <LongitudeDegrees>-1.66385513730347156524658203125</LongitudeDegrees>
            </Position>
            <AltitudeMeters>526.5999755859375</AltitudeMeters>
            <DistanceMeters>76599.001864363</DistanceMeters>
          </Trackpoint>
          <Trackpoint>
            <Time>2018-08-26T09:51:12.000Z</Time>
            <Position>
              <LatitudeDegrees>42.95667062513530254364013671875</LatitudeDegrees>
              <LongitudeDegrees>-1.66376377455890178680419921875</LongitudeDegrees>
            </Position>
            <AltitudeMeters>526.20001220703125</AltitudeMeters>
            <DistanceMeters>76608.690861975</DistanceMeters>
          </Trackpoint>
          <Trackpoint>
            <Time>2018-08-26T09:51:13.000Z</Time>
            <Position>
              <LatitudeDegrees>42.95661413110792636871337890625</LatitudeDegrees>
              <LongitudeDegrees>-1.663671322166919708251953125</LongitudeDegrees>
            </Position>
            <AltitudeMeters>526.20001220703125</AltitudeMeters>
            <DistanceMeters>76618.50211138</DistanceMeters>
          </Trackpoint>
          <Trackpoint>
            <Time>2018-08-26T09:51:14.000Z</Time>
            <Position>
              <LatitudeDegrees>42.95655646361410617828369140625</LatitudeDegrees>
              <LongitudeDegrees>-1.6635782830417156219482421875</LongitudeDegrees>
            </Position>
            <AltitudeMeters>526</AltitudeMeters>
            <DistanceMeters>76628.43410791</DistanceMeters>
          </Trackpoint>
          <Trackpoint>
            <Time>2018-08-26T09:51:15.000Z</Time>
            <Position>
              <LatitudeDegrees>42.95649846084415912628173828125</LatitudeDegrees>
              <LongitudeDegrees>-1.6634877584874629974365234375</LongitudeDegrees>
            </Position>
            <AltitudeMeters>525.79998779296875</AltitudeMeters>
            <DistanceMeters>76638.235227908</DistanceMeters>
          </Trackpoint>
          <Trackpoint>
            <Time>2018-08-26T09:51:16.000Z</Time>
            <Position>
              <LatitudeDegrees>42.95644196681678295135498046875</LatitudeDegrees>
              <LongitudeDegrees>-1.66339865885674953460693359375</LongitudeDegrees>
            </Position>
            <AltitudeMeters>525.5999755859375</AltitudeMeters>
            <DistanceMeters>76647.838099387</DistanceMeters>
          </Trackpoint>
          <Trackpoint>
            <Time>2018-08-26T09:51:17.000Z</Time>
            <Position>
              <LatitudeDegrees>42.95638664625585079193115234375</LatitudeDegrees>
              <LongitudeDegrees>-1.6633107326924800872802734375</LongitudeDegrees>
            </Position>
            <AltitudeMeters>525.4000244140625</AltitudeMeters>
            <DistanceMeters>76657.283582713</DistanceMeters>
          </Trackpoint>
          <Trackpoint>
            <Time>2018-08-26T09:51:18.000Z</Time>
            <Position>
              <LatitudeDegrees>42.95633174479007720947265625</LatitudeDegrees>
              <LongitudeDegrees>-1.66322314180433750152587890625</LongitudeDegrees>
            </Position>
            <AltitudeMeters>525.20001220703125</AltitudeMeters>
            <DistanceMeters>76666.678260311</DistanceMeters>
          </Trackpoint>
          <Trackpoint>
            <Time>2018-08-26T09:51:19.000Z</Time>
            <Position>
              <LatitudeDegrees>42.95627717860043048858642578125</LatitudeDegrees>
              <LongitudeDegrees>-1.6631373949348926544189453125</LongitudeDegrees>
            </Position>
            <AltitudeMeters>524.79998779296875</AltitudeMeters>
            <DistanceMeters>76675.934467163</DistanceMeters>
          </Trackpoint>
          <Trackpoint>
            <Time>2018-08-26T09:51:20.000Z</Time>
            <Position>
              <LatitudeDegrees>42.9562226124107837677001953125</LatitudeDegrees>
              <LongitudeDegrees>-1.66305198334157466888427734375</LongitudeDegrees>
            </Position>
            <AltitudeMeters>524.4000244140625</AltitudeMeters>
            <DistanceMeters>76685.170164327</DistanceMeters>
          </Trackpoint>
          <Trackpoint>
            <Time>2018-08-26T09:51:21.000Z</Time>
            <Position>
              <LatitudeDegrees>42.95616838149726390838623046875</LatitudeDegrees>
              <LongitudeDegrees>-1.66296715848147869110107421875</LongitudeDegrees>
            </Position>
            <AltitudeMeters>524.4000244140625</AltitudeMeters>
            <DistanceMeters>76694.34504158</DistanceMeters>
          </Trackpoint>
          <Trackpoint>
            <Time>2018-08-26T09:51:22.000Z</Time>
            <Position>
              <LatitudeDegrees>42.95611490495502948760986328125</LatitudeDegrees>
              <LongitudeDegrees>-1.66288216598331928253173828125</LongitudeDegrees>
            </Position>
            <AltitudeMeters>524</AltitudeMeters>
            <DistanceMeters>76703.474532561</DistanceMeters>
          </Trackpoint>
          <Trackpoint>
            <Time>2018-08-26T09:51:23.000Z</Time>
            <Position>
              <LatitudeDegrees>42.95606193132698535919189453125</LatitudeDegrees>
              <LongitudeDegrees>-1.66279717348515987396240234375</LongitudeDegrees>
            </Position>
            <AltitudeMeters>523.79998779296875</AltitudeMeters>
            <DistanceMeters>76712.568345847</DistanceMeters>
          </Trackpoint>
          <Trackpoint>
            <Time>2018-08-26T09:51:24.000Z</Time>
            <Position>
              <LatitudeDegrees>42.956009544432163238525390625</LatitudeDegrees>
              <LongitudeDegrees>-1.66271251626312732696533203125</LongitudeDegrees>
            </Position>
            <AltitudeMeters>523.5999755859375</AltitudeMeters>
            <DistanceMeters>76721.598884057</DistanceMeters>
          </Trackpoint>
          <Trackpoint>
            <Time>2018-08-26T09:51:25.000Z</Time>
            <Position>
              <LatitudeDegrees>42.95595682226121425628662109375</LatitudeDegrees>
              <LongitudeDegrees>-1.662628613412380218505859375</LongitudeDegrees>
            </Position>
            <AltitudeMeters>523.4000244140625</AltitudeMeters>
            <DistanceMeters>76730.607396531</DistanceMeters>
          </Trackpoint>
          <Trackpoint>
            <Time>2018-08-26T09:51:26.000Z</Time>
            <Position>
              <LatitudeDegrees>42.9559034295380115509033203125</LatitudeDegrees>
              <LongitudeDegrees>-1.6625452972948551177978515625</LongitudeDegrees>
            </Position>
            <AltitudeMeters>523.4000244140625</AltitudeMeters>
            <DistanceMeters>76739.628930713</DistanceMeters>
          </Trackpoint>
          <Trackpoint>
            <Time>2018-08-26T09:51:27.000Z</Time>
            <Position>
              <LatitudeDegrees>42.9558496177196502685546875</LatitudeDegrees>
              <LongitudeDegrees>-1.6624608077108860015869140625</LongitudeDegrees>
            </Position>
            <AltitudeMeters>523.20001220703125</AltitudeMeters>
            <DistanceMeters>76748.7524851</DistanceMeters>
          </Trackpoint>
          <Trackpoint>
            <Time>2018-08-26T09:51:28.000Z</Time>
            <Position>
              <LatitudeDegrees>42.95579639263451099395751953125</LatitudeDegrees>
              <LongitudeDegrees>-1.662376821041107177734375</LongitudeDegrees>
            </Position>
            <AltitudeMeters>523.20001220703125</AltitudeMeters>
            <DistanceMeters>76757.802501307</DistanceMeters>
          </Trackpoint>
          <Trackpoint>
            <Time>2018-08-26T09:51:29.000Z</Time>
            <Position>
              <LatitudeDegrees>42.95574367046356201171875</LatitudeDegrees>
              <LongitudeDegrees>-1.662292666733264923095703125</LongitudeDegrees>
            </Position>
            <AltitudeMeters>523.20001220703125</AltitudeMeters>
            <DistanceMeters>76766.826537509</DistanceMeters>
          </Trackpoint>
          <Trackpoint>
            <Time>2018-08-26T09:51:30.000Z</Time>
            <Position>
              <LatitudeDegrees>42.955691032111644744873046875</LatitudeDegrees>
              <LongitudeDegrees>-1.66220876388251781463623046875</LongitudeDegrees>
            </Position>
            <AltitudeMeters>523</AltitudeMeters>
            <DistanceMeters>76775.828532066</DistanceMeters>
          </Trackpoint>
          <Trackpoint>
            <Time>2018-08-26T09:51:31.000Z</Time>
            <Position>
              <LatitudeDegrees>42.95563839375972747802734375</LatitudeDegrees>
              <LongitudeDegrees>-1.6621233522891998291015625</LongitudeDegrees>
            </Position>
            <AltitudeMeters>523</AltitudeMeters>
            <DistanceMeters>76784.924331117</DistanceMeters>
          </Trackpoint>
          <Trackpoint>
            <Time>2018-08-26T09:51:32.000Z</Time>
            <Position>
              <LatitudeDegrees>42.95558516867458820343017578125</LatitudeDegrees>
              <LongitudeDegrees>-1.6620373539626598358154296875</LongitudeDegrees>
            </Position>
            <AltitudeMeters>523</AltitudeMeters>
            <DistanceMeters>76794.099208371</DistanceMeters>
          </Trackpoint>
          <Trackpoint>
            <Time>2018-08-26T09:51:33.000Z</Time>
            <Position>
              <LatitudeDegrees>42.95553169213235378265380859375</LatitudeDegrees>
              <LongitudeDegrees>-1.66195093654096126556396484375</LongitudeDegrees>
            </Position>
            <AltitudeMeters>523</AltitudeMeters>
            <DistanceMeters>76803.317779269</DistanceMeters>
          </Trackpoint>
          <Trackpoint>
            <Time>2018-08-26T09:51:34.000Z</Time>
            <Position>
              <LatitudeDegrees>42.9554776288568973541259765625</LatitudeDegrees>
              <LongitudeDegrees>-1.66186527349054813385009765625</LongitudeDegrees>
            </Position>
            <AltitudeMeters>523</AltitudeMeters>
            <DistanceMeters>76812.531451103</DistanceMeters>
          </Trackpoint>
          <Trackpoint>
            <Time>2018-08-26T09:51:35.000Z</Time>
            <Position>
              <LatitudeDegrees>42.9554233141243457794189453125</LatitudeDegrees>
              <LongitudeDegrees>-1.66177994571626186370849609375</LongitudeDegrees>
            </Position>
            <AltitudeMeters>523</AltitudeMeters>
            <DistanceMeters>76821.74316258</DistanceMeters>
          </Trackpoint>
          <Trackpoint>
            <Time>2018-08-26T09:51:36.000Z</Time>
            <Position>
              <LatitudeDegrees>42.95536807738244533538818359375</LatitudeDegrees>
              <LongitudeDegrees>-1.66169361211359500885009765625</LongitudeDegrees>
            </Position>
            <AltitudeMeters>523</AltitudeMeters>
            <DistanceMeters>76831.084341771</DistanceMeters>
          </Trackpoint>
          <Trackpoint>
            <Time>2018-08-26T09:51:37.000Z</Time>
            <Position>
              <LatitudeDegrees>42.95531309209764003753662109375</LatitudeDegrees>
              <LongitudeDegrees>-1.66160677559673786163330078125</LongitudeDegrees>
            </Position>
            <AltitudeMeters>523</AltitudeMeters>
            <DistanceMeters>76840.438562248</DistanceMeters>
          </Trackpoint>
          <Trackpoint>
            <Time>2018-08-26T09:51:38.000Z</Time>
            <Position>
              <LatitudeDegrees>42.955259196460247039794921875</LatitudeDegrees>
              <LongitudeDegrees>-1.66151960380375385284423828125</LongitudeDegrees>
            </Position>
            <AltitudeMeters>523</AltitudeMeters>
            <DistanceMeters>76849.734195712</DistanceMeters>
          </Trackpoint>
          <Trackpoint>
            <Time>2018-08-26T09:51:39.000Z</Time>
            <Position>
              <LatitudeDegrees>42.9552050493657588958740234375</LatitudeDegrees>
              <LongitudeDegrees>-1.661432348191738128662109375</LongitudeDegrees>
            </Position>
            <AltitudeMeters>522.79998779296875</AltitudeMeters>
            <DistanceMeters>76859.053114381</DistanceMeters>
          </Trackpoint>
          <Trackpoint>
            <Time>2018-08-26T09:51:40.000Z</Time>
            <Position>
              <LatitudeDegrees>42.955150566995143890380859375</LatitudeDegrees>
              <LongitudeDegrees>-1.66134492494165897369384765625</LongitudeDegrees>
            </Position>
            <AltitudeMeters>522.79998779296875</AltitudeMeters>
            <DistanceMeters>76868.406369461</DistanceMeters>
          </Trackpoint>
          <Trackpoint>
            <Time>2018-08-26T09:51:41.000Z</Time>
            <Position>
              <LatitudeDegrees>42.955095581710338592529296875</LatitudeDegrees>
              <LongitudeDegrees>-1.66125775314867496490478515625</LongitudeDegrees>
            </Position>
            <AltitudeMeters>522.79998779296875</AltitudeMeters>
            <DistanceMeters>76877.780840324</DistanceMeters>
          </Trackpoint>
          <Trackpoint>
            <Time>2018-08-26T09:51:42.000Z</Time>
            <Position>
              <LatitudeDegrees>42.9550404287874698638916015625</LatitudeDegrees>
              <LongitudeDegrees>-1.66117049753665924072265625</LongitudeDegrees>
            </Position>
            <AltitudeMeters>522.79998779296875</AltitudeMeters>
            <DistanceMeters>76887.172633907</DistanceMeters>
          </Trackpoint>
          <Trackpoint>
            <Time>2018-08-26T09:51:43.000Z</Time>
            <Position>
              <LatitudeDegrees>42.95498569495975971221923828125</LatitudeDegrees>
              <LongitudeDegrees>-1.6610831581056118011474609375</LongitudeDegrees>
            </Position>
            <AltitudeMeters>522.79998779296875</AltitudeMeters>
            <DistanceMeters>76896.539395499</DistanceMeters>
          </Trackpoint>
          <Trackpoint>
            <Time>2018-08-26T09:51:44.000Z</Time>
            <Position>
              <LatitudeDegrees>42.954930961132049560546875</LatitudeDegrees>
              <LongitudeDegrees>-1.66099607013165950775146484375</LongitudeDegrees>
            </Position>
            <AltitudeMeters>522.79998779296875</AltitudeMeters>
            <DistanceMeters>76905.890719485</DistanceMeters>
          </Trackpoint>
          <Trackpoint>
            <Time>2018-08-26T09:51:45.000Z</Time>
            <Position>
              <LatitudeDegrees>42.9548761434853076934814453125</LatitudeDegrees>
              <LongitudeDegrees>-1.66090822778642177581787109375</LongitudeDegrees>
            </Position>
            <AltitudeMeters>522.79998779296875</AltitudeMeters>
            <DistanceMeters>76915.295004077</DistanceMeters>
          </Trackpoint>
          <Trackpoint>
            <Time>2018-08-26T09:51:46.000Z</Time>
            <Position>
              <LatitudeDegrees>42.954821325838565826416015625</LatitudeDegrees>
              <LongitudeDegrees>-1.66082046926021575927734375</LongitudeDegrees>
            </Position>
            <AltitudeMeters>522.79998779296875</AltitudeMeters>
            <DistanceMeters>76924.694006037</DistanceMeters>
          </Trackpoint>
          <Trackpoint>
            <Time>2018-08-26T09:51:47.000Z</Time>
            <Position>
              <LatitudeDegrees>42.95476667582988739013671875</LatitudeDegrees>
              <LongitudeDegrees>-1.66073304601013660430908203125</LongitudeDegrees>
            </Position>
            <AltitudeMeters>522.5999755859375</AltitudeMeters>
            <DistanceMeters>76934.059803525</DistanceMeters>
          </Trackpoint>
          <Trackpoint>
            <Time>2018-08-26T09:51:48.000Z</Time>
            <Position>
              <LatitudeDegrees>42.9547121934592723846435546875</LatitudeDegrees>
              <LongitudeDegrees>-1.66064570657908916473388671875</LongitudeDegrees>
            </Position>
            <AltitudeMeters>522.5999755859375</AltitudeMeters>
            <DistanceMeters>76943.408230121</DistanceMeters>
          </Trackpoint>
          <Trackpoint>
            <Time>2018-08-26T09:51:49.000Z</Time>
            <Position>
              <LatitudeDegrees>42.9546575434505939483642578125</LatitudeDegrees>
              <LongitudeDegrees>-1.66055786423385143280029296875</LongitudeDegrees>
            </Position>
            <AltitudeMeters>522.5999755859375</AltitudeMeters>
            <DistanceMeters>76952.800023704</DistanceMeters>
          </Trackpoint>
          <Trackpoint>
            <Time>2018-08-26T09:51:50.000Z</Time>
            <Position>
              <LatitudeDegrees>42.95460297726094722747802734375</LatitudeDegrees>
              <LongitudeDegrees>-1.660470105707645416259765625</LongitudeDegrees>
            </Position>
            <AltitudeMeters>522.5999755859375</AltitudeMeters>
            <DistanceMeters>76962.180272361</DistanceMeters>
          </Trackpoint>
          <Trackpoint>
            <Time>2018-08-26T09:51:51.000Z</Time>
            <Position>
              <LatitudeDegrees>42.95454765670001506805419921875</LatitudeDegrees>
              <LongitudeDegrees>-1.66038217954337596893310546875</LongitudeDegrees>
            </Position>
            <AltitudeMeters>522.5999755859375</AltitudeMeters>
            <DistanceMeters>76971.625755687</DistanceMeters>
          </Trackpoint>
          <Trackpoint>
            <Time>2018-08-26T09:51:52.000Z</Time>
            <Position>
              <LatitudeDegrees>42.95449300669133663177490234375</LatitudeDegrees>
              <LongitudeDegrees>-1.660293079912662506103515625</LongitudeDegrees>
            </Position>
            <AltitudeMeters>522.4000244140625</AltitudeMeters>
            <DistanceMeters>76981.096062928</DistanceMeters>
          </Trackpoint>
          <Trackpoint>
            <Time>2018-08-26T09:51:53.000Z</Time>
            <Position>
              <LatitudeDegrees>42.95443885959684848785400390625</LatitudeDegrees>
              <LongitudeDegrees>-1.66020356118679046630859375</LongitudeDegrees>
            </Position>
            <AltitudeMeters>522.4000244140625</AltitudeMeters>
            <DistanceMeters>76990.556830218</DistanceMeters>
          </Trackpoint>
          <Trackpoint>
            <Time>2018-08-26T09:51:54.000Z</Time>
            <Position>
              <LatitudeDegrees>42.95438370667397975921630859375</LatitudeDegrees>
              <LongitudeDegrees>-1.66011446155607700347900390625</LongitudeDegrees>
            </Position>
            <AltitudeMeters>522.20001220703125</AltitudeMeters>
            <DistanceMeters>77000.063301964</DistanceMeters>
          </Trackpoint>
          <Trackpoint>
            <Time>2018-08-26T09:51:55.000Z</Time>
            <Position>
              <LatitudeDegrees>42.95432813465595245361328125</LatitudeDegrees>
              <LongitudeDegrees>-1.6600263677537441253662109375</LongitudeDegrees>
            </Position>
            <AltitudeMeters>522.20001220703125</AltitudeMeters>
            <DistanceMeters>77009.537422496</DistanceMeters>
          </Trackpoint>
          <Trackpoint>
            <Time>2018-08-26T09:51:56.000Z</Time>
            <Position>
              <LatitudeDegrees>42.9542724788188934326171875</LatitudeDegrees>
              <LongitudeDegrees>-1.6599375195801258087158203125</LongitudeDegrees>
            </Position>
            <AltitudeMeters>522.20001220703125</AltitudeMeters>
            <DistanceMeters>77019.06382099</DistanceMeters>
          </Trackpoint>
          <Trackpoint>
            <Time>2018-08-26T09:51:57.000Z</Time>
            <Position>
              <LatitudeDegrees>42.954217158257961273193359375</LatitudeDegrees>
              <LongitudeDegrees>-1.65984758175909519195556640625</LongitudeDegrees>
            </Position>
            <AltitudeMeters>522.20001220703125</AltitudeMeters>
            <DistanceMeters>77028.633723565</DistanceMeters>
          </Trackpoint>
          <Trackpoint>
            <Time>2018-08-26T09:51:58.000Z</Time>
            <Position>
              <LatitudeDegrees>42.95416208915412425994873046875</LatitudeDegrees>
              <LongitudeDegrees>-1.65975806303322315216064453125</LongitudeDegrees>
            </Position>
            <AltitudeMeters>522.20001220703125</AltitudeMeters>
            <DistanceMeters>77038.160122058</DistanceMeters>
          </Trackpoint>
          <Trackpoint>
            <Time>2018-08-26T09:51:59.000Z</Time>
            <Position>
              <LatitudeDegrees>42.95410710386931896209716796875</LatitudeDegrees>
              <LongitudeDegrees>-1.65966904722154140472412109375</LongitudeDegrees>
            </Position>
            <AltitudeMeters>522.20001220703125</AltitudeMeters>
            <DistanceMeters>77047.64948043</DistanceMeters>
          </Trackpoint>
          <Trackpoint>
            <Time>2018-08-26T09:52:00.000Z</Time>
            <Position>
              <LatitudeDegrees>42.9540525376796722412109375</LatitudeDegrees>
              <LongitudeDegrees>-1.659580953419208526611328125</LongitudeDegrees>
            </Position>
            <AltitudeMeters>522</AltitudeMeters>
            <DistanceMeters>77057.050883954</DistanceMeters>
          </Trackpoint>
          <Trackpoint>
            <Time>2018-08-26T09:52:01.000Z</Time>
            <Position>
              <LatitudeDegrees>42.95399730093777179718017578125</LatitudeDegrees>
              <LongitudeDegrees>-1.65949453599750995635986328125</LongitudeDegrees>
            </Position>
            <AltitudeMeters>522</AltitudeMeters>
            <DistanceMeters>77066.397378459</DistanceMeters>
          </Trackpoint>
          <Trackpoint>
            <Time>2018-08-26T09:52:02.000Z</Time>
            <Position>
              <LatitudeDegrees>42.95394114218652248382568359375</LatitudeDegrees>
              <LongitudeDegrees>-1.659410297870635986328125</LongitudeDegrees>
            </Position>
            <AltitudeMeters>522</AltitudeMeters>
            <DistanceMeters>77075.679888325</DistanceMeters>
          </Trackpoint>
          <Trackpoint>
            <Time>2018-08-26T09:52:03.000Z</Time>
            <Position>
              <LatitudeDegrees>42.95388582162559032440185546875</LatitudeDegrees>
              <LongitudeDegrees>-1.659325473010540008544921875</LongitudeDegrees>
            </Position>
            <AltitudeMeters>522</AltitudeMeters>
            <DistanceMeters>77084.935119557</DistanceMeters>
          </Trackpoint>
          <Trackpoint>
            <Time>2018-08-26T09:52:04.000Z</Time>
            <Position>
              <LatitudeDegrees>42.95383150689303874969482421875</LatitudeDegrees>
              <LongitudeDegrees>-1.65923972614109516143798828125</LongitudeDegrees>
            </Position>
            <AltitudeMeters>522</AltitudeMeters>
            <DistanceMeters>77094.173260737</DistanceMeters>
          </Trackpoint>
          <Trackpoint>
            <Time>2018-08-26T09:52:05.000Z</Time>
            <Position>
              <LatitudeDegrees>42.95377819798886775970458984375</LatitudeDegrees>
              <LongitudeDegrees>-1.6591539792716503143310546875</LongitudeDegrees>
            </Position>
            <AltitudeMeters>521.79998779296875</AltitudeMeters>
            <DistanceMeters>77103.338290529</DistanceMeters>
          </Trackpoint>
          <Trackpoint>
            <Time>2018-08-26T09:52:06.000Z</Time>
            <Position>
              <LatitudeDegrees>42.95372472144663333892822265625</LatitudeDegrees>
              <LongitudeDegrees>-1.65906806476414203643798828125</LongitudeDegrees>
            </Position>
            <AltitudeMeters>521.5999755859375</AltitudeMeters>
            <DistanceMeters>77112.525462266</DistanceMeters>
          </Trackpoint>
          <Trackpoint>
            <Time>2018-08-26T09:52:07.000Z</Time>
            <Position>
              <LatitudeDegrees>42.95367107726633548736572265625</LatitudeDegrees>
              <LongitudeDegrees>-1.6589823178946971893310546875</LongitudeDegrees>
            </Position>
            <AltitudeMeters>521.4000244140625</AltitudeMeters>
            <DistanceMeters>77121.715090926</DistanceMeters>
          </Trackpoint>
          <Trackpoint>
            <Time>2018-08-26T09:52:08.000Z</Time>
            <Position>
              <LatitudeDegrees>42.9536178521811962127685546875</LatitudeDegrees>
              <LongitudeDegrees>-1.65889707393944263458251953125</LongitudeDegrees>
            </Position>
            <AltitudeMeters>521.20001220703125</AltitudeMeters>
            <DistanceMeters>77130.843592743</DistanceMeters>
          </Trackpoint>
          <Trackpoint>
            <Time>2018-08-26T09:52:09.000Z</Time>
            <Position>
              <LatitudeDegrees>42.95356462709605693817138671875</LatitudeDegrees>
              <LongitudeDegrees>-1.658811829984188079833984375</LongitudeDegrees>
            </Position>
            <AltitudeMeters>521.20001220703125</AltitudeMeters>
            <DistanceMeters>77139.971105288</DistanceMeters>
          </Trackpoint>
          <Trackpoint>
            <Time>2018-08-26T09:52:10.000Z</Time>
            <Position>
              <LatitudeDegrees>42.95351182110607624053955078125</LatitudeDegrees>
              <LongitudeDegrees>-1.65872692130506038665771484375</LongitudeDegrees>
            </Position>
            <AltitudeMeters>521</AltitudeMeters>
            <DistanceMeters>77149.047524593</DistanceMeters>
          </Trackpoint>
          <Trackpoint>
            <Time>2018-08-26T09:52:11.000Z</Time>
            <Position>
              <LatitudeDegrees>42.95345867983996868133544921875</LatitudeDegrees>
              <LongitudeDegrees>-1.6586426831781864166259765625</LongitudeDegrees>
            </Position>
            <AltitudeMeters>521</AltitudeMeters>
            <DistanceMeters>77158.10651652</DistanceMeters>
          </Trackpoint>
          <Trackpoint>
            <Time>2018-08-26T09:52:12.000Z</Time>
            <Position>
              <LatitudeDegrees>42.953405790030956268310546875</LatitudeDegrees>
              <LongitudeDegrees>-1.6585581935942173004150390625</LongitudeDegrees>
            </Position>
            <AltitudeMeters>521</AltitudeMeters>
            <DistanceMeters>77167.163514611</DistanceMeters>
          </Trackpoint>
          <Trackpoint>
            <Time>2018-08-26T09:52:13.000Z</Time>
            <Position>
              <LatitudeDegrees>42.95335306786000728607177734375</LatitudeDegrees>
              <LongitudeDegrees>-1.658473201096057891845703125</LongitudeDegrees>
            </Position>
            <AltitudeMeters>521</AltitudeMeters>
            <DistanceMeters>77176.239436455</DistanceMeters>
          </Trackpoint>
          <Trackpoint>
            <Time>2018-08-26T09:52:14.000Z</Time>
            <Position>
              <LatitudeDegrees>42.953299842774868011474609375</LatitudeDegrees>
              <LongitudeDegrees>-1.6583878733217716217041015625</LongitudeDegrees>
            </Position>
            <AltitudeMeters>521</AltitudeMeters>
            <DistanceMeters>77185.371894286</DistanceMeters>
          </Trackpoint>
          <Trackpoint>
            <Time>2018-08-26T09:52:15.000Z</Time>
            <Position>
              <LatitudeDegrees>42.9532463662326335906982421875</LatitudeDegrees>
              <LongitudeDegrees>-1.65830212645232677459716796875</LongitudeDegrees>
            </Position>
            <AltitudeMeters>521</AltitudeMeters>
            <DistanceMeters>77194.549723717</DistanceMeters>
          </Trackpoint>
          <Trackpoint>
            <Time>2018-08-26T09:52:16.000Z</Time>
            <Position>
              <LatitudeDegrees>42.9531923867762088775634765625</LatitudeDegrees>
              <LongitudeDegrees>-1.65821663103997707366943359375</LongitudeDegrees>
            </Position>
            <AltitudeMeters>520.79998779296875</AltitudeMeters>
            <DistanceMeters>77203.747701006</DistanceMeters>
          </Trackpoint>
          <Trackpoint>
            <Time>2018-08-26T09:52:17.000Z</Time>
            <Position>
              <LatitudeDegrees>42.95313865877687931060791015625</LatitudeDegrees>
              <LongitudeDegrees>-1.65813113562762737274169921875</LongitudeDegrees>
            </Position>
            <AltitudeMeters>520.79998779296875</AltitudeMeters>
            <DistanceMeters>77212.927498028</DistanceMeters>
          </Trackpoint>
          <Trackpoint>
            <Time>2018-08-26T09:52:18.000Z</Time>
            <Position>
              <LatitudeDegrees>42.953085601329803466796875</LatitudeDegrees>
              <LongitudeDegrees>-1.658045388758182525634765625</LongitudeDegrees>
            </Position>
            <AltitudeMeters>520.79998779296875</AltitudeMeters>
            <DistanceMeters>77222.074775674</DistanceMeters>
          </Trackpoint>
          <Trackpoint>
            <Time>2018-08-26T09:52:19.000Z</Time>
            <Position>
              <LatitudeDegrees>42.95303304679691791534423828125</LatitudeDegrees>
              <LongitudeDegrees>-1.657959558069705963134765625</LongitudeDegrees>
            </Position>
            <AltitudeMeters>520.79998779296875</AltitudeMeters>
            <DistanceMeters>77231.191399149</DistanceMeters>
          </Trackpoint>
          <Trackpoint>
            <Time>2018-08-26T09:52:20.000Z</Time>
            <Position>
              <LatitudeDegrees>42.95298057608306407928466796875</LatitudeDegrees>
              <LongitudeDegrees>-1.6578745655715465545654296875</LongitudeDegrees>
            </Position>
            <AltitudeMeters>520.79998779296875</AltitudeMeters>
            <DistanceMeters>77240.249394213</DistanceMeters>
          </Trackpoint>
          <Trackpoint>
            <Time>2018-08-26T09:52:21.000Z</Time>
            <Position>
              <LatitudeDegrees>42.95292802155017852783203125</LatitudeDegrees>
              <LongitudeDegrees>-1.657789908349514007568359375</LongitudeDegrees>
            </Position>
            <AltitudeMeters>520.79998779296875</AltitudeMeters>
            <DistanceMeters>77249.292423146</DistanceMeters>
          </Trackpoint>
          <Trackpoint>
            <Time>2018-08-26T09:52:22.000Z</Time>
            <Position>
              <LatitudeDegrees>42.9528750479221343994140625</LatitudeDegrees>
              <LongitudeDegrees>-1.65770583786070346832275390625</LongitudeDegrees>
            </Position>
            <AltitudeMeters>520.79998779296875</AltitudeMeters>
            <DistanceMeters>77258.329458686</DistanceMeters>
          </Trackpoint>
          <Trackpoint>
            <Time>2018-08-26T09:52:23.000Z</Time>
            <Position>
              <LatitudeDegrees>42.95282182283699512481689453125</LatitudeDegrees>
              <LongitudeDegrees>-1.65762252174317836761474609375</LongitudeDegrees>
            </Position>
            <AltitudeMeters>520.79998779296875</AltitudeMeters>
            <DistanceMeters>77267.338472343</DistanceMeters>
          </Trackpoint>
          <Trackpoint>
            <Time>2018-08-26T09:52:24.000Z</Time>
            <Position>
              <LatitudeDegrees>42.952768765389919281005859375</LatitudeDegrees>
              <LongitudeDegrees>-1.65753903798758983612060546875</LongitudeDegrees>
            </Position>
            <AltitudeMeters>520.5999755859375</AltitudeMeters>
            <DistanceMeters>77276.345481102</DistanceMeters>
          </Trackpoint>
          <Trackpoint>
            <Time>2018-08-26T09:52:25.000Z</Time>
            <Position>
              <LatitudeDegrees>42.95271621085703372955322265625</LatitudeDegrees>
              <LongitudeDegrees>-1.657454967498779296875</LongitudeDegrees>
            </Position>
            <AltitudeMeters>520.5999755859375</AltitudeMeters>
            <DistanceMeters>77285.351487243</DistanceMeters>
          </Trackpoint>
          <Trackpoint>
            <Time>2018-08-26T09:52:26.000Z</Time>
            <Position>
              <LatitudeDegrees>42.95266390778124332427978515625</LatitudeDegrees>
              <LongitudeDegrees>-1.65737072937190532684326171875</LongitudeDegrees>
            </Position>
            <AltitudeMeters>520.5999755859375</AltitudeMeters>
            <DistanceMeters>77294.350471939</DistanceMeters>
          </Trackpoint>
          <Trackpoint>
            <Time>2018-08-26T09:52:27.000Z</Time>
            <Position>
              <LatitudeDegrees>42.95261126942932605743408203125</LatitudeDegrees>
              <LongitudeDegrees>-1.65728665888309478759765625</LongitudeDegrees>
            </Position>
            <AltitudeMeters>520.5999755859375</AltitudeMeters>
            <DistanceMeters>77303.363494056</DistanceMeters>
          </Trackpoint>
          <Trackpoint>
            <Time>2018-08-26T09:52:28.000Z</Time>
            <Position>
              <LatitudeDegrees>42.95255846343934535980224609375</LatitudeDegrees>
              <LongitudeDegrees>-1.65720309130847454071044921875</LongitudeDegrees>
            </Position>
            <AltitudeMeters>520.5999755859375</AltitudeMeters>
            <DistanceMeters>77312.357460077</DistanceMeters>
          </Trackpoint>
          <Trackpoint>
            <Time>2018-08-26T09:52:29.000Z</Time>
            <Position>
              <LatitudeDegrees>42.95250582508742809295654296875</LatitudeDegrees>
              <LongitudeDegrees>-1.65712078101933002471923828125</LongitudeDegrees>
            </Position>
            <AltitudeMeters>520.5999755859375</AltitudeMeters>
            <DistanceMeters>77321.261620407</DistanceMeters>
          </Trackpoint>
          <Trackpoint>
            <Time>2018-08-26T09:52:30.000Z</Time>
            <Position>
              <LatitudeDegrees>42.9524534381926059722900390625</LatitudeDegrees>
              <LongitudeDegrees>-1.657038889825344085693359375</LongitudeDegrees>
            </Position>
            <AltitudeMeters>520.5999755859375</AltitudeMeters>
            <DistanceMeters>77330.121555763</DistanceMeters>
          </Trackpoint>
          <Trackpoint>
            <Time>2018-08-26T09:52:31.000Z</Time>
            <Position>
              <LatitudeDegrees>42.952401302754878997802734375</LatitudeDegrees>
              <LongitudeDegrees>-1.65695674717426300048828125</LongitudeDegrees>
            </Position>
            <AltitudeMeters>520.5999755859375</AltitudeMeters>
            <DistanceMeters>77338.978432982</DistanceMeters>
          </Trackpoint>
          <Trackpoint>
            <Time>2018-08-26T09:52:32.000Z</Time>
            <Position>
              <LatitudeDegrees>42.95234841294586658477783203125</LatitudeDegrees>
              <LongitudeDegrees>-1.6568756103515625</LongitudeDegrees>
            </Position>
            <AltitudeMeters>520.4000244140625</AltitudeMeters>
            <DistanceMeters>77347.82970087</DistanceMeters>
          </Trackpoint>
          <Trackpoint>
            <Time>2018-08-26T09:52:33.000Z</Time>
            <Position>
              <LatitudeDegrees>42.95229644514620304107666015625</LatitudeDegrees>
              <LongitudeDegrees>-1.65679455734789371490478515625</LongitudeDegrees>
            </Position>
            <AltitudeMeters>520.4000244140625</AltitudeMeters>
            <DistanceMeters>77356.607206907</DistanceMeters>
          </Trackpoint>
          <Trackpoint>
            <Time>2018-08-26T09:52:34.000Z</Time>
            <Position>
              <LatitudeDegrees>42.95224498026072978973388671875</LatitudeDegrees>
              <LongitudeDegrees>-1.6567133367061614990234375</LongitudeDegrees>
            </Position>
            <AltitudeMeters>520.4000244140625</AltitudeMeters>
            <DistanceMeters>77365.358439867</DistanceMeters>
          </Trackpoint>
          <Trackpoint>
            <Time>2018-08-26T09:52:35.000Z</Time>
            <Position>
              <LatitudeDegrees>42.95219351537525653839111328125</LatitudeDegrees>
              <LongitudeDegrees>-1.65663161315023899078369140625</LongitudeDegrees>
            </Position>
            <AltitudeMeters>520.4000244140625</AltitudeMeters>
            <DistanceMeters>77374.141088271</DistanceMeters>
          </Trackpoint>
          <Trackpoint>
            <Time>2018-08-26T09:52:36.000Z</Time>
            <Position>
              <LatitudeDegrees>42.95214221812784671783447265625</LatitudeDegrees>
              <LongitudeDegrees>-1.6565495543181896209716796875</LongitudeDegrees>
            </Position>
            <AltitudeMeters>520.20001220703125</AltitudeMeters>
            <DistanceMeters>77382.932471796</DistanceMeters>
          </Trackpoint>
          <Trackpoint>
            <Time>2018-08-26T09:52:37.000Z</Time>
            <Position>
              <LatitudeDegrees>42.95209142379462718963623046875</LatitudeDegrees>
              <LongitudeDegrees>-1.6564670763909816741943359375</LongitudeDegrees>
            </Position>
            <AltitudeMeters>520.20001220703125</AltitudeMeters>
            <DistanceMeters>77391.713063614</DistanceMeters>
          </Trackpoint>
          <Trackpoint>
            <Time>2018-08-26T09:52:38.000Z</Time>
            <Position>
              <LatitudeDegrees>42.95204079709947109222412109375</LatitudeDegrees>
              <LongitudeDegrees>-1.6563845984637737274169921875</LongitudeDegrees>
            </Position>
            <AltitudeMeters>520.20001220703125</AltitudeMeters>
            <DistanceMeters>77400.48233559</DistanceMeters>
          </Trackpoint>
          <Trackpoint>
            <Time>2018-08-26T09:52:39.000Z</Time>
            <Position>
              <LatitudeDegrees>42.951990254223346710205078125</LatitudeDegrees>
              <LongitudeDegrees>-1.65630220435559749603271484375</LongitudeDegrees>
            </Position>
            <AltitudeMeters>520.20001220703125</AltitudeMeters>
            <DistanceMeters>77409.240273094</DistanceMeters>
          </Trackpoint>
          <Trackpoint>
            <Time>2018-08-26T09:52:40.000Z</Time>
            <Position>
              <LatitudeDegrees>42.95193971134722232818603515625</LatitudeDegrees>
              <LongitudeDegrees>-1.6562193073332309722900390625</LongitudeDegrees>
            </Position>
            <AltitudeMeters>520.20001220703125</AltitudeMeters>
            <DistanceMeters>77418.029088367</DistanceMeters>
          </Trackpoint>
          <Trackpoint>
            <Time>2018-08-26T09:52:41.000Z</Time>
            <Position>
              <LatitudeDegrees>42.9518888331949710845947265625</LatitudeDegrees>
              <LongitudeDegrees>-1.65613599121570587158203125</LongitudeDegrees>
            </Position>
            <AltitudeMeters>520.20001220703125</AltitudeMeters>
            <DistanceMeters>77426.868616152</DistanceMeters>
          </Trackpoint>
          <Trackpoint>
            <Time>2018-08-26T09:52:42.000Z</Time>
            <Position>
              <LatitudeDegrees>42.95183946378529071807861328125</LatitudeDegrees>
              <LongitudeDegrees>-1.656051166355609893798828125</LongitudeDegrees>
            </Position>
            <AltitudeMeters>520.20001220703125</AltitudeMeters>
            <DistanceMeters>77435.697411079</DistanceMeters>
          </Trackpoint>
          <Trackpoint>
            <Time>2018-08-26T09:52:43.000Z</Time>
            <Position>
              <LatitudeDegrees>42.95179185457527637481689453125</LatitudeDegrees>
              <LongitudeDegrees>-1.6559644974768161773681640625</LongitudeDegrees>
            </Position>
            <AltitudeMeters>520.4000244140625</AltitudeMeters>
            <DistanceMeters>77444.526206006</DistanceMeters>
          </Trackpoint>
          <Trackpoint>
            <Time>2018-08-26T09:52:44.000Z</Time>
            <Position>
              <LatitudeDegrees>42.95174516737461090087890625</LatitudeDegrees>
              <LongitudeDegrees>-1.6558769904077053070068359375</LongitudeDegrees>
            </Position>
            <AltitudeMeters>520.4000244140625</AltitudeMeters>
            <DistanceMeters>77453.34783844</DistanceMeters>
          </Trackpoint>
          <Trackpoint>
            <Time>2018-08-26T09:52:45.000Z</Time>
            <Position>
              <LatitudeDegrees>42.95169956982135772705078125</LatitudeDegrees>
              <LongitudeDegrees>-1.65578864514827728271484375</LongitudeDegrees>
            </Position>
            <AltitudeMeters>520.4000244140625</AltitudeMeters>
            <DistanceMeters>77462.154615749</DistanceMeters>
          </Trackpoint>
          <Trackpoint>
            <Time>2018-08-26T09:52:46.000Z</Time>
            <Position>
              <LatitudeDegrees>42.95165455900132656097412109375</LatitudeDegrees>
              <LongitudeDegrees>-1.65570013225078582763671875</LongitudeDegrees>
            </Position>
            <AltitudeMeters>520.4000244140625</AltitudeMeters>
            <DistanceMeters>77470.935207568</DistanceMeters>
          </Trackpoint>
          <Trackpoint>
            <Time>2018-08-26T09:52:47.000Z</Time>
            <Position>
              <LatitudeDegrees>42.95161097310483455657958984375</LatitudeDegrees>
              <LongitudeDegrees>-1.65560985915362834930419921875</LongitudeDegrees>
            </Position>
            <AltitudeMeters>520.4000244140625</AltitudeMeters>
            <DistanceMeters>77479.74557289</DistanceMeters>
          </Trackpoint>
          <Trackpoint>
            <Time>2018-08-26T09:52:48.000Z</Time>
            <Position>
              <LatitudeDegrees>42.95157082378864288330078125</LatitudeDegrees>
              <LongitudeDegrees>-1.65551682002842426300048828125</LongitudeDegrees>
            </Position>
            <AltitudeMeters>520.4000244140625</AltitudeMeters>
            <DistanceMeters>77488.544656673</DistanceMeters>
          </Trackpoint>
          <Trackpoint>
            <Time>2018-08-26T09:52:49.000Z</Time>
            <Position>
              <LatitudeDegrees>42.95153419487178325653076171875</LatitudeDegrees>
              <LongitudeDegrees>-1.65542042814195156097412109375</LongitudeDegrees>
            </Position>
            <AltitudeMeters>520.4000244140625</AltitudeMeters>
            <DistanceMeters>77497.392863428</DistanceMeters>
          </Trackpoint>
          <Trackpoint>
            <Time>2018-08-26T09:52:50.000Z</Time>
            <Position>
              <LatitudeDegrees>42.95149865560233592987060546875</LatitudeDegrees>
              <LongitudeDegrees>-1.65532219223678112030029296875</LongitudeDegrees>
            </Position>
            <AltitudeMeters>520.4000244140625</AltitudeMeters>
            <DistanceMeters>77506.319306983</DistanceMeters>
          </Trackpoint>
          <Trackpoint>
            <Time>2018-08-26T09:52:51.000Z</Time>
            <Position>
              <LatitudeDegrees>42.9514630325138568878173828125</LatitudeDegrees>
              <LongitudeDegrees>-1.6552238725125789642333984375</LongitudeDegrees>
            </Position>
            <AltitudeMeters>520.5999755859375</AltitudeMeters>
            <DistanceMeters>77515.256366127</DistanceMeters>
          </Trackpoint>
          <Trackpoint>
            <Time>2018-08-26T09:52:52.000Z</Time>
            <Position>
              <LatitudeDegrees>42.9514278285205364227294921875</LatitudeDegrees>
              <LongitudeDegrees>-1.65512504987418651580810546875</LongitudeDegrees>
            </Position>
            <AltitudeMeters>520.5999755859375</AltitudeMeters>
            <DistanceMeters>77524.210081483</DistanceMeters>
          </Trackpoint>
          <Trackpoint>
            <Time>2018-08-26T09:52:53.000Z</Time>
            <Position>
              <LatitudeDegrees>42.95139379799365997314453125</LatitudeDegrees>
              <LongitudeDegrees>-1.6550260595977306365966796875</LongitudeDegrees>
            </Position>
            <AltitudeMeters>520.5999755859375</AltitudeMeters>
            <DistanceMeters>77533.119311076</DistanceMeters>
          </Trackpoint>
          <Trackpoint>
            <Time>2018-08-26T09:52:54.000Z</Time>
            <Position>
              <LatitudeDegrees>42.95136085711419582366943359375</LatitudeDegrees>
              <LongitudeDegrees>-1.65492572821676731109619140625</LongitudeDegrees>
            </Position>
            <AltitudeMeters>520.5999755859375</AltitudeMeters>
            <DistanceMeters>77542.077059637</DistanceMeters>
          </Trackpoint>
          <Trackpoint>
            <Time>2018-08-26T09:52:55.000Z</Time>
            <Position>
              <LatitudeDegrees>42.9513300955295562744140625</LatitudeDegrees>
              <LongitudeDegrees>-1.65482439100742340087890625</LongitudeDegrees>
            </Position>
            <AltitudeMeters>520.5999755859375</AltitudeMeters>
            <DistanceMeters>77551.014118781</DistanceMeters>
          </Trackpoint>
          <Trackpoint>
            <Time>2018-08-26T09:52:56.000Z</Time>
            <Position>
              <LatitudeDegrees>42.9513010941445827484130859375</LatitudeDegrees>
              <LongitudeDegrees>-1.65472238324582576751708984375</LongitudeDegrees>
            </Position>
            <AltitudeMeters>520.5999755859375</AltitudeMeters>
            <DistanceMeters>77559.929427685</DistanceMeters>
          </Trackpoint>
          <Trackpoint>
            <Time>2018-08-26T09:52:57.000Z</Time>
            <Position>
              <LatitudeDegrees>42.95127184130251407623291015625</LatitudeDegrees>
              <LongitudeDegrees>-1.65461962111294269561767578125</LongitudeDegrees>
            </Position>
            <AltitudeMeters>520.5999755859375</AltitudeMeters>
            <DistanceMeters>77568.912342752</DistanceMeters>
          </Trackpoint>
          <Trackpoint>
            <Time>2018-08-26T09:52:58.000Z</Time>
            <Position>
              <LatitudeDegrees>42.9512427560985088348388671875</LatitudeDegrees>
              <LongitudeDegrees>-1.65451585315167903900146484375</LongitudeDegrees>
            </Position>
            <AltitudeMeters>520.5999755859375</AltitudeMeters>
            <DistanceMeters>77577.964354333</DistanceMeters>
          </Trackpoint>
          <Trackpoint>
            <Time>2018-08-26T09:52:59.000Z</Time>
            <Position>
              <LatitudeDegrees>42.95121467672288417816162109375</LatitudeDegrees>
              <LongitudeDegrees>-1.6544125042855739593505859375</LongitudeDegrees>
            </Position>
            <AltitudeMeters>520.5999755859375</AltitudeMeters>
            <DistanceMeters>77586.944755923</DistanceMeters>
          </Trackpoint>
          <Trackpoint>
            <Time>2018-08-26T09:53:00.000Z</Time>
            <Position>
              <LatitudeDegrees>42.951186262071132659912109375</LatitudeDegrees>
              <LongitudeDegrees>-1.65430999360978603363037109375</LongitudeDegrees>
            </Position>
            <AltitudeMeters>520.5999755859375</AltitudeMeters>
            <DistanceMeters>77595.874233791</DistanceMeters>
          </Trackpoint>
          <Trackpoint>
            <Time>2018-08-26T09:53:01.000Z</Time>
            <Position>
              <LatitudeDegrees>42.95115751214325428009033203125</LatitudeDegrees>
              <LongitudeDegrees>-1.654209159314632415771484375</LongitudeDegrees>
            </Position>
            <AltitudeMeters>520.5999755859375</AltitudeMeters>
            <DistanceMeters>77604.690746596</DistanceMeters>
          </Trackpoint>
          <Trackpoint>
            <Time>2018-08-26T09:53:02.000Z</Time>
            <Position>
              <LatitudeDegrees>42.9511290974915027618408203125</LatitudeDegrees>
              <LongitudeDegrees>-1.65410748682916164398193359375</LongitudeDegrees>
            </Position>
            <AltitudeMeters>520.5999755859375</AltitudeMeters>
            <DistanceMeters>77613.5573043</DistanceMeters>
          </Trackpoint>
          <Trackpoint>
            <Time>2018-08-26T09:53:03.000Z</Time>
            <Position>
              <LatitudeDegrees>42.95110135339200496673583984375</LatitudeDegrees>
              <LongitudeDegrees>-1.6540061496198177337646484375</LongitudeDegrees>
            </Position>
            <AltitudeMeters>520.5999755859375</AltitudeMeters>
            <DistanceMeters>77622.37176842</DistanceMeters>
          </Trackpoint>
          <Trackpoint>
            <Time>2018-08-26T09:53:04.000Z</Time>
            <Position>
              <LatitudeDegrees>42.9510741122066974639892578125</LatitudeDegrees>
              <LongitudeDegrees>-1.6539045609533786773681640625</LongitudeDegrees>
            </Position>
            <AltitudeMeters>520.5999755859375</AltitudeMeters>
            <DistanceMeters>77631.18623254</DistanceMeters>
          </Trackpoint>
          <Trackpoint>
            <Time>2018-08-26T09:53:05.000Z</Time>
            <Position>
              <LatitudeDegrees>42.9510476253926753997802734375</LatitudeDegrees>
              <LongitudeDegrees>-1.653803475201129913330078125</LongitudeDegrees>
            </Position>
            <AltitudeMeters>520.5999755859375</AltitudeMeters>
            <DistanceMeters>77639.932820882</DistanceMeters>
          </Trackpoint>
          <Trackpoint>
            <Time>2018-08-26T09:53:06.000Z</Time>
            <Position>
              <LatitudeDegrees>42.95101954601705074310302734375</LatitudeDegrees>
              <LongitudeDegrees>-1.65370054543018341064453125</LongitudeDegrees>
            </Position>
            <AltitudeMeters>520.5999755859375</AltitudeMeters>
            <DistanceMeters>77648.881492175</DistanceMeters>
          </Trackpoint>
          <Trackpoint>
            <Time>2018-08-26T09:53:07.000Z</Time>
            <Position>
              <LatitudeDegrees>42.9509902931749820709228515625</LatitudeDegrees>
              <LongitudeDegrees>-1.6535977832973003387451171875</LongitudeDegrees>
            </Position>
            <AltitudeMeters>520.4000244140625</AltitudeMeters>
            <DistanceMeters>77657.864407242</DistanceMeters>
          </Trackpoint>
          <Trackpoint>
            <Time>2018-08-26T09:53:08.000Z</Time>
            <Position>
              <LatitudeDegrees>42.95096154324710369110107421875</LatitudeDegrees>
              <LongitudeDegrees>-1.65349845774471759796142578125</LongitudeDegrees>
            </Position>
            <AltitudeMeters>520.4000244140625</AltitudeMeters>
            <DistanceMeters>77666.565969802</DistanceMeters>
          </Trackpoint>
          <Trackpoint>
            <Time>2018-08-26T09:53:09.000Z</Time>
            <Position>
              <LatitudeDegrees>42.95093338005244731903076171875</LatitudeDegrees>
              <LongitudeDegrees>-1.65339737199246883392333984375</LongitudeDegrees>
            </Position>
            <AltitudeMeters>520.4000244140625</AltitudeMeters>
            <DistanceMeters>77675.377360003</DistanceMeters>
          </Trackpoint>
          <Trackpoint>
            <Time>2018-08-26T09:53:10.000Z</Time>
            <Position>
              <LatitudeDegrees>42.95090605504810810089111328125</LatitudeDegrees>
              <LongitudeDegrees>-1.6532946936786174774169921875</LongitudeDegrees>
            </Position>
            <AltitudeMeters>520.5999755859375</AltitudeMeters>
            <DistanceMeters>77684.27797013</DistanceMeters>
          </Trackpoint>
          <Trackpoint>
            <Time>2018-08-26T09:53:11.000Z</Time>
            <Position>
              <LatitudeDegrees>42.95087881386280059814453125</LatitudeDegrees>
              <LongitudeDegrees>-1.65319352410733699798583984375</LongitudeDegrees>
            </Position>
            <AltitudeMeters>520.5999755859375</AltitudeMeters>
            <DistanceMeters>77693.060104433</DistanceMeters>
          </Trackpoint>
          <Trackpoint>
            <Time>2018-08-26T09:53:12.000Z</Time>
            <Position>
              <LatitudeDegrees>42.95085073448717594146728515625</LatitudeDegrees>
              <LongitudeDegrees>-1.6530923545360565185546875</LongitudeDegrees>
            </Position>
            <AltitudeMeters>520.5999755859375</AltitudeMeters>
            <DistanceMeters>77701.875080768</DistanceMeters>
          </Trackpoint>
          <Trackpoint>
            <Time>2018-08-26T09:53:13.000Z</Time>
            <Position>
              <LatitudeDegrees>42.950820811092853546142578125</LatitudeDegrees>
              <LongitudeDegrees>-1.65299118496477603912353515625</LongitudeDegrees>
            </Position>
            <AltitudeMeters>520.5999755859375</AltitudeMeters>
            <DistanceMeters>77710.764523887</DistanceMeters>
          </Trackpoint>
          <Trackpoint>
            <Time>2018-08-26T09:53:14.000Z</Time>
            <Position>
              <LatitudeDegrees>42.95079055242240428924560546875</LatitudeDegrees>
              <LongitudeDegrees>-1.652890853583812713623046875</LongitudeDegrees>
            </Position>
            <AltitudeMeters>520.5999755859375</AltitudeMeters>
            <DistanceMeters>77719.604562436</DistanceMeters>
          </Trackpoint>
          <Trackpoint>
            <Time>2018-08-26T09:53:15.000Z</Time>
            <Position>
              <LatitudeDegrees>42.95076037757098674774169921875</LatitudeDegrees>
              <LongitudeDegrees>-1.6527904383838176727294921875</LongitudeDegrees>
            </Position>
            <AltitudeMeters>520.4000244140625</AltitudeMeters>
            <DistanceMeters>77728.447664946</DistanceMeters>
          </Trackpoint>
          <Trackpoint>
            <Time>2018-08-26T09:53:16.000Z</Time>
            <Position>
              <LatitudeDegrees>42.95072852633893489837646484375</LatitudeDegrees>
              <LongitudeDegrees>-1.652689017355442047119140625</LongitudeDegrees>
            </Position>
            <AltitudeMeters>520.4000244140625</AltitudeMeters>
            <DistanceMeters>77737.438618418</DistanceMeters>
          </Trackpoint>
          <Trackpoint>
            <Time>2018-08-26T09:53:17.000Z</Time>
            <Position>
              <LatitudeDegrees>42.95069365762174129486083984375</LatitudeDegrees>
              <LongitudeDegrees>-1.65258851833641529083251953125</LongitudeDegrees>
            </Position>
            <AltitudeMeters>520.4000244140625</AltitudeMeters>
            <DistanceMeters>77746.499603741</DistanceMeters>
          </Trackpoint>
          <Trackpoint>
            <Time>2018-08-26T09:53:18.000Z</Time>
            <Position>
              <LatitudeDegrees>42.9506563581526279449462890625</LatitudeDegrees>
              <LongitudeDegrees>-1.6524896956980228424072265625</LongitudeDegrees>
            </Position>
            <AltitudeMeters>520.4000244140625</AltitudeMeters>
            <DistanceMeters>77755.55809725</DistanceMeters>
          </Trackpoint>
          <Trackpoint>
            <Time>2018-08-26T09:53:19.000Z</Time>
            <Position>
              <LatitudeDegrees>42.950617969036102294921875</LatitudeDegrees>
              <LongitudeDegrees>-1.65239171124994754791259765625</LongitudeDegrees>
            </Position>
            <AltitudeMeters>520.4000244140625</AltitudeMeters>
            <DistanceMeters>77764.612103764</DistanceMeters>
          </Trackpoint>
          <Trackpoint>
            <Time>2018-08-26T09:53:20.000Z</Time>
            <Position>
              <LatitudeDegrees>42.9505782388150691986083984375</LatitudeDegrees>
              <LongitudeDegrees>-1.6522935591638088226318359375</LongitudeDegrees>
            </Position>
            <AltitudeMeters>520.4000244140625</AltitudeMeters>
            <DistanceMeters>77773.749504204</DistanceMeters>
          </Trackpoint>
          <Trackpoint>
            <Time>2018-08-26T09:53:21.000Z</Time>
            <Position>
              <LatitudeDegrees>42.95053741894662380218505859375</LatitudeDegrees>
              <LongitudeDegrees>-1.65219775401055812835693359375</LongitudeDegrees>
            </Position>
            <AltitudeMeters>520.4000244140625</AltitudeMeters>
            <DistanceMeters>77782.780542375</DistanceMeters>
          </Trackpoint>
          <Trackpoint>
            <Time>2018-08-26T09:53:22.000Z</Time>
            <Position>
              <LatitudeDegrees>42.95049467124044895172119140625</LatitudeDegrees>
              <LongitudeDegrees>-1.65210253559052944183349609375</LongitudeDegrees>
            </Position>
            <AltitudeMeters>520.4000244140625</AltitudeMeters>
            <DistanceMeters>77791.881303944</DistanceMeters>
          </Trackpoint>
          <Trackpoint>
            <Time>2018-08-26T09:53:23.000Z</Time>
            <Position>
              <LatitudeDegrees>42.95045007951557636260986328125</LatitudeDegrees>
              <LongitudeDegrees>-1.65200807154178619384765625</LongitudeDegrees>
            </Position>
            <AltitudeMeters>520.4000244140625</AltitudeMeters>
            <DistanceMeters>77801.038448142</DistanceMeters>
          </Trackpoint>
          <Trackpoint>
            <Time>2018-08-26T09:53:24.000Z</Time>
            <Position>
              <LatitudeDegrees>42.95040364377200603485107421875</LatitudeDegrees>
              <LongitudeDegrees>-1.651916205883026123046875</LongitudeDegrees>
            </Position>
            <AltitudeMeters>520.20001220703125</AltitudeMeters>
            <DistanceMeters>77810.133254364</DistanceMeters>
          </Trackpoint>
          <Trackpoint>
            <Time>2018-08-26T09:53:25.000Z</Time>
            <Position>
              <LatitudeDegrees>42.950354777276515960693359375</LatitudeDegrees>
              <LongitudeDegrees>-1.65182492695748805999755859375</LongitudeDegrees>
            </Position>
            <AltitudeMeters>520.20001220703125</AltitudeMeters>
            <DistanceMeters>77819.346436148</DistanceMeters>
          </Trackpoint>
          <Trackpoint>
            <Time>2018-08-26T09:53:26.000Z</Time>
            <Position>
              <LatitudeDegrees>42.95030440203845500946044921875</LatitudeDegrees>
              <LongitudeDegrees>-1.6517359949648380279541015625</LongitudeDegrees>
            </Position>
            <AltitudeMeters>520.20001220703125</AltitudeMeters>
            <DistanceMeters>77828.507523991</DistanceMeters>
          </Trackpoint>
          <Trackpoint>
            <Time>2018-08-26T09:53:27.000Z</Time>
            <Position>
              <LatitudeDegrees>42.95025226660072803497314453125</LatitudeDegrees>
              <LongitudeDegrees>-1.6516484878957271575927734375</LongitudeDegrees>
            </Position>
            <AltitudeMeters>520.20001220703125</AltitudeMeters>
            <DistanceMeters>77837.699608917</DistanceMeters>
          </Trackpoint>
          <Trackpoint>
            <Time>2018-08-26T09:53:28.000Z</Time>
            <Position>
              <LatitudeDegrees>42.95019828714430332183837890625</LatitudeDegrees>
              <LongitudeDegrees>-1.65156148374080657958984375</LongitudeDegrees>
            </Position>
            <AltitudeMeters>520</AltitudeMeters>
            <DistanceMeters>77846.99135584</DistanceMeters>
          </Trackpoint>
          <Trackpoint>
            <Time>2018-08-26T09:53:29.000Z</Time>
            <Position>
              <LatitudeDegrees>42.95014321804046630859375</LatitudeDegrees>
              <LongitudeDegrees>-1.65147565305233001708984375</LongitudeDegrees>
            </Position>
            <AltitudeMeters>520</AltitudeMeters>
            <DistanceMeters>77856.289417567</DistanceMeters>
          </Trackpoint>
          <Trackpoint>
            <Time>2018-08-26T09:53:30.000Z</Time>
            <Position>
              <LatitudeDegrees>42.9500867240130901336669921875</LatitudeDegrees>
              <LongitudeDegrees>-1.6513918340206146240234375</LongitudeDegrees>
            </Position>
            <AltitudeMeters>519.5999755859375</AltitudeMeters>
            <DistanceMeters>77865.571927433</DistanceMeters>
          </Trackpoint>
          <Trackpoint>
            <Time>2018-08-26T09:53:31.000Z</Time>
            <Position>
              <LatitudeDegrees>42.95002947561442852020263671875</LatitudeDegrees>
              <LongitudeDegrees>-1.65130893699824810028076171875</LongitudeDegrees>
            </Position>
            <AltitudeMeters>519.20001220703125</AltitudeMeters>
            <DistanceMeters>77874.856382707</DistanceMeters>
          </Trackpoint>
          <Trackpoint>
            <Time>2018-08-26T09:53:32.000Z</Time>
            <Position>
              <LatitudeDegrees>42.94997155666351318359375</LatitudeDegrees>
              <LongitudeDegrees>-1.65122712962329387664794921875</LongitudeDegrees>
            </Position>
            <AltitudeMeters>519</AltitudeMeters>
            <DistanceMeters>77884.128185539</DistanceMeters>
          </Trackpoint>
          <Trackpoint>
            <Time>2018-08-26T09:53:33.000Z</Time>
            <Position>
              <LatitudeDegrees>42.94991363771259784698486328125</LatitudeDegrees>
              <LongitudeDegrees>-1.65114599280059337615966796875</LongitudeDegrees>
            </Position>
            <AltitudeMeters>519</AltitudeMeters>
            <DistanceMeters>77893.360949027</DistanceMeters>
          </Trackpoint>
          <Trackpoint>
            <Time>2018-08-26T09:53:34.000Z</Time>
            <Position>
              <LatitudeDegrees>42.94985513202846050262451171875</LatitudeDegrees>
              <LongitudeDegrees>-1.65106594562530517578125</LongitudeDegrees>
            </Position>
            <AltitudeMeters>518.79998779296875</AltitudeMeters>
            <DistanceMeters>77902.577070719</DistanceMeters>
          </Trackpoint>
          <Trackpoint>
            <Time>2018-08-26T09:53:35.000Z</Time>
            <Position>
              <LatitudeDegrees>42.94979595579206943511962890625</LatitudeDegrees>
              <LongitudeDegrees>-1.6509863175451755523681640625</LongitudeDegrees>
            </Position>
            <AltitudeMeters>518.79998779296875</AltitudeMeters>
            <DistanceMeters>77911.822540075</DistanceMeters>
          </Trackpoint>
          <Trackpoint>
            <Time>2018-08-26T09:53:36.000Z</Time>
            <Position>
              <LatitudeDegrees>42.94973644427955150604248046875</LatitudeDegrees>
              <LongitudeDegrees>-1.65090660564601421356201171875</LongitudeDegrees>
            </Position>
            <AltitudeMeters>518.79998779296875</AltitudeMeters>
            <DistanceMeters>77921.098237804</DistanceMeters>
          </Trackpoint>
          <Trackpoint>
            <Time>2018-08-26T09:53:37.000Z</Time>
            <Position>
              <LatitudeDegrees>42.9496763460338115692138671875</LatitudeDegrees>
              <LongitudeDegrees>-1.65082680992782115936279296875</LongitudeDegrees>
            </Position>
            <AltitudeMeters>518.5999755859375</AltitudeMeters>
            <DistanceMeters>77930.425389377</DistanceMeters>
          </Trackpoint>
          <Trackpoint>
            <Time>2018-08-26T09:53:38.000Z</Time>
            <Position>
              <LatitudeDegrees>42.949617169797420501708984375</LatitudeDegrees>
              <LongitudeDegrees>-1.65074609220027923583984375</LongitudeDegrees>
            </Position>
            <AltitudeMeters>518.5999755859375</AltitudeMeters>
            <DistanceMeters>77939.732187604</DistanceMeters>
          </Trackpoint>
          <Trackpoint>
            <Time>2018-08-26T09:53:39.000Z</Time>
            <Position>
              <LatitudeDegrees>42.9495579935610294342041015625</LatitudeDegrees>
              <LongitudeDegrees>-1.65066638030111789703369140625</LongitudeDegrees>
            </Position>
            <AltitudeMeters>518.5999755859375</AltitudeMeters>
            <DistanceMeters>77948.981562947</DistanceMeters>
          </Trackpoint>
          <Trackpoint>
            <Time>2018-08-26T09:53:40.000Z</Time>
            <Position>
              <LatitudeDegrees>42.94949873350560665130615234375</LatitudeDegrees>
              <LongitudeDegrees>-1.6505870036780834197998046875</LongitudeDegrees>
            </Position>
            <AltitudeMeters>518.4000244140625</AltitudeMeters>
            <DistanceMeters>77958.218237795</DistanceMeters>
          </Trackpoint>
          <Trackpoint>
            <Time>2018-08-26T09:53:41.000Z</Time>
            <Position>
              <LatitudeDegrees>42.94943922199308872222900390625</LatitudeDegrees>
              <LongitudeDegrees>-1.65050829760730266571044921875</LongitudeDegrees>
            </Position>
            <AltitudeMeters>518.4000244140625</AltitudeMeters>
            <DistanceMeters>77967.437298457</DistanceMeters>
          </Trackpoint>
          <Trackpoint>
            <Time>2018-08-26T09:53:42.000Z</Time>
            <Position>
              <LatitudeDegrees>42.94937954284250736236572265625</LatitudeDegrees>
              <LongitudeDegrees>-1.65042950771749019622802734375</LongitudeDegrees>
            </Position>
            <AltitudeMeters>518.20001220703125</AltitudeMeters>
            <DistanceMeters>77976.674462108</DistanceMeters>
          </Trackpoint>
          <Trackpoint>
            <Time>2018-08-26T09:53:43.000Z</Time>
            <Position>
              <LatitudeDegrees>42.94932053424417972564697265625</LatitudeDegrees>
              <LongitudeDegrees>-1.6503502987325191497802734375</LongitudeDegrees>
            </Position>
            <AltitudeMeters>518.20001220703125</AltitudeMeters>
            <DistanceMeters>77985.881761259</DistanceMeters>
          </Trackpoint>
          <Trackpoint>
            <Time>2018-08-26T09:53:44.000Z</Time>
            <Position>
              <LatitudeDegrees>42.9492619447410106658935546875</LatitudeDegrees>
              <LongitudeDegrees>-1.65027134120464324951171875</LongitudeDegrees>
            </Position>
            <AltitudeMeters>518</AltitudeMeters>
            <DistanceMeters>77995.041370434</DistanceMeters>
          </Trackpoint>
          <Trackpoint>
            <Time>2018-08-26T09:53:45.000Z</Time>
            <Position>
              <LatitudeDegrees>42.94920352287590503692626953125</LatitudeDegrees>
              <LongitudeDegrees>-1.65019229985773563385009765625</LongitudeDegrees>
            </Position>
            <AltitudeMeters>517.79998779296875</AltitudeMeters>
            <DistanceMeters>78004.192595977</DistanceMeters>
          </Trackpoint>
          <Trackpoint>
            <Time>2018-08-26T09:53:46.000Z</Time>
            <Position>
              <LatitudeDegrees>42.94914602302014827728271484375</LatitudeDegrees>
              <LongitudeDegrees>-1.65011300705373287200927734375</LongitudeDegrees>
            </Position>
            <AltitudeMeters>517.79998779296875</AltitudeMeters>
            <DistanceMeters>78013.285416217</DistanceMeters>
          </Trackpoint>
          <Trackpoint>
            <Time>2018-08-26T09:53:47.000Z</Time>
            <Position>
              <LatitudeDegrees>42.9490882717072963714599609375</LatitudeDegrees>
              <LongitudeDegrees>-1.6500348038971424102783203125</LongitudeDegrees>
            </Position>
            <AltitudeMeters>517.5999755859375</AltitudeMeters>
            <DistanceMeters>78022.335432424</DistanceMeters>
          </Trackpoint>
          <Trackpoint>
            <Time>2018-08-26T09:53:48.000Z</Time>
            <Position>
              <LatitudeDegrees>42.9490302689373493194580078125</LatitudeDegrees>
              <LongitudeDegrees>-1.6499568521976470947265625</LongitudeDegrees>
            </Position>
            <AltitudeMeters>517.5999755859375</AltitudeMeters>
            <DistanceMeters>78031.390436241</DistanceMeters>
          </Trackpoint>
          <Trackpoint>
            <Time>2018-08-26T09:53:49.000Z</Time>
            <Position>
              <LatitudeDegrees>42.94897234998643398284912109375</LatitudeDegrees>
              <LongitudeDegrees>-1.6498790681362152099609375</LongitudeDegrees>
            </Position>
            <AltitudeMeters>517.5999755859375</AltitudeMeters>
            <DistanceMeters>78040.430468974</DistanceMeters>
          </Trackpoint>
          <Trackpoint>
            <Time>2018-08-26T09:53:50.000Z</Time>
            <Position>
              <LatitudeDegrees>42.94891434721648693084716796875</LatitudeDegrees>
              <LongitudeDegrees>-1.6498011164367198944091796875</LongitudeDegrees>
            </Position>
            <AltitudeMeters>517.5999755859375</AltitudeMeters>
            <DistanceMeters>78049.486469982</DistanceMeters>
          </Trackpoint>
          <Trackpoint>
            <Time>2018-08-26T09:53:51.000Z</Time>
            <Position>
              <LatitudeDegrees>42.9488562606275081634521484375</LatitudeDegrees>
              <LongitudeDegrees>-1.64972358383238315582275390625</LongitudeDegrees>
            </Position>
            <AltitudeMeters>517.5999755859375</AltitudeMeters>
            <DistanceMeters>78058.524504697</DistanceMeters>
          </Trackpoint>
          <Trackpoint>
            <Time>2018-08-26T09:53:52.000Z</Time>
            <Position>
              <LatitudeDegrees>42.9487982578575611114501953125</LatitudeDegrees>
              <LongitudeDegrees>-1.6496457159519195556640625</LongitudeDegrees>
            </Position>
            <AltitudeMeters>517.5999755859375</AltitudeMeters>
            <DistanceMeters>78067.575518646</DistanceMeters>
          </Trackpoint>
          <Trackpoint>
            <Time>2018-08-26T09:53:53.000Z</Time>
            <Position>
              <LatitudeDegrees>42.9487405903637409210205078125</LatitudeDegrees>
              <LongitudeDegrees>-1.6495674289762973785400390625</LongitudeDegrees>
            </Position>
            <AltitudeMeters>517.5999755859375</AltitudeMeters>
            <DistanceMeters>78076.624537001</DistanceMeters>
          </Trackpoint>
          <Trackpoint>
            <Time>2018-08-26T09:53:54.000Z</Time>
            <Position>
              <LatitudeDegrees>42.9486822523176670074462890625</LatitudeDegrees>
              <LongitudeDegrees>-1.6494889743626117706298828125</LongitudeDegrees>
            </Position>
            <AltitudeMeters>517.5999755859375</AltitudeMeters>
            <DistanceMeters>78085.736206597</DistanceMeters>
          </Trackpoint>
          <Trackpoint>
            <Time>2018-08-26T09:53:55.000Z</Time>
            <Position>
              <LatitudeDegrees>42.94862383045256137847900390625</LatitudeDegrees>
              <LongitudeDegrees>-1.6494108550250530242919921875</LongitudeDegrees>
            </Position>
            <AltitudeMeters>517.5999755859375</AltitudeMeters>
            <DistanceMeters>78094.834983484</DistanceMeters>
          </Trackpoint>
          <Trackpoint>
            <Time>2018-08-26T09:53:56.000Z</Time>
            <Position>
              <LatitudeDegrees>42.94856582768261432647705078125</LatitudeDegrees>
              <LongitudeDegrees>-1.64933214895427227020263671875</LongitudeDegrees>
            </Position>
            <AltitudeMeters>517.79998779296875</AltitudeMeters>
            <DistanceMeters>78103.934256582</DistanceMeters>
          </Trackpoint>
          <Trackpoint>
            <Time>2018-08-26T09:53:57.000Z</Time>
            <Position>
              <LatitudeDegrees>42.94850732199847698211669921875</LatitudeDegrees>
              <LongitudeDegrees>-1.6492532752454280853271484375</LongitudeDegrees>
            </Position>
            <AltitudeMeters>517.79998779296875</AltitudeMeters>
            <DistanceMeters>78113.082521362</DistanceMeters>
          </Trackpoint>
          <Trackpoint>
            <Time>2018-08-26T09:53:58.000Z</Time>
            <Position>
              <LatitudeDegrees>42.9484492354094982147216796875</LatitudeDegrees>
              <LongitudeDegrees>-1.6491738148033618927001953125</LongitudeDegrees>
            </Position>
            <AltitudeMeters>518</AltitudeMeters>
            <DistanceMeters>78122.23177317</DistanceMeters>
          </Trackpoint>
          <Trackpoint>
            <Time>2018-08-26T09:53:59.000Z</Time>
            <Position>
              <LatitudeDegrees>42.94839014299213886260986328125</LatitudeDegrees>
              <LongitudeDegrees>-1.64909519255161285400390625</LongitudeDegrees>
            </Position>
            <AltitudeMeters>518.20001220703125</AltitudeMeters>
            <DistanceMeters>78131.412062024</DistanceMeters>
          </Trackpoint>
          <Trackpoint>
            <Time>2018-08-26T09:54:00.000Z</Time>
            <Position>
              <LatitudeDegrees>42.948331050574779510498046875</LatitudeDegrees>
              <LongitudeDegrees>-1.6490165702998638153076171875</LongitudeDegrees>
            </Position>
            <AltitudeMeters>518.20001220703125</AltitudeMeters>
            <DistanceMeters>78140.592350878</DistanceMeters>
          </Trackpoint>
          <Trackpoint>
            <Time>2018-08-26T09:54:01.000Z</Time>
            <Position>
              <LatitudeDegrees>42.94827212579548358917236328125</LatitudeDegrees>
              <LongitudeDegrees>-1.64893828332424163818359375</LongitudeDegrees>
            </Position>
            <AltitudeMeters>518.20001220703125</AltitudeMeters>
            <DistanceMeters>78149.740615658</DistanceMeters>
          </Trackpoint>
          <Trackpoint>
            <Time>2018-08-26T09:54:02.000Z</Time>
            <Position>
              <LatitudeDegrees>42.9482133686542510986328125</LatitudeDegrees>
              <LongitudeDegrees>-1.6488598287105560302734375</LongitudeDegrees>
            </Position>
            <AltitudeMeters>518.20001220703125</AltitudeMeters>
            <DistanceMeters>78158.884931263</DistanceMeters>
          </Trackpoint>
          <Trackpoint>
            <Time>2018-08-26T09:54:03.000Z</Time>
            <Position>
              <LatitudeDegrees>42.9481541924178600311279296875</LatitudeDegrees>
              <LongitudeDegrees>-1.64878179319202899932861328125</LongitudeDegrees>
            </Position>
            <AltitudeMeters>518.20001220703125</AltitudeMeters>
            <DistanceMeters>78168.039116611</DistanceMeters>
          </Trackpoint>
          <Trackpoint>
            <Time>2018-08-26T09:54:04.000Z</Time>
            <Position>
              <LatitudeDegrees>42.94809401035308837890625</LatitudeDegrees>
              <LongitudeDegrees>-1.64870493113994598388671875</LongitudeDegrees>
            </Position>
            <AltitudeMeters>518.20001220703125</AltitudeMeters>
            <DistanceMeters>78177.209071456</DistanceMeters>
          </Trackpoint>
          <Trackpoint>
            <Time>2018-08-26T09:54:05.000Z</Time>
            <Position>
              <LatitudeDegrees>42.948032319545745849609375</LatitudeDegrees>
              <LongitudeDegrees>-1.64863075129687786102294921875</LongitudeDegrees>
            </Position>
            <AltitudeMeters>518.20001220703125</AltitudeMeters>
            <DistanceMeters>78186.356349102</DistanceMeters>
          </Trackpoint>
          <Trackpoint>
            <Time>2018-08-26T09:54:06.000Z</Time>
            <Position>
              <LatitudeDegrees>42.94796937145292758941650390625</LatitudeDegrees>
              <LongitudeDegrees>-1.64855967275798320770263671875</LongitudeDegrees>
            </Position>
            <AltitudeMeters>518.20001220703125</AltitudeMeters>
            <DistanceMeters>78195.446189555</DistanceMeters>
          </Trackpoint>
          <Trackpoint>
            <Time>2018-08-26T09:54:07.000Z</Time>
            <Position>
              <LatitudeDegrees>42.94790449552237987518310546875</LatitudeDegrees>
              <LongitudeDegrees>-1.648492701351642608642578125</LongitudeDegrees>
            </Position>
            <AltitudeMeters>518.20001220703125</AltitudeMeters>
            <DistanceMeters>78204.496205762</DistanceMeters>
          </Trackpoint>
          <Trackpoint>
            <Time>2018-08-26T09:54:08.000Z</Time>
            <Position>
              <LatitudeDegrees>42.94783693738281726837158203125</LatitudeDegrees>
              <LongitudeDegrees>-1.64843000471591949462890625</LongitudeDegrees>
            </Position>
            <AltitudeMeters>518.20001220703125</AltitudeMeters>
            <DistanceMeters>78213.586046215</DistanceMeters>
          </Trackpoint>
          <Trackpoint>
            <Time>2018-08-26T09:54:09.000Z</Time>
            <Position>
              <LatitudeDegrees>42.94776745140552520751953125</LatitudeDegrees>
              <LongitudeDegrees>-1.6483721695840358734130859375</LongitudeDegrees>
            </Position>
            <AltitudeMeters>518.20001220703125</AltitudeMeters>
            <DistanceMeters>78222.642047223</DistanceMeters>
          </Trackpoint>
          <Trackpoint>
            <Time>2018-08-26T09:54:10.000Z</Time>
            <Position>
              <LatitudeDegrees>42.94769561849534511566162109375</LatitudeDegrees>
              <LongitudeDegrees>-1.6483198665082454681396484375</LongitudeDegrees>
            </Position>
            <AltitudeMeters>518</AltitudeMeters>
            <DistanceMeters>78231.702035903</DistanceMeters>
          </Trackpoint>
          <Trackpoint>
            <Time>2018-08-26T09:54:11.000Z</Time>
            <Position>
              <LatitudeDegrees>42.947622276842594146728515625</LatitudeDegrees>
              <LongitudeDegrees>-1.648272089660167694091796875</LongitudeDegrees>
            </Position>
            <AltitudeMeters>518</AltitudeMeters>
            <DistanceMeters>78240.746063348</DistanceMeters>
          </Trackpoint>
          <Trackpoint>
            <Time>2018-08-26T09:54:12.000Z</Time>
            <Position>
              <LatitudeDegrees>42.9475480131804943084716796875</LatitudeDegrees>
              <LongitudeDegrees>-1.64822724647819995880126953125</LongitudeDegrees>
            </Position>
            <AltitudeMeters>518</AltitudeMeters>
            <DistanceMeters>78249.783098888</DistanceMeters>
          </Trackpoint>
          <Trackpoint>
            <Time>2018-08-26T09:54:13.000Z</Time>
            <Position>
              <LatitudeDegrees>42.947474084794521331787109375</LatitudeDegrees>
              <LongitudeDegrees>-1.6481837444007396697998046875</LongitudeDegrees>
            </Position>
            <AltitudeMeters>518</AltitudeMeters>
            <DistanceMeters>78258.741855467</DistanceMeters>
          </Trackpoint>
          <Trackpoint>
            <Time>2018-08-26T09:54:14.000Z</Time>
            <Position>
              <LatitudeDegrees>42.94740141369402408599853515625</LatitudeDegrees>
              <LongitudeDegrees>-1.6481421701610088348388671875</LongitudeDegrees>
            </Position>
            <AltitudeMeters>518</AltitudeMeters>
            <DistanceMeters>78267.510097642</DistanceMeters>
          </Trackpoint>
          <Trackpoint>
            <Time>2018-08-26T09:54:15.000Z</Time>
            <Position>
              <LatitudeDegrees>42.9473287425935268402099609375</LatitudeDegrees>
              <LongitudeDegrees>-1.6481022723019123077392578125</LongitudeDegrees>
            </Position>
            <AltitudeMeters>518</AltitudeMeters>
            <DistanceMeters>78276.227212605</DistanceMeters>
          </Trackpoint>
          <Trackpoint>
            <Time>2018-08-26T09:54:16.000Z</Time>
            <Position>
              <LatitudeDegrees>42.94725674204528331756591796875</LatitudeDegrees>
              <LongitudeDegrees>-1.64805860258638858795166015625</LongitudeDegrees>
            </Position>
            <AltitudeMeters>518</AltitudeMeters>
            <DistanceMeters>78284.99545478</DistanceMeters>
          </Trackpoint>
          <Trackpoint>
            <Time>2018-08-26T09:54:17.000Z</Time>
            <Position>
              <LatitudeDegrees>42.9471852444112300872802734375</LatitudeDegrees>
              <LongitudeDegrees>-1.64801401086151599884033203125</LongitudeDegrees>
            </Position>
            <AltitudeMeters>518</AltitudeMeters>
            <DistanceMeters>78293.743591603</DistanceMeters>
          </Trackpoint>
          <Trackpoint>
            <Time>2018-08-26T09:54:18.000Z</Time>
            <Position>
              <LatitudeDegrees>42.9471138305962085723876953125</LatitudeDegrees>
              <LongitudeDegrees>-1.64796975441277027130126953125</LongitudeDegrees>
            </Position>
            <AltitudeMeters>518</AltitudeMeters>
            <DistanceMeters>78302.471576759</DistanceMeters>
          </Trackpoint>
          <Trackpoint>
            <Time>2018-08-26T09:54:19.000Z</Time>
            <Position>
              <LatitudeDegrees>42.94704216532409191131591796875</LatitudeDegrees>
              <LongitudeDegrees>-1.647925414144992828369140625</LongitudeDegrees>
            </Position>
            <AltitudeMeters>518</AltitudeMeters>
            <DistanceMeters>78311.227451872</DistanceMeters>
          </Trackpoint>
          <Trackpoint>
            <Time>2018-08-26T09:54:20.000Z</Time>
            <Position>
              <LatitudeDegrees>42.94697041623294353485107421875</LatitudeDegrees>
              <LongitudeDegrees>-1.64788224734365940093994140625</LongitudeDegrees>
            </Position>
            <AltitudeMeters>518</AltitudeMeters>
            <DistanceMeters>78319.953367559</DistanceMeters>
          </Trackpoint>
          <Trackpoint>
            <Time>2018-08-26T09:54:21.000Z</Time>
            <Position>
              <LatitudeDegrees>42.9468985833227634429931640625</LatitudeDegrees>
              <LongitudeDegrees>-1.6478394158184528350830078125</LongitudeDegrees>
            </Position>
            <AltitudeMeters>518</AltitudeMeters>
            <DistanceMeters>78328.677213286</DistanceMeters>
          </Trackpoint>
          <Trackpoint>
            <Time>2018-08-26T09:54:22.000Z</Time>
            <Position>
              <LatitudeDegrees>42.9468268342316150665283203125</LatitudeDegrees>
              <LongitudeDegrees>-1.6477961651980876922607421875</LongitudeDegrees>
            </Position>
            <AltitudeMeters>518</AltitudeMeters>
            <DistanceMeters>78337.405715733</DistanceMeters>
          </Trackpoint>
          <Trackpoint>
            <Time>2018-08-26T09:54:23.000Z</Time>
            <Position>
              <LatitudeDegrees>42.946755252778530120849609375</LatitudeDegrees>
              <LongitudeDegrees>-1.6477532498538494110107421875</LongitudeDegrees>
            </Position>
            <AltitudeMeters>518</AltitudeMeters>
            <DistanceMeters>78346.1067594</DistanceMeters>
          </Trackpoint>
          <Trackpoint>
            <Time>2018-08-26T09:54:24.000Z</Time>
            <Position>
              <LatitudeDegrees>42.946683503687381744384765625</LatitudeDegrees>
              <LongitudeDegrees>-1.6477113403379917144775390625</LongitudeDegrees>
            </Position>
            <AltitudeMeters>518</AltitudeMeters>
            <DistanceMeters>78354.791182148</DistanceMeters>
          </Trackpoint>
          <Trackpoint>
            <Time>2018-08-26T09:54:25.000Z</Time>
            <Position>
              <LatitudeDegrees>42.94661234132945537567138671875</LatitudeDegrees>
              <LongitudeDegrees>-1.6476689279079437255859375</LongitudeDegrees>
            </Position>
            <AltitudeMeters>518</AltitudeMeters>
            <DistanceMeters>78363.431822867</DistanceMeters>
          </Trackpoint>
          <Trackpoint>
            <Time>2018-08-26T09:54:26.000Z</Time>
            <Position>
              <LatitudeDegrees>42.94654168188571929931640625</LatitudeDegrees>
              <LongitudeDegrees>-1.64762442000210285186767578125</LongitudeDegrees>
            </Position>
            <AltitudeMeters>518</AltitudeMeters>
            <DistanceMeters>78372.091775804</DistanceMeters>
          </Trackpoint>
          <Trackpoint>
            <Time>2018-08-26T09:54:27.000Z</Time>
            <Position>
              <LatitudeDegrees>42.94647152535617351531982421875</LatitudeDegrees>
              <LongitudeDegrees>-1.64757974445819854736328125</LongitudeDegrees>
            </Position>
            <AltitudeMeters>517.79998779296875</AltitudeMeters>
            <DistanceMeters>78380.707298329</DistanceMeters>
          </Trackpoint>
          <Trackpoint>
            <Time>2018-08-26T09:54:28.000Z</Time>
            <Position>
              <LatitudeDegrees>42.946401536464691162109375</LatitudeDegrees>
              <LongitudeDegrees>-1.647533141076564788818359375</LongitudeDegrees>
            </Position>
            <AltitudeMeters>517.79998779296875</AltitudeMeters>
            <DistanceMeters>78389.374026423</DistanceMeters>
          </Trackpoint>
          <Trackpoint>
            <Time>2018-08-26T09:54:29.000Z</Time>
            <Position>
              <LatitudeDegrees>42.9463312961161136627197265625</LatitudeDegrees>
              <LongitudeDegrees>-1.6474880464375019073486328125</LongitudeDegrees>
            </Position>
            <AltitudeMeters>517.79998779296875</AltitudeMeters>
            <DistanceMeters>78398.012576749</DistanceMeters>
          </Trackpoint>
          <Trackpoint>
            <Time>2018-08-26T09:54:30.000Z</Time>
            <Position>
              <LatitudeDegrees>42.94625996612012386322021484375</LatitudeDegrees>
              <LongitudeDegrees>-1.64744429290294647216796875</LongitudeDegrees>
            </Position>
            <AltitudeMeters>517.79998779296875</AltitudeMeters>
            <DistanceMeters>78406.715695799</DistanceMeters>
          </Trackpoint>
          <Trackpoint>
            <Time>2018-08-26T09:54:31.000Z</Time>
            <Position>
              <LatitudeDegrees>42.9461877979338169097900390625</LatitudeDegrees>
              <LongitudeDegrees>-1.64740229956805706024169921875</LongitudeDegrees>
            </Position>
            <AltitudeMeters>517.79998779296875</AltitudeMeters>
            <DistanceMeters>78415.446784239</DistanceMeters>
          </Trackpoint>
          <Trackpoint>
            <Time>2018-08-26T09:54:32.000Z</Time>
            <Position>
              <LatitudeDegrees>42.9461157135665416717529296875</LatitudeDegrees>
              <LongitudeDegrees>-1.64735888130962848663330078125</LongitudeDegrees>
            </Position>
            <AltitudeMeters>517.79998779296875</AltitudeMeters>
            <DistanceMeters>78424.215026414</DistanceMeters>
          </Trackpoint>
          <Trackpoint>
            <Time>2018-08-26T09:54:33.000Z</Time>
            <Position>
              <LatitudeDegrees>42.9460442997515201568603515625</LatitudeDegrees>
              <LongitudeDegrees>-1.64731479249894618988037109375</LongitudeDegrees>
            </Position>
            <AltitudeMeters>517.79998779296875</AltitudeMeters>
            <DistanceMeters>78432.937319349</DistanceMeters>
          </Trackpoint>
          <Trackpoint>
            <Time>2018-08-26T09:54:34.000Z</Time>
            <Position>
              <LatitudeDegrees>42.9459728859364986419677734375</LatitudeDegrees>
              <LongitudeDegrees>-1.647270284593105316162109375</LongitudeDegrees>
            </Position>
            <AltitudeMeters>517.79998779296875</AltitudeMeters>
            <DistanceMeters>78441.674094279</DistanceMeters>
          </Trackpoint>
          <Trackpoint>
            <Time>2018-08-26T09:54:35.000Z</Time>
            <Position>
              <LatitudeDegrees>42.94590122066438198089599609375</LatitudeDegrees>
              <LongitudeDegrees>-1.6472258605062961578369140625</LongitudeDegrees>
            </Position>
            <AltitudeMeters>517.79998779296875</AltitudeMeters>
            <DistanceMeters>78450.433062795</DistanceMeters>
          </Trackpoint>
          <Trackpoint>
            <Time>2018-08-26T09:54:36.000Z</Time>
            <Position>
              <LatitudeDegrees>42.9458293877542018890380859375</LatitudeDegrees>
              <LongitudeDegrees>-1.64718269370496273040771484375</LongitudeDegrees>
            </Position>
            <AltitudeMeters>517.5999755859375</AltitudeMeters>
            <DistanceMeters>78459.167770339</DistanceMeters>
          </Trackpoint>
          <Trackpoint>
            <Time>2018-08-26T09:54:37.000Z</Time>
            <Position>
              <LatitudeDegrees>42.94575713574886322021484375</LatitudeDegrees>
              <LongitudeDegrees>-1.64713877253234386444091796875</LongitudeDegrees>
            </Position>
            <AltitudeMeters>517.5999755859375</AltitudeMeters>
            <DistanceMeters>78467.96993234</DistanceMeters>
          </Trackpoint>
          <Trackpoint>
            <Time>2018-08-26T09:54:38.000Z</Time>
            <Position>
              <LatitudeDegrees>42.94568547047674655914306640625</LatitudeDegrees>
              <LongitudeDegrees>-1.6470944322645664215087890625</LongitudeDegrees>
            </Position>
            <AltitudeMeters>517.5999755859375</AltitudeMeters>
            <DistanceMeters>78476.725807454</DistanceMeters>
          </Trackpoint>
          <Trackpoint>
            <Time>2018-08-26T09:54:39.000Z</Time>
            <Position>
              <LatitudeDegrees>42.9456144757568836212158203125</LatitudeDegrees>
              <LongitudeDegrees>-1.64705076254904270172119140625</LongitudeDegrees>
            </Position>
            <AltitudeMeters>517.4000244140625</AltitudeMeters>
            <DistanceMeters>78485.39201457</DistanceMeters>
          </Trackpoint>
          <Trackpoint>
            <Time>2018-08-26T09:54:40.000Z</Time>
            <Position>
              <LatitudeDegrees>42.94554390013217926025390625</LatitudeDegrees>
              <LongitudeDegrees>-1.64700751192867755889892578125</LongitudeDegrees>
            </Position>
            <AltitudeMeters>517.20001220703125</AltitudeMeters>
            <DistanceMeters>78494.001246095</DistanceMeters>
          </Trackpoint>
          <Trackpoint>
            <Time>2018-08-26T09:54:41.000Z</Time>
            <Position>
              <LatitudeDegrees>42.94547391124069690704345703125</LatitudeDegrees>
              <LongitudeDegrees>-1.646963171660900115966796875</LongitudeDegrees>
            </Position>
            <AltitudeMeters>516.5999755859375</AltitudeMeters>
            <DistanceMeters>78502.587371187</DistanceMeters>
          </Trackpoint>
          <Trackpoint>
            <Time>2018-08-26T09:54:42.000Z</Time>
            <Position>
              <LatitudeDegrees>42.94540316797792911529541015625</LatitudeDegrees>
              <LongitudeDegrees>-1.64691933430731296539306640625</LongitudeDegrees>
            </Position>
            <AltitudeMeters>516.4000244140625</AltitudeMeters>
            <DistanceMeters>78511.233235678</DistanceMeters>
          </Trackpoint>
          <Trackpoint>
            <Time>2018-08-26T09:54:43.000Z</Time>
            <Position>
              <LatitudeDegrees>42.9453318379819393157958984375</LatitudeDegrees>
              <LongitudeDegrees>-1.64687633514404296875</LongitudeDegrees>
            </Position>
            <AltitudeMeters>516.4000244140625</AltitudeMeters>
            <DistanceMeters>78519.911417374</DistanceMeters>
          </Trackpoint>
          <Trackpoint>
            <Time>2018-08-26T09:54:44.000Z</Time>
            <Position>
              <LatitudeDegrees>42.9452600888907909393310546875</LatitudeDegrees>
              <LongitudeDegrees>-1.646833084523677825927734375</LongitudeDegrees>
            </Position>
            <AltitudeMeters>516.20001220703125</AltitudeMeters>
            <DistanceMeters>78528.63991982</DistanceMeters>
          </Trackpoint>
          <Trackpoint>
            <Time>2018-08-26T09:54:45.000Z</Time>
            <Position>
              <LatitudeDegrees>42.94518850743770599365234375</LatitudeDegrees>
              <LongitudeDegrees>-1.64679226465523242950439453125</LongitudeDegrees>
            </Position>
            <AltitudeMeters>515.79998779296875</AltitudeMeters>
            <DistanceMeters>78537.273241949</DistanceMeters>
          </Trackpoint>
          <Trackpoint>
            <Time>2018-08-26T09:54:46.000Z</Time>
            <Position>
              <LatitudeDegrees>42.94511717744171619415283203125</LatitudeDegrees>
              <LongitudeDegrees>-1.64674901403486728668212890625</LongitudeDegrees>
            </Position>
            <AltitudeMeters>515.5999755859375</AltitudeMeters>
            <DistanceMeters>78545.958704436</DistanceMeters>
          </Trackpoint>
          <Trackpoint>
            <Time>2018-08-26T09:54:47.000Z</Time>
            <Position>
              <LatitudeDegrees>42.945045344531536102294921875</LatitudeDegrees>
              <LongitudeDegrees>-1.64670073427259922027587890625</LongitudeDegrees>
            </Position>
            <AltitudeMeters>515.4000244140625</AltitudeMeters>
            <DistanceMeters>78554.868947535</DistanceMeters>
          </Trackpoint>
          <Trackpoint>
            <Time>2018-08-26T09:54:48.000Z</Time>
            <Position>
              <LatitudeDegrees>42.944973595440387725830078125</LatitudeDegrees>
              <LongitudeDegrees>-1.64665496908128261566162109375</LongitudeDegrees>
            </Position>
            <AltitudeMeters>515.4000244140625</AltitudeMeters>
            <DistanceMeters>78563.68187483</DistanceMeters>
          </Trackpoint>
          <Trackpoint>
            <Time>2018-08-26T09:54:49.000Z</Time>
            <Position>
              <LatitudeDegrees>42.9449023492634296417236328125</LatitudeDegrees>
              <LongitudeDegrees>-1.6466094553470611572265625</LongitudeDegrees>
            </Position>
            <AltitudeMeters>515.4000244140625</AltitudeMeters>
            <DistanceMeters>78572.435687068</DistanceMeters>
          </Trackpoint>
          <Trackpoint>
            <Time>2018-08-26T09:54:50.000Z</Time>
            <Position>
              <LatitudeDegrees>42.9448322765529155731201171875</LatitudeDegrees>
              <LongitudeDegrees>-1.646571569144725799560546875</LongitudeDegrees>
            </Position>
            <AltitudeMeters>515.4000244140625</AltitudeMeters>
            <DistanceMeters>78580.823914273</DistanceMeters>
          </Trackpoint>
          <Trackpoint>
            <Time>2018-08-26T09:54:51.000Z</Time>
            <Position>
              <LatitudeDegrees>42.9447618685662746429443359375</LatitudeDegrees>
              <LongitudeDegrees>-1.6465301625430583953857421875</LongitudeDegrees>
            </Position>
            <AltitudeMeters>515.20001220703125</AltitudeMeters>
            <DistanceMeters>78589.355704602</DistanceMeters>
          </Trackpoint>
          <Trackpoint>
            <Time>2018-08-26T09:54:52.000Z</Time>
            <Position>
              <LatitudeDegrees>42.9446911253035068511962890625</LatitudeDegrees>
              <LongitudeDegrees>-1.64648783393204212188720703125</LongitudeDegrees>
            </Position>
            <AltitudeMeters>515.20001220703125</AltitudeMeters>
            <DistanceMeters>78597.951289833</DistanceMeters>
          </Trackpoint>
          <Trackpoint>
            <Time>2018-08-26T09:54:53.000Z</Time>
            <Position>
              <LatitudeDegrees>42.9446207173168659210205078125</LatitudeDegrees>
              <LongitudeDegrees>-1.64644508622586727142333984375</LongitudeDegrees>
            </Position>
            <AltitudeMeters>515</AltitudeMeters>
            <DistanceMeters>78606.526891419</DistanceMeters>
          </Trackpoint>
          <Trackpoint>
            <Time>2018-08-26T09:54:54.000Z</Time>
            <Position>
              <LatitudeDegrees>42.944550812244415283203125</LatitudeDegrees>
              <LongitudeDegrees>-1.64640183560550212860107421875</LongitudeDegrees>
            </Position>
            <AltitudeMeters>515</AltitudeMeters>
            <DistanceMeters>78615.068202067</DistanceMeters>
          </Trackpoint>
          <Trackpoint>
            <Time>2018-08-26T09:54:55.000Z</Time>
            <Position>
              <LatitudeDegrees>42.944482080638408660888671875</LatitudeDegrees>
              <LongitudeDegrees>-1.64636135101318359375</LongitudeDegrees>
            </Position>
            <AltitudeMeters>515</AltitudeMeters>
            <DistanceMeters>78623.399178454</DistanceMeters>
          </Trackpoint>
          <Trackpoint>
            <Time>2018-08-26T09:54:56.000Z</Time>
            <Position>
              <LatitudeDegrees>42.944413013756275177001953125</LatitudeDegrees>
              <LongitudeDegrees>-1.64631667546927928924560546875</LongitudeDegrees>
            </Position>
            <AltitudeMeters>515</AltitudeMeters>
            <DistanceMeters>78631.904998371</DistanceMeters>
          </Trackpoint>
          <Trackpoint>
            <Time>2018-08-26T09:54:57.000Z</Time>
            <Position>
              <LatitudeDegrees>42.94434520415961742401123046875</LatitudeDegrees>
              <LongitudeDegrees>-1.64627761580049991607666015625</LongitudeDegrees>
            </Position>
            <AltitudeMeters>515</AltitudeMeters>
            <DistanceMeters>78640.096609815</DistanceMeters>
          </Trackpoint>
          <Trackpoint>
            <Time>2018-08-26T09:54:58.000Z</Time>
            <Position>
              <LatitudeDegrees>42.94427764602005481719970703125</LatitudeDegrees>
              <LongitudeDegrees>-1.64624073542654514312744140625</LongitudeDegrees>
            </Position>
            <AltitudeMeters>515</AltitudeMeters>
            <DistanceMeters>78648.19453641</DistanceMeters>
          </Trackpoint>
          <Trackpoint>
            <Time>2018-08-26T09:54:59.000Z</Time>
            <Position>
              <LatitudeDegrees>42.9442103393375873565673828125</LatitudeDegrees>
              <LongitudeDegrees>-1.64620016701519489288330078125</LongitudeDegrees>
            </Position>
            <AltitudeMeters>515</AltitudeMeters>
            <DistanceMeters>78656.382840117</DistanceMeters>
          </Trackpoint>
          <Trackpoint>
            <Time>2018-08-26T09:55:00.000Z</Time>
            <Position>
              <LatitudeDegrees>42.94414579868316650390625</LatitudeDegrees>
              <LongitudeDegrees>-1.64615909568965435028076171875</LongitudeDegrees>
            </Position>
            <AltitudeMeters>515</AltitudeMeters>
            <DistanceMeters>78664.307749055</DistanceMeters>
          </Trackpoint>
          <Trackpoint>
            <Time>2018-08-26T09:55:01.000Z</Time>
            <Position>
              <LatitudeDegrees>42.94408050365746021270751953125</LatitudeDegrees>
              <LongitudeDegrees>-1.64612053893506526947021484375</LongitudeDegrees>
            </Position>
            <AltitudeMeters>515</AltitudeMeters>
            <DistanceMeters>78672.225248071</DistanceMeters>
          </Trackpoint>
          <Trackpoint>
            <Time>2018-08-26T09:55:02.000Z</Time>
            <Position>
              <LatitudeDegrees>42.94401512481272220611572265625</LatitudeDegrees>
              <LongitudeDegrees>-1.64608382619917392730712890625</LongitudeDegrees>
            </Position>
            <AltitudeMeters>515</AltitudeMeters>
            <DistanceMeters>78680.092977987</DistanceMeters>
          </Trackpoint>
          <Trackpoint>
            <Time>2018-08-26T09:55:03.000Z</Time>
            <Position>
              <LatitudeDegrees>42.94394840486347675323486328125</LatitudeDegrees>
              <LongitudeDegrees>-1.64604141376912593841552734375</LongitudeDegrees>
            </Position>
            <AltitudeMeters>515</AltitudeMeters>
            <DistanceMeters>78688.282935729</DistanceMeters>
          </Trackpoint>
          <Trackpoint>
            <Time>2018-08-26T09:55:04.000Z</Time>
            <Position>
              <LatitudeDegrees>42.94388218782842159271240234375</LatitudeDegrees>
              <LongitudeDegrees>-1.6459898650646209716796875</LongitudeDegrees>
            </Position>
            <AltitudeMeters>515</AltitudeMeters>
            <DistanceMeters>78696.765367521</DistanceMeters>
          </Trackpoint>
          <Trackpoint>
            <Time>2018-08-26T09:55:05.000Z</Time>
            <Position>
              <LatitudeDegrees>42.943818904459476470947265625</LatitudeDegrees>
              <LongitudeDegrees>-1.64594552479684352874755859375</LongitudeDegrees>
            </Position>
            <AltitudeMeters>515</AltitudeMeters>
            <DistanceMeters>78704.680585166</DistanceMeters>
          </Trackpoint>
          <Trackpoint>
            <Time>2018-08-26T09:55:06.000Z</Time>
            <Position>
              <LatitudeDegrees>42.94375679455697536468505859375</LatitudeDegrees>
              <LongitudeDegrees>-1.645907722413539886474609375</LongitudeDegrees>
            </Position>
            <AltitudeMeters>515</AltitudeMeters>
            <DistanceMeters>78712.248196732</DistanceMeters>
          </Trackpoint>
          <Trackpoint>
            <Time>2018-08-26T09:55:07.000Z</Time>
            <Position>
              <LatitudeDegrees>42.94369443319737911224365234375</LatitudeDegrees>
              <LongitudeDegrees>-1.64587385952472686767578125</LongitudeDegrees>
            </Position>
            <AltitudeMeters>515.20001220703125</AltitudeMeters>
            <DistanceMeters>78719.71792513</DistanceMeters>
          </Trackpoint>
          <Trackpoint>
            <Time>2018-08-26T09:55:08.000Z</Time>
            <Position>
              <LatitudeDegrees>42.9436306469142436981201171875</LatitudeDegrees>
              <LongitudeDegrees>-1.645837984979152679443359375</LongitudeDegrees>
            </Position>
            <AltitudeMeters>515.4000244140625</AltitudeMeters>
            <DistanceMeters>78727.395707299</DistanceMeters>
          </Trackpoint>
          <Trackpoint>
            <Time>2018-08-26T09:55:09.000Z</Time>
            <Position>
              <LatitudeDegrees>42.9435662738978862762451171875</LatitudeDegrees>
              <LongitudeDegrees>-1.6457928903400897979736328125</LongitudeDegrees>
            </Position>
            <AltitudeMeters>515.5999755859375</AltitudeMeters>
            <DistanceMeters>78735.4477846</DistanceMeters>
          </Trackpoint>
          <Trackpoint>
            <Time>2018-08-26T09:55:10.000Z</Time>
            <Position>
              <LatitudeDegrees>42.94350299052894115447998046875</LatitudeDegrees>
              <LongitudeDegrees>-1.6457402519881725311279296875</LongitudeDegrees>
            </Position>
            <AltitudeMeters>516.4000244140625</AltitudeMeters>
            <DistanceMeters>78743.694877165</DistanceMeters>
          </Trackpoint>
          <Trackpoint>
            <Time>2018-08-26T09:55:11.000Z</Time>
            <Position>
              <LatitudeDegrees>42.9434417188167572021484375</LatitudeDegrees>
              <LongitudeDegrees>-1.6456879489123821258544921875</LongitudeDegrees>
            </Position>
            <AltitudeMeters>516.79998779296875</AltitudeMeters>
            <DistanceMeters>78751.736855</DistanceMeters>
          </Trackpoint>
          <Trackpoint>
            <Time>2018-08-26T09:55:12.000Z</Time>
            <Position>
              <LatitudeDegrees>42.9433827102184295654296875</LatitudeDegrees>
              <LongitudeDegrees>-1.64563153870403766632080078125</LongitudeDegrees>
            </Position>
            <AltitudeMeters>517</AltitudeMeters>
            <DistanceMeters>78759.752965277</DistanceMeters>
          </Trackpoint>
          <Trackpoint>
            <Time>2018-08-26T09:55:13.000Z</Time>
            <Position>
              <LatitudeDegrees>42.94332713820040225982666015625</LatitudeDegrees>
              <LongitudeDegrees>-1.64556565694510936737060546875</LongitudeDegrees>
            </Position>
            <AltitudeMeters>517.20001220703125</AltitudeMeters>
            <DistanceMeters>78767.942371711</DistanceMeters>
          </Trackpoint>
          <Trackpoint>
            <Time>2018-08-26T09:55:14.000Z</Time>
            <Position>
              <LatitudeDegrees>42.94327718205749988555908203125</LatitudeDegrees>
              <LongitudeDegrees>-1.6454882919788360595703125</LongitudeDegrees>
            </Position>
            <AltitudeMeters>517.5999755859375</AltitudeMeters>
            <DistanceMeters>78776.347805555</DistanceMeters>
          </Trackpoint>
          <Trackpoint>
            <Time>2018-08-26T09:55:15.000Z</Time>
            <Position>
              <LatitudeDegrees>42.94323309324681758880615234375</LatitudeDegrees>
              <LongitudeDegrees>-1.64540187455713748931884765625</LongitudeDegrees>
            </Position>
            <AltitudeMeters>518.20001220703125</AltitudeMeters>
            <DistanceMeters>78784.930248887</DistanceMeters>
          </Trackpoint>
          <Trackpoint>
            <Time>2018-08-26T09:55:16.000Z</Time>
            <Position>
              <LatitudeDegrees>42.9431961290538311004638671875</LatitudeDegrees>
              <LongitudeDegrees>-1.6453090868890285491943359375</LongitudeDegrees>
            </Position>
            <AltitudeMeters>518.5999755859375</AltitudeMeters>
            <DistanceMeters>78793.536857805</DistanceMeters>
          </Trackpoint>
          <Trackpoint>
            <Time>2018-08-26T09:55:17.000Z</Time>
            <Position>
              <LatitudeDegrees>42.943166457116603851318359375</LatitudeDegrees>
              <LongitudeDegrees>-1.64520867168903350830078125</LongitudeDegrees>
            </Position>
            <AltitudeMeters>518.79998779296875</AltitudeMeters>
            <DistanceMeters>78802.359513808</DistanceMeters>
          </Trackpoint>
          <Trackpoint>
            <Time>2018-08-26T09:55:18.000Z</Time>
            <Position>
              <LatitudeDegrees>42.943144999444484710693359375</LatitudeDegrees>
              <LongitudeDegrees>-1.6451075859367847442626953125</LongitudeDegrees>
            </Position>
            <AltitudeMeters>519</AltitudeMeters>
            <DistanceMeters>78810.934062333</DistanceMeters>
          </Trackpoint>
          <Trackpoint>
            <Time>2018-08-26T09:55:19.000Z</Time>
            <Position>
              <LatitudeDegrees>42.94313217513263225555419921875</LatitudeDegrees>
              <LongitudeDegrees>-1.645003147423267364501953125</LongitudeDegrees>
            </Position>
            <AltitudeMeters>519</AltitudeMeters>
            <DistanceMeters>78819.562676375</DistanceMeters>
          </Trackpoint>
          <Trackpoint>
            <Time>2018-08-26T09:55:20.000Z</Time>
            <Position>
              <LatitudeDegrees>42.94312748126685619354248046875</LatitudeDegrees>
              <LongitudeDegrees>-1.64489527232944965362548828125</LongitudeDegrees>
            </Position>
            <AltitudeMeters>519.20001220703125</AltitudeMeters>
            <DistanceMeters>78828.367915517</DistanceMeters>
          </Trackpoint>
          <Trackpoint>
            <Time>2018-08-26T09:55:21.000Z</Time>
            <Position>
              <LatitudeDegrees>42.9431273974478244781494140625</LatitudeDegrees>
              <LongitudeDegrees>-1.64478756487369537353515625</LongitudeDegrees>
            </Position>
            <AltitudeMeters>519.20001220703125</AltitudeMeters>
            <DistanceMeters>78837.14284924</DistanceMeters>
          </Trackpoint>
          <Trackpoint>
            <Time>2018-08-26T09:55:22.000Z</Time>
            <Position>
              <LatitudeDegrees>42.94312949292361736297607421875</LatitudeDegrees>
              <LongitudeDegrees>-1.64467935450375080108642578125</LongitudeDegrees>
            </Position>
            <AltitudeMeters>519.20001220703125</AltitudeMeters>
            <DistanceMeters>78845.961410252</DistanceMeters>
          </Trackpoint>
          <Trackpoint>
            <Time>2018-08-26T09:55:23.000Z</Time>
            <Position>
              <LatitudeDegrees>42.9431330971419811248779296875</LatitudeDegrees>
              <LongitudeDegrees>-1.64457072503864765167236328125</LongitudeDegrees>
            </Position>
            <AltitudeMeters>519.20001220703125</AltitudeMeters>
            <DistanceMeters>78854.820835993</DistanceMeters>
          </Trackpoint>
          <Trackpoint>
            <Time>2018-08-26T09:55:24.000Z</Time>
            <Position>
              <LatitudeDegrees>42.9431377910077571868896484375</LatitudeDegrees>
              <LongitudeDegrees>-1.644462682306766510009765625</LongitudeDegrees>
            </Position>
            <AltitudeMeters>519.4000244140625</AltitudeMeters>
            <DistanceMeters>78863.639397006</DistanceMeters>
          </Trackpoint>
          <Trackpoint>
            <Time>2018-08-26T09:55:25.000Z</Time>
            <Position>
              <LatitudeDegrees>42.94314206577837467193603515625</LatitudeDegrees>
              <LongitudeDegrees>-1.6443545557558536529541015625</LongitudeDegrees>
            </Position>
            <AltitudeMeters>519.4000244140625</AltitudeMeters>
            <DistanceMeters>78872.462053009</DistanceMeters>
          </Trackpoint>
          <Trackpoint>
            <Time>2018-08-26T09:55:26.000Z</Time>
            <Position>
              <LatitudeDegrees>42.94314743019640445709228515625</LatitudeDegrees>
              <LongitudeDegrees>-1.6442491114139556884765625</LongitudeDegrees>
            </Position>
            <AltitudeMeters>519.4000244140625</AltitudeMeters>
            <DistanceMeters>78881.074430608</DistanceMeters>
          </Trackpoint>
          <Trackpoint>
            <Time>2018-08-26T09:55:27.000Z</Time>
            <Position>
              <LatitudeDegrees>42.94315405189990997314453125</LatitudeDegrees>
              <LongitudeDegrees>-1.6441445052623748779296875</LongitudeDegrees>
            </Position>
            <AltitudeMeters>519.4000244140625</AltitudeMeters>
            <DistanceMeters>78889.628946345</DistanceMeters>
          </Trackpoint>
          <Trackpoint>
            <Time>2018-08-26T09:55:28.000Z</Time>
            <Position>
              <LatitudeDegrees>42.94316167943179607391357421875</LatitudeDegrees>
              <LongitudeDegrees>-1.6440387256443500518798828125</LongitudeDegrees>
            </Position>
            <AltitudeMeters>519.4000244140625</AltitudeMeters>
            <DistanceMeters>78898.289420636</DistanceMeters>
          </Trackpoint>
          <Trackpoint>
            <Time>2018-08-26T09:55:29.000Z</Time>
            <Position>
              <LatitudeDegrees>42.9431679658591747283935546875</LatitudeDegrees>
              <LongitudeDegrees>-1.64393118582665920257568359375</LongitudeDegrees>
            </Position>
            <AltitudeMeters>519.4000244140625</AltitudeMeters>
            <DistanceMeters>78907.0792633</DistanceMeters>
          </Trackpoint>
          <Trackpoint>
            <Time>2018-08-26T09:55:30.000Z</Time>
            <Position>
              <LatitudeDegrees>42.94317341409623622894287109375</LatitudeDegrees>
              <LongitudeDegrees>-1.64382440038025379180908203125</LongitudeDegrees>
            </Position>
            <AltitudeMeters>519.4000244140625</AltitudeMeters>
            <DistanceMeters>78915.801038576</DistanceMeters>
          </Trackpoint>
          <Trackpoint>
            <Time>2018-08-26T09:55:31.000Z</Time>
            <Position>
              <LatitudeDegrees>42.94317928142845630645751953125</LatitudeDegrees>
              <LongitudeDegrees>-1.6437185369431972503662109375</LongitudeDegrees>
            </Position>
            <AltitudeMeters>519.4000244140625</AltitudeMeters>
            <DistanceMeters>78924.451601765</DistanceMeters>
          </Trackpoint>
          <Trackpoint>
            <Time>2018-08-26T09:55:32.000Z</Time>
            <Position>
              <LatitudeDegrees>42.943187244236469268798828125</LatitudeDegrees>
              <LongitudeDegrees>-1.64361317642033100128173828125</LongitudeDegrees>
            </Position>
            <AltitudeMeters>519.4000244140625</AltitudeMeters>
            <DistanceMeters>78933.081785454</DistanceMeters>
          </Trackpoint>
          <Trackpoint>
            <Time>2018-08-26T09:55:33.000Z</Time>
            <Position>
              <LatitudeDegrees>42.94319554232060909271240234375</LatitudeDegrees>
              <LongitudeDegrees>-1.64350823499262332916259765625</LongitudeDegrees>
            </Position>
            <AltitudeMeters>519.4000244140625</AltitudeMeters>
            <DistanceMeters>78941.681571851</DistanceMeters>
          </Trackpoint>
          <Trackpoint>
            <Time>2018-08-26T09:55:34.000Z</Time>
            <Position>
              <LatitudeDegrees>42.94320124201476573944091796875</LatitudeDegrees>
              <LongitudeDegrees>-1.6434027068316936492919921875</LongitudeDegrees>
            </Position>
            <AltitudeMeters>519.20001220703125</AltitudeMeters>
            <DistanceMeters>78950.302857093</DistanceMeters>
          </Trackpoint>
          <Trackpoint>
            <Time>2018-08-26T09:55:35.000Z</Time>
            <Position>
              <LatitudeDegrees>42.94320543296635150909423828125</LatitudeDegrees>
              <LongitudeDegrees>-1.64329801686108112335205078125</LongitudeDegrees>
            </Position>
            <AltitudeMeters>519.20001220703125</AltitudeMeters>
            <DistanceMeters>78958.845224899</DistanceMeters>
          </Trackpoint>
          <Trackpoint>
            <Time>2018-08-26T09:55:36.000Z</Time>
            <Position>
              <LatitudeDegrees>42.9432102106511592864990234375</LatitudeDegrees>
              <LongitudeDegrees>-1.643192656338214874267578125</LongitudeDegrees>
            </Position>
            <AltitudeMeters>519</AltitudeMeters>
            <DistanceMeters>78967.446061267</DistanceMeters>
          </Trackpoint>
          <Trackpoint>
            <Time>2018-08-26T09:55:37.000Z</Time>
            <Position>
              <LatitudeDegrees>42.94321498833596706390380859375</LatitudeDegrees>
              <LongitudeDegrees>-1.64308838546276092529296875</LongitudeDegrees>
            </Position>
            <AltitudeMeters>519</AltitudeMeters>
            <DistanceMeters>78975.958248612</DistanceMeters>
          </Trackpoint>
          <Trackpoint>
            <Time>2018-08-26T09:55:38.000Z</Time>
            <Position>
              <LatitudeDegrees>42.94322018511593341827392578125</LatitudeDegrees>
              <LongitudeDegrees>-1.64298319257795810699462890625</LongitudeDegrees>
            </Position>
            <AltitudeMeters>519</AltitudeMeters>
            <DistanceMeters>78984.548579496</DistanceMeters>
          </Trackpoint>
          <Trackpoint>
            <Time>2018-08-26T09:55:39.000Z</Time>
            <Position>
              <LatitudeDegrees>42.9432252980768680572509765625</LatitudeDegrees>
              <LongitudeDegrees>-1.6428790055215358734130859375</LongitudeDegrees>
            </Position>
            <AltitudeMeters>519</AltitudeMeters>
            <DistanceMeters>78993.056522418</DistanceMeters>
          </Trackpoint>
          <Trackpoint>
            <Time>2018-08-26T09:55:40.000Z</Time>
            <Position>
              <LatitudeDegrees>42.94322957284748554229736328125</LatitudeDegrees>
              <LongitudeDegrees>-1.642774902284145355224609375</LongitudeDegrees>
            </Position>
            <AltitudeMeters>519</AltitudeMeters>
            <DistanceMeters>79001.551719352</DistanceMeters>
          </Trackpoint>
          <Trackpoint>
            <Time>2018-08-26T09:55:41.000Z</Time>
            <Position>
              <LatitudeDegrees>42.943234853446483612060546875</LatitudeDegrees>
              <LongitudeDegrees>-1.6426714695990085601806640625</LongitudeDegrees>
            </Position>
            <AltitudeMeters>519</AltitudeMeters>
            <DistanceMeters>79010.000016471</DistanceMeters>
          </Trackpoint>
          <Trackpoint>
            <Time>2018-08-26T09:55:42.000Z</Time>
            <Position>
              <LatitudeDegrees>42.94324097223579883575439453125</LatitudeDegrees>
              <LongitudeDegrees>-1.64256711490452289581298828125</LongitudeDegrees>
            </Position>
            <AltitudeMeters>519</AltitudeMeters>
            <DistanceMeters>79018.530219047</DistanceMeters>
          </Trackpoint>
          <Trackpoint>
            <Time>2018-08-26T09:55:43.000Z</Time>
            <Position>
              <LatitudeDegrees>42.94324566610157489776611328125</LatitudeDegrees>
              <LongitudeDegrees>-1.6424612514674663543701171875</LongitudeDegrees>
            </Position>
            <AltitudeMeters>518.79998779296875</AltitudeMeters>
            <DistanceMeters>79027.170859766</DistanceMeters>
          </Trackpoint>
          <Trackpoint>
            <Time>2018-08-26T09:55:44.000Z</Time>
            <Position>
              <LatitudeDegrees>42.943248264491558074951171875</LatitudeDegrees>
              <LongitudeDegrees>-1.6423563100397586822509765625</LongitudeDegrees>
            </Position>
            <AltitudeMeters>518.79998779296875</AltitudeMeters>
            <DistanceMeters>79035.725903283</DistanceMeters>
          </Trackpoint>
          <Trackpoint>
            <Time>2018-08-26T09:55:45.000Z</Time>
            <Position>
              <LatitudeDegrees>42.94324927031993865966796875</LatitudeDegrees>
              <LongitudeDegrees>-1.64224709384143352508544921875</LongitudeDegrees>
            </Position>
            <AltitudeMeters>518.79998779296875</AltitudeMeters>
            <DistanceMeters>79044.624991462</DistanceMeters>
          </Trackpoint>
          <Trackpoint>
            <Time>2018-08-26T09:55:46.000Z</Time>
            <Position>
              <LatitudeDegrees>42.94324901886284351348876953125</LatitudeDegrees>
              <LongitudeDegrees>-1.64213980548083782196044921875</LongitudeDegrees>
            </Position>
            <AltitudeMeters>519</AltitudeMeters>
            <DistanceMeters>79053.366416224</DistanceMeters>
          </Trackpoint>
          <Trackpoint>
            <Time>2018-08-26T09:55:47.000Z</Time>
            <Position>
              <LatitudeDegrees>42.94324683956801891326904296875</LatitudeDegrees>
              <LongitudeDegrees>-1.6420309245586395263671875</LongitudeDegrees>
            </Position>
            <AltitudeMeters>519</AltitudeMeters>
            <DistanceMeters>79062.241117726</DistanceMeters>
          </Trackpoint>
          <Trackpoint>
            <Time>2018-08-26T09:55:48.000Z</Time>
            <Position>
              <LatitudeDegrees>42.9432410560548305511474609375</LatitudeDegrees>
              <LongitudeDegrees>-1.64192162454128265380859375</LongitudeDegrees>
            </Position>
            <AltitudeMeters>519</AltitudeMeters>
            <DistanceMeters>79071.169078566</DistanceMeters>
          </Trackpoint>
          <Trackpoint>
            <Time>2018-08-26T09:55:49.000Z</Time>
            <Position>
              <LatitudeDegrees>42.9432313330471515655517578125</LatitudeDegrees>
              <LongitudeDegrees>-1.641814000904560089111328125</LongitudeDegrees>
            </Position>
            <AltitudeMeters>519</AltitudeMeters>
            <DistanceMeters>79080.004008152</DistanceMeters>
          </Trackpoint>
          <Trackpoint>
            <Time>2018-08-26T09:55:50.000Z</Time>
            <Position>
              <LatitudeDegrees>42.94321415014564990997314453125</LatitudeDegrees>
              <LongitudeDegrees>-1.6417095623910427093505859375</LongitudeDegrees>
            </Position>
            <AltitudeMeters>519</AltitudeMeters>
            <DistanceMeters>79088.725783428</DistanceMeters>
          </Trackpoint>
          <Trackpoint>
            <Time>2018-08-26T09:55:51.000Z</Time>
            <Position>
              <LatitudeDegrees>42.94318716041743755340576171875</LatitudeDegrees>
              <LongitudeDegrees>-1.64161006920039653778076171875</LongitudeDegrees>
            </Position>
            <AltitudeMeters>519</AltitudeMeters>
            <DistanceMeters>79097.370603417</DistanceMeters>
          </Trackpoint>
          <Trackpoint>
            <Time>2018-08-26T09:55:52.000Z</Time>
            <Position>
              <LatitudeDegrees>42.9431493580341339111328125</LatitudeDegrees>
              <LongitudeDegrees>-1.64151619188487529754638671875</LongitudeDegrees>
            </Position>
            <AltitudeMeters>519</AltitudeMeters>
            <DistanceMeters>79106.100657551</DistanceMeters>
          </Trackpoint>
          <Trackpoint>
            <Time>2018-08-26T09:55:53.000Z</Time>
            <Position>
              <LatitudeDegrees>42.943102084100246429443359375</LatitudeDegrees>
              <LongitudeDegrees>-1.6414366476237773895263671875</LongitudeDegrees>
            </Position>
            <AltitudeMeters>519</AltitudeMeters>
            <DistanceMeters>79114.447876839</DistanceMeters>
          </Trackpoint>
          <Trackpoint>
            <Time>2018-08-26T09:55:54.000Z</Time>
            <Position>
              <LatitudeDegrees>42.943046092987060546875</LatitudeDegrees>
              <LongitudeDegrees>-1.641364395618438720703125</LongitudeDegrees>
            </Position>
            <AltitudeMeters>519</AltitudeMeters>
            <DistanceMeters>79123.021372174</DistanceMeters>
          </Trackpoint>
          <Trackpoint>
            <Time>2018-08-26T09:55:55.000Z</Time>
            <Position>
              <LatitudeDegrees>42.9429815523326396942138671875</LatitudeDegrees>
              <LongitudeDegrees>-1.641301698982715606689453125</LongitudeDegrees>
            </Position>
            <AltitudeMeters>519.20001220703125</AltitudeMeters>
            <DistanceMeters>79131.83634851</DistanceMeters>
          </Trackpoint>
          <Trackpoint>
            <Time>2018-08-26T09:55:56.000Z</Time>
            <Position>
              <LatitudeDegrees>42.94290997087955474853515625</LatitudeDegrees>
              <LongitudeDegrees>-1.64124964736402034759521484375</LongitudeDegrees>
            </Position>
            <AltitudeMeters>519.20001220703125</AltitudeMeters>
            <DistanceMeters>79140.861885591</DistanceMeters>
          </Trackpoint>
          <Trackpoint>
            <Time>2018-08-26T09:55:57.000Z</Time>
            <Position>
              <LatitudeDegrees>42.942834198474884033203125</LatitudeDegrees>
              <LongitudeDegrees>-1.641209833323955535888671875</LongitudeDegrees>
            </Position>
            <AltitudeMeters>519.20001220703125</AltitudeMeters>
            <DistanceMeters>79149.897921846</DistanceMeters>
          </Trackpoint>
          <Trackpoint>
            <Time>2018-08-26T09:55:58.000Z</Time>
            <Position>
              <LatitudeDegrees>42.94275599531829357147216796875</LatitudeDegrees>
              <LongitudeDegrees>-1.64118259213864803314208984375</LongitudeDegrees>
            </Position>
            <AltitudeMeters>519.20001220703125</AltitudeMeters>
            <DistanceMeters>79158.880836913</DistanceMeters>
          </Trackpoint>
          <Trackpoint>
            <Time>2018-08-26T09:55:59.000Z</Time>
            <Position>
              <LatitudeDegrees>42.94267603196203708648681640625</LatitudeDegrees>
              <LongitudeDegrees>-1.64117203094065189361572265625</LongitudeDegrees>
            </Position>
            <AltitudeMeters>519.4000244140625</AltitudeMeters>
            <DistanceMeters>79167.821936776</DistanceMeters>
          </Trackpoint>
          <Trackpoint>
            <Time>2018-08-26T09:56:00.000Z</Time>
            <Position>
              <LatitudeDegrees>42.9425969906151294708251953125</LatitudeDegrees>
              <LongitudeDegrees>-1.641175635159015655517578125</LongitudeDegrees>
            </Position>
            <AltitudeMeters>519.4000244140625</AltitudeMeters>
            <DistanceMeters>79176.624098777</DistanceMeters>
          </Trackpoint>
          <Trackpoint>
            <Time>2018-08-26T09:56:01.000Z</Time>
            <Position>
              <LatitudeDegrees>42.942518703639507293701171875</LatitudeDegrees>
              <LongitudeDegrees>-1.64118594489991664886474609375</LongitudeDegrees>
            </Position>
            <AltitudeMeters>519.4000244140625</AltitudeMeters>
            <DistanceMeters>79185.377911015</DistanceMeters>
          </Trackpoint>
          <Trackpoint>
            <Time>2018-08-26T09:56:02.000Z</Time>
            <Position>
              <LatitudeDegrees>42.94244100339710712432861328125</LatitudeDegrees>
              <LongitudeDegrees>-1.64119868539273738861083984375</LongitudeDegrees>
            </Position>
            <AltitudeMeters>519.4000244140625</AltitudeMeters>
            <DistanceMeters>79194.088290013</DistanceMeters>
          </Trackpoint>
          <Trackpoint>
            <Time>2018-08-26T09:56:03.000Z</Time>
            <Position>
              <LatitudeDegrees>42.94236481189727783203125</LatitudeDegrees>
              <LongitudeDegrees>-1.64121477864682674407958984375</LongitudeDegrees>
            </Position>
            <AltitudeMeters>519.4000244140625</AltitudeMeters>
            <DistanceMeters>79202.669154965</DistanceMeters>
          </Trackpoint>
          <Trackpoint>
            <Time>2018-08-26T09:56:04.000Z</Time>
            <Position>
              <LatitudeDegrees>42.94228962622582912445068359375</LatitudeDegrees>
              <LongitudeDegrees>-1.641230620443820953369140625</LongitudeDegrees>
            </Position>
            <AltitudeMeters>519.20001220703125</AltitudeMeters>
            <DistanceMeters>79211.136136534</DistanceMeters>
          </Trackpoint>
          <Trackpoint>
            <Time>2018-08-26T09:56:05.000Z</Time>
            <Position>
              <LatitudeDegrees>42.94221527874469757080078125</LatitudeDegrees>
              <LongitudeDegrees>-1.64124411530792713165283203125</LongitudeDegrees>
            </Position>
            <AltitudeMeters>519.20001220703125</AltitudeMeters>
            <DistanceMeters>79219.484437558</DistanceMeters>
          </Trackpoint>
          <Trackpoint>
            <Time>2018-08-26T09:56:06.000Z</Time>
            <Position>
              <LatitudeDegrees>42.94214294292032718658447265625</LatitudeDegrees>
              <LongitudeDegrees>-1.641256101429462432861328125</LongitudeDegrees>
            </Position>
            <AltitudeMeters>519.20001220703125</AltitudeMeters>
            <DistanceMeters>79227.594621084</DistanceMeters>
          </Trackpoint>
          <Trackpoint>
            <Time>2018-08-26T09:56:07.000Z</Time>
            <Position>
              <LatitudeDegrees>42.94207152910530567169189453125</LatitudeDegrees>
              <LongitudeDegrees>-1.64127177558839321136474609375</LongitudeDegrees>
            </Position>
            <AltitudeMeters>519.20001220703125</AltitudeMeters>
            <DistanceMeters>79235.644455154</DistanceMeters>
          </Trackpoint>
          <Trackpoint>
            <Time>2018-08-26T09:56:08.000Z</Time>
            <Position>
              <LatitudeDegrees>42.94199936091899871826171875</LatitudeDegrees>
              <LongitudeDegrees>-1.64128719829022884368896484375</LongitudeDegrees>
            </Position>
            <AltitudeMeters>519.20001220703125</AltitudeMeters>
            <DistanceMeters>79243.774655617</DistanceMeters>
          </Trackpoint>
          <Trackpoint>
            <Time>2018-08-26T09:56:09.000Z</Time>
            <Position>
              <LatitudeDegrees>42.94192903675138950347900390625</LatitudeDegrees>
              <LongitudeDegrees>-1.641301028430461883544921875</LongitudeDegrees>
            </Position>
            <AltitudeMeters>519.4000244140625</AltitudeMeters>
            <DistanceMeters>79251.681883279</DistanceMeters>
          </Trackpoint>
          <Trackpoint>
            <Time>2018-08-26T09:56:10.000Z</Time>
            <Position>
              <LatitudeDegrees>42.94185829348862171173095703125</LatitudeDegrees>
              <LongitudeDegrees>-1.64131544530391693115234375</LongitudeDegrees>
            </Position>
            <AltitudeMeters>519.4000244140625</AltitudeMeters>
            <DistanceMeters>79259.642604131</DistanceMeters>
          </Trackpoint>
          <Trackpoint>
            <Time>2018-08-26T09:56:11.000Z</Time>
            <Position>
              <LatitudeDegrees>42.94178855605423450469970703125</LatitudeDegrees>
              <LongitudeDegrees>-1.6413310356438159942626953125</LongitudeDegrees>
            </Position>
            <AltitudeMeters>519.4000244140625</AltitudeMeters>
            <DistanceMeters>79267.507464183</DistanceMeters>
          </Trackpoint>
          <Trackpoint>
            <Time>2018-08-26T09:56:12.000Z</Time>
            <Position>
              <LatitudeDegrees>42.941718734800815582275390625</LatitudeDegrees>
              <LongitudeDegrees>-1.64134637452661991119384765625</LongitudeDegrees>
            </Position>
            <AltitudeMeters>519.4000244140625</AltitudeMeters>
            <DistanceMeters>79275.37921015</DistanceMeters>
          </Trackpoint>
          <Trackpoint>
            <Time>2018-08-26T09:56:13.000Z</Time>
            <Position>
              <LatitudeDegrees>42.9416484944522380828857421875</LatitudeDegrees>
              <LongitudeDegrees>-1.6413585282862186431884765625</LongitudeDegrees>
            </Position>
            <AltitudeMeters>519.4000244140625</AltitudeMeters>
            <DistanceMeters>79283.260127976</DistanceMeters>
          </Trackpoint>
          <Trackpoint>
            <Time>2018-08-26T09:56:14.000Z</Time>
            <Position>
              <LatitudeDegrees>42.9415784217417240142822265625</LatitudeDegrees>
              <LongitudeDegrees>-1.64136749692261219024658203125</LongitudeDegrees>
            </Position>
            <AltitudeMeters>519.4000244140625</AltitudeMeters>
            <DistanceMeters>79291.093926513</DistanceMeters>
          </Trackpoint>
          <Trackpoint>
            <Time>2018-08-26T09:56:15.000Z</Time>
            <Position>
              <LatitudeDegrees>42.9415083490312099456787109375</LatitudeDegrees>
              <LongitudeDegrees>-1.64137504063546657562255859375</LongitudeDegrees>
            </Position>
            <AltitudeMeters>519.5999755859375</AltitudeMeters>
            <DistanceMeters>79298.917343805</DistanceMeters>
          </Trackpoint>
          <Trackpoint>
            <Time>2018-08-26T09:56:16.000Z</Time>
            <Position>
              <LatitudeDegrees>42.94143819250166416168212890625</LatitudeDegrees>
              <LongitudeDegrees>-1.64138023741543292999267578125</LongitudeDegrees>
            </Position>
            <AltitudeMeters>519.79998779296875</AltitudeMeters>
            <DistanceMeters>79306.737297621</DistanceMeters>
          </Trackpoint>
          <Trackpoint>
            <Time>2018-08-26T09:56:17.000Z</Time>
            <Position>
              <LatitudeDegrees>42.9413683712482452392578125</LatitudeDegrees>
              <LongitudeDegrees>-1.641378141939640045166015625</LongitudeDegrees>
            </Position>
            <AltitudeMeters>520</AltitudeMeters>
            <DistanceMeters>79314.510343452</DistanceMeters>
          </Trackpoint>
          <Trackpoint>
            <Time>2018-08-26T09:56:18.000Z</Time>
            <Position>
              <LatitudeDegrees>42.941298969089984893798828125</LatitudeDegrees>
              <LongitudeDegrees>-1.64136766456067562103271484375</LongitudeDegrees>
            </Position>
            <AltitudeMeters>520.20001220703125</AltitudeMeters>
            <DistanceMeters>79322.281646512</DistanceMeters>
          </Trackpoint>
          <Trackpoint>
            <Time>2018-08-26T09:56:19.000Z</Time>
            <Position>
              <LatitudeDegrees>42.941231243312358856201171875</LatitudeDegrees>
              <LongitudeDegrees>-1.64134989492595195770263671875</LongitudeDegrees>
            </Position>
            <AltitudeMeters>520.4000244140625</AltitudeMeters>
            <DistanceMeters>79329.957664282</DistanceMeters>
          </Trackpoint>
          <Trackpoint>
            <Time>2018-08-26T09:56:20.000Z</Time>
            <Position>
              <LatitudeDegrees>42.94116511009633541107177734375</LatitudeDegrees>
              <LongitudeDegrees>-1.6413246653974056243896484375</LongitudeDegrees>
            </Position>
            <AltitudeMeters>520.5999755859375</AltitudeMeters>
            <DistanceMeters>79337.600081075</DistanceMeters>
          </Trackpoint>
          <Trackpoint>
            <Time>2018-08-26T09:56:21.000Z</Time>
            <Position>
              <LatitudeDegrees>42.94110082089900970458984375</LatitudeDegrees>
              <LongitudeDegrees>-1.64129264652729034423828125</LongitudeDegrees>
            </Position>
            <AltitudeMeters>520.79998779296875</AltitudeMeters>
            <DistanceMeters>79345.216458893</DistanceMeters>
          </Trackpoint>
          <Trackpoint>
            <Time>2018-08-26T09:56:22.000Z</Time>
            <Position>
              <LatitudeDegrees>42.94103988446295261383056640625</LatitudeDegrees>
              <LongitudeDegrees>-1.64125300012528896331787109375</LongitudeDegrees>
            </Position>
            <AltitudeMeters>521.20001220703125</AltitudeMeters>
            <DistanceMeters>79352.728379267</DistanceMeters>
          </Trackpoint>
          <Trackpoint>
            <Time>2018-08-26T09:56:23.000Z</Time>
            <Position>
              <LatitudeDegrees>42.94098079204559326171875</LatitudeDegrees>
              <LongitudeDegrees>-1.6412086598575115203857421875</LongitudeDegrees>
            </Position>
            <AltitudeMeters>521.20001220703125</AltitudeMeters>
            <DistanceMeters>79360.232481925</DistanceMeters>
          </Trackpoint>
          <Trackpoint>
            <Time>2018-08-26T09:56:24.000Z</Time>
            <Position>
              <LatitudeDegrees>42.94092287309467792510986328125</LatitudeDegrees>
              <LongitudeDegrees>-1.6411610506474971771240234375</LongitudeDegrees>
            </Position>
            <AltitudeMeters>521.4000244140625</AltitudeMeters>
            <DistanceMeters>79367.757013758</DistanceMeters>
          </Trackpoint>
          <Trackpoint>
            <Time>2018-08-26T09:56:25.000Z</Time>
            <Position>
              <LatitudeDegrees>42.94086621142923831939697265625</LatitudeDegrees>
              <LongitudeDegrees>-1.64111067540943622589111328125</LongitudeDegrees>
            </Position>
            <AltitudeMeters>521.4000244140625</AltitudeMeters>
            <DistanceMeters>79375.281545591</DistanceMeters>
          </Trackpoint>
          <Trackpoint>
            <Time>2018-08-26T09:56:26.000Z</Time>
            <Position>
              <LatitudeDegrees>42.94081172905862331390380859375</LatitudeDegrees>
              <LongitudeDegrees>-1.64105636067688465118408203125</LongitudeDegrees>
            </Position>
            <AltitudeMeters>521.5999755859375</AltitudeMeters>
            <DistanceMeters>79382.788054567</DistanceMeters>
          </Trackpoint>
          <Trackpoint>
            <Time>2018-08-26T09:56:27.000Z</Time>
            <Position>
              <LatitudeDegrees>42.9407569952309131622314453125</LatitudeDegrees>
              <LongitudeDegrees>-1.64100254885852336883544921875</LongitudeDegrees>
            </Position>
            <AltitudeMeters>522</AltitudeMeters>
            <DistanceMeters>79390.293360481</DistanceMeters>
          </Trackpoint>
          <Trackpoint>
            <Time>2018-08-26T09:56:28.000Z</Time>
            <Position>
              <LatitudeDegrees>42.94070192612707614898681640625</LatitudeDegrees>
              <LongitudeDegrees>-1.64095041342079639434814453125</LongitudeDegrees>
            </Position>
            <AltitudeMeters>522.20001220703125</AltitudeMeters>
            <DistanceMeters>79397.750384736</DistanceMeters>
          </Trackpoint>
          <Trackpoint>
            <Time>2018-08-26T09:56:29.000Z</Time>
            <Position>
              <LatitudeDegrees>42.94064677320420742034912109375</LatitudeDegrees>
              <LongitudeDegrees>-1.64089844562113285064697265625</LongitudeDegrees>
            </Position>
            <AltitudeMeters>522.4000244140625</AltitudeMeters>
            <DistanceMeters>79405.207408991</DistanceMeters>
          </Trackpoint>
          <Trackpoint>
            <Time>2018-08-26T09:56:30.000Z</Time>
            <Position>
              <LatitudeDegrees>42.94059162028133869171142578125</LatitudeDegrees>
              <LongitudeDegrees>-1.6408462263643741607666015625</LongitudeDegrees>
            </Position>
            <AltitudeMeters>522.4000244140625</AltitudeMeters>
            <DistanceMeters>79412.67653292</DistanceMeters>
          </Trackpoint>
          <Trackpoint>
            <Time>2018-08-26T09:56:31.000Z</Time>
            <Position>
              <LatitudeDegrees>42.94053646735846996307373046875</LatitudeDegrees>
              <LongitudeDegrees>-1.6407930850982666015625</LongitudeDegrees>
            </Position>
            <AltitudeMeters>522.4000244140625</AltitudeMeters>
            <DistanceMeters>79420.18785222</DistanceMeters>
          </Trackpoint>
          <Trackpoint>
            <Time>2018-08-26T09:56:32.000Z</Time>
            <Position>
              <LatitudeDegrees>42.940481565892696380615234375</LatitudeDegrees>
              <LongitudeDegrees>-1.64073885418474674224853515625</LongitudeDegrees>
            </Position>
            <AltitudeMeters>522.4000244140625</AltitudeMeters>
            <DistanceMeters>79427.728567794</DistanceMeters>
          </Trackpoint>
          <Trackpoint>
            <Time>2018-08-26T09:56:33.000Z</Time>
            <Position>
              <LatitudeDegrees>42.94042758643627166748046875</LatitudeDegrees>
              <LongitudeDegrees>-1.6406832821667194366455078125</LongitudeDegrees>
            </Position>
            <AltitudeMeters>522.5999755859375</AltitudeMeters>
            <DistanceMeters>79435.25249956</DistanceMeters>
          </Trackpoint>
          <Trackpoint>
            <Time>2018-08-26T09:56:34.000Z</Time>
            <Position>
              <LatitudeDegrees>42.940374277532100677490234375</LatitudeDegrees>
              <LongitudeDegrees>-1.64062854833900928497314453125</LongitudeDegrees>
            </Position>
            <AltitudeMeters>522.5999755859375</AltitudeMeters>
            <DistanceMeters>79442.675539804</DistanceMeters>
          </Trackpoint>
          <Trackpoint>
            <Time>2018-08-26T09:56:35.000Z</Time>
            <Position>
              <LatitudeDegrees>42.94032071717083454132080078125</LatitudeDegrees>
              <LongitudeDegrees>-1.64057557471096515655517578125</LongitudeDegrees>
            </Position>
            <AltitudeMeters>522.79998779296875</AltitudeMeters>
            <DistanceMeters>79450.035050556</DistanceMeters>
          </Trackpoint>
          <Trackpoint>
            <Time>2018-08-26T09:56:36.000Z</Time>
            <Position>
              <LatitudeDegrees>42.940266318619251251220703125</LatitudeDegrees>
              <LongitudeDegrees>-1.64052327163517475128173828125</LongitudeDegrees>
            </Position>
            <AltitudeMeters>523</AltitudeMeters>
            <DistanceMeters>79457.43921115</DistanceMeters>
          </Trackpoint>
          <Trackpoint>
            <Time>2018-08-26T09:56:37.000Z</Time>
            <Position>
              <LatitudeDegrees>42.940211333334445953369140625</LatitudeDegrees>
              <LongitudeDegrees>-1.64047080092132091522216796875</LongitudeDegrees>
            </Position>
            <AltitudeMeters>523.4000244140625</AltitudeMeters>
            <DistanceMeters>79464.904707236</DistanceMeters>
          </Trackpoint>
          <Trackpoint>
            <Time>2018-08-26T09:56:38.000Z</Time>
            <Position>
              <LatitudeDegrees>42.94015643186867237091064453125</LatitudeDegrees>
              <LongitudeDegrees>-1.6404170729219913482666015625</LongitudeDegrees>
            </Position>
            <AltitudeMeters>523.5999755859375</AltitudeMeters>
            <DistanceMeters>79472.42143447</DistanceMeters>
          </Trackpoint>
          <Trackpoint>
            <Time>2018-08-26T09:56:39.000Z</Time>
            <Position>
              <LatitudeDegrees>42.94010161422193050384521484375</LatitudeDegrees>
              <LongitudeDegrees>-1.64036217145621776580810546875</LongitudeDegrees>
            </Position>
            <AltitudeMeters>524</AltitudeMeters>
            <DistanceMeters>79479.986659153</DistanceMeters>
          </Trackpoint>
          <Trackpoint>
            <Time>2018-08-26T09:56:40.000Z</Time>
            <Position>
              <LatitudeDegrees>42.9400472156703472137451171875</LatitudeDegrees>
              <LongitudeDegrees>-1.6403071023523807525634765625</LongitudeDegrees>
            </Position>
            <AltitudeMeters>524.4000244140625</AltitudeMeters>
            <DistanceMeters>79487.522583167</DistanceMeters>
          </Trackpoint>
          <Trackpoint>
            <Time>2018-08-26T09:56:41.000Z</Time>
            <Position>
              <LatitudeDegrees>42.93999332003295421600341796875</LatitudeDegrees>
              <LongitudeDegrees>-1.64025194942951202392578125</LongitudeDegrees>
            </Position>
            <AltitudeMeters>524.79998779296875</AltitudeMeters>
            <DistanceMeters>79495.017052827</DistanceMeters>
          </Trackpoint>
          <Trackpoint>
            <Time>2018-08-26T09:56:42.000Z</Time>
            <Position>
              <LatitudeDegrees>42.939939089119434356689453125</LatitudeDegrees>
              <LongitudeDegrees>-1.64019805379211902618408203125</LongitudeDegrees>
            </Position>
            <AltitudeMeters>525.20001220703125</AltitudeMeters>
            <DistanceMeters>79502.48133924</DistanceMeters>
          </Trackpoint>
          <Trackpoint>
            <Time>2018-08-26T09:56:43.000Z</Time>
            <Position>
              <LatitudeDegrees>42.93988469056785106658935546875</LatitudeDegrees>
              <LongitudeDegrees>-1.64014591835439205169677734375</LongitudeDegrees>
            </Position>
            <AltitudeMeters>525.79998779296875</AltitudeMeters>
            <DistanceMeters>79509.877568218</DistanceMeters>
          </Trackpoint>
          <Trackpoint>
            <Time>2018-08-26T09:56:44.000Z</Time>
            <Position>
              <LatitudeDegrees>42.939829789102077484130859375</LatitudeDegrees>
              <LongitudeDegrees>-1.64009395055472850799560546875</LongitudeDegrees>
            </Position>
            <AltitudeMeters>525.79998779296875</AltitudeMeters>
            <DistanceMeters>79517.312763441</DistanceMeters>
          </Trackpoint>
          <Trackpoint>
            <Time>2018-08-26T09:56:45.000Z</Time>
            <Position>
              <LatitudeDegrees>42.9397743009030818939208984375</LatitudeDegrees>
              <LongitudeDegrees>-1.64004198275506496429443359375</LongitudeDegrees>
            </Position>
            <AltitudeMeters>526.20001220703125</AltitudeMeters>
            <DistanceMeters>79524.801206184</DistanceMeters>
          </Trackpoint>
          <Trackpoint>
            <Time>2018-08-26T09:56:46.000Z</Time>
            <Position>
              <LatitudeDegrees>42.939719147980213165283203125</LatitudeDegrees>
              <LongitudeDegrees>-1.6399902664124965667724609375</LongitudeDegrees>
            </Position>
            <AltitudeMeters>526.4000244140625</AltitudeMeters>
            <DistanceMeters>79532.2461111</DistanceMeters>
          </Trackpoint>
          <Trackpoint>
            <Time>2018-08-26T09:56:47.000Z</Time>
            <Position>
              <LatitudeDegrees>42.9396650008857250213623046875</LatitudeDegrees>
              <LongitudeDegrees>-1.63993787951767444610595703125</LongitudeDegrees>
            </Position>
            <AltitudeMeters>526.5999755859375</AltitudeMeters>
            <DistanceMeters>79539.631343779</DistanceMeters>
          </Trackpoint>
          <Trackpoint>
            <Time>2018-08-26T09:56:48.000Z</Time>
            <Position>
              <LatitudeDegrees>42.9396115243434906005859375</LatitudeDegrees>
              <LongitudeDegrees>-1.63988591171801090240478515625</LongitudeDegrees>
            </Position>
            <AltitudeMeters>526.5999755859375</AltitudeMeters>
            <DistanceMeters>79546.936667302</DistanceMeters>
          </Trackpoint>
          <Trackpoint>
            <Time>2018-08-26T09:56:49.000Z</Time>
            <Position>
              <LatitudeDegrees>42.9395578801631927490234375</LatitudeDegrees>
              <LongitudeDegrees>-1.6398333571851253509521484375</LongitudeDegrees>
            </Position>
            <AltitudeMeters>526.79998779296875</AltitudeMeters>
            <DistanceMeters>79554.283897868</DistanceMeters>
          </Trackpoint>
          <Trackpoint>
            <Time>2018-08-26T09:56:50.000Z</Time>
            <Position>
              <LatitudeDegrees>42.9395033977925777435302734375</LatitudeDegrees>
              <LongitudeDegrees>-1.6397823952138423919677734375</LongitudeDegrees>
            </Position>
            <AltitudeMeters>527</AltitudeMeters>
            <DistanceMeters>79561.633586112</DistanceMeters>
          </Trackpoint>
          <Trackpoint>
            <Time>2018-08-26T09:56:51.000Z</Time>
            <Position>
              <LatitudeDegrees>42.93944858014583587646484375</LatitudeDegrees>
              <LongitudeDegrees>-1.63973185233771800994873046875</LongitudeDegrees>
            </Position>
            <AltitudeMeters>527.20001220703125</AltitudeMeters>
            <DistanceMeters>79568.994323756</DistanceMeters>
          </Trackpoint>
          <Trackpoint>
            <Time>2018-08-26T09:56:52.000Z</Time>
            <Position>
              <LatitudeDegrees>42.93939351104199886322021484375</LatitudeDegrees>
              <LongitudeDegrees>-1.63968105800449848175048828125</LongitudeDegrees>
            </Position>
            <AltitudeMeters>527.4000244140625</AltitudeMeters>
            <DistanceMeters>79576.390552734</DistanceMeters>
          </Trackpoint>
          <Trackpoint>
            <Time>2018-08-26T09:56:53.000Z</Time>
            <Position>
              <LatitudeDegrees>42.9393381066620349884033203125</LatitudeDegrees>
              <LongitudeDegrees>-1.63962942548096179962158203125</LongitudeDegrees>
            </Position>
            <AltitudeMeters>527.5999755859375</AltitudeMeters>
            <DistanceMeters>79583.85604882</DistanceMeters>
          </Trackpoint>
          <Trackpoint>
            <Time>2018-08-26T09:56:54.000Z</Time>
            <Position>
              <LatitudeDegrees>42.93928228318691253662109375</LatitudeDegrees>
              <LongitudeDegrees>-1.639578044414520263671875</LongitudeDegrees>
            </Position>
            <AltitudeMeters>527.79998779296875</AltitudeMeters>
            <DistanceMeters>79591.348108295</DistanceMeters>
          </Trackpoint>
          <Trackpoint>
            <Time>2018-08-26T09:56:55.000Z</Time>
            <Position>
              <LatitudeDegrees>42.93922671116888523101806640625</LatitudeDegrees>
              <LongitudeDegrees>-1.6395269148051738739013671875</LongitudeDegrees>
            </Position>
            <AltitudeMeters>527.79998779296875</AltitudeMeters>
            <DistanceMeters>79598.80513255</DistanceMeters>
          </Trackpoint>
          <Trackpoint>
            <Time>2018-08-26T09:56:56.000Z</Time>
            <Position>
              <LatitudeDegrees>42.93917139060795307159423828125</LatitudeDegrees>
              <LongitudeDegrees>-1.6394759528338909149169921875</LongitudeDegrees>
            </Position>
            <AltitudeMeters>528</AltitudeMeters>
            <DistanceMeters>79606.231821377</DistanceMeters>
          </Trackpoint>
          <Trackpoint>
            <Time>2018-08-26T09:56:57.000Z</Time>
            <Position>
              <LatitudeDegrees>42.939116656780242919921875</LatitudeDegrees>
              <LongitudeDegrees>-1.63942758925259113311767578125</LongitudeDegrees>
            </Position>
            <AltitudeMeters>528.20001220703125</AltitudeMeters>
            <DistanceMeters>79613.487532621</DistanceMeters>
          </Trackpoint>
          <Trackpoint>
            <Time>2018-08-26T09:56:58.000Z</Time>
            <Position>
              <LatitudeDegrees>42.939060665667057037353515625</LatitudeDegrees>
              <LongitudeDegrees>-1.63937847130000591278076171875</LongitudeDegrees>
            </Position>
            <AltitudeMeters>528.4000244140625</AltitudeMeters>
            <DistanceMeters>79620.894132003</DistanceMeters>
          </Trackpoint>
          <Trackpoint>
            <Time>2018-08-26T09:56:59.000Z</Time>
            <Position>
              <LatitudeDegrees>42.939005009829998016357421875</LatitudeDegrees>
              <LongitudeDegrees>-1.63933203555643558502197265625</LongitudeDegrees>
            </Position>
            <AltitudeMeters>528.5999755859375</AltitudeMeters>
            <DistanceMeters>79628.152331916</DistanceMeters>
          </Trackpoint>
          <Trackpoint>
            <Time>2018-08-26T09:57:00.000Z</Time>
            <Position>
              <LatitudeDegrees>42.93894725851714611053466796875</LatitudeDegrees>
              <LongitudeDegrees>-1.6392868570983409881591796875</LongitudeDegrees>
            </Position>
            <AltitudeMeters>528.79998779296875</AltitudeMeters>
            <DistanceMeters>79635.559540869</DistanceMeters>
          </Trackpoint>
          <Trackpoint>
            <Time>2018-08-26T09:57:01.000Z</Time>
            <Position>
              <LatitudeDegrees>42.93888892047107219696044921875</LatitudeDegrees>
              <LongitudeDegrees>-1.63924268446862697601318359375</LongitudeDegrees>
            </Position>
            <AltitudeMeters>528.79998779296875</AltitudeMeters>
            <DistanceMeters>79642.983797506</DistanceMeters>
          </Trackpoint>
          <Trackpoint>
            <Time>2018-08-26T09:57:02.000Z</Time>
            <Position>
              <LatitudeDegrees>42.93882974423468112945556640625</LatitudeDegrees>
              <LongitudeDegrees>-1.63919842801988124847412109375</LongitudeDegrees>
            </Position>
            <AltitudeMeters>528.79998779296875</AltitudeMeters>
            <DistanceMeters>79650.493313295</DistanceMeters>
          </Trackpoint>
          <Trackpoint>
            <Time>2018-08-26T09:57:03.000Z</Time>
            <Position>
              <LatitudeDegrees>42.93877023272216320037841796875</LatitudeDegrees>
              <LongitudeDegrees>-1.63915484212338924407958984375</LongitudeDegrees>
            </Position>
            <AltitudeMeters>529</AltitudeMeters>
            <DistanceMeters>79658.00943984</DistanceMeters>
          </Trackpoint>
          <Trackpoint>
            <Time>2018-08-26T09:57:04.000Z</Time>
            <Position>
              <LatitudeDegrees>42.93871122412383556365966796875</LatitudeDegrees>
              <LongitudeDegrees>-1.6391145251691341400146484375</LongitudeDegrees>
            </Position>
            <AltitudeMeters>529</AltitudeMeters>
            <DistanceMeters>79665.352982345</DistanceMeters>
          </Trackpoint>
          <Trackpoint>
            <Time>2018-08-26T09:57:05.000Z</Time>
            <Position>
              <LatitudeDegrees>42.938650958240032196044921875</LatitudeDegrees>
              <LongitudeDegrees>-1.63907705806195735931396484375</LongitudeDegrees>
            </Position>
            <AltitudeMeters>529.5999755859375</AltitudeMeters>
            <DistanceMeters>79672.722302512</DistanceMeters>
          </Trackpoint>
          <Trackpoint>
            <Time>2018-08-26T09:57:06.000Z</Time>
            <Position>
              <LatitudeDegrees>42.93859027326107025146484375</LatitudeDegrees>
              <LongitudeDegrees>-1.6390429437160491943359375</LongitudeDegrees>
            </Position>
            <AltitudeMeters>529.79998779296875</AltitudeMeters>
            <DistanceMeters>79680.027007962</DistanceMeters>
          </Trackpoint>
          <Trackpoint>
            <Time>2018-08-26T09:57:07.000Z</Time>
            <Position>
              <LatitudeDegrees>42.9385284148156642913818359375</LatitudeDegrees>
              <LongitudeDegrees>-1.639011763036251068115234375</LongitudeDegrees>
            </Position>
            <AltitudeMeters>530</AltitudeMeters>
            <DistanceMeters>79687.366245388</DistanceMeters>
          </Trackpoint>
          <Trackpoint>
            <Time>2018-08-26T09:57:08.000Z</Time>
            <Position>
              <LatitudeDegrees>42.9384647123515605926513671875</LatitudeDegrees>
              <LongitudeDegrees>-1.6389810852706432342529296875</LongitudeDegrees>
            </Position>
            <AltitudeMeters>530.4000244140625</AltitudeMeters>
            <DistanceMeters>79694.884774402</DistanceMeters>
          </Trackpoint>
          <Trackpoint>
            <Time>2018-08-26T09:57:09.000Z</Time>
            <Position>
              <LatitudeDegrees>42.9383993335068225860595703125</LatitudeDegrees>
              <LongitudeDegrees>-1.6389490664005279541015625</LongitudeDegrees>
            </Position>
            <AltitudeMeters>530.4000244140625</AltitudeMeters>
            <DistanceMeters>79702.615301286</DistanceMeters>
          </Trackpoint>
          <Trackpoint>
            <Time>2018-08-26T09:57:10.000Z</Time>
            <Position>
              <LatitudeDegrees>42.9383329488337039947509765625</LatitudeDegrees>
              <LongitudeDegrees>-1.6389173828065395355224609375</LongitudeDegrees>
            </Position>
            <AltitudeMeters>530.5999755859375</AltitudeMeters>
            <DistanceMeters>79710.442180524</DistanceMeters>
          </Trackpoint>
          <Trackpoint>
            <Time>2018-08-26T09:57:11.000Z</Time>
            <Position>
              <LatitudeDegrees>42.938265390694141387939453125</LatitudeDegrees>
              <LongitudeDegrees>-1.63888729177415370941162109375</LongitudeDegrees>
            </Position>
            <AltitudeMeters>530.79998779296875</AltitudeMeters>
            <DistanceMeters>79718.351691861</DistanceMeters>
          </Trackpoint>
          <Trackpoint>
            <Time>2018-08-26T09:57:12.000Z</Time>
            <Position>
              <LatitudeDegrees>42.93819657526910305023193359375</LatitudeDegrees>
              <LongitudeDegrees>-1.63885963149368762969970703125</LongitudeDegrees>
            </Position>
            <AltitudeMeters>530.79998779296875</AltitudeMeters>
            <DistanceMeters>79726.336198089</DistanceMeters>
          </Trackpoint>
          <Trackpoint>
            <Time>2018-08-26T09:57:13.000Z</Time>
            <Position>
              <LatitudeDegrees>42.93812700547277927398681640625</LatitudeDegrees>
              <LongitudeDegrees>-1.63883113302290439605712890625</LongitudeDegrees>
            </Position>
            <AltitudeMeters>530.79998779296875</AltitudeMeters>
            <DistanceMeters>79734.420732293</DistanceMeters>
          </Trackpoint>
          <Trackpoint>
            <Time>2018-08-26T09:57:14.000Z</Time>
            <Position>
              <LatitudeDegrees>42.93805710040032863616943359375</LatitudeDegrees>
              <LongitudeDegrees>-1.638803221285343170166015625</LongitudeDegrees>
            </Position>
            <AltitudeMeters>530.79998779296875</AltitudeMeters>
            <DistanceMeters>79742.527574857</DistanceMeters>
          </Trackpoint>
          <Trackpoint>
            <Time>2018-08-26T09:57:15.000Z</Time>
            <Position>
              <LatitudeDegrees>42.93798618949949741363525390625</LatitudeDegrees>
              <LongitudeDegrees>-1.63877514190971851348876953125</LongitudeDegrees>
            </Position>
            <AltitudeMeters>530.79998779296875</AltitudeMeters>
            <DistanceMeters>79750.745050847</DistanceMeters>
          </Trackpoint>
          <Trackpoint>
            <Time>2018-08-26T09:57:16.000Z</Time>
            <Position>
              <LatitudeDegrees>42.93791444040834903717041015625</LatitudeDegrees>
              <LongitudeDegrees>-1.63874731399118900299072265625</LongitudeDegrees>
            </Position>
            <AltitudeMeters>530.79998779296875</AltitudeMeters>
            <DistanceMeters>79759.046709924</DistanceMeters>
          </Trackpoint>
          <Trackpoint>
            <Time>2018-08-26T09:57:17.000Z</Time>
            <Position>
              <LatitudeDegrees>42.93784168548882007598876953125</LatitudeDegrees>
              <LongitudeDegrees>-1.63872032426297664642333984375</LongitudeDegrees>
            </Position>
            <AltitudeMeters>530.79998779296875</AltitudeMeters>
            <DistanceMeters>79767.437089889</DistanceMeters>
          </Trackpoint>
          <Trackpoint>
            <Time>2018-08-26T09:57:18.000Z</Time>
            <Position>
              <LatitudeDegrees>42.93776842765510082244873046875</LatitudeDegrees>
              <LongitudeDegrees>-1.63869366981089115142822265625</LongitudeDegrees>
            </Position>
            <AltitudeMeters>530.79998779296875</AltitudeMeters>
            <DistanceMeters>79775.875761753</DistanceMeters>
          </Trackpoint>
          <Trackpoint>
            <Time>2018-08-26T09:57:19.000Z</Time>
            <Position>
              <LatitudeDegrees>42.93769466690719127655029296875</LatitudeDegrees>
              <LongitudeDegrees>-1.63866676390171051025390625</LongitudeDegrees>
            </Position>
            <AltitudeMeters>530.79998779296875</AltitudeMeters>
            <DistanceMeters>79784.373084346</DistanceMeters>
          </Trackpoint>
          <Trackpoint>
            <Time>2018-08-26T09:57:20.000Z</Time>
            <Position>
              <LatitudeDegrees>42.9376204870641231536865234375</LatitudeDegrees>
              <LongitudeDegrees>-1.638639271259307861328125</LongitudeDegrees>
            </Position>
            <AltitudeMeters>530.79998779296875</AltitudeMeters>
            <DistanceMeters>79792.928127863</DistanceMeters>
          </Trackpoint>
          <Trackpoint>
            <Time>2018-08-26T09:57:21.000Z</Time>
            <Position>
              <LatitudeDegrees>42.9375457204878330230712890625</LatitudeDegrees>
              <LongitudeDegrees>-1.638612113893032073974609375</LongitudeDegrees>
            </Position>
            <AltitudeMeters>530.79998779296875</AltitudeMeters>
            <DistanceMeters>79801.538408207</DistanceMeters>
          </Trackpoint>
          <Trackpoint>
            <Time>2018-08-26T09:57:22.000Z</Time>
            <Position>
              <LatitudeDegrees>42.9374696128070354461669921875</LatitudeDegrees>
              <LongitudeDegrees>-1.6385854594409465789794921875</LongitudeDegrees>
            </Position>
            <AltitudeMeters>530.79998779296875</AltitudeMeters>
            <DistanceMeters>79810.283964077</DistanceMeters>
          </Trackpoint>
          <Trackpoint>
            <Time>2018-08-26T09:57:23.000Z</Time>
            <Position>
              <LatitudeDegrees>42.9373914934694766998291015625</LatitudeDegrees>
              <LongitudeDegrees>-1.638557799160480499267578125</LongitudeDegrees>
            </Position>
            <AltitudeMeters>530.5999755859375</AltitudeMeters>
            <DistanceMeters>79819.266879145</DistanceMeters>
          </Trackpoint>
          <Trackpoint>
            <Time>2018-08-26T09:57:24.000Z</Time>
            <Position>
              <LatitudeDegrees>42.93731178157031536102294921875</LatitudeDegrees>
              <LongitudeDegrees>-1.63852955214679241180419921875</LongitudeDegrees>
            </Position>
            <AltitudeMeters>530.4000244140625</AltitudeMeters>
            <DistanceMeters>79828.432894158</DistanceMeters>
          </Trackpoint>
          <Trackpoint>
            <Time>2018-08-26T09:57:25.000Z</Time>
            <Position>
              <LatitudeDegrees>42.93723098002374172210693359375</LatitudeDegrees>
              <LongitudeDegrees>-1.6385026462376117706298828125</LongitudeDegrees>
            </Position>
            <AltitudeMeters>530.20001220703125</AltitudeMeters>
            <DistanceMeters>79837.689101011</DistanceMeters>
          </Trackpoint>
          <Trackpoint>
            <Time>2018-08-26T09:57:26.000Z</Time>
            <Position>
              <LatitudeDegrees>42.93714934028685092926025390625</LatitudeDegrees>
              <LongitudeDegrees>-1.63847523741424083709716796875</LongitudeDegrees>
            </Position>
            <AltitudeMeters>530</AltitudeMeters>
            <DistanceMeters>79847.046217084</DistanceMeters>
          </Trackpoint>
          <Trackpoint>
            <Time>2018-08-26T09:57:27.000Z</Time>
            <Position>
              <LatitudeDegrees>42.93706736527383327484130859375</LatitudeDegrees>
              <LongitudeDegrees>-1.6384449787437915802001953125</LongitudeDegrees>
            </Position>
            <AltitudeMeters>530</AltitudeMeters>
            <DistanceMeters>79856.497434793</DistanceMeters>
          </Trackpoint>
          <Trackpoint>
            <Time>2018-08-26T09:57:28.000Z</Time>
            <Position>
              <LatitudeDegrees>42.93698505498468875885009765625</LatitudeDegrees>
              <LongitudeDegrees>-1.6384131275117397308349609375</LongitudeDegrees>
            </Position>
            <AltitudeMeters>529.79998779296875</AltitudeMeters>
            <DistanceMeters>79866.019092605</DistanceMeters>
          </Trackpoint>
          <Trackpoint>
            <Time>2018-08-26T09:57:29.000Z</Time>
            <Position>
              <LatitudeDegrees>42.9369019903242588043212890625</LatitudeDegrees>
              <LongitudeDegrees>-1.63838286884129047393798828125</LongitudeDegrees>
            </Position>
            <AltitudeMeters>529.5999755859375</AltitudeMeters>
            <DistanceMeters>79875.587107812</DistanceMeters>
          </Trackpoint>
          <Trackpoint>
            <Time>2018-08-26T09:57:30.000Z</Time>
            <Position>
              <LatitudeDegrees>42.936819009482860565185546875</LatitudeDegrees>
              <LongitudeDegrees>-1.6383527778089046478271484375</LongitudeDegrees>
            </Position>
            <AltitudeMeters>529.5999755859375</AltitudeMeters>
            <DistanceMeters>79885.142846036</DistanceMeters>
          </Trackpoint>
          <Trackpoint>
            <Time>2018-08-26T09:57:31.000Z</Time>
            <Position>
              <LatitudeDegrees>42.93673552572727203369140625</LatitudeDegrees>
              <LongitudeDegrees>-1.63832218386232852935791015625</LongitudeDegrees>
            </Position>
            <AltitudeMeters>529.4000244140625</AltitudeMeters>
            <DistanceMeters>79894.763567607</DistanceMeters>
          </Trackpoint>
          <Trackpoint>
            <Time>2018-08-26T09:57:32.000Z</Time>
            <Position>
              <LatitudeDegrees>42.9366522096097469329833984375</LatitudeDegrees>
              <LongitudeDegrees>-1.638290584087371826171875</LongitudeDegrees>
            </Position>
            <AltitudeMeters>529.20001220703125</AltitudeMeters>
            <DistanceMeters>79904.387573742</DistanceMeters>
          </Trackpoint>
          <Trackpoint>
            <Time>2018-08-26T09:57:33.000Z</Time>
            <Position>
              <LatitudeDegrees>42.936568222939968109130859375</LatitudeDegrees>
              <LongitudeDegrees>-1.638259403407573699951171875</LongitudeDegrees>
            </Position>
            <AltitudeMeters>528.79998779296875</AltitudeMeters>
            <DistanceMeters>79914.074707188</DistanceMeters>
          </Trackpoint>
          <Trackpoint>
            <Time>2018-08-26T09:57:34.000Z</Time>
            <Position>
              <LatitudeDegrees>42.9364840686321258544921875</LatitudeDegrees>
              <LongitudeDegrees>-1.63822964765131473541259765625</LongitudeDegrees>
            </Position>
            <AltitudeMeters>528.20001220703125</AltitudeMeters>
            <DistanceMeters>79923.749714806</DistanceMeters>
          </Trackpoint>
          <Trackpoint>
            <Time>2018-08-26T09:57:35.000Z</Time>
            <Position>
              <LatitudeDegrees>42.936399914324283599853515625</LatitudeDegrees>
              <LongitudeDegrees>-1.6381988860666751861572265625</LongitudeDegrees>
            </Position>
            <AltitudeMeters>527.79998779296875</AltitudeMeters>
            <DistanceMeters>79933.445699845</DistanceMeters>
          </Trackpoint>
          <Trackpoint>
            <Time>2018-08-26T09:57:36.000Z</Time>
            <Position>
              <LatitudeDegrees>42.9363150894641876220703125</LatitudeDegrees>
              <LongitudeDegrees>-1.63816795684397220611572265625</LongitudeDegrees>
            </Position>
            <AltitudeMeters>527.5999755859375</AltitudeMeters>
            <DistanceMeters>79943.217292771</DistanceMeters>
          </Trackpoint>
          <Trackpoint>
            <Time>2018-08-26T09:57:37.000Z</Time>
            <Position>
              <LatitudeDegrees>42.93622992932796478271484375</LatitudeDegrees>
              <LongitudeDegrees>-1.63813769817352294921875</LongitudeDegrees>
            </Position>
            <AltitudeMeters>527</AltitudeMeters>
            <DistanceMeters>79953.011039347</DistanceMeters>
          </Trackpoint>
          <Trackpoint>
            <Time>2018-08-26T09:57:38.000Z</Time>
            <Position>
              <LatitudeDegrees>42.93614384718239307403564453125</LatitudeDegrees>
              <LongitudeDegrees>-1.63810760714113712310791015625</LongitudeDegrees>
            </Position>
            <AltitudeMeters>526.5999755859375</AltitudeMeters>
            <DistanceMeters>79962.901124687</DistanceMeters>
          </Trackpoint>
          <Trackpoint>
            <Time>2018-08-26T09:57:39.000Z</Time>
            <Position>
              <LatitudeDegrees>42.9360575973987579345703125</LatitudeDegrees>
              <LongitudeDegrees>-1.63807592354714870452880859375</LongitudeDegrees>
            </Position>
            <AltitudeMeters>526.20001220703125</AltitudeMeters>
            <DistanceMeters>79972.842208964</DistanceMeters>
          </Trackpoint>
          <Trackpoint>
            <Time>2018-08-26T09:57:40.000Z</Time>
            <Position>
              <LatitudeDegrees>42.935970760881900787353515625</LatitudeDegrees>
              <LongitudeDegrees>-1.638043820858001708984375</LongitudeDegrees>
            </Position>
            <AltitudeMeters>526</AltitudeMeters>
            <DistanceMeters>79982.855247402</DistanceMeters>
          </Trackpoint>
          <Trackpoint>
            <Time>2018-08-26T09:57:41.000Z</Time>
            <Position>
              <LatitudeDegrees>42.935883589088916778564453125</LatitudeDegrees>
              <LongitudeDegrees>-1.63801188580691814422607421875</LongitudeDegrees>
            </Position>
            <AltitudeMeters>525.5999755859375</AltitudeMeters>
            <DistanceMeters>79992.900699321</DistanceMeters>
          </Trackpoint>
          <Trackpoint>
            <Time>2018-08-26T09:57:42.000Z</Time>
            <Position>
              <LatitudeDegrees>42.93579616583883762359619140625</LatitudeDegrees>
              <LongitudeDegrees>-1.637979783117771148681640625</LongitudeDegrees>
            </Position>
            <AltitudeMeters>525.4000244140625</AltitudeMeters>
            <DistanceMeters>80002.97711632</DistanceMeters>
          </Trackpoint>
          <Trackpoint>
            <Time>2018-08-26T09:57:43.000Z</Time>
            <Position>
              <LatitudeDegrees>42.93570832349359989166259765625</LatitudeDegrees>
              <LongitudeDegrees>-1.63794835098087787628173828125</LongitudeDegrees>
            </Position>
            <AltitudeMeters>525</AltitudeMeters>
            <DistanceMeters>80013.083510071</DistanceMeters>
          </Trackpoint>
          <Trackpoint>
            <Time>2018-08-26T09:57:44.000Z</Time>
            <Position>
              <LatitudeDegrees>42.93561972677707672119140625</LatitudeDegrees>
              <LongitudeDegrees>-1.6379169188439846038818359375</LongitudeDegrees>
            </Position>
            <AltitudeMeters>524.79998779296875</AltitudeMeters>
            <DistanceMeters>80023.271331165</DistanceMeters>
          </Trackpoint>
          <Trackpoint>
            <Time>2018-08-26T09:57:45.000Z</Time>
            <Position>
              <LatitudeDegrees>42.935530878603458404541015625</LatitudeDegrees>
              <LongitudeDegrees>-1.63788531906902790069580078125</LongitudeDegrees>
            </Position>
            <AltitudeMeters>524.5999755859375</AltitudeMeters>
            <DistanceMeters>80033.489685922</DistanceMeters>
          </Trackpoint>
          <Trackpoint>
            <Time>2018-08-26T09:57:46.000Z</Time>
            <Position>
              <LatitudeDegrees>42.93544194661080837249755859375</LatitudeDegrees>
              <LongitudeDegrees>-1.63785330019891262054443359375</LongitudeDegrees>
            </Position>
            <AltitudeMeters>524.20001220703125</AltitudeMeters>
            <DistanceMeters>80043.72614073</DistanceMeters>
          </Trackpoint>
          <Trackpoint>
            <Time>2018-08-26T09:57:47.000Z</Time>
            <Position>
              <LatitudeDegrees>42.93535293079912662506103515625</LatitudeDegrees>
              <LongitudeDegrees>-1.63782044313848018646240234375</LongitudeDegrees>
            </Position>
            <AltitudeMeters>523.79998779296875</AltitudeMeters>
            <DistanceMeters>80053.989465812</DistanceMeters>
          </Trackpoint>
          <Trackpoint>
            <Time>2018-08-26T09:57:48.000Z</Time>
            <Position>
              <LatitudeDegrees>42.9352634958922863006591796875</LatitudeDegrees>
              <LongitudeDegrees>-1.6377871669828891754150390625</LongitudeDegrees>
            </Position>
            <AltitudeMeters>523.20001220703125</AltitudeMeters>
            <DistanceMeters>80064.305883841</DistanceMeters>
          </Trackpoint>
          <Trackpoint>
            <Time>2018-08-26T09:57:49.000Z</Time>
            <Position>
              <LatitudeDegrees>42.935173809528350830078125</LatitudeDegrees>
              <LongitudeDegrees>-1.63775213062763214111328125</LongitudeDegrees>
            </Position>
            <AltitudeMeters>522.79998779296875</AltitudeMeters>
            <DistanceMeters>80074.688612413</DistanceMeters>
          </Trackpoint>
          <Trackpoint>
            <Time>2018-08-26T09:57:50.000Z</Time>
            <Position>
              <LatitudeDegrees>42.9350841231644153594970703125</LatitudeDegrees>
              <LongitudeDegrees>-1.6377152502536773681640625</LongitudeDegrees>
            </Position>
            <AltitudeMeters>522.5999755859375</AltitudeMeters>
            <DistanceMeters>80085.113870207</DistanceMeters>
          </Trackpoint>
          <Trackpoint>
            <Time>2018-08-26T09:57:51.000Z</Time>
            <Position>
              <LatitudeDegrees>42.93499250896275043487548828125</LatitudeDegrees>
              <LongitudeDegrees>-1.637680716812610626220703125</LongitudeDegrees>
            </Position>
            <AltitudeMeters>522.20001220703125</AltitudeMeters>
            <DistanceMeters>80095.692183272</DistanceMeters>
          </Trackpoint>
          <Trackpoint>
            <Time>2018-08-26T09:57:52.000Z</Time>
            <Position>
              <LatitudeDegrees>42.93489955365657806396484375</LatitudeDegrees>
              <LongitudeDegrees>-1.6376481950283050537109375</LongitudeDegrees>
            </Position>
            <AltitudeMeters>521.5999755859375</AltitudeMeters>
            <DistanceMeters>80106.37244196</DistanceMeters>
          </Trackpoint>
          <Trackpoint>
            <Time>2018-08-26T09:57:53.000Z</Time>
            <Position>
              <LatitudeDegrees>42.93480567634105682373046875</LatitudeDegrees>
              <LongitudeDegrees>-1.6376155056059360504150390625</LongitudeDegrees>
            </Position>
            <AltitudeMeters>521.4000244140625</AltitudeMeters>
            <DistanceMeters>80117.155776062</DistanceMeters>
          </Trackpoint>
          <Trackpoint>
            <Time>2018-08-26T09:57:54.000Z</Time>
            <Position>
              <LatitudeDegrees>42.93471179902553558349609375</LatitudeDegrees>
              <LongitudeDegrees>-1.6375823132693767547607421875</LongitudeDegrees>
            </Position>
            <AltitudeMeters>521.20001220703125</AltitudeMeters>
            <DistanceMeters>80127.949154412</DistanceMeters>
          </Trackpoint>
          <Trackpoint>
            <Time>2018-08-26T09:57:55.000Z</Time>
            <Position>
              <LatitudeDegrees>42.93461850844323635101318359375</LatitudeDegrees>
              <LongitudeDegrees>-1.63754819892346858978271484375</LongitudeDegrees>
            </Position>
            <AltitudeMeters>521</AltitudeMeters>
            <DistanceMeters>80138.69851989</DistanceMeters>
          </Trackpoint>
          <Trackpoint>
            <Time>2018-08-26T09:57:56.000Z</Time>
            <Position>
              <LatitudeDegrees>42.93452563695609569549560546875</LatitudeDegrees>
              <LongitudeDegrees>-1.6375152580440044403076171875</LongitudeDegrees>
            </Position>
            <AltitudeMeters>521</AltitudeMeters>
            <DistanceMeters>80149.377933052</DistanceMeters>
          </Trackpoint>
          <Trackpoint>
            <Time>2018-08-26T09:57:57.000Z</Time>
            <Position>
              <LatitudeDegrees>42.93443377129733562469482421875</LatitudeDegrees>
              <LongitudeDegrees>-1.637481562793254852294921875</LongitudeDegrees>
            </Position>
            <AltitudeMeters>521</AltitudeMeters>
            <DistanceMeters>80159.965205548</DistanceMeters>
          </Trackpoint>
          <Trackpoint>
            <Time>2018-08-26T09:57:58.000Z</Time>
            <Position>
              <LatitudeDegrees>42.93434358201920986175537109375</LatitudeDegrees>
              <LongitudeDegrees>-1.63744862191379070281982421875</LongitudeDegrees>
            </Position>
            <AltitudeMeters>520.5999755859375</AltitudeMeters>
            <DistanceMeters>80170.356627689</DistanceMeters>
          </Trackpoint>
          <Trackpoint>
            <Time>2018-08-26T09:57:59.000Z</Time>
            <Position>
              <LatitudeDegrees>42.9342543147504329681396484375</LatitudeDegrees>
              <LongitudeDegrees>-1.637416519224643707275390625</LongitudeDegrees>
            </Position>
            <AltitudeMeters>520.20001220703125</AltitudeMeters>
            <DistanceMeters>80180.630944875</DistanceMeters>
          </Trackpoint>
          <Trackpoint>
            <Time>2018-08-26T09:58:00.000Z</Time>
            <Position>
              <LatitudeDegrees>42.9341661371290683746337890625</LatitudeDegrees>
              <LongitudeDegrees>-1.63738559000194072723388671875</LongitudeDegrees>
            </Position>
            <AltitudeMeters>519.5999755859375</AltitudeMeters>
            <DistanceMeters>80190.763662633</DistanceMeters>
          </Trackpoint>
          <Trackpoint>
            <Time>2018-08-26T09:58:01.000Z</Time>
            <Position>
              <LatitudeDegrees>42.9340789653360843658447265625</LatitudeDegrees>
              <LongitudeDegrees>-1.6373549960553646087646484375</LongitudeDegrees>
            </Position>
            <AltitudeMeters>519</AltitudeMeters>
            <DistanceMeters>80200.780758492</DistanceMeters>
          </Trackpoint>
          <Trackpoint>
            <Time>2018-08-26T09:58:02.000Z</Time>
            <Position>
              <LatitudeDegrees>42.93399238027632236480712890625</LatitudeDegrees>
              <LongitudeDegrees>-1.63732356391847133636474609375</LongitudeDegrees>
            </Position>
            <AltitudeMeters>518.4000244140625</AltitudeMeters>
            <DistanceMeters>80210.752679159</DistanceMeters>
          </Trackpoint>
          <Trackpoint>
            <Time>2018-08-26T09:58:03.000Z</Time>
            <Position>
              <LatitudeDegrees>42.93390654958784580230712890625</LatitudeDegrees>
              <LongitudeDegrees>-1.637292802333831787109375</LongitudeDegrees>
            </Position>
            <AltitudeMeters>517.5999755859375</AltitudeMeters>
            <DistanceMeters>80220.629973622</DistanceMeters>
          </Trackpoint>
          <Trackpoint>
            <Time>2018-08-26T09:58:04.000Z</Time>
            <Position>
              <LatitudeDegrees>42.93382071889936923980712890625</LatitudeDegrees>
              <LongitudeDegrees>-1.637262962758541107177734375</LongitudeDegrees>
            </Position>
            <AltitudeMeters>517</AltitudeMeters>
            <DistanceMeters>80230.48805065</DistanceMeters>
          </Trackpoint>
          <Trackpoint>
            <Time>2018-08-26T09:58:05.000Z</Time>
            <Position>
              <LatitudeDegrees>42.93373522348701953887939453125</LatitudeDegrees>
              <LongitudeDegrees>-1.63723312318325042724609375</LongitudeDegrees>
            </Position>
            <AltitudeMeters>516.5999755859375</AltitudeMeters>
            <DistanceMeters>80240.309878721</DistanceMeters>
          </Trackpoint>
          <Trackpoint>
            <Time>2018-08-26T09:58:06.000Z</Time>
            <Position>
              <LatitudeDegrees>42.93364989571273326873779296875</LatitudeDegrees>
              <LongitudeDegrees>-1.63720437325537204742431640625</LongitudeDegrees>
            </Position>
            <AltitudeMeters>516.20001220703125</AltitudeMeters>
            <DistanceMeters>80250.091631631</DistanceMeters>
          </Trackpoint>
          <Trackpoint>
            <Time>2018-08-26T09:58:07.000Z</Time>
            <Position>
              <LatitudeDegrees>42.93356490321457386016845703125</LatitudeDegrees>
              <LongitudeDegrees>-1.63717537187039852142333984375</LongitudeDegrees>
            </Position>
            <AltitudeMeters>516</AltitudeMeters>
            <DistanceMeters>80259.841946744</DistanceMeters>
          </Trackpoint>
          <Trackpoint>
            <Time>2018-08-26T09:58:08.000Z</Time>
            <Position>
              <LatitudeDegrees>42.93347991071641445159912109375</LatitudeDegrees>
              <LongitudeDegrees>-1.63714737631380558013916015625</LongitudeDegrees>
            </Position>
            <AltitudeMeters>516</AltitudeMeters>
            <DistanceMeters>80269.572793654</DistanceMeters>
          </Trackpoint>
          <Trackpoint>
            <Time>2018-08-26T09:58:09.000Z</Time>
            <Position>
              <LatitudeDegrees>42.93339475058019161224365234375</LatitudeDegrees>
              <LongitudeDegrees>-1.63711871020495891571044921875</LongitudeDegrees>
            </Position>
            <AltitudeMeters>515.79998779296875</AltitudeMeters>
            <DistanceMeters>80279.335141056</DistanceMeters>
          </Trackpoint>
          <Trackpoint>
            <Time>2018-08-26T09:58:10.000Z</Time>
            <Position>
              <LatitudeDegrees>42.9333101771771907806396484375</LatitudeDegrees>
              <LongitudeDegrees>-1.63708803243935108184814453125</LongitudeDegrees>
            </Position>
            <AltitudeMeters>515.79998779296875</AltitudeMeters>
            <DistanceMeters>80289.074336247</DistanceMeters>
          </Trackpoint>
          <Trackpoint>
            <Time>2018-08-26T09:58:11.000Z</Time>
            <Position>
              <LatitudeDegrees>42.9332256875932216644287109375</LatitudeDegrees>
              <LongitudeDegrees>-1.63705752231180667877197265625</LongitudeDegrees>
            </Position>
            <AltitudeMeters>515.79998779296875</AltitudeMeters>
            <DistanceMeters>80298.80147051</DistanceMeters>
          </Trackpoint>
          <Trackpoint>
            <Time>2018-08-26T09:58:12.000Z</Time>
            <Position>
              <LatitudeDegrees>42.93314111419022083282470703125</LatitudeDegrees>
              <LongitudeDegrees>-1.63702659308910369873046875</LongitudeDegrees>
            </Position>
            <AltitudeMeters>515.79998779296875</AltitudeMeters>
            <DistanceMeters>80308.546227249</DistanceMeters>
          </Trackpoint>
          <Trackpoint>
            <Time>2018-08-26T09:58:13.000Z</Time>
            <Position>
              <LatitudeDegrees>42.9330563731491565704345703125</LatitudeDegrees>
              <LongitudeDegrees>-1.636996082961559295654296875</LongitudeDegrees>
            </Position>
            <AltitudeMeters>515.5999755859375</AltitudeMeters>
            <DistanceMeters>80318.300246185</DistanceMeters>
          </Trackpoint>
          <Trackpoint>
            <Time>2018-08-26T09:58:14.000Z</Time>
            <Position>
              <LatitudeDegrees>42.932971380650997161865234375</LatitudeDegrees>
              <LongitudeDegrees>-1.6369654051959514617919921875</LongitudeDegrees>
            </Position>
            <AltitudeMeters>515.5999755859375</AltitudeMeters>
            <DistanceMeters>80328.084768169</DistanceMeters>
          </Trackpoint>
          <Trackpoint>
            <Time>2018-08-26T09:58:15.000Z</Time>
            <Position>
              <LatitudeDegrees>42.93288663960993289947509765625</LatitudeDegrees>
              <LongitudeDegrees>-1.6369352303445339202880859375</LongitudeDegrees>
            </Position>
            <AltitudeMeters>515.5999755859375</AltitudeMeters>
            <DistanceMeters>80337.832304491</DistanceMeters>
          </Trackpoint>
          <Trackpoint>
            <Time>2018-08-26T09:58:16.000Z</Time>
            <Position>
              <LatitudeDegrees>42.93280215002596378326416015625</LatitudeDegrees>
              <LongitudeDegrees>-1.63690547458827495574951171875</LongitudeDegrees>
            </Position>
            <AltitudeMeters>515.5999755859375</AltitudeMeters>
            <DistanceMeters>80347.543644171</DistanceMeters>
          </Trackpoint>
          <Trackpoint>
            <Time>2018-08-26T09:58:17.000Z</Time>
            <Position>
              <LatitudeDegrees>42.9327174089848995208740234375</LatitudeDegrees>
              <LongitudeDegrees>-1.63687429390847682952880859375</LongitudeDegrees>
            </Position>
            <AltitudeMeters>515.5999755859375</AltitudeMeters>
            <DistanceMeters>80357.311539938</DistanceMeters>
          </Trackpoint>
          <Trackpoint>
            <Time>2018-08-26T09:58:18.000Z</Time>
            <Position>
              <LatitudeDegrees>42.932632081210613250732421875</LatitudeDegrees>
              <LongitudeDegrees>-1.636842191219329833984375</LongitudeDegrees>
            </Position>
            <AltitudeMeters>515.5999755859375</AltitudeMeters>
            <DistanceMeters>80367.162744511</DistanceMeters>
          </Trackpoint>
          <Trackpoint>
            <Time>2018-08-26T09:58:19.000Z</Time>
            <Position>
              <LatitudeDegrees>42.93254516087472438812255859375</LatitudeDegrees>
              <LongitudeDegrees>-1.63680975325405597686767578125</LongitudeDegrees>
            </Position>
            <AltitudeMeters>515.4000244140625</AltitudeMeters>
            <DistanceMeters>80377.191552587</DistanceMeters>
          </Trackpoint>
          <Trackpoint>
            <Time>2018-08-26T09:58:20.000Z</Time>
            <Position>
              <LatitudeDegrees>42.93245664797723293304443359375</LatitudeDegrees>
              <LongitudeDegrees>-1.6367773152887821197509765625</LongitudeDegrees>
            </Position>
            <AltitudeMeters>515.4000244140625</AltitudeMeters>
            <DistanceMeters>80387.391775172</DistanceMeters>
          </Trackpoint>
          <Trackpoint>
            <Time>2018-08-26T09:58:21.000Z</Time>
            <Position>
              <LatitudeDegrees>42.93236696161329746246337890625</LatitudeDegrees>
              <LongitudeDegrees>-1.63674470968544483184814453125</LongitudeDegrees>
            </Position>
            <AltitudeMeters>515.4000244140625</AltitudeMeters>
            <DistanceMeters>80397.721314526</DistanceMeters>
          </Trackpoint>
          <Trackpoint>
            <Time>2018-08-26T09:58:22.000Z</Time>
            <Position>
              <LatitudeDegrees>42.93227593414485454559326171875</LatitudeDegrees>
              <LongitudeDegrees>-1.63671319372951984405517578125</LongitudeDegrees>
            </Position>
            <AltitudeMeters>515.20001220703125</AltitudeMeters>
            <DistanceMeters>80408.173389192</DistanceMeters>
          </Trackpoint>
          <Trackpoint>
            <Time>2018-08-26T09:58:23.000Z</Time>
            <Position>
              <LatitudeDegrees>42.93218339793384075164794921875</LatitudeDegrees>
              <LongitudeDegrees>-1.6366827674210071563720703125</LongitudeDegrees>
            </Position>
            <AltitudeMeters>515.20001220703125</AltitudeMeters>
            <DistanceMeters>80418.767482835</DistanceMeters>
          </Trackpoint>
          <Trackpoint>
            <Time>2018-08-26T09:58:24.000Z</Time>
            <Position>
              <LatitudeDegrees>42.9320887662470340728759765625</LatitudeDegrees>
              <LongitudeDegrees>-1.63665602914988994598388671875</LongitudeDegrees>
            </Position>
            <AltitudeMeters>515.20001220703125</AltitudeMeters>
            <DistanceMeters>80429.523566667</DistanceMeters>
          </Trackpoint>
          <Trackpoint>
            <Time>2018-08-26T09:58:25.000Z</Time>
            <Position>
              <LatitudeDegrees>42.93199212290346622467041015625</LatitudeDegrees>
              <LongitudeDegrees>-1.636635996401309967041015625</LongitudeDegrees>
            </Position>
            <AltitudeMeters>515</AltitudeMeters>
            <DistanceMeters>80440.403191754</DistanceMeters>
          </Trackpoint>
          <Trackpoint>
            <Time>2018-08-26T09:58:26.000Z</Time>
            <Position>
              <LatitudeDegrees>42.93189489282667636871337890625</LatitudeDegrees>
              <LongitudeDegrees>-1.63662183098495006561279296875</LongitudeDegrees>
            </Position>
            <AltitudeMeters>514.79998779296875</AltitudeMeters>
            <DistanceMeters>80451.28613633</DistanceMeters>
          </Trackpoint>
          <Trackpoint>
            <Time>2018-08-26T09:58:27.000Z</Time>
            <Position>
              <LatitudeDegrees>42.9317974112927913665771484375</LatitudeDegrees>
              <LongitudeDegrees>-1.6366143710911273956298828125</LongitudeDegrees>
            </Position>
            <AltitudeMeters>514.79998779296875</AltitudeMeters>
            <DistanceMeters>80462.15247332</DistanceMeters>
          </Trackpoint>
          <Trackpoint>
            <Time>2018-08-26T09:58:28.000Z</Time>
            <Position>
              <LatitudeDegrees>42.93169942684471607208251953125</LatitudeDegrees>
              <LongitudeDegrees>-1.63661797530949115753173828125</LongitudeDegrees>
            </Position>
            <AltitudeMeters>514.4000244140625</AltitudeMeters>
            <DistanceMeters>80473.062765144</DistanceMeters>
          </Trackpoint>
          <Trackpoint>
            <Time>2018-08-26T09:58:29.000Z</Time>
            <Position>
              <LatitudeDegrees>42.9316029511392116546630859375</LatitudeDegrees>
              <LongitudeDegrees>-1.6366351582109928131103515625</LongitudeDegrees>
            </Position>
            <AltitudeMeters>514.20001220703125</AltitudeMeters>
            <DistanceMeters>80483.891641941</DistanceMeters>
          </Trackpoint>
          <Trackpoint>
            <Time>2018-08-26T09:58:30.000Z</Time>
            <Position>
              <LatitudeDegrees>42.931508906185626983642578125</LatitudeDegrees>
              <LongitudeDegrees>-1.63666457869112491607666015625</LongitudeDegrees>
            </Position>
            <AltitudeMeters>513.79998779296875</AltitudeMeters>
            <DistanceMeters>80494.629240185</DistanceMeters>
          </Trackpoint>
          <Trackpoint>
            <Time>2018-08-26T09:58:31.000Z</Time>
            <Position>
              <LatitudeDegrees>42.93141729198396205902099609375</LatitudeDegrees>
              <LongitudeDegrees>-1.63670129142701625823974609375</LongitudeDegrees>
            </Position>
            <AltitudeMeters>513.4000244140625</AltitudeMeters>
            <DistanceMeters>80505.255674485</DistanceMeters>
          </Trackpoint>
          <Trackpoint>
            <Time>2018-08-26T09:58:32.000Z</Time>
            <Position>
              <LatitudeDegrees>42.93132659979164600372314453125</LatitudeDegrees>
              <LongitudeDegrees>-1.63673917762935161590576171875</LongitudeDegrees>
            </Position>
            <AltitudeMeters>512.79998779296875</AltitudeMeters>
            <DistanceMeters>80515.811769564</DistanceMeters>
          </Trackpoint>
          <Trackpoint>
            <Time>2018-08-26T09:58:33.000Z</Time>
            <Position>
              <LatitudeDegrees>42.93123590759932994842529296875</LatitudeDegrees>
              <LongitudeDegrees>-1.636773459613323211669921875</LongitudeDegrees>
            </Position>
            <AltitudeMeters>512.20001220703125</AltitudeMeters>
            <DistanceMeters>80526.285420725</DistanceMeters>
          </Trackpoint>
          <Trackpoint>
            <Time>2018-08-26T09:58:34.000Z</Time>
            <Position>
              <LatitudeDegrees>42.93114471249282360076904296875</LatitudeDegrees>
              <LongitudeDegrees>-1.636799275875091552734375</LongitudeDegrees>
            </Position>
            <AltitudeMeters>511.600006103515625</AltitudeMeters>
            <DistanceMeters>80536.651611427</DistanceMeters>
          </Trackpoint>
          <Trackpoint>
            <Time>2018-08-26T09:58:35.000Z</Time>
            <Position>
              <LatitudeDegrees>42.931052930653095245361328125</LatitudeDegrees>
              <LongitudeDegrees>-1.6368148662149906158447265625</LongitudeDegrees>
            </Position>
            <AltitudeMeters>510.600006103515625</AltitudeMeters>
            <DistanceMeters>80546.946123419</DistanceMeters>
          </Trackpoint>
          <Trackpoint>
            <Time>2018-08-26T09:58:36.000Z</Time>
            <Position>
              <LatitudeDegrees>42.93096047826111316680908203125</LatitudeDegrees>
              <LongitudeDegrees>-1.63681461475789546966552734375</LongitudeDegrees>
            </Position>
            <AltitudeMeters>510.20001220703125</AltitudeMeters>
            <DistanceMeters>80557.236248607</DistanceMeters>
          </Trackpoint>
          <Trackpoint>
            <Time>2018-08-26T09:58:37.000Z</Time>
            <Position>
              <LatitudeDegrees>42.93086953461170196533203125</LatitudeDegrees>
              <LongitudeDegrees>-1.636791564524173736572265625</LongitudeDegrees>
            </Position>
            <AltitudeMeters>510</AltitudeMeters>
            <DistanceMeters>80567.531637735</DistanceMeters>
          </Trackpoint>
          <Trackpoint>
            <Time>2018-08-26T09:58:38.000Z</Time>
            <Position>
              <LatitudeDegrees>42.93078177608549594879150390625</LatitudeDegrees>
              <LongitudeDegrees>-1.636743955314159393310546875</LongitudeDegrees>
            </Position>
            <AltitudeMeters>509.79998779296875</AltitudeMeters>
            <DistanceMeters>80578.041437688</DistanceMeters>
          </Trackpoint>
          <Trackpoint>
            <Time>2018-08-26T09:58:39.000Z</Time>
            <Position>
              <LatitudeDegrees>42.93069829232990741729736328125</LatitudeDegrees>
              <LongitudeDegrees>-1.63668067194521427154541015625</LongitudeDegrees>
            </Position>
            <AltitudeMeters>509.79998779296875</AltitudeMeters>
            <DistanceMeters>80588.668296867</DistanceMeters>
          </Trackpoint>
          <Trackpoint>
            <Time>2018-08-26T09:58:40.000Z</Time>
            <Position>
              <LatitudeDegrees>42.93061732314527034759521484375</LatitudeDegrees>
              <LongitudeDegrees>-1.63660841993987560272216796875</LongitudeDegrees>
            </Position>
            <AltitudeMeters>509.600006103515625</AltitudeMeters>
            <DistanceMeters>80599.43361159</DistanceMeters>
          </Trackpoint>
          <Trackpoint>
            <Time>2018-08-26T09:58:41.000Z</Time>
            <Position>
              <LatitudeDegrees>42.930537275969982147216796875</LatitudeDegrees>
              <LongitudeDegrees>-1.6365305520594120025634765625</LongitudeDegrees>
            </Position>
            <AltitudeMeters>509.399993896484375</AltitudeMeters>
            <DistanceMeters>80610.372007857</DistanceMeters>
          </Trackpoint>
          <Trackpoint>
            <Time>2018-08-26T09:58:42.000Z</Time>
            <Position>
              <LatitudeDegrees>42.93045806698501110076904296875</LatitudeDegrees>
              <LongitudeDegrees>-1.6364510916173458099365234375</LongitudeDegrees>
            </Position>
            <AltitudeMeters>509.399993896484375</AltitudeMeters>
            <DistanceMeters>80621.310404123</DistanceMeters>
          </Trackpoint>
          <Trackpoint>
            <Time>2018-08-26T09:58:43.000Z</Time>
            <Position>
              <LatitudeDegrees>42.93037869036197662353515625</LatitudeDegrees>
              <LongitudeDegrees>-1.63637171499431133270263671875</LongitudeDegrees>
            </Position>
            <AltitudeMeters>509.399993896484375</AltitudeMeters>
            <DistanceMeters>80632.260351841</DistanceMeters>
          </Trackpoint>
          <Trackpoint>
            <Time>2018-08-26T09:58:44.000Z</Time>
            <Position>
              <LatitudeDegrees>42.9302997328341007232666015625</LatitudeDegrees>
              <LongitudeDegrees>-1.6362931765615940093994140625</LongitudeDegrees>
            </Position>
            <AltitudeMeters>509.20001220703125</AltitudeMeters>
            <DistanceMeters>80643.131673771</DistanceMeters>
          </Trackpoint>
          <Trackpoint>
            <Time>2018-08-26T09:58:45.000Z</Time>
            <Position>
              <LatitudeDegrees>42.93022236786782741546630859375</LatitudeDegrees>
              <LongitudeDegrees>-1.636213548481464385986328125</LongitudeDegrees>
            </Position>
            <AltitudeMeters>508.79998779296875</AltitudeMeters>
            <DistanceMeters>80653.913751684</DistanceMeters>
          </Trackpoint>
          <Trackpoint>
            <Time>2018-08-26T09:58:46.000Z</Time>
            <Position>
              <LatitudeDegrees>42.93014776892960071563720703125</LatitudeDegrees>
              <LongitudeDegrees>-1.636131741106510162353515625</LongitudeDegrees>
            </Position>
            <AltitudeMeters>508.399993896484375</AltitudeMeters>
            <DistanceMeters>80664.562257209</DistanceMeters>
          </Trackpoint>
          <Trackpoint>
            <Time>2018-08-26T09:58:47.000Z</Time>
            <Position>
              <LatitudeDegrees>42.9300781153142452239990234375</LatitudeDegrees>
              <LongitudeDegrees>-1.6360442340373992919921875</LongitudeDegrees>
            </Position>
            <AltitudeMeters>507.79998779296875</AltitudeMeters>
            <DistanceMeters>80675.09608744</DistanceMeters>
          </Trackpoint>
          <Trackpoint>
            <Time>2018-08-26T09:58:48.000Z</Time>
            <Position>
              <LatitudeDegrees>42.93001592159271240234375</LatitudeDegrees>
              <LongitudeDegrees>-1.63594909943640232086181640625</LongitudeDegrees>
            </Position>
            <AltitudeMeters>507.600006103515625</AltitudeMeters>
            <DistanceMeters>80685.489247423</DistanceMeters>
          </Trackpoint>
          <Trackpoint>
            <Time>2018-08-26T09:58:49.000Z</Time>
            <Position>
              <LatitudeDegrees>42.92996319942176342010498046875</LatitudeDegrees>
              <LongitudeDegrees>-1.63584482856094837188720703125</LongitudeDegrees>
            </Position>
            <AltitudeMeters>507.20001220703125</AltitudeMeters>
            <DistanceMeters>80695.816163846</DistanceMeters>
          </Trackpoint>
          <Trackpoint>
            <Time>2018-08-26T09:58:50.000Z</Time>
            <Position>
              <LatitudeDegrees>42.92991877533495426177978515625</LatitudeDegrees>
              <LongitudeDegrees>-1.635732091963291168212890625</LongitudeDegrees>
            </Position>
            <AltitudeMeters>506.600006103515625</AltitudeMeters>
            <DistanceMeters>80706.249647038</DistanceMeters>
          </Trackpoint>
          <Trackpoint>
            <Time>2018-08-26T09:58:51.000Z</Time>
            <Position>
              <LatitudeDegrees>42.9298813082277774810791015625</LatitudeDegrees>
              <LongitudeDegrees>-1.63561516441404819488525390625</LongitudeDegrees>
            </Position>
            <AltitudeMeters>506.20001220703125</AltitudeMeters>
            <DistanceMeters>80716.651491872</DistanceMeters>
          </Trackpoint>
          <Trackpoint>
            <Time>2018-08-26T09:58:52.000Z</Time>
            <Position>
              <LatitudeDegrees>42.929850630462169647216796875</LatitudeDegrees>
              <LongitudeDegrees>-1.63549412973225116729736328125</LongitudeDegrees>
            </Position>
            <AltitudeMeters>505.79998779296875</AltitudeMeters>
            <DistanceMeters>80727.089301619</DistanceMeters>
          </Trackpoint>
          <Trackpoint>
            <Time>2018-08-26T09:58:53.000Z</Time>
            <Position>
              <LatitudeDegrees>42.9298259876668453216552734375</LatitudeDegrees>
              <LongitudeDegrees>-1.6353704966604709625244140625</LongitudeDegrees>
            </Position>
            <AltitudeMeters>505.79998779296875</AltitudeMeters>
            <DistanceMeters>80737.53100373</DistanceMeters>
          </Trackpoint>
          <Trackpoint>
            <Time>2018-08-26T09:58:54.000Z</Time>
            <Position>
              <LatitudeDegrees>42.9298031888902187347412109375</LatitudeDegrees>
              <LongitudeDegrees>-1.63524535484611988067626953125</LongitudeDegrees>
            </Position>
            <AltitudeMeters>505.399993896484375</AltitudeMeters>
            <DistanceMeters>80748.040374072</DistanceMeters>
          </Trackpoint>
          <Trackpoint>
            <Time>2018-08-26T09:58:55.000Z</Time>
            <Position>
              <LatitudeDegrees>42.92978064157068729400634765625</LatitudeDegrees>
              <LongitudeDegrees>-1.6351210512220859527587890625</LongitudeDegrees>
            </Position>
            <AltitudeMeters>505.20001220703125</AltitudeMeters>
            <DistanceMeters>80758.476453412</DistanceMeters>
          </Trackpoint>
          <Trackpoint>
            <Time>2018-08-26T09:58:56.000Z</Time>
            <Position>
              <LatitudeDegrees>42.9297589324414730072021484375</LatitudeDegrees>
              <LongitudeDegrees>-1.6349976696074008941650390625</LongitudeDegrees>
            </Position>
            <AltitudeMeters>505.20001220703125</AltitudeMeters>
            <DistanceMeters>80768.817351112</DistanceMeters>
          </Trackpoint>
          <Trackpoint>
            <Time>2018-08-26T09:58:57.000Z</Time>
            <Position>
              <LatitudeDegrees>42.9297378100454807281494140625</LatitudeDegrees>
              <LongitudeDegrees>-1.6348749585449695587158203125</LongitudeDegrees>
            </Position>
            <AltitudeMeters>505</AltitudeMeters>
            <DistanceMeters>80779.090789362</DistanceMeters>
          </Trackpoint>
          <Trackpoint>
            <Time>2018-08-26T09:58:58.000Z</Time>
            <Position>
              <LatitudeDegrees>42.92971794493496417999267578125</LatitudeDegrees>
              <LongitudeDegrees>-1.63475266657769680023193359375</LongitudeDegrees>
            </Position>
            <AltitudeMeters>504.79998779296875</AltitudeMeters>
            <DistanceMeters>80789.299418665</DistanceMeters>
          </Trackpoint>
          <Trackpoint>
            <Time>2018-08-26T09:58:59.000Z</Time>
            <Position>
              <LatitudeDegrees>42.92969933710992336273193359375</LatitudeDegrees>
              <LongitudeDegrees>-1.6346305422484874725341796875</LongitudeDegrees>
            </Position>
            <AltitudeMeters>504.600006103515625</AltitudeMeters>
            <DistanceMeters>80799.46505661</DistanceMeters>
          </Trackpoint>
          <Trackpoint>
            <Time>2018-08-26T09:59:00.000Z</Time>
            <Position>
              <LatitudeDegrees>42.929680980741977691650390625</LatitudeDegrees>
              <LongitudeDegrees>-1.634509004652500152587890625</LongitudeDegrees>
            </Position>
            <AltitudeMeters>504.399993896484375</AltitudeMeters>
            <DistanceMeters>80809.578149401</DistanceMeters>
          </Trackpoint>
          <Trackpoint>
            <Time>2018-08-26T09:59:01.000Z</Time>
            <Position>
              <LatitudeDegrees>42.92966295965015888214111328125</LatitudeDegrees>
              <LongitudeDegrees>-1.63438704796135425567626953125</LongitudeDegrees>
            </Position>
            <AltitudeMeters>504.399993896484375</AltitudeMeters>
            <DistanceMeters>80819.717103501</DistanceMeters>
          </Trackpoint>
          <Trackpoint>
            <Time>2018-08-26T09:59:02.000Z</Time>
            <Position>
              <LatitudeDegrees>42.92964502237737178802490234375</LatitudeDegrees>
              <LongitudeDegrees>-1.63426802493631839752197265625</LongitudeDegrees>
            </Position>
            <AltitudeMeters>504.20001220703125</AltitudeMeters>
            <DistanceMeters>80829.619963198</DistanceMeters>
          </Trackpoint>
          <Trackpoint>
            <Time>2018-08-26T09:59:03.000Z</Time>
            <Position>
              <LatitudeDegrees>42.9296271689236164093017578125</LatitudeDegrees>
              <LongitudeDegrees>-1.634148918092250823974609375</LongitudeDegrees>
            </Position>
            <AltitudeMeters>503.79998779296875</AltitudeMeters>
            <DistanceMeters>80839.528292578</DistanceMeters>
          </Trackpoint>
          <Trackpoint>
            <Time>2018-08-26T09:59:04.000Z</Time>
            <Position>
              <LatitudeDegrees>42.929609231650829315185546875</LatitudeDegrees>
              <LongitudeDegrees>-1.6340303979814052581787109375</LongitudeDegrees>
            </Position>
            <AltitudeMeters>503.600006103515625</AltitudeMeters>
            <DistanceMeters>80849.390948582</DistanceMeters>
          </Trackpoint>
          <Trackpoint>
            <Time>2018-08-26T09:59:05.000Z</Time>
            <Position>
              <LatitudeDegrees>42.9295906238257884979248046875</LatitudeDegrees>
              <LongitudeDegrees>-1.633910201489925384521484375</LongitudeDegrees>
            </Position>
            <AltitudeMeters>503.20001220703125</AltitudeMeters>
            <DistanceMeters>80859.403085147</DistanceMeters>
          </Trackpoint>
          <Trackpoint>
            <Time>2018-08-26T09:59:06.000Z</Time>
            <Position>
              <LatitudeDegrees>42.929572351276874542236328125</LatitudeDegrees>
              <LongitudeDegrees>-1.633790843188762664794921875</LongitudeDegrees>
            </Position>
            <AltitudeMeters>503.20001220703125</AltitudeMeters>
            <DistanceMeters>80869.340535323</DistanceMeters>
          </Trackpoint>
          <Trackpoint>
            <Time>2018-08-26T09:59:07.000Z</Time>
            <Position>
              <LatitudeDegrees>42.9295540787279605865478515625</LatitudeDegrees>
              <LongitudeDegrees>-1.63367307744920253753662109375</LongitudeDegrees>
            </Position>
            <AltitudeMeters>503.20001220703125</AltitudeMeters>
            <DistanceMeters>80879.150864305</DistanceMeters>
          </Trackpoint>
          <Trackpoint>
            <Time>2018-08-26T09:59:08.000Z</Time>
            <Position>
              <LatitudeDegrees>42.929535470902919769287109375</LatitudeDegrees>
              <LongitudeDegrees>-1.63355581462383270263671875</LongitudeDegrees>
            </Position>
            <AltitudeMeters>503</AltitudeMeters>
            <DistanceMeters>80888.928923897</DistanceMeters>
          </Trackpoint>
          <Trackpoint>
            <Time>2018-08-26T09:59:09.000Z</Time>
            <Position>
              <LatitudeDegrees>42.92951744981110095977783203125</LatitudeDegrees>
              <LongitudeDegrees>-1.633440144360065460205078125</LongitudeDegrees>
            </Position>
            <AltitudeMeters>503</AltitudeMeters>
            <DistanceMeters>80898.566525586</DistanceMeters>
          </Trackpoint>
          <Trackpoint>
            <Time>2018-08-26T09:59:10.000Z</Time>
            <Position>
              <LatitudeDegrees>42.92949934490025043487548828125</LatitudeDegrees>
              <LongitudeDegrees>-1.63332522846758365631103515625</LongitudeDegrees>
            </Position>
            <AltitudeMeters>503</AltitudeMeters>
            <DistanceMeters>80908.145859426</DistanceMeters>
          </Trackpoint>
          <Trackpoint>
            <Time>2018-08-26T09:59:11.000Z</Time>
            <Position>
              <LatitudeDegrees>42.929481156170368194580078125</LatitudeDegrees>
              <LongitudeDegrees>-1.6332116536796092987060546875</LongitudeDegrees>
            </Position>
            <AltitudeMeters>503</AltitudeMeters>
            <DistanceMeters>80917.620456511</DistanceMeters>
          </Trackpoint>
          <Trackpoint>
            <Time>2018-08-26T09:59:12.000Z</Time>
            <Position>
              <LatitudeDegrees>42.92946263216435909271240234375</LatitudeDegrees>
              <LongitudeDegrees>-1.6330956481397151947021484375</LongitudeDegrees>
            </Position>
            <AltitudeMeters>503</AltitudeMeters>
            <DistanceMeters>80927.296397425</DistanceMeters>
          </Trackpoint>
          <Trackpoint>
            <Time>2018-08-26T09:59:13.000Z</Time>
            <Position>
              <LatitudeDegrees>42.92944368906319141387939453125</LatitudeDegrees>
              <LongitudeDegrees>-1.63298056460916996002197265625</LongitudeDegrees>
            </Position>
            <AltitudeMeters>503</AltitudeMeters>
            <DistanceMeters>80936.909137526</DistanceMeters>
          </Trackpoint>
          <Trackpoint>
            <Time>2018-08-26T09:59:14.000Z</Time>
            <Position>
              <LatitudeDegrees>42.92942407540977001190185546875</LatitudeDegrees>
              <LongitudeDegrees>-1.63286539725959300994873046875</LongitudeDegrees>
            </Position>
            <AltitudeMeters>503</AltitudeMeters>
            <DistanceMeters>80946.544865106</DistanceMeters>
          </Trackpoint>
          <Trackpoint>
            <Time>2018-08-26T09:59:15.000Z</Time>
            <Position>
              <LatitudeDegrees>42.92940278537571430206298828125</LatitudeDegrees>
              <LongitudeDegrees>-1.63275106810033321380615234375</LongitudeDegrees>
            </Position>
            <AltitudeMeters>503</AltitudeMeters>
            <DistanceMeters>80956.159014184</DistanceMeters>
          </Trackpoint>
          <Trackpoint>
            <Time>2018-08-26T09:59:16.000Z</Time>
            <Position>
              <LatitudeDegrees>42.9293804056942462921142578125</LatitudeDegrees>
              <LongitudeDegrees>-1.63263808004558086395263671875</LongitudeDegrees>
            </Position>
            <AltitudeMeters>503</AltitudeMeters>
            <DistanceMeters>80965.697727422</DistanceMeters>
          </Trackpoint>
          <Trackpoint>
            <Time>2018-08-26T09:59:17.000Z</Time>
            <Position>
              <LatitudeDegrees>42.92935903184115886688232421875</LatitudeDegrees>
              <LongitudeDegrees>-1.63252911530435085296630859375</LongitudeDegrees>
            </Position>
            <AltitudeMeters>503</AltitudeMeters>
            <DistanceMeters>80974.891285793</DistanceMeters>
          </Trackpoint>
          <Trackpoint>
            <Time>2018-08-26T09:59:18.000Z</Time>
            <Position>
              <LatitudeDegrees>42.929334975779056549072265625</LatitudeDegrees>
              <LongitudeDegrees>-1.6324204020202159881591796875</LongitudeDegrees>
            </Position>
            <AltitudeMeters>503</AltitudeMeters>
            <DistanceMeters>80984.146029175</DistanceMeters>
          </Trackpoint>
          <Trackpoint>
            <Time>2018-08-26T09:59:19.000Z</Time>
            <Position>
              <LatitudeDegrees>42.92930589057505130767822265625</LatitudeDegrees>
              <LongitudeDegrees>-1.632312275469303131103515625</LongitudeDegrees>
            </Position>
            <AltitudeMeters>503</AltitudeMeters>
            <DistanceMeters>80993.533976027</DistanceMeters>
          </Trackpoint>
          <Trackpoint>
            <Time>2018-08-26T09:59:20.000Z</Time>
            <Position>
              <LatitudeDegrees>42.9292714409530162811279296875</LatitudeDegrees>
              <LongitudeDegrees>-1.6322041489183902740478515625</LongitudeDegrees>
            </Position>
            <AltitudeMeters>503.20001220703125</AltitudeMeters>
            <DistanceMeters>81003.144367375</DistanceMeters>
          </Trackpoint>
          <Trackpoint>
            <Time>2018-08-26T09:59:21.000Z</Time>
            <Position>
              <LatitudeDegrees>42.92923313565552234649658203125</LatitudeDegrees>
              <LongitudeDegrees>-1.63209778256714344024658203125</LongitudeDegrees>
            </Position>
            <AltitudeMeters>503.20001220703125</AltitudeMeters>
            <DistanceMeters>81012.804430003</DistanceMeters>
          </Trackpoint>
          <Trackpoint>
            <Time>2018-08-26T09:59:22.000Z</Time>
            <Position>
              <LatitudeDegrees>42.92919122613966464996337890625</LatitudeDegrees>
              <LongitudeDegrees>-1.63199284113943576812744140625</LongitudeDegrees>
            </Position>
            <AltitudeMeters>503.20001220703125</AltitudeMeters>
            <DistanceMeters>81022.546406365</DistanceMeters>
          </Trackpoint>
          <Trackpoint>
            <Time>2018-08-26T09:59:23.000Z</Time>
            <Position>
              <LatitudeDegrees>42.92914579622447490692138671875</LatitudeDegrees>
              <LongitudeDegrees>-1.631889827549457550048828125</LongitudeDegrees>
            </Position>
            <AltitudeMeters>503.20001220703125</AltitudeMeters>
            <DistanceMeters>81032.346604988</DistanceMeters>
          </Trackpoint>
          <Trackpoint>
            <Time>2018-08-26T09:59:24.000Z</Time>
            <Position>
              <LatitudeDegrees>42.9290970973670482635498046875</LatitudeDegrees>
              <LongitudeDegrees>-1.6317914240062236785888671875</LongitudeDegrees>
            </Position>
            <AltitudeMeters>503.20001220703125</AltitudeMeters>
            <DistanceMeters>81042.026278184</DistanceMeters>
          </Trackpoint>
          <Trackpoint>
            <Time>2018-08-26T09:59:25.000Z</Time>
            <Position>
              <LatitudeDegrees>42.92904563248157501220703125</LatitudeDegrees>
              <LongitudeDegrees>-1.6316988877952098846435546875</LongitudeDegrees>
            </Position>
            <AltitudeMeters>503.20001220703125</AltitudeMeters>
            <DistanceMeters>81051.496585425</DistanceMeters>
          </Trackpoint>
          <Trackpoint>
            <Time>2018-08-26T09:59:26.000Z</Time>
            <Position>
              <LatitudeDegrees>42.928992323577404022216796875</LatitudeDegrees>
              <LongitudeDegrees>-1.63161029107868671417236328125</LongitudeDegrees>
            </Position>
            <AltitudeMeters>503.20001220703125</AltitudeMeters>
            <DistanceMeters>81060.842113734</DistanceMeters>
          </Trackpoint>
          <Trackpoint>
            <Time>2018-08-26T09:59:27.000Z</Time>
            <Position>
              <LatitudeDegrees>42.92893809266388416290283203125</LatitudeDegrees>
              <LongitudeDegrees>-1.631519682705402374267578125</LongitudeDegrees>
            </Position>
            <AltitudeMeters>503.20001220703125</AltitudeMeters>
            <DistanceMeters>81070.378933431</DistanceMeters>
          </Trackpoint>
          <Trackpoint>
            <Time>2018-08-26T09:59:28.000Z</Time>
            <Position>
              <LatitudeDegrees>42.92888377793133258819580078125</LatitudeDegrees>
              <LongitudeDegrees>-1.6314299963414669036865234375</LongitudeDegrees>
            </Position>
            <AltitudeMeters>503.20001220703125</AltitudeMeters>
            <DistanceMeters>81079.864008635</DistanceMeters>
          </Trackpoint>
          <Trackpoint>
            <Time>2018-08-26T09:59:29.000Z</Time>
            <Position>
              <LatitudeDegrees>42.92882979847490787506103515625</LatitudeDegrees>
              <LongitudeDegrees>-1.63134123198688030242919921875</LongitudeDegrees>
            </Position>
            <AltitudeMeters>503.20001220703125</AltitudeMeters>
            <DistanceMeters>81089.267332969</DistanceMeters>
          </Trackpoint>
          <Trackpoint>
            <Time>2018-08-26T09:59:30.000Z</Time>
            <Position>
              <LatitudeDegrees>42.92877531610429286956787109375</LatitudeDegrees>
              <LongitudeDegrees>-1.6312536410987377166748046875</LongitudeDegrees>
            </Position>
            <AltitudeMeters>503.20001220703125</AltitudeMeters>
            <DistanceMeters>81098.633612521</DistanceMeters>
          </Trackpoint>
          <Trackpoint>
            <Time>2018-08-26T09:59:31.000Z</Time>
            <Position>
              <LatitudeDegrees>42.9287212528288364410400390625</LatitudeDegrees>
              <LongitudeDegrees>-1.63116722367703914642333984375</LongitudeDegrees>
            </Position>
            <AltitudeMeters>503.20001220703125</AltitudeMeters>
            <DistanceMeters>81107.896645846</DistanceMeters>
          </Trackpoint>
          <Trackpoint>
            <Time>2018-08-26T09:59:32.000Z</Time>
            <Position>
              <LatitudeDegrees>42.928667776286602020263671875</LatitudeDegrees>
              <LongitudeDegrees>-1.6310819797217845916748046875</LongitudeDegrees>
            </Position>
            <AltitudeMeters>503</AltitudeMeters>
            <DistanceMeters>81117.044910626</DistanceMeters>
          </Trackpoint>
          <Trackpoint>
            <Time>2018-08-26T09:59:33.000Z</Time>
            <Position>
              <LatitudeDegrees>42.92861522175371646881103515625</LatitudeDegrees>
              <LongitudeDegrees>-1.6309968195855617523193359375</LongitudeDegrees>
            </Position>
            <AltitudeMeters>503</AltitudeMeters>
            <DistanceMeters>81126.121827364</DistanceMeters>
          </Trackpoint>
          <Trackpoint>
            <Time>2018-08-26T09:59:34.000Z</Time>
            <Position>
              <LatitudeDegrees>42.928563840687274932861328125</LatitudeDegrees>
              <LongitudeDegrees>-1.63091249763965606689453125</LongitudeDegrees>
            </Position>
            <AltitudeMeters>502.79998779296875</AltitudeMeters>
            <DistanceMeters>81135.061917218</DistanceMeters>
          </Trackpoint>
          <Trackpoint>
            <Time>2018-08-26T09:59:35.000Z</Time>
            <Position>
              <LatitudeDegrees>42.92851313017308712005615234375</LatitudeDegrees>
              <LongitudeDegrees>-1.63082893006503582000732421875</LongitudeDegrees>
            </Position>
            <AltitudeMeters>502.79998779296875</AltitudeMeters>
            <DistanceMeters>81143.907572219</DistanceMeters>
          </Trackpoint>
          <Trackpoint>
            <Time>2018-08-26T09:59:36.000Z</Time>
            <Position>
              <LatitudeDegrees>42.92846317403018474578857421875</LatitudeDegrees>
              <LongitudeDegrees>-1.6307468712329864501953125</LongitudeDegrees>
            </Position>
            <AltitudeMeters>502.79998779296875</AltitudeMeters>
            <DistanceMeters>81152.604982774</DistanceMeters>
          </Trackpoint>
          <Trackpoint>
            <Time>2018-08-26T09:59:37.000Z</Time>
            <Position>
              <LatitudeDegrees>42.92841305024921894073486328125</LatitudeDegrees>
              <LongitudeDegrees>-1.63066707551479339599609375</LongitudeDegrees>
            </Position>
            <AltitudeMeters>502.79998779296875</AltitudeMeters>
            <DistanceMeters>81161.173210216</DistanceMeters>
          </Trackpoint>
          <Trackpoint>
            <Time>2018-08-26T09:59:38.000Z</Time>
            <Position>
              <LatitudeDegrees>42.92836192063987255096435546875</LatitudeDegrees>
              <LongitudeDegrees>-1.63058392703533172607421875</LongitudeDegrees>
            </Position>
            <AltitudeMeters>502.600006103515625</AltitudeMeters>
            <DistanceMeters>81170.021927233</DistanceMeters>
          </Trackpoint>
          <Trackpoint>
            <Time>2018-08-26T09:59:39.000Z</Time>
            <Position>
              <LatitudeDegrees>42.928310371935367584228515625</LatitudeDegrees>
              <LongitudeDegrees>-1.63049968890845775604248046875</LongitudeDegrees>
            </Position>
            <AltitudeMeters>502.20001220703125</AltitudeMeters>
            <DistanceMeters>81178.968580104</DistanceMeters>
          </Trackpoint>
          <Trackpoint>
            <Time>2018-08-26T09:59:40.000Z</Time>
            <Position>
              <LatitudeDegrees>42.92825915850698947906494140625</LatitudeDegrees>
              <LongitudeDegrees>-1.63041871972382068634033203125</LongitudeDegrees>
            </Position>
            <AltitudeMeters>502.20001220703125</AltitudeMeters>
            <DistanceMeters>81187.688284437</DistanceMeters>
          </Trackpoint>
          <Trackpoint>
            <Time>2018-08-26T09:59:41.000Z</Time>
            <Position>
              <LatitudeDegrees>42.92820819653570652008056640625</LatitudeDegrees>
              <LongitudeDegrees>-1.63033540360629558563232421875</LongitudeDegrees>
            </Position>
            <AltitudeMeters>502</AltitudeMeters>
            <DistanceMeters>81196.5359809</DistanceMeters>
          </Trackpoint>
          <Trackpoint>
            <Time>2018-08-26T09:59:42.000Z</Time>
            <Position>
              <LatitudeDegrees>42.92815773747861385345458984375</LatitudeDegrees>
              <LongitudeDegrees>-1.63025191985070705413818359375</LongitudeDegrees>
            </Position>
            <AltitudeMeters>502</AltitudeMeters>
            <DistanceMeters>81205.358636903</DistanceMeters>
          </Trackpoint>
          <Trackpoint>
            <Time>2018-08-26T09:59:43.000Z</Time>
            <Position>
              <LatitudeDegrees>42.92810694314539432525634765625</LatitudeDegrees>
              <LongitudeDegrees>-1.63017011247575283050537109375</LongitudeDegrees>
            </Position>
            <AltitudeMeters>502</AltitudeMeters>
            <DistanceMeters>81214.099545139</DistanceMeters>
          </Trackpoint>
          <Trackpoint>
            <Time>2018-08-26T09:59:44.000Z</Time>
            <Position>
              <LatitudeDegrees>42.9280560649931430816650390625</LatitudeDegrees>
              <LongitudeDegrees>-1.630089394748210906982421875</LongitudeDegrees>
            </Position>
            <AltitudeMeters>502</AltitudeMeters>
            <DistanceMeters>81222.779287518</DistanceMeters>
          </Trackpoint>
          <Trackpoint>
            <Time>2018-08-26T09:59:45.000Z</Time>
            <Position>
              <LatitudeDegrees>42.92800602503120899200439453125</LatitudeDegrees>
              <LongitudeDegrees>-1.63000767119228839874267578125</LongitudeDegrees>
            </Position>
            <AltitudeMeters>502</AltitudeMeters>
            <DistanceMeters>81231.461630414</DistanceMeters>
          </Trackpoint>
          <Trackpoint>
            <Time>2018-08-26T09:59:46.000Z</Time>
            <Position>
              <LatitudeDegrees>42.9279568232595920562744140625</LatitudeDegrees>
              <LongitudeDegrees>-1.6299246065318584442138671875</LongitudeDegrees>
            </Position>
            <AltitudeMeters>501.79998779296875</AltitudeMeters>
            <DistanceMeters>81240.168380195</DistanceMeters>
          </Trackpoint>
          <Trackpoint>
            <Time>2018-08-26T09:59:47.000Z</Time>
            <Position>
              <LatitudeDegrees>42.92790678329765796661376953125</LatitudeDegrees>
              <LongitudeDegrees>-1.6298434697091579437255859375</LongitudeDegrees>
            </Position>
            <AltitudeMeters>501.79998779296875</AltitudeMeters>
            <DistanceMeters>81248.814244686</DistanceMeters>
          </Trackpoint>
          <Trackpoint>
            <Time>2018-08-26T09:59:48.000Z</Time>
            <Position>
              <LatitudeDegrees>42.9278559051454067230224609375</LatitudeDegrees>
              <LongitudeDegrees>-1.62976509891450405120849609375</LongitudeDegrees>
            </Position>
            <AltitudeMeters>501.79998779296875</AltitudeMeters>
            <DistanceMeters>81257.349738623</DistanceMeters>
          </Trackpoint>
          <Trackpoint>
            <Time>2018-08-26T09:59:49.000Z</Time>
            <Position>
              <LatitudeDegrees>42.927805446088314056396484375</LatitudeDegrees>
              <LongitudeDegrees>-1.6296847164630889892578125</LongitudeDegrees>
            </Position>
            <AltitudeMeters>501.79998779296875</AltitudeMeters>
            <DistanceMeters>81265.978352665</DistanceMeters>
          </Trackpoint>
          <Trackpoint>
            <Time>2018-08-26T09:59:50.000Z</Time>
            <Position>
              <LatitudeDegrees>42.9277549870312213897705078125</LatitudeDegrees>
              <LongitudeDegrees>-1.629602573812007904052734375</LongitudeDegrees>
            </Position>
            <AltitudeMeters>501.79998779296875</AltitudeMeters>
            <DistanceMeters>81274.716677814</DistanceMeters>
          </Trackpoint>
          <Trackpoint>
            <Time>2018-08-26T09:59:51.000Z</Time>
            <Position>
              <LatitudeDegrees>42.9277036897838115692138671875</LatitudeDegrees>
              <LongitudeDegrees>-1.62952286191284656524658203125</LongitudeDegrees>
            </Position>
            <AltitudeMeters>501.79998779296875</AltitudeMeters>
            <DistanceMeters>81283.365675054</DistanceMeters>
          </Trackpoint>
          <Trackpoint>
            <Time>2018-08-26T09:59:52.000Z</Time>
            <Position>
              <LatitudeDegrees>42.927651219069957733154296875</LatitudeDegrees>
              <LongitudeDegrees>-1.62944457493722438812255859375</LongitudeDegrees>
            </Position>
            <AltitudeMeters>502</AltitudeMeters>
            <DistanceMeters>81292.015194309</DistanceMeters>
          </Trackpoint>
          <Trackpoint>
            <Time>2018-08-26T09:59:53.000Z</Time>
            <Position>
              <LatitudeDegrees>42.92759723961353302001953125</LatitudeDegrees>
              <LongitudeDegrees>-1.6293677128851413726806640625</LongitudeDegrees>
            </Position>
            <AltitudeMeters>502</AltitudeMeters>
            <DistanceMeters>81300.694416491</DistanceMeters>
          </Trackpoint>
          <Trackpoint>
            <Time>2018-08-26T09:59:54.000Z</Time>
            <Position>
              <LatitudeDegrees>42.9275415837764739990234375</LatitudeDegrees>
              <LongitudeDegrees>-1.6292905993759632110595703125</LongitudeDegrees>
            </Position>
            <AltitudeMeters>502</AltitudeMeters>
            <DistanceMeters>81309.519119277</DistanceMeters>
          </Trackpoint>
          <Trackpoint>
            <Time>2018-08-26T09:59:55.000Z</Time>
            <Position>
              <LatitudeDegrees>42.9274844191968441009521484375</LatitudeDegrees>
              <LongitudeDegrees>-1.62921558134257793426513671875</LongitudeDegrees>
            </Position>
            <AltitudeMeters>502</AltitudeMeters>
            <DistanceMeters>81318.343310411</DistanceMeters>
          </Trackpoint>
          <Trackpoint>
            <Time>2018-08-26T09:59:56.000Z</Time>
            <Position>
              <LatitudeDegrees>42.92742482386529445648193359375</LatitudeDegrees>
              <LongitudeDegrees>-1.62914467044174671173095703125</LongitudeDegrees>
            </Position>
            <AltitudeMeters>502</AltitudeMeters>
            <DistanceMeters>81327.141367883</DistanceMeters>
          </Trackpoint>
          <Trackpoint>
            <Time>2018-08-26T09:59:57.000Z</Time>
            <Position>
              <LatitudeDegrees>42.92736430652439594268798828125</LatitudeDegrees>
              <LongitudeDegrees>-1.62907090969383716583251953125</LongitudeDegrees>
            </Position>
            <AltitudeMeters>502</AltitudeMeters>
            <DistanceMeters>81336.170406045</DistanceMeters>
          </Trackpoint>
          <Trackpoint>
            <Time>2018-08-26T09:59:58.000Z</Time>
            <Position>
              <LatitudeDegrees>42.92730353772640228271484375</LatitudeDegrees>
              <LongitudeDegrees>-1.62900033406913280487060546875</LongitudeDegrees>
            </Position>
            <AltitudeMeters>502</AltitudeMeters>
            <DistanceMeters>81345.049176645</DistanceMeters>
          </Trackpoint>
          <Trackpoint>
            <Time>2018-08-26T09:59:59.000Z</Time>
            <Position>
              <LatitudeDegrees>42.927241511642932891845703125</LatitudeDegrees>
              <LongitudeDegrees>-1.62893210537731647491455078125</LongitudeDegrees>
            </Position>
            <AltitudeMeters>502</AltitudeMeters>
            <DistanceMeters>81353.913697231</DistanceMeters>
          </Trackpoint>
          <Trackpoint>
            <Time>2018-08-26T10:00:00.000Z</Time>
            <Position>
              <LatitudeDegrees>42.92717772535979747772216796875</LatitudeDegrees>
              <LongitudeDegrees>-1.62886672653257846832275390625</LongitudeDegrees>
            </Position>
            <AltitudeMeters>502</AltitudeMeters>
            <DistanceMeters>81362.789924862</DistanceMeters>
          </Trackpoint>
          <Trackpoint>
            <Time>2018-08-26T10:00:01.000Z</Time>
            <Position>
              <LatitudeDegrees>42.92711444199085235595703125</LatitudeDegrees>
              <LongitudeDegrees>-1.62880268879234790802001953125</LongitudeDegrees>
            </Position>
            <AltitudeMeters>502</AltitudeMeters>
            <DistanceMeters>81371.556107072</DistanceMeters>
          </Trackpoint>
          <Trackpoint>
            <Time>2018-08-26T10:00:02.000Z</Time>
            <Position>
              <LatitudeDegrees>42.92705182917416095733642578125</LatitudeDegrees>
              <LongitudeDegrees>-1.6287410818040370941162109375</LongitudeDegrees>
            </Position>
            <AltitudeMeters>502</AltitudeMeters>
            <DistanceMeters>81380.145386702</DistanceMeters>
          </Trackpoint>
          <Trackpoint>
            <Time>2018-08-26T10:00:03.000Z</Time>
            <Position>
              <LatitudeDegrees>42.92698862962424755096435546875</LatitudeDegrees>
              <LongitudeDegrees>-1.6286842525005340576171875</LongitudeDegrees>
            </Position>
            <AltitudeMeters>502</AltitudeMeters>
            <DistanceMeters>81388.567992031</DistanceMeters>
          </Trackpoint>
          <Trackpoint>
            <Time>2018-08-26T10:00:04.000Z</Time>
            <Position>
              <LatitudeDegrees>42.92692601680755615234375</LatitudeDegrees>
              <LongitudeDegrees>-1.628630273044109344482421875</LongitudeDegrees>
            </Position>
            <AltitudeMeters>502.20001220703125</AltitudeMeters>
            <DistanceMeters>81396.809608075</DistanceMeters>
          </Trackpoint>
          <Trackpoint>
            <Time>2018-08-26T10:00:05.000Z</Time>
            <Position>
              <LatitudeDegrees>42.9268631525337696075439453125</LatitudeDegrees>
              <LongitudeDegrees>-1.62857763469219207763671875</LongitudeDegrees>
            </Position>
            <AltitudeMeters>502.20001220703125</AltitudeMeters>
            <DistanceMeters>81405.017188125</DistanceMeters>
          </Trackpoint>
          <Trackpoint>
            <Time>2018-08-26T10:00:06.000Z</Time>
            <Position>
              <LatitudeDegrees>42.92679953388869762420654296875</LatitudeDegrees>
              <LongitudeDegrees>-1.62852759473025798797607421875</LongitudeDegrees>
            </Position>
            <AltitudeMeters>502.20001220703125</AltitudeMeters>
            <DistanceMeters>81413.188380524</DistanceMeters>
          </Trackpoint>
          <Trackpoint>
            <Time>2018-08-26T10:00:07.000Z</Time>
            <Position>
              <LatitudeDegrees>42.9267360828816890716552734375</LatitudeDegrees>
              <LongitudeDegrees>-1.62847881205379962921142578125</LongitudeDegrees>
            </Position>
            <AltitudeMeters>502.20001220703125</AltitudeMeters>
            <DistanceMeters>81421.292995015</DistanceMeters>
          </Trackpoint>
          <Trackpoint>
            <Time>2018-08-26T10:00:08.000Z</Time>
            <Position>
              <LatitudeDegrees>42.92667388916015625</LatitudeDegrees>
              <LongitudeDegrees>-1.62843287922441959381103515625</LongitudeDegrees>
            </Position>
            <AltitudeMeters>502.20001220703125</AltitudeMeters>
            <DistanceMeters>81429.162446347</DistanceMeters>
          </Trackpoint>
          <Trackpoint>
            <Time>2018-08-26T10:00:09.000Z</Time>
            <Position>
              <LatitudeDegrees>42.9266116954386234283447265625</LatitudeDegrees>
              <LongitudeDegrees>-1.6283893771469593048095703125</LongitudeDegrees>
            </Position>
            <AltitudeMeters>502.399993896484375</AltitudeMeters>
            <DistanceMeters>81436.939557123</DistanceMeters>
          </Trackpoint>
          <Trackpoint>
            <Time>2018-08-26T10:00:10.000Z</Time>
            <Position>
              <LatitudeDegrees>42.9265489988029003143310546875</LatitudeDegrees>
              <LongitudeDegrees>-1.62835006602108478546142578125</LongitudeDegrees>
            </Position>
            <AltitudeMeters>502.600006103515625</AltitudeMeters>
            <DistanceMeters>81444.618515332</DistanceMeters>
          </Trackpoint>
          <Trackpoint>
            <Time>2018-08-26T10:00:11.000Z</Time>
            <Position>
              <LatitudeDegrees>42.92648672126233577728271484375</LatitudeDegrees>
              <LongitudeDegrees>-1.6283122636377811431884765625</LongitudeDegrees>
            </Position>
            <AltitudeMeters>502.600006103515625</AltitudeMeters>
            <DistanceMeters>81452.204004578</DistanceMeters>
          </Trackpoint>
          <Trackpoint>
            <Time>2018-08-26T10:00:12.000Z</Time>
            <Position>
              <LatitudeDegrees>42.9264249466359615325927734375</LatitudeDegrees>
              <LongitudeDegrees>-1.628271527588367462158203125</LongitudeDegrees>
            </Position>
            <AltitudeMeters>502.79998779296875</AltitudeMeters>
            <DistanceMeters>81459.839328639</DistanceMeters>
          </Trackpoint>
          <Trackpoint>
            <Time>2018-08-26T10:00:13.000Z</Time>
            <Position>
              <LatitudeDegrees>42.92636350728571414947509765625</LatitudeDegrees>
              <LongitudeDegrees>-1.628231965005397796630859375</LongitudeDegrees>
            </Position>
            <AltitudeMeters>503</AltitudeMeters>
            <DistanceMeters>81467.39918008</DistanceMeters>
          </Trackpoint>
          <Trackpoint>
            <Time>2018-08-26T10:00:14.000Z</Time>
            <Position>
              <LatitudeDegrees>42.926302738487720489501953125</LatitudeDegrees>
              <LongitudeDegrees>-1.6281925700604915618896484375</LongitudeDegrees>
            </Position>
            <AltitudeMeters>503.20001220703125</AltitudeMeters>
            <DistanceMeters>81474.886416858</DistanceMeters>
          </Trackpoint>
          <Trackpoint>
            <Time>2018-08-26T10:00:15.000Z</Time>
            <Position>
              <LatitudeDegrees>42.92624272406101226806640625</LatitudeDegrees>
              <LongitudeDegrees>-1.62815384566783905029296875</LongitudeDegrees>
            </Position>
            <AltitudeMeters>503.399993896484375</AltitudeMeters>
            <DistanceMeters>81482.274094573</DistanceMeters>
          </Trackpoint>
          <Trackpoint>
            <Time>2018-08-26T10:00:16.000Z</Time>
            <Position>
              <LatitudeDegrees>42.92618237435817718505859375</LatitudeDegrees>
              <LongitudeDegrees>-1.62811654619872570037841796875</LongitudeDegrees>
            </Position>
            <AltitudeMeters>503.600006103515625</AltitudeMeters>
            <DistanceMeters>81489.647089907</DistanceMeters>
          </Trackpoint>
          <Trackpoint>
            <Time>2018-08-26T10:00:17.000Z</Time>
            <Position>
              <LatitudeDegrees>42.92612210847437381744384765625</LatitudeDegrees>
              <LongitudeDegrees>-1.62808008491992950439453125</LongitudeDegrees>
            </Position>
            <AltitudeMeters>504</AltitudeMeters>
            <DistanceMeters>81496.983250729</DistanceMeters>
          </Trackpoint>
          <Trackpoint>
            <Time>2018-08-26T10:00:18.000Z</Time>
            <Position>
              <LatitudeDegrees>42.92606167495250701904296875</LatitudeDegrees>
              <LongitudeDegrees>-1.6280443780124187469482421875</LongitudeDegrees>
            </Position>
            <AltitudeMeters>504.20001220703125</AltitudeMeters>
            <DistanceMeters>81504.312022433</DistanceMeters>
          </Trackpoint>
          <Trackpoint>
            <Time>2018-08-26T10:00:19.000Z</Time>
            <Position>
              <LatitudeDegrees>42.926001660525798797607421875</LatitudeDegrees>
              <LongitudeDegrees>-1.62800624035298824310302734375</LongitudeDegrees>
            </Position>
            <AltitudeMeters>504.399993896484375</AltitudeMeters>
            <DistanceMeters>81511.680117138</DistanceMeters>
          </Trackpoint>
          <Trackpoint>
            <Time>2018-08-26T10:00:20.000Z</Time>
            <Position>
              <LatitudeDegrees>42.9259414784610271453857421875</LatitudeDegrees>
              <LongitudeDegrees>-1.6279652528464794158935546875</LongitudeDegrees>
            </Position>
            <AltitudeMeters>504.79998779296875</AltitudeMeters>
            <DistanceMeters>81519.165544603</DistanceMeters>
          </Trackpoint>
          <Trackpoint>
            <Time>2018-08-26T10:00:21.000Z</Time>
            <Position>
              <LatitudeDegrees>42.92588221840560436248779296875</LatitudeDegrees>
              <LongitudeDegrees>-1.6279290430247783660888671875</LongitudeDegrees>
            </Position>
            <AltitudeMeters>505</AltitudeMeters>
            <DistanceMeters>81526.391324976</DistanceMeters>
          </Trackpoint>
          <Trackpoint>
            <Time>2018-08-26T10:00:22.000Z</Time>
            <Position>
              <LatitudeDegrees>42.92582304216921329498291015625</LatitudeDegrees>
              <LongitudeDegrees>-1.62788671441376209259033203125</LongitudeDegrees>
            </Position>
            <AltitudeMeters>505.20001220703125</AltitudeMeters>
            <DistanceMeters>81533.826520198</DistanceMeters>
          </Trackpoint>
          <Trackpoint>
            <Time>2018-08-26T10:00:23.000Z</Time>
            <Position>
              <LatitudeDegrees>42.9257641173899173736572265625</LatitudeDegrees>
              <LongitudeDegrees>-1.62784581072628498077392578125</LongitudeDegrees>
            </Position>
            <AltitudeMeters>505.399993896484375</AltitudeMeters>
            <DistanceMeters>81541.183576553</DistanceMeters>
          </Trackpoint>
          <Trackpoint>
            <Time>2018-08-26T10:00:24.000Z</Time>
            <Position>
              <LatitudeDegrees>42.92570452205836772918701171875</LatitudeDegrees>
              <LongitudeDegrees>-1.627806834876537322998046875</LongitudeDegrees>
            </Position>
            <AltitudeMeters>505.600006103515625</AltitudeMeters>
            <DistanceMeters>81548.536949775</DistanceMeters>
          </Trackpoint>
          <Trackpoint>
            <Time>2018-08-26T10:00:25.000Z</Time>
            <Position>
              <LatitudeDegrees>42.92564333416521549224853515625</LatitudeDegrees>
              <LongitudeDegrees>-1.6277694515883922576904296875</LongitudeDegrees>
            </Position>
            <AltitudeMeters>505.79998779296875</AltitudeMeters>
            <DistanceMeters>81555.997605993</DistanceMeters>
          </Trackpoint>
          <Trackpoint>
            <Time>2018-08-26T10:00:26.000Z</Time>
            <Position>
              <LatitudeDegrees>42.925581224262714385986328125</LatitudeDegrees>
              <LongitudeDegrees>-1.62773382849991321563720703125</LongitudeDegrees>
            </Position>
            <AltitudeMeters>506</AltitudeMeters>
            <DistanceMeters>81563.495689477</DistanceMeters>
          </Trackpoint>
          <Trackpoint>
            <Time>2018-08-26T10:00:27.000Z</Time>
            <Position>
              <LatitudeDegrees>42.92552120983600616455078125</LatitudeDegrees>
              <LongitudeDegrees>-1.6276990436017513275146484375</LongitudeDegrees>
            </Position>
            <AltitudeMeters>506.600006103515625</AltitudeMeters>
            <DistanceMeters>81570.752645163</DistanceMeters>
          </Trackpoint>
          <Trackpoint>
            <Time>2018-08-26T10:00:28.000Z</Time>
            <Position>
              <LatitudeDegrees>42.92546161450445652008056640625</LatitudeDegrees>
              <LongitudeDegrees>-1.627661325037479400634765625</LongitudeDegrees>
            </Position>
            <AltitudeMeters>506.79998779296875</AltitudeMeters>
            <DistanceMeters>81578.063529</DistanceMeters>
          </Trackpoint>
          <Trackpoint>
            <Time>2018-08-26T10:00:29.000Z</Time>
            <Position>
              <LatitudeDegrees>42.9254023544490337371826171875</LatitudeDegrees>
              <LongitudeDegrees>-1.6276222653687000274658203125</LongitudeDegrees>
            </Position>
            <AltitudeMeters>507</AltitudeMeters>
            <DistanceMeters>81585.387370483</DistanceMeters>
          </Trackpoint>
          <Trackpoint>
            <Time>2018-08-26T10:00:30.000Z</Time>
            <Position>
              <LatitudeDegrees>42.92534225620329380035400390625</LatitudeDegrees>
              <LongitudeDegrees>-1.62758211605250835418701171875</LongitudeDegrees>
            </Position>
            <AltitudeMeters>507.399993896484375</AltitudeMeters>
            <DistanceMeters>81592.833488221</DistanceMeters>
          </Trackpoint>
          <Trackpoint>
            <Time>2018-08-26T10:00:31.000Z</Time>
            <Position>
              <LatitudeDegrees>42.92528324760496616363525390625</LatitudeDegrees>
              <LongitudeDegrees>-1.627542637288570404052734375</LongitudeDegrees>
            </Position>
            <AltitudeMeters>507.600006103515625</AltitudeMeters>
            <DistanceMeters>81600.147459294</DistanceMeters>
          </Trackpoint>
          <Trackpoint>
            <Time>2018-08-26T10:00:32.000Z</Time>
            <Position>
              <LatitudeDegrees>42.9252249933779239654541015625</LatitudeDegrees>
              <LongitudeDegrees>-1.627505756914615631103515625</LongitudeDegrees>
            </Position>
            <AltitudeMeters>507.79998779296875</AltitudeMeters>
            <DistanceMeters>81607.294074742</DistanceMeters>
          </Trackpoint>
          <Trackpoint>
            <Time>2018-08-26T10:00:33.000Z</Time>
            <Position>
              <LatitudeDegrees>42.9251656495034694671630859375</LatitudeDegrees>
              <LongitudeDegrees>-1.627471558749675750732421875</LongitudeDegrees>
            </Position>
            <AltitudeMeters>508</AltitudeMeters>
            <DistanceMeters>81614.462768141</DistanceMeters>
          </Trackpoint>
          <Trackpoint>
            <Time>2018-08-26T10:00:34.000Z</Time>
            <Position>
              <LatitudeDegrees>42.925104796886444091796875</LatitudeDegrees>
              <LongitudeDegrees>-1.62743794731795787811279296875</LongitudeDegrees>
            </Position>
            <AltitudeMeters>508.20001220703125</AltitudeMeters>
            <DistanceMeters>81621.768709686</DistanceMeters>
          </Trackpoint>
          <Trackpoint>
            <Time>2018-08-26T10:00:35.000Z</Time>
            <Position>
              <LatitudeDegrees>42.92504436336457729339599609375</LatitudeDegrees>
              <LongitudeDegrees>-1.627406515181064605712890625</LongitudeDegrees>
            </Position>
            <AltitudeMeters>508.399993896484375</AltitudeMeters>
            <DistanceMeters>81628.966944097</DistanceMeters>
          </Trackpoint>
          <Trackpoint>
            <Time>2018-08-26T10:00:36.000Z</Time>
            <Position>
              <LatitudeDegrees>42.92498434893786907196044921875</LatitudeDegrees>
              <LongitudeDegrees>-1.6273755021393299102783203125</LongitudeDegrees>
            </Position>
            <AltitudeMeters>508.399993896484375</AltitudeMeters>
            <DistanceMeters>81636.108503573</DistanceMeters>
          </Trackpoint>
          <Trackpoint>
            <Time>2018-08-26T10:00:37.000Z</Time>
            <Position>
              <LatitudeDegrees>42.9249235801398754119873046875</LatitudeDegrees>
              <LongitudeDegrees>-1.6273443214595317840576171875</LongitudeDegrees>
            </Position>
            <AltitudeMeters>508.600006103515625</AltitudeMeters>
            <DistanceMeters>81643.334283946</DistanceMeters>
          </Trackpoint>
          <Trackpoint>
            <Time>2018-08-26T10:00:38.000Z</Time>
            <Position>
              <LatitudeDegrees>42.92486197315156459808349609375</LatitudeDegrees>
              <LongitudeDegrees>-1.62731339223682880401611328125</LongitudeDegrees>
            </Position>
            <AltitudeMeters>509</AltitudeMeters>
            <DistanceMeters>81650.63960747</DistanceMeters>
          </Trackpoint>
          <Trackpoint>
            <Time>2018-08-26T10:00:39.000Z</Time>
            <Position>
              <LatitudeDegrees>42.92480128817260265350341796875</LatitudeDegrees>
              <LongitudeDegrees>-1.627281121909618377685546875</LongitudeDegrees>
            </Position>
            <AltitudeMeters>509.20001220703125</AltitudeMeters>
            <DistanceMeters>81657.887847584</DistanceMeters>
          </Trackpoint>
          <Trackpoint>
            <Time>2018-08-26T10:00:40.000Z</Time>
            <Position>
              <LatitudeDegrees>42.92473993264138698577880859375</LatitudeDegrees>
              <LongitudeDegrees>-1.6272484324872493743896484375</LongitudeDegrees>
            </Position>
            <AltitudeMeters>509.399993896484375</AltitudeMeters>
            <DistanceMeters>81665.217851325</DistanceMeters>
          </Trackpoint>
          <Trackpoint>
            <Time>2018-08-26T10:00:41.000Z</Time>
            <Position>
              <LatitudeDegrees>42.9246768169105052947998046875</LatitudeDegrees>
              <LongitudeDegrees>-1.62722085602581501007080078125</LongitudeDegrees>
            </Position>
            <AltitudeMeters>509.399993896484375</AltitudeMeters>
            <DistanceMeters>81672.593295752</DistanceMeters>
          </Trackpoint>
          <Trackpoint>
            <Time>2018-08-26T10:00:42.000Z</Time>
            <Position>
              <LatitudeDegrees>42.92461135424673557281494140625</LatitudeDegrees>
              <LongitudeDegrees>-1.6271978057920932769775390625</LongitudeDegrees>
            </Position>
            <AltitudeMeters>509.600006103515625</AltitudeMeters>
            <DistanceMeters>81680.117827585</DistanceMeters>
          </Trackpoint>
          <Trackpoint>
            <Time>2018-08-26T10:00:43.000Z</Time>
            <Position>
              <LatitudeDegrees>42.9245440475642681121826171875</LatitudeDegrees>
              <LongitudeDegrees>-1.6271783597767353057861328125</LongitudeDegrees>
            </Position>
            <AltitudeMeters>509.600006103515625</AltitudeMeters>
            <DistanceMeters>81687.77441013</DistanceMeters>
          </Trackpoint>
          <Trackpoint>
            <Time>2018-08-26T10:00:44.000Z</Time>
            <Position>
              <LatitudeDegrees>42.92447640560567378997802734375</LatitudeDegrees>
              <LongitudeDegrees>-1.62715950049459934234619140625</LongitudeDegrees>
            </Position>
            <AltitudeMeters>509.79998779296875</AltitudeMeters>
            <DistanceMeters>81695.458070702</DistanceMeters>
          </Trackpoint>
          <Trackpoint>
            <Time>2018-08-26T10:00:45.000Z</Time>
            <Position>
              <LatitudeDegrees>42.92440901510417461395263671875</LatitudeDegrees>
              <LongitudeDegrees>-1.6271411441266536712646484375</LongitudeDegrees>
            </Position>
            <AltitudeMeters>509.79998779296875</AltitudeMeters>
            <DistanceMeters>81703.106393081</DistanceMeters>
          </Trackpoint>
          <Trackpoint>
            <Time>2018-08-26T10:00:46.000Z</Time>
            <Position>
              <LatitudeDegrees>42.9243412055075168609619140625</LatitudeDegrees>
              <LongitudeDegrees>-1.62711926735937595367431640625</LongitudeDegrees>
            </Position>
            <AltitudeMeters>510</AltitudeMeters>
            <DistanceMeters>81710.861411399</DistanceMeters>
          </Trackpoint>
          <Trackpoint>
            <Time>2018-08-26T10:00:47.000Z</Time>
            <Position>
              <LatitudeDegrees>42.92427356354892253875732421875</LatitudeDegrees>
              <LongitudeDegrees>-1.62709680385887622833251953125</LongitudeDegrees>
            </Position>
            <AltitudeMeters>510.20001220703125</AltitudeMeters>
            <DistanceMeters>81718.609440064</DistanceMeters>
          </Trackpoint>
          <Trackpoint>
            <Time>2018-08-26T10:00:48.000Z</Time>
            <Position>
              <LatitudeDegrees>42.92420583777129650115966796875</LatitudeDegrees>
              <LongitudeDegrees>-1.6270750947296619415283203125</LongitudeDegrees>
            </Position>
            <AltitudeMeters>510.399993896484375</AltitudeMeters>
            <DistanceMeters>81726.352805456</DistanceMeters>
          </Trackpoint>
          <Trackpoint>
            <Time>2018-08-26T10:00:49.000Z</Time>
            <Position>
              <LatitudeDegrees>42.92413744144141674041748046875</LatitudeDegrees>
              <LongitudeDegrees>-1.62705372087657451629638671875</LongitudeDegrees>
            </Position>
            <AltitudeMeters>510.399993896484375</AltitudeMeters>
            <DistanceMeters>81734.162359624</DistanceMeters>
          </Trackpoint>
          <Trackpoint>
            <Time>2018-08-26T10:00:50.000Z</Time>
            <Position>
              <LatitudeDegrees>42.92406870983541011810302734375</LatitudeDegrees>
              <LongitudeDegrees>-1.62703108973801136016845703125</LongitudeDegrees>
            </Position>
            <AltitudeMeters>510.399993896484375</AltitudeMeters>
            <DistanceMeters>81742.031810955</DistanceMeters>
          </Trackpoint>
          <Trackpoint>
            <Time>2018-08-26T10:00:51.000Z</Time>
            <Position>
              <LatitudeDegrees>42.92399914003908634185791015625</LatitudeDegrees>
              <LongitudeDegrees>-1.62700720131397247314453125</LongitudeDegrees>
            </Position>
            <AltitudeMeters>510.399993896484375</AltitudeMeters>
            <DistanceMeters>81750.016317183</DistanceMeters>
          </Trackpoint>
          <Trackpoint>
            <Time>2018-08-26T10:00:52.000Z</Time>
            <Position>
              <LatitudeDegrees>42.92392889969050884246826171875</LatitudeDegrees>
              <LongitudeDegrees>-1.626982055604457855224609375</LongitudeDegrees>
            </Position>
            <AltitudeMeters>510.399993896484375</AltitudeMeters>
            <DistanceMeters>81758.098617164</DistanceMeters>
          </Trackpoint>
          <Trackpoint>
            <Time>2018-08-26T10:00:53.000Z</Time>
            <Position>
              <LatitudeDegrees>42.92385731823742389678955078125</LatitudeDegrees>
              <LongitudeDegrees>-1.62695632316172122955322265625</LongitudeDegrees>
            </Position>
            <AltitudeMeters>510.399993896484375</AltitudeMeters>
            <DistanceMeters>81766.337493582</DistanceMeters>
          </Trackpoint>
          <Trackpoint>
            <Time>2018-08-26T10:00:54.000Z</Time>
            <Position>
              <LatitudeDegrees>42.9237846471369266510009765625</LatitudeDegrees>
              <LongitudeDegrees>-1.62693100981414318084716796875</LongitudeDegrees>
            </Position>
            <AltitudeMeters>510.399993896484375</AltitudeMeters>
            <DistanceMeters>81774.68471287</DistanceMeters>
          </Trackpoint>
          <Trackpoint>
            <Time>2018-08-26T10:00:55.000Z</Time>
            <Position>
              <LatitudeDegrees>42.92371113784611225128173828125</LatitudeDegrees>
              <LongitudeDegrees>-1.62690653465688228607177734375</LongitudeDegrees>
            </Position>
            <AltitudeMeters>510.399993896484375</AltitudeMeters>
            <DistanceMeters>81783.106246008</DistanceMeters>
          </Trackpoint>
          <Trackpoint>
            <Time>2018-08-26T10:00:56.000Z</Time>
            <Position>
              <LatitudeDegrees>42.92363637126982212066650390625</LatitudeDegrees>
              <LongitudeDegrees>-1.6268818080425262451171875</LongitudeDegrees>
            </Position>
            <AltitudeMeters>510.399993896484375</AltitudeMeters>
            <DistanceMeters>81791.668147699</DistanceMeters>
          </Trackpoint>
          <Trackpoint>
            <Time>2018-08-26T10:00:57.000Z</Time>
            <Position>
              <LatitudeDegrees>42.9235603474080562591552734375</LatitudeDegrees>
              <LongitudeDegrees>-1.6268575005233287811279296875</LongitudeDegrees>
            </Position>
            <AltitudeMeters>510.399993896484375</AltitudeMeters>
            <DistanceMeters>81800.358807017</DistanceMeters>
          </Trackpoint>
          <Trackpoint>
            <Time>2018-08-26T10:00:58.000Z</Time>
            <Position>
              <LatitudeDegrees>42.92348348535597324371337890625</LatitudeDegrees>
              <LongitudeDegrees>-1.62683294154703617095947265625</LongitudeDegrees>
            </Position>
            <AltitudeMeters>510.399993896484375</AltitudeMeters>
            <DistanceMeters>81809.144539396</DistanceMeters>
          </Trackpoint>
          <Trackpoint>
            <Time>2018-08-26T10:00:59.000Z</Time>
            <Position>
              <LatitudeDegrees>42.9234051145613193511962890625</LatitudeDegrees>
              <LongitudeDegrees>-1.626809053122997283935546875</LongitudeDegrees>
            </Position>
            <AltitudeMeters>510.399993896484375</AltitudeMeters>
            <DistanceMeters>81818.08210373</DistanceMeters>
          </Trackpoint>
          <Trackpoint>
            <Time>2018-08-26T10:01:00.000Z</Time>
            <Position>
              <LatitudeDegrees>42.92332372628152370452880859375</LatitudeDegrees>
              <LongitudeDegrees>-1.62678818218410015106201171875</LongitudeDegrees>
            </Position>
            <AltitudeMeters>510.399993896484375</AltitudeMeters>
            <DistanceMeters>81827.299205183</DistanceMeters>
          </Trackpoint>
          <Trackpoint>
            <Time>2018-08-26T10:01:01.000Z</Time>
            <Position>
              <LatitudeDegrees>42.9232398234307765960693359375</LatitudeDegrees>
              <LongitudeDegrees>-1.62677024491131305694580078125</LongitudeDegrees>
            </Position>
            <AltitudeMeters>510.399993896484375</AltitudeMeters>
            <DistanceMeters>81836.751378284</DistanceMeters>
          </Trackpoint>
          <Trackpoint>
            <Time>2018-08-26T10:01:02.000Z</Time>
            <Position>
              <LatitudeDegrees>42.9231548309326171875</LatitudeDegrees>
              <LongitudeDegrees>-1.6267585940659046173095703125</LongitudeDegrees>
            </Position>
            <AltitudeMeters>510.20001220703125</AltitudeMeters>
            <DistanceMeters>81846.25879987</DistanceMeters>
          </Trackpoint>
          <Trackpoint>
            <Time>2018-08-26T10:01:03.000Z</Time>
            <Position>
              <LatitudeDegrees>42.92306841351091861724853515625</LatitudeDegrees>
              <LongitudeDegrees>-1.62675599567592144012451171875</LongitudeDegrees>
            </Position>
            <AltitudeMeters>509.79998779296875</AltitudeMeters>
            <DistanceMeters>81855.879521441</DistanceMeters>
          </Trackpoint>
          <Trackpoint>
            <Time>2018-08-26T10:01:04.000Z</Time>
            <Position>
              <LatitudeDegrees>42.922980152070522308349609375</LatitudeDegrees>
              <LongitudeDegrees>-1.626761443912982940673828125</LongitudeDegrees>
            </Position>
            <AltitudeMeters>509.600006103515625</AltitudeMeters>
            <DistanceMeters>81865.712835153</DistanceMeters>
          </Trackpoint>
          <Trackpoint>
            <Time>2018-08-26T10:01:05.000Z</Time>
            <Position>
              <LatitudeDegrees>42.92289105243980884552001953125</LatitudeDegrees>
              <LongitudeDegrees>-1.62677158601582050323486328125</LongitudeDegrees>
            </Position>
            <AltitudeMeters>509.20001220703125</AltitudeMeters>
            <DistanceMeters>81875.663906366</DistanceMeters>
          </Trackpoint>
          <Trackpoint>
            <Time>2018-08-26T10:01:06.000Z</Time>
            <Position>
              <LatitudeDegrees>42.922802455723285675048828125</LatitudeDegrees>
              <LongitudeDegrees>-1.62678466178476810455322265625</LongitudeDegrees>
            </Position>
            <AltitudeMeters>508.600006103515625</AltitudeMeters>
            <DistanceMeters>81885.582255663</DistanceMeters>
          </Trackpoint>
          <Trackpoint>
            <Time>2018-08-26T10:01:07.000Z</Time>
            <Position>
              <LatitudeDegrees>42.92271385900676250457763671875</LatitudeDegrees>
              <LongitudeDegrees>-1.6267951391637325286865234375</LongitudeDegrees>
            </Position>
            <AltitudeMeters>508.20001220703125</AltitudeMeters>
            <DistanceMeters>81895.479642655</DistanceMeters>
          </Trackpoint>
          <Trackpoint>
            <Time>2018-08-26T10:01:08.000Z</Time>
            <Position>
              <LatitudeDegrees>42.92262601666152477264404296875</LatitudeDegrees>
              <LongitudeDegrees>-1.62680595181882381439208984375</LongitudeDegrees>
            </Position>
            <AltitudeMeters>507.79998779296875</AltitudeMeters>
            <DistanceMeters>81905.296412786</DistanceMeters>
          </Trackpoint>
          <Trackpoint>
            <Time>2018-08-26T10:01:09.000Z</Time>
            <Position>
              <LatitudeDegrees>42.9225394316017627716064453125</LatitudeDegrees>
              <LongitudeDegrees>-1.6268199495971202850341796875</LongitudeDegrees>
            </Position>
            <AltitudeMeters>507.20001220703125</AltitudeMeters>
            <DistanceMeters>81915.001241342</DistanceMeters>
          </Trackpoint>
          <Trackpoint>
            <Time>2018-08-26T10:01:10.000Z</Time>
            <Position>
              <LatitudeDegrees>42.92245209217071533203125</LatitudeDegrees>
              <LongitudeDegrees>-1.62683160044252872467041015625</LongitudeDegrees>
            </Position>
            <AltitudeMeters>506.79998779296875</AltitudeMeters>
            <DistanceMeters>81924.769137109</DistanceMeters>
          </Trackpoint>
          <Trackpoint>
            <Time>2018-08-26T10:01:11.000Z</Time>
            <Position>
              <LatitudeDegrees>42.92236433364450931549072265625</LatitudeDegrees>
              <LongitudeDegrees>-1.6268440894782543182373046875</LongitudeDegrees>
            </Position>
            <AltitudeMeters>506.399993896484375</AltitudeMeters>
            <DistanceMeters>81934.590045748</DistanceMeters>
          </Trackpoint>
          <Trackpoint>
            <Time>2018-08-26T10:01:12.000Z</Time>
            <Position>
              <LatitudeDegrees>42.9222762398421764373779296875</LatitudeDegrees>
              <LongitudeDegrees>-1.6268551535904407501220703125</LongitudeDegrees>
            </Position>
            <AltitudeMeters>505.79998779296875</AltitudeMeters>
            <DistanceMeters>81944.436207473</DistanceMeters>
          </Trackpoint>
          <Trackpoint>
            <Time>2018-08-26T10:01:13.000Z</Time>
            <Position>
              <LatitudeDegrees>42.92218881659209728240966796875</LatitudeDegrees>
              <LongitudeDegrees>-1.6268648765981197357177734375</LongitudeDegrees>
            </Position>
            <AltitudeMeters>505.399993896484375</AltitudeMeters>
            <DistanceMeters>81954.198554874</DistanceMeters>
          </Trackpoint>
          <Trackpoint>
            <Time>2018-08-26T10:01:14.000Z</Time>
            <Position>
              <LatitudeDegrees>42.92210231535136699676513671875</LatitudeDegrees>
              <LongitudeDegrees>-1.62687954492866992950439453125</LongitudeDegrees>
            </Position>
            <AltitudeMeters>505</AltitudeMeters>
            <DistanceMeters>81963.90012623</DistanceMeters>
          </Trackpoint>
          <Trackpoint>
            <Time>2018-08-26T10:01:15.000Z</Time>
            <Position>
              <LatitudeDegrees>42.9220167361199855804443359375</LatitudeDegrees>
              <LongitudeDegrees>-1.62689479999244213104248046875</LongitudeDegrees>
            </Position>
            <AltitudeMeters>504.600006103515625</AltitudeMeters>
            <DistanceMeters>81973.50581835</DistanceMeters>
          </Trackpoint>
          <Trackpoint>
            <Time>2018-08-26T10:01:16.000Z</Time>
            <Position>
              <LatitudeDegrees>42.92193182744085788726806640625</LatitudeDegrees>
              <LongitudeDegrees>-1.62691189907491207122802734375</LongitudeDegrees>
            </Position>
            <AltitudeMeters>504.399993896484375</AltitudeMeters>
            <DistanceMeters>81983.057775866</DistanceMeters>
          </Trackpoint>
          <Trackpoint>
            <Time>2018-08-26T10:01:17.000Z</Time>
            <Position>
              <LatitudeDegrees>42.9218470863997936248779296875</LatitudeDegrees>
              <LongitudeDegrees>-1.626923717558383941650390625</LongitudeDegrees>
            </Position>
            <AltitudeMeters>504.20001220703125</AltitudeMeters>
            <DistanceMeters>81992.538565966</DistanceMeters>
          </Trackpoint>
          <Trackpoint>
            <Time>2018-08-26T10:01:18.000Z</Time>
            <Position>
              <LatitudeDegrees>42.9217615909874439239501953125</LatitudeDegrees>
              <LongitudeDegrees>-1.62692346610128879547119140625</LongitudeDegrees>
            </Position>
            <AltitudeMeters>504</AltitudeMeters>
            <DistanceMeters>82002.054531844</DistanceMeters>
          </Trackpoint>
          <Trackpoint>
            <Time>2018-08-26T10:01:19.000Z</Time>
            <Position>
              <LatitudeDegrees>42.921677269041538238525390625</LatitudeDegrees>
              <LongitudeDegrees>-1.6269238851964473724365234375</LongitudeDegrees>
            </Position>
            <AltitudeMeters>503.79998779296875</AltitudeMeters>
            <DistanceMeters>82011.439592613</DistanceMeters>
          </Trackpoint>
          <Trackpoint>
            <Time>2018-08-26T10:01:20.000Z</Time>
            <Position>
              <LatitudeDegrees>42.9215936176478862762451171875</LatitudeDegrees>
              <LongitudeDegrees>-1.6269201971590518951416015625</LongitudeDegrees>
            </Position>
            <AltitudeMeters>503.600006103515625</AltitudeMeters>
            <DistanceMeters>82020.755119148</DistanceMeters>
          </Trackpoint>
          <Trackpoint>
            <Time>2018-08-26T10:01:21.000Z</Time>
            <Position>
              <LatitudeDegrees>42.9215092957019805908203125</LatitudeDegrees>
              <LongitudeDegrees>-1.62690125405788421630859375</LongitudeDegrees>
            </Position>
            <AltitudeMeters>503.399993896484375</AltitudeMeters>
            <DistanceMeters>82030.266813839</DistanceMeters>
          </Trackpoint>
          <Trackpoint>
            <Time>2018-08-26T10:01:22.000Z</Time>
            <Position>
              <LatitudeDegrees>42.92142488993704319000244140625</LatitudeDegrees>
              <LongitudeDegrees>-1.62687216885387897491455078125</LongitudeDegrees>
            </Position>
            <AltitudeMeters>503.399993896484375</AltitudeMeters>
            <DistanceMeters>82039.95581145</DistanceMeters>
          </Trackpoint>
          <Trackpoint>
            <Time>2018-08-26T10:01:23.000Z</Time>
            <Position>
              <LatitudeDegrees>42.92134232819080352783203125</LatitudeDegrees>
              <LongitudeDegrees>-1.62683629430830478668212890625</LongitudeDegrees>
            </Position>
            <AltitudeMeters>503.399993896484375</AltitudeMeters>
            <DistanceMeters>82049.599501475</DistanceMeters>
          </Trackpoint>
          <Trackpoint>
            <Time>2018-08-26T10:01:24.000Z</Time>
            <Position>
              <LatitudeDegrees>42.921262197196483612060546875</LatitudeDegrees>
              <LongitudeDegrees>-1.62679187022149562835693359375</LongitudeDegrees>
            </Position>
            <AltitudeMeters>503.20001220703125</AltitudeMeters>
            <DistanceMeters>82059.225853041</DistanceMeters>
          </Trackpoint>
          <Trackpoint>
            <Time>2018-08-26T10:01:25.000Z</Time>
            <Position>
              <LatitudeDegrees>42.92118650861084461212158203125</LatitudeDegrees>
              <LongitudeDegrees>-1.62673671729862689971923828125</LongitudeDegrees>
            </Position>
            <AltitudeMeters>503.20001220703125</AltitudeMeters>
            <DistanceMeters>82068.77450121</DistanceMeters>
          </Trackpoint>
          <Trackpoint>
            <Time>2018-08-26T10:01:26.000Z</Time>
            <Position>
              <LatitudeDegrees>42.92111593298614025115966796875</LatitudeDegrees>
              <LongitudeDegrees>-1.6266690753400325775146484375</LongitudeDegrees>
            </Position>
            <AltitudeMeters>503.20001220703125</AltitudeMeters>
            <DistanceMeters>82078.37172892</DistanceMeters>
          </Trackpoint>
          <Trackpoint>
            <Time>2018-08-26T10:01:27.000Z</Time>
            <Position>
              <LatitudeDegrees>42.92105038650333881378173828125</LatitudeDegrees>
              <LongitudeDegrees>-1.626592464745044708251953125</LongitudeDegrees>
            </Position>
            <AltitudeMeters>503.20001220703125</AltitudeMeters>
            <DistanceMeters>82087.974600399</DistanceMeters>
          </Trackpoint>
          <Trackpoint>
            <Time>2018-08-26T10:01:28.000Z</Time>
            <Position>
              <LatitudeDegrees>42.92098903097212314605712890625</LatitudeDegrees>
              <LongitudeDegrees>-1.6265104897320270538330078125</LongitudeDegrees>
            </Position>
            <AltitudeMeters>503.20001220703125</AltitudeMeters>
            <DistanceMeters>82097.528921033</DistanceMeters>
          </Trackpoint>
          <Trackpoint>
            <Time>2018-08-26T10:01:29.000Z</Time>
            <Position>
              <LatitudeDegrees>42.92093102820217609405517578125</LatitudeDegrees>
              <LongitudeDegrees>-1.62642390467226505279541015625</LongitudeDegrees>
            </Position>
            <AltitudeMeters>503.20001220703125</AltitudeMeters>
            <DistanceMeters>82107.093160385</DistanceMeters>
          </Trackpoint>
          <Trackpoint>
            <Time>2018-08-26T10:01:30.000Z</Time>
            <Position>
              <LatitudeDegrees>42.9208754561841487884521484375</LatitudeDegrees>
              <LongitudeDegrees>-1.62633338011801242828369140625</LongitudeDegrees>
            </Position>
            <AltitudeMeters>503</AltitudeMeters>
            <DistanceMeters>82116.720918935</DistanceMeters>
          </Trackpoint>
          <Trackpoint>
            <Time>2018-08-26T10:01:31.000Z</Time>
            <Position>
              <LatitudeDegrees>42.92082130908966064453125</LatitudeDegrees>
              <LongitudeDegrees>-1.6262405924499034881591796875</LongitudeDegrees>
            </Position>
            <AltitudeMeters>502.79998779296875</AltitudeMeters>
            <DistanceMeters>82126.391258725</DistanceMeters>
          </Trackpoint>
          <Trackpoint>
            <Time>2018-08-26T10:01:32.000Z</Time>
            <Position>
              <LatitudeDegrees>42.92076766490936279296875</LatitudeDegrees>
              <LongitudeDegrees>-1.626147888600826263427734375</LongitudeDegrees>
            </Position>
            <AltitudeMeters>502.600006103515625</AltitudeMeters>
            <DistanceMeters>82136.021361792</DistanceMeters>
          </Trackpoint>
          <Trackpoint>
            <Time>2018-08-26T10:01:33.000Z</Time>
            <Position>
              <LatitudeDegrees>42.92071326635777950286865234375</LatitudeDegrees>
              <LongitudeDegrees>-1.6260545141994953155517578125</LongitudeDegrees>
            </Position>
            <AltitudeMeters>502.399993896484375</AltitudeMeters>
            <DistanceMeters>82145.7466392</DistanceMeters>
          </Trackpoint>
          <Trackpoint>
            <Time>2018-08-26T10:01:34.000Z</Time>
            <Position>
              <LatitudeDegrees>42.92065995745360851287841796875</LatitudeDegrees>
              <LongitudeDegrees>-1.62596038542687892913818359375</LongitudeDegrees>
            </Position>
            <AltitudeMeters>502.399993896484375</AltitudeMeters>
            <DistanceMeters>82155.445417799</DistanceMeters>
          </Trackpoint>
          <Trackpoint>
            <Time>2018-08-26T10:01:35.000Z</Time>
            <Position>
              <LatitudeDegrees>42.9206075705587863922119140625</LatitudeDegrees>
              <LongitudeDegrees>-1.6258650831878185272216796875</LongitudeDegrees>
            </Position>
            <AltitudeMeters>502.20001220703125</AltitudeMeters>
            <DistanceMeters>82165.157687284</DistanceMeters>
          </Trackpoint>
          <Trackpoint>
            <Time>2018-08-26T10:01:36.000Z</Time>
            <Position>
              <LatitudeDegrees>42.92055451311171054840087890625</LatitudeDegrees>
              <LongitudeDegrees>-1.625772379338741302490234375</LongitudeDegrees>
            </Position>
            <AltitudeMeters>502.20001220703125</AltitudeMeters>
            <DistanceMeters>82174.747855613</DistanceMeters>
          </Trackpoint>
          <Trackpoint>
            <Time>2018-08-26T10:01:37.000Z</Time>
            <Position>
              <LatitudeDegrees>42.92050204239785671234130859375</LatitudeDegrees>
              <LongitudeDegrees>-1.62568009458482265472412109375</LongitudeDegrees>
            </Position>
            <AltitudeMeters>502.20001220703125</AltitudeMeters>
            <DistanceMeters>82184.270935877</DistanceMeters>
          </Trackpoint>
          <Trackpoint>
            <Time>2018-08-26T10:01:38.000Z</Time>
            <Position>
              <LatitudeDegrees>42.92045007459819316864013671875</LatitudeDegrees>
              <LongitudeDegrees>-1.625587642192840576171875</LongitudeDegrees>
            </Position>
            <AltitudeMeters>502.20001220703125</AltitudeMeters>
            <DistanceMeters>82193.769805485</DistanceMeters>
          </Trackpoint>
          <Trackpoint>
            <Time>2018-08-26T10:01:39.000Z</Time>
            <Position>
              <LatitudeDegrees>42.92039726860821247100830078125</LatitudeDegrees>
              <LongitudeDegrees>-1.6254969500005245208740234375</LongitudeDegrees>
            </Position>
            <AltitudeMeters>502</AltitudeMeters>
            <DistanceMeters>82203.213854672</DistanceMeters>
          </Trackpoint>
          <Trackpoint>
            <Time>2018-08-26T10:01:40.000Z</Time>
            <Position>
              <LatitudeDegrees>42.9203440435230731964111328125</LatitudeDegrees>
              <LongitudeDegrees>-1.62540726363658905029296875</LongitudeDegrees>
            </Position>
            <AltitudeMeters>502</AltitudeMeters>
            <DistanceMeters>82212.622939083</DistanceMeters>
          </Trackpoint>
          <Trackpoint>
            <Time>2018-08-26T10:01:41.000Z</Time>
            <Position>
              <LatitudeDegrees>42.9202915728092193603515625</LatitudeDegrees>
              <LongitudeDegrees>-1.62531816400587558746337890625</LongitudeDegrees>
            </Position>
            <AltitudeMeters>501.79998779296875</AltitudeMeters>
            <DistanceMeters>82221.942342242</DistanceMeters>
          </Trackpoint>
          <Trackpoint>
            <Time>2018-08-26T10:01:42.000Z</Time>
            <Position>
              <LatitudeDegrees>42.92024069465696811676025390625</LatitudeDegrees>
              <LongitudeDegrees>-1.62522763945162296295166015625</LongitudeDegrees>
            </Position>
            <AltitudeMeters>501.79998779296875</AltitudeMeters>
            <DistanceMeters>82231.243317047</DistanceMeters>
          </Trackpoint>
          <Trackpoint>
            <Time>2018-08-26T10:01:43.000Z</Time>
            <Position>
              <LatitudeDegrees>42.92019023559987545013427734375</LatitudeDegrees>
              <LongitudeDegrees>-1.62513677962124347686767578125</LongitudeDegrees>
            </Position>
            <AltitudeMeters>501.399993896484375</AltitudeMeters>
            <DistanceMeters>82240.538464782</DistanceMeters>
          </Trackpoint>
          <Trackpoint>
            <Time>2018-08-26T10:01:44.000Z</Time>
            <Position>
              <LatitudeDegrees>42.9201391898095607757568359375</LatitudeDegrees>
              <LongitudeDegrees>-1.6250466741621494293212890625</LongitudeDegrees>
            </Position>
            <AltitudeMeters>500.79998779296875</AltitudeMeters>
            <DistanceMeters>82249.823892607</DistanceMeters>
          </Trackpoint>
          <Trackpoint>
            <Time>2018-08-26T10:01:45.000Z</Time>
            <Position>
              <LatitudeDegrees>42.920088060200214385986328125</LatitudeDegrees>
              <LongitudeDegrees>-1.62495656870305538177490234375</LongitudeDegrees>
            </Position>
            <AltitudeMeters>500.399993896484375</AltitudeMeters>
            <DistanceMeters>82259.115153598</DistanceMeters>
          </Trackpoint>
          <Trackpoint>
            <Time>2018-08-26T10:01:46.000Z</Time>
            <Position>
              <LatitudeDegrees>42.92003701440989971160888671875</LatitudeDegrees>
              <LongitudeDegrees>-1.62486671470105648040771484375</LongitudeDegrees>
            </Position>
            <AltitudeMeters>500.20001220703125</AltitudeMeters>
            <DistanceMeters>82268.384034183</DistanceMeters>
          </Trackpoint>
          <Trackpoint>
            <Time>2018-08-26T10:01:47.000Z</Time>
            <Position>
              <LatitudeDegrees>42.9199866391718387603759765625</LatitudeDegrees>
              <LongitudeDegrees>-1.624776609241962432861328125</LongitudeDegrees>
            </Position>
            <AltitudeMeters>500</AltitudeMeters>
            <DistanceMeters>82277.623641463</DistanceMeters>
          </Trackpoint>
          <Trackpoint>
            <Time>2018-08-26T10:01:48.000Z</Time>
            <Position>
              <LatitudeDegrees>42.9199373535811901092529296875</LatitudeDegrees>
              <LongitudeDegrees>-1.62468600086867809295654296875</LongitudeDegrees>
            </Position>
            <AltitudeMeters>500</AltitudeMeters>
            <DistanceMeters>82286.823091253</DistanceMeters>
          </Trackpoint>
          <Trackpoint>
            <Time>2018-08-26T10:01:49.000Z</Time>
            <Position>
              <LatitudeDegrees>42.91988848708570003509521484375</LatitudeDegrees>
              <LongitudeDegrees>-1.62459614686667919158935546875</LongitudeDegrees>
            </Position>
            <AltitudeMeters>500</AltitudeMeters>
            <DistanceMeters>82295.945160888</DistanceMeters>
          </Trackpoint>
          <Trackpoint>
            <Time>2018-08-26T10:01:50.000Z</Time>
            <Position>
              <LatitudeDegrees>42.9198391176760196685791015625</LatitudeDegrees>
              <LongitudeDegrees>-1.62450604140758514404296875</LongitudeDegrees>
            </Position>
            <AltitudeMeters>499.79998779296875</AltitudeMeters>
            <DistanceMeters>82305.117085013</DistanceMeters>
          </Trackpoint>
          <Trackpoint>
            <Time>2018-08-26T10:01:51.000Z</Time>
            <Position>
              <LatitudeDegrees>42.91979108937084674835205078125</LatitudeDegrees>
              <LongitudeDegrees>-1.62441425956785678863525390625</LongitudeDegrees>
            </Position>
            <AltitudeMeters>499.79998779296875</AltitudeMeters>
            <DistanceMeters>82314.311625549</DistanceMeters>
          </Trackpoint>
          <Trackpoint>
            <Time>2018-08-26T10:01:52.000Z</Time>
            <Position>
              <LatitudeDegrees>42.9197444021701812744140625</LatitudeDegrees>
              <LongitudeDegrees>-1.62432096898555755615234375</LongitudeDegrees>
            </Position>
            <AltitudeMeters>499.79998779296875</AltitudeMeters>
            <DistanceMeters>82323.521866486</DistanceMeters>
          </Trackpoint>
          <Trackpoint>
            <Time>2018-08-26T10:01:53.000Z</Time>
            <Position>
              <LatitudeDegrees>42.9196989722549915313720703125</LatitudeDegrees>
              <LongitudeDegrees>-1.62422709167003631591796875</LongitudeDegrees>
            </Position>
            <AltitudeMeters>499.79998779296875</AltitudeMeters>
            <DistanceMeters>82332.693790611</DistanceMeters>
          </Trackpoint>
          <Trackpoint>
            <Time>2018-08-26T10:01:54.000Z</Time>
            <Position>
              <LatitudeDegrees>42.9196550510823726654052734375</LatitudeDegrees>
              <LongitudeDegrees>-1.62413120269775390625</LongitudeDegrees>
            </Position>
            <AltitudeMeters>499.79998779296875</AltitudeMeters>
            <DistanceMeters>82341.912361509</DistanceMeters>
          </Trackpoint>
          <Trackpoint>
            <Time>2018-08-26T10:01:55.000Z</Time>
            <Position>
              <LatitudeDegrees>42.91961205191910266876220703125</LatitudeDegrees>
              <LongitudeDegrees>-1.624034307897090911865234375</LongitudeDegrees>
            </Position>
            <AltitudeMeters>499.600006103515625</AltitudeMeters>
            <DistanceMeters>82351.146102993</DistanceMeters>
          </Trackpoint>
          <Trackpoint>
            <Time>2018-08-26T10:01:56.000Z</Time>
            <Position>
              <LatitudeDegrees>42.91956880129873752593994140625</LatitudeDegrees>
              <LongitudeDegrees>-1.62393665872514247894287109375</LongitudeDegrees>
            </Position>
            <AltitudeMeters>499.600006103515625</AltitudeMeters>
            <DistanceMeters>82360.447077798</DistanceMeters>
          </Trackpoint>
          <Trackpoint>
            <Time>2018-08-26T10:01:57.000Z</Time>
            <Position>
              <LatitudeDegrees>42.91952538304030895233154296875</LatitudeDegrees>
              <LongitudeDegrees>-1.62384043447673320770263671875</LongitudeDegrees>
            </Position>
            <AltitudeMeters>499.399993896484375</AltitudeMeters>
            <DistanceMeters>82369.659279404</DistanceMeters>
          </Trackpoint>
          <Trackpoint>
            <Time>2018-08-26T10:01:58.000Z</Time>
            <Position>
              <LatitudeDegrees>42.9194823838770389556884765625</LatitudeDegrees>
              <LongitudeDegrees>-1.623744629323482513427734375</LongitudeDegrees>
            </Position>
            <AltitudeMeters>499.399993896484375</AltitudeMeters>
            <DistanceMeters>82378.818395637</DistanceMeters>
          </Trackpoint>
          <Trackpoint>
            <Time>2018-08-26T10:01:59.000Z</Time>
            <Position>
              <LatitudeDegrees>42.919439636170864105224609375</LatitudeDegrees>
              <LongitudeDegrees>-1.623648740351200103759765625</LongitudeDegrees>
            </Position>
            <AltitudeMeters>499.399993896484375</AltitudeMeters>
            <DistanceMeters>82387.968634365</DistanceMeters>
          </Trackpoint>
          <Trackpoint>
            <Time>2018-08-26T10:02:00.000Z</Time>
            <Position>
              <LatitudeDegrees>42.91939781047403812408447265625</LatitudeDegrees>
              <LongitudeDegrees>-1.62355176173150539398193359375</LongitudeDegrees>
            </Position>
            <AltitudeMeters>499.399993896484375</AltitudeMeters>
            <DistanceMeters>82397.141542972</DistanceMeters>
          </Trackpoint>
          <Trackpoint>
            <Time>2018-08-26T10:02:01.000Z</Time>
            <Position>
              <LatitudeDegrees>42.91935615241527557373046875</LatitudeDegrees>
              <LongitudeDegrees>-1.6234541125595569610595703125</LongitudeDegrees>
            </Position>
            <AltitudeMeters>499.399993896484375</AltitudeMeters>
            <DistanceMeters>82406.352764295</DistanceMeters>
          </Trackpoint>
          <Trackpoint>
            <Time>2018-08-26T10:02:02.000Z</Time>
            <Position>
              <LatitudeDegrees>42.91931516490876674652099609375</LatitudeDegrees>
              <LongitudeDegrees>-1.62335629574954509735107421875</LongitudeDegrees>
            </Position>
            <AltitudeMeters>499.20001220703125</AltitudeMeters>
            <DistanceMeters>82415.538461563</DistanceMeters>
          </Trackpoint>
          <Trackpoint>
            <Time>2018-08-26T10:02:03.000Z</Time>
            <Position>
              <LatitudeDegrees>42.91927426122128963470458984375</LatitudeDegrees>
              <LongitudeDegrees>-1.623258478939533233642578125</LongitudeDegrees>
            </Position>
            <AltitudeMeters>499.20001220703125</AltitudeMeters>
            <DistanceMeters>82424.719242223</DistanceMeters>
          </Trackpoint>
          <Trackpoint>
            <Time>2018-08-26T10:02:04.000Z</Time>
            <Position>
              <LatitudeDegrees>42.91923235170543193817138671875</LatitudeDegrees>
              <LongitudeDegrees>-1.623160578310489654541015625</LongitudeDegrees>
            </Position>
            <AltitudeMeters>499</AltitudeMeters>
            <DistanceMeters>82433.962269499</DistanceMeters>
          </Trackpoint>
          <Trackpoint>
            <Time>2018-08-26T10:02:05.000Z</Time>
            <Position>
              <LatitudeDegrees>42.91918993927538394927978515625</LatitudeDegrees>
              <LongitudeDegrees>-1.62306242622435092926025390625</LongitudeDegrees>
            </Position>
            <AltitudeMeters>498.79998779296875</AltitudeMeters>
            <DistanceMeters>82443.251586509</DistanceMeters>
          </Trackpoint>
          <Trackpoint>
            <Time>2018-08-26T10:02:06.000Z</Time>
            <Position>
              <LatitudeDegrees>42.9191471077501773834228515625</LatitudeDegrees>
              <LongitudeDegrees>-1.6229642741382122039794921875</LongitudeDegrees>
            </Position>
            <AltitudeMeters>498.600006103515625</AltitudeMeters>
            <DistanceMeters>82452.564689334</DistanceMeters>
          </Trackpoint>
          <Trackpoint>
            <Time>2018-08-26T10:02:07.000Z</Time>
            <Position>
              <LatitudeDegrees>42.91910461150109767913818359375</LatitudeDegrees>
              <LongitudeDegrees>-1.62286721169948577880859375</LongitudeDegrees>
            </Position>
            <AltitudeMeters>498.600006103515625</AltitudeMeters>
            <DistanceMeters>82461.782280628</DistanceMeters>
          </Trackpoint>
          <Trackpoint>
            <Time>2018-08-26T10:02:08.000Z</Time>
            <Position>
              <LatitudeDegrees>42.91906245052814483642578125</LatitudeDegrees>
              <LongitudeDegrees>-1.62277056835591793060302734375</LongitudeDegrees>
            </Position>
            <AltitudeMeters>498.399993896484375</AltitudeMeters>
            <DistanceMeters>82470.951250674</DistanceMeters>
          </Trackpoint>
          <Trackpoint>
            <Time>2018-08-26T10:02:09.000Z</Time>
            <Position>
              <LatitudeDegrees>42.9190207086503505706787109375</LatitudeDegrees>
              <LongitudeDegrees>-1.622674763202667236328125</LongitudeDegrees>
            </Position>
            <AltitudeMeters>498.399993896484375</AltitudeMeters>
            <DistanceMeters>82480.037613473</DistanceMeters>
          </Trackpoint>
          <Trackpoint>
            <Time>2018-08-26T10:02:10.000Z</Time>
            <Position>
              <LatitudeDegrees>42.91897905059158802032470703125</LatitudeDegrees>
              <LongitudeDegrees>-1.62257895804941654205322265625</LongitudeDegrees>
            </Position>
            <AltitudeMeters>498.399993896484375</AltitudeMeters>
            <DistanceMeters>82489.119503048</DistanceMeters>
          </Trackpoint>
          <Trackpoint>
            <Time>2018-08-26T10:02:11.000Z</Time>
            <Position>
              <LatitudeDegrees>42.91893714107573032379150390625</LatitudeDegrees>
              <LongitudeDegrees>-1.62248373962938785552978515625</LongitudeDegrees>
            </Position>
            <AltitudeMeters>498.20001220703125</AltitudeMeters>
            <DistanceMeters>82498.174506864</DistanceMeters>
          </Trackpoint>
          <Trackpoint>
            <Time>2018-08-26T10:02:12.000Z</Time>
            <Position>
              <LatitudeDegrees>42.91889539919793605804443359375</LatitudeDegrees>
              <LongitudeDegrees>-1.6223889403045177459716796875</LongitudeDegrees>
            </Position>
            <AltitudeMeters>498.20001220703125</AltitudeMeters>
            <DistanceMeters>82507.190534157</DistanceMeters>
          </Trackpoint>
          <Trackpoint>
            <Time>2018-08-26T10:02:13.000Z</Time>
            <Position>
              <LatitudeDegrees>42.918854244053363800048828125</LatitudeDegrees>
              <LongitudeDegrees>-1.62229456007480621337890625</LongitudeDegrees>
            </Position>
            <AltitudeMeters>498</AltitudeMeters>
            <DistanceMeters>82516.143240927</DistanceMeters>
          </Trackpoint>
          <Trackpoint>
            <Time>2018-08-26T10:02:14.000Z</Time>
            <Position>
              <LatitudeDegrees>42.91881359182298183441162109375</LatitudeDegrees>
              <LongitudeDegrees>-1.6222005151212215423583984375</LongitudeDegrees>
            </Position>
            <AltitudeMeters>498</AltitudeMeters>
            <DistanceMeters>82525.044358313</DistanceMeters>
          </Trackpoint>
          <Trackpoint>
            <Time>2018-08-26T10:02:15.000Z</Time>
            <Position>
              <LatitudeDegrees>42.91877436451613903045654296875</LatitudeDegrees>
              <LongitudeDegrees>-1.6221052967011928558349609375</LongitudeDegrees>
            </Position>
            <AltitudeMeters>498</AltitudeMeters>
            <DistanceMeters>82533.949025699</DistanceMeters>
          </Trackpoint>
          <Trackpoint>
            <Time>2018-08-26T10:02:16.000Z</Time>
            <Position>
              <LatitudeDegrees>42.91873614303767681121826171875</LatitudeDegrees>
              <LongitudeDegrees>-1.622009575366973876953125</LongitudeDegrees>
            </Position>
            <AltitudeMeters>497.79998779296875</AltitudeMeters>
            <DistanceMeters>82542.835420835</DistanceMeters>
          </Trackpoint>
          <Trackpoint>
            <Time>2018-08-26T10:02:17.000Z</Time>
            <Position>
              <LatitudeDegrees>42.91869825683534145355224609375</LatitudeDegrees>
              <LongitudeDegrees>-1.62191343493759632110595703125</LongitudeDegrees>
            </Position>
            <AltitudeMeters>497.79998779296875</AltitudeMeters>
            <DistanceMeters>82551.734001639</DistanceMeters>
          </Trackpoint>
          <Trackpoint>
            <Time>2018-08-26T10:02:18.000Z</Time>
            <Position>
              <LatitudeDegrees>42.918660454452037811279296875</LatitudeDegrees>
              <LongitudeDegrees>-1.621818132698535919189453125</LongitudeDegrees>
            </Position>
            <AltitudeMeters>497.600006103515625</AltitudeMeters>
            <DistanceMeters>82560.567909078</DistanceMeters>
          </Trackpoint>
          <Trackpoint>
            <Time>2018-08-26T10:02:19.000Z</Time>
            <Position>
              <LatitudeDegrees>42.91862281970679759979248046875</LatitudeDegrees>
              <LongitudeDegrees>-1.621722914278507232666015625</LongitudeDegrees>
            </Position>
            <AltitudeMeters>497.600006103515625</AltitudeMeters>
            <DistanceMeters>82569.387494016</DistanceMeters>
          </Trackpoint>
          <Trackpoint>
            <Time>2018-08-26T10:02:20.000Z</Time>
            <Position>
              <LatitudeDegrees>42.9185858555138111114501953125</LatitudeDegrees>
              <LongitudeDegrees>-1.62162828259170055389404296875</LongitudeDegrees>
            </Position>
            <AltitudeMeters>497.399993896484375</AltitudeMeters>
            <DistanceMeters>82578.129951738</DistanceMeters>
          </Trackpoint>
          <Trackpoint>
            <Time>2018-08-26T10:02:21.000Z</Time>
            <Position>
              <LatitudeDegrees>42.9185489751398563385009765625</LatitudeDegrees>
              <LongitudeDegrees>-1.62153390236198902130126953125</LongitudeDegrees>
            </Position>
            <AltitudeMeters>497.399993896484375</AltitudeMeters>
            <DistanceMeters>82586.849656071</DistanceMeters>
          </Trackpoint>
          <Trackpoint>
            <Time>2018-08-26T10:02:22.000Z</Time>
            <Position>
              <LatitudeDegrees>42.91851125657558441162109375</LatitudeDegrees>
              <LongitudeDegrees>-1.62144002504646778106689453125</LongitudeDegrees>
            </Position>
            <AltitudeMeters>497.399993896484375</AltitudeMeters>
            <DistanceMeters>82595.577641227</DistanceMeters>
          </Trackpoint>
          <Trackpoint>
            <Time>2018-08-26T10:02:23.000Z</Time>
            <Position>
              <LatitudeDegrees>42.9184725321829319000244140625</LatitudeDegrees>
              <LongitudeDegrees>-1.62134866230189800262451171875</LongitudeDegrees>
            </Position>
            <AltitudeMeters>497.399993896484375</AltitudeMeters>
            <DistanceMeters>82604.181626739</DistanceMeters>
          </Trackpoint>
          <Trackpoint>
            <Time>2018-08-26T10:02:24.000Z</Time>
            <Position>
              <LatitudeDegrees>42.91843338869512081146240234375</LatitudeDegrees>
              <LongitudeDegrees>-1.6212573833763599395751953125</LongitudeDegrees>
            </Position>
            <AltitudeMeters>497.399993896484375</AltitudeMeters>
            <DistanceMeters>82612.803435673</DistanceMeters>
          </Trackpoint>
          <Trackpoint>
            <Time>2018-08-26T10:02:25.000Z</Time>
            <Position>
              <LatitudeDegrees>42.91839382611215114593505859375</LatitudeDegrees>
              <LongitudeDegrees>-1.62116643972694873809814453125</LongitudeDegrees>
            </Position>
            <AltitudeMeters>497.399993896484375</AltitudeMeters>
            <DistanceMeters>82621.425244606</DistanceMeters>
          </Trackpoint>
          <Trackpoint>
            <Time>2018-08-26T10:02:26.000Z</Time>
            <Position>
              <LatitudeDegrees>42.9183531738817691802978515625</LatitudeDegrees>
              <LongitudeDegrees>-1.62107608281075954437255859375</LongitudeDegrees>
            </Position>
            <AltitudeMeters>497.399993896484375</AltitudeMeters>
            <DistanceMeters>82630.069019967</DistanceMeters>
          </Trackpoint>
          <Trackpoint>
            <Time>2018-08-26T10:02:27.000Z</Time>
            <Position>
              <LatitudeDegrees>42.9183129407465457916259765625</LatitudeDegrees>
              <LongitudeDegrees>-1.6209836304187774658203125</LongitudeDegrees>
            </Position>
            <AltitudeMeters>497.399993896484375</AltitudeMeters>
            <DistanceMeters>82638.83468711</DistanceMeters>
          </Trackpoint>
          <Trackpoint>
            <Time>2018-08-26T10:02:28.000Z</Time>
            <Position>
              <LatitudeDegrees>42.91827446781098842620849609375</LatitudeDegrees>
              <LongitudeDegrees>-1.62088849581778049468994140625</LongitudeDegrees>
            </Position>
            <AltitudeMeters>497.399993896484375</AltitudeMeters>
            <DistanceMeters>82647.69309353</DistanceMeters>
          </Trackpoint>
          <Trackpoint>
            <Time>2018-08-26T10:02:29.000Z</Time>
            <Position>
              <LatitudeDegrees>42.91823624633252620697021484375</LatitudeDegrees>
              <LongitudeDegrees>-1.62079310975968837738037109375</LongitudeDegrees>
            </Position>
            <AltitudeMeters>497.399993896484375</AltitudeMeters>
            <DistanceMeters>82656.55608597</DistanceMeters>
          </Trackpoint>
          <Trackpoint>
            <Time>2018-08-26T10:02:30.000Z</Time>
            <Position>
              <LatitudeDegrees>42.91819517500698566436767578125</LatitudeDegrees>
              <LongitudeDegrees>-1.6207008250057697296142578125</LongitudeDegrees>
            </Position>
            <AltitudeMeters>497.399993896484375</AltitudeMeters>
            <DistanceMeters>82665.358247971</DistanceMeters>
          </Trackpoint>
          <Trackpoint>
            <Time>2018-08-26T10:02:31.000Z</Time>
            <Position>
              <LatitudeDegrees>42.91815175674855709075927734375</LatitudeDegrees>
              <LongitudeDegrees>-1.62061105482280254364013671875</LongitudeDegrees>
            </Position>
            <AltitudeMeters>497.399993896484375</AltitudeMeters>
            <DistanceMeters>82674.127519947</DistanceMeters>
          </Trackpoint>
          <Trackpoint>
            <Time>2018-08-26T10:02:32.000Z</Time>
            <Position>
              <LatitudeDegrees>42.91810649447143077850341796875</LatitudeDegrees>
              <LongitudeDegrees>-1.62052321247756481170654296875</LongitudeDegrees>
            </Position>
            <AltitudeMeters>497.399993896484375</AltitudeMeters>
            <DistanceMeters>82682.88184795</DistanceMeters>
          </Trackpoint>
          <Trackpoint>
            <Time>2018-08-26T10:02:33.000Z</Time>
            <Position>
              <LatitudeDegrees>42.918058969080448150634765625</LatitudeDegrees>
              <LongitudeDegrees>-1.62043738178908824920654296875</LongitudeDegrees>
            </Position>
            <AltitudeMeters>497.399993896484375</AltitudeMeters>
            <DistanceMeters>82691.652149607</DistanceMeters>
          </Trackpoint>
          <Trackpoint>
            <Time>2018-08-26T10:02:34.000Z</Time>
            <Position>
              <LatitudeDegrees>42.91800758801400661468505859375</LatitudeDegrees>
              <LongitudeDegrees>-1.6203559935092926025390625</LongitudeDegrees>
            </Position>
            <AltitudeMeters>497.399993896484375</AltitudeMeters>
            <DistanceMeters>82700.41008711</DistanceMeters>
          </Trackpoint>
          <Trackpoint>
            <Time>2018-08-26T10:02:35.000Z</Time>
            <Position>
              <LatitudeDegrees>42.91795209981501102447509765625</LatitudeDegrees>
              <LongitudeDegrees>-1.6202807240188121795654296875</LongitudeDegrees>
            </Position>
            <AltitudeMeters>497.399993896484375</AltitudeMeters>
            <DistanceMeters>82709.115281049</DistanceMeters>
          </Trackpoint>
          <Trackpoint>
            <Time>2018-08-26T10:02:36.000Z</Time>
            <Position>
              <LatitudeDegrees>42.91789275594055652618408203125</LatitudeDegrees>
              <LongitudeDegrees>-1.62021274678409099578857421875</LongitudeDegrees>
            </Position>
            <AltitudeMeters>497.399993896484375</AltitudeMeters>
            <DistanceMeters>82717.737089983</DistanceMeters>
          </Trackpoint>
          <Trackpoint>
            <Time>2018-08-26T10:02:37.000Z</Time>
            <Position>
              <LatitudeDegrees>42.91782972402870655059814453125</LatitudeDegrees>
              <LongitudeDegrees>-1.6201529838144779205322265625</LongitudeDegrees>
            </Position>
            <AltitudeMeters>497.399993896484375</AltitudeMeters>
            <DistanceMeters>82726.277872003</DistanceMeters>
          </Trackpoint>
          <Trackpoint>
            <Time>2018-08-26T10:02:38.000Z</Time>
            <Position>
              <LatitudeDegrees>42.91776292026042938232421875</LatitudeDegrees>
              <LongitudeDegrees>-1.6201013512909412384033203125</LongitudeDegrees>
            </Position>
            <AltitudeMeters>497.600006103515625</AltitudeMeters>
            <DistanceMeters>82734.821825302</DistanceMeters>
          </Trackpoint>
          <Trackpoint>
            <Time>2018-08-26T10:02:39.000Z</Time>
            <Position>
              <LatitudeDegrees>42.91769427247345447540283203125</LatitudeDegrees>
              <LongitudeDegrees>-1.6200570948421955108642578125</LongitudeDegrees>
            </Position>
            <AltitudeMeters>497.600006103515625</AltitudeMeters>
            <DistanceMeters>82743.271191217</DistanceMeters>
          </Trackpoint>
          <Trackpoint>
            <Time>2018-08-26T10:02:40.000Z</Time>
            <Position>
              <LatitudeDegrees>42.91762411594390869140625</LatitudeDegrees>
              <LongitudeDegrees>-1.620017699897289276123046875</LongitudeDegrees>
            </Position>
            <AltitudeMeters>497.79998779296875</AltitudeMeters>
            <DistanceMeters>82751.714142327</DistanceMeters>
          </Trackpoint>
          <Trackpoint>
            <Time>2018-08-26T10:02:41.000Z</Time>
            <Position>
              <LatitudeDegrees>42.91755395941436290740966796875</LatitudeDegrees>
              <LongitudeDegrees>-1.61997972987592220306396484375</LongitudeDegrees>
            </Position>
            <AltitudeMeters>497.600006103515625</AltitudeMeters>
            <DistanceMeters>82760.114202882</DistanceMeters>
          </Trackpoint>
          <Trackpoint>
            <Time>2018-08-26T10:02:42.000Z</Time>
            <Position>
              <LatitudeDegrees>42.917483635246753692626953125</LatitudeDegrees>
              <LongitudeDegrees>-1.6199451126158237457275390625</LongitudeDegrees>
            </Position>
            <AltitudeMeters>497.600006103515625</AltitudeMeters>
            <DistanceMeters>82768.434875697</DistanceMeters>
          </Trackpoint>
          <Trackpoint>
            <Time>2018-08-26T10:02:43.000Z</Time>
            <Position>
              <LatitudeDegrees>42.91741364635527133941650390625</LatitudeDegrees>
              <LongitudeDegrees>-1.6199125908315181732177734375</LongitudeDegrees>
            </Position>
            <AltitudeMeters>497.399993896484375</AltitudeMeters>
            <DistanceMeters>82776.663333218</DistanceMeters>
          </Trackpoint>
          <Trackpoint>
            <Time>2018-08-26T10:02:44.000Z</Time>
            <Position>
              <LatitudeDegrees>42.91734516620635986328125</LatitudeDegrees>
              <LongitudeDegrees>-1.6198787279427051544189453125</LongitudeDegrees>
            </Position>
            <AltitudeMeters>497.399993896484375</AltitudeMeters>
            <DistanceMeters>82784.770175783</DistanceMeters>
          </Trackpoint>
          <Trackpoint>
            <Time>2018-08-26T10:02:45.000Z</Time>
            <Position>
              <LatitudeDegrees>42.91727534495294094085693359375</LatitudeDegrees>
              <LongitudeDegrees>-1.619846038520336151123046875</LongitudeDegrees>
            </Position>
            <AltitudeMeters>497.399993896484375</AltitudeMeters>
            <DistanceMeters>82792.985453705</DistanceMeters>
          </Trackpoint>
          <Trackpoint>
            <Time>2018-08-26T10:02:46.000Z</Time>
            <Position>
              <LatitudeDegrees>42.91720510460436344146728515625</LatitudeDegrees>
              <LongitudeDegrees>-1.61981326527893543243408203125</LongitudeDegrees>
            </Position>
            <AltitudeMeters>497.399993896484375</AltitudeMeters>
            <DistanceMeters>82801.247314745</DistanceMeters>
          </Trackpoint>
          <Trackpoint>
            <Time>2018-08-26T10:02:47.000Z</Time>
            <Position>
              <LatitudeDegrees>42.9171344451606273651123046875</LatitudeDegrees>
              <LongitudeDegrees>-1.61977957002818584442138671875</LongitudeDegrees>
            </Position>
            <AltitudeMeters>497.399993896484375</AltitudeMeters>
            <DistanceMeters>82809.577749155</DistanceMeters>
          </Trackpoint>
          <Trackpoint>
            <Time>2018-08-26T10:02:48.000Z</Time>
            <Position>
              <LatitudeDegrees>42.91706261225044727325439453125</LatitudeDegrees>
              <LongitudeDegrees>-1.61974654532968997955322265625</LongitudeDegrees>
            </Position>
            <AltitudeMeters>497.399993896484375</AltitudeMeters>
            <DistanceMeters>82818.013210161</DistanceMeters>
          </Trackpoint>
          <Trackpoint>
            <Time>2018-08-26T10:02:49.000Z</Time>
            <Position>
              <LatitudeDegrees>42.9169818945229053497314453125</LatitudeDegrees>
              <LongitudeDegrees>-1.619734726846218109130859375</LongitudeDegrees>
            </Position>
            <AltitudeMeters>497.600006103515625</AltitudeMeters>
            <DistanceMeters>82827.049246416</DistanceMeters>
          </Trackpoint>
          <Trackpoint>
            <Time>2018-08-26T10:02:50.000Z</Time>
            <Position>
              <LatitudeDegrees>42.9168997518718242645263671875</LatitudeDegrees>
              <LongitudeDegrees>-1.61972634494304656982421875</LongitudeDegrees>
            </Position>
            <AltitudeMeters>497.600006103515625</AltitudeMeters>
            <DistanceMeters>82836.217231557</DistanceMeters>
          </Trackpoint>
          <Trackpoint>
            <Time>2018-08-26T10:02:51.000Z</Time>
            <Position>
              <LatitudeDegrees>42.91682674549520015716552734375</LatitudeDegrees>
              <LongitudeDegrees>-1.619696505367755889892578125</LongitudeDegrees>
            </Position>
            <AltitudeMeters>497.600006103515625</AltitudeMeters>
            <DistanceMeters>82844.699663349</DistanceMeters>
          </Trackpoint>
          <Trackpoint>
            <Time>2018-08-26T10:02:52.000Z</Time>
            <Position>
              <LatitudeDegrees>42.91675348766148090362548828125</LatitudeDegrees>
              <LongitudeDegrees>-1.61966758780181407928466796875</LongitudeDegrees>
            </Position>
            <AltitudeMeters>497.600006103515625</AltitudeMeters>
            <DistanceMeters>82853.187416283</DistanceMeters>
          </Trackpoint>
          <Trackpoint>
            <Time>2018-08-26T10:02:53.000Z</Time>
            <Position>
              <LatitudeDegrees>42.91668257676064968109130859375</LatitudeDegrees>
              <LongitudeDegrees>-1.61963649094104766845703125</LongitudeDegrees>
            </Position>
            <AltitudeMeters>497.600006103515625</AltitudeMeters>
            <DistanceMeters>82861.477101545</DistanceMeters>
          </Trackpoint>
          <Trackpoint>
            <Time>2018-08-26T10:02:54.000Z</Time>
            <Position>
              <LatitudeDegrees>42.91660982184112071990966796875</LatitudeDegrees>
              <LongitudeDegrees>-1.61961813457310199737548828125</LongitudeDegrees>
            </Position>
            <AltitudeMeters>497.399993896484375</AltitudeMeters>
            <DistanceMeters>82869.712140955</DistanceMeters>
          </Trackpoint>
          <Trackpoint>
            <Time>2018-08-26T10:02:55.000Z</Time>
            <Position>
              <LatitudeDegrees>42.91653287597000598907470703125</LatitudeDegrees>
              <LongitudeDegrees>-1.61959315650165081024169921875</LongitudeDegrees>
            </Position>
            <AltitudeMeters>497.399993896484375</AltitudeMeters>
            <DistanceMeters>82878.515328789</DistanceMeters>
          </Trackpoint>
          <Trackpoint>
            <Time>2018-08-26T10:02:56.000Z</Time>
            <Position>
              <LatitudeDegrees>42.91645945049822330474853515625</LatitudeDegrees>
              <LongitudeDegrees>-1.61956381984055042266845703125</LongitudeDegrees>
            </Position>
            <AltitudeMeters>497.399993896484375</AltitudeMeters>
            <DistanceMeters>82887.030167823</DistanceMeters>
          </Trackpoint>
          <Trackpoint>
            <Time>2018-08-26T10:02:57.000Z</Time>
            <Position>
              <LatitudeDegrees>42.91638669557869434356689453125</LatitudeDegrees>
              <LongitudeDegrees>-1.6195364110171794891357421875</LongitudeDegrees>
            </Position>
            <AltitudeMeters>497.20001220703125</AltitudeMeters>
            <DistanceMeters>82895.430228378</DistanceMeters>
          </Trackpoint>
          <Trackpoint>
            <Time>2018-08-26T10:02:58.000Z</Time>
            <Position>
              <LatitudeDegrees>42.91631519794464111328125</LatitudeDegrees>
              <LongitudeDegrees>-1.61951000802218914031982421875</LongitudeDegrees>
            </Position>
            <AltitudeMeters>497</AltitudeMeters>
            <DistanceMeters>82903.674035467</DistanceMeters>
          </Trackpoint>
          <Trackpoint>
            <Time>2018-08-26T10:02:59.000Z</Time>
            <Position>
              <LatitudeDegrees>42.916244454681873321533203125</LatitudeDegrees>
              <LongitudeDegrees>-1.6194864548742771148681640625</LongitudeDegrees>
            </Position>
            <AltitudeMeters>497</AltitudeMeters>
            <DistanceMeters>82911.778092845</DistanceMeters>
          </Trackpoint>
          <Trackpoint>
            <Time>2018-08-26T10:03:00.000Z</Time>
            <Position>
              <LatitudeDegrees>42.9161745496094226837158203125</LatitudeDegrees>
              <LongitudeDegrees>-1.619465835392475128173828125</LongitudeDegrees>
            </Position>
            <AltitudeMeters>497</AltitudeMeters>
            <DistanceMeters>82919.738246512</DistanceMeters>
          </Trackpoint>
          <Trackpoint>
            <Time>2018-08-26T10:03:01.000Z</Time>
            <Position>
              <LatitudeDegrees>42.916105650365352630615234375</LatitudeDegrees>
              <LongitudeDegrees>-1.61944697611033916473388671875</LongitudeDegrees>
            </Position>
            <AltitudeMeters>496.79998779296875</AltitudeMeters>
            <DistanceMeters>82927.55935499</DistanceMeters>
          </Trackpoint>
          <Trackpoint>
            <Time>2018-08-26T10:03:02.000Z</Time>
            <Position>
              <LatitudeDegrees>42.9160374216735363006591796875</LatitudeDegrees>
              <LongitudeDegrees>-1.619431972503662109375</LongitudeDegrees>
            </Position>
            <AltitudeMeters>496.79998779296875</AltitudeMeters>
            <DistanceMeters>82935.251824746</DistanceMeters>
          </Trackpoint>
          <Trackpoint>
            <Time>2018-08-26T10:03:03.000Z</Time>
            <Position>
              <LatitudeDegrees>42.91597078554332256317138671875</LatitudeDegrees>
              <LongitudeDegrees>-1.6194212436676025390625</LongitudeDegrees>
            </Position>
            <AltitudeMeters>496.79998779296875</AltitudeMeters>
            <DistanceMeters>82942.71973959</DistanceMeters>
          </Trackpoint>
          <Trackpoint>
            <Time>2018-08-26T10:03:04.000Z</Time>
            <Position>
              <LatitudeDegrees>42.91590557433664798736572265625</LatitudeDegrees>
              <LongitudeDegrees>-1.61941411904990673065185546875</LongitudeDegrees>
            </Position>
            <AltitudeMeters>496.79998779296875</AltitudeMeters>
            <DistanceMeters>82950.001539428</DistanceMeters>
          </Trackpoint>
          <Trackpoint>
            <Time>2018-08-26T10:03:05.000Z</Time>
            <Position>
              <LatitudeDegrees>42.915840446949005126953125</LatitudeDegrees>
              <LongitudeDegrees>-1.61940825171768665313720703125</LongitudeDegrees>
            </Position>
            <AltitudeMeters>496.79998779296875</AltitudeMeters>
            <DistanceMeters>82957.26595728</DistanceMeters>
          </Trackpoint>
          <Trackpoint>
            <Time>2018-08-26T10:03:06.000Z</Time>
            <Position>
              <LatitudeDegrees>42.915776073932647705078125</LatitudeDegrees>
              <LongitudeDegrees>-1.6194026358425617218017578125</LongitudeDegrees>
            </Position>
            <AltitudeMeters>497</AltitudeMeters>
            <DistanceMeters>82964.445349758</DistanceMeters>
          </Trackpoint>
          <Trackpoint>
            <Time>2018-08-26T10:03:07.000Z</Time>
            <Position>
              <LatitudeDegrees>42.9157111980020999908447265625</LatitudeDegrees>
              <LongitudeDegrees>-1.61939852871000766754150390625</LongitudeDegrees>
            </Position>
            <AltitudeMeters>497</AltitudeMeters>
            <DistanceMeters>82971.673629104</DistanceMeters>
          </Trackpoint>
          <Trackpoint>
            <Time>2018-08-26T10:03:08.000Z</Time>
            <Position>
              <LatitudeDegrees>42.9156471602618694305419921875</LatitudeDegrees>
              <LongitudeDegrees>-1.6193942539393901824951171875</LongitudeDegrees>
            </Position>
            <AltitudeMeters>497</AltitudeMeters>
            <DistanceMeters>82978.810129026</DistanceMeters>
          </Trackpoint>
          <Trackpoint>
            <Time>2018-08-26T10:03:09.000Z</Time>
            <Position>
              <LatitudeDegrees>42.91558320634067058563232421875</LatitudeDegrees>
              <LongitudeDegrees>-1.61938830278813838958740234375</LongitudeDegrees>
            </Position>
            <AltitudeMeters>497</AltitudeMeters>
            <DistanceMeters>82985.9453635</DistanceMeters>
          </Trackpoint>
          <Trackpoint>
            <Time>2018-08-26T10:03:10.000Z</Time>
            <Position>
              <LatitudeDegrees>42.91551933623850345611572265625</LatitudeDegrees>
              <LongitudeDegrees>-1.61937790922820568084716796875</LongitudeDegrees>
            </Position>
            <AltitudeMeters>497.20001220703125</AltitudeMeters>
            <DistanceMeters>82993.10397257</DistanceMeters>
          </Trackpoint>
          <Trackpoint>
            <Time>2018-08-26T10:03:11.000Z</Time>
            <Position>
              <LatitudeDegrees>42.91545630432665348052978515625</LatitudeDegrees>
              <LongitudeDegrees>-1.61936424672603607177734375</LongitudeDegrees>
            </Position>
            <AltitudeMeters>497.20001220703125</AltitudeMeters>
            <DistanceMeters>83000.206226227</DistanceMeters>
          </Trackpoint>
          <Trackpoint>
            <Time>2018-08-26T10:03:12.000Z</Time>
            <Position>
              <LatitudeDegrees>42.91539427824318408966064453125</LatitudeDegrees>
              <LongitudeDegrees>-1.61934538744390010833740234375</LongitudeDegrees>
            </Position>
            <AltitudeMeters>497.399993896484375</AltitudeMeters>
            <DistanceMeters>83007.278537973</DistanceMeters>
          </Trackpoint>
          <Trackpoint>
            <Time>2018-08-26T10:03:13.000Z</Time>
            <Position>
              <LatitudeDegrees>42.91533409617841243743896484375</LatitudeDegrees>
              <LongitudeDegrees>-1.6193271987140178680419921875</LongitudeDegrees>
            </Position>
            <AltitudeMeters>497.600006103515625</AltitudeMeters>
            <DistanceMeters>83014.138913941</DistanceMeters>
          </Trackpoint>
          <Trackpoint>
            <Time>2018-08-26T10:03:14.000Z</Time>
            <Position>
              <LatitudeDegrees>42.915275506675243377685546875</LatitudeDegrees>
              <LongitudeDegrees>-1.6193072497844696044921875</LongitudeDegrees>
            </Position>
            <AltitudeMeters>498</AltitudeMeters>
            <DistanceMeters>83020.8596611</DistanceMeters>
          </Trackpoint>
          <Trackpoint>
            <Time>2018-08-26T10:03:15.000Z</Time>
            <Position>
              <LatitudeDegrees>42.91521809063851833343505859375</LatitudeDegrees>
              <LongitudeDegrees>-1.6192836128175258636474609375</LongitudeDegrees>
            </Position>
            <AltitudeMeters>498.20001220703125</AltitudeMeters>
            <DistanceMeters>83027.533892673</DistanceMeters>
          </Trackpoint>
          <Trackpoint>
            <Time>2018-08-26T10:03:16.000Z</Time>
            <Position>
              <LatitudeDegrees>42.91516260243952274322509765625</LatitudeDegrees>
              <LongitudeDegrees>-1.61925067193806171417236328125</LongitudeDegrees>
            </Position>
            <AltitudeMeters>498.399993896484375</AltitudeMeters>
            <DistanceMeters>83034.268732982</DistanceMeters>
          </Trackpoint>
          <Trackpoint>
            <Time>2018-08-26T10:03:17.000Z</Time>
            <Position>
              <LatitudeDegrees>42.91511096991598606109619140625</LatitudeDegrees>
              <LongitudeDegrees>-1.6192125342786312103271484375</LongitudeDegrees>
            </Position>
            <AltitudeMeters>498.600006103515625</AltitudeMeters>
            <DistanceMeters>83040.80281298</DistanceMeters>
          </Trackpoint>
          <Trackpoint>
            <Time>2018-08-26T10:03:18.000Z</Time>
            <Position>
              <LatitudeDegrees>42.9150597564876079559326171875</LatitudeDegrees>
              <LongitudeDegrees>-1.619175486266613006591796875</LongitudeDegrees>
            </Position>
            <AltitudeMeters>499</AltitudeMeters>
            <DistanceMeters>83047.253440256</DistanceMeters>
          </Trackpoint>
          <Trackpoint>
            <Time>2018-08-26T10:03:19.000Z</Time>
            <Position>
              <LatitudeDegrees>42.91500736959278583526611328125</LatitudeDegrees>
              <LongitudeDegrees>-1.61914405412971973419189453125</LongitudeDegrees>
            </Position>
            <AltitudeMeters>499</AltitudeMeters>
            <DistanceMeters>83053.622357227</DistanceMeters>
          </Trackpoint>
          <Trackpoint>
            <Time>2018-08-26T10:03:20.000Z</Time>
            <Position>
              <LatitudeDegrees>42.9149554856121540069580078125</LatitudeDegrees>
              <LongitudeDegrees>-1.6191122867166996002197265625</LongitudeDegrees>
            </Position>
            <AltitudeMeters>499.399993896484375</AltitudeMeters>
            <DistanceMeters>83059.95073688</DistanceMeters>
          </Trackpoint>
          <Trackpoint>
            <Time>2018-08-26T10:03:21.000Z</Time>
            <Position>
              <LatitudeDegrees>42.914904020726680755615234375</LatitudeDegrees>
              <LongitudeDegrees>-1.619078256189823150634765625</LongitudeDegrees>
            </Position>
            <AltitudeMeters>499.399993896484375</AltitudeMeters>
            <DistanceMeters>83066.315398923</DistanceMeters>
          </Trackpoint>
          <Trackpoint>
            <Time>2018-08-26T10:03:22.000Z</Time>
            <Position>
              <LatitudeDegrees>42.91485406458377838134765625</LatitudeDegrees>
              <LongitudeDegrees>-1.61904129199683666229248046875</LongitudeDegrees>
            </Position>
            <AltitudeMeters>499.79998779296875</AltitudeMeters>
            <DistanceMeters>83072.639496375</DistanceMeters>
          </Trackpoint>
          <Trackpoint>
            <Time>2018-08-26T10:03:23.000Z</Time>
            <Position>
              <LatitudeDegrees>42.9148046113550662994384765625</LatitudeDegrees>
              <LongitudeDegrees>-1.61900273524224758148193359375</LongitudeDegrees>
            </Position>
            <AltitudeMeters>500.20001220703125</AltitudeMeters>
            <DistanceMeters>83078.977144205</DistanceMeters>
          </Trackpoint>
          <Trackpoint>
            <Time>2018-08-26T10:03:24.000Z</Time>
            <Position>
              <LatitudeDegrees>42.914755158126354217529296875</LatitudeDegrees>
              <LongitudeDegrees>-1.61896451376378536224365234375</LongitudeDegrees>
            </Position>
            <AltitudeMeters>500.399993896484375</AltitudeMeters>
            <DistanceMeters>83085.301955558</DistanceMeters>
          </Trackpoint>
          <Trackpoint>
            <Time>2018-08-26T10:03:25.000Z</Time>
            <Position>
              <LatitudeDegrees>42.91470545344054698944091796875</LatitudeDegrees>
              <LongitudeDegrees>-1.61892729811370372772216796875</LongitudeDegrees>
            </Position>
            <AltitudeMeters>500.79998779296875</AltitudeMeters>
            <DistanceMeters>83091.611042414</DistanceMeters>
          </Trackpoint>
          <Trackpoint>
            <Time>2018-08-26T10:03:26.000Z</Time>
            <Position>
              <LatitudeDegrees>42.91465600021183490753173828125</LatitudeDegrees>
              <LongitudeDegrees>-1.618891842663288116455078125</LongitudeDegrees>
            </Position>
            <AltitudeMeters>501</AltitudeMeters>
            <DistanceMeters>83097.827852463</DistanceMeters>
          </Trackpoint>
          <Trackpoint>
            <Time>2018-08-26T10:03:27.000Z</Time>
            <Position>
              <LatitudeDegrees>42.914606295526027679443359375</LatitudeDegrees>
              <LongitudeDegrees>-1.6188571415841579437255859375</LongitudeDegrees>
            </Position>
            <AltitudeMeters>501.20001220703125</AltitudeMeters>
            <DistanceMeters>83104.041756781</DistanceMeters>
          </Trackpoint>
          <Trackpoint>
            <Time>2018-08-26T10:03:28.000Z</Time>
            <Position>
              <LatitudeDegrees>42.9145575128495693206787109375</LatitudeDegrees>
              <LongitudeDegrees>-1.6188199259340763092041015625</LongitudeDegrees>
            </Position>
            <AltitudeMeters>501.600006103515625</AltitudeMeters>
            <DistanceMeters>83110.260745236</DistanceMeters>
          </Trackpoint>
          <Trackpoint>
            <Time>2018-08-26T10:03:29.000Z</Time>
            <Position>
              <LatitudeDegrees>42.91450981982052326202392578125</LatitudeDegrees>
              <LongitudeDegrees>-1.618779189884662628173828125</LongitudeDegrees>
            </Position>
            <AltitudeMeters>502.20001220703125</AltitudeMeters>
            <DistanceMeters>83116.520979399</DistanceMeters>
          </Trackpoint>
          <Trackpoint>
            <Time>2018-08-26T10:03:30.000Z</Time>
            <Position>
              <LatitudeDegrees>42.91446103714406490325927734375</LatitudeDegrees>
              <LongitudeDegrees>-1.61873987875878810882568359375</LongitudeDegrees>
            </Position>
            <AltitudeMeters>502.600006103515625</AltitudeMeters>
            <DistanceMeters>83122.82577095</DistanceMeters>
          </Trackpoint>
          <Trackpoint>
            <Time>2018-08-26T10:03:31.000Z</Time>
            <Position>
              <LatitudeDegrees>42.9144130088388919830322265625</LatitudeDegrees>
              <LongitudeDegrees>-1.61869964562356472015380859375</LongitudeDegrees>
            </Position>
            <AltitudeMeters>502.79998779296875</AltitudeMeters>
            <DistanceMeters>83129.097534099</DistanceMeters>
          </Trackpoint>
          <Trackpoint>
            <Time>2018-08-26T10:03:32.000Z</Time>
            <Position>
              <LatitudeDegrees>42.91436615400016307830810546875</LatitudeDegrees>
              <LongitudeDegrees>-1.61866025067865848541259765625</LongitudeDegrees>
            </Position>
            <AltitudeMeters>503.20001220703125</AltitudeMeters>
            <DistanceMeters>83135.222151437</DistanceMeters>
          </Trackpoint>
          <Trackpoint>
            <Time>2018-08-26T10:03:33.000Z</Time>
            <Position>
              <LatitudeDegrees>42.91432022117078304290771484375</LatitudeDegrees>
              <LongitudeDegrees>-1.61861984990537166595458984375</LongitudeDegrees>
            </Position>
            <AltitudeMeters>503.600006103515625</AltitudeMeters>
            <DistanceMeters>83141.302376183</DistanceMeters>
          </Trackpoint>
          <Trackpoint>
            <Time>2018-08-26T10:03:34.000Z</Time>
            <Position>
              <LatitudeDegrees>42.91427671909332275390625</LatitudeDegrees>
              <LongitudeDegrees>-1.61857509054243564605712890625</LongitudeDegrees>
            </Position>
            <AltitudeMeters>504.20001220703125</AltitudeMeters>
            <DistanceMeters>83147.364752873</DistanceMeters>
          </Trackpoint>
          <Trackpoint>
            <Time>2018-08-26T10:03:35.000Z</Time>
            <Position>
              <LatitudeDegrees>42.9142369888722896575927734375</LatitudeDegrees>
              <LongitudeDegrees>-1.61852731369435787200927734375</LongitudeDegrees>
            </Position>
            <AltitudeMeters>504.600006103515625</AltitudeMeters>
            <DistanceMeters>83153.256409164</DistanceMeters>
          </Trackpoint>
          <Trackpoint>
            <Time>2018-08-26T10:03:36.000Z</Time>
            <Position>
              <LatitudeDegrees>42.91419818066060543060302734375</LatitudeDegrees>
              <LongitudeDegrees>-1.6184779442846775054931640625</LongitudeDegrees>
            </Position>
            <AltitudeMeters>504.79998779296875</AltitudeMeters>
            <DistanceMeters>83159.160314234</DistanceMeters>
          </Trackpoint>
          <Trackpoint>
            <Time>2018-08-26T10:03:37.000Z</Time>
            <Position>
              <LatitudeDegrees>42.9141622222959995269775390625</LatitudeDegrees>
              <LongitudeDegrees>-1.61842321045696735382080078125</LongitudeDegrees>
            </Position>
            <AltitudeMeters>505</AltitudeMeters>
            <DistanceMeters>83165.153027644</DistanceMeters>
          </Trackpoint>
          <Trackpoint>
            <Time>2018-08-26T10:03:38.000Z</Time>
            <Position>
              <LatitudeDegrees>42.91412978433072566986083984375</LatitudeDegrees>
              <LongitudeDegrees>-1.61836110055446624755859375</LongitudeDegrees>
            </Position>
            <AltitudeMeters>505.600006103515625</AltitudeMeters>
            <DistanceMeters>83171.371290049</DistanceMeters>
          </Trackpoint>
          <Trackpoint>
            <Time>2018-08-26T10:03:39.000Z</Time>
            <Position>
              <LatitudeDegrees>42.91410036385059356689453125</LatitudeDegrees>
              <LongitudeDegrees>-1.61829697899520397186279296875</LongitudeDegrees>
            </Position>
            <AltitudeMeters>506</AltitudeMeters>
            <DistanceMeters>83177.53851649</DistanceMeters>
          </Trackpoint>
          <Trackpoint>
            <Time>2018-08-26T10:03:40.000Z</Time>
            <Position>
              <LatitudeDegrees>42.91407362557947635650634765625</LatitudeDegrees>
              <LongitudeDegrees>-1.6182318516075611114501953125</LongitudeDegrees>
            </Position>
            <AltitudeMeters>506.20001220703125</AltitudeMeters>
            <DistanceMeters>83183.623937059</DistanceMeters>
          </Trackpoint>
          <Trackpoint>
            <Time>2018-08-26T10:03:41.000Z</Time>
            <Position>
              <LatitudeDegrees>42.91404646821320056915283203125</LatitudeDegrees>
              <LongitudeDegrees>-1.61816504783928394317626953125</LongitudeDegrees>
            </Position>
            <AltitudeMeters>506.600006103515625</AltitudeMeters>
            <DistanceMeters>83189.852356473</DistanceMeters>
          </Trackpoint>
          <Trackpoint>
            <Time>2018-08-26T10:03:42.000Z</Time>
            <Position>
              <LatitudeDegrees>42.91401981376111507415771484375</LatitudeDegrees>
              <LongitudeDegrees>-1.61809732206165790557861328125</LongitudeDegrees>
            </Position>
            <AltitudeMeters>507.20001220703125</AltitudeMeters>
            <DistanceMeters>83196.119798737</DistanceMeters>
          </Trackpoint>
          <Trackpoint>
            <Time>2018-08-26T10:03:43.000Z</Time>
            <Position>
              <LatitudeDegrees>42.913995422422885894775390625</LatitudeDegrees>
              <LongitudeDegrees>-1.61803244613111019134521484375</LongitudeDegrees>
            </Position>
            <AltitudeMeters>507.399993896484375</AltitudeMeters>
            <DistanceMeters>83202.064857122</DistanceMeters>
          </Trackpoint>
          <Trackpoint>
            <Time>2018-08-26T10:03:44.000Z</Time>
            <Position>
              <LatitudeDegrees>42.91397103108465671539306640625</LatitudeDegrees>
              <LongitudeDegrees>-1.6179683245718479156494140625</LongitudeDegrees>
            </Position>
            <AltitudeMeters>507.79998779296875</AltitudeMeters>
            <DistanceMeters>83207.954980525</DistanceMeters>
          </Trackpoint>
          <Trackpoint>
            <Time>2018-08-26T10:03:45.000Z</Time>
            <Position>
              <LatitudeDegrees>42.9139463044703006744384765625</LatitudeDegrees>
              <LongitudeDegrees>-1.6179009340703487396240234375</LongitudeDegrees>
            </Position>
            <AltitudeMeters>508</AltitudeMeters>
            <DistanceMeters>83214.100204662</DistanceMeters>
          </Trackpoint>
          <Trackpoint>
            <Time>2018-08-26T10:03:46.000Z</Time>
            <Position>
              <LatitudeDegrees>42.9139224998652935028076171875</LatitudeDegrees>
              <LongitudeDegrees>-1.6178332082927227020263671875</LongitudeDegrees>
            </Position>
            <AltitudeMeters>508.20001220703125</AltitudeMeters>
            <DistanceMeters>83220.224084761</DistanceMeters>
          </Trackpoint>
          <Trackpoint>
            <Time>2018-08-26T10:03:47.000Z</Time>
            <Position>
              <LatitudeDegrees>42.91389894671738147735595703125</LatitudeDegrees>
              <LongitudeDegrees>-1.61776573397219181060791015625</LongitudeDegrees>
            </Position>
            <AltitudeMeters>508.399993896484375</AltitudeMeters>
            <DistanceMeters>83226.317661243</DistanceMeters>
          </Trackpoint>
          <Trackpoint>
            <Time>2018-08-26T10:03:48.000Z</Time>
            <Position>
              <LatitudeDegrees>42.91387413628399372100830078125</LatitudeDegrees>
              <LongitudeDegrees>-1.6176957450807094573974609375</LongitudeDegrees>
            </Position>
            <AltitudeMeters>508.600006103515625</AltitudeMeters>
            <DistanceMeters>83232.656021448</DistanceMeters>
          </Trackpoint>
          <Trackpoint>
            <Time>2018-08-26T10:03:49.000Z</Time>
            <Position>
              <LatitudeDegrees>42.913848571479320526123046875</LatitudeDegrees>
              <LongitudeDegrees>-1.61762483417987823486328125</LongitudeDegrees>
            </Position>
            <AltitudeMeters>508.79998779296875</AltitudeMeters>
            <DistanceMeters>83239.098243995</DistanceMeters>
          </Trackpoint>
          <Trackpoint>
            <Time>2018-08-26T10:03:50.000Z</Time>
            <Position>
              <LatitudeDegrees>42.9138222523033618927001953125</LatitudeDegrees>
              <LongitudeDegrees>-1.6175552643835544586181640625</LongitudeDegrees>
            </Position>
            <AltitudeMeters>508.79998779296875</AltitudeMeters>
            <DistanceMeters>83245.481323574</DistanceMeters>
          </Trackpoint>
          <Trackpoint>
            <Time>2018-08-26T10:03:51.000Z</Time>
            <Position>
              <LatitudeDegrees>42.91379618458449840545654296875</LatitudeDegrees>
              <LongitudeDegrees>-1.61748745478689670562744140625</LongitudeDegrees>
            </Position>
            <AltitudeMeters>509.20001220703125</AltitudeMeters>
            <DistanceMeters>83251.724224337</DistanceMeters>
          </Trackpoint>
          <Trackpoint>
            <Time>2018-08-26T10:03:52.000Z</Time>
            <Position>
              <LatitudeDegrees>42.91377045214176177978515625</LatitudeDegrees>
              <LongitudeDegrees>-1.61742140538990497589111328125</LongitudeDegrees>
            </Position>
            <AltitudeMeters>509.20001220703125</AltitudeMeters>
            <DistanceMeters>83257.8222449</DistanceMeters>
          </Trackpoint>
          <Trackpoint>
            <Time>2018-08-26T10:03:53.000Z</Time>
            <Position>
              <LatitudeDegrees>42.9137411154806613922119140625</LatitudeDegrees>
              <LongitudeDegrees>-1.61736155860126018524169921875</LongitudeDegrees>
            </Position>
            <AltitudeMeters>509.20001220703125</AltitudeMeters>
            <DistanceMeters>83263.693942429</DistanceMeters>
          </Trackpoint>
          <Trackpoint>
            <Time>2018-08-26T10:03:54.000Z</Time>
            <Position>
              <LatitudeDegrees>42.9137079231441020965576171875</LatitudeDegrees>
              <LongitudeDegrees>-1.617306657135486602783203125</LongitudeDegrees>
            </Position>
            <AltitudeMeters>509.600006103515625</AltitudeMeters>
            <DistanceMeters>83269.497577939</DistanceMeters>
          </Trackpoint>
          <Trackpoint>
            <Time>2018-08-26T10:03:55.000Z</Time>
            <Position>
              <LatitudeDegrees>42.9136703722178936004638671875</LatitudeDegrees>
              <LongitudeDegrees>-1.617256365716457366943359375</LongitudeDegrees>
            </Position>
            <AltitudeMeters>509.79998779296875</AltitudeMeters>
            <DistanceMeters>83275.352334141</DistanceMeters>
          </Trackpoint>
          <Trackpoint>
            <Time>2018-08-26T10:03:56.000Z</Time>
            <Position>
              <LatitudeDegrees>42.913624607026576995849609375</LatitudeDegrees>
              <LongitudeDegrees>-1.61722091026604175567626953125</LongitudeDegrees>
            </Position>
            <AltitudeMeters>510</AltitudeMeters>
            <DistanceMeters>83281.208632488</DistanceMeters>
          </Trackpoint>
          <Trackpoint>
            <Time>2018-08-26T10:03:57.000Z</Time>
            <Position>
              <LatitudeDegrees>42.91357138194143772125244140625</LatitudeDegrees>
              <LongitudeDegrees>-1.6171965189278125762939453125</LongitudeDegrees>
            </Position>
            <AltitudeMeters>510</AltitudeMeters>
            <DistanceMeters>83287.457316393</DistanceMeters>
          </Trackpoint>
          <Trackpoint>
            <Time>2018-08-26T10:03:58.000Z</Time>
            <Position>
              <LatitudeDegrees>42.91351639665663242340087890625</LatitudeDegrees>
              <LongitudeDegrees>-1.617173217236995697021484375</LongitudeDegrees>
            </Position>
            <AltitudeMeters>510.20001220703125</AltitudeMeters>
            <DistanceMeters>83293.864400559</DistanceMeters>
          </Trackpoint>
          <Trackpoint>
            <Time>2018-08-26T10:03:59.000Z</Time>
            <Position>
              <LatitudeDegrees>42.9134598188102245330810546875</LatitudeDegrees>
              <LongitudeDegrees>-1.61714362911880016326904296875</LongitudeDegrees>
            </Position>
            <AltitudeMeters>510.399993896484375</AltitudeMeters>
            <DistanceMeters>83300.606611237</DistanceMeters>
          </Trackpoint>
          <Trackpoint>
            <Time>2018-08-26T10:04:00.000Z</Time>
            <Position>
              <LatitudeDegrees>42.9134028218686580657958984375</LatitudeDegrees>
              <LongitudeDegrees>-1.61711177788674831390380859375</LongitudeDegrees>
            </Position>
            <AltitudeMeters>510.79998779296875</AltitudeMeters>
            <DistanceMeters>83307.461720121</DistanceMeters>
          </Trackpoint>
          <Trackpoint>
            <Time>2018-08-26T10:04:01.000Z</Time>
            <Position>
              <LatitudeDegrees>42.91334473527967929840087890625</LatitudeDegrees>
              <LongitudeDegrees>-1.61707657389342784881591796875</LongitudeDegrees>
            </Position>
            <AltitudeMeters>510.79998779296875</AltitudeMeters>
            <DistanceMeters>83314.535946839</DistanceMeters>
          </Trackpoint>
          <Trackpoint>
            <Time>2018-08-26T10:04:02.000Z</Time>
            <Position>
              <LatitudeDegrees>42.91328589431941509246826171875</LatitudeDegrees>
              <LongitudeDegrees>-1.61704036407172679901123046875</LongitudeDegrees>
            </Position>
            <AltitudeMeters>510.79998779296875</AltitudeMeters>
            <DistanceMeters>83321.719740187</DistanceMeters>
          </Trackpoint>
          <Trackpoint>
            <Time>2018-08-26T10:04:03.000Z</Time>
            <Position>
              <LatitudeDegrees>42.9132271371781826019287109375</LatitudeDegrees>
              <LongitudeDegrees>-1.6169987060129642486572265625</LongitudeDegrees>
            </Position>
            <AltitudeMeters>511</AltitudeMeters>
            <DistanceMeters>83329.089060355</DistanceMeters>
          </Trackpoint>
          <Trackpoint>
            <Time>2018-08-26T10:04:04.000Z</Time>
            <Position>
              <LatitudeDegrees>42.91316829621791839599609375</LatitudeDegrees>
              <LongitudeDegrees>-1.6169547848403453826904296875</LongitudeDegrees>
            </Position>
            <AltitudeMeters>511</AltitudeMeters>
            <DistanceMeters>83336.553346768</DistanceMeters>
          </Trackpoint>
          <Trackpoint>
            <Time>2018-08-26T10:04:05.000Z</Time>
            <Position>
              <LatitudeDegrees>42.91310727596282958984375</LatitudeDegrees>
              <LongitudeDegrees>-1.616913713514804840087890625</LongitudeDegrees>
            </Position>
            <AltitudeMeters>511</AltitudeMeters>
            <DistanceMeters>83344.125729842</DistanceMeters>
          </Trackpoint>
          <Trackpoint>
            <Time>2018-08-26T10:04:06.000Z</Time>
            <Position>
              <LatitudeDegrees>42.913045249879360198974609375</LatitudeDegrees>
              <LongitudeDegrees>-1.61687306128442287445068359375</LongitudeDegrees>
            </Position>
            <AltitudeMeters>511</AltitudeMeters>
            <DistanceMeters>83351.783491684</DistanceMeters>
          </Trackpoint>
          <Trackpoint>
            <Time>2018-08-26T10:04:07.000Z</Time>
            <Position>
              <LatitudeDegrees>42.91298263706266880035400390625</LatitudeDegrees>
              <LongitudeDegrees>-1.61683232523500919342041015625</LongitudeDegrees>
            </Position>
            <AltitudeMeters>511</AltitudeMeters>
            <DistanceMeters>83359.502913583</DistanceMeters>
          </Trackpoint>
          <Trackpoint>
            <Time>2018-08-26T10:04:08.000Z</Time>
            <Position>
              <LatitudeDegrees>42.912920527160167694091796875</LatitudeDegrees>
              <LongitudeDegrees>-1.61678974516689777374267578125</LongitudeDegrees>
            </Position>
            <AltitudeMeters>511</AltitudeMeters>
            <DistanceMeters>83367.238111481</DistanceMeters>
          </Trackpoint>
          <Trackpoint>
            <Time>2018-08-26T10:04:09.000Z</Time>
            <Position>
              <LatitudeDegrees>42.91285908780992031097412109375</LatitudeDegrees>
              <LongitudeDegrees>-1.6167472489178180694580078125</LongitudeDegrees>
            </Position>
            <AltitudeMeters>511</AltitudeMeters>
            <DistanceMeters>83374.903534328</DistanceMeters>
          </Trackpoint>
          <Trackpoint>
            <Time>2018-08-26T10:04:10.000Z</Time>
            <Position>
              <LatitudeDegrees>42.91279639117419719696044921875</LatitudeDegrees>
              <LongitudeDegrees>-1.61670559085905551910400390625</LongitudeDegrees>
            </Position>
            <AltitudeMeters>510.79998779296875</AltitudeMeters>
            <DistanceMeters>83382.664372548</DistanceMeters>
          </Trackpoint>
          <Trackpoint>
            <Time>2018-08-26T10:04:11.000Z</Time>
            <Position>
              <LatitudeDegrees>42.91273285634815692901611328125</LatitudeDegrees>
              <LongitudeDegrees>-1.61666384898126125335693359375</LongitudeDegrees>
            </Position>
            <AltitudeMeters>510.79998779296875</AltitudeMeters>
            <DistanceMeters>83390.511991381</DistanceMeters>
          </Trackpoint>
          <Trackpoint>
            <Time>2018-08-26T10:04:12.000Z</Time>
            <Position>
              <LatitudeDegrees>42.91266965679824352264404296875</LatitudeDegrees>
              <LongitudeDegrees>-1.61662110127508640289306640625</LongitudeDegrees>
            </Position>
            <AltitudeMeters>510.79998779296875</AltitudeMeters>
            <DistanceMeters>83398.36248638</DistanceMeters>
          </Trackpoint>
          <Trackpoint>
            <Time>2018-08-26T10:04:13.000Z</Time>
            <Position>
              <LatitudeDegrees>42.9126072116196155548095703125</LatitudeDegrees>
              <LongitudeDegrees>-1.6165752522647380828857421875</LongitudeDegrees>
            </Position>
            <AltitudeMeters>510.600006103515625</AltitudeMeters>
            <DistanceMeters>83406.254854042</DistanceMeters>
          </Trackpoint>
          <Trackpoint>
            <Time>2018-08-26T10:04:14.000Z</Time>
            <Position>
              <LatitudeDegrees>42.9125461913645267486572265625</LatitudeDegrees>
              <LongitudeDegrees>-1.61652621813118457794189453125</LongitudeDegrees>
            </Position>
            <AltitudeMeters>510.600006103515625</AltitudeMeters>
            <DistanceMeters>83414.135198939</DistanceMeters>
          </Trackpoint>
          <Trackpoint>
            <Time>2018-08-26T10:04:15.000Z</Time>
            <Position>
              <LatitudeDegrees>42.91248701512813568115234375</LatitudeDegrees>
              <LongitudeDegrees>-1.61647357977926731109619140625</LongitudeDegrees>
            </Position>
            <AltitudeMeters>510.399993896484375</AltitudeMeters>
            <DistanceMeters>83421.995465031</DistanceMeters>
          </Trackpoint>
          <Trackpoint>
            <Time>2018-08-26T10:04:16.000Z</Time>
            <Position>
              <LatitudeDegrees>42.91242792271077632904052734375</LatitudeDegrees>
              <LongitudeDegrees>-1.61641775630414485931396484375</LongitudeDegrees>
            </Position>
            <AltitudeMeters>510.399993896484375</AltitudeMeters>
            <DistanceMeters>83429.993531143</DistanceMeters>
          </Trackpoint>
          <Trackpoint>
            <Time>2018-08-26T10:04:17.000Z</Time>
            <Position>
              <LatitudeDegrees>42.91236924938857555389404296875</LatitudeDegrees>
              <LongitudeDegrees>-1.6163600049912929534912109375</LongitudeDegrees>
            </Position>
            <AltitudeMeters>510.20001220703125</AltitudeMeters>
            <DistanceMeters>83438.043365213</DistanceMeters>
          </Trackpoint>
          <Trackpoint>
            <Time>2018-08-26T10:04:18.000Z</Time>
            <Position>
              <LatitudeDegrees>42.912310659885406494140625</LatitudeDegrees>
              <LongitudeDegrees>-1.616299487650394439697265625</LongitudeDegrees>
            </Position>
            <AltitudeMeters>510.20001220703125</AltitudeMeters>
            <DistanceMeters>83446.220081302</DistanceMeters>
          </Trackpoint>
          <Trackpoint>
            <Time>2018-08-26T10:04:19.000Z</Time>
            <Position>
              <LatitudeDegrees>42.912251316010951995849609375</LatitudeDegrees>
              <LongitudeDegrees>-1.616236455738544464111328125</LongitudeDegrees>
            </Position>
            <AltitudeMeters>510.20001220703125</AltitudeMeters>
            <DistanceMeters>83454.587829669</DistanceMeters>
          </Trackpoint>
          <Trackpoint>
            <Time>2018-08-26T10:04:20.000Z</Time>
            <Position>
              <LatitudeDegrees>42.91219138540327548980712890625</LatitudeDegrees>
              <LongitudeDegrees>-1.6161705739796161651611328125</LongitudeDegrees>
            </Position>
            <AltitudeMeters>510</AltitudeMeters>
            <DistanceMeters>83463.150785977</DistanceMeters>
          </Trackpoint>
          <Trackpoint>
            <Time>2018-08-26T10:04:21.000Z</Time>
            <Position>
              <LatitudeDegrees>42.9121307842433452606201171875</LatitudeDegrees>
              <LongitudeDegrees>-1.61610276438295841217041015625</LongitudeDegrees>
            </Position>
            <AltitudeMeters>510</AltitudeMeters>
            <DistanceMeters>83471.871525843</DistanceMeters>
          </Trackpoint>
          <Trackpoint>
            <Time>2018-08-26T10:04:22.000Z</Time>
            <Position>
              <LatitudeDegrees>42.91206993162631988525390625</LatitudeDegrees>
              <LongitudeDegrees>-1.61603336222469806671142578125</LongitudeDegrees>
            </Position>
            <AltitudeMeters>510.20001220703125</AltitudeMeters>
            <DistanceMeters>83480.696228628</DistanceMeters>
          </Trackpoint>
          <Trackpoint>
            <Time>2018-08-26T10:04:23.000Z</Time>
            <Position>
              <LatitudeDegrees>42.91200899519026279449462890625</LatitudeDegrees>
              <LongitudeDegrees>-1.61596261896193027496337890625</LongitudeDegrees>
            </Position>
            <AltitudeMeters>509.79998779296875</AltitudeMeters>
            <DistanceMeters>83489.598360445</DistanceMeters>
          </Trackpoint>
          <Trackpoint>
            <Time>2018-08-26T10:04:24.000Z</Time>
            <Position>
              <LatitudeDegrees>42.91194713674485683441162109375</LatitudeDegrees>
              <LongitudeDegrees>-1.61589019931852817535400390625</LongitudeDegrees>
            </Position>
            <AltitudeMeters>509.600006103515625</AltitudeMeters>
            <DistanceMeters>83498.667314974</DistanceMeters>
          </Trackpoint>
          <Trackpoint>
            <Time>2018-08-26T10:04:25.000Z</Time>
            <Position>
              <LatitudeDegrees>42.91188427247107028961181640625</LatitudeDegrees>
              <LongitudeDegrees>-1.61581660620868206024169921875</LongitudeDegrees>
            </Position>
            <AltitudeMeters>509.399993896484375</AltitudeMeters>
            <DistanceMeters>83507.884416426</DistanceMeters>
          </Trackpoint>
          <Trackpoint>
            <Time>2018-08-26T10:04:26.000Z</Time>
            <Position>
              <LatitudeDegrees>42.91182057000696659088134765625</LatitudeDegrees>
              <LongitudeDegrees>-1.61574217490851879119873046875</LongitudeDegrees>
            </Position>
            <AltitudeMeters>509.399993896484375</AltitudeMeters>
            <DistanceMeters>83517.216407491</DistanceMeters>
          </Trackpoint>
          <Trackpoint>
            <Time>2018-08-26T10:04:27.000Z</Time>
            <Position>
              <LatitudeDegrees>42.91175569407641887664794921875</LatitudeDegrees>
              <LongitudeDegrees>-1.615667827427387237548828125</LongitudeDegrees>
            </Position>
            <AltitudeMeters>508.79998779296875</AltitudeMeters>
            <DistanceMeters>83526.643708926</DistanceMeters>
          </Trackpoint>
          <Trackpoint>
            <Time>2018-08-26T10:04:28.000Z</Time>
            <Position>
              <LatitudeDegrees>42.91169014759361743927001953125</LatitudeDegrees>
              <LongitudeDegrees>-1.615593396127223968505859375</LongitudeDegrees>
            </Position>
            <AltitudeMeters>508.79998779296875</AltitudeMeters>
            <DistanceMeters>83536.132591486</DistanceMeters>
          </Trackpoint>
          <Trackpoint>
            <Time>2018-08-26T10:04:29.000Z</Time>
            <Position>
              <LatitudeDegrees>42.91162443347275257110595703125</LatitudeDegrees>
              <LongitudeDegrees>-1.61551837809383869171142578125</LongitudeDegrees>
            </Position>
            <AltitudeMeters>508.600006103515625</AltitudeMeters>
            <DistanceMeters>83545.667043728</DistanceMeters>
          </Trackpoint>
          <Trackpoint>
            <Time>2018-08-26T10:04:30.000Z</Time>
            <Position>
              <LatitudeDegrees>42.91155871935188770294189453125</LatitudeDegrees>
              <LongitudeDegrees>-1.61544243805110454559326171875</LongitudeDegrees>
            </Position>
            <AltitudeMeters>508.20001220703125</AltitudeMeters>
            <DistanceMeters>83555.249205138</DistanceMeters>
          </Trackpoint>
          <Trackpoint>
            <Time>2018-08-26T10:04:31.000Z</Time>
            <Position>
              <LatitudeDegrees>42.91149317286908626556396484375</LatitudeDegrees>
              <LongitudeDegrees>-1.61536565981805324554443359375</LongitudeDegrees>
            </Position>
            <AltitudeMeters>507.79998779296875</AltitudeMeters>
            <DistanceMeters>83564.861475534</DistanceMeters>
          </Trackpoint>
          <Trackpoint>
            <Time>2018-08-26T10:04:32.000Z</Time>
            <Position>
              <LatitudeDegrees>42.9114270396530628204345703125</LatitudeDegrees>
              <LongitudeDegrees>-1.61528871394693851470947265625</LongitudeDegrees>
            </Position>
            <AltitudeMeters>507.600006103515625</AltitudeMeters>
            <DistanceMeters>83574.53274907</DistanceMeters>
          </Trackpoint>
          <Trackpoint>
            <Time>2018-08-26T10:04:33.000Z</Time>
            <Position>
              <LatitudeDegrees>42.91135973297059535980224609375</LatitudeDegrees>
              <LongitudeDegrees>-1.61521294154226779937744140625</LongitudeDegrees>
            </Position>
            <AltitudeMeters>507.399993896484375</AltitudeMeters>
            <DistanceMeters>83584.242228875</DistanceMeters>
          </Trackpoint>
          <Trackpoint>
            <Time>2018-08-26T10:04:34.000Z</Time>
            <Position>
              <LatitudeDegrees>42.91129167191684246063232421875</LatitudeDegrees>
              <LongitudeDegrees>-1.61513750441372394561767578125</LongitudeDegrees>
            </Position>
            <AltitudeMeters>507.20001220703125</AltitudeMeters>
            <DistanceMeters>83593.999024756</DistanceMeters>
          </Trackpoint>
          <Trackpoint>
            <Time>2018-08-26T10:04:35.000Z</Time>
            <Position>
              <LatitudeDegrees>42.9112231917679309844970703125</LatitudeDegrees>
              <LongitudeDegrees>-1.61506039090454578399658203125</LongitudeDegrees>
            </Position>
            <AltitudeMeters>506.79998779296875</AltitudeMeters>
            <DistanceMeters>83603.878604518</DistanceMeters>
          </Trackpoint>
          <Trackpoint>
            <Time>2018-08-26T10:04:36.000Z</Time>
            <Position>
              <LatitudeDegrees>42.9111534543335437774658203125</LatitudeDegrees>
              <LongitudeDegrees>-1.6149833612143993377685546875</LongitudeDegrees>
            </Position>
            <AltitudeMeters>506.600006103515625</AltitudeMeters>
            <DistanceMeters>83613.8622904</DistanceMeters>
          </Trackpoint>
          <Trackpoint>
            <Time>2018-08-26T10:04:37.000Z</Time>
            <Position>
              <LatitudeDegrees>42.91108287870883941650390625</LatitudeDegrees>
              <LongitudeDegrees>-1.61490700207650661468505859375</LongitudeDegrees>
            </Position>
            <AltitudeMeters>506.20001220703125</AltitudeMeters>
            <DistanceMeters>83623.884793599</DistanceMeters>
          </Trackpoint>
          <Trackpoint>
            <Time>2018-08-26T10:04:38.000Z</Time>
            <Position>
              <LatitudeDegrees>42.911012135446071624755859375</LatitudeDegrees>
              <LongitudeDegrees>-1.6148293018341064453125</LongitudeDegrees>
            </Position>
            <AltitudeMeters>505.79998779296875</AltitudeMeters>
            <DistanceMeters>83633.989847009</DistanceMeters>
          </Trackpoint>
          <Trackpoint>
            <Time>2018-08-26T10:04:39.000Z</Time>
            <Position>
              <LatitudeDegrees>42.9109405539929866790771484375</LatitudeDegrees>
              <LongitudeDegrees>-1.6147503443062305450439453125</LongitudeDegrees>
            </Position>
            <AltitudeMeters>505.399993896484375</AltitudeMeters>
            <DistanceMeters>83644.232474999</DistanceMeters>
          </Trackpoint>
          <Trackpoint>
            <Time>2018-08-26T10:04:40.000Z</Time>
            <Position>
              <LatitudeDegrees>42.9108688049018383026123046875</LatitudeDegrees>
              <LongitudeDegrees>-1.6146697103977203369140625</LongitudeDegrees>
            </Position>
            <AltitudeMeters>505</AltitudeMeters>
            <DistanceMeters>83654.575992085</DistanceMeters>
          </Trackpoint>
          <Trackpoint>
            <Time>2018-08-26T10:04:41.000Z</Time>
            <Position>
              <LatitudeDegrees>42.91079646907746791839599609375</LatitudeDegrees>
              <LongitudeDegrees>-1.6145863942801952362060546875</LongitudeDegrees>
            </Position>
            <AltitudeMeters>504.600006103515625</AltitudeMeters>
            <DistanceMeters>83665.108965036</DistanceMeters>
          </Trackpoint>
          <Trackpoint>
            <Time>2018-08-26T10:04:42.000Z</Time>
            <Position>
              <LatitudeDegrees>42.91072270832955837249755859375</LatitudeDegrees>
              <LongitudeDegrees>-1.6145019046962261199951171875</LongitudeDegrees>
            </Position>
            <AltitudeMeters>504.399993896484375</AltitudeMeters>
            <DistanceMeters>83675.824675561</DistanceMeters>
          </Trackpoint>
          <Trackpoint>
            <Time>2018-08-26T10:04:43.000Z</Time>
            <Position>
              <LatitudeDegrees>42.910648025572299957275390625</LatitudeDegrees>
              <LongitudeDegrees>-1.61441666074097156524658203125</LongitudeDegrees>
            </Position>
            <AltitudeMeters>504</AltitudeMeters>
            <DistanceMeters>83686.659388006</DistanceMeters>
          </Trackpoint>
          <Trackpoint>
            <Time>2018-08-26T10:04:44.000Z</Time>
            <Position>
              <LatitudeDegrees>42.910572253167629241943359375</LatitudeDegrees>
              <LongitudeDegrees>-1.61433108150959014892578125</LongitudeDegrees>
            </Position>
            <AltitudeMeters>503.79998779296875</AltitudeMeters>
            <DistanceMeters>83697.604386595</DistanceMeters>
          </Trackpoint>
          <Trackpoint>
            <Time>2018-08-26T10:04:45.000Z</Time>
            <Position>
              <LatitudeDegrees>42.91049555875360965728759765625</LatitudeDegrees>
              <LongitudeDegrees>-1.61424449644982814788818359375</LongitudeDegrees>
            </Position>
            <AltitudeMeters>503.20001220703125</AltitudeMeters>
            <DistanceMeters>83708.681012825</DistanceMeters>
          </Trackpoint>
          <Trackpoint>
            <Time>2018-08-26T10:04:46.000Z</Time>
            <Position>
              <LatitudeDegrees>42.9104183614253997802734375</LatitudeDegrees>
              <LongitudeDegrees>-1.61415782757103443145751953125</LongitudeDegrees>
            </Position>
            <AltitudeMeters>502.79998779296875</AltitudeMeters>
            <DistanceMeters>83719.805228195</DistanceMeters>
          </Trackpoint>
          <Trackpoint>
            <Time>2018-08-26T10:04:47.000Z</Time>
            <Position>
              <LatitudeDegrees>42.91034049354493618011474609375</LatitudeDegrees>
              <LongitudeDegrees>-1.6140720807015895843505859375</LongitudeDegrees>
            </Position>
            <AltitudeMeters>502.399993896484375</AltitudeMeters>
            <DistanceMeters>83730.939991307</DistanceMeters>
          </Trackpoint>
          <Trackpoint>
            <Time>2018-08-26T10:04:48.000Z</Time>
            <Position>
              <LatitudeDegrees>42.91026203893125057220458984375</LatitudeDegrees>
              <LongitudeDegrees>-1.61398750729858875274658203125</LongitudeDegrees>
            </Position>
            <AltitudeMeters>502</AltitudeMeters>
            <DistanceMeters>83742.065830057</DistanceMeters>
          </Trackpoint>
          <Trackpoint>
            <Time>2018-08-26T10:04:49.000Z</Time>
            <Position>
              <LatitudeDegrees>42.9101824946701526641845703125</LatitudeDegrees>
              <LongitudeDegrees>-1.61390553228557109832763671875</LongitudeDegrees>
            </Position>
            <AltitudeMeters>501.399993896484375</AltitudeMeters>
            <DistanceMeters>83753.158342019</DistanceMeters>
          </Trackpoint>
          <Trackpoint>
            <Time>2018-08-26T10:04:50.000Z</Time>
            <Position>
              <LatitudeDegrees>42.9101010225713253021240234375</LatitudeDegrees>
              <LongitudeDegrees>-1.61382724530994892120361328125</LongitudeDegrees>
            </Position>
            <AltitudeMeters>500.79998779296875</AltitudeMeters>
            <DistanceMeters>83764.247190063</DistanceMeters>
          </Trackpoint>
          <Trackpoint>
            <Time>2018-08-26T10:04:51.000Z</Time>
            <Position>
              <LatitudeDegrees>42.9100175388157367706298828125</LatitudeDegrees>
              <LongitudeDegrees>-1.6137525625526905059814453125</LongitudeDegrees>
            </Position>
            <AltitudeMeters>500.20001220703125</AltitudeMeters>
            <DistanceMeters>83775.355971485</DistanceMeters>
          </Trackpoint>
          <Trackpoint>
            <Time>2018-08-26T10:04:52.000Z</Time>
            <Position>
              <LatitudeDegrees>42.90993195958435535430908203125</LatitudeDegrees>
              <LongitudeDegrees>-1.61368123255670070648193359375</LongitudeDegrees>
            </Position>
            <AltitudeMeters>499.79998779296875</AltitudeMeters>
            <DistanceMeters>83786.515846678</DistanceMeters>
          </Trackpoint>
          <Trackpoint>
            <Time>2018-08-26T10:04:53.000Z</Time>
            <Position>
              <LatitudeDegrees>42.9098443686962127685546875</LatitudeDegrees>
              <LongitudeDegrees>-1.61361300386488437652587890625</LongitudeDegrees>
            </Position>
            <AltitudeMeters>499.399993896484375</AltitudeMeters>
            <DistanceMeters>83797.739865409</DistanceMeters>
          </Trackpoint>
          <Trackpoint>
            <Time>2018-08-26T10:04:54.000Z</Time>
            <Position>
              <LatitudeDegrees>42.90975526906549930572509765625</LatitudeDegrees>
              <LongitudeDegrees>-1.61354695446789264678955078125</LongitudeDegrees>
            </Position>
            <AltitudeMeters>498.79998779296875</AltitudeMeters>
            <DistanceMeters>83809.024462788</DistanceMeters>
          </Trackpoint>
          <Trackpoint>
            <Time>2018-08-26T10:04:55.000Z</Time>
            <Position>
              <LatitudeDegrees>42.90966424159705638885498046875</LatitudeDegrees>
              <LongitudeDegrees>-1.613484509289264678955078125</LongitudeDegrees>
            </Position>
            <AltitudeMeters>498.20001220703125</AltitudeMeters>
            <DistanceMeters>83820.362547646</DistanceMeters>
          </Trackpoint>
          <Trackpoint>
            <Time>2018-08-26T10:04:56.000Z</Time>
            <Position>
              <LatitudeDegrees>42.90957170538604259490966796875</LatitudeDegrees>
              <LongitudeDegrees>-1.61342675797641277313232421875</LongitudeDegrees>
            </Position>
            <AltitudeMeters>497.20001220703125</AltitudeMeters>
            <DistanceMeters>83831.686686271</DistanceMeters>
          </Trackpoint>
          <Trackpoint>
            <Time>2018-08-26T10:04:57.000Z</Time>
            <Position>
              <LatitudeDegrees>42.9094780795276165008544921875</LatitudeDegrees>
              <LongitudeDegrees>-1.6133723594248294830322265625</LongitudeDegrees>
            </Position>
            <AltitudeMeters>496.79998779296875</AltitudeMeters>
            <DistanceMeters>83843.012020959</DistanceMeters>
          </Trackpoint>
          <Trackpoint>
            <Time>2018-08-26T10:04:58.000Z</Time>
            <Position>
              <LatitudeDegrees>42.9093828611075878143310546875</LatitudeDegrees>
              <LongitudeDegrees>-1.61332215182483196258544921875</LongitudeDegrees>
            </Position>
            <AltitudeMeters>496.399993896484375</AltitudeMeters>
            <DistanceMeters>83854.373179029</DistanceMeters>
          </Trackpoint>
          <Trackpoint>
            <Time>2018-08-26T10:04:59.000Z</Time>
            <Position>
              <LatitudeDegrees>42.9092864692211151123046875</LatitudeDegrees>
              <LongitudeDegrees>-1.6132771410048007965087890625</LongitudeDegrees>
            </Position>
            <AltitudeMeters>496</AltitudeMeters>
            <DistanceMeters>83865.712060297</DistanceMeters>
          </Trackpoint>
          <Trackpoint>
            <Time>2018-08-26T10:05:00.000Z</Time>
            <Position>
              <LatitudeDegrees>42.90918923914432525634765625</LatitudeDegrees>
              <LongitudeDegrees>-1.61323481239378452301025390625</LongitudeDegrees>
            </Position>
            <AltitudeMeters>495.600006103515625</AltitudeMeters>
            <DistanceMeters>83877.070833657</DistanceMeters>
          </Trackpoint>
          <Trackpoint>
            <Time>2018-08-26T10:05:01.000Z</Time>
            <Position>
              <LatitudeDegrees>42.90909175761044025421142578125</LatitudeDegrees>
              <LongitudeDegrees>-1.6131956689059734344482421875</LongitudeDegrees>
            </Position>
            <AltitudeMeters>495.20001220703125</AltitudeMeters>
            <DistanceMeters>83888.380609641</DistanceMeters>
          </Trackpoint>
          <Trackpoint>
            <Time>2018-08-26T10:05:02.000Z</Time>
            <Position>
              <LatitudeDegrees>42.9089939408004283905029296875</LatitudeDegrees>
              <LongitudeDegrees>-1.61316105164587497711181640625</LongitudeDegrees>
            </Position>
            <AltitudeMeters>494.600006103515625</AltitudeMeters>
            <DistanceMeters>83899.627935586</DistanceMeters>
          </Trackpoint>
          <Trackpoint>
            <Time>2018-08-26T10:05:03.000Z</Time>
            <Position>
              <LatitudeDegrees>42.90889595635235309600830078125</LatitudeDegrees>
              <LongitudeDegrees>-1.61313104443252086639404296875</LongitudeDegrees>
            </Position>
            <AltitudeMeters>494.20001220703125</AltitudeMeters>
            <DistanceMeters>83910.805194087</DistanceMeters>
          </Trackpoint>
          <Trackpoint>
            <Time>2018-08-26T10:05:04.000Z</Time>
            <Position>
              <LatitudeDegrees>42.90879839099943637847900390625</LatitudeDegrees>
              <LongitudeDegrees>-1.61310422234237194061279296875</LongitudeDegrees>
            </Position>
            <AltitudeMeters>493.600006103515625</AltitudeMeters>
            <DistanceMeters>83921.882227928</DistanceMeters>
          </Trackpoint>
          <Trackpoint>
            <Time>2018-08-26T10:05:05.000Z</Time>
            <Position>
              <LatitudeDegrees>42.90870166383683681488037109375</LatitudeDegrees>
              <LongitudeDegrees>-1.613079495728015899658203125</LongitudeDegrees>
            </Position>
            <AltitudeMeters>493</AltitudeMeters>
            <DistanceMeters>83932.835473823</DistanceMeters>
          </Trackpoint>
          <Trackpoint>
            <Time>2018-08-26T10:05:06.000Z</Time>
            <Position>
              <LatitudeDegrees>42.9086063615977764129638671875</LatitudeDegrees>
              <LongitudeDegrees>-1.61305543966591358184814453125</LongitudeDegrees>
            </Position>
            <AltitudeMeters>492.600006103515625</AltitudeMeters>
            <DistanceMeters>83943.622575615</DistanceMeters>
          </Trackpoint>
          <Trackpoint>
            <Time>2018-08-26T10:05:07.000Z</Time>
            <Position>
              <LatitudeDegrees>42.90851256810128688812255859375</LatitudeDegrees>
              <LongitudeDegrees>-1.61303515546023845672607421875</LongitudeDegrees>
            </Position>
            <AltitudeMeters>492.20001220703125</AltitudeMeters>
            <DistanceMeters>83954.192348827</DistanceMeters>
          </Trackpoint>
          <Trackpoint>
            <Time>2018-08-26T10:05:08.000Z</Time>
            <Position>
              <LatitudeDegrees>42.90841986425220966339111328125</LatitudeDegrees>
              <LongitudeDegrees>-1.6130162961781024932861328125</LongitudeDegrees>
            </Position>
            <AltitudeMeters>492</AltitudeMeters>
            <DistanceMeters>83964.624533704</DistanceMeters>
          </Trackpoint>
          <Trackpoint>
            <Time>2018-08-26T10:05:09.000Z</Time>
            <Position>
              <LatitudeDegrees>42.9083280824124813079833984375</LatitudeDegrees>
              <LongitudeDegrees>-1.61299810744822025299072265625</LongitudeDegrees>
            </Position>
            <AltitudeMeters>491.600006103515625</AltitudeMeters>
            <DistanceMeters>83974.947514481</DistanceMeters>
          </Trackpoint>
          <Trackpoint>
            <Time>2018-08-26T10:05:10.000Z</Time>
            <Position>
              <LatitudeDegrees>42.908237390220165252685546875</LatitudeDegrees>
              <LongitudeDegrees>-1.61298151127994060516357421875</LongitudeDegrees>
            </Position>
            <AltitudeMeters>491.399993896484375</AltitudeMeters>
            <DistanceMeters>83985.132676148</DistanceMeters>
          </Trackpoint>
          <Trackpoint>
            <Time>2018-08-26T10:05:11.000Z</Time>
            <Position>
              <LatitudeDegrees>42.90814762003719806671142578125</LatitudeDegrees>
              <LongitudeDegrees>-1.61296491511166095733642578125</LongitudeDegrees>
            </Position>
            <AltitudeMeters>491</AltitudeMeters>
            <DistanceMeters>83995.215812103</DistanceMeters>
          </Trackpoint>
          <Trackpoint>
            <Time>2018-08-26T10:05:12.000Z</Time>
            <Position>
              <LatitudeDegrees>42.90805810131132602691650390625</LatitudeDegrees>
              <LongitudeDegrees>-1.6129512526094913482666015625</LongitudeDegrees>
            </Position>
            <AltitudeMeters>491</AltitudeMeters>
            <DistanceMeters>84005.241468236</DistanceMeters>
          </Trackpoint>
          <Trackpoint>
            <Time>2018-08-26T10:05:13.000Z</Time>
            <Position>
              <LatitudeDegrees>42.90796807967126369476318359375</LatitudeDegrees>
              <LongitudeDegrees>-1.61293775774538516998291015625</LongitudeDegrees>
            </Position>
            <AltitudeMeters>490.79998779296875</AltitudeMeters>
            <DistanceMeters>84015.320573354</DistanceMeters>
          </Trackpoint>
          <Trackpoint>
            <Time>2018-08-26T10:05:14.000Z</Time>
            <Position>
              <LatitudeDegrees>42.90787973441183567047119140625</LatitudeDegrees>
              <LongitudeDegrees>-1.61292560398578643798828125</LongitudeDegrees>
            </Position>
            <AltitudeMeters>490.79998779296875</AltitudeMeters>
            <DistanceMeters>84025.203351649</DistanceMeters>
          </Trackpoint>
          <Trackpoint>
            <Time>2018-08-26T10:05:15.000Z</Time>
            <Position>
              <LatitudeDegrees>42.9077916406095027923583984375</LatitudeDegrees>
              <LongitudeDegrees>-1.61291479133069515228271484375</LongitudeDegrees>
            </Position>
            <AltitudeMeters>490.79998779296875</AltitudeMeters>
            <DistanceMeters>84035.04767897</DistanceMeters>
          </Trackpoint>
          <Trackpoint>
            <Time>2018-08-26T10:05:16.000Z</Time>
            <Position>
              <LatitudeDegrees>42.90770337916910648345947265625</LatitudeDegrees>
              <LongitudeDegrees>-1.612903811037540435791015625</LongitudeDegrees>
            </Position>
            <AltitudeMeters>490.79998779296875</AltitudeMeters>
            <DistanceMeters>84044.912165969</DistanceMeters>
          </Trackpoint>
          <Trackpoint>
            <Time>2018-08-26T10:05:17.000Z</Time>
            <Position>
              <LatitudeDegrees>42.90761553682386875152587890625</LatitudeDegrees>
              <LongitudeDegrees>-1.61289685405790805816650390625</LongitudeDegrees>
            </Position>
            <AltitudeMeters>490.600006103515625</AltitudeMeters>
            <DistanceMeters>84054.704990476</DistanceMeters>
          </Trackpoint>
          <Trackpoint>
            <Time>2018-08-26T10:05:18.000Z</Time>
            <Position>
              <LatitudeDegrees>42.90752853266894817352294921875</LatitudeDegrees>
              <LongitudeDegrees>-1.6128912381827831268310546875</LongitudeDegrees>
            </Position>
            <AltitudeMeters>490.600006103515625</AltitudeMeters>
            <DistanceMeters>84064.399578432</DistanceMeters>
          </Trackpoint>
          <Trackpoint>
            <Time>2018-08-26T10:05:19.000Z</Time>
            <Position>
              <LatitudeDegrees>42.907442115247249603271484375</LatitudeDegrees>
              <LongitudeDegrees>-1.612890399992465972900390625</LongitudeDegrees>
            </Position>
            <AltitudeMeters>490.600006103515625</AltitudeMeters>
            <DistanceMeters>84074.01889199</DistanceMeters>
          </Trackpoint>
          <Trackpoint>
            <Time>2018-08-26T10:05:20.000Z</Time>
            <Position>
              <LatitudeDegrees>42.9073552787303924560546875</LatitudeDegrees>
              <LongitudeDegrees>-1.6128929145634174346923828125</LongitudeDegrees>
            </Position>
            <AltitudeMeters>490.600006103515625</AltitudeMeters>
            <DistanceMeters>84083.686430001</DistanceMeters>
          </Trackpoint>
          <Trackpoint>
            <Time>2018-08-26T10:05:21.000Z</Time>
            <Position>
              <LatitudeDegrees>42.9072686098515987396240234375</LatitudeDegrees>
              <LongitudeDegrees>-1.612893082201480865478515625</LongitudeDegrees>
            </Position>
            <AltitudeMeters>490.600006103515625</AltitudeMeters>
            <DistanceMeters>84093.332928731</DistanceMeters>
          </Trackpoint>
          <Trackpoint>
            <Time>2018-08-26T10:05:22.000Z</Time>
            <Position>
              <LatitudeDegrees>42.907183282077312469482421875</LatitudeDegrees>
              <LongitudeDegrees>-1.61289651878178119659423828125</LongitudeDegrees>
            </Position>
            <AltitudeMeters>490.600006103515625</AltitudeMeters>
            <DistanceMeters>84102.83417466</DistanceMeters>
          </Trackpoint>
          <Trackpoint>
            <Time>2018-08-26T10:05:23.000Z</Time>
            <Position>
              <LatitudeDegrees>42.90709904395043849945068359375</LatitudeDegrees>
              <LongitudeDegrees>-1.612897776067256927490234375</LongitudeDegrees>
            </Position>
            <AltitudeMeters>490.399993896484375</AltitudeMeters>
            <DistanceMeters>84112.21057185</DistanceMeters>
          </Trackpoint>
          <Trackpoint>
            <Time>2018-08-26T10:05:24.000Z</Time>
            <Position>
              <LatitudeDegrees>42.9070168174803256988525390625</LatitudeDegrees>
              <LongitudeDegrees>-1.612895429134368896484375</LongitudeDegrees>
            </Position>
            <AltitudeMeters>490.399993896484375</AltitudeMeters>
            <DistanceMeters>84121.364757199</DistanceMeters>
          </Trackpoint>
          <Trackpoint>
            <Time>2018-08-26T10:05:25.000Z</Time>
            <Position>
              <LatitudeDegrees>42.9069368541240692138671875</LatitudeDegrees>
              <LongitudeDegrees>-1.61288830451667308807373046875</LongitudeDegrees>
            </Position>
            <AltitudeMeters>490.600006103515625</AltitudeMeters>
            <DistanceMeters>84130.284116675</DistanceMeters>
          </Trackpoint>
          <Trackpoint>
            <Time>2018-08-26T10:05:26.000Z</Time>
            <Position>
              <LatitudeDegrees>42.90685839951038360595703125</LatitudeDegrees>
              <LongitudeDegrees>-1.6128784976899623870849609375</LongitudeDegrees>
            </Position>
            <AltitudeMeters>490.600006103515625</AltitudeMeters>
            <DistanceMeters>84139.052873766</DistanceMeters>
          </Trackpoint>
          <Trackpoint>
            <Time>2018-08-26T10:05:27.000Z</Time>
            <Position>
              <LatitudeDegrees>42.9067814536392688751220703125</LatitudeDegrees>
              <LongitudeDegrees>-1.612865589559078216552734375</LongitudeDegrees>
            </Position>
            <AltitudeMeters>490.600006103515625</AltitudeMeters>
            <DistanceMeters>84147.680964529</DistanceMeters>
          </Trackpoint>
          <Trackpoint>
            <Time>2018-08-26T10:05:28.000Z</Time>
            <Position>
              <LatitudeDegrees>42.90670551359653472900390625</LatitudeDegrees>
              <LongitudeDegrees>-1.61285209469497203826904296875</LongitudeDegrees>
            </Position>
            <AltitudeMeters>490.600006103515625</AltitudeMeters>
            <DistanceMeters>84156.204813135</DistanceMeters>
          </Trackpoint>
          <Trackpoint>
            <Time>2018-08-26T10:05:29.000Z</Time>
            <Position>
              <LatitudeDegrees>42.906630076467990875244140625</LatitudeDegrees>
              <LongitudeDegrees>-1.61283834837377071380615234375</LongitudeDegrees>
            </Position>
            <AltitudeMeters>490.79998779296875</AltitudeMeters>
            <DistanceMeters>84164.674993614</DistanceMeters>
          </Trackpoint>
          <Trackpoint>
            <Time>2018-08-26T10:05:30.000Z</Time>
            <Position>
              <LatitudeDegrees>42.90655422024428844451904296875</LatitudeDegrees>
              <LongitudeDegrees>-1.61282326094806194305419921875</LongitudeDegrees>
            </Position>
            <AltitudeMeters>490.600006103515625</AltitudeMeters>
            <DistanceMeters>84173.206254725</DistanceMeters>
          </Trackpoint>
          <Trackpoint>
            <Time>2018-08-26T10:05:31.000Z</Time>
            <Position>
              <LatitudeDegrees>42.906477190554141998291015625</LatitudeDegrees>
              <LongitudeDegrees>-1.6128082573413848876953125</LongitudeDegrees>
            </Position>
            <AltitudeMeters>490.600006103515625</AltitudeMeters>
            <DistanceMeters>84181.866729016</DistanceMeters>
          </Trackpoint>
          <Trackpoint>
            <Time>2018-08-26T10:05:32.000Z</Time>
            <Position>
              <LatitudeDegrees>42.90639848448336124420166015625</LatitudeDegrees>
              <LongitudeDegrees>-1.61279342137277126312255859375</LongitudeDegrees>
            </Position>
            <AltitudeMeters>490.79998779296875</AltitudeMeters>
            <DistanceMeters>84190.709831526</DistanceMeters>
          </Trackpoint>
          <Trackpoint>
            <Time>2018-08-26T10:05:33.000Z</Time>
            <Position>
              <LatitudeDegrees>42.90631927549839019775390625</LatitudeDegrees>
              <LongitudeDegrees>-1.61277883686125278472900390625</LongitudeDegrees>
            </Position>
            <AltitudeMeters>491.399993896484375</AltitudeMeters>
            <DistanceMeters>84199.605367478</DistanceMeters>
          </Trackpoint>
          <Trackpoint>
            <Time>2018-08-26T10:05:34.000Z</Time>
            <Position>
              <LatitudeDegrees>42.90623939596116542816162109375</LatitudeDegrees>
              <LongitudeDegrees>-1.61276601254940032958984375</LongitudeDegrees>
            </Position>
            <AltitudeMeters>491.600006103515625</AltitudeMeters>
            <DistanceMeters>84208.55706555</DistanceMeters>
          </Trackpoint>
          <Trackpoint>
            <Time>2018-08-26T10:05:35.000Z</Time>
            <Position>
              <LatitudeDegrees>42.90615943260490894317626953125</LatitudeDegrees>
              <LongitudeDegrees>-1.612753607332706451416015625</LongitudeDegrees>
            </Position>
            <AltitudeMeters>491.600006103515625</AltitudeMeters>
            <DistanceMeters>84217.514310059</DistanceMeters>
          </Trackpoint>
          <Trackpoint>
            <Time>2018-08-26T10:05:36.000Z</Time>
            <Position>
              <LatitudeDegrees>42.9060803912580013275146484375</LatitudeDegrees>
              <LongitudeDegrees>-1.61273877136409282684326171875</LongitudeDegrees>
            </Position>
            <AltitudeMeters>491.79998779296875</AltitudeMeters>
            <DistanceMeters>84226.39460609</DistanceMeters>
          </Trackpoint>
          <Trackpoint>
            <Time>2018-08-26T10:05:37.000Z</Time>
            <Position>
              <LatitudeDegrees>42.90600151754915714263916015625</LatitudeDegrees>
              <LongitudeDegrees>-1.6127229295670986175537109375</LongitudeDegrees>
            </Position>
            <AltitudeMeters>491.79998779296875</AltitudeMeters>
            <DistanceMeters>84235.268798823</DistanceMeters>
          </Trackpoint>
          <Trackpoint>
            <Time>2018-08-26T10:05:38.000Z</Time>
            <Position>
              <LatitudeDegrees>42.90592373348772525787353515625</LatitudeDegrees>
              <LongitudeDegrees>-1.612705998122692108154296875</LongitudeDegrees>
            </Position>
            <AltitudeMeters>491.79998779296875</AltitudeMeters>
            <DistanceMeters>84244.036011076</DistanceMeters>
          </Trackpoint>
          <Trackpoint>
            <Time>2018-08-26T10:05:39.000Z</Time>
            <Position>
              <LatitudeDegrees>42.9058473743498325347900390625</LatitudeDegrees>
              <LongitudeDegrees>-1.61268697120249271392822265625</LongitudeDegrees>
            </Position>
            <AltitudeMeters>491.79998779296875</AltitudeMeters>
            <DistanceMeters>84252.675606662</DistanceMeters>
          </Trackpoint>
          <Trackpoint>
            <Time>2018-08-26T10:05:40.000Z</Time>
            <Position>
              <LatitudeDegrees>42.90577135048806667327880859375</LatitudeDegrees>
              <LongitudeDegrees>-1.612669788300991058349609375</LongitudeDegrees>
            </Position>
            <AltitudeMeters>492</AltitudeMeters>
            <DistanceMeters>84261.252261179</DistanceMeters>
          </Trackpoint>
          <Trackpoint>
            <Time>2018-08-26T10:05:41.000Z</Time>
            <Position>
              <LatitudeDegrees>42.905695997178554534912109375</LatitudeDegrees>
              <LongitudeDegrees>-1.61265025846660137176513671875</LongitudeDegrees>
            </Position>
            <AltitudeMeters>492</AltitudeMeters>
            <DistanceMeters>84269.788812995</DistanceMeters>
          </Trackpoint>
          <Trackpoint>
            <Time>2018-08-26T10:05:42.000Z</Time>
            <Position>
              <LatitudeDegrees>42.9056213982403278350830078125</LatitudeDegrees>
              <LongitudeDegrees>-1.61262519657611846923828125</LongitudeDegrees>
            </Position>
            <AltitudeMeters>492</AltitudeMeters>
            <DistanceMeters>84278.339105323</DistanceMeters>
          </Trackpoint>
          <Trackpoint>
            <Time>2018-08-26T10:05:43.000Z</Time>
            <Position>
              <LatitudeDegrees>42.9055462963879108428955078125</LatitudeDegrees>
              <LongitudeDegrees>-1.6125990450382232666015625</LongitudeDegrees>
            </Position>
            <AltitudeMeters>492</AltitudeMeters>
            <DistanceMeters>84286.965102651</DistanceMeters>
          </Trackpoint>
          <Trackpoint>
            <Time>2018-08-26T10:05:44.000Z</Time>
            <Position>
              <LatitudeDegrees>42.90547111071646213531494140625</LatitudeDegrees>
              <LongitudeDegrees>-1.6125747375190258026123046875</LongitudeDegrees>
            </Position>
            <AltitudeMeters>492</AltitudeMeters>
            <DistanceMeters>84295.564889048</DistanceMeters>
          </Trackpoint>
          <Trackpoint>
            <Time>2018-08-26T10:05:45.000Z</Time>
            <Position>
              <LatitudeDegrees>42.90539634414017200469970703125</LatitudeDegrees>
              <LongitudeDegrees>-1.61255017854273319244384765625</LongitudeDegrees>
            </Position>
            <AltitudeMeters>492</AltitudeMeters>
            <DistanceMeters>84304.123626111</DistanceMeters>
          </Trackpoint>
          <Trackpoint>
            <Time>2018-08-26T10:05:46.000Z</Time>
            <Position>
              <LatitudeDegrees>42.90532283484935760498046875</LatitudeDegrees>
              <LongitudeDegrees>-1.61252201534807682037353515625</LongitudeDegrees>
            </Position>
            <AltitudeMeters>492</AltitudeMeters>
            <DistanceMeters>84312.622011334</DistanceMeters>
          </Trackpoint>
          <Trackpoint>
            <Time>2018-08-26T10:05:47.000Z</Time>
            <Position>
              <LatitudeDegrees>42.90525116957724094390869140625</LatitudeDegrees>
              <LongitudeDegrees>-1.61249108612537384033203125</LongitudeDegrees>
            </Position>
            <AltitudeMeters>492</AltitudeMeters>
            <DistanceMeters>84320.987601118</DistanceMeters>
          </Trackpoint>
          <Trackpoint>
            <Time>2018-08-26T10:05:48.000Z</Time>
            <Position>
              <LatitudeDegrees>42.90518092922866344451904296875</LatitudeDegrees>
              <LongitudeDegrees>-1.6124610789120197296142578125</LongitudeDegrees>
            </Position>
            <AltitudeMeters>492</AltitudeMeters>
            <DistanceMeters>84329.179763722</DistanceMeters>
          </Trackpoint>
          <Trackpoint>
            <Time>2018-08-26T10:05:49.000Z</Time>
            <Position>
              <LatitudeDegrees>42.9051114432513713836669921875</LatitudeDegrees>
              <LongitudeDegrees>-1.612434089183807373046875</LongitudeDegrees>
            </Position>
            <AltitudeMeters>492</AltitudeMeters>
            <DistanceMeters>84337.220618611</DistanceMeters>
          </Trackpoint>
          <Trackpoint>
            <Time>2018-08-26T10:05:50.000Z</Time>
            <Position>
              <LatitudeDegrees>42.90504145435988903045654296875</LatitudeDegrees>
              <LongitudeDegrees>-1.612412296235561370849609375</LongitudeDegrees>
            </Position>
            <AltitudeMeters>492</AltitudeMeters>
            <DistanceMeters>84345.211342641</DistanceMeters>
          </Trackpoint>
          <Trackpoint>
            <Time>2018-08-26T10:05:51.000Z</Time>
            <Position>
              <LatitudeDegrees>42.904970459640026092529296875</LatitudeDegrees>
              <LongitudeDegrees>-1.61239427514374256134033203125</LongitudeDegrees>
            </Position>
            <AltitudeMeters>492</AltitudeMeters>
            <DistanceMeters>84353.248827751</DistanceMeters>
          </Trackpoint>
          <Trackpoint>
            <Time>2018-08-26T10:05:52.000Z</Time>
            <Position>
              <LatitudeDegrees>42.904899381101131439208984375</LatitudeDegrees>
              <LongitudeDegrees>-1.612376756966114044189453125</LongitudeDegrees>
            </Position>
            <AltitudeMeters>492</AltitudeMeters>
            <DistanceMeters>84361.287997926</DistanceMeters>
          </Trackpoint>
          <Trackpoint>
            <Time>2018-08-26T10:05:53.000Z</Time>
            <Position>
              <LatitudeDegrees>42.904827632009983062744140625</LatitudeDegrees>
              <LongitudeDegrees>-1.612358652055263519287109375</LongitudeDegrees>
            </Position>
            <AltitudeMeters>492</AltitudeMeters>
            <DistanceMeters>84369.409308063</DistanceMeters>
          </Trackpoint>
          <Trackpoint>
            <Time>2018-08-26T10:05:54.000Z</Time>
            <Position>
              <LatitudeDegrees>42.90475579909980297088623046875</LatitudeDegrees>
              <LongitudeDegrees>-1.6123457439243793487548828125</LongitudeDegrees>
            </Position>
            <AltitudeMeters>492</AltitudeMeters>
            <DistanceMeters>84377.473152089</DistanceMeters>
          </Trackpoint>
          <Trackpoint>
            <Time>2018-08-26T10:05:55.000Z</Time>
            <Position>
              <LatitudeDegrees>42.90468388237059116363525390625</LatitudeDegrees>
              <LongitudeDegrees>-1.61233878694474697113037109375</LongitudeDegrees>
            </Position>
            <AltitudeMeters>492</AltitudeMeters>
            <DistanceMeters>84385.497143929</DistanceMeters>
          </Trackpoint>
          <Trackpoint>
            <Time>2018-08-26T10:05:56.000Z</Time>
            <Position>
              <LatitudeDegrees>42.90461230091750621795654296875</LatitudeDegrees>
              <LongitudeDegrees>-1.61233895458281040191650390625</LongitudeDegrees>
            </Position>
            <AltitudeMeters>492</AltitudeMeters>
            <DistanceMeters>84393.464667848</DistanceMeters>
          </Trackpoint>
          <Trackpoint>
            <Time>2018-08-26T10:05:57.000Z</Time>
            <Position>
              <LatitudeDegrees>42.90454139001667499542236328125</LatitudeDegrees>
              <LongitudeDegrees>-1.61233828403055667877197265625</LongitudeDegrees>
            </Position>
            <AltitudeMeters>492.20001220703125</AltitudeMeters>
            <DistanceMeters>84401.35703551</DistanceMeters>
          </Trackpoint>
          <Trackpoint>
            <Time>2018-08-26T10:05:58.000Z</Time>
            <Position>
              <LatitudeDegrees>42.904470227658748626708984375</LatitudeDegrees>
              <LongitudeDegrees>-1.6123366914689540863037109375</LongitudeDegrees>
            </Position>
            <AltitudeMeters>492.600006103515625</AltitudeMeters>
            <DistanceMeters>84409.279095298</DistanceMeters>
          </Trackpoint>
          <Trackpoint>
            <Time>2018-08-26T10:05:59.000Z</Time>
            <Position>
              <LatitudeDegrees>42.9043966345489025115966796875</LatitudeDegrees>
              <LongitudeDegrees>-1.6123361885547637939453125</LongitudeDegrees>
            </Position>
            <AltitudeMeters>492.79998779296875</AltitudeMeters>
            <DistanceMeters>84417.470155546</DistanceMeters>
          </Trackpoint>
          <Trackpoint>
            <Time>2018-08-26T10:06:00.000Z</Time>
            <Position>
              <LatitudeDegrees>42.904323041439056396484375</LatitudeDegrees>
              <LongitudeDegrees>-1.61233694292604923248291015625</LongitudeDegrees>
            </Position>
            <AltitudeMeters>493.20001220703125</AltitudeMeters>
            <DistanceMeters>84425.661215793</DistanceMeters>
          </Trackpoint>
          <Trackpoint>
            <Time>2018-08-26T10:06:01.000Z</Time>
            <Position>
              <LatitudeDegrees>42.90424802340567111968994140625</LatitudeDegrees>
              <LongitudeDegrees>-1.61233660764992237091064453125</LongitudeDegrees>
            </Position>
            <AltitudeMeters>493.399993896484375</AltitudeMeters>
            <DistanceMeters>84434.010598414</DistanceMeters>
          </Trackpoint>
          <Trackpoint>
            <Time>2018-08-26T10:06:02.000Z</Time>
            <Position>
              <LatitudeDegrees>42.90417325682938098907470703125</LatitudeDegrees>
              <LongitudeDegrees>-1.61233392544090747833251953125</LongitudeDegrees>
            </Position>
            <AltitudeMeters>493.600006103515625</AltitudeMeters>
            <DistanceMeters>84442.335068765</DistanceMeters>
          </Trackpoint>
          <Trackpoint>
            <Time>2018-08-26T10:06:03.000Z</Time>
            <Position>
              <LatitudeDegrees>42.90409983135759830474853515625</LatitudeDegrees>
              <LongitudeDegrees>-1.61233484745025634765625</LongitudeDegrees>
            </Position>
            <AltitudeMeters>493.79998779296875</AltitudeMeters>
            <DistanceMeters>84450.507366201</DistanceMeters>
          </Trackpoint>
          <Trackpoint>
            <Time>2018-08-26T10:06:04.000Z</Time>
            <Position>
              <LatitudeDegrees>42.90402540005743503570556640625</LatitudeDegrees>
              <LongitudeDegrees>-1.61234079860150814056396484375</LongitudeDegrees>
            </Position>
            <AltitudeMeters>494.20001220703125</AltitudeMeters>
            <DistanceMeters>84458.805217302</DistanceMeters>
          </Trackpoint>
          <Trackpoint>
            <Time>2018-08-26T10:06:05.000Z</Time>
            <Position>
              <LatitudeDegrees>42.90394962765276432037353515625</LatitudeDegrees>
              <LongitudeDegrees>-1.61234482191503047943115234375</LongitudeDegrees>
            </Position>
            <AltitudeMeters>494.20001220703125</AltitudeMeters>
            <DistanceMeters>84467.244959181</DistanceMeters>
          </Trackpoint>
          <Trackpoint>
            <Time>2018-08-26T10:06:06.000Z</Time>
            <Position>
              <LatitudeDegrees>42.9038749448955059051513671875</LatitudeDegrees>
              <LongitudeDegrees>-1.61234582774341106414794921875</LongitudeDegrees>
            </Position>
            <AltitudeMeters>494.399993896484375</AltitudeMeters>
            <DistanceMeters>84475.557488576</DistanceMeters>
          </Trackpoint>
          <Trackpoint>
            <Time>2018-08-26T10:06:07.000Z</Time>
            <Position>
              <LatitudeDegrees>42.90379975922405719757080078125</LatitudeDegrees>
              <LongitudeDegrees>-1.61234716884791851043701171875</LongitudeDegrees>
            </Position>
            <AltitudeMeters>494.600006103515625</AltitudeMeters>
            <DistanceMeters>84483.926316027</DistanceMeters>
          </Trackpoint>
          <Trackpoint>
            <Time>2018-08-26T10:06:08.000Z</Time>
            <Position>
              <LatitudeDegrees>42.903725914657115936279296875</LatitudeDegrees>
              <LongitudeDegrees>-1.6123494319617748260498046875</LongitudeDegrees>
            </Position>
            <AltitudeMeters>494.600006103515625</AltitudeMeters>
            <DistanceMeters>84492.14818639</DistanceMeters>
          </Trackpoint>
          <Trackpoint>
            <Time>2018-08-26T10:06:09.000Z</Time>
            <Position>
              <LatitudeDegrees>42.90365207009017467498779296875</LatitudeDegrees>
              <LongitudeDegrees>-1.61234750412404537200927734375</LongitudeDegrees>
            </Position>
            <AltitudeMeters>494.600006103515625</AltitudeMeters>
            <DistanceMeters>84500.368958379</DistanceMeters>
          </Trackpoint>
          <Trackpoint>
            <Time>2018-08-26T10:06:10.000Z</Time>
            <Position>
              <LatitudeDegrees>42.9035792313516139984130859375</LatitudeDegrees>
              <LongitudeDegrees>-1.61234557628631591796875</LongitudeDegrees>
            </Position>
            <AltitudeMeters>494.600006103515625</AltitudeMeters>
            <DistanceMeters>84508.478028404</DistanceMeters>
          </Trackpoint>
          <Trackpoint>
            <Time>2018-08-26T10:06:11.000Z</Time>
            <Position>
              <LatitudeDegrees>42.90350429713726043701171875</LatitudeDegrees>
              <LongitudeDegrees>-1.612344570457935333251953125</LongitudeDegrees>
            </Position>
            <AltitudeMeters>494.79998779296875</AltitudeMeters>
            <DistanceMeters>84516.818754327</DistanceMeters>
          </Trackpoint>
          <Trackpoint>
            <Time>2018-08-26T10:06:12.000Z</Time>
            <Position>
              <LatitudeDegrees>42.90343212895095348358154296875</LatitudeDegrees>
              <LongitudeDegrees>-1.61234163679182529449462890625</LongitudeDegrees>
            </Position>
            <AltitudeMeters>495</AltitudeMeters>
            <DistanceMeters>84524.853992131</DistanceMeters>
          </Trackpoint>
          <Trackpoint>
            <Time>2018-08-26T10:06:13.000Z</Time>
            <Position>
              <LatitudeDegrees>42.9033592902123928070068359375</LatitudeDegrees>
              <LongitudeDegrees>-1.61233124323189258575439453125</LongitudeDegrees>
            </Position>
            <AltitudeMeters>495</AltitudeMeters>
            <DistanceMeters>84533.005268257</DistanceMeters>
          </Trackpoint>
          <Trackpoint>
            <Time>2018-08-26T10:06:14.000Z</Time>
            <Position>
              <LatitudeDegrees>42.90328569710254669189453125</LatitudeDegrees>
              <LongitudeDegrees>-1.6123192571103572845458984375</LongitudeDegrees>
            </Position>
            <AltitudeMeters>495</AltitudeMeters>
            <DistanceMeters>84541.254003069</DistanceMeters>
          </Trackpoint>
          <Trackpoint>
            <Time>2018-08-26T10:06:15.000Z</Time>
            <Position>
              <LatitudeDegrees>42.9032121039927005767822265625</LatitudeDegrees>
              <LongitudeDegrees>-1.6123065166175365447998046875</LongitudeDegrees>
            </Position>
            <AltitudeMeters>495</AltitudeMeters>
            <DistanceMeters>84549.510944219</DistanceMeters>
          </Trackpoint>
          <Trackpoint>
            <Time>2018-08-26T10:06:16.000Z</Time>
            <Position>
              <LatitudeDegrees>42.90313926525413990020751953125</LatitudeDegrees>
              <LongitudeDegrees>-1.61229117773473262786865234375</LongitudeDegrees>
            </Position>
            <AltitudeMeters>495.399993896484375</AltitudeMeters>
            <DistanceMeters>84557.714122241</DistanceMeters>
          </Trackpoint>
          <Trackpoint>
            <Time>2018-08-26T10:06:17.000Z</Time>
            <Position>
              <LatitudeDegrees>42.90306667797267436981201171875</LatitudeDegrees>
              <LongitudeDegrees>-1.61227374337613582611083984375</LongitudeDegrees>
            </Position>
            <AltitudeMeters>495.399993896484375</AltitudeMeters>
            <DistanceMeters>84565.917300263</DistanceMeters>
          </Trackpoint>
          <Trackpoint>
            <Time>2018-08-26T10:06:18.000Z</Time>
            <Position>
              <LatitudeDegrees>42.90299559943377971649169921875</LatitudeDegrees>
              <LongitudeDegrees>-1.61225496791303157806396484375</LongitudeDegrees>
            </Position>
            <AltitudeMeters>495.399993896484375</AltitudeMeters>
            <DistanceMeters>84573.97554323</DistanceMeters>
          </Trackpoint>
          <Trackpoint>
            <Time>2018-08-26T10:06:19.000Z</Time>
            <Position>
              <LatitudeDegrees>42.90292468853294849395751953125</LatitudeDegrees>
              <LongitudeDegrees>-1.6122329235076904296875</LongitudeDegrees>
            </Position>
            <AltitudeMeters>495.399993896484375</AltitudeMeters>
            <DistanceMeters>84582.07068157</DistanceMeters>
          </Trackpoint>
          <Trackpoint>
            <Time>2018-08-26T10:06:20.000Z</Time>
            <Position>
              <LatitudeDegrees>42.90285411290824413299560546875</LatitudeDegrees>
              <LongitudeDegrees>-1.6122076101601123809814453125</LongitudeDegrees>
            </Position>
            <AltitudeMeters>495.399993896484375</AltitudeMeters>
            <DistanceMeters>84590.193103531</DistanceMeters>
          </Trackpoint>
          <Trackpoint>
            <Time>2018-08-26T10:06:21.000Z</Time>
            <Position>
              <LatitudeDegrees>42.90278353728353977203369140625</LatitudeDegrees>
              <LongitudeDegrees>-1.61217684857547283172607421875</LongitudeDegrees>
            </Position>
            <AltitudeMeters>495.399993896484375</AltitudeMeters>
            <DistanceMeters>84598.438005924</DistanceMeters>
          </Trackpoint>
          <Trackpoint>
            <Time>2018-08-26T10:06:22.000Z</Time>
            <Position>
              <LatitudeDegrees>42.9027135483920574188232421875</LatitudeDegrees>
              <LongitudeDegrees>-1.612142063677310943603515625</LongitudeDegrees>
            </Position>
            <AltitudeMeters>495.600006103515625</AltitudeMeters>
            <DistanceMeters>84606.728780428</DistanceMeters>
          </Trackpoint>
          <Trackpoint>
            <Time>2018-08-26T10:06:23.000Z</Time>
            <Position>
              <LatitudeDegrees>42.90264406241476535797119140625</LatitudeDegrees>
              <LongitudeDegrees>-1.61210509948432445526123046875</LongitudeDegrees>
            </Position>
            <AltitudeMeters>495.600006103515625</AltitudeMeters>
            <DistanceMeters>84615.02935169</DistanceMeters>
          </Trackpoint>
          <Trackpoint>
            <Time>2018-08-26T10:06:24.000Z</Time>
            <Position>
              <LatitudeDegrees>42.9025755822658538818359375</LatitudeDegrees>
              <LongitudeDegrees>-1.61206687800586223602294921875</LongitudeDegrees>
            </Position>
            <AltitudeMeters>495.600006103515625</AltitudeMeters>
            <DistanceMeters>84623.263842811</DistanceMeters>
          </Trackpoint>
          <Trackpoint>
            <Time>2018-08-26T10:06:25.000Z</Time>
            <Position>
              <LatitudeDegrees>42.90250777266919612884521484375</LatitudeDegrees>
              <LongitudeDegrees>-1.6120252199470996856689453125</LongitudeDegrees>
            </Position>
            <AltitudeMeters>495.600006103515625</AltitudeMeters>
            <DistanceMeters>84631.540991473</DistanceMeters>
          </Trackpoint>
          <Trackpoint>
            <Time>2018-08-26T10:06:26.000Z</Time>
            <Position>
              <LatitudeDegrees>42.902440465986728668212890625</LatitudeDegrees>
              <LongitudeDegrees>-1.61198146641254425048828125</LongitudeDegrees>
            </Position>
            <AltitudeMeters>495.600006103515625</AltitudeMeters>
            <DistanceMeters>84639.838298434</DistanceMeters>
          </Trackpoint>
          <Trackpoint>
            <Time>2018-08-26T10:06:27.000Z</Time>
            <Position>
              <LatitudeDegrees>42.9023739136755466461181640625</LatitudeDegrees>
              <LongitudeDegrees>-1.6119363717734813690185546875</LongitudeDegrees>
            </Position>
            <AltitudeMeters>495.600006103515625</AltitudeMeters>
            <DistanceMeters>84648.107260814</DistanceMeters>
          </Trackpoint>
          <Trackpoint>
            <Time>2018-08-26T10:06:28.000Z</Time>
            <Position>
              <LatitudeDegrees>42.90230778045952320098876953125</LatitudeDegrees>
              <LongitudeDegrees>-1.61188985221087932586669921875</LongitudeDegrees>
            </Position>
            <AltitudeMeters>495.600006103515625</AltitudeMeters>
            <DistanceMeters>84656.388226972</DistanceMeters>
          </Trackpoint>
          <Trackpoint>
            <Time>2018-08-26T10:06:29.000Z</Time>
            <Position>
              <LatitudeDegrees>42.90224189870059490203857421875</LatitudeDegrees>
              <LongitudeDegrees>-1.611839644610881805419921875</LongitudeDegrees>
            </Position>
            <AltitudeMeters>495.600006103515625</AltitudeMeters>
            <DistanceMeters>84664.785599594</DistanceMeters>
          </Trackpoint>
          <Trackpoint>
            <Time>2018-08-26T10:06:30.000Z</Time>
            <Position>
              <LatitudeDegrees>42.9021757654845714569091796875</LatitudeDegrees>
              <LongitudeDegrees>-1.61178893409669399261474609375</LongitudeDegrees>
            </Position>
            <AltitudeMeters>495.600006103515625</AltitudeMeters>
            <DistanceMeters>84673.228015917</DistanceMeters>
          </Trackpoint>
          <Trackpoint>
            <Time>2018-08-26T10:06:31.000Z</Time>
            <Position>
              <LatitudeDegrees>42.902109883725643157958984375</LatitudeDegrees>
              <LongitudeDegrees>-1.61173864267766475677490234375</LongitudeDegrees>
            </Position>
            <AltitudeMeters>495.600006103515625</AltitudeMeters>
            <DistanceMeters>84681.629151405</DistanceMeters>
          </Trackpoint>
          <Trackpoint>
            <Time>2018-08-26T10:06:32.000Z</Time>
            <Position>
              <LatitudeDegrees>42.90204383432865142822265625</LatitudeDegrees>
              <LongitudeDegrees>-1.611685417592525482177734375</LongitudeDegrees>
            </Position>
            <AltitudeMeters>495.600006103515625</AltitudeMeters>
            <DistanceMeters>84690.165174298</DistanceMeters>
          </Trackpoint>
          <Trackpoint>
            <Time>2018-08-26T10:06:33.000Z</Time>
            <Position>
              <LatitudeDegrees>42.90197770111262798309326171875</LatitudeDegrees>
              <LongitudeDegrees>-1.6116319410502910614013671875</LongitudeDegrees>
            </Position>
            <AltitudeMeters>495.399993896484375</AltitudeMeters>
            <DistanceMeters>84698.720745562</DistanceMeters>
          </Trackpoint>
          <Trackpoint>
            <Time>2018-08-26T10:06:34.000Z</Time>
            <Position>
              <LatitudeDegrees>42.90191114880144596099853515625</LatitudeDegrees>
              <LongitudeDegrees>-1.6115793026983737945556640625</LongitudeDegrees>
            </Position>
            <AltitudeMeters>495.399993896484375</AltitudeMeters>
            <DistanceMeters>84707.281592507</DistanceMeters>
          </Trackpoint>
          <Trackpoint>
            <Time>2018-08-26T10:06:35.000Z</Time>
            <Position>
              <LatitudeDegrees>42.901843674480915069580078125</LatitudeDegrees>
              <LongitudeDegrees>-1.61152624525129795074462890625</LongitudeDegrees>
            </Position>
            <AltitudeMeters>495.399993896484375</AltitudeMeters>
            <DistanceMeters>84715.948320601</DistanceMeters>
          </Trackpoint>
          <Trackpoint>
            <Time>2018-08-26T10:06:36.000Z</Time>
            <Position>
              <LatitudeDegrees>42.90177620016038417816162109375</LatitudeDegrees>
              <LongitudeDegrees>-1.6114726848900318145751953125</LongitudeDegrees>
            </Position>
            <AltitudeMeters>495.399993896484375</AltitudeMeters>
            <DistanceMeters>84724.635862194</DistanceMeters>
          </Trackpoint>
          <Trackpoint>
            <Time>2018-08-26T10:06:37.000Z</Time>
            <Position>
              <LatitudeDegrees>42.9017090611159801483154296875</LatitudeDegrees>
              <LongitudeDegrees>-1.611419208347797393798828125</LongitudeDegrees>
            </Position>
            <AltitudeMeters>495.399993896484375</AltitudeMeters>
            <DistanceMeters>84733.287991049</DistanceMeters>
          </Trackpoint>
          <Trackpoint>
            <Time>2018-08-26T10:06:38.000Z</Time>
            <Position>
              <LatitudeDegrees>42.90164242498576641082763671875</LatitudeDegrees>
              <LongitudeDegrees>-1.61136581562459468841552734375</LongitudeDegrees>
            </Position>
            <AltitudeMeters>495.399993896484375</AltitudeMeters>
            <DistanceMeters>84741.887777446</DistanceMeters>
          </Trackpoint>
          <Trackpoint>
            <Time>2018-08-26T10:06:39.000Z</Time>
            <Position>
              <LatitudeDegrees>42.9015759564936161041259765625</LatitudeDegrees>
              <LongitudeDegrees>-1.61131233908236026763916015625</LongitudeDegrees>
            </Position>
            <AltitudeMeters>495.399993896484375</AltitudeMeters>
            <DistanceMeters>84750.475479951</DistanceMeters>
          </Trackpoint>
          <Trackpoint>
            <Time>2018-08-26T10:06:40.000Z</Time>
            <Position>
              <LatitudeDegrees>42.901509739458560943603515625</LatitudeDegrees>
              <LongitudeDegrees>-1.61125970073044300079345703125</LongitudeDegrees>
            </Position>
            <AltitudeMeters>495.399993896484375</AltitudeMeters>
            <DistanceMeters>84759.004623861</DistanceMeters>
          </Trackpoint>
          <Trackpoint>
            <Time>2018-08-26T10:06:41.000Z</Time>
            <Position>
              <LatitudeDegrees>42.90144377388060092926025390625</LatitudeDegrees>
              <LongitudeDegrees>-1.6112068109214305877685546875</LongitudeDegrees>
            </Position>
            <AltitudeMeters>495.399993896484375</AltitudeMeters>
            <DistanceMeters>84767.519462894</DistanceMeters>
          </Trackpoint>
          <Trackpoint>
            <Time>2018-08-26T10:06:42.000Z</Time>
            <Position>
              <LatitudeDegrees>42.9013784788548946380615234375</LatitudeDegrees>
              <LongitudeDegrees>-1.61115274764597415924072265625</LongitudeDegrees>
            </Position>
            <AltitudeMeters>495.399993896484375</AltitudeMeters>
            <DistanceMeters>84776.019441814</DistanceMeters>
          </Trackpoint>
          <Trackpoint>
            <Time>2018-08-26T10:06:43.000Z</Time>
            <Position>
              <LatitudeDegrees>42.901313267648220062255859375</LatitudeDegrees>
              <LongitudeDegrees>-1.6111022047698497772216796875</LongitudeDegrees>
            </Position>
            <AltitudeMeters>495.20001220703125</AltitudeMeters>
            <DistanceMeters>84784.366661102</DistanceMeters>
          </Trackpoint>
          <Trackpoint>
            <Time>2018-08-26T10:06:44.000Z</Time>
            <Position>
              <LatitudeDegrees>42.90124830789864063262939453125</LatitudeDegrees>
              <LongitudeDegrees>-1.611051075160503387451171875</LongitudeDegrees>
            </Position>
            <AltitudeMeters>495.20001220703125</AltitudeMeters>
            <DistanceMeters>84792.712257522</DistanceMeters>
          </Trackpoint>
          <Trackpoint>
            <Time>2018-08-26T10:06:45.000Z</Time>
            <Position>
              <LatitudeDegrees>42.9011835157871246337890625</LatitudeDegrees>
              <LongitudeDegrees>-1.61099868826568126678466796875</LongitudeDegrees>
            </Position>
            <AltitudeMeters>495.20001220703125</AltitudeMeters>
            <DistanceMeters>84801.09348444</DistanceMeters>
          </Trackpoint>
          <Trackpoint>
            <Time>2018-08-26T10:06:46.000Z</Time>
            <Position>
              <LatitudeDegrees>42.90111855603754520416259765625</LatitudeDegrees>
              <LongitudeDegrees>-1.61094722338020801544189453125</LongitudeDegrees>
            </Position>
            <AltitudeMeters>495</AltitudeMeters>
            <DistanceMeters>84809.453135246</DistanceMeters>
          </Trackpoint>
          <Trackpoint>
            <Time>2018-08-26T10:06:47.000Z</Time>
            <Position>
              <LatitudeDegrees>42.90105351246893405914306640625</LatitudeDegrees>
              <LongitudeDegrees>-1.61089559085667133331298828125</LongitudeDegrees>
            </Position>
            <AltitudeMeters>495</AltitudeMeters>
            <DistanceMeters>84817.827356026</DistanceMeters>
          </Trackpoint>
          <Trackpoint>
            <Time>2018-08-26T10:06:48.000Z</Time>
            <Position>
              <LatitudeDegrees>42.900988720357418060302734375</LatitudeDegrees>
              <LongitudeDegrees>-1.61084379069507122039794921875</LongitudeDegrees>
            </Position>
            <AltitudeMeters>494.79998779296875</AltitudeMeters>
            <DistanceMeters>84826.184305901</DistanceMeters>
          </Trackpoint>
          <Trackpoint>
            <Time>2018-08-26T10:06:49.000Z</Time>
            <Position>
              <LatitudeDegrees>42.90092392824590206146240234375</LatitudeDegrees>
              <LongitudeDegrees>-1.6107914038002490997314453125</LongitudeDegrees>
            </Position>
            <AltitudeMeters>494.79998779296875</AltitudeMeters>
            <DistanceMeters>84834.564994094</DistanceMeters>
          </Trackpoint>
          <Trackpoint>
            <Time>2018-08-26T10:06:50.000Z</Time>
            <Position>
              <LatitudeDegrees>42.90085938759148120880126953125</LatitudeDegrees>
              <LongitudeDegrees>-1.610737927258014678955078125</LongitudeDegrees>
            </Position>
            <AltitudeMeters>494.79998779296875</AltitudeMeters>
            <DistanceMeters>84842.968279034</DistanceMeters>
          </Trackpoint>
          <Trackpoint>
            <Time>2018-08-26T10:06:51.000Z</Time>
            <Position>
              <LatitudeDegrees>42.90079400874674320220947265625</LatitudeDegrees>
              <LongitudeDegrees>-1.6106844507157802581787109375</LongitudeDegrees>
            </Position>
            <AltitudeMeters>494.600006103515625</AltitudeMeters>
            <DistanceMeters>84851.451243091</DistanceMeters>
          </Trackpoint>
          <Trackpoint>
            <Time>2018-08-26T10:06:52.000Z</Time>
            <Position>
              <LatitudeDegrees>42.90072795934975147247314453125</LatitudeDegrees>
              <LongitudeDegrees>-1.6106321476399898529052734375</LongitudeDegrees>
            </Position>
            <AltitudeMeters>494.600006103515625</AltitudeMeters>
            <DistanceMeters>84859.949628314</DistanceMeters>
          </Trackpoint>
          <Trackpoint>
            <Time>2018-08-26T10:06:53.000Z</Time>
            <Position>
              <LatitudeDegrees>42.900662161409854888916015625</LatitudeDegrees>
              <LongitudeDegrees>-1.6105795092880725860595703125</LongitudeDegrees>
            </Position>
            <AltitudeMeters>494.600006103515625</AltitudeMeters>
            <DistanceMeters>84868.437381248</DistanceMeters>
          </Trackpoint>
          <Trackpoint>
            <Time>2018-08-26T10:06:54.000Z</Time>
            <Position>
              <LatitudeDegrees>42.90059602819383144378662109375</LatitudeDegrees>
              <LongitudeDegrees>-1.61052695475518703460693359375</LongitudeDegrees>
            </Position>
            <AltitudeMeters>494.600006103515625</AltitudeMeters>
            <DistanceMeters>84876.953810899</DistanceMeters>
          </Trackpoint>
          <Trackpoint>
            <Time>2018-08-26T10:06:55.000Z</Time>
            <Position>
              <LatitudeDegrees>42.90052997879683971405029296875</LatitudeDegrees>
              <LongitudeDegrees>-1.6104749031364917755126953125</LongitudeDegrees>
            </Position>
            <AltitudeMeters>494.600006103515625</AltitudeMeters>
            <DistanceMeters>84885.442627661</DistanceMeters>
          </Trackpoint>
          <Trackpoint>
            <Time>2018-08-26T10:06:56.000Z</Time>
            <Position>
              <LatitudeDegrees>42.90046426467597484588623046875</LatitudeDegrees>
              <LongitudeDegrees>-1.61042201332747936248779296875</LongitudeDegrees>
            </Position>
            <AltitudeMeters>494.600006103515625</AltitudeMeters>
            <DistanceMeters>84893.93357168</DistanceMeters>
          </Trackpoint>
          <Trackpoint>
            <Time>2018-08-26T10:06:57.000Z</Time>
            <Position>
              <LatitudeDegrees>42.9003984667360782623291015625</LatitudeDegrees>
              <LongitudeDegrees>-1.61036920733749866485595703125</LongitudeDegrees>
            </Position>
            <AltitudeMeters>494.399993896484375</AltitudeMeters>
            <DistanceMeters>84902.428768613</DistanceMeters>
          </Trackpoint>
          <Trackpoint>
            <Time>2018-08-26T10:06:58.000Z</Time>
            <Position>
              <LatitudeDegrees>42.90033300407230854034423828125</LatitudeDegrees>
              <LongitudeDegrees>-1.61031656898558139801025390625</LongitudeDegrees>
            </Position>
            <AltitudeMeters>494.399993896484375</AltitudeMeters>
            <DistanceMeters>84910.885078409</DistanceMeters>
          </Trackpoint>
          <Trackpoint>
            <Time>2018-08-26T10:06:59.000Z</Time>
            <Position>
              <LatitudeDegrees>42.9002677090466022491455078125</LatitudeDegrees>
              <LongitudeDegrees>-1.610263176262378692626953125</LongitudeDegrees>
            </Position>
            <AltitudeMeters>494.399993896484375</AltitudeMeters>
            <DistanceMeters>84919.35685789</DistanceMeters>
          </Trackpoint>
          <Trackpoint>
            <Time>2018-08-26T10:07:00.000Z</Time>
            <Position>
              <LatitudeDegrees>42.90020224638283252716064453125</LatitudeDegrees>
              <LongitudeDegrees>-1.61020995117723941802978515625</LongitudeDegrees>
            </Position>
            <AltitudeMeters>494.399993896484375</AltitudeMeters>
            <DistanceMeters>84927.83716029</DistanceMeters>
          </Trackpoint>
          <Trackpoint>
            <Time>2018-08-26T10:07:01.000Z</Time>
            <Position>
              <LatitudeDegrees>42.90013611316680908203125</LatitudeDegrees>
              <LongitudeDegrees>-1.6101584024727344512939453125</LongitudeDegrees>
            </Position>
            <AltitudeMeters>494.399993896484375</AltitudeMeters>
            <DistanceMeters>84936.313202302</DistanceMeters>
          </Trackpoint>
          <Trackpoint>
            <Time>2018-08-26T10:07:02.000Z</Time>
            <Position>
              <LatitudeDegrees>42.900069057941436767578125</LatitudeDegrees>
              <LongitudeDegrees>-1.6101086139678955078125</LongitudeDegrees>
            </Position>
            <AltitudeMeters>494.399993896484375</AltitudeMeters>
            <DistanceMeters>84944.809462132</DistanceMeters>
          </Trackpoint>
          <Trackpoint>
            <Time>2018-08-26T10:07:03.000Z</Time>
            <Position>
              <LatitudeDegrees>42.90000133216381072998046875</LatitudeDegrees>
              <LongitudeDegrees>-1.6100608371198177337646484375</LongitudeDegrees>
            </Position>
            <AltitudeMeters>494.399993896484375</AltitudeMeters>
            <DistanceMeters>84953.294554912</DistanceMeters>
          </Trackpoint>
          <Trackpoint>
            <Time>2018-08-26T10:07:04.000Z</Time>
            <Position>
              <LatitudeDegrees>42.89993335492908954620361328125</LatitudeDegrees>
              <LongitudeDegrees>-1.61001431755721569061279296875</LongitudeDegrees>
            </Position>
            <AltitudeMeters>494.399993896484375</AltitudeMeters>
            <DistanceMeters>84961.757802891</DistanceMeters>
          </Trackpoint>
          <Trackpoint>
            <Time>2018-08-26T10:07:05.000Z</Time>
            <Position>
              <LatitudeDegrees>42.8998647071421146392822265625</LatitudeDegrees>
              <LongitudeDegrees>-1.60997006110846996307373046875</LongitudeDegrees>
            </Position>
            <AltitudeMeters>494.20001220703125</AltitudeMeters>
            <DistanceMeters>84970.208237467</DistanceMeters>
          </Trackpoint>
          <Trackpoint>
            <Time>2018-08-26T10:07:06.000Z</Time>
            <Position>
              <LatitudeDegrees>42.899794466793537139892578125</LatitudeDegrees>
              <LongitudeDegrees>-1.6099287383258342742919921875</LongitudeDegrees>
            </Position>
            <AltitudeMeters>494.20001220703125</AltitudeMeters>
            <DistanceMeters>84978.720424811</DistanceMeters>
          </Trackpoint>
          <Trackpoint>
            <Time>2018-08-26T10:07:07.000Z</Time>
            <Position>
              <LatitudeDegrees>42.89972313679754734039306640625</LatitudeDegrees>
              <LongitudeDegrees>-1.60988934338092803955078125</LongitudeDegrees>
            </Position>
            <AltitudeMeters>494.20001220703125</AltitudeMeters>
            <DistanceMeters>84987.283381118</DistanceMeters>
          </Trackpoint>
          <Trackpoint>
            <Time>2018-08-26T10:07:08.000Z</Time>
            <Position>
              <LatitudeDegrees>42.89965071715414524078369140625</LatitudeDegrees>
              <LongitudeDegrees>-1.60985288210213184356689453125</LongitudeDegrees>
            </Position>
            <AltitudeMeters>494.20001220703125</AltitudeMeters>
            <DistanceMeters>84995.874237582</DistanceMeters>
          </Trackpoint>
          <Trackpoint>
            <Time>2018-08-26T10:07:09.000Z</Time>
            <Position>
              <LatitudeDegrees>42.89957745932042598724365234375</LatitudeDegrees>
              <LongitudeDegrees>-1.6098194383084774017333984375</LongitudeDegrees>
            </Position>
            <AltitudeMeters>494.20001220703125</AltitudeMeters>
            <DistanceMeters>85004.470873297</DistanceMeters>
          </Trackpoint>
          <Trackpoint>
            <Time>2018-08-26T10:07:10.000Z</Time>
            <Position>
              <LatitudeDegrees>42.8995039500296115875244140625</LatitudeDegrees>
              <LongitudeDegrees>-1.60978850908577442169189453125</LongitudeDegrees>
            </Position>
            <AltitudeMeters>494.20001220703125</AltitudeMeters>
            <DistanceMeters>85013.032247632</DistanceMeters>
          </Trackpoint>
          <Trackpoint>
            <Time>2018-08-26T10:07:11.000Z</Time>
            <Position>
              <LatitudeDegrees>42.89942943491041660308837890625</LatitudeDegrees>
              <LongitudeDegrees>-1.60976051352918148040771484375</LongitudeDegrees>
            </Position>
            <AltitudeMeters>494.20001220703125</AltitudeMeters>
            <DistanceMeters>85021.634658716</DistanceMeters>
          </Trackpoint>
          <Trackpoint>
            <Time>2018-08-26T10:07:12.000Z</Time>
            <Position>
              <LatitudeDegrees>42.8993540816009044647216796875</LatitudeDegrees>
              <LongitudeDegrees>-1.6097344458103179931640625</LongitudeDegrees>
            </Position>
            <AltitudeMeters>494</AltitudeMeters>
            <DistanceMeters>85030.28678757</DistanceMeters>
          </Trackpoint>
          <Trackpoint>
            <Time>2018-08-26T10:07:13.000Z</Time>
            <Position>
              <LatitudeDegrees>42.89927755482494831085205078125</LatitudeDegrees>
              <LongitudeDegrees>-1.60971164703369140625</LongitudeDegrees>
            </Position>
            <AltitudeMeters>494</AltitudeMeters>
            <DistanceMeters>85039.004938374</DistanceMeters>
          </Trackpoint>
          <Trackpoint>
            <Time>2018-08-26T10:07:14.000Z</Time>
            <Position>
              <LatitudeDegrees>42.89920094422996044158935546875</LatitudeDegrees>
              <LongitudeDegrees>-1.60968842916190624237060546875</LongitudeDegrees>
            </Position>
            <AltitudeMeters>494</AltitudeMeters>
            <DistanceMeters>85047.739128994</DistanceMeters>
          </Trackpoint>
          <Trackpoint>
            <Time>2018-08-26T10:07:15.000Z</Time>
            <Position>
              <LatitudeDegrees>42.89912433363497257232666015625</LatitudeDegrees>
              <LongitudeDegrees>-1.6096642054617404937744140625</LongitudeDegrees>
            </Position>
            <AltitudeMeters>493.79998779296875</AltitudeMeters>
            <DistanceMeters>85056.491909613</DistanceMeters>
          </Trackpoint>
          <Trackpoint>
            <Time>2018-08-26T10:07:16.000Z</Time>
            <Position>
              <LatitudeDegrees>42.89904638193547725677490234375</LatitudeDegrees>
              <LongitudeDegrees>-1.60964232869446277618408203125</LongitudeDegrees>
            </Position>
            <AltitudeMeters>493.79998779296875</AltitudeMeters>
            <DistanceMeters>85065.349296594</DistanceMeters>
          </Trackpoint>
          <Trackpoint>
            <Time>2018-08-26T10:07:17.000Z</Time>
            <Position>
              <LatitudeDegrees>42.89896792732179164886474609375</LatitudeDegrees>
              <LongitudeDegrees>-1.60962388850748538970947265625</LongitudeDegrees>
            </Position>
            <AltitudeMeters>493.600006103515625</AltitudeMeters>
            <DistanceMeters>85074.209741538</DistanceMeters>
          </Trackpoint>
          <Trackpoint>
            <Time>2018-08-26T10:07:18.000Z</Time>
            <Position>
              <LatitudeDegrees>42.89888930507004261016845703125</LatitudeDegrees>
              <LongitudeDegrees>-1.60960695706307888031005859375</LongitudeDegrees>
            </Position>
            <AltitudeMeters>493.600006103515625</AltitudeMeters>
            <DistanceMeters>85083.069167279</DistanceMeters>
          </Trackpoint>
          <Trackpoint>
            <Time>2018-08-26T10:07:19.000Z</Time>
            <Position>
              <LatitudeDegrees>42.8988105989992618560791015625</LatitudeDegrees>
              <LongitudeDegrees>-1.60958918742835521697998046875</LongitudeDegrees>
            </Position>
            <AltitudeMeters>493.399993896484375</AltitudeMeters>
            <DistanceMeters>85091.947937878</DistanceMeters>
          </Trackpoint>
          <Trackpoint>
            <Time>2018-08-26T10:07:20.000Z</Time>
            <Position>
              <LatitudeDegrees>42.89873189292848110198974609375</LatitudeDegrees>
              <LongitudeDegrees>-1.6095709986984729766845703125</LongitudeDegrees>
            </Position>
            <AltitudeMeters>493.399993896484375</AltitudeMeters>
            <DistanceMeters>85100.83280863</DistanceMeters>
          </Trackpoint>
          <Trackpoint>
            <Time>2018-08-26T10:07:21.000Z</Time>
            <Position>
              <LatitudeDegrees>42.898652851581573486328125</LatitudeDegrees>
              <LongitudeDegrees>-1.60955213941633701324462890625</LongitudeDegrees>
            </Position>
            <AltitudeMeters>493.399993896484375</AltitudeMeters>
            <DistanceMeters>85109.763297707</DistanceMeters>
          </Trackpoint>
          <Trackpoint>
            <Time>2018-08-26T10:07:22.000Z</Time>
            <Position>
              <LatitudeDegrees>42.8985738940536975860595703125</LatitudeDegrees>
              <LongitudeDegrees>-1.60953462123870849609375</LongitudeDegrees>
            </Position>
            <AltitudeMeters>493</AltitudeMeters>
            <DistanceMeters>85118.666443837</DistanceMeters>
          </Trackpoint>
          <Trackpoint>
            <Time>2018-08-26T10:07:23.000Z</Time>
            <Position>
              <LatitudeDegrees>42.89849552325904369354248046875</LatitudeDegrees>
              <LongitudeDegrees>-1.6095156781375408172607421875</LongitudeDegrees>
            </Position>
            <AltitudeMeters>493</AltitudeMeters>
            <DistanceMeters>85127.524850257</DistanceMeters>
          </Trackpoint>
          <Trackpoint>
            <Time>2018-08-26T10:07:24.000Z</Time>
            <Position>
              <LatitudeDegrees>42.898417152464389801025390625</LatitudeDegrees>
              <LongitudeDegrees>-1.6094975732266902923583984375</LongitudeDegrees>
            </Position>
            <AltitudeMeters>493</AltitudeMeters>
            <DistanceMeters>85136.371526047</DistanceMeters>
          </Trackpoint>
          <Trackpoint>
            <Time>2018-08-26T10:07:25.000Z</Time>
            <Position>
              <LatitudeDegrees>42.89833836257457733154296875</LatitudeDegrees>
              <LongitudeDegrees>-1.60948122851550579071044921875</LongitudeDegrees>
            </Position>
            <AltitudeMeters>493</AltitudeMeters>
            <DistanceMeters>85145.240629492</DistanceMeters>
          </Trackpoint>
          <Trackpoint>
            <Time>2018-08-26T10:07:26.000Z</Time>
            <Position>
              <LatitudeDegrees>42.89826015941798686981201171875</LatitudeDegrees>
              <LongitudeDegrees>-1.6094635426998138427734375</LongitudeDegrees>
            </Position>
            <AltitudeMeters>492.79998779296875</AltitudeMeters>
            <DistanceMeters>85154.063285495</DistanceMeters>
          </Trackpoint>
          <Trackpoint>
            <Time>2018-08-26T10:07:27.000Z</Time>
            <Position>
              <LatitudeDegrees>42.8981822915375232696533203125</LatitudeDegrees>
              <LongitudeDegrees>-1.60944518633186817169189453125</LongitudeDegrees>
            </Position>
            <AltitudeMeters>492.79998779296875</AltitudeMeters>
            <DistanceMeters>85162.858263313</DistanceMeters>
          </Trackpoint>
          <Trackpoint>
            <Time>2018-08-26T10:07:28.000Z</Time>
            <Position>
              <LatitudeDegrees>42.89810501039028167724609375</LatitudeDegrees>
              <LongitudeDegrees>-1.60942674614489078521728515625</LongitudeDegrees>
            </Position>
            <AltitudeMeters>492.600006103515625</AltitudeMeters>
            <DistanceMeters>85171.590385935</DistanceMeters>
          </Trackpoint>
          <Trackpoint>
            <Time>2018-08-26T10:07:29.000Z</Time>
            <Position>
              <LatitudeDegrees>42.8980280645191669464111328125</LatitudeDegrees>
              <LongitudeDegrees>-1.60940947942435741424560546875</LongitudeDegrees>
            </Position>
            <AltitudeMeters>492.399993896484375</AltitudeMeters>
            <DistanceMeters>85180.269608118</DistanceMeters>
          </Trackpoint>
          <Trackpoint>
            <Time>2018-08-26T10:07:30.000Z</Time>
            <Position>
              <LatitudeDegrees>42.89795078337192535400390625</LatitudeDegrees>
              <LongitudeDegrees>-1.609392464160919189453125</LongitudeDegrees>
            </Position>
            <AltitudeMeters>492.399993896484375</AltitudeMeters>
            <DistanceMeters>85188.982060275</DistanceMeters>
          </Trackpoint>
          <Trackpoint>
            <Time>2018-08-26T10:07:31.000Z</Time>
            <Position>
              <LatitudeDegrees>42.8978741727769374847412109375</LatitudeDegrees>
              <LongitudeDegrees>-1.6093751974403858184814453125</LongitudeDegrees>
            </Position>
            <AltitudeMeters>492.399993896484375</AltitudeMeters>
            <DistanceMeters>85197.624790882</DistanceMeters>
          </Trackpoint>
          <Trackpoint>
            <Time>2018-08-26T10:07:32.000Z</Time>
            <Position>
              <LatitudeDegrees>42.89779789745807647705078125</LatitudeDegrees>
              <LongitudeDegrees>-1.6093589365482330322265625</LongitudeDegrees>
            </Position>
            <AltitudeMeters>492.399993896484375</AltitudeMeters>
            <DistanceMeters>85206.218274759</DistanceMeters>
          </Trackpoint>
          <Trackpoint>
            <Time>2018-08-26T10:07:33.000Z</Time>
            <Position>
              <LatitudeDegrees>42.89772187359631061553955078125</LatitudeDegrees>
              <LongitudeDegrees>-1.60934351384639739990234375</LongitudeDegrees>
            </Position>
            <AltitudeMeters>492.20001220703125</AltitudeMeters>
            <DistanceMeters>85214.772790497</DistanceMeters>
          </Trackpoint>
          <Trackpoint>
            <Time>2018-08-26T10:07:34.000Z</Time>
            <Position>
              <LatitudeDegrees>42.8976458497345447540283203125</LatitudeDegrees>
              <LongitudeDegrees>-1.609328426420688629150390625</LongitudeDegrees>
            </Position>
            <AltitudeMeters>492</AltitudeMeters>
            <DistanceMeters>85223.323082825</DistanceMeters>
          </Trackpoint>
          <Trackpoint>
            <Time>2018-08-26T10:07:35.000Z</Time>
            <Position>
              <LatitudeDegrees>42.89756982587277889251708984375</LatitudeDegrees>
              <LongitudeDegrees>-1.60931308753788471221923828125</LongitudeDegrees>
            </Position>
            <AltitudeMeters>492</AltitudeMeters>
            <DistanceMeters>85231.876542905</DistanceMeters>
          </Trackpoint>
          <Trackpoint>
            <Time>2018-08-26T10:07:36.000Z</Time>
            <Position>
              <LatitudeDegrees>42.89749371819198131561279296875</LatitudeDegrees>
              <LongitudeDegrees>-1.609298251569271087646484375</LongitudeDegrees>
            </Position>
            <AltitudeMeters>491.79998779296875</AltitudeMeters>
            <DistanceMeters>85240.433169566</DistanceMeters>
          </Trackpoint>
          <Trackpoint>
            <Time>2018-08-26T10:07:37.000Z</Time>
            <Position>
              <LatitudeDegrees>42.8974175266921520233154296875</LatitudeDegrees>
              <LongitudeDegrees>-1.6092843376100063323974609375</LongitudeDegrees>
            </Position>
            <AltitudeMeters>491.79998779296875</AltitudeMeters>
            <DistanceMeters>85248.98874083</DistanceMeters>
          </Trackpoint>
          <Trackpoint>
            <Time>2018-08-26T10:07:38.000Z</Time>
            <Position>
              <LatitudeDegrees>42.89734116755425930023193359375</LatitudeDegrees>
              <LongitudeDegrees>-1.60927201621234416961669921875</LongitudeDegrees>
            </Position>
            <AltitudeMeters>491.79998779296875</AltitudeMeters>
            <DistanceMeters>85257.546422756</DistanceMeters>
          </Trackpoint>
          <Trackpoint>
            <Time>2018-08-26T10:07:39.000Z</Time>
            <Position>
              <LatitudeDegrees>42.89726422168314456939697265625</LatitudeDegrees>
              <LongitudeDegrees>-1.60926095210015773773193359375</LongitudeDegrees>
            </Position>
            <AltitudeMeters>491.79998779296875</AltitudeMeters>
            <DistanceMeters>85266.15827609</DistanceMeters>
          </Trackpoint>
          <Trackpoint>
            <Time>2018-08-26T10:07:40.000Z</Time>
            <Position>
              <LatitudeDegrees>42.89718677289783954620361328125</LatitudeDegrees>
              <LongitudeDegrees>-1.60925139673054218292236328125</LongitudeDegrees>
            </Position>
            <AltitudeMeters>491.79998779296875</AltitudeMeters>
            <DistanceMeters>85274.813535426</DistanceMeters>
          </Trackpoint>
          <Trackpoint>
            <Time>2018-08-26T10:07:41.000Z</Time>
            <Position>
              <LatitudeDegrees>42.89710932411253452301025390625</LatitudeDegrees>
              <LongitudeDegrees>-1.6092424280941486358642578125</LongitudeDegrees>
            </Position>
            <AltitudeMeters>491.600006103515625</AltitudeMeters>
            <DistanceMeters>85283.464620535</DistanceMeters>
          </Trackpoint>
          <Trackpoint>
            <Time>2018-08-26T10:07:42.000Z</Time>
            <Position>
              <LatitudeDegrees>42.89703170768916606903076171875</LatitudeDegrees>
              <LongitudeDegrees>-1.60923563875257968902587890625</LongitudeDegrees>
            </Position>
            <AltitudeMeters>491.600006103515625</AltitudeMeters>
            <DistanceMeters>85292.120923114</DistanceMeters>
          </Trackpoint>
          <Trackpoint>
            <Time>2018-08-26T10:07:43.000Z</Time>
            <Position>
              <LatitudeDegrees>42.89695275016129016876220703125</LatitudeDegrees>
              <LongitudeDegrees>-1.60923044197261333465576171875</LongitudeDegrees>
            </Position>
            <AltitudeMeters>491.600006103515625</AltitudeMeters>
            <DistanceMeters>85300.919493757</DistanceMeters>
          </Trackpoint>
          <Trackpoint>
            <Time>2018-08-26T10:07:44.000Z</Time>
            <Position>
              <LatitudeDegrees>42.8968732059001922607421875</LatitudeDegrees>
              <LongitudeDegrees>-1.60922490991652011871337890625</LongitudeDegrees>
            </Position>
            <AltitudeMeters>491.600006103515625</AltitudeMeters>
            <DistanceMeters>85309.784523666</DistanceMeters>
          </Trackpoint>
          <Trackpoint>
            <Time>2018-08-26T10:07:45.000Z</Time>
            <Position>
              <LatitudeDegrees>42.89679332636296749114990234375</LatitudeDegrees>
              <LongitudeDegrees>-1.6092186234891414642333984375</LongitudeDegrees>
            </Position>
            <AltitudeMeters>491.600006103515625</AltitudeMeters>
            <DistanceMeters>85318.689698079</DistanceMeters>
          </Trackpoint>
          <Trackpoint>
            <Time>2018-08-26T10:07:46.000Z</Time>
            <Position>
              <LatitudeDegrees>42.89671353064477443695068359375</LatitudeDegrees>
              <LongitudeDegrees>-1.60921300761401653289794921875</LongitudeDegrees>
            </Position>
            <AltitudeMeters>491.600006103515625</AltitudeMeters>
            <DistanceMeters>85327.582695858</DistanceMeters>
          </Trackpoint>
          <Trackpoint>
            <Time>2018-08-26T10:07:47.000Z</Time>
            <Position>
              <LatitudeDegrees>42.896633483469486236572265625</LatitudeDegrees>
              <LongitudeDegrees>-1.6092105768620967864990234375</LongitudeDegrees>
            </Position>
            <AltitudeMeters>491.600006103515625</AltitudeMeters>
            <DistanceMeters>85336.493952349</DistanceMeters>
          </Trackpoint>
          <Trackpoint>
            <Time>2018-08-26T10:07:48.000Z</Time>
            <Position>
              <LatitudeDegrees>42.89655310101807117462158203125</LatitudeDegrees>
              <LongitudeDegrees>-1.60921032540500164031982421875</LongitudeDegrees>
            </Position>
            <AltitudeMeters>491.600006103515625</AltitudeMeters>
            <DistanceMeters>85345.441109868</DistanceMeters>
          </Trackpoint>
          <Trackpoint>
            <Time>2018-08-26T10:07:49.000Z</Time>
            <Position>
              <LatitudeDegrees>42.89647280238568782806396484375</LatitudeDegrees>
              <LongitudeDegrees>-1.6092102415859699249267578125</LongitudeDegrees>
            </Position>
            <AltitudeMeters>491.600006103515625</AltitudeMeters>
            <DistanceMeters>85354.378674202</DistanceMeters>
          </Trackpoint>
          <Trackpoint>
            <Time>2018-08-26T10:07:50.000Z</Time>
            <Position>
              <LatitudeDegrees>42.8963922522962093353271484375</LatitudeDegrees>
              <LongitudeDegrees>-1.60920948721468448638916015625</LongitudeDegrees>
            </Position>
            <AltitudeMeters>491.600006103515625</AltitudeMeters>
            <DistanceMeters>85363.344483731</DistanceMeters>
          </Trackpoint>
          <Trackpoint>
            <Time>2018-08-26T10:07:51.000Z</Time>
            <Position>
              <LatitudeDegrees>42.89631170220673084259033203125</LatitudeDegrees>
              <LongitudeDegrees>-1.60920965485274791717529296875</LongitudeDegrees>
            </Position>
            <AltitudeMeters>491.600006103515625</AltitudeMeters>
            <DistanceMeters>85372.31029326</DistanceMeters>
          </Trackpoint>
          <Trackpoint>
            <Time>2018-08-26T10:07:52.000Z</Time>
            <Position>
              <LatitudeDegrees>42.8962313197553157806396484375</LatitudeDegrees>
              <LongitudeDegrees>-1.60920982249081134796142578125</LongitudeDegrees>
            </Position>
            <AltitudeMeters>491.600006103515625</AltitudeMeters>
            <DistanceMeters>85381.256946131</DistanceMeters>
          </Trackpoint>
          <Trackpoint>
            <Time>2018-08-26T10:07:53.000Z</Time>
            <Position>
              <LatitudeDegrees>42.896151356399059295654296875</LatitudeDegrees>
              <LongitudeDegrees>-1.60920814611017704010009765625</LongitudeDegrees>
            </Position>
            <AltitudeMeters>491.600006103515625</AltitudeMeters>
            <DistanceMeters>85390.158063517</DistanceMeters>
          </Trackpoint>
          <Trackpoint>
            <Time>2018-08-26T10:07:54.000Z</Time>
            <Position>
              <LatitudeDegrees>42.896071560680866241455078125</LatitudeDegrees>
              <LongitudeDegrees>-1.60920445807278156280517578125</LongitudeDegrees>
            </Position>
            <AltitudeMeters>491.600006103515625</AltitudeMeters>
            <DistanceMeters>85399.044966722</DistanceMeters>
          </Trackpoint>
          <Trackpoint>
            <Time>2018-08-26T10:07:55.000Z</Time>
            <Position>
              <LatitudeDegrees>42.8959919326007366180419921875</LatitudeDegrees>
              <LongitudeDegrees>-1.6091980040073394775390625</LongitudeDegrees>
            </Position>
            <AltitudeMeters>491.600006103515625</AltitudeMeters>
            <DistanceMeters>85407.923737321</DistanceMeters>
          </Trackpoint>
          <Trackpoint>
            <Time>2018-08-26T10:07:56.000Z</Time>
            <Position>
              <LatitudeDegrees>42.89591255597770214080810546875</LatitudeDegrees>
              <LongitudeDegrees>-1.6091884486377239227294921875</LongitudeDegrees>
            </Position>
            <AltitudeMeters>491.600006103515625</AltitudeMeters>
            <DistanceMeters>85416.793349826</DistanceMeters>
          </Trackpoint>
          <Trackpoint>
            <Time>2018-08-26T10:07:57.000Z</Time>
            <Position>
              <LatitudeDegrees>42.89583359844982624053955078125</LatitudeDegrees>
              <LongitudeDegrees>-1.60917730070650577545166015625</LongitudeDegrees>
            </Position>
            <AltitudeMeters>491.600006103515625</AltitudeMeters>
            <DistanceMeters>85425.628279411</DistanceMeters>
          </Trackpoint>
          <Trackpoint>
            <Time>2018-08-26T10:07:58.000Z</Time>
            <Position>
              <LatitudeDegrees>42.8957547247409820556640625</LatitudeDegrees>
              <LongitudeDegrees>-1.6091639734804630279541015625</LongitudeDegrees>
            </Position>
            <AltitudeMeters>491.600006103515625</AltitudeMeters>
            <DistanceMeters>85434.474444822</DistanceMeters>
          </Trackpoint>
          <Trackpoint>
            <Time>2018-08-26T10:07:59.000Z</Time>
            <Position>
              <LatitudeDegrees>42.89567568339407444000244140625</LatitudeDegrees>
              <LongitudeDegrees>-1.6091478802263736724853515625</LongitudeDegrees>
            </Position>
            <AltitudeMeters>491.600006103515625</AltitudeMeters>
            <DistanceMeters>85443.369473197</DistanceMeters>
          </Trackpoint>
          <Trackpoint>
            <Time>2018-08-26T10:08:00.000Z</Time>
            <Position>
              <LatitudeDegrees>42.89559622295200824737548828125</LatitudeDegrees>
              <LongitudeDegrees>-1.60912935622036457061767578125</LongitudeDegrees>
            </Position>
            <AltitudeMeters>491.600006103515625</AltitudeMeters>
            <DistanceMeters>85452.341323699</DistanceMeters>
          </Trackpoint>
          <Trackpoint>
            <Time>2018-08-26T10:08:01.000Z</Time>
            <Position>
              <LatitudeDegrees>42.89551642723381519317626953125</LatitudeDegrees>
              <LongitudeDegrees>-1.60910739563405513763427734375</LongitudeDegrees>
            </Position>
            <AltitudeMeters>491.600006103515625</AltitudeMeters>
            <DistanceMeters>85461.401312378</DistanceMeters>
          </Trackpoint>
          <Trackpoint>
            <Time>2018-08-26T10:08:02.000Z</Time>
            <Position>
              <LatitudeDegrees>42.89543663151562213897705078125</LatitudeDegrees>
              <LongitudeDegrees>-1.6090828366577625274658203125</LongitudeDegrees>
            </Position>
            <AltitudeMeters>491.399993896484375</AltitudeMeters>
            <DistanceMeters>85470.506042015</DistanceMeters>
          </Trackpoint>
          <Trackpoint>
            <Time>2018-08-26T10:08:03.000Z</Time>
            <Position>
              <LatitudeDegrees>42.8953564167022705078125</LatitudeDegrees>
              <LongitudeDegrees>-1.60905517637729644775390625</LongitudeDegrees>
            </Position>
            <AltitudeMeters>491.399993896484375</AltitudeMeters>
            <DistanceMeters>85479.714812176</DistanceMeters>
          </Trackpoint>
          <Trackpoint>
            <Time>2018-08-26T10:08:04.000Z</Time>
            <Position>
              <LatitudeDegrees>42.89527603425085544586181640625</LatitudeDegrees>
              <LongitudeDegrees>-1.60902307368814945220947265625</LongitudeDegrees>
            </Position>
            <AltitudeMeters>491.399993896484375</AltitudeMeters>
            <DistanceMeters>85489.037121745</DistanceMeters>
          </Trackpoint>
          <Trackpoint>
            <Time>2018-08-26T10:08:05.000Z</Time>
            <Position>
              <LatitudeDegrees>42.89519640617072582244873046875</LatitudeDegrees>
              <LongitudeDegrees>-1.6089866124093532562255859375</LongitudeDegrees>
            </Position>
            <AltitudeMeters>491.399993896484375</AltitudeMeters>
            <DistanceMeters>85498.385548341</DistanceMeters>
          </Trackpoint>
          <Trackpoint>
            <Time>2018-08-26T10:08:06.000Z</Time>
            <Position>
              <LatitudeDegrees>42.8951168619096279144287109375</LatitudeDegrees>
              <LongitudeDegrees>-1.60894646309316158294677734375</LongitudeDegrees>
            </Position>
            <AltitudeMeters>491.399993896484375</AltitudeMeters>
            <DistanceMeters>85507.825293801</DistanceMeters>
          </Trackpoint>
          <Trackpoint>
            <Time>2018-08-26T10:08:07.000Z</Time>
            <Position>
              <LatitudeDegrees>42.895037233829498291015625</LatitudeDegrees>
              <LongitudeDegrees>-1.608903296291828155517578125</LongitudeDegrees>
            </Position>
            <AltitudeMeters>491.399993896484375</AltitudeMeters>
            <DistanceMeters>85517.361166587</DistanceMeters>
          </Trackpoint>
          <Trackpoint>
            <Time>2018-08-26T10:08:08.000Z</Time>
            <Position>
              <LatitudeDegrees>42.8949572704732418060302734375</LatitudeDegrees>
              <LongitudeDegrees>-1.60885912366211414337158203125</LongitudeDegrees>
            </Position>
            <AltitudeMeters>491.20001220703125</AltitudeMeters>
            <DistanceMeters>85526.962627435</DistanceMeters>
          </Trackpoint>
          <Trackpoint>
            <Time>2018-08-26T10:08:09.000Z</Time>
            <Position>
              <LatitudeDegrees>42.89487688802182674407958984375</LatitudeDegrees>
              <LongitudeDegrees>-1.60881243646144866943359375</LongitudeDegrees>
            </Position>
            <AltitudeMeters>491.20001220703125</AltitudeMeters>
            <DistanceMeters>85536.686047634</DistanceMeters>
          </Trackpoint>
          <Trackpoint>
            <Time>2018-08-26T10:08:10.000Z</Time>
            <Position>
              <LatitudeDegrees>42.89479642175137996673583984375</LatitudeDegrees>
              <LongitudeDegrees>-1.608761139214038848876953125</LongitudeDegrees>
            </Position>
            <AltitudeMeters>491</AltitudeMeters>
            <DistanceMeters>85546.571566704</DistanceMeters>
          </Trackpoint>
          <Trackpoint>
            <Time>2018-08-26T10:08:11.000Z</Time>
            <Position>
              <LatitudeDegrees>42.89471562020480632781982421875</LatitudeDegrees>
              <LongitudeDegrees>-1.608706153929233551025390625</LongitudeDegrees>
            </Position>
            <AltitudeMeters>491</AltitudeMeters>
            <DistanceMeters>85556.620613667</DistanceMeters>
          </Trackpoint>
          <Trackpoint>
            <Time>2018-08-26T10:08:12.000Z</Time>
            <Position>
              <LatitudeDegrees>42.8946337290108203887939453125</LatitudeDegrees>
              <LongitudeDegrees>-1.60864882171154022216796875</LongitudeDegrees>
            </Position>
            <AltitudeMeters>490.79998779296875</AltitudeMeters>
            <DistanceMeters>85566.864123236</DistanceMeters>
          </Trackpoint>
          <Trackpoint>
            <Time>2018-08-26T10:08:13.000Z</Time>
            <Position>
              <LatitudeDegrees>42.894551418721675872802734375</LatitudeDegrees>
              <LongitudeDegrees>-1.60859023220837116241455078125</LongitudeDegrees>
            </Position>
            <AltitudeMeters>490.600006103515625</AltitudeMeters>
            <DistanceMeters>85577.196284855</DistanceMeters>
          </Trackpoint>
          <Trackpoint>
            <Time>2018-08-26T10:08:14.000Z</Time>
            <Position>
              <LatitudeDegrees>42.894468270242214202880859375</LatitudeDegrees>
              <LongitudeDegrees>-1.60853088833391666412353515625</LongitudeDegrees>
            </Position>
            <AltitudeMeters>490.399993896484375</AltitudeMeters>
            <DistanceMeters>85587.639716441</DistanceMeters>
          </Trackpoint>
          <Trackpoint>
            <Time>2018-08-26T10:08:15.000Z</Time>
            <Position>
              <LatitudeDegrees>42.894384451210498809814453125</LatitudeDegrees>
              <LongitudeDegrees>-1.60847104154527187347412109375</LongitudeDegrees>
            </Position>
            <AltitudeMeters>490.20001220703125</AltitudeMeters>
            <DistanceMeters>85598.168401944</DistanceMeters>
          </Trackpoint>
          <Trackpoint>
            <Time>2018-08-26T10:08:16.000Z</Time>
            <Position>
              <LatitudeDegrees>42.89430054835975170135498046875</LatitudeDegrees>
              <LongitudeDegrees>-1.60841085948050022125244140625</LongitudeDegrees>
            </Position>
            <AltitudeMeters>490</AltitudeMeters>
            <DistanceMeters>85608.718079293</DistanceMeters>
          </Trackpoint>
          <Trackpoint>
            <Time>2018-08-26T10:08:17.000Z</Time>
            <Position>
              <LatitudeDegrees>42.8942166455090045928955078125</LatitudeDegrees>
              <LongitudeDegrees>-1.60834967158734798431396484375</LongitudeDegrees>
            </Position>
            <AltitudeMeters>490</AltitudeMeters>
            <DistanceMeters>85619.305778239</DistanceMeters>
          </Trackpoint>
          <Trackpoint>
            <Time>2018-08-26T10:08:18.000Z</Time>
            <Position>
              <LatitudeDegrees>42.89413207210600376129150390625</LatitudeDegrees>
              <LongitudeDegrees>-1.6082885675132274627685546875</LongitudeDegrees>
            </Position>
            <AltitudeMeters>489.79998779296875</AltitudeMeters>
            <DistanceMeters>85629.956403587</DistanceMeters>
          </Trackpoint>
          <Trackpoint>
            <Time>2018-08-26T10:08:19.000Z</Time>
            <Position>
              <LatitudeDegrees>42.8940469957888126373291015625</LatitudeDegrees>
              <LongitudeDegrees>-1.6082275472581386566162109375</LongitudeDegrees>
            </Position>
            <AltitudeMeters>489.600006103515625</AltitudeMeters>
            <DistanceMeters>85640.653558755</DistanceMeters>
          </Trackpoint>
          <Trackpoint>
            <Time>2018-08-26T10:08:20.000Z</Time>
            <Position>
              <LatitudeDegrees>42.89396158419549465179443359375</LatitudeDegrees>
              <LongitudeDegrees>-1.6081671975553035736083984375</LongitudeDegrees>
            </Position>
            <AltitudeMeters>489.20001220703125</AltitudeMeters>
            <DistanceMeters>85651.357886852</DistanceMeters>
          </Trackpoint>
          <Trackpoint>
            <Time>2018-08-26T10:08:21.000Z</Time>
            <Position>
              <LatitudeDegrees>42.89387592114508152008056640625</LatitudeDegrees>
              <LongitudeDegrees>-1.60810559056699275970458984375</LongitudeDegrees>
            </Position>
            <AltitudeMeters>488.399993896484375</AltitudeMeters>
            <DistanceMeters>85662.134938546</DistanceMeters>
          </Trackpoint>
          <Trackpoint>
            <Time>2018-08-26T10:08:22.000Z</Time>
            <Position>
              <LatitudeDegrees>42.89378958754241466522216796875</LatitudeDegrees>
              <LongitudeDegrees>-1.60804440267384052276611328125</LongitudeDegrees>
            </Position>
            <AltitudeMeters>488</AltitudeMeters>
            <DistanceMeters>85672.962564439</DistanceMeters>
          </Trackpoint>
          <Trackpoint>
            <Time>2018-08-26T10:08:23.000Z</Time>
            <Position>
              <LatitudeDegrees>42.893703840672969818115234375</LatitudeDegrees>
              <LongitudeDegrees>-1.6079829633235931396484375</LongitudeDegrees>
            </Position>
            <AltitudeMeters>487.79998779296875</AltitudeMeters>
            <DistanceMeters>85683.742129536</DistanceMeters>
          </Trackpoint>
          <Trackpoint>
            <Time>2018-08-26T10:08:24.000Z</Time>
            <Position>
              <LatitudeDegrees>42.89361826144158840179443359375</LatitudeDegrees>
              <LongitudeDegrees>-1.607921607792377471923828125</LongitudeDegrees>
            </Position>
            <AltitudeMeters>487.20001220703125</AltitudeMeters>
            <DistanceMeters>85694.500731669</DistanceMeters>
          </Trackpoint>
          <Trackpoint>
            <Time>2018-08-26T10:08:25.000Z</Time>
            <Position>
              <LatitudeDegrees>42.8935333527624607086181640625</LatitudeDegrees>
              <LongitudeDegrees>-1.60785882733762264251708984375</LongitudeDegrees>
            </Position>
            <AltitudeMeters>487</AltitudeMeters>
            <DistanceMeters>85705.248416902</DistanceMeters>
          </Trackpoint>
          <Trackpoint>
            <Time>2018-08-26T10:08:26.000Z</Time>
            <Position>
              <LatitudeDegrees>42.89344928227365016937255859375</LatitudeDegrees>
              <LongitudeDegrees>-1.60779587924480438232421875</LongitudeDegrees>
            </Position>
            <AltitudeMeters>486.79998779296875</AltitudeMeters>
            <DistanceMeters>85715.921063446</DistanceMeters>
          </Trackpoint>
          <Trackpoint>
            <Time>2018-08-26T10:08:27.000Z</Time>
            <Position>
              <LatitudeDegrees>42.89336579851806163787841796875</LatitudeDegrees>
              <LongitudeDegrees>-1.607733853161334991455078125</LongitudeDegrees>
            </Position>
            <AltitudeMeters>486.600006103515625</AltitudeMeters>
            <DistanceMeters>85726.500230117</DistanceMeters>
          </Trackpoint>
          <Trackpoint>
            <Time>2018-08-26T10:08:28.000Z</Time>
            <Position>
              <LatitudeDegrees>42.8932829014956951141357421875</LatitudeDegrees>
              <LongitudeDegrees>-1.6076736710965633392333984375</LongitudeDegrees>
            </Position>
            <AltitudeMeters>486.399993896484375</AltitudeMeters>
            <DistanceMeters>85736.950576739</DistanceMeters>
          </Trackpoint>
          <Trackpoint>
            <Time>2018-08-26T10:08:29.000Z</Time>
            <Position>
              <LatitudeDegrees>42.89320084266364574432373046875</LatitudeDegrees>
              <LongitudeDegrees>-1.6076136566698551177978515625</LongitudeDegrees>
            </Position>
            <AltitudeMeters>486.20001220703125</AltitudeMeters>
            <DistanceMeters>85747.312410984</DistanceMeters>
          </Trackpoint>
          <Trackpoint>
            <Time>2018-08-26T10:08:30.000Z</Time>
            <Position>
              <LatitudeDegrees>42.8931192867457866668701171875</LatitudeDegrees>
              <LongitudeDegrees>-1.60755523480474948883056640625</LongitudeDegrees>
            </Position>
            <AltitudeMeters>485.600006103515625</AltitudeMeters>
            <DistanceMeters>85757.563851353</DistanceMeters>
          </Trackpoint>
          <Trackpoint>
            <Time>2018-08-26T10:08:31.000Z</Time>
            <Position>
              <LatitudeDegrees>42.89303856901824474334716796875</LatitudeDegrees>
              <LongitudeDegrees>-1.60749823786318302154541015625</LongitudeDegrees>
            </Position>
            <AltitudeMeters>485.20001220703125</AltitudeMeters>
            <DistanceMeters>85767.67828342</DistanceMeters>
          </Trackpoint>
          <Trackpoint>
            <Time>2018-08-26T10:08:32.000Z</Time>
            <Position>
              <LatitudeDegrees>42.8929583542048931121826171875</LatitudeDegrees>
              <LongitudeDegrees>-1.60744249820709228515625</LongitudeDegrees>
            </Position>
            <AltitudeMeters>484.79998779296875</AltitudeMeters>
            <DistanceMeters>85777.696731388</DistanceMeters>
          </Trackpoint>
          <Trackpoint>
            <Time>2018-08-26T10:08:33.000Z</Time>
            <Position>
              <LatitudeDegrees>42.89287830702960491180419921875</LatitudeDegrees>
              <LongitudeDegrees>-1.60738809965550899505615234375</LongitudeDegrees>
            </Position>
            <AltitudeMeters>484.600006103515625</AltitudeMeters>
            <DistanceMeters>85787.649163679</DistanceMeters>
          </Trackpoint>
          <Trackpoint>
            <Time>2018-08-26T10:08:34.000Z</Time>
            <Position>
              <LatitudeDegrees>42.89279825985431671142578125</LatitudeDegrees>
              <LongitudeDegrees>-1.60733445547521114349365234375</LongitudeDegrees>
            </Position>
            <AltitudeMeters>484.399993896484375</AltitudeMeters>
            <DistanceMeters>85797.574793835</DistanceMeters>
          </Trackpoint>
          <Trackpoint>
            <Time>2018-08-26T10:08:35.000Z</Time>
            <Position>
              <LatitudeDegrees>42.8927179612219333648681640625</LatitudeDegrees>
              <LongitudeDegrees>-1.6072820685803890228271484375</LongitudeDegrees>
            </Position>
            <AltitudeMeters>484.20001220703125</AltitudeMeters>
            <DistanceMeters>85807.481300323</DistanceMeters>
          </Trackpoint>
          <Trackpoint>
            <Time>2018-08-26T10:08:36.000Z</Time>
            <Position>
              <LatitudeDegrees>42.89263732731342315673828125</LatitudeDegrees>
              <LongitudeDegrees>-1.607230603694915771484375</LongitudeDegrees>
            </Position>
            <AltitudeMeters>484</AltitudeMeters>
            <DistanceMeters>85817.389174011</DistanceMeters>
          </Trackpoint>
          <Trackpoint>
            <Time>2018-08-26T10:08:37.000Z</Time>
            <Position>
              <LatitudeDegrees>42.8925566934049129486083984375</LatitudeDegrees>
              <LongitudeDegrees>-1.6071808151900768280029296875</LongitudeDegrees>
            </Position>
            <AltitudeMeters>483.79998779296875</AltitudeMeters>
            <DistanceMeters>85827.239461895</DistanceMeters>
          </Trackpoint>
          <Trackpoint>
            <Time>2018-08-26T10:08:38.000Z</Time>
            <Position>
              <LatitudeDegrees>42.89247564040124416351318359375</LatitudeDegrees>
              <LongitudeDegrees>-1.6071332059800624847412109375</LongitudeDegrees>
            </Position>
            <AltitudeMeters>483.79998779296875</AltitudeMeters>
            <DistanceMeters>85837.060830261</DistanceMeters>
          </Trackpoint>
          <Trackpoint>
            <Time>2018-08-26T10:08:39.000Z</Time>
            <Position>
              <LatitudeDegrees>42.89239383302628993988037109375</LatitudeDegrees>
              <LongitudeDegrees>-1.60708886571228504180908203125</LongitudeDegrees>
            </Position>
            <AltitudeMeters>483.79998779296875</AltitudeMeters>
            <DistanceMeters>85846.85734252</DistanceMeters>
          </Trackpoint>
          <Trackpoint>
            <Time>2018-08-26T10:08:40.000Z</Time>
            <Position>
              <LatitudeDegrees>42.8923122771084308624267578125</LatitudeDegrees>
              <LongitudeDegrees>-1.607045866549015045166015625</LongitudeDegrees>
            </Position>
            <AltitudeMeters>483.600006103515625</AltitudeMeters>
            <DistanceMeters>85856.58818943</DistanceMeters>
          </Trackpoint>
          <Trackpoint>
            <Time>2018-08-26T10:08:41.000Z</Time>
            <Position>
              <LatitudeDegrees>42.892231307923793792724609375</LatitudeDegrees>
              <LongitudeDegrees>-1.6070037893950939178466796875</LongitudeDegrees>
            </Position>
            <AltitudeMeters>483.600006103515625</AltitudeMeters>
            <DistanceMeters>85866.231411258</DistanceMeters>
          </Trackpoint>
          <Trackpoint>
            <Time>2018-08-26T10:08:42.000Z</Time>
            <Position>
              <LatitudeDegrees>42.89215126074850559234619140625</LatitudeDegrees>
              <LongitudeDegrees>-1.60696213133633136749267578125</LongitudeDegrees>
            </Position>
            <AltitudeMeters>483.600006103515625</AltitudeMeters>
            <DistanceMeters>85875.766337039</DistanceMeters>
          </Trackpoint>
          <Trackpoint>
            <Time>2018-08-26T10:08:43.000Z</Time>
            <Position>
              <LatitudeDegrees>42.892071716487407684326171875</LatitudeDegrees>
              <LongitudeDegrees>-1.60692106001079082489013671875</LongitudeDegrees>
            </Position>
            <AltitudeMeters>483.399993896484375</AltitudeMeters>
            <DistanceMeters>85885.231875506</DistanceMeters>
          </Trackpoint>
          <Trackpoint>
            <Time>2018-08-26T10:08:44.000Z</Time>
            <Position>
              <LatitudeDegrees>42.8919924236834049224853515625</LatitudeDegrees>
              <LongitudeDegrees>-1.6068805754184722900390625</LongitudeDegrees>
            </Position>
            <AltitudeMeters>483.399993896484375</AltitudeMeters>
            <DistanceMeters>85894.654386403</DistanceMeters>
          </Trackpoint>
          <Trackpoint>
            <Time>2018-08-26T10:08:45.000Z</Time>
            <Position>
              <LatitudeDegrees>42.8919129632413387298583984375</LatitudeDegrees>
              <LongitudeDegrees>-1.6068408451974391937255859375</LongitudeDegrees>
            </Position>
            <AltitudeMeters>483.399993896484375</AltitudeMeters>
            <DistanceMeters>85904.073063113</DistanceMeters>
          </Trackpoint>
          <Trackpoint>
            <Time>2018-08-26T10:08:46.000Z</Time>
            <Position>
              <LatitudeDegrees>42.89183442480862140655517578125</LatitudeDegrees>
              <LongitudeDegrees>-1.6068016178905963897705078125</LongitudeDegrees>
            </Position>
            <AltitudeMeters>483.399993896484375</AltitudeMeters>
            <DistanceMeters>85913.381801672</DistanceMeters>
          </Trackpoint>
          <Trackpoint>
            <Time>2018-08-26T10:08:47.000Z</Time>
            <Position>
              <LatitudeDegrees>42.89175680838525295257568359375</LatitudeDegrees>
              <LongitudeDegrees>-1.6067625582218170166015625</LongitudeDegrees>
            </Position>
            <AltitudeMeters>483.20001220703125</AltitudeMeters>
            <DistanceMeters>85922.589100823</DistanceMeters>
          </Trackpoint>
          <Trackpoint>
            <Time>2018-08-26T10:08:48.000Z</Time>
            <Position>
              <LatitudeDegrees>42.8916802816092967987060546875</LatitudeDegrees>
              <LongitudeDegrees>-1.606721989810466766357421875</LongitudeDegrees>
            </Position>
            <AltitudeMeters>483</AltitudeMeters>
            <DistanceMeters>85931.726501263</DistanceMeters>
          </Trackpoint>
          <Trackpoint>
            <Time>2018-08-26T10:08:49.000Z</Time>
            <Position>
              <LatitudeDegrees>42.89160442538559436798095703125</LatitudeDegrees>
              <LongitudeDegrees>-1.60668318159878253936767578125</LongitudeDegrees>
            </Position>
            <AltitudeMeters>483</AltitudeMeters>
            <DistanceMeters>85940.742528556</DistanceMeters>
          </Trackpoint>
          <Trackpoint>
            <Time>2018-08-26T10:08:50.000Z</Time>
            <Position>
              <LatitudeDegrees>42.891529239714145660400390625</LatitudeDegrees>
              <LongitudeDegrees>-1.6066453792154788970947265625</LongitudeDegrees>
            </Position>
            <AltitudeMeters>483</AltitudeMeters>
            <DistanceMeters>85949.660369284</DistanceMeters>
          </Trackpoint>
          <Trackpoint>
            <Time>2018-08-26T10:08:51.000Z</Time>
            <Position>
              <LatitudeDegrees>42.89145304821431636810302734375</LatitudeDegrees>
              <LongitudeDegrees>-1.6066068224608898162841796875</LongitudeDegrees>
            </Position>
            <AltitudeMeters>483</AltitudeMeters>
            <DistanceMeters>85958.704396729</DistanceMeters>
          </Trackpoint>
          <Trackpoint>
            <Time>2018-08-26T10:08:52.000Z</Time>
            <Position>
              <LatitudeDegrees>42.89137777872383594512939453125</LatitudeDegrees>
              <LongitudeDegrees>-1.6065686009824275970458984375</LongitudeDegrees>
            </Position>
            <AltitudeMeters>483</AltitudeMeters>
            <DistanceMeters>85967.642971357</DistanceMeters>
          </Trackpoint>
          <Trackpoint>
            <Time>2018-08-26T10:08:53.000Z</Time>
            <Position>
              <LatitudeDegrees>42.89130200631916522979736328125</LatitudeDegrees>
              <LongitudeDegrees>-1.60653146915137767791748046875</LongitudeDegrees>
            </Position>
            <AltitudeMeters>483</AltitudeMeters>
            <DistanceMeters>85976.60374363</DistanceMeters>
          </Trackpoint>
          <Trackpoint>
            <Time>2018-08-26T10:08:54.000Z</Time>
            <Position>
              <LatitudeDegrees>42.89122589863836765289306640625</LatitudeDegrees>
              <LongitudeDegrees>-1.606491990387439727783203125</LongitudeDegrees>
            </Position>
            <AltitudeMeters>483</AltitudeMeters>
            <DistanceMeters>85985.665725488</DistanceMeters>
          </Trackpoint>
          <Trackpoint>
            <Time>2018-08-26T10:08:55.000Z</Time>
            <Position>
              <LatitudeDegrees>42.89114979095757007598876953125</LatitudeDegrees>
              <LongitudeDegrees>-1.6064532659947872161865234375</LongitudeDegrees>
            </Position>
            <AltitudeMeters>483</AltitudeMeters>
            <DistanceMeters>85994.705758221</DistanceMeters>
          </Trackpoint>
          <Trackpoint>
            <Time>2018-08-26T10:08:56.000Z</Time>
            <Position>
              <LatitudeDegrees>42.89107401855289936065673828125</LatitudeDegrees>
              <LongitudeDegrees>-1.60641588270664215087890625</LongitudeDegrees>
            </Position>
            <AltitudeMeters>483</AltitudeMeters>
            <DistanceMeters>86003.673581859</DistanceMeters>
          </Trackpoint>
          <Trackpoint>
            <Time>2018-08-26T10:08:57.000Z</Time>
            <Position>
              <LatitudeDegrees>42.89099891670048236846923828125</LatitudeDegrees>
              <LongitudeDegrees>-1.60637707449495792388916015625</LongitudeDegrees>
            </Position>
            <AltitudeMeters>483</AltitudeMeters>
            <DistanceMeters>86012.611651354</DistanceMeters>
          </Trackpoint>
          <Trackpoint>
            <Time>2018-08-26T10:08:58.000Z</Time>
            <Position>
              <LatitudeDegrees>42.89092364721000194549560546875</LatitudeDegrees>
              <LongitudeDegrees>-1.60633918829262256622314453125</LongitudeDegrees>
            </Position>
            <AltitudeMeters>483</AltitudeMeters>
            <DistanceMeters>86021.540623575</DistanceMeters>
          </Trackpoint>
          <Trackpoint>
            <Time>2018-08-26T10:08:59.000Z</Time>
            <Position>
              <LatitudeDegrees>42.89084871299564838409423828125</LatitudeDegrees>
              <LongitudeDegrees>-1.6062993742525577545166015625</LongitudeDegrees>
            </Position>
            <AltitudeMeters>483</AltitudeMeters>
            <DistanceMeters>86030.489799402</DistanceMeters>
          </Trackpoint>
          <Trackpoint>
            <Time>2018-08-26T10:09:00.000Z</Time>
            <Position>
              <LatitudeDegrees>42.890775538980960845947265625</LatitudeDegrees>
              <LongitudeDegrees>-1.606262661516666412353515625</LongitudeDegrees>
            </Position>
            <AltitudeMeters>483</AltitudeMeters>
            <DistanceMeters>86039.166940486</DistanceMeters>
          </Trackpoint>
          <Trackpoint>
            <Time>2018-08-26T10:09:01.000Z</Time>
            <Position>
              <LatitudeDegrees>42.8907019458711147308349609375</LatitudeDegrees>
              <LongitudeDegrees>-1.60622586496174335479736328125</LongitudeDegrees>
            </Position>
            <AltitudeMeters>483</AltitudeMeters>
            <DistanceMeters>86047.890786213</DistanceMeters>
          </Trackpoint>
          <Trackpoint>
            <Time>2018-08-26T10:09:02.000Z</Time>
            <Position>
              <LatitudeDegrees>42.890628017485141754150390625</LatitudeDegrees>
              <LongitudeDegrees>-1.60618496127426624298095703125</LongitudeDegrees>
            </Position>
            <AltitudeMeters>483</AltitudeMeters>
            <DistanceMeters>86056.769556813</DistanceMeters>
          </Trackpoint>
          <Trackpoint>
            <Time>2018-08-26T10:09:03.000Z</Time>
            <Position>
              <LatitudeDegrees>42.89055501110851764678955078125</LatitudeDegrees>
              <LongitudeDegrees>-1.60614372231066226959228515625</LongitudeDegrees>
            </Position>
            <AltitudeMeters>483</AltitudeMeters>
            <DistanceMeters>86065.56350784</DistanceMeters>
          </Trackpoint>
          <Trackpoint>
            <Time>2018-08-26T10:09:04.000Z</Time>
            <Position>
              <LatitudeDegrees>42.89048074744641780853271484375</LatitudeDegrees>
              <LongitudeDegrees>-1.60610617138445377349853515625</LongitudeDegrees>
            </Position>
            <AltitudeMeters>483</AltitudeMeters>
            <DistanceMeters>86074.377459714</DistanceMeters>
          </Trackpoint>
          <Trackpoint>
            <Time>2018-08-26T10:09:05.000Z</Time>
            <Position>
              <LatitudeDegrees>42.89040572941303253173828125</LatitudeDegrees>
              <LongitudeDegrees>-1.6060678660869598388671875</LongitudeDegrees>
            </Position>
            <AltitudeMeters>483.20001220703125</AltitudeMeters>
            <DistanceMeters>86083.292768619</DistanceMeters>
          </Trackpoint>
          <Trackpoint>
            <Time>2018-08-26T10:09:06.000Z</Time>
            <Position>
              <LatitudeDegrees>42.89033004082739353179931640625</LatitudeDegrees>
              <LongitudeDegrees>-1.60603073425590991973876953125</LongitudeDegrees>
            </Position>
            <AltitudeMeters>483.20001220703125</AltitudeMeters>
            <DistanceMeters>86092.245475389</DistanceMeters>
          </Trackpoint>
          <Trackpoint>
            <Time>2018-08-26T10:09:07.000Z</Time>
            <Position>
              <LatitudeDegrees>42.89025376550853252410888671875</LatitudeDegrees>
              <LongitudeDegrees>-1.6059936024248600006103515625</LongitudeDegrees>
            </Position>
            <AltitudeMeters>483.399993896484375</AltitudeMeters>
            <DistanceMeters>86101.258998439</DistanceMeters>
          </Trackpoint>
          <Trackpoint>
            <Time>2018-08-26T10:09:08.000Z</Time>
            <Position>
              <LatitudeDegrees>42.890176735818386077880859375</LatitudeDegrees>
              <LongitudeDegrees>-1.6059573926031589508056640625</LongitudeDegrees>
            </Position>
            <AltitudeMeters>483.399993896484375</AltitudeMeters>
            <DistanceMeters>86110.3269572</DistanceMeters>
          </Trackpoint>
          <Trackpoint>
            <Time>2018-08-26T10:09:09.000Z</Time>
            <Position>
              <LatitudeDegrees>42.89009937085211277008056640625</LatitudeDegrees>
              <LongitudeDegrees>-1.6059208475053310394287109375</LongitudeDegrees>
            </Position>
            <AltitudeMeters>483.399993896484375</AltitudeMeters>
            <DistanceMeters>86119.438626796</DistanceMeters>
          </Trackpoint>
          <Trackpoint>
            <Time>2018-08-26T10:09:10.000Z</Time>
            <Position>
              <LatitudeDegrees>42.890021167695522308349609375</LatitudeDegrees>
              <LongitudeDegrees>-1.60588421858847141265869140625</LongitudeDegrees>
            </Position>
            <AltitudeMeters>483.399993896484375</AltitudeMeters>
            <DistanceMeters>86128.641020881</DistanceMeters>
          </Trackpoint>
          <Trackpoint>
            <Time>2018-08-26T10:09:11.000Z</Time>
            <Position>
              <LatitudeDegrees>42.8899423778057098388671875</LatitudeDegrees>
              <LongitudeDegrees>-1.60584901459515094757080078125</LongitudeDegrees>
            </Position>
            <AltitudeMeters>483.600006103515625</AltitudeMeters>
            <DistanceMeters>86137.868892838</DistanceMeters>
          </Trackpoint>
          <Trackpoint>
            <Time>2018-08-26T10:09:12.000Z</Time>
            <Position>
              <LatitudeDegrees>42.88986367173492908477783203125</LatitudeDegrees>
              <LongitudeDegrees>-1.60581230185925960540771484375</LongitudeDegrees>
            </Position>
            <AltitudeMeters>483.600006103515625</AltitudeMeters>
            <DistanceMeters>86147.127050625</DistanceMeters>
          </Trackpoint>
          <Trackpoint>
            <Time>2018-08-26T10:09:13.000Z</Time>
            <Position>
              <LatitudeDegrees>42.88978471420705318450927734375</LatitudeDegrees>
              <LongitudeDegrees>-1.60577475093305110931396484375</LongitudeDegrees>
            </Position>
            <AltitudeMeters>483.600006103515625</AltitudeMeters>
            <DistanceMeters>86156.432878536</DistanceMeters>
          </Trackpoint>
          <Trackpoint>
            <Time>2018-08-26T10:09:14.000Z</Time>
            <Position>
              <LatitudeDegrees>42.88970558904111385345458984375</LatitudeDegrees>
              <LongitudeDegrees>-1.6057381220161914825439453125</LongitudeDegrees>
            </Position>
            <AltitudeMeters>483.600006103515625</AltitudeMeters>
            <DistanceMeters>86165.732396916</DistanceMeters>
          </Trackpoint>
          <Trackpoint>
            <Time>2018-08-26T10:09:15.000Z</Time>
            <Position>
              <LatitudeDegrees>42.88962612859904766082763671875</LatitudeDegrees>
              <LongitudeDegrees>-1.60570316947996616363525390625</LongitudeDegrees>
            </Position>
            <AltitudeMeters>483.600006103515625</AltitudeMeters>
            <DistanceMeters>86175.024629745</DistanceMeters>
          </Trackpoint>
          <Trackpoint>
            <Time>2018-08-26T10:09:16.000Z</Time>
            <Position>
              <LatitudeDegrees>42.88954633288085460662841796875</LatitudeDegrees>
              <LongitudeDegrees>-1.6056697256863117218017578125</LongitudeDegrees>
            </Position>
            <AltitudeMeters>483.600006103515625</AltitudeMeters>
            <DistanceMeters>86184.315404779</DistanceMeters>
          </Trackpoint>
          <Trackpoint>
            <Time>2018-08-26T10:09:17.000Z</Time>
            <Position>
              <LatitudeDegrees>42.88946653716266155242919921875</LatitudeDegrees>
              <LongitudeDegrees>-1.605634354054927825927734375</LongitudeDegrees>
            </Position>
            <AltitudeMeters>483.399993896484375</AltitudeMeters>
            <DistanceMeters>86193.653199923</DistanceMeters>
          </Trackpoint>
          <Trackpoint>
            <Time>2018-08-26T10:09:18.000Z</Time>
            <Position>
              <LatitudeDegrees>42.88938707672059535980224609375</LatitudeDegrees>
              <LongitudeDegrees>-1.60559822805225849151611328125</LongitudeDegrees>
            </Position>
            <AltitudeMeters>483.399993896484375</AltitudeMeters>
            <DistanceMeters>86202.974540789</DistanceMeters>
          </Trackpoint>
          <Trackpoint>
            <Time>2018-08-26T10:09:19.000Z</Time>
            <Position>
              <LatitudeDegrees>42.88930761627852916717529296875</LatitudeDegrees>
              <LongitudeDegrees>-1.60556134767830371856689453125</LongitudeDegrees>
            </Position>
            <AltitudeMeters>483.399993896484375</AltitudeMeters>
            <DistanceMeters>86212.316203315</DistanceMeters>
          </Trackpoint>
          <Trackpoint>
            <Time>2018-08-26T10:09:20.000Z</Time>
            <Position>
              <LatitudeDegrees>42.88922815583646297454833984375</LatitudeDegrees>
              <LongitudeDegrees>-1.605524718761444091796875</LongitudeDegrees>
            </Position>
            <AltitudeMeters>483.399993896484375</AltitudeMeters>
            <DistanceMeters>86221.65109687</DistanceMeters>
          </Trackpoint>
          <Trackpoint>
            <Time>2018-08-26T10:09:21.000Z</Time>
            <Position>
              <LatitudeDegrees>42.8891484439373016357421875</LatitudeDegrees>
              <LongitudeDegrees>-1.60548993386328220367431640625</LongitudeDegrees>
            </Position>
            <AltitudeMeters>483.20001220703125</AltitudeMeters>
            <DistanceMeters>86230.965653997</DistanceMeters>
          </Trackpoint>
          <Trackpoint>
            <Time>2018-08-26T10:09:22.000Z</Time>
            <Position>
              <LatitudeDegrees>42.8890691511332988739013671875</LatitudeDegrees>
              <LongitudeDegrees>-1.60545573569834232330322265625</LongitudeDegrees>
            </Position>
            <AltitudeMeters>483</AltitudeMeters>
            <DistanceMeters>86240.220885229</DistanceMeters>
          </Trackpoint>
          <Trackpoint>
            <Time>2018-08-26T10:09:23.000Z</Time>
            <Position>
              <LatitudeDegrees>42.888989858329296112060546875</LatitudeDegrees>
              <LongitudeDegrees>-1.60542053170502185821533203125</LongitudeDegrees>
            </Position>
            <AltitudeMeters>482.79998779296875</AltitudeMeters>
            <DistanceMeters>86249.501449281</DistanceMeters>
          </Trackpoint>
          <Trackpoint>
            <Time>2018-08-26T10:09:24.000Z</Time>
            <Position>
              <LatitudeDegrees>42.888910062611103057861328125</LatitudeDegrees>
              <LongitudeDegrees>-1.605385243892669677734375</LongitudeDegrees>
            </Position>
            <AltitudeMeters>482.600006103515625</AltitudeMeters>
            <DistanceMeters>86258.837310132</DistanceMeters>
          </Trackpoint>
          <Trackpoint>
            <Time>2018-08-26T10:09:25.000Z</Time>
            <Position>
              <LatitudeDegrees>42.8888300992548465728759765625</LatitudeDegrees>
              <LongitudeDegrees>-1.60535146482288837432861328125</LongitudeDegrees>
            </Position>
            <AltitudeMeters>482.600006103515625</AltitudeMeters>
            <DistanceMeters>86268.153805974</DistanceMeters>
          </Trackpoint>
          <Trackpoint>
            <Time>2018-08-26T10:09:26.000Z</Time>
            <Position>
              <LatitudeDegrees>42.88875038735568523406982421875</LatitudeDegrees>
              <LongitudeDegrees>-1.60531885921955108642578125</LongitudeDegrees>
            </Position>
            <AltitudeMeters>482.399993896484375</AltitudeMeters>
            <DistanceMeters>86277.415864397</DistanceMeters>
          </Trackpoint>
          <Trackpoint>
            <Time>2018-08-26T10:09:27.000Z</Time>
            <Position>
              <LatitudeDegrees>42.88867092691361904144287109375</LatitudeDegrees>
              <LongitudeDegrees>-1.60528508014976978302001953125</LongitudeDegrees>
            </Position>
            <AltitudeMeters>482.20001220703125</AltitudeMeters>
            <DistanceMeters>86286.678897721</DistanceMeters>
          </Trackpoint>
          <Trackpoint>
            <Time>2018-08-26T10:09:28.000Z</Time>
            <Position>
              <LatitudeDegrees>42.88859263993799686431884765625</LatitudeDegrees>
              <LongitudeDegrees>-1.60525037907063961029052734375</LongitudeDegrees>
            </Position>
            <AltitudeMeters>482.20001220703125</AltitudeMeters>
            <DistanceMeters>86295.8404784</DistanceMeters>
          </Trackpoint>
          <Trackpoint>
            <Time>2018-08-26T10:09:29.000Z</Time>
            <Position>
              <LatitudeDegrees>42.8885149396955966949462890625</LatitudeDegrees>
              <LongitudeDegrees>-1.6052154265344142913818359375</LongitudeDegrees>
            </Position>
            <AltitudeMeters>482.20001220703125</AltitudeMeters>
            <DistanceMeters>86304.946199784</DistanceMeters>
          </Trackpoint>
          <Trackpoint>
            <Time>2018-08-26T10:09:30.000Z</Time>
            <Position>
              <LatitudeDegrees>42.88843740709125995635986328125</LatitudeDegrees>
              <LongitudeDegrees>-1.6051808930933475494384765625</LongitudeDegrees>
            </Position>
            <AltitudeMeters>482.20001220703125</AltitudeMeters>
            <DistanceMeters>86314.023116522</DistanceMeters>
          </Trackpoint>
          <Trackpoint>
            <Time>2018-08-26T10:09:31.000Z</Time>
            <Position>
              <LatitudeDegrees>42.8883603774011135101318359375</LatitudeDegrees>
              <LongitudeDegrees>-1.6051473654806613922119140625</LongitudeDegrees>
            </Position>
            <AltitudeMeters>482.20001220703125</AltitudeMeters>
            <DistanceMeters>86323.022101218</DistanceMeters>
          </Trackpoint>
          <Trackpoint>
            <Time>2018-08-26T10:09:32.000Z</Time>
            <Position>
              <LatitudeDegrees>42.88828410208225250244140625</LatitudeDegrees>
              <LongitudeDegrees>-1.60511358641088008880615234375</LongitudeDegrees>
            </Position>
            <AltitudeMeters>482.20001220703125</AltitudeMeters>
            <DistanceMeters>86331.947533106</DistanceMeters>
          </Trackpoint>
          <Trackpoint>
            <Time>2018-08-26T10:09:33.000Z</Time>
            <Position>
              <LatitudeDegrees>42.88820824585855007171630859375</LatitudeDegrees>
              <LongitudeDegrees>-1.60508106462657451629638671875</LongitudeDegrees>
            </Position>
            <AltitudeMeters>482</AltitudeMeters>
            <DistanceMeters>86340.797780733</DistanceMeters>
          </Trackpoint>
          <Trackpoint>
            <Time>2018-08-26T10:09:34.000Z</Time>
            <Position>
              <LatitudeDegrees>42.88813297636806964874267578125</LatitudeDegrees>
              <LongitudeDegrees>-1.605049632489681243896484375</LongitudeDegrees>
            </Position>
            <AltitudeMeters>482</AltitudeMeters>
            <DistanceMeters>86349.557780141</DistanceMeters>
          </Trackpoint>
          <Trackpoint>
            <Time>2018-08-26T10:09:35.000Z</Time>
            <Position>
              <LatitudeDegrees>42.88805820979177951812744140625</LatitudeDegrees>
              <LongitudeDegrees>-1.60501853562891483306884765625</LongitudeDegrees>
            </Position>
            <AltitudeMeters>482</AltitudeMeters>
            <DistanceMeters>86358.257266946</DistanceMeters>
          </Trackpoint>
          <Trackpoint>
            <Time>2018-08-26T10:09:36.000Z</Time>
            <Position>
              <LatitudeDegrees>42.88798377849161624908447265625</LatitudeDegrees>
              <LongitudeDegrees>-1.60498626530170440673828125</LongitudeDegrees>
            </Position>
            <AltitudeMeters>481.600006103515625</AltitudeMeters>
            <DistanceMeters>86366.950004127</DistanceMeters>
          </Trackpoint>
          <Trackpoint>
            <Time>2018-08-26T10:09:37.000Z</Time>
            <Position>
              <LatitudeDegrees>42.88790884427726268768310546875</LatitudeDegrees>
              <LongitudeDegrees>-1.604953743517398834228515625</LongitudeDegrees>
            </Position>
            <AltitudeMeters>481.600006103515625</AltitudeMeters>
            <DistanceMeters>86375.701753003</DistanceMeters>
          </Trackpoint>
          <Trackpoint>
            <Time>2018-08-26T10:09:38.000Z</Time>
            <Position>
              <LatitudeDegrees>42.88783340714871883392333984375</LatitudeDegrees>
              <LongitudeDegrees>-1.6049227304756641387939453125</LongitudeDegrees>
            </Position>
            <AltitudeMeters>481.600006103515625</AltitudeMeters>
            <DistanceMeters>86384.469995178</DistanceMeters>
          </Trackpoint>
          <Trackpoint>
            <Time>2018-08-26T10:09:39.000Z</Time>
            <Position>
              <LatitudeDegrees>42.8877575509250164031982421875</LatitudeDegrees>
              <LongitudeDegrees>-1.6048925556242465972900390625</LongitudeDegrees>
            </Position>
            <AltitudeMeters>481.600006103515625</AltitudeMeters>
            <DistanceMeters>86393.263946205</DistanceMeters>
          </Trackpoint>
          <Trackpoint>
            <Time>2018-08-26T10:09:40.000Z</Time>
            <Position>
              <LatitudeDegrees>42.8876814432442188262939453125</LatitudeDegrees>
              <LongitudeDegrees>-1.604861877858638763427734375</LongitudeDegrees>
            </Position>
            <AltitudeMeters>481.600006103515625</AltitudeMeters>
            <DistanceMeters>86402.096320201</DistanceMeters>
          </Trackpoint>
          <Trackpoint>
            <Time>2018-08-26T10:09:41.000Z</Time>
            <Position>
              <LatitudeDegrees>42.88760541938245296478271484375</LatitudeDegrees>
              <LongitudeDegrees>-1.60482876934111118316650390625</LongitudeDegrees>
            </Position>
            <AltitudeMeters>481.600006103515625</AltitudeMeters>
            <DistanceMeters>86410.9781414</DistanceMeters>
          </Trackpoint>
          <Trackpoint>
            <Time>2018-08-26T10:09:42.000Z</Time>
            <Position>
              <LatitudeDegrees>42.88752973079681396484375</LatitudeDegrees>
              <LongitudeDegrees>-1.6047953255474567413330078125</LongitudeDegrees>
            </Position>
            <AltitudeMeters>481.399993896484375</AltitudeMeters>
            <DistanceMeters>86419.832979274</DistanceMeters>
          </Trackpoint>
          <Trackpoint>
            <Time>2018-08-26T10:09:43.000Z</Time>
            <Position>
              <LatitudeDegrees>42.88745370693504810333251953125</LatitudeDegrees>
              <LongitudeDegrees>-1.60476230084896087646484375</LongitudeDegrees>
            </Position>
            <AltitudeMeters>481.399993896484375</AltitudeMeters>
            <DistanceMeters>86428.712766856</DistanceMeters>
          </Trackpoint>
          <Trackpoint>
            <Time>2018-08-26T10:09:44.000Z</Time>
            <Position>
              <LatitudeDegrees>42.88737743161618709564208984375</LatitudeDegrees>
              <LongitudeDegrees>-1.60472952760756015777587890625</LongitudeDegrees>
            </Position>
            <AltitudeMeters>481.399993896484375</AltitudeMeters>
            <DistanceMeters>86437.612869696</DistanceMeters>
          </Trackpoint>
          <Trackpoint>
            <Time>2018-08-26T10:09:45.000Z</Time>
            <Position>
              <LatitudeDegrees>42.8873009048402309417724609375</LatitudeDegrees>
              <LongitudeDegrees>-1.6046974249184131622314453125</LongitudeDegrees>
            </Position>
            <AltitudeMeters>481.399993896484375</AltitudeMeters>
            <DistanceMeters>86446.523619506</DistanceMeters>
          </Trackpoint>
          <Trackpoint>
            <Time>2018-08-26T10:09:46.000Z</Time>
            <Position>
              <LatitudeDegrees>42.8872241266071796417236328125</LatitudeDegrees>
              <LongitudeDegrees>-1.60466465167701244354248046875</LongitudeDegrees>
            </Position>
            <AltitudeMeters>481.399993896484375</AltitudeMeters>
            <DistanceMeters>86455.477334862</DistanceMeters>
          </Trackpoint>
          <Trackpoint>
            <Time>2018-08-26T10:09:47.000Z</Time>
            <Position>
              <LatitudeDegrees>42.887147851288318634033203125</LatitudeDegrees>
              <LongitudeDegrees>-1.60463078878819942474365234375</LongitudeDegrees>
            </Position>
            <AltitudeMeters>481.399993896484375</AltitudeMeters>
            <DistanceMeters>86464.403778417</DistanceMeters>
          </Trackpoint>
          <Trackpoint>
            <Time>2018-08-26T10:09:48.000Z</Time>
            <Position>
              <LatitudeDegrees>42.88707149215042591094970703125</LatitudeDegrees>
              <LongitudeDegrees>-1.60459642298519611358642578125</LongitudeDegrees>
            </Position>
            <AltitudeMeters>481.20001220703125</AltitudeMeters>
            <DistanceMeters>86473.352449709</DistanceMeters>
          </Trackpoint>
          <Trackpoint>
            <Time>2018-08-26T10:09:49.000Z</Time>
            <Position>
              <LatitudeDegrees>42.8869951330125331878662109375</LatitudeDegrees>
              <LongitudeDegrees>-1.604563482105731964111328125</LongitudeDegrees>
            </Position>
            <AltitudeMeters>481.20001220703125</AltitudeMeters>
            <DistanceMeters>86482.265732637</DistanceMeters>
          </Trackpoint>
          <Trackpoint>
            <Time>2018-08-26T10:09:50.000Z</Time>
            <Position>
              <LatitudeDegrees>42.88691877387464046478271484375</LatitudeDegrees>
              <LongitudeDegrees>-1.6045311279594898223876953125</LongitudeDegrees>
            </Position>
            <AltitudeMeters>481.20001220703125</AltitudeMeters>
            <DistanceMeters>86491.164313442</DistanceMeters>
          </Trackpoint>
          <Trackpoint>
            <Time>2018-08-26T10:09:51.000Z</Time>
            <Position>
              <LatitudeDegrees>42.886842750012874603271484375</LatitudeDegrees>
              <LongitudeDegrees>-1.6044989414513111114501953125</LongitudeDegrees>
            </Position>
            <AltitudeMeters>481</AltitudeMeters>
            <DistanceMeters>86500.023229537</DistanceMeters>
          </Trackpoint>
          <Trackpoint>
            <Time>2018-08-26T10:09:52.000Z</Time>
            <Position>
              <LatitudeDegrees>42.88676655851304531097412109375</LatitudeDegrees>
              <LongitudeDegrees>-1.6044670902192592620849609375</LongitudeDegrees>
            </Position>
            <AltitudeMeters>481</AltitudeMeters>
            <DistanceMeters>86508.892332981</DistanceMeters>
          </Trackpoint>
          <Trackpoint>
            <Time>2018-08-26T10:09:53.000Z</Time>
            <Position>
              <LatitudeDegrees>42.886690199375152587890625</LatitudeDegrees>
              <LongitudeDegrees>-1.6044359095394611358642578125</LongitudeDegrees>
            </Position>
            <AltitudeMeters>481</AltitudeMeters>
            <DistanceMeters>86517.763472491</DistanceMeters>
          </Trackpoint>
          <Trackpoint>
            <Time>2018-08-26T10:09:54.000Z</Time>
            <Position>
              <LatitudeDegrees>42.88661417551338672637939453125</LatitudeDegrees>
              <LongitudeDegrees>-1.60440464504063129425048828125</LongitudeDegrees>
            </Position>
            <AltitudeMeters>481</AltitudeMeters>
            <DistanceMeters>86526.600956927</DistanceMeters>
          </Trackpoint>
          <Trackpoint>
            <Time>2018-08-26T10:09:55.000Z</Time>
            <Position>
              <LatitudeDegrees>42.88653806783258914947509765625</LatitudeDegrees>
              <LongitudeDegrees>-1.60437312908470630645751953125</LongitudeDegrees>
            </Position>
            <AltitudeMeters>480.79998779296875</AltitudeMeters>
            <DistanceMeters>86535.453754986</DistanceMeters>
          </Trackpoint>
          <Trackpoint>
            <Time>2018-08-26T10:09:56.000Z</Time>
            <Position>
              <LatitudeDegrees>42.88646221160888671875</LatitudeDegrees>
              <LongitudeDegrees>-1.60434295423328876495361328125</LongitudeDegrees>
            </Position>
            <AltitudeMeters>480.79998779296875</AltitudeMeters>
            <DistanceMeters>86544.248219423</DistanceMeters>
          </Trackpoint>
          <Trackpoint>
            <Time>2018-08-26T10:09:57.000Z</Time>
            <Position>
              <LatitudeDegrees>42.88638602010905742645263671875</LatitudeDegrees>
              <LongitudeDegrees>-1.60431412048637866973876953125</LongitudeDegrees>
            </Position>
            <AltitudeMeters>480.79998779296875</AltitudeMeters>
            <DistanceMeters>86553.04884245</DistanceMeters>
          </Trackpoint>
          <Trackpoint>
            <Time>2018-08-26T10:09:58.000Z</Time>
            <Position>
              <LatitudeDegrees>42.88630999624729156494140625</LatitudeDegrees>
              <LongitudeDegrees>-1.6042867116630077362060546875</LongitudeDegrees>
            </Position>
            <AltitudeMeters>480.79998779296875</AltitudeMeters>
            <DistanceMeters>86561.800591326</DistanceMeters>
          </Trackpoint>
          <Trackpoint>
            <Time>2018-08-26T10:09:59.000Z</Time>
            <Position>
              <LatitudeDegrees>42.88623397238552570343017578125</LatitudeDegrees>
              <LongitudeDegrees>-1.6042600572109222412109375</LongitudeDegrees>
            </Position>
            <AltitudeMeters>480.79998779296875</AltitudeMeters>
            <DistanceMeters>86570.536849456</DistanceMeters>
          </Trackpoint>
          <Trackpoint>
            <Time>2018-08-26T10:10:00.000Z</Time>
            <Position>
              <LatitudeDegrees>42.8861576132476329803466796875</LatitudeDegrees>
              <LongitudeDegrees>-1.604234240949153900146484375</LongitudeDegrees>
            </Position>
            <AltitudeMeters>480.79998779296875</AltitudeMeters>
            <DistanceMeters>86579.29272457</DistanceMeters>
          </Trackpoint>
          <Trackpoint>
            <Time>2018-08-26T10:10:01.000Z</Time>
            <Position>
              <LatitudeDegrees>42.8860808350145816802978515625</LatitudeDegrees>
              <LongitudeDegrees>-1.60421001724898815155029296875</LongitudeDegrees>
            </Position>
            <AltitudeMeters>480.79998779296875</AltitudeMeters>
            <DistanceMeters>86588.063026226</DistanceMeters>
          </Trackpoint>
          <Trackpoint>
            <Time>2018-08-26T10:10:02.000Z</Time>
            <Position>
              <LatitudeDegrees>42.88600380532443523406982421875</LatitudeDegrees>
              <LongitudeDegrees>-1.60418688319623470306396484375</LongitudeDegrees>
            </Position>
            <AltitudeMeters>480.79998779296875</AltitudeMeters>
            <DistanceMeters>86596.841560977</DistanceMeters>
          </Trackpoint>
          <Trackpoint>
            <Time>2018-08-26T10:10:03.000Z</Time>
            <Position>
              <LatitudeDegrees>42.8859266079962253570556640625</LatitudeDegrees>
              <LongitudeDegrees>-1.60416374914348125457763671875</LongitudeDegrees>
            </Position>
            <AltitudeMeters>480.79998779296875</AltitudeMeters>
            <DistanceMeters>86605.638078757</DistanceMeters>
          </Trackpoint>
          <Trackpoint>
            <Time>2018-08-26T10:10:04.000Z</Time>
            <Position>
              <LatitudeDegrees>42.88584823720157146453857421875</LatitudeDegrees>
              <LongitudeDegrees>-1.6041435487568378448486328125</LongitudeDegrees>
            </Position>
            <AltitudeMeters>480.79998779296875</AltitudeMeters>
            <DistanceMeters>86614.515832257</DistanceMeters>
          </Trackpoint>
          <Trackpoint>
            <Time>2018-08-26T10:10:05.000Z</Time>
            <Position>
              <LatitudeDegrees>42.885769866406917572021484375</LatitudeDegrees>
              <LongitudeDegrees>-1.60412971861660480499267578125</LongitudeDegrees>
            </Position>
            <AltitudeMeters>480.79998779296875</AltitudeMeters>
            <DistanceMeters>86623.311836746</DistanceMeters>
          </Trackpoint>
          <Trackpoint>
            <Time>2018-08-26T10:10:06.000Z</Time>
            <Position>
              <LatitudeDegrees>42.8856909088790416717529296875</LatitudeDegrees>
              <LongitudeDegrees>-1.6041205823421478271484375</LongitudeDegrees>
            </Position>
            <AltitudeMeters>480.79998779296875</AltitudeMeters>
            <DistanceMeters>86632.131933603</DistanceMeters>
          </Trackpoint>
          <Trackpoint>
            <Time>2018-08-26T10:10:07.000Z</Time>
            <Position>
              <LatitudeDegrees>42.88561203517019748687744140625</LatitudeDegrees>
              <LongitudeDegrees>-1.604114212095737457275390625</LongitudeDegrees>
            </Position>
            <AltitudeMeters>480.79998779296875</AltitudeMeters>
            <DistanceMeters>86640.92639804</DistanceMeters>
          </Trackpoint>
          <Trackpoint>
            <Time>2018-08-26T10:10:08.000Z</Time>
            <Position>
              <LatitudeDegrees>42.88553374819457530975341796875</LatitudeDegrees>
              <LongitudeDegrees>-1.604110859334468841552734375</LongitudeDegrees>
            </Position>
            <AltitudeMeters>480.79998779296875</AltitudeMeters>
            <DistanceMeters>86649.644030939</DistanceMeters>
          </Trackpoint>
          <Trackpoint>
            <Time>2018-08-26T10:10:09.000Z</Time>
            <Position>
              <LatitudeDegrees>42.8854562155902385711669921875</LatitudeDegrees>
              <LongitudeDegrees>-1.60410859622061252593994140625</LongitudeDegrees>
            </Position>
            <AltitudeMeters>480.79998779296875</AltitudeMeters>
            <DistanceMeters>86658.27578399</DistanceMeters>
          </Trackpoint>
          <Trackpoint>
            <Time>2018-08-26T10:10:10.000Z</Time>
            <Position>
              <LatitudeDegrees>42.8853797726333141326904296875</LatitudeDegrees>
              <LongitudeDegrees>-1.60410826094448566436767578125</LongitudeDegrees>
            </Position>
            <AltitudeMeters>481</AltitudeMeters>
            <DistanceMeters>86666.783726913</DistanceMeters>
          </Trackpoint>
          <Trackpoint>
            <Time>2018-08-26T10:10:11.000Z</Time>
            <Position>
              <LatitudeDegrees>42.8853050060570240020751953125</LatitudeDegrees>
              <LongitudeDegrees>-1.604110188782215118408203125</LongitudeDegrees>
            </Position>
            <AltitudeMeters>481</AltitudeMeters>
            <DistanceMeters>86675.10711243</DistanceMeters>
          </Trackpoint>
          <Trackpoint>
            <Time>2018-08-26T10:10:12.000Z</Time>
            <Position>
              <LatitudeDegrees>42.8852315805852413177490234375</LatitudeDegrees>
              <LongitudeDegrees>-1.60411194898188114166259765625</LongitudeDegrees>
            </Position>
            <AltitudeMeters>481</AltitudeMeters>
            <DistanceMeters>86683.280514753</DistanceMeters>
          </Trackpoint>
          <Trackpoint>
            <Time>2018-08-26T10:10:13.000Z</Time>
            <Position>
              <LatitudeDegrees>42.88515890948474407196044921875</LatitudeDegrees>
              <LongitudeDegrees>-1.6041147150099277496337890625</LongitudeDegrees>
            </Position>
            <AltitudeMeters>481</AltitudeMeters>
            <DistanceMeters>86691.371747924</DistanceMeters>
          </Trackpoint>
          <Trackpoint>
            <Time>2018-08-26T10:10:14.000Z</Time>
            <Position>
              <LatitudeDegrees>42.8850877471268177032470703125</LatitudeDegrees>
              <LongitudeDegrees>-1.6041219234466552734375</LongitudeDegrees>
            </Position>
            <AltitudeMeters>481.20001220703125</AltitudeMeters>
            <DistanceMeters>86699.31316177</DistanceMeters>
          </Trackpoint>
          <Trackpoint>
            <Time>2018-08-26T10:10:15.000Z</Time>
            <Position>
              <LatitudeDegrees>42.8850170038640499114990234375</LatitudeDegrees>
              <LongitudeDegrees>-1.60412795841693878173828125</LongitudeDegrees>
            </Position>
            <AltitudeMeters>481.20001220703125</AltitudeMeters>
            <DistanceMeters>86707.202096227</DistanceMeters>
          </Trackpoint>
          <Trackpoint>
            <Time>2018-08-26T10:10:16.000Z</Time>
            <Position>
              <LatitudeDegrees>42.884946763515472412109375</LatitudeDegrees>
              <LongitudeDegrees>-1.60413608886301517486572265625</LongitudeDegrees>
            </Position>
            <AltitudeMeters>481.20001220703125</AltitudeMeters>
            <DistanceMeters>86715.048564298</DistanceMeters>
          </Trackpoint>
          <Trackpoint>
            <Time>2018-08-26T10:10:17.000Z</Time>
            <Position>
              <LatitudeDegrees>42.88487828336656093597412109375</LatitudeDegrees>
              <LongitudeDegrees>-1.60415285266935825347900390625</LongitudeDegrees>
            </Position>
            <AltitudeMeters>481.20001220703125</AltitudeMeters>
            <DistanceMeters>86722.79192969</DistanceMeters>
          </Trackpoint>
          <Trackpoint>
            <Time>2018-08-26T10:10:18.000Z</Time>
            <Position>
              <LatitudeDegrees>42.8848104737699031829833984375</LatitudeDegrees>
              <LongitudeDegrees>-1.6041770763695240020751953125</LongitudeDegrees>
            </Position>
            <AltitudeMeters>481.399993896484375</AltitudeMeters>
            <DistanceMeters>86730.593385658</DistanceMeters>
          </Trackpoint>
          <Trackpoint>
            <Time>2018-08-26T10:10:19.000Z</Time>
            <Position>
              <LatitudeDegrees>42.88474367000162601470947265625</LatitudeDegrees>
              <LongitudeDegrees>-1.60420029424130916595458984375</LongitudeDegrees>
            </Position>
            <AltitudeMeters>481.399993896484375</AltitudeMeters>
            <DistanceMeters>86738.266461861</DistanceMeters>
          </Trackpoint>
          <Trackpoint>
            <Time>2018-08-26T10:10:20.000Z</Time>
            <Position>
              <LatitudeDegrees>42.88467711769044399261474609375</LatitudeDegrees>
              <LongitudeDegrees>-1.60422443412244319915771484375</LongitudeDegrees>
            </Position>
            <AltitudeMeters>481.79998779296875</AltitudeMeters>
            <DistanceMeters>86745.931295672</DistanceMeters>
          </Trackpoint>
          <Trackpoint>
            <Time>2018-08-26T10:10:21.000Z</Time>
            <Position>
              <LatitudeDegrees>42.88461215794086456298828125</LatitudeDegrees>
              <LongitudeDegrees>-1.604256369173526763916015625</LongitudeDegrees>
            </Position>
            <AltitudeMeters>482</AltitudeMeters>
            <DistanceMeters>86753.616131385</DistanceMeters>
          </Trackpoint>
          <Trackpoint>
            <Time>2018-08-26T10:10:22.000Z</Time>
            <Position>
              <LatitudeDegrees>42.8845472820103168487548828125</LatitudeDegrees>
              <LongitudeDegrees>-1.60429115407168865203857421875</LongitudeDegrees>
            </Position>
            <AltitudeMeters>482.20001220703125</AltitudeMeters>
            <DistanceMeters>86761.3740602</DistanceMeters>
          </Trackpoint>
          <Trackpoint>
            <Time>2018-08-26T10:10:23.000Z</Time>
            <Position>
              <LatitudeDegrees>42.8844842500984668731689453125</LatitudeDegrees>
              <LongitudeDegrees>-1.60432644188404083251953125</LongitudeDegrees>
            </Position>
            <AltitudeMeters>482.600006103515625</AltitudeMeters>
            <DistanceMeters>86768.95657276</DistanceMeters>
          </Trackpoint>
          <Trackpoint>
            <Time>2018-08-26T10:10:24.000Z</Time>
            <Position>
              <LatitudeDegrees>42.88442146964371204376220703125</LatitudeDegrees>
              <LongitudeDegrees>-1.6043638251721858978271484375</LongitudeDegrees>
            </Position>
            <AltitudeMeters>482.79998779296875</AltitudeMeters>
            <DistanceMeters>86776.580653168</DistanceMeters>
          </Trackpoint>
          <Trackpoint>
            <Time>2018-08-26T10:10:25.000Z</Time>
            <Position>
              <LatitudeDegrees>42.8843580186367034912109375</LatitudeDegrees>
              <LongitudeDegrees>-1.60440347157418727874755859375</LongitudeDegrees>
            </Position>
            <AltitudeMeters>483</AltitudeMeters>
            <DistanceMeters>86784.348469515</DistanceMeters>
          </Trackpoint>
          <Trackpoint>
            <Time>2018-08-26T10:10:26.000Z</Time>
            <Position>
              <LatitudeDegrees>42.8842963278293609619140625</LatitudeDegrees>
              <LongitudeDegrees>-1.604446135461330413818359375</LongitudeDegrees>
            </Position>
            <AltitudeMeters>483.399993896484375</AltitudeMeters>
            <DistanceMeters>86792.046219941</DistanceMeters>
          </Trackpoint>
          <Trackpoint>
            <Time>2018-08-26T10:10:27.000Z</Time>
            <Position>
              <LatitudeDegrees>42.8842341341078281402587890625</LatitudeDegrees>
              <LongitudeDegrees>-1.60448863171041011810302734375</LongitudeDegrees>
            </Position>
            <AltitudeMeters>483.399993896484375</AltitudeMeters>
            <DistanceMeters>86799.787252643</DistanceMeters>
          </Trackpoint>
          <Trackpoint>
            <Time>2018-08-26T10:10:28.000Z</Time>
            <Position>
              <LatitudeDegrees>42.88417353294789791107177734375</LatitudeDegrees>
              <LongitudeDegrees>-1.60453221760690212249755859375</LongitudeDegrees>
            </Position>
            <AltitudeMeters>483.399993896484375</AltitudeMeters>
            <DistanceMeters>86807.41074082</DistanceMeters>
          </Trackpoint>
          <Trackpoint>
            <Time>2018-08-26T10:10:29.000Z</Time>
            <Position>
              <LatitudeDegrees>42.88411636836826801300048828125</LatitudeDegrees>
              <LongitudeDegrees>-1.6045784018933773040771484375</LongitudeDegrees>
            </Position>
            <AltitudeMeters>483.399993896484375</AltitudeMeters>
            <DistanceMeters>86814.804527589</DistanceMeters>
          </Trackpoint>
          <Trackpoint>
            <Time>2018-08-26T10:10:30.000Z</Time>
            <Position>
              <LatitudeDegrees>42.88405836559832096099853515625</LatitudeDegrees>
              <LongitudeDegrees>-1.604623831808567047119140625</LongitudeDegrees>
            </Position>
            <AltitudeMeters>483.600006103515625</AltitudeMeters>
            <DistanceMeters>86822.248219487</DistanceMeters>
          </Trackpoint>
          <Trackpoint>
            <Time>2018-08-26T10:10:31.000Z</Time>
            <Position>
              <LatitudeDegrees>42.8839994408190250396728515625</LatitudeDegrees>
              <LongitudeDegrees>-1.6046685911715030670166015625</LongitudeDegrees>
            </Position>
            <AltitudeMeters>483.79998779296875</AltitudeMeters>
            <DistanceMeters>86829.7535254</DistanceMeters>
          </Trackpoint>
          <Trackpoint>
            <Time>2018-08-26T10:10:32.000Z</Time>
            <Position>
              <LatitudeDegrees>42.88394018076360225677490234375</LatitudeDegrees>
              <LongitudeDegrees>-1.604711003601551055908203125</LongitudeDegrees>
            </Position>
            <AltitudeMeters>483.79998779296875</AltitudeMeters>
            <DistanceMeters>86837.200855762</DistanceMeters>
          </Trackpoint>
          <Trackpoint>
            <Time>2018-08-26T10:10:33.000Z</Time>
            <Position>
              <LatitudeDegrees>42.88388133980333805084228515625</LatitudeDegrees>
              <LongitudeDegrees>-1.6047530807554721832275390625</LongitudeDegrees>
            </Position>
            <AltitudeMeters>484.20001220703125</AltitudeMeters>
            <DistanceMeters>86844.594031853</DistanceMeters>
          </Trackpoint>
          <Trackpoint>
            <Time>2018-08-26T10:10:34.000Z</Time>
            <Position>
              <LatitudeDegrees>42.88382316939532756805419921875</LatitudeDegrees>
              <LongitudeDegrees>-1.604796163737773895263671875</LongitudeDegrees>
            </Position>
            <AltitudeMeters>484.399993896484375</AltitudeMeters>
            <DistanceMeters>86851.960900892</DistanceMeters>
          </Trackpoint>
          <Trackpoint>
            <Time>2018-08-26T10:10:35.000Z</Time>
            <Position>
              <LatitudeDegrees>42.883765585720539093017578125</LatitudeDegrees>
              <LongitudeDegrees>-1.60484008491039276123046875</LongitudeDegrees>
            </Position>
            <AltitudeMeters>484.79998779296875</AltitudeMeters>
            <DistanceMeters>86859.303213632</DistanceMeters>
          </Trackpoint>
          <Trackpoint>
            <Time>2018-08-26T10:10:36.000Z</Time>
            <Position>
              <LatitudeDegrees>42.88370867259800434112548828125</LatitudeDegrees>
              <LongitudeDegrees>-1.60488626919686794281005859375</LongitudeDegrees>
            </Position>
            <AltitudeMeters>485</AltitudeMeters>
            <DistanceMeters>86866.673146454</DistanceMeters>
          </Trackpoint>
          <Trackpoint>
            <Time>2018-08-26T10:10:37.000Z</Time>
            <Position>
              <LatitudeDegrees>42.88364932872354984283447265625</LatitudeDegrees>
              <LongitudeDegrees>-1.604929603636264801025390625</LongitudeDegrees>
            </Position>
            <AltitudeMeters>485</AltitudeMeters>
            <DistanceMeters>86874.164000546</DistanceMeters>
          </Trackpoint>
          <Trackpoint>
            <Time>2018-08-26T10:10:38.000Z</Time>
            <Position>
              <LatitudeDegrees>42.88359082303941249847412109375</LatitudeDegrees>
              <LongitudeDegrees>-1.60497394390404224395751953125</LongitudeDegrees>
            </Position>
            <AltitudeMeters>485.20001220703125</AltitudeMeters>
            <DistanceMeters>86881.612543334</DistanceMeters>
          </Trackpoint>
          <Trackpoint>
            <Time>2018-08-26T10:10:39.000Z</Time>
            <Position>
              <LatitudeDegrees>42.88353256881237030029296875</LatitudeDegrees>
              <LongitudeDegrees>-1.60502037964761257171630859375</LongitudeDegrees>
            </Position>
            <AltitudeMeters>485.20001220703125</AltitudeMeters>
            <DistanceMeters>86889.121457858</DistanceMeters>
          </Trackpoint>
          <Trackpoint>
            <Time>2018-08-26T10:10:40.000Z</Time>
            <Position>
              <LatitudeDegrees>42.8834747336804866790771484375</LatitudeDegrees>
              <LongitudeDegrees>-1.605068407952785491943359375</LongitudeDegrees>
            </Position>
            <AltitudeMeters>485.20001220703125</AltitudeMeters>
            <DistanceMeters>86896.656782713</DistanceMeters>
          </Trackpoint>
          <Trackpoint>
            <Time>2018-08-26T10:10:41.000Z</Time>
            <Position>
              <LatitudeDegrees>42.88341463543474674224853515625</LatitudeDegrees>
              <LongitudeDegrees>-1.60511367022991180419921875</LongitudeDegrees>
            </Position>
            <AltitudeMeters>485.20001220703125</AltitudeMeters>
            <DistanceMeters>86904.296835994</DistanceMeters>
          </Trackpoint>
          <Trackpoint>
            <Time>2018-08-26T10:10:42.000Z</Time>
            <Position>
              <LatitudeDegrees>42.88335311226546764373779296875</LatitudeDegrees>
              <LongitudeDegrees>-1.6051570884883403778076171875</LongitudeDegrees>
            </Position>
            <AltitudeMeters>485.20001220703125</AltitudeMeters>
            <DistanceMeters>86912.005136909</DistanceMeters>
          </Trackpoint>
          <Trackpoint>
            <Time>2018-08-26T10:10:43.000Z</Time>
            <Position>
              <LatitudeDegrees>42.8832910023629665374755859375</LatitudeDegrees>
              <LongitudeDegrees>-1.6052003391087055206298828125</LongitudeDegrees>
            </Position>
            <AltitudeMeters>485.399993896484375</AltitudeMeters>
            <DistanceMeters>86919.76597513</DistanceMeters>
          </Trackpoint>
          <Trackpoint>
            <Time>2018-08-26T10:10:44.000Z</Time>
            <Position>
              <LatitudeDegrees>42.8832299821078777313232421875</LatitudeDegrees>
              <LongitudeDegrees>-1.60524518229067325592041015625</LongitudeDegrees>
            </Position>
            <AltitudeMeters>485.399993896484375</AltitudeMeters>
            <DistanceMeters>86927.480131193</DistanceMeters>
          </Trackpoint>
          <Trackpoint>
            <Time>2018-08-26T10:10:45.000Z</Time>
            <Position>
              <LatitudeDegrees>42.883167453110218048095703125</LatitudeDegrees>
              <LongitudeDegrees>-1.6052875109016895294189453125</LongitudeDegrees>
            </Position>
            <AltitudeMeters>485.600006103515625</AltitudeMeters>
            <DistanceMeters>86935.249109951</DistanceMeters>
          </Trackpoint>
          <Trackpoint>
            <Time>2018-08-26T10:10:46.000Z</Time>
            <Position>
              <LatitudeDegrees>42.88310383446514606475830078125</LatitudeDegrees>
              <LongitudeDegrees>-1.6053284145891666412353515625</LongitudeDegrees>
            </Position>
            <AltitudeMeters>485.79998779296875</AltitudeMeters>
            <DistanceMeters>86943.075989189</DistanceMeters>
          </Trackpoint>
          <Trackpoint>
            <Time>2018-08-26T10:10:47.000Z</Time>
            <Position>
              <LatitudeDegrees>42.883038036525249481201171875</LatitudeDegrees>
              <LongitudeDegrees>-1.60536982119083404541015625</LongitudeDegrees>
            </Position>
            <AltitudeMeters>485.79998779296875</AltitudeMeters>
            <DistanceMeters>86951.140393106</DistanceMeters>
          </Trackpoint>
          <Trackpoint>
            <Time>2018-08-26T10:10:48.000Z</Time>
            <Position>
              <LatitudeDegrees>42.88297332823276519775390625</LatitudeDegrees>
              <LongitudeDegrees>-1.60541298799216747283935546875</LongitudeDegrees>
            </Position>
            <AltitudeMeters>486</AltitudeMeters>
            <DistanceMeters>86959.156503384</DistanceMeters>
          </Trackpoint>
          <Trackpoint>
            <Time>2018-08-26T10:10:49.000Z</Time>
            <Position>
              <LatitudeDegrees>42.88290895521640777587890625</LatitudeDegrees>
              <LongitudeDegrees>-1.60545640625059604644775390625</LongitudeDegrees>
            </Position>
            <AltitudeMeters>486</AltitudeMeters>
            <DistanceMeters>86967.147792429</DistanceMeters>
          </Trackpoint>
          <Trackpoint>
            <Time>2018-08-26T10:10:50.000Z</Time>
            <Position>
              <LatitudeDegrees>42.88284399546682834625244140625</LatitudeDegrees>
              <LongitudeDegrees>-1.6054992377758026123046875</LongitudeDegrees>
            </Position>
            <AltitudeMeters>486</AltitudeMeters>
            <DistanceMeters>86975.176846902</DistanceMeters>
          </Trackpoint>
          <Trackpoint>
            <Time>2018-08-26T10:10:51.000Z</Time>
            <Position>
              <LatitudeDegrees>42.8827780298888683319091796875</LatitudeDegrees>
              <LongitudeDegrees>-1.60554223693907260894775390625</LongitudeDegrees>
            </Position>
            <AltitudeMeters>486.20001220703125</AltitudeMeters>
            <DistanceMeters>86983.313153829</DistanceMeters>
          </Trackpoint>
          <Trackpoint>
            <Time>2018-08-26T10:10:52.000Z</Time>
            <Position>
              <LatitudeDegrees>42.882711477577686309814453125</LatitudeDegrees>
              <LongitudeDegrees>-1.605585403740406036376953125</LongitudeDegrees>
            </Position>
            <AltitudeMeters>486.20001220703125</AltitudeMeters>
            <DistanceMeters>86991.514129951</DistanceMeters>
          </Trackpoint>
          <Trackpoint>
            <Time>2018-08-26T10:10:53.000Z</Time>
            <Position>
              <LatitudeDegrees>42.88264433853328227996826171875</LatitudeDegrees>
              <LongitudeDegrees>-1.60562890581786632537841796875</LongitudeDegrees>
            </Position>
            <AltitudeMeters>486.20001220703125</AltitudeMeters>
            <DistanceMeters>86999.786367816</DistanceMeters>
          </Trackpoint>
          <Trackpoint>
            <Time>2018-08-26T10:10:54.000Z</Time>
            <Position>
              <LatitudeDegrees>42.8825768642127513885498046875</LatitudeDegrees>
              <LongitudeDegrees>-1.60567249171435832977294921875</LongitudeDegrees>
            </Position>
            <AltitudeMeters>486.20001220703125</AltitudeMeters>
            <DistanceMeters>87008.094550791</DistanceMeters>
          </Trackpoint>
          <Trackpoint>
            <Time>2018-08-26T10:10:55.000Z</Time>
            <Position>
              <LatitudeDegrees>42.88250871933996677398681640625</LatitudeDegrees>
              <LongitudeDegrees>-1.605714820325374603271484375</LongitudeDegrees>
            </Position>
            <AltitudeMeters>486.20001220703125</AltitudeMeters>
            <DistanceMeters>87016.427694727</DistanceMeters>
          </Trackpoint>
          <Trackpoint>
            <Time>2018-08-26T10:10:56.000Z</Time>
            <Position>
              <LatitudeDegrees>42.88243965245783329010009765625</LatitudeDegrees>
              <LongitudeDegrees>-1.6057567298412322998046875</LongitudeDegrees>
            </Position>
            <AltitudeMeters>486.399993896484375</AltitudeMeters>
            <DistanceMeters>87024.840645408</DistanceMeters>
          </Trackpoint>
          <Trackpoint>
            <Time>2018-08-26T10:10:57.000Z</Time>
            <Position>
              <LatitudeDegrees>42.88236974738538265228271484375</LatitudeDegrees>
              <LongitudeDegrees>-1.60579922609031200408935546875</LongitudeDegrees>
            </Position>
            <AltitudeMeters>486.399993896484375</AltitudeMeters>
            <DistanceMeters>87033.358135305</DistanceMeters>
          </Trackpoint>
          <Trackpoint>
            <Time>2018-08-26T10:10:58.000Z</Time>
            <Position>
              <LatitudeDegrees>42.88229950703680515289306640625</LatitudeDegrees>
              <LongitudeDegrees>-1.6058430634438991546630859375</LongitudeDegrees>
            </Position>
            <AltitudeMeters>486.399993896484375</AltitudeMeters>
            <DistanceMeters>87041.954245794</DistanceMeters>
          </Trackpoint>
          <Trackpoint>
            <Time>2018-08-26T10:10:59.000Z</Time>
            <Position>
              <LatitudeDegrees>42.88222876377403736114501953125</LatitudeDegrees>
              <LongitudeDegrees>-1.60588807426393032073974609375</LongitudeDegrees>
            </Position>
            <AltitudeMeters>486.399993896484375</AltitudeMeters>
            <DistanceMeters>87050.641267657</DistanceMeters>
          </Trackpoint>
          <Trackpoint>
            <Time>2018-08-26T10:11:00.000Z</Time>
            <Position>
              <LatitudeDegrees>42.882157601416110992431640625</LatitudeDegrees>
              <LongitudeDegrees>-1.60593283362686634063720703125</LongitudeDegrees>
            </Position>
            <AltitudeMeters>486.399993896484375</AltitudeMeters>
            <DistanceMeters>87059.362007523</DistanceMeters>
          </Trackpoint>
          <Trackpoint>
            <Time>2018-08-26T10:11:01.000Z</Time>
            <Position>
              <LatitudeDegrees>42.88208576850593090057373046875</LatitudeDegrees>
              <LongitudeDegrees>-1.6059771738946437835693359375</LongitudeDegrees>
            </Position>
            <AltitudeMeters>486.399993896484375</AltitudeMeters>
            <DistanceMeters>87068.136941246</DistanceMeters>
          </Trackpoint>
          <Trackpoint>
            <Time>2018-08-26T10:11:02.000Z</Time>
            <Position>
              <LatitudeDegrees>42.88201351650059223175048828125</LatitudeDegrees>
              <LongitudeDegrees>-1.6060217656195163726806640625</LongitudeDegrees>
            </Position>
            <AltitudeMeters>486.399993896484375</AltitudeMeters>
            <DistanceMeters>87076.963178807</DistanceMeters>
          </Trackpoint>
          <Trackpoint>
            <Time>2018-08-26T10:11:03.000Z</Time>
            <Position>
              <LatitudeDegrees>42.88194076158106327056884765625</LatitudeDegrees>
              <LongitudeDegrees>-1.6060680337250232696533203125</LongitudeDegrees>
            </Position>
            <AltitudeMeters>486.399993896484375</AltitudeMeters>
            <DistanceMeters>87085.897206212</DistanceMeters>
          </Trackpoint>
          <Trackpoint>
            <Time>2018-08-26T10:11:04.000Z</Time>
            <Position>
              <LatitudeDegrees>42.88186716847121715545654296875</LatitudeDegrees>
              <LongitudeDegrees>-1.60611522383987903594970703125</LongitudeDegrees>
            </Position>
            <AltitudeMeters>486.399993896484375</AltitudeMeters>
            <DistanceMeters>87094.947721304</DistanceMeters>
          </Trackpoint>
          <Trackpoint>
            <Time>2018-08-26T10:11:05.000Z</Time>
            <Position>
              <LatitudeDegrees>42.88179273717105388641357421875</LatitudeDegrees>
              <LongitudeDegrees>-1.60616375505924224853515625</LongitudeDegrees>
            </Position>
            <AltitudeMeters>486.399993896484375</AltitudeMeters>
            <DistanceMeters>87104.129485496</DistanceMeters>
          </Trackpoint>
          <Trackpoint>
            <Time>2018-08-26T10:11:06.000Z</Time>
            <Position>
              <LatitudeDegrees>42.88171763531863689422607421875</LatitudeDegrees>
              <LongitudeDegrees>-1.606213040649890899658203125</LongitudeDegrees>
            </Position>
            <AltitudeMeters>486.399993896484375</AltitudeMeters>
            <DistanceMeters>87113.404696452</DistanceMeters>
          </Trackpoint>
          <Trackpoint>
            <Time>2018-08-26T10:11:07.000Z</Time>
            <Position>
              <LatitudeDegrees>42.88164052180945873260498046875</LatitudeDegrees>
              <LongitudeDegrees>-1.6062614880502223968505859375</LongitudeDegrees>
            </Position>
            <AltitudeMeters>486.399993896484375</AltitudeMeters>
            <DistanceMeters>87122.853047405</DistanceMeters>
          </Trackpoint>
          <Trackpoint>
            <Time>2018-08-26T10:11:08.000Z</Time>
            <Position>
              <LatitudeDegrees>42.8815623186528682708740234375</LatitudeDegrees>
              <LongitudeDegrees>-1.60630834288895130157470703125</LongitudeDegrees>
            </Position>
            <AltitudeMeters>486.399993896484375</AltitudeMeters>
            <DistanceMeters>87132.358569216</DistanceMeters>
          </Trackpoint>
          <Trackpoint>
            <Time>2018-08-26T10:11:09.000Z</Time>
            <Position>
              <LatitudeDegrees>42.88148327730596065521240234375</LatitudeDegrees>
              <LongitudeDegrees>-1.60635628737509250640869140625</LongitudeDegrees>
            </Position>
            <AltitudeMeters>486.20001220703125</AltitudeMeters>
            <DistanceMeters>87141.985858794</DistanceMeters>
          </Trackpoint>
          <Trackpoint>
            <Time>2018-08-26T10:11:10.000Z</Time>
            <Position>
              <LatitudeDegrees>42.88140381686389446258544921875</LatitudeDegrees>
              <LongitudeDegrees>-1.6064058244228363037109375</LongitudeDegrees>
            </Position>
            <AltitudeMeters>486.399993896484375</AltitudeMeters>
            <DistanceMeters>87151.708814635</DistanceMeters>
          </Trackpoint>
          <Trackpoint>
            <Time>2018-08-26T10:11:11.000Z</Time>
            <Position>
              <LatitudeDegrees>42.8813236020505428314208984375</LatitudeDegrees>
              <LongitudeDegrees>-1.60645519383251667022705078125</LongitudeDegrees>
            </Position>
            <AltitudeMeters>486.399993896484375</AltitudeMeters>
            <DistanceMeters>87161.503483192</DistanceMeters>
          </Trackpoint>
          <Trackpoint>
            <Time>2018-08-26T10:11:12.000Z</Time>
            <Position>
              <LatitudeDegrees>42.88124271668493747711181640625</LatitudeDegrees>
              <LongitudeDegrees>-1.60650498233735561370849609375</LongitudeDegrees>
            </Position>
            <AltitudeMeters>486.399993896484375</AltitudeMeters>
            <DistanceMeters>87171.379863387</DistanceMeters>
          </Trackpoint>
          <Trackpoint>
            <Time>2018-08-26T10:11:13.000Z</Time>
            <Position>
              <LatitudeDegrees>42.88116174750030040740966796875</LatitudeDegrees>
              <LongitudeDegrees>-1.60655544139444828033447265625</LongitudeDegrees>
            </Position>
            <AltitudeMeters>486.20001220703125</AltitudeMeters>
            <DistanceMeters>87181.287281363</DistanceMeters>
          </Trackpoint>
          <Trackpoint>
            <Time>2018-08-26T10:11:14.000Z</Time>
            <Position>
              <LatitudeDegrees>42.88108144886791706085205078125</LatitudeDegrees>
              <LongitudeDegrees>-1.6066058166325092315673828125</LongitudeDegrees>
            </Position>
            <AltitudeMeters>486.20001220703125</AltitudeMeters>
            <DistanceMeters>87191.123349633</DistanceMeters>
          </Trackpoint>
          <Trackpoint>
            <Time>2018-08-26T10:11:15.000Z</Time>
            <Position>
              <LatitudeDegrees>42.88100081495940685272216796875</LatitudeDegrees>
              <LongitudeDegrees>-1.60665518604218959808349609375</LongitudeDegrees>
            </Position>
            <AltitudeMeters>485.79998779296875</AltitudeMeters>
            <DistanceMeters>87200.960335918</DistanceMeters>
          </Trackpoint>
          <Trackpoint>
            <Time>2018-08-26T10:11:16.000Z</Time>
            <Position>
              <LatitudeDegrees>42.8809199295938014984130859375</LatitudeDegrees>
              <LongitudeDegrees>-1.60670363344252109527587890625</LongitudeDegrees>
            </Position>
            <AltitudeMeters>485.600006103515625</AltitudeMeters>
            <DistanceMeters>87210.791812829</DistanceMeters>
          </Trackpoint>
          <Trackpoint>
            <Time>2018-08-26T10:11:17.000Z</Time>
            <Position>
              <LatitudeDegrees>42.88083937950432300567626953125</LatitudeDegrees>
              <LongitudeDegrees>-1.60675174556672573089599609375</LongitudeDegrees>
            </Position>
            <AltitudeMeters>485.399993896484375</AltitudeMeters>
            <DistanceMeters>87220.578180428</DistanceMeters>
          </Trackpoint>
          <Trackpoint>
            <Time>2018-08-26T10:11:18.000Z</Time>
            <Position>
              <LatitudeDegrees>42.88075874559581279754638671875</LatitudeDegrees>
              <LongitudeDegrees>-1.6068012826144695281982421875</LongitudeDegrees>
            </Position>
            <AltitudeMeters>485.20001220703125</AltitudeMeters>
            <DistanceMeters>87230.419755502</DistanceMeters>
          </Trackpoint>
          <Trackpoint>
            <Time>2018-08-26T10:11:19.000Z</Time>
            <Position>
              <LatitudeDegrees>42.8806785307824611663818359375</LatitudeDegrees>
              <LongitudeDegrees>-1.60685132257640361785888671875</LongitudeDegrees>
            </Position>
            <AltitudeMeters>485</AltitudeMeters>
            <DistanceMeters>87240.236525633</DistanceMeters>
          </Trackpoint>
          <Trackpoint>
            <Time>2018-08-26T10:11:20.000Z</Time>
            <Position>
              <LatitudeDegrees>42.88059798069298267364501953125</LatitudeDegrees>
              <LongitudeDegrees>-1.60690077580511569976806640625</LongitudeDegrees>
            </Position>
            <AltitudeMeters>485</AltitudeMeters>
            <DistanceMeters>87250.067084015</DistanceMeters>
          </Trackpoint>
          <Trackpoint>
            <Time>2018-08-26T10:11:21.000Z</Time>
            <Position>
              <LatitudeDegrees>42.88051751442253589630126953125</LatitudeDegrees>
              <LongitudeDegrees>-1.6069503128528594970703125</LongitudeDegrees>
            </Position>
            <AltitudeMeters>484.399993896484375</AltitudeMeters>
            <DistanceMeters>87259.892129419</DistanceMeters>
          </Trackpoint>
          <Trackpoint>
            <Time>2018-08-26T10:11:22.000Z</Time>
            <Position>
              <LatitudeDegrees>42.88043771870434284210205078125</LatitudeDegrees>
              <LongitudeDegrees>-1.60700035281479358673095703125</LongitudeDegrees>
            </Position>
            <AltitudeMeters>484.20001220703125</AltitudeMeters>
            <DistanceMeters>87269.666494297</DistanceMeters>
          </Trackpoint>
          <Trackpoint>
            <Time>2018-08-26T10:11:23.000Z</Time>
            <Position>
              <LatitudeDegrees>42.88035825826227664947509765625</LatitudeDegrees>
              <LongitudeDegrees>-1.60705081187188625335693359375</LongitudeDegrees>
            </Position>
            <AltitudeMeters>484</AltitudeMeters>
            <DistanceMeters>87279.42143897</DistanceMeters>
          </Trackpoint>
          <Trackpoint>
            <Time>2018-08-26T10:11:24.000Z</Time>
            <Position>
              <LatitudeDegrees>42.8802792169153690338134765625</LatitudeDegrees>
              <LongitudeDegrees>-1.60710043273866176605224609375</LongitudeDegrees>
            </Position>
            <AltitudeMeters>483.79998779296875</AltitudeMeters>
            <DistanceMeters>87289.104843009</DistanceMeters>
          </Trackpoint>
          <Trackpoint>
            <Time>2018-08-26T10:11:25.000Z</Time>
            <Position>
              <LatitudeDegrees>42.8802000917494297027587890625</LatitudeDegrees>
              <LongitudeDegrees>-1.60714888013899326324462890625</LongitudeDegrees>
            </Position>
            <AltitudeMeters>483.79998779296875</AltitudeMeters>
            <DistanceMeters>87298.757424465</DistanceMeters>
          </Trackpoint>
          <Trackpoint>
            <Time>2018-08-26T10:11:26.000Z</Time>
            <Position>
              <LatitudeDegrees>42.88012205623090267181396484375</LatitudeDegrees>
              <LongitudeDegrees>-1.6071970760822296142578125</LongitudeDegrees>
            </Position>
            <AltitudeMeters>483.600006103515625</AltitudeMeters>
            <DistanceMeters>87308.291403145</DistanceMeters>
          </Trackpoint>
          <Trackpoint>
            <Time>2018-08-26T10:11:27.000Z</Time>
            <Position>
              <LatitudeDegrees>42.88004443980753421783447265625</LatitudeDegrees>
              <LongitudeDegrees>-1.6072451882064342498779296875</LongitudeDegrees>
            </Position>
            <AltitudeMeters>483.600006103515625</AltitudeMeters>
            <DistanceMeters>87317.779809869</DistanceMeters>
          </Trackpoint>
          <Trackpoint>
            <Time>2018-08-26T10:11:28.000Z</Time>
            <Position>
              <LatitudeDegrees>42.8799672424793243408203125</LatitudeDegrees>
              <LongitudeDegrees>-1.6072927974164485931396484375</LongitudeDegrees>
            </Position>
            <AltitudeMeters>483.600006103515625</AltitudeMeters>
            <DistanceMeters>87327.209026839</DistanceMeters>
          </Trackpoint>
          <Trackpoint>
            <Time>2018-08-26T10:11:29.000Z</Time>
            <Position>
              <LatitudeDegrees>42.8798909671604633331298828125</LatitudeDegrees>
              <LongitudeDegrees>-1.6073390655219554901123046875</LongitudeDegrees>
            </Position>
            <AltitudeMeters>483.600006103515625</AltitudeMeters>
            <DistanceMeters>87336.49931589</DistanceMeters>
          </Trackpoint>
          <Trackpoint>
            <Time>2018-08-26T10:11:30.000Z</Time>
            <Position>
              <LatitudeDegrees>42.87981569766998291015625</LatitudeDegrees>
              <LongitudeDegrees>-1.6073849983513355255126953125</LongitudeDegrees>
            </Position>
            <AltitudeMeters>483.600006103515625</AltitudeMeters>
            <DistanceMeters>87345.676653357</DistanceMeters>
          </Trackpoint>
          <Trackpoint>
            <Time>2018-08-26T10:11:31.000Z</Time>
            <Position>
              <LatitudeDegrees>42.8797414340078830718994140625</LatitudeDegrees>
              <LongitudeDegrees>-1.60743101499974727630615234375</LongitudeDegrees>
            </Position>
            <AltitudeMeters>483.600006103515625</AltitudeMeters>
            <DistanceMeters>87354.754564881</DistanceMeters>
          </Trackpoint>
          <Trackpoint>
            <Time>2018-08-26T10:11:32.000Z</Time>
            <Position>
              <LatitudeDegrees>42.87966859526932239532470703125</LatitudeDegrees>
              <LongitudeDegrees>-1.6074760258197784423828125</LongitudeDegrees>
            </Position>
            <AltitudeMeters>483.600006103515625</AltitudeMeters>
            <DistanceMeters>87363.653653059</DistanceMeters>
          </Trackpoint>
          <Trackpoint>
            <Time>2018-08-26T10:11:33.000Z</Time>
            <Position>
              <LatitudeDegrees>42.87959684617817401885986328125</LatitudeDegrees>
              <LongitudeDegrees>-1.60751885734498500823974609375</LongitudeDegrees>
            </Position>
            <AltitudeMeters>483.79998779296875</AltitudeMeters>
            <DistanceMeters>87372.370250056</DistanceMeters>
          </Trackpoint>
          <Trackpoint>
            <Time>2018-08-26T10:11:34.000Z</Time>
            <Position>
              <LatitudeDegrees>42.87952534854412078857421875</LatitudeDegrees>
              <LongitudeDegrees>-1.607560180127620697021484375</LongitudeDegrees>
            </Position>
            <AltitudeMeters>483.79998779296875</AltitudeMeters>
            <DistanceMeters>87381.012458238</DistanceMeters>
          </Trackpoint>
          <Trackpoint>
            <Time>2018-08-26T10:11:35.000Z</Time>
            <Position>
              <LatitudeDegrees>42.8794544376432895660400390625</LatitudeDegrees>
              <LongitudeDegrees>-1.607600748538970947265625</LongitudeDegrees>
            </Position>
            <AltitudeMeters>483.79998779296875</AltitudeMeters>
            <DistanceMeters>87389.570140165</DistanceMeters>
          </Trackpoint>
          <Trackpoint>
            <Time>2018-08-26T10:11:36.000Z</Time>
            <Position>
              <LatitudeDegrees>42.87938277237117290496826171875</LatitudeDegrees>
              <LongitudeDegrees>-1.60763855092227458953857421875</LongitudeDegrees>
            </Position>
            <AltitudeMeters>483.79998779296875</AltitudeMeters>
            <DistanceMeters>87398.121488541</DistanceMeters>
          </Trackpoint>
          <Trackpoint>
            <Time>2018-08-26T10:11:37.000Z</Time>
            <Position>
              <LatitudeDegrees>42.8793099336326122283935546875</LatitudeDegrees>
              <LongitudeDegrees>-1.6076733358204364776611328125</LongitudeDegrees>
            </Position>
            <AltitudeMeters>483.79998779296875</AltitudeMeters>
            <DistanceMeters>87406.710242494</DistanceMeters>
          </Trackpoint>
          <Trackpoint>
            <Time>2018-08-26T10:11:38.000Z</Time>
            <Position>
              <LatitudeDegrees>42.87923625670373439788818359375</LatitudeDegrees>
              <LongitudeDegrees>-1.6077066957950592041015625</LongitudeDegrees>
            </Position>
            <AltitudeMeters>484</AltitudeMeters>
            <DistanceMeters>87415.34983808</DistanceMeters>
          </Trackpoint>
          <Trackpoint>
            <Time>2018-08-26T10:11:39.000Z</Time>
            <Position>
              <LatitudeDegrees>42.87916182540357112884521484375</LatitudeDegrees>
              <LongitudeDegrees>-1.60773955285549163818359375</LongitudeDegrees>
            </Position>
            <AltitudeMeters>484</AltitudeMeters>
            <DistanceMeters>87424.057106413</DistanceMeters>
          </Trackpoint>
          <Trackpoint>
            <Time>2018-08-26T10:11:40.000Z</Time>
            <Position>
              <LatitudeDegrees>42.8790876455605030059814453125</LatitudeDegrees>
              <LongitudeDegrees>-1.60777115263044834136962890625</LongitudeDegrees>
            </Position>
            <AltitudeMeters>484</AltitudeMeters>
            <DistanceMeters>87432.706625668</DistanceMeters>
          </Trackpoint>
          <Trackpoint>
            <Time>2018-08-26T10:11:41.000Z</Time>
            <Position>
              <LatitudeDegrees>42.87901279516518115997314453125</LatitudeDegrees>
              <LongitudeDegrees>-1.6078014113008975982666015625</LongitudeDegrees>
            </Position>
            <AltitudeMeters>484</AltitudeMeters>
            <DistanceMeters>87441.395206626</DistanceMeters>
          </Trackpoint>
          <Trackpoint>
            <Time>2018-08-26T10:11:42.000Z</Time>
            <Position>
              <LatitudeDegrees>42.87893769331276416778564453125</LatitudeDegrees>
              <LongitudeDegrees>-1.60782982595264911651611328125</LongitudeDegrees>
            </Position>
            <AltitudeMeters>484</AltitudeMeters>
            <DistanceMeters>87450.069745634</DistanceMeters>
          </Trackpoint>
          <Trackpoint>
            <Time>2018-08-26T10:11:43.000Z</Time>
            <Position>
              <LatitudeDegrees>42.87886225618422031402587890625</LatitudeDegrees>
              <LongitudeDegrees>-1.6078555583953857421875</LongitudeDegrees>
            </Position>
            <AltitudeMeters>484</AltitudeMeters>
            <DistanceMeters>87458.724483302</DistanceMeters>
          </Trackpoint>
          <Trackpoint>
            <Time>2018-08-26T10:11:44.000Z</Time>
            <Position>
              <LatitudeDegrees>42.87878531031310558319091796875</LatitudeDegrees>
              <LongitudeDegrees>-1.6078781895339488983154296875</LongitudeDegrees>
            </Position>
            <AltitudeMeters>484</AltitudeMeters>
            <DistanceMeters>87467.48551348</DistanceMeters>
          </Trackpoint>
          <Trackpoint>
            <Time>2018-08-26T10:11:45.000Z</Time>
            <Position>
              <LatitudeDegrees>42.87870752625167369842529296875</LatitudeDegrees>
              <LongitudeDegrees>-1.60789939574897289276123046875</LongitudeDegrees>
            </Position>
            <AltitudeMeters>484</AltitudeMeters>
            <DistanceMeters>87476.314308407</DistanceMeters>
          </Trackpoint>
          <Trackpoint>
            <Time>2018-08-26T10:11:46.000Z</Time>
            <Position>
              <LatitudeDegrees>42.878629155457019805908203125</LatitudeDegrees>
              <LongitudeDegrees>-1.60792219452559947967529296875</LongitudeDegrees>
            </Position>
            <AltitudeMeters>484</AltitudeMeters>
            <DistanceMeters>87485.233161663</DistanceMeters>
          </Trackpoint>
          <Trackpoint>
            <Time>2018-08-26T10:11:47.000Z</Time>
            <Position>
              <LatitudeDegrees>42.87855044938623905181884765625</LatitudeDegrees>
              <LongitudeDegrees>-1.60794583149254322052001953125</LongitudeDegrees>
            </Position>
            <AltitudeMeters>483.600006103515625</AltitudeMeters>
            <DistanceMeters>87494.202495587</DistanceMeters>
          </Trackpoint>
          <Trackpoint>
            <Time>2018-08-26T10:11:48.000Z</Time>
            <Position>
              <LatitudeDegrees>42.8784714080393314361572265625</LatitudeDegrees>
              <LongitudeDegrees>-1.6079697199165821075439453125</LongitudeDegrees>
            </Position>
            <AltitudeMeters>483.399993896484375</AltitudeMeters>
            <DistanceMeters>87503.212511526</DistanceMeters>
          </Trackpoint>
          <Trackpoint>
            <Time>2018-08-26T10:11:49.000Z</Time>
            <Position>
              <LatitudeDegrees>42.8783912770450115203857421875</LatitudeDegrees>
              <LongitudeDegrees>-1.60799243487417697906494140625</LongitudeDegrees>
            </Position>
            <AltitudeMeters>483.20001220703125</AltitudeMeters>
            <DistanceMeters>87512.321207501</DistanceMeters>
          </Trackpoint>
          <Trackpoint>
            <Time>2018-08-26T10:11:50.000Z</Time>
            <Position>
              <LatitudeDegrees>42.87831005640327930450439453125</LatitudeDegrees>
              <LongitudeDegrees>-1.60801389254629611968994140625</LongitudeDegrees>
            </Position>
            <AltitudeMeters>483</AltitudeMeters>
            <DistanceMeters>87521.529487352</DistanceMeters>
          </Trackpoint>
          <Trackpoint>
            <Time>2018-08-26T10:11:51.000Z</Time>
            <Position>
              <LatitudeDegrees>42.87822774611413478851318359375</LatitudeDegrees>
              <LongitudeDegrees>-1.6080361045897006988525390625</LongitudeDegrees>
            </Position>
            <AltitudeMeters>483</AltitudeMeters>
            <DistanceMeters>87530.868249491</DistanceMeters>
          </Trackpoint>
          <Trackpoint>
            <Time>2018-08-26T10:11:52.000Z</Time>
            <Position>
              <LatitudeDegrees>42.87814543582499027252197265625</LatitudeDegrees>
              <LongitudeDegrees>-1.60805898718535900115966796875</LongitudeDegrees>
            </Position>
            <AltitudeMeters>482.79998779296875</AltitudeMeters>
            <DistanceMeters>87540.217641984</DistanceMeters>
          </Trackpoint>
          <Trackpoint>
            <Time>2018-08-26T10:11:53.000Z</Time>
            <Position>
              <LatitudeDegrees>42.87806228734552860260009765625</LatitudeDegrees>
              <LongitudeDegrees>-1.6080827079713344573974609375</LongitudeDegrees>
            </Position>
            <AltitudeMeters>482.79998779296875</AltitudeMeters>
            <DistanceMeters>87549.672203143</DistanceMeters>
          </Trackpoint>
          <Trackpoint>
            <Time>2018-08-26T10:11:54.000Z</Time>
            <Position>
              <LatitudeDegrees>42.87797830067574977874755859375</LatitudeDegrees>
              <LongitudeDegrees>-1.6081075184047222137451171875</LongitudeDegrees>
            </Position>
            <AltitudeMeters>482.600006103515625</AltitudeMeters>
            <DistanceMeters>87559.235970408</DistanceMeters>
          </Trackpoint>
          <Trackpoint>
            <Time>2018-08-26T10:11:55.000Z</Time>
            <Position>
              <LatitudeDegrees>42.877893559634685516357421875</LatitudeDegrees>
              <LongitudeDegrees>-1.60813174210488796234130859375</LongitudeDegrees>
            </Position>
            <AltitudeMeters>482.399993896484375</AltitudeMeters>
            <DistanceMeters>87568.872635088</DistanceMeters>
          </Trackpoint>
          <Trackpoint>
            <Time>2018-08-26T10:11:56.000Z</Time>
            <Position>
              <LatitudeDegrees>42.87780814804136753082275390625</LatitudeDegrees>
              <LongitudeDegrees>-1.60815454088151454925537109375</LongitudeDegrees>
            </Position>
            <AltitudeMeters>482.20001220703125</AltitudeMeters>
            <DistanceMeters>87578.559302437</DistanceMeters>
          </Trackpoint>
          <Trackpoint>
            <Time>2018-08-26T10:11:57.000Z</Time>
            <Position>
              <LatitudeDegrees>42.87772282026708126068115234375</LatitudeDegrees>
              <LongitudeDegrees>-1.6081772558391094207763671875</LongitudeDegrees>
            </Position>
            <AltitudeMeters>482.20001220703125</AltitudeMeters>
            <DistanceMeters>87588.236176557</DistanceMeters>
          </Trackpoint>
          <Trackpoint>
            <Time>2018-08-26T10:11:58.000Z</Time>
            <Position>
              <LatitudeDegrees>42.8776379115879535675048828125</LatitudeDegrees>
              <LongitudeDegrees>-1.60819997079670429229736328125</LongitudeDegrees>
            </Position>
            <AltitudeMeters>482</AltitudeMeters>
            <DistanceMeters>87597.866748458</DistanceMeters>
          </Trackpoint>
          <Trackpoint>
            <Time>2018-08-26T10:11:59.000Z</Time>
            <Position>
              <LatitudeDegrees>42.877552919089794158935546875</LatitudeDegrees>
              <LongitudeDegrees>-1.6082218475639820098876953125</LongitudeDegrees>
            </Position>
            <AltitudeMeters>482</AltitudeMeters>
            <DistanceMeters>87607.493569042</DistanceMeters>
          </Trackpoint>
          <Trackpoint>
            <Time>2018-08-26T10:12:00.000Z</Time>
            <Position>
              <LatitudeDegrees>42.8774679265916347503662109375</LatitudeDegrees>
              <LongitudeDegrees>-1.60824372433125972747802734375</LongitudeDegrees>
            </Position>
            <AltitudeMeters>481.600006103515625</AltitudeMeters>
            <DistanceMeters>87617.119920608</DistanceMeters>
          </Trackpoint>
          <Trackpoint>
            <Time>2018-08-26T10:12:01.000Z</Time>
            <Position>
              <LatitudeDegrees>42.87738285027444362640380859375</LatitudeDegrees>
              <LongitudeDegrees>-1.608265601098537445068359375</LongitudeDegrees>
            </Position>
            <AltitudeMeters>481.399993896484375</AltitudeMeters>
            <DistanceMeters>87626.756116749</DistanceMeters>
          </Trackpoint>
          <Trackpoint>
            <Time>2018-08-26T10:12:02.000Z</Time>
            <Position>
              <LatitudeDegrees>42.87729752250015735626220703125</LatitudeDegrees>
              <LongitudeDegrees>-1.608287729322910308837890625</LongitudeDegrees>
            </Position>
            <AltitudeMeters>481</AltitudeMeters>
            <DistanceMeters>87636.42365476</DistanceMeters>
          </Trackpoint>
          <Trackpoint>
            <Time>2018-08-26T10:12:03.000Z</Time>
            <Position>
              <LatitudeDegrees>42.87721219472587108612060546875</LatitudeDegrees>
              <LongitudeDegrees>-1.60831044428050518035888671875</LongitudeDegrees>
            </Position>
            <AltitudeMeters>480.600006103515625</AltitudeMeters>
            <DistanceMeters>87646.099595674</DistanceMeters>
          </Trackpoint>
          <Trackpoint>
            <Time>2018-08-26T10:12:04.000Z</Time>
            <Position>
              <LatitudeDegrees>42.87712686695158481597900390625</LatitudeDegrees>
              <LongitudeDegrees>-1.6083345003426074981689453125</LongitudeDegrees>
            </Position>
            <AltitudeMeters>480</AltitudeMeters>
            <DistanceMeters>87655.796977593</DistanceMeters>
          </Trackpoint>
          <Trackpoint>
            <Time>2018-08-26T10:12:05.000Z</Time>
            <Position>
              <LatitudeDegrees>42.87704086862504482269287109375</LatitudeDegrees>
              <LongitudeDegrees>-1.60835838876664638519287109375</LongitudeDegrees>
            </Position>
            <AltitudeMeters>479.600006103515625</AltitudeMeters>
            <DistanceMeters>87665.564411116</DistanceMeters>
          </Trackpoint>
          <Trackpoint>
            <Time>2018-08-26T10:12:06.000Z</Time>
            <Position>
              <LatitudeDegrees>42.87695436738431453704833984375</LatitudeDegrees>
              <LongitudeDegrees>-1.608381606638431549072265625</LongitudeDegrees>
            </Position>
            <AltitudeMeters>479</AltitudeMeters>
            <DistanceMeters>87675.376580858</DistanceMeters>
          </Trackpoint>
          <Trackpoint>
            <Time>2018-08-26T10:12:07.000Z</Time>
            <Position>
              <LatitudeDegrees>42.87686769850552082061767578125</LatitudeDegrees>
              <LongitudeDegrees>-1.60840515978634357452392578125</LongitudeDegrees>
            </Position>
            <AltitudeMeters>478.600006103515625</AltitudeMeters>
            <DistanceMeters>87685.212649129</DistanceMeters>
          </Trackpoint>
          <Trackpoint>
            <Time>2018-08-26T10:12:08.000Z</Time>
            <Position>
              <LatitudeDegrees>42.876781113445758819580078125</LatitudeDegrees>
              <LongitudeDegrees>-1.60842888057231903076171875</LongitudeDegrees>
            </Position>
            <AltitudeMeters>478.399993896484375</AltitudeMeters>
            <DistanceMeters>87695.042288896</DistanceMeters>
          </Trackpoint>
          <Trackpoint>
            <Time>2018-08-26T10:12:09.000Z</Time>
            <Position>
              <LatitudeDegrees>42.8766944445669651031494140625</LatitudeDegrees>
              <LongitudeDegrees>-1.608452014625072479248046875</LongitudeDegrees>
            </Position>
            <AltitudeMeters>478.20001220703125</AltitudeMeters>
            <DistanceMeters>87704.871469323</DistanceMeters>
          </Trackpoint>
          <Trackpoint>
            <Time>2018-08-26T10:12:10.000Z</Time>
            <Position>
              <LatitudeDegrees>42.87660777568817138671875</LatitudeDegrees>
              <LongitudeDegrees>-1.60847472958266735076904296875</LongitudeDegrees>
            </Position>
            <AltitudeMeters>478.20001220703125</AltitudeMeters>
            <DistanceMeters>87714.693757077</DistanceMeters>
          </Trackpoint>
          <Trackpoint>
            <Time>2018-08-26T10:12:11.000Z</Time>
            <Position>
              <LatitudeDegrees>42.87652186118066310882568359375</LatitudeDegrees>
              <LongitudeDegrees>-1.60849719308316707611083984375</LongitudeDegrees>
            </Position>
            <AltitudeMeters>478</AltitudeMeters>
            <DistanceMeters>87724.430170303</DistanceMeters>
          </Trackpoint>
          <Trackpoint>
            <Time>2018-08-26T10:12:12.000Z</Time>
            <Position>
              <LatitudeDegrees>42.8764362819492816925048828125</LatitudeDegrees>
              <LongitudeDegrees>-1.608519740402698516845703125</LongitudeDegrees>
            </Position>
            <AltitudeMeters>478</AltitudeMeters>
            <DistanceMeters>87734.131276256</DistanceMeters>
          </Trackpoint>
          <Trackpoint>
            <Time>2018-08-26T10:12:13.000Z</Time>
            <Position>
              <LatitudeDegrees>42.87635087035596370697021484375</LatitudeDegrees>
              <LongitudeDegrees>-1.60854128189384937286376953125</LongitudeDegrees>
            </Position>
            <AltitudeMeters>478</AltitudeMeters>
            <DistanceMeters>87743.798814267</DistanceMeters>
          </Trackpoint>
          <Trackpoint>
            <Time>2018-08-26T10:12:14.000Z</Time>
            <Position>
              <LatitudeDegrees>42.8762652911245822906494140625</LatitudeDegrees>
              <LongitudeDegrees>-1.60856324248015880584716796875</LongitudeDegrees>
            </Position>
            <AltitudeMeters>477.79998779296875</AltitudeMeters>
            <DistanceMeters>87753.491073304</DistanceMeters>
          </Trackpoint>
          <Trackpoint>
            <Time>2018-08-26T10:12:15.000Z</Time>
            <Position>
              <LatitudeDegrees>42.87617954425513744354248046875</LatitudeDegrees>
              <LongitudeDegrees>-1.6085872985422611236572265625</LongitudeDegrees>
            </Position>
            <AltitudeMeters>477.600006103515625</AltitudeMeters>
            <DistanceMeters>87763.233976546</DistanceMeters>
          </Trackpoint>
          <Trackpoint>
            <Time>2018-08-26T10:12:16.000Z</Time>
            <Position>
              <LatitudeDegrees>42.8760941326618194580078125</LatitudeDegrees>
              <LongitudeDegrees>-1.60861403681337833404541015625</LongitudeDegrees>
            </Position>
            <AltitudeMeters>477.600006103515625</AltitudeMeters>
            <DistanceMeters>87772.987995482</DistanceMeters>
          </Trackpoint>
          <Trackpoint>
            <Time>2018-08-26T10:12:17.000Z</Time>
            <Position>
              <LatitudeDegrees>42.876009307801723480224609375</LatitudeDegrees>
              <LongitudeDegrees>-1.608642451465129852294921875</LongitudeDegrees>
            </Position>
            <AltitudeMeters>477.600006103515625</AltitudeMeters>
            <DistanceMeters>87782.709558117</DistanceMeters>
          </Trackpoint>
          <Trackpoint>
            <Time>2018-08-26T10:12:18.000Z</Time>
            <Position>
              <LatitudeDegrees>42.87592456676065921783447265625</LatitudeDegrees>
              <LongitudeDegrees>-1.6086707822978496551513671875</LongitudeDegrees>
            </Position>
            <AltitudeMeters>477.399993896484375</AltitudeMeters>
            <DistanceMeters>87792.419967904</DistanceMeters>
          </Trackpoint>
          <Trackpoint>
            <Time>2018-08-26T10:12:19.000Z</Time>
            <Position>
              <LatitudeDegrees>42.87583940662443637847900390625</LatitudeDegrees>
              <LongitudeDegrees>-1.60869886167347431182861328125</LongitudeDegrees>
            </Position>
            <AltitudeMeters>477.20001220703125</AltitudeMeters>
            <DistanceMeters>87802.171209105</DistanceMeters>
          </Trackpoint>
          <Trackpoint>
            <Time>2018-08-26T10:12:20.000Z</Time>
            <Position>
              <LatitudeDegrees>42.875753827393054962158203125</LatitudeDegrees>
              <LongitudeDegrees>-1.60872601903975009918212890625</LongitudeDegrees>
            </Position>
            <AltitudeMeters>477</AltitudeMeters>
            <DistanceMeters>87811.950192157</DistanceMeters>
          </Trackpoint>
          <Trackpoint>
            <Time>2018-08-26T10:12:21.000Z</Time>
            <Position>
              <LatitudeDegrees>42.8756676614284515380859375</LatitudeDegrees>
              <LongitudeDegrees>-1.60875342786312103271484375</LongitudeDegrees>
            </Position>
            <AltitudeMeters>477</AltitudeMeters>
            <DistanceMeters>87821.79772946</DistanceMeters>
          </Trackpoint>
          <Trackpoint>
            <Time>2018-08-26T10:12:22.000Z</Time>
            <Position>
              <LatitudeDegrees>42.87558191455900669097900390625</LatitudeDegrees>
              <LongitudeDegrees>-1.60878184251487255096435546875</LongitudeDegrees>
            </Position>
            <AltitudeMeters>476.79998779296875</AltitudeMeters>
            <DistanceMeters>87831.619097826</DistanceMeters>
          </Trackpoint>
          <Trackpoint>
            <Time>2018-08-26T10:12:23.000Z</Time>
            <Position>
              <LatitudeDegrees>42.87549641914665699005126953125</LatitudeDegrees>
              <LongitudeDegrees>-1.6088126040995121002197265625</LongitudeDegrees>
            </Position>
            <AltitudeMeters>476.600006103515625</AltitudeMeters>
            <DistanceMeters>87841.4606729</DistanceMeters>
          </Trackpoint>
          <Trackpoint>
            <Time>2018-08-26T10:12:24.000Z</Time>
            <Position>
              <LatitudeDegrees>42.87541075609624385833740234375</LatitudeDegrees>
              <LongitudeDegrees>-1.60884386859834194183349609375</LongitudeDegrees>
            </Position>
            <AltitudeMeters>476.20001220703125</AltitudeMeters>
            <DistanceMeters>87851.330193385</DistanceMeters>
          </Trackpoint>
          <Trackpoint>
            <Time>2018-08-26T10:12:25.000Z</Time>
            <Position>
              <LatitudeDegrees>42.8753258474171161651611328125</LatitudeDegrees>
              <LongitudeDegrees>-1.608874797821044921875</LongitudeDegrees>
            </Position>
            <AltitudeMeters>475.79998779296875</AltitudeMeters>
            <DistanceMeters>87861.111484707</DistanceMeters>
          </Trackpoint>
          <Trackpoint>
            <Time>2018-08-26T10:12:26.000Z</Time>
            <Position>
              <LatitudeDegrees>42.8752423636615276336669921875</LatitudeDegrees>
              <LongitudeDegrees>-1.6089071519672870635986328125</LongitudeDegrees>
            </Position>
            <AltitudeMeters>475.600006103515625</AltitudeMeters>
            <DistanceMeters>87870.770612505</DistanceMeters>
          </Trackpoint>
          <Trackpoint>
            <Time>2018-08-26T10:12:27.000Z</Time>
            <Position>
              <LatitudeDegrees>42.87515946663916110992431640625</LatitudeDegrees>
              <LongitudeDegrees>-1.60893975757062435150146484375</LongitudeDegrees>
            </Position>
            <AltitudeMeters>475.600006103515625</AltitudeMeters>
            <DistanceMeters>87880.373483984</DistanceMeters>
          </Trackpoint>
          <Trackpoint>
            <Time>2018-08-26T10:12:28.000Z</Time>
            <Position>
              <LatitudeDegrees>42.8750770725309848785400390625</LatitudeDegrees>
              <LongitudeDegrees>-1.608972363173961639404296875</LongitudeDegrees>
            </Position>
            <AltitudeMeters>475.399993896484375</AltitudeMeters>
            <DistanceMeters>87889.922132153</DistanceMeters>
          </Trackpoint>
          <Trackpoint>
            <Time>2018-08-26T10:12:29.000Z</Time>
            <Position>
              <LatitudeDegrees>42.87499509751796722412109375</LatitudeDegrees>
              <LongitudeDegrees>-1.60900421440601348876953125</LongitudeDegrees>
            </Position>
            <AltitudeMeters>475.399993896484375</AltitudeMeters>
            <DistanceMeters>87899.409111225</DistanceMeters>
          </Trackpoint>
          <Trackpoint>
            <Time>2018-08-26T10:12:30.000Z</Time>
            <Position>
              <LatitudeDegrees>42.87491370923817157745361328125</LatitudeDegrees>
              <LongitudeDegrees>-1.60903631709516048431396484375</LongitudeDegrees>
            </Position>
            <AltitudeMeters>475.399993896484375</AltitudeMeters>
            <DistanceMeters>87908.838328195</DistanceMeters>
          </Trackpoint>
          <Trackpoint>
            <Time>2018-08-26T10:12:31.000Z</Time>
            <Position>
              <LatitudeDegrees>42.874833159148693084716796875</LatitudeDegrees>
              <LongitudeDegrees>-1.6090694256126880645751953125</LongitudeDegrees>
            </Position>
            <AltitudeMeters>475.399993896484375</AltitudeMeters>
            <DistanceMeters>87918.202197175</DistanceMeters>
          </Trackpoint>
          <Trackpoint>
            <Time>2018-08-26T10:12:32.000Z</Time>
            <Position>
              <LatitudeDegrees>42.87475327961146831512451171875</LatitudeDegrees>
              <LongitudeDegrees>-1.60910387523472309112548828125</LongitudeDegrees>
            </Position>
            <AltitudeMeters>475.399993896484375</AltitudeMeters>
            <DistanceMeters>87927.526443847</DistanceMeters>
          </Trackpoint>
          <Trackpoint>
            <Time>2018-08-26T10:12:33.000Z</Time>
            <Position>
              <LatitudeDegrees>42.8746737353503704071044921875</LatitudeDegrees>
              <LongitudeDegrees>-1.60913807339966297149658203125</LongitudeDegrees>
            </Position>
            <AltitudeMeters>475.399993896484375</AltitudeMeters>
            <DistanceMeters>87936.808467298</DistanceMeters>
          </Trackpoint>
          <Trackpoint>
            <Time>2018-08-26T10:12:34.000Z</Time>
            <Position>
              <LatitudeDegrees>42.87459486164152622222900390625</LatitudeDegrees>
              <LongitudeDegrees>-1.6091723553836345672607421875</LongitudeDegrees>
            </Position>
            <AltitudeMeters>475.20001220703125</AltitudeMeters>
            <DistanceMeters>87946.022139132</DistanceMeters>
          </Trackpoint>
          <Trackpoint>
            <Time>2018-08-26T10:12:35.000Z</Time>
            <Position>
              <LatitudeDegrees>42.87451590411365032196044921875</LatitudeDegrees>
              <LongitudeDegrees>-1.60920646972954273223876953125</LongitudeDegrees>
            </Position>
            <AltitudeMeters>475.20001220703125</AltitudeMeters>
            <DistanceMeters>87955.241199794</DistanceMeters>
          </Trackpoint>
          <Trackpoint>
            <Time>2018-08-26T10:12:36.000Z</Time>
            <Position>
              <LatitudeDegrees>42.874437868595123291015625</LatitudeDegrees>
              <LongitudeDegrees>-1.60923798568546772003173828125</LongitudeDegrees>
            </Position>
            <AltitudeMeters>475.20001220703125</AltitudeMeters>
            <DistanceMeters>87964.299693302</DistanceMeters>
          </Trackpoint>
          <Trackpoint>
            <Time>2018-08-26T10:12:37.000Z</Time>
            <Position>
              <LatitudeDegrees>42.87436008453369140625</LatitudeDegrees>
              <LongitudeDegrees>-1.609270088374614715576171875</LongitudeDegrees>
            </Position>
            <AltitudeMeters>475.20001220703125</AltitudeMeters>
            <DistanceMeters>87973.34471915</DistanceMeters>
          </Trackpoint>
          <Trackpoint>
            <Time>2018-08-26T10:12:38.000Z</Time>
            <Position>
              <LatitudeDegrees>42.8742828033864498138427734375</LatitudeDegrees>
              <LongitudeDegrees>-1.6093026101589202880859375</LongitudeDegrees>
            </Position>
            <AltitudeMeters>475.20001220703125</AltitudeMeters>
            <DistanceMeters>87982.345710532</DistanceMeters>
          </Trackpoint>
          <Trackpoint>
            <Time>2018-08-26T10:12:39.000Z</Time>
            <Position>
              <LatitudeDegrees>42.8742058575153350830078125</LatitudeDegrees>
              <LongitudeDegrees>-1.609334461390972137451171875</LongitudeDegrees>
            </Position>
            <AltitudeMeters>475.20001220703125</AltitudeMeters>
            <DistanceMeters>87991.295390864</DistanceMeters>
          </Trackpoint>
          <Trackpoint>
            <Time>2018-08-26T10:12:40.000Z</Time>
            <Position>
              <LatitudeDegrees>42.87412899546325206756591796875</LatitudeDegrees>
              <LongitudeDegrees>-1.60936589352786540985107421875</LongitudeDegrees>
            </Position>
            <AltitudeMeters>475.20001220703125</AltitudeMeters>
            <DistanceMeters>88000.226385503</DistanceMeters>
          </Trackpoint>
          <Trackpoint>
            <Time>2018-08-26T10:12:41.000Z</Time>
            <Position>
              <LatitudeDegrees>42.87405221723020076751708984375</LatitudeDegrees>
              <LongitudeDegrees>-1.60939841531217098236083984375</LongitudeDegrees>
            </Position>
            <AltitudeMeters>475.20001220703125</AltitudeMeters>
            <DistanceMeters>88009.174047641</DistanceMeters>
          </Trackpoint>
          <Trackpoint>
            <Time>2018-08-26T10:12:42.000Z</Time>
            <Position>
              <LatitudeDegrees>42.8739751875400543212890625</LatitudeDegrees>
              <LongitudeDegrees>-1.60942942835390567779541015625</LongitudeDegrees>
            </Position>
            <AltitudeMeters>475.20001220703125</AltitudeMeters>
            <DistanceMeters>88018.112622269</DistanceMeters>
          </Trackpoint>
          <Trackpoint>
            <Time>2018-08-26T10:12:43.000Z</Time>
            <Position>
              <LatitudeDegrees>42.87389832548797130584716796875</LatitudeDegrees>
              <LongitudeDegrees>-1.60946027375757694244384765625</LongitudeDegrees>
            </Position>
            <AltitudeMeters>475.399993896484375</AltitudeMeters>
            <DistanceMeters>88027.02995669</DistanceMeters>
          </Trackpoint>
          <Trackpoint>
            <Time>2018-08-26T10:12:44.000Z</Time>
            <Position>
              <LatitudeDegrees>42.873821295797824859619140625</LatitudeDegrees>
              <LongitudeDegrees>-1.60948877222836017608642578125</LongitudeDegrees>
            </Position>
            <AltitudeMeters>475.399993896484375</AltitudeMeters>
            <DistanceMeters>88035.912794523</DistanceMeters>
          </Trackpoint>
          <Trackpoint>
            <Time>2018-08-26T10:12:45.000Z</Time>
            <Position>
              <LatitudeDegrees>42.87374409846961498260498046875</LatitudeDegrees>
              <LongitudeDegrees>-1.60951341502368450164794921875</LongitudeDegrees>
            </Position>
            <AltitudeMeters>475.20001220703125</AltitudeMeters>
            <DistanceMeters>88044.736473976</DistanceMeters>
          </Trackpoint>
          <Trackpoint>
            <Time>2018-08-26T10:12:46.000Z</Time>
            <Position>
              <LatitudeDegrees>42.87366648204624652862548828125</LatitudeDegrees>
              <LongitudeDegrees>-1.6095354594290256500244140625</LongitudeDegrees>
            </Position>
            <AltitudeMeters>475.20001220703125</AltitudeMeters>
            <DistanceMeters>88053.560665111</DistanceMeters>
          </Trackpoint>
          <Trackpoint>
            <Time>2018-08-26T10:12:47.000Z</Time>
            <Position>
              <LatitudeDegrees>42.873588614165782928466796875</LatitudeDegrees>
              <LongitudeDegrees>-1.60955582745373249053955078125</LongitudeDegrees>
            </Position>
            <AltitudeMeters>475.20001220703125</AltitudeMeters>
            <DistanceMeters>88062.385879518</DistanceMeters>
          </Trackpoint>
          <Trackpoint>
            <Time>2018-08-26T10:12:48.000Z</Time>
            <Position>
              <LatitudeDegrees>42.87351007573306560516357421875</LatitudeDegrees>
              <LongitudeDegrees>-1.6095733456313610076904296875</LongitudeDegrees>
            </Position>
            <AltitudeMeters>475.20001220703125</AltitudeMeters>
            <DistanceMeters>88071.243266499</DistanceMeters>
          </Trackpoint>
          <Trackpoint>
            <Time>2018-08-26T10:12:49.000Z</Time>
            <Position>
              <LatitudeDegrees>42.8734312020242214202880859375</LatitudeDegrees>
              <LongitudeDegrees>-1.60958667285740375518798828125</LongitudeDegrees>
            </Position>
            <AltitudeMeters>475.20001220703125</AltitudeMeters>
            <DistanceMeters>88080.0889215</DistanceMeters>
          </Trackpoint>
          <Trackpoint>
            <Time>2018-08-26T10:12:50.000Z</Time>
            <Position>
              <LatitudeDegrees>42.8733517415821552276611328125</LatitudeDegrees>
              <LongitudeDegrees>-1.609596312046051025390625</LongitudeDegrees>
            </Position>
            <AltitudeMeters>475.20001220703125</AltitudeMeters>
            <DistanceMeters>88088.967692099</DistanceMeters>
          </Trackpoint>
          <Trackpoint>
            <Time>2018-08-26T10:12:51.000Z</Time>
            <Position>
              <LatitudeDegrees>42.87327219732105731964111328125</LatitudeDegrees>
              <LongitudeDegrees>-1.609604023396968841552734375</LongitudeDegrees>
            </Position>
            <AltitudeMeters>475.20001220703125</AltitudeMeters>
            <DistanceMeters>88097.84341105</DistanceMeters>
          </Trackpoint>
          <Trackpoint>
            <Time>2018-08-26T10:12:52.000Z</Time>
            <Position>
              <LatitudeDegrees>42.87319273687899112701416015625</LatitudeDegrees>
              <LongitudeDegrees>-1.60961014218628406524658203125</LongitudeDegrees>
            </Position>
            <AltitudeMeters>475.20001220703125</AltitudeMeters>
            <DistanceMeters>88106.701307766</DistanceMeters>
          </Trackpoint>
          <Trackpoint>
            <Time>2018-08-26T10:12:53.000Z</Time>
            <Position>
              <LatitudeDegrees>42.87311361171305179595947265625</LatitudeDegrees>
              <LongitudeDegrees>-1.6096122376620769500732421875</LongitudeDegrees>
            </Position>
            <AltitudeMeters>475.20001220703125</AltitudeMeters>
            <DistanceMeters>88115.509622974</DistanceMeters>
          </Trackpoint>
          <Trackpoint>
            <Time>2018-08-26T10:12:54.000Z</Time>
            <Position>
              <LatitudeDegrees>42.87303440272808074951171875</LatitudeDegrees>
              <LongitudeDegrees>-1.6096110641956329345703125</LongitudeDegrees>
            </Position>
            <AltitudeMeters>475.20001220703125</AltitudeMeters>
            <DistanceMeters>88124.326135778</DistanceMeters>
          </Trackpoint>
          <Trackpoint>
            <Time>2018-08-26T10:12:55.000Z</Time>
            <Position>
              <LatitudeDegrees>42.8729551099240779876708984375</LatitudeDegrees>
              <LongitudeDegrees>-1.609607376158237457275390625</LongitudeDegrees>
            </Position>
            <AltitudeMeters>475.20001220703125</AltitudeMeters>
            <DistanceMeters>88133.156976065</DistanceMeters>
          </Trackpoint>
          <Trackpoint>
            <Time>2018-08-26T10:12:56.000Z</Time>
            <Position>
              <LatitudeDegrees>42.87287573330104351043701171875</LatitudeDegrees>
              <LongitudeDegrees>-1.60960108973085880279541015625</LongitudeDegrees>
            </Position>
            <AltitudeMeters>475.20001220703125</AltitudeMeters>
            <DistanceMeters>88142.006203315</DistanceMeters>
          </Trackpoint>
          <Trackpoint>
            <Time>2018-08-26T10:12:57.000Z</Time>
            <Position>
              <LatitudeDegrees>42.87279560230672359466552734375</LatitudeDegrees>
              <LongitudeDegrees>-1.60959354601800441741943359375</LongitudeDegrees>
            </Position>
            <AltitudeMeters>475.20001220703125</AltitudeMeters>
            <DistanceMeters>88150.946293169</DistanceMeters>
          </Trackpoint>
          <Trackpoint>
            <Time>2018-08-26T10:12:58.000Z</Time>
            <Position>
              <LatitudeDegrees>42.8727150522172451019287109375</LatitudeDegrees>
              <LongitudeDegrees>-1.60958365537226200103759765625</LongitudeDegrees>
            </Position>
            <AltitudeMeters>475.20001220703125</AltitudeMeters>
            <DistanceMeters>88159.948287727</DistanceMeters>
          </Trackpoint>
          <Trackpoint>
            <Time>2018-08-26T10:12:59.000Z</Time>
            <Position>
              <LatitudeDegrees>42.8726342506706714630126953125</LatitudeDegrees>
              <LongitudeDegrees>-1.609573848545551300048828125</LongitudeDegrees>
            </Position>
            <AltitudeMeters>475.20001220703125</AltitudeMeters>
            <DistanceMeters>88168.977325889</DistanceMeters>
          </Trackpoint>
          <Trackpoint>
            <Time>2018-08-26T10:13:00.000Z</Time>
            <Position>
              <LatitudeDegrees>42.87255303002893924713134765625</LatitudeDegrees>
              <LongitudeDegrees>-1.609563119709491729736328125</LongitudeDegrees>
            </Position>
            <AltitudeMeters>475</AltitudeMeters>
            <DistanceMeters>88178.059215463</DistanceMeters>
          </Trackpoint>
          <Trackpoint>
            <Time>2018-08-26T10:13:01.000Z</Time>
            <Position>
              <LatitudeDegrees>42.872472144663333892822265625</LatitudeDegrees>
              <LongitudeDegrees>-1.6095512174069881439208984375</LongitudeDegrees>
            </Position>
            <AltitudeMeters>475</AltitudeMeters>
            <DistanceMeters>88187.114219279</DistanceMeters>
          </Trackpoint>
          <Trackpoint>
            <Time>2018-08-26T10:13:02.000Z</Time>
            <Position>
              <LatitudeDegrees>42.87239092402160167694091796875</LatitudeDegrees>
              <LongitudeDegrees>-1.60953839309513568878173828125</LongitudeDegrees>
            </Position>
            <AltitudeMeters>475</AltitudeMeters>
            <DistanceMeters>88196.214484719</DistanceMeters>
          </Trackpoint>
          <Trackpoint>
            <Time>2018-08-26T10:13:03.000Z</Time>
            <Position>
              <LatitudeDegrees>42.8723097033798694610595703125</LatitudeDegrees>
              <LongitudeDegrees>-1.60952464677393436431884765625</LongitudeDegrees>
            </Position>
            <AltitudeMeters>475</AltitudeMeters>
            <DistanceMeters>88205.323676365</DistanceMeters>
          </Trackpoint>
          <Trackpoint>
            <Time>2018-08-26T10:13:04.000Z</Time>
            <Position>
              <LatitudeDegrees>42.87222898565232753753662109375</LatitudeDegrees>
              <LongitudeDegrees>-1.6095126606523990631103515625</LongitudeDegrees>
            </Position>
            <AltitudeMeters>475</AltitudeMeters>
            <DistanceMeters>88214.360711905</DistanceMeters>
          </Trackpoint>
          <Trackpoint>
            <Time>2018-08-26T10:13:05.000Z</Time>
            <Position>
              <LatitudeDegrees>42.87214835174381732940673828125</LatitudeDegrees>
              <LongitudeDegrees>-1.6095015965402126312255859375</LongitudeDegrees>
            </Position>
            <AltitudeMeters>475</AltitudeMeters>
            <DistanceMeters>88223.380744541</DistanceMeters>
          </Trackpoint>
          <Trackpoint>
            <Time>2018-08-26T10:13:06.000Z</Time>
            <Position>
              <LatitudeDegrees>42.8720676340162754058837890625</LatitudeDegrees>
              <LongitudeDegrees>-1.60948793403804302215576171875</LongitudeDegrees>
            </Position>
            <AltitudeMeters>474.79998779296875</AltitudeMeters>
            <DistanceMeters>88232.433753644</DistanceMeters>
          </Trackpoint>
          <Trackpoint>
            <Time>2018-08-26T10:13:07.000Z</Time>
            <Position>
              <LatitudeDegrees>42.87198792211711406707763671875</LatitudeDegrees>
              <LongitudeDegrees>-1.60947066731750965118408203125</LongitudeDegrees>
            </Position>
            <AltitudeMeters>474.79998779296875</AltitudeMeters>
            <DistanceMeters>88241.416668711</DistanceMeters>
          </Trackpoint>
          <Trackpoint>
            <Time>2018-08-26T10:13:08.000Z</Time>
            <Position>
              <LatitudeDegrees>42.87190779112279415130615234375</LatitudeDegrees>
              <LongitudeDegrees>-1.60945356823503971099853515625</LongitudeDegrees>
            </Position>
            <AltitudeMeters>474.79998779296875</AltitudeMeters>
            <DistanceMeters>88250.443206239</DistanceMeters>
          </Trackpoint>
          <Trackpoint>
            <Time>2018-08-26T10:13:09.000Z</Time>
            <Position>
              <LatitudeDegrees>42.8718272410333156585693359375</LatitudeDegrees>
              <LongitudeDegrees>-1.6094375587999820709228515625</LongitudeDegrees>
            </Position>
            <AltitudeMeters>474.79998779296875</AltitudeMeters>
            <DistanceMeters>88259.503194919</DistanceMeters>
          </Trackpoint>
          <Trackpoint>
            <Time>2018-08-26T10:13:10.000Z</Time>
            <Position>
              <LatitudeDegrees>42.87174635566771030426025390625</LatitudeDegrees>
              <LongitudeDegrees>-1.6094234772026538848876953125</LongitudeDegrees>
            </Position>
            <AltitudeMeters>474.600006103515625</AltitudeMeters>
            <DistanceMeters>88268.579116763</DistanceMeters>
          </Trackpoint>
          <Trackpoint>
            <Time>2018-08-26T10:13:11.000Z</Time>
            <Position>
              <LatitudeDegrees>42.87166505120694637298583984375</LatitudeDegrees>
              <LongitudeDegrees>-1.60941065289080142974853515625</LongitudeDegrees>
            </Position>
            <AltitudeMeters>474.600006103515625</AltitudeMeters>
            <DistanceMeters>88277.688804053</DistanceMeters>
          </Trackpoint>
          <Trackpoint>
            <Time>2018-08-26T10:13:12.000Z</Time>
            <Position>
              <LatitudeDegrees>42.87158424966037273406982421875</LatitudeDegrees>
              <LongitudeDegrees>-1.60939841531217098236083984375</LongitudeDegrees>
            </Position>
            <AltitudeMeters>474.600006103515625</AltitudeMeters>
            <DistanceMeters>88286.736824447</DistanceMeters>
          </Trackpoint>
          <Trackpoint>
            <Time>2018-08-26T10:13:13.000Z</Time>
            <Position>
              <LatitudeDegrees>42.8715033642947673797607421875</LatitudeDegrees>
              <LongitudeDegrees>-1.6093876026570796966552734375</LongitudeDegrees>
            </Position>
            <AltitudeMeters>474.399993896484375</AltitudeMeters>
            <DistanceMeters>88295.782848586</DistanceMeters>
          </Trackpoint>
          <Trackpoint>
            <Time>2018-08-26T10:13:14.000Z</Time>
            <Position>
              <LatitudeDegrees>42.87142239511013031005859375</LatitudeDegrees>
              <LongitudeDegrees>-1.6093792207539081573486328125</LongitudeDegrees>
            </Position>
            <AltitudeMeters>474.20001220703125</AltitudeMeters>
            <DistanceMeters>88304.820883301</DistanceMeters>
          </Trackpoint>
          <Trackpoint>
            <Time>2018-08-26T10:13:15.000Z</Time>
            <Position>
              <LatitudeDegrees>42.87134083919227123260498046875</LatitudeDegrees>
              <LongitudeDegrees>-1.6093738563358783721923828125</LongitudeDegrees>
            </Position>
            <AltitudeMeters>474.20001220703125</AltitudeMeters>
            <DistanceMeters>88313.908736687</DistanceMeters>
          </Trackpoint>
          <Trackpoint>
            <Time>2018-08-26T10:13:16.000Z</Time>
            <Position>
              <LatitudeDegrees>42.8712592832744121551513671875</LatitudeDegrees>
              <LongitudeDegrees>-1.60937209613621234893798828125</LongitudeDegrees>
            </Position>
            <AltitudeMeters>474.20001220703125</AltitudeMeters>
            <DistanceMeters>88322.98664821</DistanceMeters>
          </Trackpoint>
          <Trackpoint>
            <Time>2018-08-26T10:13:17.000Z</Time>
            <Position>
              <LatitudeDegrees>42.8711776435375213623046875</LatitudeDegrees>
              <LongitudeDegrees>-1.609375365078449249267578125</LongitudeDegrees>
            </Position>
            <AltitudeMeters>474</AltitudeMeters>
            <DistanceMeters>88332.076985362</DistanceMeters>
          </Trackpoint>
          <Trackpoint>
            <Time>2018-08-26T10:13:18.000Z</Time>
            <Position>
              <LatitudeDegrees>42.8710956685245037078857421875</LatitudeDegrees>
              <LongitudeDegrees>-1.60938047803938388824462890625</LongitudeDegrees>
            </Position>
            <AltitudeMeters>474</AltitudeMeters>
            <DistanceMeters>88341.210431929</DistanceMeters>
          </Trackpoint>
          <Trackpoint>
            <Time>2018-08-26T10:13:19.000Z</Time>
            <Position>
              <LatitudeDegrees>42.8710135258734226226806640625</LatitudeDegrees>
              <LongitudeDegrees>-1.60938802175223827362060546875</LongitudeDegrees>
            </Position>
            <AltitudeMeters>474</AltitudeMeters>
            <DistanceMeters>88350.374476393</DistanceMeters>
          </Trackpoint>
          <Trackpoint>
            <Time>2018-08-26T10:13:20.000Z</Time>
            <Position>
              <LatitudeDegrees>42.87093222141265869140625</LatitudeDegrees>
              <LongitudeDegrees>-1.60939925350248813629150390625</LongitudeDegrees>
            </Position>
            <AltitudeMeters>473.79998779296875</AltitudeMeters>
            <DistanceMeters>88359.470275444</DistanceMeters>
          </Trackpoint>
          <Trackpoint>
            <Time>2018-08-26T10:13:21.000Z</Time>
            <Position>
              <LatitudeDegrees>42.87085133604705333709716796875</LatitudeDegrees>
              <LongitudeDegrees>-1.60941551439464092254638671875</LongitudeDegrees>
            </Position>
            <AltitudeMeters>473.79998779296875</AltitudeMeters>
            <DistanceMeters>88368.570044726</DistanceMeters>
          </Trackpoint>
          <Trackpoint>
            <Time>2018-08-26T10:13:22.000Z</Time>
            <Position>
              <LatitudeDegrees>42.8707714565098285675048828125</LatitudeDegrees>
              <LongitudeDegrees>-1.609437055885791778564453125</LongitudeDegrees>
            </Position>
            <AltitudeMeters>473.79998779296875</AltitudeMeters>
            <DistanceMeters>88377.632524809</DistanceMeters>
          </Trackpoint>
          <Trackpoint>
            <Time>2018-08-26T10:13:23.000Z</Time>
            <Position>
              <LatitudeDegrees>42.87069241516292095184326171875</LatitudeDegrees>
              <LongitudeDegrees>-1.609462201595306396484375</LongitudeDegrees>
            </Position>
            <AltitudeMeters>473.600006103515625</AltitudeMeters>
            <DistanceMeters>88386.666562163</DistanceMeters>
          </Trackpoint>
          <Trackpoint>
            <Time>2018-08-26T10:13:24.000Z</Time>
            <Position>
              <LatitudeDegrees>42.87061379291117191314697265625</LatitudeDegrees>
              <LongitudeDegrees>-1.60949028097093105316162109375</LongitudeDegrees>
            </Position>
            <AltitudeMeters>473.600006103515625</AltitudeMeters>
            <DistanceMeters>88395.71208717</DistanceMeters>
          </Trackpoint>
          <Trackpoint>
            <Time>2018-08-26T10:13:25.000Z</Time>
            <Position>
              <LatitudeDegrees>42.8705360926687717437744140625</LatitudeDegrees>
              <LongitudeDegrees>-1.609520204365253448486328125</LongitudeDegrees>
            </Position>
            <AltitudeMeters>473.600006103515625</AltitudeMeters>
            <DistanceMeters>88404.698017481</DistanceMeters>
          </Trackpoint>
          <Trackpoint>
            <Time>2018-08-26T10:13:26.000Z</Time>
            <Position>
              <LatitudeDegrees>42.87045939825475215911865234375</LatitudeDegrees>
              <LongitudeDegrees>-1.60955280996859073638916015625</LongitudeDegrees>
            </Position>
            <AltitudeMeters>473.399993896484375</AltitudeMeters>
            <DistanceMeters>88413.639117344</DistanceMeters>
          </Trackpoint>
          <Trackpoint>
            <Time>2018-08-26T10:13:27.000Z</Time>
            <Position>
              <LatitudeDegrees>42.87038463167846202850341796875</LatitudeDegrees>
              <LongitudeDegrees>-1.609590612351894378662109375</LongitudeDegrees>
            </Position>
            <AltitudeMeters>473</AltitudeMeters>
            <DistanceMeters>88422.513818846</DistanceMeters>
          </Trackpoint>
          <Trackpoint>
            <Time>2018-08-26T10:13:28.000Z</Time>
            <Position>
              <LatitudeDegrees>42.8703112900257110595703125</LatitudeDegrees>
              <LongitudeDegrees>-1.60963377915322780609130859375</LongitudeDegrees>
            </Position>
            <AltitudeMeters>473</AltitudeMeters>
            <DistanceMeters>88431.40376986</DistanceMeters>
          </Trackpoint>
          <Trackpoint>
            <Time>2018-08-26T10:13:29.000Z</Time>
            <Position>
              <LatitudeDegrees>42.870239876210689544677734375</LatitudeDegrees>
              <LongitudeDegrees>-1.60968021489679813385009765625</LongitudeDegrees>
            </Position>
            <AltitudeMeters>472.600006103515625</AltitudeMeters>
            <DistanceMeters>88440.209009002</DistanceMeters>
          </Trackpoint>
          <Trackpoint>
            <Time>2018-08-26T10:13:30.000Z</Time>
            <Position>
              <LatitudeDegrees>42.8701703064143657684326171875</LatitudeDegrees>
              <LongitudeDegrees>-1.60972950048744678497314453125</LongitudeDegrees>
            </Position>
            <AltitudeMeters>472.399993896484375</AltitudeMeters>
            <DistanceMeters>88448.933889771</DistanceMeters>
          </Trackpoint>
          <Trackpoint>
            <Time>2018-08-26T10:13:31.000Z</Time>
            <Position>
              <LatitudeDegrees>42.87010299973189830780029296875</LatitudeDegrees>
              <LongitudeDegrees>-1.60978046245872974395751953125</LongitudeDegrees>
            </Position>
            <AltitudeMeters>472.399993896484375</AltitudeMeters>
            <DistanceMeters>88457.501590245</DistanceMeters>
          </Trackpoint>
          <Trackpoint>
            <Time>2018-08-26T10:13:32.000Z</Time>
            <Position>
              <LatitudeDegrees>42.87003812380135059356689453125</LatitudeDegrees>
              <LongitudeDegrees>-1.60983569920063018798828125</LongitudeDegrees>
            </Position>
            <AltitudeMeters>472.20001220703125</AltitudeMeters>
            <DistanceMeters>88466.013247152</DistanceMeters>
          </Trackpoint>
          <Trackpoint>
            <Time>2018-08-26T10:13:33.000Z</Time>
            <Position>
              <LatitudeDegrees>42.86997542716562747955322265625</LatitudeDegrees>
              <LongitudeDegrees>-1.60988959483802318572998046875</LongitudeDegrees>
            </Position>
            <AltitudeMeters>472.20001220703125</AltitudeMeters>
            <DistanceMeters>88474.260887169</DistanceMeters>
          </Trackpoint>
          <Trackpoint>
            <Time>2018-08-26T10:13:34.000Z</Time>
            <Position>
              <LatitudeDegrees>42.869914658367633819580078125</LatitudeDegrees>
              <LongitudeDegrees>-1.609943993389606475830078125</LongitudeDegrees>
            </Position>
            <AltitudeMeters>472.20001220703125</AltitudeMeters>
            <DistanceMeters>88482.349887968</DistanceMeters>
          </Trackpoint>
          <Trackpoint>
            <Time>2018-08-26T10:13:35.000Z</Time>
            <Position>
              <LatitudeDegrees>42.8698548115789890289306640625</LatitudeDegrees>
              <LongitudeDegrees>-1.61000124178826808929443359375</LongitudeDegrees>
            </Position>
            <AltitudeMeters>472.20001220703125</AltitudeMeters>
            <DistanceMeters>88490.485084969</DistanceMeters>
          </Trackpoint>
          <Trackpoint>
            <Time>2018-08-26T10:13:36.000Z</Time>
            <Position>
              <LatitudeDegrees>42.8697927854955196380615234375</LatitudeDegrees>
              <LongitudeDegrees>-1.6100584901869297027587890625</LongitudeDegrees>
            </Position>
            <AltitudeMeters>472.20001220703125</AltitudeMeters>
            <DistanceMeters>88498.819854197</DistanceMeters>
          </Trackpoint>
          <Trackpoint>
            <Time>2018-08-26T10:13:37.000Z</Time>
            <Position>
              <LatitudeDegrees>42.869730927050113677978515625</LatitudeDegrees>
              <LongitudeDegrees>-1.6101161576807498931884765625</LongitudeDegrees>
            </Position>
            <AltitudeMeters>472.20001220703125</AltitudeMeters>
            <DistanceMeters>88507.158414542</DistanceMeters>
          </Trackpoint>
          <Trackpoint>
            <Time>2018-08-26T10:13:38.000Z</Time>
            <Position>
              <LatitudeDegrees>42.86966957151889801025390625</LatitudeDegrees>
              <LongitudeDegrees>-1.6101765073835849761962890625</LongitudeDegrees>
            </Position>
            <AltitudeMeters>472.20001220703125</AltitudeMeters>
            <DistanceMeters>88515.576730284</DistanceMeters>
          </Trackpoint>
          <Trackpoint>
            <Time>2018-08-26T10:13:39.000Z</Time>
            <Position>
              <LatitudeDegrees>42.86960947327315807342529296875</LatitudeDegrees>
              <LongitudeDegrees>-1.61023576743900775909423828125</LongitudeDegrees>
            </Position>
            <AltitudeMeters>472.20001220703125</AltitudeMeters>
            <DistanceMeters>88523.830389878</DistanceMeters>
          </Trackpoint>
          <Trackpoint>
            <Time>2018-08-26T10:13:40.000Z</Time>
            <Position>
              <LatitudeDegrees>42.869549207389354705810546875</LatitudeDegrees>
              <LongitudeDegrees>-1.6102931834757328033447265625</LongitudeDegrees>
            </Position>
            <AltitudeMeters>472.20001220703125</AltitudeMeters>
            <DistanceMeters>88532.011522232</DistanceMeters>
          </Trackpoint>
          <Trackpoint>
            <Time>2018-08-26T10:13:41.000Z</Time>
            <Position>
              <LatitudeDegrees>42.8694876842200756072998046875</LatitudeDegrees>
              <LongitudeDegrees>-1.6103525273501873016357421875</LongitudeDegrees>
            </Position>
            <AltitudeMeters>472.20001220703125</AltitudeMeters>
            <DistanceMeters>88540.397596126</DistanceMeters>
          </Trackpoint>
          <Trackpoint>
            <Time>2018-08-26T10:13:42.000Z</Time>
            <Position>
              <LatitudeDegrees>42.869427166879177093505859375</LatitudeDegrees>
              <LongitudeDegrees>-1.6104088537395000457763671875</LongitudeDegrees>
            </Position>
            <AltitudeMeters>472.399993896484375</AltitudeMeters>
            <DistanceMeters>88548.551087573</DistanceMeters>
          </Trackpoint>
          <Trackpoint>
            <Time>2018-08-26T10:13:43.000Z</Time>
            <Position>
              <LatitudeDegrees>42.86936455406248569488525390625</LatitudeDegrees>
              <LongitudeDegrees>-1.61046191118657588958740234375</LongitudeDegrees>
            </Position>
            <AltitudeMeters>472.600006103515625</AltitudeMeters>
            <DistanceMeters>88556.754265595</DistanceMeters>
          </Trackpoint>
          <Trackpoint>
            <Time>2018-08-26T10:13:44.000Z</Time>
            <Position>
              <LatitudeDegrees>42.8693026117980480194091796875</LatitudeDegrees>
              <LongitudeDegrees>-1.61051639355719089508056640625</LongitudeDegrees>
            </Position>
            <AltitudeMeters>472.79998779296875</AltitudeMeters>
            <DistanceMeters>88564.956342741</DistanceMeters>
          </Trackpoint>
          <Trackpoint>
            <Time>2018-08-26T10:13:45.000Z</Time>
            <Position>
              <LatitudeDegrees>42.86923849023878574371337890625</LatitudeDegrees>
              <LongitudeDegrees>-1.6105647571384906768798828125</LongitudeDegrees>
            </Position>
            <AltitudeMeters>473</AltitudeMeters>
            <DistanceMeters>88573.110941623</DistanceMeters>
          </Trackpoint>
          <Trackpoint>
            <Time>2018-08-26T10:13:46.000Z</Time>
            <Position>
              <LatitudeDegrees>42.86917411722242832183837890625</LatitudeDegrees>
              <LongitudeDegrees>-1.6106116957962512969970703125</LongitudeDegrees>
            </Position>
            <AltitudeMeters>473</AltitudeMeters>
            <DistanceMeters>88581.235031032</DistanceMeters>
          </Trackpoint>
          <Trackpoint>
            <Time>2018-08-26T10:13:47.000Z</Time>
            <Position>
              <LatitudeDegrees>42.86911091767251491546630859375</LatitudeDegrees>
              <LongitudeDegrees>-1.61065972410142421722412109375</LongitudeDegrees>
            </Position>
            <AltitudeMeters>473.20001220703125</AltitudeMeters>
            <DistanceMeters>88589.287108334</DistanceMeters>
          </Trackpoint>
          <Trackpoint>
            <Time>2018-08-26T10:13:48.000Z</Time>
            <Position>
              <LatitudeDegrees>42.86904587410390377044677734375</LatitudeDegrees>
              <LongitudeDegrees>-1.61070406436920166015625</LongitudeDegrees>
            </Position>
            <AltitudeMeters>473.399993896484375</AltitudeMeters>
            <DistanceMeters>88597.379457459</DistanceMeters>
          </Trackpoint>
          <Trackpoint>
            <Time>2018-08-26T10:13:49.000Z</Time>
            <Position>
              <LatitudeDegrees>42.86897890269756317138671875</LatitudeDegrees>
              <LongitudeDegrees>-1.6107448004186153411865234375</LongitudeDegrees>
            </Position>
            <AltitudeMeters>473.399993896484375</AltitudeMeters>
            <DistanceMeters>88605.540697797</DistanceMeters>
          </Trackpoint>
          <Trackpoint>
            <Time>2018-08-26T10:13:50.000Z</Time>
            <Position>
              <LatitudeDegrees>42.86891059018671512603759765625</LatitudeDegrees>
              <LongitudeDegrees>-1.6107843630015850067138671875</LongitudeDegrees>
            </Position>
            <AltitudeMeters>473.600006103515625</AltitudeMeters>
            <DistanceMeters>88613.800919199</DistanceMeters>
          </Trackpoint>
          <Trackpoint>
            <Time>2018-08-26T10:13:51.000Z</Time>
            <Position>
              <LatitudeDegrees>42.868841774761676788330078125</LatitudeDegrees>
              <LongitudeDegrees>-1.61082409322261810302734375</LongitudeDegrees>
            </Position>
            <AltitudeMeters>473.600006103515625</AltitudeMeters>
            <DistanceMeters>88622.11724985</DistanceMeters>
          </Trackpoint>
          <Trackpoint>
            <Time>2018-08-26T10:13:52.000Z</Time>
            <Position>
              <LatitudeDegrees>42.8687711991369724273681640625</LatitudeDegrees>
              <LongitudeDegrees>-1.61086189560592174530029296875</LongitudeDegrees>
            </Position>
            <AltitudeMeters>473.600006103515625</AltitudeMeters>
            <DistanceMeters>88630.555921714</DistanceMeters>
          </Trackpoint>
          <Trackpoint>
            <Time>2018-08-26T10:13:53.000Z</Time>
            <Position>
              <LatitudeDegrees>42.8687007911503314971923828125</LatitudeDegrees>
              <LongitudeDegrees>-1.61089760251343250274658203125</LongitudeDegrees>
            </Position>
            <AltitudeMeters>473.600006103515625</AltitudeMeters>
            <DistanceMeters>88638.916112602</DistanceMeters>
          </Trackpoint>
          <Trackpoint>
            <Time>2018-08-26T10:13:54.000Z</Time>
            <Position>
              <LatitudeDegrees>42.86863021552562713623046875</LatitudeDegrees>
              <LongitudeDegrees>-1.61093129776418209075927734375</LongitudeDegrees>
            </Position>
            <AltitudeMeters>473.79998779296875</AltitudeMeters>
            <DistanceMeters>88647.238413144</DistanceMeters>
          </Trackpoint>
          <Trackpoint>
            <Time>2018-08-26T10:13:55.000Z</Time>
            <Position>
              <LatitudeDegrees>42.868558131158351898193359375</LatitudeDegrees>
              <LongitudeDegrees>-1.61096365191042423248291015625</LongitudeDegrees>
            </Position>
            <AltitudeMeters>473.79998779296875</AltitudeMeters>
            <DistanceMeters>88655.684572266</DistanceMeters>
          </Trackpoint>
          <Trackpoint>
            <Time>2018-08-26T10:13:56.000Z</Time>
            <Position>
              <LatitudeDegrees>42.868486382067203521728515625</LatitudeDegrees>
              <LongitudeDegrees>-1.61099701188504695892333984375</LongitudeDegrees>
            </Position>
            <AltitudeMeters>473.79998779296875</AltitudeMeters>
            <DistanceMeters>88664.121103694</DistanceMeters>
          </Trackpoint>
          <Trackpoint>
            <Time>2018-08-26T10:13:57.000Z</Time>
            <Position>
              <LatitudeDegrees>42.8684148006141185760498046875</LatitudeDegrees>
              <LongitudeDegrees>-1.6110294498503208160400390625</LongitudeDegrees>
            </Position>
            <AltitudeMeters>473.79998779296875</AltitudeMeters>
            <DistanceMeters>88672.516325349</DistanceMeters>
          </Trackpoint>
          <Trackpoint>
            <Time>2018-08-26T10:13:58.000Z</Time>
            <Position>
              <LatitudeDegrees>42.86834313534200191497802734375</LatitudeDegrees>
              <LongitudeDegrees>-1.6110602952539920806884765625</LongitudeDegrees>
            </Position>
            <AltitudeMeters>473.79998779296875</AltitudeMeters>
            <DistanceMeters>88680.879755993</DistanceMeters>
          </Trackpoint>
          <Trackpoint>
            <Time>2018-08-26T10:13:59.000Z</Time>
            <Position>
              <LatitudeDegrees>42.868271805346012115478515625</LatitudeDegrees>
              <LongitudeDegrees>-1.6110911406576633453369140625</LongitudeDegrees>
            </Position>
            <AltitudeMeters>473.600006103515625</AltitudeMeters>
            <DistanceMeters>88689.208022149</DistanceMeters>
          </Trackpoint>
          <Trackpoint>
            <Time>2018-08-26T10:14:00.000Z</Time>
            <Position>
              <LatitudeDegrees>42.86820106208324432373046875</LatitudeDegrees>
              <LongitudeDegrees>-1.6111239977180957794189453125</LongitudeDegrees>
            </Position>
            <AltitudeMeters>473.600006103515625</AltitudeMeters>
            <DistanceMeters>88697.525981377</DistanceMeters>
          </Trackpoint>
          <Trackpoint>
            <Time>2018-08-26T10:14:01.000Z</Time>
            <Position>
              <LatitudeDegrees>42.86813023500144481658935546875</LatitudeDegrees>
              <LongitudeDegrees>-1.61115693859755992889404296875</LongitudeDegrees>
            </Position>
            <AltitudeMeters>473.600006103515625</AltitudeMeters>
            <DistanceMeters>88705.85478965</DistanceMeters>
          </Trackpoint>
          <Trackpoint>
            <Time>2018-08-26T10:14:02.000Z</Time>
            <Position>
              <LatitudeDegrees>42.86805932410061359405517578125</LatitudeDegrees>
              <LongitudeDegrees>-1.61118979565799236297607421875</LongitudeDegrees>
            </Position>
            <AltitudeMeters>473.600006103515625</AltitudeMeters>
            <DistanceMeters>88714.190100571</DistanceMeters>
          </Trackpoint>
          <Trackpoint>
            <Time>2018-08-26T10:14:03.000Z</Time>
            <Position>
              <LatitudeDegrees>42.86798824556171894073486328125</LatitudeDegrees>
              <LongitudeDegrees>-1.6112232394516468048095703125</LongitudeDegrees>
            </Position>
            <AltitudeMeters>473.600006103515625</AltitudeMeters>
            <DistanceMeters>88722.557848939</DistanceMeters>
          </Trackpoint>
          <Trackpoint>
            <Time>2018-08-26T10:14:04.000Z</Time>
            <Position>
              <LatitudeDegrees>42.8679172508418560028076171875</LatitudeDegrees>
              <LongitudeDegrees>-1.61125659942626953125</LongitudeDegrees>
            </Position>
            <AltitudeMeters>473.600006103515625</AltitudeMeters>
            <DistanceMeters>88730.91533907</DistanceMeters>
          </Trackpoint>
          <Trackpoint>
            <Time>2018-08-26T10:14:05.000Z</Time>
            <Position>
              <LatitudeDegrees>42.86784592084586620330810546875</LatitudeDegrees>
              <LongitudeDegrees>-1.611289791762828826904296875</LongitudeDegrees>
            </Position>
            <AltitudeMeters>473.600006103515625</AltitudeMeters>
            <DistanceMeters>88739.303566276</DistanceMeters>
          </Trackpoint>
          <Trackpoint>
            <Time>2018-08-26T10:14:06.000Z</Time>
            <Position>
              <LatitudeDegrees>42.86777467466890811920166015625</LatitudeDegrees>
              <LongitudeDegrees>-1.61132407374680042266845703125</LongitudeDegrees>
            </Position>
            <AltitudeMeters>473.600006103515625</AltitudeMeters>
            <DistanceMeters>88747.712222444</DistanceMeters>
          </Trackpoint>
          <Trackpoint>
            <Time>2018-08-26T10:14:07.000Z</Time>
            <Position>
              <LatitudeDegrees>42.86770292557775974273681640625</LatitudeDegrees>
              <LongitudeDegrees>-1.6113596968352794647216796875</LongitudeDegrees>
            </Position>
            <AltitudeMeters>473.600006103515625</AltitudeMeters>
            <DistanceMeters>88756.210076368</DistanceMeters>
          </Trackpoint>
          <Trackpoint>
            <Time>2018-08-26T10:14:08.000Z</Time>
            <Position>
              <LatitudeDegrees>42.867630422115325927734375</LatitudeDegrees>
              <LongitudeDegrees>-1.61139481700956821441650390625</LongitudeDegrees>
            </Position>
            <AltitudeMeters>473.600006103515625</AltitudeMeters>
            <DistanceMeters>88764.773032676</DistanceMeters>
          </Trackpoint>
          <Trackpoint>
            <Time>2018-08-26T10:14:09.000Z</Time>
            <Position>
              <LatitudeDegrees>42.8675566613674163818359375</LatitudeDegrees>
              <LongitudeDegrees>-1.611429266631603240966796875</LongitudeDegrees>
            </Position>
            <AltitudeMeters>473.399993896484375</AltitudeMeters>
            <DistanceMeters>88773.451214372</DistanceMeters>
          </Trackpoint>
          <Trackpoint>
            <Time>2018-08-26T10:14:10.000Z</Time>
            <Position>
              <LatitudeDegrees>42.86748223006725311279296875</LatitudeDegrees>
              <LongitudeDegrees>-1.61146321333944797515869140625</LongitudeDegrees>
            </Position>
            <AltitudeMeters>473.399993896484375</AltitudeMeters>
            <DistanceMeters>88782.186438808</DistanceMeters>
          </Trackpoint>
          <Trackpoint>
            <Time>2018-08-26T10:14:11.000Z</Time>
            <Position>
              <LatitudeDegrees>42.8674083016812801361083984375</LatitudeDegrees>
              <LongitudeDegrees>-1.6114978305995464324951171875</LongitudeDegrees>
            </Position>
            <AltitudeMeters>473.399993896484375</AltitudeMeters>
            <DistanceMeters>88790.885406597</DistanceMeters>
          </Trackpoint>
          <Trackpoint>
            <Time>2018-08-26T10:14:12.000Z</Time>
            <Position>
              <LatitudeDegrees>42.867334373295307159423828125</LatitudeDegrees>
              <LongitudeDegrees>-1.61153295077383518218994140625</LongitudeDegrees>
            </Position>
            <AltitudeMeters>473.399993896484375</AltitudeMeters>
            <DistanceMeters>88799.597858754</DistanceMeters>
          </Trackpoint>
          <Trackpoint>
            <Time>2018-08-26T10:14:13.000Z</Time>
            <Position>
              <LatitudeDegrees>42.867260277271270751953125</LatitudeDegrees>
              <LongitudeDegrees>-1.6115679033100605010986328125</LongitudeDegrees>
            </Position>
            <AltitudeMeters>473.399993896484375</AltitudeMeters>
            <DistanceMeters>88808.324291854</DistanceMeters>
          </Trackpoint>
          <Trackpoint>
            <Time>2018-08-26T10:14:14.000Z</Time>
            <Position>
              <LatitudeDegrees>42.867186181247234344482421875</LatitudeDegrees>
              <LongitudeDegrees>-1.61160235293209552764892578125</LongitudeDegrees>
            </Position>
            <AltitudeMeters>473.399993896484375</AltitudeMeters>
            <DistanceMeters>88817.037780406</DistanceMeters>
          </Trackpoint>
          <Trackpoint>
            <Time>2018-08-26T10:14:15.000Z</Time>
            <Position>
              <LatitudeDegrees>42.86711149848997592926025390625</LatitudeDegrees>
              <LongitudeDegrees>-1.61163671873509883880615234375</LongitudeDegrees>
            </Position>
            <AltitudeMeters>473.399993896484375</AltitudeMeters>
            <DistanceMeters>88825.810141061</DistanceMeters>
          </Trackpoint>
          <Trackpoint>
            <Time>2018-08-26T10:14:16.000Z</Time>
            <Position>
              <LatitudeDegrees>42.86703589372336864471435546875</LatitudeDegrees>
              <LongitudeDegrees>-1.611670665442943572998046875</LongitudeDegrees>
            </Position>
            <AltitudeMeters>473.399993896484375</AltitudeMeters>
            <DistanceMeters>88834.668547481</DistanceMeters>
          </Trackpoint>
          <Trackpoint>
            <Time>2018-08-26T10:14:17.000Z</Time>
            <Position>
              <LatitudeDegrees>42.86696054041385650634765625</LatitudeDegrees>
              <LongitudeDegrees>-1.61170519888401031494140625</LongitudeDegrees>
            </Position>
            <AltitudeMeters>473.399993896484375</AltitudeMeters>
            <DistanceMeters>88843.516754235</DistanceMeters>
          </Trackpoint>
          <Trackpoint>
            <Time>2018-08-26T10:14:18.000Z</Time>
            <Position>
              <LatitudeDegrees>42.8668846003711223602294921875</LatitudeDegrees>
              <LongitudeDegrees>-1.61174082197248935699462890625</LongitudeDegrees>
            </Position>
            <AltitudeMeters>473.20001220703125</AltitudeMeters>
            <DistanceMeters>88852.454318569</DistanceMeters>
          </Trackpoint>
          <Trackpoint>
            <Time>2018-08-26T10:14:19.000Z</Time>
            <Position>
              <LatitudeDegrees>42.86680857650935649871826171875</LatitudeDegrees>
              <LongitudeDegrees>-1.6117777861654758453369140625</LongitudeDegrees>
            </Position>
            <AltitudeMeters>472.79998779296875</AltitudeMeters>
            <DistanceMeters>88861.437233636</DistanceMeters>
          </Trackpoint>
          <Trackpoint>
            <Time>2018-08-26T10:14:20.000Z</Time>
            <Position>
              <LatitudeDegrees>42.866732217371463775634765625</LatitudeDegrees>
              <LongitudeDegrees>-1.61181491799652576446533203125</LongitudeDegrees>
            </Position>
            <AltitudeMeters>472.600006103515625</AltitudeMeters>
            <DistanceMeters>88870.459768709</DistanceMeters>
          </Trackpoint>
          <Trackpoint>
            <Time>2018-08-26T10:14:21.000Z</Time>
            <Position>
              <LatitudeDegrees>42.866655774414539337158203125</LatitudeDegrees>
              <LongitudeDegrees>-1.6118528880178928375244140625</LongitudeDegrees>
            </Position>
            <AltitudeMeters>472.399993896484375</AltitudeMeters>
            <DistanceMeters>88879.514273888</DistanceMeters>
          </Trackpoint>
          <Trackpoint>
            <Time>2018-08-26T10:14:22.000Z</Time>
            <Position>
              <LatitudeDegrees>42.8665794990956783294677734375</LatitudeDegrees>
              <LongitudeDegrees>-1.61189001984894275665283203125</LongitudeDegrees>
            </Position>
            <AltitudeMeters>472.399993896484375</AltitudeMeters>
            <DistanceMeters>88888.527796938</DistanceMeters>
          </Trackpoint>
          <Trackpoint>
            <Time>2018-08-26T10:14:23.000Z</Time>
            <Position>
              <LatitudeDegrees>42.8665027208626270294189453125</LatitudeDegrees>
              <LongitudeDegrees>-1.6119258105754852294921875</LongitudeDegrees>
            </Position>
            <AltitudeMeters>472.20001220703125</AltitudeMeters>
            <DistanceMeters>88897.557835159</DistanceMeters>
          </Trackpoint>
          <Trackpoint>
            <Time>2018-08-26T10:14:24.000Z</Time>
            <Position>
              <LatitudeDegrees>42.86642619408667087554931640625</LatitudeDegrees>
              <LongitudeDegrees>-1.6119606792926788330078125</LongitudeDegrees>
            </Position>
            <AltitudeMeters>472</AltitudeMeters>
            <DistanceMeters>88906.53773397</DistanceMeters>
          </Trackpoint>
          <Trackpoint>
            <Time>2018-08-26T10:14:25.000Z</Time>
            <Position>
              <LatitudeDegrees>42.8663496673107147216796875</LatitudeDegrees>
              <LongitudeDegrees>-1.61199512891471385955810546875</LongitudeDegrees>
            </Position>
            <AltitudeMeters>472</AltitudeMeters>
            <DistanceMeters>88915.507067894</DistanceMeters>
          </Trackpoint>
          <Trackpoint>
            <Time>2018-08-26T10:14:26.000Z</Time>
            <Position>
              <LatitudeDegrees>42.86627364344894886016845703125</LatitudeDegrees>
              <LongitudeDegrees>-1.6120299138128757476806640625</LongitudeDegrees>
            </Position>
            <AltitudeMeters>471.600006103515625</AltitudeMeters>
            <DistanceMeters>88924.431993905</DistanceMeters>
          </Trackpoint>
          <Trackpoint>
            <Time>2018-08-26T10:14:27.000Z</Time>
            <Position>
              <LatitudeDegrees>42.86619753576815128326416015625</LatitudeDegrees>
              <LongitudeDegrees>-1.6120637767016887664794921875</LongitudeDegrees>
            </Position>
            <AltitudeMeters>471.399993896484375</AltitudeMeters>
            <DistanceMeters>88933.342237005</DistanceMeters>
          </Trackpoint>
          <Trackpoint>
            <Time>2018-08-26T10:14:28.000Z</Time>
            <Position>
              <LatitudeDegrees>42.86612075753509998321533203125</LatitudeDegrees>
              <LongitudeDegrees>-1.61209546029567718505859375</LongitudeDegrees>
            </Position>
            <AltitudeMeters>471.20001220703125</AltitudeMeters>
            <DistanceMeters>88942.270197846</DistanceMeters>
          </Trackpoint>
          <Trackpoint>
            <Time>2018-08-26T10:14:29.000Z</Time>
            <Position>
              <LatitudeDegrees>42.8660437278449535369873046875</LatitudeDegrees>
              <LongitudeDegrees>-1.6121254675090312957763671875</LongitudeDegrees>
            </Position>
            <AltitudeMeters>471.20001220703125</AltitudeMeters>
            <DistanceMeters>88951.186519565</DistanceMeters>
          </Trackpoint>
          <Trackpoint>
            <Time>2018-08-26T10:14:30.000Z</Time>
            <Position>
              <LatitudeDegrees>42.865966446697711944580078125</LatitudeDegrees>
              <LongitudeDegrees>-1.6121532954275608062744140625</LongitudeDegrees>
            </Position>
            <AltitudeMeters>471</AltitudeMeters>
            <DistanceMeters>88960.082563065</DistanceMeters>
          </Trackpoint>
          <Trackpoint>
            <Time>2018-08-26T10:14:31.000Z</Time>
            <Position>
              <LatitudeDegrees>42.86588975228369235992431640625</LatitudeDegrees>
              <LongitudeDegrees>-1.61217886023223400115966796875</LongitudeDegrees>
            </Position>
            <AltitudeMeters>471</AltitudeMeters>
            <DistanceMeters>88968.870350827</DistanceMeters>
          </Trackpoint>
          <Trackpoint>
            <Time>2018-08-26T10:14:32.000Z</Time>
            <Position>
              <LatitudeDegrees>42.8658133931457996368408203125</LatitudeDegrees>
              <LongitudeDegrees>-1.612202413380146026611328125</LongitudeDegrees>
            </Position>
            <AltitudeMeters>470.79998779296875</AltitudeMeters>
            <DistanceMeters>88977.583839379</DistanceMeters>
          </Trackpoint>
          <Trackpoint>
            <Time>2018-08-26T10:14:33.000Z</Time>
            <Position>
              <LatitudeDegrees>42.86573745310306549072265625</LatitudeDegrees>
              <LongitudeDegrees>-1.61222328431904315948486328125</LongitudeDegrees>
            </Position>
            <AltitudeMeters>470.79998779296875</AltitudeMeters>
            <DistanceMeters>88986.206695602</DistanceMeters>
          </Trackpoint>
          <Trackpoint>
            <Time>2018-08-26T10:14:34.000Z</Time>
            <Position>
              <LatitudeDegrees>42.86566159687936305999755859375</LatitudeDegrees>
              <LongitudeDegrees>-1.61224055103957653045654296875</LongitudeDegrees>
            </Position>
            <AltitudeMeters>470.79998779296875</AltitudeMeters>
            <DistanceMeters>88994.766487671</DistanceMeters>
          </Trackpoint>
          <Trackpoint>
            <Time>2018-08-26T10:14:35.000Z</Time>
            <Position>
              <LatitudeDegrees>42.86558599211275577545166015625</LatitudeDegrees>
              <LongitudeDegrees>-1.61225446499884128570556640625</LongitudeDegrees>
            </Position>
            <AltitudeMeters>470.79998779296875</AltitudeMeters>
            <DistanceMeters>89003.25743169</DistanceMeters>
          </Trackpoint>
          <Trackpoint>
            <Time>2018-08-26T10:14:36.000Z</Time>
            <Position>
              <LatitudeDegrees>42.8655116446316242218017578125</LatitudeDegrees>
              <LongitudeDegrees>-1.612265110015869140625</LongitudeDegrees>
            </Position>
            <AltitudeMeters>470.79998779296875</AltitudeMeters>
            <DistanceMeters>89011.577561858</DistanceMeters>
          </Trackpoint>
          <Trackpoint>
            <Time>2018-08-26T10:14:37.000Z</Time>
            <Position>
              <LatitudeDegrees>42.86543847061693668365478515625</LatitudeDegrees>
              <LongitudeDegrees>-1.612276174128055572509765625</LongitudeDegrees>
            </Position>
            <AltitudeMeters>470.79998779296875</AltitudeMeters>
            <DistanceMeters>89019.77192873</DistanceMeters>
          </Trackpoint>
          <Trackpoint>
            <Time>2018-08-26T10:14:38.000Z</Time>
            <Position>
              <LatitudeDegrees>42.86536588333547115325927734375</LatitudeDegrees>
              <LongitudeDegrees>-1.61228313110768795013427734375</LongitudeDegrees>
            </Position>
            <AltitudeMeters>470.79998779296875</AltitudeMeters>
            <DistanceMeters>89027.870970358</DistanceMeters>
          </Trackpoint>
          <Trackpoint>
            <Time>2018-08-26T10:14:39.000Z</Time>
            <Position>
              <LatitudeDegrees>42.865293882787227630615234375</LatitudeDegrees>
              <LongitudeDegrees>-1.6122857294976711273193359375</LongitudeDegrees>
            </Position>
            <AltitudeMeters>471</AltitudeMeters>
            <DistanceMeters>89035.887643861</DistanceMeters>
          </Trackpoint>
          <Trackpoint>
            <Time>2018-08-26T10:14:40.000Z</Time>
            <Position>
              <LatitudeDegrees>42.86522121168673038482666015625</LatitudeDegrees>
              <LongitudeDegrees>-1.61229084245860576629638671875</LongitudeDegrees>
            </Position>
            <AltitudeMeters>471</AltitudeMeters>
            <DistanceMeters>89043.986685489</DistanceMeters>
          </Trackpoint>
          <Trackpoint>
            <Time>2018-08-26T10:14:41.000Z</Time>
            <Position>
              <LatitudeDegrees>42.8651488758623600006103515625</LatitudeDegrees>
              <LongitudeDegrees>-1.6122934408485889434814453125</LongitudeDegrees>
            </Position>
            <AltitudeMeters>471</AltitudeMeters>
            <DistanceMeters>89052.041005396</DistanceMeters>
          </Trackpoint>
          <Trackpoint>
            <Time>2018-08-26T10:14:42.000Z</Time>
            <Position>
              <LatitudeDegrees>42.86507721059024333953857421875</LatitudeDegrees>
              <LongitudeDegrees>-1.61228866316378116607666015625</LongitudeDegrees>
            </Position>
            <AltitudeMeters>471</AltitudeMeters>
            <DistanceMeters>89060.027207868</DistanceMeters>
          </Trackpoint>
          <Trackpoint>
            <Time>2018-08-26T10:14:43.000Z</Time>
            <Position>
              <LatitudeDegrees>42.86500529386103153228759765625</LatitudeDegrees>
              <LongitudeDegrees>-1.6122830472886562347412109375</LongitudeDegrees>
            </Position>
            <AltitudeMeters>471</AltitudeMeters>
            <DistanceMeters>89068.044444557</DistanceMeters>
          </Trackpoint>
          <Trackpoint>
            <Time>2018-08-26T10:14:44.000Z</Time>
            <Position>
              <LatitudeDegrees>42.86493589170277118682861328125</LatitudeDegrees>
              <LongitudeDegrees>-1.61228187382221221923828125</LongitudeDegrees>
            </Position>
            <AltitudeMeters>471.399993896484375</AltitudeMeters>
            <DistanceMeters>89075.769713175</DistanceMeters>
          </Trackpoint>
          <Trackpoint>
            <Time>2018-08-26T10:14:45.000Z</Time>
            <Position>
              <LatitudeDegrees>42.864864058792591094970703125</LatitudeDegrees>
              <LongitudeDegrees>-1.612273156642913818359375</LongitudeDegrees>
            </Position>
            <AltitudeMeters>471.399993896484375</AltitudeMeters>
            <DistanceMeters>89083.796517983</DistanceMeters>
          </Trackpoint>
          <Trackpoint>
            <Time>2018-08-26T10:14:46.000Z</Time>
            <Position>
              <LatitudeDegrees>42.8647944889962673187255859375</LatitudeDegrees>
              <LongitudeDegrees>-1.61226334981620311737060546875</LongitudeDegrees>
            </Position>
            <AltitudeMeters>471.600006103515625</AltitudeMeters>
            <DistanceMeters>89091.581172312</DistanceMeters>
          </Trackpoint>
          <Trackpoint>
            <Time>2018-08-26T10:14:47.000Z</Time>
            <Position>
              <LatitudeDegrees>42.864726595580577850341796875</LatitudeDegrees>
              <LongitudeDegrees>-1.6122562251985073089599609375</LongitudeDegrees>
            </Position>
            <AltitudeMeters>471.600006103515625</AltitudeMeters>
            <DistanceMeters>89099.160707016</DistanceMeters>
          </Trackpoint>
          <Trackpoint>
            <Time>2018-08-26T10:14:48.000Z</Time>
            <Position>
              <LatitudeDegrees>42.86465920507907867431640625</LatitudeDegrees>
              <LongitudeDegrees>-1.6122522018849849700927734375</LongitudeDegrees>
            </Position>
            <AltitudeMeters>471.79998779296875</AltitudeMeters>
            <DistanceMeters>89106.668418863</DistanceMeters>
          </Trackpoint>
          <Trackpoint>
            <Time>2018-08-26T10:14:49.000Z</Time>
            <Position>
              <LatitudeDegrees>42.8645913116633892059326171875</LatitudeDegrees>
              <LongitudeDegrees>-1.61224608309566974639892578125</LongitudeDegrees>
            </Position>
            <AltitudeMeters>472</AltitudeMeters>
            <DistanceMeters>89114.240801937</DistanceMeters>
          </Trackpoint>
          <Trackpoint>
            <Time>2018-08-26T10:14:50.000Z</Time>
            <Position>
              <LatitudeDegrees>42.86452484317123889923095703125</LatitudeDegrees>
              <LongitudeDegrees>-1.6122344322502613067626953125</LongitudeDegrees>
            </Position>
            <AltitudeMeters>472.20001220703125</AltitudeMeters>
            <DistanceMeters>89121.700247697</DistanceMeters>
          </Trackpoint>
          <Trackpoint>
            <Time>2018-08-26T10:14:51.000Z</Time>
            <Position>
              <LatitudeDegrees>42.86445912905037403106689453125</LatitudeDegrees>
              <LongitudeDegrees>-1.6122243739664554595947265625</LongitudeDegrees>
            </Position>
            <AltitudeMeters>472.399993896484375</AltitudeMeters>
            <DistanceMeters>89129.060985341</DistanceMeters>
          </Trackpoint>
          <Trackpoint>
            <Time>2018-08-26T10:14:52.000Z</Time>
            <Position>
              <LatitudeDegrees>42.8643924929201602935791015625</LatitudeDegrees>
              <LongitudeDegrees>-1.612219512462615966796875</LongitudeDegrees>
            </Position>
            <AltitudeMeters>472.600006103515625</AltitudeMeters>
            <DistanceMeters>89136.488889963</DistanceMeters>
          </Trackpoint>
          <Trackpoint>
            <Time>2018-08-26T10:14:53.000Z</Time>
            <Position>
              <LatitudeDegrees>42.86432585678994655609130859375</LatitudeDegrees>
              <LongitudeDegrees>-1.6122173331677913665771484375</LongitudeDegrees>
            </Position>
            <AltitudeMeters>472.79998779296875</AltitudeMeters>
            <DistanceMeters>89143.90827983</DistanceMeters>
          </Trackpoint>
          <Trackpoint>
            <Time>2018-08-26T10:14:54.000Z</Time>
            <Position>
              <LatitudeDegrees>42.86425762809813022613525390625</LatitudeDegrees>
              <LongitudeDegrees>-1.61221213638782501220703125</LongitudeDegrees>
            </Position>
            <AltitudeMeters>473.20001220703125</AltitudeMeters>
            <DistanceMeters>89151.513979646</DistanceMeters>
          </Trackpoint>
          <Trackpoint>
            <Time>2018-08-26T10:14:55.000Z</Time>
            <Position>
              <LatitudeDegrees>42.86418889649212360382080078125</LatitudeDegrees>
              <LongitudeDegrees>-1.612203419208526611328125</LongitudeDegrees>
            </Position>
            <AltitudeMeters>473.600006103515625</AltitudeMeters>
            <DistanceMeters>89159.197640219</DistanceMeters>
          </Trackpoint>
          <Trackpoint>
            <Time>2018-08-26T10:14:56.000Z</Time>
            <Position>
              <LatitudeDegrees>42.86412142217159271240234375</LatitudeDegrees>
              <LongitudeDegrees>-1.612199731171131134033203125</LongitudeDegrees>
            </Position>
            <AltitudeMeters>473.79998779296875</AltitudeMeters>
            <DistanceMeters>89166.713766763</DistanceMeters>
          </Trackpoint>
          <Trackpoint>
            <Time>2018-08-26T10:14:57.000Z</Time>
            <Position>
              <LatitudeDegrees>42.86405436694622039794921875</LatitudeDegrees>
              <LongitudeDegrees>-1.61220065318048000335693359375</LongitudeDegrees>
            </Position>
            <AltitudeMeters>474.20001220703125</AltitudeMeters>
            <DistanceMeters>89174.177448267</DistanceMeters>
          </Trackpoint>
          <Trackpoint>
            <Time>2018-08-26T10:14:58.000Z</Time>
            <Position>
              <LatitudeDegrees>42.86398739553987979888916015625</LatitudeDegrees>
              <LongitudeDegrees>-1.61220182664692401885986328125</LongitudeDegrees>
            </Position>
            <AltitudeMeters>474.600006103515625</AltitudeMeters>
            <DistanceMeters>89181.63205023</DistanceMeters>
          </Trackpoint>
          <Trackpoint>
            <Time>2018-08-26T10:14:59.000Z</Time>
            <Position>
              <LatitudeDegrees>42.8639207594096660614013671875</LatitudeDegrees>
              <LongitudeDegrees>-1.61219872534275054931640625</LongitudeDegrees>
            </Position>
            <AltitudeMeters>474.79998779296875</AltitudeMeters>
            <DistanceMeters>89189.052657089</DistanceMeters>
          </Trackpoint>
          <Trackpoint>
            <Time>2018-08-26T10:15:00.000Z</Time>
            <Position>
              <LatitudeDegrees>42.8638540394604206085205078125</LatitudeDegrees>
              <LongitudeDegrees>-1.6121975518763065338134765625</LongitudeDegrees>
            </Position>
            <AltitudeMeters>475.20001220703125</AltitudeMeters>
            <DistanceMeters>89196.478737943</DistanceMeters>
          </Trackpoint>
          <Trackpoint>
            <Time>2018-08-26T10:15:01.000Z</Time>
            <Position>
              <LatitudeDegrees>42.863785810768604278564453125</LatitudeDegrees>
              <LongitudeDegrees>-1.612204425036907196044921875</LongitudeDegrees>
            </Position>
            <AltitudeMeters>475.399993896484375</AltitudeMeters>
            <DistanceMeters>89204.093930056</DistanceMeters>
          </Trackpoint>
          <Trackpoint>
            <Time>2018-08-26T10:15:02.000Z</Time>
            <Position>
              <LatitudeDegrees>42.86371749825775623321533203125</LatitudeDegrees>
              <LongitudeDegrees>-1.61221691407263278961181640625</LongitudeDegrees>
            </Position>
            <AltitudeMeters>475.600006103515625</AltitudeMeters>
            <DistanceMeters>89211.764652193</DistanceMeters>
          </Trackpoint>
          <Trackpoint>
            <Time>2018-08-26T10:15:03.000Z</Time>
            <Position>
              <LatitudeDegrees>42.8636475093662738800048828125</LatitudeDegrees>
              <LongitudeDegrees>-1.61222429014742374420166015625</LongitudeDegrees>
            </Position>
            <AltitudeMeters>475.600006103515625</AltitudeMeters>
            <DistanceMeters>89219.577674449</DistanceMeters>
          </Trackpoint>
          <Trackpoint>
            <Time>2018-08-26T10:15:04.000Z</Time>
            <Position>
              <LatitudeDegrees>42.8635781072080135345458984375</LatitudeDegrees>
              <LongitudeDegrees>-1.6122347675263881683349609375</LongitudeDegrees>
            </Position>
            <AltitudeMeters>475.79998779296875</AltitudeMeters>
            <DistanceMeters>89227.348977509</DistanceMeters>
          </Trackpoint>
          <Trackpoint>
            <Time>2018-08-26T10:15:05.000Z</Time>
            <Position>
              <LatitudeDegrees>42.8635080344974994659423828125</LatitudeDegrees>
              <LongitudeDegrees>-1.6122530400753021240234375</LongitudeDegrees>
            </Position>
            <AltitudeMeters>476.20001220703125</AltitudeMeters>
            <DistanceMeters>89235.289254188</DistanceMeters>
          </Trackpoint>
          <Trackpoint>
            <Time>2018-08-26T10:15:06.000Z</Time>
            <Position>
              <LatitudeDegrees>42.86343670450150966644287109375</LatitudeDegrees>
              <LongitudeDegrees>-1.61227625794708728790283203125</LongitudeDegrees>
            </Position>
            <AltitudeMeters>476.399993896484375</AltitudeMeters>
            <DistanceMeters>89243.451600909</DistanceMeters>
          </Trackpoint>
          <Trackpoint>
            <Time>2018-08-26T10:15:07.000Z</Time>
            <Position>
              <LatitudeDegrees>42.86336646415293216705322265625</LatitudeDegrees>
              <LongitudeDegrees>-1.6122967936098575592041015625</LongitudeDegrees>
            </Position>
            <AltitudeMeters>476.79998779296875</AltitudeMeters>
            <DistanceMeters>89251.447408637</DistanceMeters>
          </Trackpoint>
          <Trackpoint>
            <Time>2018-08-26T10:15:08.000Z</Time>
            <Position>
              <LatitudeDegrees>42.86329689435660839080810546875</LatitudeDegrees>
              <LongitudeDegrees>-1.61231984384357929229736328125</LongitudeDegrees>
            </Position>
            <AltitudeMeters>477</AltitudeMeters>
            <DistanceMeters>89259.416065836</DistanceMeters>
          </Trackpoint>
          <Trackpoint>
            <Time>2018-08-26T10:15:09.000Z</Time>
            <Position>
              <LatitudeDegrees>42.8632270731031894683837890625</LatitudeDegrees>
              <LongitudeDegrees>-1.61234901286661624908447265625</LongitudeDegrees>
            </Position>
            <AltitudeMeters>477.20001220703125</AltitudeMeters>
            <DistanceMeters>89267.544044629</DistanceMeters>
          </Trackpoint>
          <Trackpoint>
            <Time>2018-08-26T10:15:10.000Z</Time>
            <Position>
              <LatitudeDegrees>42.86315809004008769989013671875</LatitudeDegrees>
              <LongitudeDegrees>-1.61238036118447780609130859375</LongitudeDegrees>
            </Position>
            <AltitudeMeters>477.20001220703125</AltitudeMeters>
            <DistanceMeters>89275.637509556</DistanceMeters>
          </Trackpoint>
          <Trackpoint>
            <Time>2018-08-26T10:15:11.000Z</Time>
            <Position>
              <LatitudeDegrees>42.86308944225311279296875</LatitudeDegrees>
              <LongitudeDegrees>-1.6124134697020053863525390625</LongitudeDegrees>
            </Position>
            <AltitudeMeters>477.399993896484375</AltitudeMeters>
            <DistanceMeters>89283.742124048</DistanceMeters>
          </Trackpoint>
          <Trackpoint>
            <Time>2018-08-26T10:15:12.000Z</Time>
            <Position>
              <LatitudeDegrees>42.8630210459232330322265625</LatitudeDegrees>
              <LongitudeDegrees>-1.61244951188564300537109375</LongitudeDegrees>
            </Position>
            <AltitudeMeters>477.600006103515625</AltitudeMeters>
            <DistanceMeters>89291.902811137</DistanceMeters>
          </Trackpoint>
          <Trackpoint>
            <Time>2018-08-26T10:15:13.000Z</Time>
            <Position>
              <LatitudeDegrees>42.862952984869480133056640625</LatitudeDegrees>
              <LongitudeDegrees>-1.61248781718313694000244140625</LongitudeDegrees>
            </Position>
            <AltitudeMeters>477.600006103515625</AltitudeMeters>
            <DistanceMeters>89300.098279921</DistanceMeters>
          </Trackpoint>
          <Trackpoint>
            <Time>2018-08-26T10:15:14.000Z</Time>
            <Position>
              <LatitudeDegrees>42.86288559436798095703125</LatitudeDegrees>
              <LongitudeDegrees>-1.612529642879962921142578125</LongitudeDegrees>
            </Position>
            <AltitudeMeters>477.600006103515625</AltitudeMeters>
            <DistanceMeters>89308.338800224</DistanceMeters>
          </Trackpoint>
          <Trackpoint>
            <Time>2018-08-26T10:15:15.000Z</Time>
            <Position>
              <LatitudeDegrees>42.862818874418735504150390625</LatitudeDegrees>
              <LongitudeDegrees>-1.61257582716643810272216796875</LongitudeDegrees>
            </Position>
            <AltitudeMeters>477.600006103515625</AltitudeMeters>
            <DistanceMeters>89316.666524228</DistanceMeters>
          </Trackpoint>
          <Trackpoint>
            <Time>2018-08-26T10:15:16.000Z</Time>
            <Position>
              <LatitudeDegrees>42.862753160297870635986328125</LatitudeDegrees>
              <LongitudeDegrees>-1.61262511275708675384521484375</LongitudeDegrees>
            </Position>
            <AltitudeMeters>477.79998779296875</AltitudeMeters>
            <DistanceMeters>89325.012661639</DistanceMeters>
          </Trackpoint>
          <Trackpoint>
            <Time>2018-08-26T10:15:17.000Z</Time>
            <Position>
              <LatitudeDegrees>42.86268836818635463714599609375</LatitudeDegrees>
              <LongitudeDegrees>-1.612675487995147705078125</LongitudeDegrees>
            </Position>
            <AltitudeMeters>477.79998779296875</AltitudeMeters>
            <DistanceMeters>89333.313232901</DistanceMeters>
          </Trackpoint>
          <Trackpoint>
            <Time>2018-08-26T10:15:18.000Z</Time>
            <Position>
              <LatitudeDegrees>42.8626239113509654998779296875</LatitudeDegrees>
              <LongitudeDegrees>-1.6127276234328746795654296875</LongitudeDegrees>
            </Position>
            <AltitudeMeters>477.79998779296875</AltitudeMeters>
            <DistanceMeters>89341.653417482</DistanceMeters>
          </Trackpoint>
          <Trackpoint>
            <Time>2018-08-26T10:15:19.000Z</Time>
            <Position>
              <LatitudeDegrees>42.86255962215363979339599609375</LatitudeDegrees>
              <LongitudeDegrees>-1.61278068087995052337646484375</LongitudeDegrees>
            </Position>
            <AltitudeMeters>478</AltitudeMeters>
            <DistanceMeters>89350.016848126</DistanceMeters>
          </Trackpoint>
          <Trackpoint>
            <Time>2018-08-26T10:15:20.000Z</Time>
            <Position>
              <LatitudeDegrees>42.86249642260372638702392578125</LatitudeDegrees>
              <LongitudeDegrees>-1.61283650435507297515869140625</LongitudeDegrees>
            </Position>
            <AltitudeMeters>478.20001220703125</AltitudeMeters>
            <DistanceMeters>89358.396458763</DistanceMeters>
          </Trackpoint>
          <Trackpoint>
            <Time>2018-08-26T10:15:21.000Z</Time>
            <Position>
              <LatitudeDegrees>42.86243406124413013458251953125</LatitudeDegrees>
              <LongitudeDegrees>-1.61289568059146404266357421875</LongitudeDegrees>
            </Position>
            <AltitudeMeters>478.20001220703125</AltitudeMeters>
            <DistanceMeters>89366.851166631</DistanceMeters>
          </Trackpoint>
          <Trackpoint>
            <Time>2018-08-26T10:15:22.000Z</Time>
            <Position>
              <LatitudeDegrees>42.86237169988453388214111328125</LatitudeDegrees>
              <LongitudeDegrees>-1.6129556111991405487060546875</LongitudeDegrees>
            </Position>
            <AltitudeMeters>478.20001220703125</AltitudeMeters>
            <DistanceMeters>89375.341047088</DistanceMeters>
          </Trackpoint>
          <Trackpoint>
            <Time>2018-08-26T10:15:23.000Z</Time>
            <Position>
              <LatitudeDegrees>42.8623094223439693450927734375</LatitudeDegrees>
              <LongitudeDegrees>-1.61301738582551479339599609375</LongitudeDegrees>
            </Position>
            <AltitudeMeters>478.20001220703125</AltitudeMeters>
            <DistanceMeters>89383.910855237</DistanceMeters>
          </Trackpoint>
          <Trackpoint>
            <Time>2018-08-26T10:15:24.000Z</Time>
            <Position>
              <LatitudeDegrees>42.8622467257082462310791015625</LatitudeDegrees>
              <LongitudeDegrees>-1.613080166280269622802734375</LongitudeDegrees>
            </Position>
            <AltitudeMeters>478.20001220703125</AltitudeMeters>
            <DistanceMeters>89392.567157816</DistanceMeters>
          </Trackpoint>
          <Trackpoint>
            <Time>2018-08-26T10:15:25.000Z</Time>
            <Position>
              <LatitudeDegrees>42.86218293942511081695556640625</LatitudeDegrees>
              <LongitudeDegrees>-1.61314177326858043670654296875</LongitudeDegrees>
            </Position>
            <AltitudeMeters>478.20001220703125</AltitudeMeters>
            <DistanceMeters>89401.266125605</DistanceMeters>
          </Trackpoint>
          <Trackpoint>
            <Time>2018-08-26T10:15:26.000Z</Time>
            <Position>
              <LatitudeDegrees>42.86211915314197540283203125</LatitudeDegrees>
              <LongitudeDegrees>-1.6132043860852718353271484375</LongitudeDegrees>
            </Position>
            <AltitudeMeters>478.20001220703125</AltitudeMeters>
            <DistanceMeters>89410.011681476</DistanceMeters>
          </Trackpoint>
          <Trackpoint>
            <Time>2018-08-26T10:15:27.000Z</Time>
            <Position>
              <LatitudeDegrees>42.86205620504915714263916015625</LatitudeDegrees>
              <LongitudeDegrees>-1.6132697649300098419189453125</LongitudeDegrees>
            </Position>
            <AltitudeMeters>478.20001220703125</AltitudeMeters>
            <DistanceMeters>89418.816920618</DistanceMeters>
          </Trackpoint>
          <Trackpoint>
            <Time>2018-08-26T10:15:28.000Z</Time>
            <Position>
              <LatitudeDegrees>42.8619922511279582977294921875</LatitudeDegrees>
              <LongitudeDegrees>-1.61333656869828701019287109375</LongitudeDegrees>
            </Position>
            <AltitudeMeters>478.20001220703125</AltitudeMeters>
            <DistanceMeters>89427.781722922</DistanceMeters>
          </Trackpoint>
          <Trackpoint>
            <Time>2018-08-26T10:15:29.000Z</Time>
            <Position>
              <LatitudeDegrees>42.86192796193063259124755859375</LatitudeDegrees>
              <LongitudeDegrees>-1.6134021990001201629638671875</LongitudeDegrees>
            </Position>
            <AltitudeMeters>478.20001220703125</AltitudeMeters>
            <DistanceMeters>89436.718276848</DistanceMeters>
          </Trackpoint>
          <Trackpoint>
            <Time>2018-08-26T10:15:30.000Z</Time>
            <Position>
              <LatitudeDegrees>42.86186342127621173858642578125</LatitudeDegrees>
              <LongitudeDegrees>-1.613467074930667877197265625</LongitudeDegrees>
            </Position>
            <AltitudeMeters>478.20001220703125</AltitudeMeters>
            <DistanceMeters>89445.641179066</DistanceMeters>
          </Trackpoint>
          <Trackpoint>
            <Time>2018-08-26T10:15:31.000Z</Time>
            <Position>
              <LatitudeDegrees>42.861799634993076324462890625</LatitudeDegrees>
              <LongitudeDegrees>-1.6135322861373424530029296875</LongitudeDegrees>
            </Position>
            <AltitudeMeters>478.20001220703125</AltitudeMeters>
            <DistanceMeters>89454.513336434</DistanceMeters>
          </Trackpoint>
          <Trackpoint>
            <Time>2018-08-26T10:15:32.000Z</Time>
            <Position>
              <LatitudeDegrees>42.86173551343381404876708984375</LatitudeDegrees>
              <LongitudeDegrees>-1.6135996766388416290283203125</LongitudeDegrees>
            </Position>
            <AltitudeMeters>478.20001220703125</AltitudeMeters>
            <DistanceMeters>89463.522350092</DistanceMeters>
          </Trackpoint>
          <Trackpoint>
            <Time>2018-08-26T10:15:33.000Z</Time>
            <Position>
              <LatitudeDegrees>42.86167181096971035003662109375</LatitudeDegrees>
              <LongitudeDegrees>-1.6136670671403408050537109375</LongitudeDegrees>
            </Position>
            <AltitudeMeters>478.20001220703125</AltitudeMeters>
            <DistanceMeters>89472.494200593</DistanceMeters>
          </Trackpoint>
          <Trackpoint>
            <Time>2018-08-26T10:15:34.000Z</Time>
            <Position>
              <LatitudeDegrees>42.86160827614367008209228515625</LatitudeDegrees>
              <LongitudeDegrees>-1.6137344576418399810791015625</LongitudeDegrees>
            </Position>
            <AltitudeMeters>478</AltitudeMeters>
            <DistanceMeters>89481.451949154</DistanceMeters>
          </Trackpoint>
          <Trackpoint>
            <Time>2018-08-26T10:15:35.000Z</Time>
            <Position>
              <LatitudeDegrees>42.86154423840343952178955078125</LatitudeDegrees>
              <LongitudeDegrees>-1.61380042321979999542236328125</LongitudeDegrees>
            </Position>
            <AltitudeMeters>477.79998779296875</AltitudeMeters>
            <DistanceMeters>89490.383449325</DistanceMeters>
          </Trackpoint>
          <Trackpoint>
            <Time>2018-08-26T10:15:36.000Z</Time>
            <Position>
              <LatitudeDegrees>42.8614809550344944000244140625</LatitudeDegrees>
              <LongitudeDegrees>-1.61386563442647457122802734375</LongitudeDegrees>
            </Position>
            <AltitudeMeters>477.600006103515625</AltitudeMeters>
            <DistanceMeters>89499.211221395</DistanceMeters>
          </Trackpoint>
          <Trackpoint>
            <Time>2018-08-26T10:15:37.000Z</Time>
            <Position>
              <LatitudeDegrees>42.8614189289510250091552734375</LatitudeDegrees>
              <LongitudeDegrees>-1.61393285728991031646728515625</LongitudeDegrees>
            </Position>
            <AltitudeMeters>477.399993896484375</AltitudeMeters>
            <DistanceMeters>89508.028758363</DistanceMeters>
          </Trackpoint>
          <Trackpoint>
            <Time>2018-08-26T10:15:38.000Z</Time>
            <Position>
              <LatitudeDegrees>42.861357070505619049072265625</LatitudeDegrees>
              <LongitudeDegrees>-1.614000163972377777099609375</LongitudeDegrees>
            </Position>
            <AltitudeMeters>477.20001220703125</AltitudeMeters>
            <DistanceMeters>89516.83502298</DistanceMeters>
          </Trackpoint>
          <Trackpoint>
            <Time>2018-08-26T10:15:39.000Z</Time>
            <Position>
              <LatitudeDegrees>42.86129462532699108123779296875</LatitudeDegrees>
              <LongitudeDegrees>-1.61406680010259151458740234375</LongitudeDegrees>
            </Position>
            <AltitudeMeters>477</AltitudeMeters>
            <DistanceMeters>89525.659725765</DistanceMeters>
          </Trackpoint>
          <Trackpoint>
            <Time>2018-08-26T10:15:40.000Z</Time>
            <Position>
              <LatitudeDegrees>42.8612318448722362518310546875</LatitudeDegrees>
              <LongitudeDegrees>-1.61413318477571010589599609375</LongitudeDegrees>
            </Position>
            <AltitudeMeters>476.79998779296875</AltitudeMeters>
            <DistanceMeters>89534.500785752</DistanceMeters>
          </Trackpoint>
          <Trackpoint>
            <Time>2018-08-26T10:15:41.000Z</Time>
            <Position>
              <LatitudeDegrees>42.8611688129603862762451171875</LatitudeDegrees>
              <LongitudeDegrees>-1.61419906653463840484619140625</LongitudeDegrees>
            </Position>
            <AltitudeMeters>476.600006103515625</AltitudeMeters>
            <DistanceMeters>89543.338270189</DistanceMeters>
          </Trackpoint>
          <Trackpoint>
            <Time>2018-08-26T10:15:42.000Z</Time>
            <Position>
              <LatitudeDegrees>42.86110586486756801605224609375</LatitudeDegrees>
              <LongitudeDegrees>-1.614265032112598419189453125</LongitudeDegrees>
            </Position>
            <AltitudeMeters>476.600006103515625</AltitudeMeters>
            <DistanceMeters>89552.173199774</DistanceMeters>
          </Trackpoint>
          <Trackpoint>
            <Time>2018-08-26T10:15:43.000Z</Time>
            <Position>
              <LatitudeDegrees>42.861042916774749755859375</LatitudeDegrees>
              <LongitudeDegrees>-1.61433183588087558746337890625</LongitudeDegrees>
            </Position>
            <AltitudeMeters>476.399993896484375</AltitudeMeters>
            <DistanceMeters>89561.049936058</DistanceMeters>
          </Trackpoint>
          <Trackpoint>
            <Time>2018-08-26T10:15:44.000Z</Time>
            <Position>
              <LatitudeDegrees>42.86098055541515350341796875</LatitudeDegrees>
              <LongitudeDegrees>-1.61439972929656505584716796875</LongitudeDegrees>
            </Position>
            <AltitudeMeters>476.399993896484375</AltitudeMeters>
            <DistanceMeters>89569.930232088</DistanceMeters>
          </Trackpoint>
          <Trackpoint>
            <Time>2018-08-26T10:15:45.000Z</Time>
            <Position>
              <LatitudeDegrees>42.86091811023652553558349609375</LatitudeDegrees>
              <LongitudeDegrees>-1.6144683770835399627685546875</LongitudeDegrees>
            </Position>
            <AltitudeMeters>476.20001220703125</AltitudeMeters>
            <DistanceMeters>89578.856675643</DistanceMeters>
          </Trackpoint>
          <Trackpoint>
            <Time>2018-08-26T10:15:46.000Z</Time>
            <Position>
              <LatitudeDegrees>42.8608546592295169830322265625</LatitudeDegrees>
              <LongitudeDegrees>-1.61453635431826114654541015625</LongitudeDegrees>
            </Position>
            <AltitudeMeters>476.20001220703125</AltitudeMeters>
            <DistanceMeters>89587.836071646</DistanceMeters>
          </Trackpoint>
          <Trackpoint>
            <Time>2018-08-26T10:15:47.000Z</Time>
            <Position>
              <LatitudeDegrees>42.86079053767025470733642578125</LatitudeDegrees>
              <LongitudeDegrees>-1.61460357718169689178466796875</LongitudeDegrees>
            </Position>
            <AltitudeMeters>476.20001220703125</AltitudeMeters>
            <DistanceMeters>89596.837063028</DistanceMeters>
          </Trackpoint>
          <Trackpoint>
            <Time>2018-08-26T10:15:48.000Z</Time>
            <Position>
              <LatitudeDegrees>42.86072616465389728546142578125</LatitudeDegrees>
              <LongitudeDegrees>-1.61467130295932292938232421875</LongitudeDegrees>
            </Position>
            <AltitudeMeters>476</AltitudeMeters>
            <DistanceMeters>89605.885083421</DistanceMeters>
          </Trackpoint>
          <Trackpoint>
            <Time>2018-08-26T10:15:49.000Z</Time>
            <Position>
              <LatitudeDegrees>42.8606618754565715789794921875</LatitudeDegrees>
              <LongitudeDegrees>-1.6147399507462978363037109375</LongitudeDegrees>
            </Position>
            <AltitudeMeters>476</AltitudeMeters>
            <DistanceMeters>89614.97194311</DistanceMeters>
          </Trackpoint>
          <Trackpoint>
            <Time>2018-08-26T10:15:50.000Z</Time>
            <Position>
              <LatitudeDegrees>42.8605975024402141571044921875</LatitudeDegrees>
              <LongitudeDegrees>-1.6148090176284313201904296875</LongitudeDegrees>
            </Position>
            <AltitudeMeters>475.79998779296875</AltitudeMeters>
            <DistanceMeters>89624.087080704</DistanceMeters>
          </Trackpoint>
          <Trackpoint>
            <Time>2018-08-26T10:15:51.000Z</Time>
            <Position>
              <LatitudeDegrees>42.86053304560482501983642578125</LatitudeDegrees>
              <LongitudeDegrees>-1.61487850360572338104248046875</LongitudeDegrees>
            </Position>
            <AltitudeMeters>475.79998779296875</AltitudeMeters>
            <DistanceMeters>89633.230408748</DistanceMeters>
          </Trackpoint>
          <Trackpoint>
            <Time>2018-08-26T10:15:52.000Z</Time>
            <Position>
              <LatitudeDegrees>42.8604680858552455902099609375</LatitudeDegrees>
              <LongitudeDegrees>-1.61494857631623744964599609375</LongitudeDegrees>
            </Position>
            <AltitudeMeters>475.79998779296875</AltitudeMeters>
            <DistanceMeters>89642.4475102</DistanceMeters>
          </Trackpoint>
          <Trackpoint>
            <Time>2018-08-26T10:15:53.000Z</Time>
            <Position>
              <LatitudeDegrees>42.86040161736309528350830078125</LatitudeDegrees>
              <LongitudeDegrees>-1.6150175593793392181396484375</LongitudeDegrees>
            </Position>
            <AltitudeMeters>475.600006103515625</AltitudeMeters>
            <DistanceMeters>89651.743143664</DistanceMeters>
          </Trackpoint>
          <Trackpoint>
            <Time>2018-08-26T10:15:54.000Z</Time>
            <Position>
              <LatitudeDegrees>42.860334813594818115234375</LatitudeDegrees>
              <LongitudeDegrees>-1.6150866262614727020263671875</LongitudeDegrees>
            </Position>
            <AltitudeMeters>475.600006103515625</AltitudeMeters>
            <DistanceMeters>89661.072715296</DistanceMeters>
          </Trackpoint>
          <Trackpoint>
            <Time>2018-08-26T10:15:55.000Z</Time>
            <Position>
              <LatitudeDegrees>42.8602682612836360931396484375</LatitudeDegrees>
              <LongitudeDegrees>-1.6151563636958599090576171875</LongitudeDegrees>
            </Position>
            <AltitudeMeters>475.399993896484375</AltitudeMeters>
            <DistanceMeters>89670.413411127</DistanceMeters>
          </Trackpoint>
          <Trackpoint>
            <Time>2018-08-26T10:15:56.000Z</Time>
            <Position>
              <LatitudeDegrees>42.86020179279148578643798828125</LatitudeDegrees>
              <LongitudeDegrees>-1.615225933492183685302734375</LongitudeDegrees>
            </Position>
            <AltitudeMeters>475.399993896484375</AltitudeMeters>
            <DistanceMeters>89679.737657799</DistanceMeters>
          </Trackpoint>
          <Trackpoint>
            <Time>2018-08-26T10:15:57.000Z</Time>
            <Position>
              <LatitudeDegrees>42.86013524048030376434326171875</LatitudeDegrees>
              <LongitudeDegrees>-1.61529575474560260772705078125</LongitudeDegrees>
            </Position>
            <AltitudeMeters>475.399993896484375</AltitudeMeters>
            <DistanceMeters>89689.082219812</DistanceMeters>
          </Trackpoint>
          <Trackpoint>
            <Time>2018-08-26T10:15:58.000Z</Time>
            <Position>
              <LatitudeDegrees>42.86006868816912174224853515625</LatitudeDegrees>
              <LongitudeDegrees>-1.61536599509418010711669921875</LongitudeDegrees>
            </Position>
            <AltitudeMeters>475.399993896484375</AltitudeMeters>
            <DistanceMeters>89698.447053095</DistanceMeters>
          </Trackpoint>
          <Trackpoint>
            <Time>2018-08-26T10:15:59.000Z</Time>
            <Position>
              <LatitudeDegrees>42.86000213585793972015380859375</LatitudeDegrees>
              <LongitudeDegrees>-1.61543506197631359100341796875</LongitudeDegrees>
            </Position>
            <AltitudeMeters>475.399993896484375</AltitudeMeters>
            <DistanceMeters>89707.753851323</DistanceMeters>
          </Trackpoint>
          <Trackpoint>
            <Time>2018-08-26T10:16:00.000Z</Time>
            <Position>
              <LatitudeDegrees>42.85993541590869426727294921875</LatitudeDegrees>
              <LongitudeDegrees>-1.6155033744871616363525390625</LongitudeDegrees>
            </Position>
            <AltitudeMeters>475.20001220703125</AltitudeMeters>
            <DistanceMeters>89717.038306597</DistanceMeters>
          </Trackpoint>
          <Trackpoint>
            <Time>2018-08-26T10:16:01.000Z</Time>
            <Position>
              <LatitudeDegrees>42.85986852832138538360595703125</LatitudeDegrees>
              <LongitudeDegrees>-1.61557168699800968170166015625</LongitudeDegrees>
            </Position>
            <AltitudeMeters>475</AltitudeMeters>
            <DistanceMeters>89726.337824977</DistanceMeters>
          </Trackpoint>
          <Trackpoint>
            <Time>2018-08-26T10:16:02.000Z</Time>
            <Position>
              <LatitudeDegrees>42.859801389276981353759765625</LatitudeDegrees>
              <LongitudeDegrees>-1.61563890986144542694091796875</LongitudeDegrees>
            </Position>
            <AltitudeMeters>475</AltitudeMeters>
            <DistanceMeters>89735.607679746</DistanceMeters>
          </Trackpoint>
          <Trackpoint>
            <Time>2018-08-26T10:16:03.000Z</Time>
            <Position>
              <LatitudeDegrees>42.859734334051609039306640625</LatitudeDegrees>
              <LongitudeDegrees>-1.615706719458103179931640625</LongitudeDegrees>
            </Position>
            <AltitudeMeters>474.399993896484375</AltitudeMeters>
            <DistanceMeters>89744.896996756</DistanceMeters>
          </Trackpoint>
          <Trackpoint>
            <Time>2018-08-26T10:16:04.000Z</Time>
            <Position>
              <LatitudeDegrees>42.85966702736914157867431640625</LatitudeDegrees>
              <LongitudeDegrees>-1.61577469669282436370849609375</LongitudeDegrees>
            </Position>
            <AltitudeMeters>474.20001220703125</AltitudeMeters>
            <DistanceMeters>89754.217368819</DistanceMeters>
          </Trackpoint>
          <Trackpoint>
            <Time>2018-08-26T10:16:05.000Z</Time>
            <Position>
              <LatitudeDegrees>42.859599553048610687255859375</LatitudeDegrees>
              <LongitudeDegrees>-1.6158416680991649627685546875</LongitudeDegrees>
            </Position>
            <AltitudeMeters>474.20001220703125</AltitudeMeters>
            <DistanceMeters>89763.504741439</DistanceMeters>
          </Trackpoint>
          <Trackpoint>
            <Time>2018-08-26T10:16:06.000Z</Time>
            <Position>
              <LatitudeDegrees>42.85953216254711151123046875</LatitudeDegrees>
              <LongitudeDegrees>-1.6159090586006641387939453125</LongitudeDegrees>
            </Position>
            <AltitudeMeters>474.20001220703125</AltitudeMeters>
            <DistanceMeters>89772.80474532</DistanceMeters>
          </Trackpoint>
          <Trackpoint>
            <Time>2018-08-26T10:16:07.000Z</Time>
            <Position>
              <LatitudeDegrees>42.8594652749598026275634765625</LatitudeDegrees>
              <LongitudeDegrees>-1.61597586236894130706787109375</LongitudeDegrees>
            </Position>
            <AltitudeMeters>474</AltitudeMeters>
            <DistanceMeters>89782.030659939</DistanceMeters>
          </Trackpoint>
          <Trackpoint>
            <Time>2018-08-26T10:16:08.000Z</Time>
            <Position>
              <LatitudeDegrees>42.8593985550105571746826171875</LatitudeDegrees>
              <LongitudeDegrees>-1.616043336689472198486328125</LongitudeDegrees>
            </Position>
            <AltitudeMeters>474</AltitudeMeters>
            <DistanceMeters>89791.275152541</DistanceMeters>
          </Trackpoint>
          <Trackpoint>
            <Time>2018-08-26T10:16:09.000Z</Time>
            <Position>
              <LatitudeDegrees>42.859332002699375152587890625</LatitudeDegrees>
              <LongitudeDegrees>-1.61611072719097137451171875</LongitudeDegrees>
            </Position>
            <AltitudeMeters>473.79998779296875</AltitudeMeters>
            <DistanceMeters>89800.50057776</DistanceMeters>
          </Trackpoint>
          <Trackpoint>
            <Time>2018-08-26T10:16:10.000Z</Time>
            <Position>
              <LatitudeDegrees>42.85926528275012969970703125</LatitudeDegrees>
              <LongitudeDegrees>-1.6161771118640899658203125</LongitudeDegrees>
            </Position>
            <AltitudeMeters>473.600006103515625</AltitudeMeters>
            <DistanceMeters>89809.692171486</DistanceMeters>
          </Trackpoint>
          <Trackpoint>
            <Time>2018-08-26T10:16:11.000Z</Time>
            <Position>
              <LatitudeDegrees>42.85919797606766223907470703125</LatitudeDegrees>
              <LongitudeDegrees>-1.61624374799430370330810546875</LongitudeDegrees>
            </Position>
            <AltitudeMeters>473.600006103515625</AltitudeMeters>
            <DistanceMeters>89818.948378338</DistanceMeters>
          </Trackpoint>
          <Trackpoint>
            <Time>2018-08-26T10:16:12.000Z</Time>
            <Position>
              <LatitudeDegrees>42.85913075320422649383544921875</LatitudeDegrees>
              <LongitudeDegrees>-1.6163110546767711639404296875</LongitudeDegrees>
            </Position>
            <AltitudeMeters>473.600006103515625</AltitudeMeters>
            <DistanceMeters>89828.229915349</DistanceMeters>
          </Trackpoint>
          <Trackpoint>
            <Time>2018-08-26T10:16:13.000Z</Time>
            <Position>
              <LatitudeDegrees>42.85906336270272731781005859375</LatitudeDegrees>
              <LongitudeDegrees>-1.61637886427342891693115234375</LongitudeDegrees>
            </Position>
            <AltitudeMeters>473.600006103515625</AltitudeMeters>
            <DistanceMeters>89837.549802972</DistanceMeters>
          </Trackpoint>
          <Trackpoint>
            <Time>2018-08-26T10:16:14.000Z</Time>
            <Position>
              <LatitudeDegrees>42.85899572074413299560546875</LatitudeDegrees>
              <LongitudeDegrees>-1.61644692532718181610107421875</LongitudeDegrees>
            </Position>
            <AltitudeMeters>473.600006103515625</AltitudeMeters>
            <DistanceMeters>89846.904988748</DistanceMeters>
          </Trackpoint>
          <Trackpoint>
            <Time>2018-08-26T10:16:15.000Z</Time>
            <Position>
              <LatitudeDegrees>42.85892757587134838104248046875</LatitudeDegrees>
              <LongitudeDegrees>-1.61651515401899814605712890625</LongitudeDegrees>
            </Position>
            <AltitudeMeters>473.600006103515625</AltitudeMeters>
            <DistanceMeters>89856.312153525</DistanceMeters>
          </Trackpoint>
          <Trackpoint>
            <Time>2018-08-26T10:16:16.000Z</Time>
            <Position>
              <LatitudeDegrees>42.85885892808437347412109375</LatitudeDegrees>
              <LongitudeDegrees>-1.61658279597759246826171875</LongitudeDegrees>
            </Position>
            <AltitudeMeters>473.399993896484375</AltitudeMeters>
            <DistanceMeters>89865.737539038</DistanceMeters>
          </Trackpoint>
          <Trackpoint>
            <Time>2018-08-26T10:16:17.000Z</Time>
            <Position>
              <LatitudeDegrees>42.8587896935641765594482421875</LatitudeDegrees>
              <LongitudeDegrees>-1.6166500188410282135009765625</LongitudeDegrees>
            </Position>
            <AltitudeMeters>473.399993896484375</AltitudeMeters>
            <DistanceMeters>89875.195442466</DistanceMeters>
          </Trackpoint>
          <Trackpoint>
            <Time>2018-08-26T10:16:18.000Z</Time>
            <Position>
              <LatitudeDegrees>42.85872079432010650634765625</LatitudeDegrees>
              <LongitudeDegrees>-1.61671824753284454345703125</LongitudeDegrees>
            </Position>
            <AltitudeMeters>473.399993896484375</AltitudeMeters>
            <DistanceMeters>89884.67051608</DistanceMeters>
          </Trackpoint>
          <Trackpoint>
            <Time>2018-08-26T10:16:19.000Z</Time>
            <Position>
              <LatitudeDegrees>42.85865231417119503021240234375</LatitudeDegrees>
              <LongitudeDegrees>-1.61678706295788288116455078125</LongitudeDegrees>
            </Position>
            <AltitudeMeters>473.399993896484375</AltitudeMeters>
            <DistanceMeters>89894.137008495</DistanceMeters>
          </Trackpoint>
          <Trackpoint>
            <Time>2018-08-26T10:16:20.000Z</Time>
            <Position>
              <LatitudeDegrees>42.8585841692984104156494140625</LatitudeDegrees>
              <LongitudeDegrees>-1.6168542020022869110107421875</LongitudeDegrees>
            </Position>
            <AltitudeMeters>473.399993896484375</AltitudeMeters>
            <DistanceMeters>89903.493159469</DistanceMeters>
          </Trackpoint>
          <Trackpoint>
            <Time>2018-08-26T10:16:21.000Z</Time>
            <Position>
              <LatitudeDegrees>42.85851602442562580108642578125</LatitudeDegrees>
              <LongitudeDegrees>-1.61692134104669094085693359375</LongitudeDegrees>
            </Position>
            <AltitudeMeters>473.20001220703125</AltitudeMeters>
            <DistanceMeters>89912.849310443</DistanceMeters>
          </Trackpoint>
          <Trackpoint>
            <Time>2018-08-26T10:16:22.000Z</Time>
            <Position>
              <LatitudeDegrees>42.85844880156219005584716796875</LatitudeDegrees>
              <LongitudeDegrees>-1.6169889830052852630615234375</LongitudeDegrees>
            </Position>
            <AltitudeMeters>473.20001220703125</AltitudeMeters>
            <DistanceMeters>89922.14640094</DistanceMeters>
          </Trackpoint>
          <Trackpoint>
            <Time>2018-08-26T10:16:23.000Z</Time>
            <Position>
              <LatitudeDegrees>42.85838174633681774139404296875</LatitudeDegrees>
              <LongitudeDegrees>-1.61705712787806987762451171875</LongitudeDegrees>
            </Position>
            <AltitudeMeters>473.20001220703125</AltitudeMeters>
            <DistanceMeters>89931.453199168</DistanceMeters>
          </Trackpoint>
          <Trackpoint>
            <Time>2018-08-26T10:16:24.000Z</Time>
            <Position>
              <LatitudeDegrees>42.85831469111144542694091796875</LatitudeDegrees>
              <LongitudeDegrees>-1.6171252727508544921875</LongitudeDegrees>
            </Position>
            <AltitudeMeters>473</AltitudeMeters>
            <DistanceMeters>89940.759997396</DistanceMeters>
          </Trackpoint>
          <Trackpoint>
            <Time>2018-08-26T10:16:25.000Z</Time>
            <Position>
              <LatitudeDegrees>42.858247719705104827880859375</LatitudeDegrees>
              <LongitudeDegrees>-1.61719257943332195281982421875</LongitudeDegrees>
            </Position>
            <AltitudeMeters>473</AltitudeMeters>
            <DistanceMeters>89950.018155183</DistanceMeters>
          </Trackpoint>
          <Trackpoint>
            <Time>2018-08-26T10:16:26.000Z</Time>
            <Position>
              <LatitudeDegrees>42.85818125121295452117919921875</LatitudeDegrees>
              <LongitudeDegrees>-1.61725980229675769805908203125</LongitudeDegrees>
            </Position>
            <AltitudeMeters>473</AltitudeMeters>
            <DistanceMeters>89959.227415629</DistanceMeters>
          </Trackpoint>
          <Trackpoint>
            <Time>2018-08-26T10:16:27.000Z</Time>
            <Position>
              <LatitudeDegrees>42.858114950358867645263671875</LatitudeDegrees>
              <LongitudeDegrees>-1.61732702516019344329833984375</LongitudeDegrees>
            </Position>
            <AltitudeMeters>473</AltitudeMeters>
            <DistanceMeters>89968.421956165</DistanceMeters>
          </Trackpoint>
          <Trackpoint>
            <Time>2018-08-26T10:16:28.000Z</Time>
            <Position>
              <LatitudeDegrees>42.85804831422865390777587890625</LatitudeDegrees>
              <LongitudeDegrees>-1.61739357747137546539306640625</LongitudeDegrees>
            </Position>
            <AltitudeMeters>473</AltitudeMeters>
            <DistanceMeters>89977.614041091</DistanceMeters>
          </Trackpoint>
          <Trackpoint>
            <Time>2018-08-26T10:16:29.000Z</Time>
            <Position>
              <LatitudeDegrees>42.8579820133745670318603515625</LatitudeDegrees>
              <LongitudeDegrees>-1.6174603812396526336669921875</LongitudeDegrees>
            </Position>
            <AltitudeMeters>473</AltitudeMeters>
            <DistanceMeters>89986.787934073</DistanceMeters>
          </Trackpoint>
          <Trackpoint>
            <Time>2018-08-26T10:16:30.000Z</Time>
            <Position>
              <LatitudeDegrees>42.8579152934253215789794921875</LatitudeDegrees>
              <LongitudeDegrees>-1.61752634681761264801025390625</LongitudeDegrees>
            </Position>
            <AltitudeMeters>472.600006103515625</AltitudeMeters>
            <DistanceMeters>89995.959858198</DistanceMeters>
          </Trackpoint>
          <Trackpoint>
            <Time>2018-08-26T10:16:31.000Z</Time>
            <Position>
              <LatitudeDegrees>42.85784815438091754913330078125</LatitudeDegrees>
              <LongitudeDegrees>-1.61759222857654094696044921875</LongitudeDegrees>
            </Position>
            <AltitudeMeters>472.600006103515625</AltitudeMeters>
            <DistanceMeters>90005.165195636</DistanceMeters>
          </Trackpoint>
          <Trackpoint>
            <Time>2018-08-26T10:16:32.000Z</Time>
            <Position>
              <LatitudeDegrees>42.85778093151748180389404296875</LatitudeDegrees>
              <LongitudeDegrees>-1.61765861324965953826904296875</LongitudeDegrees>
            </Position>
            <AltitudeMeters>472.600006103515625</AltitudeMeters>
            <DistanceMeters>90014.402359287</DistanceMeters>
          </Trackpoint>
          <Trackpoint>
            <Time>2018-08-26T10:16:33.000Z</Time>
            <Position>
              <LatitudeDegrees>42.85771437920629978179931640625</LatitudeDegrees>
              <LongitudeDegrees>-1.61772516556084156036376953125</LongitudeDegrees>
            </Position>
            <AltitudeMeters>472.600006103515625</AltitudeMeters>
            <DistanceMeters>90023.586090228</DistanceMeters>
          </Trackpoint>
          <Trackpoint>
            <Time>2018-08-26T10:16:34.000Z</Time>
            <Position>
              <LatitudeDegrees>42.85764782689511775970458984375</LatitudeDegrees>
              <LongitudeDegrees>-1.61779205314815044403076171875</LongitudeDegrees>
            </Position>
            <AltitudeMeters>472.399993896484375</AltitudeMeters>
            <DistanceMeters>90032.786521554</DistanceMeters>
          </Trackpoint>
          <Trackpoint>
            <Time>2018-08-26T10:16:35.000Z</Time>
            <Position>
              <LatitudeDegrees>42.85758093930780887603759765625</LatitudeDegrees>
              <LongitudeDegrees>-1.61785818636417388916015625</LongitudeDegrees>
            </Position>
            <AltitudeMeters>472.399993896484375</AltitudeMeters>
            <DistanceMeters>90041.98106209</DistanceMeters>
          </Trackpoint>
          <Trackpoint>
            <Time>2018-08-26T10:16:36.000Z</Time>
            <Position>
              <LatitudeDegrees>42.85751455463469028472900390625</LatitudeDegrees>
              <LongitudeDegrees>-1.617924235761165618896484375</LongitudeDegrees>
            </Position>
            <AltitudeMeters>472.399993896484375</AltitudeMeters>
            <DistanceMeters>90051.126365148</DistanceMeters>
          </Trackpoint>
          <Trackpoint>
            <Time>2018-08-26T10:16:37.000Z</Time>
            <Position>
              <LatitudeDegrees>42.857448756694793701171875</LatitudeDegrees>
              <LongitudeDegrees>-1.61799053661525249481201171875</LongitudeDegrees>
            </Position>
            <AltitudeMeters>472.20001220703125</AltitudeMeters>
            <DistanceMeters>90060.230598871</DistanceMeters>
          </Trackpoint>
          <Trackpoint>
            <Time>2018-08-26T10:16:38.000Z</Time>
            <Position>
              <LatitudeDegrees>42.8573828749358654022216796875</LatitudeDegrees>
              <LongitudeDegrees>-1.618055999279022216796875</LongitudeDegrees>
            </Position>
            <AltitudeMeters>472.399993896484375</AltitudeMeters>
            <DistanceMeters>90069.302042341</DistanceMeters>
          </Trackpoint>
          <Trackpoint>
            <Time>2018-08-26T10:16:39.000Z</Time>
            <Position>
              <LatitudeDegrees>42.85731724463403224945068359375</LatitudeDegrees>
              <LongitudeDegrees>-1.6181218810379505157470703125</LongitudeDegrees>
            </Position>
            <AltitudeMeters>472.20001220703125</AltitudeMeters>
            <DistanceMeters>90078.37099687</DistanceMeters>
          </Trackpoint>
          <Trackpoint>
            <Time>2018-08-26T10:16:40.000Z</Time>
            <Position>
              <LatitudeDegrees>42.8572521172463893890380859375</LatitudeDegrees>
              <LongitudeDegrees>-1.618186421692371368408203125</LongitudeDegrees>
            </Position>
            <AltitudeMeters>472.20001220703125</AltitudeMeters>
            <DistanceMeters>90087.330761353</DistanceMeters>
          </Trackpoint>
          <Trackpoint>
            <Time>2018-08-26T10:16:41.000Z</Time>
            <Position>
              <LatitudeDegrees>42.85718665458261966705322265625</LatitudeDegrees>
              <LongitudeDegrees>-1.6182509623467922210693359375</LongitudeDegrees>
            </Position>
            <AltitudeMeters>472</AltitudeMeters>
            <DistanceMeters>90096.320710417</DistanceMeters>
          </Trackpoint>
          <Trackpoint>
            <Time>2018-08-26T10:16:42.000Z</Time>
            <Position>
              <LatitudeDegrees>42.85712194629013538360595703125</LatitudeDegrees>
              <LongitudeDegrees>-1.618315838277339935302734375</LongitudeDegrees>
            </Position>
            <AltitudeMeters>472</AltitudeMeters>
            <DistanceMeters>90105.259285045</DistanceMeters>
          </Trackpoint>
          <Trackpoint>
            <Time>2018-08-26T10:16:43.000Z</Time>
            <Position>
              <LatitudeDegrees>42.857057489454746246337890625</LatitudeDegrees>
              <LongitudeDegrees>-1.618380211293697357177734375</LongitudeDegrees>
            </Position>
            <AltitudeMeters>472</AltitudeMeters>
            <DistanceMeters>90114.150759572</DistanceMeters>
          </Trackpoint>
          <Trackpoint>
            <Time>2018-08-26T10:16:44.000Z</Time>
            <Position>
              <LatitudeDegrees>42.85699336789548397064208984375</LatitudeDegrees>
              <LongitudeDegrees>-1.61844466812908649444580078125</LongitudeDegrees>
            </Position>
            <AltitudeMeters>472</AltitudeMeters>
            <DistanceMeters>90123.016298775</DistanceMeters>
          </Trackpoint>
          <Trackpoint>
            <Time>2018-08-26T10:16:45.000Z</Time>
            <Position>
              <LatitudeDegrees>42.8569292463362216949462890625</LatitudeDegrees>
              <LongitudeDegrees>-1.61850904114544391632080078125</LongitudeDegrees>
            </Position>
            <AltitudeMeters>471.79998779296875</AltitudeMeters>
            <DistanceMeters>90131.877762805</DistanceMeters>
          </Trackpoint>
          <Trackpoint>
            <Time>2018-08-26T10:16:46.000Z</Time>
            <Position>
              <LatitudeDegrees>42.85686512477695941925048828125</LatitudeDegrees>
              <LongitudeDegrees>-1.6185738332569599151611328125</LongitudeDegrees>
            </Position>
            <AltitudeMeters>471.79998779296875</AltitudeMeters>
            <DistanceMeters>90140.759584005</DistanceMeters>
          </Trackpoint>
          <Trackpoint>
            <Time>2018-08-26T10:16:47.000Z</Time>
            <Position>
              <LatitudeDegrees>42.85680024884641170501708984375</LatitudeDegrees>
              <LongitudeDegrees>-1.618638373911380767822265625</LongitudeDegrees>
            </Position>
            <AltitudeMeters>471.79998779296875</AltitudeMeters>
            <DistanceMeters>90149.697148338</DistanceMeters>
          </Trackpoint>
          <Trackpoint>
            <Time>2018-08-26T10:16:48.000Z</Time>
            <Position>
              <LatitudeDegrees>42.8567344509065151214599609375</LatitudeDegrees>
              <LongitudeDegrees>-1.6187032498419284820556640625</LongitudeDegrees>
            </Position>
            <AltitudeMeters>471.79998779296875</AltitudeMeters>
            <DistanceMeters>90158.733184594</DistanceMeters>
          </Trackpoint>
          <Trackpoint>
            <Time>2018-08-26T10:16:49.000Z</Time>
            <Position>
              <LatitudeDegrees>42.8566687367856502532958984375</LatitudeDegrees>
              <LongitudeDegrees>-1.618767790496349334716796875</LongitudeDegrees>
            </Position>
            <AltitudeMeters>471.79998779296875</AltitudeMeters>
            <DistanceMeters>90167.745705751</DistanceMeters>
          </Trackpoint>
          <Trackpoint>
            <Time>2018-08-26T10:16:50.000Z</Time>
            <Position>
              <LatitudeDegrees>42.85660277120769023895263671875</LatitudeDegrees>
              <LongitudeDegrees>-1.6188319958746433258056640625</LongitudeDegrees>
            </Position>
            <AltitudeMeters>471.600006103515625</AltitudeMeters>
            <DistanceMeters>90176.764737218</DistanceMeters>
          </Trackpoint>
          <Trackpoint>
            <Time>2018-08-26T10:16:51.000Z</Time>
            <Position>
              <LatitudeDegrees>42.8565373085439205169677734375</LatitudeDegrees>
              <LongitudeDegrees>-1.6188960336148738861083984375</LongitudeDegrees>
            </Position>
            <AltitudeMeters>471.600006103515625</AltitudeMeters>
            <DistanceMeters>90185.730546747</DistanceMeters>
          </Trackpoint>
          <Trackpoint>
            <Time>2018-08-26T10:16:52.000Z</Time>
            <Position>
              <LatitudeDegrees>42.8564719296991825103759765625</LatitudeDegrees>
              <LongitudeDegrees>-1.61896032281219959259033203125</LongitudeDegrees>
            </Position>
            <AltitudeMeters>471.399993896484375</AltitudeMeters>
            <DistanceMeters>90194.700384043</DistanceMeters>
          </Trackpoint>
          <Trackpoint>
            <Time>2018-08-26T10:16:53.000Z</Time>
            <Position>
              <LatitudeDegrees>42.856406383216381072998046875</LatitudeDegrees>
              <LongitudeDegrees>-1.61902519874274730682373046875</LongitudeDegrees>
            </Position>
            <AltitudeMeters>471.399993896484375</AltitudeMeters>
            <DistanceMeters>90203.71340616</DistanceMeters>
          </Trackpoint>
          <Trackpoint>
            <Time>2018-08-26T10:16:54.000Z</Time>
            <Position>
              <LatitudeDegrees>42.85634142346680164337158203125</LatitudeDegrees>
              <LongitudeDegrees>-1.61909040994942188262939453125</LongitudeDegrees>
            </Position>
            <AltitudeMeters>471.399993896484375</AltitudeMeters>
            <DistanceMeters>90212.690287701</DistanceMeters>
          </Trackpoint>
          <Trackpoint>
            <Time>2018-08-26T10:16:55.000Z</Time>
            <Position>
              <LatitudeDegrees>42.8562761284410953521728515625</LatitudeDegrees>
              <LongitudeDegrees>-1.619155704975128173828125</LongitudeDegrees>
            </Position>
            <AltitudeMeters>471.399993896484375</AltitudeMeters>
            <DistanceMeters>90221.701305811</DistanceMeters>
          </Trackpoint>
          <Trackpoint>
            <Time>2018-08-26T10:16:56.000Z</Time>
            <Position>
              <LatitudeDegrees>42.85621116869151592254638671875</LatitudeDegrees>
              <LongitudeDegrees>-1.61922066472470760345458984375</LongitudeDegrees>
            </Position>
            <AltitudeMeters>471.399993896484375</AltitudeMeters>
            <DistanceMeters>90230.666611741</DistanceMeters>
          </Trackpoint>
          <Trackpoint>
            <Time>2018-08-26T10:16:57.000Z</Time>
            <Position>
              <LatitudeDegrees>42.8561465442180633544921875</LatitudeDegrees>
              <LongitudeDegrees>-1.61928487010300159454345703125</LongitudeDegrees>
            </Position>
            <AltitudeMeters>471.399993896484375</AltitudeMeters>
            <DistanceMeters>90239.564685143</DistanceMeters>
          </Trackpoint>
          <Trackpoint>
            <Time>2018-08-26T10:16:58.000Z</Time>
            <Position>
              <LatitudeDegrees>42.85608208738267421722412109375</LatitudeDegrees>
              <LongitudeDegrees>-1.6193499974906444549560546875</LongitudeDegrees>
            </Position>
            <AltitudeMeters>471.399993896484375</AltitudeMeters>
            <DistanceMeters>90248.492645984</DistanceMeters>
          </Trackpoint>
          <Trackpoint>
            <Time>2018-08-26T10:16:59.000Z</Time>
            <Position>
              <LatitudeDegrees>42.856018133461475372314453125</LatitudeDegrees>
              <LongitudeDegrees>-1.6194157116115093231201171875</LongitudeDegrees>
            </Position>
            <AltitudeMeters>471.399993896484375</AltitudeMeters>
            <DistanceMeters>90257.403902475</DistanceMeters>
          </Trackpoint>
          <Trackpoint>
            <Time>2018-08-26T10:17:00.000Z</Time>
            <Position>
              <LatitudeDegrees>42.85595367662608623504638671875</LatitudeDegrees>
              <LongitudeDegrees>-1.61948050372302532196044921875</LongitudeDegrees>
            </Position>
            <AltitudeMeters>471.399993896484375</AltitudeMeters>
            <DistanceMeters>90266.315158966</DistanceMeters>
          </Trackpoint>
          <Trackpoint>
            <Time>2018-08-26T10:17:01.000Z</Time>
            <Position>
              <LatitudeDegrees>42.85588980652391910552978515625</LatitudeDegrees>
              <LongitudeDegrees>-1.61954387091100215911865234375</LongitudeDegrees>
            </Position>
            <AltitudeMeters>471.399993896484375</AltitudeMeters>
            <DistanceMeters>90275.105001629</DistanceMeters>
          </Trackpoint>
          <Trackpoint>
            <Time>2018-08-26T10:17:02.000Z</Time>
            <Position>
              <LatitudeDegrees>42.8558271937072277069091796875</LatitudeDegrees>
              <LongitudeDegrees>-1.6196058131754398345947265625</LongitudeDegrees>
            </Position>
            <AltitudeMeters>471.399993896484375</AltitudeMeters>
            <DistanceMeters>90283.714233154</DistanceMeters>
          </Trackpoint>
          <Trackpoint>
            <Time>2018-08-26T10:17:03.000Z</Time>
            <Position>
              <LatitudeDegrees>42.8557658381760120391845703125</LatitudeDegrees>
              <LongitudeDegrees>-1.619669012725353240966796875</LongitudeDegrees>
            </Position>
            <AltitudeMeters>471.20001220703125</AltitudeMeters>
            <DistanceMeters>90292.271387464</DistanceMeters>
          </Trackpoint>
          <Trackpoint>
            <Time>2018-08-26T10:17:04.000Z</Time>
            <Position>
              <LatitudeDegrees>42.8557038120925426483154296875</LatitudeDegrees>
              <LongitudeDegrees>-1.619732715189456939697265625</LongitudeDegrees>
            </Position>
            <AltitudeMeters>471.20001220703125</AltitudeMeters>
            <DistanceMeters>90300.913073191</DistanceMeters>
          </Trackpoint>
          <Trackpoint>
            <Time>2018-08-26T10:17:05.000Z</Time>
            <Position>
              <LatitudeDegrees>42.85564103163778781890869140625</LatitudeDegrees>
              <LongitudeDegrees>-1.6197945736348628997802734375</LongitudeDegrees>
            </Position>
            <AltitudeMeters>471.20001220703125</AltitudeMeters>
            <DistanceMeters>90309.532787164</DistanceMeters>
          </Trackpoint>
          <Trackpoint>
            <Time>2018-08-26T10:17:06.000Z</Time>
            <Position>
              <LatitudeDegrees>42.85557766444981098175048828125</LatitudeDegrees>
              <LongitudeDegrees>-1.6198579408228397369384765625</LongitudeDegrees>
            </Position>
            <AltitudeMeters>471.20001220703125</AltitudeMeters>
            <DistanceMeters>90318.27731044</DistanceMeters>
          </Trackpoint>
          <Trackpoint>
            <Time>2018-08-26T10:17:07.000Z</Time>
            <Position>
              <LatitudeDegrees>42.85551446489989757537841796875</LatitudeDegrees>
              <LongitudeDegrees>-1.619921810925006866455078125</LongitudeDegrees>
            </Position>
            <AltitudeMeters>471.20001220703125</AltitudeMeters>
            <DistanceMeters>90327.031638443</DistanceMeters>
          </Trackpoint>
          <Trackpoint>
            <Time>2018-08-26T10:17:08.000Z</Time>
            <Position>
              <LatitudeDegrees>42.85544984042644500732421875</LatitudeDegrees>
              <LongitudeDegrees>-1.61998509429395198822021484375</LongitudeDegrees>
            </Position>
            <AltitudeMeters>471.20001220703125</AltitudeMeters>
            <DistanceMeters>90335.885966406</DistanceMeters>
          </Trackpoint>
          <Trackpoint>
            <Time>2018-08-26T10:17:09.000Z</Time>
            <Position>
              <LatitudeDegrees>42.855384461581707000732421875</LatitudeDegrees>
              <LongitudeDegrees>-1.6200456954538822174072265625</LongitudeDegrees>
            </Position>
            <AltitudeMeters>471.20001220703125</AltitudeMeters>
            <DistanceMeters>90344.684023878</DistanceMeters>
          </Trackpoint>
          <Trackpoint>
            <Time>2018-08-26T10:17:10.000Z</Time>
            <Position>
              <LatitudeDegrees>42.85531707108020782470703125</LatitudeDegrees>
              <LongitudeDegrees>-1.620106883347034454345703125</LongitudeDegrees>
            </Position>
            <AltitudeMeters>471.20001220703125</AltitudeMeters>
            <DistanceMeters>90353.694039818</DistanceMeters>
          </Trackpoint>
          <Trackpoint>
            <Time>2018-08-26T10:17:11.000Z</Time>
            <Position>
              <LatitudeDegrees>42.85525194369256496429443359375</LatitudeDegrees>
              <LongitudeDegrees>-1.62017100490629673004150390625</LongitudeDegrees>
            </Position>
            <AltitudeMeters>471.20001220703125</AltitudeMeters>
            <DistanceMeters>90362.634129672</DistanceMeters>
          </Trackpoint>
          <Trackpoint>
            <Time>2018-08-26T10:17:12.000Z</Time>
            <Position>
              <LatitudeDegrees>42.8551891632378101348876953125</LatitudeDegrees>
              <LongitudeDegrees>-1.62023403681814670562744140625</LongitudeDegrees>
            </Position>
            <AltitudeMeters>471.20001220703125</AltitudeMeters>
            <DistanceMeters>90371.31023002</DistanceMeters>
          </Trackpoint>
          <Trackpoint>
            <Time>2018-08-26T10:17:13.000Z</Time>
            <Position>
              <LatitudeDegrees>42.85512437112629413604736328125</LatitudeDegrees>
              <LongitudeDegrees>-1.62029606290161609649658203125</LongitudeDegrees>
            </Position>
            <AltitudeMeters>471.20001220703125</AltitudeMeters>
            <DistanceMeters>90380.120595342</DistanceMeters>
          </Trackpoint>
          <Trackpoint>
            <Time>2018-08-26T10:17:14.000Z</Time>
            <Position>
              <LatitudeDegrees>42.85506066866219043731689453125</LatitudeDegrees>
              <LongitudeDegrees>-1.620355658233165740966796875</LongitudeDegrees>
            </Position>
            <AltitudeMeters>471.20001220703125</AltitudeMeters>
            <DistanceMeters>90388.717756251</DistanceMeters>
          </Trackpoint>
          <Trackpoint>
            <Time>2018-08-26T10:17:15.000Z</Time>
            <Position>
              <LatitudeDegrees>42.854995541274547576904296875</LatitudeDegrees>
              <LongitudeDegrees>-1.62041491828858852386474609375</LongitudeDegrees>
            </Position>
            <AltitudeMeters>471.20001220703125</AltitudeMeters>
            <DistanceMeters>90397.431244802</DistanceMeters>
          </Trackpoint>
          <Trackpoint>
            <Time>2018-08-26T10:17:16.000Z</Time>
            <Position>
              <LatitudeDegrees>42.8549289889633655548095703125</LatitudeDegrees>
              <LongitudeDegrees>-1.620475687086582183837890625</LongitudeDegrees>
            </Position>
            <AltitudeMeters>471.20001220703125</AltitudeMeters>
            <DistanceMeters>90406.34452773</DistanceMeters>
          </Trackpoint>
          <Trackpoint>
            <Time>2018-08-26T10:17:17.000Z</Time>
            <Position>
              <LatitudeDegrees>42.85486285574734210968017578125</LatitudeDegrees>
              <LongitudeDegrees>-1.6205365397036075592041015625</LongitudeDegrees>
            </Position>
            <AltitudeMeters>471</AltitudeMeters>
            <DistanceMeters>90415.22329833</DistanceMeters>
          </Trackpoint>
          <Trackpoint>
            <Time>2018-08-26T10:17:18.000Z</Time>
            <Position>
              <LatitudeDegrees>42.854797728359699249267578125</LatitudeDegrees>
              <LongitudeDegrees>-1.62059697322547435760498046875</LongitudeDegrees>
            </Position>
            <AltitudeMeters>471</AltitudeMeters>
            <DistanceMeters>90423.98948054</DistanceMeters>
          </Trackpoint>
          <Trackpoint>
            <Time>2018-08-26T10:17:19.000Z</Time>
            <Position>
              <LatitudeDegrees>42.85473310388624668121337890625</LatitudeDegrees>
              <LongitudeDegrees>-1.620657406747341156005859375</LongitudeDegrees>
            </Position>
            <AltitudeMeters>471</AltitudeMeters>
            <DistanceMeters>90432.710220406</DistanceMeters>
          </Trackpoint>
          <Trackpoint>
            <Time>2018-08-26T10:17:20.000Z</Time>
            <Position>
              <LatitudeDegrees>42.85466873086988925933837890625</LatitudeDegrees>
              <LongitudeDegrees>-1.6207189299166202545166015625</LongitudeDegrees>
            </Position>
            <AltitudeMeters>471</AltitudeMeters>
            <DistanceMeters>90441.458873327</DistanceMeters>
          </Trackpoint>
          <Trackpoint>
            <Time>2018-08-26T10:17:21.000Z</Time>
            <Position>
              <LatitudeDegrees>42.85460519604384899139404296875</LatitudeDegrees>
              <LongitudeDegrees>-1.62078087218105792999267578125</LongitudeDegrees>
            </Position>
            <AltitudeMeters>471</AltitudeMeters>
            <DistanceMeters>90450.150571638</DistanceMeters>
          </Trackpoint>
          <Trackpoint>
            <Time>2018-08-26T10:17:22.000Z</Time>
            <Position>
              <LatitudeDegrees>42.8545410744845867156982421875</LatitudeDegrees>
              <LongitudeDegrees>-1.62084323354065418243408203125</LongitudeDegrees>
            </Position>
            <AltitudeMeters>471</AltitudeMeters>
            <DistanceMeters>90458.915723684</DistanceMeters>
          </Trackpoint>
          <Trackpoint>
            <Time>2018-08-26T10:17:23.000Z</Time>
            <Position>
              <LatitudeDegrees>42.85447695292532444000244140625</LatitudeDegrees>
              <LongitudeDegrees>-1.62090509198606014251708984375</LongitudeDegrees>
            </Position>
            <AltitudeMeters>470.79998779296875</AltitudeMeters>
            <DistanceMeters>90467.657148446</DistanceMeters>
          </Trackpoint>
          <Trackpoint>
            <Time>2018-08-26T10:17:24.000Z</Time>
            <Position>
              <LatitudeDegrees>42.854412831366062164306640625</LatitudeDegrees>
              <LongitudeDegrees>-1.6209670342504978179931640625</LongitudeDegrees>
            </Position>
            <AltitudeMeters>470.600006103515625</AltitudeMeters>
            <DistanceMeters>90476.402704316</DistanceMeters>
          </Trackpoint>
          <Trackpoint>
            <Time>2018-08-26T10:17:25.000Z</Time>
            <Position>
              <LatitudeDegrees>42.854348458349704742431640625</LatitudeDegrees>
              <LongitudeDegrees>-1.6210293956100940704345703125</LongitudeDegrees>
            </Position>
            <AltitudeMeters>470.399993896484375</AltitudeMeters>
            <DistanceMeters>90485.189978278</DistanceMeters>
          </Trackpoint>
          <Trackpoint>
            <Time>2018-08-26T10:17:26.000Z</Time>
            <Position>
              <LatitudeDegrees>42.85428383387625217437744140625</LatitudeDegrees>
              <LongitudeDegrees>-1.621091924607753753662109375</LongitudeDegrees>
            </Position>
            <AltitudeMeters>470.399993896484375</AltitudeMeters>
            <DistanceMeters>90494.00853929</DistanceMeters>
          </Trackpoint>
          <Trackpoint>
            <Time>2018-08-26T10:17:27.000Z</Time>
            <Position>
              <LatitudeDegrees>42.85421862266957759857177734375</LatitudeDegrees>
              <LongitudeDegrees>-1.621154285967350006103515625</LongitudeDegrees>
            </Position>
            <AltitudeMeters>470.20001220703125</AltitudeMeters>
            <DistanceMeters>90502.872550523</DistanceMeters>
          </Trackpoint>
          <Trackpoint>
            <Time>2018-08-26T10:17:28.000Z</Time>
            <Position>
              <LatitudeDegrees>42.8541536629199981689453125</LatitudeDegrees>
              <LongitudeDegrees>-1.62121706642210483551025390625</LongitudeDegrees>
            </Position>
            <AltitudeMeters>470.20001220703125</AltitudeMeters>
            <DistanceMeters>90511.734014553</DistanceMeters>
          </Trackpoint>
          <Trackpoint>
            <Time>2018-08-26T10:17:29.000Z</Time>
            <Position>
              <LatitudeDegrees>42.85408903844654560089111328125</LatitudeDegrees>
              <LongitudeDegrees>-1.62127959541976451873779296875</LongitudeDegrees>
            </Position>
            <AltitudeMeters>470</AltitudeMeters>
            <DistanceMeters>90520.553599492</DistanceMeters>
          </Trackpoint>
          <Trackpoint>
            <Time>2018-08-26T10:17:30.000Z</Time>
            <Position>
              <LatitudeDegrees>42.854023911058902740478515625</LatitudeDegrees>
              <LongitudeDegrees>-1.6213401965796947479248046875</LongitudeDegrees>
            </Position>
            <AltitudeMeters>470</AltitudeMeters>
            <DistanceMeters>90529.328533215</DistanceMeters>
          </Trackpoint>
          <Trackpoint>
            <Time>2018-08-26T10:17:31.000Z</Time>
            <Position>
              <LatitudeDegrees>42.8539590351283550262451171875</LatitudeDegrees>
              <LongitudeDegrees>-1.62140004336833953857421875</LongitudeDegrees>
            </Position>
            <AltitudeMeters>470</AltitudeMeters>
            <DistanceMeters>90538.046166113</DistanceMeters>
          </Trackpoint>
          <Trackpoint>
            <Time>2018-08-26T10:17:32.000Z</Time>
            <Position>
              <LatitudeDegrees>42.853894494473934173583984375</LatitudeDegrees>
              <LongitudeDegrees>-1.62146097980439662933349609375</LongitudeDegrees>
            </Position>
            <AltitudeMeters>470</AltitudeMeters>
            <DistanceMeters>90546.782941043</DistanceMeters>
          </Trackpoint>
          <Trackpoint>
            <Time>2018-08-26T10:17:33.000Z</Time>
            <Position>
              <LatitudeDegrees>42.8538302890956401824951171875</LatitudeDegrees>
              <LongitudeDegrees>-1.62152166478335857391357421875</LongitudeDegrees>
            </Position>
            <AltitudeMeters>469.79998779296875</AltitudeMeters>
            <DistanceMeters>90555.476716968</DistanceMeters>
          </Trackpoint>
          <Trackpoint>
            <Time>2018-08-26T10:17:34.000Z</Time>
            <Position>
              <LatitudeDegrees>42.85376516170799732208251953125</LatitudeDegrees>
              <LongitudeDegrees>-1.6215819306671619415283203125</LongitudeDegrees>
            </Position>
            <AltitudeMeters>469.79998779296875</AltitudeMeters>
            <DistanceMeters>90564.236716376</DistanceMeters>
          </Trackpoint>
          <Trackpoint>
            <Time>2018-08-26T10:17:35.000Z</Time>
            <Position>
              <LatitudeDegrees>42.85369860939681529998779296875</LatitudeDegrees>
              <LongitudeDegrees>-1.621641106903553009033203125</LongitudeDegrees>
            </Position>
            <AltitudeMeters>469.600006103515625</AltitudeMeters>
            <DistanceMeters>90573.0793083</DistanceMeters>
          </Trackpoint>
          <Trackpoint>
            <Time>2018-08-26T10:17:36.000Z</Time>
            <Position>
              <LatitudeDegrees>42.85363138653337955474853515625</LatitudeDegrees>
              <LongitudeDegrees>-1.62169835530221462249755859375</LongitudeDegrees>
            </Position>
            <AltitudeMeters>469.600006103515625</AltitudeMeters>
            <DistanceMeters>90581.898893238</DistanceMeters>
          </Trackpoint>
          <Trackpoint>
            <Time>2018-08-26T10:17:37.000Z</Time>
            <Position>
              <LatitudeDegrees>42.85356416366994380950927734375</LatitudeDegrees>
              <LongitudeDegrees>-1.62175543606281280517578125</LongitudeDegrees>
            </Position>
            <AltitudeMeters>469.20001220703125</AltitudeMeters>
            <DistanceMeters>90590.711308198</DistanceMeters>
          </Trackpoint>
          <Trackpoint>
            <Time>2018-08-26T10:17:38.000Z</Time>
            <Position>
              <LatitudeDegrees>42.8534965217113494873046875</LatitudeDegrees>
              <LongitudeDegrees>-1.6218124330043792724609375</LongitudeDegrees>
            </Position>
            <AltitudeMeters>469</AltitudeMeters>
            <DistanceMeters>90599.560535448</DistanceMeters>
          </Trackpoint>
          <Trackpoint>
            <Time>2018-08-26T10:17:39.000Z</Time>
            <Position>
              <LatitudeDegrees>42.8534279577434062957763671875</LatitudeDegrees>
              <LongitudeDegrees>-1.6218674182891845703125</LongitudeDegrees>
            </Position>
            <AltitudeMeters>468.79998779296875</AltitudeMeters>
            <DistanceMeters>90608.413843504</DistanceMeters>
          </Trackpoint>
          <Trackpoint>
            <Time>2018-08-26T10:17:40.000Z</Time>
            <Position>
              <LatitudeDegrees>42.85335796885192394256591796875</LatitudeDegrees>
              <LongitudeDegrees>-1.62191905081272125244140625</LongitudeDegrees>
            </Position>
            <AltitudeMeters>468.600006103515625</AltitudeMeters>
            <DistanceMeters>90617.27021093</DistanceMeters>
          </Trackpoint>
          <Trackpoint>
            <Time>2018-08-26T10:17:41.000Z</Time>
            <Position>
              <LatitudeDegrees>42.85328655503690242767333984375</LatitudeDegrees>
              <LongitudeDegrees>-1.62196707911789417266845703125</LongitudeDegrees>
            </Position>
            <AltitudeMeters>468.600006103515625</AltitudeMeters>
            <DistanceMeters>90626.132693929</DistanceMeters>
          </Trackpoint>
          <Trackpoint>
            <Time>2018-08-26T10:17:42.000Z</Time>
            <Position>
              <LatitudeDegrees>42.85321463830769062042236328125</LatitudeDegrees>
              <LongitudeDegrees>-1.62201183848083019256591796875</LongitudeDegrees>
            </Position>
            <AltitudeMeters>468.600006103515625</AltitudeMeters>
            <DistanceMeters>90634.930751401</DistanceMeters>
          </Trackpoint>
          <Trackpoint>
            <Time>2018-08-26T10:17:43.000Z</Time>
            <Position>
              <LatitudeDegrees>42.85314221866428852081298828125</LatitudeDegrees>
              <LongitudeDegrees>-1.62205425091087818145751953125</LongitudeDegrees>
            </Position>
            <AltitudeMeters>468.600006103515625</AltitudeMeters>
            <DistanceMeters>90643.702082617</DistanceMeters>
          </Trackpoint>
          <Trackpoint>
            <Time>2018-08-26T10:17:44.000Z</Time>
            <Position>
              <LatitudeDegrees>42.853069044649600982666015625</LatitudeDegrees>
              <LongitudeDegrees>-1.62209565751254558563232421875</LongitudeDegrees>
            </Position>
            <AltitudeMeters>468.399993896484375</AltitudeMeters>
            <DistanceMeters>90652.519107518</DistanceMeters>
          </Trackpoint>
          <Trackpoint>
            <Time>2018-08-26T10:17:45.000Z</Time>
            <Position>
              <LatitudeDegrees>42.85299452953040599822998046875</LatitudeDegrees>
              <LongitudeDegrees>-1.62213589064776897430419921875</LongitudeDegrees>
            </Position>
            <AltitudeMeters>468.399993896484375</AltitudeMeters>
            <DistanceMeters>90661.43947935</DistanceMeters>
          </Trackpoint>
          <Trackpoint>
            <Time>2018-08-26T10:17:46.000Z</Time>
            <Position>
              <LatitudeDegrees>42.8529190085828304290771484375</LatitudeDegrees>
              <LongitudeDegrees>-1.62217327393591403961181640625</LongitudeDegrees>
            </Position>
            <AltitudeMeters>468.399993896484375</AltitudeMeters>
            <DistanceMeters>90670.381084175</DistanceMeters>
          </Trackpoint>
          <Trackpoint>
            <Time>2018-08-26T10:17:47.000Z</Time>
            <Position>
              <LatitudeDegrees>42.852842397987842559814453125</LatitudeDegrees>
              <LongitudeDegrees>-1.62220831029117107391357421875</LongitudeDegrees>
            </Position>
            <AltitudeMeters>468.20001220703125</AltitudeMeters>
            <DistanceMeters>90679.375050196</DistanceMeters>
          </Trackpoint>
          <Trackpoint>
            <Time>2018-08-26T10:17:48.000Z</Time>
            <Position>
              <LatitudeDegrees>42.85276536829769611358642578125</LatitudeDegrees>
              <LongitudeDegrees>-1.62224217317998409271240234375</LongitudeDegrees>
            </Position>
            <AltitudeMeters>468.20001220703125</AltitudeMeters>
            <DistanceMeters>90688.38256022</DistanceMeters>
          </Trackpoint>
          <Trackpoint>
            <Time>2018-08-26T10:17:49.000Z</Time>
            <Position>
              <LatitudeDegrees>42.85268741659820079803466796875</LatitudeDegrees>
              <LongitudeDegrees>-1.62227452732622623443603515625</LongitudeDegrees>
            </Position>
            <AltitudeMeters>468.20001220703125</AltitudeMeters>
            <DistanceMeters>90697.45151475</DistanceMeters>
          </Trackpoint>
          <Trackpoint>
            <Time>2018-08-26T10:17:50.000Z</Time>
            <Position>
              <LatitudeDegrees>42.85260938107967376708984375</LatitudeDegrees>
              <LongitudeDegrees>-1.6223044507205486297607421875</LongitudeDegrees>
            </Position>
            <AltitudeMeters>468</AltitudeMeters>
            <DistanceMeters>90706.473549391</DistanceMeters>
          </Trackpoint>
          <Trackpoint>
            <Time>2018-08-26T10:17:51.000Z</Time>
            <Position>
              <LatitudeDegrees>42.85253067500889301300048828125</LatitudeDegrees>
              <LongitudeDegrees>-1.6223329491913318634033203125</LongitudeDegrees>
            </Position>
            <AltitudeMeters>468</AltitudeMeters>
            <DistanceMeters>90715.537523987</DistanceMeters>
          </Trackpoint>
          <Trackpoint>
            <Time>2018-08-26T10:17:52.000Z</Time>
            <Position>
              <LatitudeDegrees>42.852451801300048828125</LatitudeDegrees>
              <LongitudeDegrees>-1.622361280024051666259765625</LongitudeDegrees>
            </Position>
            <AltitudeMeters>468</AltitudeMeters>
            <DistanceMeters>90724.615435511</DistanceMeters>
          </Trackpoint>
          <Trackpoint>
            <Time>2018-08-26T10:17:53.000Z</Time>
            <Position>
              <LatitudeDegrees>42.85237275995314121246337890625</LatitudeDegrees>
              <LongitudeDegrees>-1.62238977849483489990234375</LongitudeDegrees>
            </Position>
            <AltitudeMeters>467.79998779296875</AltitudeMeters>
            <DistanceMeters>90733.715204793</DistanceMeters>
          </Trackpoint>
          <Trackpoint>
            <Time>2018-08-26T10:17:54.000Z</Time>
            <Position>
              <LatitudeDegrees>42.85229363478720188140869140625</LatitudeDegrees>
              <LongitudeDegrees>-1.62241886369884014129638671875</LongitudeDegrees>
            </Position>
            <AltitudeMeters>467.79998779296875</AltitudeMeters>
            <DistanceMeters>90742.836779457</DistanceMeters>
          </Trackpoint>
          <Trackpoint>
            <Time>2018-08-26T10:17:55.000Z</Time>
            <Position>
              <LatitudeDegrees>42.8522135876119136810302734375</LatitudeDegrees>
              <LongitudeDegrees>-1.62244669161736965179443359375</LongitudeDegrees>
            </Position>
            <AltitudeMeters>467.79998779296875</AltitudeMeters>
            <DistanceMeters>90752.031319993</DistanceMeters>
          </Trackpoint>
          <Trackpoint>
            <Time>2018-08-26T10:17:56.000Z</Time>
            <Position>
              <LatitudeDegrees>42.85213328897953033447265625</LatitudeDegrees>
              <LongitudeDegrees>-1.622474603354930877685546875</LongitudeDegrees>
            </Position>
            <AltitudeMeters>467.600006103515625</AltitudeMeters>
            <DistanceMeters>90761.254297826</DistanceMeters>
          </Trackpoint>
          <Trackpoint>
            <Time>2018-08-26T10:17:57.000Z</Time>
            <Position>
              <LatitudeDegrees>42.85205290652811527252197265625</LatitudeDegrees>
              <LongitudeDegrees>-1.62250335328280925750732421875</LongitudeDegrees>
            </Position>
            <AltitudeMeters>467.600006103515625</AltitudeMeters>
            <DistanceMeters>90770.503673169</DistanceMeters>
          </Trackpoint>
          <Trackpoint>
            <Time>2018-08-26T10:17:58.000Z</Time>
            <Position>
              <LatitudeDegrees>42.85197311080992221832275390625</LatitudeDegrees>
              <LongitudeDegrees>-1.62253327667713165283203125</LongitudeDegrees>
            </Position>
            <AltitudeMeters>467.399993896484375</AltitudeMeters>
            <DistanceMeters>90779.714894492</DistanceMeters>
          </Trackpoint>
          <Trackpoint>
            <Time>2018-08-26T10:17:59.000Z</Time>
            <Position>
              <LatitudeDegrees>42.85189323127269744873046875</LatitudeDegrees>
              <LongitudeDegrees>-1.6225629486143589019775390625</LongitudeDegrees>
            </Position>
            <AltitudeMeters>467.399993896484375</AltitudeMeters>
            <DistanceMeters>90788.930036318</DistanceMeters>
          </Trackpoint>
          <Trackpoint>
            <Time>2018-08-26T10:18:00.000Z</Time>
            <Position>
              <LatitudeDegrees>42.851813100278377532958984375</LatitudeDegrees>
              <LongitudeDegrees>-1.62259228527545928955078125</LongitudeDegrees>
            </Position>
            <AltitudeMeters>467.20001220703125</AltitudeMeters>
            <DistanceMeters>90798.164755693</DistanceMeters>
          </Trackpoint>
          <Trackpoint>
            <Time>2018-08-26T10:18:01.000Z</Time>
            <Position>
              <LatitudeDegrees>42.85173322074115276336669921875</LatitudeDegrees>
              <LongitudeDegrees>-1.6226222924888134002685546875</LongitudeDegrees>
            </Position>
            <AltitudeMeters>467.20001220703125</AltitudeMeters>
            <DistanceMeters>90807.386754389</DistanceMeters>
          </Trackpoint>
          <Trackpoint>
            <Time>2018-08-26T10:18:02.000Z</Time>
            <Position>
              <LatitudeDegrees>42.851653508841991424560546875</LatitudeDegrees>
              <LongitudeDegrees>-1.6226541437208652496337890625</LongitudeDegrees>
            </Position>
            <AltitudeMeters>467.20001220703125</AltitudeMeters>
            <DistanceMeters>90816.631246991</DistanceMeters>
          </Trackpoint>
          <Trackpoint>
            <Time>2018-08-26T10:18:03.000Z</Time>
            <Position>
              <LatitudeDegrees>42.85157429985702037811279296875</LatitudeDegrees>
              <LongitudeDegrees>-1.62268817424774169921875</LongitudeDegrees>
            </Position>
            <AltitudeMeters>467</AltitudeMeters>
            <DistanceMeters>90825.873785774</DistanceMeters>
          </Trackpoint>
          <Trackpoint>
            <Time>2018-08-26T10:18:04.000Z</Time>
            <Position>
              <LatitudeDegrees>42.8514947555959224700927734375</LatitudeDegrees>
              <LongitudeDegrees>-1.6227232106029987335205078125</LongitudeDegrees>
            </Position>
            <AltitudeMeters>467</AltitudeMeters>
            <DistanceMeters>90835.177672747</DistanceMeters>
          </Trackpoint>
          <Trackpoint>
            <Time>2018-08-26T10:18:05.000Z</Time>
            <Position>
              <LatitudeDegrees>42.85141470842063426971435546875</LatitudeDegrees>
              <LongitudeDegrees>-1.62275816313922405242919921875</LongitudeDegrees>
            </Position>
            <AltitudeMeters>466.600006103515625</AltitudeMeters>
            <DistanceMeters>90844.532375886</DistanceMeters>
          </Trackpoint>
          <Trackpoint>
            <Time>2018-08-26T10:18:06.000Z</Time>
            <Position>
              <LatitudeDegrees>42.8513348288834095001220703125</LatitudeDegrees>
              <LongitudeDegrees>-1.6227932833135128021240234375</LongitudeDegrees>
            </Position>
            <AltitudeMeters>466.20001220703125</AltitudeMeters>
            <DistanceMeters>90853.873071716</DistanceMeters>
          </Trackpoint>
          <Trackpoint>
            <Time>2018-08-26T10:18:07.000Z</Time>
            <Position>
              <LatitudeDegrees>42.85125486552715301513671875</LatitudeDegrees>
              <LongitudeDegrees>-1.6228304989635944366455078125</LongitudeDegrees>
            </Position>
            <AltitudeMeters>465.79998779296875</AltitudeMeters>
            <DistanceMeters>90863.276876192</DistanceMeters>
          </Trackpoint>
          <Trackpoint>
            <Time>2018-08-26T10:18:08.000Z</Time>
            <Position>
              <LatitudeDegrees>42.85117599181830883026123046875</LatitudeDegrees>
              <LongitudeDegrees>-1.62287048064172267913818359375</LongitudeDegrees>
            </Position>
            <AltitudeMeters>465.79998779296875</AltitudeMeters>
            <DistanceMeters>90872.642673679</DistanceMeters>
          </Trackpoint>
          <Trackpoint>
            <Time>2018-08-26T10:18:09.000Z</Time>
            <Position>
              <LatitudeDegrees>42.8510974533855915069580078125</LatitudeDegrees>
              <LongitudeDegrees>-1.62291146814823150634765625</LongitudeDegrees>
            </Position>
            <AltitudeMeters>465.600006103515625</AltitudeMeters>
            <DistanceMeters>90882.002684452</DistanceMeters>
          </Trackpoint>
          <Trackpoint>
            <Time>2018-08-26T10:18:10.000Z</Time>
            <Position>
              <LatitudeDegrees>42.8510189987719058990478515625</LatitudeDegrees>
              <LongitudeDegrees>-1.62295362912118434906005859375</LongitudeDegrees>
            </Position>
            <AltitudeMeters>465.399993896484375</AltitudeMeters>
            <DistanceMeters>90891.388707347</DistanceMeters>
          </Trackpoint>
          <Trackpoint>
            <Time>2018-08-26T10:18:11.000Z</Time>
            <Position>
              <LatitudeDegrees>42.85094079561531543731689453125</LatitudeDegrees>
              <LongitudeDegrees>-1.62299822084605693817138671875</LongitudeDegrees>
            </Position>
            <AltitudeMeters>465.399993896484375</AltitudeMeters>
            <DistanceMeters>90900.823190031</DistanceMeters>
          </Trackpoint>
          <Trackpoint>
            <Time>2018-08-26T10:18:12.000Z</Time>
            <Position>
              <LatitudeDegrees>42.850863598287105560302734375</LatitudeDegrees>
              <LongitudeDegrees>-1.62304532714188098907470703125</LongitudeDegrees>
            </Position>
            <AltitudeMeters>465.399993896484375</AltitudeMeters>
            <DistanceMeters>90910.236112535</DistanceMeters>
          </Trackpoint>
          <Trackpoint>
            <Time>2018-08-26T10:18:13.000Z</Time>
            <Position>
              <LatitudeDegrees>42.8507863171398639678955078125</LatitudeDegrees>
              <LongitudeDegrees>-1.62309519946575164794921875</LongitudeDegrees>
            </Position>
            <AltitudeMeters>465.20001220703125</AltitudeMeters>
            <DistanceMeters>90919.75160393</DistanceMeters>
          </Trackpoint>
          <Trackpoint>
            <Time>2018-08-26T10:18:14.000Z</Time>
            <Position>
              <LatitudeDegrees>42.8507092036306858062744140625</LatitudeDegrees>
              <LongitudeDegrees>-1.62314624525606632232666015625</LongitudeDegrees>
            </Position>
            <AltitudeMeters>465.20001220703125</AltitudeMeters>
            <DistanceMeters>90929.292210334</DistanceMeters>
          </Trackpoint>
          <Trackpoint>
            <Time>2018-08-26T10:18:15.000Z</Time>
            <Position>
              <LatitudeDegrees>42.8506324253976345062255859375</LatitudeDegrees>
              <LongitudeDegrees>-1.6231991350650787353515625</LongitudeDegrees>
            </Position>
            <AltitudeMeters>465</AltitudeMeters>
            <DistanceMeters>90938.86588653</DistanceMeters>
          </Trackpoint>
          <Trackpoint>
            <Time>2018-08-26T10:18:16.000Z</Time>
            <Position>
              <LatitudeDegrees>42.850555814802646636962890625</LatitudeDegrees>
              <LongitudeDegrees>-1.62325344979763031005859375</LongitudeDegrees>
            </Position>
            <AltitudeMeters>464.79998779296875</AltitudeMeters>
            <DistanceMeters>90948.475338217</DistanceMeters>
          </Trackpoint>
          <Trackpoint>
            <Time>2018-08-26T10:18:17.000Z</Time>
            <Position>
              <LatitudeDegrees>42.85047979094088077545166015625</LatitudeDegrees>
              <LongitudeDegrees>-1.6233096085488796234130859375</LongitudeDegrees>
            </Position>
            <AltitudeMeters>464.79998779296875</AltitudeMeters>
            <DistanceMeters>90958.097936819</DistanceMeters>
          </Trackpoint>
          <Trackpoint>
            <Time>2018-08-26T10:18:18.000Z</Time>
            <Position>
              <LatitudeDegrees>42.8504037670791149139404296875</LatitudeDegrees>
              <LongitudeDegrees>-1.6233662702143192291259765625</LongitudeDegrees>
            </Position>
            <AltitudeMeters>464.600006103515625</AltitudeMeters>
            <DistanceMeters>90967.740222184</DistanceMeters>
          </Trackpoint>
          <Trackpoint>
            <Time>2018-08-26T10:18:19.000Z</Time>
            <Position>
              <LatitudeDegrees>42.8503283299505710601806640625</LatitudeDegrees>
              <LongitudeDegrees>-1.62342519499361515045166015625</LongitudeDegrees>
            </Position>
            <AltitudeMeters>464.20001220703125</AltitudeMeters>
            <DistanceMeters>90977.415229803</DistanceMeters>
          </Trackpoint>
          <Trackpoint>
            <Time>2018-08-26T10:18:20.000Z</Time>
            <Position>
              <LatitudeDegrees>42.85025440156459808349609375</LatitudeDegrees>
              <LongitudeDegrees>-1.62348621524870395660400390625</LongitudeDegrees>
            </Position>
            <AltitudeMeters>464</AltitudeMeters>
            <DistanceMeters>90987.032196213</DistanceMeters>
          </Trackpoint>
          <Trackpoint>
            <Time>2018-08-26T10:18:21.000Z</Time>
            <Position>
              <LatitudeDegrees>42.8501813113689422607421875</LatitudeDegrees>
              <LongitudeDegrees>-1.62354941479861736297607421875</LongitudeDegrees>
            </Position>
            <AltitudeMeters>464</AltitudeMeters>
            <DistanceMeters>90996.664174483</DistanceMeters>
          </Trackpoint>
          <Trackpoint>
            <Time>2018-08-26T10:18:22.000Z</Time>
            <Position>
              <LatitudeDegrees>42.85010880790650844573974609375</LatitudeDegrees>
              <LongitudeDegrees>-1.62361420691013336181640625</LongitudeDegrees>
            </Position>
            <AltitudeMeters>463.600006103515625</AltitudeMeters>
            <DistanceMeters>91006.311609267</DistanceMeters>
          </Trackpoint>
          <Trackpoint>
            <Time>2018-08-26T10:18:23.000Z</Time>
            <Position>
              <LatitudeDegrees>42.850036807358264923095703125</LatitudeDegrees>
              <LongitudeDegrees>-1.62368000485002994537353515625</LongitudeDegrees>
            </Position>
            <AltitudeMeters>463.600006103515625</AltitudeMeters>
            <DistanceMeters>91015.957639936</DistanceMeters>
          </Trackpoint>
          <Trackpoint>
            <Time>2018-08-26T10:18:24.000Z</Time>
            <Position>
              <LatitudeDegrees>42.84996530972421169281005859375</LatitudeDegrees>
              <LongitudeDegrees>-1.62374722771346569061279296875</LongitudeDegrees>
            </Position>
            <AltitudeMeters>463.399993896484375</AltitudeMeters>
            <DistanceMeters>91025.622842511</DistanceMeters>
          </Trackpoint>
          <Trackpoint>
            <Time>2018-08-26T10:18:25.000Z</Time>
            <Position>
              <LatitudeDegrees>42.84989498555660247802734375</LatitudeDegrees>
              <LongitudeDegrees>-1.62381579168140888214111328125</LongitudeDegrees>
            </Position>
            <AltitudeMeters>463.20001220703125</AltitudeMeters>
            <DistanceMeters>91035.243564082</DistanceMeters>
          </Trackpoint>
          <Trackpoint>
            <Time>2018-08-26T10:18:26.000Z</Time>
            <Position>
              <LatitudeDegrees>42.84982516430318355560302734375</LatitudeDegrees>
              <LongitudeDegrees>-1.62388645112514495849609375</LongitudeDegrees>
            </Position>
            <AltitudeMeters>463.20001220703125</AltitudeMeters>
            <DistanceMeters>91044.91997161</DistanceMeters>
          </Trackpoint>
          <Trackpoint>
            <Time>2018-08-26T10:18:27.000Z</Time>
            <Position>
              <LatitudeDegrees>42.84975727088749408721923828125</LatitudeDegrees>
              <LongitudeDegrees>-1.62395861931145191192626953125</LongitudeDegrees>
            </Position>
            <AltitudeMeters>463</AltitudeMeters>
            <DistanceMeters>91054.500248066</DistanceMeters>
          </Trackpoint>
          <Trackpoint>
            <Time>2018-08-26T10:18:28.000Z</Time>
            <Position>
              <LatitudeDegrees>42.84969113767147064208984375</LatitudeDegrees>
              <LongitudeDegrees>-1.6240327991545200347900390625</LongitudeDegrees>
            </Position>
            <AltitudeMeters>463</AltitudeMeters>
            <DistanceMeters>91064.030437407</DistanceMeters>
          </Trackpoint>
          <Trackpoint>
            <Time>2018-08-26T10:18:29.000Z</Time>
            <Position>
              <LatitudeDegrees>42.84962542355060577392578125</LatitudeDegrees>
              <LongitudeDegrees>-1.62410748191177845001220703125</LongitudeDegrees>
            </Position>
            <AltitudeMeters>462.79998779296875</AltitudeMeters>
            <DistanceMeters>91073.5511468</DistanceMeters>
          </Trackpoint>
          <Trackpoint>
            <Time>2018-08-26T10:18:30.000Z</Time>
            <Position>
              <LatitudeDegrees>42.849560715258121490478515625</LatitudeDegrees>
              <LongitudeDegrees>-1.62418308667838573455810546875</LongitudeDegrees>
            </Position>
            <AltitudeMeters>462.79998779296875</AltitudeMeters>
            <DistanceMeters>91083.034793851</DistanceMeters>
          </Trackpoint>
          <Trackpoint>
            <Time>2018-08-26T10:18:31.000Z</Time>
            <Position>
              <LatitudeDegrees>42.8494965098798274993896484375</LatitudeDegrees>
              <LongitudeDegrees>-1.62425835616886615753173828125</LongitudeDegrees>
            </Position>
            <AltitudeMeters>462.600006103515625</AltitudeMeters>
            <DistanceMeters>91092.457304748</DistanceMeters>
          </Trackpoint>
          <Trackpoint>
            <Time>2018-08-26T10:18:32.000Z</Time>
            <Position>
              <LatitudeDegrees>42.8494318015873432159423828125</LatitudeDegrees>
              <LongitudeDegrees>-1.624331362545490264892578125</LongitudeDegrees>
            </Position>
            <AltitudeMeters>462.399993896484375</AltitudeMeters>
            <DistanceMeters>91101.803799252</DistanceMeters>
          </Trackpoint>
          <Trackpoint>
            <Time>2018-08-26T10:18:33.000Z</Time>
            <Position>
              <LatitudeDegrees>42.84936633892357349395751953125</LatitudeDegrees>
              <LongitudeDegrees>-1.6244009323418140411376953125</LongitudeDegrees>
            </Position>
            <AltitudeMeters>462.399993896484375</AltitudeMeters>
            <DistanceMeters>91111.0404741</DistanceMeters>
          </Trackpoint>
          <Trackpoint>
            <Time>2018-08-26T10:18:34.000Z</Time>
            <Position>
              <LatitudeDegrees>42.84929978661239147186279296875</LatitudeDegrees>
              <LongitudeDegrees>-1.6244676522910594940185546875</LongitudeDegrees>
            </Position>
            <AltitudeMeters>462</AltitudeMeters>
            <DistanceMeters>91120.23403247</DistanceMeters>
          </Trackpoint>
          <Trackpoint>
            <Time>2018-08-26T10:18:35.000Z</Time>
            <Position>
              <LatitudeDegrees>42.84923247992992401123046875</LatitudeDegrees>
              <LongitudeDegrees>-1.6245321929454803466796875</LongitudeDegrees>
            </Position>
            <AltitudeMeters>461.79998779296875</AltitudeMeters>
            <DistanceMeters>91129.391669717</DistanceMeters>
          </Trackpoint>
          <Trackpoint>
            <Time>2018-08-26T10:18:36.000Z</Time>
            <Position>
              <LatitudeDegrees>42.84916550852358341217041015625</LatitudeDegrees>
              <LongitudeDegrees>-1.62459614686667919158935546875</LongitudeDegrees>
            </Position>
            <AltitudeMeters>461.79998779296875</AltitudeMeters>
            <DistanceMeters>91138.491438999</DistanceMeters>
          </Trackpoint>
          <Trackpoint>
            <Time>2018-08-26T10:18:37.000Z</Time>
            <Position>
              <LatitudeDegrees>42.849098704755306243896484375</LatitudeDegrees>
              <LongitudeDegrees>-1.62465850822627544403076171875</LongitudeDegrees>
            </Position>
            <AltitudeMeters>461.600006103515625</AltitudeMeters>
            <DistanceMeters>91147.501454938</DistanceMeters>
          </Trackpoint>
          <Trackpoint>
            <Time>2018-08-26T10:18:38.000Z</Time>
            <Position>
              <LatitudeDegrees>42.84903131425380706787109375</LatitudeDegrees>
              <LongitudeDegrees>-1.62471818737685680389404296875</LongitudeDegrees>
            </Position>
            <AltitudeMeters>461.600006103515625</AltitudeMeters>
            <DistanceMeters>91156.4440696</DistanceMeters>
          </Trackpoint>
          <Trackpoint>
            <Time>2018-08-26T10:18:39.000Z</Time>
            <Position>
              <LatitudeDegrees>42.8489627502858638763427734375</LatitudeDegrees>
              <LongitudeDegrees>-1.6247757710516452789306640625</LongitudeDegrees>
            </Position>
            <AltitudeMeters>461.20001220703125</AltitudeMeters>
            <DistanceMeters>91165.405849551</DistanceMeters>
          </Trackpoint>
          <Trackpoint>
            <Time>2018-08-26T10:18:40.000Z</Time>
            <Position>
              <LatitudeDegrees>42.84889292903244495391845703125</LatitudeDegrees>
              <LongitudeDegrees>-1.624831594526767730712890625</LongitudeDegrees>
            </Position>
            <AltitudeMeters>461</AltitudeMeters>
            <DistanceMeters>91174.413860815</DistanceMeters>
          </Trackpoint>
          <Trackpoint>
            <Time>2018-08-26T10:18:41.000Z</Time>
            <Position>
              <LatitudeDegrees>42.84882210195064544677734375</LatitudeDegrees>
              <LongitudeDegrees>-1.62488465197384357452392578125</LongitudeDegrees>
            </Position>
            <AltitudeMeters>460.79998779296875</AltitudeMeters>
            <DistanceMeters>91183.407826836</DistanceMeters>
          </Trackpoint>
          <Trackpoint>
            <Time>2018-08-26T10:18:42.000Z</Time>
            <Position>
              <LatitudeDegrees>42.84875077195465564727783203125</LatitudeDegrees>
              <LongitudeDegrees>-1.6249340213835239410400390625</LongitudeDegrees>
            </Position>
            <AltitudeMeters>460.79998779296875</AltitudeMeters>
            <DistanceMeters>91192.310465824</DistanceMeters>
          </Trackpoint>
          <Trackpoint>
            <Time>2018-08-26T10:18:43.000Z</Time>
            <Position>
              <LatitudeDegrees>42.84867935813963413238525390625</LatitudeDegrees>
              <LongitudeDegrees>-1.624981127679347991943359375</LongitudeDegrees>
            </Position>
            <AltitudeMeters>460.79998779296875</AltitudeMeters>
            <DistanceMeters>91201.139260751</DistanceMeters>
          </Trackpoint>
          <Trackpoint>
            <Time>2018-08-26T10:18:44.000Z</Time>
            <Position>
              <LatitudeDegrees>42.8486080281436443328857421875</LatitudeDegrees>
              <LongitudeDegrees>-1.6250265575945377349853515625</LongitudeDegrees>
            </Position>
            <AltitudeMeters>460.79998779296875</AltitudeMeters>
            <DistanceMeters>91209.901321577</DistanceMeters>
          </Trackpoint>
          <Trackpoint>
            <Time>2018-08-26T10:18:45.000Z</Time>
            <Position>
              <LatitudeDegrees>42.84853569231927394866943359375</LatitudeDegrees>
              <LongitudeDegrees>-1.62506930530071258544921875</LongitudeDegrees>
            </Position>
            <AltitudeMeters>460.79998779296875</AltitudeMeters>
            <DistanceMeters>91218.675740747</DistanceMeters>
          </Trackpoint>
          <Trackpoint>
            <Time>2018-08-26T10:18:46.000Z</Time>
            <Position>
              <LatitudeDegrees>42.84846276976168155670166015625</LatitudeDegrees>
              <LongitudeDegrees>-1.62510895170271396636962890625</LongitudeDegrees>
            </Position>
            <AltitudeMeters>460.79998779296875</AltitudeMeters>
            <DistanceMeters>91227.413032447</DistanceMeters>
          </Trackpoint>
          <Trackpoint>
            <Time>2018-08-26T10:18:47.000Z</Time>
            <Position>
              <LatitudeDegrees>42.8483894281089305877685546875</LatitudeDegrees>
              <LongitudeDegrees>-1.6251459158957004547119140625</LongitudeDegrees>
            </Position>
            <AltitudeMeters>460.600006103515625</AltitudeMeters>
            <DistanceMeters>91236.115113868</DistanceMeters>
          </Trackpoint>
          <Trackpoint>
            <Time>2018-08-26T10:18:48.000Z</Time>
            <Position>
              <LatitudeDegrees>42.84831491298973560333251953125</LatitudeDegrees>
              <LongitudeDegrees>-1.62517919205129146575927734375</LongitudeDegrees>
            </Position>
            <AltitudeMeters>460.399993896484375</AltitudeMeters>
            <DistanceMeters>91244.841546968</DistanceMeters>
          </Trackpoint>
          <Trackpoint>
            <Time>2018-08-26T10:18:49.000Z</Time>
            <Position>
              <LatitudeDegrees>42.8482393920421600341796875</LatitudeDegrees>
              <LongitudeDegrees>-1.62521012127399444580078125</LongitudeDegrees>
            </Position>
            <AltitudeMeters>460.399993896484375</AltitudeMeters>
            <DistanceMeters>91253.617509707</DistanceMeters>
          </Trackpoint>
          <Trackpoint>
            <Time>2018-08-26T10:18:50.000Z</Time>
            <Position>
              <LatitudeDegrees>42.848162949085235595703125</LatitudeDegrees>
              <LongitudeDegrees>-1.62523937411606311798095703125</LongitudeDegrees>
            </Position>
            <AltitudeMeters>460.20001220703125</AltitudeMeters>
            <DistanceMeters>91262.454483232</DistanceMeters>
          </Trackpoint>
          <Trackpoint>
            <Time>2018-08-26T10:18:51.000Z</Time>
            <Position>
              <LatitudeDegrees>42.84808575175702571868896484375</LatitudeDegrees>
              <LongitudeDegrees>-1.62526787258684635162353515625</LongitudeDegrees>
            </Position>
            <AltitudeMeters>460</AltitudeMeters>
            <DistanceMeters>91271.355600618</DistanceMeters>
          </Trackpoint>
          <Trackpoint>
            <Time>2018-08-26T10:18:52.000Z</Time>
            <Position>
              <LatitudeDegrees>42.8480082191526889801025390625</LatitudeDegrees>
              <LongitudeDegrees>-1.62529502995312213897705078125</LongitudeDegrees>
            </Position>
            <AltitudeMeters>459.79998779296875</AltitudeMeters>
            <DistanceMeters>91280.265336979</DistanceMeters>
          </Trackpoint>
          <Trackpoint>
            <Time>2018-08-26T10:18:53.000Z</Time>
            <Position>
              <LatitudeDegrees>42.847929932177066802978515625</LatitudeDegrees>
              <LongitudeDegrees>-1.625319086015224456787109375</LongitudeDegrees>
            </Position>
            <AltitudeMeters>459.79998779296875</AltitudeMeters>
            <DistanceMeters>91289.19784813</DistanceMeters>
          </Trackpoint>
          <Trackpoint>
            <Time>2018-08-26T10:18:54.000Z</Time>
            <Position>
              <LatitudeDegrees>42.84785072319209575653076171875</LatitudeDegrees>
              <LongitudeDegrees>-1.6253407113254070281982421875</LongitudeDegrees>
            </Position>
            <AltitudeMeters>459.79998779296875</AltitudeMeters>
            <DistanceMeters>91298.188801601</DistanceMeters>
          </Trackpoint>
          <Trackpoint>
            <Time>2018-08-26T10:18:55.000Z</Time>
            <Position>
              <LatitudeDegrees>42.847771011292934417724609375</LatitudeDegrees>
              <LongitudeDegrees>-1.62535957060754299163818359375</LongitudeDegrees>
            </Position>
            <AltitudeMeters>459.79998779296875</AltitudeMeters>
            <DistanceMeters>91307.192802174</DistanceMeters>
          </Trackpoint>
          <Trackpoint>
            <Time>2018-08-26T10:18:56.000Z</Time>
            <Position>
              <LatitudeDegrees>42.847690545022487640380859375</LatitudeDegrees>
              <LongitudeDegrees>-1.62537566386163234710693359375</LongitudeDegrees>
            </Position>
            <AltitudeMeters>459.79998779296875</AltitudeMeters>
            <DistanceMeters>91316.244813754</DistanceMeters>
          </Trackpoint>
          <Trackpoint>
            <Time>2018-08-26T10:18:57.000Z</Time>
            <Position>
              <LatitudeDegrees>42.84760898910462856292724609375</LatitudeDegrees>
              <LongitudeDegrees>-1.6253873147070407867431640625</LongitudeDegrees>
            </Position>
            <AltitudeMeters>459.79998779296875</AltitudeMeters>
            <DistanceMeters>91325.371336921</DistanceMeters>
          </Trackpoint>
          <Trackpoint>
            <Time>2018-08-26T10:18:58.000Z</Time>
            <Position>
              <LatitudeDegrees>42.84752651117742061614990234375</LatitudeDegrees>
              <LongitudeDegrees>-1.62539611570537090301513671875</LongitudeDegrees>
            </Position>
            <AltitudeMeters>459.79998779296875</AltitudeMeters>
            <DistanceMeters>91334.579616772</DistanceMeters>
          </Trackpoint>
          <Trackpoint>
            <Time>2018-08-26T10:18:59.000Z</Time>
            <Position>
              <LatitudeDegrees>42.8474427759647369384765625</LatitudeDegrees>
              <LongitudeDegrees>-1.62540282122790813446044921875</LongitudeDegrees>
            </Position>
            <AltitudeMeters>459.79998779296875</AltitudeMeters>
            <DistanceMeters>91343.915477624</DistanceMeters>
          </Trackpoint>
          <Trackpoint>
            <Time>2018-08-26T10:19:00.000Z</Time>
            <Position>
              <LatitudeDegrees>42.84735887311398983001708984375</LatitudeDegrees>
              <LongitudeDegrees>-1.6254065930843353271484375</LongitudeDegrees>
            </Position>
            <AltitudeMeters>459.79998779296875</AltitudeMeters>
            <DistanceMeters>91353.259556451</DistanceMeters>
          </Trackpoint>
          <Trackpoint>
            <Time>2018-08-26T10:19:01.000Z</Time>
            <Position>
              <LatitudeDegrees>42.84727471880614757537841796875</LatitudeDegrees>
              <LongitudeDegrees>-1.62540734745562076568603515625</LongitudeDegrees>
            </Position>
            <AltitudeMeters>459.79998779296875</AltitudeMeters>
            <DistanceMeters>91362.626800059</DistanceMeters>
          </Trackpoint>
          <Trackpoint>
            <Time>2018-08-26T10:19:02.000Z</Time>
            <Position>
              <LatitudeDegrees>42.8471904806792736053466796875</LatitudeDegrees>
              <LongitudeDegrees>-1.62540600635111331939697265625</LongitudeDegrees>
            </Position>
            <AltitudeMeters>459.79998779296875</AltitudeMeters>
            <DistanceMeters>91372.003678769</DistanceMeters>
          </Trackpoint>
          <Trackpoint>
            <Time>2018-08-26T10:19:03.000Z</Time>
            <Position>
              <LatitudeDegrees>42.84710682928562164306640625</LatitudeDegrees>
              <LongitudeDegrees>-1.62540256977081298828125</LongitudeDegrees>
            </Position>
            <AltitudeMeters>459.79998779296875</AltitudeMeters>
            <DistanceMeters>91381.318720612</DistanceMeters>
          </Trackpoint>
          <Trackpoint>
            <Time>2018-08-26T10:19:04.000Z</Time>
            <Position>
              <LatitudeDegrees>42.8470235131680965423583984375</LatitudeDegrees>
              <LongitudeDegrees>-1.6253956966102123260498046875</LongitudeDegrees>
            </Position>
            <AltitudeMeters>459.79998779296875</AltitudeMeters>
            <DistanceMeters>91390.609009663</DistanceMeters>
          </Trackpoint>
          <Trackpoint>
            <Time>2018-08-26T10:19:05.000Z</Time>
            <Position>
              <LatitudeDegrees>42.8469403646886348724365234375</LatitudeDegrees>
              <LongitudeDegrees>-1.6253849677741527557373046875</LongitudeDegrees>
            </Position>
            <AltitudeMeters>459.79998779296875</AltitudeMeters>
            <DistanceMeters>91399.90512883</DistanceMeters>
          </Trackpoint>
          <Trackpoint>
            <Time>2018-08-26T10:19:06.000Z</Time>
            <Position>
              <LatitudeDegrees>42.8468578867614269256591796875</LatitudeDegrees>
              <LongitudeDegrees>-1.625370718538761138916015625</LongitudeDegrees>
            </Position>
            <AltitudeMeters>459.79998779296875</AltitudeMeters>
            <DistanceMeters>91409.158408511</DistanceMeters>
          </Trackpoint>
          <Trackpoint>
            <Time>2018-08-26T10:19:07.000Z</Time>
            <Position>
              <LatitudeDegrees>42.84677599556744098663330078125</LatitudeDegrees>
              <LongitudeDegrees>-1.625351943075656890869140625</LongitudeDegrees>
            </Position>
            <AltitudeMeters>459.79998779296875</AltitudeMeters>
            <DistanceMeters>91418.400947294</DistanceMeters>
          </Trackpoint>
          <Trackpoint>
            <Time>2018-08-26T10:19:08.000Z</Time>
            <Position>
              <LatitudeDegrees>42.84669418819248676300048828125</LatitudeDegrees>
              <LongitudeDegrees>-1.62532989867031574249267578125</LongitudeDegrees>
            </Position>
            <AltitudeMeters>459.79998779296875</AltitudeMeters>
            <DistanceMeters>91427.682484304</DistanceMeters>
          </Trackpoint>
          <Trackpoint>
            <Time>2018-08-26T10:19:09.000Z</Time>
            <Position>
              <LatitudeDegrees>42.8466127999126911163330078125</LatitudeDegrees>
              <LongitudeDegrees>-1.62530542351305484771728515625</LongitudeDegrees>
            </Position>
            <AltitudeMeters>459.79998779296875</AltitudeMeters>
            <DistanceMeters>91436.95866878</DistanceMeters>
          </Trackpoint>
          <Trackpoint>
            <Time>2018-08-26T10:19:10.000Z</Time>
            <Position>
              <LatitudeDegrees>42.84653149545192718505859375</LatitudeDegrees>
              <LongitudeDegrees>-1.62527910433709621429443359375</LongitudeDegrees>
            </Position>
            <AltitudeMeters>459.79998779296875</AltitudeMeters>
            <DistanceMeters>91446.259643586</DistanceMeters>
          </Trackpoint>
          <Trackpoint>
            <Time>2018-08-26T10:19:11.000Z</Time>
            <Position>
              <LatitudeDegrees>42.8464511968195438385009765625</LatitudeDegrees>
              <LongitudeDegrees>-1.6252478398382663726806640625</LongitudeDegrees>
            </Position>
            <AltitudeMeters>459.79998779296875</AltitudeMeters>
            <DistanceMeters>91455.553819787</DistanceMeters>
          </Trackpoint>
          <Trackpoint>
            <Time>2018-08-26T10:19:12.000Z</Time>
            <Position>
              <LatitudeDegrees>42.84637232311069965362548828125</LatitudeDegrees>
              <LongitudeDegrees>-1.6252116300165653228759765625</LongitudeDegrees>
            </Position>
            <AltitudeMeters>459.79998779296875</AltitudeMeters>
            <DistanceMeters>91464.816853112</DistanceMeters>
          </Trackpoint>
          <Trackpoint>
            <Time>2018-08-26T10:19:13.000Z</Time>
            <Position>
              <LatitudeDegrees>42.84629403613507747650146484375</LatitudeDegrees>
              <LongitudeDegrees>-1.6251713968813419342041015625</LongitudeDegrees>
            </Position>
            <AltitudeMeters>459.79998779296875</AltitudeMeters>
            <DistanceMeters>91474.128501409</DistanceMeters>
          </Trackpoint>
          <Trackpoint>
            <Time>2018-08-26T10:19:14.000Z</Time>
            <Position>
              <LatitudeDegrees>42.8462168388068675994873046875</LatitudeDegrees>
              <LongitudeDegrees>-1.6251281462609767913818359375</LongitudeDegrees>
            </Position>
            <AltitudeMeters>459.79998779296875</AltitudeMeters>
            <DistanceMeters>91483.417818418</DistanceMeters>
          </Trackpoint>
          <Trackpoint>
            <Time>2018-08-26T10:19:15.000Z</Time>
            <Position>
              <LatitudeDegrees>42.84614031203091144561767578125</LatitudeDegrees>
              <LongitudeDegrees>-1.6250820457935333251953125</LongitudeDegrees>
            </Position>
            <AltitudeMeters>459.79998779296875</AltitudeMeters>
            <DistanceMeters>91492.729466716</DistanceMeters>
          </Trackpoint>
          <Trackpoint>
            <Time>2018-08-26T10:19:16.000Z</Time>
            <Position>
              <LatitudeDegrees>42.84606437198817729949951171875</LatitudeDegrees>
              <LongitudeDegrees>-1.62503133527934551239013671875</LongitudeDegrees>
            </Position>
            <AltitudeMeters>459.600006103515625</AltitudeMeters>
            <DistanceMeters>91502.141429843</DistanceMeters>
          </Trackpoint>
          <Trackpoint>
            <Time>2018-08-26T10:19:17.000Z</Time>
            <Position>
              <LatitudeDegrees>42.84598994068801403045654296875</LatitudeDegrees>
              <LongitudeDegrees>-1.6249769367277622222900390625</LongitudeDegrees>
            </Position>
            <AltitudeMeters>459.600006103515625</AltitudeMeters>
            <DistanceMeters>91511.539951417</DistanceMeters>
          </Trackpoint>
          <Trackpoint>
            <Time>2018-08-26T10:19:18.000Z</Time>
            <Position>
              <LatitudeDegrees>42.84591685049235820770263671875</LatitudeDegrees>
              <LongitudeDegrees>-1.624918095767498016357421875</LongitudeDegrees>
            </Position>
            <AltitudeMeters>459.600006103515625</AltitudeMeters>
            <DistanceMeters>91520.986390716</DistanceMeters>
          </Trackpoint>
          <Trackpoint>
            <Time>2018-08-26T10:19:19.000Z</Time>
            <Position>
              <LatitudeDegrees>42.84584493376314640045166015625</LatitudeDegrees>
              <LongitudeDegrees>-1.624855734407901763916015625</LongitudeDegrees>
            </Position>
            <AltitudeMeters>459.600006103515625</AltitudeMeters>
            <DistanceMeters>91530.470989892</DistanceMeters>
          </Trackpoint>
          <Trackpoint>
            <Time>2018-08-26T10:19:20.000Z</Time>
            <Position>
              <LatitudeDegrees>42.84577452577650547027587890625</LatitudeDegrees>
              <LongitudeDegrees>-1.6247896850109100341796875</LongitudeDegrees>
            </Position>
            <AltitudeMeters>459.600006103515625</AltitudeMeters>
            <DistanceMeters>91539.982209888</DistanceMeters>
          </Trackpoint>
          <Trackpoint>
            <Time>2018-08-26T10:19:21.000Z</Time>
            <Position>
              <LatitudeDegrees>42.84570679999887943267822265625</LatitudeDegrees>
              <LongitudeDegrees>-1.62471969611942768096923828125</LongitudeDegrees>
            </Position>
            <AltitudeMeters>459.600006103515625</AltitudeMeters>
            <DistanceMeters>91549.439158503</DistanceMeters>
          </Trackpoint>
          <Trackpoint>
            <Time>2018-08-26T10:19:22.000Z</Time>
            <Position>
              <LatitudeDegrees>42.84564125351607799530029296875</LatitudeDegrees>
              <LongitudeDegrees>-1.624646522104740142822265625</LongitudeDegrees>
            </Position>
            <AltitudeMeters>459.600006103515625</AltitudeMeters>
            <DistanceMeters>91558.866938859</DistanceMeters>
          </Trackpoint>
          <Trackpoint>
            <Time>2018-08-26T10:19:23.000Z</Time>
            <Position>
              <LatitudeDegrees>42.84557738341391086578369140625</LatitudeDegrees>
              <LongitudeDegrees>-1.6245710849761962890625</LongitudeDegrees>
            </Position>
            <AltitudeMeters>459.600006103515625</AltitudeMeters>
            <DistanceMeters>91568.271223451</DistanceMeters>
          </Trackpoint>
          <Trackpoint>
            <Time>2018-08-26T10:19:24.000Z</Time>
            <Position>
              <LatitudeDegrees>42.84551586024463176727294921875</LatitudeDegrees>
              <LongitudeDegrees>-1.62449304945766925811767578125</LongitudeDegrees>
            </Position>
            <AltitudeMeters>459.600006103515625</AltitudeMeters>
            <DistanceMeters>91577.622547437</DistanceMeters>
          </Trackpoint>
          <Trackpoint>
            <Time>2018-08-26T10:19:25.000Z</Time>
            <Position>
              <LatitudeDegrees>42.845456600189208984375</LatitudeDegrees>
              <LongitudeDegrees>-1.6244123317301273345947265625</LongitudeDegrees>
            </Position>
            <AltitudeMeters>459.600006103515625</AltitudeMeters>
            <DistanceMeters>91586.943888303</DistanceMeters>
          </Trackpoint>
          <Trackpoint>
            <Time>2018-08-26T10:19:26.000Z</Time>
            <Position>
              <LatitudeDegrees>42.8453997708857059478759765625</LatitudeDegrees>
              <LongitudeDegrees>-1.62432893179357051849365234375</LongitudeDegrees>
            </Position>
            <AltitudeMeters>459.600006103515625</AltitudeMeters>
            <DistanceMeters>91596.235149294</DistanceMeters>
          </Trackpoint>
          <Trackpoint>
            <Time>2018-08-26T10:19:27.000Z</Time>
            <Position>
              <LatitudeDegrees>42.84534570761024951934814453125</LatitudeDegrees>
              <LongitudeDegrees>-1.62424293346703052520751953125</LongitudeDegrees>
            </Position>
            <AltitudeMeters>459.600006103515625</AltitudeMeters>
            <DistanceMeters>91605.479641896</DistanceMeters>
          </Trackpoint>
          <Trackpoint>
            <Time>2018-08-26T10:19:28.000Z</Time>
            <Position>
              <LatitudeDegrees>42.84529424272477626800537109375</LatitudeDegrees>
              <LongitudeDegrees>-1.624154336750507354736328125</LongitudeDegrees>
            </Position>
            <AltitudeMeters>459.79998779296875</AltitudeMeters>
            <DistanceMeters>91614.703598761</DistanceMeters>
          </Trackpoint>
          <Trackpoint>
            <Time>2018-08-26T10:19:29.000Z</Time>
            <Position>
              <LatitudeDegrees>42.84524478949606418609619140625</LatitudeDegrees>
              <LongitudeDegrees>-1.6240649856626987457275390625</LongitudeDegrees>
            </Position>
            <AltitudeMeters>459.79998779296875</AltitudeMeters>
            <DistanceMeters>91623.840010893</DistanceMeters>
          </Trackpoint>
          <Trackpoint>
            <Time>2018-08-26T10:19:30.000Z</Time>
            <Position>
              <LatitudeDegrees>42.8451975993812084197998046875</LatitudeDegrees>
              <LongitudeDegrees>-1.62397454492747783660888671875</LongitudeDegrees>
            </Position>
            <AltitudeMeters>459.79998779296875</AltitudeMeters>
            <DistanceMeters>91632.89900282</DistanceMeters>
          </Trackpoint>
          <Trackpoint>
            <Time>2018-08-26T10:19:31.000Z</Time>
            <Position>
              <LatitudeDegrees>42.8451523371040821075439453125</LatitudeDegrees>
              <LongitudeDegrees>-1.62388385273516178131103515625</LongitudeDegrees>
            </Position>
            <AltitudeMeters>459.79998779296875</AltitudeMeters>
            <DistanceMeters>91641.85170959</DistanceMeters>
          </Trackpoint>
          <Trackpoint>
            <Time>2018-08-26T10:19:32.000Z</Time>
            <Position>
              <LatitudeDegrees>42.84511051140725612640380859375</LatitudeDegrees>
              <LongitudeDegrees>-1.62378989160060882568359375</LongitudeDegrees>
            </Position>
            <AltitudeMeters>459.79998779296875</AltitudeMeters>
            <DistanceMeters>91650.82205023</DistanceMeters>
          </Trackpoint>
          <Trackpoint>
            <Time>2018-08-26T10:19:33.000Z</Time>
            <Position>
              <LatitudeDegrees>42.8450717031955718994140625</LatitudeDegrees>
              <LongitudeDegrees>-1.62369492463767528533935546875</LongitudeDegrees>
            </Position>
            <AltitudeMeters>459.79998779296875</AltitudeMeters>
            <DistanceMeters>91659.694716483</DistanceMeters>
          </Trackpoint>
          <Trackpoint>
            <Time>2018-08-26T10:19:34.000Z</Time>
            <Position>
              <LatitudeDegrees>42.84503423608839511871337890625</LatitudeDegrees>
              <LongitudeDegrees>-1.623596437275409698486328125</LongitudeDegrees>
            </Position>
            <AltitudeMeters>460</AltitudeMeters>
            <DistanceMeters>91668.749720299</DistanceMeters>
          </Trackpoint>
          <Trackpoint>
            <Time>2018-08-26T10:19:35.000Z</Time>
            <Position>
              <LatitudeDegrees>42.84499668516218662261962890625</LatitudeDegrees>
              <LongitudeDegrees>-1.6234968602657318115234375</LongitudeDegrees>
            </Position>
            <AltitudeMeters>460</AltitudeMeters>
            <DistanceMeters>91677.88810894</DistanceMeters>
          </Trackpoint>
          <Trackpoint>
            <Time>2018-08-26T10:19:36.000Z</Time>
            <Position>
              <LatitudeDegrees>42.84495879895985126495361328125</LatitudeDegrees>
              <LongitudeDegrees>-1.623396612703800201416015625</LongitudeDegrees>
            </Position>
            <AltitudeMeters>460</AltitudeMeters>
            <DistanceMeters>91687.091974819</DistanceMeters>
          </Trackpoint>
          <Trackpoint>
            <Time>2018-08-26T10:19:37.000Z</Time>
            <Position>
              <LatitudeDegrees>42.8449203260242938995361328125</LatitudeDegrees>
              <LongitudeDegrees>-1.6232982091605663299560546875</LongitudeDegrees>
            </Position>
            <AltitudeMeters>460</AltitudeMeters>
            <DistanceMeters>91696.192736389</DistanceMeters>
          </Trackpoint>
          <Trackpoint>
            <Time>2018-08-26T10:19:38.000Z</Time>
            <Position>
              <LatitudeDegrees>42.84488118253648281097412109375</LatitudeDegrees>
              <LongitudeDegrees>-1.62319921888411045074462890625</LongitudeDegrees>
            </Position>
            <AltitudeMeters>460.20001220703125</AltitudeMeters>
            <DistanceMeters>91705.371549668</DistanceMeters>
          </Trackpoint>
          <Trackpoint>
            <Time>2018-08-26T10:19:39.000Z</Time>
            <Position>
              <LatitudeDegrees>42.84484128467738628387451171875</LatitudeDegrees>
              <LongitudeDegrees>-1.6231027431786060333251953125</LongitudeDegrees>
            </Position>
            <AltitudeMeters>460.20001220703125</AltitudeMeters>
            <DistanceMeters>91714.410583448</DistanceMeters>
          </Trackpoint>
          <Trackpoint>
            <Time>2018-08-26T10:19:40.000Z</Time>
            <Position>
              <LatitudeDegrees>42.84479744732379913330078125</LatitudeDegrees>
              <LongitudeDegrees>-1.6230105422437191009521484375</LongitudeDegrees>
            </Position>
            <AltitudeMeters>460.20001220703125</AltitudeMeters>
            <DistanceMeters>91723.377903601</DistanceMeters>
          </Trackpoint>
          <Trackpoint>
            <Time>2018-08-26T10:19:41.000Z</Time>
            <Position>
              <LatitudeDegrees>42.84474556334316730499267578125</LatitudeDegrees>
              <LongitudeDegrees>-1.62293292582035064697265625</LongitudeDegrees>
            </Position>
            <AltitudeMeters>460.399993896484375</AltitudeMeters>
            <DistanceMeters>91731.949292167</DistanceMeters>
          </Trackpoint>
          <Trackpoint>
            <Time>2018-08-26T10:19:42.000Z</Time>
            <Position>
              <LatitudeDegrees>42.8446849621832370758056640625</LatitudeDegrees>
              <LongitudeDegrees>-1.6228589974343776702880859375</LongitudeDegrees>
            </Position>
            <AltitudeMeters>460.399993896484375</AltitudeMeters>
            <DistanceMeters>91740.999308374</DistanceMeters>
          </Trackpoint>
          <Trackpoint>
            <Time>2018-08-26T10:19:43.000Z</Time>
            <Position>
              <LatitudeDegrees>42.84461849369108676910400390625</LatitudeDegrees>
              <LongitudeDegrees>-1.6227916069328784942626953125</LongitudeDegrees>
            </Position>
            <AltitudeMeters>460.600006103515625</AltitudeMeters>
            <DistanceMeters>91750.217389483</DistanceMeters>
          </Trackpoint>
          <Trackpoint>
            <Time>2018-08-26T10:19:44.000Z</Time>
            <Position>
              <LatitudeDegrees>42.844546996057033538818359375</LatitudeDegrees>
              <LongitudeDegrees>-1.62273419089615345001220703125</LongitudeDegrees>
            </Position>
            <AltitudeMeters>460.600006103515625</AltitudeMeters>
            <DistanceMeters>91759.452108858</DistanceMeters>
          </Trackpoint>
          <Trackpoint>
            <Time>2018-08-26T10:19:45.000Z</Time>
            <Position>
              <LatitudeDegrees>42.8444754146039485931396484375</LatitudeDegrees>
              <LongitudeDegrees>-1.6226819716393947601318359375</LongitudeDegrees>
            </Position>
            <AltitudeMeters>460.399993896484375</AltitudeMeters>
            <DistanceMeters>91768.487145718</DistanceMeters>
          </Trackpoint>
          <Trackpoint>
            <Time>2018-08-26T10:19:46.000Z</Time>
            <Position>
              <LatitudeDegrees>42.84440710209310054779052734375</LatitudeDegrees>
              <LongitudeDegrees>-1.62262673489749431610107421875</LongitudeDegrees>
            </Position>
            <AltitudeMeters>460.600006103515625</AltitudeMeters>
            <DistanceMeters>91777.32616271</DistanceMeters>
          </Trackpoint>
          <Trackpoint>
            <Time>2018-08-26T10:19:47.000Z</Time>
            <Position>
              <LatitudeDegrees>42.84434474073350429534912109375</LatitudeDegrees>
              <LongitudeDegrees>-1.62256403826177120208740234375</LongitudeDegrees>
            </Position>
            <AltitudeMeters>460.600006103515625</AltitudeMeters>
            <DistanceMeters>91785.949018933</DistanceMeters>
          </Trackpoint>
          <Trackpoint>
            <Time>2018-08-26T10:19:48.000Z</Time>
            <Position>
              <LatitudeDegrees>42.84429025836288928985595703125</LatitudeDegrees>
              <LongitudeDegrees>-1.62249010987579822540283203125</LongitudeDegrees>
            </Position>
            <AltitudeMeters>460.79998779296875</AltitudeMeters>
            <DistanceMeters>91794.502479014</DistanceMeters>
          </Trackpoint>
          <Trackpoint>
            <Time>2018-08-26T10:19:49.000Z</Time>
            <Position>
              <LatitudeDegrees>42.84424751065671443939208984375</LatitudeDegrees>
              <LongitudeDegrees>-1.62240277044475078582763671875</LongitudeDegrees>
            </Position>
            <AltitudeMeters>460.79998779296875</AltitudeMeters>
            <DistanceMeters>91803.071760293</DistanceMeters>
          </Trackpoint>
          <Trackpoint>
            <Time>2018-08-26T10:19:50.000Z</Time>
            <Position>
              <LatitudeDegrees>42.84422085620462894439697265625</LatitudeDegrees>
              <LongitudeDegrees>-1.6223044507205486297607421875</LongitudeDegrees>
            </Position>
            <AltitudeMeters>460.600006103515625</AltitudeMeters>
            <DistanceMeters>91811.62627603</DistanceMeters>
          </Trackpoint>
          <Trackpoint>
            <Time>2018-08-26T10:19:51.000Z</Time>
            <Position>
              <LatitudeDegrees>42.844211719930171966552734375</LatitudeDegrees>
              <LongitudeDegrees>-1.6222005151212215423583984375</LongitudeDegrees>
            </Position>
            <AltitudeMeters>460.79998779296875</AltitudeMeters>
            <DistanceMeters>91820.168643837</DistanceMeters>
          </Trackpoint>
          <Trackpoint>
            <Time>2018-08-26T10:19:52.000Z</Time>
            <Position>
              <LatitudeDegrees>42.844219096004962921142578125</LatitudeDegrees>
              <LongitudeDegrees>-1.6220942325890064239501953125</LongitudeDegrees>
            </Position>
            <AltitudeMeters>460.79998779296875</AltitudeMeters>
            <DistanceMeters>91828.880059476</DistanceMeters>
          </Trackpoint>
          <Trackpoint>
            <Time>2018-08-26T10:19:53.000Z</Time>
            <Position>
              <LatitudeDegrees>42.844236530363559722900390625</LatitudeDegrees>
              <LongitudeDegrees>-1.621987111866474151611328125</LongitudeDegrees>
            </Position>
            <AltitudeMeters>461.20001220703125</AltitudeMeters>
            <DistanceMeters>91837.834279081</DistanceMeters>
          </Trackpoint>
          <Trackpoint>
            <Time>2018-08-26T10:19:54.000Z</Time>
            <Position>
              <LatitudeDegrees>42.844253294169902801513671875</LatitudeDegrees>
              <LongitudeDegrees>-1.62187655456364154815673828125</LongitudeDegrees>
            </Position>
            <AltitudeMeters>461.20001220703125</AltitudeMeters>
            <DistanceMeters>91847.047460865</DistanceMeters>
          </Trackpoint>
          <Trackpoint>
            <Time>2018-08-26T10:19:55.000Z</Time>
            <Position>
              <LatitudeDegrees>42.84426561556756496429443359375</LatitudeDegrees>
              <LongitudeDegrees>-1.62176356650888919830322265625</LongitudeDegrees>
            </Position>
            <AltitudeMeters>461.20001220703125</AltitudeMeters>
            <DistanceMeters>91856.369770434</DistanceMeters>
          </Trackpoint>
          <Trackpoint>
            <Time>2018-08-26T10:19:56.000Z</Time>
            <Position>
              <LatitudeDegrees>42.84427232109010219573974609375</LatitudeDegrees>
              <LongitudeDegrees>-1.62164957262575626373291015625</LongitudeDegrees>
            </Position>
            <AltitudeMeters>461.20001220703125</AltitudeMeters>
            <DistanceMeters>91865.702729095</DistanceMeters>
          </Trackpoint>
          <Trackpoint>
            <Time>2018-08-26T10:19:57.000Z</Time>
            <Position>
              <LatitudeDegrees>42.84426896832883358001708984375</LatitudeDegrees>
              <LongitudeDegrees>-1.6215363331139087677001953125</LongitudeDegrees>
            </Position>
            <AltitudeMeters>461.20001220703125</AltitudeMeters>
            <DistanceMeters>91874.95161628</DistanceMeters>
          </Trackpoint>
          <Trackpoint>
            <Time>2018-08-26T10:19:58.000Z</Time>
            <Position>
              <LatitudeDegrees>42.84425388090312480926513671875</LatitudeDegrees>
              <LongitudeDegrees>-1.6214256919920444488525390625</LongitudeDegrees>
            </Position>
            <AltitudeMeters>461.20001220703125</AltitudeMeters>
            <DistanceMeters>91884.13534722</DistanceMeters>
          </Trackpoint>
          <Trackpoint>
            <Time>2018-08-26T10:19:59.000Z</Time>
            <Position>
              <LatitudeDegrees>42.84422638826072216033935546875</LatitudeDegrees>
              <LongitudeDegrees>-1.6213214211165904998779296875</LongitudeDegrees>
            </Position>
            <AltitudeMeters>461.399993896484375</AltitudeMeters>
            <DistanceMeters>91893.178376153</DistanceMeters>
          </Trackpoint>
          <Trackpoint>
            <Time>2018-08-26T10:20:00.000Z</Time>
            <Position>
              <LatitudeDegrees>42.8441864065825939178466796875</LatitudeDegrees>
              <LongitudeDegrees>-1.62122704088687896728515625</LongitudeDegrees>
            </Position>
            <AltitudeMeters>461.399993896484375</AltitudeMeters>
            <DistanceMeters>91902.073404528</DistanceMeters>
          </Trackpoint>
          <Trackpoint>
            <Time>2018-08-26T10:20:01.000Z</Time>
            <Position>
              <LatitudeDegrees>42.84413720481097698211669921875</LatitudeDegrees>
              <LongitudeDegrees>-1.62114246748387813568115234375</LongitudeDegrees>
            </Position>
            <AltitudeMeters>461.600006103515625</AltitudeMeters>
            <DistanceMeters>91910.883769851</DistanceMeters>
          </Trackpoint>
          <Trackpoint>
            <Time>2018-08-26T10:20:02.000Z</Time>
            <Position>
              <LatitudeDegrees>42.84408238716423511505126953125</LatitudeDegrees>
              <LongitudeDegrees>-1.621067114174365997314453125</LongitudeDegrees>
            </Position>
            <AltitudeMeters>461.600006103515625</AltitudeMeters>
            <DistanceMeters>91919.546850442</DistanceMeters>
          </Trackpoint>
          <Trackpoint>
            <Time>2018-08-26T10:20:03.000Z</Time>
            <Position>
              <LatitudeDegrees>42.84402186982333660125732421875</LatitudeDegrees>
              <LongitudeDegrees>-1.6210015676915645599365234375</LongitudeDegrees>
            </Position>
            <AltitudeMeters>461.600006103515625</AltitudeMeters>
            <DistanceMeters>91928.148211747</DistanceMeters>
          </Trackpoint>
          <Trackpoint>
            <Time>2018-08-26T10:20:04.000Z</Time>
            <Position>
              <LatitudeDegrees>42.84395682625472545623779296875</LatitudeDegrees>
              <LongitudeDegrees>-1.6209435649216175079345703125</LongitudeDegrees>
            </Position>
            <AltitudeMeters>461.79998779296875</AltitudeMeters>
            <DistanceMeters>91936.797208987</DistanceMeters>
          </Trackpoint>
          <Trackpoint>
            <Time>2018-08-26T10:20:05.000Z</Time>
            <Position>
              <LatitudeDegrees>42.84388876520097255706787109375</LatitudeDegrees>
              <LongitudeDegrees>-1.6208942793309688568115234375</LongitudeDegrees>
            </Position>
            <AltitudeMeters>461.79998779296875</AltitudeMeters>
            <DistanceMeters>91945.373863505</DistanceMeters>
          </Trackpoint>
          <Trackpoint>
            <Time>2018-08-26T10:20:06.000Z</Time>
            <Position>
              <LatitudeDegrees>42.84381902776658535003662109375</LatitudeDegrees>
              <LongitudeDegrees>-1.6208496876060962677001953125</LongitudeDegrees>
            </Position>
            <AltitudeMeters>461.79998779296875</AltitudeMeters>
            <DistanceMeters>91953.946832196</DistanceMeters>
          </Trackpoint>
          <Trackpoint>
            <Time>2018-08-26T10:20:07.000Z</Time>
            <Position>
              <LatitudeDegrees>42.8437493741512298583984375</LatitudeDegrees>
              <LongitudeDegrees>-1.62080568261444568634033203125</LongitudeDegrees>
            </Position>
            <AltitudeMeters>461.79998779296875</AltitudeMeters>
            <DistanceMeters>91962.490785495</DistanceMeters>
          </Trackpoint>
          <Trackpoint>
            <Time>2018-08-26T10:20:08.000Z</Time>
            <Position>
              <LatitudeDegrees>42.84368055872619152069091796875</LatitudeDegrees>
              <LongitudeDegrees>-1.62076033651828765869140625</LongitudeDegrees>
            </Position>
            <AltitudeMeters>461.79998779296875</AltitudeMeters>
            <DistanceMeters>91970.997666981</DistanceMeters>
          </Trackpoint>
          <Trackpoint>
            <Time>2018-08-26T10:20:09.000Z</Time>
            <Position>
              <LatitudeDegrees>42.843612246215343475341796875</LatitudeDegrees>
              <LongitudeDegrees>-1.6207142360508441925048828125</LongitudeDegrees>
            </Position>
            <AltitudeMeters>461.79998779296875</AltitudeMeters>
            <DistanceMeters>91979.481163268</DistanceMeters>
          </Trackpoint>
          <Trackpoint>
            <Time>2018-08-26T10:20:10.000Z</Time>
            <Position>
              <LatitudeDegrees>42.84354410134255886077880859375</LatitudeDegrees>
              <LongitudeDegrees>-1.620668135583400726318359375</LongitudeDegrees>
            </Position>
            <AltitudeMeters>462</AltitudeMeters>
            <DistanceMeters>91987.947611568</DistanceMeters>
          </Trackpoint>
          <Trackpoint>
            <Time>2018-08-26T10:20:11.000Z</Time>
            <Position>
              <LatitudeDegrees>42.843476124107837677001953125</LatitudeDegrees>
              <LongitudeDegrees>-1.62062262184917926788330078125</LongitudeDegrees>
            </Position>
            <AltitudeMeters>462</AltitudeMeters>
            <DistanceMeters>91996.375575813</DistanceMeters>
          </Trackpoint>
          <Trackpoint>
            <Time>2018-08-26T10:20:12.000Z</Time>
            <Position>
              <LatitudeDegrees>42.84340864978730678558349609375</LatitudeDegrees>
              <LongitudeDegrees>-1.6205767728388309478759765625</LongitudeDegrees>
            </Position>
            <AltitudeMeters>462</AltitudeMeters>
            <DistanceMeters>92004.765955778</DistanceMeters>
          </Trackpoint>
          <Trackpoint>
            <Time>2018-08-26T10:20:13.000Z</Time>
            <Position>
              <LatitudeDegrees>42.84334159456193447113037109375</LatitudeDegrees>
              <LongitudeDegrees>-1.62053142674267292022705078125</LongitudeDegrees>
            </Position>
            <AltitudeMeters>462</AltitudeMeters>
            <DistanceMeters>92013.096932164</DistanceMeters>
          </Trackpoint>
          <Trackpoint>
            <Time>2018-08-26T10:20:14.000Z</Time>
            <Position>
              <LatitudeDegrees>42.8432747907936573028564453125</LatitudeDegrees>
              <LongitudeDegrees>-1.62048717029392719268798828125</LongitudeDegrees>
            </Position>
            <AltitudeMeters>462</AltitudeMeters>
            <DistanceMeters>92021.363710166</DistanceMeters>
          </Trackpoint>
          <Trackpoint>
            <Time>2018-08-26T10:20:15.000Z</Time>
            <Position>
              <LatitudeDegrees>42.843208573758602142333984375</LatitudeDegrees>
              <LongitudeDegrees>-1.6204416565597057342529296875</LongitudeDegrees>
            </Position>
            <AltitudeMeters>462</AltitudeMeters>
            <DistanceMeters>92029.61736976</DistanceMeters>
          </Trackpoint>
          <Trackpoint>
            <Time>2018-08-26T10:20:16.000Z</Time>
            <Position>
              <LatitudeDegrees>42.84314411692321300506591796875</LatitudeDegrees>
              <LongitudeDegrees>-1.6203957237303256988525390625</LongitudeDegrees>
            </Position>
            <AltitudeMeters>462.20001220703125</AltitudeMeters>
            <DistanceMeters>92037.711950334</DistanceMeters>
          </Trackpoint>
          <Trackpoint>
            <Time>2018-08-26T10:20:17.000Z</Time>
            <Position>
              <LatitudeDegrees>42.8430813364684581756591796875</LatitudeDegrees>
              <LongitudeDegrees>-1.620348282158374786376953125</LongitudeDegrees>
            </Position>
            <AltitudeMeters>462</AltitudeMeters>
            <DistanceMeters>92045.700413905</DistanceMeters>
          </Trackpoint>
          <Trackpoint>
            <Time>2018-08-26T10:20:18.000Z</Time>
            <Position>
              <LatitudeDegrees>42.8430199809372425079345703125</LatitudeDegrees>
              <LongitudeDegrees>-1.6202981583774089813232421875</LongitudeDegrees>
            </Position>
            <AltitudeMeters>462.20001220703125</AltitudeMeters>
            <DistanceMeters>92053.660567573</DistanceMeters>
          </Trackpoint>
          <Trackpoint>
            <Time>2018-08-26T10:20:19.000Z</Time>
            <Position>
              <LatitudeDegrees>42.8429603017866611480712890625</LatitudeDegrees>
              <LongitudeDegrees>-1.6202445141971111297607421875</LongitudeDegrees>
            </Position>
            <AltitudeMeters>462.399993896484375</AltitudeMeters>
            <DistanceMeters>92061.615614758</DistanceMeters>
          </Trackpoint>
          <Trackpoint>
            <Time>2018-08-26T10:20:20.000Z</Time>
            <Position>
              <LatitudeDegrees>42.84290187992155551910400390625</LatitudeDegrees>
              <LongitudeDegrees>-1.62018827162683010101318359375</LongitudeDegrees>
            </Position>
            <AltitudeMeters>462.600006103515625</AltitudeMeters>
            <DistanceMeters>92069.574066629</DistanceMeters>
          </Trackpoint>
          <Trackpoint>
            <Time>2018-08-26T10:20:21.000Z</Time>
            <Position>
              <LatitudeDegrees>42.84284505061805248260498046875</LatitudeDegrees>
              <LongitudeDegrees>-1.62012867629528045654296875</LongitudeDegrees>
            </Position>
            <AltitudeMeters>462.79998779296875</AltitudeMeters>
            <DistanceMeters>92077.552916103</DistanceMeters>
          </Trackpoint>
          <Trackpoint>
            <Time>2018-08-26T10:20:22.000Z</Time>
            <Position>
              <LatitudeDegrees>42.84279048442840576171875</LatitudeDegrees>
              <LongitudeDegrees>-1.620066650211811065673828125</LongitudeDegrees>
            </Position>
            <AltitudeMeters>463</AltitudeMeters>
            <DistanceMeters>92085.460143765</DistanceMeters>
          </Trackpoint>
          <Trackpoint>
            <Time>2018-08-26T10:20:23.000Z</Time>
            <Position>
              <LatitudeDegrees>42.84273616969585418701171875</LatitudeDegrees>
              <LongitudeDegrees>-1.62000663578510284423828125</LongitudeDegrees>
            </Position>
            <AltitudeMeters>463</AltitudeMeters>
            <DistanceMeters>92093.240737089</DistanceMeters>
          </Trackpoint>
          <Trackpoint>
            <Time>2018-08-26T10:20:24.000Z</Time>
            <Position>
              <LatitudeDegrees>42.8426820226013660430908203125</LatitudeDegrees>
              <LongitudeDegrees>-1.6199482977390289306640625</LongitudeDegrees>
            </Position>
            <AltitudeMeters>463.20001220703125</AltitudeMeters>
            <DistanceMeters>92100.920871159</DistanceMeters>
          </Trackpoint>
          <Trackpoint>
            <Time>2018-08-26T10:20:25.000Z</Time>
            <Position>
              <LatitudeDegrees>42.84262980334460735321044921875</LatitudeDegrees>
              <LongitudeDegrees>-1.619886942207813262939453125</LongitudeDegrees>
            </Position>
            <AltitudeMeters>463.20001220703125</AltitudeMeters>
            <DistanceMeters>92108.59218188</DistanceMeters>
          </Trackpoint>
          <Trackpoint>
            <Time>2018-08-26T10:20:26.000Z</Time>
            <Position>
              <LatitudeDegrees>42.842580266296863555908203125</LatitudeDegrees>
              <LongitudeDegrees>-1.61982131190598011016845703125</LongitudeDegrees>
            </Position>
            <AltitudeMeters>463.20001220703125</AltitudeMeters>
            <DistanceMeters>92116.279367337</DistanceMeters>
          </Trackpoint>
          <Trackpoint>
            <Time>2018-08-26T10:20:27.000Z</Time>
            <Position>
              <LatitudeDegrees>42.842532657086849212646484375</LatitudeDegrees>
              <LongitudeDegrees>-1.6197536699473857879638671875</LongitudeDegrees>
            </Position>
            <AltitudeMeters>463.399993896484375</AltitudeMeters>
            <DistanceMeters>92123.931820914</DistanceMeters>
          </Trackpoint>
          <Trackpoint>
            <Time>2018-08-26T10:20:28.000Z</Time>
            <Position>
              <LatitudeDegrees>42.84248613752424716949462890625</LatitudeDegrees>
              <LongitudeDegrees>-1.6196862794458866119384765625</LongitudeDegrees>
            </Position>
            <AltitudeMeters>463.399993896484375</AltitudeMeters>
            <DistanceMeters>92131.485099869</DistanceMeters>
          </Trackpoint>
          <Trackpoint>
            <Time>2018-08-26T10:20:29.000Z</Time>
            <Position>
              <LatitudeDegrees>42.84244188107550144195556640625</LatitudeDegrees>
              <LongitudeDegrees>-1.61961545236408710479736328125</LongitudeDegrees>
            </Position>
            <AltitudeMeters>463.600006103515625</AltitudeMeters>
            <DistanceMeters>92139.079512173</DistanceMeters>
          </Trackpoint>
          <Trackpoint>
            <Time>2018-08-26T10:20:30.000Z</Time>
            <Position>
              <LatitudeDegrees>42.8424013964831829071044921875</LatitudeDegrees>
              <LongitudeDegrees>-1.61953867413103580474853515625</LongitudeDegrees>
            </Position>
            <AltitudeMeters>463.79998779296875</AltitudeMeters>
            <DistanceMeters>92146.797179193</DistanceMeters>
          </Trackpoint>
          <Trackpoint>
            <Time>2018-08-26T10:20:31.000Z</Time>
            <Position>
              <LatitudeDegrees>42.84236309118568897247314453125</LatitudeDegrees>
              <LongitudeDegrees>-1.619459800422191619873046875</LongitudeDegrees>
            </Position>
            <AltitudeMeters>464</AltitudeMeters>
            <DistanceMeters>92154.517185963</DistanceMeters>
          </Trackpoint>
          <Trackpoint>
            <Time>2018-08-26T10:20:32.000Z</Time>
            <Position>
              <LatitudeDegrees>42.84232445061206817626953125</LatitudeDegrees>
              <LongitudeDegrees>-1.6193835251033306121826171875</LongitudeDegrees>
            </Position>
            <AltitudeMeters>464</AltitudeMeters>
            <DistanceMeters>92162.083007437</DistanceMeters>
          </Trackpoint>
          <Trackpoint>
            <Time>2018-08-26T10:20:33.000Z</Time>
            <Position>
              <LatitudeDegrees>42.84228513948619365692138671875</LatitudeDegrees>
              <LongitudeDegrees>-1.61930716596543788909912109375</LongitudeDegrees>
            </Position>
            <AltitudeMeters>464</AltitudeMeters>
            <DistanceMeters>92169.69701366</DistanceMeters>
          </Trackpoint>
          <Trackpoint>
            <Time>2018-08-26T10:20:34.000Z</Time>
            <Position>
              <LatitudeDegrees>42.842249013483524322509765625</LatitudeDegrees>
              <LongitudeDegrees>-1.6192279569804668426513671875</LongitudeDegrees>
            </Position>
            <AltitudeMeters>464.20001220703125</AltitudeMeters>
            <DistanceMeters>92177.309240702</DistanceMeters>
          </Trackpoint>
          <Trackpoint>
            <Time>2018-08-26T10:20:35.000Z</Time>
            <Position>
              <LatitudeDegrees>42.8422151505947113037109375</LatitudeDegrees>
              <LongitudeDegrees>-1.6191441379487514495849609375</LongitudeDegrees>
            </Position>
            <AltitudeMeters>464.399993896484375</AltitudeMeters>
            <DistanceMeters>92185.119951071</DistanceMeters>
          </Trackpoint>
          <Trackpoint>
            <Time>2018-08-26T10:20:36.000Z</Time>
            <Position>
              <LatitudeDegrees>42.8421814553439617156982421875</LatitudeDegrees>
              <LongitudeDegrees>-1.6190606541931629180908203125</LongitudeDegrees>
            </Position>
            <AltitudeMeters>464.600006103515625</AltitudeMeters>
            <DistanceMeters>92192.897061846</DistanceMeters>
          </Trackpoint>
          <Trackpoint>
            <Time>2018-08-26T10:20:37.000Z</Time>
            <Position>
              <LatitudeDegrees>42.84214717335999011993408203125</LatitudeDegrees>
              <LongitudeDegrees>-1.61897708661854267120361328125</LongitudeDegrees>
            </Position>
            <AltitudeMeters>464.79998779296875</AltitudeMeters>
            <DistanceMeters>92200.711817568</DistanceMeters>
          </Trackpoint>
          <Trackpoint>
            <Time>2018-08-26T10:20:38.000Z</Time>
            <Position>
              <LatitudeDegrees>42.84211389720439910888671875</LatitudeDegrees>
              <LongitudeDegrees>-1.61889259703457355499267578125</LongitudeDegrees>
            </Position>
            <AltitudeMeters>465.20001220703125</AltitudeMeters>
            <DistanceMeters>92208.538696806</DistanceMeters>
          </Trackpoint>
          <Trackpoint>
            <Time>2018-08-26T10:20:39.000Z</Time>
            <Position>
              <LatitudeDegrees>42.8420805372297763824462890625</LatitudeDegrees>
              <LongitudeDegrees>-1.61880911327898502349853515625</LongitudeDegrees>
            </Position>
            <AltitudeMeters>465.399993896484375</AltitudeMeters>
            <DistanceMeters>92216.297207589</DistanceMeters>
          </Trackpoint>
          <Trackpoint>
            <Time>2018-08-26T10:20:40.000Z</Time>
            <Position>
              <LatitudeDegrees>42.84204809926450252532958984375</LatitudeDegrees>
              <LongitudeDegrees>-1.61872814409434795379638671875</LongitudeDegrees>
            </Position>
            <AltitudeMeters>465.600006103515625</AltitudeMeters>
            <DistanceMeters>92223.827737455</DistanceMeters>
          </Trackpoint>
          <Trackpoint>
            <Time>2018-08-26T10:20:41.000Z</Time>
            <Position>
              <LatitudeDegrees>42.84201691858470439910888671875</LatitudeDegrees>
              <LongitudeDegrees>-1.61864499561488628387451171875</LongitudeDegrees>
            </Position>
            <AltitudeMeters>466</AltitudeMeters>
            <DistanceMeters>92231.450041034</DistanceMeters>
          </Trackpoint>
          <Trackpoint>
            <Time>2018-08-26T10:20:42.000Z</Time>
            <Position>
              <LatitudeDegrees>42.8419876657426357269287109375</LatitudeDegrees>
              <LongitudeDegrees>-1.6185589134693145751953125</LongitudeDegrees>
            </Position>
            <AltitudeMeters>466.20001220703125</AltitudeMeters>
            <DistanceMeters>92239.193406425</DistanceMeters>
          </Trackpoint>
          <Trackpoint>
            <Time>2018-08-26T10:20:43.000Z</Time>
            <Position>
              <LatitudeDegrees>42.84195891581475734710693359375</LatitudeDegrees>
              <LongitudeDegrees>-1.61847366951406002044677734375</LongitudeDegrees>
            </Position>
            <AltitudeMeters>466.399993896484375</AltitudeMeters>
            <DistanceMeters>92246.851168267</DistanceMeters>
          </Trackpoint>
          <Trackpoint>
            <Time>2018-08-26T10:20:44.000Z</Time>
            <Position>
              <LatitudeDegrees>42.841929495334625244140625</LatitudeDegrees>
              <LongitudeDegrees>-1.618390269577503204345703125</LongitudeDegrees>
            </Position>
            <AltitudeMeters>466.399993896484375</AltitudeMeters>
            <DistanceMeters>92254.404447222</DistanceMeters>
          </Trackpoint>
          <Trackpoint>
            <Time>2018-08-26T10:20:45.000Z</Time>
            <Position>
              <LatitudeDegrees>42.84189999103546142578125</LatitudeDegrees>
              <LongitudeDegrees>-1.6183072887361049652099609375</LongitudeDegrees>
            </Position>
            <AltitudeMeters>466.600006103515625</AltitudeMeters>
            <DistanceMeters>92261.930179044</DistanceMeters>
          </Trackpoint>
          <Trackpoint>
            <Time>2018-08-26T10:20:46.000Z</Time>
            <Position>
              <LatitudeDegrees>42.84187249839305877685546875</LatitudeDegrees>
              <LongitudeDegrees>-1.61822271533310413360595703125</LongitudeDegrees>
            </Position>
            <AltitudeMeters>466.600006103515625</AltitudeMeters>
            <DistanceMeters>92269.481066586</DistanceMeters>
          </Trackpoint>
          <Trackpoint>
            <Time>2018-08-26T10:20:47.000Z</Time>
            <Position>
              <LatitudeDegrees>42.84184659831225872039794921875</LatitudeDegrees>
              <LongitudeDegrees>-1.61813822574913501739501953125</LongitudeDegrees>
            </Position>
            <AltitudeMeters>466.79998779296875</AltitudeMeters>
            <DistanceMeters>92276.9550249</DistanceMeters>
          </Trackpoint>
          <Trackpoint>
            <Time>2018-08-26T10:20:48.000Z</Time>
            <Position>
              <LatitudeDegrees>42.8418200276792049407958984375</LatitudeDegrees>
              <LongitudeDegrees>-1.61805474199354648590087890625</LongitudeDegrees>
            </Position>
            <AltitudeMeters>467.20001220703125</AltitudeMeters>
            <DistanceMeters>92284.381713726</DistanceMeters>
          </Trackpoint>
          <Trackpoint>
            <Time>2018-08-26T10:20:49.000Z</Time>
            <Position>
              <LatitudeDegrees>42.84179270267486572265625</LatitudeDegrees>
              <LongitudeDegrees>-1.61797083914279937744140625</LongitudeDegrees>
            </Position>
            <AltitudeMeters>467.399993896484375</AltitudeMeters>
            <DistanceMeters>92291.873773201</DistanceMeters>
          </Trackpoint>
          <Trackpoint>
            <Time>2018-08-26T10:20:50.000Z</Time>
            <Position>
              <LatitudeDegrees>42.84176697023212909698486328125</LatitudeDegrees>
              <LongitudeDegrees>-1.6178845055401325225830078125</LongitudeDegrees>
            </Position>
            <AltitudeMeters>467.79998779296875</AltitudeMeters>
            <DistanceMeters>92299.478879356</DistanceMeters>
          </Trackpoint>
          <Trackpoint>
            <Time>2018-08-26T10:20:51.000Z</Time>
            <Position>
              <LatitudeDegrees>42.84174316562712192535400390625</LatitudeDegrees>
              <LongitudeDegrees>-1.61779741756618022918701171875</LongitudeDegrees>
            </Position>
            <AltitudeMeters>468</AltitudeMeters>
            <DistanceMeters>92307.063773358</DistanceMeters>
          </Trackpoint>
          <Trackpoint>
            <Time>2018-08-26T10:20:52.000Z</Time>
            <Position>
              <LatitudeDegrees>42.84171852283179759979248046875</LatitudeDegrees>
              <LongitudeDegrees>-1.6177104972302913665771484375</LongitudeDegrees>
            </Position>
            <AltitudeMeters>468.20001220703125</AltitudeMeters>
            <DistanceMeters>92314.669473174</DistanceMeters>
          </Trackpoint>
          <Trackpoint>
            <Time>2018-08-26T10:20:53.000Z</Time>
            <Position>
              <LatitudeDegrees>42.841693460941314697265625</LatitudeDegrees>
              <LongitudeDegrees>-1.6176239959895610809326171875</LongitudeDegrees>
            </Position>
            <AltitudeMeters>468.399993896484375</AltitudeMeters>
            <DistanceMeters>92322.260317514</DistanceMeters>
          </Trackpoint>
          <Trackpoint>
            <Time>2018-08-26T10:20:54.000Z</Time>
            <Position>
              <LatitudeDegrees>42.8416698239743709564208984375</LatitudeDegrees>
              <LongitudeDegrees>-1.617538668215274810791015625</LongitudeDegrees>
            </Position>
            <AltitudeMeters>468.399993896484375</AltitudeMeters>
            <DistanceMeters>92329.704615946</DistanceMeters>
          </Trackpoint>
          <Trackpoint>
            <Time>2018-08-26T10:20:55.000Z</Time>
            <Position>
              <LatitudeDegrees>42.8416487015783786773681640625</LatitudeDegrees>
              <LongitudeDegrees>-1.61745342426002025604248046875</LongitudeDegrees>
            </Position>
            <AltitudeMeters>468.79998779296875</AltitudeMeters>
            <DistanceMeters>92337.048158451</DistanceMeters>
          </Trackpoint>
          <Trackpoint>
            <Time>2018-08-26T10:20:56.000Z</Time>
            <Position>
              <LatitudeDegrees>42.84162783063948154449462890625</LatitudeDegrees>
              <LongitudeDegrees>-1.61736868321895599365234375</LongitudeDegrees>
            </Position>
            <AltitudeMeters>468.79998779296875</AltitudeMeters>
            <DistanceMeters>92344.343586509</DistanceMeters>
          </Trackpoint>
          <Trackpoint>
            <Time>2018-08-26T10:20:57.000Z</Time>
            <Position>
              <LatitudeDegrees>42.84160654060542583465576171875</LatitudeDegrees>
              <LongitudeDegrees>-1.61728293634951114654541015625</LongitudeDegrees>
            </Position>
            <AltitudeMeters>469</AltitudeMeters>
            <DistanceMeters>92351.731875358</DistanceMeters>
          </Trackpoint>
          <Trackpoint>
            <Time>2018-08-26T10:20:58.000Z</Time>
            <Position>
              <LatitudeDegrees>42.84158541820943355560302734375</LatitudeDegrees>
              <LongitudeDegrees>-1.617197692394256591796875</LongitudeDegrees>
            </Position>
            <AltitudeMeters>469</AltitudeMeters>
            <DistanceMeters>92359.075417863</DistanceMeters>
          </Trackpoint>
          <Trackpoint>
            <Time>2018-08-26T10:20:59.000Z</Time>
            <Position>
              <LatitudeDegrees>42.84156463108956813812255859375</LatitudeDegrees>
              <LongitudeDegrees>-1.61711093969643115997314453125</LongitudeDegrees>
            </Position>
            <AltitudeMeters>469.20001220703125</AltitudeMeters>
            <DistanceMeters>92366.523960651</DistanceMeters>
          </Trackpoint>
          <Trackpoint>
            <Time>2018-08-26T10:21:00.000Z</Time>
            <Position>
              <LatitudeDegrees>42.84154451452195644378662109375</LatitudeDegrees>
              <LongitudeDegrees>-1.617023684084415435791015625</LongitudeDegrees>
            </Position>
            <AltitudeMeters>469.399993896484375</AltitudeMeters>
            <DistanceMeters>92373.989456737</DistanceMeters>
          </Trackpoint>
          <Trackpoint>
            <Time>2018-08-26T10:21:01.000Z</Time>
            <Position>
              <LatitudeDegrees>42.8415246494114398956298828125</LatitudeDegrees>
              <LongitudeDegrees>-1.6169336624443531036376953125</LongitudeDegrees>
            </Position>
            <AltitudeMeters>469.600006103515625</AltitudeMeters>
            <DistanceMeters>92381.661355998</DistanceMeters>
          </Trackpoint>
          <Trackpoint>
            <Time>2018-08-26T10:21:02.000Z</Time>
            <Position>
              <LatitudeDegrees>42.84150478430092334747314453125</LatitudeDegrees>
              <LongitudeDegrees>-1.6168438084423542022705078125</LongitudeDegrees>
            </Position>
            <AltitudeMeters>469.79998779296875</AltitudeMeters>
            <DistanceMeters>92389.320886444</DistanceMeters>
          </Trackpoint>
          <Trackpoint>
            <Time>2018-08-26T10:21:03.000Z</Time>
            <Position>
              <LatitudeDegrees>42.84148760139942169189453125</LatitudeDegrees>
              <LongitudeDegrees>-1.616752780973911285400390625</LongitudeDegrees>
            </Position>
            <AltitudeMeters>469.79998779296875</AltitudeMeters>
            <DistanceMeters>92396.991608581</DistanceMeters>
          </Trackpoint>
          <Trackpoint>
            <Time>2018-08-26T10:21:04.000Z</Time>
            <Position>
              <LatitudeDegrees>42.8414726816117763519287109375</LatitudeDegrees>
              <LongitudeDegrees>-1.61666116677224636077880859375</LongitudeDegrees>
            </Position>
            <AltitudeMeters>470</AltitudeMeters>
            <DistanceMeters>92404.650549538</DistanceMeters>
          </Trackpoint>
          <Trackpoint>
            <Time>2018-08-26T10:21:05.000Z</Time>
            <Position>
              <LatitudeDegrees>42.84145767800509929656982421875</LatitudeDegrees>
              <LongitudeDegrees>-1.61656879819929599761962890625</LongitudeDegrees>
            </Position>
            <AltitudeMeters>470.20001220703125</AltitudeMeters>
            <DistanceMeters>92412.371725917</DistanceMeters>
          </Trackpoint>
          <Trackpoint>
            <Time>2018-08-26T10:21:06.000Z</Time>
            <Position>
              <LatitudeDegrees>42.84144041128456592559814453125</LatitudeDegrees>
              <LongitudeDegrees>-1.61647659726440906524658203125</LongitudeDegrees>
            </Position>
            <AltitudeMeters>470.399993896484375</AltitudeMeters>
            <DistanceMeters>92420.137216919</DistanceMeters>
          </Trackpoint>
          <Trackpoint>
            <Time>2018-08-26T10:21:07.000Z</Time>
            <Position>
              <LatitudeDegrees>42.84142314456403255462646484375</LatitudeDegrees>
              <LongitudeDegrees>-1.61638339050114154815673828125</LongitudeDegrees>
            </Position>
            <AltitudeMeters>470.79998779296875</AltitudeMeters>
            <DistanceMeters>92427.98253406</DistanceMeters>
          </Trackpoint>
          <Trackpoint>
            <Time>2018-08-26T10:21:08.000Z</Time>
            <Position>
              <LatitudeDegrees>42.84140587784349918365478515625</LatitudeDegrees>
              <LongitudeDegrees>-1.61628800444304943084716796875</LongitudeDegrees>
            </Position>
            <AltitudeMeters>471.20001220703125</AltitudeMeters>
            <DistanceMeters>92436.000897002</DistanceMeters>
          </Trackpoint>
          <Trackpoint>
            <Time>2018-08-26T10:21:09.000Z</Time>
            <Position>
              <LatitudeDegrees>42.841387689113616943359375</LatitudeDegrees>
              <LongitudeDegrees>-1.6161932051181793212890625</LongitudeDegrees>
            </Position>
            <AltitudeMeters>471.600006103515625</AltitudeMeters>
            <DistanceMeters>92443.998398578</DistanceMeters>
          </Trackpoint>
          <Trackpoint>
            <Time>2018-08-26T10:21:10.000Z</Time>
            <Position>
              <LatitudeDegrees>42.84137100912630558013916015625</LatitudeDegrees>
              <LongitudeDegrees>-1.616097651422023773193359375</LongitudeDegrees>
            </Position>
            <AltitudeMeters>471.79998779296875</AltitudeMeters>
            <DistanceMeters>92452.014508855</DistanceMeters>
          </Trackpoint>
          <Trackpoint>
            <Time>2018-08-26T10:21:11.000Z</Time>
            <Position>
              <LatitudeDegrees>42.84135743044316768646240234375</LatitudeDegrees>
              <LongitudeDegrees>-1.61600268445909023284912109375</LongitudeDegrees>
            </Position>
            <AltitudeMeters>472</AltitudeMeters>
            <DistanceMeters>92459.911451803</DistanceMeters>
          </Trackpoint>
          <Trackpoint>
            <Time>2018-08-26T10:21:12.000Z</Time>
            <Position>
              <LatitudeDegrees>42.84134410321712493896484375</LatitudeDegrees>
              <LongitudeDegrees>-1.6159087233245372772216796875</LongitudeDegrees>
            </Position>
            <AltitudeMeters>472.20001220703125</AltitudeMeters>
            <DistanceMeters>92467.722162171</DistanceMeters>
          </Trackpoint>
          <Trackpoint>
            <Time>2018-08-26T10:21:13.000Z</Time>
            <Position>
              <LatitudeDegrees>42.84133010543882846832275390625</LatitudeDegrees>
              <LongitudeDegrees>-1.61581434309482574462890625</LongitudeDegrees>
            </Position>
            <AltitudeMeters>472.600006103515625</AltitudeMeters>
            <DistanceMeters>92475.580704835</DistanceMeters>
          </Trackpoint>
          <Trackpoint>
            <Time>2018-08-26T10:21:14.000Z</Time>
            <Position>
              <LatitudeDegrees>42.84131635911762714385986328125</LatitudeDegrees>
              <LongitudeDegrees>-1.6157213039696216583251953125</LongitudeDegrees>
            </Position>
            <AltitudeMeters>472.79998779296875</AltitudeMeters>
            <DistanceMeters>92483.325236309</DistanceMeters>
          </Trackpoint>
          <Trackpoint>
            <Time>2018-08-26T10:21:15.000Z</Time>
            <Position>
              <LatitudeDegrees>42.84130177460610866546630859375</LatitudeDegrees>
              <LongitudeDegrees>-1.61562767811119556427001953125</LongitudeDegrees>
            </Position>
            <AltitudeMeters>473</AltitudeMeters>
            <DistanceMeters>92491.137102706</DistanceMeters>
          </Trackpoint>
          <Trackpoint>
            <Time>2018-08-26T10:21:16.000Z</Time>
            <Position>
              <LatitudeDegrees>42.84128802828490734100341796875</LatitudeDegrees>
              <LongitudeDegrees>-1.615533716976642608642578125</LongitudeDegrees>
            </Position>
            <AltitudeMeters>473.399993896484375</AltitudeMeters>
            <DistanceMeters>92498.957056521</DistanceMeters>
          </Trackpoint>
          <Trackpoint>
            <Time>2018-08-26T10:21:17.000Z</Time>
            <Position>
              <LatitudeDegrees>42.841274030506610870361328125</LatitudeDegrees>
              <LongitudeDegrees>-1.61543992348015308380126953125</LongitudeDegrees>
            </Position>
            <AltitudeMeters>473.600006103515625</AltitudeMeters>
            <DistanceMeters>92506.768922919</DistanceMeters>
          </Trackpoint>
          <Trackpoint>
            <Time>2018-08-26T10:21:18.000Z</Time>
            <Position>
              <LatitudeDegrees>42.8412597812712192535400390625</LatitudeDegrees>
              <LongitudeDegrees>-1.61534621380269527435302734375</LongitudeDegrees>
            </Position>
            <AltitudeMeters>473.79998779296875</AltitudeMeters>
            <DistanceMeters>92514.579055208</DistanceMeters>
          </Trackpoint>
          <Trackpoint>
            <Time>2018-08-26T10:21:19.000Z</Time>
            <Position>
              <LatitudeDegrees>42.84124620258808135986328125</LatitudeDegrees>
              <LongitudeDegrees>-1.6152525879442691802978515625</LongitudeDegrees>
            </Position>
            <AltitudeMeters>474</AltitudeMeters>
            <DistanceMeters>92522.368927717</DistanceMeters>
          </Trackpoint>
          <Trackpoint>
            <Time>2018-08-26T10:21:20.000Z</Time>
            <Position>
              <LatitudeDegrees>42.84123237244784832000732421875</LatitudeDegrees>
              <LongitudeDegrees>-1.61515946500003337860107421875</LongitudeDegrees>
            </Position>
            <AltitudeMeters>474</AltitudeMeters>
            <DistanceMeters>92530.123363805</DistanceMeters>
          </Trackpoint>
          <Trackpoint>
            <Time>2018-08-26T10:21:21.000Z</Time>
            <Position>
              <LatitudeDegrees>42.84121812321245670318603515625</LatitudeDegrees>
              <LongitudeDegrees>-1.6150653362274169921875</LongitudeDegrees>
            </Position>
            <AltitudeMeters>474</AltitudeMeters>
            <DistanceMeters>92537.967529846</DistanceMeters>
          </Trackpoint>
          <Trackpoint>
            <Time>2018-08-26T10:21:22.000Z</Time>
            <Position>
              <LatitudeDegrees>42.84120387397706508636474609375</LatitudeDegrees>
              <LongitudeDegrees>-1.6149709559977054595947265625</LongitudeDegrees>
            </Position>
            <AltitudeMeters>474.20001220703125</AltitudeMeters>
            <DistanceMeters>92545.83124166</DistanceMeters>
          </Trackpoint>
          <Trackpoint>
            <Time>2018-08-26T10:21:23.000Z</Time>
            <Position>
              <LatitudeDegrees>42.8411890380084514617919921875</LatitudeDegrees>
              <LongitudeDegrees>-1.6148764081299304962158203125</LongitudeDegrees>
            </Position>
            <AltitudeMeters>474.20001220703125</AltitudeMeters>
            <DistanceMeters>92553.722465086</DistanceMeters>
          </Trackpoint>
          <Trackpoint>
            <Time>2018-08-26T10:21:24.000Z</Time>
            <Position>
              <LatitudeDegrees>42.84117286093533039093017578125</LatitudeDegrees>
              <LongitudeDegrees>-1.61478194408118724822998046875</LongitudeDegrees>
            </Position>
            <AltitudeMeters>474.20001220703125</AltitudeMeters>
            <DistanceMeters>92561.639964102</DistanceMeters>
          </Trackpoint>
          <Trackpoint>
            <Time>2018-08-26T10:21:25.000Z</Time>
            <Position>
              <LatitudeDegrees>42.8411561809480190277099609375</LatitudeDegrees>
              <LongitudeDegrees>-1.61468823440372943878173828125</LongitudeDegrees>
            </Position>
            <AltitudeMeters>474.399993896484375</AltitudeMeters>
            <DistanceMeters>92569.510562835</DistanceMeters>
          </Trackpoint>
          <Trackpoint>
            <Time>2018-08-26T10:21:26.000Z</Time>
            <Position>
              <LatitudeDegrees>42.84113983623683452606201171875</LatitudeDegrees>
              <LongitudeDegrees>-1.61459452472627162933349609375</LongitudeDegrees>
            </Position>
            <AltitudeMeters>474.600006103515625</AltitudeMeters>
            <DistanceMeters>92577.371977668</DistanceMeters>
          </Trackpoint>
          <Trackpoint>
            <Time>2018-08-26T10:21:27.000Z</Time>
            <Position>
              <LatitudeDegrees>42.8411234915256500244140625</LatitudeDegrees>
              <LongitudeDegrees>-1.614502407610416412353515625</LongitudeDegrees>
            </Position>
            <AltitudeMeters>474.79998779296875</AltitudeMeters>
            <DistanceMeters>92585.107175566</DistanceMeters>
          </Trackpoint>
          <Trackpoint>
            <Time>2018-08-26T10:21:28.000Z</Time>
            <Position>
              <LatitudeDegrees>42.84110664390027523040771484375</LatitudeDegrees>
              <LongitudeDegrees>-1.6144083626568317413330078125</LongitudeDegrees>
            </Position>
            <AltitudeMeters>475</AltitudeMeters>
            <DistanceMeters>92593.007548239</DistanceMeters>
          </Trackpoint>
          <Trackpoint>
            <Time>2018-08-26T10:21:29.000Z</Time>
            <Position>
              <LatitudeDegrees>42.84108937717974185943603515625</LatitudeDegrees>
              <LongitudeDegrees>-1.61431406624615192413330078125</LongitudeDegrees>
            </Position>
            <AltitudeMeters>475</AltitudeMeters>
            <DistanceMeters>92600.939860176</DistanceMeters>
          </Trackpoint>
          <Trackpoint>
            <Time>2018-08-26T10:21:30.000Z</Time>
            <Position>
              <LatitudeDegrees>42.84107110463082790374755859375</LatitudeDegrees>
              <LongitudeDegrees>-1.6142206080257892608642578125</LongitudeDegrees>
            </Position>
            <AltitudeMeters>475</AltitudeMeters>
            <DistanceMeters>92608.834515812</DistanceMeters>
          </Trackpoint>
          <Trackpoint>
            <Time>2018-08-26T10:21:31.000Z</Time>
            <Position>
              <LatitudeDegrees>42.841052077710628509521484375</LatitudeDegrees>
              <LongitudeDegrees>-1.61412681452929973602294921875</LongitudeDegrees>
            </Position>
            <AltitudeMeters>475.20001220703125</AltitudeMeters>
            <DistanceMeters>92616.777066664</DistanceMeters>
          </Trackpoint>
          <Trackpoint>
            <Time>2018-08-26T10:21:32.000Z</Time>
            <Position>
              <LatitudeDegrees>42.84103271551430225372314453125</LatitudeDegrees>
              <LongitudeDegrees>-1.6140335239470005035400390625</LongitudeDegrees>
            </Position>
            <AltitudeMeters>475.20001220703125</AltitudeMeters>
            <DistanceMeters>92624.69000228</DistanceMeters>
          </Trackpoint>
          <Trackpoint>
            <Time>2018-08-26T10:21:33.000Z</Time>
            <Position>
              <LatitudeDegrees>42.841012515127658843994140625</LatitudeDegrees>
              <LongitudeDegrees>-1.613940484821796417236328125</LongitudeDegrees>
            </Position>
            <AltitudeMeters>475.20001220703125</AltitudeMeters>
            <DistanceMeters>92632.608641736</DistanceMeters>
          </Trackpoint>
          <Trackpoint>
            <Time>2018-08-26T10:21:34.000Z</Time>
            <Position>
              <LatitudeDegrees>42.8409912250936031341552734375</LatitudeDegrees>
              <LongitudeDegrees>-1.61384761333465576171875</LongitudeDegrees>
            </Position>
            <AltitudeMeters>475.20001220703125</AltitudeMeters>
            <DistanceMeters>92640.549487019</DistanceMeters>
          </Trackpoint>
          <Trackpoint>
            <Time>2018-08-26T10:21:35.000Z</Time>
            <Position>
              <LatitudeDegrees>42.8409687615931034088134765625</LatitudeDegrees>
              <LongitudeDegrees>-1.61375465802848339080810546875</LongitudeDegrees>
            </Position>
            <AltitudeMeters>475.20001220703125</AltitudeMeters>
            <DistanceMeters>92648.53682012</DistanceMeters>
          </Trackpoint>
          <Trackpoint>
            <Time>2018-08-26T10:21:36.000Z</Time>
            <Position>
              <LatitudeDegrees>42.84094453789293766021728515625</LatitudeDegrees>
              <LongitudeDegrees>-1.613662540912628173828125</LongitudeDegrees>
            </Position>
            <AltitudeMeters>475.20001220703125</AltitudeMeters>
            <DistanceMeters>92656.523587927</DistanceMeters>
          </Trackpoint>
          <Trackpoint>
            <Time>2018-08-26T10:21:37.000Z</Time>
            <Position>
              <LatitudeDegrees>42.84092006273567676544189453125</LatitudeDegrees>
              <LongitudeDegrees>-1.61356975324451923370361328125</LongitudeDegrees>
            </Position>
            <AltitudeMeters>475.20001220703125</AltitudeMeters>
            <DistanceMeters>92664.57061708</DistanceMeters>
          </Trackpoint>
          <Trackpoint>
            <Time>2018-08-26T10:21:38.000Z</Time>
            <Position>
              <LatitudeDegrees>42.84089474938809871673583984375</LatitudeDegrees>
              <LongitudeDegrees>-1.61347679793834686279296875</LongitudeDegrees>
            </Position>
            <AltitudeMeters>475.20001220703125</AltitudeMeters>
            <DistanceMeters>92672.662966205</DistanceMeters>
          </Trackpoint>
          <Trackpoint>
            <Time>2018-08-26T10:21:39.000Z</Time>
            <Position>
              <LatitudeDegrees>42.8408688493072986602783203125</LatitudeDegrees>
              <LongitudeDegrees>-1.6133840940892696380615234375</LongitudeDegrees>
            </Position>
            <AltitudeMeters>475</AltitudeMeters>
            <DistanceMeters>92680.759777614</DistanceMeters>
          </Trackpoint>
          <Trackpoint>
            <Time>2018-08-26T10:21:40.000Z</Time>
            <Position>
              <LatitudeDegrees>42.84084294922649860382080078125</LatitudeDegrees>
              <LongitudeDegrees>-1.61329130642116069793701171875</LongitudeDegrees>
            </Position>
            <AltitudeMeters>474.79998779296875</AltitudeMeters>
            <DistanceMeters>92688.86216342</DistanceMeters>
          </Trackpoint>
          <Trackpoint>
            <Time>2018-08-26T10:21:41.000Z</Time>
            <Position>
              <LatitudeDegrees>42.840816713869571685791015625</LatitudeDegrees>
              <LongitudeDegrees>-1.61319759674370288848876953125</LongitudeDegrees>
            </Position>
            <AltitudeMeters>474.79998779296875</AltitudeMeters>
            <DistanceMeters>92697.048812757</DistanceMeters>
          </Trackpoint>
          <Trackpoint>
            <Time>2018-08-26T10:21:42.000Z</Time>
            <Position>
              <LatitudeDegrees>42.8407895565032958984375</LatitudeDegrees>
              <LongitudeDegrees>-1.6131033003330230712890625</LongitudeDegrees>
            </Position>
            <AltitudeMeters>474.600006103515625</AltitudeMeters>
            <DistanceMeters>92705.316683019</DistanceMeters>
          </Trackpoint>
          <Trackpoint>
            <Time>2018-08-26T10:21:43.000Z</Time>
            <Position>
              <LatitudeDegrees>42.84076072275638580322265625</LatitudeDegrees>
              <LongitudeDegrees>-1.61301009356975555419921875</LongitudeDegrees>
            </Position>
            <AltitudeMeters>474.600006103515625</AltitudeMeters>
            <DistanceMeters>92713.572530462</DistanceMeters>
          </Trackpoint>
          <Trackpoint>
            <Time>2018-08-26T10:21:44.000Z</Time>
            <Position>
              <LatitudeDegrees>42.84073079936206340789794921875</LatitudeDegrees>
              <LongitudeDegrees>-1.6129163838922977447509765625</LongitudeDegrees>
            </Position>
            <AltitudeMeters>474.399993896484375</AltitudeMeters>
            <DistanceMeters>92721.914338964</DistanceMeters>
          </Trackpoint>
          <Trackpoint>
            <Time>2018-08-26T10:21:45.000Z</Time>
            <Position>
              <LatitudeDegrees>42.84069995395839214324951171875</LatitudeDegrees>
              <LongitudeDegrees>-1.6128231771290302276611328125</LongitudeDegrees>
            </Position>
            <AltitudeMeters>474.399993896484375</AltitudeMeters>
            <DistanceMeters>92730.260476375</DistanceMeters>
          </Trackpoint>
          <Trackpoint>
            <Time>2018-08-26T10:21:46.000Z</Time>
            <Position>
              <LatitudeDegrees>42.8406680189073085784912109375</LatitudeDegrees>
              <LongitudeDegrees>-1.6127296350896358489990234375</LongitudeDegrees>
            </Position>
            <AltitudeMeters>474.399993896484375</AltitudeMeters>
            <DistanceMeters>92738.680937184</DistanceMeters>
          </Trackpoint>
          <Trackpoint>
            <Time>2018-08-26T10:21:47.000Z</Time>
            <Position>
              <LatitudeDegrees>42.8406353294849395751953125</LatitudeDegrees>
              <LongitudeDegrees>-1.6126344166696071624755859375</LongitudeDegrees>
            </Position>
            <AltitudeMeters>474.399993896484375</AltitudeMeters>
            <DistanceMeters>92747.260749721</DistanceMeters>
          </Trackpoint>
          <Trackpoint>
            <Time>2018-08-26T10:21:48.000Z</Time>
            <Position>
              <LatitudeDegrees>42.84060188569128513336181640625</LatitudeDegrees>
              <LongitudeDegrees>-1.6125385276973247528076171875</LongitudeDegrees>
            </Position>
            <AltitudeMeters>474.20001220703125</AltitudeMeters>
            <DistanceMeters>92755.926956838</DistanceMeters>
          </Trackpoint>
          <Trackpoint>
            <Time>2018-08-26T10:21:49.000Z</Time>
            <Position>
              <LatitudeDegrees>42.84056760370731353759765625</LatitudeDegrees>
              <LongitudeDegrees>-1.61244221962988376617431640625</LongitudeDegrees>
            </Position>
            <AltitudeMeters>474.20001220703125</AltitudeMeters>
            <DistanceMeters>92764.664248538</DistanceMeters>
          </Trackpoint>
          <Trackpoint>
            <Time>2018-08-26T10:21:50.000Z</Time>
            <Position>
              <LatitudeDegrees>42.8405320644378662109375</LatitudeDegrees>
              <LongitudeDegrees>-1.6123454086482524871826171875</LongitudeDegrees>
            </Position>
            <AltitudeMeters>474.20001220703125</AltitudeMeters>
            <DistanceMeters>92773.500200153</DistanceMeters>
          </Trackpoint>
          <Trackpoint>
            <Time>2018-08-26T10:21:51.000Z</Time>
            <Position>
              <LatitudeDegrees>42.84049543552100658416748046875</LatitudeDegrees>
              <LongitudeDegrees>-1.61224792711436748504638671875</LongitudeDegrees>
            </Position>
            <AltitudeMeters>474</AltitudeMeters>
            <DistanceMeters>92782.43978496</DistanceMeters>
          </Trackpoint>
          <Trackpoint>
            <Time>2018-08-26T10:21:52.000Z</Time>
            <Position>
              <LatitudeDegrees>42.84045704640448093414306640625</LatitudeDegrees>
              <LongitudeDegrees>-1.61215002648532390594482421875</LongitudeDegrees>
            </Position>
            <AltitudeMeters>474</AltitudeMeters>
            <DistanceMeters>92791.500770283</DistanceMeters>
          </Trackpoint>
          <Trackpoint>
            <Time>2018-08-26T10:21:53.000Z</Time>
            <Position>
              <LatitudeDegrees>42.8404165618121623992919921875</LatitudeDegrees>
              <LongitudeDegrees>-1.61205179058015346527099609375</LongitudeDegrees>
            </Position>
            <AltitudeMeters>473.79998779296875</AltitudeMeters>
            <DistanceMeters>92800.697274835</DistanceMeters>
          </Trackpoint>
          <Trackpoint>
            <Time>2018-08-26T10:21:54.000Z</Time>
            <Position>
              <LatitudeDegrees>42.84037473611533641815185546875</LatitudeDegrees>
              <LongitudeDegrees>-1.61195305176079273223876953125</LongitudeDegrees>
            </Position>
            <AltitudeMeters>473.600006103515625</AltitudeMeters>
            <DistanceMeters>92810.004073063</DistanceMeters>
          </Trackpoint>
          <Trackpoint>
            <Time>2018-08-26T10:21:55.000Z</Time>
            <Position>
              <LatitudeDegrees>42.84033182077109813690185546875</LatitudeDegrees>
              <LongitudeDegrees>-1.61185263656079769134521484375</LongitudeDegrees>
            </Position>
            <AltitudeMeters>473.399993896484375</AltitudeMeters>
            <DistanceMeters>92819.489624269</DistanceMeters>
          </Trackpoint>
          <Trackpoint>
            <Time>2018-08-26T10:21:56.000Z</Time>
            <Position>
              <LatitudeDegrees>42.840287648141384124755859375</LatitudeDegrees>
              <LongitudeDegrees>-1.611750461161136627197265625</LongitudeDegrees>
            </Position>
            <AltitudeMeters>473.20001220703125</AltitudeMeters>
            <DistanceMeters>92829.169297465</DistanceMeters>
          </Trackpoint>
          <Trackpoint>
            <Time>2018-08-26T10:21:57.000Z</Time>
            <Position>
              <LatitudeDegrees>42.84024246968328952789306640625</LatitudeDegrees>
              <LongitudeDegrees>-1.6116470284759998321533203125</LongitudeDegrees>
            </Position>
            <AltitudeMeters>472.79998779296875</AltitudeMeters>
            <DistanceMeters>92838.995261914</DistanceMeters>
          </Trackpoint>
          <Trackpoint>
            <Time>2018-08-26T10:21:58.000Z</Time>
            <Position>
              <LatitudeDegrees>42.8401956148445606231689453125</LatitudeDegrees>
              <LongitudeDegrees>-1.6115410812199115753173828125</LongitudeDegrees>
            </Position>
            <AltitudeMeters>472.20001220703125</AltitudeMeters>
            <DistanceMeters>92849.093163835</DistanceMeters>
          </Trackpoint>
          <Trackpoint>
            <Time>2018-08-26T10:21:59.000Z</Time>
            <Position>
              <LatitudeDegrees>42.8401471674442291259765625</LatitudeDegrees>
              <LongitudeDegrees>-1.611434631049633026123046875</LongitudeDegrees>
            </Position>
            <AltitudeMeters>472</AltitudeMeters>
            <DistanceMeters>92859.318144278</DistanceMeters>
          </Trackpoint>
          <Trackpoint>
            <Time>2018-08-26T10:22:00.000Z</Time>
            <Position>
              <LatitudeDegrees>42.84009779803454875946044921875</LatitudeDegrees>
              <LongitudeDegrees>-1.61132692359387874603271484375</LongitudeDegrees>
            </Position>
            <AltitudeMeters>471.399993896484375</AltitudeMeters>
            <DistanceMeters>92869.684770526</DistanceMeters>
          </Trackpoint>
          <Trackpoint>
            <Time>2018-08-26T10:22:01.000Z</Time>
            <Position>
              <LatitudeDegrees>42.84004666842520236968994140625</LatitudeDegrees>
              <LongitudeDegrees>-1.6112178750336170196533203125</LongitudeDegrees>
            </Position>
            <AltitudeMeters>470.79998779296875</AltitudeMeters>
            <DistanceMeters>92880.248561734</DistanceMeters>
          </Trackpoint>
          <Trackpoint>
            <Time>2018-08-26T10:22:02.000Z</Time>
            <Position>
              <LatitudeDegrees>42.83999453298747539520263671875</LatitudeDegrees>
              <LongitudeDegrees>-1.61110706627368927001953125</LongitudeDegrees>
            </Position>
            <AltitudeMeters>470.600006103515625</AltitudeMeters>
            <DistanceMeters>92890.993726107</DistanceMeters>
          </Trackpoint>
          <Trackpoint>
            <Time>2018-08-26T10:22:03.000Z</Time>
            <Position>
              <LatitudeDegrees>42.83994206227362155914306640625</LatitudeDegrees>
              <LongitudeDegrees>-1.61099449731409549713134765625</LongitudeDegrees>
            </Position>
            <AltitudeMeters>470.20001220703125</AltitudeMeters>
            <DistanceMeters>92901.87998916</DistanceMeters>
          </Trackpoint>
          <Trackpoint>
            <Time>2018-08-26T10:22:04.000Z</Time>
            <Position>
              <LatitudeDegrees>42.8398896753787994384765625</LatitudeDegrees>
              <LongitudeDegrees>-1.6108797490596771240234375</LongitudeDegrees>
            </Position>
            <AltitudeMeters>469.79998779296875</AltitudeMeters>
            <DistanceMeters>92912.912095501</DistanceMeters>
          </Trackpoint>
          <Trackpoint>
            <Time>2018-08-26T10:22:05.000Z</Time>
            <Position>
              <LatitudeDegrees>42.8398375399410724639892578125</LatitudeDegrees>
              <LongitudeDegrees>-1.61076298914849758148193359375</LongitudeDegrees>
            </Position>
            <AltitudeMeters>469.20001220703125</AltitudeMeters>
            <DistanceMeters>92924.069138289</DistanceMeters>
          </Trackpoint>
          <Trackpoint>
            <Time>2018-08-26T10:22:06.000Z</Time>
            <Position>
              <LatitudeDegrees>42.8397849015891551971435546875</LatitudeDegrees>
              <LongitudeDegrees>-1.6106448881328105926513671875</LongitudeDegrees>
            </Position>
            <AltitudeMeters>468.79998779296875</AltitudeMeters>
            <DistanceMeters>92935.348533087</DistanceMeters>
          </Trackpoint>
          <Trackpoint>
            <Time>2018-08-26T10:22:07.000Z</Time>
            <Position>
              <LatitudeDegrees>42.8397309221327304840087890625</LatitudeDegrees>
              <LongitudeDegrees>-1.6105258651077747344970703125</LongitudeDegrees>
            </Position>
            <AltitudeMeters>468.600006103515625</AltitudeMeters>
            <DistanceMeters>92946.770728343</DistanceMeters>
          </Trackpoint>
          <Trackpoint>
            <Time>2018-08-26T10:22:08.000Z</Time>
            <Position>
              <LatitudeDegrees>42.83967618830502033233642578125</LatitudeDegrees>
              <LongitudeDegrees>-1.6104061715304851531982421875</LongitudeDegrees>
            </Position>
            <AltitudeMeters>468</AltitudeMeters>
            <DistanceMeters>92958.282696111</DistanceMeters>
          </Trackpoint>
          <Trackpoint>
            <Time>2018-08-26T10:22:09.000Z</Time>
            <Position>
              <LatitudeDegrees>42.83962212502956390380859375</LatitudeDegrees>
              <LongitudeDegrees>-1.61028471775352954864501953125</LongitudeDegrees>
            </Position>
            <AltitudeMeters>467.399993896484375</AltitudeMeters>
            <DistanceMeters>92969.87868112</DistanceMeters>
          </Trackpoint>
          <Trackpoint>
            <Time>2018-08-26T10:22:10.000Z</Time>
            <Position>
              <LatitudeDegrees>42.83956848084926605224609375</LatitudeDegrees>
              <LongitudeDegrees>-1.6101610846817493438720703125</LongitudeDegrees>
            </Position>
            <AltitudeMeters>466.79998779296875</AltitudeMeters>
            <DistanceMeters>92981.602836682</DistanceMeters>
          </Trackpoint>
          <Trackpoint>
            <Time>2018-08-26T10:22:11.000Z</Time>
            <Position>
              <LatitudeDegrees>42.83951559104025363922119140625</LatitudeDegrees>
              <LongitudeDegrees>-1.6100353561341762542724609375</LongitudeDegrees>
            </Position>
            <AltitudeMeters>466</AltitudeMeters>
            <DistanceMeters>92993.432422247</DistanceMeters>
          </Trackpoint>
          <Trackpoint>
            <Time>2018-08-26T10:22:12.000Z</Time>
            <Position>
              <LatitudeDegrees>42.839463539421558380126953125</LatitudeDegrees>
              <LongitudeDegrees>-1.60990769974887371063232421875</LongitudeDegrees>
            </Position>
            <AltitudeMeters>465.399993896484375</AltitudeMeters>
            <DistanceMeters>93005.352878737</DistanceMeters>
          </Trackpoint>
          <Trackpoint>
            <Time>2018-08-26T10:22:13.000Z</Time>
            <Position>
              <LatitudeDegrees>42.83941282890737056732177734375</LatitudeDegrees>
              <LongitudeDegrees>-1.6097788698971271514892578125</LongitudeDegrees>
            </Position>
            <AltitudeMeters>464.79998779296875</AltitudeMeters>
            <DistanceMeters>93017.286206249</DistanceMeters>
          </Trackpoint>
          <Trackpoint>
            <Time>2018-08-26T10:22:14.000Z</Time>
            <Position>
              <LatitudeDegrees>42.83936320804059505462646484375</LatitudeDegrees>
              <LongitudeDegrees>-1.60964836366474628448486328125</LongitudeDegrees>
            </Position>
            <AltitudeMeters>464.20001220703125</AltitudeMeters>
            <DistanceMeters>93029.284058082</DistanceMeters>
          </Trackpoint>
          <Trackpoint>
            <Time>2018-08-26T10:22:15.000Z</Time>
            <Position>
              <LatitudeDegrees>42.839316017925739288330078125</LatitudeDegrees>
              <LongitudeDegrees>-1.6095163486897945404052734375</LongitudeDegrees>
            </Position>
            <AltitudeMeters>462.79998779296875</AltitudeMeters>
            <DistanceMeters>93041.2702383</DistanceMeters>
          </Trackpoint>
          <Trackpoint>
            <Time>2018-08-26T10:22:16.000Z</Time>
            <Position>
              <LatitudeDegrees>42.8392700850963592529296875</LatitudeDegrees>
              <LongitudeDegrees>-1.60938450135290622711181640625</LongitudeDegrees>
            </Position>
            <AltitudeMeters>462</AltitudeMeters>
            <DistanceMeters>93053.183496103</DistanceMeters>
          </Trackpoint>
          <Trackpoint>
            <Time>2018-08-26T10:22:17.000Z</Time>
            <Position>
              <LatitudeDegrees>42.839224822819232940673828125</LatitudeDegrees>
              <LongitudeDegrees>-1.6092534922063350677490234375</LongitudeDegrees>
            </Position>
            <AltitudeMeters>461.399993896484375</AltitudeMeters>
            <DistanceMeters>93065.002771994</DistanceMeters>
          </Trackpoint>
          <Trackpoint>
            <Time>2018-08-26T10:22:18.000Z</Time>
            <Position>
              <LatitudeDegrees>42.8391802310943603515625</LatitudeDegrees>
              <LongitudeDegrees>-1.6091227345168590545654296875</LongitudeDegrees>
            </Position>
            <AltitudeMeters>460.79998779296875</AltitudeMeters>
            <DistanceMeters>93076.772282291</DistanceMeters>
          </Trackpoint>
          <Trackpoint>
            <Time>2018-08-26T10:22:19.000Z</Time>
            <Position>
              <LatitudeDegrees>42.83913371153175830841064453125</LatitudeDegrees>
              <LongitudeDegrees>-1.60899440757930278778076171875</LongitudeDegrees>
            </Position>
            <AltitudeMeters>460</AltitudeMeters>
            <DistanceMeters>93088.455545343</DistanceMeters>
          </Trackpoint>
          <Trackpoint>
            <Time>2018-08-26T10:22:20.000Z</Time>
            <Position>
              <LatitudeDegrees>42.839082665741443634033203125</LatitudeDegrees>
              <LongitudeDegrees>-1.608872115612030029296875</LongitudeDegrees>
            </Position>
            <AltitudeMeters>459.399993896484375</AltitudeMeters>
            <DistanceMeters>93099.940026025</DistanceMeters>
          </Trackpoint>
          <Trackpoint>
            <Time>2018-08-26T10:22:21.000Z</Time>
            <Position>
              <LatitudeDegrees>42.8390265069901943206787109375</LatitudeDegrees>
              <LongitudeDegrees>-1.6087586246430873870849609375</LongitudeDegrees>
            </Position>
            <AltitudeMeters>459.20001220703125</AltitudeMeters>
            <DistanceMeters>93111.114456528</DistanceMeters>
          </Trackpoint>
          <Trackpoint>
            <Time>2018-08-26T10:22:22.000Z</Time>
            <Position>
              <LatitudeDegrees>42.83896590583026409149169921875</LatitudeDegrees>
              <LongitudeDegrees>-1.60865125246345996856689453125</LongitudeDegrees>
            </Position>
            <AltitudeMeters>459</AltitudeMeters>
            <DistanceMeters>93122.173132999</DistanceMeters>
          </Trackpoint>
          <Trackpoint>
            <Time>2018-08-26T10:22:23.000Z</Time>
            <Position>
              <LatitudeDegrees>42.83890304155647754669189453125</LatitudeDegrees>
              <LongitudeDegrees>-1.60854916088283061981201171875</LongitudeDegrees>
            </Position>
            <AltitudeMeters>458.399993896484375</AltitudeMeters>
            <DistanceMeters>93133.053588052</DistanceMeters>
          </Trackpoint>
          <Trackpoint>
            <Time>2018-08-26T10:22:24.000Z</Time>
            <Position>
              <LatitudeDegrees>42.838842608034610748291015625</LatitudeDegrees>
              <LongitudeDegrees>-1.6084478236734867095947265625</LongitudeDegrees>
            </Position>
            <AltitudeMeters>457.79998779296875</AltitudeMeters>
            <DistanceMeters>93143.714382682</DistanceMeters>
          </Trackpoint>
          <Trackpoint>
            <Time>2018-08-26T10:22:25.000Z</Time>
            <Position>
              <LatitudeDegrees>42.8387884609401226043701171875</LatitudeDegrees>
              <LongitudeDegrees>-1.6083423793315887451171875</LongitudeDegrees>
            </Position>
            <AltitudeMeters>457.399993896484375</AltitudeMeters>
            <DistanceMeters>93154.220745251</DistanceMeters>
          </Trackpoint>
          <Trackpoint>
            <Time>2018-08-26T10:22:26.000Z</Time>
            <Position>
              <LatitudeDegrees>42.83874076791107654571533203125</LatitudeDegrees>
              <LongitudeDegrees>-1.60823383368551731109619140625</LongitudeDegrees>
            </Position>
            <AltitudeMeters>457</AltitudeMeters>
            <DistanceMeters>93164.548536059</DistanceMeters>
          </Trackpoint>
          <Trackpoint>
            <Time>2018-08-26T10:22:27.000Z</Time>
            <Position>
              <LatitudeDegrees>42.83869517035782337188720703125</LatitudeDegrees>
              <LongitudeDegrees>-1.60812956281006336212158203125</LongitudeDegrees>
            </Position>
            <AltitudeMeters>456.399993896484375</AltitudeMeters>
            <DistanceMeters>93174.456865438</DistanceMeters>
          </Trackpoint>
          <Trackpoint>
            <Time>2018-08-26T10:22:28.000Z</Time>
            <Position>
              <LatitudeDegrees>42.83864848315715789794921875</LatitudeDegrees>
              <LongitudeDegrees>-1.608032919466495513916015625</LongitudeDegrees>
            </Position>
            <AltitudeMeters>456</AltitudeMeters>
            <DistanceMeters>93183.902348765</DistanceMeters>
          </Trackpoint>
          <Trackpoint>
            <Time>2018-08-26T10:22:29.000Z</Time>
            <Position>
              <LatitudeDegrees>42.8385993652045726776123046875</LatitudeDegrees>
              <LongitudeDegrees>-1.60794365219771862030029296875</LongitudeDegrees>
            </Position>
            <AltitudeMeters>455.79998779296875</AltitudeMeters>
            <DistanceMeters>93193.01104474</DistanceMeters>
          </Trackpoint>
          <Trackpoint>
            <Time>2018-08-26T10:22:30.000Z</Time>
            <Position>
              <LatitudeDegrees>42.83854764886200428009033203125</LatitudeDegrees>
              <LongitudeDegrees>-1.60785933025181293487548828125</LongitudeDegrees>
            </Position>
            <AltitudeMeters>455.79998779296875</AltitudeMeters>
            <DistanceMeters>93201.982895241</DistanceMeters>
          </Trackpoint>
          <Trackpoint>
            <Time>2018-08-26T10:22:31.000Z</Time>
            <Position>
              <LatitudeDegrees>42.83849383704364299774169921875</LatitudeDegrees>
              <LongitudeDegrees>-1.6077823005616664886474609375</LongitudeDegrees>
            </Position>
            <AltitudeMeters>455.600006103515625</AltitudeMeters>
            <DistanceMeters>93210.666278125</DistanceMeters>
          </Trackpoint>
          <Trackpoint>
            <Time>2018-08-26T10:22:32.000Z</Time>
            <Position>
              <LatitudeDegrees>42.83843985758721828460693359375</LatitudeDegrees>
              <LongitudeDegrees>-1.6077139042317867279052734375</LongitudeDegrees>
            </Position>
            <AltitudeMeters>455.600006103515625</AltitudeMeters>
            <DistanceMeters>93218.868355271</DistanceMeters>
          </Trackpoint>
          <Trackpoint>
            <Time>2018-08-26T10:22:33.000Z</Time>
            <Position>
              <LatitudeDegrees>42.83838537521660327911376953125</LatitudeDegrees>
              <LongitudeDegrees>-1.6076481901109218597412109375</LongitudeDegrees>
            </Position>
            <AltitudeMeters>455.600006103515625</AltitudeMeters>
            <DistanceMeters>93226.964051339</DistanceMeters>
          </Trackpoint>
          <Trackpoint>
            <Time>2018-08-26T10:22:34.000Z</Time>
            <Position>
              <LatitudeDegrees>42.838329635560512542724609375</LatitudeDegrees>
              <LongitudeDegrees>-1.607584655284881591796875</LongitudeDegrees>
            </Position>
            <AltitudeMeters>455.600006103515625</AltitudeMeters>
            <DistanceMeters>93235.049144003</DistanceMeters>
          </Trackpoint>
          <Trackpoint>
            <Time>2018-08-26T10:22:35.000Z</Time>
            <Position>
              <LatitudeDegrees>42.83827356062829494476318359375</LatitudeDegrees>
              <LongitudeDegrees>-1.6075264848768711090087890625</LongitudeDegrees>
            </Position>
            <AltitudeMeters>455.600006103515625</AltitudeMeters>
            <DistanceMeters>93242.891007339</DistanceMeters>
          </Trackpoint>
          <Trackpoint>
            <Time>2018-08-26T10:22:36.000Z</Time>
            <Position>
              <LatitudeDegrees>42.838216312229633331298828125</LatitudeDegrees>
              <LongitudeDegrees>-1.6074693202972412109375</LongitudeDegrees>
            </Position>
            <AltitudeMeters>455.600006103515625</AltitudeMeters>
            <DistanceMeters>93250.787950287</DistanceMeters>
          </Trackpoint>
          <Trackpoint>
            <Time>2018-08-26T10:22:37.000Z</Time>
            <Position>
              <LatitudeDegrees>42.83816157840192317962646484375</LatitudeDegrees>
              <LongitudeDegrees>-1.607405282557010650634765625</LongitudeDegrees>
            </Position>
            <AltitudeMeters>455.600006103515625</AltitudeMeters>
            <DistanceMeters>93258.814755095</DistanceMeters>
          </Trackpoint>
          <Trackpoint>
            <Time>2018-08-26T10:22:38.000Z</Time>
            <Position>
              <LatitudeDegrees>42.83811162225902080535888671875</LatitudeDegrees>
              <LongitudeDegrees>-1.60733546130359172821044921875</LongitudeDegrees>
            </Position>
            <AltitudeMeters>455.600006103515625</AltitudeMeters>
            <DistanceMeters>93266.776610195</DistanceMeters>
          </Trackpoint>
          <Trackpoint>
            <Time>2018-08-26T10:22:39.000Z</Time>
            <Position>
              <LatitudeDegrees>42.8380659408867359161376953125</LatitudeDegrees>
              <LongitudeDegrees>-1.6072676517069339752197265625</LongitudeDegrees>
            </Position>
            <AltitudeMeters>455.79998779296875</AltitudeMeters>
            <DistanceMeters>93274.292136002</DistanceMeters>
          </Trackpoint>
          <Trackpoint>
            <Time>2018-08-26T10:22:40.000Z</Time>
            <Position>
              <LatitudeDegrees>42.83802176825702190399169921875</LatitudeDegrees>
              <LongitudeDegrees>-1.60719799809157848358154296875</LongitudeDegrees>
            </Position>
            <AltitudeMeters>456</AltitudeMeters>
            <DistanceMeters>93281.808262547</DistanceMeters>
          </Trackpoint>
          <Trackpoint>
            <Time>2018-08-26T10:22:41.000Z</Time>
            <Position>
              <LatitudeDegrees>42.83798195421695709228515625</LatitudeDegrees>
              <LongitudeDegrees>-1.60712121985852718353271484375</LongitudeDegrees>
            </Position>
            <AltitudeMeters>456.399993896484375</AltitudeMeters>
            <DistanceMeters>93289.482515512</DistanceMeters>
          </Trackpoint>
          <Trackpoint>
            <Time>2018-08-26T10:22:42.000Z</Time>
            <Position>
              <LatitudeDegrees>42.83794331364333629608154296875</LatitudeDegrees>
              <LongitudeDegrees>-1.60704762674868106842041015625</LongitudeDegrees>
            </Position>
            <AltitudeMeters>457</AltitudeMeters>
            <DistanceMeters>93296.869582044</DistanceMeters>
          </Trackpoint>
          <Trackpoint>
            <Time>2018-08-26T10:22:43.000Z</Time>
            <Position>
              <LatitudeDegrees>42.8379048407077789306640625</LatitudeDegrees>
              <LongitudeDegrees>-1.60697386600077152252197265625</LongitudeDegrees>
            </Position>
            <AltitudeMeters>457.399993896484375</AltitudeMeters>
            <DistanceMeters>93304.256648576</DistanceMeters>
          </Trackpoint>
          <Trackpoint>
            <Time>2018-08-26T10:22:44.000Z</Time>
            <Position>
              <LatitudeDegrees>42.8378687985241413116455078125</LatitudeDegrees>
              <LongitudeDegrees>-1.60689339973032474517822265625</LongitudeDegrees>
            </Position>
            <AltitudeMeters>457.600006103515625</AltitudeMeters>
            <DistanceMeters>93311.952052485</DistanceMeters>
          </Trackpoint>
          <Trackpoint>
            <Time>2018-08-26T10:22:45.000Z</Time>
            <Position>
              <LatitudeDegrees>42.83783216960728168487548828125</LatitudeDegrees>
              <LongitudeDegrees>-1.60680958069860935211181640625</LongitudeDegrees>
            </Position>
            <AltitudeMeters>458.399993896484375</AltitudeMeters>
            <DistanceMeters>93319.915041672</DistanceMeters>
          </Trackpoint>
          <Trackpoint>
            <Time>2018-08-26T10:22:46.000Z</Time>
            <Position>
              <LatitudeDegrees>42.83779730089008808135986328125</LatitudeDegrees>
              <LongitudeDegrees>-1.606720983982086181640625</LongitudeDegrees>
            </Position>
            <AltitudeMeters>459</AltitudeMeters>
            <DistanceMeters>93328.121521436</DistanceMeters>
          </Trackpoint>
          <Trackpoint>
            <Time>2018-08-26T10:22:47.000Z</Time>
            <Position>
              <LatitudeDegrees>42.83776276744902133941650390625</LatitudeDegrees>
              <LongitudeDegrees>-1.6066272743046283721923828125</LongitudeDegrees>
            </Position>
            <AltitudeMeters>459.399993896484375</AltitudeMeters>
            <DistanceMeters>93336.681313505</DistanceMeters>
          </Trackpoint>
          <Trackpoint>
            <Time>2018-08-26T10:22:48.000Z</Time>
            <Position>
              <LatitudeDegrees>42.83772840164601802825927734375</LatitudeDegrees>
              <LongitudeDegrees>-1.6065317206084728240966796875</LongitudeDegrees>
            </Position>
            <AltitudeMeters>459.600006103515625</AltitudeMeters>
            <DistanceMeters>93345.366775992</DistanceMeters>
          </Trackpoint>
          <Trackpoint>
            <Time>2018-08-26T10:22:49.000Z</Time>
            <Position>
              <LatitudeDegrees>42.8376924432814121246337890625</LatitudeDegrees>
              <LongitudeDegrees>-1.60643524490296840667724609375</LongitudeDegrees>
            </Position>
            <AltitudeMeters>459.600006103515625</AltitudeMeters>
            <DistanceMeters>93354.199661165</DistanceMeters>
          </Trackpoint>
          <Trackpoint>
            <Time>2018-08-26T10:22:50.000Z</Time>
            <Position>
              <LatitudeDegrees>42.83765480853617191314697265625</LatitudeDegrees>
              <LongitudeDegrees>-1.606339104473590850830078125</LongitudeDegrees>
            </Position>
            <AltitudeMeters>459.600006103515625</AltitudeMeters>
            <DistanceMeters>93363.0936743</DistanceMeters>
          </Trackpoint>
          <Trackpoint>
            <Time>2018-08-26T10:22:51.000Z</Time>
            <Position>
              <LatitudeDegrees>42.83761424012482166290283203125</LatitudeDegrees>
              <LongitudeDegrees>-1.60624614916741847991943359375</LongitudeDegrees>
            </Position>
            <AltitudeMeters>459.600006103515625</AltitudeMeters>
            <DistanceMeters>93371.921957813</DistanceMeters>
          </Trackpoint>
          <Trackpoint>
            <Time>2018-08-26T10:22:52.000Z</Time>
            <Position>
              <LatitudeDegrees>42.83756897784769535064697265625</LatitudeDegrees>
              <LongitudeDegrees>-1.60615629516541957855224609375</LongitudeDegrees>
            </Position>
            <AltitudeMeters>459.600006103515625</AltitudeMeters>
            <DistanceMeters>93380.819016322</DistanceMeters>
          </Trackpoint>
          <Trackpoint>
            <Time>2018-08-26T10:22:53.000Z</Time>
            <Position>
              <LatitudeDegrees>42.83751818351447582244873046875</LatitudeDegrees>
              <LongitudeDegrees>-1.606070213019847869873046875</LongitudeDegrees>
            </Position>
            <AltitudeMeters>459.600006103515625</AltitudeMeters>
            <DistanceMeters>93389.836545827</DistanceMeters>
          </Trackpoint>
          <Trackpoint>
            <Time>2018-08-26T10:22:54.000Z</Time>
            <Position>
              <LatitudeDegrees>42.83746286295354366302490234375</LatitudeDegrees>
              <LongitudeDegrees>-1.6059892438352108001708984375</LongitudeDegrees>
            </Position>
            <AltitudeMeters>459.600006103515625</AltitudeMeters>
            <DistanceMeters>93398.868583836</DistanceMeters>
          </Trackpoint>
          <Trackpoint>
            <Time>2018-08-26T10:22:55.000Z</Time>
            <Position>
              <LatitudeDegrees>42.83740469254553318023681640625</LatitudeDegrees>
              <LongitudeDegrees>-1.60591020248830318450927734375</LongitudeDegrees>
            </Position>
            <AltitudeMeters>459.600006103515625</AltitudeMeters>
            <DistanceMeters>93408.008454578</DistanceMeters>
          </Trackpoint>
          <Trackpoint>
            <Time>2018-08-26T10:22:56.000Z</Time>
            <Position>
              <LatitudeDegrees>42.837345264852046966552734375</LatitudeDegrees>
              <LongitudeDegrees>-1.6058336757123470306396484375</LongitudeDegrees>
            </Position>
            <AltitudeMeters>459.600006103515625</AltitudeMeters>
            <DistanceMeters>93417.105742669</DistanceMeters>
          </Trackpoint>
          <Trackpoint>
            <Time>2018-08-26T10:22:57.000Z</Time>
            <Position>
              <LatitudeDegrees>42.837284244596958160400390625</LatitudeDegrees>
              <LongitudeDegrees>-1.60575865767896175384521484375</LongitudeDegrees>
            </Position>
            <AltitudeMeters>459</AltitudeMeters>
            <DistanceMeters>93426.250058273</DistanceMeters>
          </Trackpoint>
          <Trackpoint>
            <Time>2018-08-26T10:22:58.000Z</Time>
            <Position>
              <LatitudeDegrees>42.83722314052283763885498046875</LatitudeDegrees>
              <LongitudeDegrees>-1.60568707622587680816650390625</LongitudeDegrees>
            </Position>
            <AltitudeMeters>458.20001220703125</AltitudeMeters>
            <DistanceMeters>93435.215867802</DistanceMeters>
          </Trackpoint>
          <Trackpoint>
            <Time>2018-08-26T10:22:59.000Z</Time>
            <Position>
              <LatitudeDegrees>42.8371618688106536865234375</LatitudeDegrees>
              <LongitudeDegrees>-1.6056157462298870086669921875</LongitudeDegrees>
            </Position>
            <AltitudeMeters>458</AltitudeMeters>
            <DistanceMeters>93444.182684442</DistanceMeters>
          </Trackpoint>
          <Trackpoint>
            <Time>2018-08-26T10:23:00.000Z</Time>
            <Position>
              <LatitudeDegrees>42.8371013514697551727294921875</LatitudeDegrees>
              <LongitudeDegrees>-1.60554542206227779388427734375</LongitudeDegrees>
            </Position>
            <AltitudeMeters>457.79998779296875</AltitudeMeters>
            <DistanceMeters>93453.031911692</DistanceMeters>
          </Trackpoint>
          <Trackpoint>
            <Time>2018-08-26T10:23:01.000Z</Time>
            <Position>
              <LatitudeDegrees>42.83704108558595180511474609375</LatitudeDegrees>
              <LongitudeDegrees>-1.60547685809433460235595703125</LongitudeDegrees>
            </Position>
            <AltitudeMeters>457.79998779296875</AltitudeMeters>
            <DistanceMeters>93461.767136128</DistanceMeters>
          </Trackpoint>
          <Trackpoint>
            <Time>2018-08-26T10:23:02.000Z</Time>
            <Position>
              <LatitudeDegrees>42.8369813226163387298583984375</LatitudeDegrees>
              <LongitudeDegrees>-1.60541030578315258026123046875</LongitudeDegrees>
            </Position>
            <AltitudeMeters>457.600006103515625</AltitudeMeters>
            <DistanceMeters>93470.354838633</DistanceMeters>
          </Trackpoint>
          <Trackpoint>
            <Time>2018-08-26T10:23:03.000Z</Time>
            <Position>
              <LatitudeDegrees>42.83692105673253536224365234375</LatitudeDegrees>
              <LongitudeDegrees>-1.6053448431193828582763671875</LongitudeDegrees>
            </Position>
            <AltitudeMeters>457.600006103515625</AltitudeMeters>
            <DistanceMeters>93478.930440219</DistanceMeters>
          </Trackpoint>
          <Trackpoint>
            <Time>2018-08-26T10:23:04.000Z</Time>
            <Position>
              <LatitudeDegrees>42.83686104230582714080810546875</LatitudeDegrees>
              <LongitudeDegrees>-1.60528407432138919830322265625</LongitudeDegrees>
            </Position>
            <AltitudeMeters>457.600006103515625</AltitudeMeters>
            <DistanceMeters>93487.250570388</DistanceMeters>
          </Trackpoint>
          <Trackpoint>
            <Time>2018-08-26T10:23:05.000Z</Time>
            <Position>
              <LatitudeDegrees>42.83680203370749950408935546875</LatitudeDegrees>
              <LongitudeDegrees>-1.60522523336112499237060546875</LongitudeDegrees>
            </Position>
            <AltitudeMeters>457.600006103515625</AltitudeMeters>
            <DistanceMeters>93495.386322371</DistanceMeters>
          </Trackpoint>
          <Trackpoint>
            <Time>2018-08-26T10:23:06.000Z</Time>
            <Position>
              <LatitudeDegrees>42.8367456234991550445556640625</LatitudeDegrees>
              <LongitudeDegrees>-1.60516924224793910980224609375</LongitudeDegrees>
            </Position>
            <AltitudeMeters>457.600006103515625</AltitudeMeters>
            <DistanceMeters>93503.151813372</DistanceMeters>
          </Trackpoint>
          <Trackpoint>
            <Time>2018-08-26T10:23:07.000Z</Time>
            <Position>
              <LatitudeDegrees>42.83668971620500087738037109375</LatitudeDegrees>
              <LongitudeDegrees>-1.6051202081143856048583984375</LongitudeDegrees>
            </Position>
            <AltitudeMeters>457.600006103515625</AltitudeMeters>
            <DistanceMeters>93510.550483753</DistanceMeters>
          </Trackpoint>
          <Trackpoint>
            <Time>2018-08-26T10:23:08.000Z</Time>
            <Position>
              <LatitudeDegrees>42.83663271926343441009521484375</LatitudeDegrees>
              <LongitudeDegrees>-1.60507142543792724609375</LongitudeDegrees>
            </Position>
            <AltitudeMeters>457.600006103515625</AltitudeMeters>
            <DistanceMeters>93518.04073508</DistanceMeters>
          </Trackpoint>
          <Trackpoint>
            <Time>2018-08-26T10:23:09.000Z</Time>
            <Position>
              <LatitudeDegrees>42.83657639287412166595458984375</LatitudeDegrees>
              <LongitudeDegrees>-1.6050233133137226104736328125</LongitudeDegrees>
            </Position>
            <AltitudeMeters>457.600006103515625</AltitudeMeters>
            <DistanceMeters>93525.438795186</DistanceMeters>
          </Trackpoint>
          <Trackpoint>
            <Time>2018-08-26T10:23:10.000Z</Time>
            <Position>
              <LatitudeDegrees>42.83652174286544322967529296875</LatitudeDegrees>
              <LongitudeDegrees>-1.604981906712055206298828125</LongitudeDegrees>
            </Position>
            <AltitudeMeters>457.79998779296875</AltitudeMeters>
            <DistanceMeters>93532.397190827</DistanceMeters>
          </Trackpoint>
          <Trackpoint>
            <Time>2018-08-26T10:23:11.000Z</Time>
            <Position>
              <LatitudeDegrees>42.83646726049482822418212890625</LatitudeDegrees>
              <LongitudeDegrees>-1.60494578070938587188720703125</LongitudeDegrees>
            </Position>
            <AltitudeMeters>457.79998779296875</AltitudeMeters>
            <DistanceMeters>93539.140740706</DistanceMeters>
          </Trackpoint>
          <Trackpoint>
            <Time>2018-08-26T10:23:12.000Z</Time>
            <Position>
              <LatitudeDegrees>42.8364113532006740570068359375</LatitudeDegrees>
              <LongitudeDegrees>-1.604908145964145660400390625</LongitudeDegrees>
            </Position>
            <AltitudeMeters>458</AltitudeMeters>
            <DistanceMeters>93546.080944431</DistanceMeters>
          </Trackpoint>
          <Trackpoint>
            <Time>2018-08-26T10:23:13.000Z</Time>
            <Position>
              <LatitudeDegrees>42.83635477535426616668701171875</LatitudeDegrees>
              <LongitudeDegrees>-1.60487252287566661834716796875</LongitudeDegrees>
            </Position>
            <AltitudeMeters>458.20001220703125</AltitudeMeters>
            <DistanceMeters>93553.016592722</DistanceMeters>
          </Trackpoint>
          <Trackpoint>
            <Time>2018-08-26T10:23:14.000Z</Time>
            <Position>
              <LatitudeDegrees>42.836297862231731414794921875</LatitudeDegrees>
              <LongitudeDegrees>-1.6048447787761688232421875</LongitudeDegrees>
            </Position>
            <AltitudeMeters>458.79998779296875</AltitudeMeters>
            <DistanceMeters>93559.744054587</DistanceMeters>
          </Trackpoint>
          <Trackpoint>
            <Time>2018-08-26T10:23:15.000Z</Time>
            <Position>
              <LatitudeDegrees>42.83624078147113323211669921875</LatitudeDegrees>
              <LongitudeDegrees>-1.60482860170304775238037109375</LongitudeDegrees>
            </Position>
            <AltitudeMeters>459</AltitudeMeters>
            <DistanceMeters>93566.233064254</DistanceMeters>
          </Trackpoint>
          <Trackpoint>
            <Time>2018-08-26T10:23:16.000Z</Time>
            <Position>
              <LatitudeDegrees>42.83618194051086902618408203125</LatitudeDegrees>
              <LongitudeDegrees>-1.6048125922679901123046875</LongitudeDegrees>
            </Position>
            <AltitudeMeters>459.20001220703125</AltitudeMeters>
            <DistanceMeters>93572.911353522</DistanceMeters>
          </Trackpoint>
          <Trackpoint>
            <Time>2018-08-26T10:23:17.000Z</Time>
            <Position>
              <LatitudeDegrees>42.8361216746270656585693359375</LatitudeDegrees>
              <LongitudeDegrees>-1.60479742102324962615966796875</LongitudeDegrees>
            </Position>
            <AltitudeMeters>459.600006103515625</AltitudeMeters>
            <DistanceMeters>93579.73212722</DistanceMeters>
          </Trackpoint>
          <Trackpoint>
            <Time>2018-08-26T10:23:18.000Z</Time>
            <Position>
              <LatitudeDegrees>42.8360626660287380218505859375</LatitudeDegrees>
              <LongitudeDegrees>-1.604796163737773895263671875</LongitudeDegrees>
            </Position>
            <AltitudeMeters>460</AltitudeMeters>
            <DistanceMeters>93586.30066627</DistanceMeters>
          </Trackpoint>
          <Trackpoint>
            <Time>2018-08-26T10:23:19.000Z</Time>
            <Position>
              <LatitudeDegrees>42.83600248396396636962890625</LatitudeDegrees>
              <LongitudeDegrees>-1.60480312071740627288818359375</LongitudeDegrees>
            </Position>
            <AltitudeMeters>460.20001220703125</AltitudeMeters>
            <DistanceMeters>93593.022085202</DistanceMeters>
          </Trackpoint>
          <Trackpoint>
            <Time>2018-08-26T10:23:20.000Z</Time>
            <Position>
              <LatitudeDegrees>42.83594137988984584808349609375</LatitudeDegrees>
              <LongitudeDegrees>-1.60482089035212993621826171875</LongitudeDegrees>
            </Position>
            <AltitudeMeters>460.600006103515625</AltitudeMeters>
            <DistanceMeters>93599.975937325</DistanceMeters>
          </Trackpoint>
          <Trackpoint>
            <Time>2018-08-26T10:23:21.000Z</Time>
            <Position>
              <LatitudeDegrees>42.83587717451155185699462890625</LatitudeDegrees>
              <LongitudeDegrees>-1.6048439405858516693115234375</LongitudeDegrees>
            </Position>
            <AltitudeMeters>461.20001220703125</AltitudeMeters>
            <DistanceMeters>93607.366059268</DistanceMeters>
          </Trackpoint>
          <Trackpoint>
            <Time>2018-08-26T10:23:22.000Z</Time>
            <Position>
              <LatitudeDegrees>42.83581347204744815826416015625</LatitudeDegrees>
              <LongitudeDegrees>-1.6048716008663177490234375</LongitudeDegrees>
            </Position>
            <AltitudeMeters>461.79998779296875</AltitudeMeters>
            <DistanceMeters>93614.806717752</DistanceMeters>
          </Trackpoint>
          <Trackpoint>
            <Time>2018-08-26T10:23:23.000Z</Time>
            <Position>
              <LatitudeDegrees>42.83575245179235935211181640625</LatitudeDegrees>
              <LongitudeDegrees>-1.60490521229803562164306640625</LongitudeDegrees>
            </Position>
            <AltitudeMeters>462.20001220703125</AltitudeMeters>
            <DistanceMeters>93622.131175695</DistanceMeters>
          </Trackpoint>
          <Trackpoint>
            <Time>2018-08-26T10:23:24.000Z</Time>
            <Position>
              <LatitudeDegrees>42.83569377847015857696533203125</LatitudeDegrees>
              <LongitudeDegrees>-1.6049495525658130645751953125</LongitudeDegrees>
            </Position>
            <AltitudeMeters>462.600006103515625</AltitudeMeters>
            <DistanceMeters>93629.597276544</DistanceMeters>
          </Trackpoint>
          <Trackpoint>
            <Time>2018-08-26T10:23:25.000Z</Time>
            <Position>
              <LatitudeDegrees>42.8356382064521312713623046875</LatitudeDegrees>
              <LongitudeDegrees>-1.6050028614699840545654296875</LongitudeDegrees>
            </Position>
            <AltitudeMeters>462.600006103515625</AltitudeMeters>
            <DistanceMeters>93637.160113591</DistanceMeters>
          </Trackpoint>
          <Trackpoint>
            <Time>2018-08-26T10:23:26.000Z</Time>
            <Position>
              <LatitudeDegrees>42.835585065186023712158203125</LatitudeDegrees>
              <LongitudeDegrees>-1.60506463609635829925537109375</LongitudeDegrees>
            </Position>
            <AltitudeMeters>462.600006103515625</AltitudeMeters>
            <DistanceMeters>93644.932578542</DistanceMeters>
          </Trackpoint>
          <Trackpoint>
            <Time>2018-08-26T10:23:27.000Z</Time>
            <Position>
              <LatitudeDegrees>42.83553385175764560699462890625</LatitudeDegrees>
              <LongitudeDegrees>-1.60513118840754032135009765625</LongitudeDegrees>
            </Position>
            <AltitudeMeters>462.600006103515625</AltitudeMeters>
            <DistanceMeters>93652.806618474</DistanceMeters>
          </Trackpoint>
          <Trackpoint>
            <Time>2018-08-26T10:23:28.000Z</Time>
            <Position>
              <LatitudeDegrees>42.83548523671925067901611328125</LatitudeDegrees>
              <LongitudeDegrees>-1.60520209930837154388427734375</LongitudeDegrees>
            </Position>
            <AltitudeMeters>462.79998779296875</AltitudeMeters>
            <DistanceMeters>93660.729248174</DistanceMeters>
          </Trackpoint>
          <Trackpoint>
            <Time>2018-08-26T10:23:29.000Z</Time>
            <Position>
              <LatitudeDegrees>42.8354383818805217742919921875</LatitudeDegrees>
              <LongitudeDegrees>-1.60527535714209079742431640625</LongitudeDegrees>
            </Position>
            <AltitudeMeters>462.79998779296875</AltitudeMeters>
            <DistanceMeters>93668.662698421</DistanceMeters>
          </Trackpoint>
          <Trackpoint>
            <Time>2018-08-26T10:23:30.000Z</Time>
            <Position>
              <LatitudeDegrees>42.83539387397468090057373046875</LatitudeDegrees>
              <LongitudeDegrees>-1.60535238683223724365234375</LongitudeDegrees>
            </Position>
            <AltitudeMeters>462.79998779296875</AltitudeMeters>
            <DistanceMeters>93676.666971803</DistanceMeters>
          </Trackpoint>
          <Trackpoint>
            <Time>2018-08-26T10:23:31.000Z</Time>
            <Position>
              <LatitudeDegrees>42.83535129390656948089599609375</LatitudeDegrees>
              <LongitudeDegrees>-1.60543276928365230560302734375</LongitudeDegrees>
            </Position>
            <AltitudeMeters>462.79998779296875</AltitudeMeters>
            <DistanceMeters>93684.76043673</DistanceMeters>
          </Trackpoint>
          <Trackpoint>
            <Time>2018-08-26T10:23:32.000Z</Time>
            <Position>
              <LatitudeDegrees>42.83531173132359981536865234375</LatitudeDegrees>
              <LongitudeDegrees>-1.60551575012505054473876953125</LongitudeDegrees>
            </Position>
            <AltitudeMeters>462.79998779296875</AltitudeMeters>
            <DistanceMeters>93692.838266412</DistanceMeters>
          </Trackpoint>
          <Trackpoint>
            <Time>2018-08-26T10:23:33.000Z</Time>
            <Position>
              <LatitudeDegrees>42.8352747671306133270263671875</LatitudeDegrees>
              <LongitudeDegrees>-1.60560040734708309173583984375</LongitudeDegrees>
            </Position>
            <AltitudeMeters>462.600006103515625</AltitudeMeters>
            <DistanceMeters>93700.879121301</DistanceMeters>
          </Trackpoint>
          <Trackpoint>
            <Time>2018-08-26T10:23:34.000Z</Time>
            <Position>
              <LatitudeDegrees>42.83524065278470516204833984375</LatitudeDegrees>
              <LongitudeDegrees>-1.60568690858781337738037109375</LongitudeDegrees>
            </Position>
            <AltitudeMeters>462.399993896484375</AltitudeMeters>
            <DistanceMeters>93708.895231578</DistanceMeters>
          </Trackpoint>
          <Trackpoint>
            <Time>2018-08-26T10:23:35.000Z</Time>
            <Position>
              <LatitudeDegrees>42.8352093882858753204345703125</LatitudeDegrees>
              <LongitudeDegrees>-1.60577475093305110931396484375</LongitudeDegrees>
            </Position>
            <AltitudeMeters>462.399993896484375</AltitudeMeters>
            <DistanceMeters>93716.864455357</DistanceMeters>
          </Trackpoint>
          <Trackpoint>
            <Time>2018-08-26T10:23:36.000Z</Time>
            <Position>
              <LatitudeDegrees>42.835181057453155517578125</LatitudeDegrees>
              <LongitudeDegrees>-1.6058645211160182952880859375</LongitudeDegrees>
            </Position>
            <AltitudeMeters>462.399993896484375</AltitudeMeters>
            <DistanceMeters>93724.841041006</DistanceMeters>
          </Trackpoint>
          <Trackpoint>
            <Time>2018-08-26T10:23:37.000Z</Time>
            <Position>
              <LatitudeDegrees>42.83515566028654575347900390625</LatitudeDegrees>
              <LongitudeDegrees>-1.6059557162225246429443359375</LongitudeDegrees>
            </Position>
            <AltitudeMeters>462.20001220703125</AltitudeMeters>
            <DistanceMeters>93732.802329002</DistanceMeters>
          </Trackpoint>
          <Trackpoint>
            <Time>2018-08-26T10:23:38.000Z</Time>
            <Position>
              <LatitudeDegrees>42.83513152040541172027587890625</LatitudeDegrees>
              <LongitudeDegrees>-1.606047414243221282958984375</LongitudeDegrees>
            </Position>
            <AltitudeMeters>462.20001220703125</AltitudeMeters>
            <DistanceMeters>93740.753970044</DistanceMeters>
          </Trackpoint>
          <Trackpoint>
            <Time>2018-08-26T10:23:39.000Z</Time>
            <Position>
              <LatitudeDegrees>42.83510955981910228729248046875</LatitudeDegrees>
              <LongitudeDegrees>-1.60613936372101306915283203125</LongitudeDegrees>
            </Position>
            <AltitudeMeters>462.20001220703125</AltitudeMeters>
            <DistanceMeters>93748.646337706</DistanceMeters>
          </Trackpoint>
          <Trackpoint>
            <Time>2018-08-26T10:23:40.000Z</Time>
            <Position>
              <LatitudeDegrees>42.835090197622776031494140625</LatitudeDegrees>
              <LongitudeDegrees>-1.6062326543033123016357421875</LongitudeDegrees>
            </Position>
            <AltitudeMeters>462.20001220703125</AltitudeMeters>
            <DistanceMeters>93756.559273322</DistanceMeters>
          </Trackpoint>
          <Trackpoint>
            <Time>2018-08-26T10:23:41.000Z</Time>
            <Position>
              <LatitudeDegrees>42.8350746072828769683837890625</LatitudeDegrees>
              <LongitudeDegrees>-1.60632778890430927276611328125</LongitudeDegrees>
            </Position>
            <AltitudeMeters>462</AltitudeMeters>
            <DistanceMeters>93764.515455564</DistanceMeters>
          </Trackpoint>
          <Trackpoint>
            <Time>2018-08-26T10:23:42.000Z</Time>
            <Position>
              <LatitudeDegrees>42.835061363875865936279296875</LatitudeDegrees>
              <LongitudeDegrees>-1.6064245998859405517578125</LongitudeDegrees>
            </Position>
            <AltitudeMeters>462</AltitudeMeters>
            <DistanceMeters>93772.552940674</DistanceMeters>
          </Trackpoint>
          <Trackpoint>
            <Time>2018-08-26T10:23:43.000Z</Time>
            <Position>
              <LatitudeDegrees>42.835050635039806365966796875</LatitudeDegrees>
              <LongitudeDegrees>-1.6065223328769207000732421875</LongitudeDegrees>
            </Position>
            <AltitudeMeters>462</AltitudeMeters>
            <DistanceMeters>93780.618464259</DistanceMeters>
          </Trackpoint>
          <Trackpoint>
            <Time>2018-08-26T10:23:44.000Z</Time>
            <Position>
              <LatitudeDegrees>42.83504384569823741912841796875</LatitudeDegrees>
              <LongitudeDegrees>-1.60662065260112285614013671875</LongitudeDegrees>
            </Position>
            <AltitudeMeters>462</AltitudeMeters>
            <DistanceMeters>93788.678948116</DistanceMeters>
          </Trackpoint>
          <Trackpoint>
            <Time>2018-08-26T10:23:45.000Z</Time>
            <Position>
              <LatitudeDegrees>42.8350400738418102264404296875</LatitudeDegrees>
              <LongitudeDegrees>-1.6067196428775787353515625</LongitudeDegrees>
            </Position>
            <AltitudeMeters>461.79998779296875</AltitudeMeters>
            <DistanceMeters>93796.769065177</DistanceMeters>
          </Trackpoint>
          <Trackpoint>
            <Time>2018-08-26T10:23:46.000Z</Time>
            <Position>
              <LatitudeDegrees>42.83503931947052478790283203125</LatitudeDegrees>
              <LongitudeDegrees>-1.6068183816969394683837890625</LongitudeDegrees>
            </Position>
            <AltitudeMeters>461.79998779296875</AltitudeMeters>
            <DistanceMeters>93804.82898887</DistanceMeters>
          </Trackpoint>
          <Trackpoint>
            <Time>2018-08-26T10:23:47.000Z</Time>
            <Position>
              <LatitudeDegrees>42.83504082821309566497802734375</LatitudeDegrees>
              <LongitudeDegrees>-1.60691678524017333984375</LongitudeDegrees>
            </Position>
            <AltitudeMeters>461.79998779296875</AltitudeMeters>
            <DistanceMeters>93812.861978741</DistanceMeters>
          </Trackpoint>
          <Trackpoint>
            <Time>2018-08-26T10:23:48.000Z</Time>
            <Position>
              <LatitudeDegrees>42.83504501916468143463134765625</LatitudeDegrees>
              <LongitudeDegrees>-1.6070148535072803497314453125</LongitudeDegrees>
            </Position>
            <AltitudeMeters>461.79998779296875</AltitudeMeters>
            <DistanceMeters>93820.880341684</DistanceMeters>
          </Trackpoint>
          <Trackpoint>
            <Time>2018-08-26T10:23:49.000Z</Time>
            <Position>
              <LatitudeDegrees>42.83505222760140895843505859375</LatitudeDegrees>
              <LongitudeDegrees>-1.6071127541363239288330078125</LongitudeDegrees>
            </Position>
            <AltitudeMeters>461.79998779296875</AltitudeMeters>
            <DistanceMeters>93828.911082993</DistanceMeters>
          </Trackpoint>
          <Trackpoint>
            <Time>2018-08-26T10:23:50.000Z</Time>
            <Position>
              <LatitudeDegrees>42.8350615315139293670654296875</LatitudeDegrees>
              <LongitudeDegrees>-1.6072106547653675079345703125</LongitudeDegrees>
            </Position>
            <AltitudeMeters>461.600006103515625</AltitudeMeters>
            <DistanceMeters>93836.968765639</DistanceMeters>
          </Trackpoint>
          <Trackpoint>
            <Time>2018-08-26T10:23:51.000Z</Time>
            <Position>
              <LatitudeDegrees>42.8350715897977352142333984375</LatitudeDegrees>
              <LongitudeDegrees>-1.6073085553944110870361328125</LongitudeDegrees>
            </Position>
            <AltitudeMeters>461.600006103515625</AltitudeMeters>
            <DistanceMeters>93845.037647294</DistanceMeters>
          </Trackpoint>
          <Trackpoint>
            <Time>2018-08-26T10:23:52.000Z</Time>
            <Position>
              <LatitudeDegrees>42.83508307300508022308349609375</LatitudeDegrees>
              <LongitudeDegrees>-1.60740670748054981231689453125</LongitudeDegrees>
            </Position>
            <AltitudeMeters>461.600006103515625</AltitudeMeters>
            <DistanceMeters>93853.150057363</DistanceMeters>
          </Trackpoint>
          <Trackpoint>
            <Time>2018-08-26T10:23:53.000Z</Time>
            <Position>
              <LatitudeDegrees>42.83509380184113979339599609375</LatitudeDegrees>
              <LongitudeDegrees>-1.60750494338572025299072265625</LongitudeDegrees>
            </Position>
            <AltitudeMeters>461.600006103515625</AltitudeMeters>
            <DistanceMeters>93861.255785967</DistanceMeters>
          </Trackpoint>
          <Trackpoint>
            <Time>2018-08-26T10:23:54.000Z</Time>
            <Position>
              <LatitudeDegrees>42.83510486595332622528076171875</LatitudeDegrees>
              <LongitudeDegrees>-1.60760435275733470916748046875</LongitudeDegrees>
            </Position>
            <AltitudeMeters>461.399993896484375</AltitudeMeters>
            <DistanceMeters>93869.462265731</DistanceMeters>
          </Trackpoint>
          <Trackpoint>
            <Time>2018-08-26T10:23:55.000Z</Time>
            <Position>
              <LatitudeDegrees>42.83511609770357608795166015625</LatitudeDegrees>
              <LongitudeDegrees>-1.6077051870524883270263671875</LongitudeDegrees>
            </Position>
            <AltitudeMeters>461.399993896484375</AltitudeMeters>
            <DistanceMeters>93877.786736083</DistanceMeters>
          </Trackpoint>
          <Trackpoint>
            <Time>2018-08-26T10:23:56.000Z</Time>
            <Position>
              <LatitudeDegrees>42.8351272456347942352294921875</LatitudeDegrees>
              <LongitudeDegrees>-1.60780635662376880645751953125</LongitudeDegrees>
            </Position>
            <AltitudeMeters>461.399993896484375</AltitudeMeters>
            <DistanceMeters>93886.136659449</DistanceMeters>
          </Trackpoint>
          <Trackpoint>
            <Time>2018-08-26T10:23:57.000Z</Time>
            <Position>
              <LatitudeDegrees>42.83513654954731464385986328125</LatitudeDegrees>
              <LongitudeDegrees>-1.60790719091892242431640625</LongitudeDegrees>
            </Position>
            <AltitudeMeters>461.20001220703125</AltitudeMeters>
            <DistanceMeters>93894.431789496</DistanceMeters>
          </Trackpoint>
          <Trackpoint>
            <Time>2018-08-26T10:23:58.000Z</Time>
            <Position>
              <LatitudeDegrees>42.83514551818370819091796875</LatitudeDegrees>
              <LongitudeDegrees>-1.60800768993794918060302734375</LongitudeDegrees>
            </Position>
            <AltitudeMeters>461.20001220703125</AltitudeMeters>
            <DistanceMeters>93902.694743447</DistanceMeters>
          </Trackpoint>
          <Trackpoint>
            <Time>2018-08-26T10:23:59.000Z</Time>
            <Position>
              <LatitudeDegrees>42.83515498973429203033447265625</LatitudeDegrees>
              <LongitudeDegrees>-1.6081071831285953521728515625</LongitudeDegrees>
            </Position>
            <AltitudeMeters>461</AltitudeMeters>
            <DistanceMeters>93910.883598536</DistanceMeters>
          </Trackpoint>
          <Trackpoint>
            <Time>2018-08-26T10:24:00.000Z</Time>
            <Position>
              <LatitudeDegrees>42.8351644612848758697509765625</LatitudeDegrees>
              <LongitudeDegrees>-1.608206592500209808349609375</LongitudeDegrees>
            </Position>
            <AltitudeMeters>461</AltitudeMeters>
            <DistanceMeters>93919.064730891</DistanceMeters>
          </Trackpoint>
          <Trackpoint>
            <Time>2018-08-26T10:24:01.000Z</Time>
            <Position>
              <LatitudeDegrees>42.8351718373596668243408203125</LatitudeDegrees>
              <LongitudeDegrees>-1.60830642096698284149169921875</LongitudeDegrees>
            </Position>
            <AltitudeMeters>461</AltitudeMeters>
            <DistanceMeters>93927.25358598</DistanceMeters>
          </Trackpoint>
          <Trackpoint>
            <Time>2018-08-26T10:24:02.000Z</Time>
            <Position>
              <LatitudeDegrees>42.8351775370538234710693359375</LatitudeDegrees>
              <LongitudeDegrees>-1.6084067523479461669921875</LongitudeDegrees>
            </Position>
            <AltitudeMeters>461</AltitudeMeters>
            <DistanceMeters>93935.466665247</DistanceMeters>
          </Trackpoint>
          <Trackpoint>
            <Time>2018-08-26T10:24:03.000Z</Time>
            <Position>
              <LatitudeDegrees>42.83518164418637752532958984375</LatitudeDegrees>
              <LongitudeDegrees>-1.6085075028240680694580078125</LongitudeDegrees>
            </Position>
            <AltitudeMeters>461</AltitudeMeters>
            <DistanceMeters>93943.702252911</DistanceMeters>
          </Trackpoint>
          <Trackpoint>
            <Time>2018-08-26T10:24:04.000Z</Time>
            <Position>
              <LatitudeDegrees>42.835183404386043548583984375</LatitudeDegrees>
              <LongitudeDegrees>-1.60860858857631683349609375</LongitudeDegrees>
            </Position>
            <AltitudeMeters>460.79998779296875</AltitudeMeters>
            <DistanceMeters>93951.954818363</DistanceMeters>
          </Trackpoint>
          <Trackpoint>
            <Time>2018-08-26T10:24:05.000Z</Time>
            <Position>
              <LatitudeDegrees>42.83518298529088497161865234375</LatitudeDegrees>
              <LongitudeDegrees>-1.60870992578566074371337890625</LongitudeDegrees>
            </Position>
            <AltitudeMeters>460.79998779296875</AltitudeMeters>
            <DistanceMeters>93960.225964543</DistanceMeters>
          </Trackpoint>
          <Trackpoint>
            <Time>2018-08-26T10:24:06.000Z</Time>
            <Position>
              <LatitudeDegrees>42.83518114127218723297119140625</LatitudeDegrees>
              <LongitudeDegrees>-1.60881184972822666168212890625</LongitudeDegrees>
            </Position>
            <AltitudeMeters>460.79998779296875</AltitudeMeters>
            <DistanceMeters>93968.547179969</DistanceMeters>
          </Trackpoint>
          <Trackpoint>
            <Time>2018-08-26T10:24:07.000Z</Time>
            <Position>
              <LatitudeDegrees>42.835177369415760040283203125</LatitudeDegrees>
              <LongitudeDegrees>-1.6089141927659511566162109375</LongitudeDegrees>
            </Position>
            <AltitudeMeters>460.79998779296875</AltitudeMeters>
            <DistanceMeters>93976.910610613</DistanceMeters>
          </Trackpoint>
          <Trackpoint>
            <Time>2018-08-26T10:24:08.000Z</Time>
            <Position>
              <LatitudeDegrees>42.83517158590257167816162109375</LatitudeDegrees>
              <LongitudeDegrees>-1.60901670344173908233642578125</LongitudeDegrees>
            </Position>
            <AltitudeMeters>460.79998779296875</AltitudeMeters>
            <DistanceMeters>93985.302066751</DistanceMeters>
          </Trackpoint>
          <Trackpoint>
            <Time>2018-08-26T10:24:09.000Z</Time>
            <Position>
              <LatitudeDegrees>42.83516504801809787750244140625</LatitudeDegrees>
              <LongitudeDegrees>-1.60911996848881244659423828125</LongitudeDegrees>
            </Position>
            <AltitudeMeters>460.79998779296875</AltitudeMeters>
            <DistanceMeters>93993.762113198</DistanceMeters>
          </Trackpoint>
          <Trackpoint>
            <Time>2018-08-26T10:24:10.000Z</Time>
            <Position>
              <LatitudeDegrees>42.83515683375298976898193359375</LatitudeDegrees>
              <LongitudeDegrees>-1.6092239879071712493896484375</LongitudeDegrees>
            </Position>
            <AltitudeMeters>460.600006103515625</AltitudeMeters>
            <DistanceMeters>94002.300780378</DistanceMeters>
          </Trackpoint>
          <Trackpoint>
            <Time>2018-08-26T10:24:11.000Z</Time>
            <Position>
              <LatitudeDegrees>42.8351463563740253448486328125</LatitudeDegrees>
              <LongitudeDegrees>-1.609327755868434906005859375</LongitudeDegrees>
            </Position>
            <AltitudeMeters>460.600006103515625</AltitudeMeters>
            <DistanceMeters>94010.850016528</DistanceMeters>
          </Trackpoint>
          <Trackpoint>
            <Time>2018-08-26T10:24:12.000Z</Time>
            <Position>
              <LatitudeDegrees>42.8351352922618389129638671875</LatitudeDegrees>
              <LongitudeDegrees>-1.60943144001066684722900390625</LongitudeDegrees>
            </Position>
            <AltitudeMeters>459.600006103515625</AltitudeMeters>
            <DistanceMeters>94019.402420821</DistanceMeters>
          </Trackpoint>
          <Trackpoint>
            <Time>2018-08-26T10:24:13.000Z</Time>
            <Position>
              <LatitudeDegrees>42.835121043026447296142578125</LatitudeDegrees>
              <LongitudeDegrees>-1.60953462123870849609375</LongitudeDegrees>
            </Position>
            <AltitudeMeters>459.20001220703125</AltitudeMeters>
            <DistanceMeters>94027.9717021</DistanceMeters>
          </Trackpoint>
          <Trackpoint>
            <Time>2018-08-26T10:24:14.000Z</Time>
            <Position>
              <LatitudeDegrees>42.83510369248688220977783203125</LatitudeDegrees>
              <LongitudeDegrees>-1.6096380539238452911376953125</LongitudeDegrees>
            </Position>
            <AltitudeMeters>458.79998779296875</AltitudeMeters>
            <DistanceMeters>94036.632697714</DistanceMeters>
          </Trackpoint>
          <Trackpoint>
            <Time>2018-08-26T10:24:15.000Z</Time>
            <Position>
              <LatitudeDegrees>42.83508508466184139251708984375</LatitudeDegrees>
              <LongitudeDegrees>-1.6097436659038066864013671875</LongitudeDegrees>
            </Position>
            <AltitudeMeters>458.399993896484375</AltitudeMeters>
            <DistanceMeters>94045.498236917</DistanceMeters>
          </Trackpoint>
          <Trackpoint>
            <Time>2018-08-26T10:24:16.000Z</Time>
            <Position>
              <LatitudeDegrees>42.835068739950656890869140625</LatitudeDegrees>
              <LongitudeDegrees>-1.60985120572149753570556640625</LongitudeDegrees>
            </Position>
            <AltitudeMeters>458.20001220703125</AltitudeMeters>
            <DistanceMeters>94054.462031884</DistanceMeters>
          </Trackpoint>
          <Trackpoint>
            <Time>2018-08-26T10:24:17.000Z</Time>
            <Position>
              <LatitudeDegrees>42.83506178297102451324462890625</LatitudeDegrees>
              <LongitudeDegrees>-1.609962098300457000732421875</LongitudeDegrees>
            </Position>
            <AltitudeMeters>457.79998779296875</AltitudeMeters>
            <DistanceMeters>94063.54590983</DistanceMeters>
          </Trackpoint>
          <Trackpoint>
            <Time>2018-08-26T10:24:18.000Z</Time>
            <Position>
              <LatitudeDegrees>42.8350675664842128753662109375</LatitudeDegrees>
              <LongitudeDegrees>-1.6100739128887653350830078125</LongitudeDegrees>
            </Position>
            <AltitudeMeters>457.399993896484375</AltitudeMeters>
            <DistanceMeters>94072.695161637</DistanceMeters>
          </Trackpoint>
          <Trackpoint>
            <Time>2018-08-26T10:24:19.000Z</Time>
            <Position>
              <LatitudeDegrees>42.8350725956261157989501953125</LatitudeDegrees>
              <LongitudeDegrees>-1.6101862303912639617919921875</LongitudeDegrees>
            </Position>
            <AltitudeMeters>457.20001220703125</AltitudeMeters>
            <DistanceMeters>94081.879875794</DistanceMeters>
          </Trackpoint>
          <Trackpoint>
            <Time>2018-08-26T10:24:20.000Z</Time>
            <Position>
              <LatitudeDegrees>42.8350603580474853515625</LatitudeDegrees>
              <LongitudeDegrees>-1.610297374427318572998046875</LongitudeDegrees>
            </Position>
            <AltitudeMeters>457</AltitudeMeters>
            <DistanceMeters>94091.052784401</DistanceMeters>
          </Trackpoint>
          <Trackpoint>
            <Time>2018-08-26T10:24:21.000Z</Time>
            <Position>
              <LatitudeDegrees>42.8350259922444820404052734375</LatitudeDegrees>
              <LongitudeDegrees>-1.61040022037923336029052734375</LongitudeDegrees>
            </Position>
            <AltitudeMeters>457</AltitudeMeters>
            <DistanceMeters>94100.277720195</DistanceMeters>
          </Trackpoint>
          <Trackpoint>
            <Time>2018-08-26T10:24:22.000Z</Time>
            <Position>
              <LatitudeDegrees>42.83497829921543598175048828125</LatitudeDegrees>
              <LongitudeDegrees>-1.610495187342166900634765625</LongitudeDegrees>
            </Position>
            <AltitudeMeters>456.79998779296875</AltitudeMeters>
            <DistanceMeters>94109.672397793</DistanceMeters>
          </Trackpoint>
          <Trackpoint>
            <Time>2018-08-26T10:24:23.000Z</Time>
            <Position>
              <LatitudeDegrees>42.834927923977375030517578125</LatitudeDegrees>
              <LongitudeDegrees>-1.61058805882930755615234375</LongitudeDegrees>
            </Position>
            <AltitudeMeters>456.79998779296875</AltitudeMeters>
            <DistanceMeters>94119.100657044</DistanceMeters>
          </Trackpoint>
          <Trackpoint>
            <Time>2018-08-26T10:24:24.000Z</Time>
            <Position>
              <LatitudeDegrees>42.834878973662853240966796875</LatitudeDegrees>
              <LongitudeDegrees>-1.6106834448873996734619140625</LongitudeDegrees>
            </Position>
            <AltitudeMeters>456.600006103515625</AltitudeMeters>
            <DistanceMeters>94128.603328481</DistanceMeters>
          </Trackpoint>
          <Trackpoint>
            <Time>2018-08-26T10:24:25.000Z</Time>
            <Position>
              <LatitudeDegrees>42.83483446575701236724853515625</LatitudeDegrees>
              <LongitudeDegrees>-1.61078520119190216064453125</LongitudeDegrees>
            </Position>
            <AltitudeMeters>456.600006103515625</AltitudeMeters>
            <DistanceMeters>94138.273668271</DistanceMeters>
          </Trackpoint>
          <Trackpoint>
            <Time>2018-08-26T10:24:26.000Z</Time>
            <Position>
              <LatitudeDegrees>42.8347902931272983551025390625</LatitudeDegrees>
              <LongitudeDegrees>-1.61088578402996063232421875</LongitudeDegrees>
            </Position>
            <AltitudeMeters>456.20001220703125</AltitudeMeters>
            <DistanceMeters>94147.842155355</DistanceMeters>
          </Trackpoint>
          <Trackpoint>
            <Time>2018-08-26T10:24:27.000Z</Time>
            <Position>
              <LatitudeDegrees>42.83474561758339405059814453125</LatitudeDegrees>
              <LongitudeDegrees>-1.61098896525800228118896484375</LongitudeDegrees>
            </Position>
            <AltitudeMeters>455.600006103515625</AltitudeMeters>
            <DistanceMeters>94157.62206178</DistanceMeters>
          </Trackpoint>
          <Trackpoint>
            <Time>2018-08-26T10:24:28.000Z</Time>
            <Position>
              <LatitudeDegrees>42.83470152877271175384521484375</LatitudeDegrees>
              <LongitudeDegrees>-1.61109172739088535308837890625</LongitudeDegrees>
            </Position>
            <AltitudeMeters>455</AltitudeMeters>
            <DistanceMeters>94167.339443597</DistanceMeters>
          </Trackpoint>
          <Trackpoint>
            <Time>2018-08-26T10:24:29.000Z</Time>
            <Position>
              <LatitudeDegrees>42.83465643413364887237548828125</LatitudeDegrees>
              <LongitudeDegrees>-1.61119381897151470184326171875</LongitudeDegrees>
            </Position>
            <AltitudeMeters>454.600006103515625</AltitudeMeters>
            <DistanceMeters>94177.067506155</DistanceMeters>
          </Trackpoint>
          <Trackpoint>
            <Time>2018-08-26T10:24:30.000Z</Time>
            <Position>
              <LatitudeDegrees>42.83461150713264942169189453125</LatitudeDegrees>
              <LongitudeDegrees>-1.61129574291408061981201171875</LongitudeDegrees>
            </Position>
            <AltitudeMeters>454.399993896484375</AltitudeMeters>
            <DistanceMeters>94186.774195478</DistanceMeters>
          </Trackpoint>
          <Trackpoint>
            <Time>2018-08-26T10:24:31.000Z</Time>
            <Position>
              <LatitudeDegrees>42.8345656581223011016845703125</LatitudeDegrees>
              <LongitudeDegrees>-1.61139900796115398406982421875</LongitudeDegrees>
            </Position>
            <AltitudeMeters>454.20001220703125</AltitudeMeters>
            <DistanceMeters>94196.626774926</DistanceMeters>
          </Trackpoint>
          <Trackpoint>
            <Time>2018-08-26T10:24:32.000Z</Time>
            <Position>
              <LatitudeDegrees>42.83452299423515796661376953125</LatitudeDegrees>
              <LongitudeDegrees>-1.61150311119854450225830078125</LongitudeDegrees>
            </Position>
            <AltitudeMeters>454.20001220703125</AltitudeMeters>
            <DistanceMeters>94206.360405392</DistanceMeters>
          </Trackpoint>
          <Trackpoint>
            <Time>2018-08-26T10:24:33.000Z</Time>
            <Position>
              <LatitudeDegrees>42.834478653967380523681640625</LatitudeDegrees>
              <LongitudeDegrees>-1.61160838790237903594970703125</LongitudeDegrees>
            </Position>
            <AltitudeMeters>453.79998779296875</AltitudeMeters>
            <DistanceMeters>94216.269646092</DistanceMeters>
          </Trackpoint>
          <Trackpoint>
            <Time>2018-08-26T10:24:34.000Z</Time>
            <Position>
              <LatitudeDegrees>42.83443414606153964996337890625</LatitudeDegrees>
              <LongitudeDegrees>-1.61171416752040386199951171875</LongitudeDegrees>
            </Position>
            <AltitudeMeters>453.600006103515625</AltitudeMeters>
            <DistanceMeters>94226.224346434</DistanceMeters>
          </Trackpoint>
          <Trackpoint>
            <Time>2018-08-26T10:24:35.000Z</Time>
            <Position>
              <LatitudeDegrees>42.834387123584747314453125</LatitudeDegrees>
              <LongitudeDegrees>-1.61181986331939697265625</LongitudeDegrees>
            </Position>
            <AltitudeMeters>453.399993896484375</AltitudeMeters>
            <DistanceMeters>94236.31419687</DistanceMeters>
          </Trackpoint>
          <Trackpoint>
            <Time>2018-08-26T10:24:36.000Z</Time>
            <Position>
              <LatitudeDegrees>42.83434026874601840972900390625</LatitudeDegrees>
              <LongitudeDegrees>-1.61192405037581920623779296875</LongitudeDegrees>
            </Position>
            <AltitudeMeters>453.20001220703125</AltitudeMeters>
            <DistanceMeters>94246.289286461</DistanceMeters>
          </Trackpoint>
          <Trackpoint>
            <Time>2018-08-26T10:24:37.000Z</Time>
            <Position>
              <LatitudeDegrees>42.834294252097606658935546875</LatitudeDegrees>
              <LongitudeDegrees>-1.6120279021561145782470703125</LongitudeDegrees>
            </Position>
            <AltitudeMeters>453</AltitudeMeters>
            <DistanceMeters>94256.193057981</DistanceMeters>
          </Trackpoint>
          <Trackpoint>
            <Time>2018-08-26T10:24:38.000Z</Time>
            <Position>
              <LatitudeDegrees>42.834247313439846038818359375</LatitudeDegrees>
              <LongitudeDegrees>-1.61212923936545848846435546875</LongitudeDegrees>
            </Position>
            <AltitudeMeters>453</AltitudeMeters>
            <DistanceMeters>94265.975734003</DistanceMeters>
          </Trackpoint>
          <Trackpoint>
            <Time>2018-08-26T10:24:39.000Z</Time>
            <Position>
              <LatitudeDegrees>42.8342022188007831573486328125</LatitudeDegrees>
              <LongitudeDegrees>-1.61223091185092926025390625</LongitudeDegrees>
            </Position>
            <AltitudeMeters>452.79998779296875</AltitudeMeters>
            <DistanceMeters>94275.674047065</DistanceMeters>
          </Trackpoint>
          <Trackpoint>
            <Time>2018-08-26T10:24:40.000Z</Time>
            <Position>
              <LatitudeDegrees>42.83416408114135265350341796875</LatitudeDegrees>
              <LongitudeDegrees>-1.612337194383144378662109375</LongitudeDegrees>
            </Position>
            <AltitudeMeters>452.79998779296875</AltitudeMeters>
            <DistanceMeters>94285.332239943</DistanceMeters>
          </Trackpoint>
          <Trackpoint>
            <Time>2018-08-26T10:24:41.000Z</Time>
            <Position>
              <LatitudeDegrees>42.83413742668926715850830078125</LatitudeDegrees>
              <LongitudeDegrees>-1.61244775168597698211669921875</LongitudeDegrees>
            </Position>
            <AltitudeMeters>452.399993896484375</AltitudeMeters>
            <DistanceMeters>94294.831109551</DistanceMeters>
          </Trackpoint>
          <Trackpoint>
            <Time>2018-08-26T10:24:42.000Z</Time>
            <Position>
              <LatitudeDegrees>42.8341204114258289337158203125</LatitudeDegrees>
              <LongitudeDegrees>-1.61255822516977787017822265625</LongitudeDegrees>
            </Position>
            <AltitudeMeters>452.399993896484375</AltitudeMeters>
            <DistanceMeters>94304.045271408</DistanceMeters>
          </Trackpoint>
          <Trackpoint>
            <Time>2018-08-26T10:24:43.000Z</Time>
            <Position>
              <LatitudeDegrees>42.8340969420969486236572265625</LatitudeDegrees>
              <LongitudeDegrees>-1.61266408860683441162109375</LongitudeDegrees>
            </Position>
            <AltitudeMeters>452.20001220703125</AltitudeMeters>
            <DistanceMeters>94313.072309118</DistanceMeters>
          </Trackpoint>
          <Trackpoint>
            <Time>2018-08-26T10:24:44.000Z</Time>
            <Position>
              <LatitudeDegrees>42.83405193127691745758056640625</LatitudeDegrees>
              <LongitudeDegrees>-1.61275335587561130523681640625</LongitudeDegrees>
            </Position>
            <AltitudeMeters>452</AltitudeMeters>
            <DistanceMeters>94321.914390426</DistanceMeters>
          </Trackpoint>
          <Trackpoint>
            <Time>2018-08-26T10:24:45.000Z</Time>
            <Position>
              <LatitudeDegrees>42.833989150822162628173828125</LatitudeDegrees>
              <LongitudeDegrees>-1.612823009490966796875</LongitudeDegrees>
            </Position>
            <AltitudeMeters>452</AltitudeMeters>
            <DistanceMeters>94330.9229029</DistanceMeters>
          </Trackpoint>
          <Trackpoint>
            <Time>2018-08-26T10:24:46.000Z</Time>
            <Position>
              <LatitudeDegrees>42.83392603509128093719482421875</LatitudeDegrees>
              <LongitudeDegrees>-1.61289702169597148895263671875</LongitudeDegrees>
            </Position>
            <AltitudeMeters>451.79998779296875</AltitudeMeters>
            <DistanceMeters>94340.187885722</DistanceMeters>
          </Trackpoint>
          <Trackpoint>
            <Time>2018-08-26T10:24:47.000Z</Time>
            <Position>
              <LatitudeDegrees>42.83387482166290283203125</LatitudeDegrees>
              <LongitudeDegrees>-1.61298721097409725189208984375</LongitudeDegrees>
            </Position>
            <AltitudeMeters>451.600006103515625</AltitudeMeters>
            <DistanceMeters>94349.498079263</DistanceMeters>
          </Trackpoint>
          <Trackpoint>
            <Time>2018-08-26T10:24:48.000Z</Time>
            <Position>
              <LatitudeDegrees>42.83383400179445743560791015625</LatitudeDegrees>
              <LongitudeDegrees>-1.613084860146045684814453125</LongitudeDegrees>
            </Position>
            <AltitudeMeters>451.600006103515625</AltitudeMeters>
            <DistanceMeters>94358.671972246</DistanceMeters>
          </Trackpoint>
          <Trackpoint>
            <Time>2018-08-26T10:24:49.000Z</Time>
            <Position>
              <LatitudeDegrees>42.8337955288589000701904296875</LatitudeDegrees>
              <LongitudeDegrees>-1.61318167112767696380615234375</LongitudeDegrees>
            </Position>
            <AltitudeMeters>451.399993896484375</AltitudeMeters>
            <DistanceMeters>94367.6594098</DistanceMeters>
          </Trackpoint>
          <Trackpoint>
            <Time>2018-08-26T10:24:50.000Z</Time>
            <Position>
              <LatitudeDegrees>42.8337552957236766815185546875</LatitudeDegrees>
              <LongitudeDegrees>-1.61327772773802280426025390625</LongitudeDegrees>
            </Position>
            <AltitudeMeters>451.20001220703125</AltitudeMeters>
            <DistanceMeters>94376.688447963</DistanceMeters>
          </Trackpoint>
          <Trackpoint>
            <Time>2018-08-26T10:24:51.000Z</Time>
            <Position>
              <LatitudeDegrees>42.83371313475072383880615234375</LatitudeDegrees>
              <LongitudeDegrees>-1.61337227560579776763916015625</LongitudeDegrees>
            </Position>
            <AltitudeMeters>451</AltitudeMeters>
            <DistanceMeters>94385.720485972</DistanceMeters>
          </Trackpoint>
          <Trackpoint>
            <Time>2018-08-26T10:24:52.000Z</Time>
            <Position>
              <LatitudeDegrees>42.8336718119680881500244140625</LatitudeDegrees>
              <LongitudeDegrees>-1.6134648956358432769775390625</LongitudeDegrees>
            </Position>
            <AltitudeMeters>451</AltitudeMeters>
            <DistanceMeters>94394.569713222</DistanceMeters>
          </Trackpoint>
          <Trackpoint>
            <Time>2018-08-26T10:24:53.000Z</Time>
            <Position>
              <LatitudeDegrees>42.8336312435567378997802734375</LatitudeDegrees>
              <LongitudeDegrees>-1.61355801858007907867431640625</LongitudeDegrees>
            </Position>
            <AltitudeMeters>451</AltitudeMeters>
            <DistanceMeters>94403.410773209</DistanceMeters>
          </Trackpoint>
          <Trackpoint>
            <Time>2018-08-26T10:24:54.000Z</Time>
            <Position>
              <LatitudeDegrees>42.83359050750732421875</LatitudeDegrees>
              <LongitudeDegrees>-1.6136506386101245880126953125</LongitudeDegrees>
            </Position>
            <AltitudeMeters>450.79998779296875</AltitudeMeters>
            <DistanceMeters>94412.226261731</DistanceMeters>
          </Trackpoint>
          <Trackpoint>
            <Time>2018-08-26T10:24:55.000Z</Time>
            <Position>
              <LatitudeDegrees>42.83355002291500568389892578125</LatitudeDegrees>
              <LongitudeDegrees>-1.61374426446855068206787109375</LongitudeDegrees>
            </Position>
            <AltitudeMeters>450.79998779296875</AltitudeMeters>
            <DistanceMeters>94421.097910184</DistanceMeters>
          </Trackpoint>
          <Trackpoint>
            <Time>2018-08-26T10:24:56.000Z</Time>
            <Position>
              <LatitudeDegrees>42.8335108794271945953369140625</LatitudeDegrees>
              <LongitudeDegrees>-1.6138380579650402069091796875</LongitudeDegrees>
            </Position>
            <AltitudeMeters>450.600006103515625</AltitudeMeters>
            <DistanceMeters>94429.906225392</DistanceMeters>
          </Trackpoint>
          <Trackpoint>
            <Time>2018-08-26T10:24:57.000Z</Time>
            <Position>
              <LatitudeDegrees>42.83347056247293949127197265625</LatitudeDegrees>
              <LongitudeDegrees>-1.61393185146152973175048828125</LongitudeDegrees>
            </Position>
            <AltitudeMeters>450.600006103515625</AltitudeMeters>
            <DistanceMeters>94438.779909328</DistanceMeters>
          </Trackpoint>
          <Trackpoint>
            <Time>2018-08-26T10:24:58.000Z</Time>
            <Position>
              <LatitudeDegrees>42.8334307484328746795654296875</LatitudeDegrees>
              <LongitudeDegrees>-1.6140248067677021026611328125</LongitudeDegrees>
            </Position>
            <AltitudeMeters>450.600006103515625</AltitudeMeters>
            <DistanceMeters>94447.566155598</DistanceMeters>
          </Trackpoint>
          <Trackpoint>
            <Time>2018-08-26T10:24:59.000Z</Time>
            <Position>
              <LatitudeDegrees>42.8333908505737781524658203125</LatitudeDegrees>
              <LongitudeDegrees>-1.6141180135309696197509765625</LongitudeDegrees>
            </Position>
            <AltitudeMeters>450.600006103515625</AltitudeMeters>
            <DistanceMeters>94456.374470806</DistanceMeters>
          </Trackpoint>
          <Trackpoint>
            <Time>2018-08-26T10:25:00.000Z</Time>
            <Position>
              <LatitudeDegrees>42.83335036598145961761474609375</LatitudeDegrees>
              <LongitudeDegrees>-1.6142112202942371368408203125</LongitudeDegrees>
            </Position>
            <AltitudeMeters>450.600006103515625</AltitudeMeters>
            <DistanceMeters>94465.216552114</DistanceMeters>
          </Trackpoint>
          <Trackpoint>
            <Time>2018-08-26T10:25:01.000Z</Time>
            <Position>
              <LatitudeDegrees>42.8333100490272045135498046875</LatitudeDegrees>
              <LongitudeDegrees>-1.61430451087653636932373046875</LongitudeDegrees>
            </Position>
            <AltitudeMeters>450.399993896484375</AltitudeMeters>
            <DistanceMeters>94474.054547432</DistanceMeters>
          </Trackpoint>
          <Trackpoint>
            <Time>2018-08-26T10:25:02.000Z</Time>
            <Position>
              <LatitudeDegrees>42.8332699835300445556640625</LatitudeDegrees>
              <LongitudeDegrees>-1.61439805291593074798583984375</LongitudeDegrees>
            </Position>
            <AltitudeMeters>450.399993896484375</AltitudeMeters>
            <DistanceMeters>94482.89662874</DistanceMeters>
          </Trackpoint>
          <Trackpoint>
            <Time>2018-08-26T10:25:03.000Z</Time>
            <Position>
              <LatitudeDegrees>42.83323033712804317474365234375</LatitudeDegrees>
              <LongitudeDegrees>-1.61449201405048370361328125</LongitudeDegrees>
            </Position>
            <AltitudeMeters>450.399993896484375</AltitudeMeters>
            <DistanceMeters>94491.74585599</DistanceMeters>
          </Trackpoint>
          <Trackpoint>
            <Time>2018-08-26T10:25:04.000Z</Time>
            <Position>
              <LatitudeDegrees>42.83319110982120037078857421875</LatitudeDegrees>
              <LongitudeDegrees>-1.614585556089878082275390625</LongitudeDegrees>
            </Position>
            <AltitudeMeters>450.399993896484375</AltitudeMeters>
            <DistanceMeters>94500.541347158</DistanceMeters>
          </Trackpoint>
          <Trackpoint>
            <Time>2018-08-26T10:25:05.000Z</Time>
            <Position>
              <LatitudeDegrees>42.8331504575908184051513671875</LatitudeDegrees>
              <LongitudeDegrees>-1.614676751196384429931640625</LongitudeDegrees>
            </Position>
            <AltitudeMeters>450.399993896484375</AltitudeMeters>
            <DistanceMeters>94509.251726156</DistanceMeters>
          </Trackpoint>
          <Trackpoint>
            <Time>2018-08-26T10:25:06.000Z</Time>
            <Position>
              <LatitudeDegrees>42.8331078775227069854736328125</LatitudeDegrees>
              <LongitudeDegrees>-1.6147689521312713623046875</LongitudeDegrees>
            </Position>
            <AltitudeMeters>450.399993896484375</AltitudeMeters>
            <DistanceMeters>94518.145739291</DistanceMeters>
          </Trackpoint>
          <Trackpoint>
            <Time>2018-08-26T10:25:07.000Z</Time>
            <Position>
              <LatitudeDegrees>42.83306571654975414276123046875</LatitudeDegrees>
              <LongitudeDegrees>-1.6148626618087291717529296875</LongitudeDegrees>
            </Position>
            <AltitudeMeters>450.399993896484375</AltitudeMeters>
            <DistanceMeters>94527.119602547</DistanceMeters>
          </Trackpoint>
          <Trackpoint>
            <Time>2018-08-26T10:25:08.000Z</Time>
            <Position>
              <LatitudeDegrees>42.8330243937671184539794921875</LatitudeDegrees>
              <LongitudeDegrees>-1.61495679058134555816650390625</LongitudeDegrees>
            </Position>
            <AltitudeMeters>450.399993896484375</AltitudeMeters>
            <DistanceMeters>94536.074326374</DistanceMeters>
          </Trackpoint>
          <Trackpoint>
            <Time>2018-08-26T10:25:09.000Z</Time>
            <Position>
              <LatitudeDegrees>42.832982651889324188232421875</LatitudeDegrees>
              <LongitudeDegrees>-1.615051589906215667724609375</LongitudeDegrees>
            </Position>
            <AltitudeMeters>450.399993896484375</AltitudeMeters>
            <DistanceMeters>94545.099363189</DistanceMeters>
          </Trackpoint>
          <Trackpoint>
            <Time>2018-08-26T10:25:10.000Z</Time>
            <Position>
              <LatitudeDegrees>42.83294116146862506866455078125</LatitudeDegrees>
              <LongitudeDegrees>-1.6151456348598003387451171875</LongitudeDegrees>
            </Position>
            <AltitudeMeters>450.600006103515625</AltitudeMeters>
            <DistanceMeters>94554.05711175</DistanceMeters>
          </Trackpoint>
          <Trackpoint>
            <Time>2018-08-26T10:25:11.000Z</Time>
            <Position>
              <LatitudeDegrees>42.8328993357717990875244140625</LatitudeDegrees>
              <LongitudeDegrees>-1.6152385063469409942626953125</LongitudeDegrees>
            </Position>
            <AltitudeMeters>450.600006103515625</AltitudeMeters>
            <DistanceMeters>94562.952647703</DistanceMeters>
          </Trackpoint>
          <Trackpoint>
            <Time>2018-08-26T10:25:12.000Z</Time>
            <Position>
              <LatitudeDegrees>42.83285834826529026031494140625</LatitudeDegrees>
              <LongitudeDegrees>-1.6153323836624622344970703125</LongitudeDegrees>
            </Position>
            <AltitudeMeters>450.600006103515625</AltitudeMeters>
            <DistanceMeters>94571.869982123</DistanceMeters>
          </Trackpoint>
          <Trackpoint>
            <Time>2018-08-26T10:25:13.000Z</Time>
            <Position>
              <LatitudeDegrees>42.8328178636729717254638671875</LatitudeDegrees>
              <LongitudeDegrees>-1.6154276020824909210205078125</LongitudeDegrees>
            </Position>
            <AltitudeMeters>450.600006103515625</AltitudeMeters>
            <DistanceMeters>94580.853902384</DistanceMeters>
          </Trackpoint>
          <Trackpoint>
            <Time>2018-08-26T10:25:14.000Z</Time>
            <Position>
              <LatitudeDegrees>42.83277704380452632904052734375</LatitudeDegrees>
              <LongitudeDegrees>-1.615522988140583038330078125</LongitudeDegrees>
            </Position>
            <AltitudeMeters>450.600006103515625</AltitudeMeters>
            <DistanceMeters>94589.868427215</DistanceMeters>
          </Trackpoint>
          <Trackpoint>
            <Time>2018-08-26T10:25:15.000Z</Time>
            <Position>
              <LatitudeDegrees>42.8327373974025249481201171875</LatitudeDegrees>
              <LongitudeDegrees>-1.61561787128448486328125</LongitudeDegrees>
            </Position>
            <AltitudeMeters>450.600006103515625</AltitudeMeters>
            <DistanceMeters>94598.781710143</DistanceMeters>
          </Trackpoint>
          <Trackpoint>
            <Time>2018-08-26T10:25:16.000Z</Time>
            <Position>
              <LatitudeDegrees>42.8326995112001895904541015625</LatitudeDegrees>
              <LongitudeDegrees>-1.615712754428386688232421875</LongitudeDegrees>
            </Position>
            <AltitudeMeters>450.600006103515625</AltitudeMeters>
            <DistanceMeters>94607.600271155</DistanceMeters>
          </Trackpoint>
          <Trackpoint>
            <Time>2018-08-26T10:25:17.000Z</Time>
            <Position>
              <LatitudeDegrees>42.83266154117882251739501953125</LatitudeDegrees>
              <LongitudeDegrees>-1.6158069670200347900390625</LongitudeDegrees>
            </Position>
            <AltitudeMeters>450.600006103515625</AltitudeMeters>
            <DistanceMeters>94616.375204878</DistanceMeters>
          </Trackpoint>
          <Trackpoint>
            <Time>2018-08-26T10:25:18.000Z</Time>
            <Position>
              <LatitudeDegrees>42.83262499608099460601806640625</LatitudeDegrees>
              <LongitudeDegrees>-1.6159010119736194610595703125</LongitudeDegrees>
            </Position>
            <AltitudeMeters>450.600006103515625</AltitudeMeters>
            <DistanceMeters>94625.06274647</DistanceMeters>
          </Trackpoint>
          <Trackpoint>
            <Time>2018-08-26T10:25:19.000Z</Time>
            <Position>
              <LatitudeDegrees>42.8325925581157207489013671875</LatitudeDegrees>
              <LongitudeDegrees>-1.61599832586944103240966796875</LongitudeDegrees>
            </Position>
            <AltitudeMeters>450.399993896484375</AltitudeMeters>
            <DistanceMeters>94633.788662157</DistanceMeters>
          </Trackpoint>
          <Trackpoint>
            <Time>2018-08-26T10:25:20.000Z</Time>
            <Position>
              <LatitudeDegrees>42.8325721062719821929931640625</LatitudeDegrees>
              <LongitudeDegrees>-1.61610108800232410430908203125</LongitudeDegrees>
            </Position>
            <AltitudeMeters>450.399993896484375</AltitudeMeters>
            <DistanceMeters>94642.479840987</DistanceMeters>
          </Trackpoint>
          <Trackpoint>
            <Time>2018-08-26T10:25:21.000Z</Time>
            <Position>
              <LatitudeDegrees>42.8325647301971912384033203125</LatitudeDegrees>
              <LongitudeDegrees>-1.61620669998228549957275390625</LongitudeDegrees>
            </Position>
            <AltitudeMeters>450.399993896484375</AltitudeMeters>
            <DistanceMeters>94651.139272538</DistanceMeters>
          </Trackpoint>
          <Trackpoint>
            <Time>2018-08-26T10:25:22.000Z</Time>
            <Position>
              <LatitudeDegrees>42.83256699331104755401611328125</LatitudeDegrees>
              <LongitudeDegrees>-1.61631298251450061798095703125</LongitudeDegrees>
            </Position>
            <AltitudeMeters>450.399993896484375</AltitudeMeters>
            <DistanceMeters>94659.817454234</DistanceMeters>
          </Trackpoint>
          <Trackpoint>
            <Time>2018-08-26T10:25:23.000Z</Time>
            <Position>
              <LatitudeDegrees>42.83257051371037960052490234375</LatitudeDegrees>
              <LongitudeDegrees>-1.6164180077612400054931640625</LongitudeDegrees>
            </Position>
            <AltitudeMeters>450.20001220703125</AltitudeMeters>
            <DistanceMeters>94668.399371472</DistanceMeters>
          </Trackpoint>
          <Trackpoint>
            <Time>2018-08-26T10:25:24.000Z</Time>
            <Position>
              <LatitudeDegrees>42.83256791532039642333984375</LatitudeDegrees>
              <LongitudeDegrees>-1.61652152426540851593017578125</LongitudeDegrees>
            </Position>
            <AltitudeMeters>450.20001220703125</AltitudeMeters>
            <DistanceMeters>94676.853545296</DistanceMeters>
          </Trackpoint>
          <Trackpoint>
            <Time>2018-08-26T10:25:25.000Z</Time>
            <Position>
              <LatitudeDegrees>42.83255207352340221405029296875</LatitudeDegrees>
              <LongitudeDegrees>-1.6166215203702449798583984375</LongitudeDegrees>
            </Position>
            <AltitudeMeters>450.20001220703125</AltitudeMeters>
            <DistanceMeters>94685.204009373</DistanceMeters>
          </Trackpoint>
          <Trackpoint>
            <Time>2018-08-26T10:25:26.000Z</Time>
            <Position>
              <LatitudeDegrees>42.832517959177494049072265625</LatitudeDegrees>
              <LongitudeDegrees>-1.6167127154767513275146484375</LongitudeDegrees>
            </Position>
            <AltitudeMeters>450.20001220703125</AltitudeMeters>
            <DistanceMeters>94693.560959249</DistanceMeters>
          </Trackpoint>
          <Trackpoint>
            <Time>2018-08-26T10:25:27.000Z</Time>
            <Position>
              <LatitudeDegrees>42.8324661590158939361572265625</LatitudeDegrees>
              <LongitudeDegrees>-1.616789661347866058349609375</LongitudeDegrees>
            </Position>
            <AltitudeMeters>450.20001220703125</AltitudeMeters>
            <DistanceMeters>94702.086926371</DistanceMeters>
          </Trackpoint>
          <Trackpoint>
            <Time>2018-08-26T10:25:28.000Z</Time>
            <Position>
              <LatitudeDegrees>42.83240052871406078338623046875</LatitudeDegrees>
              <LongitudeDegrees>-1.61685210652649402618408203125</LongitudeDegrees>
            </Position>
            <AltitudeMeters>450.20001220703125</AltitudeMeters>
            <DistanceMeters>94710.994128605</DistanceMeters>
          </Trackpoint>
          <Trackpoint>
            <Time>2018-08-26T10:25:29.000Z</Time>
            <Position>
              <LatitudeDegrees>42.832328192889690399169921875</LatitudeDegrees>
              <LongitudeDegrees>-1.61691178567707538604736328125</LongitudeDegrees>
            </Position>
            <AltitudeMeters>450.20001220703125</AltitudeMeters>
            <DistanceMeters>94720.404172686</DistanceMeters>
          </Trackpoint>
          <Trackpoint>
            <Time>2018-08-26T10:25:30.000Z</Time>
            <Position>
              <LatitudeDegrees>42.83225485123693943023681640625</LatitudeDegrees>
              <LongitudeDegrees>-1.616972051560878753662109375</LongitudeDegrees>
            </Position>
            <AltitudeMeters>450.20001220703125</AltitudeMeters>
            <DistanceMeters>94729.934835777</DistanceMeters>
          </Trackpoint>
          <Trackpoint>
            <Time>2018-08-26T10:25:31.000Z</Time>
            <Position>
              <LatitudeDegrees>42.832181341946125030517578125</LatitudeDegrees>
              <LongitudeDegrees>-1.61703248508274555206298828125</LongitudeDegrees>
            </Position>
            <AltitudeMeters>450.20001220703125</AltitudeMeters>
            <DistanceMeters>94739.488211234</DistanceMeters>
          </Trackpoint>
          <Trackpoint>
            <Time>2018-08-26T10:25:32.000Z</Time>
            <Position>
              <LatitudeDegrees>42.8321114368736743927001953125</LatitudeDegrees>
              <LongitudeDegrees>-1.6170942597091197967529296875</LongitudeDegrees>
            </Position>
            <AltitudeMeters>450.20001220703125</AltitudeMeters>
            <DistanceMeters>94748.759040085</DistanceMeters>
          </Trackpoint>
          <Trackpoint>
            <Time>2018-08-26T10:25:33.000Z</Time>
            <Position>
              <LatitudeDegrees>42.83204664476215839385986328125</LatitudeDegrees>
              <LongitudeDegrees>-1.61715921945869922637939453125</LongitudeDegrees>
            </Position>
            <AltitudeMeters>450.20001220703125</AltitudeMeters>
            <DistanceMeters>94757.709729344</DistanceMeters>
          </Trackpoint>
          <Trackpoint>
            <Time>2018-08-26T10:25:34.000Z</Time>
            <Position>
              <LatitudeDegrees>42.831988893449306488037109375</LatitudeDegrees>
              <LongitudeDegrees>-1.6172290407121181488037109375</LongitudeDegrees>
            </Position>
            <AltitudeMeters>450.20001220703125</AltitudeMeters>
            <DistanceMeters>94766.300060228</DistanceMeters>
          </Trackpoint>
          <Trackpoint>
            <Time>2018-08-26T10:25:35.000Z</Time>
            <Position>
              <LatitudeDegrees>42.83193768002092838287353515625</LatitudeDegrees>
              <LongitudeDegrees>-1.6173034720122814178466796875</LongitudeDegrees>
            </Position>
            <AltitudeMeters>450.20001220703125</AltitudeMeters>
            <DistanceMeters>94774.630494639</DistanceMeters>
          </Trackpoint>
          <Trackpoint>
            <Time>2018-08-26T10:25:36.000Z</Time>
            <Position>
              <LatitudeDegrees>42.83189107663929462432861328125</LatitudeDegrees>
              <LongitudeDegrees>-1.61737941205501556396484375</LongitudeDegrees>
            </Position>
            <AltitudeMeters>450.399993896484375</AltitudeMeters>
            <DistanceMeters>94782.712794621</DistanceMeters>
          </Trackpoint>
          <Trackpoint>
            <Time>2018-08-26T10:25:37.000Z</Time>
            <Position>
              <LatitudeDegrees>42.8318469040095806121826171875</LatitudeDegrees>
              <LongitudeDegrees>-1.6174546815454959869384765625</LongitudeDegrees>
            </Position>
            <AltitudeMeters>450.399993896484375</AltitudeMeters>
            <DistanceMeters>94790.581098383</DistanceMeters>
          </Trackpoint>
          <Trackpoint>
            <Time>2018-08-26T10:25:38.000Z</Time>
            <Position>
              <LatitudeDegrees>42.83180323429405689239501953125</LatitudeDegrees>
              <LongitudeDegrees>-1.617527939379215240478515625</LongitudeDegrees>
            </Position>
            <AltitudeMeters>450.399993896484375</AltitudeMeters>
            <DistanceMeters>94798.285884074</DistanceMeters>
          </Trackpoint>
          <Trackpoint>
            <Time>2018-08-26T10:25:39.000Z</Time>
            <Position>
              <LatitudeDegrees>42.83176233060657978057861328125</LatitudeDegrees>
              <LongitudeDegrees>-1.61759608425199985504150390625</LongitudeDegrees>
            </Position>
            <AltitudeMeters>450.399993896484375</AltitudeMeters>
            <DistanceMeters>94805.472819253</DistanceMeters>
          </Trackpoint>
          <Trackpoint>
            <Time>2018-08-26T10:25:40.000Z</Time>
            <Position>
              <LatitudeDegrees>42.83172905445098876953125</LatitudeDegrees>
              <LongitudeDegrees>-1.61765492521226406097412109375</LongitudeDegrees>
            </Position>
            <AltitudeMeters>450.399993896484375</AltitudeMeters>
            <DistanceMeters>94811.538174266</DistanceMeters>
          </Trackpoint>
          <Trackpoint>
            <Time>2018-08-26T10:25:41.000Z</Time>
            <Position>
              <LatitudeDegrees>42.831703908741474151611328125</LatitudeDegrees>
              <LongitudeDegrees>-1.61770186387002468109130859375</LongitudeDegrees>
            </Position>
            <AltitudeMeters>450.600006103515625</AltitudeMeters>
            <DistanceMeters>94816.283804956</DistanceMeters>
          </Trackpoint>
          <Trackpoint>
            <Time>2018-08-26T10:25:42.000Z</Time>
            <Position>
              <LatitudeDegrees>42.83168471418321132659912109375</LatitudeDegrees>
              <LongitudeDegrees>-1.6177369840443134307861328125</LongitudeDegrees>
            </Position>
            <AltitudeMeters>450.600006103515625</AltitudeMeters>
            <DistanceMeters>94819.859638879</DistanceMeters>
          </Trackpoint>
          <Trackpoint>
            <Time>2018-08-26T10:25:43.000Z</Time>
            <Position>
              <LatitudeDegrees>42.83167113550007343292236328125</LatitudeDegrees>
              <LongitudeDegrees>-1.61776271648705005645751953125</LongitudeDegrees>
            </Position>
            <AltitudeMeters>450.600006103515625</AltitudeMeters>
            <DistanceMeters>94822.446391021</DistanceMeters>
          </Trackpoint>
          <Trackpoint>
            <Time>2018-08-26T10:25:44.000Z</Time>
            <Position>
              <LatitudeDegrees>42.8316625021398067474365234375</LatitudeDegrees>
              <LongitudeDegrees>-1.61777973175048828125</LongitudeDegrees>
            </Position>
            <AltitudeMeters>450.600006103515625</AltitudeMeters>
            <DistanceMeters>94824.132947893</DistanceMeters>
          </Trackpoint>
          <Trackpoint>
            <Time>2018-08-26T10:25:45.000Z</Time>
            <Position>
              <LatitudeDegrees>42.8316579759120941162109375</LatitudeDegrees>
              <LongitudeDegrees>-1.61778635345399379730224609375</LongitudeDegrees>
            </Position>
            <AltitudeMeters>450.600006103515625</AltitudeMeters>
            <DistanceMeters>94824.869021657</DistanceMeters>
          </Trackpoint>
          <Trackpoint>
            <Time>2018-08-26T10:26:40.000Z</Time>
            <Position>
              <LatitudeDegrees>42.8316403739154338836669921875</LatitudeDegrees>
              <LongitudeDegrees>-1.61781736649572849273681640625</LongitudeDegrees>
            </Position>
            <AltitudeMeters>452</AltitudeMeters>
            <DistanceMeters>94828.067627074</DistanceMeters>
          </Trackpoint>
          <Trackpoint>
            <Time>2018-08-26T10:26:41.000Z</Time>
            <Position>
              <LatitudeDegrees>42.83162704668939113616943359375</LatitudeDegrees>
              <LongitudeDegrees>-1.6178452782332897186279296875</LongitudeDegrees>
            </Position>
            <AltitudeMeters>452</AltitudeMeters>
            <DistanceMeters>94830.785457556</DistanceMeters>
          </Trackpoint>
          <Trackpoint>
            <Time>2018-08-26T10:26:42.000Z</Time>
            <Position>
              <LatitudeDegrees>42.83161103725433349609375</LatitudeDegrees>
              <LongitudeDegrees>-1.61788366734981536865234375</LongitudeDegrees>
            </Position>
            <AltitudeMeters>452</AltitudeMeters>
            <DistanceMeters>94834.388962784</DistanceMeters>
          </Trackpoint>
          <Trackpoint>
            <Time>2018-08-26T10:26:43.000Z</Time>
            <Position>
              <LatitudeDegrees>42.831592597067356109619140625</LatitudeDegrees>
              <LongitudeDegrees>-1.61793672479689121246337890625</LongitudeDegrees>
            </Position>
            <AltitudeMeters>452</AltitudeMeters>
            <DistanceMeters>94839.181927886</DistanceMeters>
          </Trackpoint>
          <Trackpoint>
            <Time>2018-08-26T10:26:44.000Z</Time>
            <Position>
              <LatitudeDegrees>42.8315706364810466766357421875</LatitudeDegrees>
              <LongitudeDegrees>-1.61800193600356578826904296875</LongitudeDegrees>
            </Position>
            <AltitudeMeters>452</AltitudeMeters>
            <DistanceMeters>94845.038226234</DistanceMeters>
          </Trackpoint>
          <Trackpoint>
            <Time>2018-08-26T10:26:45.000Z</Time>
            <Position>
              <LatitudeDegrees>42.8315454907715320587158203125</LatitudeDegrees>
              <LongitudeDegrees>-1.6180729307234287261962890625</LongitudeDegrees>
            </Position>
            <AltitudeMeters>452</AltitudeMeters>
            <DistanceMeters>94851.473436453</DistanceMeters>
          </Trackpoint>
          <Trackpoint>
            <Time>2018-08-26T10:26:46.000Z</Time>
            <Position>
              <LatitudeDegrees>42.83151707611978054046630859375</LatitudeDegrees>
              <LongitudeDegrees>-1.61814593710005283355712890625</LongitudeDegrees>
            </Position>
            <AltitudeMeters>452</AltitudeMeters>
            <DistanceMeters>94858.219663938</DistanceMeters>
          </Trackpoint>
          <Trackpoint>
            <Time>2018-08-26T10:26:47.000Z</Time>
            <Position>
              <LatitudeDegrees>42.83148371614515781402587890625</LatitudeDegrees>
              <LongitudeDegrees>-1.6182181052863597869873046875</LongitudeDegrees>
            </Position>
            <AltitudeMeters>452</AltitudeMeters>
            <DistanceMeters>94865.182600131</DistanceMeters>
          </Trackpoint>
          <Trackpoint>
            <Time>2018-08-26T10:26:48.000Z</Time>
            <Position>
              <LatitudeDegrees>42.83144314773380756378173828125</LatitudeDegrees>
              <LongitudeDegrees>-1.61828465759754180908203125</LongitudeDegrees>
            </Position>
            <AltitudeMeters>452</AltitudeMeters>
            <DistanceMeters>94872.245329227</DistanceMeters>
          </Trackpoint>
          <Trackpoint>
            <Time>2018-08-26T10:26:49.000Z</Time>
            <Position>
              <LatitudeDegrees>42.8313952870666980743408203125</LatitudeDegrees>
              <LongitudeDegrees>-1.6183418221771717071533203125</LongitudeDegrees>
            </Position>
            <AltitudeMeters>452</AltitudeMeters>
            <DistanceMeters>94879.327210655</DistanceMeters>
          </Trackpoint>
          <Trackpoint>
            <Time>2018-08-26T10:26:50.000Z</Time>
            <Position>
              <LatitudeDegrees>42.8313429839909076690673828125</LatitudeDegrees>
              <LongitudeDegrees>-1.618386916816234588623046875</LongitudeDegrees>
            </Position>
            <AltitudeMeters>452</AltitudeMeters>
            <DistanceMeters>94886.214517209</DistanceMeters>
          </Trackpoint>
          <Trackpoint>
            <Time>2018-08-26T10:26:51.000Z</Time>
            <Position>
              <LatitudeDegrees>42.8312879987061023712158203125</LatitudeDegrees>
              <LongitudeDegrees>-1.61841868422925472259521484375</LongitudeDegrees>
            </Position>
            <AltitudeMeters>452</AltitudeMeters>
            <DistanceMeters>94892.860954899</DistanceMeters>
          </Trackpoint>
          <Trackpoint>
            <Time>2018-08-26T10:26:52.000Z</Time>
            <Position>
              <LatitudeDegrees>42.83123259432613849639892578125</LatitudeDegrees>
              <LongitudeDegrees>-1.61844098009169101715087890625</LongitudeDegrees>
            </Position>
            <AltitudeMeters>451.600006103515625</AltitudeMeters>
            <DistanceMeters>94899.29125194</DistanceMeters>
          </Trackpoint>
          <Trackpoint>
            <Time>2018-08-26T10:26:53.000Z</Time>
            <Position>
              <LatitudeDegrees>42.83117744140326976776123046875</LatitudeDegrees>
              <LongitudeDegrees>-1.61845807917416095733642578125</LongitudeDegrees>
            </Position>
            <AltitudeMeters>451.399993896484375</AltitudeMeters>
            <DistanceMeters>94905.586726943</DistanceMeters>
          </Trackpoint>
          <Trackpoint>
            <Time>2018-08-26T10:26:54.000Z</Time>
            <Position>
              <LatitudeDegrees>42.83112564124166965484619140625</LatitudeDegrees>
              <LongitudeDegrees>-1.61846302449703216552734375</LongitudeDegrees>
            </Position>
            <AltitudeMeters>451</AltitudeMeters>
            <DistanceMeters>94911.365413877</DistanceMeters>
          </Trackpoint>
          <Trackpoint>
            <Time>2018-08-26T10:26:55.000Z</Time>
            <Position>
              <LatitudeDegrees>42.8310807980597019195556640625</LatitudeDegrees>
              <LongitudeDegrees>-1.618458665907382965087890625</LongitudeDegrees>
            </Position>
            <AltitudeMeters>451</AltitudeMeters>
            <DistanceMeters>94916.368550084</DistanceMeters>
          </Trackpoint>
          <Trackpoint>
            <Time>2018-08-26T10:26:56.000Z</Time>
            <Position>
              <LatitudeDegrees>42.8310479409992694854736328125</LatitudeDegrees>
              <LongitudeDegrees>-1.61844500340521335601806640625</LongitudeDegrees>
            </Position>
            <AltitudeMeters>450.79998779296875</AltitudeMeters>
            <DistanceMeters>94920.193301558</DistanceMeters>
          </Trackpoint>
          <Trackpoint>
            <Time>2018-08-26T10:26:57.000Z</Time>
            <Position>
              <LatitudeDegrees>42.83102673478424549102783203125</LatitudeDegrees>
              <LongitudeDegrees>-1.6184293292462825775146484375</LongitudeDegrees>
            </Position>
            <AltitudeMeters>450.79998779296875</AltitudeMeters>
            <DistanceMeters>94922.877701119</DistanceMeters>
          </Trackpoint>
          <Trackpoint>
            <Time>2018-08-26T10:26:58.000Z</Time>
            <Position>
              <LatitudeDegrees>42.831015922129154205322265625</LatitudeDegrees>
              <LongitudeDegrees>-1.61841717548668384552001953125</LongitudeDegrees>
            </Position>
            <AltitudeMeters>450.79998779296875</AltitudeMeters>
            <DistanceMeters>94924.43914937</DistanceMeters>
          </Trackpoint>
          <Trackpoint>
            <Time>2018-08-26T10:27:20.000Z</Time>
            <Position>
              <LatitudeDegrees>42.830991782248020172119140625</LatitudeDegrees>
              <LongitudeDegrees>-1.61836118437349796295166015625</LongitudeDegrees>
            </Position>
            <AltitudeMeters>451.600006103515625</AltitudeMeters>
            <DistanceMeters>94929.741095048</DistanceMeters>
          </Trackpoint>
          <Trackpoint>
            <Time>2018-08-26T10:27:21.000Z</Time>
            <Position>
              <LatitudeDegrees>42.8309708274900913238525390625</LatitudeDegrees>
              <LongitudeDegrees>-1.61832883022725582122802734375</LongitudeDegrees>
            </Position>
            <AltitudeMeters>451.600006103515625</AltitudeMeters>
            <DistanceMeters>94933.264779924</DistanceMeters>
          </Trackpoint>
          <Trackpoint>
            <Time>2018-08-26T10:27:22.000Z</Time>
            <Position>
              <LatitudeDegrees>42.83094023354351520538330078125</LatitudeDegrees>
              <LongitudeDegrees>-1.61829245276749134063720703125</LongitudeDegrees>
            </Position>
            <AltitudeMeters>451.600006103515625</AltitudeMeters>
            <DistanceMeters>94937.782298354</DistanceMeters>
          </Trackpoint>
          <Trackpoint>
            <Time>2018-08-26T10:27:23.000Z</Time>
            <Position>
              <LatitudeDegrees>42.83090150915086269378662109375</LatitudeDegrees>
              <LongitudeDegrees>-1.61825708113610744476318359375</LongitudeDegrees>
            </Position>
            <AltitudeMeters>451.600006103515625</AltitudeMeters>
            <DistanceMeters>94942.969747419</DistanceMeters>
          </Trackpoint>
          <Trackpoint>
            <Time>2018-08-26T10:27:24.000Z</Time>
            <Position>
              <LatitudeDegrees>42.830854319036006927490234375</LatitudeDegrees>
              <LongitudeDegrees>-1.61822699010372161865234375</LongitudeDegrees>
            </Position>
            <AltitudeMeters>451.600006103515625</AltitudeMeters>
            <DistanceMeters>94948.767934602</DistanceMeters>
          </Trackpoint>
          <Trackpoint>
            <Time>2018-08-26T10:27:25.000Z</Time>
            <Position>
              <LatitudeDegrees>42.83080109395086765289306640625</LatitudeDegrees>
              <LongitudeDegrees>-1.61820025183260440826416015625</LongitudeDegrees>
            </Position>
            <AltitudeMeters>451.600006103515625</AltitudeMeters>
            <DistanceMeters>94955.082028955</DistanceMeters>
          </Trackpoint>
          <Trackpoint>
            <Time>2018-08-26T10:27:26.000Z</Time>
            <Position>
              <LatitudeDegrees>42.83074443228542804718017578125</LatitudeDegrees>
              <LongitudeDegrees>-1.61817309446632862091064453125</LongitudeDegrees>
            </Position>
            <AltitudeMeters>451.600006103515625</AltitudeMeters>
            <DistanceMeters>94961.766400148</DistanceMeters>
          </Trackpoint>
          <Trackpoint>
            <Time>2018-08-26T10:27:27.000Z</Time>
            <Position>
              <LatitudeDegrees>42.83068768680095672607421875</LatitudeDegrees>
              <LongitudeDegrees>-1.618146859109401702880859375</LongitudeDegrees>
            </Position>
            <AltitudeMeters>451.600006103515625</AltitudeMeters>
            <DistanceMeters>94968.434540549</DistanceMeters>
          </Trackpoint>
          <Trackpoint>
            <Time>2018-08-26T10:27:28.000Z</Time>
            <Position>
              <LatitudeDegrees>42.8306306898593902587890625</LatitudeDegrees>
              <LongitudeDegrees>-1.61812079139053821563720703125</LongitudeDegrees>
            </Position>
            <AltitudeMeters>451.399993896484375</AltitudeMeters>
            <DistanceMeters>94975.125662952</DistanceMeters>
          </Trackpoint>
          <Trackpoint>
            <Time>2018-08-26T10:27:29.000Z</Time>
            <Position>
              <LatitudeDegrees>42.83057235181331634521484375</LatitudeDegrees>
              <LongitudeDegrees>-1.61809547804296016693115234375</LongitudeDegrees>
            </Position>
            <AltitudeMeters>451.399993896484375</AltitudeMeters>
            <DistanceMeters>94981.939813895</DistanceMeters>
          </Trackpoint>
          <Trackpoint>
            <Time>2018-08-26T10:27:30.000Z</Time>
            <Position>
              <LatitudeDegrees>42.83051292411983013153076171875</LatitudeDegrees>
              <LongitudeDegrees>-1.6180712543427944183349609375</LongitudeDegrees>
            </Position>
            <AltitudeMeters>451</AltitudeMeters>
            <DistanceMeters>94988.843489978</DistanceMeters>
          </Trackpoint>
          <Trackpoint>
            <Time>2018-08-26T10:27:31.000Z</Time>
            <Position>
              <LatitudeDegrees>42.8304524905979633331298828125</LatitudeDegrees>
              <LongitudeDegrees>-1.618046946823596954345703125</LongitudeDegrees>
            </Position>
            <AltitudeMeters>450.79998779296875</AltitudeMeters>
            <DistanceMeters>94995.856178216</DistanceMeters>
          </Trackpoint>
          <Trackpoint>
            <Time>2018-08-26T10:27:32.000Z</Time>
            <Position>
              <LatitudeDegrees>42.8303907997906208038330078125</LatitudeDegrees>
              <LongitudeDegrees>-1.61802322603762149810791015625</LongitudeDegrees>
            </Position>
            <AltitudeMeters>450.399993896484375</AltitudeMeters>
            <DistanceMeters>95002.989514095</DistanceMeters>
          </Trackpoint>
          <Trackpoint>
            <Time>2018-08-26T10:27:33.000Z</Time>
            <Position>
              <LatitudeDegrees>42.83032885752618312835693359375</LatitudeDegrees>
              <LongitudeDegrees>-1.61799891851842403411865234375</LongitudeDegrees>
            </Position>
            <AltitudeMeters>450</AltitudeMeters>
            <DistanceMeters>95010.163873699</DistanceMeters>
          </Trackpoint>
          <Trackpoint>
            <Time>2018-08-26T10:27:34.000Z</Time>
            <Position>
              <LatitudeDegrees>42.83026750199496746063232421875</LatitudeDegrees>
              <LongitudeDegrees>-1.61797025240957736968994140625</LongitudeDegrees>
            </Position>
            <AltitudeMeters>449.79998779296875</AltitudeMeters>
            <DistanceMeters>95017.383402855</DistanceMeters>
          </Trackpoint>
          <Trackpoint>
            <Time>2018-08-26T10:27:35.000Z</Time>
            <Position>
              <LatitudeDegrees>42.83020581118762493133544921875</LatitudeDegrees>
              <LongitudeDegrees>-1.61793940700590610504150390625</LongitudeDegrees>
            </Position>
            <AltitudeMeters>449.399993896484375</AltitudeMeters>
            <DistanceMeters>95024.696756585</DistanceMeters>
          </Trackpoint>
          <Trackpoint>
            <Time>2018-08-26T10:27:36.000Z</Time>
            <Position>
              <LatitudeDegrees>42.83014244399964809417724609375</LatitudeDegrees>
              <LongitudeDegrees>-1.61790906451642513275146484375</LongitudeDegrees>
            </Position>
            <AltitudeMeters>449.399993896484375</AltitudeMeters>
            <DistanceMeters>95032.171923007</DistanceMeters>
          </Trackpoint>
          <Trackpoint>
            <Time>2018-08-26T10:27:37.000Z</Time>
            <Position>
              <LatitudeDegrees>42.8300779871642589569091796875</LatitudeDegrees>
              <LongitudeDegrees>-1.61787922494113445281982421875</LongitudeDegrees>
            </Position>
            <AltitudeMeters>449.20001220703125</AltitudeMeters>
            <DistanceMeters>95039.748478685</DistanceMeters>
          </Trackpoint>
          <Trackpoint>
            <Time>2018-08-26T10:27:38.000Z</Time>
            <Position>
              <LatitudeDegrees>42.83001269213855266571044921875</LatitudeDegrees>
              <LongitudeDegrees>-1.61785005591809749603271484375</LongitudeDegrees>
            </Position>
            <AltitudeMeters>449.20001220703125</AltitudeMeters>
            <DistanceMeters>95047.396801064</DistanceMeters>
          </Trackpoint>
          <Trackpoint>
            <Time>2018-08-26T10:27:39.000Z</Time>
            <Position>
              <LatitudeDegrees>42.82994630746543407440185546875</LatitudeDegrees>
              <LongitudeDegrees>-1.6178221441805362701416015625</LongitudeDegrees>
            </Position>
            <AltitudeMeters>449.20001220703125</AltitudeMeters>
            <DistanceMeters>95055.129079909</DistanceMeters>
          </Trackpoint>
          <Trackpoint>
            <Time>2018-08-26T10:27:40.000Z</Time>
            <Position>
              <LatitudeDegrees>42.82987874932587146759033203125</LatitudeDegrees>
              <LongitudeDegrees>-1.617792136967182159423828125</LongitudeDegrees>
            </Position>
            <AltitudeMeters>449</AltitudeMeters>
            <DistanceMeters>95063.036878552</DistanceMeters>
          </Trackpoint>
          <Trackpoint>
            <Time>2018-08-26T10:27:41.000Z</Time>
            <Position>
              <LatitudeDegrees>42.829810939729213714599609375</LatitudeDegrees>
              <LongitudeDegrees>-1.6177569329738616943359375</LongitudeDegrees>
            </Position>
            <AltitudeMeters>448.79998779296875</AltitudeMeters>
            <DistanceMeters>95071.112472157</DistanceMeters>
          </Trackpoint>
          <Trackpoint>
            <Time>2018-08-26T10:27:42.000Z</Time>
            <Position>
              <LatitudeDegrees>42.829741537570953369140625</LatitudeDegrees>
              <LongitudeDegrees>-1.6177235729992389678955078125</LongitudeDegrees>
            </Position>
            <AltitudeMeters>448.79998779296875</AltitudeMeters>
            <DistanceMeters>95079.302429899</DistanceMeters>
          </Trackpoint>
          <Trackpoint>
            <Time>2018-08-26T10:27:43.000Z</Time>
            <Position>
              <LatitudeDegrees>42.82966853119432926177978515625</LatitudeDegrees>
              <LongitudeDegrees>-1.61769859492778778076171875</LongitudeDegrees>
            </Position>
            <AltitudeMeters>448.79998779296875</AltitudeMeters>
            <DistanceMeters>95087.680423943</DistanceMeters>
          </Trackpoint>
          <Trackpoint>
            <Time>2018-08-26T10:27:44.000Z</Time>
            <Position>
              <LatitudeDegrees>42.8295925073325634002685546875</LatitudeDegrees>
              <LongitudeDegrees>-1.61768493242561817169189453125</LongitudeDegrees>
            </Position>
            <AltitudeMeters>448.600006103515625</AltitudeMeters>
            <DistanceMeters>95096.215388892</DistanceMeters>
          </Trackpoint>
          <Trackpoint>
            <Time>2018-08-26T10:27:45.000Z</Time>
            <Position>
              <LatitudeDegrees>42.8295148909091949462890625</LatitudeDegrees>
              <LongitudeDegrees>-1.61768694408237934112548828125</LongitudeDegrees>
            </Position>
            <AltitudeMeters>448.600006103515625</AltitudeMeters>
            <DistanceMeters>95104.856029611</DistanceMeters>
          </Trackpoint>
          <Trackpoint>
            <Time>2018-08-26T10:27:46.000Z</Time>
            <Position>
              <LatitudeDegrees>42.829435430467128753662109375</LatitudeDegrees>
              <LongitudeDegrees>-1.617701947689056396484375</LongitudeDegrees>
            </Position>
            <AltitudeMeters>448.600006103515625</AltitudeMeters>
            <DistanceMeters>95113.784496156</DistanceMeters>
          </Trackpoint>
          <Trackpoint>
            <Time>2018-08-26T10:27:47.000Z</Time>
            <Position>
              <LatitudeDegrees>42.8293584845960140228271484375</LatitudeDegrees>
              <LongitudeDegrees>-1.61773069761693477630615234375</LongitudeDegrees>
            </Position>
            <AltitudeMeters>448.600006103515625</AltitudeMeters>
            <DistanceMeters>95122.664283739</DistanceMeters>
          </Trackpoint>
          <Trackpoint>
            <Time>2018-08-26T10:27:48.000Z</Time>
            <Position>
              <LatitudeDegrees>42.82928497530519962310791015625</LatitudeDegrees>
              <LongitudeDegrees>-1.61776757799088954925537109375</LongitudeDegrees>
            </Position>
            <AltitudeMeters>448.399993896484375</AltitudeMeters>
            <DistanceMeters>95131.382952416</DistanceMeters>
          </Trackpoint>
          <Trackpoint>
            <Time>2018-08-26T10:27:49.000Z</Time>
            <Position>
              <LatitudeDegrees>42.82921272329986095428466796875</LatitudeDegrees>
              <LongitudeDegrees>-1.61780864931643009185791015625</LongitudeDegrees>
            </Position>
            <AltitudeMeters>448.399993896484375</AltitudeMeters>
            <DistanceMeters>95140.095404573</DistanceMeters>
          </Trackpoint>
          <Trackpoint>
            <Time>2018-08-26T10:27:50.000Z</Time>
            <Position>
              <LatitudeDegrees>42.82913996838033199310302734375</LatitudeDegrees>
              <LongitudeDegrees>-1.6178481280803680419921875</LongitudeDegrees>
            </Position>
            <AltitudeMeters>448.20001220703125</AltitudeMeters>
            <DistanceMeters>95148.810965544</DistanceMeters>
          </Trackpoint>
          <Trackpoint>
            <Time>2018-08-26T10:27:51.000Z</Time>
            <Position>
              <LatitudeDegrees>42.8290678001940250396728515625</LatitudeDegrees>
              <LongitudeDegrees>-1.61788777448236942291259765625</LongitudeDegrees>
            </Position>
            <AltitudeMeters>448</AltitudeMeters>
            <DistanceMeters>95157.470397096</DistanceMeters>
          </Trackpoint>
          <Trackpoint>
            <Time>2018-08-26T10:27:52.000Z</Time>
            <Position>
              <LatitudeDegrees>42.82899730838835239410400390625</LatitudeDegrees>
              <LongitudeDegrees>-1.6179294325411319732666015625</LongitudeDegrees>
            </Position>
            <AltitudeMeters>447.600006103515625</AltitudeMeters>
            <DistanceMeters>95166.021745471</DistanceMeters>
          </Trackpoint>
          <Trackpoint>
            <Time>2018-08-26T10:27:53.000Z</Time>
            <Position>
              <LatitudeDegrees>42.82892622984945774078369140625</LatitudeDegrees>
              <LongitudeDegrees>-1.617970168590545654296875</LongitudeDegrees>
            </Position>
            <AltitudeMeters>447.20001220703125</AltitudeMeters>
            <DistanceMeters>95174.603662709</DistanceMeters>
          </Trackpoint>
          <Trackpoint>
            <Time>2018-08-26T10:27:54.000Z</Time>
            <Position>
              <LatitudeDegrees>42.82885573804378509521484375</LatitudeDegrees>
              <LongitudeDegrees>-1.61800897680222988128662109375</LongitudeDegrees>
            </Position>
            <AltitudeMeters>447</AltitudeMeters>
            <DistanceMeters>95183.064242829</DistanceMeters>
          </Trackpoint>
          <Trackpoint>
            <Time>2018-08-26T10:27:55.000Z</Time>
            <Position>
              <LatitudeDegrees>42.82878558151423931121826171875</LatitudeDegrees>
              <LongitudeDegrees>-1.61804786883294582366943359375</LongitudeDegrees>
            </Position>
            <AltitudeMeters>446.79998779296875</AltitudeMeters>
            <DistanceMeters>95191.493278448</DistanceMeters>
          </Trackpoint>
          <Trackpoint>
            <Time>2018-08-26T10:27:56.000Z</Time>
            <Position>
              <LatitudeDegrees>42.82871492207050323486328125</LatitudeDegrees>
              <LongitudeDegrees>-1.618087179958820343017578125</LongitudeDegrees>
            </Position>
            <AltitudeMeters>446.20001220703125</AltitudeMeters>
            <DistanceMeters>95199.987412353</DistanceMeters>
          </Trackpoint>
          <Trackpoint>
            <Time>2018-08-26T10:27:57.000Z</Time>
            <Position>
              <LatitudeDegrees>42.8286440111696720123291015625</LatitudeDegrees>
              <LongitudeDegrees>-1.61812640726566314697265625</LongitudeDegrees>
            </Position>
            <AltitudeMeters>445.79998779296875</AltitudeMeters>
            <DistanceMeters>95208.504372143</DistanceMeters>
          </Trackpoint>
          <Trackpoint>
            <Time>2018-08-26T10:27:58.000Z</Time>
            <Position>
              <LatitudeDegrees>42.8285742737352848052978515625</LatitudeDegrees>
              <LongitudeDegrees>-1.61816622130572795867919921875</LongitudeDegrees>
            </Position>
            <AltitudeMeters>445.79998779296875</AltitudeMeters>
            <DistanceMeters>95216.919469259</DistanceMeters>
          </Trackpoint>
          <Trackpoint>
            <Time>2018-08-26T10:27:59.000Z</Time>
            <Position>
              <LatitudeDegrees>42.828506045043468475341796875</LatitudeDegrees>
              <LongitudeDegrees>-1.61820628680288791656494140625</LongitudeDegrees>
            </Position>
            <AltitudeMeters>445.399993896484375</AltitudeMeters>
            <DistanceMeters>95225.187339522</DistanceMeters>
          </Trackpoint>
          <Trackpoint>
            <Time>2018-08-26T10:28:00.000Z</Time>
            <Position>
              <LatitudeDegrees>42.82843907363712787628173828125</LatitudeDegrees>
              <LongitudeDegrees>-1.6182442568242549896240234375</LongitudeDegrees>
            </Position>
            <AltitudeMeters>445.600006103515625</AltitudeMeters>
            <DistanceMeters>95233.260696431</DistanceMeters>
          </Trackpoint>
          <Trackpoint>
            <Time>2018-08-26T10:28:01.000Z</Time>
            <Position>
              <LatitudeDegrees>42.8283721022307872772216796875</LatitudeDegrees>
              <LongitudeDegrees>-1.618282981216907501220703125</LongitudeDegrees>
            </Position>
            <AltitudeMeters>445.399993896484375</AltitudeMeters>
            <DistanceMeters>95241.356950188</DistanceMeters>
          </Trackpoint>
          <Trackpoint>
            <Time>2018-08-26T10:28:02.000Z</Time>
            <Position>
              <LatitudeDegrees>42.8283070586621761322021484375</LatitudeDegrees>
              <LongitudeDegrees>-1.61832229234278202056884765625</LongitudeDegrees>
            </Position>
            <AltitudeMeters>445.399993896484375</AltitudeMeters>
            <DistanceMeters>95249.275589644</DistanceMeters>
          </Trackpoint>
          <Trackpoint>
            <Time>2018-08-26T10:28:03.000Z</Time>
            <Position>
              <LatitudeDegrees>42.82824025489389896392822265625</LatitudeDegrees>
              <LongitudeDegrees>-1.61835900507867336273193359375</LongitudeDegrees>
            </Position>
            <AltitudeMeters>445.399993896484375</AltitudeMeters>
            <DistanceMeters>95257.292826333</DistanceMeters>
          </Trackpoint>
          <Trackpoint>
            <Time>2018-08-26T10:28:04.000Z</Time>
            <Position>
              <LatitudeDegrees>42.8281726129353046417236328125</LatitudeDegrees>
              <LongitudeDegrees>-1.61839638836681842803955078125</LongitudeDegrees>
            </Position>
            <AltitudeMeters>445.20001220703125</AltitudeMeters>
            <DistanceMeters>95265.416359964</DistanceMeters>
          </Trackpoint>
          <Trackpoint>
            <Time>2018-08-26T10:28:05.000Z</Time>
            <Position>
              <LatitudeDegrees>42.82810497097671031951904296875</LatitudeDegrees>
              <LongitudeDegrees>-1.61843544803559780120849609375</LongitudeDegrees>
            </Position>
            <AltitudeMeters>445.20001220703125</AltitudeMeters>
            <DistanceMeters>95273.591971613</DistanceMeters>
          </Trackpoint>
          <Trackpoint>
            <Time>2018-08-26T10:28:06.000Z</Time>
            <Position>
              <LatitudeDegrees>42.8280369937419891357421875</LatitudeDegrees>
              <LongitudeDegrees>-1.61847501061856746673583984375</LongitudeDegrees>
            </Position>
            <AltitudeMeters>444.79998779296875</AltitudeMeters>
            <DistanceMeters>95281.818234</DistanceMeters>
          </Trackpoint>
          <Trackpoint>
            <Time>2018-08-26T10:28:07.000Z</Time>
            <Position>
              <LatitudeDegrees>42.8279680944979190826416015625</LatitudeDegrees>
              <LongitudeDegrees>-1.6185141541063785552978515625</LongitudeDegrees>
            </Position>
            <AltitudeMeters>444.600006103515625</AltitudeMeters>
            <DistanceMeters>95290.125873512</DistanceMeters>
          </Trackpoint>
          <Trackpoint>
            <Time>2018-08-26T10:28:08.000Z</Time>
            <Position>
              <LatitudeDegrees>42.8278983570635318756103515625</LatitudeDegrees>
              <LongitudeDegrees>-1.61855296231806278228759765625</LongitudeDegrees>
            </Position>
            <AltitudeMeters>444.399993896484375</AltitudeMeters>
            <DistanceMeters>95298.509254988</DistanceMeters>
          </Trackpoint>
          <Trackpoint>
            <Time>2018-08-26T10:28:09.000Z</Time>
            <Position>
              <LatitudeDegrees>42.82782887108623981475830078125</LatitudeDegrees>
              <LongitudeDegrees>-1.61859269253909587860107421875</LongitudeDegrees>
            </Position>
            <AltitudeMeters>444.399993896484375</AltitudeMeters>
            <DistanceMeters>95306.895328881</DistanceMeters>
          </Trackpoint>
          <Trackpoint>
            <Time>2018-08-26T10:28:10.000Z</Time>
            <Position>
              <LatitudeDegrees>42.82776030711829662322998046875</LatitudeDegrees>
              <LongitudeDegrees>-1.61862890236079692840576171875</LongitudeDegrees>
            </Position>
            <AltitudeMeters>444.399993896484375</AltitudeMeters>
            <DistanceMeters>95315.079771872</DistanceMeters>
          </Trackpoint>
          <Trackpoint>
            <Time>2018-08-26T10:28:11.000Z</Time>
            <Position>
              <LatitudeDegrees>42.82769191078841686248779296875</LatitudeDegrees>
              <LongitudeDegrees>-1.61866477690637111663818359375</LongitudeDegrees>
            </Position>
            <AltitudeMeters>444.20001220703125</AltitudeMeters>
            <DistanceMeters>95323.236585173</DistanceMeters>
          </Trackpoint>
          <Trackpoint>
            <Time>2018-08-26T10:28:12.000Z</Time>
            <Position>
              <LatitudeDegrees>42.827622592449188232421875</LatitudeDegrees>
              <LongitudeDegrees>-1.61870618350803852081298828125</LongitudeDegrees>
            </Position>
            <AltitudeMeters>444.20001220703125</AltitudeMeters>
            <DistanceMeters>95331.660262559</DistanceMeters>
          </Trackpoint>
          <Trackpoint>
            <Time>2018-08-26T10:28:13.000Z</Time>
            <Position>
              <LatitudeDegrees>42.8275540284812450408935546875</LatitudeDegrees>
              <LongitudeDegrees>-1.61875194869935512542724609375</LongitudeDegrees>
            </Position>
            <AltitudeMeters>444.20001220703125</AltitudeMeters>
            <DistanceMeters>95340.156522389</DistanceMeters>
          </Trackpoint>
          <Trackpoint>
            <Time>2018-08-26T10:28:14.000Z</Time>
            <Position>
              <LatitudeDegrees>42.82748705707490444183349609375</LatitudeDegrees>
              <LongitudeDegrees>-1.6188001446425914764404296875</LongitudeDegrees>
            </Position>
            <AltitudeMeters>444</AltitudeMeters>
            <DistanceMeters>95348.584486633</DistanceMeters>
          </Trackpoint>
          <Trackpoint>
            <Time>2018-08-26T10:28:15.000Z</Time>
            <Position>
              <LatitudeDegrees>42.827419079840183258056640625</LatitudeDegrees>
              <LongitudeDegrees>-1.618844233453273773193359375</LongitudeDegrees>
            </Position>
            <AltitudeMeters>444</AltitudeMeters>
            <DistanceMeters>95356.963019576</DistanceMeters>
          </Trackpoint>
          <Trackpoint>
            <Time>2018-08-26T10:28:16.000Z</Time>
            <Position>
              <LatitudeDegrees>42.82735076732933521270751953125</LatitudeDegrees>
              <LongitudeDegrees>-1.61888488568365573883056640625</LongitudeDegrees>
            </Position>
            <AltitudeMeters>443.79998779296875</AltitudeMeters>
            <DistanceMeters>95365.259238152</DistanceMeters>
          </Trackpoint>
          <Trackpoint>
            <Time>2018-08-26T10:28:17.000Z</Time>
            <Position>
              <LatitudeDegrees>42.82728170044720172882080078125</LatitudeDegrees>
              <LongitudeDegrees>-1.61892034113407135009765625</LongitudeDegrees>
            </Position>
            <AltitudeMeters>443.79998779296875</AltitudeMeters>
            <DistanceMeters>95373.47341682</DistanceMeters>
          </Trackpoint>
          <Trackpoint>
            <Time>2018-08-26T10:28:18.000Z</Time>
            <Position>
              <LatitudeDegrees>42.827213220298290252685546875</LatitudeDegrees>
              <LongitudeDegrees>-1.618958897888660430908203125</LongitudeDegrees>
            </Position>
            <AltitudeMeters>443.600006103515625</AltitudeMeters>
            <DistanceMeters>95381.719414371</DistanceMeters>
          </Trackpoint>
          <Trackpoint>
            <Time>2018-08-26T10:28:19.000Z</Time>
            <Position>
              <LatitudeDegrees>42.82714440487325191497802734375</LatitudeDegrees>
              <LongitudeDegrees>-1.61899720318615436553955078125</LongitudeDegrees>
            </Position>
            <AltitudeMeters>443.399993896484375</AltitudeMeters>
            <DistanceMeters>95389.992743777</DistanceMeters>
          </Trackpoint>
          <Trackpoint>
            <Time>2018-08-26T10:28:20.000Z</Time>
            <Position>
              <LatitudeDegrees>42.827072404325008392333984375</LatitudeDegrees>
              <LongitudeDegrees>-1.61903659813106060028076171875</LongitudeDegrees>
            </Position>
            <AltitudeMeters>443.399993896484375</AltitudeMeters>
            <DistanceMeters>95398.627111797</DistanceMeters>
          </Trackpoint>
          <Trackpoint>
            <Time>2018-08-26T10:28:21.000Z</Time>
            <Position>
              <LatitudeDegrees>42.82699830830097198486328125</LatitudeDegrees>
              <LongitudeDegrees>-1.619074232876300811767578125</LongitudeDegrees>
            </Position>
            <AltitudeMeters>443.20001220703125</AltitudeMeters>
            <DistanceMeters>95407.427221773</DistanceMeters>
          </Trackpoint>
          <Trackpoint>
            <Time>2018-08-26T10:28:22.000Z</Time>
            <Position>
              <LatitudeDegrees>42.82692496664822101593017578125</LatitudeDegrees>
              <LongitudeDegrees>-1.61910834722220897674560546875</LongitudeDegrees>
            </Position>
            <AltitudeMeters>443.20001220703125</AltitudeMeters>
            <DistanceMeters>95416.052172193</DistanceMeters>
          </Trackpoint>
          <Trackpoint>
            <Time>2018-08-26T10:28:23.000Z</Time>
            <Position>
              <LatitudeDegrees>42.826852463185787200927734375</LatitudeDegrees>
              <LongitudeDegrees>-1.61914522759616374969482421875</LongitudeDegrees>
            </Position>
            <AltitudeMeters>443</AltitudeMeters>
            <DistanceMeters>95424.665598228</DistanceMeters>
          </Trackpoint>
          <Trackpoint>
            <Time>2018-08-26T10:28:24.000Z</Time>
            <Position>
              <LatitudeDegrees>42.82677995972335338592529296875</LatitudeDegrees>
              <LongitudeDegrees>-1.61918428726494312286376953125</LongitudeDegrees>
            </Position>
            <AltitudeMeters>443</AltitudeMeters>
            <DistanceMeters>95433.342739312</DistanceMeters>
          </Trackpoint>
          <Trackpoint>
            <Time>2018-08-26T10:28:25.000Z</Time>
            <Position>
              <LatitudeDegrees>42.82670795917510986328125</LatitudeDegrees>
              <LongitudeDegrees>-1.6192219220101833343505859375</LongitudeDegrees>
            </Position>
            <AltitudeMeters>442.79998779296875</AltitudeMeters>
            <DistanceMeters>95441.925708707</DistanceMeters>
          </Trackpoint>
          <Trackpoint>
            <Time>2018-08-26T10:28:26.000Z</Time>
            <Position>
              <LatitudeDegrees>42.82663444988429546356201171875</LatitudeDegrees>
              <LongitudeDegrees>-1.61925955675542354583740234375</LongitudeDegrees>
            </Position>
            <AltitudeMeters>442.79998779296875</AltitudeMeters>
            <DistanceMeters>95450.665067182</DistanceMeters>
          </Trackpoint>
          <Trackpoint>
            <Time>2018-08-26T10:28:27.000Z</Time>
            <Position>
              <LatitudeDegrees>42.82655968330800533294677734375</LatitudeDegrees>
              <LongitudeDegrees>-1.61929761059582233428955078125</LongitudeDegrees>
            </Position>
            <AltitudeMeters>442.600006103515625</AltitudeMeters>
            <DistanceMeters>95459.547905015</DistanceMeters>
          </Trackpoint>
          <Trackpoint>
            <Time>2018-08-26T10:28:28.000Z</Time>
            <Position>
              <LatitudeDegrees>42.82648558728396892547607421875</LatitudeDegrees>
              <LongitudeDegrees>-1.61933608353137969970703125</LongitudeDegrees>
            </Position>
            <AltitudeMeters>442.600006103515625</AltitudeMeters>
            <DistanceMeters>95468.372607801</DistanceMeters>
          </Trackpoint>
          <Trackpoint>
            <Time>2018-08-26T10:28:29.000Z</Time>
            <Position>
              <LatitudeDegrees>42.82641165889799594879150390625</LatitudeDegrees>
              <LongitudeDegrees>-1.61937438882887363433837890625</LongitudeDegrees>
            </Position>
            <AltitudeMeters>442.600006103515625</AltitudeMeters>
            <DistanceMeters>95477.174769802</DistanceMeters>
          </Trackpoint>
          <Trackpoint>
            <Time>2018-08-26T10:28:30.000Z</Time>
            <Position>
              <LatitudeDegrees>42.82633848488330841064453125</LatitudeDegrees>
              <LongitudeDegrees>-1.61941386759281158447265625</LongitudeDegrees>
            </Position>
            <AltitudeMeters>442.399993896484375</AltitudeMeters>
            <DistanceMeters>95485.933222827</DistanceMeters>
          </Trackpoint>
          <Trackpoint>
            <Time>2018-08-26T10:28:31.000Z</Time>
            <Position>
              <LatitudeDegrees>42.82626765780150890350341796875</LatitudeDegrees>
              <LongitudeDegrees>-1.6194525919854640960693359375</LongitudeDegrees>
            </Position>
            <AltitudeMeters>442.20001220703125</AltitudeMeters>
            <DistanceMeters>95494.426293569</DistanceMeters>
          </Trackpoint>
          <Trackpoint>
            <Time>2018-08-26T10:28:32.000Z</Time>
            <Position>
              <LatitudeDegrees>42.82619875855743885040283203125</LatitudeDegrees>
              <LongitudeDegrees>-1.619492657482624053955078125</LongitudeDegrees>
            </Position>
            <AltitudeMeters>441.600006103515625</AltitudeMeters>
            <DistanceMeters>95502.763770913</DistanceMeters>
          </Trackpoint>
          <Trackpoint>
            <Time>2018-08-26T10:28:33.000Z</Time>
            <Position>
              <LatitudeDegrees>42.8261304460465908050537109375</LatitudeDegrees>
              <LongitudeDegrees>-1.6195300407707691192626953125</LongitudeDegrees>
            </Position>
            <AltitudeMeters>440.79998779296875</AltitudeMeters>
            <DistanceMeters>95510.957035725</DistanceMeters>
          </Trackpoint>
          <Trackpoint>
            <Time>2018-08-26T10:28:34.000Z</Time>
            <Position>
              <LatitudeDegrees>42.8260617144405841827392578125</LatitudeDegrees>
              <LongitudeDegrees>-1.61956817843019962310791015625</LongitudeDegrees>
            </Position>
            <AltitudeMeters>440.399993896484375</AltitudeMeters>
            <DistanceMeters>95519.216163855</DistanceMeters>
          </Trackpoint>
          <Trackpoint>
            <Time>2018-08-26T10:28:35.000Z</Time>
            <Position>
              <LatitudeDegrees>42.82599516212940216064453125</LatitudeDegrees>
              <LongitudeDegrees>-1.61960740573704242706298828125</LongitudeDegrees>
            </Position>
            <AltitudeMeters>440.399993896484375</AltitudeMeters>
            <DistanceMeters>95527.286724021</DistanceMeters>
          </Trackpoint>
          <Trackpoint>
            <Time>2018-08-26T10:28:36.000Z</Time>
            <Position>
              <LatitudeDegrees>42.82592986710369586944580078125</LatitudeDegrees>
              <LongitudeDegrees>-1.6196426935493946075439453125</LongitudeDegrees>
            </Position>
            <AltitudeMeters>440.20001220703125</AltitudeMeters>
            <DistanceMeters>95535.104367999</DistanceMeters>
          </Trackpoint>
          <Trackpoint>
            <Time>2018-08-26T10:28:37.000Z</Time>
            <Position>
              <LatitudeDegrees>42.82586683519184589385986328125</LatitudeDegrees>
              <LongitudeDegrees>-1.61967647261917591094970703125</LongitudeDegrees>
            </Position>
            <AltitudeMeters>440</AltitudeMeters>
            <DistanceMeters>95542.642089205</DistanceMeters>
          </Trackpoint>
          <Trackpoint>
            <Time>2018-08-26T10:28:38.000Z</Time>
            <Position>
              <LatitudeDegrees>42.82580480910837650299072265625</LatitudeDegrees>
              <LongitudeDegrees>-1.619713604450225830078125</LongitudeDegrees>
            </Position>
            <AltitudeMeters>440</AltitudeMeters>
            <DistanceMeters>95550.182206001</DistanceMeters>
          </Trackpoint>
          <Trackpoint>
            <Time>2018-08-26T10:28:39.000Z</Time>
            <Position>
              <LatitudeDegrees>42.825742699205875396728515625</LatitudeDegrees>
              <LongitudeDegrees>-1.61974914371967315673828125</LongitudeDegrees>
            </Position>
            <AltitudeMeters>439.79998779296875</AltitudeMeters>
            <DistanceMeters>95557.679687302</DistanceMeters>
          </Trackpoint>
          <Trackpoint>
            <Time>2018-08-26T10:28:40.000Z</Time>
            <Position>
              <LatitudeDegrees>42.8256838582456111907958984375</LatitudeDegrees>
              <LongitudeDegrees>-1.61979071795940399169921875</LongitudeDegrees>
            </Position>
            <AltitudeMeters>439.79998779296875</AltitudeMeters>
            <DistanceMeters>95565.05513173</DistanceMeters>
          </Trackpoint>
          <Trackpoint>
            <Time>2018-08-26T10:28:41.000Z</Time>
            <Position>
              <LatitudeDegrees>42.8256241790950298309326171875</LatitudeDegrees>
              <LongitudeDegrees>-1.61980773322284221649169921875</LongitudeDegrees>
            </Position>
            <AltitudeMeters>439.79998779296875</AltitudeMeters>
            <DistanceMeters>95571.841396524</DistanceMeters>
          </Trackpoint>
          <Trackpoint>
            <Time>2018-08-26T10:28:42.000Z</Time>
            <Position>
              <LatitudeDegrees>42.82556693069636821746826171875</LatitudeDegrees>
              <LongitudeDegrees>-1.61979583092033863067626953125</LongitudeDegrees>
            </Position>
            <AltitudeMeters>439.79998779296875</AltitudeMeters>
            <DistanceMeters>95578.286421865</DistanceMeters>
          </Trackpoint>
          <Trackpoint>
            <Time>2018-08-26T10:28:43.000Z</Time>
            <Position>
              <LatitudeDegrees>42.8255162201821804046630859375</LatitudeDegrees>
              <LongitudeDegrees>-1.61975693888962268829345703125</LongitudeDegrees>
            </Position>
            <AltitudeMeters>439.79998779296875</AltitudeMeters>
            <DistanceMeters>95584.761500623</DistanceMeters>
          </Trackpoint>
          <Trackpoint>
            <Time>2018-08-26T10:28:44.000Z</Time>
            <Position>
              <LatitudeDegrees>42.82547774724662303924560546875</LatitudeDegrees>
              <LongitudeDegrees>-1.619699187576770782470703125</LongitudeDegrees>
            </Position>
            <AltitudeMeters>439.79998779296875</AltitudeMeters>
            <DistanceMeters>95591.130417595</DistanceMeters>
          </Trackpoint>
          <Trackpoint>
            <Time>2018-08-26T10:28:45.000Z</Time>
            <Position>
              <LatitudeDegrees>42.8254486620426177978515625</LatitudeDegrees>
              <LongitudeDegrees>-1.6196299530565738677978515625</LongitudeDegrees>
            </Position>
            <AltitudeMeters>439.79998779296875</AltitudeMeters>
            <DistanceMeters>95597.643041417</DistanceMeters>
          </Trackpoint>
          <Trackpoint>
            <Time>2018-08-26T10:28:46.000Z</Time>
            <Position>
              <LatitudeDegrees>42.82542410306632518768310546875</LatitudeDegrees>
              <LongitudeDegrees>-1.6195568628609180450439453125</LongitudeDegrees>
            </Position>
            <AltitudeMeters>439.79998779296875</AltitudeMeters>
            <DistanceMeters>95604.206079177</DistanceMeters>
          </Trackpoint>
          <Trackpoint>
            <Time>2018-08-26T10:28:47.000Z</Time>
            <Position>
              <LatitudeDegrees>42.825403399765491485595703125</LatitudeDegrees>
              <LongitudeDegrees>-1.61947865970432758331298828125</LongitudeDegrees>
            </Position>
            <AltitudeMeters>439.79998779296875</AltitudeMeters>
            <DistanceMeters>95610.99300926</DistanceMeters>
          </Trackpoint>
          <Trackpoint>
            <Time>2018-08-26T10:28:48.000Z</Time>
            <Position>
              <LatitudeDegrees>42.82538236118853092193603515625</LatitudeDegrees>
              <LongitudeDegrees>-1.61940087564289569854736328125</LongitudeDegrees>
            </Position>
            <AltitudeMeters>439.79998779296875</AltitudeMeters>
            <DistanceMeters>95617.760619453</DistanceMeters>
          </Trackpoint>
          <Trackpoint>
            <Time>2018-08-26T10:28:49.000Z</Time>
            <Position>
              <LatitudeDegrees>42.8253606520593166351318359375</LatitudeDegrees>
              <LongitudeDegrees>-1.6193228401243686676025390625</LongitudeDegrees>
            </Position>
            <AltitudeMeters>440</AltitudeMeters>
            <DistanceMeters>95624.574107766</DistanceMeters>
          </Trackpoint>
          <Trackpoint>
            <Time>2018-08-26T10:28:50.000Z</Time>
            <Position>
              <LatitudeDegrees>42.82533743418753147125244140625</LatitudeDegrees>
              <LongitudeDegrees>-1.6192467324435710906982421875</LongitudeDegrees>
            </Position>
            <AltitudeMeters>440.20001220703125</AltitudeMeters>
            <DistanceMeters>95631.302911768</DistanceMeters>
          </Trackpoint>
          <Trackpoint>
            <Time>2018-08-26T10:28:51.000Z</Time>
            <Position>
              <LatitudeDegrees>42.82531212083995342254638671875</LatitudeDegrees>
              <LongitudeDegrees>-1.61917087621986865997314453125</LongitudeDegrees>
            </Position>
            <AltitudeMeters>440.399993896484375</AltitudeMeters>
            <DistanceMeters>95638.106452893</DistanceMeters>
          </Trackpoint>
          <Trackpoint>
            <Time>2018-08-26T10:28:52.000Z</Time>
            <Position>
              <LatitudeDegrees>42.82528513111174106597900390625</LatitudeDegrees>
              <LongitudeDegrees>-1.619100384414196014404296875</LongitudeDegrees>
            </Position>
            <AltitudeMeters>440.399993896484375</AltitudeMeters>
            <DistanceMeters>95644.598940617</DistanceMeters>
          </Trackpoint>
          <Trackpoint>
            <Time>2018-08-26T10:28:53.000Z</Time>
            <Position>
              <LatitudeDegrees>42.8252597339451313018798828125</LatitudeDegrees>
              <LongitudeDegrees>-1.61903006024658679962158203125</LongitudeDegrees>
            </Position>
            <AltitudeMeters>440.600006103515625</AltitudeMeters>
            <DistanceMeters>95650.998973957</DistanceMeters>
          </Trackpoint>
          <Trackpoint>
            <Time>2018-08-26T10:28:54.000Z</Time>
            <Position>
              <LatitudeDegrees>42.8252335824072360992431640625</LatitudeDegrees>
              <LongitudeDegrees>-1.618958227336406707763671875</LongitudeDegrees>
            </Position>
            <AltitudeMeters>440.79998779296875</AltitudeMeters>
            <DistanceMeters>95657.545480109</DistanceMeters>
          </Trackpoint>
          <Trackpoint>
            <Time>2018-08-26T10:28:55.000Z</Time>
            <Position>
              <LatitudeDegrees>42.8252070955932140350341796875</LatitudeDegrees>
              <LongitudeDegrees>-1.61888957954943180084228515625</LongitudeDegrees>
            </Position>
            <AltitudeMeters>440.79998779296875</AltitudeMeters>
            <DistanceMeters>95663.877426051</DistanceMeters>
          </Trackpoint>
          <Trackpoint>
            <Time>2018-08-26T10:28:56.000Z</Time>
            <Position>
              <LatitudeDegrees>42.82518320716917514801025390625</LatitudeDegrees>
              <LongitudeDegrees>-1.61882336251437664031982421875</LongitudeDegrees>
            </Position>
            <AltitudeMeters>441</AltitudeMeters>
            <DistanceMeters>95669.901700051</DistanceMeters>
          </Trackpoint>
          <Trackpoint>
            <Time>2018-08-26T10:28:57.000Z</Time>
            <Position>
              <LatitudeDegrees>42.82516258768737316131591796875</LatitudeDegrees>
              <LongitudeDegrees>-1.61875815130770206451416015625</LongitudeDegrees>
            </Position>
            <AltitudeMeters>441</AltitudeMeters>
            <DistanceMeters>95675.699108483</DistanceMeters>
          </Trackpoint>
          <Trackpoint>
            <Time>2018-08-26T10:28:58.000Z</Time>
            <Position>
              <LatitudeDegrees>42.8251410461962223052978515625</LatitudeDegrees>
              <LongitudeDegrees>-1.61869679577648639678955078125</LongitudeDegrees>
            </Position>
            <AltitudeMeters>441</AltitudeMeters>
            <DistanceMeters>95681.251466629</DistanceMeters>
          </Trackpoint>
          <Trackpoint>
            <Time>2018-08-26T10:28:59.000Z</Time>
            <Position>
              <LatitudeDegrees>42.82510860823094844818115234375</LatitudeDegrees>
              <LongitudeDegrees>-1.618661172688007354736328125</LongitudeDegrees>
            </Position>
            <AltitudeMeters>441</AltitudeMeters>
            <DistanceMeters>95685.887368044</DistanceMeters>
          </Trackpoint>
          <Trackpoint>
            <Time>2018-08-26T10:29:00.000Z</Time>
            <Position>
              <LatitudeDegrees>42.8250649385154247283935546875</LatitudeDegrees>
              <LongitudeDegrees>-1.61866175942122936248779296875</LongitudeDegrees>
            </Position>
            <AltitudeMeters>441</AltitudeMeters>
            <DistanceMeters>95690.747684904</DistanceMeters>
          </Trackpoint>
          <Trackpoint>
            <Time>2018-08-26T10:29:01.000Z</Time>
            <Position>
              <LatitudeDegrees>42.825026549398899078369140625</LatitudeDegrees>
              <LongitudeDegrees>-1.618681289255619049072265625</LongitudeDegrees>
            </Position>
            <AltitudeMeters>441</AltitudeMeters>
            <DistanceMeters>95695.306987041</DistanceMeters>
          </Trackpoint>
          <Trackpoint>
            <Time>2018-08-26T10:29:02.000Z</Time>
            <Position>
              <LatitudeDegrees>42.82499763183295726776123046875</LatitudeDegrees>
              <LongitudeDegrees>-1.618694700300693511962890625</LongitudeDegrees>
            </Position>
            <AltitudeMeters>441.20001220703125</AltitudeMeters>
            <DistanceMeters>95698.706766129</DistanceMeters>
          </Trackpoint>
          <Trackpoint>
            <Time>2018-08-26T10:29:03.000Z</Time>
            <Position>
              <LatitudeDegrees>42.82498572953045368194580078125</LatitudeDegrees>
              <LongitudeDegrees>-1.61870886571705341339111328125</LongitudeDegrees>
            </Position>
            <AltitudeMeters>441.20001220703125</AltitudeMeters>
            <DistanceMeters>95700.464118155</DistanceMeters>
          </Trackpoint>
          <Trackpoint>
            <Time>2018-08-26T10:29:04.000Z</Time>
            <Position>
              <LatitudeDegrees>42.824980281293392181396484375</LatitudeDegrees>
              <LongitudeDegrees>-1.61872026510536670684814453125</LongitudeDegrees>
            </Position>
            <AltitudeMeters>441.399993896484375</AltitudeMeters>
            <DistanceMeters>95701.572310556</DistanceMeters>
          </Trackpoint>
          <Trackpoint>
            <Time>2018-08-26T10:29:05.000Z</Time>
            <Position>
              <LatitudeDegrees>42.8249774314463138580322265625</LatitudeDegrees>
              <LongitudeDegrees>-1.6187277249991893768310546875</LongitudeDegrees>
            </Position>
            <AltitudeMeters>441.399993896484375</AltitudeMeters>
            <DistanceMeters>95702.257557938</DistanceMeters>
          </Trackpoint>
        </Track>
      </Lap>
    </Activity>
  </Activities>
</TrainingCenterDatabase>
